<?xml version="1.0" encoding="UTF-8" standalone="no" ?>
<gpx xmlns="http://www.topografix.com/GPX/1/1" xmlns:xsi="http://www.w3.org/2001/XMLSchema-instance" xsi:schemaLocation="http://www.topografix.com/GPX/1/1 http://www.topografix.com/GPX/1/1/gpx.xsd" version="1.1" creator="VisuGPX - https://www.visugpx.com">
  <metadata>
    <name>2019 - Etape 6 - Molsheim-Cernay</name>
  </metadata>
  <trk>
    <name><![CDATA[2019 - Etape 6 - Molsheim-Cernay]]></name>
    <trkseg>
      <trkpt lat="48.54119" lon="7.50047">
        <ele>172.3</ele>
        <time>2019-08-09T08:10:46Z</time>
      </trkpt>
      <trkpt lat="48.54123" lon="7.50046">
        <ele>172.3</ele>
        <time>2019-08-09T08:12:37Z</time>
      </trkpt>
      <trkpt lat="48.54122" lon="7.5004">
        <ele>172.3</ele>
        <time>2019-08-09T08:12:39Z</time>
      </trkpt>
      <trkpt lat="48.54125" lon="7.50032">
        <ele>172.3</ele>
        <time>2019-08-09T08:12:41Z</time>
      </trkpt>
      <trkpt lat="48.54127" lon="7.50025">
        <ele>172.3</ele>
        <time>2019-08-09T08:12:43Z</time>
      </trkpt>
      <trkpt lat="48.54128" lon="7.50022">
        <ele>172.3</ele>
        <time>2019-08-09T08:12:44Z</time>
      </trkpt>
      <trkpt lat="48.5413" lon="7.50015">
        <ele>172.3</ele>
        <time>2019-08-09T08:12:46Z</time>
      </trkpt>
      <trkpt lat="48.54128" lon="7.5001">
        <ele>172.3</ele>
        <time>2019-08-09T08:12:48Z</time>
      </trkpt>
      <trkpt lat="48.54127" lon="7.50006">
        <ele>172.3</ele>
        <time>2019-08-09T08:12:51Z</time>
      </trkpt>
      <trkpt lat="48.54125" lon="7.5">
        <ele>172.1</ele>
        <time>2019-08-09T08:13:23Z</time>
      </trkpt>
      <trkpt lat="48.54125" lon="7.49995">
        <ele>172.1</ele>
        <time>2019-08-09T08:13:26Z</time>
      </trkpt>
      <trkpt lat="48.54123" lon="7.49991">
        <ele>172.2</ele>
        <time>2019-08-09T08:13:29Z</time>
      </trkpt>
      <trkpt lat="48.54123" lon="7.49985">
        <ele>172.3</ele>
        <time>2019-08-09T08:13:31Z</time>
      </trkpt>
      <trkpt lat="48.54124" lon="7.49979">
        <ele>172.5</ele>
        <time>2019-08-09T08:13:33Z</time>
      </trkpt>
      <trkpt lat="48.54127" lon="7.49973">
        <ele>172.8</ele>
        <time>2019-08-09T08:13:35Z</time>
      </trkpt>
      <trkpt lat="48.54129" lon="7.49969">
        <ele>172.9</ele>
        <time>2019-08-09T08:13:36Z</time>
      </trkpt>
      <trkpt lat="48.5413" lon="7.49965">
        <ele>173</ele>
        <time>2019-08-09T08:13:37Z</time>
      </trkpt>
      <trkpt lat="48.54131" lon="7.49961">
        <ele>173</ele>
        <time>2019-08-09T08:13:38Z</time>
      </trkpt>
      <trkpt lat="48.54132" lon="7.49957">
        <ele>173.1</ele>
        <time>2019-08-09T08:13:39Z</time>
      </trkpt>
      <trkpt lat="48.54134" lon="7.49953">
        <ele>173.2</ele>
        <time>2019-08-09T08:13:40Z</time>
      </trkpt>
      <trkpt lat="48.54136" lon="7.49949">
        <ele>173.4</ele>
        <time>2019-08-09T08:13:41Z</time>
      </trkpt>
      <trkpt lat="48.54138" lon="7.49946">
        <ele>173.5</ele>
        <time>2019-08-09T08:13:42Z</time>
      </trkpt>
      <trkpt lat="48.5414" lon="7.49941">
        <ele>173.6</ele>
        <time>2019-08-09T08:13:43Z</time>
      </trkpt>
      <trkpt lat="48.54141" lon="7.49937">
        <ele>173.7</ele>
        <time>2019-08-09T08:13:44Z</time>
      </trkpt>
      <trkpt lat="48.54145" lon="7.49935">
        <ele>173.8</ele>
        <time>2019-08-09T08:13:46Z</time>
      </trkpt>
      <trkpt lat="48.54147" lon="7.49932">
        <ele>173.9</ele>
        <time>2019-08-09T08:13:50Z</time>
      </trkpt>
      <trkpt lat="48.54149" lon="7.49928">
        <ele>174</ele>
        <time>2019-08-09T08:13:53Z</time>
      </trkpt>
      <trkpt lat="48.54151" lon="7.4992">
        <ele>174.3</ele>
        <time>2019-08-09T08:13:55Z</time>
      </trkpt>
      <trkpt lat="48.54154" lon="7.49916">
        <ele>174.4</ele>
        <time>2019-08-09T08:13:57Z</time>
      </trkpt>
      <trkpt lat="48.54157" lon="7.49914">
        <ele>174.5</ele>
        <time>2019-08-09T08:13:59Z</time>
      </trkpt>
      <trkpt lat="48.5416" lon="7.49912">
        <ele>174.7</ele>
        <time>2019-08-09T08:14:01Z</time>
      </trkpt>
      <trkpt lat="48.54161" lon="7.49908">
        <ele>174.8</ele>
        <time>2019-08-09T08:14:14Z</time>
      </trkpt>
      <trkpt lat="48.54162" lon="7.49903">
        <ele>175.1</ele>
        <time>2019-08-09T08:14:16Z</time>
      </trkpt>
      <trkpt lat="48.54163" lon="7.49894">
        <ele>175.2</ele>
        <time>2019-08-09T08:14:18Z</time>
      </trkpt>
      <trkpt lat="48.54164" lon="7.49888">
        <ele>175.3</ele>
        <time>2019-08-09T08:14:20Z</time>
      </trkpt>
      <trkpt lat="48.54165" lon="7.49882">
        <ele>175.4</ele>
        <time>2019-08-09T08:14:22Z</time>
      </trkpt>
      <trkpt lat="48.54165" lon="7.49876">
        <ele>175.4</ele>
        <time>2019-08-09T08:14:24Z</time>
      </trkpt>
      <trkpt lat="48.54165" lon="7.4987">
        <ele>175.5</ele>
        <time>2019-08-09T08:14:36Z</time>
      </trkpt>
      <trkpt lat="48.54165" lon="7.49865">
        <ele>175.6</ele>
        <time>2019-08-09T08:14:38Z</time>
      </trkpt>
      <trkpt lat="48.54161" lon="7.49861">
        <ele>175.6</ele>
        <time>2019-08-09T08:14:40Z</time>
      </trkpt>
      <trkpt lat="48.54158" lon="7.49862">
        <ele>175.6</ele>
        <time>2019-08-09T08:14:41Z</time>
      </trkpt>
      <trkpt lat="48.54155" lon="7.4986">
        <ele>175.6</ele>
        <time>2019-08-09T08:14:42Z</time>
      </trkpt>
      <trkpt lat="48.54152" lon="7.49859">
        <ele>175.6</ele>
        <time>2019-08-09T08:14:43Z</time>
      </trkpt>
      <trkpt lat="48.54148" lon="7.49857">
        <ele>175.6</ele>
        <time>2019-08-09T08:14:44Z</time>
      </trkpt>
      <trkpt lat="48.54144" lon="7.49855">
        <ele>175.6</ele>
        <time>2019-08-09T08:14:45Z</time>
      </trkpt>
      <trkpt lat="48.54141" lon="7.49852">
        <ele>175.7</ele>
        <time>2019-08-09T08:14:46Z</time>
      </trkpt>
      <trkpt lat="48.54137" lon="7.49849">
        <ele>175.7</ele>
        <time>2019-08-09T08:14:47Z</time>
      </trkpt>
      <trkpt lat="48.54133" lon="7.49846">
        <ele>175.7</ele>
        <time>2019-08-09T08:14:48Z</time>
      </trkpt>
      <trkpt lat="48.54129" lon="7.49844">
        <ele>175.7</ele>
        <time>2019-08-09T08:14:49Z</time>
      </trkpt>
      <trkpt lat="48.54126" lon="7.49842">
        <ele>175.7</ele>
        <time>2019-08-09T08:14:50Z</time>
      </trkpt>
      <trkpt lat="48.54123" lon="7.4984">
        <ele>175.8</ele>
        <time>2019-08-09T08:14:51Z</time>
      </trkpt>
      <trkpt lat="48.54119" lon="7.49837">
        <ele>175.8</ele>
        <time>2019-08-09T08:14:52Z</time>
      </trkpt>
      <trkpt lat="48.54115" lon="7.49834">
        <ele>175.8</ele>
        <time>2019-08-09T08:14:53Z</time>
      </trkpt>
      <trkpt lat="48.54111" lon="7.49832">
        <ele>175.8</ele>
        <time>2019-08-09T08:14:54Z</time>
      </trkpt>
      <trkpt lat="48.54108" lon="7.49829">
        <ele>175.8</ele>
        <time>2019-08-09T08:14:55Z</time>
      </trkpt>
      <trkpt lat="48.54104" lon="7.49827">
        <ele>175.8</ele>
        <time>2019-08-09T08:14:56Z</time>
      </trkpt>
      <trkpt lat="48.54101" lon="7.49824">
        <ele>175.8</ele>
        <time>2019-08-09T08:14:57Z</time>
      </trkpt>
      <trkpt lat="48.54098" lon="7.49821">
        <ele>175.9</ele>
        <time>2019-08-09T08:14:58Z</time>
      </trkpt>
      <trkpt lat="48.54095" lon="7.49818">
        <ele>175.9</ele>
        <time>2019-08-09T08:14:59Z</time>
      </trkpt>
      <trkpt lat="48.54092" lon="7.49815">
        <ele>175.9</ele>
        <time>2019-08-09T08:15:00Z</time>
      </trkpt>
      <trkpt lat="48.54089" lon="7.49813">
        <ele>175.9</ele>
        <time>2019-08-09T08:15:01Z</time>
      </trkpt>
      <trkpt lat="48.54086" lon="7.4981">
        <ele>175.9</ele>
        <time>2019-08-09T08:15:02Z</time>
      </trkpt>
      <trkpt lat="48.54083" lon="7.49807">
        <ele>176</ele>
        <time>2019-08-09T08:15:03Z</time>
      </trkpt>
      <trkpt lat="48.5408" lon="7.49804">
        <ele>176</ele>
        <time>2019-08-09T08:15:04Z</time>
      </trkpt>
      <trkpt lat="48.54078" lon="7.49802">
        <ele>176</ele>
        <time>2019-08-09T08:15:05Z</time>
      </trkpt>
      <trkpt lat="48.54075" lon="7.49799">
        <ele>176</ele>
        <time>2019-08-09T08:15:06Z</time>
      </trkpt>
      <trkpt lat="48.54073" lon="7.49795">
        <ele>176</ele>
        <time>2019-08-09T08:15:07Z</time>
      </trkpt>
      <trkpt lat="48.5407" lon="7.49792">
        <ele>176</ele>
        <time>2019-08-09T08:15:08Z</time>
      </trkpt>
      <trkpt lat="48.54068" lon="7.49788">
        <ele>176.1</ele>
        <time>2019-08-09T08:15:09Z</time>
      </trkpt>
      <trkpt lat="48.54065" lon="7.49784">
        <ele>176.1</ele>
        <time>2019-08-09T08:15:10Z</time>
      </trkpt>
      <trkpt lat="48.54064" lon="7.4978">
        <ele>176.2</ele>
        <time>2019-08-09T08:15:11Z</time>
      </trkpt>
      <trkpt lat="48.54062" lon="7.49776">
        <ele>176.2</ele>
        <time>2019-08-09T08:15:12Z</time>
      </trkpt>
      <trkpt lat="48.5406" lon="7.49772">
        <ele>176.2</ele>
        <time>2019-08-09T08:15:13Z</time>
      </trkpt>
      <trkpt lat="48.54058" lon="7.49768">
        <ele>176.2</ele>
        <time>2019-08-09T08:15:14Z</time>
      </trkpt>
      <trkpt lat="48.54056" lon="7.49764">
        <ele>176.3</ele>
        <time>2019-08-09T08:15:15Z</time>
      </trkpt>
      <trkpt lat="48.54054" lon="7.4976">
        <ele>176.3</ele>
        <time>2019-08-09T08:15:16Z</time>
      </trkpt>
      <trkpt lat="48.54052" lon="7.49757">
        <ele>176.4</ele>
        <time>2019-08-09T08:15:17Z</time>
      </trkpt>
      <trkpt lat="48.5405" lon="7.49754">
        <ele>176.4</ele>
        <time>2019-08-09T08:15:18Z</time>
      </trkpt>
      <trkpt lat="48.54045" lon="7.49748">
        <ele>176.6</ele>
        <time>2019-08-09T08:15:20Z</time>
      </trkpt>
      <trkpt lat="48.54043" lon="7.49744">
        <ele>176.7</ele>
        <time>2019-08-09T08:15:21Z</time>
      </trkpt>
      <trkpt lat="48.5404" lon="7.49741">
        <ele>176.8</ele>
        <time>2019-08-09T08:15:22Z</time>
      </trkpt>
      <trkpt lat="48.54037" lon="7.49737">
        <ele>177</ele>
        <time>2019-08-09T08:15:23Z</time>
      </trkpt>
      <trkpt lat="48.54035" lon="7.49732">
        <ele>177.1</ele>
        <time>2019-08-09T08:15:24Z</time>
      </trkpt>
      <trkpt lat="48.54033" lon="7.49728">
        <ele>177.2</ele>
        <time>2019-08-09T08:15:25Z</time>
      </trkpt>
      <trkpt lat="48.54031" lon="7.49724">
        <ele>177.4</ele>
        <time>2019-08-09T08:15:26Z</time>
      </trkpt>
      <trkpt lat="48.54028" lon="7.4972">
        <ele>177.5</ele>
        <time>2019-08-09T08:15:27Z</time>
      </trkpt>
      <trkpt lat="48.54024" lon="7.49714">
        <ele>177.7</ele>
        <time>2019-08-09T08:15:29Z</time>
      </trkpt>
      <trkpt lat="48.54022" lon="7.4971">
        <ele>177.8</ele>
        <time>2019-08-09T08:15:30Z</time>
      </trkpt>
      <trkpt lat="48.54019" lon="7.49707">
        <ele>177.9</ele>
        <time>2019-08-09T08:15:31Z</time>
      </trkpt>
      <trkpt lat="48.54017" lon="7.49704">
        <ele>177.9</ele>
        <time>2019-08-09T08:15:32Z</time>
      </trkpt>
      <trkpt lat="48.54014" lon="7.49701">
        <ele>178</ele>
        <time>2019-08-09T08:15:33Z</time>
      </trkpt>
      <trkpt lat="48.54011" lon="7.49698">
        <ele>178.1</ele>
        <time>2019-08-09T08:15:34Z</time>
      </trkpt>
      <trkpt lat="48.5401" lon="7.49695">
        <ele>178.1</ele>
        <time>2019-08-09T08:15:35Z</time>
      </trkpt>
      <trkpt lat="48.54006" lon="7.49691">
        <ele>178.2</ele>
        <time>2019-08-09T08:15:37Z</time>
      </trkpt>
      <trkpt lat="48.54003" lon="7.49689">
        <ele>178.3</ele>
        <time>2019-08-09T08:15:38Z</time>
      </trkpt>
      <trkpt lat="48.54" lon="7.49688">
        <ele>178.3</ele>
        <time>2019-08-09T08:15:39Z</time>
      </trkpt>
      <trkpt lat="48.53997" lon="7.49687">
        <ele>178.4</ele>
        <time>2019-08-09T08:15:40Z</time>
      </trkpt>
      <trkpt lat="48.53994" lon="7.49686">
        <ele>178.4</ele>
        <time>2019-08-09T08:15:41Z</time>
      </trkpt>
      <trkpt lat="48.5399" lon="7.49686">
        <ele>178.5</ele>
        <time>2019-08-09T08:15:42Z</time>
      </trkpt>
      <trkpt lat="48.53985" lon="7.49687">
        <ele>178.4</ele>
        <time>2019-08-09T08:15:44Z</time>
      </trkpt>
      <trkpt lat="48.53981" lon="7.49689">
        <ele>178.4</ele>
        <time>2019-08-09T08:15:46Z</time>
      </trkpt>
      <trkpt lat="48.53978" lon="7.49687">
        <ele>178.2</ele>
        <time>2019-08-09T08:15:48Z</time>
      </trkpt>
      <trkpt lat="48.53975" lon="7.49687">
        <ele>178.2</ele>
        <time>2019-08-09T08:15:49Z</time>
      </trkpt>
      <trkpt lat="48.53971" lon="7.49687">
        <ele>178</ele>
        <time>2019-08-09T08:15:50Z</time>
      </trkpt>
      <trkpt lat="48.53967" lon="7.49686">
        <ele>177.9</ele>
        <time>2019-08-09T08:15:51Z</time>
      </trkpt>
      <trkpt lat="48.53963" lon="7.49684">
        <ele>177.8</ele>
        <time>2019-08-09T08:15:52Z</time>
      </trkpt>
      <trkpt lat="48.53958" lon="7.49683">
        <ele>177.7</ele>
        <time>2019-08-09T08:15:53Z</time>
      </trkpt>
      <trkpt lat="48.53955" lon="7.4968">
        <ele>177.7</ele>
        <time>2019-08-09T08:15:54Z</time>
      </trkpt>
      <trkpt lat="48.5395" lon="7.4968">
        <ele>177.6</ele>
        <time>2019-08-09T08:15:55Z</time>
      </trkpt>
      <trkpt lat="48.53947" lon="7.49679">
        <ele>177.6</ele>
        <time>2019-08-09T08:15:56Z</time>
      </trkpt>
      <trkpt lat="48.53943" lon="7.49677">
        <ele>177.6</ele>
        <time>2019-08-09T08:15:57Z</time>
      </trkpt>
      <trkpt lat="48.53938" lon="7.49677">
        <ele>177.5</ele>
        <time>2019-08-09T08:15:58Z</time>
      </trkpt>
      <trkpt lat="48.53933" lon="7.49676">
        <ele>177.5</ele>
        <time>2019-08-09T08:15:59Z</time>
      </trkpt>
      <trkpt lat="48.53929" lon="7.49675">
        <ele>177.4</ele>
        <time>2019-08-09T08:16:00Z</time>
      </trkpt>
      <trkpt lat="48.53925" lon="7.49674">
        <ele>177.3</ele>
        <time>2019-08-09T08:16:01Z</time>
      </trkpt>
      <trkpt lat="48.53921" lon="7.49672">
        <ele>177.3</ele>
        <time>2019-08-09T08:16:02Z</time>
      </trkpt>
      <trkpt lat="48.53918" lon="7.49672">
        <ele>177.2</ele>
        <time>2019-08-09T08:16:03Z</time>
      </trkpt>
      <trkpt lat="48.53915" lon="7.49672">
        <ele>177.1</ele>
        <time>2019-08-09T08:16:04Z</time>
      </trkpt>
      <trkpt lat="48.53911" lon="7.49672">
        <ele>177.1</ele>
        <time>2019-08-09T08:16:05Z</time>
      </trkpt>
      <trkpt lat="48.53908" lon="7.49671">
        <ele>177</ele>
        <time>2019-08-09T08:16:06Z</time>
      </trkpt>
      <trkpt lat="48.53905" lon="7.4967">
        <ele>177</ele>
        <time>2019-08-09T08:16:07Z</time>
      </trkpt>
      <trkpt lat="48.53901" lon="7.49669">
        <ele>177</ele>
        <time>2019-08-09T08:16:08Z</time>
      </trkpt>
      <trkpt lat="48.53897" lon="7.49667">
        <ele>176.9</ele>
        <time>2019-08-09T08:16:09Z</time>
      </trkpt>
      <trkpt lat="48.53893" lon="7.49665">
        <ele>176.9</ele>
        <time>2019-08-09T08:16:10Z</time>
      </trkpt>
      <trkpt lat="48.53889" lon="7.49663">
        <ele>176.8</ele>
        <time>2019-08-09T08:16:11Z</time>
      </trkpt>
      <trkpt lat="48.53885" lon="7.4966">
        <ele>176.8</ele>
        <time>2019-08-09T08:16:12Z</time>
      </trkpt>
      <trkpt lat="48.53881" lon="7.49658">
        <ele>176.8</ele>
        <time>2019-08-09T08:16:13Z</time>
      </trkpt>
      <trkpt lat="48.53877" lon="7.49654">
        <ele>176.8</ele>
        <time>2019-08-09T08:16:14Z</time>
      </trkpt>
      <trkpt lat="48.53874" lon="7.4965">
        <ele>176.7</ele>
        <time>2019-08-09T08:16:15Z</time>
      </trkpt>
      <trkpt lat="48.53872" lon="7.49647">
        <ele>176.8</ele>
        <time>2019-08-09T08:16:16Z</time>
      </trkpt>
      <trkpt lat="48.53868" lon="7.49644">
        <ele>177</ele>
        <time>2019-08-09T08:16:18Z</time>
      </trkpt>
      <trkpt lat="48.53865" lon="7.49642">
        <ele>177.1</ele>
        <time>2019-08-09T08:16:19Z</time>
      </trkpt>
      <trkpt lat="48.53861" lon="7.49636">
        <ele>177.3</ele>
        <time>2019-08-09T08:16:21Z</time>
      </trkpt>
      <trkpt lat="48.53859" lon="7.49633">
        <ele>177.4</ele>
        <time>2019-08-09T08:16:22Z</time>
      </trkpt>
      <trkpt lat="48.53857" lon="7.49629">
        <ele>177.6</ele>
        <time>2019-08-09T08:16:23Z</time>
      </trkpt>
      <trkpt lat="48.53854" lon="7.49626">
        <ele>177.7</ele>
        <time>2019-08-09T08:16:24Z</time>
      </trkpt>
      <trkpt lat="48.53851" lon="7.49623">
        <ele>177.9</ele>
        <time>2019-08-09T08:16:25Z</time>
      </trkpt>
      <trkpt lat="48.53848" lon="7.49619">
        <ele>177.9</ele>
        <time>2019-08-09T08:16:26Z</time>
      </trkpt>
      <trkpt lat="48.53847" lon="7.49615">
        <ele>178</ele>
        <time>2019-08-09T08:16:27Z</time>
      </trkpt>
      <trkpt lat="48.53844" lon="7.49612">
        <ele>178.1</ele>
        <time>2019-08-09T08:16:28Z</time>
      </trkpt>
      <trkpt lat="48.53841" lon="7.49608">
        <ele>178.2</ele>
        <time>2019-08-09T08:16:29Z</time>
      </trkpt>
      <trkpt lat="48.53839" lon="7.49604">
        <ele>178.3</ele>
        <time>2019-08-09T08:16:30Z</time>
      </trkpt>
      <trkpt lat="48.53837" lon="7.49601">
        <ele>178.4</ele>
        <time>2019-08-09T08:16:31Z</time>
      </trkpt>
      <trkpt lat="48.53835" lon="7.49596">
        <ele>178.5</ele>
        <time>2019-08-09T08:16:32Z</time>
      </trkpt>
      <trkpt lat="48.53834" lon="7.49592">
        <ele>178.5</ele>
        <time>2019-08-09T08:16:33Z</time>
      </trkpt>
      <trkpt lat="48.53832" lon="7.49586">
        <ele>178.6</ele>
        <time>2019-08-09T08:16:35Z</time>
      </trkpt>
      <trkpt lat="48.53832" lon="7.49578">
        <ele>178.7</ele>
        <time>2019-08-09T08:16:37Z</time>
      </trkpt>
      <trkpt lat="48.53832" lon="7.49573">
        <ele>178.7</ele>
        <time>2019-08-09T08:16:38Z</time>
      </trkpt>
      <trkpt lat="48.53832" lon="7.49566">
        <ele>178.7</ele>
        <time>2019-08-09T08:16:39Z</time>
      </trkpt>
      <trkpt lat="48.53831" lon="7.4956">
        <ele>178.7</ele>
        <time>2019-08-09T08:16:40Z</time>
      </trkpt>
      <trkpt lat="48.5383" lon="7.49554">
        <ele>178.7</ele>
        <time>2019-08-09T08:16:41Z</time>
      </trkpt>
      <trkpt lat="48.53829" lon="7.49549">
        <ele>178.7</ele>
        <time>2019-08-09T08:16:42Z</time>
      </trkpt>
      <trkpt lat="48.53827" lon="7.49543">
        <ele>178.7</ele>
        <time>2019-08-09T08:16:43Z</time>
      </trkpt>
      <trkpt lat="48.53826" lon="7.49537">
        <ele>178.7</ele>
        <time>2019-08-09T08:16:44Z</time>
      </trkpt>
      <trkpt lat="48.53824" lon="7.49531">
        <ele>178.7</ele>
        <time>2019-08-09T08:16:45Z</time>
      </trkpt>
      <trkpt lat="48.53822" lon="7.49526">
        <ele>178.7</ele>
        <time>2019-08-09T08:16:46Z</time>
      </trkpt>
      <trkpt lat="48.5382" lon="7.4952">
        <ele>178.7</ele>
        <time>2019-08-09T08:16:47Z</time>
      </trkpt>
      <trkpt lat="48.53818" lon="7.49514">
        <ele>178.7</ele>
        <time>2019-08-09T08:16:48Z</time>
      </trkpt>
      <trkpt lat="48.53815" lon="7.49507">
        <ele>178.6</ele>
        <time>2019-08-09T08:16:49Z</time>
      </trkpt>
      <trkpt lat="48.53813" lon="7.49502">
        <ele>178.7</ele>
        <time>2019-08-09T08:16:50Z</time>
      </trkpt>
      <trkpt lat="48.5381" lon="7.49497">
        <ele>178.7</ele>
        <time>2019-08-09T08:16:51Z</time>
      </trkpt>
      <trkpt lat="48.53808" lon="7.49491">
        <ele>178.7</ele>
        <time>2019-08-09T08:16:52Z</time>
      </trkpt>
      <trkpt lat="48.53806" lon="7.49486">
        <ele>178.8</ele>
        <time>2019-08-09T08:16:53Z</time>
      </trkpt>
      <trkpt lat="48.53804" lon="7.49481">
        <ele>178.8</ele>
        <time>2019-08-09T08:16:54Z</time>
      </trkpt>
      <trkpt lat="48.53803" lon="7.49475">
        <ele>178.8</ele>
        <time>2019-08-09T08:16:55Z</time>
      </trkpt>
      <trkpt lat="48.53801" lon="7.4947">
        <ele>178.8</ele>
        <time>2019-08-09T08:16:56Z</time>
      </trkpt>
      <trkpt lat="48.538" lon="7.49465">
        <ele>178.8</ele>
        <time>2019-08-09T08:16:57Z</time>
      </trkpt>
      <trkpt lat="48.53799" lon="7.49461">
        <ele>178.8</ele>
        <time>2019-08-09T08:16:58Z</time>
      </trkpt>
      <trkpt lat="48.53798" lon="7.49452">
        <ele>178.8</ele>
        <time>2019-08-09T08:17:00Z</time>
      </trkpt>
      <trkpt lat="48.53797" lon="7.49446">
        <ele>178.7</ele>
        <time>2019-08-09T08:17:01Z</time>
      </trkpt>
      <trkpt lat="48.53797" lon="7.49439">
        <ele>178.6</ele>
        <time>2019-08-09T08:17:02Z</time>
      </trkpt>
      <trkpt lat="48.53797" lon="7.49432">
        <ele>178.6</ele>
        <time>2019-08-09T08:17:03Z</time>
      </trkpt>
      <trkpt lat="48.53797" lon="7.49424">
        <ele>178.5</ele>
        <time>2019-08-09T08:17:04Z</time>
      </trkpt>
      <trkpt lat="48.53797" lon="7.49418">
        <ele>178.5</ele>
        <time>2019-08-09T08:17:05Z</time>
      </trkpt>
      <trkpt lat="48.53797" lon="7.49412">
        <ele>178.5</ele>
        <time>2019-08-09T08:17:06Z</time>
      </trkpt>
      <trkpt lat="48.53798" lon="7.49406">
        <ele>178.5</ele>
        <time>2019-08-09T08:17:07Z</time>
      </trkpt>
      <trkpt lat="48.53799" lon="7.494">
        <ele>178.6</ele>
        <time>2019-08-09T08:17:08Z</time>
      </trkpt>
      <trkpt lat="48.53798" lon="7.49392">
        <ele>178.7</ele>
        <time>2019-08-09T08:17:09Z</time>
      </trkpt>
      <trkpt lat="48.53798" lon="7.49385">
        <ele>178.9</ele>
        <time>2019-08-09T08:17:10Z</time>
      </trkpt>
      <trkpt lat="48.53797" lon="7.49379">
        <ele>179</ele>
        <time>2019-08-09T08:17:11Z</time>
      </trkpt>
      <trkpt lat="48.53797" lon="7.49374">
        <ele>179</ele>
        <time>2019-08-09T08:17:12Z</time>
      </trkpt>
      <trkpt lat="48.53797" lon="7.49369">
        <ele>179</ele>
        <time>2019-08-09T08:17:13Z</time>
      </trkpt>
      <trkpt lat="48.53796" lon="7.49363">
        <ele>179</ele>
        <time>2019-08-09T08:17:14Z</time>
      </trkpt>
      <trkpt lat="48.53795" lon="7.49356">
        <ele>179</ele>
        <time>2019-08-09T08:17:15Z</time>
      </trkpt>
      <trkpt lat="48.53794" lon="7.4935">
        <ele>179</ele>
        <time>2019-08-09T08:17:16Z</time>
      </trkpt>
      <trkpt lat="48.53793" lon="7.49345">
        <ele>179</ele>
        <time>2019-08-09T08:17:17Z</time>
      </trkpt>
      <trkpt lat="48.53791" lon="7.49341">
        <ele>179</ele>
        <time>2019-08-09T08:17:18Z</time>
      </trkpt>
      <trkpt lat="48.53789" lon="7.49337">
        <ele>179</ele>
        <time>2019-08-09T08:17:19Z</time>
      </trkpt>
      <trkpt lat="48.53787" lon="7.49333">
        <ele>179</ele>
        <time>2019-08-09T08:17:20Z</time>
      </trkpt>
      <trkpt lat="48.53784" lon="7.49328">
        <ele>179</ele>
        <time>2019-08-09T08:17:21Z</time>
      </trkpt>
      <trkpt lat="48.53782" lon="7.49325">
        <ele>179</ele>
        <time>2019-08-09T08:17:22Z</time>
      </trkpt>
      <trkpt lat="48.53779" lon="7.49322">
        <ele>179</ele>
        <time>2019-08-09T08:17:23Z</time>
      </trkpt>
      <trkpt lat="48.53777" lon="7.49318">
        <ele>179</ele>
        <time>2019-08-09T08:17:24Z</time>
      </trkpt>
      <trkpt lat="48.53774" lon="7.49315">
        <ele>179</ele>
        <time>2019-08-09T08:17:25Z</time>
      </trkpt>
      <trkpt lat="48.53772" lon="7.49311">
        <ele>179</ele>
        <time>2019-08-09T08:17:26Z</time>
      </trkpt>
      <trkpt lat="48.53769" lon="7.49308">
        <ele>179</ele>
        <time>2019-08-09T08:17:27Z</time>
      </trkpt>
      <trkpt lat="48.53767" lon="7.49304">
        <ele>179</ele>
        <time>2019-08-09T08:17:28Z</time>
      </trkpt>
      <trkpt lat="48.53763" lon="7.49298">
        <ele>179</ele>
        <time>2019-08-09T08:17:30Z</time>
      </trkpt>
      <trkpt lat="48.5376" lon="7.49293">
        <ele>179</ele>
        <time>2019-08-09T08:17:31Z</time>
      </trkpt>
      <trkpt lat="48.53757" lon="7.49288">
        <ele>179</ele>
        <time>2019-08-09T08:17:32Z</time>
      </trkpt>
      <trkpt lat="48.53755" lon="7.49284">
        <ele>179</ele>
        <time>2019-08-09T08:17:33Z</time>
      </trkpt>
      <trkpt lat="48.53753" lon="7.4928">
        <ele>179.1</ele>
        <time>2019-08-09T08:17:34Z</time>
      </trkpt>
      <trkpt lat="48.5375" lon="7.49276">
        <ele>179.1</ele>
        <time>2019-08-09T08:17:35Z</time>
      </trkpt>
      <trkpt lat="48.53747" lon="7.49273">
        <ele>179.1</ele>
        <time>2019-08-09T08:17:36Z</time>
      </trkpt>
      <trkpt lat="48.53744" lon="7.49269">
        <ele>179.1</ele>
        <time>2019-08-09T08:17:37Z</time>
      </trkpt>
      <trkpt lat="48.53741" lon="7.49266">
        <ele>179.2</ele>
        <time>2019-08-09T08:17:38Z</time>
      </trkpt>
      <trkpt lat="48.53739" lon="7.49263">
        <ele>179.2</ele>
        <time>2019-08-09T08:17:39Z</time>
      </trkpt>
      <trkpt lat="48.53736" lon="7.4926">
        <ele>179.2</ele>
        <time>2019-08-09T08:17:40Z</time>
      </trkpt>
      <trkpt lat="48.53733" lon="7.49259">
        <ele>179.2</ele>
        <time>2019-08-09T08:17:41Z</time>
      </trkpt>
      <trkpt lat="48.5373" lon="7.49258">
        <ele>179.1</ele>
        <time>2019-08-09T08:17:42Z</time>
      </trkpt>
      <trkpt lat="48.53727" lon="7.49255">
        <ele>179</ele>
        <time>2019-08-09T08:17:43Z</time>
      </trkpt>
      <trkpt lat="48.53724" lon="7.49254">
        <ele>179</ele>
        <time>2019-08-09T08:17:44Z</time>
      </trkpt>
      <trkpt lat="48.53717" lon="7.49254">
        <ele>179</ele>
        <time>2019-08-09T08:17:45Z</time>
      </trkpt>
      <trkpt lat="48.53713" lon="7.49254">
        <ele>179</ele>
        <time>2019-08-09T08:17:46Z</time>
      </trkpt>
      <trkpt lat="48.53709" lon="7.49253">
        <ele>179</ele>
        <time>2019-08-09T08:17:47Z</time>
      </trkpt>
      <trkpt lat="48.53705" lon="7.49254">
        <ele>179</ele>
        <time>2019-08-09T08:17:48Z</time>
      </trkpt>
      <trkpt lat="48.53702" lon="7.49254">
        <ele>179</ele>
        <time>2019-08-09T08:17:49Z</time>
      </trkpt>
      <trkpt lat="48.53698" lon="7.49253">
        <ele>178.9</ele>
        <time>2019-08-09T08:17:50Z</time>
      </trkpt>
      <trkpt lat="48.53696" lon="7.49251">
        <ele>178.9</ele>
        <time>2019-08-09T08:17:51Z</time>
      </trkpt>
      <trkpt lat="48.53693" lon="7.49249">
        <ele>178.9</ele>
        <time>2019-08-09T08:17:52Z</time>
      </trkpt>
      <trkpt lat="48.53691" lon="7.49247">
        <ele>178.9</ele>
        <time>2019-08-09T08:17:53Z</time>
      </trkpt>
      <trkpt lat="48.53687" lon="7.49244">
        <ele>178.8</ele>
        <time>2019-08-09T08:17:55Z</time>
      </trkpt>
      <trkpt lat="48.53682" lon="7.49245">
        <ele>178.8</ele>
        <time>2019-08-09T08:17:58Z</time>
      </trkpt>
      <trkpt lat="48.53679" lon="7.49246">
        <ele>178.8</ele>
        <time>2019-08-09T08:17:59Z</time>
      </trkpt>
      <trkpt lat="48.53675" lon="7.49243">
        <ele>178.8</ele>
        <time>2019-08-09T08:18:01Z</time>
      </trkpt>
      <trkpt lat="48.53671" lon="7.4924">
        <ele>178.7</ele>
        <time>2019-08-09T08:18:03Z</time>
      </trkpt>
      <trkpt lat="48.53668" lon="7.49236">
        <ele>178.7</ele>
        <time>2019-08-09T08:18:05Z</time>
      </trkpt>
      <trkpt lat="48.53665" lon="7.49231">
        <ele>178.6</ele>
        <time>2019-08-09T08:18:07Z</time>
      </trkpt>
      <trkpt lat="48.53661" lon="7.49225">
        <ele>178.5</ele>
        <time>2019-08-09T08:18:09Z</time>
      </trkpt>
      <trkpt lat="48.53658" lon="7.4922">
        <ele>178.5</ele>
        <time>2019-08-09T08:18:11Z</time>
      </trkpt>
      <trkpt lat="48.53656" lon="7.49216">
        <ele>178.5</ele>
        <time>2019-08-09T08:18:12Z</time>
      </trkpt>
      <trkpt lat="48.53653" lon="7.49212">
        <ele>178.4</ele>
        <time>2019-08-09T08:18:13Z</time>
      </trkpt>
      <trkpt lat="48.53651" lon="7.49208">
        <ele>178.4</ele>
        <time>2019-08-09T08:18:14Z</time>
      </trkpt>
      <trkpt lat="48.53647" lon="7.49206">
        <ele>178.4</ele>
        <time>2019-08-09T08:18:15Z</time>
      </trkpt>
      <trkpt lat="48.53642" lon="7.49206">
        <ele>178.4</ele>
        <time>2019-08-09T08:18:16Z</time>
      </trkpt>
      <trkpt lat="48.53638" lon="7.49207">
        <ele>178.4</ele>
        <time>2019-08-09T08:18:17Z</time>
      </trkpt>
      <trkpt lat="48.53634" lon="7.49208">
        <ele>178.4</ele>
        <time>2019-08-09T08:18:18Z</time>
      </trkpt>
      <trkpt lat="48.5363" lon="7.49209">
        <ele>178.4</ele>
        <time>2019-08-09T08:18:19Z</time>
      </trkpt>
      <trkpt lat="48.53627" lon="7.49209">
        <ele>178.4</ele>
        <time>2019-08-09T08:18:20Z</time>
      </trkpt>
      <trkpt lat="48.53623" lon="7.49209">
        <ele>178.4</ele>
        <time>2019-08-09T08:18:21Z</time>
      </trkpt>
      <trkpt lat="48.53619" lon="7.49209">
        <ele>178.4</ele>
        <time>2019-08-09T08:18:22Z</time>
      </trkpt>
      <trkpt lat="48.53615" lon="7.49209">
        <ele>178.4</ele>
        <time>2019-08-09T08:18:23Z</time>
      </trkpt>
      <trkpt lat="48.53612" lon="7.49209">
        <ele>178.4</ele>
        <time>2019-08-09T08:18:24Z</time>
      </trkpt>
      <trkpt lat="48.53609" lon="7.4921">
        <ele>178.5</ele>
        <time>2019-08-09T08:18:25Z</time>
      </trkpt>
      <trkpt lat="48.53605" lon="7.4921">
        <ele>178.5</ele>
        <time>2019-08-09T08:18:26Z</time>
      </trkpt>
      <trkpt lat="48.53601" lon="7.4921">
        <ele>178.5</ele>
        <time>2019-08-09T08:18:27Z</time>
      </trkpt>
      <trkpt lat="48.53597" lon="7.4921">
        <ele>178.5</ele>
        <time>2019-08-09T08:18:28Z</time>
      </trkpt>
      <trkpt lat="48.53594" lon="7.4921">
        <ele>178.5</ele>
        <time>2019-08-09T08:18:29Z</time>
      </trkpt>
      <trkpt lat="48.5359" lon="7.4921">
        <ele>178.5</ele>
        <time>2019-08-09T08:18:30Z</time>
      </trkpt>
      <trkpt lat="48.53586" lon="7.49211">
        <ele>178.5</ele>
        <time>2019-08-09T08:18:31Z</time>
      </trkpt>
      <trkpt lat="48.53582" lon="7.49211">
        <ele>178.5</ele>
        <time>2019-08-09T08:18:32Z</time>
      </trkpt>
      <trkpt lat="48.53578" lon="7.49212">
        <ele>178.5</ele>
        <time>2019-08-09T08:18:33Z</time>
      </trkpt>
      <trkpt lat="48.53575" lon="7.49213">
        <ele>178.5</ele>
        <time>2019-08-09T08:18:34Z</time>
      </trkpt>
      <trkpt lat="48.53571" lon="7.49214">
        <ele>178.5</ele>
        <time>2019-08-09T08:18:35Z</time>
      </trkpt>
      <trkpt lat="48.53567" lon="7.49214">
        <ele>178.5</ele>
        <time>2019-08-09T08:18:36Z</time>
      </trkpt>
      <trkpt lat="48.53563" lon="7.49214">
        <ele>178.5</ele>
        <time>2019-08-09T08:18:37Z</time>
      </trkpt>
      <trkpt lat="48.53559" lon="7.49215">
        <ele>178.5</ele>
        <time>2019-08-09T08:18:38Z</time>
      </trkpt>
      <trkpt lat="48.53554" lon="7.49214">
        <ele>178.5</ele>
        <time>2019-08-09T08:18:39Z</time>
      </trkpt>
      <trkpt lat="48.5355" lon="7.49213">
        <ele>178.5</ele>
        <time>2019-08-09T08:18:40Z</time>
      </trkpt>
      <trkpt lat="48.53546" lon="7.49214">
        <ele>178.5</ele>
        <time>2019-08-09T08:18:41Z</time>
      </trkpt>
      <trkpt lat="48.53542" lon="7.49213">
        <ele>178.5</ele>
        <time>2019-08-09T08:18:42Z</time>
      </trkpt>
      <trkpt lat="48.53538" lon="7.49212">
        <ele>178.4</ele>
        <time>2019-08-09T08:18:43Z</time>
      </trkpt>
      <trkpt lat="48.53534" lon="7.49212">
        <ele>178.4</ele>
        <time>2019-08-09T08:18:44Z</time>
      </trkpt>
      <trkpt lat="48.5353" lon="7.49212">
        <ele>178.4</ele>
        <time>2019-08-09T08:18:45Z</time>
      </trkpt>
      <trkpt lat="48.53526" lon="7.49212">
        <ele>178.4</ele>
        <time>2019-08-09T08:18:46Z</time>
      </trkpt>
      <trkpt lat="48.53522" lon="7.49212">
        <ele>178.4</ele>
        <time>2019-08-09T08:18:47Z</time>
      </trkpt>
      <trkpt lat="48.53517" lon="7.49213">
        <ele>178.4</ele>
        <time>2019-08-09T08:18:48Z</time>
      </trkpt>
      <trkpt lat="48.53513" lon="7.49212">
        <ele>178.3</ele>
        <time>2019-08-09T08:18:49Z</time>
      </trkpt>
      <trkpt lat="48.53509" lon="7.49212">
        <ele>178.3</ele>
        <time>2019-08-09T08:18:50Z</time>
      </trkpt>
      <trkpt lat="48.53505" lon="7.49212">
        <ele>178.3</ele>
        <time>2019-08-09T08:18:51Z</time>
      </trkpt>
      <trkpt lat="48.53502" lon="7.49211">
        <ele>178.3</ele>
        <time>2019-08-09T08:18:52Z</time>
      </trkpt>
      <trkpt lat="48.53499" lon="7.49211">
        <ele>178.3</ele>
        <time>2019-08-09T08:18:53Z</time>
      </trkpt>
      <trkpt lat="48.53495" lon="7.49209">
        <ele>178.3</ele>
        <time>2019-08-09T08:18:55Z</time>
      </trkpt>
      <trkpt lat="48.53496" lon="7.49213">
        <ele>178.3</ele>
        <time>2019-08-09T08:18:58Z</time>
      </trkpt>
      <trkpt lat="48.53492" lon="7.49216">
        <ele>178.3</ele>
        <time>2019-08-09T08:19:00Z</time>
      </trkpt>
      <trkpt lat="48.53489" lon="7.49211">
        <ele>178.3</ele>
        <time>2019-08-09T08:19:02Z</time>
      </trkpt>
      <trkpt lat="48.53487" lon="7.49207">
        <ele>178.3</ele>
        <time>2019-08-09T08:19:03Z</time>
      </trkpt>
      <trkpt lat="48.53486" lon="7.49203">
        <ele>178.4</ele>
        <time>2019-08-09T08:19:04Z</time>
      </trkpt>
      <trkpt lat="48.53485" lon="7.49199">
        <ele>178.5</ele>
        <time>2019-08-09T08:19:05Z</time>
      </trkpt>
      <trkpt lat="48.53485" lon="7.49194">
        <ele>178.6</ele>
        <time>2019-08-09T08:19:06Z</time>
      </trkpt>
      <trkpt lat="48.53485" lon="7.49189">
        <ele>178.7</ele>
        <time>2019-08-09T08:19:07Z</time>
      </trkpt>
      <trkpt lat="48.53486" lon="7.49185">
        <ele>178.7</ele>
        <time>2019-08-09T08:19:08Z</time>
      </trkpt>
      <trkpt lat="48.53486" lon="7.49178">
        <ele>178.8</ele>
        <time>2019-08-09T08:19:09Z</time>
      </trkpt>
      <trkpt lat="48.53486" lon="7.49173">
        <ele>178.8</ele>
        <time>2019-08-09T08:19:10Z</time>
      </trkpt>
      <trkpt lat="48.53486" lon="7.49168">
        <ele>178.9</ele>
        <time>2019-08-09T08:19:11Z</time>
      </trkpt>
      <trkpt lat="48.53486" lon="7.4916">
        <ele>178.9</ele>
        <time>2019-08-09T08:19:13Z</time>
      </trkpt>
      <trkpt lat="48.53487" lon="7.49156">
        <ele>178.9</ele>
        <time>2019-08-09T08:19:14Z</time>
      </trkpt>
      <trkpt lat="48.53486" lon="7.49152">
        <ele>178.9</ele>
        <time>2019-08-09T08:19:15Z</time>
      </trkpt>
      <trkpt lat="48.53486" lon="7.49145">
        <ele>178.9</ele>
        <time>2019-08-09T08:19:17Z</time>
      </trkpt>
      <trkpt lat="48.53486" lon="7.49135">
        <ele>178.9</ele>
        <time>2019-08-09T08:19:19Z</time>
      </trkpt>
      <trkpt lat="48.53487" lon="7.4913">
        <ele>178.9</ele>
        <time>2019-08-09T08:19:20Z</time>
      </trkpt>
      <trkpt lat="48.53487" lon="7.49126">
        <ele>179</ele>
        <time>2019-08-09T08:19:22Z</time>
      </trkpt>
      <trkpt lat="48.53487" lon="7.49121">
        <ele>179</ele>
        <time>2019-08-09T08:19:25Z</time>
      </trkpt>
      <trkpt lat="48.53487" lon="7.49115">
        <ele>179</ele>
        <time>2019-08-09T08:19:27Z</time>
      </trkpt>
      <trkpt lat="48.53484" lon="7.49108">
        <ele>179</ele>
        <time>2019-08-09T08:19:29Z</time>
      </trkpt>
      <trkpt lat="48.5348" lon="7.49107">
        <ele>179</ele>
        <time>2019-08-09T08:19:30Z</time>
      </trkpt>
      <trkpt lat="48.53477" lon="7.49108">
        <ele>179</ele>
        <time>2019-08-09T08:19:31Z</time>
      </trkpt>
      <trkpt lat="48.53473" lon="7.49108">
        <ele>179</ele>
        <time>2019-08-09T08:19:32Z</time>
      </trkpt>
      <trkpt lat="48.53468" lon="7.49108">
        <ele>178.9</ele>
        <time>2019-08-09T08:19:33Z</time>
      </trkpt>
      <trkpt lat="48.53464" lon="7.49109">
        <ele>178.9</ele>
        <time>2019-08-09T08:19:34Z</time>
      </trkpt>
      <trkpt lat="48.53461" lon="7.49108">
        <ele>178.9</ele>
        <time>2019-08-09T08:19:35Z</time>
      </trkpt>
      <trkpt lat="48.53458" lon="7.49106">
        <ele>178.9</ele>
        <time>2019-08-09T08:19:36Z</time>
      </trkpt>
      <trkpt lat="48.53452" lon="7.49104">
        <ele>178.9</ele>
        <time>2019-08-09T08:19:38Z</time>
      </trkpt>
      <trkpt lat="48.5345" lon="7.49103">
        <ele>178.9</ele>
        <time>2019-08-09T08:19:39Z</time>
      </trkpt>
      <trkpt lat="48.53446" lon="7.49103">
        <ele>178.9</ele>
        <time>2019-08-09T08:19:40Z</time>
      </trkpt>
      <trkpt lat="48.53443" lon="7.49102">
        <ele>178.9</ele>
        <time>2019-08-09T08:19:41Z</time>
      </trkpt>
      <trkpt lat="48.53439" lon="7.49102">
        <ele>178.8</ele>
        <time>2019-08-09T08:19:42Z</time>
      </trkpt>
      <trkpt lat="48.53435" lon="7.49101">
        <ele>178.8</ele>
        <time>2019-08-09T08:19:43Z</time>
      </trkpt>
      <trkpt lat="48.53432" lon="7.49101">
        <ele>178.8</ele>
        <time>2019-08-09T08:19:44Z</time>
      </trkpt>
      <trkpt lat="48.53428" lon="7.491">
        <ele>178.8</ele>
        <time>2019-08-09T08:19:45Z</time>
      </trkpt>
      <trkpt lat="48.53424" lon="7.491">
        <ele>178.8</ele>
        <time>2019-08-09T08:19:46Z</time>
      </trkpt>
      <trkpt lat="48.5342" lon="7.49099">
        <ele>178.7</ele>
        <time>2019-08-09T08:19:47Z</time>
      </trkpt>
      <trkpt lat="48.53417" lon="7.49098">
        <ele>178.7</ele>
        <time>2019-08-09T08:19:48Z</time>
      </trkpt>
      <trkpt lat="48.53413" lon="7.49097">
        <ele>178.7</ele>
        <time>2019-08-09T08:19:49Z</time>
      </trkpt>
      <trkpt lat="48.5341" lon="7.49097">
        <ele>178.7</ele>
        <time>2019-08-09T08:19:50Z</time>
      </trkpt>
      <trkpt lat="48.53407" lon="7.49097">
        <ele>178.6</ele>
        <time>2019-08-09T08:19:51Z</time>
      </trkpt>
      <trkpt lat="48.53404" lon="7.49097">
        <ele>178.6</ele>
        <time>2019-08-09T08:19:52Z</time>
      </trkpt>
      <trkpt lat="48.534" lon="7.49096">
        <ele>178.6</ele>
        <time>2019-08-09T08:19:53Z</time>
      </trkpt>
      <trkpt lat="48.53397" lon="7.49096">
        <ele>178.5</ele>
        <time>2019-08-09T08:19:54Z</time>
      </trkpt>
      <trkpt lat="48.53394" lon="7.49096">
        <ele>178.4</ele>
        <time>2019-08-09T08:19:55Z</time>
      </trkpt>
      <trkpt lat="48.53391" lon="7.49097">
        <ele>178.4</ele>
        <time>2019-08-09T08:19:56Z</time>
      </trkpt>
      <trkpt lat="48.53388" lon="7.49098">
        <ele>178.4</ele>
        <time>2019-08-09T08:19:57Z</time>
      </trkpt>
      <trkpt lat="48.53385" lon="7.49099">
        <ele>178.3</ele>
        <time>2019-08-09T08:19:58Z</time>
      </trkpt>
      <trkpt lat="48.53382" lon="7.49101">
        <ele>178.2</ele>
        <time>2019-08-09T08:19:59Z</time>
      </trkpt>
      <trkpt lat="48.53379" lon="7.49103">
        <ele>178.1</ele>
        <time>2019-08-09T08:20:00Z</time>
      </trkpt>
      <trkpt lat="48.53375" lon="7.49104">
        <ele>178</ele>
        <time>2019-08-09T08:20:01Z</time>
      </trkpt>
      <trkpt lat="48.53372" lon="7.49106">
        <ele>177.9</ele>
        <time>2019-08-09T08:20:02Z</time>
      </trkpt>
      <trkpt lat="48.53369" lon="7.49108">
        <ele>177.8</ele>
        <time>2019-08-09T08:20:03Z</time>
      </trkpt>
      <trkpt lat="48.53365" lon="7.49109">
        <ele>177.7</ele>
        <time>2019-08-09T08:20:04Z</time>
      </trkpt>
      <trkpt lat="48.5336" lon="7.49113">
        <ele>177.6</ele>
        <time>2019-08-09T08:20:06Z</time>
      </trkpt>
      <trkpt lat="48.53357" lon="7.49114">
        <ele>177.6</ele>
        <time>2019-08-09T08:20:07Z</time>
      </trkpt>
      <trkpt lat="48.53353" lon="7.49115">
        <ele>177.5</ele>
        <time>2019-08-09T08:20:08Z</time>
      </trkpt>
      <trkpt lat="48.53349" lon="7.49117">
        <ele>177.4</ele>
        <time>2019-08-09T08:20:09Z</time>
      </trkpt>
      <trkpt lat="48.53345" lon="7.49118">
        <ele>177.3</ele>
        <time>2019-08-09T08:20:10Z</time>
      </trkpt>
      <trkpt lat="48.53341" lon="7.4912">
        <ele>177.1</ele>
        <time>2019-08-09T08:20:11Z</time>
      </trkpt>
      <trkpt lat="48.53337" lon="7.49122">
        <ele>177.1</ele>
        <time>2019-08-09T08:20:12Z</time>
      </trkpt>
      <trkpt lat="48.53333" lon="7.49124">
        <ele>177.1</ele>
        <time>2019-08-09T08:20:13Z</time>
      </trkpt>
      <trkpt lat="48.5333" lon="7.49126">
        <ele>177.1</ele>
        <time>2019-08-09T08:20:14Z</time>
      </trkpt>
      <trkpt lat="48.53327" lon="7.49128">
        <ele>177.1</ele>
        <time>2019-08-09T08:20:15Z</time>
      </trkpt>
      <trkpt lat="48.53324" lon="7.49131">
        <ele>177.2</ele>
        <time>2019-08-09T08:20:16Z</time>
      </trkpt>
      <trkpt lat="48.5332" lon="7.49133">
        <ele>177.2</ele>
        <time>2019-08-09T08:20:18Z</time>
      </trkpt>
      <trkpt lat="48.53317" lon="7.49129">
        <ele>177.1</ele>
        <time>2019-08-09T08:20:20Z</time>
      </trkpt>
      <trkpt lat="48.53316" lon="7.49125">
        <ele>177.1</ele>
        <time>2019-08-09T08:20:21Z</time>
      </trkpt>
      <trkpt lat="48.53315" lon="7.4912">
        <ele>176.9</ele>
        <time>2019-08-09T08:20:22Z</time>
      </trkpt>
      <trkpt lat="48.53314" lon="7.49115">
        <ele>176.9</ele>
        <time>2019-08-09T08:20:23Z</time>
      </trkpt>
      <trkpt lat="48.53313" lon="7.4911">
        <ele>176.9</ele>
        <time>2019-08-09T08:20:24Z</time>
      </trkpt>
      <trkpt lat="48.53313" lon="7.49106">
        <ele>176.9</ele>
        <time>2019-08-09T08:20:25Z</time>
      </trkpt>
      <trkpt lat="48.53314" lon="7.49102">
        <ele>176.9</ele>
        <time>2019-08-09T08:20:26Z</time>
      </trkpt>
      <trkpt lat="48.53315" lon="7.49097">
        <ele>176.9</ele>
        <time>2019-08-09T08:20:27Z</time>
      </trkpt>
      <trkpt lat="48.53318" lon="7.49092">
        <ele>176.9</ele>
        <time>2019-08-09T08:20:28Z</time>
      </trkpt>
      <trkpt lat="48.5332" lon="7.49087">
        <ele>176.9</ele>
        <time>2019-08-09T08:20:29Z</time>
      </trkpt>
      <trkpt lat="48.53322" lon="7.49083">
        <ele>176.9</ele>
        <time>2019-08-09T08:20:30Z</time>
      </trkpt>
      <trkpt lat="48.53324" lon="7.49077">
        <ele>176.9</ele>
        <time>2019-08-09T08:20:32Z</time>
      </trkpt>
      <trkpt lat="48.53326" lon="7.49074">
        <ele>176.9</ele>
        <time>2019-08-09T08:20:35Z</time>
      </trkpt>
      <trkpt lat="48.53328" lon="7.49077">
        <ele>176.9</ele>
        <time>2019-08-09T08:20:39Z</time>
      </trkpt>
      <trkpt lat="48.53325" lon="7.49078">
        <ele>177</ele>
        <time>2019-08-09T08:20:43Z</time>
      </trkpt>
      <trkpt lat="48.53329" lon="7.49075">
        <ele>177</ele>
        <time>2019-08-09T08:20:51Z</time>
      </trkpt>
      <trkpt lat="48.5333" lon="7.49069">
        <ele>177</ele>
        <time>2019-08-09T08:20:53Z</time>
      </trkpt>
      <trkpt lat="48.53332" lon="7.49066">
        <ele>177.1</ele>
        <time>2019-08-09T08:20:54Z</time>
      </trkpt>
      <trkpt lat="48.53334" lon="7.49058">
        <ele>177.2</ele>
        <time>2019-08-09T08:20:56Z</time>
      </trkpt>
      <trkpt lat="48.53335" lon="7.49053">
        <ele>177.3</ele>
        <time>2019-08-09T08:20:57Z</time>
      </trkpt>
      <trkpt lat="48.53337" lon="7.49049">
        <ele>177.4</ele>
        <time>2019-08-09T08:20:58Z</time>
      </trkpt>
      <trkpt lat="48.53338" lon="7.49044">
        <ele>177.5</ele>
        <time>2019-08-09T08:20:59Z</time>
      </trkpt>
      <trkpt lat="48.53339" lon="7.49039">
        <ele>177.5</ele>
        <time>2019-08-09T08:21:00Z</time>
      </trkpt>
      <trkpt lat="48.53339" lon="7.49034">
        <ele>177.6</ele>
        <time>2019-08-09T08:21:01Z</time>
      </trkpt>
      <trkpt lat="48.53339" lon="7.49026">
        <ele>177.6</ele>
        <time>2019-08-09T08:21:03Z</time>
      </trkpt>
      <trkpt lat="48.53338" lon="7.49017">
        <ele>177.5</ele>
        <time>2019-08-09T08:21:05Z</time>
      </trkpt>
      <trkpt lat="48.53338" lon="7.49012">
        <ele>177.5</ele>
        <time>2019-08-09T08:21:06Z</time>
      </trkpt>
      <trkpt lat="48.53337" lon="7.49008">
        <ele>177.5</ele>
        <time>2019-08-09T08:21:07Z</time>
      </trkpt>
      <trkpt lat="48.53336" lon="7.49004">
        <ele>177.4</ele>
        <time>2019-08-09T08:21:08Z</time>
      </trkpt>
      <trkpt lat="48.53336" lon="7.48999">
        <ele>177.4</ele>
        <time>2019-08-09T08:21:09Z</time>
      </trkpt>
      <trkpt lat="48.53336" lon="7.48994">
        <ele>177.4</ele>
        <time>2019-08-09T08:21:10Z</time>
      </trkpt>
      <trkpt lat="48.53335" lon="7.48989">
        <ele>177.4</ele>
        <time>2019-08-09T08:21:11Z</time>
      </trkpt>
      <trkpt lat="48.53335" lon="7.48984">
        <ele>177.4</ele>
        <time>2019-08-09T08:21:12Z</time>
      </trkpt>
      <trkpt lat="48.53334" lon="7.48978">
        <ele>177.3</ele>
        <time>2019-08-09T08:21:13Z</time>
      </trkpt>
      <trkpt lat="48.53334" lon="7.48973">
        <ele>177.3</ele>
        <time>2019-08-09T08:21:14Z</time>
      </trkpt>
      <trkpt lat="48.53333" lon="7.48968">
        <ele>177.3</ele>
        <time>2019-08-09T08:21:15Z</time>
      </trkpt>
      <trkpt lat="48.53333" lon="7.48963">
        <ele>177.3</ele>
        <time>2019-08-09T08:21:16Z</time>
      </trkpt>
      <trkpt lat="48.53333" lon="7.48958">
        <ele>177.3</ele>
        <time>2019-08-09T08:21:17Z</time>
      </trkpt>
      <trkpt lat="48.53332" lon="7.48952">
        <ele>177.3</ele>
        <time>2019-08-09T08:21:18Z</time>
      </trkpt>
      <trkpt lat="48.53332" lon="7.48948">
        <ele>177.3</ele>
        <time>2019-08-09T08:21:19Z</time>
      </trkpt>
      <trkpt lat="48.53332" lon="7.48941">
        <ele>177.3</ele>
        <time>2019-08-09T08:21:20Z</time>
      </trkpt>
      <trkpt lat="48.53333" lon="7.48936">
        <ele>177.3</ele>
        <time>2019-08-09T08:21:21Z</time>
      </trkpt>
      <trkpt lat="48.53333" lon="7.48932">
        <ele>177.3</ele>
        <time>2019-08-09T08:21:22Z</time>
      </trkpt>
      <trkpt lat="48.53333" lon="7.48927">
        <ele>177.3</ele>
        <time>2019-08-09T08:21:23Z</time>
      </trkpt>
      <trkpt lat="48.53334" lon="7.48922">
        <ele>177.3</ele>
        <time>2019-08-09T08:21:24Z</time>
      </trkpt>
      <trkpt lat="48.53333" lon="7.48917">
        <ele>177.3</ele>
        <time>2019-08-09T08:21:25Z</time>
      </trkpt>
      <trkpt lat="48.53333" lon="7.48913">
        <ele>177.3</ele>
        <time>2019-08-09T08:21:26Z</time>
      </trkpt>
      <trkpt lat="48.53333" lon="7.48909">
        <ele>177.3</ele>
        <time>2019-08-09T08:21:27Z</time>
      </trkpt>
      <trkpt lat="48.53333" lon="7.48905">
        <ele>177.3</ele>
        <time>2019-08-09T08:21:28Z</time>
      </trkpt>
      <trkpt lat="48.53332" lon="7.48897">
        <ele>177.3</ele>
        <time>2019-08-09T08:21:30Z</time>
      </trkpt>
      <trkpt lat="48.53332" lon="7.48892">
        <ele>177.4</ele>
        <time>2019-08-09T08:21:32Z</time>
      </trkpt>
      <trkpt lat="48.53331" lon="7.48888">
        <ele>177.4</ele>
        <time>2019-08-09T08:21:34Z</time>
      </trkpt>
      <trkpt lat="48.53329" lon="7.48884">
        <ele>177.4</ele>
        <time>2019-08-09T08:21:37Z</time>
      </trkpt>
      <trkpt lat="48.53332" lon="7.48883">
        <ele>177.4</ele>
        <time>2019-08-09T08:21:48Z</time>
      </trkpt>
      <trkpt lat="48.53331" lon="7.48889">
        <ele>177.3</ele>
        <time>2019-08-09T08:21:52Z</time>
      </trkpt>
      <trkpt lat="48.53331" lon="7.48894">
        <ele>177.3</ele>
        <time>2019-08-09T08:21:54Z</time>
      </trkpt>
      <trkpt lat="48.53332" lon="7.48899">
        <ele>177.3</ele>
        <time>2019-08-09T08:21:56Z</time>
      </trkpt>
      <trkpt lat="48.53332" lon="7.48904">
        <ele>177.4</ele>
        <time>2019-08-09T08:21:57Z</time>
      </trkpt>
      <trkpt lat="48.53332" lon="7.48908">
        <ele>177.4</ele>
        <time>2019-08-09T08:21:58Z</time>
      </trkpt>
      <trkpt lat="48.53332" lon="7.48913">
        <ele>177.4</ele>
        <time>2019-08-09T08:21:59Z</time>
      </trkpt>
      <trkpt lat="48.53332" lon="7.48917">
        <ele>177.4</ele>
        <time>2019-08-09T08:22:00Z</time>
      </trkpt>
      <trkpt lat="48.53331" lon="7.48922">
        <ele>177.3</ele>
        <time>2019-08-09T08:22:01Z</time>
      </trkpt>
      <trkpt lat="48.53331" lon="7.48926">
        <ele>177.3</ele>
        <time>2019-08-09T08:22:02Z</time>
      </trkpt>
      <trkpt lat="48.53331" lon="7.48933">
        <ele>177.3</ele>
        <time>2019-08-09T08:22:04Z</time>
      </trkpt>
      <trkpt lat="48.5333" lon="7.48939">
        <ele>177.3</ele>
        <time>2019-08-09T08:22:05Z</time>
      </trkpt>
      <trkpt lat="48.5333" lon="7.48943">
        <ele>177.3</ele>
        <time>2019-08-09T08:22:06Z</time>
      </trkpt>
      <trkpt lat="48.53331" lon="7.48949">
        <ele>177.3</ele>
        <time>2019-08-09T08:22:07Z</time>
      </trkpt>
      <trkpt lat="48.53331" lon="7.48955">
        <ele>177.3</ele>
        <time>2019-08-09T08:22:08Z</time>
      </trkpt>
      <trkpt lat="48.53331" lon="7.48962">
        <ele>177.3</ele>
        <time>2019-08-09T08:22:09Z</time>
      </trkpt>
      <trkpt lat="48.53331" lon="7.48969">
        <ele>177.3</ele>
        <time>2019-08-09T08:22:10Z</time>
      </trkpt>
      <trkpt lat="48.53331" lon="7.48975">
        <ele>177.3</ele>
        <time>2019-08-09T08:22:11Z</time>
      </trkpt>
      <trkpt lat="48.53331" lon="7.48982">
        <ele>177.3</ele>
        <time>2019-08-09T08:22:12Z</time>
      </trkpt>
      <trkpt lat="48.53331" lon="7.48988">
        <ele>177.3</ele>
        <time>2019-08-09T08:22:13Z</time>
      </trkpt>
      <trkpt lat="48.53331" lon="7.48994">
        <ele>177.4</ele>
        <time>2019-08-09T08:22:14Z</time>
      </trkpt>
      <trkpt lat="48.53332" lon="7.48999">
        <ele>177.4</ele>
        <time>2019-08-09T08:22:15Z</time>
      </trkpt>
      <trkpt lat="48.53333" lon="7.49004">
        <ele>177.4</ele>
        <time>2019-08-09T08:22:16Z</time>
      </trkpt>
      <trkpt lat="48.53333" lon="7.49009">
        <ele>177.4</ele>
        <time>2019-08-09T08:22:17Z</time>
      </trkpt>
      <trkpt lat="48.53334" lon="7.49014">
        <ele>177.5</ele>
        <time>2019-08-09T08:22:18Z</time>
      </trkpt>
      <trkpt lat="48.53334" lon="7.49018">
        <ele>177.5</ele>
        <time>2019-08-09T08:22:19Z</time>
      </trkpt>
      <trkpt lat="48.53334" lon="7.49023">
        <ele>177.5</ele>
        <time>2019-08-09T08:22:20Z</time>
      </trkpt>
      <trkpt lat="48.53335" lon="7.49028">
        <ele>177.5</ele>
        <time>2019-08-09T08:22:21Z</time>
      </trkpt>
      <trkpt lat="48.53336" lon="7.49032">
        <ele>177.6</ele>
        <time>2019-08-09T08:22:22Z</time>
      </trkpt>
      <trkpt lat="48.53336" lon="7.49037">
        <ele>177.6</ele>
        <time>2019-08-09T08:22:23Z</time>
      </trkpt>
      <trkpt lat="48.53337" lon="7.49043">
        <ele>177.4</ele>
        <time>2019-08-09T08:22:24Z</time>
      </trkpt>
      <trkpt lat="48.53337" lon="7.49048">
        <ele>177.3</ele>
        <time>2019-08-09T08:22:25Z</time>
      </trkpt>
      <trkpt lat="48.53337" lon="7.49053">
        <ele>177.3</ele>
        <time>2019-08-09T08:22:26Z</time>
      </trkpt>
      <trkpt lat="48.53336" lon="7.49058">
        <ele>177.2</ele>
        <time>2019-08-09T08:22:27Z</time>
      </trkpt>
      <trkpt lat="48.53334" lon="7.49063">
        <ele>177.1</ele>
        <time>2019-08-09T08:22:28Z</time>
      </trkpt>
      <trkpt lat="48.53332" lon="7.49067">
        <ele>177</ele>
        <time>2019-08-09T08:22:29Z</time>
      </trkpt>
      <trkpt lat="48.5333" lon="7.49072">
        <ele>177</ele>
        <time>2019-08-09T08:22:30Z</time>
      </trkpt>
      <trkpt lat="48.53328" lon="7.49076">
        <ele>177</ele>
        <time>2019-08-09T08:22:31Z</time>
      </trkpt>
      <trkpt lat="48.53327" lon="7.4908">
        <ele>176.9</ele>
        <time>2019-08-09T08:22:32Z</time>
      </trkpt>
      <trkpt lat="48.53325" lon="7.49087">
        <ele>176.9</ele>
        <time>2019-08-09T08:22:34Z</time>
      </trkpt>
      <trkpt lat="48.53323" lon="7.49094">
        <ele>176.9</ele>
        <time>2019-08-09T08:22:36Z</time>
      </trkpt>
      <trkpt lat="48.53321" lon="7.49097">
        <ele>176.9</ele>
        <time>2019-08-09T08:22:37Z</time>
      </trkpt>
      <trkpt lat="48.5332" lon="7.49101">
        <ele>176.9</ele>
        <time>2019-08-09T08:22:38Z</time>
      </trkpt>
      <trkpt lat="48.53319" lon="7.49109">
        <ele>176.9</ele>
        <time>2019-08-09T08:22:40Z</time>
      </trkpt>
      <trkpt lat="48.53317" lon="7.49116">
        <ele>176.9</ele>
        <time>2019-08-09T08:22:42Z</time>
      </trkpt>
      <trkpt lat="48.53317" lon="7.49124">
        <ele>177</ele>
        <time>2019-08-09T08:22:44Z</time>
      </trkpt>
      <trkpt lat="48.53318" lon="7.49132">
        <ele>177.2</ele>
        <time>2019-08-09T08:22:46Z</time>
      </trkpt>
      <trkpt lat="48.53318" lon="7.49137">
        <ele>177.3</ele>
        <time>2019-08-09T08:22:48Z</time>
      </trkpt>
      <trkpt lat="48.53315" lon="7.49134">
        <ele>177.3</ele>
        <time>2019-08-09T08:22:59Z</time>
      </trkpt>
      <trkpt lat="48.53312" lon="7.49137">
        <ele>177.4</ele>
        <time>2019-08-09T08:23:03Z</time>
      </trkpt>
      <trkpt lat="48.5331" lon="7.49135">
        <ele>177.5</ele>
        <time>2019-08-09T08:23:06Z</time>
      </trkpt>
      <trkpt lat="48.53307" lon="7.49137">
        <ele>177.6</ele>
        <time>2019-08-09T08:23:08Z</time>
      </trkpt>
      <trkpt lat="48.53303" lon="7.49138">
        <ele>177.7</ele>
        <time>2019-08-09T08:23:11Z</time>
      </trkpt>
      <trkpt lat="48.53299" lon="7.49138">
        <ele>177.8</ele>
        <time>2019-08-09T08:23:13Z</time>
      </trkpt>
      <trkpt lat="48.53295" lon="7.49132">
        <ele>177.7</ele>
        <time>2019-08-09T08:23:15Z</time>
      </trkpt>
      <trkpt lat="48.53295" lon="7.49126">
        <ele>177.6</ele>
        <time>2019-08-09T08:23:16Z</time>
      </trkpt>
      <trkpt lat="48.53295" lon="7.49121">
        <ele>177.6</ele>
        <time>2019-08-09T08:23:17Z</time>
      </trkpt>
      <trkpt lat="48.53294" lon="7.49115">
        <ele>177.4</ele>
        <time>2019-08-09T08:23:18Z</time>
      </trkpt>
      <trkpt lat="48.53293" lon="7.4911">
        <ele>177.5</ele>
        <time>2019-08-09T08:23:19Z</time>
      </trkpt>
      <trkpt lat="48.53291" lon="7.49102">
        <ele>177.5</ele>
        <time>2019-08-09T08:23:21Z</time>
      </trkpt>
      <trkpt lat="48.53291" lon="7.49095">
        <ele>177.6</ele>
        <time>2019-08-09T08:23:22Z</time>
      </trkpt>
      <trkpt lat="48.5329" lon="7.4909">
        <ele>177.6</ele>
        <time>2019-08-09T08:23:23Z</time>
      </trkpt>
      <trkpt lat="48.5329" lon="7.49086">
        <ele>177.6</ele>
        <time>2019-08-09T08:23:24Z</time>
      </trkpt>
      <trkpt lat="48.5329" lon="7.49082">
        <ele>177.7</ele>
        <time>2019-08-09T08:23:25Z</time>
      </trkpt>
      <trkpt lat="48.53288" lon="7.49075">
        <ele>177.7</ele>
        <time>2019-08-09T08:23:27Z</time>
      </trkpt>
      <trkpt lat="48.53287" lon="7.4907">
        <ele>177.7</ele>
        <time>2019-08-09T08:23:28Z</time>
      </trkpt>
      <trkpt lat="48.53288" lon="7.49065">
        <ele>177.8</ele>
        <time>2019-08-09T08:23:29Z</time>
      </trkpt>
      <trkpt lat="48.53285" lon="7.4906">
        <ele>177.8</ele>
        <time>2019-08-09T08:23:31Z</time>
      </trkpt>
      <trkpt lat="48.53283" lon="7.49053">
        <ele>177.9</ele>
        <time>2019-08-09T08:23:33Z</time>
      </trkpt>
      <trkpt lat="48.53281" lon="7.49047">
        <ele>177.9</ele>
        <time>2019-08-09T08:23:35Z</time>
      </trkpt>
      <trkpt lat="48.53279" lon="7.49041">
        <ele>178</ele>
        <time>2019-08-09T08:23:37Z</time>
      </trkpt>
      <trkpt lat="48.53277" lon="7.49038">
        <ele>178</ele>
        <time>2019-08-09T08:23:38Z</time>
      </trkpt>
      <trkpt lat="48.53275" lon="7.49035">
        <ele>178</ele>
        <time>2019-08-09T08:23:39Z</time>
      </trkpt>
      <trkpt lat="48.53273" lon="7.49033">
        <ele>178.1</ele>
        <time>2019-08-09T08:23:40Z</time>
      </trkpt>
      <trkpt lat="48.53269" lon="7.4903">
        <ele>178.1</ele>
        <time>2019-08-09T08:23:41Z</time>
      </trkpt>
      <trkpt lat="48.53266" lon="7.49027">
        <ele>178.2</ele>
        <time>2019-08-09T08:23:42Z</time>
      </trkpt>
      <trkpt lat="48.53263" lon="7.49025">
        <ele>178.3</ele>
        <time>2019-08-09T08:23:43Z</time>
      </trkpt>
      <trkpt lat="48.5326" lon="7.49024">
        <ele>178.4</ele>
        <time>2019-08-09T08:23:44Z</time>
      </trkpt>
      <trkpt lat="48.53256" lon="7.49021">
        <ele>178.5</ele>
        <time>2019-08-09T08:23:45Z</time>
      </trkpt>
      <trkpt lat="48.53253" lon="7.49018">
        <ele>178.6</ele>
        <time>2019-08-09T08:23:46Z</time>
      </trkpt>
      <trkpt lat="48.53249" lon="7.49017">
        <ele>178.7</ele>
        <time>2019-08-09T08:23:47Z</time>
      </trkpt>
      <trkpt lat="48.53246" lon="7.49015">
        <ele>178.7</ele>
        <time>2019-08-09T08:23:48Z</time>
      </trkpt>
      <trkpt lat="48.53242" lon="7.49013">
        <ele>178.7</ele>
        <time>2019-08-09T08:23:49Z</time>
      </trkpt>
      <trkpt lat="48.53239" lon="7.49011">
        <ele>178.7</ele>
        <time>2019-08-09T08:23:50Z</time>
      </trkpt>
      <trkpt lat="48.53235" lon="7.49009">
        <ele>178.7</ele>
        <time>2019-08-09T08:23:51Z</time>
      </trkpt>
      <trkpt lat="48.53231" lon="7.49007">
        <ele>178.8</ele>
        <time>2019-08-09T08:23:52Z</time>
      </trkpt>
      <trkpt lat="48.53226" lon="7.49004">
        <ele>178.8</ele>
        <time>2019-08-09T08:23:53Z</time>
      </trkpt>
      <trkpt lat="48.53222" lon="7.49002">
        <ele>178.8</ele>
        <time>2019-08-09T08:23:54Z</time>
      </trkpt>
      <trkpt lat="48.53217" lon="7.48999">
        <ele>178.8</ele>
        <time>2019-08-09T08:23:55Z</time>
      </trkpt>
      <trkpt lat="48.53213" lon="7.48997">
        <ele>178.8</ele>
        <time>2019-08-09T08:23:56Z</time>
      </trkpt>
      <trkpt lat="48.53209" lon="7.48994">
        <ele>178.8</ele>
        <time>2019-08-09T08:23:57Z</time>
      </trkpt>
      <trkpt lat="48.53206" lon="7.48992">
        <ele>178.8</ele>
        <time>2019-08-09T08:23:58Z</time>
      </trkpt>
      <trkpt lat="48.53202" lon="7.4899">
        <ele>178.8</ele>
        <time>2019-08-09T08:23:59Z</time>
      </trkpt>
      <trkpt lat="48.53198" lon="7.48989">
        <ele>178.8</ele>
        <time>2019-08-09T08:24:00Z</time>
      </trkpt>
      <trkpt lat="48.53194" lon="7.48985">
        <ele>178.7</ele>
        <time>2019-08-09T08:24:01Z</time>
      </trkpt>
      <trkpt lat="48.5319" lon="7.48982">
        <ele>178.7</ele>
        <time>2019-08-09T08:24:02Z</time>
      </trkpt>
      <trkpt lat="48.53186" lon="7.4898">
        <ele>178.7</ele>
        <time>2019-08-09T08:24:03Z</time>
      </trkpt>
      <trkpt lat="48.53182" lon="7.48978">
        <ele>178.6</ele>
        <time>2019-08-09T08:24:04Z</time>
      </trkpt>
      <trkpt lat="48.53178" lon="7.48975">
        <ele>178.6</ele>
        <time>2019-08-09T08:24:05Z</time>
      </trkpt>
      <trkpt lat="48.53173" lon="7.48973">
        <ele>178.6</ele>
        <time>2019-08-09T08:24:06Z</time>
      </trkpt>
      <trkpt lat="48.53168" lon="7.4897">
        <ele>178.6</ele>
        <time>2019-08-09T08:24:07Z</time>
      </trkpt>
      <trkpt lat="48.53164" lon="7.48967">
        <ele>178.5</ele>
        <time>2019-08-09T08:24:08Z</time>
      </trkpt>
      <trkpt lat="48.53159" lon="7.48963">
        <ele>178.5</ele>
        <time>2019-08-09T08:24:09Z</time>
      </trkpt>
      <trkpt lat="48.53155" lon="7.4896">
        <ele>178.5</ele>
        <time>2019-08-09T08:24:10Z</time>
      </trkpt>
      <trkpt lat="48.5315" lon="7.48958">
        <ele>178.5</ele>
        <time>2019-08-09T08:24:11Z</time>
      </trkpt>
      <trkpt lat="48.53146" lon="7.48956">
        <ele>178.5</ele>
        <time>2019-08-09T08:24:12Z</time>
      </trkpt>
      <trkpt lat="48.53142" lon="7.48954">
        <ele>178.5</ele>
        <time>2019-08-09T08:24:13Z</time>
      </trkpt>
      <trkpt lat="48.53138" lon="7.48952">
        <ele>178.5</ele>
        <time>2019-08-09T08:24:14Z</time>
      </trkpt>
      <trkpt lat="48.53135" lon="7.4895">
        <ele>178.5</ele>
        <time>2019-08-09T08:24:15Z</time>
      </trkpt>
      <trkpt lat="48.53132" lon="7.48947">
        <ele>178.5</ele>
        <time>2019-08-09T08:24:16Z</time>
      </trkpt>
      <trkpt lat="48.53129" lon="7.48945">
        <ele>178.5</ele>
        <time>2019-08-09T08:24:17Z</time>
      </trkpt>
      <trkpt lat="48.53125" lon="7.48941">
        <ele>178.5</ele>
        <time>2019-08-09T08:24:18Z</time>
      </trkpt>
      <trkpt lat="48.53122" lon="7.48938">
        <ele>178.5</ele>
        <time>2019-08-09T08:24:19Z</time>
      </trkpt>
      <trkpt lat="48.53119" lon="7.48935">
        <ele>178.5</ele>
        <time>2019-08-09T08:24:20Z</time>
      </trkpt>
      <trkpt lat="48.53115" lon="7.48932">
        <ele>178.5</ele>
        <time>2019-08-09T08:24:21Z</time>
      </trkpt>
      <trkpt lat="48.53111" lon="7.48929">
        <ele>178.5</ele>
        <time>2019-08-09T08:24:22Z</time>
      </trkpt>
      <trkpt lat="48.53107" lon="7.48926">
        <ele>178.5</ele>
        <time>2019-08-09T08:24:23Z</time>
      </trkpt>
      <trkpt lat="48.53103" lon="7.48923">
        <ele>178.5</ele>
        <time>2019-08-09T08:24:24Z</time>
      </trkpt>
      <trkpt lat="48.53099" lon="7.48921">
        <ele>178.5</ele>
        <time>2019-08-09T08:24:25Z</time>
      </trkpt>
      <trkpt lat="48.53095" lon="7.48919">
        <ele>178.5</ele>
        <time>2019-08-09T08:24:26Z</time>
      </trkpt>
      <trkpt lat="48.5309" lon="7.48917">
        <ele>178.5</ele>
        <time>2019-08-09T08:24:27Z</time>
      </trkpt>
      <trkpt lat="48.53086" lon="7.48914">
        <ele>178.5</ele>
        <time>2019-08-09T08:24:28Z</time>
      </trkpt>
      <trkpt lat="48.53082" lon="7.48912">
        <ele>178.5</ele>
        <time>2019-08-09T08:24:29Z</time>
      </trkpt>
      <trkpt lat="48.53079" lon="7.4891">
        <ele>178.5</ele>
        <time>2019-08-09T08:24:30Z</time>
      </trkpt>
      <trkpt lat="48.53075" lon="7.48907">
        <ele>178.5</ele>
        <time>2019-08-09T08:24:31Z</time>
      </trkpt>
      <trkpt lat="48.53071" lon="7.48904">
        <ele>178.5</ele>
        <time>2019-08-09T08:24:32Z</time>
      </trkpt>
      <trkpt lat="48.53067" lon="7.48902">
        <ele>178.6</ele>
        <time>2019-08-09T08:24:33Z</time>
      </trkpt>
      <trkpt lat="48.53064" lon="7.489">
        <ele>178.6</ele>
        <time>2019-08-09T08:24:34Z</time>
      </trkpt>
      <trkpt lat="48.5306" lon="7.48898">
        <ele>178.6</ele>
        <time>2019-08-09T08:24:35Z</time>
      </trkpt>
      <trkpt lat="48.53056" lon="7.48896">
        <ele>178.7</ele>
        <time>2019-08-09T08:24:36Z</time>
      </trkpt>
      <trkpt lat="48.53053" lon="7.48894">
        <ele>178.8</ele>
        <time>2019-08-09T08:24:37Z</time>
      </trkpt>
      <trkpt lat="48.5305" lon="7.48892">
        <ele>178.9</ele>
        <time>2019-08-09T08:24:38Z</time>
      </trkpt>
      <trkpt lat="48.53047" lon="7.4889">
        <ele>179</ele>
        <time>2019-08-09T08:24:39Z</time>
      </trkpt>
      <trkpt lat="48.53043" lon="7.48888">
        <ele>179.1</ele>
        <time>2019-08-09T08:24:40Z</time>
      </trkpt>
      <trkpt lat="48.53039" lon="7.48886">
        <ele>179.1</ele>
        <time>2019-08-09T08:24:42Z</time>
      </trkpt>
      <trkpt lat="48.53034" lon="7.48884">
        <ele>179.2</ele>
        <time>2019-08-09T08:24:44Z</time>
      </trkpt>
      <trkpt lat="48.53029" lon="7.48881">
        <ele>179.2</ele>
        <time>2019-08-09T08:24:46Z</time>
      </trkpt>
      <trkpt lat="48.53026" lon="7.48879">
        <ele>179.1</ele>
        <time>2019-08-09T08:24:47Z</time>
      </trkpt>
      <trkpt lat="48.53023" lon="7.48877">
        <ele>179.1</ele>
        <time>2019-08-09T08:24:48Z</time>
      </trkpt>
      <trkpt lat="48.5302" lon="7.48875">
        <ele>179</ele>
        <time>2019-08-09T08:24:49Z</time>
      </trkpt>
      <trkpt lat="48.53016" lon="7.48873">
        <ele>178.9</ele>
        <time>2019-08-09T08:24:50Z</time>
      </trkpt>
      <trkpt lat="48.53011" lon="7.4887">
        <ele>178.8</ele>
        <time>2019-08-09T08:24:51Z</time>
      </trkpt>
      <trkpt lat="48.53006" lon="7.48867">
        <ele>178.7</ele>
        <time>2019-08-09T08:24:52Z</time>
      </trkpt>
      <trkpt lat="48.53002" lon="7.48864">
        <ele>178.7</ele>
        <time>2019-08-09T08:24:53Z</time>
      </trkpt>
      <trkpt lat="48.52997" lon="7.48861">
        <ele>178.7</ele>
        <time>2019-08-09T08:24:54Z</time>
      </trkpt>
      <trkpt lat="48.52994" lon="7.48857">
        <ele>178.7</ele>
        <time>2019-08-09T08:24:55Z</time>
      </trkpt>
      <trkpt lat="48.52991" lon="7.48854">
        <ele>178.7</ele>
        <time>2019-08-09T08:24:56Z</time>
      </trkpt>
      <trkpt lat="48.52986" lon="7.48852">
        <ele>178.7</ele>
        <time>2019-08-09T08:24:57Z</time>
      </trkpt>
      <trkpt lat="48.52982" lon="7.48849">
        <ele>178.7</ele>
        <time>2019-08-09T08:24:58Z</time>
      </trkpt>
      <trkpt lat="48.52978" lon="7.48847">
        <ele>178.7</ele>
        <time>2019-08-09T08:24:59Z</time>
      </trkpt>
      <trkpt lat="48.52975" lon="7.48845">
        <ele>178.7</ele>
        <time>2019-08-09T08:25:00Z</time>
      </trkpt>
      <trkpt lat="48.52971" lon="7.48842">
        <ele>178.7</ele>
        <time>2019-08-09T08:25:01Z</time>
      </trkpt>
      <trkpt lat="48.52967" lon="7.4884">
        <ele>178.7</ele>
        <time>2019-08-09T08:25:02Z</time>
      </trkpt>
      <trkpt lat="48.52962" lon="7.48837">
        <ele>178.7</ele>
        <time>2019-08-09T08:25:03Z</time>
      </trkpt>
      <trkpt lat="48.52958" lon="7.48834">
        <ele>178.6</ele>
        <time>2019-08-09T08:25:04Z</time>
      </trkpt>
      <trkpt lat="48.52954" lon="7.48831">
        <ele>178.6</ele>
        <time>2019-08-09T08:25:05Z</time>
      </trkpt>
      <trkpt lat="48.52951" lon="7.48828">
        <ele>178.6</ele>
        <time>2019-08-09T08:25:06Z</time>
      </trkpt>
      <trkpt lat="48.52946" lon="7.48826">
        <ele>178.6</ele>
        <time>2019-08-09T08:25:07Z</time>
      </trkpt>
      <trkpt lat="48.52943" lon="7.48821">
        <ele>178.6</ele>
        <time>2019-08-09T08:25:08Z</time>
      </trkpt>
      <trkpt lat="48.52939" lon="7.48819">
        <ele>178.5</ele>
        <time>2019-08-09T08:25:09Z</time>
      </trkpt>
      <trkpt lat="48.52935" lon="7.48816">
        <ele>178.5</ele>
        <time>2019-08-09T08:25:10Z</time>
      </trkpt>
      <trkpt lat="48.52932" lon="7.48812">
        <ele>178.4</ele>
        <time>2019-08-09T08:25:11Z</time>
      </trkpt>
      <trkpt lat="48.52926" lon="7.4881">
        <ele>178.4</ele>
        <time>2019-08-09T08:25:12Z</time>
      </trkpt>
      <trkpt lat="48.52922" lon="7.48808">
        <ele>178.4</ele>
        <time>2019-08-09T08:25:13Z</time>
      </trkpt>
      <trkpt lat="48.52918" lon="7.48805">
        <ele>178.4</ele>
        <time>2019-08-09T08:25:14Z</time>
      </trkpt>
      <trkpt lat="48.52913" lon="7.48801">
        <ele>178.4</ele>
        <time>2019-08-09T08:25:15Z</time>
      </trkpt>
      <trkpt lat="48.52909" lon="7.48797">
        <ele>178.4</ele>
        <time>2019-08-09T08:25:16Z</time>
      </trkpt>
      <trkpt lat="48.52905" lon="7.48793">
        <ele>178.4</ele>
        <time>2019-08-09T08:25:17Z</time>
      </trkpt>
      <trkpt lat="48.52901" lon="7.48791">
        <ele>178.4</ele>
        <time>2019-08-09T08:25:18Z</time>
      </trkpt>
      <trkpt lat="48.52896" lon="7.4879">
        <ele>178.4</ele>
        <time>2019-08-09T08:25:19Z</time>
      </trkpt>
      <trkpt lat="48.52892" lon="7.48787">
        <ele>178.4</ele>
        <time>2019-08-09T08:25:20Z</time>
      </trkpt>
      <trkpt lat="48.52888" lon="7.48784">
        <ele>178.5</ele>
        <time>2019-08-09T08:25:21Z</time>
      </trkpt>
      <trkpt lat="48.52884" lon="7.48781">
        <ele>178.4</ele>
        <time>2019-08-09T08:25:22Z</time>
      </trkpt>
      <trkpt lat="48.52881" lon="7.48779">
        <ele>178.4</ele>
        <time>2019-08-09T08:25:23Z</time>
      </trkpt>
      <trkpt lat="48.52878" lon="7.48775">
        <ele>178.4</ele>
        <time>2019-08-09T08:25:24Z</time>
      </trkpt>
      <trkpt lat="48.52874" lon="7.48773">
        <ele>178.4</ele>
        <time>2019-08-09T08:25:25Z</time>
      </trkpt>
      <trkpt lat="48.5287" lon="7.48772">
        <ele>178.4</ele>
        <time>2019-08-09T08:25:26Z</time>
      </trkpt>
      <trkpt lat="48.52867" lon="7.48769">
        <ele>178.4</ele>
        <time>2019-08-09T08:25:27Z</time>
      </trkpt>
      <trkpt lat="48.52864" lon="7.48767">
        <ele>178.4</ele>
        <time>2019-08-09T08:25:28Z</time>
      </trkpt>
      <trkpt lat="48.5286" lon="7.48766">
        <ele>178.4</ele>
        <time>2019-08-09T08:25:29Z</time>
      </trkpt>
      <trkpt lat="48.52858" lon="7.48764">
        <ele>178.4</ele>
        <time>2019-08-09T08:25:30Z</time>
      </trkpt>
      <trkpt lat="48.52855" lon="7.48761">
        <ele>178.4</ele>
        <time>2019-08-09T08:25:31Z</time>
      </trkpt>
      <trkpt lat="48.52852" lon="7.4876">
        <ele>178.4</ele>
        <time>2019-08-09T08:25:32Z</time>
      </trkpt>
      <trkpt lat="48.52849" lon="7.4876">
        <ele>178.3</ele>
        <time>2019-08-09T08:25:33Z</time>
      </trkpt>
      <trkpt lat="48.52846" lon="7.48757">
        <ele>178.3</ele>
        <time>2019-08-09T08:25:34Z</time>
      </trkpt>
      <trkpt lat="48.52844" lon="7.48755">
        <ele>178.3</ele>
        <time>2019-08-09T08:25:35Z</time>
      </trkpt>
      <trkpt lat="48.52841" lon="7.48752">
        <ele>178.3</ele>
        <time>2019-08-09T08:25:36Z</time>
      </trkpt>
      <trkpt lat="48.52838" lon="7.4875">
        <ele>178.3</ele>
        <time>2019-08-09T08:25:37Z</time>
      </trkpt>
      <trkpt lat="48.52836" lon="7.48749">
        <ele>178.3</ele>
        <time>2019-08-09T08:25:38Z</time>
      </trkpt>
      <trkpt lat="48.52832" lon="7.48748">
        <ele>178.3</ele>
        <time>2019-08-09T08:25:39Z</time>
      </trkpt>
      <trkpt lat="48.52829" lon="7.48747">
        <ele>178.3</ele>
        <time>2019-08-09T08:25:40Z</time>
      </trkpt>
      <trkpt lat="48.52825" lon="7.48745">
        <ele>178.3</ele>
        <time>2019-08-09T08:25:41Z</time>
      </trkpt>
      <trkpt lat="48.52821" lon="7.48743">
        <ele>178.3</ele>
        <time>2019-08-09T08:25:42Z</time>
      </trkpt>
      <trkpt lat="48.52817" lon="7.48742">
        <ele>178.3</ele>
        <time>2019-08-09T08:25:43Z</time>
      </trkpt>
      <trkpt lat="48.52813" lon="7.4874">
        <ele>178.3</ele>
        <time>2019-08-09T08:25:44Z</time>
      </trkpt>
      <trkpt lat="48.52809" lon="7.48737">
        <ele>178.3</ele>
        <time>2019-08-09T08:25:45Z</time>
      </trkpt>
      <trkpt lat="48.52805" lon="7.48735">
        <ele>178.3</ele>
        <time>2019-08-09T08:25:46Z</time>
      </trkpt>
      <trkpt lat="48.52802" lon="7.48733">
        <ele>178.3</ele>
        <time>2019-08-09T08:25:47Z</time>
      </trkpt>
      <trkpt lat="48.52798" lon="7.48731">
        <ele>178.3</ele>
        <time>2019-08-09T08:25:48Z</time>
      </trkpt>
      <trkpt lat="48.52794" lon="7.4873">
        <ele>178.3</ele>
        <time>2019-08-09T08:25:49Z</time>
      </trkpt>
      <trkpt lat="48.5279" lon="7.48728">
        <ele>178.3</ele>
        <time>2019-08-09T08:25:50Z</time>
      </trkpt>
      <trkpt lat="48.52786" lon="7.48727">
        <ele>178.4</ele>
        <time>2019-08-09T08:25:51Z</time>
      </trkpt>
      <trkpt lat="48.52783" lon="7.48726">
        <ele>178.6</ele>
        <time>2019-08-09T08:25:52Z</time>
      </trkpt>
      <trkpt lat="48.52779" lon="7.48725">
        <ele>178.7</ele>
        <time>2019-08-09T08:25:53Z</time>
      </trkpt>
      <trkpt lat="48.52775" lon="7.48724">
        <ele>178.9</ele>
        <time>2019-08-09T08:25:54Z</time>
      </trkpt>
      <trkpt lat="48.52771" lon="7.48725">
        <ele>179</ele>
        <time>2019-08-09T08:25:55Z</time>
      </trkpt>
      <trkpt lat="48.52767" lon="7.48726">
        <ele>179</ele>
        <time>2019-08-09T08:25:56Z</time>
      </trkpt>
      <trkpt lat="48.52764" lon="7.48728">
        <ele>179.1</ele>
        <time>2019-08-09T08:25:57Z</time>
      </trkpt>
      <trkpt lat="48.52759" lon="7.4873">
        <ele>179.1</ele>
        <time>2019-08-09T08:25:58Z</time>
      </trkpt>
      <trkpt lat="48.52754" lon="7.48731">
        <ele>179.2</ele>
        <time>2019-08-09T08:25:59Z</time>
      </trkpt>
      <trkpt lat="48.52751" lon="7.48732">
        <ele>179.2</ele>
        <time>2019-08-09T08:26:00Z</time>
      </trkpt>
      <trkpt lat="48.52747" lon="7.48732">
        <ele>179.2</ele>
        <time>2019-08-09T08:26:01Z</time>
      </trkpt>
      <trkpt lat="48.52743" lon="7.48733">
        <ele>179.2</ele>
        <time>2019-08-09T08:26:02Z</time>
      </trkpt>
      <trkpt lat="48.52739" lon="7.48732">
        <ele>179.2</ele>
        <time>2019-08-09T08:26:03Z</time>
      </trkpt>
      <trkpt lat="48.52736" lon="7.48732">
        <ele>179.2</ele>
        <time>2019-08-09T08:26:04Z</time>
      </trkpt>
      <trkpt lat="48.52732" lon="7.48732">
        <ele>179.2</ele>
        <time>2019-08-09T08:26:05Z</time>
      </trkpt>
      <trkpt lat="48.52728" lon="7.48732">
        <ele>179.2</ele>
        <time>2019-08-09T08:26:06Z</time>
      </trkpt>
      <trkpt lat="48.52724" lon="7.48732">
        <ele>179.3</ele>
        <time>2019-08-09T08:26:07Z</time>
      </trkpt>
      <trkpt lat="48.52719" lon="7.48732">
        <ele>179.4</ele>
        <time>2019-08-09T08:26:08Z</time>
      </trkpt>
      <trkpt lat="48.52715" lon="7.48732">
        <ele>179.5</ele>
        <time>2019-08-09T08:26:09Z</time>
      </trkpt>
      <trkpt lat="48.5271" lon="7.48732">
        <ele>179.7</ele>
        <time>2019-08-09T08:26:10Z</time>
      </trkpt>
      <trkpt lat="48.52707" lon="7.48732">
        <ele>179.8</ele>
        <time>2019-08-09T08:26:11Z</time>
      </trkpt>
      <trkpt lat="48.52703" lon="7.48733">
        <ele>179.8</ele>
        <time>2019-08-09T08:26:12Z</time>
      </trkpt>
      <trkpt lat="48.527" lon="7.48734">
        <ele>179.7</ele>
        <time>2019-08-09T08:26:13Z</time>
      </trkpt>
      <trkpt lat="48.52699" lon="7.48737">
        <ele>179.7</ele>
        <time>2019-08-09T08:26:14Z</time>
      </trkpt>
      <trkpt lat="48.52699" lon="7.48743">
        <ele>179.7</ele>
        <time>2019-08-09T08:26:15Z</time>
      </trkpt>
      <trkpt lat="48.527" lon="7.4875">
        <ele>179.6</ele>
        <time>2019-08-09T08:26:16Z</time>
      </trkpt>
      <trkpt lat="48.527" lon="7.48756">
        <ele>179.6</ele>
        <time>2019-08-09T08:26:17Z</time>
      </trkpt>
      <trkpt lat="48.527" lon="7.48763">
        <ele>179.5</ele>
        <time>2019-08-09T08:26:18Z</time>
      </trkpt>
      <trkpt lat="48.527" lon="7.4877">
        <ele>179.5</ele>
        <time>2019-08-09T08:26:19Z</time>
      </trkpt>
      <trkpt lat="48.527" lon="7.48776">
        <ele>179.5</ele>
        <time>2019-08-09T08:26:20Z</time>
      </trkpt>
      <trkpt lat="48.527" lon="7.48783">
        <ele>179.4</ele>
        <time>2019-08-09T08:26:21Z</time>
      </trkpt>
      <trkpt lat="48.527" lon="7.4879">
        <ele>179.4</ele>
        <time>2019-08-09T08:26:22Z</time>
      </trkpt>
      <trkpt lat="48.527" lon="7.48795">
        <ele>179.4</ele>
        <time>2019-08-09T08:26:23Z</time>
      </trkpt>
      <trkpt lat="48.52701" lon="7.48801">
        <ele>179.3</ele>
        <time>2019-08-09T08:26:24Z</time>
      </trkpt>
      <trkpt lat="48.52701" lon="7.48807">
        <ele>179.2</ele>
        <time>2019-08-09T08:26:25Z</time>
      </trkpt>
      <trkpt lat="48.52701" lon="7.48814">
        <ele>179.2</ele>
        <time>2019-08-09T08:26:26Z</time>
      </trkpt>
      <trkpt lat="48.52701" lon="7.48821">
        <ele>179.1</ele>
        <time>2019-08-09T08:26:27Z</time>
      </trkpt>
      <trkpt lat="48.52701" lon="7.48829">
        <ele>179</ele>
        <time>2019-08-09T08:26:28Z</time>
      </trkpt>
      <trkpt lat="48.52701" lon="7.48836">
        <ele>178.9</ele>
        <time>2019-08-09T08:26:29Z</time>
      </trkpt>
      <trkpt lat="48.52701" lon="7.48844">
        <ele>178.9</ele>
        <time>2019-08-09T08:26:30Z</time>
      </trkpt>
      <trkpt lat="48.527" lon="7.48852">
        <ele>178.8</ele>
        <time>2019-08-09T08:26:31Z</time>
      </trkpt>
      <trkpt lat="48.52699" lon="7.4886">
        <ele>178.7</ele>
        <time>2019-08-09T08:26:32Z</time>
      </trkpt>
      <trkpt lat="48.52699" lon="7.48867">
        <ele>178.7</ele>
        <time>2019-08-09T08:26:33Z</time>
      </trkpt>
      <trkpt lat="48.52698" lon="7.48873">
        <ele>178.6</ele>
        <time>2019-08-09T08:26:34Z</time>
      </trkpt>
      <trkpt lat="48.52697" lon="7.48881">
        <ele>178.5</ele>
        <time>2019-08-09T08:26:35Z</time>
      </trkpt>
      <trkpt lat="48.52696" lon="7.48887">
        <ele>178.3</ele>
        <time>2019-08-09T08:26:36Z</time>
      </trkpt>
      <trkpt lat="48.52693" lon="7.48894">
        <ele>178.1</ele>
        <time>2019-08-09T08:26:37Z</time>
      </trkpt>
      <trkpt lat="48.52691" lon="7.48901">
        <ele>178</ele>
        <time>2019-08-09T08:26:38Z</time>
      </trkpt>
      <trkpt lat="48.52689" lon="7.48908">
        <ele>177.9</ele>
        <time>2019-08-09T08:26:39Z</time>
      </trkpt>
      <trkpt lat="48.52688" lon="7.48914">
        <ele>177.9</ele>
        <time>2019-08-09T08:26:40Z</time>
      </trkpt>
      <trkpt lat="48.52686" lon="7.4892">
        <ele>177.8</ele>
        <time>2019-08-09T08:26:41Z</time>
      </trkpt>
      <trkpt lat="48.52684" lon="7.48926">
        <ele>177.8</ele>
        <time>2019-08-09T08:26:42Z</time>
      </trkpt>
      <trkpt lat="48.52682" lon="7.48932">
        <ele>177.8</ele>
        <time>2019-08-09T08:26:43Z</time>
      </trkpt>
      <trkpt lat="48.52678" lon="7.48938">
        <ele>177.8</ele>
        <time>2019-08-09T08:26:44Z</time>
      </trkpt>
      <trkpt lat="48.52675" lon="7.48944">
        <ele>177.9</ele>
        <time>2019-08-09T08:26:45Z</time>
      </trkpt>
      <trkpt lat="48.52671" lon="7.4895">
        <ele>177.9</ele>
        <time>2019-08-09T08:26:46Z</time>
      </trkpt>
      <trkpt lat="48.52669" lon="7.48956">
        <ele>178.1</ele>
        <time>2019-08-09T08:26:47Z</time>
      </trkpt>
      <trkpt lat="48.52667" lon="7.48962">
        <ele>178.2</ele>
        <time>2019-08-09T08:26:48Z</time>
      </trkpt>
      <trkpt lat="48.52665" lon="7.48968">
        <ele>178.4</ele>
        <time>2019-08-09T08:26:49Z</time>
      </trkpt>
      <trkpt lat="48.52662" lon="7.48975">
        <ele>178.7</ele>
        <time>2019-08-09T08:26:50Z</time>
      </trkpt>
      <trkpt lat="48.5266" lon="7.48982">
        <ele>179</ele>
        <time>2019-08-09T08:26:51Z</time>
      </trkpt>
      <trkpt lat="48.52658" lon="7.4899">
        <ele>179.4</ele>
        <time>2019-08-09T08:26:52Z</time>
      </trkpt>
      <trkpt lat="48.52655" lon="7.48995">
        <ele>179.9</ele>
        <time>2019-08-09T08:26:53Z</time>
      </trkpt>
      <trkpt lat="48.52651" lon="7.49">
        <ele>179.9</ele>
        <time>2019-08-09T08:26:54Z</time>
      </trkpt>
      <trkpt lat="48.52648" lon="7.49005">
        <ele>179.9</ele>
        <time>2019-08-09T08:26:55Z</time>
      </trkpt>
      <trkpt lat="48.52645" lon="7.4901">
        <ele>180</ele>
        <time>2019-08-09T08:26:56Z</time>
      </trkpt>
      <trkpt lat="48.52642" lon="7.49014">
        <ele>180</ele>
        <time>2019-08-09T08:26:57Z</time>
      </trkpt>
      <trkpt lat="48.52639" lon="7.49019">
        <ele>180.1</ele>
        <time>2019-08-09T08:26:58Z</time>
      </trkpt>
      <trkpt lat="48.52636" lon="7.49023">
        <ele>180.1</ele>
        <time>2019-08-09T08:26:59Z</time>
      </trkpt>
      <trkpt lat="48.52633" lon="7.49027">
        <ele>180.1</ele>
        <time>2019-08-09T08:27:00Z</time>
      </trkpt>
      <trkpt lat="48.5263" lon="7.4903">
        <ele>180.1</ele>
        <time>2019-08-09T08:27:01Z</time>
      </trkpt>
      <trkpt lat="48.52628" lon="7.49034">
        <ele>180.1</ele>
        <time>2019-08-09T08:27:02Z</time>
      </trkpt>
      <trkpt lat="48.52625" lon="7.49037">
        <ele>180.1</ele>
        <time>2019-08-09T08:27:03Z</time>
      </trkpt>
      <trkpt lat="48.52622" lon="7.49041">
        <ele>180.2</ele>
        <time>2019-08-09T08:27:04Z</time>
      </trkpt>
      <trkpt lat="48.52619" lon="7.49045">
        <ele>180.2</ele>
        <time>2019-08-09T08:27:05Z</time>
      </trkpt>
      <trkpt lat="48.52616" lon="7.4905">
        <ele>180.2</ele>
        <time>2019-08-09T08:27:06Z</time>
      </trkpt>
      <trkpt lat="48.52613" lon="7.49053">
        <ele>180.2</ele>
        <time>2019-08-09T08:27:07Z</time>
      </trkpt>
      <trkpt lat="48.5261" lon="7.49058">
        <ele>180.2</ele>
        <time>2019-08-09T08:27:08Z</time>
      </trkpt>
      <trkpt lat="48.52607" lon="7.49063">
        <ele>180.3</ele>
        <time>2019-08-09T08:27:09Z</time>
      </trkpt>
      <trkpt lat="48.52603" lon="7.49068">
        <ele>180.3</ele>
        <time>2019-08-09T08:27:10Z</time>
      </trkpt>
      <trkpt lat="48.526" lon="7.49073">
        <ele>180.3</ele>
        <time>2019-08-09T08:27:11Z</time>
      </trkpt>
      <trkpt lat="48.52597" lon="7.49077">
        <ele>180.3</ele>
        <time>2019-08-09T08:27:12Z</time>
      </trkpt>
      <trkpt lat="48.52593" lon="7.49082">
        <ele>180.4</ele>
        <time>2019-08-09T08:27:13Z</time>
      </trkpt>
      <trkpt lat="48.5259" lon="7.49086">
        <ele>180.4</ele>
        <time>2019-08-09T08:27:14Z</time>
      </trkpt>
      <trkpt lat="48.52587" lon="7.4909">
        <ele>180.4</ele>
        <time>2019-08-09T08:27:15Z</time>
      </trkpt>
      <trkpt lat="48.52583" lon="7.49094">
        <ele>180.4</ele>
        <time>2019-08-09T08:27:16Z</time>
      </trkpt>
      <trkpt lat="48.5258" lon="7.49097">
        <ele>180.4</ele>
        <time>2019-08-09T08:27:17Z</time>
      </trkpt>
      <trkpt lat="48.52577" lon="7.491">
        <ele>180.4</ele>
        <time>2019-08-09T08:27:18Z</time>
      </trkpt>
      <trkpt lat="48.52573" lon="7.49104">
        <ele>180.4</ele>
        <time>2019-08-09T08:27:19Z</time>
      </trkpt>
      <trkpt lat="48.5257" lon="7.49107">
        <ele>180.4</ele>
        <time>2019-08-09T08:27:20Z</time>
      </trkpt>
      <trkpt lat="48.52567" lon="7.4911">
        <ele>180.4</ele>
        <time>2019-08-09T08:27:21Z</time>
      </trkpt>
      <trkpt lat="48.52561" lon="7.49111">
        <ele>180.4</ele>
        <time>2019-08-09T08:27:23Z</time>
      </trkpt>
      <trkpt lat="48.52558" lon="7.4911">
        <ele>180.4</ele>
        <time>2019-08-09T08:27:24Z</time>
      </trkpt>
      <trkpt lat="48.52554" lon="7.49108">
        <ele>180.5</ele>
        <time>2019-08-09T08:27:25Z</time>
      </trkpt>
      <trkpt lat="48.5255" lon="7.49108">
        <ele>180.5</ele>
        <time>2019-08-09T08:27:26Z</time>
      </trkpt>
      <trkpt lat="48.52546" lon="7.49106">
        <ele>180.5</ele>
        <time>2019-08-09T08:27:27Z</time>
      </trkpt>
      <trkpt lat="48.52543" lon="7.49105">
        <ele>180.6</ele>
        <time>2019-08-09T08:27:28Z</time>
      </trkpt>
      <trkpt lat="48.5254" lon="7.49104">
        <ele>180.6</ele>
        <time>2019-08-09T08:27:29Z</time>
      </trkpt>
      <trkpt lat="48.52536" lon="7.49103">
        <ele>180.6</ele>
        <time>2019-08-09T08:27:30Z</time>
      </trkpt>
      <trkpt lat="48.52532" lon="7.49103">
        <ele>180.7</ele>
        <time>2019-08-09T08:27:31Z</time>
      </trkpt>
      <trkpt lat="48.52528" lon="7.49103">
        <ele>180.7</ele>
        <time>2019-08-09T08:27:32Z</time>
      </trkpt>
      <trkpt lat="48.52524" lon="7.49102">
        <ele>180.7</ele>
        <time>2019-08-09T08:27:33Z</time>
      </trkpt>
      <trkpt lat="48.5252" lon="7.49102">
        <ele>180.7</ele>
        <time>2019-08-09T08:27:34Z</time>
      </trkpt>
      <trkpt lat="48.52516" lon="7.49102">
        <ele>180.7</ele>
        <time>2019-08-09T08:27:35Z</time>
      </trkpt>
      <trkpt lat="48.52512" lon="7.49101">
        <ele>180.7</ele>
        <time>2019-08-09T08:27:36Z</time>
      </trkpt>
      <trkpt lat="48.52508" lon="7.49101">
        <ele>180.7</ele>
        <time>2019-08-09T08:27:37Z</time>
      </trkpt>
      <trkpt lat="48.52504" lon="7.49101">
        <ele>180.7</ele>
        <time>2019-08-09T08:27:38Z</time>
      </trkpt>
      <trkpt lat="48.52501" lon="7.491">
        <ele>180.7</ele>
        <time>2019-08-09T08:27:39Z</time>
      </trkpt>
      <trkpt lat="48.52497" lon="7.491">
        <ele>180.7</ele>
        <time>2019-08-09T08:27:40Z</time>
      </trkpt>
      <trkpt lat="48.52494" lon="7.49099">
        <ele>180.7</ele>
        <time>2019-08-09T08:27:41Z</time>
      </trkpt>
      <trkpt lat="48.5249" lon="7.49099">
        <ele>180.7</ele>
        <time>2019-08-09T08:27:42Z</time>
      </trkpt>
      <trkpt lat="48.52487" lon="7.491">
        <ele>180.7</ele>
        <time>2019-08-09T08:27:43Z</time>
      </trkpt>
      <trkpt lat="48.52483" lon="7.491">
        <ele>180.7</ele>
        <time>2019-08-09T08:27:44Z</time>
      </trkpt>
      <trkpt lat="48.52479" lon="7.491">
        <ele>180.7</ele>
        <time>2019-08-09T08:27:45Z</time>
      </trkpt>
      <trkpt lat="48.52475" lon="7.491">
        <ele>180.8</ele>
        <time>2019-08-09T08:27:46Z</time>
      </trkpt>
      <trkpt lat="48.5247" lon="7.49101">
        <ele>180.8</ele>
        <time>2019-08-09T08:27:47Z</time>
      </trkpt>
      <trkpt lat="48.52467" lon="7.49103">
        <ele>180.8</ele>
        <time>2019-08-09T08:27:48Z</time>
      </trkpt>
      <trkpt lat="48.52463" lon="7.49104">
        <ele>180.8</ele>
        <time>2019-08-09T08:27:49Z</time>
      </trkpt>
      <trkpt lat="48.5246" lon="7.49106">
        <ele>180.9</ele>
        <time>2019-08-09T08:27:50Z</time>
      </trkpt>
      <trkpt lat="48.52454" lon="7.49106">
        <ele>180.9</ele>
        <time>2019-08-09T08:27:51Z</time>
      </trkpt>
      <trkpt lat="48.52451" lon="7.49107">
        <ele>180.9</ele>
        <time>2019-08-09T08:27:52Z</time>
      </trkpt>
      <trkpt lat="48.52448" lon="7.49108">
        <ele>180.9</ele>
        <time>2019-08-09T08:27:53Z</time>
      </trkpt>
      <trkpt lat="48.52444" lon="7.49108">
        <ele>181</ele>
        <time>2019-08-09T08:27:55Z</time>
      </trkpt>
      <trkpt lat="48.5244" lon="7.49109">
        <ele>181</ele>
        <time>2019-08-09T08:28:06Z</time>
      </trkpt>
      <trkpt lat="48.52435" lon="7.49111">
        <ele>181</ele>
        <time>2019-08-09T08:28:08Z</time>
      </trkpt>
      <trkpt lat="48.52432" lon="7.49112">
        <ele>181</ele>
        <time>2019-08-09T08:28:09Z</time>
      </trkpt>
      <trkpt lat="48.52429" lon="7.49114">
        <ele>181</ele>
        <time>2019-08-09T08:28:10Z</time>
      </trkpt>
      <trkpt lat="48.52426" lon="7.49114">
        <ele>181.1</ele>
        <time>2019-08-09T08:28:11Z</time>
      </trkpt>
      <trkpt lat="48.52423" lon="7.49115">
        <ele>181.1</ele>
        <time>2019-08-09T08:28:12Z</time>
      </trkpt>
      <trkpt lat="48.5242" lon="7.49116">
        <ele>181.1</ele>
        <time>2019-08-09T08:28:13Z</time>
      </trkpt>
      <trkpt lat="48.52417" lon="7.49116">
        <ele>181.2</ele>
        <time>2019-08-09T08:28:14Z</time>
      </trkpt>
      <trkpt lat="48.52413" lon="7.49116">
        <ele>181.2</ele>
        <time>2019-08-09T08:28:15Z</time>
      </trkpt>
      <trkpt lat="48.5241" lon="7.49116">
        <ele>181.3</ele>
        <time>2019-08-09T08:28:16Z</time>
      </trkpt>
      <trkpt lat="48.52406" lon="7.49117">
        <ele>181.3</ele>
        <time>2019-08-09T08:28:17Z</time>
      </trkpt>
      <trkpt lat="48.52402" lon="7.49116">
        <ele>181.4</ele>
        <time>2019-08-09T08:28:18Z</time>
      </trkpt>
      <trkpt lat="48.52398" lon="7.49116">
        <ele>181.4</ele>
        <time>2019-08-09T08:28:19Z</time>
      </trkpt>
      <trkpt lat="48.52393" lon="7.49116">
        <ele>181.5</ele>
        <time>2019-08-09T08:28:20Z</time>
      </trkpt>
      <trkpt lat="48.5239" lon="7.49115">
        <ele>181.6</ele>
        <time>2019-08-09T08:28:21Z</time>
      </trkpt>
      <trkpt lat="48.52386" lon="7.49115">
        <ele>181.6</ele>
        <time>2019-08-09T08:28:22Z</time>
      </trkpt>
      <trkpt lat="48.52382" lon="7.49115">
        <ele>181.5</ele>
        <time>2019-08-09T08:28:23Z</time>
      </trkpt>
      <trkpt lat="48.52378" lon="7.49116">
        <ele>181.5</ele>
        <time>2019-08-09T08:28:24Z</time>
      </trkpt>
      <trkpt lat="48.52374" lon="7.49118">
        <ele>181.4</ele>
        <time>2019-08-09T08:28:25Z</time>
      </trkpt>
      <trkpt lat="48.5237" lon="7.49118">
        <ele>181.3</ele>
        <time>2019-08-09T08:28:26Z</time>
      </trkpt>
      <trkpt lat="48.52366" lon="7.49119">
        <ele>181.3</ele>
        <time>2019-08-09T08:28:27Z</time>
      </trkpt>
      <trkpt lat="48.52362" lon="7.4912">
        <ele>181.2</ele>
        <time>2019-08-09T08:28:28Z</time>
      </trkpt>
      <trkpt lat="48.52358" lon="7.49121">
        <ele>181.2</ele>
        <time>2019-08-09T08:28:29Z</time>
      </trkpt>
      <trkpt lat="48.52353" lon="7.49121">
        <ele>181.1</ele>
        <time>2019-08-09T08:28:30Z</time>
      </trkpt>
      <trkpt lat="48.52349" lon="7.49122">
        <ele>181.1</ele>
        <time>2019-08-09T08:28:31Z</time>
      </trkpt>
      <trkpt lat="48.52345" lon="7.49122">
        <ele>181</ele>
        <time>2019-08-09T08:28:32Z</time>
      </trkpt>
      <trkpt lat="48.52341" lon="7.49123">
        <ele>181</ele>
        <time>2019-08-09T08:28:33Z</time>
      </trkpt>
      <trkpt lat="48.52336" lon="7.49123">
        <ele>181</ele>
        <time>2019-08-09T08:28:34Z</time>
      </trkpt>
      <trkpt lat="48.52333" lon="7.49124">
        <ele>180.9</ele>
        <time>2019-08-09T08:28:35Z</time>
      </trkpt>
      <trkpt lat="48.5233" lon="7.49125">
        <ele>180.9</ele>
        <time>2019-08-09T08:28:36Z</time>
      </trkpt>
      <trkpt lat="48.52327" lon="7.49125">
        <ele>180.9</ele>
        <time>2019-08-09T08:28:37Z</time>
      </trkpt>
      <trkpt lat="48.52324" lon="7.49123">
        <ele>181.1</ele>
        <time>2019-08-09T08:28:38Z</time>
      </trkpt>
      <trkpt lat="48.52322" lon="7.49118">
        <ele>181.1</ele>
        <time>2019-08-09T08:28:39Z</time>
      </trkpt>
      <trkpt lat="48.52322" lon="7.49113">
        <ele>181.2</ele>
        <time>2019-08-09T08:28:40Z</time>
      </trkpt>
      <trkpt lat="48.52323" lon="7.49106">
        <ele>181.3</ele>
        <time>2019-08-09T08:28:41Z</time>
      </trkpt>
      <trkpt lat="48.52323" lon="7.49099">
        <ele>181.4</ele>
        <time>2019-08-09T08:28:42Z</time>
      </trkpt>
      <trkpt lat="48.52323" lon="7.49092">
        <ele>181.3</ele>
        <time>2019-08-09T08:28:43Z</time>
      </trkpt>
      <trkpt lat="48.52323" lon="7.49086">
        <ele>181.3</ele>
        <time>2019-08-09T08:28:44Z</time>
      </trkpt>
      <trkpt lat="48.52323" lon="7.49079">
        <ele>181.3</ele>
        <time>2019-08-09T08:28:45Z</time>
      </trkpt>
      <trkpt lat="48.52323" lon="7.49073">
        <ele>181.4</ele>
        <time>2019-08-09T08:28:46Z</time>
      </trkpt>
      <trkpt lat="48.52323" lon="7.49067">
        <ele>181.4</ele>
        <time>2019-08-09T08:28:47Z</time>
      </trkpt>
      <trkpt lat="48.52323" lon="7.4906">
        <ele>181.5</ele>
        <time>2019-08-09T08:28:48Z</time>
      </trkpt>
      <trkpt lat="48.52323" lon="7.49054">
        <ele>181.5</ele>
        <time>2019-08-09T08:28:49Z</time>
      </trkpt>
      <trkpt lat="48.52322" lon="7.49048">
        <ele>181.6</ele>
        <time>2019-08-09T08:28:50Z</time>
      </trkpt>
      <trkpt lat="48.52322" lon="7.49044">
        <ele>181.6</ele>
        <time>2019-08-09T08:28:51Z</time>
      </trkpt>
      <trkpt lat="48.52322" lon="7.49038">
        <ele>181.6</ele>
        <time>2019-08-09T08:28:52Z</time>
      </trkpt>
      <trkpt lat="48.52321" lon="7.49032">
        <ele>181.6</ele>
        <time>2019-08-09T08:28:53Z</time>
      </trkpt>
      <trkpt lat="48.52321" lon="7.49026">
        <ele>181.7</ele>
        <time>2019-08-09T08:28:54Z</time>
      </trkpt>
      <trkpt lat="48.52322" lon="7.4902">
        <ele>181.7</ele>
        <time>2019-08-09T08:28:55Z</time>
      </trkpt>
      <trkpt lat="48.52321" lon="7.49014">
        <ele>181.8</ele>
        <time>2019-08-09T08:28:56Z</time>
      </trkpt>
      <trkpt lat="48.52321" lon="7.49007">
        <ele>181.9</ele>
        <time>2019-08-09T08:28:57Z</time>
      </trkpt>
      <trkpt lat="48.5232" lon="7.49001">
        <ele>182</ele>
        <time>2019-08-09T08:28:58Z</time>
      </trkpt>
      <trkpt lat="48.5232" lon="7.48996">
        <ele>182.1</ele>
        <time>2019-08-09T08:28:59Z</time>
      </trkpt>
      <trkpt lat="48.5232" lon="7.48989">
        <ele>182.2</ele>
        <time>2019-08-09T08:29:00Z</time>
      </trkpt>
      <trkpt lat="48.52319" lon="7.48982">
        <ele>182.3</ele>
        <time>2019-08-09T08:29:01Z</time>
      </trkpt>
      <trkpt lat="48.52318" lon="7.48976">
        <ele>182.4</ele>
        <time>2019-08-09T08:29:02Z</time>
      </trkpt>
      <trkpt lat="48.52318" lon="7.4897">
        <ele>182.3</ele>
        <time>2019-08-09T08:29:03Z</time>
      </trkpt>
      <trkpt lat="48.52318" lon="7.48966">
        <ele>182.3</ele>
        <time>2019-08-09T08:29:04Z</time>
      </trkpt>
      <trkpt lat="48.52319" lon="7.4896">
        <ele>182.2</ele>
        <time>2019-08-09T08:29:05Z</time>
      </trkpt>
      <trkpt lat="48.52318" lon="7.48954">
        <ele>182.2</ele>
        <time>2019-08-09T08:29:06Z</time>
      </trkpt>
      <trkpt lat="48.52319" lon="7.48948">
        <ele>182.1</ele>
        <time>2019-08-09T08:29:07Z</time>
      </trkpt>
      <trkpt lat="48.5232" lon="7.48942">
        <ele>182</ele>
        <time>2019-08-09T08:29:08Z</time>
      </trkpt>
      <trkpt lat="48.52321" lon="7.48936">
        <ele>182</ele>
        <time>2019-08-09T08:29:09Z</time>
      </trkpt>
      <trkpt lat="48.52322" lon="7.4893">
        <ele>181.9</ele>
        <time>2019-08-09T08:29:10Z</time>
      </trkpt>
      <trkpt lat="48.52323" lon="7.48925">
        <ele>181.8</ele>
        <time>2019-08-09T08:29:11Z</time>
      </trkpt>
      <trkpt lat="48.52323" lon="7.48919">
        <ele>182</ele>
        <time>2019-08-09T08:29:12Z</time>
      </trkpt>
      <trkpt lat="48.52324" lon="7.48914">
        <ele>182</ele>
        <time>2019-08-09T08:29:13Z</time>
      </trkpt>
      <trkpt lat="48.52324" lon="7.48909">
        <ele>182</ele>
        <time>2019-08-09T08:29:14Z</time>
      </trkpt>
      <trkpt lat="48.52324" lon="7.48904">
        <ele>182.1</ele>
        <time>2019-08-09T08:29:15Z</time>
      </trkpt>
      <trkpt lat="48.52325" lon="7.48899">
        <ele>182.1</ele>
        <time>2019-08-09T08:29:16Z</time>
      </trkpt>
      <trkpt lat="48.52326" lon="7.48893">
        <ele>182.1</ele>
        <time>2019-08-09T08:29:17Z</time>
      </trkpt>
      <trkpt lat="48.52328" lon="7.48888">
        <ele>182.2</ele>
        <time>2019-08-09T08:29:18Z</time>
      </trkpt>
      <trkpt lat="48.5233" lon="7.48882">
        <ele>182.2</ele>
        <time>2019-08-09T08:29:19Z</time>
      </trkpt>
      <trkpt lat="48.52331" lon="7.48877">
        <ele>182.2</ele>
        <time>2019-08-09T08:29:20Z</time>
      </trkpt>
      <trkpt lat="48.52332" lon="7.48872">
        <ele>182.2</ele>
        <time>2019-08-09T08:29:21Z</time>
      </trkpt>
      <trkpt lat="48.52333" lon="7.48866">
        <ele>182.2</ele>
        <time>2019-08-09T08:29:22Z</time>
      </trkpt>
      <trkpt lat="48.52335" lon="7.4886">
        <ele>182.3</ele>
        <time>2019-08-09T08:29:23Z</time>
      </trkpt>
      <trkpt lat="48.52336" lon="7.48855">
        <ele>182.3</ele>
        <time>2019-08-09T08:29:24Z</time>
      </trkpt>
      <trkpt lat="48.52338" lon="7.48851">
        <ele>182.3</ele>
        <time>2019-08-09T08:29:25Z</time>
      </trkpt>
      <trkpt lat="48.52339" lon="7.48846">
        <ele>182.3</ele>
        <time>2019-08-09T08:29:26Z</time>
      </trkpt>
      <trkpt lat="48.52341" lon="7.48841">
        <ele>182.3</ele>
        <time>2019-08-09T08:29:27Z</time>
      </trkpt>
      <trkpt lat="48.52343" lon="7.48836">
        <ele>182.3</ele>
        <time>2019-08-09T08:29:28Z</time>
      </trkpt>
      <trkpt lat="48.52346" lon="7.48832">
        <ele>182.3</ele>
        <time>2019-08-09T08:29:29Z</time>
      </trkpt>
      <trkpt lat="48.52348" lon="7.48829">
        <ele>182.4</ele>
        <time>2019-08-09T08:29:30Z</time>
      </trkpt>
      <trkpt lat="48.5235" lon="7.48826">
        <ele>182.4</ele>
        <time>2019-08-09T08:29:31Z</time>
      </trkpt>
      <trkpt lat="48.52351" lon="7.48818">
        <ele>182.4</ele>
        <time>2019-08-09T08:29:33Z</time>
      </trkpt>
      <trkpt lat="48.52352" lon="7.48814">
        <ele>182.4</ele>
        <time>2019-08-09T08:29:34Z</time>
      </trkpt>
      <trkpt lat="48.52353" lon="7.48809">
        <ele>182.4</ele>
        <time>2019-08-09T08:29:35Z</time>
      </trkpt>
      <trkpt lat="48.52355" lon="7.48804">
        <ele>182.5</ele>
        <time>2019-08-09T08:29:36Z</time>
      </trkpt>
      <trkpt lat="48.52357" lon="7.488">
        <ele>182.5</ele>
        <time>2019-08-09T08:29:37Z</time>
      </trkpt>
      <trkpt lat="48.52358" lon="7.48795">
        <ele>182.5</ele>
        <time>2019-08-09T08:29:38Z</time>
      </trkpt>
      <trkpt lat="48.5236" lon="7.48791">
        <ele>182.6</ele>
        <time>2019-08-09T08:29:39Z</time>
      </trkpt>
      <trkpt lat="48.52362" lon="7.48785">
        <ele>182.6</ele>
        <time>2019-08-09T08:29:40Z</time>
      </trkpt>
      <trkpt lat="48.52364" lon="7.48781">
        <ele>182.6</ele>
        <time>2019-08-09T08:29:41Z</time>
      </trkpt>
      <trkpt lat="48.52365" lon="7.48776">
        <ele>182.7</ele>
        <time>2019-08-09T08:29:42Z</time>
      </trkpt>
      <trkpt lat="48.52366" lon="7.48771">
        <ele>182.7</ele>
        <time>2019-08-09T08:29:43Z</time>
      </trkpt>
      <trkpt lat="48.52367" lon="7.48765">
        <ele>182.7</ele>
        <time>2019-08-09T08:29:44Z</time>
      </trkpt>
      <trkpt lat="48.52367" lon="7.48759">
        <ele>182.8</ele>
        <time>2019-08-09T08:29:45Z</time>
      </trkpt>
      <trkpt lat="48.52368" lon="7.48753">
        <ele>182.8</ele>
        <time>2019-08-09T08:29:46Z</time>
      </trkpt>
      <trkpt lat="48.52369" lon="7.48747">
        <ele>182.8</ele>
        <time>2019-08-09T08:29:47Z</time>
      </trkpt>
      <trkpt lat="48.5237" lon="7.4874">
        <ele>182.9</ele>
        <time>2019-08-09T08:29:48Z</time>
      </trkpt>
      <trkpt lat="48.52372" lon="7.48735">
        <ele>182.9</ele>
        <time>2019-08-09T08:29:49Z</time>
      </trkpt>
      <trkpt lat="48.52373" lon="7.4873">
        <ele>182.9</ele>
        <time>2019-08-09T08:29:50Z</time>
      </trkpt>
      <trkpt lat="48.52373" lon="7.48725">
        <ele>183</ele>
        <time>2019-08-09T08:29:51Z</time>
      </trkpt>
      <trkpt lat="48.52374" lon="7.48719">
        <ele>183</ele>
        <time>2019-08-09T08:29:52Z</time>
      </trkpt>
      <trkpt lat="48.52375" lon="7.48714">
        <ele>183.1</ele>
        <time>2019-08-09T08:29:53Z</time>
      </trkpt>
      <trkpt lat="48.52376" lon="7.48708">
        <ele>183.1</ele>
        <time>2019-08-09T08:29:54Z</time>
      </trkpt>
      <trkpt lat="48.52377" lon="7.48702">
        <ele>183.1</ele>
        <time>2019-08-09T08:29:55Z</time>
      </trkpt>
      <trkpt lat="48.52378" lon="7.48695">
        <ele>183.2</ele>
        <time>2019-08-09T08:29:56Z</time>
      </trkpt>
      <trkpt lat="48.52379" lon="7.48688">
        <ele>183.2</ele>
        <time>2019-08-09T08:29:57Z</time>
      </trkpt>
      <trkpt lat="48.5238" lon="7.48682">
        <ele>183.2</ele>
        <time>2019-08-09T08:29:58Z</time>
      </trkpt>
      <trkpt lat="48.5238" lon="7.48674">
        <ele>183.3</ele>
        <time>2019-08-09T08:29:59Z</time>
      </trkpt>
      <trkpt lat="48.52381" lon="7.48667">
        <ele>183.3</ele>
        <time>2019-08-09T08:30:00Z</time>
      </trkpt>
      <trkpt lat="48.52382" lon="7.48662">
        <ele>183.3</ele>
        <time>2019-08-09T08:30:01Z</time>
      </trkpt>
      <trkpt lat="48.52383" lon="7.48655">
        <ele>183.4</ele>
        <time>2019-08-09T08:30:02Z</time>
      </trkpt>
      <trkpt lat="48.52383" lon="7.4865">
        <ele>183.4</ele>
        <time>2019-08-09T08:30:03Z</time>
      </trkpt>
      <trkpt lat="48.52384" lon="7.48644">
        <ele>183.4</ele>
        <time>2019-08-09T08:30:04Z</time>
      </trkpt>
      <trkpt lat="48.52385" lon="7.48638">
        <ele>183.4</ele>
        <time>2019-08-09T08:30:05Z</time>
      </trkpt>
      <trkpt lat="48.52386" lon="7.48631">
        <ele>183.5</ele>
        <time>2019-08-09T08:30:06Z</time>
      </trkpt>
      <trkpt lat="48.52387" lon="7.48625">
        <ele>183.5</ele>
        <time>2019-08-09T08:30:07Z</time>
      </trkpt>
      <trkpt lat="48.52388" lon="7.48619">
        <ele>183.5</ele>
        <time>2019-08-09T08:30:08Z</time>
      </trkpt>
      <trkpt lat="48.52388" lon="7.48613">
        <ele>183.5</ele>
        <time>2019-08-09T08:30:09Z</time>
      </trkpt>
      <trkpt lat="48.52389" lon="7.48607">
        <ele>183.5</ele>
        <time>2019-08-09T08:30:10Z</time>
      </trkpt>
      <trkpt lat="48.5239" lon="7.48602">
        <ele>183.5</ele>
        <time>2019-08-09T08:30:11Z</time>
      </trkpt>
      <trkpt lat="48.5239" lon="7.48597">
        <ele>183.5</ele>
        <time>2019-08-09T08:30:12Z</time>
      </trkpt>
      <trkpt lat="48.5239" lon="7.48592">
        <ele>183.5</ele>
        <time>2019-08-09T08:30:13Z</time>
      </trkpt>
      <trkpt lat="48.52389" lon="7.48588">
        <ele>183.5</ele>
        <time>2019-08-09T08:30:14Z</time>
      </trkpt>
      <trkpt lat="48.52389" lon="7.48582">
        <ele>183.5</ele>
        <time>2019-08-09T08:30:15Z</time>
      </trkpt>
      <trkpt lat="48.52389" lon="7.48574">
        <ele>183.5</ele>
        <time>2019-08-09T08:30:16Z</time>
      </trkpt>
      <trkpt lat="48.52388" lon="7.48568">
        <ele>183.5</ele>
        <time>2019-08-09T08:30:17Z</time>
      </trkpt>
      <trkpt lat="48.52389" lon="7.48562">
        <ele>183.5</ele>
        <time>2019-08-09T08:30:18Z</time>
      </trkpt>
      <trkpt lat="48.52389" lon="7.48557">
        <ele>183.4</ele>
        <time>2019-08-09T08:30:19Z</time>
      </trkpt>
      <trkpt lat="48.52389" lon="7.48552">
        <ele>183.4</ele>
        <time>2019-08-09T08:30:20Z</time>
      </trkpt>
      <trkpt lat="48.52389" lon="7.48545">
        <ele>183.4</ele>
        <time>2019-08-09T08:30:21Z</time>
      </trkpt>
      <trkpt lat="48.52389" lon="7.48538">
        <ele>183.4</ele>
        <time>2019-08-09T08:30:22Z</time>
      </trkpt>
      <trkpt lat="48.52388" lon="7.48532">
        <ele>183.4</ele>
        <time>2019-08-09T08:30:23Z</time>
      </trkpt>
      <trkpt lat="48.52387" lon="7.48526">
        <ele>183.4</ele>
        <time>2019-08-09T08:30:24Z</time>
      </trkpt>
      <trkpt lat="48.52387" lon="7.48519">
        <ele>183.4</ele>
        <time>2019-08-09T08:30:25Z</time>
      </trkpt>
      <trkpt lat="48.52386" lon="7.48513">
        <ele>183.4</ele>
        <time>2019-08-09T08:30:26Z</time>
      </trkpt>
      <trkpt lat="48.52385" lon="7.48507">
        <ele>183.4</ele>
        <time>2019-08-09T08:30:27Z</time>
      </trkpt>
      <trkpt lat="48.52384" lon="7.48501">
        <ele>183.4</ele>
        <time>2019-08-09T08:30:28Z</time>
      </trkpt>
      <trkpt lat="48.52383" lon="7.48495">
        <ele>183.4</ele>
        <time>2019-08-09T08:30:29Z</time>
      </trkpt>
      <trkpt lat="48.52382" lon="7.48489">
        <ele>183.4</ele>
        <time>2019-08-09T08:30:30Z</time>
      </trkpt>
      <trkpt lat="48.52381" lon="7.48482">
        <ele>183.4</ele>
        <time>2019-08-09T08:30:31Z</time>
      </trkpt>
      <trkpt lat="48.5238" lon="7.48476">
        <ele>183.4</ele>
        <time>2019-08-09T08:30:32Z</time>
      </trkpt>
      <trkpt lat="48.52379" lon="7.4847">
        <ele>183.4</ele>
        <time>2019-08-09T08:30:33Z</time>
      </trkpt>
      <trkpt lat="48.52377" lon="7.48463">
        <ele>183.4</ele>
        <time>2019-08-09T08:30:34Z</time>
      </trkpt>
      <trkpt lat="48.52375" lon="7.48457">
        <ele>183.4</ele>
        <time>2019-08-09T08:30:35Z</time>
      </trkpt>
      <trkpt lat="48.52373" lon="7.4845">
        <ele>183.4</ele>
        <time>2019-08-09T08:30:36Z</time>
      </trkpt>
      <trkpt lat="48.52371" lon="7.48443">
        <ele>183.5</ele>
        <time>2019-08-09T08:30:37Z</time>
      </trkpt>
      <trkpt lat="48.5237" lon="7.48437">
        <ele>183.5</ele>
        <time>2019-08-09T08:30:38Z</time>
      </trkpt>
      <trkpt lat="48.52369" lon="7.48431">
        <ele>183.5</ele>
        <time>2019-08-09T08:30:39Z</time>
      </trkpt>
      <trkpt lat="48.52367" lon="7.48426">
        <ele>183.5</ele>
        <time>2019-08-09T08:30:40Z</time>
      </trkpt>
      <trkpt lat="48.52366" lon="7.48421">
        <ele>183.5</ele>
        <time>2019-08-09T08:30:41Z</time>
      </trkpt>
      <trkpt lat="48.52366" lon="7.48414">
        <ele>183.6</ele>
        <time>2019-08-09T08:30:42Z</time>
      </trkpt>
      <trkpt lat="48.52364" lon="7.48408">
        <ele>183.6</ele>
        <time>2019-08-09T08:30:43Z</time>
      </trkpt>
      <trkpt lat="48.52363" lon="7.48403">
        <ele>183.6</ele>
        <time>2019-08-09T08:30:44Z</time>
      </trkpt>
      <trkpt lat="48.52362" lon="7.48398">
        <ele>183.7</ele>
        <time>2019-08-09T08:30:45Z</time>
      </trkpt>
      <trkpt lat="48.52362" lon="7.48392">
        <ele>183.7</ele>
        <time>2019-08-09T08:30:46Z</time>
      </trkpt>
      <trkpt lat="48.5236" lon="7.48385">
        <ele>183.8</ele>
        <time>2019-08-09T08:30:47Z</time>
      </trkpt>
      <trkpt lat="48.52359" lon="7.48378">
        <ele>183.8</ele>
        <time>2019-08-09T08:30:48Z</time>
      </trkpt>
      <trkpt lat="48.52358" lon="7.48372">
        <ele>183.9</ele>
        <time>2019-08-09T08:30:49Z</time>
      </trkpt>
      <trkpt lat="48.52357" lon="7.48365">
        <ele>183.9</ele>
        <time>2019-08-09T08:30:50Z</time>
      </trkpt>
      <trkpt lat="48.52356" lon="7.48359">
        <ele>184</ele>
        <time>2019-08-09T08:30:51Z</time>
      </trkpt>
      <trkpt lat="48.52355" lon="7.48352">
        <ele>184</ele>
        <time>2019-08-09T08:30:52Z</time>
      </trkpt>
      <trkpt lat="48.52355" lon="7.48346">
        <ele>184.1</ele>
        <time>2019-08-09T08:30:53Z</time>
      </trkpt>
      <trkpt lat="48.52355" lon="7.4834">
        <ele>184.1</ele>
        <time>2019-08-09T08:30:54Z</time>
      </trkpt>
      <trkpt lat="48.52355" lon="7.48334">
        <ele>184.1</ele>
        <time>2019-08-09T08:30:55Z</time>
      </trkpt>
      <trkpt lat="48.52355" lon="7.48329">
        <ele>184.1</ele>
        <time>2019-08-09T08:30:56Z</time>
      </trkpt>
      <trkpt lat="48.52355" lon="7.48323">
        <ele>184.2</ele>
        <time>2019-08-09T08:30:57Z</time>
      </trkpt>
      <trkpt lat="48.52355" lon="7.48317">
        <ele>184.2</ele>
        <time>2019-08-09T08:30:58Z</time>
      </trkpt>
      <trkpt lat="48.52355" lon="7.48312">
        <ele>184.2</ele>
        <time>2019-08-09T08:30:59Z</time>
      </trkpt>
      <trkpt lat="48.52355" lon="7.48306">
        <ele>184.2</ele>
        <time>2019-08-09T08:31:00Z</time>
      </trkpt>
      <trkpt lat="48.52355" lon="7.48299">
        <ele>184.3</ele>
        <time>2019-08-09T08:31:02Z</time>
      </trkpt>
      <trkpt lat="48.52354" lon="7.48295">
        <ele>184.3</ele>
        <time>2019-08-09T08:31:03Z</time>
      </trkpt>
      <trkpt lat="48.52356" lon="7.48288">
        <ele>184.3</ele>
        <time>2019-08-09T08:31:05Z</time>
      </trkpt>
      <trkpt lat="48.52358" lon="7.48285">
        <ele>184.3</ele>
        <time>2019-08-09T08:31:06Z</time>
      </trkpt>
      <trkpt lat="48.5236" lon="7.48281">
        <ele>184.3</ele>
        <time>2019-08-09T08:31:07Z</time>
      </trkpt>
      <trkpt lat="48.5236" lon="7.48276">
        <ele>184.3</ele>
        <time>2019-08-09T08:31:08Z</time>
      </trkpt>
      <trkpt lat="48.5236" lon="7.48272">
        <ele>184.4</ele>
        <time>2019-08-09T08:31:09Z</time>
      </trkpt>
      <trkpt lat="48.52361" lon="7.48266">
        <ele>184.4</ele>
        <time>2019-08-09T08:31:10Z</time>
      </trkpt>
      <trkpt lat="48.5236" lon="7.48261">
        <ele>184.5</ele>
        <time>2019-08-09T08:31:11Z</time>
      </trkpt>
      <trkpt lat="48.5236" lon="7.48255">
        <ele>184.5</ele>
        <time>2019-08-09T08:31:12Z</time>
      </trkpt>
      <trkpt lat="48.52359" lon="7.48248">
        <ele>184.6</ele>
        <time>2019-08-09T08:31:13Z</time>
      </trkpt>
      <trkpt lat="48.52358" lon="7.48244">
        <ele>184.6</ele>
        <time>2019-08-09T08:31:14Z</time>
      </trkpt>
      <trkpt lat="48.52356" lon="7.48241">
        <ele>184.7</ele>
        <time>2019-08-09T08:31:15Z</time>
      </trkpt>
      <trkpt lat="48.52354" lon="7.48239">
        <ele>184.7</ele>
        <time>2019-08-09T08:31:16Z</time>
      </trkpt>
      <trkpt lat="48.52351" lon="7.48236">
        <ele>184.8</ele>
        <time>2019-08-09T08:31:17Z</time>
      </trkpt>
      <trkpt lat="48.52348" lon="7.48233">
        <ele>184.9</ele>
        <time>2019-08-09T08:31:18Z</time>
      </trkpt>
      <trkpt lat="48.52345" lon="7.48229">
        <ele>184.9</ele>
        <time>2019-08-09T08:31:19Z</time>
      </trkpt>
      <trkpt lat="48.52342" lon="7.48227">
        <ele>185</ele>
        <time>2019-08-09T08:31:20Z</time>
      </trkpt>
      <trkpt lat="48.52339" lon="7.48224">
        <ele>185.1</ele>
        <time>2019-08-09T08:31:21Z</time>
      </trkpt>
      <trkpt lat="48.52336" lon="7.48222">
        <ele>185.2</ele>
        <time>2019-08-09T08:31:22Z</time>
      </trkpt>
      <trkpt lat="48.52333" lon="7.48219">
        <ele>185.3</ele>
        <time>2019-08-09T08:31:23Z</time>
      </trkpt>
      <trkpt lat="48.52329" lon="7.48216">
        <ele>185.4</ele>
        <time>2019-08-09T08:31:24Z</time>
      </trkpt>
      <trkpt lat="48.52326" lon="7.48213">
        <ele>185.4</ele>
        <time>2019-08-09T08:31:25Z</time>
      </trkpt>
      <trkpt lat="48.52323" lon="7.4821">
        <ele>185.5</ele>
        <time>2019-08-09T08:31:26Z</time>
      </trkpt>
      <trkpt lat="48.5232" lon="7.48207">
        <ele>185.6</ele>
        <time>2019-08-09T08:31:27Z</time>
      </trkpt>
      <trkpt lat="48.52318" lon="7.48204">
        <ele>185.7</ele>
        <time>2019-08-09T08:31:28Z</time>
      </trkpt>
      <trkpt lat="48.52316" lon="7.482">
        <ele>185.8</ele>
        <time>2019-08-09T08:31:29Z</time>
      </trkpt>
      <trkpt lat="48.52314" lon="7.48197">
        <ele>185.9</ele>
        <time>2019-08-09T08:31:30Z</time>
      </trkpt>
      <trkpt lat="48.52313" lon="7.48193">
        <ele>185.9</ele>
        <time>2019-08-09T08:31:31Z</time>
      </trkpt>
      <trkpt lat="48.52311" lon="7.4819">
        <ele>186</ele>
        <time>2019-08-09T08:31:32Z</time>
      </trkpt>
      <trkpt lat="48.52307" lon="7.48184">
        <ele>186.2</ele>
        <time>2019-08-09T08:31:34Z</time>
      </trkpt>
      <trkpt lat="48.52304" lon="7.48181">
        <ele>186.3</ele>
        <time>2019-08-09T08:31:35Z</time>
      </trkpt>
      <trkpt lat="48.52301" lon="7.48178">
        <ele>186.4</ele>
        <time>2019-08-09T08:31:36Z</time>
      </trkpt>
      <trkpt lat="48.52297" lon="7.48172">
        <ele>186.5</ele>
        <time>2019-08-09T08:31:38Z</time>
      </trkpt>
      <trkpt lat="48.52294" lon="7.4817">
        <ele>186.6</ele>
        <time>2019-08-09T08:31:39Z</time>
      </trkpt>
      <trkpt lat="48.52291" lon="7.48167">
        <ele>186.7</ele>
        <time>2019-08-09T08:31:40Z</time>
      </trkpt>
      <trkpt lat="48.52288" lon="7.48165">
        <ele>186.7</ele>
        <time>2019-08-09T08:31:41Z</time>
      </trkpt>
      <trkpt lat="48.52285" lon="7.48162">
        <ele>186.8</ele>
        <time>2019-08-09T08:31:42Z</time>
      </trkpt>
      <trkpt lat="48.52283" lon="7.48158">
        <ele>186.8</ele>
        <time>2019-08-09T08:31:43Z</time>
      </trkpt>
      <trkpt lat="48.52281" lon="7.48155">
        <ele>186.8</ele>
        <time>2019-08-09T08:31:44Z</time>
      </trkpt>
      <trkpt lat="48.52278" lon="7.48151">
        <ele>186.9</ele>
        <time>2019-08-09T08:31:45Z</time>
      </trkpt>
      <trkpt lat="48.52276" lon="7.48148">
        <ele>186.9</ele>
        <time>2019-08-09T08:31:46Z</time>
      </trkpt>
      <trkpt lat="48.52273" lon="7.48144">
        <ele>187</ele>
        <time>2019-08-09T08:31:47Z</time>
      </trkpt>
      <trkpt lat="48.5227" lon="7.4814">
        <ele>187.1</ele>
        <time>2019-08-09T08:31:48Z</time>
      </trkpt>
      <trkpt lat="48.52268" lon="7.48137">
        <ele>187.1</ele>
        <time>2019-08-09T08:31:49Z</time>
      </trkpt>
      <trkpt lat="48.52266" lon="7.48133">
        <ele>187.2</ele>
        <time>2019-08-09T08:31:50Z</time>
      </trkpt>
      <trkpt lat="48.52264" lon="7.4813">
        <ele>187.2</ele>
        <time>2019-08-09T08:31:51Z</time>
      </trkpt>
      <trkpt lat="48.52261" lon="7.48125">
        <ele>187.3</ele>
        <time>2019-08-09T08:31:52Z</time>
      </trkpt>
      <trkpt lat="48.52259" lon="7.48121">
        <ele>187.4</ele>
        <time>2019-08-09T08:31:53Z</time>
      </trkpt>
      <trkpt lat="48.52257" lon="7.48118">
        <ele>187.4</ele>
        <time>2019-08-09T08:31:54Z</time>
      </trkpt>
      <trkpt lat="48.52255" lon="7.48115">
        <ele>187.5</ele>
        <time>2019-08-09T08:31:55Z</time>
      </trkpt>
      <trkpt lat="48.52252" lon="7.4811">
        <ele>187.6</ele>
        <time>2019-08-09T08:31:56Z</time>
      </trkpt>
      <trkpt lat="48.52251" lon="7.48107">
        <ele>187.6</ele>
        <time>2019-08-09T08:31:57Z</time>
      </trkpt>
      <trkpt lat="48.52249" lon="7.48103">
        <ele>187.7</ele>
        <time>2019-08-09T08:31:58Z</time>
      </trkpt>
      <trkpt lat="48.52248" lon="7.48099">
        <ele>187.8</ele>
        <time>2019-08-09T08:31:59Z</time>
      </trkpt>
      <trkpt lat="48.52246" lon="7.48095">
        <ele>187.8</ele>
        <time>2019-08-09T08:32:00Z</time>
      </trkpt>
      <trkpt lat="48.52244" lon="7.48091">
        <ele>187.9</ele>
        <time>2019-08-09T08:32:01Z</time>
      </trkpt>
      <trkpt lat="48.52242" lon="7.48086">
        <ele>187.9</ele>
        <time>2019-08-09T08:32:02Z</time>
      </trkpt>
      <trkpt lat="48.5224" lon="7.48082">
        <ele>188</ele>
        <time>2019-08-09T08:32:03Z</time>
      </trkpt>
      <trkpt lat="48.52238" lon="7.48076">
        <ele>188.1</ele>
        <time>2019-08-09T08:32:05Z</time>
      </trkpt>
      <trkpt lat="48.52236" lon="7.48072">
        <ele>188.1</ele>
        <time>2019-08-09T08:32:06Z</time>
      </trkpt>
      <trkpt lat="48.52235" lon="7.48069">
        <ele>188.1</ele>
        <time>2019-08-09T08:32:07Z</time>
      </trkpt>
      <trkpt lat="48.52233" lon="7.48065">
        <ele>188.2</ele>
        <time>2019-08-09T08:32:08Z</time>
      </trkpt>
      <trkpt lat="48.5223" lon="7.48061">
        <ele>188.2</ele>
        <time>2019-08-09T08:32:09Z</time>
      </trkpt>
      <trkpt lat="48.52228" lon="7.48056">
        <ele>188.2</ele>
        <time>2019-08-09T08:32:10Z</time>
      </trkpt>
      <trkpt lat="48.52226" lon="7.48051">
        <ele>188.2</ele>
        <time>2019-08-09T08:32:11Z</time>
      </trkpt>
      <trkpt lat="48.52225" lon="7.48047">
        <ele>188.3</ele>
        <time>2019-08-09T08:32:12Z</time>
      </trkpt>
      <trkpt lat="48.52223" lon="7.48043">
        <ele>188.3</ele>
        <time>2019-08-09T08:32:13Z</time>
      </trkpt>
      <trkpt lat="48.52222" lon="7.4804">
        <ele>188.3</ele>
        <time>2019-08-09T08:32:14Z</time>
      </trkpt>
      <trkpt lat="48.52221" lon="7.48036">
        <ele>188.3</ele>
        <time>2019-08-09T08:32:15Z</time>
      </trkpt>
      <trkpt lat="48.52219" lon="7.48031">
        <ele>188.3</ele>
        <time>2019-08-09T08:32:16Z</time>
      </trkpt>
      <trkpt lat="48.52218" lon="7.48026">
        <ele>188.3</ele>
        <time>2019-08-09T08:32:17Z</time>
      </trkpt>
      <trkpt lat="48.52216" lon="7.48021">
        <ele>188.4</ele>
        <time>2019-08-09T08:32:18Z</time>
      </trkpt>
      <trkpt lat="48.52215" lon="7.48017">
        <ele>188.6</ele>
        <time>2019-08-09T08:32:19Z</time>
      </trkpt>
      <trkpt lat="48.52213" lon="7.48012">
        <ele>188.8</ele>
        <time>2019-08-09T08:32:20Z</time>
      </trkpt>
      <trkpt lat="48.52212" lon="7.48008">
        <ele>189</ele>
        <time>2019-08-09T08:32:21Z</time>
      </trkpt>
      <trkpt lat="48.52211" lon="7.48003">
        <ele>189.2</ele>
        <time>2019-08-09T08:32:22Z</time>
      </trkpt>
      <trkpt lat="48.5221" lon="7.47998">
        <ele>189.4</ele>
        <time>2019-08-09T08:32:23Z</time>
      </trkpt>
      <trkpt lat="48.52209" lon="7.4799">
        <ele>189.6</ele>
        <time>2019-08-09T08:32:25Z</time>
      </trkpt>
      <trkpt lat="48.52207" lon="7.47987">
        <ele>189.8</ele>
        <time>2019-08-09T08:32:26Z</time>
      </trkpt>
      <trkpt lat="48.52207" lon="7.47982">
        <ele>189.9</ele>
        <time>2019-08-09T08:32:27Z</time>
      </trkpt>
      <trkpt lat="48.52207" lon="7.47977">
        <ele>190</ele>
        <time>2019-08-09T08:32:28Z</time>
      </trkpt>
      <trkpt lat="48.52207" lon="7.47972">
        <ele>190.1</ele>
        <time>2019-08-09T08:32:29Z</time>
      </trkpt>
      <trkpt lat="48.52207" lon="7.47967">
        <ele>190.2</ele>
        <time>2019-08-09T08:32:30Z</time>
      </trkpt>
      <trkpt lat="48.52206" lon="7.47962">
        <ele>190.2</ele>
        <time>2019-08-09T08:32:31Z</time>
      </trkpt>
      <trkpt lat="48.52205" lon="7.47958">
        <ele>190.3</ele>
        <time>2019-08-09T08:32:32Z</time>
      </trkpt>
      <trkpt lat="48.52204" lon="7.47953">
        <ele>190.3</ele>
        <time>2019-08-09T08:32:33Z</time>
      </trkpt>
      <trkpt lat="48.52203" lon="7.47948">
        <ele>190.3</ele>
        <time>2019-08-09T08:32:34Z</time>
      </trkpt>
      <trkpt lat="48.52201" lon="7.47943">
        <ele>190.3</ele>
        <time>2019-08-09T08:32:35Z</time>
      </trkpt>
      <trkpt lat="48.52201" lon="7.47939">
        <ele>190.3</ele>
        <time>2019-08-09T08:32:36Z</time>
      </trkpt>
      <trkpt lat="48.522" lon="7.47935">
        <ele>190.3</ele>
        <time>2019-08-09T08:32:37Z</time>
      </trkpt>
      <trkpt lat="48.522" lon="7.4793">
        <ele>190.3</ele>
        <time>2019-08-09T08:32:38Z</time>
      </trkpt>
      <trkpt lat="48.522" lon="7.47925">
        <ele>190.3</ele>
        <time>2019-08-09T08:32:39Z</time>
      </trkpt>
      <trkpt lat="48.522" lon="7.47919">
        <ele>190.3</ele>
        <time>2019-08-09T08:32:40Z</time>
      </trkpt>
      <trkpt lat="48.52199" lon="7.47914">
        <ele>190.3</ele>
        <time>2019-08-09T08:32:41Z</time>
      </trkpt>
      <trkpt lat="48.52199" lon="7.47908">
        <ele>190.3</ele>
        <time>2019-08-09T08:32:42Z</time>
      </trkpt>
      <trkpt lat="48.52199" lon="7.47903">
        <ele>190.3</ele>
        <time>2019-08-09T08:32:43Z</time>
      </trkpt>
      <trkpt lat="48.52199" lon="7.47899">
        <ele>190.3</ele>
        <time>2019-08-09T08:32:44Z</time>
      </trkpt>
      <trkpt lat="48.52198" lon="7.47895">
        <ele>190.3</ele>
        <time>2019-08-09T08:32:45Z</time>
      </trkpt>
      <trkpt lat="48.52198" lon="7.4789">
        <ele>190.3</ele>
        <time>2019-08-09T08:32:46Z</time>
      </trkpt>
      <trkpt lat="48.52197" lon="7.47882">
        <ele>190.3</ele>
        <time>2019-08-09T08:32:48Z</time>
      </trkpt>
      <trkpt lat="48.52197" lon="7.47874">
        <ele>190.3</ele>
        <time>2019-08-09T08:32:50Z</time>
      </trkpt>
      <trkpt lat="48.52196" lon="7.47866">
        <ele>190.3</ele>
        <time>2019-08-09T08:32:52Z</time>
      </trkpt>
      <trkpt lat="48.52195" lon="7.47861">
        <ele>190.3</ele>
        <time>2019-08-09T08:32:53Z</time>
      </trkpt>
      <trkpt lat="48.52194" lon="7.47857">
        <ele>190.4</ele>
        <time>2019-08-09T08:32:54Z</time>
      </trkpt>
      <trkpt lat="48.52194" lon="7.47852">
        <ele>190.4</ele>
        <time>2019-08-09T08:32:55Z</time>
      </trkpt>
      <trkpt lat="48.52194" lon="7.47846">
        <ele>190.4</ele>
        <time>2019-08-09T08:32:56Z</time>
      </trkpt>
      <trkpt lat="48.52194" lon="7.47837">
        <ele>190.4</ele>
        <time>2019-08-09T08:32:58Z</time>
      </trkpt>
      <trkpt lat="48.52194" lon="7.47832">
        <ele>190.4</ele>
        <time>2019-08-09T08:32:59Z</time>
      </trkpt>
      <trkpt lat="48.52195" lon="7.47826">
        <ele>190.3</ele>
        <time>2019-08-09T08:33:00Z</time>
      </trkpt>
      <trkpt lat="48.52194" lon="7.47821">
        <ele>190.3</ele>
        <time>2019-08-09T08:33:01Z</time>
      </trkpt>
      <trkpt lat="48.52194" lon="7.47816">
        <ele>190.3</ele>
        <time>2019-08-09T08:33:02Z</time>
      </trkpt>
      <trkpt lat="48.52193" lon="7.47811">
        <ele>190.3</ele>
        <time>2019-08-09T08:33:03Z</time>
      </trkpt>
      <trkpt lat="48.52193" lon="7.47805">
        <ele>190.3</ele>
        <time>2019-08-09T08:33:04Z</time>
      </trkpt>
      <trkpt lat="48.52193" lon="7.47799">
        <ele>190.2</ele>
        <time>2019-08-09T08:33:05Z</time>
      </trkpt>
      <trkpt lat="48.52194" lon="7.47793">
        <ele>190.2</ele>
        <time>2019-08-09T08:33:06Z</time>
      </trkpt>
      <trkpt lat="48.52194" lon="7.47788">
        <ele>190.1</ele>
        <time>2019-08-09T08:33:07Z</time>
      </trkpt>
      <trkpt lat="48.52192" lon="7.47783">
        <ele>190.1</ele>
        <time>2019-08-09T08:33:08Z</time>
      </trkpt>
      <trkpt lat="48.52191" lon="7.47779">
        <ele>190</ele>
        <time>2019-08-09T08:33:09Z</time>
      </trkpt>
      <trkpt lat="48.52188" lon="7.47776">
        <ele>189.9</ele>
        <time>2019-08-09T08:33:10Z</time>
      </trkpt>
      <trkpt lat="48.52183" lon="7.47777">
        <ele>189.9</ele>
        <time>2019-08-09T08:33:11Z</time>
      </trkpt>
      <trkpt lat="48.52179" lon="7.47777">
        <ele>189.8</ele>
        <time>2019-08-09T08:33:12Z</time>
      </trkpt>
      <trkpt lat="48.52174" lon="7.47778">
        <ele>189.7</ele>
        <time>2019-08-09T08:33:13Z</time>
      </trkpt>
      <trkpt lat="48.5217" lon="7.47781">
        <ele>189.7</ele>
        <time>2019-08-09T08:33:14Z</time>
      </trkpt>
      <trkpt lat="48.52165" lon="7.47783">
        <ele>189.6</ele>
        <time>2019-08-09T08:33:15Z</time>
      </trkpt>
      <trkpt lat="48.52161" lon="7.47786">
        <ele>189.6</ele>
        <time>2019-08-09T08:33:16Z</time>
      </trkpt>
      <trkpt lat="48.52156" lon="7.47787">
        <ele>189.5</ele>
        <time>2019-08-09T08:33:17Z</time>
      </trkpt>
      <trkpt lat="48.52152" lon="7.47789">
        <ele>189.5</ele>
        <time>2019-08-09T08:33:18Z</time>
      </trkpt>
      <trkpt lat="48.52148" lon="7.47791">
        <ele>189.4</ele>
        <time>2019-08-09T08:33:19Z</time>
      </trkpt>
      <trkpt lat="48.52143" lon="7.47793">
        <ele>189.4</ele>
        <time>2019-08-09T08:33:20Z</time>
      </trkpt>
      <trkpt lat="48.52139" lon="7.47795">
        <ele>189.3</ele>
        <time>2019-08-09T08:33:21Z</time>
      </trkpt>
      <trkpt lat="48.52135" lon="7.47797">
        <ele>189.3</ele>
        <time>2019-08-09T08:33:22Z</time>
      </trkpt>
      <trkpt lat="48.5213" lon="7.47799">
        <ele>189.3</ele>
        <time>2019-08-09T08:33:23Z</time>
      </trkpt>
      <trkpt lat="48.52126" lon="7.47801">
        <ele>189.3</ele>
        <time>2019-08-09T08:33:24Z</time>
      </trkpt>
      <trkpt lat="48.52121" lon="7.47803">
        <ele>189.3</ele>
        <time>2019-08-09T08:33:25Z</time>
      </trkpt>
      <trkpt lat="48.52115" lon="7.47805">
        <ele>189.3</ele>
        <time>2019-08-09T08:33:26Z</time>
      </trkpt>
      <trkpt lat="48.5211" lon="7.47807">
        <ele>189.3</ele>
        <time>2019-08-09T08:33:27Z</time>
      </trkpt>
      <trkpt lat="48.52105" lon="7.47809">
        <ele>189.3</ele>
        <time>2019-08-09T08:33:28Z</time>
      </trkpt>
      <trkpt lat="48.52101" lon="7.47811">
        <ele>189.4</ele>
        <time>2019-08-09T08:33:29Z</time>
      </trkpt>
      <trkpt lat="48.52097" lon="7.47812">
        <ele>189.4</ele>
        <time>2019-08-09T08:33:30Z</time>
      </trkpt>
      <trkpt lat="48.52094" lon="7.47813">
        <ele>189.3</ele>
        <time>2019-08-09T08:33:31Z</time>
      </trkpt>
      <trkpt lat="48.5209" lon="7.47813">
        <ele>189.3</ele>
        <time>2019-08-09T08:33:32Z</time>
      </trkpt>
      <trkpt lat="48.52087" lon="7.47811">
        <ele>189.2</ele>
        <time>2019-08-09T08:33:33Z</time>
      </trkpt>
      <trkpt lat="48.52084" lon="7.47808">
        <ele>189.2</ele>
        <time>2019-08-09T08:33:34Z</time>
      </trkpt>
      <trkpt lat="48.52081" lon="7.47805">
        <ele>189.1</ele>
        <time>2019-08-09T08:33:35Z</time>
      </trkpt>
      <trkpt lat="48.52078" lon="7.47798">
        <ele>189</ele>
        <time>2019-08-09T08:33:36Z</time>
      </trkpt>
      <trkpt lat="48.52075" lon="7.47792">
        <ele>188.9</ele>
        <time>2019-08-09T08:33:37Z</time>
      </trkpt>
      <trkpt lat="48.52072" lon="7.47787">
        <ele>188.9</ele>
        <time>2019-08-09T08:33:38Z</time>
      </trkpt>
      <trkpt lat="48.52068" lon="7.47782">
        <ele>188.8</ele>
        <time>2019-08-09T08:33:39Z</time>
      </trkpt>
      <trkpt lat="48.52066" lon="7.47777">
        <ele>188.8</ele>
        <time>2019-08-09T08:33:40Z</time>
      </trkpt>
      <trkpt lat="48.52062" lon="7.47773">
        <ele>188.8</ele>
        <time>2019-08-09T08:33:41Z</time>
      </trkpt>
      <trkpt lat="48.52059" lon="7.47768">
        <ele>188.7</ele>
        <time>2019-08-09T08:33:42Z</time>
      </trkpt>
      <trkpt lat="48.52057" lon="7.47764">
        <ele>188.7</ele>
        <time>2019-08-09T08:33:43Z</time>
      </trkpt>
      <trkpt lat="48.52054" lon="7.47759">
        <ele>188.7</ele>
        <time>2019-08-09T08:33:44Z</time>
      </trkpt>
      <trkpt lat="48.52051" lon="7.47753">
        <ele>188.6</ele>
        <time>2019-08-09T08:33:45Z</time>
      </trkpt>
      <trkpt lat="48.52048" lon="7.47749">
        <ele>188.6</ele>
        <time>2019-08-09T08:33:46Z</time>
      </trkpt>
      <trkpt lat="48.52045" lon="7.47744">
        <ele>188.6</ele>
        <time>2019-08-09T08:33:47Z</time>
      </trkpt>
      <trkpt lat="48.52042" lon="7.4774">
        <ele>188.6</ele>
        <time>2019-08-09T08:33:48Z</time>
      </trkpt>
      <trkpt lat="48.5204" lon="7.47736">
        <ele>188.6</ele>
        <time>2019-08-09T08:33:49Z</time>
      </trkpt>
      <trkpt lat="48.52037" lon="7.47731">
        <ele>188.6</ele>
        <time>2019-08-09T08:33:50Z</time>
      </trkpt>
      <trkpt lat="48.52035" lon="7.47728">
        <ele>188.6</ele>
        <time>2019-08-09T08:33:51Z</time>
      </trkpt>
      <trkpt lat="48.52032" lon="7.47724">
        <ele>188.6</ele>
        <time>2019-08-09T08:33:52Z</time>
      </trkpt>
      <trkpt lat="48.52029" lon="7.4772">
        <ele>188.5</ele>
        <time>2019-08-09T08:33:53Z</time>
      </trkpt>
      <trkpt lat="48.52026" lon="7.47716">
        <ele>188.5</ele>
        <time>2019-08-09T08:33:54Z</time>
      </trkpt>
      <trkpt lat="48.52023" lon="7.47712">
        <ele>188.5</ele>
        <time>2019-08-09T08:33:55Z</time>
      </trkpt>
      <trkpt lat="48.5202" lon="7.47708">
        <ele>188.4</ele>
        <time>2019-08-09T08:33:56Z</time>
      </trkpt>
      <trkpt lat="48.52016" lon="7.47703">
        <ele>188.4</ele>
        <time>2019-08-09T08:33:57Z</time>
      </trkpt>
      <trkpt lat="48.52012" lon="7.47697">
        <ele>188.3</ele>
        <time>2019-08-09T08:33:58Z</time>
      </trkpt>
      <trkpt lat="48.52009" lon="7.47692">
        <ele>188.3</ele>
        <time>2019-08-09T08:33:59Z</time>
      </trkpt>
      <trkpt lat="48.52005" lon="7.47687">
        <ele>188.2</ele>
        <time>2019-08-09T08:34:00Z</time>
      </trkpt>
      <trkpt lat="48.52002" lon="7.47683">
        <ele>188.2</ele>
        <time>2019-08-09T08:34:01Z</time>
      </trkpt>
      <trkpt lat="48.51999" lon="7.47679">
        <ele>188.1</ele>
        <time>2019-08-09T08:34:02Z</time>
      </trkpt>
      <trkpt lat="48.51995" lon="7.47674">
        <ele>188.1</ele>
        <time>2019-08-09T08:34:03Z</time>
      </trkpt>
      <trkpt lat="48.51992" lon="7.4767">
        <ele>188</ele>
        <time>2019-08-09T08:34:04Z</time>
      </trkpt>
      <trkpt lat="48.51988" lon="7.47665">
        <ele>188.3</ele>
        <time>2019-08-09T08:34:05Z</time>
      </trkpt>
      <trkpt lat="48.51984" lon="7.4766">
        <ele>188.4</ele>
        <time>2019-08-09T08:34:06Z</time>
      </trkpt>
      <trkpt lat="48.5198" lon="7.47656">
        <ele>188.5</ele>
        <time>2019-08-09T08:34:07Z</time>
      </trkpt>
      <trkpt lat="48.51976" lon="7.47652">
        <ele>188.7</ele>
        <time>2019-08-09T08:34:08Z</time>
      </trkpt>
      <trkpt lat="48.51973" lon="7.47648">
        <ele>188.8</ele>
        <time>2019-08-09T08:34:09Z</time>
      </trkpt>
      <trkpt lat="48.51969" lon="7.47644">
        <ele>188.9</ele>
        <time>2019-08-09T08:34:10Z</time>
      </trkpt>
      <trkpt lat="48.51966" lon="7.47641">
        <ele>189</ele>
        <time>2019-08-09T08:34:11Z</time>
      </trkpt>
      <trkpt lat="48.51962" lon="7.47637">
        <ele>189.2</ele>
        <time>2019-08-09T08:34:12Z</time>
      </trkpt>
      <trkpt lat="48.51958" lon="7.47634">
        <ele>189.3</ele>
        <time>2019-08-09T08:34:13Z</time>
      </trkpt>
      <trkpt lat="48.51955" lon="7.47631">
        <ele>189.3</ele>
        <time>2019-08-09T08:34:14Z</time>
      </trkpt>
      <trkpt lat="48.51952" lon="7.47629">
        <ele>189.4</ele>
        <time>2019-08-09T08:34:15Z</time>
      </trkpt>
      <trkpt lat="48.51948" lon="7.47626">
        <ele>189.4</ele>
        <time>2019-08-09T08:34:16Z</time>
      </trkpt>
      <trkpt lat="48.51945" lon="7.47625">
        <ele>189.5</ele>
        <time>2019-08-09T08:34:17Z</time>
      </trkpt>
      <trkpt lat="48.51942" lon="7.47624">
        <ele>189.6</ele>
        <time>2019-08-09T08:34:18Z</time>
      </trkpt>
      <trkpt lat="48.51939" lon="7.47622">
        <ele>189.6</ele>
        <time>2019-08-09T08:34:19Z</time>
      </trkpt>
      <trkpt lat="48.51935" lon="7.47622">
        <ele>189.7</ele>
        <time>2019-08-09T08:34:20Z</time>
      </trkpt>
      <trkpt lat="48.51932" lon="7.47622">
        <ele>189.7</ele>
        <time>2019-08-09T08:34:21Z</time>
      </trkpt>
      <trkpt lat="48.51927" lon="7.47619">
        <ele>189.8</ele>
        <time>2019-08-09T08:34:23Z</time>
      </trkpt>
      <trkpt lat="48.51923" lon="7.47618">
        <ele>189.9</ele>
        <time>2019-08-09T08:34:24Z</time>
      </trkpt>
      <trkpt lat="48.5192" lon="7.47618">
        <ele>190</ele>
        <time>2019-08-09T08:34:25Z</time>
      </trkpt>
      <trkpt lat="48.51916" lon="7.47617">
        <ele>190</ele>
        <time>2019-08-09T08:34:26Z</time>
      </trkpt>
      <trkpt lat="48.51913" lon="7.47618">
        <ele>190.1</ele>
        <time>2019-08-09T08:34:27Z</time>
      </trkpt>
      <trkpt lat="48.5191" lon="7.47618">
        <ele>190.2</ele>
        <time>2019-08-09T08:34:28Z</time>
      </trkpt>
      <trkpt lat="48.51907" lon="7.47617">
        <ele>190.3</ele>
        <time>2019-08-09T08:34:29Z</time>
      </trkpt>
      <trkpt lat="48.51904" lon="7.47616">
        <ele>190.4</ele>
        <time>2019-08-09T08:34:30Z</time>
      </trkpt>
      <trkpt lat="48.51898" lon="7.47614">
        <ele>190.5</ele>
        <time>2019-08-09T08:34:32Z</time>
      </trkpt>
      <trkpt lat="48.51896" lon="7.47612">
        <ele>190.6</ele>
        <time>2019-08-09T08:34:33Z</time>
      </trkpt>
      <trkpt lat="48.51893" lon="7.4761">
        <ele>190.8</ele>
        <time>2019-08-09T08:34:34Z</time>
      </trkpt>
      <trkpt lat="48.51889" lon="7.47606">
        <ele>191</ele>
        <time>2019-08-09T08:34:36Z</time>
      </trkpt>
      <trkpt lat="48.51885" lon="7.47602">
        <ele>191.2</ele>
        <time>2019-08-09T08:34:38Z</time>
      </trkpt>
      <trkpt lat="48.51881" lon="7.476">
        <ele>191.4</ele>
        <time>2019-08-09T08:34:40Z</time>
      </trkpt>
      <trkpt lat="48.51876" lon="7.47597">
        <ele>191.6</ele>
        <time>2019-08-09T08:34:42Z</time>
      </trkpt>
      <trkpt lat="48.51872" lon="7.47595">
        <ele>191.8</ele>
        <time>2019-08-09T08:34:44Z</time>
      </trkpt>
      <trkpt lat="48.51869" lon="7.47593">
        <ele>192</ele>
        <time>2019-08-09T08:34:45Z</time>
      </trkpt>
      <trkpt lat="48.51866" lon="7.47591">
        <ele>192</ele>
        <time>2019-08-09T08:34:46Z</time>
      </trkpt>
      <trkpt lat="48.51862" lon="7.47587">
        <ele>192.1</ele>
        <time>2019-08-09T08:34:48Z</time>
      </trkpt>
      <trkpt lat="48.51858" lon="7.47585">
        <ele>192.1</ele>
        <time>2019-08-09T08:34:50Z</time>
      </trkpt>
      <trkpt lat="48.51853" lon="7.47583">
        <ele>192.2</ele>
        <time>2019-08-09T08:34:52Z</time>
      </trkpt>
      <trkpt lat="48.51848" lon="7.47579">
        <ele>192.3</ele>
        <time>2019-08-09T08:34:54Z</time>
      </trkpt>
      <trkpt lat="48.51845" lon="7.47577">
        <ele>192.3</ele>
        <time>2019-08-09T08:34:55Z</time>
      </trkpt>
      <trkpt lat="48.51843" lon="7.47575">
        <ele>192.4</ele>
        <time>2019-08-09T08:34:56Z</time>
      </trkpt>
      <trkpt lat="48.51839" lon="7.47573">
        <ele>192.4</ele>
        <time>2019-08-09T08:34:58Z</time>
      </trkpt>
      <trkpt lat="48.51834" lon="7.4757">
        <ele>192.5</ele>
        <time>2019-08-09T08:35:00Z</time>
      </trkpt>
      <trkpt lat="48.5183" lon="7.47568">
        <ele>192.6</ele>
        <time>2019-08-09T08:35:01Z</time>
      </trkpt>
      <trkpt lat="48.51826" lon="7.47565">
        <ele>192.7</ele>
        <time>2019-08-09T08:35:02Z</time>
      </trkpt>
      <trkpt lat="48.51822" lon="7.47563">
        <ele>192.7</ele>
        <time>2019-08-09T08:35:03Z</time>
      </trkpt>
      <trkpt lat="48.51817" lon="7.4756">
        <ele>192.8</ele>
        <time>2019-08-09T08:35:04Z</time>
      </trkpt>
      <trkpt lat="48.51813" lon="7.47557">
        <ele>192.9</ele>
        <time>2019-08-09T08:35:05Z</time>
      </trkpt>
      <trkpt lat="48.51809" lon="7.47553">
        <ele>192.9</ele>
        <time>2019-08-09T08:35:06Z</time>
      </trkpt>
      <trkpt lat="48.51805" lon="7.47549">
        <ele>193</ele>
        <time>2019-08-09T08:35:07Z</time>
      </trkpt>
      <trkpt lat="48.51801" lon="7.47544">
        <ele>193</ele>
        <time>2019-08-09T08:35:08Z</time>
      </trkpt>
      <trkpt lat="48.51798" lon="7.47537">
        <ele>193.1</ele>
        <time>2019-08-09T08:35:09Z</time>
      </trkpt>
      <trkpt lat="48.51794" lon="7.4753">
        <ele>193.2</ele>
        <time>2019-08-09T08:35:10Z</time>
      </trkpt>
      <trkpt lat="48.5179" lon="7.47523">
        <ele>193.3</ele>
        <time>2019-08-09T08:35:11Z</time>
      </trkpt>
      <trkpt lat="48.51786" lon="7.47516">
        <ele>193.3</ele>
        <time>2019-08-09T08:35:12Z</time>
      </trkpt>
      <trkpt lat="48.51782" lon="7.47508">
        <ele>193.4</ele>
        <time>2019-08-09T08:35:13Z</time>
      </trkpt>
      <trkpt lat="48.51777" lon="7.47502">
        <ele>193.5</ele>
        <time>2019-08-09T08:35:14Z</time>
      </trkpt>
      <trkpt lat="48.51773" lon="7.47497">
        <ele>193.6</ele>
        <time>2019-08-09T08:35:15Z</time>
      </trkpt>
      <trkpt lat="48.51768" lon="7.47493">
        <ele>193.7</ele>
        <time>2019-08-09T08:35:16Z</time>
      </trkpt>
      <trkpt lat="48.51764" lon="7.47488">
        <ele>193.8</ele>
        <time>2019-08-09T08:35:17Z</time>
      </trkpt>
      <trkpt lat="48.51758" lon="7.47484">
        <ele>193.9</ele>
        <time>2019-08-09T08:35:18Z</time>
      </trkpt>
      <trkpt lat="48.51754" lon="7.47481">
        <ele>194</ele>
        <time>2019-08-09T08:35:19Z</time>
      </trkpt>
      <trkpt lat="48.5175" lon="7.47478">
        <ele>194.1</ele>
        <time>2019-08-09T08:35:20Z</time>
      </trkpt>
      <trkpt lat="48.51747" lon="7.47477">
        <ele>194.2</ele>
        <time>2019-08-09T08:35:21Z</time>
      </trkpt>
      <trkpt lat="48.51744" lon="7.47475">
        <ele>194.3</ele>
        <time>2019-08-09T08:35:22Z</time>
      </trkpt>
      <trkpt lat="48.5174" lon="7.47472">
        <ele>194.4</ele>
        <time>2019-08-09T08:35:23Z</time>
      </trkpt>
      <trkpt lat="48.51738" lon="7.4747">
        <ele>194.5</ele>
        <time>2019-08-09T08:35:24Z</time>
      </trkpt>
      <trkpt lat="48.51735" lon="7.47468">
        <ele>194.5</ele>
        <time>2019-08-09T08:35:25Z</time>
      </trkpt>
      <trkpt lat="48.51731" lon="7.47463">
        <ele>194.7</ele>
        <time>2019-08-09T08:35:27Z</time>
      </trkpt>
      <trkpt lat="48.51728" lon="7.47462">
        <ele>194.8</ele>
        <time>2019-08-09T08:35:28Z</time>
      </trkpt>
      <trkpt lat="48.51723" lon="7.4746">
        <ele>194.9</ele>
        <time>2019-08-09T08:35:30Z</time>
      </trkpt>
      <trkpt lat="48.51721" lon="7.47459">
        <ele>195</ele>
        <time>2019-08-09T08:35:31Z</time>
      </trkpt>
      <trkpt lat="48.51715" lon="7.47456">
        <ele>195.2</ele>
        <time>2019-08-09T08:35:33Z</time>
      </trkpt>
      <trkpt lat="48.51713" lon="7.47455">
        <ele>195.3</ele>
        <time>2019-08-09T08:35:34Z</time>
      </trkpt>
      <trkpt lat="48.51709" lon="7.47454">
        <ele>195.4</ele>
        <time>2019-08-09T08:35:35Z</time>
      </trkpt>
      <trkpt lat="48.51706" lon="7.47453">
        <ele>195.5</ele>
        <time>2019-08-09T08:35:36Z</time>
      </trkpt>
      <trkpt lat="48.51703" lon="7.47452">
        <ele>195.6</ele>
        <time>2019-08-09T08:35:37Z</time>
      </trkpt>
      <trkpt lat="48.51699" lon="7.4745">
        <ele>195.8</ele>
        <time>2019-08-09T08:35:38Z</time>
      </trkpt>
      <trkpt lat="48.51697" lon="7.47448">
        <ele>195.9</ele>
        <time>2019-08-09T08:35:39Z</time>
      </trkpt>
      <trkpt lat="48.51694" lon="7.47446">
        <ele>196</ele>
        <time>2019-08-09T08:35:40Z</time>
      </trkpt>
      <trkpt lat="48.51691" lon="7.47445">
        <ele>196.1</ele>
        <time>2019-08-09T08:35:41Z</time>
      </trkpt>
      <trkpt lat="48.51688" lon="7.47444">
        <ele>196.2</ele>
        <time>2019-08-09T08:35:42Z</time>
      </trkpt>
      <trkpt lat="48.51685" lon="7.47442">
        <ele>196.3</ele>
        <time>2019-08-09T08:35:43Z</time>
      </trkpt>
      <trkpt lat="48.51682" lon="7.47441">
        <ele>196.5</ele>
        <time>2019-08-09T08:35:44Z</time>
      </trkpt>
      <trkpt lat="48.51679" lon="7.4744">
        <ele>196.7</ele>
        <time>2019-08-09T08:35:45Z</time>
      </trkpt>
      <trkpt lat="48.51675" lon="7.47438">
        <ele>196.9</ele>
        <time>2019-08-09T08:35:46Z</time>
      </trkpt>
      <trkpt lat="48.51671" lon="7.47436">
        <ele>197.1</ele>
        <time>2019-08-09T08:35:48Z</time>
      </trkpt>
      <trkpt lat="48.51665" lon="7.47433">
        <ele>197.5</ele>
        <time>2019-08-09T08:35:50Z</time>
      </trkpt>
      <trkpt lat="48.5166" lon="7.47431">
        <ele>197.8</ele>
        <time>2019-08-09T08:35:52Z</time>
      </trkpt>
      <trkpt lat="48.51657" lon="7.47429">
        <ele>198</ele>
        <time>2019-08-09T08:35:53Z</time>
      </trkpt>
      <trkpt lat="48.51654" lon="7.47427">
        <ele>198.3</ele>
        <time>2019-08-09T08:35:54Z</time>
      </trkpt>
      <trkpt lat="48.51649" lon="7.47423">
        <ele>198.6</ele>
        <time>2019-08-09T08:35:56Z</time>
      </trkpt>
      <trkpt lat="48.51644" lon="7.47421">
        <ele>199</ele>
        <time>2019-08-09T08:35:58Z</time>
      </trkpt>
      <trkpt lat="48.51642" lon="7.47419">
        <ele>199.3</ele>
        <time>2019-08-09T08:35:59Z</time>
      </trkpt>
      <trkpt lat="48.51639" lon="7.47418">
        <ele>199.6</ele>
        <time>2019-08-09T08:36:00Z</time>
      </trkpt>
      <trkpt lat="48.51635" lon="7.47417">
        <ele>199.9</ele>
        <time>2019-08-09T08:36:01Z</time>
      </trkpt>
      <trkpt lat="48.51633" lon="7.47416">
        <ele>200.1</ele>
        <time>2019-08-09T08:36:02Z</time>
      </trkpt>
      <trkpt lat="48.5163" lon="7.47416">
        <ele>200.4</ele>
        <time>2019-08-09T08:36:03Z</time>
      </trkpt>
      <trkpt lat="48.51626" lon="7.47415">
        <ele>200.8</ele>
        <time>2019-08-09T08:36:04Z</time>
      </trkpt>
      <trkpt lat="48.51623" lon="7.47415">
        <ele>201.1</ele>
        <time>2019-08-09T08:36:05Z</time>
      </trkpt>
      <trkpt lat="48.5162" lon="7.47414">
        <ele>201.4</ele>
        <time>2019-08-09T08:36:06Z</time>
      </trkpt>
      <trkpt lat="48.51616" lon="7.47414">
        <ele>201.8</ele>
        <time>2019-08-09T08:36:07Z</time>
      </trkpt>
      <trkpt lat="48.51613" lon="7.47414">
        <ele>202.2</ele>
        <time>2019-08-09T08:36:08Z</time>
      </trkpt>
      <trkpt lat="48.5161" lon="7.47414">
        <ele>202.5</ele>
        <time>2019-08-09T08:36:09Z</time>
      </trkpt>
      <trkpt lat="48.51607" lon="7.47414">
        <ele>202.9</ele>
        <time>2019-08-09T08:36:10Z</time>
      </trkpt>
      <trkpt lat="48.51601" lon="7.47413">
        <ele>203.6</ele>
        <time>2019-08-09T08:36:12Z</time>
      </trkpt>
      <trkpt lat="48.51597" lon="7.47413">
        <ele>204</ele>
        <time>2019-08-09T08:36:13Z</time>
      </trkpt>
      <trkpt lat="48.51593" lon="7.47413">
        <ele>204.4</ele>
        <time>2019-08-09T08:36:14Z</time>
      </trkpt>
      <trkpt lat="48.51589" lon="7.47413">
        <ele>204.9</ele>
        <time>2019-08-09T08:36:15Z</time>
      </trkpt>
      <trkpt lat="48.51586" lon="7.47412">
        <ele>205.4</ele>
        <time>2019-08-09T08:36:16Z</time>
      </trkpt>
      <trkpt lat="48.51582" lon="7.47411">
        <ele>205.8</ele>
        <time>2019-08-09T08:36:17Z</time>
      </trkpt>
      <trkpt lat="48.51579" lon="7.4741">
        <ele>206.2</ele>
        <time>2019-08-09T08:36:18Z</time>
      </trkpt>
      <trkpt lat="48.51577" lon="7.47409">
        <ele>206.6</ele>
        <time>2019-08-09T08:36:19Z</time>
      </trkpt>
      <trkpt lat="48.51574" lon="7.47408">
        <ele>206.9</ele>
        <time>2019-08-09T08:36:20Z</time>
      </trkpt>
      <trkpt lat="48.51569" lon="7.47405">
        <ele>207.6</ele>
        <time>2019-08-09T08:36:22Z</time>
      </trkpt>
      <trkpt lat="48.51566" lon="7.47402">
        <ele>208.1</ele>
        <time>2019-08-09T08:36:23Z</time>
      </trkpt>
      <trkpt lat="48.51563" lon="7.474">
        <ele>208.6</ele>
        <time>2019-08-09T08:36:24Z</time>
      </trkpt>
      <trkpt lat="48.5156" lon="7.47397">
        <ele>209.1</ele>
        <time>2019-08-09T08:36:25Z</time>
      </trkpt>
      <trkpt lat="48.51557" lon="7.47394">
        <ele>209.5</ele>
        <time>2019-08-09T08:36:26Z</time>
      </trkpt>
      <trkpt lat="48.51554" lon="7.47392">
        <ele>209.9</ele>
        <time>2019-08-09T08:36:27Z</time>
      </trkpt>
      <trkpt lat="48.51551" lon="7.4739">
        <ele>210.4</ele>
        <time>2019-08-09T08:36:28Z</time>
      </trkpt>
      <trkpt lat="48.51547" lon="7.47387">
        <ele>211</ele>
        <time>2019-08-09T08:36:30Z</time>
      </trkpt>
      <trkpt lat="48.51544" lon="7.47384">
        <ele>211.5</ele>
        <time>2019-08-09T08:36:32Z</time>
      </trkpt>
      <trkpt lat="48.51542" lon="7.4738">
        <ele>211.8</ele>
        <time>2019-08-09T08:36:33Z</time>
      </trkpt>
      <trkpt lat="48.5154" lon="7.47375">
        <ele>212.3</ele>
        <time>2019-08-09T08:36:35Z</time>
      </trkpt>
      <trkpt lat="48.51535" lon="7.47369">
        <ele>213.1</ele>
        <time>2019-08-09T08:36:38Z</time>
      </trkpt>
      <trkpt lat="48.51532" lon="7.47365">
        <ele>213.6</ele>
        <time>2019-08-09T08:36:40Z</time>
      </trkpt>
      <trkpt lat="48.51529" lon="7.47361">
        <ele>214.1</ele>
        <time>2019-08-09T08:36:42Z</time>
      </trkpt>
      <trkpt lat="48.51525" lon="7.47358">
        <ele>214.7</ele>
        <time>2019-08-09T08:36:44Z</time>
      </trkpt>
      <trkpt lat="48.51522" lon="7.47354">
        <ele>215.1</ele>
        <time>2019-08-09T08:36:46Z</time>
      </trkpt>
      <trkpt lat="48.51521" lon="7.4735">
        <ele>215.6</ele>
        <time>2019-08-09T08:36:48Z</time>
      </trkpt>
      <trkpt lat="48.51518" lon="7.47347">
        <ele>216</ele>
        <time>2019-08-09T08:36:50Z</time>
      </trkpt>
      <trkpt lat="48.51515" lon="7.47346">
        <ele>216.4</ele>
        <time>2019-08-09T08:36:52Z</time>
      </trkpt>
      <trkpt lat="48.51513" lon="7.47343">
        <ele>216.8</ele>
        <time>2019-08-09T08:36:55Z</time>
      </trkpt>
      <trkpt lat="48.5151" lon="7.47339">
        <ele>217.2</ele>
        <time>2019-08-09T08:36:56Z</time>
      </trkpt>
      <trkpt lat="48.51508" lon="7.47337">
        <ele>217.6</ele>
        <time>2019-08-09T08:36:57Z</time>
      </trkpt>
      <trkpt lat="48.51505" lon="7.47334">
        <ele>218</ele>
        <time>2019-08-09T08:36:59Z</time>
      </trkpt>
      <trkpt lat="48.51503" lon="7.47331">
        <ele>218.4</ele>
        <time>2019-08-09T08:37:01Z</time>
      </trkpt>
      <trkpt lat="48.515" lon="7.47328">
        <ele>218.8</ele>
        <time>2019-08-09T08:37:03Z</time>
      </trkpt>
      <trkpt lat="48.51497" lon="7.47325">
        <ele>219.2</ele>
        <time>2019-08-09T08:37:05Z</time>
      </trkpt>
      <trkpt lat="48.51495" lon="7.47322">
        <ele>219.6</ele>
        <time>2019-08-09T08:37:08Z</time>
      </trkpt>
      <trkpt lat="48.51492" lon="7.47318">
        <ele>220.1</ele>
        <time>2019-08-09T08:37:10Z</time>
      </trkpt>
      <trkpt lat="48.51489" lon="7.47317">
        <ele>220.5</ele>
        <time>2019-08-09T08:37:13Z</time>
      </trkpt>
      <trkpt lat="48.51485" lon="7.47316">
        <ele>220.9</ele>
        <time>2019-08-09T08:37:16Z</time>
      </trkpt>
      <trkpt lat="48.51482" lon="7.47313">
        <ele>221.4</ele>
        <time>2019-08-09T08:37:18Z</time>
      </trkpt>
      <trkpt lat="48.51479" lon="7.4731">
        <ele>221.8</ele>
        <time>2019-08-09T08:37:20Z</time>
      </trkpt>
      <trkpt lat="48.51475" lon="7.47307">
        <ele>222.3</ele>
        <time>2019-08-09T08:37:23Z</time>
      </trkpt>
      <trkpt lat="48.51472" lon="7.47307">
        <ele>222.6</ele>
        <time>2019-08-09T08:37:25Z</time>
      </trkpt>
      <trkpt lat="48.51469" lon="7.47306">
        <ele>223</ele>
        <time>2019-08-09T08:37:27Z</time>
      </trkpt>
      <trkpt lat="48.51467" lon="7.47305">
        <ele>223.3</ele>
        <time>2019-08-09T08:37:29Z</time>
      </trkpt>
      <trkpt lat="48.51464" lon="7.47303">
        <ele>223.7</ele>
        <time>2019-08-09T08:37:31Z</time>
      </trkpt>
      <trkpt lat="48.51461" lon="7.473">
        <ele>224</ele>
        <time>2019-08-09T08:37:33Z</time>
      </trkpt>
      <trkpt lat="48.51459" lon="7.47296">
        <ele>224.5</ele>
        <time>2019-08-09T08:37:35Z</time>
      </trkpt>
      <trkpt lat="48.51456" lon="7.47293">
        <ele>224.9</ele>
        <time>2019-08-09T08:37:37Z</time>
      </trkpt>
      <trkpt lat="48.51453" lon="7.47289">
        <ele>225.3</ele>
        <time>2019-08-09T08:37:39Z</time>
      </trkpt>
      <trkpt lat="48.51451" lon="7.47285">
        <ele>225.7</ele>
        <time>2019-08-09T08:37:41Z</time>
      </trkpt>
      <trkpt lat="48.51448" lon="7.47282">
        <ele>226.1</ele>
        <time>2019-08-09T08:37:43Z</time>
      </trkpt>
      <trkpt lat="48.51446" lon="7.47279">
        <ele>226.4</ele>
        <time>2019-08-09T08:37:45Z</time>
      </trkpt>
      <trkpt lat="48.51443" lon="7.47274">
        <ele>226.9</ele>
        <time>2019-08-09T08:37:47Z</time>
      </trkpt>
      <trkpt lat="48.5144" lon="7.47269">
        <ele>227.4</ele>
        <time>2019-08-09T08:37:49Z</time>
      </trkpt>
      <trkpt lat="48.51437" lon="7.47266">
        <ele>227.8</ele>
        <time>2019-08-09T08:37:51Z</time>
      </trkpt>
      <trkpt lat="48.51434" lon="7.47262">
        <ele>228.2</ele>
        <time>2019-08-09T08:37:53Z</time>
      </trkpt>
      <trkpt lat="48.51432" lon="7.47257">
        <ele>228.6</ele>
        <time>2019-08-09T08:37:55Z</time>
      </trkpt>
      <trkpt lat="48.51429" lon="7.47253">
        <ele>229</ele>
        <time>2019-08-09T08:37:57Z</time>
      </trkpt>
      <trkpt lat="48.51427" lon="7.4725">
        <ele>229.3</ele>
        <time>2019-08-09T08:37:59Z</time>
      </trkpt>
      <trkpt lat="48.51425" lon="7.47246">
        <ele>229.6</ele>
        <time>2019-08-09T08:38:01Z</time>
      </trkpt>
      <trkpt lat="48.51423" lon="7.47243">
        <ele>230</ele>
        <time>2019-08-09T08:38:03Z</time>
      </trkpt>
      <trkpt lat="48.51421" lon="7.47239">
        <ele>230.3</ele>
        <time>2019-08-09T08:38:05Z</time>
      </trkpt>
      <trkpt lat="48.51419" lon="7.47234">
        <ele>230.6</ele>
        <time>2019-08-09T08:38:08Z</time>
      </trkpt>
      <trkpt lat="48.51416" lon="7.4723">
        <ele>231</ele>
        <time>2019-08-09T08:38:12Z</time>
      </trkpt>
      <trkpt lat="48.51412" lon="7.47224">
        <ele>231.5</ele>
        <time>2019-08-09T08:38:14Z</time>
      </trkpt>
      <trkpt lat="48.51408" lon="7.4722">
        <ele>231.8</ele>
        <time>2019-08-09T08:38:17Z</time>
      </trkpt>
      <trkpt lat="48.51405" lon="7.47216">
        <ele>232.2</ele>
        <time>2019-08-09T08:38:19Z</time>
      </trkpt>
      <trkpt lat="48.51403" lon="7.47212">
        <ele>232.5</ele>
        <time>2019-08-09T08:38:22Z</time>
      </trkpt>
      <trkpt lat="48.514" lon="7.47209">
        <ele>232.7</ele>
        <time>2019-08-09T08:38:24Z</time>
      </trkpt>
      <trkpt lat="48.51397" lon="7.47205">
        <ele>233</ele>
        <time>2019-08-09T08:38:26Z</time>
      </trkpt>
      <trkpt lat="48.51395" lon="7.47202">
        <ele>233.3</ele>
        <time>2019-08-09T08:38:29Z</time>
      </trkpt>
      <trkpt lat="48.51392" lon="7.47201">
        <ele>233.6</ele>
        <time>2019-08-09T08:38:32Z</time>
      </trkpt>
      <trkpt lat="48.51389" lon="7.47201">
        <ele>233.8</ele>
        <time>2019-08-09T08:38:40Z</time>
      </trkpt>
      <trkpt lat="48.51386" lon="7.47192">
        <ele>234.3</ele>
        <time>2019-08-09T08:42:40Z</time>
      </trkpt>
      <trkpt lat="48.51382" lon="7.47192">
        <ele>234.6</ele>
        <time>2019-08-09T08:42:42Z</time>
      </trkpt>
      <trkpt lat="48.51378" lon="7.47189">
        <ele>235.2</ele>
        <time>2019-08-09T08:42:44Z</time>
      </trkpt>
      <trkpt lat="48.51375" lon="7.47185">
        <ele>235.6</ele>
        <time>2019-08-09T08:42:46Z</time>
      </trkpt>
      <trkpt lat="48.5137" lon="7.47183">
        <ele>236</ele>
        <time>2019-08-09T08:42:48Z</time>
      </trkpt>
      <trkpt lat="48.51365" lon="7.47181">
        <ele>236.3</ele>
        <time>2019-08-09T08:42:50Z</time>
      </trkpt>
      <trkpt lat="48.51361" lon="7.47178">
        <ele>236.6</ele>
        <time>2019-08-09T08:42:52Z</time>
      </trkpt>
      <trkpt lat="48.51357" lon="7.47176">
        <ele>236.8</ele>
        <time>2019-08-09T08:42:54Z</time>
      </trkpt>
      <trkpt lat="48.51353" lon="7.47174">
        <ele>237.1</ele>
        <time>2019-08-09T08:42:56Z</time>
      </trkpt>
      <trkpt lat="48.5135" lon="7.47172">
        <ele>237.3</ele>
        <time>2019-08-09T08:42:58Z</time>
      </trkpt>
      <trkpt lat="48.51347" lon="7.4717">
        <ele>237.5</ele>
        <time>2019-08-09T08:43:00Z</time>
      </trkpt>
      <trkpt lat="48.51344" lon="7.47169">
        <ele>237.6</ele>
        <time>2019-08-09T08:43:02Z</time>
      </trkpt>
      <trkpt lat="48.51341" lon="7.47168">
        <ele>237.8</ele>
        <time>2019-08-09T08:43:04Z</time>
      </trkpt>
      <trkpt lat="48.51337" lon="7.47167">
        <ele>238.1</ele>
        <time>2019-08-09T08:43:06Z</time>
      </trkpt>
      <trkpt lat="48.51334" lon="7.47168">
        <ele>238.3</ele>
        <time>2019-08-09T08:43:08Z</time>
      </trkpt>
      <trkpt lat="48.5133" lon="7.47169">
        <ele>238.5</ele>
        <time>2019-08-09T08:43:10Z</time>
      </trkpt>
      <trkpt lat="48.51325" lon="7.4717">
        <ele>238.7</ele>
        <time>2019-08-09T08:43:12Z</time>
      </trkpt>
      <trkpt lat="48.51321" lon="7.47172">
        <ele>238.9</ele>
        <time>2019-08-09T08:43:14Z</time>
      </trkpt>
      <trkpt lat="48.51317" lon="7.47174">
        <ele>239.1</ele>
        <time>2019-08-09T08:43:16Z</time>
      </trkpt>
      <trkpt lat="48.51313" lon="7.47176">
        <ele>239.2</ele>
        <time>2019-08-09T08:43:18Z</time>
      </trkpt>
      <trkpt lat="48.51309" lon="7.47178">
        <ele>239.4</ele>
        <time>2019-08-09T08:43:20Z</time>
      </trkpt>
      <trkpt lat="48.51305" lon="7.47179">
        <ele>239.7</ele>
        <time>2019-08-09T08:43:22Z</time>
      </trkpt>
      <trkpt lat="48.513" lon="7.4718">
        <ele>240</ele>
        <time>2019-08-09T08:43:24Z</time>
      </trkpt>
      <trkpt lat="48.51297" lon="7.47182">
        <ele>240.2</ele>
        <time>2019-08-09T08:43:26Z</time>
      </trkpt>
      <trkpt lat="48.51292" lon="7.47185">
        <ele>240.5</ele>
        <time>2019-08-09T08:43:28Z</time>
      </trkpt>
      <trkpt lat="48.51288" lon="7.47186">
        <ele>240.9</ele>
        <time>2019-08-09T08:43:30Z</time>
      </trkpt>
      <trkpt lat="48.51284" lon="7.47188">
        <ele>241.1</ele>
        <time>2019-08-09T08:43:32Z</time>
      </trkpt>
      <trkpt lat="48.5128" lon="7.47189">
        <ele>241.5</ele>
        <time>2019-08-09T08:43:34Z</time>
      </trkpt>
      <trkpt lat="48.51275" lon="7.47191">
        <ele>241.9</ele>
        <time>2019-08-09T08:43:36Z</time>
      </trkpt>
      <trkpt lat="48.51272" lon="7.47192">
        <ele>242.3</ele>
        <time>2019-08-09T08:43:38Z</time>
      </trkpt>
      <trkpt lat="48.51268" lon="7.47193">
        <ele>242.8</ele>
        <time>2019-08-09T08:43:40Z</time>
      </trkpt>
      <trkpt lat="48.51265" lon="7.47194">
        <ele>243.1</ele>
        <time>2019-08-09T08:43:41Z</time>
      </trkpt>
      <trkpt lat="48.5126" lon="7.47197">
        <ele>243.6</ele>
        <time>2019-08-09T08:43:43Z</time>
      </trkpt>
      <trkpt lat="48.51255" lon="7.47198">
        <ele>243.9</ele>
        <time>2019-08-09T08:43:45Z</time>
      </trkpt>
      <trkpt lat="48.5125" lon="7.472">
        <ele>244.3</ele>
        <time>2019-08-09T08:43:47Z</time>
      </trkpt>
      <trkpt lat="48.51245" lon="7.47202">
        <ele>244.7</ele>
        <time>2019-08-09T08:43:49Z</time>
      </trkpt>
      <trkpt lat="48.51241" lon="7.47203">
        <ele>245</ele>
        <time>2019-08-09T08:43:51Z</time>
      </trkpt>
      <trkpt lat="48.51237" lon="7.47204">
        <ele>245.3</ele>
        <time>2019-08-09T08:43:53Z</time>
      </trkpt>
      <trkpt lat="48.51233" lon="7.47205">
        <ele>245.7</ele>
        <time>2019-08-09T08:43:55Z</time>
      </trkpt>
      <trkpt lat="48.51229" lon="7.47205">
        <ele>246</ele>
        <time>2019-08-09T08:43:57Z</time>
      </trkpt>
      <trkpt lat="48.51224" lon="7.47205">
        <ele>246.4</ele>
        <time>2019-08-09T08:43:59Z</time>
      </trkpt>
      <trkpt lat="48.5122" lon="7.47205">
        <ele>246.8</ele>
        <time>2019-08-09T08:44:01Z</time>
      </trkpt>
      <trkpt lat="48.51217" lon="7.47205">
        <ele>247</ele>
        <time>2019-08-09T08:44:03Z</time>
      </trkpt>
      <trkpt lat="48.51214" lon="7.47204">
        <ele>247.2</ele>
        <time>2019-08-09T08:44:05Z</time>
      </trkpt>
      <trkpt lat="48.51211" lon="7.47204">
        <ele>247.4</ele>
        <time>2019-08-09T08:44:07Z</time>
      </trkpt>
      <trkpt lat="48.51208" lon="7.47203">
        <ele>247.6</ele>
        <time>2019-08-09T08:44:09Z</time>
      </trkpt>
      <trkpt lat="48.51204" lon="7.47202">
        <ele>247.9</ele>
        <time>2019-08-09T08:44:11Z</time>
      </trkpt>
      <trkpt lat="48.512" lon="7.47201">
        <ele>248.1</ele>
        <time>2019-08-09T08:44:13Z</time>
      </trkpt>
      <trkpt lat="48.51197" lon="7.472">
        <ele>248.3</ele>
        <time>2019-08-09T08:44:15Z</time>
      </trkpt>
      <trkpt lat="48.51193" lon="7.47198">
        <ele>248.6</ele>
        <time>2019-08-09T08:44:17Z</time>
      </trkpt>
      <trkpt lat="48.51189" lon="7.47197">
        <ele>248.8</ele>
        <time>2019-08-09T08:44:19Z</time>
      </trkpt>
      <trkpt lat="48.51186" lon="7.47197">
        <ele>249</ele>
        <time>2019-08-09T08:44:21Z</time>
      </trkpt>
      <trkpt lat="48.51183" lon="7.47195">
        <ele>249.2</ele>
        <time>2019-08-09T08:44:23Z</time>
      </trkpt>
      <trkpt lat="48.51179" lon="7.47193">
        <ele>249.4</ele>
        <time>2019-08-09T08:44:25Z</time>
      </trkpt>
      <trkpt lat="48.51176" lon="7.4719">
        <ele>249.6</ele>
        <time>2019-08-09T08:44:27Z</time>
      </trkpt>
      <trkpt lat="48.51172" lon="7.47187">
        <ele>249.8</ele>
        <time>2019-08-09T08:44:29Z</time>
      </trkpt>
      <trkpt lat="48.51168" lon="7.47185">
        <ele>250.1</ele>
        <time>2019-08-09T08:44:31Z</time>
      </trkpt>
      <trkpt lat="48.51165" lon="7.47183">
        <ele>250.4</ele>
        <time>2019-08-09T08:44:33Z</time>
      </trkpt>
      <trkpt lat="48.51161" lon="7.4718">
        <ele>251.1</ele>
        <time>2019-08-09T08:44:35Z</time>
      </trkpt>
      <trkpt lat="48.51157" lon="7.47178">
        <ele>251.7</ele>
        <time>2019-08-09T08:44:37Z</time>
      </trkpt>
      <trkpt lat="48.51153" lon="7.47176">
        <ele>252.2</ele>
        <time>2019-08-09T08:44:39Z</time>
      </trkpt>
      <trkpt lat="48.5115" lon="7.47174">
        <ele>252.6</ele>
        <time>2019-08-09T08:44:41Z</time>
      </trkpt>
      <trkpt lat="48.51147" lon="7.47173">
        <ele>253</ele>
        <time>2019-08-09T08:44:43Z</time>
      </trkpt>
      <trkpt lat="48.51143" lon="7.47172">
        <ele>253.3</ele>
        <time>2019-08-09T08:44:45Z</time>
      </trkpt>
      <trkpt lat="48.51141" lon="7.47169">
        <ele>253.5</ele>
        <time>2019-08-09T08:44:47Z</time>
      </trkpt>
      <trkpt lat="48.51138" lon="7.47167">
        <ele>253.8</ele>
        <time>2019-08-09T08:44:49Z</time>
      </trkpt>
      <trkpt lat="48.51135" lon="7.47164">
        <ele>254</ele>
        <time>2019-08-09T08:44:51Z</time>
      </trkpt>
      <trkpt lat="48.51131" lon="7.47162">
        <ele>254.2</ele>
        <time>2019-08-09T08:44:53Z</time>
      </trkpt>
      <trkpt lat="48.51128" lon="7.4716">
        <ele>254.4</ele>
        <time>2019-08-09T08:44:55Z</time>
      </trkpt>
      <trkpt lat="48.51124" lon="7.47158">
        <ele>254.6</ele>
        <time>2019-08-09T08:44:57Z</time>
      </trkpt>
      <trkpt lat="48.51121" lon="7.47157">
        <ele>254.7</ele>
        <time>2019-08-09T08:44:59Z</time>
      </trkpt>
      <trkpt lat="48.51117" lon="7.47155">
        <ele>254.8</ele>
        <time>2019-08-09T08:45:01Z</time>
      </trkpt>
      <trkpt lat="48.51113" lon="7.47154">
        <ele>254.9</ele>
        <time>2019-08-09T08:45:03Z</time>
      </trkpt>
      <trkpt lat="48.51109" lon="7.47152">
        <ele>254.9</ele>
        <time>2019-08-09T08:45:05Z</time>
      </trkpt>
      <trkpt lat="48.51105" lon="7.47151">
        <ele>254.9</ele>
        <time>2019-08-09T08:45:07Z</time>
      </trkpt>
      <trkpt lat="48.51101" lon="7.47149">
        <ele>255</ele>
        <time>2019-08-09T08:45:09Z</time>
      </trkpt>
      <trkpt lat="48.51098" lon="7.47147">
        <ele>255</ele>
        <time>2019-08-09T08:45:11Z</time>
      </trkpt>
      <trkpt lat="48.51093" lon="7.47145">
        <ele>255</ele>
        <time>2019-08-09T08:45:13Z</time>
      </trkpt>
      <trkpt lat="48.51089" lon="7.47143">
        <ele>255</ele>
        <time>2019-08-09T08:45:15Z</time>
      </trkpt>
      <trkpt lat="48.51086" lon="7.47141">
        <ele>255</ele>
        <time>2019-08-09T08:45:16Z</time>
      </trkpt>
      <trkpt lat="48.51081" lon="7.4714">
        <ele>254.9</ele>
        <time>2019-08-09T08:45:18Z</time>
      </trkpt>
      <trkpt lat="48.51076" lon="7.47136">
        <ele>254.9</ele>
        <time>2019-08-09T08:45:20Z</time>
      </trkpt>
      <trkpt lat="48.51074" lon="7.47135">
        <ele>254.9</ele>
        <time>2019-08-09T08:45:21Z</time>
      </trkpt>
      <trkpt lat="48.51071" lon="7.47133">
        <ele>254.8</ele>
        <time>2019-08-09T08:45:22Z</time>
      </trkpt>
      <trkpt lat="48.51068" lon="7.47131">
        <ele>254.8</ele>
        <time>2019-08-09T08:45:23Z</time>
      </trkpt>
      <trkpt lat="48.51065" lon="7.4713">
        <ele>254.7</ele>
        <time>2019-08-09T08:45:24Z</time>
      </trkpt>
      <trkpt lat="48.51062" lon="7.47129">
        <ele>254.6</ele>
        <time>2019-08-09T08:45:25Z</time>
      </trkpt>
      <trkpt lat="48.51059" lon="7.47128">
        <ele>254.5</ele>
        <time>2019-08-09T08:45:26Z</time>
      </trkpt>
      <trkpt lat="48.51055" lon="7.47125">
        <ele>254.3</ele>
        <time>2019-08-09T08:45:28Z</time>
      </trkpt>
      <trkpt lat="48.5105" lon="7.47123">
        <ele>254.2</ele>
        <time>2019-08-09T08:45:30Z</time>
      </trkpt>
      <trkpt lat="48.51046" lon="7.47122">
        <ele>254.1</ele>
        <time>2019-08-09T08:45:32Z</time>
      </trkpt>
      <trkpt lat="48.51042" lon="7.47121">
        <ele>254</ele>
        <time>2019-08-09T08:45:34Z</time>
      </trkpt>
      <trkpt lat="48.51038" lon="7.47119">
        <ele>254</ele>
        <time>2019-08-09T08:45:36Z</time>
      </trkpt>
      <trkpt lat="48.51035" lon="7.47118">
        <ele>253.9</ele>
        <time>2019-08-09T08:45:37Z</time>
      </trkpt>
      <trkpt lat="48.5103" lon="7.47115">
        <ele>253.9</ele>
        <time>2019-08-09T08:45:39Z</time>
      </trkpt>
      <trkpt lat="48.51025" lon="7.47113">
        <ele>253.8</ele>
        <time>2019-08-09T08:45:41Z</time>
      </trkpt>
      <trkpt lat="48.51023" lon="7.47112">
        <ele>253.8</ele>
        <time>2019-08-09T08:45:42Z</time>
      </trkpt>
      <trkpt lat="48.5102" lon="7.47111">
        <ele>253.8</ele>
        <time>2019-08-09T08:45:43Z</time>
      </trkpt>
      <trkpt lat="48.51016" lon="7.4711">
        <ele>253.7</ele>
        <time>2019-08-09T08:45:45Z</time>
      </trkpt>
      <trkpt lat="48.51011" lon="7.47108">
        <ele>253.6</ele>
        <time>2019-08-09T08:45:47Z</time>
      </trkpt>
      <trkpt lat="48.51006" lon="7.47107">
        <ele>253.5</ele>
        <time>2019-08-09T08:45:49Z</time>
      </trkpt>
      <trkpt lat="48.51002" lon="7.47105">
        <ele>253.4</ele>
        <time>2019-08-09T08:45:51Z</time>
      </trkpt>
      <trkpt lat="48.50997" lon="7.47103">
        <ele>253.4</ele>
        <time>2019-08-09T08:45:53Z</time>
      </trkpt>
      <trkpt lat="48.50993" lon="7.47101">
        <ele>253.3</ele>
        <time>2019-08-09T08:45:55Z</time>
      </trkpt>
      <trkpt lat="48.50989" lon="7.471">
        <ele>253.2</ele>
        <time>2019-08-09T08:45:57Z</time>
      </trkpt>
      <trkpt lat="48.50985" lon="7.47098">
        <ele>252.9</ele>
        <time>2019-08-09T08:45:59Z</time>
      </trkpt>
      <trkpt lat="48.5098" lon="7.47097">
        <ele>252.7</ele>
        <time>2019-08-09T08:46:01Z</time>
      </trkpt>
      <trkpt lat="48.50975" lon="7.47098">
        <ele>252.5</ele>
        <time>2019-08-09T08:46:03Z</time>
      </trkpt>
      <trkpt lat="48.5097" lon="7.47099">
        <ele>252.2</ele>
        <time>2019-08-09T08:46:05Z</time>
      </trkpt>
      <trkpt lat="48.50966" lon="7.47098">
        <ele>252</ele>
        <time>2019-08-09T08:46:07Z</time>
      </trkpt>
      <trkpt lat="48.50961" lon="7.47097">
        <ele>251.8</ele>
        <time>2019-08-09T08:46:09Z</time>
      </trkpt>
      <trkpt lat="48.50957" lon="7.47097">
        <ele>251.6</ele>
        <time>2019-08-09T08:46:11Z</time>
      </trkpt>
      <trkpt lat="48.50952" lon="7.47097">
        <ele>251.4</ele>
        <time>2019-08-09T08:46:13Z</time>
      </trkpt>
      <trkpt lat="48.50949" lon="7.47098">
        <ele>251</ele>
        <time>2019-08-09T08:46:14Z</time>
      </trkpt>
      <trkpt lat="48.50943" lon="7.47098">
        <ele>250.8</ele>
        <time>2019-08-09T08:46:16Z</time>
      </trkpt>
      <trkpt lat="48.50941" lon="7.47097">
        <ele>250.8</ele>
        <time>2019-08-09T08:46:17Z</time>
      </trkpt>
      <trkpt lat="48.50938" lon="7.47098">
        <ele>250.7</ele>
        <time>2019-08-09T08:46:18Z</time>
      </trkpt>
      <trkpt lat="48.50933" lon="7.47099">
        <ele>250.5</ele>
        <time>2019-08-09T08:46:20Z</time>
      </trkpt>
      <trkpt lat="48.50929" lon="7.471">
        <ele>250.3</ele>
        <time>2019-08-09T08:46:22Z</time>
      </trkpt>
      <trkpt lat="48.50924" lon="7.47101">
        <ele>250.1</ele>
        <time>2019-08-09T08:46:24Z</time>
      </trkpt>
      <trkpt lat="48.50918" lon="7.47101">
        <ele>249.9</ele>
        <time>2019-08-09T08:46:26Z</time>
      </trkpt>
      <trkpt lat="48.50913" lon="7.471">
        <ele>249.7</ele>
        <time>2019-08-09T08:46:28Z</time>
      </trkpt>
      <trkpt lat="48.5091" lon="7.471">
        <ele>249.6</ele>
        <time>2019-08-09T08:46:29Z</time>
      </trkpt>
      <trkpt lat="48.50907" lon="7.47099">
        <ele>249.5</ele>
        <time>2019-08-09T08:46:30Z</time>
      </trkpt>
      <trkpt lat="48.50904" lon="7.47097">
        <ele>249.4</ele>
        <time>2019-08-09T08:46:31Z</time>
      </trkpt>
      <trkpt lat="48.50901" lon="7.47094">
        <ele>249.3</ele>
        <time>2019-08-09T08:46:32Z</time>
      </trkpt>
      <trkpt lat="48.50898" lon="7.4709">
        <ele>249.2</ele>
        <time>2019-08-09T08:46:33Z</time>
      </trkpt>
      <trkpt lat="48.50895" lon="7.47087">
        <ele>249.2</ele>
        <time>2019-08-09T08:46:34Z</time>
      </trkpt>
      <trkpt lat="48.50892" lon="7.47085">
        <ele>249.1</ele>
        <time>2019-08-09T08:46:35Z</time>
      </trkpt>
      <trkpt lat="48.50889" lon="7.47083">
        <ele>249.1</ele>
        <time>2019-08-09T08:46:36Z</time>
      </trkpt>
      <trkpt lat="48.50886" lon="7.47081">
        <ele>249</ele>
        <time>2019-08-09T08:46:37Z</time>
      </trkpt>
      <trkpt lat="48.50881" lon="7.47077">
        <ele>249</ele>
        <time>2019-08-09T08:46:39Z</time>
      </trkpt>
      <trkpt lat="48.50878" lon="7.47074">
        <ele>248.9</ele>
        <time>2019-08-09T08:46:40Z</time>
      </trkpt>
      <trkpt lat="48.50876" lon="7.47071">
        <ele>248.9</ele>
        <time>2019-08-09T08:46:41Z</time>
      </trkpt>
      <trkpt lat="48.50874" lon="7.47068">
        <ele>248.8</ele>
        <time>2019-08-09T08:46:42Z</time>
      </trkpt>
      <trkpt lat="48.50871" lon="7.47065">
        <ele>248.7</ele>
        <time>2019-08-09T08:46:43Z</time>
      </trkpt>
      <trkpt lat="48.50867" lon="7.47062">
        <ele>248.5</ele>
        <time>2019-08-09T08:46:44Z</time>
      </trkpt>
      <trkpt lat="48.50864" lon="7.47059">
        <ele>248.3</ele>
        <time>2019-08-09T08:46:45Z</time>
      </trkpt>
      <trkpt lat="48.50861" lon="7.47056">
        <ele>248.1</ele>
        <time>2019-08-09T08:46:46Z</time>
      </trkpt>
      <trkpt lat="48.50858" lon="7.47053">
        <ele>247.8</ele>
        <time>2019-08-09T08:46:47Z</time>
      </trkpt>
      <trkpt lat="48.50856" lon="7.47049">
        <ele>247.5</ele>
        <time>2019-08-09T08:46:48Z</time>
      </trkpt>
      <trkpt lat="48.50854" lon="7.47046">
        <ele>247.3</ele>
        <time>2019-08-09T08:46:49Z</time>
      </trkpt>
      <trkpt lat="48.50852" lon="7.47043">
        <ele>247</ele>
        <time>2019-08-09T08:46:50Z</time>
      </trkpt>
      <trkpt lat="48.50849" lon="7.47041">
        <ele>246.7</ele>
        <time>2019-08-09T08:46:51Z</time>
      </trkpt>
      <trkpt lat="48.50847" lon="7.47038">
        <ele>246.4</ele>
        <time>2019-08-09T08:46:52Z</time>
      </trkpt>
      <trkpt lat="48.50845" lon="7.47033">
        <ele>246</ele>
        <time>2019-08-09T08:46:53Z</time>
      </trkpt>
      <trkpt lat="48.50841" lon="7.4703">
        <ele>245.6</ele>
        <time>2019-08-09T08:46:54Z</time>
      </trkpt>
      <trkpt lat="48.50838" lon="7.47027">
        <ele>245.2</ele>
        <time>2019-08-09T08:46:55Z</time>
      </trkpt>
      <trkpt lat="48.50833" lon="7.47024">
        <ele>244.8</ele>
        <time>2019-08-09T08:46:56Z</time>
      </trkpt>
      <trkpt lat="48.50829" lon="7.47022">
        <ele>244.4</ele>
        <time>2019-08-09T08:46:57Z</time>
      </trkpt>
      <trkpt lat="48.50824" lon="7.4702">
        <ele>244.1</ele>
        <time>2019-08-09T08:46:58Z</time>
      </trkpt>
      <trkpt lat="48.50819" lon="7.47017">
        <ele>243.8</ele>
        <time>2019-08-09T08:46:59Z</time>
      </trkpt>
      <trkpt lat="48.50814" lon="7.47014">
        <ele>243.6</ele>
        <time>2019-08-09T08:47:00Z</time>
      </trkpt>
      <trkpt lat="48.50809" lon="7.47012">
        <ele>243.3</ele>
        <time>2019-08-09T08:47:01Z</time>
      </trkpt>
      <trkpt lat="48.50804" lon="7.4701">
        <ele>243.1</ele>
        <time>2019-08-09T08:47:02Z</time>
      </trkpt>
      <trkpt lat="48.50799" lon="7.4701">
        <ele>242.9</ele>
        <time>2019-08-09T08:47:03Z</time>
      </trkpt>
      <trkpt lat="48.50795" lon="7.4701">
        <ele>242.6</ele>
        <time>2019-08-09T08:47:04Z</time>
      </trkpt>
      <trkpt lat="48.50791" lon="7.47009">
        <ele>242.4</ele>
        <time>2019-08-09T08:47:05Z</time>
      </trkpt>
      <trkpt lat="48.50786" lon="7.47009">
        <ele>242.2</ele>
        <time>2019-08-09T08:47:06Z</time>
      </trkpt>
      <trkpt lat="48.50783" lon="7.47008">
        <ele>242</ele>
        <time>2019-08-09T08:47:07Z</time>
      </trkpt>
      <trkpt lat="48.50779" lon="7.47009">
        <ele>241.8</ele>
        <time>2019-08-09T08:47:08Z</time>
      </trkpt>
      <trkpt lat="48.50774" lon="7.47011">
        <ele>241</ele>
        <time>2019-08-09T08:47:10Z</time>
      </trkpt>
      <trkpt lat="48.50771" lon="7.47012">
        <ele>240.7</ele>
        <time>2019-08-09T08:47:11Z</time>
      </trkpt>
      <trkpt lat="48.50768" lon="7.47014">
        <ele>240.4</ele>
        <time>2019-08-09T08:47:12Z</time>
      </trkpt>
      <trkpt lat="48.50765" lon="7.47015">
        <ele>240.1</ele>
        <time>2019-08-09T08:47:13Z</time>
      </trkpt>
      <trkpt lat="48.50762" lon="7.47018">
        <ele>239.9</ele>
        <time>2019-08-09T08:47:14Z</time>
      </trkpt>
      <trkpt lat="48.50758" lon="7.4702">
        <ele>239.6</ele>
        <time>2019-08-09T08:47:15Z</time>
      </trkpt>
      <trkpt lat="48.50753" lon="7.47021">
        <ele>239.3</ele>
        <time>2019-08-09T08:47:16Z</time>
      </trkpt>
      <trkpt lat="48.50748" lon="7.47022">
        <ele>239</ele>
        <time>2019-08-09T08:47:17Z</time>
      </trkpt>
      <trkpt lat="48.50743" lon="7.47024">
        <ele>238.7</ele>
        <time>2019-08-09T08:47:18Z</time>
      </trkpt>
      <trkpt lat="48.50738" lon="7.47027">
        <ele>238.5</ele>
        <time>2019-08-09T08:47:19Z</time>
      </trkpt>
      <trkpt lat="48.50733" lon="7.47029">
        <ele>238.2</ele>
        <time>2019-08-09T08:47:20Z</time>
      </trkpt>
      <trkpt lat="48.50727" lon="7.47031">
        <ele>238</ele>
        <time>2019-08-09T08:47:21Z</time>
      </trkpt>
      <trkpt lat="48.50722" lon="7.47032">
        <ele>237.8</ele>
        <time>2019-08-09T08:47:22Z</time>
      </trkpt>
      <trkpt lat="48.50717" lon="7.47033">
        <ele>237.7</ele>
        <time>2019-08-09T08:47:23Z</time>
      </trkpt>
      <trkpt lat="48.50713" lon="7.47034">
        <ele>237.5</ele>
        <time>2019-08-09T08:47:24Z</time>
      </trkpt>
      <trkpt lat="48.50708" lon="7.47035">
        <ele>237.3</ele>
        <time>2019-08-09T08:47:25Z</time>
      </trkpt>
      <trkpt lat="48.50703" lon="7.47035">
        <ele>237.1</ele>
        <time>2019-08-09T08:47:26Z</time>
      </trkpt>
      <trkpt lat="48.50699" lon="7.47035">
        <ele>236.9</ele>
        <time>2019-08-09T08:47:27Z</time>
      </trkpt>
      <trkpt lat="48.50694" lon="7.4703">
        <ele>236.6</ele>
        <time>2019-08-09T08:47:28Z</time>
      </trkpt>
      <trkpt lat="48.50688" lon="7.47023">
        <ele>236.3</ele>
        <time>2019-08-09T08:47:29Z</time>
      </trkpt>
      <trkpt lat="48.50682" lon="7.47016">
        <ele>235.9</ele>
        <time>2019-08-09T08:47:30Z</time>
      </trkpt>
      <trkpt lat="48.50676" lon="7.47009">
        <ele>235.6</ele>
        <time>2019-08-09T08:47:31Z</time>
      </trkpt>
      <trkpt lat="48.50669" lon="7.47002">
        <ele>235.2</ele>
        <time>2019-08-09T08:47:32Z</time>
      </trkpt>
      <trkpt lat="48.50664" lon="7.46996">
        <ele>234.9</ele>
        <time>2019-08-09T08:47:33Z</time>
      </trkpt>
      <trkpt lat="48.50658" lon="7.4699">
        <ele>234.6</ele>
        <time>2019-08-09T08:47:34Z</time>
      </trkpt>
      <trkpt lat="48.50654" lon="7.46983">
        <ele>234.3</ele>
        <time>2019-08-09T08:47:35Z</time>
      </trkpt>
      <trkpt lat="48.50648" lon="7.46976">
        <ele>233.9</ele>
        <time>2019-08-09T08:47:36Z</time>
      </trkpt>
      <trkpt lat="48.50643" lon="7.4697">
        <ele>233.6</ele>
        <time>2019-08-09T08:47:37Z</time>
      </trkpt>
      <trkpt lat="48.50638" lon="7.46963">
        <ele>233.1</ele>
        <time>2019-08-09T08:47:38Z</time>
      </trkpt>
      <trkpt lat="48.50632" lon="7.46956">
        <ele>232.6</ele>
        <time>2019-08-09T08:47:39Z</time>
      </trkpt>
      <trkpt lat="48.50626" lon="7.46951">
        <ele>232.2</ele>
        <time>2019-08-09T08:47:40Z</time>
      </trkpt>
      <trkpt lat="48.50619" lon="7.46945">
        <ele>232</ele>
        <time>2019-08-09T08:47:41Z</time>
      </trkpt>
      <trkpt lat="48.50613" lon="7.4694">
        <ele>231.8</ele>
        <time>2019-08-09T08:47:42Z</time>
      </trkpt>
      <trkpt lat="48.50606" lon="7.46935">
        <ele>231.5</ele>
        <time>2019-08-09T08:47:43Z</time>
      </trkpt>
      <trkpt lat="48.50598" lon="7.46928">
        <ele>230.9</ele>
        <time>2019-08-09T08:47:44Z</time>
      </trkpt>
      <trkpt lat="48.5059" lon="7.46922">
        <ele>230.3</ele>
        <time>2019-08-09T08:47:45Z</time>
      </trkpt>
      <trkpt lat="48.50582" lon="7.46917">
        <ele>229.7</ele>
        <time>2019-08-09T08:47:46Z</time>
      </trkpt>
      <trkpt lat="48.50575" lon="7.46912">
        <ele>229.2</ele>
        <time>2019-08-09T08:47:47Z</time>
      </trkpt>
      <trkpt lat="48.50568" lon="7.46907">
        <ele>228.6</ele>
        <time>2019-08-09T08:47:48Z</time>
      </trkpt>
      <trkpt lat="48.5056" lon="7.46902">
        <ele>227.8</ele>
        <time>2019-08-09T08:47:49Z</time>
      </trkpt>
      <trkpt lat="48.50553" lon="7.46898">
        <ele>227.4</ele>
        <time>2019-08-09T08:47:50Z</time>
      </trkpt>
      <trkpt lat="48.50545" lon="7.46893">
        <ele>227</ele>
        <time>2019-08-09T08:47:51Z</time>
      </trkpt>
      <trkpt lat="48.50537" lon="7.46888">
        <ele>226.6</ele>
        <time>2019-08-09T08:47:52Z</time>
      </trkpt>
      <trkpt lat="48.50529" lon="7.46885">
        <ele>226.1</ele>
        <time>2019-08-09T08:47:53Z</time>
      </trkpt>
      <trkpt lat="48.50521" lon="7.4688">
        <ele>225.6</ele>
        <time>2019-08-09T08:47:54Z</time>
      </trkpt>
      <trkpt lat="48.50512" lon="7.46877">
        <ele>225.2</ele>
        <time>2019-08-09T08:47:55Z</time>
      </trkpt>
      <trkpt lat="48.50504" lon="7.46873">
        <ele>224.7</ele>
        <time>2019-08-09T08:47:56Z</time>
      </trkpt>
      <trkpt lat="48.50495" lon="7.4687">
        <ele>224.3</ele>
        <time>2019-08-09T08:47:57Z</time>
      </trkpt>
      <trkpt lat="48.50487" lon="7.46868">
        <ele>223.8</ele>
        <time>2019-08-09T08:47:58Z</time>
      </trkpt>
      <trkpt lat="48.50479" lon="7.46865">
        <ele>223.3</ele>
        <time>2019-08-09T08:47:59Z</time>
      </trkpt>
      <trkpt lat="48.50471" lon="7.46863">
        <ele>222.7</ele>
        <time>2019-08-09T08:48:00Z</time>
      </trkpt>
      <trkpt lat="48.50463" lon="7.46861">
        <ele>222.1</ele>
        <time>2019-08-09T08:48:01Z</time>
      </trkpt>
      <trkpt lat="48.50455" lon="7.46859">
        <ele>221.6</ele>
        <time>2019-08-09T08:48:02Z</time>
      </trkpt>
      <trkpt lat="48.50447" lon="7.46857">
        <ele>221.1</ele>
        <time>2019-08-09T08:48:03Z</time>
      </trkpt>
      <trkpt lat="48.5044" lon="7.46854">
        <ele>220.7</ele>
        <time>2019-08-09T08:48:04Z</time>
      </trkpt>
      <trkpt lat="48.50433" lon="7.4685">
        <ele>220.4</ele>
        <time>2019-08-09T08:48:05Z</time>
      </trkpt>
      <trkpt lat="48.50427" lon="7.46846">
        <ele>220.1</ele>
        <time>2019-08-09T08:48:06Z</time>
      </trkpt>
      <trkpt lat="48.50421" lon="7.46844">
        <ele>219.9</ele>
        <time>2019-08-09T08:48:07Z</time>
      </trkpt>
      <trkpt lat="48.50416" lon="7.46841">
        <ele>219.5</ele>
        <time>2019-08-09T08:48:08Z</time>
      </trkpt>
      <trkpt lat="48.5041" lon="7.4684">
        <ele>219</ele>
        <time>2019-08-09T08:48:09Z</time>
      </trkpt>
      <trkpt lat="48.50404" lon="7.46838">
        <ele>218.5</ele>
        <time>2019-08-09T08:48:10Z</time>
      </trkpt>
      <trkpt lat="48.50397" lon="7.46836">
        <ele>217.9</ele>
        <time>2019-08-09T08:48:11Z</time>
      </trkpt>
      <trkpt lat="48.5039" lon="7.46835">
        <ele>217.3</ele>
        <time>2019-08-09T08:48:12Z</time>
      </trkpt>
      <trkpt lat="48.50383" lon="7.46835">
        <ele>216.7</ele>
        <time>2019-08-09T08:48:13Z</time>
      </trkpt>
      <trkpt lat="48.50374" lon="7.46835">
        <ele>216</ele>
        <time>2019-08-09T08:48:14Z</time>
      </trkpt>
      <trkpt lat="48.50366" lon="7.46836">
        <ele>215.2</ele>
        <time>2019-08-09T08:48:15Z</time>
      </trkpt>
      <trkpt lat="48.50358" lon="7.46837">
        <ele>214.5</ele>
        <time>2019-08-09T08:48:16Z</time>
      </trkpt>
      <trkpt lat="48.50351" lon="7.46838">
        <ele>213.4</ele>
        <time>2019-08-09T08:48:17Z</time>
      </trkpt>
      <trkpt lat="48.50344" lon="7.46839">
        <ele>213.2</ele>
        <time>2019-08-09T08:48:18Z</time>
      </trkpt>
      <trkpt lat="48.50336" lon="7.46839">
        <ele>213.2</ele>
        <time>2019-08-09T08:48:19Z</time>
      </trkpt>
      <trkpt lat="48.50329" lon="7.46841">
        <ele>213.3</ele>
        <time>2019-08-09T08:48:20Z</time>
      </trkpt>
      <trkpt lat="48.50322" lon="7.46842">
        <ele>213.3</ele>
        <time>2019-08-09T08:48:21Z</time>
      </trkpt>
      <trkpt lat="48.50315" lon="7.46844">
        <ele>213.3</ele>
        <time>2019-08-09T08:48:22Z</time>
      </trkpt>
      <trkpt lat="48.50307" lon="7.46844">
        <ele>212.3</ele>
        <time>2019-08-09T08:48:23Z</time>
      </trkpt>
      <trkpt lat="48.503" lon="7.46845">
        <ele>211.8</ele>
        <time>2019-08-09T08:48:24Z</time>
      </trkpt>
      <trkpt lat="48.50292" lon="7.46846">
        <ele>211.3</ele>
        <time>2019-08-09T08:48:25Z</time>
      </trkpt>
      <trkpt lat="48.50285" lon="7.46847">
        <ele>210.4</ele>
        <time>2019-08-09T08:48:26Z</time>
      </trkpt>
      <trkpt lat="48.50277" lon="7.46849">
        <ele>209.5</ele>
        <time>2019-08-09T08:48:27Z</time>
      </trkpt>
      <trkpt lat="48.50269" lon="7.46851">
        <ele>208.9</ele>
        <time>2019-08-09T08:48:28Z</time>
      </trkpt>
      <trkpt lat="48.50261" lon="7.46853">
        <ele>208.3</ele>
        <time>2019-08-09T08:48:29Z</time>
      </trkpt>
      <trkpt lat="48.50253" lon="7.46854">
        <ele>207.9</ele>
        <time>2019-08-09T08:48:30Z</time>
      </trkpt>
      <trkpt lat="48.50245" lon="7.46855">
        <ele>207.6</ele>
        <time>2019-08-09T08:48:31Z</time>
      </trkpt>
      <trkpt lat="48.50237" lon="7.46856">
        <ele>207.4</ele>
        <time>2019-08-09T08:48:32Z</time>
      </trkpt>
      <trkpt lat="48.50229" lon="7.46857">
        <ele>207.1</ele>
        <time>2019-08-09T08:48:33Z</time>
      </trkpt>
      <trkpt lat="48.50221" lon="7.46859">
        <ele>206.9</ele>
        <time>2019-08-09T08:48:34Z</time>
      </trkpt>
      <trkpt lat="48.50213" lon="7.4686">
        <ele>206.7</ele>
        <time>2019-08-09T08:48:35Z</time>
      </trkpt>
      <trkpt lat="48.50205" lon="7.46861">
        <ele>206.5</ele>
        <time>2019-08-09T08:48:36Z</time>
      </trkpt>
      <trkpt lat="48.50197" lon="7.46863">
        <ele>205.7</ele>
        <time>2019-08-09T08:48:37Z</time>
      </trkpt>
      <trkpt lat="48.50189" lon="7.46865">
        <ele>205.3</ele>
        <time>2019-08-09T08:48:38Z</time>
      </trkpt>
      <trkpt lat="48.5018" lon="7.46866">
        <ele>204.9</ele>
        <time>2019-08-09T08:48:39Z</time>
      </trkpt>
      <trkpt lat="48.50172" lon="7.46868">
        <ele>204.5</ele>
        <time>2019-08-09T08:48:40Z</time>
      </trkpt>
      <trkpt lat="48.50164" lon="7.46871">
        <ele>204.1</ele>
        <time>2019-08-09T08:48:41Z</time>
      </trkpt>
      <trkpt lat="48.50157" lon="7.46875">
        <ele>203.8</ele>
        <time>2019-08-09T08:48:42Z</time>
      </trkpt>
      <trkpt lat="48.50149" lon="7.46879">
        <ele>203.5</ele>
        <time>2019-08-09T08:48:43Z</time>
      </trkpt>
      <trkpt lat="48.50142" lon="7.46883">
        <ele>203.1</ele>
        <time>2019-08-09T08:48:44Z</time>
      </trkpt>
      <trkpt lat="48.50136" lon="7.46888">
        <ele>202.8</ele>
        <time>2019-08-09T08:48:45Z</time>
      </trkpt>
      <trkpt lat="48.5013" lon="7.46892">
        <ele>202.5</ele>
        <time>2019-08-09T08:48:46Z</time>
      </trkpt>
      <trkpt lat="48.50125" lon="7.46895">
        <ele>202.3</ele>
        <time>2019-08-09T08:48:47Z</time>
      </trkpt>
      <trkpt lat="48.5012" lon="7.46898">
        <ele>202</ele>
        <time>2019-08-09T08:48:48Z</time>
      </trkpt>
      <trkpt lat="48.50116" lon="7.469">
        <ele>201.8</ele>
        <time>2019-08-09T08:48:49Z</time>
      </trkpt>
      <trkpt lat="48.50112" lon="7.46902">
        <ele>201.6</ele>
        <time>2019-08-09T08:48:50Z</time>
      </trkpt>
      <trkpt lat="48.50108" lon="7.46905">
        <ele>201.3</ele>
        <time>2019-08-09T08:48:51Z</time>
      </trkpt>
      <trkpt lat="48.50104" lon="7.46907">
        <ele>201.2</ele>
        <time>2019-08-09T08:48:52Z</time>
      </trkpt>
      <trkpt lat="48.501" lon="7.4691">
        <ele>201.2</ele>
        <time>2019-08-09T08:48:53Z</time>
      </trkpt>
      <trkpt lat="48.50095" lon="7.46912">
        <ele>201.1</ele>
        <time>2019-08-09T08:48:54Z</time>
      </trkpt>
      <trkpt lat="48.5009" lon="7.46915">
        <ele>201</ele>
        <time>2019-08-09T08:48:55Z</time>
      </trkpt>
      <trkpt lat="48.50086" lon="7.46917">
        <ele>201</ele>
        <time>2019-08-09T08:48:56Z</time>
      </trkpt>
      <trkpt lat="48.50081" lon="7.4692">
        <ele>200.9</ele>
        <time>2019-08-09T08:48:57Z</time>
      </trkpt>
      <trkpt lat="48.50075" lon="7.46922">
        <ele>200.8</ele>
        <time>2019-08-09T08:48:58Z</time>
      </trkpt>
      <trkpt lat="48.5007" lon="7.46924">
        <ele>200.7</ele>
        <time>2019-08-09T08:48:59Z</time>
      </trkpt>
      <trkpt lat="48.50065" lon="7.46925">
        <ele>200.7</ele>
        <time>2019-08-09T08:49:00Z</time>
      </trkpt>
      <trkpt lat="48.5006" lon="7.46927">
        <ele>200.6</ele>
        <time>2019-08-09T08:49:01Z</time>
      </trkpt>
      <trkpt lat="48.50054" lon="7.46928">
        <ele>200.6</ele>
        <time>2019-08-09T08:49:02Z</time>
      </trkpt>
      <trkpt lat="48.50049" lon="7.46929">
        <ele>200.5</ele>
        <time>2019-08-09T08:49:03Z</time>
      </trkpt>
      <trkpt lat="48.50044" lon="7.46931">
        <ele>200.5</ele>
        <time>2019-08-09T08:49:04Z</time>
      </trkpt>
      <trkpt lat="48.50038" lon="7.46934">
        <ele>200.4</ele>
        <time>2019-08-09T08:49:05Z</time>
      </trkpt>
      <trkpt lat="48.50033" lon="7.46937">
        <ele>200.3</ele>
        <time>2019-08-09T08:49:06Z</time>
      </trkpt>
      <trkpt lat="48.50027" lon="7.46938">
        <ele>200.2</ele>
        <time>2019-08-09T08:49:07Z</time>
      </trkpt>
      <trkpt lat="48.50022" lon="7.46941">
        <ele>200.1</ele>
        <time>2019-08-09T08:49:08Z</time>
      </trkpt>
      <trkpt lat="48.50016" lon="7.46943">
        <ele>199.9</ele>
        <time>2019-08-09T08:49:09Z</time>
      </trkpt>
      <trkpt lat="48.50011" lon="7.46946">
        <ele>199.8</ele>
        <time>2019-08-09T08:49:10Z</time>
      </trkpt>
      <trkpt lat="48.50005" lon="7.46948">
        <ele>199.6</ele>
        <time>2019-08-09T08:49:11Z</time>
      </trkpt>
      <trkpt lat="48.5" lon="7.4695">
        <ele>199.5</ele>
        <time>2019-08-09T08:49:12Z</time>
      </trkpt>
      <trkpt lat="48.49994" lon="7.46953">
        <ele>199.4</ele>
        <time>2019-08-09T08:49:13Z</time>
      </trkpt>
      <trkpt lat="48.49988" lon="7.46955">
        <ele>199.2</ele>
        <time>2019-08-09T08:49:14Z</time>
      </trkpt>
      <trkpt lat="48.49982" lon="7.46958">
        <ele>199</ele>
        <time>2019-08-09T08:49:15Z</time>
      </trkpt>
      <trkpt lat="48.49977" lon="7.46961">
        <ele>198.7</ele>
        <time>2019-08-09T08:49:16Z</time>
      </trkpt>
      <trkpt lat="48.49972" lon="7.46965">
        <ele>198.5</ele>
        <time>2019-08-09T08:49:17Z</time>
      </trkpt>
      <trkpt lat="48.49967" lon="7.46969">
        <ele>198.2</ele>
        <time>2019-08-09T08:49:18Z</time>
      </trkpt>
      <trkpt lat="48.49961" lon="7.46972">
        <ele>198</ele>
        <time>2019-08-09T08:49:19Z</time>
      </trkpt>
      <trkpt lat="48.49955" lon="7.46974">
        <ele>198</ele>
        <time>2019-08-09T08:49:20Z</time>
      </trkpt>
      <trkpt lat="48.4995" lon="7.46977">
        <ele>198</ele>
        <time>2019-08-09T08:49:21Z</time>
      </trkpt>
      <trkpt lat="48.49944" lon="7.46979">
        <ele>198</ele>
        <time>2019-08-09T08:49:22Z</time>
      </trkpt>
      <trkpt lat="48.49939" lon="7.46981">
        <ele>198.1</ele>
        <time>2019-08-09T08:49:23Z</time>
      </trkpt>
      <trkpt lat="48.49935" lon="7.46984">
        <ele>198.1</ele>
        <time>2019-08-09T08:49:24Z</time>
      </trkpt>
      <trkpt lat="48.4993" lon="7.46986">
        <ele>198.1</ele>
        <time>2019-08-09T08:49:25Z</time>
      </trkpt>
      <trkpt lat="48.49927" lon="7.46988">
        <ele>198</ele>
        <time>2019-08-09T08:49:26Z</time>
      </trkpt>
      <trkpt lat="48.49924" lon="7.4699">
        <ele>198</ele>
        <time>2019-08-09T08:49:27Z</time>
      </trkpt>
      <trkpt lat="48.49919" lon="7.46991">
        <ele>197.9</ele>
        <time>2019-08-09T08:49:29Z</time>
      </trkpt>
      <trkpt lat="48.49915" lon="7.46994">
        <ele>197.7</ele>
        <time>2019-08-09T08:49:31Z</time>
      </trkpt>
      <trkpt lat="48.49911" lon="7.46997">
        <ele>197.6</ele>
        <time>2019-08-09T08:49:33Z</time>
      </trkpt>
      <trkpt lat="48.49907" lon="7.46999">
        <ele>197.5</ele>
        <time>2019-08-09T08:49:34Z</time>
      </trkpt>
      <trkpt lat="48.49903" lon="7.47001">
        <ele>197.4</ele>
        <time>2019-08-09T08:49:35Z</time>
      </trkpt>
      <trkpt lat="48.499" lon="7.47003">
        <ele>197.4</ele>
        <time>2019-08-09T08:49:36Z</time>
      </trkpt>
      <trkpt lat="48.49897" lon="7.47006">
        <ele>197.3</ele>
        <time>2019-08-09T08:49:37Z</time>
      </trkpt>
      <trkpt lat="48.49894" lon="7.47009">
        <ele>197.2</ele>
        <time>2019-08-09T08:49:38Z</time>
      </trkpt>
      <trkpt lat="48.49891" lon="7.47012">
        <ele>197.2</ele>
        <time>2019-08-09T08:49:39Z</time>
      </trkpt>
      <trkpt lat="48.49888" lon="7.47015">
        <ele>197.1</ele>
        <time>2019-08-09T08:49:40Z</time>
      </trkpt>
      <trkpt lat="48.49885" lon="7.47017">
        <ele>197</ele>
        <time>2019-08-09T08:49:41Z</time>
      </trkpt>
      <trkpt lat="48.49881" lon="7.47019">
        <ele>196.9</ele>
        <time>2019-08-09T08:49:43Z</time>
      </trkpt>
      <trkpt lat="48.49877" lon="7.47019">
        <ele>196.8</ele>
        <time>2019-08-09T08:49:45Z</time>
      </trkpt>
      <trkpt lat="48.49873" lon="7.4702">
        <ele>196.8</ele>
        <time>2019-08-09T08:49:46Z</time>
      </trkpt>
      <trkpt lat="48.4987" lon="7.47021">
        <ele>196.8</ele>
        <time>2019-08-09T08:49:47Z</time>
      </trkpt>
      <trkpt lat="48.49866" lon="7.47022">
        <ele>196.7</ele>
        <time>2019-08-09T08:49:48Z</time>
      </trkpt>
      <trkpt lat="48.49861" lon="7.47025">
        <ele>196.6</ele>
        <time>2019-08-09T08:49:49Z</time>
      </trkpt>
      <trkpt lat="48.49857" lon="7.47027">
        <ele>196.6</ele>
        <time>2019-08-09T08:49:50Z</time>
      </trkpt>
      <trkpt lat="48.49852" lon="7.47029">
        <ele>196.6</ele>
        <time>2019-08-09T08:49:51Z</time>
      </trkpt>
      <trkpt lat="48.49849" lon="7.47032">
        <ele>196.6</ele>
        <time>2019-08-09T08:49:52Z</time>
      </trkpt>
      <trkpt lat="48.49846" lon="7.47033">
        <ele>196.6</ele>
        <time>2019-08-09T08:49:53Z</time>
      </trkpt>
      <trkpt lat="48.49842" lon="7.47034">
        <ele>196.6</ele>
        <time>2019-08-09T08:49:54Z</time>
      </trkpt>
      <trkpt lat="48.49838" lon="7.47035">
        <ele>196.6</ele>
        <time>2019-08-09T08:49:55Z</time>
      </trkpt>
      <trkpt lat="48.49835" lon="7.47037">
        <ele>196.6</ele>
        <time>2019-08-09T08:49:56Z</time>
      </trkpt>
      <trkpt lat="48.49831" lon="7.47038">
        <ele>196.5</ele>
        <time>2019-08-09T08:49:57Z</time>
      </trkpt>
      <trkpt lat="48.49828" lon="7.47039">
        <ele>196.5</ele>
        <time>2019-08-09T08:49:58Z</time>
      </trkpt>
      <trkpt lat="48.49825" lon="7.4704">
        <ele>196.5</ele>
        <time>2019-08-09T08:49:59Z</time>
      </trkpt>
      <trkpt lat="48.49823" lon="7.47042">
        <ele>196.5</ele>
        <time>2019-08-09T08:50:00Z</time>
      </trkpt>
      <trkpt lat="48.49818" lon="7.47044">
        <ele>196.6</ele>
        <time>2019-08-09T08:50:02Z</time>
      </trkpt>
      <trkpt lat="48.49815" lon="7.47045">
        <ele>196.6</ele>
        <time>2019-08-09T08:50:03Z</time>
      </trkpt>
      <trkpt lat="48.49812" lon="7.47047">
        <ele>196.6</ele>
        <time>2019-08-09T08:50:04Z</time>
      </trkpt>
      <trkpt lat="48.4981" lon="7.47049">
        <ele>196.5</ele>
        <time>2019-08-09T08:50:05Z</time>
      </trkpt>
      <trkpt lat="48.49805" lon="7.47054">
        <ele>196.5</ele>
        <time>2019-08-09T08:50:07Z</time>
      </trkpt>
      <trkpt lat="48.49802" lon="7.47056">
        <ele>196.5</ele>
        <time>2019-08-09T08:50:08Z</time>
      </trkpt>
      <trkpt lat="48.49798" lon="7.47057">
        <ele>196.6</ele>
        <time>2019-08-09T08:50:09Z</time>
      </trkpt>
      <trkpt lat="48.49794" lon="7.47058">
        <ele>196.6</ele>
        <time>2019-08-09T08:50:10Z</time>
      </trkpt>
      <trkpt lat="48.49791" lon="7.47059">
        <ele>196.6</ele>
        <time>2019-08-09T08:50:11Z</time>
      </trkpt>
      <trkpt lat="48.49788" lon="7.4706">
        <ele>196.6</ele>
        <time>2019-08-09T08:50:12Z</time>
      </trkpt>
      <trkpt lat="48.49784" lon="7.47059">
        <ele>196.6</ele>
        <time>2019-08-09T08:50:13Z</time>
      </trkpt>
      <trkpt lat="48.49781" lon="7.47059">
        <ele>196.6</ele>
        <time>2019-08-09T08:50:14Z</time>
      </trkpt>
      <trkpt lat="48.49778" lon="7.47059">
        <ele>196.6</ele>
        <time>2019-08-09T08:50:15Z</time>
      </trkpt>
      <trkpt lat="48.49775" lon="7.47059">
        <ele>196.6</ele>
        <time>2019-08-09T08:50:16Z</time>
      </trkpt>
      <trkpt lat="48.49773" lon="7.47059">
        <ele>196.6</ele>
        <time>2019-08-09T08:50:17Z</time>
      </trkpt>
      <trkpt lat="48.49769" lon="7.47058">
        <ele>196.6</ele>
        <time>2019-08-09T08:50:18Z</time>
      </trkpt>
      <trkpt lat="48.49765" lon="7.47057">
        <ele>196.6</ele>
        <time>2019-08-09T08:50:19Z</time>
      </trkpt>
      <trkpt lat="48.49761" lon="7.47056">
        <ele>196.6</ele>
        <time>2019-08-09T08:50:20Z</time>
      </trkpt>
      <trkpt lat="48.49757" lon="7.47054">
        <ele>196.6</ele>
        <time>2019-08-09T08:50:21Z</time>
      </trkpt>
      <trkpt lat="48.49753" lon="7.47052">
        <ele>196.6</ele>
        <time>2019-08-09T08:50:22Z</time>
      </trkpt>
      <trkpt lat="48.49749" lon="7.47051">
        <ele>196.6</ele>
        <time>2019-08-09T08:50:23Z</time>
      </trkpt>
      <trkpt lat="48.49745" lon="7.47049">
        <ele>196.6</ele>
        <time>2019-08-09T08:50:24Z</time>
      </trkpt>
      <trkpt lat="48.49742" lon="7.47048">
        <ele>196.6</ele>
        <time>2019-08-09T08:50:25Z</time>
      </trkpt>
      <trkpt lat="48.49738" lon="7.47048">
        <ele>196.6</ele>
        <time>2019-08-09T08:50:26Z</time>
      </trkpt>
      <trkpt lat="48.49735" lon="7.47046">
        <ele>196.7</ele>
        <time>2019-08-09T08:50:27Z</time>
      </trkpt>
      <trkpt lat="48.49731" lon="7.47043">
        <ele>196.7</ele>
        <time>2019-08-09T08:50:28Z</time>
      </trkpt>
      <trkpt lat="48.49728" lon="7.4704">
        <ele>196.7</ele>
        <time>2019-08-09T08:50:29Z</time>
      </trkpt>
      <trkpt lat="48.49725" lon="7.47035">
        <ele>196.7</ele>
        <time>2019-08-09T08:50:30Z</time>
      </trkpt>
      <trkpt lat="48.49724" lon="7.47031">
        <ele>196.7</ele>
        <time>2019-08-09T08:50:31Z</time>
      </trkpt>
      <trkpt lat="48.49721" lon="7.47026">
        <ele>196.8</ele>
        <time>2019-08-09T08:50:32Z</time>
      </trkpt>
      <trkpt lat="48.49719" lon="7.4702">
        <ele>196.7</ele>
        <time>2019-08-09T08:50:33Z</time>
      </trkpt>
      <trkpt lat="48.49717" lon="7.47015">
        <ele>196.6</ele>
        <time>2019-08-09T08:50:34Z</time>
      </trkpt>
      <trkpt lat="48.49714" lon="7.4701">
        <ele>196.5</ele>
        <time>2019-08-09T08:50:35Z</time>
      </trkpt>
      <trkpt lat="48.49712" lon="7.47006">
        <ele>196.4</ele>
        <time>2019-08-09T08:50:36Z</time>
      </trkpt>
      <trkpt lat="48.49708" lon="7.47003">
        <ele>196.3</ele>
        <time>2019-08-09T08:50:37Z</time>
      </trkpt>
      <trkpt lat="48.49704" lon="7.47">
        <ele>196.3</ele>
        <time>2019-08-09T08:50:38Z</time>
      </trkpt>
      <trkpt lat="48.49701" lon="7.46998">
        <ele>196.2</ele>
        <time>2019-08-09T08:50:39Z</time>
      </trkpt>
      <trkpt lat="48.49698" lon="7.46993">
        <ele>196.2</ele>
        <time>2019-08-09T08:50:41Z</time>
      </trkpt>
      <trkpt lat="48.49696" lon="7.46987">
        <ele>196.2</ele>
        <time>2019-08-09T08:50:43Z</time>
      </trkpt>
      <trkpt lat="48.49694" lon="7.46983">
        <ele>196.2</ele>
        <time>2019-08-09T08:50:44Z</time>
      </trkpt>
      <trkpt lat="48.49693" lon="7.46979">
        <ele>196.3</ele>
        <time>2019-08-09T08:50:45Z</time>
      </trkpt>
      <trkpt lat="48.49692" lon="7.46972">
        <ele>196.3</ele>
        <time>2019-08-09T08:50:47Z</time>
      </trkpt>
      <trkpt lat="48.4969" lon="7.46966">
        <ele>196.3</ele>
        <time>2019-08-09T08:50:49Z</time>
      </trkpt>
      <trkpt lat="48.4969" lon="7.4696">
        <ele>196.4</ele>
        <time>2019-08-09T08:50:51Z</time>
      </trkpt>
      <trkpt lat="48.49689" lon="7.46954">
        <ele>196.5</ele>
        <time>2019-08-09T08:50:53Z</time>
      </trkpt>
      <trkpt lat="48.49687" lon="7.46948">
        <ele>196.5</ele>
        <time>2019-08-09T08:50:55Z</time>
      </trkpt>
      <trkpt lat="48.49686" lon="7.46941">
        <ele>196.6</ele>
        <time>2019-08-09T08:50:57Z</time>
      </trkpt>
      <trkpt lat="48.49686" lon="7.46937">
        <ele>196.6</ele>
        <time>2019-08-09T08:50:58Z</time>
      </trkpt>
      <trkpt lat="48.49683" lon="7.46933">
        <ele>196.6</ele>
        <time>2019-08-09T08:51:00Z</time>
      </trkpt>
      <trkpt lat="48.49681" lon="7.46934">
        <ele>196.3</ele>
        <time>2019-08-09T08:51:01Z</time>
      </trkpt>
      <trkpt lat="48.49678" lon="7.46935">
        <ele>196.2</ele>
        <time>2019-08-09T08:51:02Z</time>
      </trkpt>
      <trkpt lat="48.49675" lon="7.46937">
        <ele>196</ele>
        <time>2019-08-09T08:51:03Z</time>
      </trkpt>
      <trkpt lat="48.49671" lon="7.46939">
        <ele>195.8</ele>
        <time>2019-08-09T08:51:04Z</time>
      </trkpt>
      <trkpt lat="48.49668" lon="7.46941">
        <ele>195.6</ele>
        <time>2019-08-09T08:51:05Z</time>
      </trkpt>
      <trkpt lat="48.49665" lon="7.46944">
        <ele>195.5</ele>
        <time>2019-08-09T08:51:06Z</time>
      </trkpt>
      <trkpt lat="48.4966" lon="7.46947">
        <ele>195.3</ele>
        <time>2019-08-09T08:51:07Z</time>
      </trkpt>
      <trkpt lat="48.49657" lon="7.4695">
        <ele>195.1</ele>
        <time>2019-08-09T08:51:08Z</time>
      </trkpt>
      <trkpt lat="48.49653" lon="7.46953">
        <ele>194.9</ele>
        <time>2019-08-09T08:51:09Z</time>
      </trkpt>
      <trkpt lat="48.4965" lon="7.46955">
        <ele>194.7</ele>
        <time>2019-08-09T08:51:10Z</time>
      </trkpt>
      <trkpt lat="48.49647" lon="7.46958">
        <ele>194.6</ele>
        <time>2019-08-09T08:51:11Z</time>
      </trkpt>
      <trkpt lat="48.49644" lon="7.4696">
        <ele>194.4</ele>
        <time>2019-08-09T08:51:12Z</time>
      </trkpt>
      <trkpt lat="48.49641" lon="7.46961">
        <ele>194</ele>
        <time>2019-08-09T08:51:14Z</time>
      </trkpt>
      <trkpt lat="48.49638" lon="7.46959">
        <ele>194</ele>
        <time>2019-08-09T08:51:18Z</time>
      </trkpt>
      <trkpt lat="48.49635" lon="7.46962">
        <ele>194</ele>
        <time>2019-08-09T08:51:20Z</time>
      </trkpt>
      <trkpt lat="48.49635" lon="7.46971">
        <ele>193.9</ele>
        <time>2019-08-09T08:51:22Z</time>
      </trkpt>
      <trkpt lat="48.49637" lon="7.46977">
        <ele>193.8</ele>
        <time>2019-08-09T08:51:23Z</time>
      </trkpt>
      <trkpt lat="48.49638" lon="7.46983">
        <ele>193.8</ele>
        <time>2019-08-09T08:51:24Z</time>
      </trkpt>
      <trkpt lat="48.49639" lon="7.46989">
        <ele>193.7</ele>
        <time>2019-08-09T08:51:25Z</time>
      </trkpt>
      <trkpt lat="48.4964" lon="7.46995">
        <ele>193.6</ele>
        <time>2019-08-09T08:51:26Z</time>
      </trkpt>
      <trkpt lat="48.49642" lon="7.47002">
        <ele>193.5</ele>
        <time>2019-08-09T08:51:27Z</time>
      </trkpt>
      <trkpt lat="48.49644" lon="7.47008">
        <ele>193.4</ele>
        <time>2019-08-09T08:51:28Z</time>
      </trkpt>
      <trkpt lat="48.49646" lon="7.47015">
        <ele>193.3</ele>
        <time>2019-08-09T08:51:29Z</time>
      </trkpt>
      <trkpt lat="48.49648" lon="7.47021">
        <ele>193.3</ele>
        <time>2019-08-09T08:51:30Z</time>
      </trkpt>
      <trkpt lat="48.4965" lon="7.47028">
        <ele>193.2</ele>
        <time>2019-08-09T08:51:31Z</time>
      </trkpt>
      <trkpt lat="48.49652" lon="7.47034">
        <ele>193</ele>
        <time>2019-08-09T08:51:32Z</time>
      </trkpt>
      <trkpt lat="48.49654" lon="7.47039">
        <ele>192.9</ele>
        <time>2019-08-09T08:51:33Z</time>
      </trkpt>
      <trkpt lat="48.49656" lon="7.47046">
        <ele>192.8</ele>
        <time>2019-08-09T08:51:34Z</time>
      </trkpt>
      <trkpt lat="48.49657" lon="7.47052">
        <ele>192.7</ele>
        <time>2019-08-09T08:51:35Z</time>
      </trkpt>
      <trkpt lat="48.4966" lon="7.47058">
        <ele>192.6</ele>
        <time>2019-08-09T08:51:36Z</time>
      </trkpt>
      <trkpt lat="48.49661" lon="7.47065">
        <ele>192.5</ele>
        <time>2019-08-09T08:51:37Z</time>
      </trkpt>
      <trkpt lat="48.49662" lon="7.47072">
        <ele>192.4</ele>
        <time>2019-08-09T08:51:38Z</time>
      </trkpt>
      <trkpt lat="48.49663" lon="7.47078">
        <ele>192.3</ele>
        <time>2019-08-09T08:51:39Z</time>
      </trkpt>
      <trkpt lat="48.49663" lon="7.47084">
        <ele>192.2</ele>
        <time>2019-08-09T08:51:40Z</time>
      </trkpt>
      <trkpt lat="48.49664" lon="7.4709">
        <ele>192.1</ele>
        <time>2019-08-09T08:51:41Z</time>
      </trkpt>
      <trkpt lat="48.49665" lon="7.47096">
        <ele>192.1</ele>
        <time>2019-08-09T08:51:42Z</time>
      </trkpt>
      <trkpt lat="48.49665" lon="7.47102">
        <ele>192</ele>
        <time>2019-08-09T08:51:43Z</time>
      </trkpt>
      <trkpt lat="48.49666" lon="7.47107">
        <ele>192</ele>
        <time>2019-08-09T08:51:44Z</time>
      </trkpt>
      <trkpt lat="48.49666" lon="7.47113">
        <ele>191.9</ele>
        <time>2019-08-09T08:51:45Z</time>
      </trkpt>
      <trkpt lat="48.49666" lon="7.47119">
        <ele>191.7</ele>
        <time>2019-08-09T08:51:46Z</time>
      </trkpt>
      <trkpt lat="48.49663" lon="7.47125">
        <ele>191.6</ele>
        <time>2019-08-09T08:51:47Z</time>
      </trkpt>
      <trkpt lat="48.49665" lon="7.47131">
        <ele>191.6</ele>
        <time>2019-08-09T08:51:48Z</time>
      </trkpt>
      <trkpt lat="48.49666" lon="7.47137">
        <ele>191.5</ele>
        <time>2019-08-09T08:51:49Z</time>
      </trkpt>
      <trkpt lat="48.49668" lon="7.47142">
        <ele>191.5</ele>
        <time>2019-08-09T08:51:50Z</time>
      </trkpt>
      <trkpt lat="48.49668" lon="7.47146">
        <ele>191.5</ele>
        <time>2019-08-09T08:51:51Z</time>
      </trkpt>
      <trkpt lat="48.4967" lon="7.47153">
        <ele>191.4</ele>
        <time>2019-08-09T08:51:53Z</time>
      </trkpt>
      <trkpt lat="48.49671" lon="7.47158">
        <ele>191.3</ele>
        <time>2019-08-09T08:51:54Z</time>
      </trkpt>
      <trkpt lat="48.49673" lon="7.47164">
        <ele>191.2</ele>
        <time>2019-08-09T08:51:55Z</time>
      </trkpt>
      <trkpt lat="48.49674" lon="7.4717">
        <ele>191.1</ele>
        <time>2019-08-09T08:51:56Z</time>
      </trkpt>
      <trkpt lat="48.49675" lon="7.47177">
        <ele>191</ele>
        <time>2019-08-09T08:51:57Z</time>
      </trkpt>
      <trkpt lat="48.49677" lon="7.47182">
        <ele>191</ele>
        <time>2019-08-09T08:51:58Z</time>
      </trkpt>
      <trkpt lat="48.49678" lon="7.47188">
        <ele>191</ele>
        <time>2019-08-09T08:51:59Z</time>
      </trkpt>
      <trkpt lat="48.49679" lon="7.47195">
        <ele>190.9</ele>
        <time>2019-08-09T08:52:00Z</time>
      </trkpt>
      <trkpt lat="48.49679" lon="7.47204">
        <ele>190.9</ele>
        <time>2019-08-09T08:52:01Z</time>
      </trkpt>
      <trkpt lat="48.49679" lon="7.47211">
        <ele>190.8</ele>
        <time>2019-08-09T08:52:02Z</time>
      </trkpt>
      <trkpt lat="48.4968" lon="7.47219">
        <ele>190.8</ele>
        <time>2019-08-09T08:52:03Z</time>
      </trkpt>
      <trkpt lat="48.49681" lon="7.47227">
        <ele>190.8</ele>
        <time>2019-08-09T08:52:04Z</time>
      </trkpt>
      <trkpt lat="48.49682" lon="7.47236">
        <ele>190.8</ele>
        <time>2019-08-09T08:52:05Z</time>
      </trkpt>
      <trkpt lat="48.49683" lon="7.47243">
        <ele>190.8</ele>
        <time>2019-08-09T08:52:06Z</time>
      </trkpt>
      <trkpt lat="48.49685" lon="7.4725">
        <ele>190.8</ele>
        <time>2019-08-09T08:52:07Z</time>
      </trkpt>
      <trkpt lat="48.49686" lon="7.47257">
        <ele>190.8</ele>
        <time>2019-08-09T08:52:08Z</time>
      </trkpt>
      <trkpt lat="48.49687" lon="7.47264">
        <ele>190.8</ele>
        <time>2019-08-09T08:52:09Z</time>
      </trkpt>
      <trkpt lat="48.49688" lon="7.47272">
        <ele>190.7</ele>
        <time>2019-08-09T08:52:10Z</time>
      </trkpt>
      <trkpt lat="48.49689" lon="7.4728">
        <ele>190.7</ele>
        <time>2019-08-09T08:52:11Z</time>
      </trkpt>
      <trkpt lat="48.4969" lon="7.47289">
        <ele>190.6</ele>
        <time>2019-08-09T08:52:12Z</time>
      </trkpt>
      <trkpt lat="48.49691" lon="7.47296">
        <ele>190.4</ele>
        <time>2019-08-09T08:52:13Z</time>
      </trkpt>
      <trkpt lat="48.49692" lon="7.47305">
        <ele>190.4</ele>
        <time>2019-08-09T08:52:14Z</time>
      </trkpt>
      <trkpt lat="48.49693" lon="7.47314">
        <ele>190.3</ele>
        <time>2019-08-09T08:52:15Z</time>
      </trkpt>
      <trkpt lat="48.49695" lon="7.47322">
        <ele>190.2</ele>
        <time>2019-08-09T08:52:16Z</time>
      </trkpt>
      <trkpt lat="48.49696" lon="7.47331">
        <ele>190.1</ele>
        <time>2019-08-09T08:52:17Z</time>
      </trkpt>
      <trkpt lat="48.49696" lon="7.4734">
        <ele>190</ele>
        <time>2019-08-09T08:52:18Z</time>
      </trkpt>
      <trkpt lat="48.49697" lon="7.47348">
        <ele>189.8</ele>
        <time>2019-08-09T08:52:19Z</time>
      </trkpt>
      <trkpt lat="48.49697" lon="7.47356">
        <ele>189.5</ele>
        <time>2019-08-09T08:52:20Z</time>
      </trkpt>
      <trkpt lat="48.49697" lon="7.47364">
        <ele>189.2</ele>
        <time>2019-08-09T08:52:21Z</time>
      </trkpt>
      <trkpt lat="48.49698" lon="7.47373">
        <ele>188.9</ele>
        <time>2019-08-09T08:52:22Z</time>
      </trkpt>
      <trkpt lat="48.49699" lon="7.47381">
        <ele>188.4</ele>
        <time>2019-08-09T08:52:23Z</time>
      </trkpt>
      <trkpt lat="48.497" lon="7.47389">
        <ele>188.3</ele>
        <time>2019-08-09T08:52:24Z</time>
      </trkpt>
      <trkpt lat="48.49701" lon="7.47396">
        <ele>188.2</ele>
        <time>2019-08-09T08:52:25Z</time>
      </trkpt>
      <trkpt lat="48.49702" lon="7.47404">
        <ele>188.1</ele>
        <time>2019-08-09T08:52:26Z</time>
      </trkpt>
      <trkpt lat="48.49703" lon="7.47411">
        <ele>188</ele>
        <time>2019-08-09T08:52:27Z</time>
      </trkpt>
      <trkpt lat="48.49703" lon="7.47418">
        <ele>187.9</ele>
        <time>2019-08-09T08:52:28Z</time>
      </trkpt>
      <trkpt lat="48.49704" lon="7.47426">
        <ele>187.8</ele>
        <time>2019-08-09T08:52:29Z</time>
      </trkpt>
      <trkpt lat="48.49705" lon="7.47432">
        <ele>187.8</ele>
        <time>2019-08-09T08:52:30Z</time>
      </trkpt>
      <trkpt lat="48.49706" lon="7.47436">
        <ele>187.7</ele>
        <time>2019-08-09T08:52:31Z</time>
      </trkpt>
      <trkpt lat="48.49708" lon="7.47441">
        <ele>187.6</ele>
        <time>2019-08-09T08:52:32Z</time>
      </trkpt>
      <trkpt lat="48.49708" lon="7.47447">
        <ele>187.6</ele>
        <time>2019-08-09T08:52:34Z</time>
      </trkpt>
      <trkpt lat="48.49708" lon="7.47452">
        <ele>187.5</ele>
        <time>2019-08-09T08:52:37Z</time>
      </trkpt>
      <trkpt lat="48.4971" lon="7.47458">
        <ele>187.5</ele>
        <time>2019-08-09T08:52:39Z</time>
      </trkpt>
      <trkpt lat="48.49711" lon="7.47462">
        <ele>187.4</ele>
        <time>2019-08-09T08:52:40Z</time>
      </trkpt>
      <trkpt lat="48.49712" lon="7.47467">
        <ele>187.4</ele>
        <time>2019-08-09T08:52:41Z</time>
      </trkpt>
      <trkpt lat="48.49713" lon="7.47472">
        <ele>187.3</ele>
        <time>2019-08-09T08:52:42Z</time>
      </trkpt>
      <trkpt lat="48.49714" lon="7.47477">
        <ele>187.3</ele>
        <time>2019-08-09T08:52:43Z</time>
      </trkpt>
      <trkpt lat="48.49715" lon="7.47481">
        <ele>187.2</ele>
        <time>2019-08-09T08:52:44Z</time>
      </trkpt>
      <trkpt lat="48.49718" lon="7.47486">
        <ele>187.2</ele>
        <time>2019-08-09T08:52:45Z</time>
      </trkpt>
      <trkpt lat="48.49721" lon="7.47491">
        <ele>187.2</ele>
        <time>2019-08-09T08:52:46Z</time>
      </trkpt>
      <trkpt lat="48.49723" lon="7.47496">
        <ele>187.2</ele>
        <time>2019-08-09T08:52:47Z</time>
      </trkpt>
      <trkpt lat="48.49726" lon="7.47502">
        <ele>187.2</ele>
        <time>2019-08-09T08:52:48Z</time>
      </trkpt>
      <trkpt lat="48.49728" lon="7.47507">
        <ele>187.1</ele>
        <time>2019-08-09T08:52:49Z</time>
      </trkpt>
      <trkpt lat="48.4973" lon="7.47514">
        <ele>187.1</ele>
        <time>2019-08-09T08:52:50Z</time>
      </trkpt>
      <trkpt lat="48.49732" lon="7.4752">
        <ele>187.1</ele>
        <time>2019-08-09T08:52:51Z</time>
      </trkpt>
      <trkpt lat="48.49735" lon="7.47525">
        <ele>187</ele>
        <time>2019-08-09T08:52:52Z</time>
      </trkpt>
      <trkpt lat="48.49738" lon="7.47531">
        <ele>186.9</ele>
        <time>2019-08-09T08:52:53Z</time>
      </trkpt>
      <trkpt lat="48.4974" lon="7.47537">
        <ele>186.8</ele>
        <time>2019-08-09T08:52:54Z</time>
      </trkpt>
      <trkpt lat="48.49743" lon="7.47543">
        <ele>186.7</ele>
        <time>2019-08-09T08:52:55Z</time>
      </trkpt>
      <trkpt lat="48.49746" lon="7.47549">
        <ele>186.6</ele>
        <time>2019-08-09T08:52:56Z</time>
      </trkpt>
      <trkpt lat="48.4975" lon="7.47556">
        <ele>186.4</ele>
        <time>2019-08-09T08:52:57Z</time>
      </trkpt>
      <trkpt lat="48.49752" lon="7.47563">
        <ele>186.3</ele>
        <time>2019-08-09T08:52:58Z</time>
      </trkpt>
      <trkpt lat="48.49755" lon="7.47569">
        <ele>186.1</ele>
        <time>2019-08-09T08:52:59Z</time>
      </trkpt>
      <trkpt lat="48.49759" lon="7.47577">
        <ele>186</ele>
        <time>2019-08-09T08:53:00Z</time>
      </trkpt>
      <trkpt lat="48.49762" lon="7.47584">
        <ele>185.8</ele>
        <time>2019-08-09T08:53:01Z</time>
      </trkpt>
      <trkpt lat="48.49765" lon="7.4759">
        <ele>185.6</ele>
        <time>2019-08-09T08:53:02Z</time>
      </trkpt>
      <trkpt lat="48.49768" lon="7.47597">
        <ele>185.5</ele>
        <time>2019-08-09T08:53:03Z</time>
      </trkpt>
      <trkpt lat="48.49772" lon="7.47603">
        <ele>185.3</ele>
        <time>2019-08-09T08:53:04Z</time>
      </trkpt>
      <trkpt lat="48.49776" lon="7.47609">
        <ele>185.2</ele>
        <time>2019-08-09T08:53:05Z</time>
      </trkpt>
      <trkpt lat="48.49779" lon="7.47615">
        <ele>185</ele>
        <time>2019-08-09T08:53:06Z</time>
      </trkpt>
      <trkpt lat="48.49783" lon="7.47622">
        <ele>184.8</ele>
        <time>2019-08-09T08:53:07Z</time>
      </trkpt>
      <trkpt lat="48.49786" lon="7.47629">
        <ele>184.7</ele>
        <time>2019-08-09T08:53:08Z</time>
      </trkpt>
      <trkpt lat="48.4979" lon="7.47635">
        <ele>184.5</ele>
        <time>2019-08-09T08:53:09Z</time>
      </trkpt>
      <trkpt lat="48.49793" lon="7.47641">
        <ele>184.4</ele>
        <time>2019-08-09T08:53:10Z</time>
      </trkpt>
      <trkpt lat="48.49795" lon="7.47646">
        <ele>184.3</ele>
        <time>2019-08-09T08:53:11Z</time>
      </trkpt>
      <trkpt lat="48.49797" lon="7.47652">
        <ele>184.2</ele>
        <time>2019-08-09T08:53:12Z</time>
      </trkpt>
      <trkpt lat="48.49799" lon="7.47658">
        <ele>184.1</ele>
        <time>2019-08-09T08:53:13Z</time>
      </trkpt>
      <trkpt lat="48.49802" lon="7.47665">
        <ele>184</ele>
        <time>2019-08-09T08:53:14Z</time>
      </trkpt>
      <trkpt lat="48.49804" lon="7.47672">
        <ele>183.9</ele>
        <time>2019-08-09T08:53:15Z</time>
      </trkpt>
      <trkpt lat="48.49806" lon="7.4768">
        <ele>183.8</ele>
        <time>2019-08-09T08:53:16Z</time>
      </trkpt>
      <trkpt lat="48.49808" lon="7.47688">
        <ele>183.7</ele>
        <time>2019-08-09T08:53:17Z</time>
      </trkpt>
      <trkpt lat="48.49811" lon="7.47696">
        <ele>183.6</ele>
        <time>2019-08-09T08:53:18Z</time>
      </trkpt>
      <trkpt lat="48.49812" lon="7.47703">
        <ele>183.5</ele>
        <time>2019-08-09T08:53:19Z</time>
      </trkpt>
      <trkpt lat="48.49814" lon="7.47711">
        <ele>183.4</ele>
        <time>2019-08-09T08:53:20Z</time>
      </trkpt>
      <trkpt lat="48.49814" lon="7.47719">
        <ele>183.4</ele>
        <time>2019-08-09T08:53:21Z</time>
      </trkpt>
      <trkpt lat="48.49815" lon="7.47725">
        <ele>183.3</ele>
        <time>2019-08-09T08:53:22Z</time>
      </trkpt>
      <trkpt lat="48.49816" lon="7.47733">
        <ele>183.3</ele>
        <time>2019-08-09T08:53:23Z</time>
      </trkpt>
      <trkpt lat="48.49816" lon="7.47741">
        <ele>183.3</ele>
        <time>2019-08-09T08:53:24Z</time>
      </trkpt>
      <trkpt lat="48.49817" lon="7.47747">
        <ele>183.2</ele>
        <time>2019-08-09T08:53:25Z</time>
      </trkpt>
      <trkpt lat="48.49818" lon="7.47753">
        <ele>183.2</ele>
        <time>2019-08-09T08:53:26Z</time>
      </trkpt>
      <trkpt lat="48.49819" lon="7.47759">
        <ele>183.1</ele>
        <time>2019-08-09T08:53:27Z</time>
      </trkpt>
      <trkpt lat="48.4982" lon="7.47766">
        <ele>183.1</ele>
        <time>2019-08-09T08:53:28Z</time>
      </trkpt>
      <trkpt lat="48.49821" lon="7.47772">
        <ele>183.1</ele>
        <time>2019-08-09T08:53:29Z</time>
      </trkpt>
      <trkpt lat="48.49822" lon="7.47779">
        <ele>183</ele>
        <time>2019-08-09T08:53:30Z</time>
      </trkpt>
      <trkpt lat="48.49823" lon="7.47786">
        <ele>183</ele>
        <time>2019-08-09T08:53:31Z</time>
      </trkpt>
      <trkpt lat="48.49824" lon="7.47792">
        <ele>182.9</ele>
        <time>2019-08-09T08:53:32Z</time>
      </trkpt>
      <trkpt lat="48.49825" lon="7.47799">
        <ele>182.9</ele>
        <time>2019-08-09T08:53:33Z</time>
      </trkpt>
      <trkpt lat="48.49826" lon="7.47806">
        <ele>182.9</ele>
        <time>2019-08-09T08:53:34Z</time>
      </trkpt>
      <trkpt lat="48.49825" lon="7.47812">
        <ele>182.9</ele>
        <time>2019-08-09T08:53:35Z</time>
      </trkpt>
      <trkpt lat="48.49826" lon="7.47818">
        <ele>182.9</ele>
        <time>2019-08-09T08:53:36Z</time>
      </trkpt>
      <trkpt lat="48.49825" lon="7.47824">
        <ele>182.9</ele>
        <time>2019-08-09T08:53:37Z</time>
      </trkpt>
      <trkpt lat="48.49825" lon="7.4783">
        <ele>182.8</ele>
        <time>2019-08-09T08:53:38Z</time>
      </trkpt>
      <trkpt lat="48.49825" lon="7.47837">
        <ele>182.8</ele>
        <time>2019-08-09T08:53:39Z</time>
      </trkpt>
      <trkpt lat="48.49825" lon="7.47844">
        <ele>182.8</ele>
        <time>2019-08-09T08:53:40Z</time>
      </trkpt>
      <trkpt lat="48.49825" lon="7.47851">
        <ele>182.7</ele>
        <time>2019-08-09T08:53:41Z</time>
      </trkpt>
      <trkpt lat="48.49826" lon="7.47857">
        <ele>182.6</ele>
        <time>2019-08-09T08:53:42Z</time>
      </trkpt>
      <trkpt lat="48.49826" lon="7.47862">
        <ele>182.6</ele>
        <time>2019-08-09T08:53:44Z</time>
      </trkpt>
      <trkpt lat="48.49824" lon="7.47858">
        <ele>182.5</ele>
        <time>2019-08-09T08:53:49Z</time>
      </trkpt>
      <trkpt lat="48.49823" lon="7.47853">
        <ele>182.5</ele>
        <time>2019-08-09T08:53:51Z</time>
      </trkpt>
      <trkpt lat="48.49822" lon="7.47849">
        <ele>182.4</ele>
        <time>2019-08-09T08:53:53Z</time>
      </trkpt>
      <trkpt lat="48.49819" lon="7.47847">
        <ele>182.4</ele>
        <time>2019-08-09T08:53:55Z</time>
      </trkpt>
      <trkpt lat="48.49818" lon="7.47843">
        <ele>182.4</ele>
        <time>2019-08-09T08:53:58Z</time>
      </trkpt>
      <trkpt lat="48.49815" lon="7.47841">
        <ele>182.3</ele>
        <time>2019-08-09T08:55:38Z</time>
      </trkpt>
      <trkpt lat="48.49812" lon="7.4784">
        <ele>182.3</ele>
        <time>2019-08-09T08:55:40Z</time>
      </trkpt>
      <trkpt lat="48.49809" lon="7.47839">
        <ele>182.3</ele>
        <time>2019-08-09T08:55:41Z</time>
      </trkpt>
      <trkpt lat="48.49805" lon="7.47836">
        <ele>182.2</ele>
        <time>2019-08-09T08:55:42Z</time>
      </trkpt>
      <trkpt lat="48.49801" lon="7.47834">
        <ele>182.2</ele>
        <time>2019-08-09T08:55:43Z</time>
      </trkpt>
      <trkpt lat="48.49797" lon="7.47832">
        <ele>182.1</ele>
        <time>2019-08-09T08:55:44Z</time>
      </trkpt>
      <trkpt lat="48.49792" lon="7.47831">
        <ele>182.1</ele>
        <time>2019-08-09T08:55:45Z</time>
      </trkpt>
      <trkpt lat="48.49788" lon="7.4783">
        <ele>182</ele>
        <time>2019-08-09T08:55:46Z</time>
      </trkpt>
      <trkpt lat="48.49783" lon="7.47829">
        <ele>182</ele>
        <time>2019-08-09T08:55:47Z</time>
      </trkpt>
      <trkpt lat="48.49777" lon="7.47829">
        <ele>181.9</ele>
        <time>2019-08-09T08:55:48Z</time>
      </trkpt>
      <trkpt lat="48.49772" lon="7.47828">
        <ele>181.9</ele>
        <time>2019-08-09T08:55:49Z</time>
      </trkpt>
      <trkpt lat="48.49767" lon="7.47827">
        <ele>181.8</ele>
        <time>2019-08-09T08:55:50Z</time>
      </trkpt>
      <trkpt lat="48.49763" lon="7.47826">
        <ele>181.8</ele>
        <time>2019-08-09T08:55:51Z</time>
      </trkpt>
      <trkpt lat="48.49758" lon="7.47826">
        <ele>181.7</ele>
        <time>2019-08-09T08:55:52Z</time>
      </trkpt>
      <trkpt lat="48.49753" lon="7.47824">
        <ele>181.7</ele>
        <time>2019-08-09T08:55:53Z</time>
      </trkpt>
      <trkpt lat="48.49748" lon="7.47823">
        <ele>181.7</ele>
        <time>2019-08-09T08:55:54Z</time>
      </trkpt>
      <trkpt lat="48.49744" lon="7.47822">
        <ele>181.7</ele>
        <time>2019-08-09T08:55:55Z</time>
      </trkpt>
      <trkpt lat="48.4974" lon="7.47821">
        <ele>181.6</ele>
        <time>2019-08-09T08:55:56Z</time>
      </trkpt>
      <trkpt lat="48.49735" lon="7.4782">
        <ele>181.6</ele>
        <time>2019-08-09T08:55:57Z</time>
      </trkpt>
      <trkpt lat="48.49731" lon="7.4782">
        <ele>181.6</ele>
        <time>2019-08-09T08:55:58Z</time>
      </trkpt>
      <trkpt lat="48.49727" lon="7.47819">
        <ele>181.6</ele>
        <time>2019-08-09T08:55:59Z</time>
      </trkpt>
      <trkpt lat="48.49723" lon="7.47818">
        <ele>181.6</ele>
        <time>2019-08-09T08:56:00Z</time>
      </trkpt>
      <trkpt lat="48.49719" lon="7.47818">
        <ele>181.5</ele>
        <time>2019-08-09T08:56:01Z</time>
      </trkpt>
      <trkpt lat="48.49715" lon="7.47817">
        <ele>181.5</ele>
        <time>2019-08-09T08:56:02Z</time>
      </trkpt>
      <trkpt lat="48.49712" lon="7.47817">
        <ele>181.5</ele>
        <time>2019-08-09T08:56:03Z</time>
      </trkpt>
      <trkpt lat="48.49709" lon="7.47817">
        <ele>181.5</ele>
        <time>2019-08-09T08:56:04Z</time>
      </trkpt>
      <trkpt lat="48.49705" lon="7.47817">
        <ele>181.5</ele>
        <time>2019-08-09T08:56:05Z</time>
      </trkpt>
      <trkpt lat="48.49701" lon="7.47816">
        <ele>181.5</ele>
        <time>2019-08-09T08:56:06Z</time>
      </trkpt>
      <trkpt lat="48.49698" lon="7.47817">
        <ele>181.5</ele>
        <time>2019-08-09T08:56:07Z</time>
      </trkpt>
      <trkpt lat="48.49694" lon="7.47817">
        <ele>181.5</ele>
        <time>2019-08-09T08:56:08Z</time>
      </trkpt>
      <trkpt lat="48.4969" lon="7.47818">
        <ele>181.5</ele>
        <time>2019-08-09T08:56:09Z</time>
      </trkpt>
      <trkpt lat="48.49687" lon="7.47819">
        <ele>181.5</ele>
        <time>2019-08-09T08:56:10Z</time>
      </trkpt>
      <trkpt lat="48.49684" lon="7.4782">
        <ele>181.5</ele>
        <time>2019-08-09T08:56:11Z</time>
      </trkpt>
      <trkpt lat="48.4968" lon="7.4782">
        <ele>181.5</ele>
        <time>2019-08-09T08:56:12Z</time>
      </trkpt>
      <trkpt lat="48.49677" lon="7.47821">
        <ele>181.5</ele>
        <time>2019-08-09T08:56:13Z</time>
      </trkpt>
      <trkpt lat="48.49673" lon="7.47821">
        <ele>181.5</ele>
        <time>2019-08-09T08:56:14Z</time>
      </trkpt>
      <trkpt lat="48.4967" lon="7.47822">
        <ele>181.5</ele>
        <time>2019-08-09T08:56:15Z</time>
      </trkpt>
      <trkpt lat="48.49666" lon="7.47823">
        <ele>181.5</ele>
        <time>2019-08-09T08:56:16Z</time>
      </trkpt>
      <trkpt lat="48.49662" lon="7.47824">
        <ele>181.5</ele>
        <time>2019-08-09T08:56:17Z</time>
      </trkpt>
      <trkpt lat="48.49659" lon="7.47825">
        <ele>181.6</ele>
        <time>2019-08-09T08:56:18Z</time>
      </trkpt>
      <trkpt lat="48.49655" lon="7.47826">
        <ele>181.6</ele>
        <time>2019-08-09T08:56:19Z</time>
      </trkpt>
      <trkpt lat="48.49652" lon="7.47826">
        <ele>181.6</ele>
        <time>2019-08-09T08:56:20Z</time>
      </trkpt>
      <trkpt lat="48.49649" lon="7.47827">
        <ele>181.6</ele>
        <time>2019-08-09T08:56:21Z</time>
      </trkpt>
      <trkpt lat="48.49646" lon="7.47827">
        <ele>181.7</ele>
        <time>2019-08-09T08:56:22Z</time>
      </trkpt>
      <trkpt lat="48.49642" lon="7.47828">
        <ele>181.8</ele>
        <time>2019-08-09T08:56:23Z</time>
      </trkpt>
      <trkpt lat="48.49639" lon="7.47829">
        <ele>181.8</ele>
        <time>2019-08-09T08:56:24Z</time>
      </trkpt>
      <trkpt lat="48.49635" lon="7.4783">
        <ele>181.9</ele>
        <time>2019-08-09T08:56:25Z</time>
      </trkpt>
      <trkpt lat="48.49631" lon="7.47831">
        <ele>182.1</ele>
        <time>2019-08-09T08:56:26Z</time>
      </trkpt>
      <trkpt lat="48.49628" lon="7.47832">
        <ele>182.2</ele>
        <time>2019-08-09T08:56:27Z</time>
      </trkpt>
      <trkpt lat="48.49625" lon="7.47833">
        <ele>182.3</ele>
        <time>2019-08-09T08:56:28Z</time>
      </trkpt>
      <trkpt lat="48.49622" lon="7.47833">
        <ele>182.4</ele>
        <time>2019-08-09T08:56:29Z</time>
      </trkpt>
      <trkpt lat="48.49619" lon="7.47834">
        <ele>182.5</ele>
        <time>2019-08-09T08:56:30Z</time>
      </trkpt>
      <trkpt lat="48.49614" lon="7.47836">
        <ele>182.7</ele>
        <time>2019-08-09T08:56:32Z</time>
      </trkpt>
      <trkpt lat="48.49611" lon="7.47838">
        <ele>182.8</ele>
        <time>2019-08-09T08:56:33Z</time>
      </trkpt>
      <trkpt lat="48.49608" lon="7.4784">
        <ele>182.9</ele>
        <time>2019-08-09T08:56:34Z</time>
      </trkpt>
      <trkpt lat="48.49605" lon="7.47841">
        <ele>183</ele>
        <time>2019-08-09T08:56:35Z</time>
      </trkpt>
      <trkpt lat="48.49601" lon="7.47844">
        <ele>183.1</ele>
        <time>2019-08-09T08:56:37Z</time>
      </trkpt>
      <trkpt lat="48.49597" lon="7.47845">
        <ele>183.2</ele>
        <time>2019-08-09T08:56:39Z</time>
      </trkpt>
      <trkpt lat="48.49594" lon="7.4785">
        <ele>183.4</ele>
        <time>2019-08-09T08:56:41Z</time>
      </trkpt>
      <trkpt lat="48.4959" lon="7.47853">
        <ele>183.5</ele>
        <time>2019-08-09T08:56:43Z</time>
      </trkpt>
      <trkpt lat="48.49586" lon="7.47857">
        <ele>183.6</ele>
        <time>2019-08-09T08:56:45Z</time>
      </trkpt>
      <trkpt lat="48.49584" lon="7.4786">
        <ele>183.7</ele>
        <time>2019-08-09T08:56:46Z</time>
      </trkpt>
      <trkpt lat="48.49581" lon="7.47864">
        <ele>183.9</ele>
        <time>2019-08-09T08:56:48Z</time>
      </trkpt>
      <trkpt lat="48.49578" lon="7.47869">
        <ele>184</ele>
        <time>2019-08-09T08:56:50Z</time>
      </trkpt>
      <trkpt lat="48.49576" lon="7.47872">
        <ele>184.1</ele>
        <time>2019-08-09T08:56:51Z</time>
      </trkpt>
      <trkpt lat="48.49575" lon="7.47876">
        <ele>184.2</ele>
        <time>2019-08-09T08:56:52Z</time>
      </trkpt>
      <trkpt lat="48.49574" lon="7.47882">
        <ele>184.3</ele>
        <time>2019-08-09T08:56:54Z</time>
      </trkpt>
      <trkpt lat="48.49572" lon="7.47886">
        <ele>184.3</ele>
        <time>2019-08-09T08:56:57Z</time>
      </trkpt>
      <trkpt lat="48.49568" lon="7.47891">
        <ele>184.5</ele>
        <time>2019-08-09T08:56:59Z</time>
      </trkpt>
      <trkpt lat="48.49565" lon="7.47893">
        <ele>184.5</ele>
        <time>2019-08-09T08:57:00Z</time>
      </trkpt>
      <trkpt lat="48.49561" lon="7.47895">
        <ele>184.6</ele>
        <time>2019-08-09T08:57:02Z</time>
      </trkpt>
      <trkpt lat="48.49559" lon="7.47895">
        <ele>184.7</ele>
        <time>2019-08-09T08:57:03Z</time>
      </trkpt>
      <trkpt lat="48.49554" lon="7.47895">
        <ele>184.8</ele>
        <time>2019-08-09T08:57:05Z</time>
      </trkpt>
      <trkpt lat="48.49551" lon="7.47896">
        <ele>184.9</ele>
        <time>2019-08-09T08:57:06Z</time>
      </trkpt>
      <trkpt lat="48.49547" lon="7.47898">
        <ele>185</ele>
        <time>2019-08-09T08:57:07Z</time>
      </trkpt>
      <trkpt lat="48.49544" lon="7.47899">
        <ele>185</ele>
        <time>2019-08-09T08:57:08Z</time>
      </trkpt>
      <trkpt lat="48.4954" lon="7.47901">
        <ele>185.1</ele>
        <time>2019-08-09T08:57:09Z</time>
      </trkpt>
      <trkpt lat="48.49536" lon="7.47904">
        <ele>185.2</ele>
        <time>2019-08-09T08:57:10Z</time>
      </trkpt>
      <trkpt lat="48.49532" lon="7.47906">
        <ele>185.3</ele>
        <time>2019-08-09T08:57:11Z</time>
      </trkpt>
      <trkpt lat="48.49528" lon="7.47909">
        <ele>185.4</ele>
        <time>2019-08-09T08:57:12Z</time>
      </trkpt>
      <trkpt lat="48.49524" lon="7.47912">
        <ele>185.5</ele>
        <time>2019-08-09T08:57:13Z</time>
      </trkpt>
      <trkpt lat="48.49521" lon="7.47916">
        <ele>185.6</ele>
        <time>2019-08-09T08:57:14Z</time>
      </trkpt>
      <trkpt lat="48.49518" lon="7.47918">
        <ele>185.6</ele>
        <time>2019-08-09T08:57:15Z</time>
      </trkpt>
      <trkpt lat="48.49515" lon="7.47921">
        <ele>185.7</ele>
        <time>2019-08-09T08:57:16Z</time>
      </trkpt>
      <trkpt lat="48.49512" lon="7.47924">
        <ele>185.8</ele>
        <time>2019-08-09T08:57:17Z</time>
      </trkpt>
      <trkpt lat="48.4951" lon="7.47928">
        <ele>185.9</ele>
        <time>2019-08-09T08:57:18Z</time>
      </trkpt>
      <trkpt lat="48.49508" lon="7.47932">
        <ele>185.9</ele>
        <time>2019-08-09T08:57:19Z</time>
      </trkpt>
      <trkpt lat="48.49507" lon="7.47936">
        <ele>185.9</ele>
        <time>2019-08-09T08:57:20Z</time>
      </trkpt>
      <trkpt lat="48.49505" lon="7.4794">
        <ele>186</ele>
        <time>2019-08-09T08:57:21Z</time>
      </trkpt>
      <trkpt lat="48.49503" lon="7.47944">
        <ele>186</ele>
        <time>2019-08-09T08:57:22Z</time>
      </trkpt>
      <trkpt lat="48.495" lon="7.47947">
        <ele>186</ele>
        <time>2019-08-09T08:57:23Z</time>
      </trkpt>
      <trkpt lat="48.49498" lon="7.47951">
        <ele>186</ele>
        <time>2019-08-09T08:57:24Z</time>
      </trkpt>
      <trkpt lat="48.49495" lon="7.47953">
        <ele>186</ele>
        <time>2019-08-09T08:57:25Z</time>
      </trkpt>
      <trkpt lat="48.49493" lon="7.47957">
        <ele>186</ele>
        <time>2019-08-09T08:57:26Z</time>
      </trkpt>
      <trkpt lat="48.49491" lon="7.4796">
        <ele>186</ele>
        <time>2019-08-09T08:57:27Z</time>
      </trkpt>
      <trkpt lat="48.49488" lon="7.47964">
        <ele>185.9</ele>
        <time>2019-08-09T08:57:28Z</time>
      </trkpt>
      <trkpt lat="48.49485" lon="7.47968">
        <ele>185.9</ele>
        <time>2019-08-09T08:57:29Z</time>
      </trkpt>
      <trkpt lat="48.49482" lon="7.47971">
        <ele>185.9</ele>
        <time>2019-08-09T08:57:30Z</time>
      </trkpt>
      <trkpt lat="48.49479" lon="7.47974">
        <ele>185.9</ele>
        <time>2019-08-09T08:57:31Z</time>
      </trkpt>
      <trkpt lat="48.49476" lon="7.47977">
        <ele>185.9</ele>
        <time>2019-08-09T08:57:32Z</time>
      </trkpt>
      <trkpt lat="48.49474" lon="7.4798">
        <ele>185.9</ele>
        <time>2019-08-09T08:57:33Z</time>
      </trkpt>
      <trkpt lat="48.49471" lon="7.47982">
        <ele>185.9</ele>
        <time>2019-08-09T08:57:34Z</time>
      </trkpt>
      <trkpt lat="48.49468" lon="7.47985">
        <ele>185.9</ele>
        <time>2019-08-09T08:57:35Z</time>
      </trkpt>
      <trkpt lat="48.49465" lon="7.47986">
        <ele>185.9</ele>
        <time>2019-08-09T08:57:36Z</time>
      </trkpt>
      <trkpt lat="48.49463" lon="7.47989">
        <ele>186</ele>
        <time>2019-08-09T08:57:37Z</time>
      </trkpt>
      <trkpt lat="48.4946" lon="7.47993">
        <ele>186</ele>
        <time>2019-08-09T08:57:38Z</time>
      </trkpt>
      <trkpt lat="48.49456" lon="7.47996">
        <ele>186.1</ele>
        <time>2019-08-09T08:57:39Z</time>
      </trkpt>
      <trkpt lat="48.49453" lon="7.48">
        <ele>186.2</ele>
        <time>2019-08-09T08:57:40Z</time>
      </trkpt>
      <trkpt lat="48.49451" lon="7.48003">
        <ele>186.2</ele>
        <time>2019-08-09T08:57:41Z</time>
      </trkpt>
      <trkpt lat="48.49448" lon="7.48009">
        <ele>186.3</ele>
        <time>2019-08-09T08:57:42Z</time>
      </trkpt>
      <trkpt lat="48.49446" lon="7.48013">
        <ele>186.4</ele>
        <time>2019-08-09T08:57:43Z</time>
      </trkpt>
      <trkpt lat="48.49445" lon="7.48017">
        <ele>186.4</ele>
        <time>2019-08-09T08:57:44Z</time>
      </trkpt>
      <trkpt lat="48.49443" lon="7.48021">
        <ele>186.5</ele>
        <time>2019-08-09T08:57:45Z</time>
      </trkpt>
      <trkpt lat="48.49441" lon="7.48025">
        <ele>186.5</ele>
        <time>2019-08-09T08:57:46Z</time>
      </trkpt>
      <trkpt lat="48.49439" lon="7.4803">
        <ele>186.6</ele>
        <time>2019-08-09T08:57:47Z</time>
      </trkpt>
      <trkpt lat="48.49438" lon="7.48034">
        <ele>186.6</ele>
        <time>2019-08-09T08:57:48Z</time>
      </trkpt>
      <trkpt lat="48.49437" lon="7.48038">
        <ele>186.6</ele>
        <time>2019-08-09T08:57:49Z</time>
      </trkpt>
      <trkpt lat="48.49436" lon="7.48043">
        <ele>186.7</ele>
        <time>2019-08-09T08:57:50Z</time>
      </trkpt>
      <trkpt lat="48.49433" lon="7.4805">
        <ele>186.7</ele>
        <time>2019-08-09T08:57:52Z</time>
      </trkpt>
      <trkpt lat="48.49431" lon="7.48054">
        <ele>186.8</ele>
        <time>2019-08-09T08:57:53Z</time>
      </trkpt>
      <trkpt lat="48.49427" lon="7.48062">
        <ele>186.8</ele>
        <time>2019-08-09T08:57:55Z</time>
      </trkpt>
      <trkpt lat="48.49426" lon="7.48065">
        <ele>186.8</ele>
        <time>2019-08-09T08:57:56Z</time>
      </trkpt>
      <trkpt lat="48.49424" lon="7.4807">
        <ele>186.9</ele>
        <time>2019-08-09T08:57:57Z</time>
      </trkpt>
      <trkpt lat="48.49422" lon="7.48073">
        <ele>186.9</ele>
        <time>2019-08-09T08:57:58Z</time>
      </trkpt>
      <trkpt lat="48.4942" lon="7.48078">
        <ele>186.8</ele>
        <time>2019-08-09T08:57:59Z</time>
      </trkpt>
      <trkpt lat="48.49419" lon="7.48082">
        <ele>186.8</ele>
        <time>2019-08-09T08:58:00Z</time>
      </trkpt>
      <trkpt lat="48.49418" lon="7.48087">
        <ele>186.8</ele>
        <time>2019-08-09T08:58:01Z</time>
      </trkpt>
      <trkpt lat="48.49417" lon="7.48092">
        <ele>186.8</ele>
        <time>2019-08-09T08:58:02Z</time>
      </trkpt>
      <trkpt lat="48.49415" lon="7.48096">
        <ele>186.8</ele>
        <time>2019-08-09T08:58:03Z</time>
      </trkpt>
      <trkpt lat="48.49414" lon="7.481">
        <ele>186.8</ele>
        <time>2019-08-09T08:58:04Z</time>
      </trkpt>
      <trkpt lat="48.49413" lon="7.48104">
        <ele>186.7</ele>
        <time>2019-08-09T08:58:05Z</time>
      </trkpt>
      <trkpt lat="48.49412" lon="7.48108">
        <ele>186.7</ele>
        <time>2019-08-09T08:58:06Z</time>
      </trkpt>
      <trkpt lat="48.49411" lon="7.48113">
        <ele>186.7</ele>
        <time>2019-08-09T08:58:07Z</time>
      </trkpt>
      <trkpt lat="48.49409" lon="7.48124">
        <ele>186.7</ele>
        <time>2019-08-09T08:58:09Z</time>
      </trkpt>
      <trkpt lat="48.49407" lon="7.48132">
        <ele>186.7</ele>
        <time>2019-08-09T08:58:11Z</time>
      </trkpt>
      <trkpt lat="48.49406" lon="7.48138">
        <ele>186.7</ele>
        <time>2019-08-09T08:58:12Z</time>
      </trkpt>
      <trkpt lat="48.49405" lon="7.48143">
        <ele>186.7</ele>
        <time>2019-08-09T08:58:13Z</time>
      </trkpt>
      <trkpt lat="48.49404" lon="7.48147">
        <ele>186.7</ele>
        <time>2019-08-09T08:58:14Z</time>
      </trkpt>
      <trkpt lat="48.49403" lon="7.48151">
        <ele>186.8</ele>
        <time>2019-08-09T08:58:15Z</time>
      </trkpt>
      <trkpt lat="48.49401" lon="7.48155">
        <ele>186.8</ele>
        <time>2019-08-09T08:58:16Z</time>
      </trkpt>
      <trkpt lat="48.49399" lon="7.48162">
        <ele>186.8</ele>
        <time>2019-08-09T08:58:18Z</time>
      </trkpt>
      <trkpt lat="48.49398" lon="7.48168">
        <ele>186.8</ele>
        <time>2019-08-09T08:58:19Z</time>
      </trkpt>
      <trkpt lat="48.49397" lon="7.48173">
        <ele>186.9</ele>
        <time>2019-08-09T08:58:20Z</time>
      </trkpt>
      <trkpt lat="48.49397" lon="7.48177">
        <ele>186.9</ele>
        <time>2019-08-09T08:58:21Z</time>
      </trkpt>
      <trkpt lat="48.49396" lon="7.48182">
        <ele>186.9</ele>
        <time>2019-08-09T08:58:22Z</time>
      </trkpt>
      <trkpt lat="48.49395" lon="7.48187">
        <ele>186.9</ele>
        <time>2019-08-09T08:58:23Z</time>
      </trkpt>
      <trkpt lat="48.49393" lon="7.48192">
        <ele>186.9</ele>
        <time>2019-08-09T08:58:24Z</time>
      </trkpt>
      <trkpt lat="48.49392" lon="7.48198">
        <ele>187</ele>
        <time>2019-08-09T08:58:25Z</time>
      </trkpt>
      <trkpt lat="48.49392" lon="7.48204">
        <ele>187</ele>
        <time>2019-08-09T08:58:26Z</time>
      </trkpt>
      <trkpt lat="48.49391" lon="7.4821">
        <ele>187</ele>
        <time>2019-08-09T08:58:27Z</time>
      </trkpt>
      <trkpt lat="48.4939" lon="7.48216">
        <ele>187</ele>
        <time>2019-08-09T08:58:28Z</time>
      </trkpt>
      <trkpt lat="48.4939" lon="7.48221">
        <ele>187</ele>
        <time>2019-08-09T08:58:29Z</time>
      </trkpt>
      <trkpt lat="48.49389" lon="7.48227">
        <ele>187</ele>
        <time>2019-08-09T08:58:30Z</time>
      </trkpt>
      <trkpt lat="48.49389" lon="7.48231">
        <ele>187</ele>
        <time>2019-08-09T08:58:31Z</time>
      </trkpt>
      <trkpt lat="48.49388" lon="7.48236">
        <ele>187.1</ele>
        <time>2019-08-09T08:58:32Z</time>
      </trkpt>
      <trkpt lat="48.49387" lon="7.48244">
        <ele>187.1</ele>
        <time>2019-08-09T08:58:34Z</time>
      </trkpt>
      <trkpt lat="48.49386" lon="7.4825">
        <ele>187.2</ele>
        <time>2019-08-09T08:58:35Z</time>
      </trkpt>
      <trkpt lat="48.49386" lon="7.48256">
        <ele>187.2</ele>
        <time>2019-08-09T08:58:36Z</time>
      </trkpt>
      <trkpt lat="48.49385" lon="7.48262">
        <ele>187.3</ele>
        <time>2019-08-09T08:58:37Z</time>
      </trkpt>
      <trkpt lat="48.49384" lon="7.48268">
        <ele>187.4</ele>
        <time>2019-08-09T08:58:38Z</time>
      </trkpt>
      <trkpt lat="48.49384" lon="7.48274">
        <ele>187.4</ele>
        <time>2019-08-09T08:58:39Z</time>
      </trkpt>
      <trkpt lat="48.49383" lon="7.4828">
        <ele>187.5</ele>
        <time>2019-08-09T08:58:40Z</time>
      </trkpt>
      <trkpt lat="48.49382" lon="7.48285">
        <ele>187.5</ele>
        <time>2019-08-09T08:58:41Z</time>
      </trkpt>
      <trkpt lat="48.49381" lon="7.4829">
        <ele>187.6</ele>
        <time>2019-08-09T08:58:42Z</time>
      </trkpt>
      <trkpt lat="48.49381" lon="7.48297">
        <ele>187.6</ele>
        <time>2019-08-09T08:58:43Z</time>
      </trkpt>
      <trkpt lat="48.4938" lon="7.48301">
        <ele>187.7</ele>
        <time>2019-08-09T08:58:44Z</time>
      </trkpt>
      <trkpt lat="48.49378" lon="7.48306">
        <ele>187.7</ele>
        <time>2019-08-09T08:58:45Z</time>
      </trkpt>
      <trkpt lat="48.49377" lon="7.48311">
        <ele>187.8</ele>
        <time>2019-08-09T08:58:46Z</time>
      </trkpt>
      <trkpt lat="48.49375" lon="7.48316">
        <ele>187.8</ele>
        <time>2019-08-09T08:58:47Z</time>
      </trkpt>
      <trkpt lat="48.49374" lon="7.48321">
        <ele>187.8</ele>
        <time>2019-08-09T08:58:48Z</time>
      </trkpt>
      <trkpt lat="48.49374" lon="7.48326">
        <ele>187.9</ele>
        <time>2019-08-09T08:58:49Z</time>
      </trkpt>
      <trkpt lat="48.49373" lon="7.48331">
        <ele>187.9</ele>
        <time>2019-08-09T08:58:50Z</time>
      </trkpt>
      <trkpt lat="48.49372" lon="7.48337">
        <ele>187.9</ele>
        <time>2019-08-09T08:58:51Z</time>
      </trkpt>
      <trkpt lat="48.49371" lon="7.48343">
        <ele>188</ele>
        <time>2019-08-09T08:58:52Z</time>
      </trkpt>
      <trkpt lat="48.49371" lon="7.48348">
        <ele>188</ele>
        <time>2019-08-09T08:58:53Z</time>
      </trkpt>
      <trkpt lat="48.4937" lon="7.48352">
        <ele>188</ele>
        <time>2019-08-09T08:58:54Z</time>
      </trkpt>
      <trkpt lat="48.4937" lon="7.48357">
        <ele>188</ele>
        <time>2019-08-09T08:58:55Z</time>
      </trkpt>
      <trkpt lat="48.49369" lon="7.48361">
        <ele>188</ele>
        <time>2019-08-09T08:58:56Z</time>
      </trkpt>
      <trkpt lat="48.49368" lon="7.48367">
        <ele>188</ele>
        <time>2019-08-09T08:58:57Z</time>
      </trkpt>
      <trkpt lat="48.49367" lon="7.48371">
        <ele>188</ele>
        <time>2019-08-09T08:58:58Z</time>
      </trkpt>
      <trkpt lat="48.49366" lon="7.48376">
        <ele>188</ele>
        <time>2019-08-09T08:58:59Z</time>
      </trkpt>
      <trkpt lat="48.49365" lon="7.4838">
        <ele>188</ele>
        <time>2019-08-09T08:59:00Z</time>
      </trkpt>
      <trkpt lat="48.49364" lon="7.48386">
        <ele>188</ele>
        <time>2019-08-09T08:59:01Z</time>
      </trkpt>
      <trkpt lat="48.49363" lon="7.48395">
        <ele>188</ele>
        <time>2019-08-09T08:59:03Z</time>
      </trkpt>
      <trkpt lat="48.49362" lon="7.48403">
        <ele>187.9</ele>
        <time>2019-08-09T08:59:04Z</time>
      </trkpt>
      <trkpt lat="48.49362" lon="7.48408">
        <ele>187.8</ele>
        <time>2019-08-09T08:59:05Z</time>
      </trkpt>
      <trkpt lat="48.49361" lon="7.48412">
        <ele>187.8</ele>
        <time>2019-08-09T08:59:06Z</time>
      </trkpt>
      <trkpt lat="48.4936" lon="7.48416">
        <ele>187.7</ele>
        <time>2019-08-09T08:59:07Z</time>
      </trkpt>
      <trkpt lat="48.49358" lon="7.48421">
        <ele>187.7</ele>
        <time>2019-08-09T08:59:08Z</time>
      </trkpt>
      <trkpt lat="48.49357" lon="7.48426">
        <ele>187.6</ele>
        <time>2019-08-09T08:59:09Z</time>
      </trkpt>
      <trkpt lat="48.49356" lon="7.48432">
        <ele>187.6</ele>
        <time>2019-08-09T08:59:10Z</time>
      </trkpt>
      <trkpt lat="48.49355" lon="7.48438">
        <ele>187.5</ele>
        <time>2019-08-09T08:59:11Z</time>
      </trkpt>
      <trkpt lat="48.49354" lon="7.48443">
        <ele>187.5</ele>
        <time>2019-08-09T08:59:12Z</time>
      </trkpt>
      <trkpt lat="48.49353" lon="7.48449">
        <ele>187.5</ele>
        <time>2019-08-09T08:59:13Z</time>
      </trkpt>
      <trkpt lat="48.49352" lon="7.48454">
        <ele>187.5</ele>
        <time>2019-08-09T08:59:14Z</time>
      </trkpt>
      <trkpt lat="48.49351" lon="7.48459">
        <ele>187.6</ele>
        <time>2019-08-09T08:59:15Z</time>
      </trkpt>
      <trkpt lat="48.4935" lon="7.48465">
        <ele>187.6</ele>
        <time>2019-08-09T08:59:16Z</time>
      </trkpt>
      <trkpt lat="48.4935" lon="7.4847">
        <ele>187.6</ele>
        <time>2019-08-09T08:59:17Z</time>
      </trkpt>
      <trkpt lat="48.49349" lon="7.48476">
        <ele>187.6</ele>
        <time>2019-08-09T08:59:18Z</time>
      </trkpt>
      <trkpt lat="48.49349" lon="7.48482">
        <ele>187.6</ele>
        <time>2019-08-09T08:59:19Z</time>
      </trkpt>
      <trkpt lat="48.49348" lon="7.48488">
        <ele>187.6</ele>
        <time>2019-08-09T08:59:20Z</time>
      </trkpt>
      <trkpt lat="48.49347" lon="7.48494">
        <ele>187.6</ele>
        <time>2019-08-09T08:59:21Z</time>
      </trkpt>
      <trkpt lat="48.49346" lon="7.48501">
        <ele>187.6</ele>
        <time>2019-08-09T08:59:22Z</time>
      </trkpt>
      <trkpt lat="48.49345" lon="7.48507">
        <ele>187.6</ele>
        <time>2019-08-09T08:59:23Z</time>
      </trkpt>
      <trkpt lat="48.49344" lon="7.48514">
        <ele>187.6</ele>
        <time>2019-08-09T08:59:24Z</time>
      </trkpt>
      <trkpt lat="48.49343" lon="7.48521">
        <ele>187.6</ele>
        <time>2019-08-09T08:59:25Z</time>
      </trkpt>
      <trkpt lat="48.49342" lon="7.48528">
        <ele>187.6</ele>
        <time>2019-08-09T08:59:26Z</time>
      </trkpt>
      <trkpt lat="48.4934" lon="7.48533">
        <ele>187.6</ele>
        <time>2019-08-09T08:59:27Z</time>
      </trkpt>
      <trkpt lat="48.4934" lon="7.48539">
        <ele>187.6</ele>
        <time>2019-08-09T08:59:28Z</time>
      </trkpt>
      <trkpt lat="48.49339" lon="7.48545">
        <ele>187.7</ele>
        <time>2019-08-09T08:59:29Z</time>
      </trkpt>
      <trkpt lat="48.49338" lon="7.48551">
        <ele>187.7</ele>
        <time>2019-08-09T08:59:30Z</time>
      </trkpt>
      <trkpt lat="48.49337" lon="7.4856">
        <ele>187.9</ele>
        <time>2019-08-09T08:59:32Z</time>
      </trkpt>
      <trkpt lat="48.49336" lon="7.48565">
        <ele>188</ele>
        <time>2019-08-09T08:59:33Z</time>
      </trkpt>
      <trkpt lat="48.49335" lon="7.4857">
        <ele>188.1</ele>
        <time>2019-08-09T08:59:34Z</time>
      </trkpt>
      <trkpt lat="48.49335" lon="7.48575">
        <ele>188.2</ele>
        <time>2019-08-09T08:59:35Z</time>
      </trkpt>
      <trkpt lat="48.49333" lon="7.4858">
        <ele>188.3</ele>
        <time>2019-08-09T08:59:36Z</time>
      </trkpt>
      <trkpt lat="48.49332" lon="7.48585">
        <ele>188.4</ele>
        <time>2019-08-09T08:59:37Z</time>
      </trkpt>
      <trkpt lat="48.4933" lon="7.48591">
        <ele>188.5</ele>
        <time>2019-08-09T08:59:38Z</time>
      </trkpt>
      <trkpt lat="48.49329" lon="7.48596">
        <ele>188.6</ele>
        <time>2019-08-09T08:59:39Z</time>
      </trkpt>
      <trkpt lat="48.49328" lon="7.48601">
        <ele>188.6</ele>
        <time>2019-08-09T08:59:40Z</time>
      </trkpt>
      <trkpt lat="48.49327" lon="7.48605">
        <ele>188.7</ele>
        <time>2019-08-09T08:59:41Z</time>
      </trkpt>
      <trkpt lat="48.49327" lon="7.4861">
        <ele>188.8</ele>
        <time>2019-08-09T08:59:42Z</time>
      </trkpt>
      <trkpt lat="48.49326" lon="7.48616">
        <ele>188.8</ele>
        <time>2019-08-09T08:59:43Z</time>
      </trkpt>
      <trkpt lat="48.49325" lon="7.48622">
        <ele>188.8</ele>
        <time>2019-08-09T08:59:44Z</time>
      </trkpt>
      <trkpt lat="48.49323" lon="7.48628">
        <ele>188.9</ele>
        <time>2019-08-09T08:59:45Z</time>
      </trkpt>
      <trkpt lat="48.49322" lon="7.48635">
        <ele>188.9</ele>
        <time>2019-08-09T08:59:46Z</time>
      </trkpt>
      <trkpt lat="48.49321" lon="7.48641">
        <ele>188.9</ele>
        <time>2019-08-09T08:59:47Z</time>
      </trkpt>
      <trkpt lat="48.4932" lon="7.48646">
        <ele>188.9</ele>
        <time>2019-08-09T08:59:48Z</time>
      </trkpt>
      <trkpt lat="48.49319" lon="7.48652">
        <ele>188.9</ele>
        <time>2019-08-09T08:59:49Z</time>
      </trkpt>
      <trkpt lat="48.49318" lon="7.48657">
        <ele>188.9</ele>
        <time>2019-08-09T08:59:50Z</time>
      </trkpt>
      <trkpt lat="48.49317" lon="7.48662">
        <ele>189</ele>
        <time>2019-08-09T08:59:51Z</time>
      </trkpt>
      <trkpt lat="48.49316" lon="7.48669">
        <ele>189</ele>
        <time>2019-08-09T08:59:52Z</time>
      </trkpt>
      <trkpt lat="48.49315" lon="7.48675">
        <ele>189.1</ele>
        <time>2019-08-09T08:59:53Z</time>
      </trkpt>
      <trkpt lat="48.49313" lon="7.48681">
        <ele>189.1</ele>
        <time>2019-08-09T08:59:54Z</time>
      </trkpt>
      <trkpt lat="48.49312" lon="7.48687">
        <ele>189.2</ele>
        <time>2019-08-09T08:59:55Z</time>
      </trkpt>
      <trkpt lat="48.49311" lon="7.48693">
        <ele>189.3</ele>
        <time>2019-08-09T08:59:56Z</time>
      </trkpt>
      <trkpt lat="48.4931" lon="7.48697">
        <ele>189.4</ele>
        <time>2019-08-09T08:59:57Z</time>
      </trkpt>
      <trkpt lat="48.4931" lon="7.48702">
        <ele>189.4</ele>
        <time>2019-08-09T08:59:58Z</time>
      </trkpt>
      <trkpt lat="48.49308" lon="7.48707">
        <ele>189.5</ele>
        <time>2019-08-09T08:59:59Z</time>
      </trkpt>
      <trkpt lat="48.49307" lon="7.48711">
        <ele>189.6</ele>
        <time>2019-08-09T09:00:00Z</time>
      </trkpt>
      <trkpt lat="48.49306" lon="7.48715">
        <ele>189.6</ele>
        <time>2019-08-09T09:00:01Z</time>
      </trkpt>
      <trkpt lat="48.49305" lon="7.48724">
        <ele>189.7</ele>
        <time>2019-08-09T09:00:03Z</time>
      </trkpt>
      <trkpt lat="48.49303" lon="7.48725">
        <ele>189.8</ele>
        <time>2019-08-09T09:00:05Z</time>
      </trkpt>
      <trkpt lat="48.49299" lon="7.48726">
        <ele>189.9</ele>
        <time>2019-08-09T09:00:08Z</time>
      </trkpt>
      <trkpt lat="48.49293" lon="7.48725">
        <ele>190.2</ele>
        <time>2019-08-09T09:00:10Z</time>
      </trkpt>
      <trkpt lat="48.49288" lon="7.48727">
        <ele>190.3</ele>
        <time>2019-08-09T09:00:12Z</time>
      </trkpt>
      <trkpt lat="48.49285" lon="7.48728">
        <ele>190.4</ele>
        <time>2019-08-09T09:00:14Z</time>
      </trkpt>
      <trkpt lat="48.4928" lon="7.48731">
        <ele>190.5</ele>
        <time>2019-08-09T09:00:16Z</time>
      </trkpt>
      <trkpt lat="48.49277" lon="7.48734">
        <ele>190.6</ele>
        <time>2019-08-09T09:00:17Z</time>
      </trkpt>
      <trkpt lat="48.49272" lon="7.48739">
        <ele>190.7</ele>
        <time>2019-08-09T09:00:19Z</time>
      </trkpt>
      <trkpt lat="48.49269" lon="7.48742">
        <ele>190.9</ele>
        <time>2019-08-09T09:00:20Z</time>
      </trkpt>
      <trkpt lat="48.49266" lon="7.48746">
        <ele>191</ele>
        <time>2019-08-09T09:00:21Z</time>
      </trkpt>
      <trkpt lat="48.49264" lon="7.4875">
        <ele>191</ele>
        <time>2019-08-09T09:00:22Z</time>
      </trkpt>
      <trkpt lat="48.49261" lon="7.48754">
        <ele>191.1</ele>
        <time>2019-08-09T09:00:23Z</time>
      </trkpt>
      <trkpt lat="48.49258" lon="7.48757">
        <ele>191.2</ele>
        <time>2019-08-09T09:00:24Z</time>
      </trkpt>
      <trkpt lat="48.49255" lon="7.48762">
        <ele>191.2</ele>
        <time>2019-08-09T09:00:25Z</time>
      </trkpt>
      <trkpt lat="48.49251" lon="7.48766">
        <ele>191.2</ele>
        <time>2019-08-09T09:00:26Z</time>
      </trkpt>
      <trkpt lat="48.49248" lon="7.48769">
        <ele>191.3</ele>
        <time>2019-08-09T09:00:27Z</time>
      </trkpt>
      <trkpt lat="48.49245" lon="7.48773">
        <ele>191.3</ele>
        <time>2019-08-09T09:00:28Z</time>
      </trkpt>
      <trkpt lat="48.49241" lon="7.48775">
        <ele>191.3</ele>
        <time>2019-08-09T09:00:29Z</time>
      </trkpt>
      <trkpt lat="48.49238" lon="7.48778">
        <ele>191.3</ele>
        <time>2019-08-09T09:00:30Z</time>
      </trkpt>
      <trkpt lat="48.49235" lon="7.48783">
        <ele>191.3</ele>
        <time>2019-08-09T09:00:31Z</time>
      </trkpt>
      <trkpt lat="48.49232" lon="7.48787">
        <ele>191.3</ele>
        <time>2019-08-09T09:00:32Z</time>
      </trkpt>
      <trkpt lat="48.4923" lon="7.4879">
        <ele>191.3</ele>
        <time>2019-08-09T09:00:33Z</time>
      </trkpt>
      <trkpt lat="48.49227" lon="7.48793">
        <ele>191.3</ele>
        <time>2019-08-09T09:00:34Z</time>
      </trkpt>
      <trkpt lat="48.49224" lon="7.48795">
        <ele>191.3</ele>
        <time>2019-08-09T09:00:35Z</time>
      </trkpt>
      <trkpt lat="48.49221" lon="7.48797">
        <ele>191.3</ele>
        <time>2019-08-09T09:00:36Z</time>
      </trkpt>
      <trkpt lat="48.49219" lon="7.488">
        <ele>191.4</ele>
        <time>2019-08-09T09:00:37Z</time>
      </trkpt>
      <trkpt lat="48.49215" lon="7.48801">
        <ele>191.4</ele>
        <time>2019-08-09T09:00:38Z</time>
      </trkpt>
      <trkpt lat="48.49212" lon="7.48804">
        <ele>191.4</ele>
        <time>2019-08-09T09:00:39Z</time>
      </trkpt>
      <trkpt lat="48.4921" lon="7.48807">
        <ele>191.4</ele>
        <time>2019-08-09T09:00:40Z</time>
      </trkpt>
      <trkpt lat="48.49207" lon="7.48809">
        <ele>191.4</ele>
        <time>2019-08-09T09:00:41Z</time>
      </trkpt>
      <trkpt lat="48.49204" lon="7.48812">
        <ele>191.5</ele>
        <time>2019-08-09T09:00:42Z</time>
      </trkpt>
      <trkpt lat="48.49202" lon="7.48815">
        <ele>191.5</ele>
        <time>2019-08-09T09:00:43Z</time>
      </trkpt>
      <trkpt lat="48.492" lon="7.48817">
        <ele>191.6</ele>
        <time>2019-08-09T09:00:44Z</time>
      </trkpt>
      <trkpt lat="48.49197" lon="7.4882">
        <ele>191.7</ele>
        <time>2019-08-09T09:00:45Z</time>
      </trkpt>
      <trkpt lat="48.49195" lon="7.48824">
        <ele>191.8</ele>
        <time>2019-08-09T09:00:46Z</time>
      </trkpt>
      <trkpt lat="48.49193" lon="7.48826">
        <ele>191.9</ele>
        <time>2019-08-09T09:00:47Z</time>
      </trkpt>
      <trkpt lat="48.4919" lon="7.4883">
        <ele>192.1</ele>
        <time>2019-08-09T09:00:48Z</time>
      </trkpt>
      <trkpt lat="48.49187" lon="7.48833">
        <ele>192.3</ele>
        <time>2019-08-09T09:00:49Z</time>
      </trkpt>
      <trkpt lat="48.49185" lon="7.48837">
        <ele>192.5</ele>
        <time>2019-08-09T09:00:50Z</time>
      </trkpt>
      <trkpt lat="48.49183" lon="7.4884">
        <ele>192.6</ele>
        <time>2019-08-09T09:00:51Z</time>
      </trkpt>
      <trkpt lat="48.49179" lon="7.48846">
        <ele>192.8</ele>
        <time>2019-08-09T09:00:53Z</time>
      </trkpt>
      <trkpt lat="48.49175" lon="7.4885">
        <ele>193</ele>
        <time>2019-08-09T09:00:55Z</time>
      </trkpt>
      <trkpt lat="48.49171" lon="7.48852">
        <ele>193.2</ele>
        <time>2019-08-09T09:00:57Z</time>
      </trkpt>
      <trkpt lat="48.49168" lon="7.48855">
        <ele>193.5</ele>
        <time>2019-08-09T09:00:59Z</time>
      </trkpt>
      <trkpt lat="48.49166" lon="7.48859">
        <ele>193.5</ele>
        <time>2019-08-09T09:01:01Z</time>
      </trkpt>
      <trkpt lat="48.49162" lon="7.48864">
        <ele>193.7</ele>
        <time>2019-08-09T09:01:03Z</time>
      </trkpt>
      <trkpt lat="48.4916" lon="7.48868">
        <ele>193.8</ele>
        <time>2019-08-09T09:01:04Z</time>
      </trkpt>
      <trkpt lat="48.49158" lon="7.48872">
        <ele>193.9</ele>
        <time>2019-08-09T09:01:05Z</time>
      </trkpt>
      <trkpt lat="48.49156" lon="7.48876">
        <ele>194</ele>
        <time>2019-08-09T09:01:06Z</time>
      </trkpt>
      <trkpt lat="48.49154" lon="7.48879">
        <ele>194.1</ele>
        <time>2019-08-09T09:01:07Z</time>
      </trkpt>
      <trkpt lat="48.4915" lon="7.48885">
        <ele>194.2</ele>
        <time>2019-08-09T09:01:09Z</time>
      </trkpt>
      <trkpt lat="48.49148" lon="7.48888">
        <ele>194.3</ele>
        <time>2019-08-09T09:01:10Z</time>
      </trkpt>
      <trkpt lat="48.49143" lon="7.48893">
        <ele>194.4</ele>
        <time>2019-08-09T09:01:12Z</time>
      </trkpt>
      <trkpt lat="48.49139" lon="7.48897">
        <ele>194.6</ele>
        <time>2019-08-09T09:01:14Z</time>
      </trkpt>
      <trkpt lat="48.49134" lon="7.48899">
        <ele>194.7</ele>
        <time>2019-08-09T09:01:16Z</time>
      </trkpt>
      <trkpt lat="48.4913" lon="7.48904">
        <ele>194.8</ele>
        <time>2019-08-09T09:01:18Z</time>
      </trkpt>
      <trkpt lat="48.49127" lon="7.48907">
        <ele>194.8</ele>
        <time>2019-08-09T09:01:19Z</time>
      </trkpt>
      <trkpt lat="48.49124" lon="7.48909">
        <ele>194.9</ele>
        <time>2019-08-09T09:01:20Z</time>
      </trkpt>
      <trkpt lat="48.49119" lon="7.48913">
        <ele>194.9</ele>
        <time>2019-08-09T09:01:22Z</time>
      </trkpt>
      <trkpt lat="48.49117" lon="7.48915">
        <ele>195</ele>
        <time>2019-08-09T09:01:23Z</time>
      </trkpt>
      <trkpt lat="48.49113" lon="7.48918">
        <ele>195</ele>
        <time>2019-08-09T09:01:24Z</time>
      </trkpt>
      <trkpt lat="48.4911" lon="7.4892">
        <ele>195.1</ele>
        <time>2019-08-09T09:01:25Z</time>
      </trkpt>
      <trkpt lat="48.49108" lon="7.48922">
        <ele>195.1</ele>
        <time>2019-08-09T09:01:26Z</time>
      </trkpt>
      <trkpt lat="48.49105" lon="7.48926">
        <ele>195.1</ele>
        <time>2019-08-09T09:01:27Z</time>
      </trkpt>
      <trkpt lat="48.49102" lon="7.48929">
        <ele>195.2</ele>
        <time>2019-08-09T09:01:28Z</time>
      </trkpt>
      <trkpt lat="48.49099" lon="7.48933">
        <ele>195.2</ele>
        <time>2019-08-09T09:01:29Z</time>
      </trkpt>
      <trkpt lat="48.49096" lon="7.48936">
        <ele>195.3</ele>
        <time>2019-08-09T09:01:30Z</time>
      </trkpt>
      <trkpt lat="48.49094" lon="7.48938">
        <ele>195.3</ele>
        <time>2019-08-09T09:01:31Z</time>
      </trkpt>
      <trkpt lat="48.4909" lon="7.4894">
        <ele>195.4</ele>
        <time>2019-08-09T09:01:32Z</time>
      </trkpt>
      <trkpt lat="48.49086" lon="7.48941">
        <ele>195.5</ele>
        <time>2019-08-09T09:01:33Z</time>
      </trkpt>
      <trkpt lat="48.49083" lon="7.48943">
        <ele>195.6</ele>
        <time>2019-08-09T09:01:34Z</time>
      </trkpt>
      <trkpt lat="48.4908" lon="7.48947">
        <ele>195.7</ele>
        <time>2019-08-09T09:01:35Z</time>
      </trkpt>
      <trkpt lat="48.49077" lon="7.48949">
        <ele>195.7</ele>
        <time>2019-08-09T09:01:36Z</time>
      </trkpt>
      <trkpt lat="48.49074" lon="7.48952">
        <ele>195.8</ele>
        <time>2019-08-09T09:01:37Z</time>
      </trkpt>
      <trkpt lat="48.4907" lon="7.48956">
        <ele>195.9</ele>
        <time>2019-08-09T09:01:38Z</time>
      </trkpt>
      <trkpt lat="48.49067" lon="7.48959">
        <ele>196</ele>
        <time>2019-08-09T09:01:39Z</time>
      </trkpt>
      <trkpt lat="48.49063" lon="7.48963">
        <ele>196.1</ele>
        <time>2019-08-09T09:01:40Z</time>
      </trkpt>
      <trkpt lat="48.49061" lon="7.48966">
        <ele>196.1</ele>
        <time>2019-08-09T09:01:41Z</time>
      </trkpt>
      <trkpt lat="48.49058" lon="7.48968">
        <ele>196.2</ele>
        <time>2019-08-09T09:01:42Z</time>
      </trkpt>
      <trkpt lat="48.49054" lon="7.48972">
        <ele>196.4</ele>
        <time>2019-08-09T09:01:44Z</time>
      </trkpt>
      <trkpt lat="48.4905" lon="7.48974">
        <ele>196.5</ele>
        <time>2019-08-09T09:01:46Z</time>
      </trkpt>
      <trkpt lat="48.49047" lon="7.48976">
        <ele>196.5</ele>
        <time>2019-08-09T09:01:48Z</time>
      </trkpt>
      <trkpt lat="48.49043" lon="7.48977">
        <ele>196.5</ele>
        <time>2019-08-09T09:01:50Z</time>
      </trkpt>
      <trkpt lat="48.49039" lon="7.48979">
        <ele>196.5</ele>
        <time>2019-08-09T09:01:51Z</time>
      </trkpt>
      <trkpt lat="48.49035" lon="7.4898">
        <ele>196.5</ele>
        <time>2019-08-09T09:01:52Z</time>
      </trkpt>
      <trkpt lat="48.49031" lon="7.48981">
        <ele>196.4</ele>
        <time>2019-08-09T09:01:53Z</time>
      </trkpt>
      <trkpt lat="48.49028" lon="7.48982">
        <ele>196.4</ele>
        <time>2019-08-09T09:01:54Z</time>
      </trkpt>
      <trkpt lat="48.49024" lon="7.48984">
        <ele>196.3</ele>
        <time>2019-08-09T09:01:55Z</time>
      </trkpt>
      <trkpt lat="48.49019" lon="7.48986">
        <ele>196.3</ele>
        <time>2019-08-09T09:01:56Z</time>
      </trkpt>
      <trkpt lat="48.49016" lon="7.48988">
        <ele>196.2</ele>
        <time>2019-08-09T09:01:57Z</time>
      </trkpt>
      <trkpt lat="48.49013" lon="7.4899">
        <ele>196.2</ele>
        <time>2019-08-09T09:01:58Z</time>
      </trkpt>
      <trkpt lat="48.4901" lon="7.48992">
        <ele>196.2</ele>
        <time>2019-08-09T09:01:59Z</time>
      </trkpt>
      <trkpt lat="48.49007" lon="7.48994">
        <ele>196.3</ele>
        <time>2019-08-09T09:02:00Z</time>
      </trkpt>
      <trkpt lat="48.49005" lon="7.48995">
        <ele>196.3</ele>
        <time>2019-08-09T09:02:01Z</time>
      </trkpt>
      <trkpt lat="48.48999" lon="7.48996">
        <ele>196.4</ele>
        <time>2019-08-09T09:02:03Z</time>
      </trkpt>
      <trkpt lat="48.48996" lon="7.48998">
        <ele>196.4</ele>
        <time>2019-08-09T09:02:04Z</time>
      </trkpt>
      <trkpt lat="48.48993" lon="7.49">
        <ele>196.5</ele>
        <time>2019-08-09T09:02:05Z</time>
      </trkpt>
      <trkpt lat="48.48989" lon="7.49002">
        <ele>196.5</ele>
        <time>2019-08-09T09:02:06Z</time>
      </trkpt>
      <trkpt lat="48.48986" lon="7.49005">
        <ele>196.6</ele>
        <time>2019-08-09T09:02:07Z</time>
      </trkpt>
      <trkpt lat="48.48983" lon="7.49008">
        <ele>196.6</ele>
        <time>2019-08-09T09:02:08Z</time>
      </trkpt>
      <trkpt lat="48.4898" lon="7.49011">
        <ele>196.7</ele>
        <time>2019-08-09T09:02:09Z</time>
      </trkpt>
      <trkpt lat="48.48976" lon="7.49012">
        <ele>196.7</ele>
        <time>2019-08-09T09:02:10Z</time>
      </trkpt>
      <trkpt lat="48.48974" lon="7.49015">
        <ele>196.7</ele>
        <time>2019-08-09T09:02:11Z</time>
      </trkpt>
      <trkpt lat="48.48971" lon="7.49017">
        <ele>196.8</ele>
        <time>2019-08-09T09:02:12Z</time>
      </trkpt>
      <trkpt lat="48.48967" lon="7.4902">
        <ele>196.8</ele>
        <time>2019-08-09T09:02:13Z</time>
      </trkpt>
      <trkpt lat="48.48963" lon="7.49021">
        <ele>196.8</ele>
        <time>2019-08-09T09:02:14Z</time>
      </trkpt>
      <trkpt lat="48.4896" lon="7.49023">
        <ele>196.9</ele>
        <time>2019-08-09T09:02:15Z</time>
      </trkpt>
      <trkpt lat="48.48957" lon="7.49026">
        <ele>196.9</ele>
        <time>2019-08-09T09:02:16Z</time>
      </trkpt>
      <trkpt lat="48.48954" lon="7.49029">
        <ele>196.9</ele>
        <time>2019-08-09T09:02:17Z</time>
      </trkpt>
      <trkpt lat="48.4895" lon="7.49033">
        <ele>196.9</ele>
        <time>2019-08-09T09:02:18Z</time>
      </trkpt>
      <trkpt lat="48.48947" lon="7.49037">
        <ele>197</ele>
        <time>2019-08-09T09:02:19Z</time>
      </trkpt>
      <trkpt lat="48.48944" lon="7.49039">
        <ele>197</ele>
        <time>2019-08-09T09:02:20Z</time>
      </trkpt>
      <trkpt lat="48.4894" lon="7.49041">
        <ele>197</ele>
        <time>2019-08-09T09:02:21Z</time>
      </trkpt>
      <trkpt lat="48.48937" lon="7.49043">
        <ele>197.1</ele>
        <time>2019-08-09T09:02:22Z</time>
      </trkpt>
      <trkpt lat="48.48933" lon="7.49046">
        <ele>197.1</ele>
        <time>2019-08-09T09:02:23Z</time>
      </trkpt>
      <trkpt lat="48.48929" lon="7.49049">
        <ele>197.1</ele>
        <time>2019-08-09T09:02:24Z</time>
      </trkpt>
      <trkpt lat="48.48925" lon="7.49052">
        <ele>197.2</ele>
        <time>2019-08-09T09:02:25Z</time>
      </trkpt>
      <trkpt lat="48.48921" lon="7.49054">
        <ele>197.2</ele>
        <time>2019-08-09T09:02:26Z</time>
      </trkpt>
      <trkpt lat="48.48918" lon="7.49057">
        <ele>197.2</ele>
        <time>2019-08-09T09:02:27Z</time>
      </trkpt>
      <trkpt lat="48.48913" lon="7.49059">
        <ele>197.3</ele>
        <time>2019-08-09T09:02:28Z</time>
      </trkpt>
      <trkpt lat="48.48909" lon="7.49062">
        <ele>197.4</ele>
        <time>2019-08-09T09:02:29Z</time>
      </trkpt>
      <trkpt lat="48.48905" lon="7.49064">
        <ele>197.4</ele>
        <time>2019-08-09T09:02:30Z</time>
      </trkpt>
      <trkpt lat="48.48901" lon="7.49066">
        <ele>197.5</ele>
        <time>2019-08-09T09:02:31Z</time>
      </trkpt>
      <trkpt lat="48.48897" lon="7.49067">
        <ele>197.6</ele>
        <time>2019-08-09T09:02:32Z</time>
      </trkpt>
      <trkpt lat="48.48893" lon="7.49069">
        <ele>197.6</ele>
        <time>2019-08-09T09:02:33Z</time>
      </trkpt>
      <trkpt lat="48.48889" lon="7.49069">
        <ele>197.7</ele>
        <time>2019-08-09T09:02:34Z</time>
      </trkpt>
      <trkpt lat="48.48885" lon="7.49069">
        <ele>197.7</ele>
        <time>2019-08-09T09:02:35Z</time>
      </trkpt>
      <trkpt lat="48.4888" lon="7.4907">
        <ele>197.8</ele>
        <time>2019-08-09T09:02:36Z</time>
      </trkpt>
      <trkpt lat="48.48876" lon="7.49072">
        <ele>197.9</ele>
        <time>2019-08-09T09:02:37Z</time>
      </trkpt>
      <trkpt lat="48.48871" lon="7.49074">
        <ele>198</ele>
        <time>2019-08-09T09:02:38Z</time>
      </trkpt>
      <trkpt lat="48.48866" lon="7.49076">
        <ele>198</ele>
        <time>2019-08-09T09:02:39Z</time>
      </trkpt>
      <trkpt lat="48.4886" lon="7.49078">
        <ele>198</ele>
        <time>2019-08-09T09:02:40Z</time>
      </trkpt>
      <trkpt lat="48.48856" lon="7.49079">
        <ele>198</ele>
        <time>2019-08-09T09:02:41Z</time>
      </trkpt>
      <trkpt lat="48.48852" lon="7.49079">
        <ele>198</ele>
        <time>2019-08-09T09:02:42Z</time>
      </trkpt>
      <trkpt lat="48.48848" lon="7.49079">
        <ele>198</ele>
        <time>2019-08-09T09:02:43Z</time>
      </trkpt>
      <trkpt lat="48.48843" lon="7.49079">
        <ele>198</ele>
        <time>2019-08-09T09:02:44Z</time>
      </trkpt>
      <trkpt lat="48.48839" lon="7.49079">
        <ele>198</ele>
        <time>2019-08-09T09:02:45Z</time>
      </trkpt>
      <trkpt lat="48.48835" lon="7.49079">
        <ele>198.1</ele>
        <time>2019-08-09T09:02:46Z</time>
      </trkpt>
      <trkpt lat="48.48831" lon="7.49078">
        <ele>198.1</ele>
        <time>2019-08-09T09:02:47Z</time>
      </trkpt>
      <trkpt lat="48.48827" lon="7.49077">
        <ele>198.1</ele>
        <time>2019-08-09T09:02:48Z</time>
      </trkpt>
      <trkpt lat="48.48823" lon="7.49077">
        <ele>198.1</ele>
        <time>2019-08-09T09:02:49Z</time>
      </trkpt>
      <trkpt lat="48.48818" lon="7.49077">
        <ele>198.1</ele>
        <time>2019-08-09T09:02:50Z</time>
      </trkpt>
      <trkpt lat="48.48814" lon="7.49078">
        <ele>198.1</ele>
        <time>2019-08-09T09:02:51Z</time>
      </trkpt>
      <trkpt lat="48.48809" lon="7.49078">
        <ele>198.1</ele>
        <time>2019-08-09T09:02:52Z</time>
      </trkpt>
      <trkpt lat="48.48804" lon="7.4908">
        <ele>198.1</ele>
        <time>2019-08-09T09:02:53Z</time>
      </trkpt>
      <trkpt lat="48.48799" lon="7.49083">
        <ele>198.2</ele>
        <time>2019-08-09T09:02:54Z</time>
      </trkpt>
      <trkpt lat="48.48795" lon="7.49087">
        <ele>198.2</ele>
        <time>2019-08-09T09:02:55Z</time>
      </trkpt>
      <trkpt lat="48.48791" lon="7.49089">
        <ele>198.2</ele>
        <time>2019-08-09T09:02:56Z</time>
      </trkpt>
      <trkpt lat="48.48787" lon="7.49092">
        <ele>198.2</ele>
        <time>2019-08-09T09:02:57Z</time>
      </trkpt>
      <trkpt lat="48.48784" lon="7.49094">
        <ele>198.2</ele>
        <time>2019-08-09T09:02:58Z</time>
      </trkpt>
      <trkpt lat="48.4878" lon="7.49097">
        <ele>198.3</ele>
        <time>2019-08-09T09:02:59Z</time>
      </trkpt>
      <trkpt lat="48.48776" lon="7.49099">
        <ele>198.3</ele>
        <time>2019-08-09T09:03:00Z</time>
      </trkpt>
      <trkpt lat="48.48772" lon="7.49102">
        <ele>198.3</ele>
        <time>2019-08-09T09:03:01Z</time>
      </trkpt>
      <trkpt lat="48.48767" lon="7.49104">
        <ele>198.3</ele>
        <time>2019-08-09T09:03:02Z</time>
      </trkpt>
      <trkpt lat="48.48763" lon="7.49106">
        <ele>198.4</ele>
        <time>2019-08-09T09:03:03Z</time>
      </trkpt>
      <trkpt lat="48.48759" lon="7.49108">
        <ele>198.4</ele>
        <time>2019-08-09T09:03:04Z</time>
      </trkpt>
      <trkpt lat="48.48755" lon="7.4911">
        <ele>198.4</ele>
        <time>2019-08-09T09:03:05Z</time>
      </trkpt>
      <trkpt lat="48.4875" lon="7.49113">
        <ele>198.5</ele>
        <time>2019-08-09T09:03:06Z</time>
      </trkpt>
      <trkpt lat="48.48745" lon="7.49115">
        <ele>198.5</ele>
        <time>2019-08-09T09:03:07Z</time>
      </trkpt>
      <trkpt lat="48.48741" lon="7.49117">
        <ele>198.5</ele>
        <time>2019-08-09T09:03:08Z</time>
      </trkpt>
      <trkpt lat="48.48737" lon="7.49118">
        <ele>198.5</ele>
        <time>2019-08-09T09:03:09Z</time>
      </trkpt>
      <trkpt lat="48.48732" lon="7.49119">
        <ele>198.6</ele>
        <time>2019-08-09T09:03:10Z</time>
      </trkpt>
      <trkpt lat="48.48728" lon="7.4912">
        <ele>198.6</ele>
        <time>2019-08-09T09:03:11Z</time>
      </trkpt>
      <trkpt lat="48.48725" lon="7.49122">
        <ele>198.6</ele>
        <time>2019-08-09T09:03:12Z</time>
      </trkpt>
      <trkpt lat="48.48723" lon="7.49123">
        <ele>198.7</ele>
        <time>2019-08-09T09:03:13Z</time>
      </trkpt>
      <trkpt lat="48.48717" lon="7.49127">
        <ele>198.7</ele>
        <time>2019-08-09T09:03:15Z</time>
      </trkpt>
      <trkpt lat="48.48713" lon="7.49128">
        <ele>198.7</ele>
        <time>2019-08-09T09:03:16Z</time>
      </trkpt>
      <trkpt lat="48.4871" lon="7.49129">
        <ele>198.8</ele>
        <time>2019-08-09T09:03:17Z</time>
      </trkpt>
      <trkpt lat="48.48707" lon="7.49132">
        <ele>198.8</ele>
        <time>2019-08-09T09:03:19Z</time>
      </trkpt>
      <trkpt lat="48.48706" lon="7.49136">
        <ele>198.5</ele>
        <time>2019-08-09T09:03:23Z</time>
      </trkpt>
      <trkpt lat="48.48703" lon="7.49141">
        <ele>198.7</ele>
        <time>2019-08-09T09:03:26Z</time>
      </trkpt>
      <trkpt lat="48.487" lon="7.49143">
        <ele>198.8</ele>
        <time>2019-08-09T09:03:27Z</time>
      </trkpt>
      <trkpt lat="48.48697" lon="7.49147">
        <ele>199</ele>
        <time>2019-08-09T09:03:28Z</time>
      </trkpt>
      <trkpt lat="48.48694" lon="7.4915">
        <ele>199.2</ele>
        <time>2019-08-09T09:03:29Z</time>
      </trkpt>
      <trkpt lat="48.48691" lon="7.49154">
        <ele>199.3</ele>
        <time>2019-08-09T09:03:30Z</time>
      </trkpt>
      <trkpt lat="48.4869" lon="7.49158">
        <ele>199.4</ele>
        <time>2019-08-09T09:03:31Z</time>
      </trkpt>
      <trkpt lat="48.48687" lon="7.49161">
        <ele>199.5</ele>
        <time>2019-08-09T09:03:32Z</time>
      </trkpt>
      <trkpt lat="48.48684" lon="7.49163">
        <ele>199.6</ele>
        <time>2019-08-09T09:03:33Z</time>
      </trkpt>
      <trkpt lat="48.48678" lon="7.49165">
        <ele>199.7</ele>
        <time>2019-08-09T09:03:35Z</time>
      </trkpt>
      <trkpt lat="48.48675" lon="7.49167">
        <ele>199.7</ele>
        <time>2019-08-09T09:03:36Z</time>
      </trkpt>
      <trkpt lat="48.4867" lon="7.49169">
        <ele>199.8</ele>
        <time>2019-08-09T09:03:37Z</time>
      </trkpt>
      <trkpt lat="48.48667" lon="7.49171">
        <ele>199.9</ele>
        <time>2019-08-09T09:03:38Z</time>
      </trkpt>
      <trkpt lat="48.48663" lon="7.49171">
        <ele>200</ele>
        <time>2019-08-09T09:03:39Z</time>
      </trkpt>
      <trkpt lat="48.4866" lon="7.49172">
        <ele>200.1</ele>
        <time>2019-08-09T09:03:40Z</time>
      </trkpt>
      <trkpt lat="48.48656" lon="7.49173">
        <ele>200.2</ele>
        <time>2019-08-09T09:03:41Z</time>
      </trkpt>
      <trkpt lat="48.48652" lon="7.49174">
        <ele>200.3</ele>
        <time>2019-08-09T09:03:42Z</time>
      </trkpt>
      <trkpt lat="48.48647" lon="7.49173">
        <ele>200.4</ele>
        <time>2019-08-09T09:03:43Z</time>
      </trkpt>
      <trkpt lat="48.48643" lon="7.49172">
        <ele>200.5</ele>
        <time>2019-08-09T09:03:44Z</time>
      </trkpt>
      <trkpt lat="48.48639" lon="7.49171">
        <ele>200.6</ele>
        <time>2019-08-09T09:03:45Z</time>
      </trkpt>
      <trkpt lat="48.48635" lon="7.49171">
        <ele>200.7</ele>
        <time>2019-08-09T09:03:46Z</time>
      </trkpt>
      <trkpt lat="48.48631" lon="7.4917">
        <ele>200.8</ele>
        <time>2019-08-09T09:03:47Z</time>
      </trkpt>
      <trkpt lat="48.48626" lon="7.49169">
        <ele>201</ele>
        <time>2019-08-09T09:03:48Z</time>
      </trkpt>
      <trkpt lat="48.48622" lon="7.49168">
        <ele>201.1</ele>
        <time>2019-08-09T09:03:49Z</time>
      </trkpt>
      <trkpt lat="48.48617" lon="7.4917">
        <ele>201.2</ele>
        <time>2019-08-09T09:03:50Z</time>
      </trkpt>
      <trkpt lat="48.48613" lon="7.49169">
        <ele>201.4</ele>
        <time>2019-08-09T09:03:51Z</time>
      </trkpt>
      <trkpt lat="48.48607" lon="7.49169">
        <ele>201.6</ele>
        <time>2019-08-09T09:03:52Z</time>
      </trkpt>
      <trkpt lat="48.48602" lon="7.49169">
        <ele>201.9</ele>
        <time>2019-08-09T09:03:53Z</time>
      </trkpt>
      <trkpt lat="48.48597" lon="7.49168">
        <ele>202</ele>
        <time>2019-08-09T09:03:54Z</time>
      </trkpt>
      <trkpt lat="48.48592" lon="7.49164">
        <ele>202.2</ele>
        <time>2019-08-09T09:03:56Z</time>
      </trkpt>
      <trkpt lat="48.4859" lon="7.4916">
        <ele>202.3</ele>
        <time>2019-08-09T09:03:59Z</time>
      </trkpt>
      <trkpt lat="48.48587" lon="7.49159">
        <ele>202.4</ele>
        <time>2019-08-09T09:04:00Z</time>
      </trkpt>
      <trkpt lat="48.48583" lon="7.49158">
        <ele>202.5</ele>
        <time>2019-08-09T09:04:01Z</time>
      </trkpt>
      <trkpt lat="48.48579" lon="7.49156">
        <ele>202.7</ele>
        <time>2019-08-09T09:04:02Z</time>
      </trkpt>
      <trkpt lat="48.48574" lon="7.49155">
        <ele>203</ele>
        <time>2019-08-09T09:04:03Z</time>
      </trkpt>
      <trkpt lat="48.48569" lon="7.49154">
        <ele>203.3</ele>
        <time>2019-08-09T09:04:04Z</time>
      </trkpt>
      <trkpt lat="48.48563" lon="7.49153">
        <ele>203.6</ele>
        <time>2019-08-09T09:04:05Z</time>
      </trkpt>
      <trkpt lat="48.48558" lon="7.49153">
        <ele>203.8</ele>
        <time>2019-08-09T09:04:06Z</time>
      </trkpt>
      <trkpt lat="48.48553" lon="7.49152">
        <ele>204</ele>
        <time>2019-08-09T09:04:07Z</time>
      </trkpt>
      <trkpt lat="48.48548" lon="7.49151">
        <ele>204.1</ele>
        <time>2019-08-09T09:04:08Z</time>
      </trkpt>
      <trkpt lat="48.48544" lon="7.49151">
        <ele>204.2</ele>
        <time>2019-08-09T09:04:09Z</time>
      </trkpt>
      <trkpt lat="48.48539" lon="7.49151">
        <ele>204.3</ele>
        <time>2019-08-09T09:04:10Z</time>
      </trkpt>
      <trkpt lat="48.48535" lon="7.49152">
        <ele>204.3</ele>
        <time>2019-08-09T09:04:11Z</time>
      </trkpt>
      <trkpt lat="48.48532" lon="7.49151">
        <ele>204.2</ele>
        <time>2019-08-09T09:04:12Z</time>
      </trkpt>
      <trkpt lat="48.48528" lon="7.4915">
        <ele>204.1</ele>
        <time>2019-08-09T09:04:13Z</time>
      </trkpt>
      <trkpt lat="48.48524" lon="7.49149">
        <ele>204</ele>
        <time>2019-08-09T09:04:14Z</time>
      </trkpt>
      <trkpt lat="48.48519" lon="7.49148">
        <ele>203.9</ele>
        <time>2019-08-09T09:04:15Z</time>
      </trkpt>
      <trkpt lat="48.48514" lon="7.49147">
        <ele>203.8</ele>
        <time>2019-08-09T09:04:16Z</time>
      </trkpt>
      <trkpt lat="48.48509" lon="7.49146">
        <ele>203.7</ele>
        <time>2019-08-09T09:04:17Z</time>
      </trkpt>
      <trkpt lat="48.48504" lon="7.49146">
        <ele>203.6</ele>
        <time>2019-08-09T09:04:18Z</time>
      </trkpt>
      <trkpt lat="48.485" lon="7.49146">
        <ele>203.6</ele>
        <time>2019-08-09T09:04:19Z</time>
      </trkpt>
      <trkpt lat="48.48495" lon="7.49147">
        <ele>203.6</ele>
        <time>2019-08-09T09:04:20Z</time>
      </trkpt>
      <trkpt lat="48.4849" lon="7.49147">
        <ele>203.5</ele>
        <time>2019-08-09T09:04:21Z</time>
      </trkpt>
      <trkpt lat="48.48486" lon="7.49148">
        <ele>203.5</ele>
        <time>2019-08-09T09:04:22Z</time>
      </trkpt>
      <trkpt lat="48.48481" lon="7.49148">
        <ele>203.4</ele>
        <time>2019-08-09T09:04:23Z</time>
      </trkpt>
      <trkpt lat="48.48476" lon="7.49148">
        <ele>203.2</ele>
        <time>2019-08-09T09:04:24Z</time>
      </trkpt>
      <trkpt lat="48.48472" lon="7.49148">
        <ele>203.1</ele>
        <time>2019-08-09T09:04:25Z</time>
      </trkpt>
      <trkpt lat="48.48468" lon="7.49147">
        <ele>203</ele>
        <time>2019-08-09T09:04:26Z</time>
      </trkpt>
      <trkpt lat="48.48464" lon="7.49146">
        <ele>202.9</ele>
        <time>2019-08-09T09:04:27Z</time>
      </trkpt>
      <trkpt lat="48.48461" lon="7.49146">
        <ele>202.9</ele>
        <time>2019-08-09T09:04:28Z</time>
      </trkpt>
      <trkpt lat="48.48457" lon="7.49146">
        <ele>202.8</ele>
        <time>2019-08-09T09:04:29Z</time>
      </trkpt>
      <trkpt lat="48.48453" lon="7.49147">
        <ele>202.7</ele>
        <time>2019-08-09T09:04:30Z</time>
      </trkpt>
      <trkpt lat="48.4845" lon="7.49147">
        <ele>202.6</ele>
        <time>2019-08-09T09:04:31Z</time>
      </trkpt>
      <trkpt lat="48.48446" lon="7.49147">
        <ele>202.5</ele>
        <time>2019-08-09T09:04:32Z</time>
      </trkpt>
      <trkpt lat="48.48441" lon="7.49149">
        <ele>202.5</ele>
        <time>2019-08-09T09:04:34Z</time>
      </trkpt>
      <trkpt lat="48.48437" lon="7.49152">
        <ele>202.4</ele>
        <time>2019-08-09T09:04:36Z</time>
      </trkpt>
      <trkpt lat="48.48432" lon="7.49155">
        <ele>202.4</ele>
        <time>2019-08-09T09:04:38Z</time>
      </trkpt>
      <trkpt lat="48.48429" lon="7.49158">
        <ele>202.4</ele>
        <time>2019-08-09T09:04:39Z</time>
      </trkpt>
      <trkpt lat="48.48425" lon="7.49162">
        <ele>202.3</ele>
        <time>2019-08-09T09:04:41Z</time>
      </trkpt>
      <trkpt lat="48.48421" lon="7.49165">
        <ele>202.3</ele>
        <time>2019-08-09T09:04:43Z</time>
      </trkpt>
      <trkpt lat="48.48418" lon="7.49167">
        <ele>202.2</ele>
        <time>2019-08-09T09:04:44Z</time>
      </trkpt>
      <trkpt lat="48.48415" lon="7.49169">
        <ele>202</ele>
        <time>2019-08-09T09:04:45Z</time>
      </trkpt>
      <trkpt lat="48.48412" lon="7.49172">
        <ele>201.9</ele>
        <time>2019-08-09T09:04:46Z</time>
      </trkpt>
      <trkpt lat="48.48407" lon="7.49175">
        <ele>201.7</ele>
        <time>2019-08-09T09:04:48Z</time>
      </trkpt>
      <trkpt lat="48.48404" lon="7.49178">
        <ele>201.5</ele>
        <time>2019-08-09T09:04:49Z</time>
      </trkpt>
      <trkpt lat="48.48401" lon="7.4918">
        <ele>201.4</ele>
        <time>2019-08-09T09:04:50Z</time>
      </trkpt>
      <trkpt lat="48.48398" lon="7.49182">
        <ele>201.3</ele>
        <time>2019-08-09T09:04:51Z</time>
      </trkpt>
      <trkpt lat="48.48395" lon="7.49183">
        <ele>201.2</ele>
        <time>2019-08-09T09:04:52Z</time>
      </trkpt>
      <trkpt lat="48.48391" lon="7.49185">
        <ele>201</ele>
        <time>2019-08-09T09:04:53Z</time>
      </trkpt>
      <trkpt lat="48.48388" lon="7.49186">
        <ele>200.9</ele>
        <time>2019-08-09T09:04:54Z</time>
      </trkpt>
      <trkpt lat="48.48383" lon="7.49188">
        <ele>200.8</ele>
        <time>2019-08-09T09:04:55Z</time>
      </trkpt>
      <trkpt lat="48.48378" lon="7.49189">
        <ele>200.7</ele>
        <time>2019-08-09T09:04:56Z</time>
      </trkpt>
      <trkpt lat="48.48374" lon="7.49191">
        <ele>200.7</ele>
        <time>2019-08-09T09:04:57Z</time>
      </trkpt>
      <trkpt lat="48.48369" lon="7.49192">
        <ele>200.6</ele>
        <time>2019-08-09T09:04:59Z</time>
      </trkpt>
      <trkpt lat="48.48364" lon="7.49194">
        <ele>200.5</ele>
        <time>2019-08-09T09:05:00Z</time>
      </trkpt>
      <trkpt lat="48.4836" lon="7.49194">
        <ele>200.4</ele>
        <time>2019-08-09T09:05:01Z</time>
      </trkpt>
      <trkpt lat="48.48356" lon="7.49193">
        <ele>200.2</ele>
        <time>2019-08-09T09:05:02Z</time>
      </trkpt>
      <trkpt lat="48.48351" lon="7.49192">
        <ele>200</ele>
        <time>2019-08-09T09:05:03Z</time>
      </trkpt>
      <trkpt lat="48.48347" lon="7.49193">
        <ele>199.8</ele>
        <time>2019-08-09T09:05:04Z</time>
      </trkpt>
      <trkpt lat="48.48342" lon="7.49194">
        <ele>199.5</ele>
        <time>2019-08-09T09:05:05Z</time>
      </trkpt>
      <trkpt lat="48.48338" lon="7.49195">
        <ele>199.4</ele>
        <time>2019-08-09T09:05:06Z</time>
      </trkpt>
      <trkpt lat="48.48334" lon="7.49196">
        <ele>199.2</ele>
        <time>2019-08-09T09:05:07Z</time>
      </trkpt>
      <trkpt lat="48.4833" lon="7.49197">
        <ele>199.1</ele>
        <time>2019-08-09T09:05:08Z</time>
      </trkpt>
      <trkpt lat="48.48326" lon="7.49198">
        <ele>199.1</ele>
        <time>2019-08-09T09:05:09Z</time>
      </trkpt>
      <trkpt lat="48.48322" lon="7.49198">
        <ele>199</ele>
        <time>2019-08-09T09:05:10Z</time>
      </trkpt>
      <trkpt lat="48.48317" lon="7.49199">
        <ele>199</ele>
        <time>2019-08-09T09:05:11Z</time>
      </trkpt>
      <trkpt lat="48.48313" lon="7.49201">
        <ele>199</ele>
        <time>2019-08-09T09:05:12Z</time>
      </trkpt>
      <trkpt lat="48.48308" lon="7.49202">
        <ele>199</ele>
        <time>2019-08-09T09:05:13Z</time>
      </trkpt>
      <trkpt lat="48.48304" lon="7.49203">
        <ele>199</ele>
        <time>2019-08-09T09:05:14Z</time>
      </trkpt>
      <trkpt lat="48.48299" lon="7.49203">
        <ele>198.9</ele>
        <time>2019-08-09T09:05:15Z</time>
      </trkpt>
      <trkpt lat="48.48294" lon="7.49203">
        <ele>198.9</ele>
        <time>2019-08-09T09:05:16Z</time>
      </trkpt>
      <trkpt lat="48.4829" lon="7.49203">
        <ele>198.9</ele>
        <time>2019-08-09T09:05:17Z</time>
      </trkpt>
      <trkpt lat="48.48286" lon="7.49202">
        <ele>198.9</ele>
        <time>2019-08-09T09:05:18Z</time>
      </trkpt>
      <trkpt lat="48.48281" lon="7.49201">
        <ele>198.9</ele>
        <time>2019-08-09T09:05:19Z</time>
      </trkpt>
      <trkpt lat="48.48277" lon="7.49201">
        <ele>198.9</ele>
        <time>2019-08-09T09:05:20Z</time>
      </trkpt>
      <trkpt lat="48.48272" lon="7.492">
        <ele>198.9</ele>
        <time>2019-08-09T09:05:21Z</time>
      </trkpt>
      <trkpt lat="48.48268" lon="7.49199">
        <ele>198.9</ele>
        <time>2019-08-09T09:05:22Z</time>
      </trkpt>
      <trkpt lat="48.48263" lon="7.49199">
        <ele>198.9</ele>
        <time>2019-08-09T09:05:23Z</time>
      </trkpt>
      <trkpt lat="48.48259" lon="7.49199">
        <ele>198.9</ele>
        <time>2019-08-09T09:05:24Z</time>
      </trkpt>
      <trkpt lat="48.48255" lon="7.49199">
        <ele>198.8</ele>
        <time>2019-08-09T09:05:25Z</time>
      </trkpt>
      <trkpt lat="48.48251" lon="7.49198">
        <ele>198.8</ele>
        <time>2019-08-09T09:05:26Z</time>
      </trkpt>
      <trkpt lat="48.48248" lon="7.49197">
        <ele>198.8</ele>
        <time>2019-08-09T09:05:27Z</time>
      </trkpt>
      <trkpt lat="48.48243" lon="7.49197">
        <ele>198.8</ele>
        <time>2019-08-09T09:05:28Z</time>
      </trkpt>
      <trkpt lat="48.48238" lon="7.49196">
        <ele>198.8</ele>
        <time>2019-08-09T09:05:29Z</time>
      </trkpt>
      <trkpt lat="48.48234" lon="7.49194">
        <ele>198.8</ele>
        <time>2019-08-09T09:05:30Z</time>
      </trkpt>
      <trkpt lat="48.48229" lon="7.49192">
        <ele>198.8</ele>
        <time>2019-08-09T09:05:31Z</time>
      </trkpt>
      <trkpt lat="48.48224" lon="7.49193">
        <ele>198.8</ele>
        <time>2019-08-09T09:05:32Z</time>
      </trkpt>
      <trkpt lat="48.4822" lon="7.49192">
        <ele>198.8</ele>
        <time>2019-08-09T09:05:33Z</time>
      </trkpt>
      <trkpt lat="48.48215" lon="7.49192">
        <ele>198.8</ele>
        <time>2019-08-09T09:05:34Z</time>
      </trkpt>
      <trkpt lat="48.48212" lon="7.49189">
        <ele>198.8</ele>
        <time>2019-08-09T09:05:35Z</time>
      </trkpt>
      <trkpt lat="48.48208" lon="7.49188">
        <ele>198.8</ele>
        <time>2019-08-09T09:05:36Z</time>
      </trkpt>
      <trkpt lat="48.48204" lon="7.49188">
        <ele>198.8</ele>
        <time>2019-08-09T09:05:37Z</time>
      </trkpt>
      <trkpt lat="48.48201" lon="7.49188">
        <ele>198.8</ele>
        <time>2019-08-09T09:05:38Z</time>
      </trkpt>
      <trkpt lat="48.48198" lon="7.49187">
        <ele>198.8</ele>
        <time>2019-08-09T09:05:39Z</time>
      </trkpt>
      <trkpt lat="48.48193" lon="7.49187">
        <ele>198.8</ele>
        <time>2019-08-09T09:05:40Z</time>
      </trkpt>
      <trkpt lat="48.4819" lon="7.49185">
        <ele>198.8</ele>
        <time>2019-08-09T09:05:41Z</time>
      </trkpt>
      <trkpt lat="48.48186" lon="7.49185">
        <ele>198.8</ele>
        <time>2019-08-09T09:05:42Z</time>
      </trkpt>
      <trkpt lat="48.48182" lon="7.49184">
        <ele>198.9</ele>
        <time>2019-08-09T09:05:43Z</time>
      </trkpt>
      <trkpt lat="48.48178" lon="7.49184">
        <ele>198.9</ele>
        <time>2019-08-09T09:05:44Z</time>
      </trkpt>
      <trkpt lat="48.48175" lon="7.49184">
        <ele>198.9</ele>
        <time>2019-08-09T09:05:45Z</time>
      </trkpt>
      <trkpt lat="48.48171" lon="7.49184">
        <ele>198.9</ele>
        <time>2019-08-09T09:05:46Z</time>
      </trkpt>
      <trkpt lat="48.48167" lon="7.49183">
        <ele>199</ele>
        <time>2019-08-09T09:05:47Z</time>
      </trkpt>
      <trkpt lat="48.48163" lon="7.49182">
        <ele>199</ele>
        <time>2019-08-09T09:05:48Z</time>
      </trkpt>
      <trkpt lat="48.48158" lon="7.49183">
        <ele>199</ele>
        <time>2019-08-09T09:05:49Z</time>
      </trkpt>
      <trkpt lat="48.48153" lon="7.49184">
        <ele>199</ele>
        <time>2019-08-09T09:05:50Z</time>
      </trkpt>
      <trkpt lat="48.48147" lon="7.49185">
        <ele>199</ele>
        <time>2019-08-09T09:05:51Z</time>
      </trkpt>
      <trkpt lat="48.48141" lon="7.49185">
        <ele>199</ele>
        <time>2019-08-09T09:05:52Z</time>
      </trkpt>
      <trkpt lat="48.48136" lon="7.49185">
        <ele>198.9</ele>
        <time>2019-08-09T09:05:53Z</time>
      </trkpt>
      <trkpt lat="48.48131" lon="7.49186">
        <ele>198.9</ele>
        <time>2019-08-09T09:05:54Z</time>
      </trkpt>
      <trkpt lat="48.48127" lon="7.49186">
        <ele>198.8</ele>
        <time>2019-08-09T09:05:55Z</time>
      </trkpt>
      <trkpt lat="48.48122" lon="7.49187">
        <ele>198.7</ele>
        <time>2019-08-09T09:05:56Z</time>
      </trkpt>
      <trkpt lat="48.48117" lon="7.49187">
        <ele>198.6</ele>
        <time>2019-08-09T09:05:57Z</time>
      </trkpt>
      <trkpt lat="48.48112" lon="7.49187">
        <ele>198.5</ele>
        <time>2019-08-09T09:05:58Z</time>
      </trkpt>
      <trkpt lat="48.48106" lon="7.49189">
        <ele>198.5</ele>
        <time>2019-08-09T09:05:59Z</time>
      </trkpt>
      <trkpt lat="48.481" lon="7.49191">
        <ele>198.3</ele>
        <time>2019-08-09T09:06:00Z</time>
      </trkpt>
      <trkpt lat="48.48095" lon="7.49191">
        <ele>198.3</ele>
        <time>2019-08-09T09:06:01Z</time>
      </trkpt>
      <trkpt lat="48.4809" lon="7.49193">
        <ele>198.2</ele>
        <time>2019-08-09T09:06:02Z</time>
      </trkpt>
      <trkpt lat="48.48084" lon="7.49194">
        <ele>198.1</ele>
        <time>2019-08-09T09:06:03Z</time>
      </trkpt>
      <trkpt lat="48.48079" lon="7.49195">
        <ele>198</ele>
        <time>2019-08-09T09:06:04Z</time>
      </trkpt>
      <trkpt lat="48.48074" lon="7.49194">
        <ele>197.9</ele>
        <time>2019-08-09T09:06:05Z</time>
      </trkpt>
      <trkpt lat="48.48069" lon="7.49194">
        <ele>197.9</ele>
        <time>2019-08-09T09:06:06Z</time>
      </trkpt>
      <trkpt lat="48.48063" lon="7.49194">
        <ele>197.8</ele>
        <time>2019-08-09T09:06:07Z</time>
      </trkpt>
      <trkpt lat="48.48057" lon="7.49196">
        <ele>197.7</ele>
        <time>2019-08-09T09:06:08Z</time>
      </trkpt>
      <trkpt lat="48.48052" lon="7.49196">
        <ele>197.7</ele>
        <time>2019-08-09T09:06:09Z</time>
      </trkpt>
      <trkpt lat="48.48047" lon="7.49195">
        <ele>197.7</ele>
        <time>2019-08-09T09:06:10Z</time>
      </trkpt>
      <trkpt lat="48.48042" lon="7.49194">
        <ele>197.6</ele>
        <time>2019-08-09T09:06:11Z</time>
      </trkpt>
      <trkpt lat="48.48038" lon="7.49194">
        <ele>197.6</ele>
        <time>2019-08-09T09:06:12Z</time>
      </trkpt>
      <trkpt lat="48.48034" lon="7.49193">
        <ele>197.5</ele>
        <time>2019-08-09T09:06:13Z</time>
      </trkpt>
      <trkpt lat="48.48029" lon="7.49193">
        <ele>197.5</ele>
        <time>2019-08-09T09:06:14Z</time>
      </trkpt>
      <trkpt lat="48.48024" lon="7.49194">
        <ele>197.4</ele>
        <time>2019-08-09T09:06:15Z</time>
      </trkpt>
      <trkpt lat="48.48018" lon="7.49194">
        <ele>197.4</ele>
        <time>2019-08-09T09:06:16Z</time>
      </trkpt>
      <trkpt lat="48.48012" lon="7.49194">
        <ele>197.4</ele>
        <time>2019-08-09T09:06:17Z</time>
      </trkpt>
      <trkpt lat="48.48006" lon="7.49195">
        <ele>197.3</ele>
        <time>2019-08-09T09:06:18Z</time>
      </trkpt>
      <trkpt lat="48.48" lon="7.49196">
        <ele>197</ele>
        <time>2019-08-09T09:06:19Z</time>
      </trkpt>
      <trkpt lat="48.47995" lon="7.49197">
        <ele>196.7</ele>
        <time>2019-08-09T09:06:20Z</time>
      </trkpt>
      <trkpt lat="48.4799" lon="7.49198">
        <ele>196.4</ele>
        <time>2019-08-09T09:06:21Z</time>
      </trkpt>
      <trkpt lat="48.47985" lon="7.49197">
        <ele>196.2</ele>
        <time>2019-08-09T09:06:22Z</time>
      </trkpt>
      <trkpt lat="48.4798" lon="7.49196">
        <ele>195.9</ele>
        <time>2019-08-09T09:06:23Z</time>
      </trkpt>
      <trkpt lat="48.47976" lon="7.49196">
        <ele>195.7</ele>
        <time>2019-08-09T09:06:24Z</time>
      </trkpt>
      <trkpt lat="48.47972" lon="7.49196">
        <ele>195.5</ele>
        <time>2019-08-09T09:06:25Z</time>
      </trkpt>
      <trkpt lat="48.47968" lon="7.49196">
        <ele>195.4</ele>
        <time>2019-08-09T09:06:26Z</time>
      </trkpt>
      <trkpt lat="48.47965" lon="7.49196">
        <ele>195.3</ele>
        <time>2019-08-09T09:06:27Z</time>
      </trkpt>
      <trkpt lat="48.47962" lon="7.49197">
        <ele>195.2</ele>
        <time>2019-08-09T09:06:28Z</time>
      </trkpt>
      <trkpt lat="48.47958" lon="7.49199">
        <ele>195.2</ele>
        <time>2019-08-09T09:06:29Z</time>
      </trkpt>
      <trkpt lat="48.47954" lon="7.492">
        <ele>195.1</ele>
        <time>2019-08-09T09:06:30Z</time>
      </trkpt>
      <trkpt lat="48.4795" lon="7.49201">
        <ele>195</ele>
        <time>2019-08-09T09:06:31Z</time>
      </trkpt>
      <trkpt lat="48.47946" lon="7.49203">
        <ele>195</ele>
        <time>2019-08-09T09:06:32Z</time>
      </trkpt>
      <trkpt lat="48.47941" lon="7.49204">
        <ele>195</ele>
        <time>2019-08-09T09:06:33Z</time>
      </trkpt>
      <trkpt lat="48.47936" lon="7.49206">
        <ele>194.9</ele>
        <time>2019-08-09T09:06:34Z</time>
      </trkpt>
      <trkpt lat="48.47931" lon="7.49209">
        <ele>194.9</ele>
        <time>2019-08-09T09:06:35Z</time>
      </trkpt>
      <trkpt lat="48.47926" lon="7.4921">
        <ele>194.8</ele>
        <time>2019-08-09T09:06:36Z</time>
      </trkpt>
      <trkpt lat="48.47922" lon="7.49212">
        <ele>194.8</ele>
        <time>2019-08-09T09:06:37Z</time>
      </trkpt>
      <trkpt lat="48.47916" lon="7.49214">
        <ele>194.7</ele>
        <time>2019-08-09T09:06:38Z</time>
      </trkpt>
      <trkpt lat="48.47912" lon="7.49217">
        <ele>194.6</ele>
        <time>2019-08-09T09:06:39Z</time>
      </trkpt>
      <trkpt lat="48.47907" lon="7.49218">
        <ele>194.5</ele>
        <time>2019-08-09T09:06:40Z</time>
      </trkpt>
      <trkpt lat="48.47903" lon="7.4922">
        <ele>194.4</ele>
        <time>2019-08-09T09:06:41Z</time>
      </trkpt>
      <trkpt lat="48.47898" lon="7.49221">
        <ele>194.3</ele>
        <time>2019-08-09T09:06:42Z</time>
      </trkpt>
      <trkpt lat="48.47894" lon="7.49222">
        <ele>194.2</ele>
        <time>2019-08-09T09:06:43Z</time>
      </trkpt>
      <trkpt lat="48.47889" lon="7.49224">
        <ele>194.1</ele>
        <time>2019-08-09T09:06:44Z</time>
      </trkpt>
      <trkpt lat="48.47885" lon="7.49225">
        <ele>194</ele>
        <time>2019-08-09T09:06:45Z</time>
      </trkpt>
      <trkpt lat="48.47882" lon="7.49227">
        <ele>193.9</ele>
        <time>2019-08-09T09:06:46Z</time>
      </trkpt>
      <trkpt lat="48.47876" lon="7.49229">
        <ele>193.8</ele>
        <time>2019-08-09T09:06:47Z</time>
      </trkpt>
      <trkpt lat="48.47873" lon="7.49231">
        <ele>193.7</ele>
        <time>2019-08-09T09:06:48Z</time>
      </trkpt>
      <trkpt lat="48.47869" lon="7.49233">
        <ele>193.6</ele>
        <time>2019-08-09T09:06:49Z</time>
      </trkpt>
      <trkpt lat="48.47865" lon="7.49236">
        <ele>193.5</ele>
        <time>2019-08-09T09:06:50Z</time>
      </trkpt>
      <trkpt lat="48.47861" lon="7.49238">
        <ele>193.4</ele>
        <time>2019-08-09T09:06:51Z</time>
      </trkpt>
      <trkpt lat="48.47857" lon="7.4924">
        <ele>193.6</ele>
        <time>2019-08-09T09:06:52Z</time>
      </trkpt>
      <trkpt lat="48.47853" lon="7.49242">
        <ele>193.7</ele>
        <time>2019-08-09T09:06:53Z</time>
      </trkpt>
      <trkpt lat="48.4785" lon="7.49244">
        <ele>193.8</ele>
        <time>2019-08-09T09:06:54Z</time>
      </trkpt>
      <trkpt lat="48.47846" lon="7.49245">
        <ele>193.9</ele>
        <time>2019-08-09T09:06:55Z</time>
      </trkpt>
      <trkpt lat="48.47842" lon="7.49246">
        <ele>194.1</ele>
        <time>2019-08-09T09:06:56Z</time>
      </trkpt>
      <trkpt lat="48.47838" lon="7.49248">
        <ele>194.2</ele>
        <time>2019-08-09T09:06:57Z</time>
      </trkpt>
      <trkpt lat="48.47834" lon="7.4925">
        <ele>194.4</ele>
        <time>2019-08-09T09:06:58Z</time>
      </trkpt>
      <trkpt lat="48.4783" lon="7.49252">
        <ele>194.5</ele>
        <time>2019-08-09T09:06:59Z</time>
      </trkpt>
      <trkpt lat="48.47826" lon="7.49253">
        <ele>194.7</ele>
        <time>2019-08-09T09:07:00Z</time>
      </trkpt>
      <trkpt lat="48.47823" lon="7.49254">
        <ele>194.8</ele>
        <time>2019-08-09T09:07:01Z</time>
      </trkpt>
      <trkpt lat="48.47819" lon="7.49257">
        <ele>195</ele>
        <time>2019-08-09T09:07:02Z</time>
      </trkpt>
      <trkpt lat="48.47815" lon="7.4926">
        <ele>195.2</ele>
        <time>2019-08-09T09:07:03Z</time>
      </trkpt>
      <trkpt lat="48.4781" lon="7.49263">
        <ele>195.4</ele>
        <time>2019-08-09T09:07:04Z</time>
      </trkpt>
      <trkpt lat="48.47807" lon="7.49266">
        <ele>195.6</ele>
        <time>2019-08-09T09:07:05Z</time>
      </trkpt>
      <trkpt lat="48.47803" lon="7.49269">
        <ele>195.8</ele>
        <time>2019-08-09T09:07:06Z</time>
      </trkpt>
      <trkpt lat="48.47799" lon="7.49273">
        <ele>196</ele>
        <time>2019-08-09T09:07:07Z</time>
      </trkpt>
      <trkpt lat="48.47795" lon="7.49277">
        <ele>196.3</ele>
        <time>2019-08-09T09:07:08Z</time>
      </trkpt>
      <trkpt lat="48.47791" lon="7.4928">
        <ele>196.5</ele>
        <time>2019-08-09T09:07:09Z</time>
      </trkpt>
      <trkpt lat="48.47788" lon="7.49283">
        <ele>196.7</ele>
        <time>2019-08-09T09:07:10Z</time>
      </trkpt>
      <trkpt lat="48.47784" lon="7.49286">
        <ele>196.9</ele>
        <time>2019-08-09T09:07:11Z</time>
      </trkpt>
      <trkpt lat="48.47781" lon="7.49288">
        <ele>197.1</ele>
        <time>2019-08-09T09:07:12Z</time>
      </trkpt>
      <trkpt lat="48.47777" lon="7.49291">
        <ele>197.4</ele>
        <time>2019-08-09T09:07:13Z</time>
      </trkpt>
      <trkpt lat="48.47773" lon="7.49294">
        <ele>197.7</ele>
        <time>2019-08-09T09:07:14Z</time>
      </trkpt>
      <trkpt lat="48.47769" lon="7.49296">
        <ele>198</ele>
        <time>2019-08-09T09:07:15Z</time>
      </trkpt>
      <trkpt lat="48.47765" lon="7.49299">
        <ele>198.3</ele>
        <time>2019-08-09T09:07:16Z</time>
      </trkpt>
      <trkpt lat="48.47761" lon="7.49301">
        <ele>198.4</ele>
        <time>2019-08-09T09:07:17Z</time>
      </trkpt>
      <trkpt lat="48.47757" lon="7.49304">
        <ele>198.6</ele>
        <time>2019-08-09T09:07:18Z</time>
      </trkpt>
      <trkpt lat="48.47754" lon="7.49306">
        <ele>198.8</ele>
        <time>2019-08-09T09:07:19Z</time>
      </trkpt>
      <trkpt lat="48.4775" lon="7.49307">
        <ele>198.9</ele>
        <time>2019-08-09T09:07:20Z</time>
      </trkpt>
      <trkpt lat="48.47746" lon="7.49309">
        <ele>199.1</ele>
        <time>2019-08-09T09:07:21Z</time>
      </trkpt>
      <trkpt lat="48.47743" lon="7.49309">
        <ele>199.3</ele>
        <time>2019-08-09T09:07:22Z</time>
      </trkpt>
      <trkpt lat="48.47739" lon="7.49309">
        <ele>199.5</ele>
        <time>2019-08-09T09:07:23Z</time>
      </trkpt>
      <trkpt lat="48.47735" lon="7.49309">
        <ele>199.7</ele>
        <time>2019-08-09T09:07:24Z</time>
      </trkpt>
      <trkpt lat="48.47732" lon="7.49308">
        <ele>199.8</ele>
        <time>2019-08-09T09:07:25Z</time>
      </trkpt>
      <trkpt lat="48.47729" lon="7.49307">
        <ele>200</ele>
        <time>2019-08-09T09:07:26Z</time>
      </trkpt>
      <trkpt lat="48.47726" lon="7.49305">
        <ele>200.2</ele>
        <time>2019-08-09T09:07:27Z</time>
      </trkpt>
      <trkpt lat="48.47723" lon="7.49303">
        <ele>200.4</ele>
        <time>2019-08-09T09:07:28Z</time>
      </trkpt>
      <trkpt lat="48.47719" lon="7.49301">
        <ele>200.5</ele>
        <time>2019-08-09T09:07:29Z</time>
      </trkpt>
      <trkpt lat="48.47717" lon="7.493">
        <ele>200.7</ele>
        <time>2019-08-09T09:07:30Z</time>
      </trkpt>
      <trkpt lat="48.47713" lon="7.49298">
        <ele>200.9</ele>
        <time>2019-08-09T09:07:31Z</time>
      </trkpt>
      <trkpt lat="48.4771" lon="7.49296">
        <ele>201.1</ele>
        <time>2019-08-09T09:07:32Z</time>
      </trkpt>
      <trkpt lat="48.47706" lon="7.49294">
        <ele>201.3</ele>
        <time>2019-08-09T09:07:33Z</time>
      </trkpt>
      <trkpt lat="48.47703" lon="7.49291">
        <ele>201.4</ele>
        <time>2019-08-09T09:07:34Z</time>
      </trkpt>
      <trkpt lat="48.477" lon="7.49289">
        <ele>201.6</ele>
        <time>2019-08-09T09:07:35Z</time>
      </trkpt>
      <trkpt lat="48.47697" lon="7.49286">
        <ele>201.7</ele>
        <time>2019-08-09T09:07:36Z</time>
      </trkpt>
      <trkpt lat="48.47693" lon="7.49283">
        <ele>201.9</ele>
        <time>2019-08-09T09:07:37Z</time>
      </trkpt>
      <trkpt lat="48.4769" lon="7.49281">
        <ele>202</ele>
        <time>2019-08-09T09:07:38Z</time>
      </trkpt>
      <trkpt lat="48.47687" lon="7.4928">
        <ele>202.1</ele>
        <time>2019-08-09T09:07:39Z</time>
      </trkpt>
      <trkpt lat="48.47685" lon="7.49279">
        <ele>202.2</ele>
        <time>2019-08-09T09:07:40Z</time>
      </trkpt>
      <trkpt lat="48.47681" lon="7.49276">
        <ele>202.4</ele>
        <time>2019-08-09T09:07:42Z</time>
      </trkpt>
      <trkpt lat="48.47678" lon="7.49272">
        <ele>202.5</ele>
        <time>2019-08-09T09:07:44Z</time>
      </trkpt>
      <trkpt lat="48.47675" lon="7.49269">
        <ele>202.6</ele>
        <time>2019-08-09T09:07:45Z</time>
      </trkpt>
      <trkpt lat="48.47672" lon="7.49263">
        <ele>202.8</ele>
        <time>2019-08-09T09:07:47Z</time>
      </trkpt>
      <trkpt lat="48.4767" lon="7.49259">
        <ele>202.8</ele>
        <time>2019-08-09T09:07:48Z</time>
      </trkpt>
      <trkpt lat="48.47665" lon="7.49254">
        <ele>203</ele>
        <time>2019-08-09T09:07:50Z</time>
      </trkpt>
      <trkpt lat="48.47663" lon="7.49251">
        <ele>203.1</ele>
        <time>2019-08-09T09:07:51Z</time>
      </trkpt>
      <trkpt lat="48.47661" lon="7.49249">
        <ele>203.1</ele>
        <time>2019-08-09T09:07:52Z</time>
      </trkpt>
      <trkpt lat="48.47658" lon="7.49243">
        <ele>203.3</ele>
        <time>2019-08-09T09:07:54Z</time>
      </trkpt>
      <trkpt lat="48.47655" lon="7.4924">
        <ele>203.8</ele>
        <time>2019-08-09T09:07:55Z</time>
      </trkpt>
      <trkpt lat="48.47652" lon="7.49236">
        <ele>204.1</ele>
        <time>2019-08-09T09:07:56Z</time>
      </trkpt>
      <trkpt lat="48.47651" lon="7.49232">
        <ele>204.4</ele>
        <time>2019-08-09T09:07:57Z</time>
      </trkpt>
      <trkpt lat="48.47648" lon="7.49229">
        <ele>204.6</ele>
        <time>2019-08-09T09:07:58Z</time>
      </trkpt>
      <trkpt lat="48.47645" lon="7.49224">
        <ele>204.8</ele>
        <time>2019-08-09T09:07:59Z</time>
      </trkpt>
      <trkpt lat="48.47643" lon="7.49221">
        <ele>205</ele>
        <time>2019-08-09T09:08:00Z</time>
      </trkpt>
      <trkpt lat="48.47641" lon="7.49218">
        <ele>205.2</ele>
        <time>2019-08-09T09:08:01Z</time>
      </trkpt>
      <trkpt lat="48.47639" lon="7.49215">
        <ele>205.4</ele>
        <time>2019-08-09T09:08:02Z</time>
      </trkpt>
      <trkpt lat="48.47636" lon="7.49211">
        <ele>205.6</ele>
        <time>2019-08-09T09:08:03Z</time>
      </trkpt>
      <trkpt lat="48.47634" lon="7.49208">
        <ele>205.8</ele>
        <time>2019-08-09T09:08:04Z</time>
      </trkpt>
      <trkpt lat="48.47631" lon="7.49204">
        <ele>206</ele>
        <time>2019-08-09T09:08:05Z</time>
      </trkpt>
      <trkpt lat="48.47629" lon="7.49201">
        <ele>206.2</ele>
        <time>2019-08-09T09:08:06Z</time>
      </trkpt>
      <trkpt lat="48.47626" lon="7.49197">
        <ele>206.4</ele>
        <time>2019-08-09T09:08:07Z</time>
      </trkpt>
      <trkpt lat="48.47623" lon="7.49193">
        <ele>206.6</ele>
        <time>2019-08-09T09:08:08Z</time>
      </trkpt>
      <trkpt lat="48.4762" lon="7.4919">
        <ele>206.8</ele>
        <time>2019-08-09T09:08:09Z</time>
      </trkpt>
      <trkpt lat="48.47617" lon="7.49187">
        <ele>207</ele>
        <time>2019-08-09T09:08:10Z</time>
      </trkpt>
      <trkpt lat="48.47614" lon="7.49184">
        <ele>207.2</ele>
        <time>2019-08-09T09:08:11Z</time>
      </trkpt>
      <trkpt lat="48.47612" lon="7.49182">
        <ele>207.4</ele>
        <time>2019-08-09T09:08:12Z</time>
      </trkpt>
      <trkpt lat="48.4761" lon="7.49178">
        <ele>207.5</ele>
        <time>2019-08-09T09:08:13Z</time>
      </trkpt>
      <trkpt lat="48.47608" lon="7.49175">
        <ele>207.7</ele>
        <time>2019-08-09T09:08:14Z</time>
      </trkpt>
      <trkpt lat="48.47606" lon="7.49171">
        <ele>207.8</ele>
        <time>2019-08-09T09:08:15Z</time>
      </trkpt>
      <trkpt lat="48.47603" lon="7.49167">
        <ele>207.9</ele>
        <time>2019-08-09T09:08:16Z</time>
      </trkpt>
      <trkpt lat="48.476" lon="7.49163">
        <ele>208.1</ele>
        <time>2019-08-09T09:08:17Z</time>
      </trkpt>
      <trkpt lat="48.47598" lon="7.4916">
        <ele>208.2</ele>
        <time>2019-08-09T09:08:18Z</time>
      </trkpt>
      <trkpt lat="48.47594" lon="7.49158">
        <ele>208.3</ele>
        <time>2019-08-09T09:08:19Z</time>
      </trkpt>
      <trkpt lat="48.47591" lon="7.49155">
        <ele>208.4</ele>
        <time>2019-08-09T09:08:20Z</time>
      </trkpt>
      <trkpt lat="48.47589" lon="7.49153">
        <ele>208.5</ele>
        <time>2019-08-09T09:08:21Z</time>
      </trkpt>
      <trkpt lat="48.47587" lon="7.4915">
        <ele>208.6</ele>
        <time>2019-08-09T09:08:22Z</time>
      </trkpt>
      <trkpt lat="48.47583" lon="7.49145">
        <ele>208.8</ele>
        <time>2019-08-09T09:08:24Z</time>
      </trkpt>
      <trkpt lat="48.47578" lon="7.49142">
        <ele>209</ele>
        <time>2019-08-09T09:08:26Z</time>
      </trkpt>
      <trkpt lat="48.47575" lon="7.49139">
        <ele>209.1</ele>
        <time>2019-08-09T09:08:27Z</time>
      </trkpt>
      <trkpt lat="48.47572" lon="7.49136">
        <ele>209.2</ele>
        <time>2019-08-09T09:08:28Z</time>
      </trkpt>
      <trkpt lat="48.4757" lon="7.49132">
        <ele>209.3</ele>
        <time>2019-08-09T09:08:29Z</time>
      </trkpt>
      <trkpt lat="48.47568" lon="7.49129">
        <ele>209.4</ele>
        <time>2019-08-09T09:08:30Z</time>
      </trkpt>
      <trkpt lat="48.47565" lon="7.49126">
        <ele>209.6</ele>
        <time>2019-08-09T09:08:31Z</time>
      </trkpt>
      <trkpt lat="48.47562" lon="7.49123">
        <ele>209.7</ele>
        <time>2019-08-09T09:08:32Z</time>
      </trkpt>
      <trkpt lat="48.47559" lon="7.4912">
        <ele>209.8</ele>
        <time>2019-08-09T09:08:33Z</time>
      </trkpt>
      <trkpt lat="48.47557" lon="7.49118">
        <ele>209.9</ele>
        <time>2019-08-09T09:08:34Z</time>
      </trkpt>
      <trkpt lat="48.47553" lon="7.49114">
        <ele>210.1</ele>
        <time>2019-08-09T09:08:36Z</time>
      </trkpt>
      <trkpt lat="48.4755" lon="7.49111">
        <ele>210.2</ele>
        <time>2019-08-09T09:08:39Z</time>
      </trkpt>
      <trkpt lat="48.47547" lon="7.49109">
        <ele>210.1</ele>
        <time>2019-08-09T09:08:41Z</time>
      </trkpt>
      <trkpt lat="48.47543" lon="7.49105">
        <ele>210.1</ele>
        <time>2019-08-09T09:08:43Z</time>
      </trkpt>
      <trkpt lat="48.47541" lon="7.49102">
        <ele>210.1</ele>
        <time>2019-08-09T09:08:45Z</time>
      </trkpt>
      <trkpt lat="48.47538" lon="7.491">
        <ele>210.1</ele>
        <time>2019-08-09T09:08:48Z</time>
      </trkpt>
      <trkpt lat="48.47535" lon="7.49101">
        <ele>210.1</ele>
        <time>2019-08-09T09:08:55Z</time>
      </trkpt>
      <trkpt lat="48.47542" lon="7.49097">
        <ele>210.1</ele>
        <time>2019-08-09T09:11:06Z</time>
      </trkpt>
      <trkpt lat="48.47545" lon="7.49098">
        <ele>210.1</ele>
        <time>2019-08-09T09:11:08Z</time>
      </trkpt>
      <trkpt lat="48.47546" lon="7.49094">
        <ele>210.1</ele>
        <time>2019-08-09T09:11:13Z</time>
      </trkpt>
      <trkpt lat="48.47547" lon="7.49089">
        <ele>210.1</ele>
        <time>2019-08-09T09:11:49Z</time>
      </trkpt>
      <trkpt lat="48.47546" lon="7.49093">
        <ele>210.1</ele>
        <time>2019-08-09T09:11:53Z</time>
      </trkpt>
      <trkpt lat="48.47544" lon="7.49096">
        <ele>210.1</ele>
        <time>2019-08-09T09:11:57Z</time>
      </trkpt>
      <trkpt lat="48.47549" lon="7.49099">
        <ele>210.1</ele>
        <time>2019-08-09T09:32:24Z</time>
      </trkpt>
      <trkpt lat="48.47546" lon="7.49098">
        <ele>210.1</ele>
        <time>2019-08-09T09:32:36Z</time>
      </trkpt>
      <trkpt lat="48.4755" lon="7.49096">
        <ele>210</ele>
        <time>2019-08-09T09:33:47Z</time>
      </trkpt>
      <trkpt lat="48.47552" lon="7.49098">
        <ele>210</ele>
        <time>2019-08-09T09:33:51Z</time>
      </trkpt>
      <trkpt lat="48.47541" lon="7.49097">
        <ele>210</ele>
        <time>2019-08-09T09:37:51Z</time>
      </trkpt>
      <trkpt lat="48.47534" lon="7.49093">
        <ele>209.9</ele>
        <time>2019-08-09T09:37:53Z</time>
      </trkpt>
      <trkpt lat="48.4753" lon="7.4909">
        <ele>209.8</ele>
        <time>2019-08-09T09:37:54Z</time>
      </trkpt>
      <trkpt lat="48.47527" lon="7.49087">
        <ele>209.7</ele>
        <time>2019-08-09T09:37:55Z</time>
      </trkpt>
      <trkpt lat="48.47524" lon="7.49085">
        <ele>209.6</ele>
        <time>2019-08-09T09:37:56Z</time>
      </trkpt>
      <trkpt lat="48.47519" lon="7.49081">
        <ele>209.5</ele>
        <time>2019-08-09T09:37:57Z</time>
      </trkpt>
      <trkpt lat="48.47515" lon="7.49078">
        <ele>209.3</ele>
        <time>2019-08-09T09:37:58Z</time>
      </trkpt>
      <trkpt lat="48.4751" lon="7.49075">
        <ele>209.2</ele>
        <time>2019-08-09T09:37:59Z</time>
      </trkpt>
      <trkpt lat="48.47505" lon="7.49072">
        <ele>209</ele>
        <time>2019-08-09T09:38:00Z</time>
      </trkpt>
      <trkpt lat="48.47499" lon="7.4907">
        <ele>208.9</ele>
        <time>2019-08-09T09:38:01Z</time>
      </trkpt>
      <trkpt lat="48.47494" lon="7.49068">
        <ele>208.7</ele>
        <time>2019-08-09T09:38:02Z</time>
      </trkpt>
      <trkpt lat="48.47489" lon="7.49065">
        <ele>208.5</ele>
        <time>2019-08-09T09:38:03Z</time>
      </trkpt>
      <trkpt lat="48.47483" lon="7.49063">
        <ele>208.3</ele>
        <time>2019-08-09T09:38:04Z</time>
      </trkpt>
      <trkpt lat="48.47479" lon="7.49061">
        <ele>208.2</ele>
        <time>2019-08-09T09:38:05Z</time>
      </trkpt>
      <trkpt lat="48.47474" lon="7.49059">
        <ele>208.1</ele>
        <time>2019-08-09T09:38:06Z</time>
      </trkpt>
      <trkpt lat="48.47469" lon="7.49057">
        <ele>208</ele>
        <time>2019-08-09T09:38:07Z</time>
      </trkpt>
      <trkpt lat="48.47465" lon="7.49055">
        <ele>207.9</ele>
        <time>2019-08-09T09:38:08Z</time>
      </trkpt>
      <trkpt lat="48.47461" lon="7.49054">
        <ele>207.8</ele>
        <time>2019-08-09T09:38:09Z</time>
      </trkpt>
      <trkpt lat="48.47458" lon="7.49052">
        <ele>207.7</ele>
        <time>2019-08-09T09:38:10Z</time>
      </trkpt>
      <trkpt lat="48.47454" lon="7.49049">
        <ele>207.6</ele>
        <time>2019-08-09T09:38:11Z</time>
      </trkpt>
      <trkpt lat="48.4745" lon="7.49047">
        <ele>207.5</ele>
        <time>2019-08-09T09:38:12Z</time>
      </trkpt>
      <trkpt lat="48.47446" lon="7.49045">
        <ele>207.3</ele>
        <time>2019-08-09T09:38:13Z</time>
      </trkpt>
      <trkpt lat="48.47441" lon="7.49044">
        <ele>207.1</ele>
        <time>2019-08-09T09:38:14Z</time>
      </trkpt>
      <trkpt lat="48.47436" lon="7.49043">
        <ele>207</ele>
        <time>2019-08-09T09:38:15Z</time>
      </trkpt>
      <trkpt lat="48.47432" lon="7.49042">
        <ele>206.9</ele>
        <time>2019-08-09T09:38:16Z</time>
      </trkpt>
      <trkpt lat="48.47427" lon="7.49041">
        <ele>206.8</ele>
        <time>2019-08-09T09:38:17Z</time>
      </trkpt>
      <trkpt lat="48.47423" lon="7.49041">
        <ele>206.6</ele>
        <time>2019-08-09T09:38:18Z</time>
      </trkpt>
      <trkpt lat="48.47419" lon="7.49039">
        <ele>206.5</ele>
        <time>2019-08-09T09:38:19Z</time>
      </trkpt>
      <trkpt lat="48.47414" lon="7.49038">
        <ele>206.4</ele>
        <time>2019-08-09T09:38:20Z</time>
      </trkpt>
      <trkpt lat="48.4741" lon="7.49037">
        <ele>206.3</ele>
        <time>2019-08-09T09:38:21Z</time>
      </trkpt>
      <trkpt lat="48.47405" lon="7.49034">
        <ele>206.2</ele>
        <time>2019-08-09T09:38:22Z</time>
      </trkpt>
      <trkpt lat="48.47401" lon="7.49031">
        <ele>206.1</ele>
        <time>2019-08-09T09:38:23Z</time>
      </trkpt>
      <trkpt lat="48.47397" lon="7.49029">
        <ele>205.9</ele>
        <time>2019-08-09T09:38:24Z</time>
      </trkpt>
      <trkpt lat="48.47392" lon="7.49026">
        <ele>205.8</ele>
        <time>2019-08-09T09:38:25Z</time>
      </trkpt>
      <trkpt lat="48.47388" lon="7.49023">
        <ele>205.7</ele>
        <time>2019-08-09T09:38:26Z</time>
      </trkpt>
      <trkpt lat="48.47384" lon="7.4902">
        <ele>205.6</ele>
        <time>2019-08-09T09:38:27Z</time>
      </trkpt>
      <trkpt lat="48.47381" lon="7.49019">
        <ele>205.5</ele>
        <time>2019-08-09T09:38:28Z</time>
      </trkpt>
      <trkpt lat="48.47377" lon="7.49017">
        <ele>205.4</ele>
        <time>2019-08-09T09:38:30Z</time>
      </trkpt>
      <trkpt lat="48.47374" lon="7.49013">
        <ele>205.2</ele>
        <time>2019-08-09T09:38:32Z</time>
      </trkpt>
      <trkpt lat="48.47371" lon="7.49009">
        <ele>205</ele>
        <time>2019-08-09T09:38:34Z</time>
      </trkpt>
      <trkpt lat="48.47368" lon="7.49007">
        <ele>204.9</ele>
        <time>2019-08-09T09:38:35Z</time>
      </trkpt>
      <trkpt lat="48.47365" lon="7.49003">
        <ele>204.7</ele>
        <time>2019-08-09T09:38:36Z</time>
      </trkpt>
      <trkpt lat="48.47361" lon="7.49">
        <ele>204.5</ele>
        <time>2019-08-09T09:38:37Z</time>
      </trkpt>
      <trkpt lat="48.47357" lon="7.48995">
        <ele>204.2</ele>
        <time>2019-08-09T09:38:38Z</time>
      </trkpt>
      <trkpt lat="48.47352" lon="7.48991">
        <ele>203.8</ele>
        <time>2019-08-09T09:38:39Z</time>
      </trkpt>
      <trkpt lat="48.47347" lon="7.48987">
        <ele>203.5</ele>
        <time>2019-08-09T09:38:40Z</time>
      </trkpt>
      <trkpt lat="48.47343" lon="7.48981">
        <ele>203.1</ele>
        <time>2019-08-09T09:38:41Z</time>
      </trkpt>
      <trkpt lat="48.47339" lon="7.48974">
        <ele>202.6</ele>
        <time>2019-08-09T09:38:42Z</time>
      </trkpt>
      <trkpt lat="48.47335" lon="7.48966">
        <ele>202.1</ele>
        <time>2019-08-09T09:38:43Z</time>
      </trkpt>
      <trkpt lat="48.4733" lon="7.48959">
        <ele>201.5</ele>
        <time>2019-08-09T09:38:44Z</time>
      </trkpt>
      <trkpt lat="48.47324" lon="7.48951">
        <ele>201</ele>
        <time>2019-08-09T09:38:45Z</time>
      </trkpt>
      <trkpt lat="48.47318" lon="7.48945">
        <ele>200.5</ele>
        <time>2019-08-09T09:38:46Z</time>
      </trkpt>
      <trkpt lat="48.47313" lon="7.48939">
        <ele>200.1</ele>
        <time>2019-08-09T09:38:47Z</time>
      </trkpt>
      <trkpt lat="48.47307" lon="7.48933">
        <ele>199.7</ele>
        <time>2019-08-09T09:38:48Z</time>
      </trkpt>
      <trkpt lat="48.47299" lon="7.48927">
        <ele>199.3</ele>
        <time>2019-08-09T09:38:49Z</time>
      </trkpt>
      <trkpt lat="48.47293" lon="7.48923">
        <ele>199.1</ele>
        <time>2019-08-09T09:38:50Z</time>
      </trkpt>
      <trkpt lat="48.47287" lon="7.4892">
        <ele>198.9</ele>
        <time>2019-08-09T09:38:51Z</time>
      </trkpt>
      <trkpt lat="48.47282" lon="7.48917">
        <ele>198.7</ele>
        <time>2019-08-09T09:38:52Z</time>
      </trkpt>
      <trkpt lat="48.47277" lon="7.48914">
        <ele>198.5</ele>
        <time>2019-08-09T09:38:53Z</time>
      </trkpt>
      <trkpt lat="48.47272" lon="7.48911">
        <ele>198.3</ele>
        <time>2019-08-09T09:38:54Z</time>
      </trkpt>
      <trkpt lat="48.47268" lon="7.48909">
        <ele>198.2</ele>
        <time>2019-08-09T09:38:55Z</time>
      </trkpt>
      <trkpt lat="48.47262" lon="7.48907">
        <ele>198</ele>
        <time>2019-08-09T09:38:56Z</time>
      </trkpt>
      <trkpt lat="48.47256" lon="7.48904">
        <ele>197.9</ele>
        <time>2019-08-09T09:38:57Z</time>
      </trkpt>
      <trkpt lat="48.47251" lon="7.48903">
        <ele>197.8</ele>
        <time>2019-08-09T09:38:58Z</time>
      </trkpt>
      <trkpt lat="48.47246" lon="7.48901">
        <ele>197.7</ele>
        <time>2019-08-09T09:38:59Z</time>
      </trkpt>
      <trkpt lat="48.47241" lon="7.48901">
        <ele>197.6</ele>
        <time>2019-08-09T09:39:00Z</time>
      </trkpt>
      <trkpt lat="48.47235" lon="7.489">
        <ele>197.7</ele>
        <time>2019-08-09T09:39:01Z</time>
      </trkpt>
      <trkpt lat="48.47229" lon="7.48901">
        <ele>197.8</ele>
        <time>2019-08-09T09:39:02Z</time>
      </trkpt>
      <trkpt lat="48.47223" lon="7.489">
        <ele>197.8</ele>
        <time>2019-08-09T09:39:03Z</time>
      </trkpt>
      <trkpt lat="48.47218" lon="7.48899">
        <ele>197.7</ele>
        <time>2019-08-09T09:39:04Z</time>
      </trkpt>
      <trkpt lat="48.47213" lon="7.48899">
        <ele>197.6</ele>
        <time>2019-08-09T09:39:05Z</time>
      </trkpt>
      <trkpt lat="48.47207" lon="7.48899">
        <ele>197.3</ele>
        <time>2019-08-09T09:39:06Z</time>
      </trkpt>
      <trkpt lat="48.47201" lon="7.48899">
        <ele>197.1</ele>
        <time>2019-08-09T09:39:07Z</time>
      </trkpt>
      <trkpt lat="48.47195" lon="7.48899">
        <ele>196.6</ele>
        <time>2019-08-09T09:39:08Z</time>
      </trkpt>
      <trkpt lat="48.47189" lon="7.489">
        <ele>196.7</ele>
        <time>2019-08-09T09:39:09Z</time>
      </trkpt>
      <trkpt lat="48.47184" lon="7.48901">
        <ele>196.7</ele>
        <time>2019-08-09T09:39:10Z</time>
      </trkpt>
      <trkpt lat="48.47176" lon="7.48902">
        <ele>196.8</ele>
        <time>2019-08-09T09:39:11Z</time>
      </trkpt>
      <trkpt lat="48.47171" lon="7.48904">
        <ele>196.8</ele>
        <time>2019-08-09T09:39:12Z</time>
      </trkpt>
      <trkpt lat="48.47167" lon="7.48905">
        <ele>196.9</ele>
        <time>2019-08-09T09:39:13Z</time>
      </trkpt>
      <trkpt lat="48.47162" lon="7.48905">
        <ele>196.9</ele>
        <time>2019-08-09T09:39:14Z</time>
      </trkpt>
      <trkpt lat="48.47159" lon="7.48905">
        <ele>196.9</ele>
        <time>2019-08-09T09:39:15Z</time>
      </trkpt>
      <trkpt lat="48.47155" lon="7.48904">
        <ele>196.9</ele>
        <time>2019-08-09T09:39:16Z</time>
      </trkpt>
      <trkpt lat="48.4715" lon="7.48903">
        <ele>197</ele>
        <time>2019-08-09T09:39:17Z</time>
      </trkpt>
      <trkpt lat="48.47144" lon="7.48903">
        <ele>197</ele>
        <time>2019-08-09T09:39:18Z</time>
      </trkpt>
      <trkpt lat="48.47139" lon="7.48904">
        <ele>197</ele>
        <time>2019-08-09T09:39:19Z</time>
      </trkpt>
      <trkpt lat="48.47134" lon="7.48904">
        <ele>197.1</ele>
        <time>2019-08-09T09:39:20Z</time>
      </trkpt>
      <trkpt lat="48.47129" lon="7.48904">
        <ele>197.1</ele>
        <time>2019-08-09T09:39:21Z</time>
      </trkpt>
      <trkpt lat="48.47123" lon="7.48903">
        <ele>197.2</ele>
        <time>2019-08-09T09:39:22Z</time>
      </trkpt>
      <trkpt lat="48.47118" lon="7.48901">
        <ele>197.2</ele>
        <time>2019-08-09T09:39:23Z</time>
      </trkpt>
      <trkpt lat="48.47114" lon="7.48901">
        <ele>197.2</ele>
        <time>2019-08-09T09:39:24Z</time>
      </trkpt>
      <trkpt lat="48.47109" lon="7.48901">
        <ele>197.3</ele>
        <time>2019-08-09T09:39:25Z</time>
      </trkpt>
      <trkpt lat="48.47105" lon="7.48901">
        <ele>197.3</ele>
        <time>2019-08-09T09:39:26Z</time>
      </trkpt>
      <trkpt lat="48.47101" lon="7.489">
        <ele>197.4</ele>
        <time>2019-08-09T09:39:27Z</time>
      </trkpt>
      <trkpt lat="48.47097" lon="7.48901">
        <ele>197.4</ele>
        <time>2019-08-09T09:39:28Z</time>
      </trkpt>
      <trkpt lat="48.47093" lon="7.48899">
        <ele>197.4</ele>
        <time>2019-08-09T09:39:29Z</time>
      </trkpt>
      <trkpt lat="48.47089" lon="7.48899">
        <ele>197.5</ele>
        <time>2019-08-09T09:39:30Z</time>
      </trkpt>
      <trkpt lat="48.47086" lon="7.48898">
        <ele>197.5</ele>
        <time>2019-08-09T09:39:31Z</time>
      </trkpt>
      <trkpt lat="48.47082" lon="7.48895">
        <ele>197.5</ele>
        <time>2019-08-09T09:39:32Z</time>
      </trkpt>
      <trkpt lat="48.47078" lon="7.48894">
        <ele>197.6</ele>
        <time>2019-08-09T09:39:33Z</time>
      </trkpt>
      <trkpt lat="48.47074" lon="7.48892">
        <ele>197.6</ele>
        <time>2019-08-09T09:39:34Z</time>
      </trkpt>
      <trkpt lat="48.4707" lon="7.48891">
        <ele>197.7</ele>
        <time>2019-08-09T09:39:35Z</time>
      </trkpt>
      <trkpt lat="48.47066" lon="7.48891">
        <ele>197.7</ele>
        <time>2019-08-09T09:39:36Z</time>
      </trkpt>
      <trkpt lat="48.47061" lon="7.4889">
        <ele>197.7</ele>
        <time>2019-08-09T09:39:37Z</time>
      </trkpt>
      <trkpt lat="48.47056" lon="7.48889">
        <ele>197.8</ele>
        <time>2019-08-09T09:39:38Z</time>
      </trkpt>
      <trkpt lat="48.47051" lon="7.48889">
        <ele>197.8</ele>
        <time>2019-08-09T09:39:39Z</time>
      </trkpt>
      <trkpt lat="48.47047" lon="7.48887">
        <ele>197.9</ele>
        <time>2019-08-09T09:39:40Z</time>
      </trkpt>
      <trkpt lat="48.47043" lon="7.48887">
        <ele>197.9</ele>
        <time>2019-08-09T09:39:41Z</time>
      </trkpt>
      <trkpt lat="48.47038" lon="7.48885">
        <ele>198</ele>
        <time>2019-08-09T09:39:42Z</time>
      </trkpt>
      <trkpt lat="48.47033" lon="7.48884">
        <ele>198.1</ele>
        <time>2019-08-09T09:39:43Z</time>
      </trkpt>
      <trkpt lat="48.47029" lon="7.48885">
        <ele>198.1</ele>
        <time>2019-08-09T09:39:44Z</time>
      </trkpt>
      <trkpt lat="48.47024" lon="7.48884">
        <ele>198.2</ele>
        <time>2019-08-09T09:39:45Z</time>
      </trkpt>
      <trkpt lat="48.4702" lon="7.48883">
        <ele>198.3</ele>
        <time>2019-08-09T09:39:46Z</time>
      </trkpt>
      <trkpt lat="48.47015" lon="7.4888">
        <ele>198.4</ele>
        <time>2019-08-09T09:39:47Z</time>
      </trkpt>
      <trkpt lat="48.47011" lon="7.48877">
        <ele>198.5</ele>
        <time>2019-08-09T09:39:48Z</time>
      </trkpt>
      <trkpt lat="48.47006" lon="7.48872">
        <ele>198.6</ele>
        <time>2019-08-09T09:39:49Z</time>
      </trkpt>
      <trkpt lat="48.47002" lon="7.48867">
        <ele>198.7</ele>
        <time>2019-08-09T09:39:50Z</time>
      </trkpt>
      <trkpt lat="48.46998" lon="7.48863">
        <ele>198.8</ele>
        <time>2019-08-09T09:39:51Z</time>
      </trkpt>
      <trkpt lat="48.46995" lon="7.48859">
        <ele>198.8</ele>
        <time>2019-08-09T09:39:52Z</time>
      </trkpt>
      <trkpt lat="48.46992" lon="7.48855">
        <ele>198.9</ele>
        <time>2019-08-09T09:39:53Z</time>
      </trkpt>
      <trkpt lat="48.4699" lon="7.48851">
        <ele>198.9</ele>
        <time>2019-08-09T09:39:54Z</time>
      </trkpt>
      <trkpt lat="48.46988" lon="7.48848">
        <ele>199</ele>
        <time>2019-08-09T09:39:55Z</time>
      </trkpt>
      <trkpt lat="48.46985" lon="7.48845">
        <ele>199</ele>
        <time>2019-08-09T09:39:56Z</time>
      </trkpt>
      <trkpt lat="48.46982" lon="7.4884">
        <ele>199.1</ele>
        <time>2019-08-09T09:39:57Z</time>
      </trkpt>
      <trkpt lat="48.46979" lon="7.48836">
        <ele>199.3</ele>
        <time>2019-08-09T09:39:58Z</time>
      </trkpt>
      <trkpt lat="48.46976" lon="7.48831">
        <ele>199.4</ele>
        <time>2019-08-09T09:39:59Z</time>
      </trkpt>
      <trkpt lat="48.46973" lon="7.48827">
        <ele>199.4</ele>
        <time>2019-08-09T09:40:00Z</time>
      </trkpt>
      <trkpt lat="48.4697" lon="7.48824">
        <ele>199.5</ele>
        <time>2019-08-09T09:40:01Z</time>
      </trkpt>
      <trkpt lat="48.46966" lon="7.48821">
        <ele>199.6</ele>
        <time>2019-08-09T09:40:02Z</time>
      </trkpt>
      <trkpt lat="48.46963" lon="7.48818">
        <ele>199.7</ele>
        <time>2019-08-09T09:40:03Z</time>
      </trkpt>
      <trkpt lat="48.4696" lon="7.48815">
        <ele>199.8</ele>
        <time>2019-08-09T09:40:04Z</time>
      </trkpt>
      <trkpt lat="48.46958" lon="7.48811">
        <ele>199.8</ele>
        <time>2019-08-09T09:40:05Z</time>
      </trkpt>
      <trkpt lat="48.46955" lon="7.48808">
        <ele>199.9</ele>
        <time>2019-08-09T09:40:06Z</time>
      </trkpt>
      <trkpt lat="48.46953" lon="7.48806">
        <ele>199.9</ele>
        <time>2019-08-09T09:40:07Z</time>
      </trkpt>
      <trkpt lat="48.46949" lon="7.48804">
        <ele>200</ele>
        <time>2019-08-09T09:40:08Z</time>
      </trkpt>
      <trkpt lat="48.46946" lon="7.48801">
        <ele>200.1</ele>
        <time>2019-08-09T09:40:09Z</time>
      </trkpt>
      <trkpt lat="48.46943" lon="7.48797">
        <ele>200.3</ele>
        <time>2019-08-09T09:40:11Z</time>
      </trkpt>
      <trkpt lat="48.46941" lon="7.48795">
        <ele>200.4</ele>
        <time>2019-08-09T09:40:12Z</time>
      </trkpt>
      <trkpt lat="48.46939" lon="7.48792">
        <ele>200.5</ele>
        <time>2019-08-09T09:40:13Z</time>
      </trkpt>
      <trkpt lat="48.46937" lon="7.48789">
        <ele>200.6</ele>
        <time>2019-08-09T09:40:14Z</time>
      </trkpt>
      <trkpt lat="48.46935" lon="7.48785">
        <ele>200.8</ele>
        <time>2019-08-09T09:40:15Z</time>
      </trkpt>
      <trkpt lat="48.46932" lon="7.48781">
        <ele>200.9</ele>
        <time>2019-08-09T09:40:17Z</time>
      </trkpt>
      <trkpt lat="48.46928" lon="7.48777">
        <ele>201.1</ele>
        <time>2019-08-09T09:40:19Z</time>
      </trkpt>
      <trkpt lat="48.46924" lon="7.48775">
        <ele>201.3</ele>
        <time>2019-08-09T09:40:20Z</time>
      </trkpt>
      <trkpt lat="48.46921" lon="7.48774">
        <ele>201.4</ele>
        <time>2019-08-09T09:40:21Z</time>
      </trkpt>
      <trkpt lat="48.46918" lon="7.48772">
        <ele>201.6</ele>
        <time>2019-08-09T09:40:22Z</time>
      </trkpt>
      <trkpt lat="48.46916" lon="7.4877">
        <ele>201.7</ele>
        <time>2019-08-09T09:40:23Z</time>
      </trkpt>
      <trkpt lat="48.46913" lon="7.48767">
        <ele>201.9</ele>
        <time>2019-08-09T09:40:24Z</time>
      </trkpt>
      <trkpt lat="48.4691" lon="7.48764">
        <ele>202</ele>
        <time>2019-08-09T09:40:25Z</time>
      </trkpt>
      <trkpt lat="48.46908" lon="7.48761">
        <ele>202.2</ele>
        <time>2019-08-09T09:40:26Z</time>
      </trkpt>
      <trkpt lat="48.46903" lon="7.48754">
        <ele>202.6</ele>
        <time>2019-08-09T09:40:28Z</time>
      </trkpt>
      <trkpt lat="48.46898" lon="7.4875">
        <ele>202.9</ele>
        <time>2019-08-09T09:40:30Z</time>
      </trkpt>
      <trkpt lat="48.46896" lon="7.48747">
        <ele>203.1</ele>
        <time>2019-08-09T09:40:31Z</time>
      </trkpt>
      <trkpt lat="48.46893" lon="7.48746">
        <ele>203.1</ele>
        <time>2019-08-09T09:40:32Z</time>
      </trkpt>
      <trkpt lat="48.46891" lon="7.48743">
        <ele>203.2</ele>
        <time>2019-08-09T09:40:33Z</time>
      </trkpt>
      <trkpt lat="48.46888" lon="7.48741">
        <ele>203.3</ele>
        <time>2019-08-09T09:40:34Z</time>
      </trkpt>
      <trkpt lat="48.46886" lon="7.48739">
        <ele>203.4</ele>
        <time>2019-08-09T09:40:36Z</time>
      </trkpt>
      <trkpt lat="48.46882" lon="7.48735">
        <ele>203.6</ele>
        <time>2019-08-09T09:40:38Z</time>
      </trkpt>
      <trkpt lat="48.46877" lon="7.48731">
        <ele>203.8</ele>
        <time>2019-08-09T09:40:40Z</time>
      </trkpt>
      <trkpt lat="48.46875" lon="7.48728">
        <ele>203.9</ele>
        <time>2019-08-09T09:40:41Z</time>
      </trkpt>
      <trkpt lat="48.46873" lon="7.48725">
        <ele>204</ele>
        <time>2019-08-09T09:40:42Z</time>
      </trkpt>
      <trkpt lat="48.46869" lon="7.48721">
        <ele>204.1</ele>
        <time>2019-08-09T09:40:44Z</time>
      </trkpt>
      <trkpt lat="48.46866" lon="7.48719">
        <ele>204.3</ele>
        <time>2019-08-09T09:40:45Z</time>
      </trkpt>
      <trkpt lat="48.46863" lon="7.48717">
        <ele>204.4</ele>
        <time>2019-08-09T09:40:46Z</time>
      </trkpt>
      <trkpt lat="48.4686" lon="7.48714">
        <ele>204.6</ele>
        <time>2019-08-09T09:40:48Z</time>
      </trkpt>
      <trkpt lat="48.46855" lon="7.4871">
        <ele>204.8</ele>
        <time>2019-08-09T09:40:50Z</time>
      </trkpt>
      <trkpt lat="48.46854" lon="7.48706">
        <ele>204.9</ele>
        <time>2019-08-09T09:40:51Z</time>
      </trkpt>
      <trkpt lat="48.46852" lon="7.48702">
        <ele>205.1</ele>
        <time>2019-08-09T09:40:52Z</time>
      </trkpt>
      <trkpt lat="48.46847" lon="7.48698">
        <ele>205.5</ele>
        <time>2019-08-09T09:40:54Z</time>
      </trkpt>
      <trkpt lat="48.46844" lon="7.48697">
        <ele>205.7</ele>
        <time>2019-08-09T09:40:55Z</time>
      </trkpt>
      <trkpt lat="48.46841" lon="7.48694">
        <ele>205.9</ele>
        <time>2019-08-09T09:40:56Z</time>
      </trkpt>
      <trkpt lat="48.46838" lon="7.48692">
        <ele>206.1</ele>
        <time>2019-08-09T09:40:57Z</time>
      </trkpt>
      <trkpt lat="48.46835" lon="7.4869">
        <ele>206.2</ele>
        <time>2019-08-09T09:40:58Z</time>
      </trkpt>
      <trkpt lat="48.46833" lon="7.48688">
        <ele>206.4</ele>
        <time>2019-08-09T09:40:59Z</time>
      </trkpt>
      <trkpt lat="48.46828" lon="7.48683">
        <ele>206.7</ele>
        <time>2019-08-09T09:41:01Z</time>
      </trkpt>
      <trkpt lat="48.46826" lon="7.4868">
        <ele>206.9</ele>
        <time>2019-08-09T09:41:02Z</time>
      </trkpt>
      <trkpt lat="48.46823" lon="7.48678">
        <ele>207.1</ele>
        <time>2019-08-09T09:41:03Z</time>
      </trkpt>
      <trkpt lat="48.46821" lon="7.48675">
        <ele>207.3</ele>
        <time>2019-08-09T09:41:04Z</time>
      </trkpt>
      <trkpt lat="48.46819" lon="7.48672">
        <ele>207.6</ele>
        <time>2019-08-09T09:41:05Z</time>
      </trkpt>
      <trkpt lat="48.46816" lon="7.48669">
        <ele>207.8</ele>
        <time>2019-08-09T09:41:06Z</time>
      </trkpt>
      <trkpt lat="48.46814" lon="7.48667">
        <ele>208</ele>
        <time>2019-08-09T09:41:07Z</time>
      </trkpt>
      <trkpt lat="48.46812" lon="7.48664">
        <ele>208.3</ele>
        <time>2019-08-09T09:41:08Z</time>
      </trkpt>
      <trkpt lat="48.46809" lon="7.48661">
        <ele>208.5</ele>
        <time>2019-08-09T09:41:09Z</time>
      </trkpt>
      <trkpt lat="48.46807" lon="7.48659">
        <ele>208.7</ele>
        <time>2019-08-09T09:41:10Z</time>
      </trkpt>
      <trkpt lat="48.46804" lon="7.48657">
        <ele>209</ele>
        <time>2019-08-09T09:41:11Z</time>
      </trkpt>
      <trkpt lat="48.46802" lon="7.48655">
        <ele>209.4</ele>
        <time>2019-08-09T09:41:12Z</time>
      </trkpt>
      <trkpt lat="48.46797" lon="7.48651">
        <ele>210.1</ele>
        <time>2019-08-09T09:41:14Z</time>
      </trkpt>
      <trkpt lat="48.46794" lon="7.48646">
        <ele>210.8</ele>
        <time>2019-08-09T09:41:16Z</time>
      </trkpt>
      <trkpt lat="48.46791" lon="7.48642">
        <ele>211.5</ele>
        <time>2019-08-09T09:41:18Z</time>
      </trkpt>
      <trkpt lat="48.46788" lon="7.48639">
        <ele>211.9</ele>
        <time>2019-08-09T09:41:19Z</time>
      </trkpt>
      <trkpt lat="48.46786" lon="7.48636">
        <ele>212.3</ele>
        <time>2019-08-09T09:41:20Z</time>
      </trkpt>
      <trkpt lat="48.46783" lon="7.48634">
        <ele>212.8</ele>
        <time>2019-08-09T09:41:21Z</time>
      </trkpt>
      <trkpt lat="48.4678" lon="7.48631">
        <ele>213.2</ele>
        <time>2019-08-09T09:41:22Z</time>
      </trkpt>
      <trkpt lat="48.46778" lon="7.48629">
        <ele>213.5</ele>
        <time>2019-08-09T09:41:23Z</time>
      </trkpt>
      <trkpt lat="48.46775" lon="7.48626">
        <ele>213.8</ele>
        <time>2019-08-09T09:41:24Z</time>
      </trkpt>
      <trkpt lat="48.46772" lon="7.48623">
        <ele>214.1</ele>
        <time>2019-08-09T09:41:26Z</time>
      </trkpt>
      <trkpt lat="48.4677" lon="7.4862">
        <ele>214.4</ele>
        <time>2019-08-09T09:41:28Z</time>
      </trkpt>
      <trkpt lat="48.46766" lon="7.48617">
        <ele>214.8</ele>
        <time>2019-08-09T09:41:30Z</time>
      </trkpt>
      <trkpt lat="48.46764" lon="7.48614">
        <ele>215.1</ele>
        <time>2019-08-09T09:41:31Z</time>
      </trkpt>
      <trkpt lat="48.46761" lon="7.48612">
        <ele>215.3</ele>
        <time>2019-08-09T09:41:32Z</time>
      </trkpt>
      <trkpt lat="48.46757" lon="7.48608">
        <ele>215.8</ele>
        <time>2019-08-09T09:41:34Z</time>
      </trkpt>
      <trkpt lat="48.46754" lon="7.48603">
        <ele>216.1</ele>
        <time>2019-08-09T09:41:36Z</time>
      </trkpt>
      <trkpt lat="48.4675" lon="7.48597">
        <ele>216.6</ele>
        <time>2019-08-09T09:41:38Z</time>
      </trkpt>
      <trkpt lat="48.46746" lon="7.48592">
        <ele>217.1</ele>
        <time>2019-08-09T09:41:40Z</time>
      </trkpt>
      <trkpt lat="48.46742" lon="7.48588">
        <ele>217.5</ele>
        <time>2019-08-09T09:41:42Z</time>
      </trkpt>
      <trkpt lat="48.46739" lon="7.48584">
        <ele>217.8</ele>
        <time>2019-08-09T09:41:44Z</time>
      </trkpt>
      <trkpt lat="48.46736" lon="7.4858">
        <ele>218.2</ele>
        <time>2019-08-09T09:41:46Z</time>
      </trkpt>
      <trkpt lat="48.46731" lon="7.48577">
        <ele>218.6</ele>
        <time>2019-08-09T09:41:48Z</time>
      </trkpt>
      <trkpt lat="48.46727" lon="7.48573">
        <ele>219</ele>
        <time>2019-08-09T09:41:50Z</time>
      </trkpt>
      <trkpt lat="48.46725" lon="7.48571">
        <ele>219.5</ele>
        <time>2019-08-09T09:41:52Z</time>
      </trkpt>
      <trkpt lat="48.46722" lon="7.48568">
        <ele>219.7</ele>
        <time>2019-08-09T09:41:54Z</time>
      </trkpt>
      <trkpt lat="48.46721" lon="7.48564">
        <ele>219.8</ele>
        <time>2019-08-09T09:41:56Z</time>
      </trkpt>
      <trkpt lat="48.46718" lon="7.48561">
        <ele>220</ele>
        <time>2019-08-09T09:41:58Z</time>
      </trkpt>
      <trkpt lat="48.46715" lon="7.4856">
        <ele>220.1</ele>
        <time>2019-08-09T09:42:01Z</time>
      </trkpt>
      <trkpt lat="48.46712" lon="7.4856">
        <ele>220.2</ele>
        <time>2019-08-09T09:42:03Z</time>
      </trkpt>
      <trkpt lat="48.46708" lon="7.4856">
        <ele>220.3</ele>
        <time>2019-08-09T09:42:05Z</time>
      </trkpt>
      <trkpt lat="48.46705" lon="7.48558">
        <ele>220.3</ele>
        <time>2019-08-09T09:42:07Z</time>
      </trkpt>
      <trkpt lat="48.46701" lon="7.48554">
        <ele>220.3</ele>
        <time>2019-08-09T09:42:09Z</time>
      </trkpt>
      <trkpt lat="48.46699" lon="7.48552">
        <ele>220.3</ele>
        <time>2019-08-09T09:42:10Z</time>
      </trkpt>
      <trkpt lat="48.46696" lon="7.4855">
        <ele>220.3</ele>
        <time>2019-08-09T09:42:11Z</time>
      </trkpt>
      <trkpt lat="48.46692" lon="7.48547">
        <ele>220.1</ele>
        <time>2019-08-09T09:42:13Z</time>
      </trkpt>
      <trkpt lat="48.46687" lon="7.48543">
        <ele>220</ele>
        <time>2019-08-09T09:42:15Z</time>
      </trkpt>
      <trkpt lat="48.46683" lon="7.48539">
        <ele>219.7</ele>
        <time>2019-08-09T09:42:17Z</time>
      </trkpt>
      <trkpt lat="48.4668" lon="7.48536">
        <ele>219.6</ele>
        <time>2019-08-09T09:42:18Z</time>
      </trkpt>
      <trkpt lat="48.46676" lon="7.48532">
        <ele>219.4</ele>
        <time>2019-08-09T09:42:20Z</time>
      </trkpt>
      <trkpt lat="48.46671" lon="7.48527">
        <ele>219.2</ele>
        <time>2019-08-09T09:42:22Z</time>
      </trkpt>
      <trkpt lat="48.46667" lon="7.48525">
        <ele>219</ele>
        <time>2019-08-09T09:42:23Z</time>
      </trkpt>
      <trkpt lat="48.46664" lon="7.48522">
        <ele>218.9</ele>
        <time>2019-08-09T09:42:24Z</time>
      </trkpt>
      <trkpt lat="48.46661" lon="7.4852">
        <ele>218.8</ele>
        <time>2019-08-09T09:42:25Z</time>
      </trkpt>
      <trkpt lat="48.46658" lon="7.48517">
        <ele>218.7</ele>
        <time>2019-08-09T09:42:26Z</time>
      </trkpt>
      <trkpt lat="48.46655" lon="7.48515">
        <ele>218.6</ele>
        <time>2019-08-09T09:42:27Z</time>
      </trkpt>
      <trkpt lat="48.46652" lon="7.48514">
        <ele>218.6</ele>
        <time>2019-08-09T09:42:28Z</time>
      </trkpt>
      <trkpt lat="48.46649" lon="7.48513">
        <ele>218.5</ele>
        <time>2019-08-09T09:42:29Z</time>
      </trkpt>
      <trkpt lat="48.46646" lon="7.48511">
        <ele>218.5</ele>
        <time>2019-08-09T09:42:30Z</time>
      </trkpt>
      <trkpt lat="48.46642" lon="7.48509">
        <ele>218.5</ele>
        <time>2019-08-09T09:42:31Z</time>
      </trkpt>
      <trkpt lat="48.46639" lon="7.48508">
        <ele>218.5</ele>
        <time>2019-08-09T09:42:32Z</time>
      </trkpt>
      <trkpt lat="48.46635" lon="7.48505">
        <ele>218.4</ele>
        <time>2019-08-09T09:42:33Z</time>
      </trkpt>
      <trkpt lat="48.46632" lon="7.48503">
        <ele>218.4</ele>
        <time>2019-08-09T09:42:34Z</time>
      </trkpt>
      <trkpt lat="48.46629" lon="7.48502">
        <ele>218.4</ele>
        <time>2019-08-09T09:42:35Z</time>
      </trkpt>
      <trkpt lat="48.46626" lon="7.485">
        <ele>218.4</ele>
        <time>2019-08-09T09:42:36Z</time>
      </trkpt>
      <trkpt lat="48.4662" lon="7.48496">
        <ele>218.3</ele>
        <time>2019-08-09T09:42:38Z</time>
      </trkpt>
      <trkpt lat="48.46617" lon="7.48493">
        <ele>218.2</ele>
        <time>2019-08-09T09:42:39Z</time>
      </trkpt>
      <trkpt lat="48.46614" lon="7.48491">
        <ele>218.1</ele>
        <time>2019-08-09T09:42:40Z</time>
      </trkpt>
      <trkpt lat="48.46611" lon="7.48489">
        <ele>218</ele>
        <time>2019-08-09T09:42:41Z</time>
      </trkpt>
      <trkpt lat="48.46608" lon="7.48487">
        <ele>217.9</ele>
        <time>2019-08-09T09:42:42Z</time>
      </trkpt>
      <trkpt lat="48.46604" lon="7.48485">
        <ele>217.7</ele>
        <time>2019-08-09T09:42:43Z</time>
      </trkpt>
      <trkpt lat="48.46601" lon="7.48483">
        <ele>217.6</ele>
        <time>2019-08-09T09:42:44Z</time>
      </trkpt>
      <trkpt lat="48.46598" lon="7.48481">
        <ele>217.5</ele>
        <time>2019-08-09T09:42:45Z</time>
      </trkpt>
      <trkpt lat="48.46594" lon="7.48479">
        <ele>217.4</ele>
        <time>2019-08-09T09:42:46Z</time>
      </trkpt>
      <trkpt lat="48.4659" lon="7.48477">
        <ele>217.4</ele>
        <time>2019-08-09T09:42:47Z</time>
      </trkpt>
      <trkpt lat="48.46587" lon="7.48474">
        <ele>217.3</ele>
        <time>2019-08-09T09:42:48Z</time>
      </trkpt>
      <trkpt lat="48.46583" lon="7.48472">
        <ele>217.2</ele>
        <time>2019-08-09T09:42:49Z</time>
      </trkpt>
      <trkpt lat="48.4658" lon="7.4847">
        <ele>217.1</ele>
        <time>2019-08-09T09:42:50Z</time>
      </trkpt>
      <trkpt lat="48.46576" lon="7.48467">
        <ele>217</ele>
        <time>2019-08-09T09:42:51Z</time>
      </trkpt>
      <trkpt lat="48.46572" lon="7.48466">
        <ele>216.8</ele>
        <time>2019-08-09T09:42:52Z</time>
      </trkpt>
      <trkpt lat="48.46568" lon="7.48463">
        <ele>216.6</ele>
        <time>2019-08-09T09:42:53Z</time>
      </trkpt>
      <trkpt lat="48.46563" lon="7.4846">
        <ele>216.4</ele>
        <time>2019-08-09T09:42:54Z</time>
      </trkpt>
      <trkpt lat="48.46558" lon="7.48457">
        <ele>216.1</ele>
        <time>2019-08-09T09:42:55Z</time>
      </trkpt>
      <trkpt lat="48.46553" lon="7.48454">
        <ele>215.8</ele>
        <time>2019-08-09T09:42:56Z</time>
      </trkpt>
      <trkpt lat="48.46547" lon="7.48451">
        <ele>215.4</ele>
        <time>2019-08-09T09:42:57Z</time>
      </trkpt>
      <trkpt lat="48.46542" lon="7.48447">
        <ele>215</ele>
        <time>2019-08-09T09:42:58Z</time>
      </trkpt>
      <trkpt lat="48.46537" lon="7.48442">
        <ele>214.5</ele>
        <time>2019-08-09T09:42:59Z</time>
      </trkpt>
      <trkpt lat="48.46531" lon="7.48438">
        <ele>214.1</ele>
        <time>2019-08-09T09:43:00Z</time>
      </trkpt>
      <trkpt lat="48.46525" lon="7.48434">
        <ele>213.6</ele>
        <time>2019-08-09T09:43:01Z</time>
      </trkpt>
      <trkpt lat="48.46518" lon="7.48429">
        <ele>213.1</ele>
        <time>2019-08-09T09:43:02Z</time>
      </trkpt>
      <trkpt lat="48.46511" lon="7.48424">
        <ele>212.6</ele>
        <time>2019-08-09T09:43:03Z</time>
      </trkpt>
      <trkpt lat="48.46504" lon="7.48418">
        <ele>212</ele>
        <time>2019-08-09T09:43:04Z</time>
      </trkpt>
      <trkpt lat="48.46498" lon="7.48413">
        <ele>211.4</ele>
        <time>2019-08-09T09:43:05Z</time>
      </trkpt>
      <trkpt lat="48.46492" lon="7.48407">
        <ele>210.3</ele>
        <time>2019-08-09T09:43:06Z</time>
      </trkpt>
      <trkpt lat="48.46487" lon="7.48402">
        <ele>209.8</ele>
        <time>2019-08-09T09:43:07Z</time>
      </trkpt>
      <trkpt lat="48.46483" lon="7.48397">
        <ele>209.2</ele>
        <time>2019-08-09T09:43:08Z</time>
      </trkpt>
      <trkpt lat="48.46478" lon="7.48391">
        <ele>208.7</ele>
        <time>2019-08-09T09:43:09Z</time>
      </trkpt>
      <trkpt lat="48.46473" lon="7.48387">
        <ele>208.2</ele>
        <time>2019-08-09T09:43:10Z</time>
      </trkpt>
      <trkpt lat="48.46468" lon="7.48383">
        <ele>207.8</ele>
        <time>2019-08-09T09:43:11Z</time>
      </trkpt>
      <trkpt lat="48.46463" lon="7.48378">
        <ele>207.3</ele>
        <time>2019-08-09T09:43:12Z</time>
      </trkpt>
      <trkpt lat="48.46458" lon="7.48373">
        <ele>206.9</ele>
        <time>2019-08-09T09:43:13Z</time>
      </trkpt>
      <trkpt lat="48.46454" lon="7.48368">
        <ele>206.4</ele>
        <time>2019-08-09T09:43:14Z</time>
      </trkpt>
      <trkpt lat="48.46448" lon="7.48362">
        <ele>205.9</ele>
        <time>2019-08-09T09:43:15Z</time>
      </trkpt>
      <trkpt lat="48.46443" lon="7.48355">
        <ele>205.4</ele>
        <time>2019-08-09T09:43:16Z</time>
      </trkpt>
      <trkpt lat="48.4644" lon="7.48348">
        <ele>205</ele>
        <time>2019-08-09T09:43:17Z</time>
      </trkpt>
      <trkpt lat="48.46437" lon="7.48342">
        <ele>204.5</ele>
        <time>2019-08-09T09:43:18Z</time>
      </trkpt>
      <trkpt lat="48.46434" lon="7.48337">
        <ele>204.1</ele>
        <time>2019-08-09T09:43:19Z</time>
      </trkpt>
      <trkpt lat="48.46432" lon="7.48332">
        <ele>203.7</ele>
        <time>2019-08-09T09:43:20Z</time>
      </trkpt>
      <trkpt lat="48.46429" lon="7.48327">
        <ele>203.3</ele>
        <time>2019-08-09T09:43:21Z</time>
      </trkpt>
      <trkpt lat="48.46426" lon="7.48323">
        <ele>202.8</ele>
        <time>2019-08-09T09:43:22Z</time>
      </trkpt>
      <trkpt lat="48.46422" lon="7.4832">
        <ele>202.3</ele>
        <time>2019-08-09T09:43:24Z</time>
      </trkpt>
      <trkpt lat="48.46421" lon="7.48316">
        <ele>202</ele>
        <time>2019-08-09T09:43:25Z</time>
      </trkpt>
      <trkpt lat="48.46423" lon="7.48321">
        <ele>201.5</ele>
        <time>2019-08-09T09:43:29Z</time>
      </trkpt>
      <trkpt lat="48.46421" lon="7.48326">
        <ele>201.1</ele>
        <time>2019-08-09T09:43:50Z</time>
      </trkpt>
      <trkpt lat="48.4642" lon="7.48331">
        <ele>199.6</ele>
        <time>2019-08-09T09:43:51Z</time>
      </trkpt>
      <trkpt lat="48.4642" lon="7.48339">
        <ele>199.3</ele>
        <time>2019-08-09T09:43:52Z</time>
      </trkpt>
      <trkpt lat="48.4642" lon="7.48346">
        <ele>199.1</ele>
        <time>2019-08-09T09:43:53Z</time>
      </trkpt>
      <trkpt lat="48.46421" lon="7.48352">
        <ele>198.9</ele>
        <time>2019-08-09T09:43:54Z</time>
      </trkpt>
      <trkpt lat="48.46422" lon="7.48357">
        <ele>198.8</ele>
        <time>2019-08-09T09:43:55Z</time>
      </trkpt>
      <trkpt lat="48.46422" lon="7.48362">
        <ele>198.6</ele>
        <time>2019-08-09T09:43:56Z</time>
      </trkpt>
      <trkpt lat="48.46422" lon="7.48367">
        <ele>198.4</ele>
        <time>2019-08-09T09:43:57Z</time>
      </trkpt>
      <trkpt lat="48.46423" lon="7.48372">
        <ele>198.3</ele>
        <time>2019-08-09T09:43:58Z</time>
      </trkpt>
      <trkpt lat="48.46424" lon="7.48376">
        <ele>198.1</ele>
        <time>2019-08-09T09:43:59Z</time>
      </trkpt>
      <trkpt lat="48.46425" lon="7.4838">
        <ele>197.9</ele>
        <time>2019-08-09T09:44:00Z</time>
      </trkpt>
      <trkpt lat="48.46423" lon="7.48385">
        <ele>197.5</ele>
        <time>2019-08-09T09:44:01Z</time>
      </trkpt>
      <trkpt lat="48.46421" lon="7.48388">
        <ele>197.1</ele>
        <time>2019-08-09T09:44:02Z</time>
      </trkpt>
      <trkpt lat="48.46416" lon="7.48386">
        <ele>196.6</ele>
        <time>2019-08-09T09:44:03Z</time>
      </trkpt>
      <trkpt lat="48.4641" lon="7.48386">
        <ele>195.8</ele>
        <time>2019-08-09T09:44:04Z</time>
      </trkpt>
      <trkpt lat="48.46403" lon="7.48386">
        <ele>194.9</ele>
        <time>2019-08-09T09:44:05Z</time>
      </trkpt>
      <trkpt lat="48.46396" lon="7.48387">
        <ele>194</ele>
        <time>2019-08-09T09:44:06Z</time>
      </trkpt>
      <trkpt lat="48.46389" lon="7.48387">
        <ele>193.1</ele>
        <time>2019-08-09T09:44:07Z</time>
      </trkpt>
      <trkpt lat="48.46381" lon="7.48385">
        <ele>191</ele>
        <time>2019-08-09T09:44:08Z</time>
      </trkpt>
      <trkpt lat="48.46373" lon="7.48383">
        <ele>189.7</ele>
        <time>2019-08-09T09:44:09Z</time>
      </trkpt>
      <trkpt lat="48.46367" lon="7.48381">
        <ele>189.3</ele>
        <time>2019-08-09T09:44:10Z</time>
      </trkpt>
      <trkpt lat="48.46361" lon="7.4838">
        <ele>189</ele>
        <time>2019-08-09T09:44:11Z</time>
      </trkpt>
      <trkpt lat="48.46355" lon="7.48379">
        <ele>188.6</ele>
        <time>2019-08-09T09:44:12Z</time>
      </trkpt>
      <trkpt lat="48.46351" lon="7.48377">
        <ele>188.4</ele>
        <time>2019-08-09T09:44:13Z</time>
      </trkpt>
      <trkpt lat="48.46347" lon="7.48375">
        <ele>188</ele>
        <time>2019-08-09T09:44:14Z</time>
      </trkpt>
      <trkpt lat="48.46343" lon="7.48373">
        <ele>187.9</ele>
        <time>2019-08-09T09:44:15Z</time>
      </trkpt>
      <trkpt lat="48.46339" lon="7.48372">
        <ele>187.9</ele>
        <time>2019-08-09T09:44:17Z</time>
      </trkpt>
      <trkpt lat="48.46335" lon="7.48369">
        <ele>187.1</ele>
        <time>2019-08-09T09:44:19Z</time>
      </trkpt>
      <trkpt lat="48.4633" lon="7.48371">
        <ele>187.1</ele>
        <time>2019-08-09T09:44:21Z</time>
      </trkpt>
      <trkpt lat="48.46327" lon="7.48375">
        <ele>187.1</ele>
        <time>2019-08-09T09:44:23Z</time>
      </trkpt>
      <trkpt lat="48.46326" lon="7.48382">
        <ele>186.9</ele>
        <time>2019-08-09T09:44:25Z</time>
      </trkpt>
      <trkpt lat="48.46325" lon="7.48388">
        <ele>186.9</ele>
        <time>2019-08-09T09:44:26Z</time>
      </trkpt>
      <trkpt lat="48.46324" lon="7.48393">
        <ele>186.8</ele>
        <time>2019-08-09T09:44:27Z</time>
      </trkpt>
      <trkpt lat="48.46322" lon="7.48398">
        <ele>186.7</ele>
        <time>2019-08-09T09:44:28Z</time>
      </trkpt>
      <trkpt lat="48.46321" lon="7.48403">
        <ele>186.7</ele>
        <time>2019-08-09T09:44:29Z</time>
      </trkpt>
      <trkpt lat="48.46319" lon="7.48408">
        <ele>186.6</ele>
        <time>2019-08-09T09:44:30Z</time>
      </trkpt>
      <trkpt lat="48.46319" lon="7.48414">
        <ele>186.6</ele>
        <time>2019-08-09T09:44:31Z</time>
      </trkpt>
      <trkpt lat="48.46318" lon="7.48419">
        <ele>186.5</ele>
        <time>2019-08-09T09:44:32Z</time>
      </trkpt>
      <trkpt lat="48.46316" lon="7.48423">
        <ele>186.5</ele>
        <time>2019-08-09T09:44:33Z</time>
      </trkpt>
      <trkpt lat="48.46315" lon="7.48428">
        <ele>186.4</ele>
        <time>2019-08-09T09:44:34Z</time>
      </trkpt>
      <trkpt lat="48.46313" lon="7.48433">
        <ele>186.4</ele>
        <time>2019-08-09T09:44:35Z</time>
      </trkpt>
      <trkpt lat="48.46312" lon="7.48439">
        <ele>186.3</ele>
        <time>2019-08-09T09:44:36Z</time>
      </trkpt>
      <trkpt lat="48.46309" lon="7.48445">
        <ele>186.2</ele>
        <time>2019-08-09T09:44:37Z</time>
      </trkpt>
      <trkpt lat="48.46307" lon="7.48451">
        <ele>186.2</ele>
        <time>2019-08-09T09:44:38Z</time>
      </trkpt>
      <trkpt lat="48.46306" lon="7.48456">
        <ele>186.1</ele>
        <time>2019-08-09T09:44:39Z</time>
      </trkpt>
      <trkpt lat="48.46304" lon="7.48461">
        <ele>186.1</ele>
        <time>2019-08-09T09:44:40Z</time>
      </trkpt>
      <trkpt lat="48.46303" lon="7.48465">
        <ele>186</ele>
        <time>2019-08-09T09:44:41Z</time>
      </trkpt>
      <trkpt lat="48.46302" lon="7.4847">
        <ele>186</ele>
        <time>2019-08-09T09:44:42Z</time>
      </trkpt>
      <trkpt lat="48.46301" lon="7.48476">
        <ele>185.9</ele>
        <time>2019-08-09T09:44:43Z</time>
      </trkpt>
      <trkpt lat="48.463" lon="7.48481">
        <ele>185.9</ele>
        <time>2019-08-09T09:44:44Z</time>
      </trkpt>
      <trkpt lat="48.46299" lon="7.48486">
        <ele>185.9</ele>
        <time>2019-08-09T09:44:45Z</time>
      </trkpt>
      <trkpt lat="48.46298" lon="7.48491">
        <ele>185.8</ele>
        <time>2019-08-09T09:44:46Z</time>
      </trkpt>
      <trkpt lat="48.46296" lon="7.48495">
        <ele>185.8</ele>
        <time>2019-08-09T09:44:47Z</time>
      </trkpt>
      <trkpt lat="48.46294" lon="7.485">
        <ele>185.7</ele>
        <time>2019-08-09T09:44:48Z</time>
      </trkpt>
      <trkpt lat="48.46291" lon="7.48505">
        <ele>185.7</ele>
        <time>2019-08-09T09:44:49Z</time>
      </trkpt>
      <trkpt lat="48.46289" lon="7.4851">
        <ele>185.7</ele>
        <time>2019-08-09T09:44:50Z</time>
      </trkpt>
      <trkpt lat="48.46287" lon="7.48515">
        <ele>185.7</ele>
        <time>2019-08-09T09:44:51Z</time>
      </trkpt>
      <trkpt lat="48.46285" lon="7.48521">
        <ele>185.6</ele>
        <time>2019-08-09T09:44:52Z</time>
      </trkpt>
      <trkpt lat="48.46283" lon="7.48526">
        <ele>185.6</ele>
        <time>2019-08-09T09:44:53Z</time>
      </trkpt>
      <trkpt lat="48.4628" lon="7.48531">
        <ele>185.6</ele>
        <time>2019-08-09T09:44:54Z</time>
      </trkpt>
      <trkpt lat="48.46277" lon="7.48536">
        <ele>185.6</ele>
        <time>2019-08-09T09:44:55Z</time>
      </trkpt>
      <trkpt lat="48.46274" lon="7.48539">
        <ele>185.6</ele>
        <time>2019-08-09T09:44:56Z</time>
      </trkpt>
      <trkpt lat="48.4627" lon="7.48542">
        <ele>185.6</ele>
        <time>2019-08-09T09:44:57Z</time>
      </trkpt>
      <trkpt lat="48.46267" lon="7.48546">
        <ele>185.6</ele>
        <time>2019-08-09T09:44:58Z</time>
      </trkpt>
      <trkpt lat="48.46264" lon="7.48547">
        <ele>185.6</ele>
        <time>2019-08-09T09:44:59Z</time>
      </trkpt>
      <trkpt lat="48.4626" lon="7.48548">
        <ele>185.6</ele>
        <time>2019-08-09T09:45:00Z</time>
      </trkpt>
      <trkpt lat="48.46256" lon="7.48548">
        <ele>185.6</ele>
        <time>2019-08-09T09:45:01Z</time>
      </trkpt>
      <trkpt lat="48.46252" lon="7.48549">
        <ele>185.6</ele>
        <time>2019-08-09T09:45:02Z</time>
      </trkpt>
      <trkpt lat="48.46248" lon="7.48549">
        <ele>185.6</ele>
        <time>2019-08-09T09:45:03Z</time>
      </trkpt>
      <trkpt lat="48.46244" lon="7.48551">
        <ele>185.6</ele>
        <time>2019-08-09T09:45:04Z</time>
      </trkpt>
      <trkpt lat="48.4624" lon="7.48551">
        <ele>185.6</ele>
        <time>2019-08-09T09:45:05Z</time>
      </trkpt>
      <trkpt lat="48.46236" lon="7.48552">
        <ele>185.6</ele>
        <time>2019-08-09T09:45:06Z</time>
      </trkpt>
      <trkpt lat="48.46233" lon="7.48552">
        <ele>185.5</ele>
        <time>2019-08-09T09:45:07Z</time>
      </trkpt>
      <trkpt lat="48.46229" lon="7.48553">
        <ele>185.5</ele>
        <time>2019-08-09T09:45:09Z</time>
      </trkpt>
      <trkpt lat="48.46228" lon="7.48549">
        <ele>185.5</ele>
        <time>2019-08-09T09:45:11Z</time>
      </trkpt>
      <trkpt lat="48.46224" lon="7.48548">
        <ele>185.5</ele>
        <time>2019-08-09T09:45:14Z</time>
      </trkpt>
      <trkpt lat="48.46221" lon="7.48543">
        <ele>185.4</ele>
        <time>2019-08-09T09:45:16Z</time>
      </trkpt>
      <trkpt lat="48.46217" lon="7.48541">
        <ele>185.3</ele>
        <time>2019-08-09T09:45:18Z</time>
      </trkpt>
      <trkpt lat="48.46213" lon="7.48539">
        <ele>185.3</ele>
        <time>2019-08-09T09:45:20Z</time>
      </trkpt>
      <trkpt lat="48.46211" lon="7.48538">
        <ele>185.3</ele>
        <time>2019-08-09T09:45:21Z</time>
      </trkpt>
      <trkpt lat="48.46208" lon="7.48538">
        <ele>185.3</ele>
        <time>2019-08-09T09:45:22Z</time>
      </trkpt>
      <trkpt lat="48.46204" lon="7.48538">
        <ele>185.2</ele>
        <time>2019-08-09T09:45:23Z</time>
      </trkpt>
      <trkpt lat="48.46201" lon="7.48537">
        <ele>185.2</ele>
        <time>2019-08-09T09:45:24Z</time>
      </trkpt>
      <trkpt lat="48.46199" lon="7.48534">
        <ele>185.2</ele>
        <time>2019-08-09T09:45:25Z</time>
      </trkpt>
      <trkpt lat="48.46196" lon="7.48533">
        <ele>185.1</ele>
        <time>2019-08-09T09:45:26Z</time>
      </trkpt>
      <trkpt lat="48.46193" lon="7.48533">
        <ele>185</ele>
        <time>2019-08-09T09:45:27Z</time>
      </trkpt>
      <trkpt lat="48.4619" lon="7.48531">
        <ele>184.9</ele>
        <time>2019-08-09T09:45:28Z</time>
      </trkpt>
      <trkpt lat="48.46187" lon="7.48529">
        <ele>184.8</ele>
        <time>2019-08-09T09:45:29Z</time>
      </trkpt>
      <trkpt lat="48.46184" lon="7.48528">
        <ele>184.6</ele>
        <time>2019-08-09T09:45:30Z</time>
      </trkpt>
      <trkpt lat="48.46179" lon="7.48526">
        <ele>183.9</ele>
        <time>2019-08-09T09:45:32Z</time>
      </trkpt>
      <trkpt lat="48.46175" lon="7.48523">
        <ele>183.8</ele>
        <time>2019-08-09T09:45:34Z</time>
      </trkpt>
      <trkpt lat="48.46171" lon="7.48523">
        <ele>183.8</ele>
        <time>2019-08-09T09:45:36Z</time>
      </trkpt>
      <trkpt lat="48.46168" lon="7.4852">
        <ele>183.7</ele>
        <time>2019-08-09T09:45:38Z</time>
      </trkpt>
      <trkpt lat="48.46164" lon="7.4852">
        <ele>183.6</ele>
        <time>2019-08-09T09:45:40Z</time>
      </trkpt>
      <trkpt lat="48.46159" lon="7.48519">
        <ele>183.6</ele>
        <time>2019-08-09T09:45:42Z</time>
      </trkpt>
      <trkpt lat="48.46154" lon="7.48517">
        <ele>183.5</ele>
        <time>2019-08-09T09:45:44Z</time>
      </trkpt>
      <trkpt lat="48.46152" lon="7.48515">
        <ele>183.5</ele>
        <time>2019-08-09T09:45:45Z</time>
      </trkpt>
      <trkpt lat="48.46148" lon="7.48514">
        <ele>183.4</ele>
        <time>2019-08-09T09:45:47Z</time>
      </trkpt>
      <trkpt lat="48.46145" lon="7.48519">
        <ele>183.3</ele>
        <time>2019-08-09T09:45:49Z</time>
      </trkpt>
      <trkpt lat="48.46145" lon="7.48523">
        <ele>183.3</ele>
        <time>2019-08-09T09:45:51Z</time>
      </trkpt>
      <trkpt lat="48.46149" lon="7.48524">
        <ele>183.2</ele>
        <time>2019-08-09T09:45:54Z</time>
      </trkpt>
      <trkpt lat="48.46152" lon="7.48525">
        <ele>183.2</ele>
        <time>2019-08-09T09:45:55Z</time>
      </trkpt>
      <trkpt lat="48.46156" lon="7.48527">
        <ele>183.2</ele>
        <time>2019-08-09T09:45:56Z</time>
      </trkpt>
      <trkpt lat="48.46159" lon="7.48527">
        <ele>183.2</ele>
        <time>2019-08-09T09:45:57Z</time>
      </trkpt>
      <trkpt lat="48.46163" lon="7.48529">
        <ele>183.1</ele>
        <time>2019-08-09T09:45:58Z</time>
      </trkpt>
      <trkpt lat="48.46166" lon="7.4853">
        <ele>183.1</ele>
        <time>2019-08-09T09:45:59Z</time>
      </trkpt>
      <trkpt lat="48.46169" lon="7.48531">
        <ele>183.1</ele>
        <time>2019-08-09T09:46:00Z</time>
      </trkpt>
      <trkpt lat="48.46173" lon="7.4853">
        <ele>183</ele>
        <time>2019-08-09T09:46:02Z</time>
      </trkpt>
      <trkpt lat="48.46174" lon="7.48524">
        <ele>183</ele>
        <time>2019-08-09T09:46:04Z</time>
      </trkpt>
      <trkpt lat="48.46172" lon="7.48516">
        <ele>182.9</ele>
        <time>2019-08-09T09:46:06Z</time>
      </trkpt>
      <trkpt lat="48.46168" lon="7.48513">
        <ele>182.9</ele>
        <time>2019-08-09T09:46:07Z</time>
      </trkpt>
      <trkpt lat="48.46164" lon="7.4851">
        <ele>182.8</ele>
        <time>2019-08-09T09:46:08Z</time>
      </trkpt>
      <trkpt lat="48.4616" lon="7.48508">
        <ele>182.8</ele>
        <time>2019-08-09T09:46:09Z</time>
      </trkpt>
      <trkpt lat="48.46158" lon="7.48505">
        <ele>182.8</ele>
        <time>2019-08-09T09:46:10Z</time>
      </trkpt>
      <trkpt lat="48.46155" lon="7.48502">
        <ele>182.7</ele>
        <time>2019-08-09T09:46:11Z</time>
      </trkpt>
      <trkpt lat="48.46152" lon="7.48499">
        <ele>182.7</ele>
        <time>2019-08-09T09:46:12Z</time>
      </trkpt>
      <trkpt lat="48.46149" lon="7.48497">
        <ele>182.7</ele>
        <time>2019-08-09T09:46:13Z</time>
      </trkpt>
      <trkpt lat="48.46145" lon="7.48495">
        <ele>182.6</ele>
        <time>2019-08-09T09:46:14Z</time>
      </trkpt>
      <trkpt lat="48.46142" lon="7.48494">
        <ele>182.6</ele>
        <time>2019-08-09T09:46:15Z</time>
      </trkpt>
      <trkpt lat="48.4614" lon="7.48494">
        <ele>182.6</ele>
        <time>2019-08-09T09:46:16Z</time>
      </trkpt>
      <trkpt lat="48.46137" lon="7.48493">
        <ele>182.5</ele>
        <time>2019-08-09T09:46:17Z</time>
      </trkpt>
      <trkpt lat="48.46134" lon="7.48492">
        <ele>182.5</ele>
        <time>2019-08-09T09:46:18Z</time>
      </trkpt>
      <trkpt lat="48.46131" lon="7.48491">
        <ele>182.5</ele>
        <time>2019-08-09T09:46:19Z</time>
      </trkpt>
      <trkpt lat="48.46128" lon="7.4849">
        <ele>182.5</ele>
        <time>2019-08-09T09:46:20Z</time>
      </trkpt>
      <trkpt lat="48.46123" lon="7.48488">
        <ele>182.4</ele>
        <time>2019-08-09T09:46:22Z</time>
      </trkpt>
      <trkpt lat="48.46119" lon="7.48485">
        <ele>182.3</ele>
        <time>2019-08-09T09:46:24Z</time>
      </trkpt>
      <trkpt lat="48.46116" lon="7.48481">
        <ele>182.3</ele>
        <time>2019-08-09T09:46:26Z</time>
      </trkpt>
      <trkpt lat="48.46114" lon="7.48478">
        <ele>182.3</ele>
        <time>2019-08-09T09:46:28Z</time>
      </trkpt>
      <trkpt lat="48.46112" lon="7.48476">
        <ele>182.3</ele>
        <time>2019-08-09T09:46:30Z</time>
      </trkpt>
      <trkpt lat="48.46108" lon="7.48478">
        <ele>182.3</ele>
        <time>2019-08-09T09:46:32Z</time>
      </trkpt>
      <trkpt lat="48.46105" lon="7.48477">
        <ele>182.3</ele>
        <time>2019-08-09T09:46:34Z</time>
      </trkpt>
      <trkpt lat="48.46101" lon="7.48477">
        <ele>182.3</ele>
        <time>2019-08-09T09:46:36Z</time>
      </trkpt>
      <trkpt lat="48.46102" lon="7.48481">
        <ele>182.3</ele>
        <time>2019-08-09T09:46:39Z</time>
      </trkpt>
      <trkpt lat="48.46106" lon="7.48484">
        <ele>182.2</ele>
        <time>2019-08-09T09:46:41Z</time>
      </trkpt>
      <trkpt lat="48.46108" lon="7.48487">
        <ele>182.2</ele>
        <time>2019-08-09T09:46:43Z</time>
      </trkpt>
      <trkpt lat="48.46106" lon="7.48494">
        <ele>182.1</ele>
        <time>2019-08-09T09:46:45Z</time>
      </trkpt>
      <trkpt lat="48.46105" lon="7.48498">
        <ele>182</ele>
        <time>2019-08-09T09:46:46Z</time>
      </trkpt>
      <trkpt lat="48.46102" lon="7.48502">
        <ele>181.9</ele>
        <time>2019-08-09T09:46:48Z</time>
      </trkpt>
      <trkpt lat="48.46099" lon="7.48503">
        <ele>181.8</ele>
        <time>2019-08-09T09:46:49Z</time>
      </trkpt>
      <trkpt lat="48.46095" lon="7.48509">
        <ele>181.6</ele>
        <time>2019-08-09T09:46:51Z</time>
      </trkpt>
      <trkpt lat="48.46091" lon="7.48515">
        <ele>181.3</ele>
        <time>2019-08-09T09:46:53Z</time>
      </trkpt>
      <trkpt lat="48.46089" lon="7.48518">
        <ele>181.3</ele>
        <time>2019-08-09T09:46:54Z</time>
      </trkpt>
      <trkpt lat="48.46087" lon="7.48521">
        <ele>181.2</ele>
        <time>2019-08-09T09:46:55Z</time>
      </trkpt>
      <trkpt lat="48.46085" lon="7.48524">
        <ele>181.1</ele>
        <time>2019-08-09T09:46:56Z</time>
      </trkpt>
      <trkpt lat="48.46082" lon="7.48528">
        <ele>181.1</ele>
        <time>2019-08-09T09:46:57Z</time>
      </trkpt>
      <trkpt lat="48.4608" lon="7.48531">
        <ele>181</ele>
        <time>2019-08-09T09:46:58Z</time>
      </trkpt>
      <trkpt lat="48.46078" lon="7.48534">
        <ele>180.9</ele>
        <time>2019-08-09T09:46:59Z</time>
      </trkpt>
      <trkpt lat="48.46076" lon="7.48537">
        <ele>180.9</ele>
        <time>2019-08-09T09:47:00Z</time>
      </trkpt>
      <trkpt lat="48.46074" lon="7.48539">
        <ele>180.8</ele>
        <time>2019-08-09T09:47:01Z</time>
      </trkpt>
      <trkpt lat="48.46071" lon="7.48542">
        <ele>180.7</ele>
        <time>2019-08-09T09:47:02Z</time>
      </trkpt>
      <trkpt lat="48.46067" lon="7.48547">
        <ele>180.6</ele>
        <time>2019-08-09T09:47:03Z</time>
      </trkpt>
      <trkpt lat="48.46065" lon="7.48552">
        <ele>180.5</ele>
        <time>2019-08-09T09:47:04Z</time>
      </trkpt>
      <trkpt lat="48.46063" lon="7.48556">
        <ele>180.3</ele>
        <time>2019-08-09T09:47:05Z</time>
      </trkpt>
      <trkpt lat="48.46062" lon="7.48561">
        <ele>180.2</ele>
        <time>2019-08-09T09:47:06Z</time>
      </trkpt>
      <trkpt lat="48.46062" lon="7.48568">
        <ele>180</ele>
        <time>2019-08-09T09:47:07Z</time>
      </trkpt>
      <trkpt lat="48.46061" lon="7.48574">
        <ele>179.9</ele>
        <time>2019-08-09T09:47:08Z</time>
      </trkpt>
      <trkpt lat="48.4606" lon="7.48579">
        <ele>179.9</ele>
        <time>2019-08-09T09:47:09Z</time>
      </trkpt>
      <trkpt lat="48.46058" lon="7.48584">
        <ele>179.8</ele>
        <time>2019-08-09T09:47:10Z</time>
      </trkpt>
      <trkpt lat="48.46057" lon="7.48589">
        <ele>179.7</ele>
        <time>2019-08-09T09:47:11Z</time>
      </trkpt>
      <trkpt lat="48.46057" lon="7.48594">
        <ele>179.6</ele>
        <time>2019-08-09T09:47:12Z</time>
      </trkpt>
      <trkpt lat="48.46056" lon="7.486">
        <ele>179.6</ele>
        <time>2019-08-09T09:47:13Z</time>
      </trkpt>
      <trkpt lat="48.46055" lon="7.48606">
        <ele>179.5</ele>
        <time>2019-08-09T09:47:14Z</time>
      </trkpt>
      <trkpt lat="48.46054" lon="7.48612">
        <ele>179.5</ele>
        <time>2019-08-09T09:47:15Z</time>
      </trkpt>
      <trkpt lat="48.46052" lon="7.48618">
        <ele>179.5</ele>
        <time>2019-08-09T09:47:16Z</time>
      </trkpt>
      <trkpt lat="48.46051" lon="7.48623">
        <ele>179.5</ele>
        <time>2019-08-09T09:47:17Z</time>
      </trkpt>
      <trkpt lat="48.4605" lon="7.48629">
        <ele>179.5</ele>
        <time>2019-08-09T09:47:18Z</time>
      </trkpt>
      <trkpt lat="48.46049" lon="7.48635">
        <ele>179.5</ele>
        <time>2019-08-09T09:47:19Z</time>
      </trkpt>
      <trkpt lat="48.46049" lon="7.48641">
        <ele>179.5</ele>
        <time>2019-08-09T09:47:20Z</time>
      </trkpt>
      <trkpt lat="48.46049" lon="7.48647">
        <ele>179.5</ele>
        <time>2019-08-09T09:47:21Z</time>
      </trkpt>
      <trkpt lat="48.46048" lon="7.48652">
        <ele>179.5</ele>
        <time>2019-08-09T09:47:22Z</time>
      </trkpt>
      <trkpt lat="48.46048" lon="7.48656">
        <ele>179.5</ele>
        <time>2019-08-09T09:47:23Z</time>
      </trkpt>
      <trkpt lat="48.46046" lon="7.48661">
        <ele>179.4</ele>
        <time>2019-08-09T09:47:25Z</time>
      </trkpt>
      <trkpt lat="48.46044" lon="7.48665">
        <ele>179.4</ele>
        <time>2019-08-09T09:47:28Z</time>
      </trkpt>
      <trkpt lat="48.46042" lon="7.48659">
        <ele>179.3</ele>
        <time>2019-08-09T09:47:32Z</time>
      </trkpt>
      <trkpt lat="48.46041" lon="7.48654">
        <ele>179.3</ele>
        <time>2019-08-09T09:47:33Z</time>
      </trkpt>
      <trkpt lat="48.4604" lon="7.48649">
        <ele>179.1</ele>
        <time>2019-08-09T09:47:34Z</time>
      </trkpt>
      <trkpt lat="48.46039" lon="7.48645">
        <ele>179.1</ele>
        <time>2019-08-09T09:47:35Z</time>
      </trkpt>
      <trkpt lat="48.46038" lon="7.48641">
        <ele>179</ele>
        <time>2019-08-09T09:47:36Z</time>
      </trkpt>
      <trkpt lat="48.46033" lon="7.48638">
        <ele>178.9</ele>
        <time>2019-08-09T09:47:38Z</time>
      </trkpt>
      <trkpt lat="48.4603" lon="7.48636">
        <ele>178.8</ele>
        <time>2019-08-09T09:47:39Z</time>
      </trkpt>
      <trkpt lat="48.46027" lon="7.48633">
        <ele>178.7</ele>
        <time>2019-08-09T09:47:40Z</time>
      </trkpt>
      <trkpt lat="48.46024" lon="7.48631">
        <ele>178.6</ele>
        <time>2019-08-09T09:47:41Z</time>
      </trkpt>
      <trkpt lat="48.46021" lon="7.48628">
        <ele>178.5</ele>
        <time>2019-08-09T09:47:42Z</time>
      </trkpt>
      <trkpt lat="48.46018" lon="7.48625">
        <ele>178.5</ele>
        <time>2019-08-09T09:47:43Z</time>
      </trkpt>
      <trkpt lat="48.46014" lon="7.48622">
        <ele>178.2</ele>
        <time>2019-08-09T09:47:44Z</time>
      </trkpt>
      <trkpt lat="48.46011" lon="7.48621">
        <ele>178.1</ele>
        <time>2019-08-09T09:47:45Z</time>
      </trkpt>
      <trkpt lat="48.46008" lon="7.4862">
        <ele>178</ele>
        <time>2019-08-09T09:47:46Z</time>
      </trkpt>
      <trkpt lat="48.46005" lon="7.48618">
        <ele>177.9</ele>
        <time>2019-08-09T09:47:47Z</time>
      </trkpt>
      <trkpt lat="48.46003" lon="7.48617">
        <ele>177.8</ele>
        <time>2019-08-09T09:47:48Z</time>
      </trkpt>
      <trkpt lat="48.46" lon="7.48616">
        <ele>177.7</ele>
        <time>2019-08-09T09:47:49Z</time>
      </trkpt>
      <trkpt lat="48.45995" lon="7.48618">
        <ele>177.6</ele>
        <time>2019-08-09T09:47:51Z</time>
      </trkpt>
      <trkpt lat="48.45992" lon="7.48622">
        <ele>177.6</ele>
        <time>2019-08-09T09:47:52Z</time>
      </trkpt>
      <trkpt lat="48.45989" lon="7.48628">
        <ele>177.5</ele>
        <time>2019-08-09T09:47:53Z</time>
      </trkpt>
      <trkpt lat="48.45987" lon="7.48635">
        <ele>177.4</ele>
        <time>2019-08-09T09:47:54Z</time>
      </trkpt>
      <trkpt lat="48.45986" lon="7.48642">
        <ele>177.3</ele>
        <time>2019-08-09T09:47:55Z</time>
      </trkpt>
      <trkpt lat="48.45984" lon="7.48649">
        <ele>177.2</ele>
        <time>2019-08-09T09:47:56Z</time>
      </trkpt>
      <trkpt lat="48.45982" lon="7.48656">
        <ele>177.1</ele>
        <time>2019-08-09T09:47:57Z</time>
      </trkpt>
      <trkpt lat="48.45981" lon="7.48661">
        <ele>177</ele>
        <time>2019-08-09T09:47:58Z</time>
      </trkpt>
      <trkpt lat="48.45979" lon="7.48666">
        <ele>176.9</ele>
        <time>2019-08-09T09:47:59Z</time>
      </trkpt>
      <trkpt lat="48.45978" lon="7.48672">
        <ele>176.8</ele>
        <time>2019-08-09T09:48:00Z</time>
      </trkpt>
      <trkpt lat="48.45976" lon="7.48678">
        <ele>176.8</ele>
        <time>2019-08-09T09:48:01Z</time>
      </trkpt>
      <trkpt lat="48.45975" lon="7.48684">
        <ele>176.7</ele>
        <time>2019-08-09T09:48:02Z</time>
      </trkpt>
      <trkpt lat="48.45974" lon="7.4869">
        <ele>176.7</ele>
        <time>2019-08-09T09:48:03Z</time>
      </trkpt>
      <trkpt lat="48.45973" lon="7.48695">
        <ele>176.6</ele>
        <time>2019-08-09T09:48:04Z</time>
      </trkpt>
      <trkpt lat="48.45972" lon="7.487">
        <ele>176.6</ele>
        <time>2019-08-09T09:48:05Z</time>
      </trkpt>
      <trkpt lat="48.45971" lon="7.48704">
        <ele>176.5</ele>
        <time>2019-08-09T09:48:06Z</time>
      </trkpt>
      <trkpt lat="48.45971" lon="7.48709">
        <ele>176.5</ele>
        <time>2019-08-09T09:48:07Z</time>
      </trkpt>
      <trkpt lat="48.45972" lon="7.48715">
        <ele>176.4</ele>
        <time>2019-08-09T09:48:09Z</time>
      </trkpt>
      <trkpt lat="48.45975" lon="7.48719">
        <ele>176.4</ele>
        <time>2019-08-09T09:48:11Z</time>
      </trkpt>
      <trkpt lat="48.45979" lon="7.48714">
        <ele>176.3</ele>
        <time>2019-08-09T09:48:43Z</time>
      </trkpt>
      <trkpt lat="48.45979" lon="7.48708">
        <ele>176.2</ele>
        <time>2019-08-09T09:48:45Z</time>
      </trkpt>
      <trkpt lat="48.45977" lon="7.48705">
        <ele>176.1</ele>
        <time>2019-08-09T09:48:47Z</time>
      </trkpt>
      <trkpt lat="48.45975" lon="7.48701">
        <ele>176</ele>
        <time>2019-08-09T09:48:49Z</time>
      </trkpt>
      <trkpt lat="48.4597" lon="7.48699">
        <ele>175.9</ele>
        <time>2019-08-09T09:48:51Z</time>
      </trkpt>
      <trkpt lat="48.45968" lon="7.48699">
        <ele>175.9</ele>
        <time>2019-08-09T09:48:52Z</time>
      </trkpt>
      <trkpt lat="48.45964" lon="7.48701">
        <ele>175.9</ele>
        <time>2019-08-09T09:48:53Z</time>
      </trkpt>
      <trkpt lat="48.45962" lon="7.48703">
        <ele>175.9</ele>
        <time>2019-08-09T09:48:54Z</time>
      </trkpt>
      <trkpt lat="48.45959" lon="7.48703">
        <ele>175.9</ele>
        <time>2019-08-09T09:48:55Z</time>
      </trkpt>
      <trkpt lat="48.45955" lon="7.48703">
        <ele>175.9</ele>
        <time>2019-08-09T09:48:56Z</time>
      </trkpt>
      <trkpt lat="48.45951" lon="7.48701">
        <ele>175.8</ele>
        <time>2019-08-09T09:48:57Z</time>
      </trkpt>
      <trkpt lat="48.45948" lon="7.487">
        <ele>175.7</ele>
        <time>2019-08-09T09:48:58Z</time>
      </trkpt>
      <trkpt lat="48.45944" lon="7.48699">
        <ele>175.7</ele>
        <time>2019-08-09T09:48:59Z</time>
      </trkpt>
      <trkpt lat="48.45939" lon="7.48697">
        <ele>175.6</ele>
        <time>2019-08-09T09:49:00Z</time>
      </trkpt>
      <trkpt lat="48.45934" lon="7.48696">
        <ele>175.5</ele>
        <time>2019-08-09T09:49:01Z</time>
      </trkpt>
      <trkpt lat="48.45929" lon="7.48694">
        <ele>175.4</ele>
        <time>2019-08-09T09:49:02Z</time>
      </trkpt>
      <trkpt lat="48.45925" lon="7.48692">
        <ele>175.4</ele>
        <time>2019-08-09T09:49:03Z</time>
      </trkpt>
      <trkpt lat="48.45921" lon="7.48691">
        <ele>175.4</ele>
        <time>2019-08-09T09:49:04Z</time>
      </trkpt>
      <trkpt lat="48.45917" lon="7.4869">
        <ele>175.4</ele>
        <time>2019-08-09T09:49:05Z</time>
      </trkpt>
      <trkpt lat="48.45913" lon="7.48688">
        <ele>175.4</ele>
        <time>2019-08-09T09:49:06Z</time>
      </trkpt>
      <trkpt lat="48.45909" lon="7.48686">
        <ele>175.5</ele>
        <time>2019-08-09T09:49:07Z</time>
      </trkpt>
      <trkpt lat="48.45906" lon="7.48685">
        <ele>175.5</ele>
        <time>2019-08-09T09:49:08Z</time>
      </trkpt>
      <trkpt lat="48.45903" lon="7.48685">
        <ele>175.5</ele>
        <time>2019-08-09T09:49:09Z</time>
      </trkpt>
      <trkpt lat="48.45899" lon="7.48685">
        <ele>175.5</ele>
        <time>2019-08-09T09:49:10Z</time>
      </trkpt>
      <trkpt lat="48.45895" lon="7.48684">
        <ele>175.6</ele>
        <time>2019-08-09T09:49:11Z</time>
      </trkpt>
      <trkpt lat="48.45891" lon="7.48684">
        <ele>175.7</ele>
        <time>2019-08-09T09:49:12Z</time>
      </trkpt>
      <trkpt lat="48.45887" lon="7.48683">
        <ele>175.8</ele>
        <time>2019-08-09T09:49:13Z</time>
      </trkpt>
      <trkpt lat="48.45883" lon="7.48683">
        <ele>176</ele>
        <time>2019-08-09T09:49:14Z</time>
      </trkpt>
      <trkpt lat="48.45879" lon="7.48682">
        <ele>176.1</ele>
        <time>2019-08-09T09:49:15Z</time>
      </trkpt>
      <trkpt lat="48.45876" lon="7.48682">
        <ele>176.2</ele>
        <time>2019-08-09T09:49:16Z</time>
      </trkpt>
      <trkpt lat="48.45872" lon="7.48682">
        <ele>176.4</ele>
        <time>2019-08-09T09:49:17Z</time>
      </trkpt>
      <trkpt lat="48.45868" lon="7.48681">
        <ele>176.5</ele>
        <time>2019-08-09T09:49:18Z</time>
      </trkpt>
      <trkpt lat="48.45864" lon="7.4868">
        <ele>176.5</ele>
        <time>2019-08-09T09:49:19Z</time>
      </trkpt>
      <trkpt lat="48.45861" lon="7.48678">
        <ele>176.6</ele>
        <time>2019-08-09T09:49:20Z</time>
      </trkpt>
      <trkpt lat="48.45857" lon="7.48676">
        <ele>176.7</ele>
        <time>2019-08-09T09:49:21Z</time>
      </trkpt>
      <trkpt lat="48.45853" lon="7.48675">
        <ele>176.8</ele>
        <time>2019-08-09T09:49:22Z</time>
      </trkpt>
      <trkpt lat="48.45849" lon="7.48671">
        <ele>176.9</ele>
        <time>2019-08-09T09:49:23Z</time>
      </trkpt>
      <trkpt lat="48.45845" lon="7.48668">
        <ele>177</ele>
        <time>2019-08-09T09:49:24Z</time>
      </trkpt>
      <trkpt lat="48.45842" lon="7.48665">
        <ele>177.1</ele>
        <time>2019-08-09T09:49:25Z</time>
      </trkpt>
      <trkpt lat="48.45839" lon="7.48662">
        <ele>177.2</ele>
        <time>2019-08-09T09:49:26Z</time>
      </trkpt>
      <trkpt lat="48.45835" lon="7.48659">
        <ele>177.4</ele>
        <time>2019-08-09T09:49:27Z</time>
      </trkpt>
      <trkpt lat="48.45832" lon="7.48656">
        <ele>177.5</ele>
        <time>2019-08-09T09:49:28Z</time>
      </trkpt>
      <trkpt lat="48.45828" lon="7.48652">
        <ele>177.7</ele>
        <time>2019-08-09T09:49:29Z</time>
      </trkpt>
      <trkpt lat="48.45825" lon="7.48648">
        <ele>177.8</ele>
        <time>2019-08-09T09:49:30Z</time>
      </trkpt>
      <trkpt lat="48.45821" lon="7.48646">
        <ele>178</ele>
        <time>2019-08-09T09:49:31Z</time>
      </trkpt>
      <trkpt lat="48.45817" lon="7.48642">
        <ele>178.1</ele>
        <time>2019-08-09T09:49:32Z</time>
      </trkpt>
      <trkpt lat="48.45815" lon="7.48639">
        <ele>178.3</ele>
        <time>2019-08-09T09:49:33Z</time>
      </trkpt>
      <trkpt lat="48.45812" lon="7.48636">
        <ele>178.4</ele>
        <time>2019-08-09T09:49:34Z</time>
      </trkpt>
      <trkpt lat="48.45809" lon="7.48633">
        <ele>178.5</ele>
        <time>2019-08-09T09:49:35Z</time>
      </trkpt>
      <trkpt lat="48.45805" lon="7.48632">
        <ele>178.7</ele>
        <time>2019-08-09T09:49:36Z</time>
      </trkpt>
      <trkpt lat="48.45802" lon="7.4863">
        <ele>178.8</ele>
        <time>2019-08-09T09:49:37Z</time>
      </trkpt>
      <trkpt lat="48.45798" lon="7.48626">
        <ele>179</ele>
        <time>2019-08-09T09:49:38Z</time>
      </trkpt>
      <trkpt lat="48.45794" lon="7.48623">
        <ele>179.2</ele>
        <time>2019-08-09T09:49:39Z</time>
      </trkpt>
      <trkpt lat="48.45791" lon="7.4862">
        <ele>179.3</ele>
        <time>2019-08-09T09:49:40Z</time>
      </trkpt>
      <trkpt lat="48.45788" lon="7.48618">
        <ele>179.4</ele>
        <time>2019-08-09T09:49:41Z</time>
      </trkpt>
      <trkpt lat="48.45785" lon="7.48615">
        <ele>179.6</ele>
        <time>2019-08-09T09:49:42Z</time>
      </trkpt>
      <trkpt lat="48.45781" lon="7.48615">
        <ele>179.7</ele>
        <time>2019-08-09T09:49:43Z</time>
      </trkpt>
      <trkpt lat="48.45778" lon="7.48611">
        <ele>179.9</ele>
        <time>2019-08-09T09:49:44Z</time>
      </trkpt>
      <trkpt lat="48.45775" lon="7.4861">
        <ele>180</ele>
        <time>2019-08-09T09:49:45Z</time>
      </trkpt>
      <trkpt lat="48.4577" lon="7.4861">
        <ele>180.1</ele>
        <time>2019-08-09T09:49:47Z</time>
      </trkpt>
      <trkpt lat="48.45767" lon="7.48615">
        <ele>180.2</ele>
        <time>2019-08-09T09:49:49Z</time>
      </trkpt>
      <trkpt lat="48.45765" lon="7.48621">
        <ele>180.4</ele>
        <time>2019-08-09T09:49:51Z</time>
      </trkpt>
      <trkpt lat="48.45764" lon="7.48625">
        <ele>180.4</ele>
        <time>2019-08-09T09:49:53Z</time>
      </trkpt>
      <trkpt lat="48.45763" lon="7.4863">
        <ele>180.4</ele>
        <time>2019-08-09T09:49:55Z</time>
      </trkpt>
      <trkpt lat="48.45761" lon="7.48633">
        <ele>180.4</ele>
        <time>2019-08-09T09:49:57Z</time>
      </trkpt>
      <trkpt lat="48.45757" lon="7.48637">
        <ele>180.4</ele>
        <time>2019-08-09T09:49:59Z</time>
      </trkpt>
      <trkpt lat="48.45754" lon="7.4864">
        <ele>180.4</ele>
        <time>2019-08-09T09:50:00Z</time>
      </trkpt>
      <trkpt lat="48.45752" lon="7.48643">
        <ele>180.4</ele>
        <time>2019-08-09T09:50:01Z</time>
      </trkpt>
      <trkpt lat="48.4575" lon="7.48647">
        <ele>180.4</ele>
        <time>2019-08-09T09:50:02Z</time>
      </trkpt>
      <trkpt lat="48.45748" lon="7.48653">
        <ele>180.4</ele>
        <time>2019-08-09T09:50:04Z</time>
      </trkpt>
      <trkpt lat="48.45747" lon="7.48647">
        <ele>180.4</ele>
        <time>2019-08-09T09:50:07Z</time>
      </trkpt>
      <trkpt lat="48.45749" lon="7.48643">
        <ele>180.4</ele>
        <time>2019-08-09T09:50:09Z</time>
      </trkpt>
      <trkpt lat="48.45749" lon="7.48639">
        <ele>180.4</ele>
        <time>2019-08-09T09:50:10Z</time>
      </trkpt>
      <trkpt lat="48.45749" lon="7.48634">
        <ele>180.4</ele>
        <time>2019-08-09T09:50:11Z</time>
      </trkpt>
      <trkpt lat="48.4575" lon="7.4863">
        <ele>180.4</ele>
        <time>2019-08-09T09:50:12Z</time>
      </trkpt>
      <trkpt lat="48.45752" lon="7.48626">
        <ele>180.4</ele>
        <time>2019-08-09T09:50:13Z</time>
      </trkpt>
      <trkpt lat="48.45754" lon="7.48619">
        <ele>180.4</ele>
        <time>2019-08-09T09:50:15Z</time>
      </trkpt>
      <trkpt lat="48.45755" lon="7.48614">
        <ele>180.4</ele>
        <time>2019-08-09T09:50:16Z</time>
      </trkpt>
      <trkpt lat="48.45756" lon="7.48608">
        <ele>180.4</ele>
        <time>2019-08-09T09:50:17Z</time>
      </trkpt>
      <trkpt lat="48.45756" lon="7.48604">
        <ele>180.5</ele>
        <time>2019-08-09T09:50:18Z</time>
      </trkpt>
      <trkpt lat="48.45752" lon="7.48601">
        <ele>180.7</ele>
        <time>2019-08-09T09:50:20Z</time>
      </trkpt>
      <trkpt lat="48.45749" lon="7.486">
        <ele>180.7</ele>
        <time>2019-08-09T09:50:21Z</time>
      </trkpt>
      <trkpt lat="48.45746" lon="7.48598">
        <ele>180.8</ele>
        <time>2019-08-09T09:50:22Z</time>
      </trkpt>
      <trkpt lat="48.45742" lon="7.48597">
        <ele>180.9</ele>
        <time>2019-08-09T09:50:23Z</time>
      </trkpt>
      <trkpt lat="48.45738" lon="7.48595">
        <ele>181</ele>
        <time>2019-08-09T09:50:24Z</time>
      </trkpt>
      <trkpt lat="48.45736" lon="7.48592">
        <ele>181.1</ele>
        <time>2019-08-09T09:50:25Z</time>
      </trkpt>
      <trkpt lat="48.45732" lon="7.48591">
        <ele>181.2</ele>
        <time>2019-08-09T09:50:26Z</time>
      </trkpt>
      <trkpt lat="48.45728" lon="7.48588">
        <ele>181.3</ele>
        <time>2019-08-09T09:50:27Z</time>
      </trkpt>
      <trkpt lat="48.45725" lon="7.48586">
        <ele>181.4</ele>
        <time>2019-08-09T09:50:28Z</time>
      </trkpt>
      <trkpt lat="48.45721" lon="7.48585">
        <ele>181.5</ele>
        <time>2019-08-09T09:50:29Z</time>
      </trkpt>
      <trkpt lat="48.45717" lon="7.48582">
        <ele>181.6</ele>
        <time>2019-08-09T09:50:30Z</time>
      </trkpt>
      <trkpt lat="48.45713" lon="7.48579">
        <ele>181.7</ele>
        <time>2019-08-09T09:50:31Z</time>
      </trkpt>
      <trkpt lat="48.4571" lon="7.48576">
        <ele>181.8</ele>
        <time>2019-08-09T09:50:32Z</time>
      </trkpt>
      <trkpt lat="48.45707" lon="7.48573">
        <ele>181.9</ele>
        <time>2019-08-09T09:50:33Z</time>
      </trkpt>
      <trkpt lat="48.45703" lon="7.48571">
        <ele>181.9</ele>
        <time>2019-08-09T09:50:34Z</time>
      </trkpt>
      <trkpt lat="48.45699" lon="7.48569">
        <ele>182</ele>
        <time>2019-08-09T09:50:35Z</time>
      </trkpt>
      <trkpt lat="48.45694" lon="7.48566">
        <ele>182.1</ele>
        <time>2019-08-09T09:50:36Z</time>
      </trkpt>
      <trkpt lat="48.4569" lon="7.48564">
        <ele>182.2</ele>
        <time>2019-08-09T09:50:37Z</time>
      </trkpt>
      <trkpt lat="48.45687" lon="7.48562">
        <ele>182.3</ele>
        <time>2019-08-09T09:50:38Z</time>
      </trkpt>
      <trkpt lat="48.45684" lon="7.48559">
        <ele>182.3</ele>
        <time>2019-08-09T09:50:39Z</time>
      </trkpt>
      <trkpt lat="48.45679" lon="7.48557">
        <ele>182.3</ele>
        <time>2019-08-09T09:50:40Z</time>
      </trkpt>
      <trkpt lat="48.45676" lon="7.48554">
        <ele>182.3</ele>
        <time>2019-08-09T09:50:41Z</time>
      </trkpt>
      <trkpt lat="48.45671" lon="7.4855">
        <ele>182.3</ele>
        <time>2019-08-09T09:50:42Z</time>
      </trkpt>
      <trkpt lat="48.45667" lon="7.48547">
        <ele>182.3</ele>
        <time>2019-08-09T09:50:43Z</time>
      </trkpt>
      <trkpt lat="48.45664" lon="7.48544">
        <ele>182.3</ele>
        <time>2019-08-09T09:50:44Z</time>
      </trkpt>
      <trkpt lat="48.45659" lon="7.48541">
        <ele>182.4</ele>
        <time>2019-08-09T09:50:45Z</time>
      </trkpt>
      <trkpt lat="48.45655" lon="7.48539">
        <ele>182.4</ele>
        <time>2019-08-09T09:50:46Z</time>
      </trkpt>
      <trkpt lat="48.45652" lon="7.48537">
        <ele>182.5</ele>
        <time>2019-08-09T09:50:47Z</time>
      </trkpt>
      <trkpt lat="48.45648" lon="7.48535">
        <ele>182.5</ele>
        <time>2019-08-09T09:50:48Z</time>
      </trkpt>
      <trkpt lat="48.45644" lon="7.48533">
        <ele>182.6</ele>
        <time>2019-08-09T09:50:49Z</time>
      </trkpt>
      <trkpt lat="48.45639" lon="7.48531">
        <ele>182.7</ele>
        <time>2019-08-09T09:50:50Z</time>
      </trkpt>
      <trkpt lat="48.45635" lon="7.48528">
        <ele>182.8</ele>
        <time>2019-08-09T09:50:51Z</time>
      </trkpt>
      <trkpt lat="48.45631" lon="7.48525">
        <ele>183</ele>
        <time>2019-08-09T09:50:52Z</time>
      </trkpt>
      <trkpt lat="48.45626" lon="7.48522">
        <ele>183.2</ele>
        <time>2019-08-09T09:50:53Z</time>
      </trkpt>
      <trkpt lat="48.45622" lon="7.48519">
        <ele>183.3</ele>
        <time>2019-08-09T09:50:54Z</time>
      </trkpt>
      <trkpt lat="48.45618" lon="7.48516">
        <ele>183.4</ele>
        <time>2019-08-09T09:50:55Z</time>
      </trkpt>
      <trkpt lat="48.45614" lon="7.48514">
        <ele>183.5</ele>
        <time>2019-08-09T09:50:56Z</time>
      </trkpt>
      <trkpt lat="48.4561" lon="7.48512">
        <ele>183.5</ele>
        <time>2019-08-09T09:50:57Z</time>
      </trkpt>
      <trkpt lat="48.45607" lon="7.4851">
        <ele>183.6</ele>
        <time>2019-08-09T09:50:58Z</time>
      </trkpt>
      <trkpt lat="48.45604" lon="7.48508">
        <ele>183.6</ele>
        <time>2019-08-09T09:50:59Z</time>
      </trkpt>
      <trkpt lat="48.45601" lon="7.48505">
        <ele>183.6</ele>
        <time>2019-08-09T09:51:00Z</time>
      </trkpt>
      <trkpt lat="48.45598" lon="7.48502">
        <ele>183.5</ele>
        <time>2019-08-09T09:51:01Z</time>
      </trkpt>
      <trkpt lat="48.45595" lon="7.48499">
        <ele>183.5</ele>
        <time>2019-08-09T09:51:03Z</time>
      </trkpt>
      <trkpt lat="48.4559" lon="7.48497">
        <ele>183.5</ele>
        <time>2019-08-09T09:51:05Z</time>
      </trkpt>
      <trkpt lat="48.45587" lon="7.48496">
        <ele>183.4</ele>
        <time>2019-08-09T09:51:06Z</time>
      </trkpt>
      <trkpt lat="48.45584" lon="7.48497">
        <ele>183.4</ele>
        <time>2019-08-09T09:51:07Z</time>
      </trkpt>
      <trkpt lat="48.45581" lon="7.48499">
        <ele>183.3</ele>
        <time>2019-08-09T09:51:08Z</time>
      </trkpt>
      <trkpt lat="48.45578" lon="7.48502">
        <ele>183.3</ele>
        <time>2019-08-09T09:51:09Z</time>
      </trkpt>
      <trkpt lat="48.45575" lon="7.48505">
        <ele>183.2</ele>
        <time>2019-08-09T09:51:10Z</time>
      </trkpt>
      <trkpt lat="48.45571" lon="7.48508">
        <ele>183.1</ele>
        <time>2019-08-09T09:51:11Z</time>
      </trkpt>
      <trkpt lat="48.45568" lon="7.4851">
        <ele>183.1</ele>
        <time>2019-08-09T09:51:12Z</time>
      </trkpt>
      <trkpt lat="48.45564" lon="7.48513">
        <ele>183</ele>
        <time>2019-08-09T09:51:13Z</time>
      </trkpt>
      <trkpt lat="48.4556" lon="7.48516">
        <ele>182.9</ele>
        <time>2019-08-09T09:51:14Z</time>
      </trkpt>
      <trkpt lat="48.45556" lon="7.48519">
        <ele>182.8</ele>
        <time>2019-08-09T09:51:15Z</time>
      </trkpt>
      <trkpt lat="48.45551" lon="7.48523">
        <ele>182.7</ele>
        <time>2019-08-09T09:51:16Z</time>
      </trkpt>
      <trkpt lat="48.45547" lon="7.48526">
        <ele>182.6</ele>
        <time>2019-08-09T09:51:17Z</time>
      </trkpt>
      <trkpt lat="48.45543" lon="7.48529">
        <ele>182.5</ele>
        <time>2019-08-09T09:51:18Z</time>
      </trkpt>
      <trkpt lat="48.4554" lon="7.48531">
        <ele>182.4</ele>
        <time>2019-08-09T09:51:19Z</time>
      </trkpt>
      <trkpt lat="48.45536" lon="7.48532">
        <ele>182.3</ele>
        <time>2019-08-09T09:51:20Z</time>
      </trkpt>
      <trkpt lat="48.45532" lon="7.48533">
        <ele>182.1</ele>
        <time>2019-08-09T09:51:21Z</time>
      </trkpt>
      <trkpt lat="48.45529" lon="7.48531">
        <ele>181.9</ele>
        <time>2019-08-09T09:51:22Z</time>
      </trkpt>
      <trkpt lat="48.45526" lon="7.4853">
        <ele>181.8</ele>
        <time>2019-08-09T09:51:23Z</time>
      </trkpt>
      <trkpt lat="48.45523" lon="7.48529">
        <ele>181.7</ele>
        <time>2019-08-09T09:51:24Z</time>
      </trkpt>
      <trkpt lat="48.45519" lon="7.4853">
        <ele>181.6</ele>
        <time>2019-08-09T09:51:26Z</time>
      </trkpt>
      <trkpt lat="48.45517" lon="7.4853">
        <ele>181.5</ele>
        <time>2019-08-09T09:51:35Z</time>
      </trkpt>
      <trkpt lat="48.45519" lon="7.48527">
        <ele>181.4</ele>
        <time>2019-08-09T09:51:39Z</time>
      </trkpt>
      <trkpt lat="48.45516" lon="7.48521">
        <ele>181.3</ele>
        <time>2019-08-09T09:52:15Z</time>
      </trkpt>
      <trkpt lat="48.45512" lon="7.48518">
        <ele>181.1</ele>
        <time>2019-08-09T09:52:17Z</time>
      </trkpt>
      <trkpt lat="48.4551" lon="7.48516">
        <ele>181.1</ele>
        <time>2019-08-09T09:52:18Z</time>
      </trkpt>
      <trkpt lat="48.45507" lon="7.48513">
        <ele>181</ele>
        <time>2019-08-09T09:52:19Z</time>
      </trkpt>
      <trkpt lat="48.45505" lon="7.4851">
        <ele>180.9</ele>
        <time>2019-08-09T09:52:20Z</time>
      </trkpt>
      <trkpt lat="48.45502" lon="7.48509">
        <ele>180.8</ele>
        <time>2019-08-09T09:52:21Z</time>
      </trkpt>
      <trkpt lat="48.45499" lon="7.48506">
        <ele>180.7</ele>
        <time>2019-08-09T09:52:22Z</time>
      </trkpt>
      <trkpt lat="48.45495" lon="7.48504">
        <ele>180.7</ele>
        <time>2019-08-09T09:52:23Z</time>
      </trkpt>
      <trkpt lat="48.45491" lon="7.485">
        <ele>180.6</ele>
        <time>2019-08-09T09:52:24Z</time>
      </trkpt>
      <trkpt lat="48.45488" lon="7.48497">
        <ele>180.5</ele>
        <time>2019-08-09T09:52:25Z</time>
      </trkpt>
      <trkpt lat="48.45485" lon="7.48494">
        <ele>180.5</ele>
        <time>2019-08-09T09:52:26Z</time>
      </trkpt>
      <trkpt lat="48.45481" lon="7.48491">
        <ele>180.4</ele>
        <time>2019-08-09T09:52:27Z</time>
      </trkpt>
      <trkpt lat="48.45477" lon="7.48488">
        <ele>180.4</ele>
        <time>2019-08-09T09:52:28Z</time>
      </trkpt>
      <trkpt lat="48.45473" lon="7.48486">
        <ele>180.4</ele>
        <time>2019-08-09T09:52:29Z</time>
      </trkpt>
      <trkpt lat="48.45469" lon="7.48484">
        <ele>180.3</ele>
        <time>2019-08-09T09:52:30Z</time>
      </trkpt>
      <trkpt lat="48.45465" lon="7.48483">
        <ele>180.3</ele>
        <time>2019-08-09T09:52:31Z</time>
      </trkpt>
      <trkpt lat="48.4546" lon="7.48482">
        <ele>180.2</ele>
        <time>2019-08-09T09:52:32Z</time>
      </trkpt>
      <trkpt lat="48.45456" lon="7.48481">
        <ele>180.2</ele>
        <time>2019-08-09T09:52:33Z</time>
      </trkpt>
      <trkpt lat="48.45452" lon="7.48481">
        <ele>180.1</ele>
        <time>2019-08-09T09:52:34Z</time>
      </trkpt>
      <trkpt lat="48.45448" lon="7.48481">
        <ele>180.1</ele>
        <time>2019-08-09T09:52:35Z</time>
      </trkpt>
      <trkpt lat="48.45445" lon="7.48478">
        <ele>180.1</ele>
        <time>2019-08-09T09:52:36Z</time>
      </trkpt>
      <trkpt lat="48.45441" lon="7.48477">
        <ele>180.1</ele>
        <time>2019-08-09T09:52:37Z</time>
      </trkpt>
      <trkpt lat="48.45437" lon="7.48477">
        <ele>180.2</ele>
        <time>2019-08-09T09:52:38Z</time>
      </trkpt>
      <trkpt lat="48.45433" lon="7.48477">
        <ele>180.2</ele>
        <time>2019-08-09T09:52:39Z</time>
      </trkpt>
      <trkpt lat="48.4543" lon="7.48476">
        <ele>180.2</ele>
        <time>2019-08-09T09:52:40Z</time>
      </trkpt>
      <trkpt lat="48.45426" lon="7.48475">
        <ele>180.2</ele>
        <time>2019-08-09T09:52:41Z</time>
      </trkpt>
      <trkpt lat="48.45422" lon="7.48476">
        <ele>180.2</ele>
        <time>2019-08-09T09:52:42Z</time>
      </trkpt>
      <trkpt lat="48.45419" lon="7.48476">
        <ele>180.2</ele>
        <time>2019-08-09T09:52:43Z</time>
      </trkpt>
      <trkpt lat="48.45416" lon="7.48474">
        <ele>180.3</ele>
        <time>2019-08-09T09:52:44Z</time>
      </trkpt>
      <trkpt lat="48.45412" lon="7.48473">
        <ele>180.3</ele>
        <time>2019-08-09T09:52:45Z</time>
      </trkpt>
      <trkpt lat="48.45409" lon="7.48472">
        <ele>180.3</ele>
        <time>2019-08-09T09:52:46Z</time>
      </trkpt>
      <trkpt lat="48.45405" lon="7.4847">
        <ele>180.4</ele>
        <time>2019-08-09T09:52:47Z</time>
      </trkpt>
      <trkpt lat="48.45402" lon="7.48469">
        <ele>180.4</ele>
        <time>2019-08-09T09:52:48Z</time>
      </trkpt>
      <trkpt lat="48.45398" lon="7.48467">
        <ele>180.4</ele>
        <time>2019-08-09T09:52:49Z</time>
      </trkpt>
      <trkpt lat="48.45395" lon="7.48465">
        <ele>180.4</ele>
        <time>2019-08-09T09:52:50Z</time>
      </trkpt>
      <trkpt lat="48.45392" lon="7.48465">
        <ele>180.5</ele>
        <time>2019-08-09T09:52:51Z</time>
      </trkpt>
      <trkpt lat="48.45388" lon="7.48463">
        <ele>180.5</ele>
        <time>2019-08-09T09:52:52Z</time>
      </trkpt>
      <trkpt lat="48.45384" lon="7.48462">
        <ele>180.5</ele>
        <time>2019-08-09T09:52:53Z</time>
      </trkpt>
      <trkpt lat="48.4538" lon="7.48459">
        <ele>180.5</ele>
        <time>2019-08-09T09:52:54Z</time>
      </trkpt>
      <trkpt lat="48.45376" lon="7.48459">
        <ele>180.5</ele>
        <time>2019-08-09T09:52:55Z</time>
      </trkpt>
      <trkpt lat="48.45372" lon="7.48459">
        <ele>180.5</ele>
        <time>2019-08-09T09:52:56Z</time>
      </trkpt>
      <trkpt lat="48.45367" lon="7.48458">
        <ele>180.5</ele>
        <time>2019-08-09T09:52:57Z</time>
      </trkpt>
      <trkpt lat="48.45363" lon="7.48455">
        <ele>180.5</ele>
        <time>2019-08-09T09:52:58Z</time>
      </trkpt>
      <trkpt lat="48.4536" lon="7.48454">
        <ele>180.5</ele>
        <time>2019-08-09T09:52:59Z</time>
      </trkpt>
      <trkpt lat="48.45357" lon="7.48452">
        <ele>180.5</ele>
        <time>2019-08-09T09:53:00Z</time>
      </trkpt>
      <trkpt lat="48.45353" lon="7.48452">
        <ele>180.6</ele>
        <time>2019-08-09T09:53:01Z</time>
      </trkpt>
      <trkpt lat="48.45349" lon="7.48451">
        <ele>180.6</ele>
        <time>2019-08-09T09:53:02Z</time>
      </trkpt>
      <trkpt lat="48.45345" lon="7.4845">
        <ele>180.7</ele>
        <time>2019-08-09T09:53:03Z</time>
      </trkpt>
      <trkpt lat="48.45339" lon="7.48448">
        <ele>180.7</ele>
        <time>2019-08-09T09:53:04Z</time>
      </trkpt>
      <trkpt lat="48.45334" lon="7.48447">
        <ele>180.8</ele>
        <time>2019-08-09T09:53:05Z</time>
      </trkpt>
      <trkpt lat="48.4533" lon="7.48445">
        <ele>180.8</ele>
        <time>2019-08-09T09:53:06Z</time>
      </trkpt>
      <trkpt lat="48.45326" lon="7.48444">
        <ele>180.9</ele>
        <time>2019-08-09T09:53:07Z</time>
      </trkpt>
      <trkpt lat="48.45322" lon="7.48443">
        <ele>180.9</ele>
        <time>2019-08-09T09:53:08Z</time>
      </trkpt>
      <trkpt lat="48.45319" lon="7.48442">
        <ele>180.9</ele>
        <time>2019-08-09T09:53:09Z</time>
      </trkpt>
      <trkpt lat="48.45316" lon="7.4844">
        <ele>181</ele>
        <time>2019-08-09T09:53:10Z</time>
      </trkpt>
      <trkpt lat="48.45312" lon="7.4844">
        <ele>181</ele>
        <time>2019-08-09T09:53:11Z</time>
      </trkpt>
      <trkpt lat="48.45307" lon="7.4844">
        <ele>181</ele>
        <time>2019-08-09T09:53:12Z</time>
      </trkpt>
      <trkpt lat="48.45302" lon="7.48442">
        <ele>181.1</ele>
        <time>2019-08-09T09:53:13Z</time>
      </trkpt>
      <trkpt lat="48.45298" lon="7.48442">
        <ele>181.1</ele>
        <time>2019-08-09T09:53:14Z</time>
      </trkpt>
      <trkpt lat="48.45293" lon="7.48442">
        <ele>181.2</ele>
        <time>2019-08-09T09:53:15Z</time>
      </trkpt>
      <trkpt lat="48.45288" lon="7.48442">
        <ele>181.2</ele>
        <time>2019-08-09T09:53:16Z</time>
      </trkpt>
      <trkpt lat="48.45284" lon="7.4844">
        <ele>181.2</ele>
        <time>2019-08-09T09:53:17Z</time>
      </trkpt>
      <trkpt lat="48.4528" lon="7.48438">
        <ele>181.2</ele>
        <time>2019-08-09T09:53:18Z</time>
      </trkpt>
      <trkpt lat="48.45277" lon="7.48437">
        <ele>181.3</ele>
        <time>2019-08-09T09:53:19Z</time>
      </trkpt>
      <trkpt lat="48.45273" lon="7.48435">
        <ele>181.3</ele>
        <time>2019-08-09T09:53:20Z</time>
      </trkpt>
      <trkpt lat="48.45269" lon="7.48435">
        <ele>181.3</ele>
        <time>2019-08-09T09:53:21Z</time>
      </trkpt>
      <trkpt lat="48.45265" lon="7.48434">
        <ele>181.3</ele>
        <time>2019-08-09T09:53:22Z</time>
      </trkpt>
      <trkpt lat="48.45261" lon="7.48432">
        <ele>181.4</ele>
        <time>2019-08-09T09:53:23Z</time>
      </trkpt>
      <trkpt lat="48.45256" lon="7.48433">
        <ele>181.4</ele>
        <time>2019-08-09T09:53:24Z</time>
      </trkpt>
      <trkpt lat="48.45252" lon="7.48433">
        <ele>181.4</ele>
        <time>2019-08-09T09:53:25Z</time>
      </trkpt>
      <trkpt lat="48.45248" lon="7.48431">
        <ele>181.4</ele>
        <time>2019-08-09T09:53:26Z</time>
      </trkpt>
      <trkpt lat="48.45244" lon="7.4843">
        <ele>181.5</ele>
        <time>2019-08-09T09:53:27Z</time>
      </trkpt>
      <trkpt lat="48.4524" lon="7.48428">
        <ele>181.5</ele>
        <time>2019-08-09T09:53:28Z</time>
      </trkpt>
      <trkpt lat="48.45236" lon="7.48426">
        <ele>181.5</ele>
        <time>2019-08-09T09:53:29Z</time>
      </trkpt>
      <trkpt lat="48.45232" lon="7.48426">
        <ele>181.5</ele>
        <time>2019-08-09T09:53:30Z</time>
      </trkpt>
      <trkpt lat="48.45227" lon="7.48425">
        <ele>181.5</ele>
        <time>2019-08-09T09:53:31Z</time>
      </trkpt>
      <trkpt lat="48.45222" lon="7.48424">
        <ele>181.5</ele>
        <time>2019-08-09T09:53:32Z</time>
      </trkpt>
      <trkpt lat="48.45218" lon="7.48422">
        <ele>181.5</ele>
        <time>2019-08-09T09:53:33Z</time>
      </trkpt>
      <trkpt lat="48.45213" lon="7.48421">
        <ele>181.5</ele>
        <time>2019-08-09T09:53:34Z</time>
      </trkpt>
      <trkpt lat="48.45208" lon="7.48421">
        <ele>181.6</ele>
        <time>2019-08-09T09:53:35Z</time>
      </trkpt>
      <trkpt lat="48.45204" lon="7.48421">
        <ele>181.6</ele>
        <time>2019-08-09T09:53:36Z</time>
      </trkpt>
      <trkpt lat="48.452" lon="7.4842">
        <ele>181.6</ele>
        <time>2019-08-09T09:53:37Z</time>
      </trkpt>
      <trkpt lat="48.45195" lon="7.48419">
        <ele>181.5</ele>
        <time>2019-08-09T09:53:38Z</time>
      </trkpt>
      <trkpt lat="48.45191" lon="7.48418">
        <ele>181.5</ele>
        <time>2019-08-09T09:53:39Z</time>
      </trkpt>
      <trkpt lat="48.45187" lon="7.48417">
        <ele>181.5</ele>
        <time>2019-08-09T09:53:40Z</time>
      </trkpt>
      <trkpt lat="48.45183" lon="7.48416">
        <ele>181.5</ele>
        <time>2019-08-09T09:53:41Z</time>
      </trkpt>
      <trkpt lat="48.45178" lon="7.48417">
        <ele>181.5</ele>
        <time>2019-08-09T09:53:42Z</time>
      </trkpt>
      <trkpt lat="48.45174" lon="7.48417">
        <ele>181.4</ele>
        <time>2019-08-09T09:53:43Z</time>
      </trkpt>
      <trkpt lat="48.45169" lon="7.48416">
        <ele>181.4</ele>
        <time>2019-08-09T09:53:44Z</time>
      </trkpt>
      <trkpt lat="48.45164" lon="7.48415">
        <ele>181.3</ele>
        <time>2019-08-09T09:53:45Z</time>
      </trkpt>
      <trkpt lat="48.45159" lon="7.48415">
        <ele>181.2</ele>
        <time>2019-08-09T09:53:46Z</time>
      </trkpt>
      <trkpt lat="48.45154" lon="7.48414">
        <ele>181.1</ele>
        <time>2019-08-09T09:53:47Z</time>
      </trkpt>
      <trkpt lat="48.45149" lon="7.48414">
        <ele>181.1</ele>
        <time>2019-08-09T09:53:48Z</time>
      </trkpt>
      <trkpt lat="48.45145" lon="7.48414">
        <ele>181.1</ele>
        <time>2019-08-09T09:53:49Z</time>
      </trkpt>
      <trkpt lat="48.45137" lon="7.48414">
        <ele>181</ele>
        <time>2019-08-09T09:53:51Z</time>
      </trkpt>
      <trkpt lat="48.45133" lon="7.48414">
        <ele>181</ele>
        <time>2019-08-09T09:53:52Z</time>
      </trkpt>
      <trkpt lat="48.45129" lon="7.48412">
        <ele>180.9</ele>
        <time>2019-08-09T09:53:53Z</time>
      </trkpt>
      <trkpt lat="48.45126" lon="7.4841">
        <ele>180.9</ele>
        <time>2019-08-09T09:53:54Z</time>
      </trkpt>
      <trkpt lat="48.45121" lon="7.48409">
        <ele>180.9</ele>
        <time>2019-08-09T09:53:55Z</time>
      </trkpt>
      <trkpt lat="48.45117" lon="7.4841">
        <ele>180.8</ele>
        <time>2019-08-09T09:53:56Z</time>
      </trkpt>
      <trkpt lat="48.45112" lon="7.4841">
        <ele>180.7</ele>
        <time>2019-08-09T09:53:57Z</time>
      </trkpt>
      <trkpt lat="48.45108" lon="7.4841">
        <ele>180.6</ele>
        <time>2019-08-09T09:53:58Z</time>
      </trkpt>
      <trkpt lat="48.45104" lon="7.48409">
        <ele>180.5</ele>
        <time>2019-08-09T09:53:59Z</time>
      </trkpt>
      <trkpt lat="48.45099" lon="7.48407">
        <ele>180.3</ele>
        <time>2019-08-09T09:54:00Z</time>
      </trkpt>
      <trkpt lat="48.45095" lon="7.48405">
        <ele>180.2</ele>
        <time>2019-08-09T09:54:01Z</time>
      </trkpt>
      <trkpt lat="48.4509" lon="7.48403">
        <ele>180.1</ele>
        <time>2019-08-09T09:54:02Z</time>
      </trkpt>
      <trkpt lat="48.45086" lon="7.48402">
        <ele>179.9</ele>
        <time>2019-08-09T09:54:03Z</time>
      </trkpt>
      <trkpt lat="48.45081" lon="7.48401">
        <ele>179.8</ele>
        <time>2019-08-09T09:54:04Z</time>
      </trkpt>
      <trkpt lat="48.45077" lon="7.484">
        <ele>179.8</ele>
        <time>2019-08-09T09:54:05Z</time>
      </trkpt>
      <trkpt lat="48.45073" lon="7.48399">
        <ele>179.7</ele>
        <time>2019-08-09T09:54:06Z</time>
      </trkpt>
      <trkpt lat="48.45068" lon="7.48398">
        <ele>179.7</ele>
        <time>2019-08-09T09:54:07Z</time>
      </trkpt>
      <trkpt lat="48.45064" lon="7.48396">
        <ele>179.6</ele>
        <time>2019-08-09T09:54:08Z</time>
      </trkpt>
      <trkpt lat="48.45059" lon="7.48394">
        <ele>179.6</ele>
        <time>2019-08-09T09:54:09Z</time>
      </trkpt>
      <trkpt lat="48.45054" lon="7.48392">
        <ele>179.6</ele>
        <time>2019-08-09T09:54:10Z</time>
      </trkpt>
      <trkpt lat="48.45049" lon="7.48389">
        <ele>179.6</ele>
        <time>2019-08-09T09:54:11Z</time>
      </trkpt>
      <trkpt lat="48.45044" lon="7.48387">
        <ele>179.6</ele>
        <time>2019-08-09T09:54:12Z</time>
      </trkpt>
      <trkpt lat="48.45039" lon="7.48386">
        <ele>179.5</ele>
        <time>2019-08-09T09:54:13Z</time>
      </trkpt>
      <trkpt lat="48.45034" lon="7.48385">
        <ele>179.5</ele>
        <time>2019-08-09T09:54:14Z</time>
      </trkpt>
      <trkpt lat="48.45029" lon="7.48384">
        <ele>179.5</ele>
        <time>2019-08-09T09:54:15Z</time>
      </trkpt>
      <trkpt lat="48.45023" lon="7.48383">
        <ele>179.5</ele>
        <time>2019-08-09T09:54:16Z</time>
      </trkpt>
      <trkpt lat="48.45018" lon="7.48381">
        <ele>179.5</ele>
        <time>2019-08-09T09:54:17Z</time>
      </trkpt>
      <trkpt lat="48.45013" lon="7.4838">
        <ele>179.4</ele>
        <time>2019-08-09T09:54:18Z</time>
      </trkpt>
      <trkpt lat="48.45008" lon="7.4838">
        <ele>179.4</ele>
        <time>2019-08-09T09:54:19Z</time>
      </trkpt>
      <trkpt lat="48.45003" lon="7.48378">
        <ele>179.4</ele>
        <time>2019-08-09T09:54:20Z</time>
      </trkpt>
      <trkpt lat="48.44999" lon="7.48376">
        <ele>179.4</ele>
        <time>2019-08-09T09:54:21Z</time>
      </trkpt>
      <trkpt lat="48.44994" lon="7.48374">
        <ele>179.4</ele>
        <time>2019-08-09T09:54:22Z</time>
      </trkpt>
      <trkpt lat="48.44989" lon="7.48373">
        <ele>179.3</ele>
        <time>2019-08-09T09:54:23Z</time>
      </trkpt>
      <trkpt lat="48.44984" lon="7.48372">
        <ele>179.3</ele>
        <time>2019-08-09T09:54:24Z</time>
      </trkpt>
      <trkpt lat="48.44979" lon="7.48371">
        <ele>179.3</ele>
        <time>2019-08-09T09:54:25Z</time>
      </trkpt>
      <trkpt lat="48.44974" lon="7.4837">
        <ele>179.3</ele>
        <time>2019-08-09T09:54:26Z</time>
      </trkpt>
      <trkpt lat="48.44968" lon="7.48368">
        <ele>179.3</ele>
        <time>2019-08-09T09:54:27Z</time>
      </trkpt>
      <trkpt lat="48.44962" lon="7.48369">
        <ele>179.2</ele>
        <time>2019-08-09T09:54:28Z</time>
      </trkpt>
      <trkpt lat="48.44957" lon="7.48369">
        <ele>179.2</ele>
        <time>2019-08-09T09:54:29Z</time>
      </trkpt>
      <trkpt lat="48.44951" lon="7.48368">
        <ele>179.2</ele>
        <time>2019-08-09T09:54:30Z</time>
      </trkpt>
      <trkpt lat="48.44946" lon="7.48368">
        <ele>179.2</ele>
        <time>2019-08-09T09:54:31Z</time>
      </trkpt>
      <trkpt lat="48.44942" lon="7.48368">
        <ele>179.1</ele>
        <time>2019-08-09T09:54:32Z</time>
      </trkpt>
      <trkpt lat="48.44937" lon="7.48367">
        <ele>179.1</ele>
        <time>2019-08-09T09:54:33Z</time>
      </trkpt>
      <trkpt lat="48.44933" lon="7.48366">
        <ele>179.1</ele>
        <time>2019-08-09T09:54:34Z</time>
      </trkpt>
      <trkpt lat="48.44929" lon="7.48365">
        <ele>179</ele>
        <time>2019-08-09T09:54:35Z</time>
      </trkpt>
      <trkpt lat="48.44925" lon="7.48364">
        <ele>178.9</ele>
        <time>2019-08-09T09:54:36Z</time>
      </trkpt>
      <trkpt lat="48.44921" lon="7.48363">
        <ele>178.8</ele>
        <time>2019-08-09T09:54:37Z</time>
      </trkpt>
      <trkpt lat="48.44917" lon="7.48361">
        <ele>178.6</ele>
        <time>2019-08-09T09:54:38Z</time>
      </trkpt>
      <trkpt lat="48.44913" lon="7.4836">
        <ele>178.3</ele>
        <time>2019-08-09T09:54:39Z</time>
      </trkpt>
      <trkpt lat="48.44908" lon="7.48359">
        <ele>178</ele>
        <time>2019-08-09T09:54:40Z</time>
      </trkpt>
      <trkpt lat="48.44903" lon="7.48358">
        <ele>177.6</ele>
        <time>2019-08-09T09:54:41Z</time>
      </trkpt>
      <trkpt lat="48.44898" lon="7.48358">
        <ele>177.3</ele>
        <time>2019-08-09T09:54:42Z</time>
      </trkpt>
      <trkpt lat="48.44894" lon="7.48356">
        <ele>177</ele>
        <time>2019-08-09T09:54:43Z</time>
      </trkpt>
      <trkpt lat="48.44889" lon="7.48354">
        <ele>177</ele>
        <time>2019-08-09T09:54:44Z</time>
      </trkpt>
      <trkpt lat="48.44884" lon="7.48351">
        <ele>177</ele>
        <time>2019-08-09T09:54:45Z</time>
      </trkpt>
      <trkpt lat="48.44879" lon="7.48349">
        <ele>177</ele>
        <time>2019-08-09T09:54:46Z</time>
      </trkpt>
      <trkpt lat="48.44875" lon="7.48346">
        <ele>177</ele>
        <time>2019-08-09T09:54:47Z</time>
      </trkpt>
      <trkpt lat="48.44871" lon="7.48344">
        <ele>177</ele>
        <time>2019-08-09T09:54:48Z</time>
      </trkpt>
      <trkpt lat="48.44867" lon="7.48341">
        <ele>177</ele>
        <time>2019-08-09T09:54:49Z</time>
      </trkpt>
      <trkpt lat="48.44863" lon="7.48339">
        <ele>177</ele>
        <time>2019-08-09T09:54:50Z</time>
      </trkpt>
      <trkpt lat="48.44859" lon="7.48336">
        <ele>177</ele>
        <time>2019-08-09T09:54:51Z</time>
      </trkpt>
      <trkpt lat="48.44854" lon="7.48334">
        <ele>177</ele>
        <time>2019-08-09T09:54:52Z</time>
      </trkpt>
      <trkpt lat="48.44849" lon="7.48332">
        <ele>177</ele>
        <time>2019-08-09T09:54:53Z</time>
      </trkpt>
      <trkpt lat="48.44844" lon="7.4833">
        <ele>177</ele>
        <time>2019-08-09T09:54:54Z</time>
      </trkpt>
      <trkpt lat="48.44839" lon="7.48328">
        <ele>177</ele>
        <time>2019-08-09T09:54:55Z</time>
      </trkpt>
      <trkpt lat="48.44834" lon="7.48326">
        <ele>177</ele>
        <time>2019-08-09T09:54:56Z</time>
      </trkpt>
      <trkpt lat="48.44829" lon="7.48324">
        <ele>177</ele>
        <time>2019-08-09T09:54:57Z</time>
      </trkpt>
      <trkpt lat="48.44824" lon="7.48321">
        <ele>177</ele>
        <time>2019-08-09T09:54:58Z</time>
      </trkpt>
      <trkpt lat="48.44819" lon="7.48319">
        <ele>177</ele>
        <time>2019-08-09T09:54:59Z</time>
      </trkpt>
      <trkpt lat="48.44815" lon="7.48318">
        <ele>177</ele>
        <time>2019-08-09T09:55:00Z</time>
      </trkpt>
      <trkpt lat="48.4481" lon="7.48317">
        <ele>177</ele>
        <time>2019-08-09T09:55:01Z</time>
      </trkpt>
      <trkpt lat="48.44805" lon="7.48316">
        <ele>177</ele>
        <time>2019-08-09T09:55:02Z</time>
      </trkpt>
      <trkpt lat="48.448" lon="7.48314">
        <ele>177</ele>
        <time>2019-08-09T09:55:03Z</time>
      </trkpt>
      <trkpt lat="48.44795" lon="7.48312">
        <ele>177</ele>
        <time>2019-08-09T09:55:04Z</time>
      </trkpt>
      <trkpt lat="48.44791" lon="7.4831">
        <ele>177</ele>
        <time>2019-08-09T09:55:05Z</time>
      </trkpt>
      <trkpt lat="48.44787" lon="7.48309">
        <ele>177</ele>
        <time>2019-08-09T09:55:06Z</time>
      </trkpt>
      <trkpt lat="48.44782" lon="7.48307">
        <ele>177</ele>
        <time>2019-08-09T09:55:07Z</time>
      </trkpt>
      <trkpt lat="48.44777" lon="7.48307">
        <ele>177</ele>
        <time>2019-08-09T09:55:08Z</time>
      </trkpt>
      <trkpt lat="48.44773" lon="7.48306">
        <ele>177</ele>
        <time>2019-08-09T09:55:09Z</time>
      </trkpt>
      <trkpt lat="48.44768" lon="7.48305">
        <ele>177</ele>
        <time>2019-08-09T09:55:10Z</time>
      </trkpt>
      <trkpt lat="48.44763" lon="7.48302">
        <ele>177</ele>
        <time>2019-08-09T09:55:11Z</time>
      </trkpt>
      <trkpt lat="48.44759" lon="7.48301">
        <ele>176.9</ele>
        <time>2019-08-09T09:55:12Z</time>
      </trkpt>
      <trkpt lat="48.44754" lon="7.483">
        <ele>176.9</ele>
        <time>2019-08-09T09:55:13Z</time>
      </trkpt>
      <trkpt lat="48.4475" lon="7.483">
        <ele>176.8</ele>
        <time>2019-08-09T09:55:14Z</time>
      </trkpt>
      <trkpt lat="48.44745" lon="7.48299">
        <ele>176.8</ele>
        <time>2019-08-09T09:55:15Z</time>
      </trkpt>
      <trkpt lat="48.44741" lon="7.48297">
        <ele>176.7</ele>
        <time>2019-08-09T09:55:16Z</time>
      </trkpt>
      <trkpt lat="48.44736" lon="7.48296">
        <ele>176.6</ele>
        <time>2019-08-09T09:55:17Z</time>
      </trkpt>
      <trkpt lat="48.44732" lon="7.48295">
        <ele>176.5</ele>
        <time>2019-08-09T09:55:18Z</time>
      </trkpt>
      <trkpt lat="48.44727" lon="7.48294">
        <ele>176.4</ele>
        <time>2019-08-09T09:55:19Z</time>
      </trkpt>
      <trkpt lat="48.44723" lon="7.48293">
        <ele>176.3</ele>
        <time>2019-08-09T09:55:20Z</time>
      </trkpt>
      <trkpt lat="48.44718" lon="7.48292">
        <ele>176.2</ele>
        <time>2019-08-09T09:55:21Z</time>
      </trkpt>
      <trkpt lat="48.44713" lon="7.48292">
        <ele>176.1</ele>
        <time>2019-08-09T09:55:22Z</time>
      </trkpt>
      <trkpt lat="48.44709" lon="7.48291">
        <ele>176</ele>
        <time>2019-08-09T09:55:23Z</time>
      </trkpt>
      <trkpt lat="48.44704" lon="7.48291">
        <ele>176</ele>
        <time>2019-08-09T09:55:24Z</time>
      </trkpt>
      <trkpt lat="48.447" lon="7.48289">
        <ele>176</ele>
        <time>2019-08-09T09:55:25Z</time>
      </trkpt>
      <trkpt lat="48.44695" lon="7.48288">
        <ele>175.9</ele>
        <time>2019-08-09T09:55:26Z</time>
      </trkpt>
      <trkpt lat="48.44691" lon="7.48286">
        <ele>175.9</ele>
        <time>2019-08-09T09:55:27Z</time>
      </trkpt>
      <trkpt lat="48.44686" lon="7.48284">
        <ele>175.9</ele>
        <time>2019-08-09T09:55:28Z</time>
      </trkpt>
      <trkpt lat="48.44681" lon="7.48283">
        <ele>175.9</ele>
        <time>2019-08-09T09:55:29Z</time>
      </trkpt>
      <trkpt lat="48.44676" lon="7.48281">
        <ele>175.9</ele>
        <time>2019-08-09T09:55:30Z</time>
      </trkpt>
      <trkpt lat="48.44671" lon="7.4828">
        <ele>175.9</ele>
        <time>2019-08-09T09:55:31Z</time>
      </trkpt>
      <trkpt lat="48.44667" lon="7.48278">
        <ele>175.8</ele>
        <time>2019-08-09T09:55:32Z</time>
      </trkpt>
      <trkpt lat="48.44662" lon="7.48276">
        <ele>175.8</ele>
        <time>2019-08-09T09:55:33Z</time>
      </trkpt>
      <trkpt lat="48.44657" lon="7.48274">
        <ele>175.7</ele>
        <time>2019-08-09T09:55:34Z</time>
      </trkpt>
      <trkpt lat="48.44652" lon="7.48272">
        <ele>175.7</ele>
        <time>2019-08-09T09:55:35Z</time>
      </trkpt>
      <trkpt lat="48.44647" lon="7.4827">
        <ele>175.6</ele>
        <time>2019-08-09T09:55:36Z</time>
      </trkpt>
      <trkpt lat="48.44642" lon="7.48268">
        <ele>175.5</ele>
        <time>2019-08-09T09:55:37Z</time>
      </trkpt>
      <trkpt lat="48.44637" lon="7.48265">
        <ele>175.4</ele>
        <time>2019-08-09T09:55:38Z</time>
      </trkpt>
      <trkpt lat="48.44632" lon="7.48263">
        <ele>175.3</ele>
        <time>2019-08-09T09:55:39Z</time>
      </trkpt>
      <trkpt lat="48.44628" lon="7.4826">
        <ele>175.2</ele>
        <time>2019-08-09T09:55:40Z</time>
      </trkpt>
      <trkpt lat="48.44623" lon="7.48259">
        <ele>175.1</ele>
        <time>2019-08-09T09:55:41Z</time>
      </trkpt>
      <trkpt lat="48.44619" lon="7.48258">
        <ele>175.1</ele>
        <time>2019-08-09T09:55:42Z</time>
      </trkpt>
      <trkpt lat="48.44615" lon="7.48259">
        <ele>175.1</ele>
        <time>2019-08-09T09:55:43Z</time>
      </trkpt>
      <trkpt lat="48.44611" lon="7.48262">
        <ele>175</ele>
        <time>2019-08-09T09:55:44Z</time>
      </trkpt>
      <trkpt lat="48.4461" lon="7.48267">
        <ele>174.7</ele>
        <time>2019-08-09T09:55:45Z</time>
      </trkpt>
      <trkpt lat="48.44609" lon="7.48272">
        <ele>174.6</ele>
        <time>2019-08-09T09:55:46Z</time>
      </trkpt>
      <trkpt lat="48.44608" lon="7.48277">
        <ele>174.5</ele>
        <time>2019-08-09T09:55:47Z</time>
      </trkpt>
      <trkpt lat="48.44607" lon="7.48283">
        <ele>174.3</ele>
        <time>2019-08-09T09:55:48Z</time>
      </trkpt>
      <trkpt lat="48.44606" lon="7.48287">
        <ele>174.2</ele>
        <time>2019-08-09T09:55:49Z</time>
      </trkpt>
      <trkpt lat="48.44606" lon="7.48292">
        <ele>174.1</ele>
        <time>2019-08-09T09:55:50Z</time>
      </trkpt>
      <trkpt lat="48.44605" lon="7.48296">
        <ele>173.9</ele>
        <time>2019-08-09T09:55:51Z</time>
      </trkpt>
      <trkpt lat="48.44604" lon="7.483">
        <ele>173.8</ele>
        <time>2019-08-09T09:55:52Z</time>
      </trkpt>
      <trkpt lat="48.44603" lon="7.48304">
        <ele>173.8</ele>
        <time>2019-08-09T09:55:53Z</time>
      </trkpt>
      <trkpt lat="48.44601" lon="7.48306">
        <ele>173.7</ele>
        <time>2019-08-09T09:55:54Z</time>
      </trkpt>
      <trkpt lat="48.44598" lon="7.48307">
        <ele>173.7</ele>
        <time>2019-08-09T09:55:55Z</time>
      </trkpt>
      <trkpt lat="48.44594" lon="7.48304">
        <ele>173.6</ele>
        <time>2019-08-09T09:55:56Z</time>
      </trkpt>
      <trkpt lat="48.44589" lon="7.48302">
        <ele>173.6</ele>
        <time>2019-08-09T09:55:57Z</time>
      </trkpt>
      <trkpt lat="48.44583" lon="7.483">
        <ele>173.5</ele>
        <time>2019-08-09T09:55:58Z</time>
      </trkpt>
      <trkpt lat="48.44579" lon="7.48297">
        <ele>173.5</ele>
        <time>2019-08-09T09:55:59Z</time>
      </trkpt>
      <trkpt lat="48.44573" lon="7.48296">
        <ele>173.4</ele>
        <time>2019-08-09T09:56:00Z</time>
      </trkpt>
      <trkpt lat="48.44568" lon="7.48295">
        <ele>173.4</ele>
        <time>2019-08-09T09:56:01Z</time>
      </trkpt>
      <trkpt lat="48.44562" lon="7.48293">
        <ele>173.3</ele>
        <time>2019-08-09T09:56:02Z</time>
      </trkpt>
      <trkpt lat="48.44557" lon="7.4829">
        <ele>173.2</ele>
        <time>2019-08-09T09:56:03Z</time>
      </trkpt>
      <trkpt lat="48.44551" lon="7.48287">
        <ele>173.2</ele>
        <time>2019-08-09T09:56:04Z</time>
      </trkpt>
      <trkpt lat="48.44546" lon="7.48284">
        <ele>173.1</ele>
        <time>2019-08-09T09:56:05Z</time>
      </trkpt>
      <trkpt lat="48.4454" lon="7.48282">
        <ele>173.1</ele>
        <time>2019-08-09T09:56:06Z</time>
      </trkpt>
      <trkpt lat="48.44535" lon="7.48279">
        <ele>173.1</ele>
        <time>2019-08-09T09:56:07Z</time>
      </trkpt>
      <trkpt lat="48.4453" lon="7.48278">
        <ele>173.1</ele>
        <time>2019-08-09T09:56:08Z</time>
      </trkpt>
      <trkpt lat="48.44525" lon="7.48276">
        <ele>173.1</ele>
        <time>2019-08-09T09:56:09Z</time>
      </trkpt>
      <trkpt lat="48.4452" lon="7.48274">
        <ele>173.1</ele>
        <time>2019-08-09T09:56:10Z</time>
      </trkpt>
      <trkpt lat="48.44515" lon="7.48272">
        <ele>173.1</ele>
        <time>2019-08-09T09:56:11Z</time>
      </trkpt>
      <trkpt lat="48.4451" lon="7.48271">
        <ele>173.1</ele>
        <time>2019-08-09T09:56:12Z</time>
      </trkpt>
      <trkpt lat="48.44505" lon="7.48271">
        <ele>173.1</ele>
        <time>2019-08-09T09:56:13Z</time>
      </trkpt>
      <trkpt lat="48.445" lon="7.48269">
        <ele>173.1</ele>
        <time>2019-08-09T09:56:14Z</time>
      </trkpt>
      <trkpt lat="48.44495" lon="7.48268">
        <ele>173.1</ele>
        <time>2019-08-09T09:56:15Z</time>
      </trkpt>
      <trkpt lat="48.4449" lon="7.48266">
        <ele>173.1</ele>
        <time>2019-08-09T09:56:16Z</time>
      </trkpt>
      <trkpt lat="48.44485" lon="7.48265">
        <ele>173</ele>
        <time>2019-08-09T09:56:17Z</time>
      </trkpt>
      <trkpt lat="48.44481" lon="7.48264">
        <ele>173</ele>
        <time>2019-08-09T09:56:18Z</time>
      </trkpt>
      <trkpt lat="48.44476" lon="7.48263">
        <ele>173</ele>
        <time>2019-08-09T09:56:19Z</time>
      </trkpt>
      <trkpt lat="48.44471" lon="7.48261">
        <ele>173</ele>
        <time>2019-08-09T09:56:20Z</time>
      </trkpt>
      <trkpt lat="48.44466" lon="7.4826">
        <ele>173.1</ele>
        <time>2019-08-09T09:56:21Z</time>
      </trkpt>
      <trkpt lat="48.44461" lon="7.48259">
        <ele>173.1</ele>
        <time>2019-08-09T09:56:22Z</time>
      </trkpt>
      <trkpt lat="48.44455" lon="7.48258">
        <ele>173.1</ele>
        <time>2019-08-09T09:56:23Z</time>
      </trkpt>
      <trkpt lat="48.4445" lon="7.48257">
        <ele>173.2</ele>
        <time>2019-08-09T09:56:24Z</time>
      </trkpt>
      <trkpt lat="48.44445" lon="7.48255">
        <ele>173.2</ele>
        <time>2019-08-09T09:56:25Z</time>
      </trkpt>
      <trkpt lat="48.4444" lon="7.48253">
        <ele>173.2</ele>
        <time>2019-08-09T09:56:26Z</time>
      </trkpt>
      <trkpt lat="48.44435" lon="7.48251">
        <ele>173.2</ele>
        <time>2019-08-09T09:56:27Z</time>
      </trkpt>
      <trkpt lat="48.4443" lon="7.48249">
        <ele>173.3</ele>
        <time>2019-08-09T09:56:28Z</time>
      </trkpt>
      <trkpt lat="48.44425" lon="7.48248">
        <ele>173.3</ele>
        <time>2019-08-09T09:56:29Z</time>
      </trkpt>
      <trkpt lat="48.4442" lon="7.48246">
        <ele>173.3</ele>
        <time>2019-08-09T09:56:30Z</time>
      </trkpt>
      <trkpt lat="48.44416" lon="7.48245">
        <ele>173.3</ele>
        <time>2019-08-09T09:56:31Z</time>
      </trkpt>
      <trkpt lat="48.44412" lon="7.48243">
        <ele>173.3</ele>
        <time>2019-08-09T09:56:32Z</time>
      </trkpt>
      <trkpt lat="48.44407" lon="7.48241">
        <ele>173.3</ele>
        <time>2019-08-09T09:56:33Z</time>
      </trkpt>
      <trkpt lat="48.44403" lon="7.4824">
        <ele>173.2</ele>
        <time>2019-08-09T09:56:34Z</time>
      </trkpt>
      <trkpt lat="48.44398" lon="7.48238">
        <ele>173.2</ele>
        <time>2019-08-09T09:56:35Z</time>
      </trkpt>
      <trkpt lat="48.44393" lon="7.48235">
        <ele>173.2</ele>
        <time>2019-08-09T09:56:36Z</time>
      </trkpt>
      <trkpt lat="48.44388" lon="7.48232">
        <ele>173.2</ele>
        <time>2019-08-09T09:56:37Z</time>
      </trkpt>
      <trkpt lat="48.44383" lon="7.4823">
        <ele>173.1</ele>
        <time>2019-08-09T09:56:38Z</time>
      </trkpt>
      <trkpt lat="48.44378" lon="7.48228">
        <ele>173.1</ele>
        <time>2019-08-09T09:56:39Z</time>
      </trkpt>
      <trkpt lat="48.44374" lon="7.48226">
        <ele>173.1</ele>
        <time>2019-08-09T09:56:40Z</time>
      </trkpt>
      <trkpt lat="48.4437" lon="7.48225">
        <ele>173.1</ele>
        <time>2019-08-09T09:56:41Z</time>
      </trkpt>
      <trkpt lat="48.44365" lon="7.48224">
        <ele>173.1</ele>
        <time>2019-08-09T09:56:42Z</time>
      </trkpt>
      <trkpt lat="48.44361" lon="7.48223">
        <ele>173.1</ele>
        <time>2019-08-09T09:56:43Z</time>
      </trkpt>
      <trkpt lat="48.44356" lon="7.48222">
        <ele>173.1</ele>
        <time>2019-08-09T09:56:44Z</time>
      </trkpt>
      <trkpt lat="48.44352" lon="7.48221">
        <ele>173</ele>
        <time>2019-08-09T09:56:45Z</time>
      </trkpt>
      <trkpt lat="48.44346" lon="7.48219">
        <ele>173</ele>
        <time>2019-08-09T09:56:46Z</time>
      </trkpt>
      <trkpt lat="48.44341" lon="7.48217">
        <ele>173</ele>
        <time>2019-08-09T09:56:47Z</time>
      </trkpt>
      <trkpt lat="48.44335" lon="7.48216">
        <ele>173</ele>
        <time>2019-08-09T09:56:48Z</time>
      </trkpt>
      <trkpt lat="48.4433" lon="7.48215">
        <ele>173</ele>
        <time>2019-08-09T09:56:49Z</time>
      </trkpt>
      <trkpt lat="48.44325" lon="7.48214">
        <ele>173</ele>
        <time>2019-08-09T09:56:50Z</time>
      </trkpt>
      <trkpt lat="48.4432" lon="7.48211">
        <ele>173</ele>
        <time>2019-08-09T09:56:51Z</time>
      </trkpt>
      <trkpt lat="48.44314" lon="7.48212">
        <ele>173</ele>
        <time>2019-08-09T09:56:52Z</time>
      </trkpt>
      <trkpt lat="48.44309" lon="7.48211">
        <ele>173</ele>
        <time>2019-08-09T09:56:53Z</time>
      </trkpt>
      <trkpt lat="48.44304" lon="7.4821">
        <ele>173</ele>
        <time>2019-08-09T09:56:54Z</time>
      </trkpt>
      <trkpt lat="48.443" lon="7.48208">
        <ele>173</ele>
        <time>2019-08-09T09:56:55Z</time>
      </trkpt>
      <trkpt lat="48.44295" lon="7.48206">
        <ele>173</ele>
        <time>2019-08-09T09:56:56Z</time>
      </trkpt>
      <trkpt lat="48.44291" lon="7.48204">
        <ele>173</ele>
        <time>2019-08-09T09:56:57Z</time>
      </trkpt>
      <trkpt lat="48.44287" lon="7.48203">
        <ele>173</ele>
        <time>2019-08-09T09:56:58Z</time>
      </trkpt>
      <trkpt lat="48.44283" lon="7.48202">
        <ele>173</ele>
        <time>2019-08-09T09:56:59Z</time>
      </trkpt>
      <trkpt lat="48.44278" lon="7.482">
        <ele>173</ele>
        <time>2019-08-09T09:57:00Z</time>
      </trkpt>
      <trkpt lat="48.44272" lon="7.48201">
        <ele>173</ele>
        <time>2019-08-09T09:57:01Z</time>
      </trkpt>
      <trkpt lat="48.44268" lon="7.48199">
        <ele>173</ele>
        <time>2019-08-09T09:57:02Z</time>
      </trkpt>
      <trkpt lat="48.44263" lon="7.48198">
        <ele>173</ele>
        <time>2019-08-09T09:57:03Z</time>
      </trkpt>
      <trkpt lat="48.44259" lon="7.48197">
        <ele>173</ele>
        <time>2019-08-09T09:57:04Z</time>
      </trkpt>
      <trkpt lat="48.44254" lon="7.48195">
        <ele>173</ele>
        <time>2019-08-09T09:57:05Z</time>
      </trkpt>
      <trkpt lat="48.44249" lon="7.48194">
        <ele>173</ele>
        <time>2019-08-09T09:57:06Z</time>
      </trkpt>
      <trkpt lat="48.44244" lon="7.48193">
        <ele>173</ele>
        <time>2019-08-09T09:57:07Z</time>
      </trkpt>
      <trkpt lat="48.4424" lon="7.48192">
        <ele>173</ele>
        <time>2019-08-09T09:57:08Z</time>
      </trkpt>
      <trkpt lat="48.44236" lon="7.48191">
        <ele>173</ele>
        <time>2019-08-09T09:57:09Z</time>
      </trkpt>
      <trkpt lat="48.44232" lon="7.48189">
        <ele>173</ele>
        <time>2019-08-09T09:57:10Z</time>
      </trkpt>
      <trkpt lat="48.44229" lon="7.48185">
        <ele>172.9</ele>
        <time>2019-08-09T09:57:11Z</time>
      </trkpt>
      <trkpt lat="48.44224" lon="7.48185">
        <ele>172.9</ele>
        <time>2019-08-09T09:57:12Z</time>
      </trkpt>
      <trkpt lat="48.44219" lon="7.48183">
        <ele>172.9</ele>
        <time>2019-08-09T09:57:13Z</time>
      </trkpt>
      <trkpt lat="48.44215" lon="7.48181">
        <ele>172.9</ele>
        <time>2019-08-09T09:57:14Z</time>
      </trkpt>
      <trkpt lat="48.4421" lon="7.48179">
        <ele>172.9</ele>
        <time>2019-08-09T09:57:15Z</time>
      </trkpt>
      <trkpt lat="48.44205" lon="7.48177">
        <ele>172.9</ele>
        <time>2019-08-09T09:57:16Z</time>
      </trkpt>
      <trkpt lat="48.44199" lon="7.48176">
        <ele>172.9</ele>
        <time>2019-08-09T09:57:17Z</time>
      </trkpt>
      <trkpt lat="48.44195" lon="7.48174">
        <ele>172.9</ele>
        <time>2019-08-09T09:57:18Z</time>
      </trkpt>
      <trkpt lat="48.4419" lon="7.48172">
        <ele>172.9</ele>
        <time>2019-08-09T09:57:19Z</time>
      </trkpt>
      <trkpt lat="48.44186" lon="7.4817">
        <ele>172.9</ele>
        <time>2019-08-09T09:57:20Z</time>
      </trkpt>
      <trkpt lat="48.44181" lon="7.48169">
        <ele>172.9</ele>
        <time>2019-08-09T09:57:21Z</time>
      </trkpt>
      <trkpt lat="48.44176" lon="7.4817">
        <ele>172.9</ele>
        <time>2019-08-09T09:57:22Z</time>
      </trkpt>
      <trkpt lat="48.44172" lon="7.48169">
        <ele>173</ele>
        <time>2019-08-09T09:57:23Z</time>
      </trkpt>
      <trkpt lat="48.44168" lon="7.48169">
        <ele>173</ele>
        <time>2019-08-09T09:57:24Z</time>
      </trkpt>
      <trkpt lat="48.44163" lon="7.48171">
        <ele>173</ele>
        <time>2019-08-09T09:57:25Z</time>
      </trkpt>
      <trkpt lat="48.44158" lon="7.48173">
        <ele>173</ele>
        <time>2019-08-09T09:57:26Z</time>
      </trkpt>
      <trkpt lat="48.44154" lon="7.48175">
        <ele>172.9</ele>
        <time>2019-08-09T09:57:27Z</time>
      </trkpt>
      <trkpt lat="48.44151" lon="7.48178">
        <ele>172.9</ele>
        <time>2019-08-09T09:57:28Z</time>
      </trkpt>
      <trkpt lat="48.44147" lon="7.48181">
        <ele>172.9</ele>
        <time>2019-08-09T09:57:29Z</time>
      </trkpt>
      <trkpt lat="48.44143" lon="7.48183">
        <ele>172.9</ele>
        <time>2019-08-09T09:57:30Z</time>
      </trkpt>
      <trkpt lat="48.4414" lon="7.48186">
        <ele>172.8</ele>
        <time>2019-08-09T09:57:31Z</time>
      </trkpt>
      <trkpt lat="48.44136" lon="7.48188">
        <ele>172.8</ele>
        <time>2019-08-09T09:57:32Z</time>
      </trkpt>
      <trkpt lat="48.44132" lon="7.48191">
        <ele>172.8</ele>
        <time>2019-08-09T09:57:33Z</time>
      </trkpt>
      <trkpt lat="48.44128" lon="7.48193">
        <ele>172.7</ele>
        <time>2019-08-09T09:57:34Z</time>
      </trkpt>
      <trkpt lat="48.44125" lon="7.48194">
        <ele>172.7</ele>
        <time>2019-08-09T09:57:35Z</time>
      </trkpt>
      <trkpt lat="48.44121" lon="7.48195">
        <ele>172.6</ele>
        <time>2019-08-09T09:57:36Z</time>
      </trkpt>
      <trkpt lat="48.44117" lon="7.48196">
        <ele>172.6</ele>
        <time>2019-08-09T09:57:37Z</time>
      </trkpt>
      <trkpt lat="48.44113" lon="7.48197">
        <ele>172.6</ele>
        <time>2019-08-09T09:57:38Z</time>
      </trkpt>
      <trkpt lat="48.44109" lon="7.48198">
        <ele>172.5</ele>
        <time>2019-08-09T09:57:39Z</time>
      </trkpt>
      <trkpt lat="48.44105" lon="7.48198">
        <ele>172.5</ele>
        <time>2019-08-09T09:57:40Z</time>
      </trkpt>
      <trkpt lat="48.44101" lon="7.482">
        <ele>172.4</ele>
        <time>2019-08-09T09:57:41Z</time>
      </trkpt>
      <trkpt lat="48.44097" lon="7.48202">
        <ele>172.3</ele>
        <time>2019-08-09T09:57:42Z</time>
      </trkpt>
      <trkpt lat="48.44093" lon="7.48204">
        <ele>172.2</ele>
        <time>2019-08-09T09:57:43Z</time>
      </trkpt>
      <trkpt lat="48.44089" lon="7.48206">
        <ele>172.1</ele>
        <time>2019-08-09T09:57:44Z</time>
      </trkpt>
      <trkpt lat="48.44084" lon="7.48206">
        <ele>172</ele>
        <time>2019-08-09T09:57:45Z</time>
      </trkpt>
      <trkpt lat="48.44079" lon="7.48207">
        <ele>171.8</ele>
        <time>2019-08-09T09:57:46Z</time>
      </trkpt>
      <trkpt lat="48.44074" lon="7.48207">
        <ele>171.7</ele>
        <time>2019-08-09T09:57:47Z</time>
      </trkpt>
      <trkpt lat="48.4407" lon="7.48208">
        <ele>171.5</ele>
        <time>2019-08-09T09:57:48Z</time>
      </trkpt>
      <trkpt lat="48.44065" lon="7.48209">
        <ele>171.4</ele>
        <time>2019-08-09T09:57:49Z</time>
      </trkpt>
      <trkpt lat="48.4406" lon="7.48209">
        <ele>171.2</ele>
        <time>2019-08-09T09:57:50Z</time>
      </trkpt>
      <trkpt lat="48.44055" lon="7.4821">
        <ele>171</ele>
        <time>2019-08-09T09:57:51Z</time>
      </trkpt>
      <trkpt lat="48.44049" lon="7.4821">
        <ele>170.8</ele>
        <time>2019-08-09T09:57:52Z</time>
      </trkpt>
      <trkpt lat="48.44045" lon="7.48209">
        <ele>170.7</ele>
        <time>2019-08-09T09:57:53Z</time>
      </trkpt>
      <trkpt lat="48.4404" lon="7.48209">
        <ele>170.5</ele>
        <time>2019-08-09T09:57:54Z</time>
      </trkpt>
      <trkpt lat="48.44035" lon="7.48209">
        <ele>170.3</ele>
        <time>2019-08-09T09:57:55Z</time>
      </trkpt>
      <trkpt lat="48.44031" lon="7.4821">
        <ele>170.1</ele>
        <time>2019-08-09T09:57:56Z</time>
      </trkpt>
      <trkpt lat="48.44026" lon="7.48212">
        <ele>170</ele>
        <time>2019-08-09T09:57:57Z</time>
      </trkpt>
      <trkpt lat="48.44021" lon="7.48212">
        <ele>169.8</ele>
        <time>2019-08-09T09:57:58Z</time>
      </trkpt>
      <trkpt lat="48.44016" lon="7.48212">
        <ele>169.6</ele>
        <time>2019-08-09T09:57:59Z</time>
      </trkpt>
      <trkpt lat="48.44011" lon="7.48214">
        <ele>169.4</ele>
        <time>2019-08-09T09:58:00Z</time>
      </trkpt>
      <trkpt lat="48.44005" lon="7.48216">
        <ele>169.3</ele>
        <time>2019-08-09T09:58:01Z</time>
      </trkpt>
      <trkpt lat="48.44" lon="7.48217">
        <ele>169.1</ele>
        <time>2019-08-09T09:58:02Z</time>
      </trkpt>
      <trkpt lat="48.43996" lon="7.48218">
        <ele>169</ele>
        <time>2019-08-09T09:58:03Z</time>
      </trkpt>
      <trkpt lat="48.43991" lon="7.48219">
        <ele>168.9</ele>
        <time>2019-08-09T09:58:04Z</time>
      </trkpt>
      <trkpt lat="48.43986" lon="7.4822">
        <ele>168.8</ele>
        <time>2019-08-09T09:58:05Z</time>
      </trkpt>
      <trkpt lat="48.43982" lon="7.48222">
        <ele>168.7</ele>
        <time>2019-08-09T09:58:06Z</time>
      </trkpt>
      <trkpt lat="48.43978" lon="7.48224">
        <ele>168.6</ele>
        <time>2019-08-09T09:58:07Z</time>
      </trkpt>
      <trkpt lat="48.43973" lon="7.48224">
        <ele>168.5</ele>
        <time>2019-08-09T09:58:08Z</time>
      </trkpt>
      <trkpt lat="48.43969" lon="7.48225">
        <ele>168.4</ele>
        <time>2019-08-09T09:58:09Z</time>
      </trkpt>
      <trkpt lat="48.43964" lon="7.48227">
        <ele>168.3</ele>
        <time>2019-08-09T09:58:10Z</time>
      </trkpt>
      <trkpt lat="48.43959" lon="7.48228">
        <ele>168.2</ele>
        <time>2019-08-09T09:58:11Z</time>
      </trkpt>
      <trkpt lat="48.43955" lon="7.48229">
        <ele>168.1</ele>
        <time>2019-08-09T09:58:12Z</time>
      </trkpt>
      <trkpt lat="48.4395" lon="7.48231">
        <ele>168.1</ele>
        <time>2019-08-09T09:58:13Z</time>
      </trkpt>
      <trkpt lat="48.43945" lon="7.48233">
        <ele>167.9</ele>
        <time>2019-08-09T09:58:14Z</time>
      </trkpt>
      <trkpt lat="48.43939" lon="7.48237">
        <ele>167.7</ele>
        <time>2019-08-09T09:58:15Z</time>
      </trkpt>
      <trkpt lat="48.43934" lon="7.4824">
        <ele>167.5</ele>
        <time>2019-08-09T09:58:16Z</time>
      </trkpt>
      <trkpt lat="48.43929" lon="7.48242">
        <ele>167.4</ele>
        <time>2019-08-09T09:58:17Z</time>
      </trkpt>
      <trkpt lat="48.43924" lon="7.48245">
        <ele>167.2</ele>
        <time>2019-08-09T09:58:18Z</time>
      </trkpt>
      <trkpt lat="48.43919" lon="7.48248">
        <ele>167.1</ele>
        <time>2019-08-09T09:58:19Z</time>
      </trkpt>
      <trkpt lat="48.43914" lon="7.48251">
        <ele>167</ele>
        <time>2019-08-09T09:58:20Z</time>
      </trkpt>
      <trkpt lat="48.4391" lon="7.48253">
        <ele>167</ele>
        <time>2019-08-09T09:58:21Z</time>
      </trkpt>
      <trkpt lat="48.43905" lon="7.48256">
        <ele>167</ele>
        <time>2019-08-09T09:58:22Z</time>
      </trkpt>
      <trkpt lat="48.43901" lon="7.48259">
        <ele>167</ele>
        <time>2019-08-09T09:58:23Z</time>
      </trkpt>
      <trkpt lat="48.43896" lon="7.48261">
        <ele>167</ele>
        <time>2019-08-09T09:58:24Z</time>
      </trkpt>
      <trkpt lat="48.43891" lon="7.48264">
        <ele>167</ele>
        <time>2019-08-09T09:58:25Z</time>
      </trkpt>
      <trkpt lat="48.43887" lon="7.48267">
        <ele>167</ele>
        <time>2019-08-09T09:58:26Z</time>
      </trkpt>
      <trkpt lat="48.43882" lon="7.48269">
        <ele>167</ele>
        <time>2019-08-09T09:58:27Z</time>
      </trkpt>
      <trkpt lat="48.43877" lon="7.48271">
        <ele>167</ele>
        <time>2019-08-09T09:58:28Z</time>
      </trkpt>
      <trkpt lat="48.43872" lon="7.48273">
        <ele>167.1</ele>
        <time>2019-08-09T09:58:29Z</time>
      </trkpt>
      <trkpt lat="48.43867" lon="7.48275">
        <ele>167.1</ele>
        <time>2019-08-09T09:58:30Z</time>
      </trkpt>
      <trkpt lat="48.43862" lon="7.48276">
        <ele>167.1</ele>
        <time>2019-08-09T09:58:31Z</time>
      </trkpt>
      <trkpt lat="48.43858" lon="7.48278">
        <ele>167.2</ele>
        <time>2019-08-09T09:58:32Z</time>
      </trkpt>
      <trkpt lat="48.43853" lon="7.4828">
        <ele>167.2</ele>
        <time>2019-08-09T09:58:33Z</time>
      </trkpt>
      <trkpt lat="48.43848" lon="7.48281">
        <ele>167.2</ele>
        <time>2019-08-09T09:58:34Z</time>
      </trkpt>
      <trkpt lat="48.43844" lon="7.48283">
        <ele>167.3</ele>
        <time>2019-08-09T09:58:35Z</time>
      </trkpt>
      <trkpt lat="48.43839" lon="7.48285">
        <ele>167.3</ele>
        <time>2019-08-09T09:58:36Z</time>
      </trkpt>
      <trkpt lat="48.43834" lon="7.48286">
        <ele>167.4</ele>
        <time>2019-08-09T09:58:37Z</time>
      </trkpt>
      <trkpt lat="48.4383" lon="7.48288">
        <ele>167.4</ele>
        <time>2019-08-09T09:58:38Z</time>
      </trkpt>
      <trkpt lat="48.43825" lon="7.48289">
        <ele>167.5</ele>
        <time>2019-08-09T09:58:39Z</time>
      </trkpt>
      <trkpt lat="48.43821" lon="7.48291">
        <ele>167.5</ele>
        <time>2019-08-09T09:58:40Z</time>
      </trkpt>
      <trkpt lat="48.43816" lon="7.48293">
        <ele>167.6</ele>
        <time>2019-08-09T09:58:41Z</time>
      </trkpt>
      <trkpt lat="48.43811" lon="7.48296">
        <ele>167.6</ele>
        <time>2019-08-09T09:58:42Z</time>
      </trkpt>
      <trkpt lat="48.43805" lon="7.48298">
        <ele>167.5</ele>
        <time>2019-08-09T09:58:43Z</time>
      </trkpt>
      <trkpt lat="48.438" lon="7.48299">
        <ele>167.5</ele>
        <time>2019-08-09T09:58:44Z</time>
      </trkpt>
      <trkpt lat="48.43795" lon="7.483">
        <ele>167.4</ele>
        <time>2019-08-09T09:58:45Z</time>
      </trkpt>
      <trkpt lat="48.43791" lon="7.48301">
        <ele>167.3</ele>
        <time>2019-08-09T09:58:46Z</time>
      </trkpt>
      <trkpt lat="48.43786" lon="7.48301">
        <ele>167.2</ele>
        <time>2019-08-09T09:58:47Z</time>
      </trkpt>
      <trkpt lat="48.43782" lon="7.48301">
        <ele>167.1</ele>
        <time>2019-08-09T09:58:48Z</time>
      </trkpt>
      <trkpt lat="48.43777" lon="7.48301">
        <ele>167</ele>
        <time>2019-08-09T09:58:49Z</time>
      </trkpt>
      <trkpt lat="48.43773" lon="7.48302">
        <ele>166.9</ele>
        <time>2019-08-09T09:58:50Z</time>
      </trkpt>
      <trkpt lat="48.43768" lon="7.48303">
        <ele>166.8</ele>
        <time>2019-08-09T09:58:51Z</time>
      </trkpt>
      <trkpt lat="48.43762" lon="7.48304">
        <ele>166.7</ele>
        <time>2019-08-09T09:58:52Z</time>
      </trkpt>
      <trkpt lat="48.43757" lon="7.48305">
        <ele>166.6</ele>
        <time>2019-08-09T09:58:53Z</time>
      </trkpt>
      <trkpt lat="48.43753" lon="7.48307">
        <ele>166.6</ele>
        <time>2019-08-09T09:58:54Z</time>
      </trkpt>
      <trkpt lat="48.43748" lon="7.48308">
        <ele>166.6</ele>
        <time>2019-08-09T09:58:55Z</time>
      </trkpt>
      <trkpt lat="48.43744" lon="7.4831">
        <ele>166.6</ele>
        <time>2019-08-09T09:58:56Z</time>
      </trkpt>
      <trkpt lat="48.43739" lon="7.4831">
        <ele>166.7</ele>
        <time>2019-08-09T09:58:57Z</time>
      </trkpt>
      <trkpt lat="48.43735" lon="7.48309">
        <ele>166.7</ele>
        <time>2019-08-09T09:58:58Z</time>
      </trkpt>
      <trkpt lat="48.43731" lon="7.48306">
        <ele>166.8</ele>
        <time>2019-08-09T09:58:59Z</time>
      </trkpt>
      <trkpt lat="48.43727" lon="7.48301">
        <ele>166.8</ele>
        <time>2019-08-09T09:59:00Z</time>
      </trkpt>
      <trkpt lat="48.43723" lon="7.48297">
        <ele>166.9</ele>
        <time>2019-08-09T09:59:01Z</time>
      </trkpt>
      <trkpt lat="48.43719" lon="7.48295">
        <ele>167.1</ele>
        <time>2019-08-09T09:59:02Z</time>
      </trkpt>
      <trkpt lat="48.43714" lon="7.48292">
        <ele>167.2</ele>
        <time>2019-08-09T09:59:03Z</time>
      </trkpt>
      <trkpt lat="48.4371" lon="7.48288">
        <ele>167.3</ele>
        <time>2019-08-09T09:59:04Z</time>
      </trkpt>
      <trkpt lat="48.43707" lon="7.48285">
        <ele>167.4</ele>
        <time>2019-08-09T09:59:05Z</time>
      </trkpt>
      <trkpt lat="48.43703" lon="7.48282">
        <ele>167.5</ele>
        <time>2019-08-09T09:59:06Z</time>
      </trkpt>
      <trkpt lat="48.43699" lon="7.48279">
        <ele>167.6</ele>
        <time>2019-08-09T09:59:07Z</time>
      </trkpt>
      <trkpt lat="48.43695" lon="7.48277">
        <ele>167.6</ele>
        <time>2019-08-09T09:59:08Z</time>
      </trkpt>
      <trkpt lat="48.4369" lon="7.48277">
        <ele>167.6</ele>
        <time>2019-08-09T09:59:09Z</time>
      </trkpt>
      <trkpt lat="48.43686" lon="7.48276">
        <ele>167.7</ele>
        <time>2019-08-09T09:59:10Z</time>
      </trkpt>
      <trkpt lat="48.43682" lon="7.48275">
        <ele>167.7</ele>
        <time>2019-08-09T09:59:11Z</time>
      </trkpt>
      <trkpt lat="48.43678" lon="7.48275">
        <ele>167.7</ele>
        <time>2019-08-09T09:59:12Z</time>
      </trkpt>
      <trkpt lat="48.43674" lon="7.48275">
        <ele>167.6</ele>
        <time>2019-08-09T09:59:13Z</time>
      </trkpt>
      <trkpt lat="48.4367" lon="7.48275">
        <ele>167.6</ele>
        <time>2019-08-09T09:59:14Z</time>
      </trkpt>
      <trkpt lat="48.43665" lon="7.48275">
        <ele>167.6</ele>
        <time>2019-08-09T09:59:15Z</time>
      </trkpt>
      <trkpt lat="48.4366" lon="7.48274">
        <ele>167.6</ele>
        <time>2019-08-09T09:59:16Z</time>
      </trkpt>
      <trkpt lat="48.43656" lon="7.48274">
        <ele>167.5</ele>
        <time>2019-08-09T09:59:17Z</time>
      </trkpt>
      <trkpt lat="48.43652" lon="7.48274">
        <ele>167.4</ele>
        <time>2019-08-09T09:59:18Z</time>
      </trkpt>
      <trkpt lat="48.43648" lon="7.48274">
        <ele>167.3</ele>
        <time>2019-08-09T09:59:19Z</time>
      </trkpt>
      <trkpt lat="48.43643" lon="7.48276">
        <ele>167.2</ele>
        <time>2019-08-09T09:59:20Z</time>
      </trkpt>
      <trkpt lat="48.43639" lon="7.48277">
        <ele>167.1</ele>
        <time>2019-08-09T09:59:21Z</time>
      </trkpt>
      <trkpt lat="48.43635" lon="7.48279">
        <ele>167</ele>
        <time>2019-08-09T09:59:22Z</time>
      </trkpt>
      <trkpt lat="48.43632" lon="7.4828">
        <ele>166.9</ele>
        <time>2019-08-09T09:59:23Z</time>
      </trkpt>
      <trkpt lat="48.43628" lon="7.48281">
        <ele>166.8</ele>
        <time>2019-08-09T09:59:24Z</time>
      </trkpt>
      <trkpt lat="48.43624" lon="7.48282">
        <ele>166.7</ele>
        <time>2019-08-09T09:59:25Z</time>
      </trkpt>
      <trkpt lat="48.4362" lon="7.48283">
        <ele>166.7</ele>
        <time>2019-08-09T09:59:26Z</time>
      </trkpt>
      <trkpt lat="48.43616" lon="7.48285">
        <ele>166.7</ele>
        <time>2019-08-09T09:59:27Z</time>
      </trkpt>
      <trkpt lat="48.43612" lon="7.48286">
        <ele>166.6</ele>
        <time>2019-08-09T09:59:28Z</time>
      </trkpt>
      <trkpt lat="48.43607" lon="7.48287">
        <ele>166.6</ele>
        <time>2019-08-09T09:59:29Z</time>
      </trkpt>
      <trkpt lat="48.43602" lon="7.48288">
        <ele>166.6</ele>
        <time>2019-08-09T09:59:30Z</time>
      </trkpt>
      <trkpt lat="48.43597" lon="7.4829">
        <ele>166.5</ele>
        <time>2019-08-09T09:59:31Z</time>
      </trkpt>
      <trkpt lat="48.43593" lon="7.48291">
        <ele>166.4</ele>
        <time>2019-08-09T09:59:32Z</time>
      </trkpt>
      <trkpt lat="48.43588" lon="7.48293">
        <ele>166.3</ele>
        <time>2019-08-09T09:59:33Z</time>
      </trkpt>
      <trkpt lat="48.43583" lon="7.48295">
        <ele>166.1</ele>
        <time>2019-08-09T09:59:34Z</time>
      </trkpt>
      <trkpt lat="48.43578" lon="7.48297">
        <ele>166</ele>
        <time>2019-08-09T09:59:35Z</time>
      </trkpt>
      <trkpt lat="48.43574" lon="7.48298">
        <ele>165.9</ele>
        <time>2019-08-09T09:59:36Z</time>
      </trkpt>
      <trkpt lat="48.4357" lon="7.483">
        <ele>165.8</ele>
        <time>2019-08-09T09:59:37Z</time>
      </trkpt>
      <trkpt lat="48.43565" lon="7.48302">
        <ele>165.7</ele>
        <time>2019-08-09T09:59:38Z</time>
      </trkpt>
      <trkpt lat="48.4356" lon="7.48304">
        <ele>165.7</ele>
        <time>2019-08-09T09:59:39Z</time>
      </trkpt>
      <trkpt lat="48.43555" lon="7.48306">
        <ele>165.6</ele>
        <time>2019-08-09T09:59:40Z</time>
      </trkpt>
      <trkpt lat="48.43551" lon="7.48309">
        <ele>165.6</ele>
        <time>2019-08-09T09:59:41Z</time>
      </trkpt>
      <trkpt lat="48.43547" lon="7.48312">
        <ele>165.6</ele>
        <time>2019-08-09T09:59:42Z</time>
      </trkpt>
      <trkpt lat="48.43542" lon="7.48314">
        <ele>165.6</ele>
        <time>2019-08-09T09:59:43Z</time>
      </trkpt>
      <trkpt lat="48.43539" lon="7.48316">
        <ele>165.6</ele>
        <time>2019-08-09T09:59:44Z</time>
      </trkpt>
      <trkpt lat="48.43534" lon="7.48318">
        <ele>165.5</ele>
        <time>2019-08-09T09:59:45Z</time>
      </trkpt>
      <trkpt lat="48.43529" lon="7.48321">
        <ele>165.5</ele>
        <time>2019-08-09T09:59:46Z</time>
      </trkpt>
      <trkpt lat="48.43524" lon="7.48324">
        <ele>165.4</ele>
        <time>2019-08-09T09:59:47Z</time>
      </trkpt>
      <trkpt lat="48.4352" lon="7.48327">
        <ele>165.3</ele>
        <time>2019-08-09T09:59:48Z</time>
      </trkpt>
      <trkpt lat="48.43515" lon="7.48328">
        <ele>165.1</ele>
        <time>2019-08-09T09:59:49Z</time>
      </trkpt>
      <trkpt lat="48.4351" lon="7.48331">
        <ele>164.9</ele>
        <time>2019-08-09T09:59:50Z</time>
      </trkpt>
      <trkpt lat="48.43506" lon="7.48333">
        <ele>164.8</ele>
        <time>2019-08-09T09:59:51Z</time>
      </trkpt>
      <trkpt lat="48.43502" lon="7.48335">
        <ele>164.7</ele>
        <time>2019-08-09T09:59:52Z</time>
      </trkpt>
      <trkpt lat="48.43499" lon="7.48337">
        <ele>164.6</ele>
        <time>2019-08-09T09:59:53Z</time>
      </trkpt>
      <trkpt lat="48.43495" lon="7.48337">
        <ele>164.6</ele>
        <time>2019-08-09T09:59:54Z</time>
      </trkpt>
      <trkpt lat="48.4349" lon="7.48339">
        <ele>164.6</ele>
        <time>2019-08-09T09:59:55Z</time>
      </trkpt>
      <trkpt lat="48.43487" lon="7.4834">
        <ele>164.5</ele>
        <time>2019-08-09T09:59:56Z</time>
      </trkpt>
      <trkpt lat="48.43483" lon="7.48341">
        <ele>164.5</ele>
        <time>2019-08-09T09:59:57Z</time>
      </trkpt>
      <trkpt lat="48.43479" lon="7.48342">
        <ele>164.5</ele>
        <time>2019-08-09T09:59:58Z</time>
      </trkpt>
      <trkpt lat="48.43475" lon="7.48343">
        <ele>164.6</ele>
        <time>2019-08-09T09:59:59Z</time>
      </trkpt>
      <trkpt lat="48.43471" lon="7.48342">
        <ele>164.6</ele>
        <time>2019-08-09T10:00:00Z</time>
      </trkpt>
      <trkpt lat="48.43466" lon="7.4834">
        <ele>164.6</ele>
        <time>2019-08-09T10:00:01Z</time>
      </trkpt>
      <trkpt lat="48.43461" lon="7.48339">
        <ele>164.7</ele>
        <time>2019-08-09T10:00:02Z</time>
      </trkpt>
      <trkpt lat="48.43457" lon="7.48337">
        <ele>164.8</ele>
        <time>2019-08-09T10:00:03Z</time>
      </trkpt>
      <trkpt lat="48.43453" lon="7.48336">
        <ele>164.9</ele>
        <time>2019-08-09T10:00:04Z</time>
      </trkpt>
      <trkpt lat="48.43448" lon="7.48334">
        <ele>165.1</ele>
        <time>2019-08-09T10:00:05Z</time>
      </trkpt>
      <trkpt lat="48.43443" lon="7.48332">
        <ele>165.3</ele>
        <time>2019-08-09T10:00:06Z</time>
      </trkpt>
      <trkpt lat="48.43438" lon="7.48331">
        <ele>165.4</ele>
        <time>2019-08-09T10:00:07Z</time>
      </trkpt>
      <trkpt lat="48.43434" lon="7.48329">
        <ele>165.6</ele>
        <time>2019-08-09T10:00:08Z</time>
      </trkpt>
      <trkpt lat="48.4343" lon="7.48328">
        <ele>165.7</ele>
        <time>2019-08-09T10:00:09Z</time>
      </trkpt>
      <trkpt lat="48.43427" lon="7.48326">
        <ele>165.8</ele>
        <time>2019-08-09T10:00:10Z</time>
      </trkpt>
      <trkpt lat="48.43423" lon="7.48324">
        <ele>166</ele>
        <time>2019-08-09T10:00:11Z</time>
      </trkpt>
      <trkpt lat="48.43419" lon="7.48323">
        <ele>166.1</ele>
        <time>2019-08-09T10:00:12Z</time>
      </trkpt>
      <trkpt lat="48.43416" lon="7.48322">
        <ele>166.2</ele>
        <time>2019-08-09T10:00:13Z</time>
      </trkpt>
      <trkpt lat="48.43411" lon="7.48321">
        <ele>166.3</ele>
        <time>2019-08-09T10:00:14Z</time>
      </trkpt>
      <trkpt lat="48.43406" lon="7.48319">
        <ele>166.4</ele>
        <time>2019-08-09T10:00:15Z</time>
      </trkpt>
      <trkpt lat="48.43402" lon="7.48318">
        <ele>166.5</ele>
        <time>2019-08-09T10:00:16Z</time>
      </trkpt>
      <trkpt lat="48.43397" lon="7.48316">
        <ele>166.5</ele>
        <time>2019-08-09T10:00:17Z</time>
      </trkpt>
      <trkpt lat="48.43393" lon="7.48316">
        <ele>166.5</ele>
        <time>2019-08-09T10:00:18Z</time>
      </trkpt>
      <trkpt lat="48.43389" lon="7.48315">
        <ele>166.5</ele>
        <time>2019-08-09T10:00:19Z</time>
      </trkpt>
      <trkpt lat="48.43385" lon="7.48315">
        <ele>166.5</ele>
        <time>2019-08-09T10:00:20Z</time>
      </trkpt>
      <trkpt lat="48.43383" lon="7.48312">
        <ele>166.5</ele>
        <time>2019-08-09T10:00:21Z</time>
      </trkpt>
      <trkpt lat="48.43379" lon="7.48312">
        <ele>166.5</ele>
        <time>2019-08-09T10:00:22Z</time>
      </trkpt>
      <trkpt lat="48.43376" lon="7.48311">
        <ele>166.5</ele>
        <time>2019-08-09T10:00:23Z</time>
      </trkpt>
      <trkpt lat="48.43372" lon="7.48312">
        <ele>166.5</ele>
        <time>2019-08-09T10:00:24Z</time>
      </trkpt>
      <trkpt lat="48.43369" lon="7.48311">
        <ele>166.5</ele>
        <time>2019-08-09T10:00:25Z</time>
      </trkpt>
      <trkpt lat="48.43365" lon="7.48312">
        <ele>166.5</ele>
        <time>2019-08-09T10:00:26Z</time>
      </trkpt>
      <trkpt lat="48.43361" lon="7.48313">
        <ele>166.5</ele>
        <time>2019-08-09T10:00:27Z</time>
      </trkpt>
      <trkpt lat="48.43358" lon="7.48312">
        <ele>166.5</ele>
        <time>2019-08-09T10:00:28Z</time>
      </trkpt>
      <trkpt lat="48.43355" lon="7.48311">
        <ele>166.6</ele>
        <time>2019-08-09T10:00:29Z</time>
      </trkpt>
      <trkpt lat="48.43352" lon="7.4831">
        <ele>166.6</ele>
        <time>2019-08-09T10:00:30Z</time>
      </trkpt>
      <trkpt lat="48.43349" lon="7.48309">
        <ele>166.6</ele>
        <time>2019-08-09T10:00:31Z</time>
      </trkpt>
      <trkpt lat="48.43345" lon="7.48309">
        <ele>166.6</ele>
        <time>2019-08-09T10:00:32Z</time>
      </trkpt>
      <trkpt lat="48.43342" lon="7.48308">
        <ele>166.7</ele>
        <time>2019-08-09T10:00:33Z</time>
      </trkpt>
      <trkpt lat="48.43339" lon="7.48308">
        <ele>166.8</ele>
        <time>2019-08-09T10:00:34Z</time>
      </trkpt>
      <trkpt lat="48.43336" lon="7.48308">
        <ele>166.8</ele>
        <time>2019-08-09T10:00:35Z</time>
      </trkpt>
      <trkpt lat="48.43332" lon="7.48308">
        <ele>166.9</ele>
        <time>2019-08-09T10:00:36Z</time>
      </trkpt>
      <trkpt lat="48.43328" lon="7.48307">
        <ele>167.1</ele>
        <time>2019-08-09T10:00:37Z</time>
      </trkpt>
      <trkpt lat="48.43324" lon="7.48306">
        <ele>167.2</ele>
        <time>2019-08-09T10:00:38Z</time>
      </trkpt>
      <trkpt lat="48.43321" lon="7.48305">
        <ele>167.4</ele>
        <time>2019-08-09T10:00:39Z</time>
      </trkpt>
      <trkpt lat="48.43317" lon="7.48305">
        <ele>167.5</ele>
        <time>2019-08-09T10:00:40Z</time>
      </trkpt>
      <trkpt lat="48.43314" lon="7.48305">
        <ele>167.6</ele>
        <time>2019-08-09T10:00:41Z</time>
      </trkpt>
      <trkpt lat="48.43311" lon="7.48303">
        <ele>167.8</ele>
        <time>2019-08-09T10:00:42Z</time>
      </trkpt>
      <trkpt lat="48.43308" lon="7.48302">
        <ele>167.9</ele>
        <time>2019-08-09T10:00:43Z</time>
      </trkpt>
      <trkpt lat="48.43305" lon="7.48301">
        <ele>168</ele>
        <time>2019-08-09T10:00:44Z</time>
      </trkpt>
      <trkpt lat="48.43302" lon="7.48297">
        <ele>168.2</ele>
        <time>2019-08-09T10:00:46Z</time>
      </trkpt>
      <trkpt lat="48.433" lon="7.48293">
        <ele>168.5</ele>
        <time>2019-08-09T10:00:48Z</time>
      </trkpt>
      <trkpt lat="48.43298" lon="7.48289">
        <ele>168.5</ele>
        <time>2019-08-09T10:00:50Z</time>
      </trkpt>
      <trkpt lat="48.43297" lon="7.48283">
        <ele>168.5</ele>
        <time>2019-08-09T10:00:52Z</time>
      </trkpt>
      <trkpt lat="48.43297" lon="7.48277">
        <ele>168.5</ele>
        <time>2019-08-09T10:00:54Z</time>
      </trkpt>
      <trkpt lat="48.43296" lon="7.48273">
        <ele>168.5</ele>
        <time>2019-08-09T10:00:55Z</time>
      </trkpt>
      <trkpt lat="48.43296" lon="7.48267">
        <ele>168.5</ele>
        <time>2019-08-09T10:00:56Z</time>
      </trkpt>
      <trkpt lat="48.43295" lon="7.48262">
        <ele>168.5</ele>
        <time>2019-08-09T10:00:57Z</time>
      </trkpt>
      <trkpt lat="48.43295" lon="7.48257">
        <ele>168.5</ele>
        <time>2019-08-09T10:00:58Z</time>
      </trkpt>
      <trkpt lat="48.43295" lon="7.48252">
        <ele>168.5</ele>
        <time>2019-08-09T10:00:59Z</time>
      </trkpt>
      <trkpt lat="48.43294" lon="7.48248">
        <ele>168.5</ele>
        <time>2019-08-09T10:01:00Z</time>
      </trkpt>
      <trkpt lat="48.43294" lon="7.48242">
        <ele>168.5</ele>
        <time>2019-08-09T10:01:01Z</time>
      </trkpt>
      <trkpt lat="48.43294" lon="7.48237">
        <ele>168.5</ele>
        <time>2019-08-09T10:01:02Z</time>
      </trkpt>
      <trkpt lat="48.43293" lon="7.4823">
        <ele>168.5</ele>
        <time>2019-08-09T10:01:03Z</time>
      </trkpt>
      <trkpt lat="48.43292" lon="7.48225">
        <ele>168.5</ele>
        <time>2019-08-09T10:01:04Z</time>
      </trkpt>
      <trkpt lat="48.43292" lon="7.4822">
        <ele>168.5</ele>
        <time>2019-08-09T10:01:05Z</time>
      </trkpt>
      <trkpt lat="48.43291" lon="7.48214">
        <ele>168.5</ele>
        <time>2019-08-09T10:01:06Z</time>
      </trkpt>
      <trkpt lat="48.43291" lon="7.48208">
        <ele>168.5</ele>
        <time>2019-08-09T10:01:07Z</time>
      </trkpt>
      <trkpt lat="48.43291" lon="7.48202">
        <ele>168.5</ele>
        <time>2019-08-09T10:01:08Z</time>
      </trkpt>
      <trkpt lat="48.43291" lon="7.48196">
        <ele>168.5</ele>
        <time>2019-08-09T10:01:09Z</time>
      </trkpt>
      <trkpt lat="48.4329" lon="7.48191">
        <ele>168.5</ele>
        <time>2019-08-09T10:01:10Z</time>
      </trkpt>
      <trkpt lat="48.4329" lon="7.48185">
        <ele>168.5</ele>
        <time>2019-08-09T10:01:11Z</time>
      </trkpt>
      <trkpt lat="48.4329" lon="7.4818">
        <ele>168.5</ele>
        <time>2019-08-09T10:01:12Z</time>
      </trkpt>
      <trkpt lat="48.43289" lon="7.48175">
        <ele>168.5</ele>
        <time>2019-08-09T10:01:13Z</time>
      </trkpt>
      <trkpt lat="48.43289" lon="7.4817">
        <ele>168.5</ele>
        <time>2019-08-09T10:01:14Z</time>
      </trkpt>
      <trkpt lat="48.43289" lon="7.48166">
        <ele>168.5</ele>
        <time>2019-08-09T10:01:15Z</time>
      </trkpt>
      <trkpt lat="48.43289" lon="7.48161">
        <ele>168.5</ele>
        <time>2019-08-09T10:01:16Z</time>
      </trkpt>
      <trkpt lat="48.4329" lon="7.48156">
        <ele>168.6</ele>
        <time>2019-08-09T10:01:17Z</time>
      </trkpt>
      <trkpt lat="48.43289" lon="7.48152">
        <ele>168.6</ele>
        <time>2019-08-09T10:01:18Z</time>
      </trkpt>
      <trkpt lat="48.43289" lon="7.48147">
        <ele>168.7</ele>
        <time>2019-08-09T10:01:19Z</time>
      </trkpt>
      <trkpt lat="48.43289" lon="7.48141">
        <ele>168.8</ele>
        <time>2019-08-09T10:01:20Z</time>
      </trkpt>
      <trkpt lat="48.43289" lon="7.48136">
        <ele>168.9</ele>
        <time>2019-08-09T10:01:21Z</time>
      </trkpt>
      <trkpt lat="48.4329" lon="7.48131">
        <ele>169</ele>
        <time>2019-08-09T10:01:22Z</time>
      </trkpt>
      <trkpt lat="48.4329" lon="7.48126">
        <ele>169.1</ele>
        <time>2019-08-09T10:01:23Z</time>
      </trkpt>
      <trkpt lat="48.4329" lon="7.48121">
        <ele>169.2</ele>
        <time>2019-08-09T10:01:24Z</time>
      </trkpt>
      <trkpt lat="48.43289" lon="7.48116">
        <ele>169.3</ele>
        <time>2019-08-09T10:01:25Z</time>
      </trkpt>
      <trkpt lat="48.4329" lon="7.48111">
        <ele>169.4</ele>
        <time>2019-08-09T10:01:26Z</time>
      </trkpt>
      <trkpt lat="48.43289" lon="7.48106">
        <ele>169.5</ele>
        <time>2019-08-09T10:01:27Z</time>
      </trkpt>
      <trkpt lat="48.43289" lon="7.48101">
        <ele>169.6</ele>
        <time>2019-08-09T10:01:28Z</time>
      </trkpt>
      <trkpt lat="48.43289" lon="7.48095">
        <ele>169.7</ele>
        <time>2019-08-09T10:01:29Z</time>
      </trkpt>
      <trkpt lat="48.4329" lon="7.4809">
        <ele>169.8</ele>
        <time>2019-08-09T10:01:30Z</time>
      </trkpt>
      <trkpt lat="48.4329" lon="7.48084">
        <ele>169.9</ele>
        <time>2019-08-09T10:01:31Z</time>
      </trkpt>
      <trkpt lat="48.4329" lon="7.48079">
        <ele>170</ele>
        <time>2019-08-09T10:01:32Z</time>
      </trkpt>
      <trkpt lat="48.43291" lon="7.48072">
        <ele>170.2</ele>
        <time>2019-08-09T10:01:34Z</time>
      </trkpt>
      <trkpt lat="48.4329" lon="7.48065">
        <ele>170.3</ele>
        <time>2019-08-09T10:01:36Z</time>
      </trkpt>
      <trkpt lat="48.4329" lon="7.48058">
        <ele>170.5</ele>
        <time>2019-08-09T10:01:38Z</time>
      </trkpt>
      <trkpt lat="48.43289" lon="7.48054">
        <ele>170.6</ele>
        <time>2019-08-09T10:01:39Z</time>
      </trkpt>
      <trkpt lat="48.4329" lon="7.48048">
        <ele>170.7</ele>
        <time>2019-08-09T10:01:40Z</time>
      </trkpt>
      <trkpt lat="48.4329" lon="7.48044">
        <ele>170.8</ele>
        <time>2019-08-09T10:01:41Z</time>
      </trkpt>
      <trkpt lat="48.43291" lon="7.48039">
        <ele>171</ele>
        <time>2019-08-09T10:01:42Z</time>
      </trkpt>
      <trkpt lat="48.43291" lon="7.48035">
        <ele>171.1</ele>
        <time>2019-08-09T10:01:43Z</time>
      </trkpt>
      <trkpt lat="48.43292" lon="7.4803">
        <ele>171.1</ele>
        <time>2019-08-09T10:01:44Z</time>
      </trkpt>
      <trkpt lat="48.43292" lon="7.48024">
        <ele>171.2</ele>
        <time>2019-08-09T10:01:45Z</time>
      </trkpt>
      <trkpt lat="48.43293" lon="7.48019">
        <ele>171.3</ele>
        <time>2019-08-09T10:01:46Z</time>
      </trkpt>
      <trkpt lat="48.43291" lon="7.48015">
        <ele>171.4</ele>
        <time>2019-08-09T10:01:47Z</time>
      </trkpt>
      <trkpt lat="48.43291" lon="7.48008">
        <ele>171.5</ele>
        <time>2019-08-09T10:01:49Z</time>
      </trkpt>
      <trkpt lat="48.43292" lon="7.48003">
        <ele>171.5</ele>
        <time>2019-08-09T10:01:50Z</time>
      </trkpt>
      <trkpt lat="48.43292" lon="7.47999">
        <ele>171.5</ele>
        <time>2019-08-09T10:01:51Z</time>
      </trkpt>
      <trkpt lat="48.43293" lon="7.47993">
        <ele>171.5</ele>
        <time>2019-08-09T10:01:52Z</time>
      </trkpt>
      <trkpt lat="48.43294" lon="7.47986">
        <ele>171.6</ele>
        <time>2019-08-09T10:01:53Z</time>
      </trkpt>
      <trkpt lat="48.43293" lon="7.4798">
        <ele>171.6</ele>
        <time>2019-08-09T10:01:54Z</time>
      </trkpt>
      <trkpt lat="48.43294" lon="7.47974">
        <ele>171.6</ele>
        <time>2019-08-09T10:01:55Z</time>
      </trkpt>
      <trkpt lat="48.43295" lon="7.47968">
        <ele>171.6</ele>
        <time>2019-08-09T10:01:56Z</time>
      </trkpt>
      <trkpt lat="48.43296" lon="7.47964">
        <ele>171.7</ele>
        <time>2019-08-09T10:01:57Z</time>
      </trkpt>
      <trkpt lat="48.43296" lon="7.47957">
        <ele>171.8</ele>
        <time>2019-08-09T10:01:58Z</time>
      </trkpt>
      <trkpt lat="48.43297" lon="7.47952">
        <ele>171.8</ele>
        <time>2019-08-09T10:01:59Z</time>
      </trkpt>
      <trkpt lat="48.43297" lon="7.47948">
        <ele>171.9</ele>
        <time>2019-08-09T10:02:00Z</time>
      </trkpt>
      <trkpt lat="48.43297" lon="7.47944">
        <ele>172</ele>
        <time>2019-08-09T10:02:01Z</time>
      </trkpt>
      <trkpt lat="48.43298" lon="7.4794">
        <ele>172.1</ele>
        <time>2019-08-09T10:02:02Z</time>
      </trkpt>
      <trkpt lat="48.43298" lon="7.47935">
        <ele>172.2</ele>
        <time>2019-08-09T10:02:03Z</time>
      </trkpt>
      <trkpt lat="48.43298" lon="7.47928">
        <ele>172.5</ele>
        <time>2019-08-09T10:02:05Z</time>
      </trkpt>
      <trkpt lat="48.43299" lon="7.47924">
        <ele>172.6</ele>
        <time>2019-08-09T10:02:06Z</time>
      </trkpt>
      <trkpt lat="48.43301" lon="7.47917">
        <ele>172.6</ele>
        <time>2019-08-09T10:02:08Z</time>
      </trkpt>
      <trkpt lat="48.43303" lon="7.47911">
        <ele>172.6</ele>
        <time>2019-08-09T10:02:10Z</time>
      </trkpt>
      <trkpt lat="48.43304" lon="7.47907">
        <ele>172.6</ele>
        <time>2019-08-09T10:02:13Z</time>
      </trkpt>
      <trkpt lat="48.43305" lon="7.47901">
        <ele>172.7</ele>
        <time>2019-08-09T10:02:16Z</time>
      </trkpt>
      <trkpt lat="48.43307" lon="7.47896">
        <ele>172.7</ele>
        <time>2019-08-09T10:02:19Z</time>
      </trkpt>
      <trkpt lat="48.43309" lon="7.47892">
        <ele>172.7</ele>
        <time>2019-08-09T10:02:22Z</time>
      </trkpt>
      <trkpt lat="48.43311" lon="7.47888">
        <ele>172.7</ele>
        <time>2019-08-09T10:02:24Z</time>
      </trkpt>
      <trkpt lat="48.43311" lon="7.47882">
        <ele>172.7</ele>
        <time>2019-08-09T10:02:26Z</time>
      </trkpt>
      <trkpt lat="48.43313" lon="7.47876">
        <ele>172.7</ele>
        <time>2019-08-09T10:02:28Z</time>
      </trkpt>
      <trkpt lat="48.43314" lon="7.47872">
        <ele>172.7</ele>
        <time>2019-08-09T10:02:29Z</time>
      </trkpt>
      <trkpt lat="48.43315" lon="7.47867">
        <ele>172.7</ele>
        <time>2019-08-09T10:02:30Z</time>
      </trkpt>
      <trkpt lat="48.43316" lon="7.47862">
        <ele>172.7</ele>
        <time>2019-08-09T10:02:31Z</time>
      </trkpt>
      <trkpt lat="48.43316" lon="7.47853">
        <ele>172.8</ele>
        <time>2019-08-09T10:02:33Z</time>
      </trkpt>
      <trkpt lat="48.43317" lon="7.47848">
        <ele>172.8</ele>
        <time>2019-08-09T10:02:34Z</time>
      </trkpt>
      <trkpt lat="48.43317" lon="7.47842">
        <ele>172.8</ele>
        <time>2019-08-09T10:02:35Z</time>
      </trkpt>
      <trkpt lat="48.43317" lon="7.47837">
        <ele>172.8</ele>
        <time>2019-08-09T10:02:36Z</time>
      </trkpt>
      <trkpt lat="48.43317" lon="7.47831">
        <ele>172.8</ele>
        <time>2019-08-09T10:02:37Z</time>
      </trkpt>
      <trkpt lat="48.43318" lon="7.47824">
        <ele>172.8</ele>
        <time>2019-08-09T10:02:38Z</time>
      </trkpt>
      <trkpt lat="48.43318" lon="7.47818">
        <ele>172.8</ele>
        <time>2019-08-09T10:02:39Z</time>
      </trkpt>
      <trkpt lat="48.43319" lon="7.47812">
        <ele>172.7</ele>
        <time>2019-08-09T10:02:40Z</time>
      </trkpt>
      <trkpt lat="48.43319" lon="7.47806">
        <ele>172.7</ele>
        <time>2019-08-09T10:02:41Z</time>
      </trkpt>
      <trkpt lat="48.43319" lon="7.47801">
        <ele>172.7</ele>
        <time>2019-08-09T10:02:42Z</time>
      </trkpt>
      <trkpt lat="48.4332" lon="7.47796">
        <ele>172.8</ele>
        <time>2019-08-09T10:02:43Z</time>
      </trkpt>
      <trkpt lat="48.43319" lon="7.47791">
        <ele>172.8</ele>
        <time>2019-08-09T10:02:44Z</time>
      </trkpt>
      <trkpt lat="48.43319" lon="7.47786">
        <ele>172.8</ele>
        <time>2019-08-09T10:02:45Z</time>
      </trkpt>
      <trkpt lat="48.43319" lon="7.4778">
        <ele>172.9</ele>
        <time>2019-08-09T10:02:46Z</time>
      </trkpt>
      <trkpt lat="48.43318" lon="7.47776">
        <ele>172.9</ele>
        <time>2019-08-09T10:02:47Z</time>
      </trkpt>
      <trkpt lat="48.43316" lon="7.4777">
        <ele>173</ele>
        <time>2019-08-09T10:02:48Z</time>
      </trkpt>
      <trkpt lat="48.43314" lon="7.47765">
        <ele>173.1</ele>
        <time>2019-08-09T10:02:49Z</time>
      </trkpt>
      <trkpt lat="48.43313" lon="7.47759">
        <ele>173.2</ele>
        <time>2019-08-09T10:02:50Z</time>
      </trkpt>
      <trkpt lat="48.43312" lon="7.47753">
        <ele>173.3</ele>
        <time>2019-08-09T10:02:51Z</time>
      </trkpt>
      <trkpt lat="48.43311" lon="7.47748">
        <ele>173.4</ele>
        <time>2019-08-09T10:02:52Z</time>
      </trkpt>
      <trkpt lat="48.4331" lon="7.47743">
        <ele>173.5</ele>
        <time>2019-08-09T10:02:53Z</time>
      </trkpt>
      <trkpt lat="48.4331" lon="7.47738">
        <ele>173.6</ele>
        <time>2019-08-09T10:02:54Z</time>
      </trkpt>
      <trkpt lat="48.43309" lon="7.47733">
        <ele>173.7</ele>
        <time>2019-08-09T10:02:55Z</time>
      </trkpt>
      <trkpt lat="48.43307" lon="7.47726">
        <ele>173.7</ele>
        <time>2019-08-09T10:02:57Z</time>
      </trkpt>
      <trkpt lat="48.43305" lon="7.47721">
        <ele>173.7</ele>
        <time>2019-08-09T10:02:58Z</time>
      </trkpt>
      <trkpt lat="48.43305" lon="7.47716">
        <ele>173.7</ele>
        <time>2019-08-09T10:02:59Z</time>
      </trkpt>
      <trkpt lat="48.43304" lon="7.47711">
        <ele>173.7</ele>
        <time>2019-08-09T10:03:00Z</time>
      </trkpt>
      <trkpt lat="48.43303" lon="7.47705">
        <ele>173.8</ele>
        <time>2019-08-09T10:03:01Z</time>
      </trkpt>
      <trkpt lat="48.43301" lon="7.477">
        <ele>173.8</ele>
        <time>2019-08-09T10:03:02Z</time>
      </trkpt>
      <trkpt lat="48.433" lon="7.47694">
        <ele>173.8</ele>
        <time>2019-08-09T10:03:03Z</time>
      </trkpt>
      <trkpt lat="48.43299" lon="7.47689">
        <ele>173.9</ele>
        <time>2019-08-09T10:03:04Z</time>
      </trkpt>
      <trkpt lat="48.43298" lon="7.47684">
        <ele>173.9</ele>
        <time>2019-08-09T10:03:05Z</time>
      </trkpt>
      <trkpt lat="48.43297" lon="7.47678">
        <ele>174</ele>
        <time>2019-08-09T10:03:06Z</time>
      </trkpt>
      <trkpt lat="48.43296" lon="7.47674">
        <ele>174</ele>
        <time>2019-08-09T10:03:07Z</time>
      </trkpt>
      <trkpt lat="48.43295" lon="7.47669">
        <ele>174.1</ele>
        <time>2019-08-09T10:03:08Z</time>
      </trkpt>
      <trkpt lat="48.43293" lon="7.47664">
        <ele>174.1</ele>
        <time>2019-08-09T10:03:09Z</time>
      </trkpt>
      <trkpt lat="48.43292" lon="7.47659">
        <ele>174.2</ele>
        <time>2019-08-09T10:03:10Z</time>
      </trkpt>
      <trkpt lat="48.43292" lon="7.47654">
        <ele>174.2</ele>
        <time>2019-08-09T10:03:11Z</time>
      </trkpt>
      <trkpt lat="48.43291" lon="7.47649">
        <ele>174.3</ele>
        <time>2019-08-09T10:03:12Z</time>
      </trkpt>
      <trkpt lat="48.4329" lon="7.47643">
        <ele>174.4</ele>
        <time>2019-08-09T10:03:13Z</time>
      </trkpt>
      <trkpt lat="48.4329" lon="7.47639">
        <ele>174.4</ele>
        <time>2019-08-09T10:03:14Z</time>
      </trkpt>
      <trkpt lat="48.43291" lon="7.47631">
        <ele>174.6</ele>
        <time>2019-08-09T10:03:16Z</time>
      </trkpt>
      <trkpt lat="48.4329" lon="7.47626">
        <ele>174.8</ele>
        <time>2019-08-09T10:03:17Z</time>
      </trkpt>
      <trkpt lat="48.43288" lon="7.47622">
        <ele>175</ele>
        <time>2019-08-09T10:03:18Z</time>
      </trkpt>
      <trkpt lat="48.43285" lon="7.47617">
        <ele>175.2</ele>
        <time>2019-08-09T10:03:20Z</time>
      </trkpt>
      <trkpt lat="48.43282" lon="7.47612">
        <ele>175.4</ele>
        <time>2019-08-09T10:03:22Z</time>
      </trkpt>
      <trkpt lat="48.43281" lon="7.47608">
        <ele>175.5</ele>
        <time>2019-08-09T10:03:23Z</time>
      </trkpt>
      <trkpt lat="48.43281" lon="7.47604">
        <ele>175.7</ele>
        <time>2019-08-09T10:03:24Z</time>
      </trkpt>
      <trkpt lat="48.43279" lon="7.47598">
        <ele>175.9</ele>
        <time>2019-08-09T10:03:25Z</time>
      </trkpt>
      <trkpt lat="48.43277" lon="7.47593">
        <ele>176</ele>
        <time>2019-08-09T10:03:26Z</time>
      </trkpt>
      <trkpt lat="48.43276" lon="7.47588">
        <ele>176.2</ele>
        <time>2019-08-09T10:03:27Z</time>
      </trkpt>
      <trkpt lat="48.43275" lon="7.47584">
        <ele>176.4</ele>
        <time>2019-08-09T10:03:28Z</time>
      </trkpt>
      <trkpt lat="48.43274" lon="7.47579">
        <ele>176.5</ele>
        <time>2019-08-09T10:03:29Z</time>
      </trkpt>
      <trkpt lat="48.43273" lon="7.47574">
        <ele>176.7</ele>
        <time>2019-08-09T10:03:30Z</time>
      </trkpt>
      <trkpt lat="48.43272" lon="7.47569">
        <ele>176.8</ele>
        <time>2019-08-09T10:03:31Z</time>
      </trkpt>
      <trkpt lat="48.43271" lon="7.47565">
        <ele>176.9</ele>
        <time>2019-08-09T10:03:32Z</time>
      </trkpt>
      <trkpt lat="48.4327" lon="7.4756">
        <ele>177.1</ele>
        <time>2019-08-09T10:03:33Z</time>
      </trkpt>
      <trkpt lat="48.43269" lon="7.47556">
        <ele>177.2</ele>
        <time>2019-08-09T10:03:34Z</time>
      </trkpt>
      <trkpt lat="48.43268" lon="7.47551">
        <ele>177.2</ele>
        <time>2019-08-09T10:03:35Z</time>
      </trkpt>
      <trkpt lat="48.43267" lon="7.47546">
        <ele>177.3</ele>
        <time>2019-08-09T10:03:36Z</time>
      </trkpt>
      <trkpt lat="48.43264" lon="7.47539">
        <ele>177.3</ele>
        <time>2019-08-09T10:03:38Z</time>
      </trkpt>
      <trkpt lat="48.43263" lon="7.47535">
        <ele>177.3</ele>
        <time>2019-08-09T10:03:39Z</time>
      </trkpt>
      <trkpt lat="48.43262" lon="7.4753">
        <ele>177.3</ele>
        <time>2019-08-09T10:03:40Z</time>
      </trkpt>
      <trkpt lat="48.43263" lon="7.47525">
        <ele>177.3</ele>
        <time>2019-08-09T10:03:41Z</time>
      </trkpt>
      <trkpt lat="48.43262" lon="7.4752">
        <ele>177.3</ele>
        <time>2019-08-09T10:03:42Z</time>
      </trkpt>
      <trkpt lat="48.4326" lon="7.47516">
        <ele>177.3</ele>
        <time>2019-08-09T10:03:43Z</time>
      </trkpt>
      <trkpt lat="48.4326" lon="7.47512">
        <ele>177.3</ele>
        <time>2019-08-09T10:03:44Z</time>
      </trkpt>
      <trkpt lat="48.43258" lon="7.47503">
        <ele>177.5</ele>
        <time>2019-08-09T10:03:46Z</time>
      </trkpt>
      <trkpt lat="48.43258" lon="7.47498">
        <ele>177.6</ele>
        <time>2019-08-09T10:03:47Z</time>
      </trkpt>
      <trkpt lat="48.43257" lon="7.47494">
        <ele>177.8</ele>
        <time>2019-08-09T10:03:48Z</time>
      </trkpt>
      <trkpt lat="48.43256" lon="7.47486">
        <ele>178.2</ele>
        <time>2019-08-09T10:03:50Z</time>
      </trkpt>
      <trkpt lat="48.43255" lon="7.47481">
        <ele>178.5</ele>
        <time>2019-08-09T10:03:51Z</time>
      </trkpt>
      <trkpt lat="48.43254" lon="7.47477">
        <ele>178.8</ele>
        <time>2019-08-09T10:03:52Z</time>
      </trkpt>
      <trkpt lat="48.43253" lon="7.47473">
        <ele>179.1</ele>
        <time>2019-08-09T10:03:53Z</time>
      </trkpt>
      <trkpt lat="48.43253" lon="7.47468">
        <ele>179.5</ele>
        <time>2019-08-09T10:03:55Z</time>
      </trkpt>
      <trkpt lat="48.4325" lon="7.47463">
        <ele>179.8</ele>
        <time>2019-08-09T10:03:57Z</time>
      </trkpt>
      <trkpt lat="48.43247" lon="7.4746">
        <ele>180</ele>
        <time>2019-08-09T10:04:00Z</time>
      </trkpt>
      <trkpt lat="48.43243" lon="7.47461">
        <ele>180.2</ele>
        <time>2019-08-09T10:04:02Z</time>
      </trkpt>
      <trkpt lat="48.4324" lon="7.47462">
        <ele>180.3</ele>
        <time>2019-08-09T10:04:05Z</time>
      </trkpt>
      <trkpt lat="48.43236" lon="7.47465">
        <ele>180.4</ele>
        <time>2019-08-09T10:04:07Z</time>
      </trkpt>
      <trkpt lat="48.43234" lon="7.47467">
        <ele>180.5</ele>
        <time>2019-08-09T10:04:09Z</time>
      </trkpt>
      <trkpt lat="48.4323" lon="7.4747">
        <ele>180.6</ele>
        <time>2019-08-09T10:04:11Z</time>
      </trkpt>
      <trkpt lat="48.43226" lon="7.47474">
        <ele>180.7</ele>
        <time>2019-08-09T10:04:13Z</time>
      </trkpt>
      <trkpt lat="48.43223" lon="7.47476">
        <ele>180.8</ele>
        <time>2019-08-09T10:04:14Z</time>
      </trkpt>
      <trkpt lat="48.43221" lon="7.47479">
        <ele>180.8</ele>
        <time>2019-08-09T10:04:15Z</time>
      </trkpt>
      <trkpt lat="48.43218" lon="7.47482">
        <ele>180.9</ele>
        <time>2019-08-09T10:04:16Z</time>
      </trkpt>
      <trkpt lat="48.43215" lon="7.47484">
        <ele>180.9</ele>
        <time>2019-08-09T10:04:17Z</time>
      </trkpt>
      <trkpt lat="48.43213" lon="7.47486">
        <ele>180.9</ele>
        <time>2019-08-09T10:04:18Z</time>
      </trkpt>
      <trkpt lat="48.43209" lon="7.47488">
        <ele>180.9</ele>
        <time>2019-08-09T10:04:19Z</time>
      </trkpt>
      <trkpt lat="48.43207" lon="7.47489">
        <ele>180.9</ele>
        <time>2019-08-09T10:04:20Z</time>
      </trkpt>
      <trkpt lat="48.43203" lon="7.47491">
        <ele>180.9</ele>
        <time>2019-08-09T10:04:21Z</time>
      </trkpt>
      <trkpt lat="48.432" lon="7.47493">
        <ele>180.9</ele>
        <time>2019-08-09T10:04:22Z</time>
      </trkpt>
      <trkpt lat="48.43197" lon="7.47496">
        <ele>180.7</ele>
        <time>2019-08-09T10:04:23Z</time>
      </trkpt>
      <trkpt lat="48.43194" lon="7.47497">
        <ele>180.6</ele>
        <time>2019-08-09T10:04:24Z</time>
      </trkpt>
      <trkpt lat="48.43191" lon="7.47502">
        <ele>180.5</ele>
        <time>2019-08-09T10:04:26Z</time>
      </trkpt>
      <trkpt lat="48.43188" lon="7.47504">
        <ele>180.5</ele>
        <time>2019-08-09T10:04:27Z</time>
      </trkpt>
      <trkpt lat="48.43185" lon="7.47507">
        <ele>180.4</ele>
        <time>2019-08-09T10:04:28Z</time>
      </trkpt>
      <trkpt lat="48.43182" lon="7.4751">
        <ele>180.4</ele>
        <time>2019-08-09T10:04:29Z</time>
      </trkpt>
      <trkpt lat="48.43177" lon="7.47512">
        <ele>180.3</ele>
        <time>2019-08-09T10:04:31Z</time>
      </trkpt>
      <trkpt lat="48.43174" lon="7.47514">
        <ele>180.3</ele>
        <time>2019-08-09T10:04:32Z</time>
      </trkpt>
      <trkpt lat="48.43171" lon="7.47516">
        <ele>180.2</ele>
        <time>2019-08-09T10:04:33Z</time>
      </trkpt>
      <trkpt lat="48.43168" lon="7.47519">
        <ele>180.2</ele>
        <time>2019-08-09T10:04:34Z</time>
      </trkpt>
      <trkpt lat="48.43165" lon="7.47522">
        <ele>180.2</ele>
        <time>2019-08-09T10:04:35Z</time>
      </trkpt>
      <trkpt lat="48.43162" lon="7.47523">
        <ele>180.2</ele>
        <time>2019-08-09T10:04:36Z</time>
      </trkpt>
      <trkpt lat="48.43159" lon="7.47524">
        <ele>180.2</ele>
        <time>2019-08-09T10:04:37Z</time>
      </trkpt>
      <trkpt lat="48.43156" lon="7.47527">
        <ele>180.2</ele>
        <time>2019-08-09T10:04:38Z</time>
      </trkpt>
      <trkpt lat="48.43152" lon="7.47529">
        <ele>180.2</ele>
        <time>2019-08-09T10:04:39Z</time>
      </trkpt>
      <trkpt lat="48.43149" lon="7.47532">
        <ele>180.2</ele>
        <time>2019-08-09T10:04:40Z</time>
      </trkpt>
      <trkpt lat="48.43146" lon="7.47534">
        <ele>180.2</ele>
        <time>2019-08-09T10:04:41Z</time>
      </trkpt>
      <trkpt lat="48.43143" lon="7.47536">
        <ele>180.3</ele>
        <time>2019-08-09T10:04:42Z</time>
      </trkpt>
      <trkpt lat="48.43139" lon="7.47537">
        <ele>180.3</ele>
        <time>2019-08-09T10:04:43Z</time>
      </trkpt>
      <trkpt lat="48.43136" lon="7.47538">
        <ele>180.3</ele>
        <time>2019-08-09T10:04:44Z</time>
      </trkpt>
      <trkpt lat="48.43132" lon="7.4754">
        <ele>180.3</ele>
        <time>2019-08-09T10:04:45Z</time>
      </trkpt>
      <trkpt lat="48.43129" lon="7.4754">
        <ele>180.3</ele>
        <time>2019-08-09T10:04:46Z</time>
      </trkpt>
      <trkpt lat="48.43125" lon="7.47541">
        <ele>180.3</ele>
        <time>2019-08-09T10:04:47Z</time>
      </trkpt>
      <trkpt lat="48.43122" lon="7.47542">
        <ele>180.3</ele>
        <time>2019-08-09T10:04:48Z</time>
      </trkpt>
      <trkpt lat="48.43119" lon="7.47543">
        <ele>180.3</ele>
        <time>2019-08-09T10:04:49Z</time>
      </trkpt>
      <trkpt lat="48.43115" lon="7.47544">
        <ele>180.2</ele>
        <time>2019-08-09T10:04:50Z</time>
      </trkpt>
      <trkpt lat="48.43112" lon="7.47546">
        <ele>180.1</ele>
        <time>2019-08-09T10:04:51Z</time>
      </trkpt>
      <trkpt lat="48.43109" lon="7.47548">
        <ele>180</ele>
        <time>2019-08-09T10:04:52Z</time>
      </trkpt>
      <trkpt lat="48.43106" lon="7.47548">
        <ele>179.9</ele>
        <time>2019-08-09T10:04:53Z</time>
      </trkpt>
      <trkpt lat="48.43103" lon="7.47549">
        <ele>179.8</ele>
        <time>2019-08-09T10:04:54Z</time>
      </trkpt>
      <trkpt lat="48.43099" lon="7.4755">
        <ele>179.7</ele>
        <time>2019-08-09T10:04:55Z</time>
      </trkpt>
      <trkpt lat="48.43095" lon="7.47552">
        <ele>179.6</ele>
        <time>2019-08-09T10:04:56Z</time>
      </trkpt>
      <trkpt lat="48.43092" lon="7.47552">
        <ele>179.5</ele>
        <time>2019-08-09T10:04:57Z</time>
      </trkpt>
      <trkpt lat="48.43087" lon="7.47552">
        <ele>179.5</ele>
        <time>2019-08-09T10:04:58Z</time>
      </trkpt>
      <trkpt lat="48.43083" lon="7.47552">
        <ele>179.5</ele>
        <time>2019-08-09T10:04:59Z</time>
      </trkpt>
      <trkpt lat="48.43078" lon="7.47551">
        <ele>179.5</ele>
        <time>2019-08-09T10:05:00Z</time>
      </trkpt>
      <trkpt lat="48.43074" lon="7.4755">
        <ele>179.5</ele>
        <time>2019-08-09T10:05:01Z</time>
      </trkpt>
      <trkpt lat="48.4307" lon="7.4755">
        <ele>179.5</ele>
        <time>2019-08-09T10:05:02Z</time>
      </trkpt>
      <trkpt lat="48.43066" lon="7.4755">
        <ele>179.5</ele>
        <time>2019-08-09T10:05:03Z</time>
      </trkpt>
      <trkpt lat="48.43063" lon="7.4755">
        <ele>179.5</ele>
        <time>2019-08-09T10:05:04Z</time>
      </trkpt>
      <trkpt lat="48.43059" lon="7.47551">
        <ele>179.5</ele>
        <time>2019-08-09T10:05:05Z</time>
      </trkpt>
      <trkpt lat="48.43056" lon="7.47551">
        <ele>179.5</ele>
        <time>2019-08-09T10:05:06Z</time>
      </trkpt>
      <trkpt lat="48.43052" lon="7.47551">
        <ele>179.4</ele>
        <time>2019-08-09T10:05:07Z</time>
      </trkpt>
      <trkpt lat="48.43049" lon="7.47552">
        <ele>179.4</ele>
        <time>2019-08-09T10:05:08Z</time>
      </trkpt>
      <trkpt lat="48.43047" lon="7.47552">
        <ele>179.4</ele>
        <time>2019-08-09T10:05:09Z</time>
      </trkpt>
      <trkpt lat="48.43043" lon="7.47553">
        <ele>179.4</ele>
        <time>2019-08-09T10:05:10Z</time>
      </trkpt>
      <trkpt lat="48.43039" lon="7.47552">
        <ele>179.4</ele>
        <time>2019-08-09T10:05:11Z</time>
      </trkpt>
      <trkpt lat="48.43036" lon="7.47553">
        <ele>179.4</ele>
        <time>2019-08-09T10:05:12Z</time>
      </trkpt>
      <trkpt lat="48.43033" lon="7.47554">
        <ele>179.4</ele>
        <time>2019-08-09T10:05:13Z</time>
      </trkpt>
      <trkpt lat="48.4303" lon="7.47555">
        <ele>179.4</ele>
        <time>2019-08-09T10:05:14Z</time>
      </trkpt>
      <trkpt lat="48.43026" lon="7.47556">
        <ele>179.3</ele>
        <time>2019-08-09T10:05:15Z</time>
      </trkpt>
      <trkpt lat="48.43023" lon="7.47556">
        <ele>179.3</ele>
        <time>2019-08-09T10:05:16Z</time>
      </trkpt>
      <trkpt lat="48.4302" lon="7.47556">
        <ele>179.2</ele>
        <time>2019-08-09T10:05:17Z</time>
      </trkpt>
      <trkpt lat="48.43017" lon="7.47556">
        <ele>179.2</ele>
        <time>2019-08-09T10:05:18Z</time>
      </trkpt>
      <trkpt lat="48.43013" lon="7.47557">
        <ele>179.1</ele>
        <time>2019-08-09T10:05:19Z</time>
      </trkpt>
      <trkpt lat="48.43009" lon="7.47557">
        <ele>179</ele>
        <time>2019-08-09T10:05:20Z</time>
      </trkpt>
      <trkpt lat="48.43006" lon="7.47558">
        <ele>179</ele>
        <time>2019-08-09T10:05:21Z</time>
      </trkpt>
      <trkpt lat="48.43002" lon="7.47558">
        <ele>179</ele>
        <time>2019-08-09T10:05:22Z</time>
      </trkpt>
      <trkpt lat="48.42999" lon="7.47558">
        <ele>179</ele>
        <time>2019-08-09T10:05:23Z</time>
      </trkpt>
      <trkpt lat="48.42995" lon="7.47558">
        <ele>179</ele>
        <time>2019-08-09T10:05:24Z</time>
      </trkpt>
      <trkpt lat="48.42991" lon="7.4756">
        <ele>179</ele>
        <time>2019-08-09T10:05:25Z</time>
      </trkpt>
      <trkpt lat="48.42986" lon="7.47561">
        <ele>179</ele>
        <time>2019-08-09T10:05:26Z</time>
      </trkpt>
      <trkpt lat="48.42984" lon="7.47561">
        <ele>179</ele>
        <time>2019-08-09T10:05:27Z</time>
      </trkpt>
      <trkpt lat="48.4298" lon="7.47561">
        <ele>179</ele>
        <time>2019-08-09T10:05:28Z</time>
      </trkpt>
      <trkpt lat="48.42977" lon="7.47561">
        <ele>179</ele>
        <time>2019-08-09T10:05:29Z</time>
      </trkpt>
      <trkpt lat="48.42974" lon="7.47562">
        <ele>179</ele>
        <time>2019-08-09T10:05:30Z</time>
      </trkpt>
      <trkpt lat="48.4297" lon="7.47562">
        <ele>178.9</ele>
        <time>2019-08-09T10:05:31Z</time>
      </trkpt>
      <trkpt lat="48.42966" lon="7.47562">
        <ele>178.9</ele>
        <time>2019-08-09T10:05:32Z</time>
      </trkpt>
      <trkpt lat="48.42962" lon="7.47562">
        <ele>178.9</ele>
        <time>2019-08-09T10:05:33Z</time>
      </trkpt>
      <trkpt lat="48.42959" lon="7.47563">
        <ele>178.9</ele>
        <time>2019-08-09T10:05:34Z</time>
      </trkpt>
      <trkpt lat="48.42955" lon="7.47564">
        <ele>178.9</ele>
        <time>2019-08-09T10:05:35Z</time>
      </trkpt>
      <trkpt lat="48.42952" lon="7.47564">
        <ele>178.8</ele>
        <time>2019-08-09T10:05:36Z</time>
      </trkpt>
      <trkpt lat="48.42948" lon="7.47564">
        <ele>178.8</ele>
        <time>2019-08-09T10:05:37Z</time>
      </trkpt>
      <trkpt lat="48.42944" lon="7.47564">
        <ele>178.8</ele>
        <time>2019-08-09T10:05:38Z</time>
      </trkpt>
      <trkpt lat="48.4294" lon="7.47564">
        <ele>178.8</ele>
        <time>2019-08-09T10:05:39Z</time>
      </trkpt>
      <trkpt lat="48.42936" lon="7.47565">
        <ele>178.8</ele>
        <time>2019-08-09T10:05:40Z</time>
      </trkpt>
      <trkpt lat="48.42932" lon="7.47566">
        <ele>178.8</ele>
        <time>2019-08-09T10:05:41Z</time>
      </trkpt>
      <trkpt lat="48.42928" lon="7.47566">
        <ele>178.8</ele>
        <time>2019-08-09T10:05:42Z</time>
      </trkpt>
      <trkpt lat="48.42925" lon="7.47568">
        <ele>178.8</ele>
        <time>2019-08-09T10:05:43Z</time>
      </trkpt>
      <trkpt lat="48.4292" lon="7.4757">
        <ele>178.7</ele>
        <time>2019-08-09T10:05:44Z</time>
      </trkpt>
      <trkpt lat="48.42916" lon="7.47571">
        <ele>178.7</ele>
        <time>2019-08-09T10:05:45Z</time>
      </trkpt>
      <trkpt lat="48.42912" lon="7.47572">
        <ele>178.7</ele>
        <time>2019-08-09T10:05:46Z</time>
      </trkpt>
      <trkpt lat="48.42909" lon="7.47572">
        <ele>178.7</ele>
        <time>2019-08-09T10:05:47Z</time>
      </trkpt>
      <trkpt lat="48.42905" lon="7.47573">
        <ele>178.7</ele>
        <time>2019-08-09T10:05:48Z</time>
      </trkpt>
      <trkpt lat="48.42901" lon="7.47573">
        <ele>178.7</ele>
        <time>2019-08-09T10:05:49Z</time>
      </trkpt>
      <trkpt lat="48.42897" lon="7.47574">
        <ele>178.6</ele>
        <time>2019-08-09T10:05:50Z</time>
      </trkpt>
      <trkpt lat="48.42892" lon="7.47574">
        <ele>178.6</ele>
        <time>2019-08-09T10:05:51Z</time>
      </trkpt>
      <trkpt lat="48.42888" lon="7.47575">
        <ele>178.6</ele>
        <time>2019-08-09T10:05:52Z</time>
      </trkpt>
      <trkpt lat="48.42884" lon="7.47576">
        <ele>178.6</ele>
        <time>2019-08-09T10:05:53Z</time>
      </trkpt>
      <trkpt lat="48.42881" lon="7.47577">
        <ele>178.6</ele>
        <time>2019-08-09T10:05:54Z</time>
      </trkpt>
      <trkpt lat="48.42877" lon="7.47578">
        <ele>178.6</ele>
        <time>2019-08-09T10:05:55Z</time>
      </trkpt>
      <trkpt lat="48.42874" lon="7.47579">
        <ele>178.6</ele>
        <time>2019-08-09T10:05:56Z</time>
      </trkpt>
      <trkpt lat="48.4287" lon="7.47579">
        <ele>178.6</ele>
        <time>2019-08-09T10:05:57Z</time>
      </trkpt>
      <trkpt lat="48.42866" lon="7.4758">
        <ele>178.6</ele>
        <time>2019-08-09T10:05:58Z</time>
      </trkpt>
      <trkpt lat="48.42862" lon="7.47581">
        <ele>178.5</ele>
        <time>2019-08-09T10:05:59Z</time>
      </trkpt>
      <trkpt lat="48.42858" lon="7.47581">
        <ele>178.5</ele>
        <time>2019-08-09T10:06:00Z</time>
      </trkpt>
      <trkpt lat="48.42853" lon="7.47581">
        <ele>178.5</ele>
        <time>2019-08-09T10:06:01Z</time>
      </trkpt>
      <trkpt lat="48.42849" lon="7.47581">
        <ele>178.5</ele>
        <time>2019-08-09T10:06:02Z</time>
      </trkpt>
      <trkpt lat="48.42844" lon="7.4758">
        <ele>178.5</ele>
        <time>2019-08-09T10:06:03Z</time>
      </trkpt>
      <trkpt lat="48.4284" lon="7.4758">
        <ele>178.5</ele>
        <time>2019-08-09T10:06:04Z</time>
      </trkpt>
      <trkpt lat="48.42836" lon="7.4758">
        <ele>178.5</ele>
        <time>2019-08-09T10:06:05Z</time>
      </trkpt>
      <trkpt lat="48.42832" lon="7.4758">
        <ele>178.5</ele>
        <time>2019-08-09T10:06:06Z</time>
      </trkpt>
      <trkpt lat="48.42829" lon="7.47579">
        <ele>178.5</ele>
        <time>2019-08-09T10:06:07Z</time>
      </trkpt>
      <trkpt lat="48.42825" lon="7.47578">
        <ele>178.5</ele>
        <time>2019-08-09T10:06:08Z</time>
      </trkpt>
      <trkpt lat="48.42821" lon="7.47578">
        <ele>178.5</ele>
        <time>2019-08-09T10:06:09Z</time>
      </trkpt>
      <trkpt lat="48.42817" lon="7.47578">
        <ele>178.6</ele>
        <time>2019-08-09T10:06:10Z</time>
      </trkpt>
      <trkpt lat="48.42813" lon="7.47578">
        <ele>178.6</ele>
        <time>2019-08-09T10:06:11Z</time>
      </trkpt>
      <trkpt lat="48.42809" lon="7.47579">
        <ele>178.6</ele>
        <time>2019-08-09T10:06:12Z</time>
      </trkpt>
      <trkpt lat="48.42805" lon="7.4758">
        <ele>178.6</ele>
        <time>2019-08-09T10:06:13Z</time>
      </trkpt>
      <trkpt lat="48.42801" lon="7.4758">
        <ele>178.6</ele>
        <time>2019-08-09T10:06:14Z</time>
      </trkpt>
      <trkpt lat="48.42797" lon="7.47581">
        <ele>178.7</ele>
        <time>2019-08-09T10:06:15Z</time>
      </trkpt>
      <trkpt lat="48.42792" lon="7.47581">
        <ele>178.7</ele>
        <time>2019-08-09T10:06:16Z</time>
      </trkpt>
      <trkpt lat="48.42788" lon="7.47582">
        <ele>178.7</ele>
        <time>2019-08-09T10:06:17Z</time>
      </trkpt>
      <trkpt lat="48.42784" lon="7.47583">
        <ele>178.8</ele>
        <time>2019-08-09T10:06:18Z</time>
      </trkpt>
      <trkpt lat="48.4278" lon="7.47584">
        <ele>178.8</ele>
        <time>2019-08-09T10:06:19Z</time>
      </trkpt>
      <trkpt lat="48.42776" lon="7.47583">
        <ele>178.9</ele>
        <time>2019-08-09T10:06:20Z</time>
      </trkpt>
      <trkpt lat="48.42772" lon="7.47584">
        <ele>178.9</ele>
        <time>2019-08-09T10:06:21Z</time>
      </trkpt>
      <trkpt lat="48.42768" lon="7.47585">
        <ele>179</ele>
        <time>2019-08-09T10:06:22Z</time>
      </trkpt>
      <trkpt lat="48.42764" lon="7.47585">
        <ele>179</ele>
        <time>2019-08-09T10:06:23Z</time>
      </trkpt>
      <trkpt lat="48.4276" lon="7.47585">
        <ele>179</ele>
        <time>2019-08-09T10:06:24Z</time>
      </trkpt>
      <trkpt lat="48.42755" lon="7.47586">
        <ele>179.1</ele>
        <time>2019-08-09T10:06:25Z</time>
      </trkpt>
      <trkpt lat="48.4275" lon="7.47586">
        <ele>179.1</ele>
        <time>2019-08-09T10:06:26Z</time>
      </trkpt>
      <trkpt lat="48.42746" lon="7.47587">
        <ele>179.1</ele>
        <time>2019-08-09T10:06:27Z</time>
      </trkpt>
      <trkpt lat="48.42741" lon="7.47588">
        <ele>179.1</ele>
        <time>2019-08-09T10:06:28Z</time>
      </trkpt>
      <trkpt lat="48.42736" lon="7.47587">
        <ele>179.2</ele>
        <time>2019-08-09T10:06:29Z</time>
      </trkpt>
      <trkpt lat="48.42732" lon="7.47586">
        <ele>179.2</ele>
        <time>2019-08-09T10:06:30Z</time>
      </trkpt>
      <trkpt lat="48.42728" lon="7.47585">
        <ele>179.2</ele>
        <time>2019-08-09T10:06:31Z</time>
      </trkpt>
      <trkpt lat="48.42724" lon="7.47583">
        <ele>179.3</ele>
        <time>2019-08-09T10:06:32Z</time>
      </trkpt>
      <trkpt lat="48.4272" lon="7.47583">
        <ele>179.3</ele>
        <time>2019-08-09T10:06:33Z</time>
      </trkpt>
      <trkpt lat="48.42716" lon="7.47581">
        <ele>179.4</ele>
        <time>2019-08-09T10:06:34Z</time>
      </trkpt>
      <trkpt lat="48.42713" lon="7.47579">
        <ele>179.4</ele>
        <time>2019-08-09T10:06:35Z</time>
      </trkpt>
      <trkpt lat="48.42709" lon="7.47577">
        <ele>179.4</ele>
        <time>2019-08-09T10:06:36Z</time>
      </trkpt>
      <trkpt lat="48.42705" lon="7.47575">
        <ele>179.4</ele>
        <time>2019-08-09T10:06:37Z</time>
      </trkpt>
      <trkpt lat="48.427" lon="7.47575">
        <ele>179.5</ele>
        <time>2019-08-09T10:06:38Z</time>
      </trkpt>
      <trkpt lat="48.42696" lon="7.47574">
        <ele>179.5</ele>
        <time>2019-08-09T10:06:39Z</time>
      </trkpt>
      <trkpt lat="48.42692" lon="7.47572">
        <ele>179.5</ele>
        <time>2019-08-09T10:06:40Z</time>
      </trkpt>
      <trkpt lat="48.42688" lon="7.47572">
        <ele>179.6</ele>
        <time>2019-08-09T10:06:41Z</time>
      </trkpt>
      <trkpt lat="48.42684" lon="7.47571">
        <ele>179.7</ele>
        <time>2019-08-09T10:06:42Z</time>
      </trkpt>
      <trkpt lat="48.42681" lon="7.47571">
        <ele>179.7</ele>
        <time>2019-08-09T10:06:43Z</time>
      </trkpt>
      <trkpt lat="48.42677" lon="7.4757">
        <ele>179.8</ele>
        <time>2019-08-09T10:06:44Z</time>
      </trkpt>
      <trkpt lat="48.42674" lon="7.4757">
        <ele>179.9</ele>
        <time>2019-08-09T10:06:45Z</time>
      </trkpt>
      <trkpt lat="48.42671" lon="7.4757">
        <ele>180</ele>
        <time>2019-08-09T10:06:46Z</time>
      </trkpt>
      <trkpt lat="48.42667" lon="7.4757">
        <ele>180.1</ele>
        <time>2019-08-09T10:06:47Z</time>
      </trkpt>
      <trkpt lat="48.42663" lon="7.4757">
        <ele>180.3</ele>
        <time>2019-08-09T10:06:48Z</time>
      </trkpt>
      <trkpt lat="48.4266" lon="7.47571">
        <ele>180.4</ele>
        <time>2019-08-09T10:06:49Z</time>
      </trkpt>
      <trkpt lat="48.42656" lon="7.47572">
        <ele>180.5</ele>
        <time>2019-08-09T10:06:50Z</time>
      </trkpt>
      <trkpt lat="48.42652" lon="7.47573">
        <ele>180.6</ele>
        <time>2019-08-09T10:06:51Z</time>
      </trkpt>
      <trkpt lat="48.42649" lon="7.47573">
        <ele>180.7</ele>
        <time>2019-08-09T10:06:52Z</time>
      </trkpt>
      <trkpt lat="48.42645" lon="7.47573">
        <ele>180.7</ele>
        <time>2019-08-09T10:06:53Z</time>
      </trkpt>
      <trkpt lat="48.42641" lon="7.47573">
        <ele>180.8</ele>
        <time>2019-08-09T10:06:54Z</time>
      </trkpt>
      <trkpt lat="48.42638" lon="7.47574">
        <ele>180.8</ele>
        <time>2019-08-09T10:06:55Z</time>
      </trkpt>
      <trkpt lat="48.42634" lon="7.47574">
        <ele>180.8</ele>
        <time>2019-08-09T10:06:56Z</time>
      </trkpt>
      <trkpt lat="48.42631" lon="7.47574">
        <ele>180.8</ele>
        <time>2019-08-09T10:06:57Z</time>
      </trkpt>
      <trkpt lat="48.42628" lon="7.47574">
        <ele>180.8</ele>
        <time>2019-08-09T10:06:58Z</time>
      </trkpt>
      <trkpt lat="48.42625" lon="7.47575">
        <ele>180.8</ele>
        <time>2019-08-09T10:06:59Z</time>
      </trkpt>
      <trkpt lat="48.42621" lon="7.47577">
        <ele>180.8</ele>
        <time>2019-08-09T10:07:00Z</time>
      </trkpt>
      <trkpt lat="48.42618" lon="7.47581">
        <ele>180.8</ele>
        <time>2019-08-09T10:07:01Z</time>
      </trkpt>
      <trkpt lat="48.42617" lon="7.47586">
        <ele>180.8</ele>
        <time>2019-08-09T10:07:02Z</time>
      </trkpt>
      <trkpt lat="48.42616" lon="7.47591">
        <ele>180.8</ele>
        <time>2019-08-09T10:07:03Z</time>
      </trkpt>
      <trkpt lat="48.42615" lon="7.47597">
        <ele>180.7</ele>
        <time>2019-08-09T10:07:04Z</time>
      </trkpt>
      <trkpt lat="48.42614" lon="7.47603">
        <ele>180.7</ele>
        <time>2019-08-09T10:07:05Z</time>
      </trkpt>
      <trkpt lat="48.42613" lon="7.47609">
        <ele>180.6</ele>
        <time>2019-08-09T10:07:06Z</time>
      </trkpt>
      <trkpt lat="48.42612" lon="7.47615">
        <ele>180.6</ele>
        <time>2019-08-09T10:07:07Z</time>
      </trkpt>
      <trkpt lat="48.4261" lon="7.47621">
        <ele>180.5</ele>
        <time>2019-08-09T10:07:08Z</time>
      </trkpt>
      <trkpt lat="48.42609" lon="7.47626">
        <ele>180.5</ele>
        <time>2019-08-09T10:07:09Z</time>
      </trkpt>
      <trkpt lat="48.42607" lon="7.47632">
        <ele>180.4</ele>
        <time>2019-08-09T10:07:10Z</time>
      </trkpt>
      <trkpt lat="48.42603" lon="7.47635">
        <ele>180.3</ele>
        <time>2019-08-09T10:07:11Z</time>
      </trkpt>
      <trkpt lat="48.42599" lon="7.47636">
        <ele>180.2</ele>
        <time>2019-08-09T10:07:12Z</time>
      </trkpt>
      <trkpt lat="48.42594" lon="7.47636">
        <ele>180.2</ele>
        <time>2019-08-09T10:07:13Z</time>
      </trkpt>
      <trkpt lat="48.4259" lon="7.47637">
        <ele>180.1</ele>
        <time>2019-08-09T10:07:14Z</time>
      </trkpt>
      <trkpt lat="48.42586" lon="7.47637">
        <ele>180.1</ele>
        <time>2019-08-09T10:07:15Z</time>
      </trkpt>
      <trkpt lat="48.42582" lon="7.47637">
        <ele>180</ele>
        <time>2019-08-09T10:07:16Z</time>
      </trkpt>
      <trkpt lat="48.42577" lon="7.47636">
        <ele>179.9</ele>
        <time>2019-08-09T10:07:17Z</time>
      </trkpt>
      <trkpt lat="48.42572" lon="7.47635">
        <ele>179.9</ele>
        <time>2019-08-09T10:07:18Z</time>
      </trkpt>
      <trkpt lat="48.42567" lon="7.47635">
        <ele>179.9</ele>
        <time>2019-08-09T10:07:19Z</time>
      </trkpt>
      <trkpt lat="48.42563" lon="7.47633">
        <ele>179.8</ele>
        <time>2019-08-09T10:07:20Z</time>
      </trkpt>
      <trkpt lat="48.42558" lon="7.47632">
        <ele>179.8</ele>
        <time>2019-08-09T10:07:21Z</time>
      </trkpt>
      <trkpt lat="48.42553" lon="7.47632">
        <ele>179.8</ele>
        <time>2019-08-09T10:07:22Z</time>
      </trkpt>
      <trkpt lat="48.42548" lon="7.47632">
        <ele>179.8</ele>
        <time>2019-08-09T10:07:23Z</time>
      </trkpt>
      <trkpt lat="48.42543" lon="7.47631">
        <ele>179.8</ele>
        <time>2019-08-09T10:07:24Z</time>
      </trkpt>
      <trkpt lat="48.42538" lon="7.4763">
        <ele>179.8</ele>
        <time>2019-08-09T10:07:25Z</time>
      </trkpt>
      <trkpt lat="48.42533" lon="7.47629">
        <ele>179.8</ele>
        <time>2019-08-09T10:07:26Z</time>
      </trkpt>
      <trkpt lat="48.42529" lon="7.47629">
        <ele>179.8</ele>
        <time>2019-08-09T10:07:27Z</time>
      </trkpt>
      <trkpt lat="48.42525" lon="7.47629">
        <ele>179.8</ele>
        <time>2019-08-09T10:07:28Z</time>
      </trkpt>
      <trkpt lat="48.42521" lon="7.47628">
        <ele>179.8</ele>
        <time>2019-08-09T10:07:29Z</time>
      </trkpt>
      <trkpt lat="48.42517" lon="7.47628">
        <ele>179.8</ele>
        <time>2019-08-09T10:07:30Z</time>
      </trkpt>
      <trkpt lat="48.42513" lon="7.47628">
        <ele>179.8</ele>
        <time>2019-08-09T10:07:31Z</time>
      </trkpt>
      <trkpt lat="48.42509" lon="7.47626">
        <ele>179.9</ele>
        <time>2019-08-09T10:07:32Z</time>
      </trkpt>
      <trkpt lat="48.42505" lon="7.47624">
        <ele>179.9</ele>
        <time>2019-08-09T10:07:33Z</time>
      </trkpt>
      <trkpt lat="48.42501" lon="7.47622">
        <ele>179.9</ele>
        <time>2019-08-09T10:07:34Z</time>
      </trkpt>
      <trkpt lat="48.42498" lon="7.47621">
        <ele>179.9</ele>
        <time>2019-08-09T10:07:35Z</time>
      </trkpt>
      <trkpt lat="48.42494" lon="7.47619">
        <ele>179.9</ele>
        <time>2019-08-09T10:07:36Z</time>
      </trkpt>
      <trkpt lat="48.42491" lon="7.47618">
        <ele>179.9</ele>
        <time>2019-08-09T10:07:37Z</time>
      </trkpt>
      <trkpt lat="48.42488" lon="7.47618">
        <ele>179.8</ele>
        <time>2019-08-09T10:07:38Z</time>
      </trkpt>
      <trkpt lat="48.42484" lon="7.47617">
        <ele>179.8</ele>
        <time>2019-08-09T10:07:39Z</time>
      </trkpt>
      <trkpt lat="48.42482" lon="7.47616">
        <ele>179.8</ele>
        <time>2019-08-09T10:07:40Z</time>
      </trkpt>
      <trkpt lat="48.42478" lon="7.47615">
        <ele>179.8</ele>
        <time>2019-08-09T10:07:41Z</time>
      </trkpt>
      <trkpt lat="48.42474" lon="7.47615">
        <ele>179.8</ele>
        <time>2019-08-09T10:07:42Z</time>
      </trkpt>
      <trkpt lat="48.4247" lon="7.47612">
        <ele>179.8</ele>
        <time>2019-08-09T10:07:43Z</time>
      </trkpt>
      <trkpt lat="48.42467" lon="7.47611">
        <ele>179.7</ele>
        <time>2019-08-09T10:07:44Z</time>
      </trkpt>
      <trkpt lat="48.42464" lon="7.47609">
        <ele>179.7</ele>
        <time>2019-08-09T10:07:45Z</time>
      </trkpt>
      <trkpt lat="48.4246" lon="7.47607">
        <ele>179.7</ele>
        <time>2019-08-09T10:07:47Z</time>
      </trkpt>
      <trkpt lat="48.42458" lon="7.47605">
        <ele>179.6</ele>
        <time>2019-08-09T10:07:49Z</time>
      </trkpt>
      <trkpt lat="48.42454" lon="7.47605">
        <ele>179.6</ele>
        <time>2019-08-09T10:07:52Z</time>
      </trkpt>
      <trkpt lat="48.42451" lon="7.47605">
        <ele>179.6</ele>
        <time>2019-08-09T10:07:55Z</time>
      </trkpt>
      <trkpt lat="48.42448" lon="7.47606">
        <ele>179.6</ele>
        <time>2019-08-09T10:08:03Z</time>
      </trkpt>
      <trkpt lat="48.42444" lon="7.47607">
        <ele>179.6</ele>
        <time>2019-08-09T10:08:05Z</time>
      </trkpt>
      <trkpt lat="48.4244" lon="7.47608">
        <ele>179.7</ele>
        <time>2019-08-09T10:08:07Z</time>
      </trkpt>
      <trkpt lat="48.42435" lon="7.47605">
        <ele>179.8</ele>
        <time>2019-08-09T10:08:09Z</time>
      </trkpt>
      <trkpt lat="48.42432" lon="7.47603">
        <ele>179.8</ele>
        <time>2019-08-09T10:08:10Z</time>
      </trkpt>
      <trkpt lat="48.42428" lon="7.47601">
        <ele>179.9</ele>
        <time>2019-08-09T10:08:11Z</time>
      </trkpt>
      <trkpt lat="48.42424" lon="7.476">
        <ele>179.9</ele>
        <time>2019-08-09T10:08:12Z</time>
      </trkpt>
      <trkpt lat="48.42421" lon="7.47599">
        <ele>180</ele>
        <time>2019-08-09T10:08:13Z</time>
      </trkpt>
      <trkpt lat="48.42416" lon="7.47598">
        <ele>180.1</ele>
        <time>2019-08-09T10:08:14Z</time>
      </trkpt>
      <trkpt lat="48.42412" lon="7.47596">
        <ele>180.2</ele>
        <time>2019-08-09T10:08:15Z</time>
      </trkpt>
      <trkpt lat="48.42408" lon="7.47594">
        <ele>180.2</ele>
        <time>2019-08-09T10:08:16Z</time>
      </trkpt>
      <trkpt lat="48.42404" lon="7.47592">
        <ele>180.3</ele>
        <time>2019-08-09T10:08:17Z</time>
      </trkpt>
      <trkpt lat="48.424" lon="7.47591">
        <ele>180.4</ele>
        <time>2019-08-09T10:08:18Z</time>
      </trkpt>
      <trkpt lat="48.42396" lon="7.4759">
        <ele>180.5</ele>
        <time>2019-08-09T10:08:19Z</time>
      </trkpt>
      <trkpt lat="48.42392" lon="7.47588">
        <ele>180.5</ele>
        <time>2019-08-09T10:08:20Z</time>
      </trkpt>
      <trkpt lat="48.42389" lon="7.47587">
        <ele>180.6</ele>
        <time>2019-08-09T10:08:21Z</time>
      </trkpt>
      <trkpt lat="48.42386" lon="7.47584">
        <ele>180.6</ele>
        <time>2019-08-09T10:08:22Z</time>
      </trkpt>
      <trkpt lat="48.42382" lon="7.4758">
        <ele>180.7</ele>
        <time>2019-08-09T10:08:23Z</time>
      </trkpt>
      <trkpt lat="48.4238" lon="7.47576">
        <ele>180.7</ele>
        <time>2019-08-09T10:08:24Z</time>
      </trkpt>
      <trkpt lat="48.42379" lon="7.47571">
        <ele>180.8</ele>
        <time>2019-08-09T10:08:25Z</time>
      </trkpt>
      <trkpt lat="48.42377" lon="7.47567">
        <ele>180.8</ele>
        <time>2019-08-09T10:08:26Z</time>
      </trkpt>
      <trkpt lat="48.42376" lon="7.47562">
        <ele>180.9</ele>
        <time>2019-08-09T10:08:27Z</time>
      </trkpt>
      <trkpt lat="48.42374" lon="7.47558">
        <ele>180.9</ele>
        <time>2019-08-09T10:08:28Z</time>
      </trkpt>
      <trkpt lat="48.42371" lon="7.47553">
        <ele>180.9</ele>
        <time>2019-08-09T10:08:29Z</time>
      </trkpt>
      <trkpt lat="48.42369" lon="7.47549">
        <ele>181</ele>
        <time>2019-08-09T10:08:30Z</time>
      </trkpt>
      <trkpt lat="48.42366" lon="7.47544">
        <ele>181</ele>
        <time>2019-08-09T10:08:31Z</time>
      </trkpt>
      <trkpt lat="48.42364" lon="7.4754">
        <ele>181</ele>
        <time>2019-08-09T10:08:32Z</time>
      </trkpt>
      <trkpt lat="48.42362" lon="7.47536">
        <ele>181.1</ele>
        <time>2019-08-09T10:08:33Z</time>
      </trkpt>
      <trkpt lat="48.4236" lon="7.47533">
        <ele>181.1</ele>
        <time>2019-08-09T10:08:34Z</time>
      </trkpt>
      <trkpt lat="48.42356" lon="7.47527">
        <ele>181.2</ele>
        <time>2019-08-09T10:08:36Z</time>
      </trkpt>
      <trkpt lat="48.42354" lon="7.47525">
        <ele>181.2</ele>
        <time>2019-08-09T10:08:37Z</time>
      </trkpt>
      <trkpt lat="48.42352" lon="7.47521">
        <ele>181.3</ele>
        <time>2019-08-09T10:08:38Z</time>
      </trkpt>
      <trkpt lat="48.4235" lon="7.47517">
        <ele>181.3</ele>
        <time>2019-08-09T10:08:39Z</time>
      </trkpt>
      <trkpt lat="48.42348" lon="7.47513">
        <ele>181.4</ele>
        <time>2019-08-09T10:08:40Z</time>
      </trkpt>
      <trkpt lat="48.42347" lon="7.47508">
        <ele>181.5</ele>
        <time>2019-08-09T10:08:41Z</time>
      </trkpt>
      <trkpt lat="48.42345" lon="7.47503">
        <ele>181.5</ele>
        <time>2019-08-09T10:08:42Z</time>
      </trkpt>
      <trkpt lat="48.42342" lon="7.47501">
        <ele>181.6</ele>
        <time>2019-08-09T10:08:43Z</time>
      </trkpt>
      <trkpt lat="48.4234" lon="7.47498">
        <ele>181.6</ele>
        <time>2019-08-09T10:08:44Z</time>
      </trkpt>
      <trkpt lat="48.42337" lon="7.47493">
        <ele>181.7</ele>
        <time>2019-08-09T10:08:45Z</time>
      </trkpt>
      <trkpt lat="48.42334" lon="7.47489">
        <ele>181.8</ele>
        <time>2019-08-09T10:08:46Z</time>
      </trkpt>
      <trkpt lat="48.42332" lon="7.47485">
        <ele>181.8</ele>
        <time>2019-08-09T10:08:47Z</time>
      </trkpt>
      <trkpt lat="48.42329" lon="7.47482">
        <ele>181.9</ele>
        <time>2019-08-09T10:08:48Z</time>
      </trkpt>
      <trkpt lat="48.42327" lon="7.47479">
        <ele>181.9</ele>
        <time>2019-08-09T10:08:49Z</time>
      </trkpt>
      <trkpt lat="48.42324" lon="7.47475">
        <ele>182</ele>
        <time>2019-08-09T10:08:50Z</time>
      </trkpt>
      <trkpt lat="48.42321" lon="7.47471">
        <ele>182</ele>
        <time>2019-08-09T10:08:51Z</time>
      </trkpt>
      <trkpt lat="48.42317" lon="7.47469">
        <ele>182</ele>
        <time>2019-08-09T10:08:52Z</time>
      </trkpt>
      <trkpt lat="48.42314" lon="7.47466">
        <ele>182.1</ele>
        <time>2019-08-09T10:08:53Z</time>
      </trkpt>
      <trkpt lat="48.42311" lon="7.47463">
        <ele>182.1</ele>
        <time>2019-08-09T10:08:54Z</time>
      </trkpt>
      <trkpt lat="48.42307" lon="7.47461">
        <ele>182.1</ele>
        <time>2019-08-09T10:08:55Z</time>
      </trkpt>
      <trkpt lat="48.42304" lon="7.47459">
        <ele>182.1</ele>
        <time>2019-08-09T10:08:56Z</time>
      </trkpt>
      <trkpt lat="48.423" lon="7.47457">
        <ele>182.2</ele>
        <time>2019-08-09T10:08:57Z</time>
      </trkpt>
      <trkpt lat="48.42297" lon="7.47455">
        <ele>182.2</ele>
        <time>2019-08-09T10:08:58Z</time>
      </trkpt>
      <trkpt lat="48.42294" lon="7.47453">
        <ele>182.2</ele>
        <time>2019-08-09T10:08:59Z</time>
      </trkpt>
      <trkpt lat="48.42291" lon="7.47452">
        <ele>182.3</ele>
        <time>2019-08-09T10:09:00Z</time>
      </trkpt>
      <trkpt lat="48.42288" lon="7.4745">
        <ele>182.3</ele>
        <time>2019-08-09T10:09:01Z</time>
      </trkpt>
      <trkpt lat="48.42285" lon="7.47448">
        <ele>182.3</ele>
        <time>2019-08-09T10:09:02Z</time>
      </trkpt>
      <trkpt lat="48.42282" lon="7.47446">
        <ele>182.4</ele>
        <time>2019-08-09T10:09:03Z</time>
      </trkpt>
      <trkpt lat="48.42279" lon="7.47445">
        <ele>182.4</ele>
        <time>2019-08-09T10:09:04Z</time>
      </trkpt>
      <trkpt lat="48.42275" lon="7.47443">
        <ele>182.5</ele>
        <time>2019-08-09T10:09:05Z</time>
      </trkpt>
      <trkpt lat="48.42272" lon="7.47442">
        <ele>182.5</ele>
        <time>2019-08-09T10:09:06Z</time>
      </trkpt>
      <trkpt lat="48.42269" lon="7.47441">
        <ele>182.5</ele>
        <time>2019-08-09T10:09:07Z</time>
      </trkpt>
      <trkpt lat="48.42265" lon="7.47439">
        <ele>182.5</ele>
        <time>2019-08-09T10:09:08Z</time>
      </trkpt>
      <trkpt lat="48.42261" lon="7.47439">
        <ele>182.5</ele>
        <time>2019-08-09T10:09:09Z</time>
      </trkpt>
      <trkpt lat="48.42257" lon="7.47439">
        <ele>182.5</ele>
        <time>2019-08-09T10:09:10Z</time>
      </trkpt>
      <trkpt lat="48.42253" lon="7.47438">
        <ele>182.5</ele>
        <time>2019-08-09T10:09:11Z</time>
      </trkpt>
      <trkpt lat="48.42249" lon="7.47438">
        <ele>182.5</ele>
        <time>2019-08-09T10:09:12Z</time>
      </trkpt>
      <trkpt lat="48.42245" lon="7.47438">
        <ele>182.5</ele>
        <time>2019-08-09T10:09:13Z</time>
      </trkpt>
      <trkpt lat="48.42241" lon="7.47437">
        <ele>182.5</ele>
        <time>2019-08-09T10:09:14Z</time>
      </trkpt>
      <trkpt lat="48.42237" lon="7.47438">
        <ele>182.5</ele>
        <time>2019-08-09T10:09:15Z</time>
      </trkpt>
      <trkpt lat="48.42232" lon="7.47439">
        <ele>182.5</ele>
        <time>2019-08-09T10:09:16Z</time>
      </trkpt>
      <trkpt lat="48.42227" lon="7.47439">
        <ele>182.5</ele>
        <time>2019-08-09T10:09:17Z</time>
      </trkpt>
      <trkpt lat="48.42223" lon="7.47438">
        <ele>182.5</ele>
        <time>2019-08-09T10:09:18Z</time>
      </trkpt>
      <trkpt lat="48.42219" lon="7.47439">
        <ele>182.5</ele>
        <time>2019-08-09T10:09:19Z</time>
      </trkpt>
      <trkpt lat="48.42215" lon="7.4744">
        <ele>182.5</ele>
        <time>2019-08-09T10:09:20Z</time>
      </trkpt>
      <trkpt lat="48.4221" lon="7.47439">
        <ele>182.4</ele>
        <time>2019-08-09T10:09:21Z</time>
      </trkpt>
      <trkpt lat="48.42206" lon="7.47439">
        <ele>182.4</ele>
        <time>2019-08-09T10:09:22Z</time>
      </trkpt>
      <trkpt lat="48.42202" lon="7.47439">
        <ele>182.3</ele>
        <time>2019-08-09T10:09:23Z</time>
      </trkpt>
      <trkpt lat="48.42198" lon="7.47439">
        <ele>182.2</ele>
        <time>2019-08-09T10:09:24Z</time>
      </trkpt>
      <trkpt lat="48.42193" lon="7.47439">
        <ele>182</ele>
        <time>2019-08-09T10:09:25Z</time>
      </trkpt>
      <trkpt lat="48.4219" lon="7.47438">
        <ele>181.9</ele>
        <time>2019-08-09T10:09:26Z</time>
      </trkpt>
      <trkpt lat="48.42186" lon="7.47438">
        <ele>181.8</ele>
        <time>2019-08-09T10:09:27Z</time>
      </trkpt>
      <trkpt lat="48.42182" lon="7.47438">
        <ele>181.6</ele>
        <time>2019-08-09T10:09:28Z</time>
      </trkpt>
      <trkpt lat="48.42178" lon="7.47438">
        <ele>181.5</ele>
        <time>2019-08-09T10:09:29Z</time>
      </trkpt>
      <trkpt lat="48.42174" lon="7.47438">
        <ele>181.3</ele>
        <time>2019-08-09T10:09:30Z</time>
      </trkpt>
      <trkpt lat="48.42171" lon="7.47438">
        <ele>181.2</ele>
        <time>2019-08-09T10:09:31Z</time>
      </trkpt>
      <trkpt lat="48.42167" lon="7.47438">
        <ele>181</ele>
        <time>2019-08-09T10:09:32Z</time>
      </trkpt>
      <trkpt lat="48.42163" lon="7.47438">
        <ele>180.8</ele>
        <time>2019-08-09T10:09:33Z</time>
      </trkpt>
      <trkpt lat="48.42158" lon="7.47438">
        <ele>180.7</ele>
        <time>2019-08-09T10:09:34Z</time>
      </trkpt>
      <trkpt lat="48.42154" lon="7.47439">
        <ele>180.5</ele>
        <time>2019-08-09T10:09:35Z</time>
      </trkpt>
      <trkpt lat="48.4215" lon="7.47439">
        <ele>180.3</ele>
        <time>2019-08-09T10:09:36Z</time>
      </trkpt>
      <trkpt lat="48.42147" lon="7.47438">
        <ele>180.3</ele>
        <time>2019-08-09T10:09:37Z</time>
      </trkpt>
      <trkpt lat="48.42144" lon="7.47436">
        <ele>180.3</ele>
        <time>2019-08-09T10:09:38Z</time>
      </trkpt>
      <trkpt lat="48.42141" lon="7.47433">
        <ele>180.3</ele>
        <time>2019-08-09T10:09:39Z</time>
      </trkpt>
      <trkpt lat="48.42137" lon="7.47431">
        <ele>180.3</ele>
        <time>2019-08-09T10:09:40Z</time>
      </trkpt>
      <trkpt lat="48.42133" lon="7.4743">
        <ele>180.3</ele>
        <time>2019-08-09T10:09:41Z</time>
      </trkpt>
      <trkpt lat="48.42129" lon="7.47428">
        <ele>180.3</ele>
        <time>2019-08-09T10:09:42Z</time>
      </trkpt>
      <trkpt lat="48.42127" lon="7.47426">
        <ele>180.3</ele>
        <time>2019-08-09T10:09:43Z</time>
      </trkpt>
      <trkpt lat="48.42124" lon="7.47423">
        <ele>180.3</ele>
        <time>2019-08-09T10:09:44Z</time>
      </trkpt>
      <trkpt lat="48.42121" lon="7.47421">
        <ele>180.3</ele>
        <time>2019-08-09T10:09:45Z</time>
      </trkpt>
      <trkpt lat="48.42118" lon="7.47418">
        <ele>180.3</ele>
        <time>2019-08-09T10:09:46Z</time>
      </trkpt>
      <trkpt lat="48.42114" lon="7.47416">
        <ele>180.3</ele>
        <time>2019-08-09T10:09:47Z</time>
      </trkpt>
      <trkpt lat="48.42111" lon="7.47413">
        <ele>180.4</ele>
        <time>2019-08-09T10:09:48Z</time>
      </trkpt>
      <trkpt lat="48.42109" lon="7.4741">
        <ele>180.4</ele>
        <time>2019-08-09T10:09:49Z</time>
      </trkpt>
      <trkpt lat="48.42106" lon="7.47408">
        <ele>180.4</ele>
        <time>2019-08-09T10:09:50Z</time>
      </trkpt>
      <trkpt lat="48.42104" lon="7.47404">
        <ele>180.4</ele>
        <time>2019-08-09T10:09:51Z</time>
      </trkpt>
      <trkpt lat="48.42101" lon="7.47401">
        <ele>180.4</ele>
        <time>2019-08-09T10:09:52Z</time>
      </trkpt>
      <trkpt lat="48.42098" lon="7.47398">
        <ele>180.4</ele>
        <time>2019-08-09T10:09:53Z</time>
      </trkpt>
      <trkpt lat="48.42095" lon="7.47394">
        <ele>180.4</ele>
        <time>2019-08-09T10:09:54Z</time>
      </trkpt>
      <trkpt lat="48.42093" lon="7.47391">
        <ele>180.4</ele>
        <time>2019-08-09T10:09:55Z</time>
      </trkpt>
      <trkpt lat="48.4209" lon="7.47389">
        <ele>180.4</ele>
        <time>2019-08-09T10:09:56Z</time>
      </trkpt>
      <trkpt lat="48.42088" lon="7.47386">
        <ele>180.4</ele>
        <time>2019-08-09T10:09:57Z</time>
      </trkpt>
      <trkpt lat="48.42085" lon="7.47382">
        <ele>180.4</ele>
        <time>2019-08-09T10:09:58Z</time>
      </trkpt>
      <trkpt lat="48.42083" lon="7.47378">
        <ele>180.4</ele>
        <time>2019-08-09T10:09:59Z</time>
      </trkpt>
      <trkpt lat="48.42081" lon="7.47375">
        <ele>180.5</ele>
        <time>2019-08-09T10:10:00Z</time>
      </trkpt>
      <trkpt lat="48.42079" lon="7.47372">
        <ele>180.5</ele>
        <time>2019-08-09T10:10:01Z</time>
      </trkpt>
      <trkpt lat="48.42077" lon="7.47369">
        <ele>180.5</ele>
        <time>2019-08-09T10:10:02Z</time>
      </trkpt>
      <trkpt lat="48.42072" lon="7.47362">
        <ele>180.5</ele>
        <time>2019-08-09T10:10:04Z</time>
      </trkpt>
      <trkpt lat="48.42069" lon="7.47359">
        <ele>180.5</ele>
        <time>2019-08-09T10:10:05Z</time>
      </trkpt>
      <trkpt lat="48.42067" lon="7.47356">
        <ele>180.5</ele>
        <time>2019-08-09T10:10:06Z</time>
      </trkpt>
      <trkpt lat="48.42064" lon="7.47353">
        <ele>180.5</ele>
        <time>2019-08-09T10:10:07Z</time>
      </trkpt>
      <trkpt lat="48.42061" lon="7.47349">
        <ele>180.5</ele>
        <time>2019-08-09T10:10:08Z</time>
      </trkpt>
      <trkpt lat="48.42058" lon="7.47345">
        <ele>180.5</ele>
        <time>2019-08-09T10:10:09Z</time>
      </trkpt>
      <trkpt lat="48.42055" lon="7.4734">
        <ele>180.5</ele>
        <time>2019-08-09T10:10:10Z</time>
      </trkpt>
      <trkpt lat="48.42052" lon="7.47336">
        <ele>180.5</ele>
        <time>2019-08-09T10:10:11Z</time>
      </trkpt>
      <trkpt lat="48.42049" lon="7.47333">
        <ele>180.5</ele>
        <time>2019-08-09T10:10:12Z</time>
      </trkpt>
      <trkpt lat="48.42046" lon="7.4733">
        <ele>180.5</ele>
        <time>2019-08-09T10:10:13Z</time>
      </trkpt>
      <trkpt lat="48.42043" lon="7.47327">
        <ele>180.5</ele>
        <time>2019-08-09T10:10:14Z</time>
      </trkpt>
      <trkpt lat="48.42041" lon="7.47324">
        <ele>180.5</ele>
        <time>2019-08-09T10:10:15Z</time>
      </trkpt>
      <trkpt lat="48.42038" lon="7.47322">
        <ele>180.5</ele>
        <time>2019-08-09T10:10:16Z</time>
      </trkpt>
      <trkpt lat="48.42035" lon="7.47319">
        <ele>180.6</ele>
        <time>2019-08-09T10:10:17Z</time>
      </trkpt>
      <trkpt lat="48.42033" lon="7.47316">
        <ele>180.7</ele>
        <time>2019-08-09T10:10:18Z</time>
      </trkpt>
      <trkpt lat="48.4203" lon="7.47313">
        <ele>180.8</ele>
        <time>2019-08-09T10:10:19Z</time>
      </trkpt>
      <trkpt lat="48.42026" lon="7.47311">
        <ele>180.9</ele>
        <time>2019-08-09T10:10:20Z</time>
      </trkpt>
      <trkpt lat="48.42024" lon="7.47308">
        <ele>180.9</ele>
        <time>2019-08-09T10:10:21Z</time>
      </trkpt>
      <trkpt lat="48.42021" lon="7.47306">
        <ele>181</ele>
        <time>2019-08-09T10:10:22Z</time>
      </trkpt>
      <trkpt lat="48.42018" lon="7.47304">
        <ele>181.1</ele>
        <time>2019-08-09T10:10:23Z</time>
      </trkpt>
      <trkpt lat="48.42015" lon="7.47301">
        <ele>181.2</ele>
        <time>2019-08-09T10:10:24Z</time>
      </trkpt>
      <trkpt lat="48.42012" lon="7.473">
        <ele>181.3</ele>
        <time>2019-08-09T10:10:25Z</time>
      </trkpt>
      <trkpt lat="48.42009" lon="7.47299">
        <ele>181.4</ele>
        <time>2019-08-09T10:10:26Z</time>
      </trkpt>
      <trkpt lat="48.42006" lon="7.47299">
        <ele>181.5</ele>
        <time>2019-08-09T10:10:27Z</time>
      </trkpt>
      <trkpt lat="48.42002" lon="7.47297">
        <ele>181.6</ele>
        <time>2019-08-09T10:10:28Z</time>
      </trkpt>
      <trkpt lat="48.41999" lon="7.47295">
        <ele>181.8</ele>
        <time>2019-08-09T10:10:29Z</time>
      </trkpt>
      <trkpt lat="48.41996" lon="7.47294">
        <ele>181.9</ele>
        <time>2019-08-09T10:10:30Z</time>
      </trkpt>
      <trkpt lat="48.41992" lon="7.47292">
        <ele>182</ele>
        <time>2019-08-09T10:10:31Z</time>
      </trkpt>
      <trkpt lat="48.41988" lon="7.4729">
        <ele>182.1</ele>
        <time>2019-08-09T10:10:32Z</time>
      </trkpt>
      <trkpt lat="48.41984" lon="7.47288">
        <ele>182.2</ele>
        <time>2019-08-09T10:10:33Z</time>
      </trkpt>
      <trkpt lat="48.4198" lon="7.47285">
        <ele>182.4</ele>
        <time>2019-08-09T10:10:34Z</time>
      </trkpt>
      <trkpt lat="48.41976" lon="7.47282">
        <ele>182.5</ele>
        <time>2019-08-09T10:10:35Z</time>
      </trkpt>
      <trkpt lat="48.41973" lon="7.4728">
        <ele>182.6</ele>
        <time>2019-08-09T10:10:36Z</time>
      </trkpt>
      <trkpt lat="48.4197" lon="7.47276">
        <ele>182.7</ele>
        <time>2019-08-09T10:10:37Z</time>
      </trkpt>
      <trkpt lat="48.41967" lon="7.47274">
        <ele>182.8</ele>
        <time>2019-08-09T10:10:38Z</time>
      </trkpt>
      <trkpt lat="48.41964" lon="7.4727">
        <ele>182.9</ele>
        <time>2019-08-09T10:10:39Z</time>
      </trkpt>
      <trkpt lat="48.41961" lon="7.47267">
        <ele>183</ele>
        <time>2019-08-09T10:10:40Z</time>
      </trkpt>
      <trkpt lat="48.41957" lon="7.47263">
        <ele>183.1</ele>
        <time>2019-08-09T10:10:41Z</time>
      </trkpt>
      <trkpt lat="48.41955" lon="7.47259">
        <ele>183.2</ele>
        <time>2019-08-09T10:10:42Z</time>
      </trkpt>
      <trkpt lat="48.41952" lon="7.47255">
        <ele>183.3</ele>
        <time>2019-08-09T10:10:43Z</time>
      </trkpt>
      <trkpt lat="48.41949" lon="7.47252">
        <ele>183.4</ele>
        <time>2019-08-09T10:10:44Z</time>
      </trkpt>
      <trkpt lat="48.41946" lon="7.47249">
        <ele>183.5</ele>
        <time>2019-08-09T10:10:45Z</time>
      </trkpt>
      <trkpt lat="48.41943" lon="7.47246">
        <ele>183.6</ele>
        <time>2019-08-09T10:10:46Z</time>
      </trkpt>
      <trkpt lat="48.41939" lon="7.47242">
        <ele>183.7</ele>
        <time>2019-08-09T10:10:47Z</time>
      </trkpt>
      <trkpt lat="48.41936" lon="7.47239">
        <ele>183.9</ele>
        <time>2019-08-09T10:10:48Z</time>
      </trkpt>
      <trkpt lat="48.41933" lon="7.47236">
        <ele>184</ele>
        <time>2019-08-09T10:10:49Z</time>
      </trkpt>
      <trkpt lat="48.4193" lon="7.47233">
        <ele>184.1</ele>
        <time>2019-08-09T10:10:50Z</time>
      </trkpt>
      <trkpt lat="48.41926" lon="7.47229">
        <ele>184.3</ele>
        <time>2019-08-09T10:10:51Z</time>
      </trkpt>
      <trkpt lat="48.41923" lon="7.47226">
        <ele>184.5</ele>
        <time>2019-08-09T10:10:52Z</time>
      </trkpt>
      <trkpt lat="48.4192" lon="7.47223">
        <ele>184.6</ele>
        <time>2019-08-09T10:10:53Z</time>
      </trkpt>
      <trkpt lat="48.41918" lon="7.4722">
        <ele>184.7</ele>
        <time>2019-08-09T10:10:54Z</time>
      </trkpt>
      <trkpt lat="48.41916" lon="7.47216">
        <ele>184.9</ele>
        <time>2019-08-09T10:10:55Z</time>
      </trkpt>
      <trkpt lat="48.41913" lon="7.47213">
        <ele>185</ele>
        <time>2019-08-09T10:10:56Z</time>
      </trkpt>
      <trkpt lat="48.4191" lon="7.4721">
        <ele>185.2</ele>
        <time>2019-08-09T10:10:57Z</time>
      </trkpt>
      <trkpt lat="48.41908" lon="7.47206">
        <ele>185.4</ele>
        <time>2019-08-09T10:10:58Z</time>
      </trkpt>
      <trkpt lat="48.41905" lon="7.47202">
        <ele>185.5</ele>
        <time>2019-08-09T10:10:59Z</time>
      </trkpt>
      <trkpt lat="48.41902" lon="7.47198">
        <ele>185.7</ele>
        <time>2019-08-09T10:11:00Z</time>
      </trkpt>
      <trkpt lat="48.41899" lon="7.47194">
        <ele>185.8</ele>
        <time>2019-08-09T10:11:01Z</time>
      </trkpt>
      <trkpt lat="48.41897" lon="7.4719">
        <ele>185.9</ele>
        <time>2019-08-09T10:11:02Z</time>
      </trkpt>
      <trkpt lat="48.41894" lon="7.47187">
        <ele>185.9</ele>
        <time>2019-08-09T10:11:03Z</time>
      </trkpt>
      <trkpt lat="48.41892" lon="7.47183">
        <ele>185.9</ele>
        <time>2019-08-09T10:11:04Z</time>
      </trkpt>
      <trkpt lat="48.41889" lon="7.47181">
        <ele>185.9</ele>
        <time>2019-08-09T10:11:05Z</time>
      </trkpt>
      <trkpt lat="48.41887" lon="7.47177">
        <ele>186</ele>
        <time>2019-08-09T10:11:06Z</time>
      </trkpt>
      <trkpt lat="48.41885" lon="7.47172">
        <ele>186</ele>
        <time>2019-08-09T10:11:07Z</time>
      </trkpt>
      <trkpt lat="48.41883" lon="7.4717">
        <ele>186</ele>
        <time>2019-08-09T10:11:08Z</time>
      </trkpt>
      <trkpt lat="48.41881" lon="7.47167">
        <ele>186</ele>
        <time>2019-08-09T10:11:09Z</time>
      </trkpt>
      <trkpt lat="48.41878" lon="7.47165">
        <ele>186</ele>
        <time>2019-08-09T10:11:10Z</time>
      </trkpt>
      <trkpt lat="48.41876" lon="7.47163">
        <ele>186</ele>
        <time>2019-08-09T10:11:11Z</time>
      </trkpt>
      <trkpt lat="48.41874" lon="7.47159">
        <ele>186</ele>
        <time>2019-08-09T10:11:12Z</time>
      </trkpt>
      <trkpt lat="48.41871" lon="7.47156">
        <ele>186</ele>
        <time>2019-08-09T10:11:13Z</time>
      </trkpt>
      <trkpt lat="48.41868" lon="7.47152">
        <ele>186.1</ele>
        <time>2019-08-09T10:11:14Z</time>
      </trkpt>
      <trkpt lat="48.41865" lon="7.47149">
        <ele>186.1</ele>
        <time>2019-08-09T10:11:15Z</time>
      </trkpt>
      <trkpt lat="48.41862" lon="7.47146">
        <ele>186.1</ele>
        <time>2019-08-09T10:11:16Z</time>
      </trkpt>
      <trkpt lat="48.41859" lon="7.47143">
        <ele>186.1</ele>
        <time>2019-08-09T10:11:17Z</time>
      </trkpt>
      <trkpt lat="48.41855" lon="7.4714">
        <ele>186.1</ele>
        <time>2019-08-09T10:11:18Z</time>
      </trkpt>
      <trkpt lat="48.41851" lon="7.47137">
        <ele>186.1</ele>
        <time>2019-08-09T10:11:19Z</time>
      </trkpt>
      <trkpt lat="48.41847" lon="7.47134">
        <ele>186.2</ele>
        <time>2019-08-09T10:11:20Z</time>
      </trkpt>
      <trkpt lat="48.41843" lon="7.4713">
        <ele>186.2</ele>
        <time>2019-08-09T10:11:21Z</time>
      </trkpt>
      <trkpt lat="48.41839" lon="7.47126">
        <ele>186.3</ele>
        <time>2019-08-09T10:11:22Z</time>
      </trkpt>
      <trkpt lat="48.41835" lon="7.47122">
        <ele>186.3</ele>
        <time>2019-08-09T10:11:23Z</time>
      </trkpt>
      <trkpt lat="48.41832" lon="7.47119">
        <ele>186.4</ele>
        <time>2019-08-09T10:11:24Z</time>
      </trkpt>
      <trkpt lat="48.41829" lon="7.47116">
        <ele>186.5</ele>
        <time>2019-08-09T10:11:25Z</time>
      </trkpt>
      <trkpt lat="48.41826" lon="7.47113">
        <ele>186.5</ele>
        <time>2019-08-09T10:11:26Z</time>
      </trkpt>
      <trkpt lat="48.41822" lon="7.47109">
        <ele>186.6</ele>
        <time>2019-08-09T10:11:27Z</time>
      </trkpt>
      <trkpt lat="48.41819" lon="7.47106">
        <ele>186.7</ele>
        <time>2019-08-09T10:11:28Z</time>
      </trkpt>
      <trkpt lat="48.41816" lon="7.47103">
        <ele>186.8</ele>
        <time>2019-08-09T10:11:29Z</time>
      </trkpt>
      <trkpt lat="48.41814" lon="7.471">
        <ele>186.9</ele>
        <time>2019-08-09T10:11:30Z</time>
      </trkpt>
      <trkpt lat="48.4181" lon="7.47093">
        <ele>187</ele>
        <time>2019-08-09T10:11:32Z</time>
      </trkpt>
      <trkpt lat="48.41807" lon="7.4709">
        <ele>187.1</ele>
        <time>2019-08-09T10:11:33Z</time>
      </trkpt>
      <trkpt lat="48.41805" lon="7.47087">
        <ele>187.1</ele>
        <time>2019-08-09T10:11:34Z</time>
      </trkpt>
      <trkpt lat="48.41802" lon="7.47083">
        <ele>187.2</ele>
        <time>2019-08-09T10:11:35Z</time>
      </trkpt>
      <trkpt lat="48.418" lon="7.47079">
        <ele>187.3</ele>
        <time>2019-08-09T10:11:36Z</time>
      </trkpt>
      <trkpt lat="48.41797" lon="7.47075">
        <ele>187.4</ele>
        <time>2019-08-09T10:11:37Z</time>
      </trkpt>
      <trkpt lat="48.41794" lon="7.47072">
        <ele>187.4</ele>
        <time>2019-08-09T10:11:38Z</time>
      </trkpt>
      <trkpt lat="48.41791" lon="7.47067">
        <ele>187.5</ele>
        <time>2019-08-09T10:11:39Z</time>
      </trkpt>
      <trkpt lat="48.41789" lon="7.47063">
        <ele>187.5</ele>
        <time>2019-08-09T10:11:40Z</time>
      </trkpt>
      <trkpt lat="48.41788" lon="7.47058">
        <ele>187.6</ele>
        <time>2019-08-09T10:11:41Z</time>
      </trkpt>
      <trkpt lat="48.41786" lon="7.47052">
        <ele>187.7</ele>
        <time>2019-08-09T10:11:42Z</time>
      </trkpt>
      <trkpt lat="48.41785" lon="7.47046">
        <ele>187.7</ele>
        <time>2019-08-09T10:11:43Z</time>
      </trkpt>
      <trkpt lat="48.41783" lon="7.47041">
        <ele>187.8</ele>
        <time>2019-08-09T10:11:44Z</time>
      </trkpt>
      <trkpt lat="48.41781" lon="7.47036">
        <ele>187.9</ele>
        <time>2019-08-09T10:11:45Z</time>
      </trkpt>
      <trkpt lat="48.41779" lon="7.47031">
        <ele>188</ele>
        <time>2019-08-09T10:11:46Z</time>
      </trkpt>
      <trkpt lat="48.41777" lon="7.47026">
        <ele>188.1</ele>
        <time>2019-08-09T10:11:47Z</time>
      </trkpt>
      <trkpt lat="48.41776" lon="7.47021">
        <ele>188.2</ele>
        <time>2019-08-09T10:11:48Z</time>
      </trkpt>
      <trkpt lat="48.41774" lon="7.47016">
        <ele>188.3</ele>
        <time>2019-08-09T10:11:49Z</time>
      </trkpt>
      <trkpt lat="48.41773" lon="7.47011">
        <ele>188.4</ele>
        <time>2019-08-09T10:11:50Z</time>
      </trkpt>
      <trkpt lat="48.41772" lon="7.47005">
        <ele>188.5</ele>
        <time>2019-08-09T10:11:51Z</time>
      </trkpt>
      <trkpt lat="48.4177" lon="7.46999">
        <ele>188.6</ele>
        <time>2019-08-09T10:11:52Z</time>
      </trkpt>
      <trkpt lat="48.41769" lon="7.46995">
        <ele>188.7</ele>
        <time>2019-08-09T10:11:53Z</time>
      </trkpt>
      <trkpt lat="48.41768" lon="7.4699">
        <ele>188.8</ele>
        <time>2019-08-09T10:11:54Z</time>
      </trkpt>
      <trkpt lat="48.41767" lon="7.46985">
        <ele>188.9</ele>
        <time>2019-08-09T10:11:55Z</time>
      </trkpt>
      <trkpt lat="48.41765" lon="7.46981">
        <ele>189</ele>
        <time>2019-08-09T10:11:56Z</time>
      </trkpt>
      <trkpt lat="48.41764" lon="7.46977">
        <ele>189</ele>
        <time>2019-08-09T10:11:57Z</time>
      </trkpt>
      <trkpt lat="48.41763" lon="7.46973">
        <ele>189.1</ele>
        <time>2019-08-09T10:11:58Z</time>
      </trkpt>
      <trkpt lat="48.41762" lon="7.46968">
        <ele>189.2</ele>
        <time>2019-08-09T10:11:59Z</time>
      </trkpt>
      <trkpt lat="48.41761" lon="7.46964">
        <ele>189.3</ele>
        <time>2019-08-09T10:12:00Z</time>
      </trkpt>
      <trkpt lat="48.41761" lon="7.4696">
        <ele>189.4</ele>
        <time>2019-08-09T10:12:01Z</time>
      </trkpt>
      <trkpt lat="48.4176" lon="7.46956">
        <ele>189.4</ele>
        <time>2019-08-09T10:12:02Z</time>
      </trkpt>
      <trkpt lat="48.41758" lon="7.46949">
        <ele>189.6</ele>
        <time>2019-08-09T10:12:04Z</time>
      </trkpt>
      <trkpt lat="48.41757" lon="7.46944">
        <ele>189.7</ele>
        <time>2019-08-09T10:12:05Z</time>
      </trkpt>
      <trkpt lat="48.41756" lon="7.46941">
        <ele>189.7</ele>
        <time>2019-08-09T10:12:06Z</time>
      </trkpt>
      <trkpt lat="48.41755" lon="7.46936">
        <ele>189.8</ele>
        <time>2019-08-09T10:12:07Z</time>
      </trkpt>
      <trkpt lat="48.41755" lon="7.46932">
        <ele>189.9</ele>
        <time>2019-08-09T10:12:08Z</time>
      </trkpt>
      <trkpt lat="48.41753" lon="7.46928">
        <ele>190</ele>
        <time>2019-08-09T10:12:09Z</time>
      </trkpt>
      <trkpt lat="48.41752" lon="7.46923">
        <ele>190.1</ele>
        <time>2019-08-09T10:12:10Z</time>
      </trkpt>
      <trkpt lat="48.41751" lon="7.46919">
        <ele>190.2</ele>
        <time>2019-08-09T10:12:11Z</time>
      </trkpt>
      <trkpt lat="48.4175" lon="7.46915">
        <ele>190.2</ele>
        <time>2019-08-09T10:12:12Z</time>
      </trkpt>
      <trkpt lat="48.41748" lon="7.46911">
        <ele>190.3</ele>
        <time>2019-08-09T10:12:13Z</time>
      </trkpt>
      <trkpt lat="48.41746" lon="7.46906">
        <ele>190.4</ele>
        <time>2019-08-09T10:12:14Z</time>
      </trkpt>
      <trkpt lat="48.41744" lon="7.46902">
        <ele>190.5</ele>
        <time>2019-08-09T10:12:15Z</time>
      </trkpt>
      <trkpt lat="48.41743" lon="7.46898">
        <ele>190.6</ele>
        <time>2019-08-09T10:12:16Z</time>
      </trkpt>
      <trkpt lat="48.41742" lon="7.46894">
        <ele>190.7</ele>
        <time>2019-08-09T10:12:17Z</time>
      </trkpt>
      <trkpt lat="48.4174" lon="7.4689">
        <ele>190.8</ele>
        <time>2019-08-09T10:12:18Z</time>
      </trkpt>
      <trkpt lat="48.41738" lon="7.46886">
        <ele>190.8</ele>
        <time>2019-08-09T10:12:19Z</time>
      </trkpt>
      <trkpt lat="48.41736" lon="7.46882">
        <ele>190.9</ele>
        <time>2019-08-09T10:12:20Z</time>
      </trkpt>
      <trkpt lat="48.41734" lon="7.46878">
        <ele>191</ele>
        <time>2019-08-09T10:12:21Z</time>
      </trkpt>
      <trkpt lat="48.41733" lon="7.46874">
        <ele>191.1</ele>
        <time>2019-08-09T10:12:22Z</time>
      </trkpt>
      <trkpt lat="48.41732" lon="7.4687">
        <ele>191.2</ele>
        <time>2019-08-09T10:12:23Z</time>
      </trkpt>
      <trkpt lat="48.4173" lon="7.46865">
        <ele>191.3</ele>
        <time>2019-08-09T10:12:24Z</time>
      </trkpt>
      <trkpt lat="48.41728" lon="7.46861">
        <ele>191.4</ele>
        <time>2019-08-09T10:12:25Z</time>
      </trkpt>
      <trkpt lat="48.41725" lon="7.46858">
        <ele>191.4</ele>
        <time>2019-08-09T10:12:26Z</time>
      </trkpt>
      <trkpt lat="48.41722" lon="7.46854">
        <ele>191.5</ele>
        <time>2019-08-09T10:12:27Z</time>
      </trkpt>
      <trkpt lat="48.41721" lon="7.46849">
        <ele>191.6</ele>
        <time>2019-08-09T10:12:28Z</time>
      </trkpt>
      <trkpt lat="48.41719" lon="7.46845">
        <ele>191.7</ele>
        <time>2019-08-09T10:12:29Z</time>
      </trkpt>
      <trkpt lat="48.41717" lon="7.46841">
        <ele>191.8</ele>
        <time>2019-08-09T10:12:30Z</time>
      </trkpt>
      <trkpt lat="48.41715" lon="7.46838">
        <ele>191.9</ele>
        <time>2019-08-09T10:12:31Z</time>
      </trkpt>
      <trkpt lat="48.41714" lon="7.46833">
        <ele>191.9</ele>
        <time>2019-08-09T10:12:32Z</time>
      </trkpt>
      <trkpt lat="48.41712" lon="7.46829">
        <ele>192</ele>
        <time>2019-08-09T10:12:33Z</time>
      </trkpt>
      <trkpt lat="48.4171" lon="7.46826">
        <ele>192.1</ele>
        <time>2019-08-09T10:12:34Z</time>
      </trkpt>
      <trkpt lat="48.41709" lon="7.46822">
        <ele>192.1</ele>
        <time>2019-08-09T10:12:35Z</time>
      </trkpt>
      <trkpt lat="48.41707" lon="7.46818">
        <ele>192.2</ele>
        <time>2019-08-09T10:12:36Z</time>
      </trkpt>
      <trkpt lat="48.41705" lon="7.46814">
        <ele>192.3</ele>
        <time>2019-08-09T10:12:37Z</time>
      </trkpt>
      <trkpt lat="48.41703" lon="7.46807">
        <ele>192.4</ele>
        <time>2019-08-09T10:12:39Z</time>
      </trkpt>
      <trkpt lat="48.41701" lon="7.46801">
        <ele>192.4</ele>
        <time>2019-08-09T10:12:41Z</time>
      </trkpt>
      <trkpt lat="48.41699" lon="7.46798">
        <ele>192.5</ele>
        <time>2019-08-09T10:12:42Z</time>
      </trkpt>
      <trkpt lat="48.41698" lon="7.46794">
        <ele>192.5</ele>
        <time>2019-08-09T10:12:43Z</time>
      </trkpt>
      <trkpt lat="48.41695" lon="7.46791">
        <ele>192.5</ele>
        <time>2019-08-09T10:12:44Z</time>
      </trkpt>
      <trkpt lat="48.41694" lon="7.46788">
        <ele>192.6</ele>
        <time>2019-08-09T10:12:45Z</time>
      </trkpt>
      <trkpt lat="48.41692" lon="7.46783">
        <ele>192.6</ele>
        <time>2019-08-09T10:12:46Z</time>
      </trkpt>
      <trkpt lat="48.4169" lon="7.46779">
        <ele>192.6</ele>
        <time>2019-08-09T10:12:47Z</time>
      </trkpt>
      <trkpt lat="48.41687" lon="7.46772">
        <ele>192.7</ele>
        <time>2019-08-09T10:12:49Z</time>
      </trkpt>
      <trkpt lat="48.41686" lon="7.46768">
        <ele>192.7</ele>
        <time>2019-08-09T10:12:50Z</time>
      </trkpt>
      <trkpt lat="48.41683" lon="7.46762">
        <ele>192.8</ele>
        <time>2019-08-09T10:12:52Z</time>
      </trkpt>
      <trkpt lat="48.4168" lon="7.46756">
        <ele>192.9</ele>
        <time>2019-08-09T10:12:54Z</time>
      </trkpt>
      <trkpt lat="48.41679" lon="7.46753">
        <ele>192.9</ele>
        <time>2019-08-09T10:12:55Z</time>
      </trkpt>
      <trkpt lat="48.41678" lon="7.46748">
        <ele>192.9</ele>
        <time>2019-08-09T10:12:56Z</time>
      </trkpt>
      <trkpt lat="48.41676" lon="7.46742">
        <ele>193</ele>
        <time>2019-08-09T10:12:58Z</time>
      </trkpt>
      <trkpt lat="48.41674" lon="7.46739">
        <ele>193</ele>
        <time>2019-08-09T10:12:59Z</time>
      </trkpt>
      <trkpt lat="48.41672" lon="7.46736">
        <ele>193.1</ele>
        <time>2019-08-09T10:13:00Z</time>
      </trkpt>
      <trkpt lat="48.41669" lon="7.46732">
        <ele>193.2</ele>
        <time>2019-08-09T10:13:01Z</time>
      </trkpt>
      <trkpt lat="48.41665" lon="7.46729">
        <ele>193.3</ele>
        <time>2019-08-09T10:13:02Z</time>
      </trkpt>
      <trkpt lat="48.41663" lon="7.46728">
        <ele>193.4</ele>
        <time>2019-08-09T10:13:03Z</time>
      </trkpt>
      <trkpt lat="48.41659" lon="7.46726">
        <ele>193.5</ele>
        <time>2019-08-09T10:13:04Z</time>
      </trkpt>
      <trkpt lat="48.41656" lon="7.46725">
        <ele>193.5</ele>
        <time>2019-08-09T10:13:05Z</time>
      </trkpt>
      <trkpt lat="48.41651" lon="7.46722">
        <ele>193.6</ele>
        <time>2019-08-09T10:13:07Z</time>
      </trkpt>
      <trkpt lat="48.41646" lon="7.4672">
        <ele>193.8</ele>
        <time>2019-08-09T10:13:09Z</time>
      </trkpt>
      <trkpt lat="48.41643" lon="7.46718">
        <ele>193.9</ele>
        <time>2019-08-09T10:13:10Z</time>
      </trkpt>
      <trkpt lat="48.4164" lon="7.46717">
        <ele>194.1</ele>
        <time>2019-08-09T10:13:11Z</time>
      </trkpt>
      <trkpt lat="48.41635" lon="7.46716">
        <ele>194.3</ele>
        <time>2019-08-09T10:13:13Z</time>
      </trkpt>
      <trkpt lat="48.41632" lon="7.46715">
        <ele>194.5</ele>
        <time>2019-08-09T10:13:14Z</time>
      </trkpt>
      <trkpt lat="48.41629" lon="7.46714">
        <ele>194.6</ele>
        <time>2019-08-09T10:13:15Z</time>
      </trkpt>
      <trkpt lat="48.41627" lon="7.46711">
        <ele>194.8</ele>
        <time>2019-08-09T10:13:16Z</time>
      </trkpt>
      <trkpt lat="48.41622" lon="7.46707">
        <ele>194.9</ele>
        <time>2019-08-09T10:13:18Z</time>
      </trkpt>
      <trkpt lat="48.41619" lon="7.46706">
        <ele>194.9</ele>
        <time>2019-08-09T10:13:19Z</time>
      </trkpt>
      <trkpt lat="48.41616" lon="7.46704">
        <ele>195</ele>
        <time>2019-08-09T10:13:20Z</time>
      </trkpt>
      <trkpt lat="48.41614" lon="7.46702">
        <ele>195</ele>
        <time>2019-08-09T10:13:21Z</time>
      </trkpt>
      <trkpt lat="48.41611" lon="7.467">
        <ele>195</ele>
        <time>2019-08-09T10:13:22Z</time>
      </trkpt>
      <trkpt lat="48.41609" lon="7.46698">
        <ele>195.1</ele>
        <time>2019-08-09T10:13:23Z</time>
      </trkpt>
      <trkpt lat="48.41606" lon="7.46698">
        <ele>195.1</ele>
        <time>2019-08-09T10:13:24Z</time>
      </trkpt>
      <trkpt lat="48.41603" lon="7.46697">
        <ele>195.2</ele>
        <time>2019-08-09T10:13:25Z</time>
      </trkpt>
      <trkpt lat="48.416" lon="7.46695">
        <ele>195.2</ele>
        <time>2019-08-09T10:13:26Z</time>
      </trkpt>
      <trkpt lat="48.41597" lon="7.46694">
        <ele>195.3</ele>
        <time>2019-08-09T10:13:27Z</time>
      </trkpt>
      <trkpt lat="48.41594" lon="7.46691">
        <ele>195.3</ele>
        <time>2019-08-09T10:13:28Z</time>
      </trkpt>
      <trkpt lat="48.41592" lon="7.46689">
        <ele>195.3</ele>
        <time>2019-08-09T10:13:29Z</time>
      </trkpt>
      <trkpt lat="48.4159" lon="7.46686">
        <ele>195.4</ele>
        <time>2019-08-09T10:13:30Z</time>
      </trkpt>
      <trkpt lat="48.41588" lon="7.46682">
        <ele>195.5</ele>
        <time>2019-08-09T10:13:31Z</time>
      </trkpt>
      <trkpt lat="48.41586" lon="7.46679">
        <ele>195.5</ele>
        <time>2019-08-09T10:13:32Z</time>
      </trkpt>
      <trkpt lat="48.41584" lon="7.46675">
        <ele>195.6</ele>
        <time>2019-08-09T10:13:33Z</time>
      </trkpt>
      <trkpt lat="48.41582" lon="7.4667">
        <ele>195.7</ele>
        <time>2019-08-09T10:13:34Z</time>
      </trkpt>
      <trkpt lat="48.4158" lon="7.46665">
        <ele>195.7</ele>
        <time>2019-08-09T10:13:35Z</time>
      </trkpt>
      <trkpt lat="48.41578" lon="7.46662">
        <ele>195.7</ele>
        <time>2019-08-09T10:13:36Z</time>
      </trkpt>
      <trkpt lat="48.41574" lon="7.46657">
        <ele>195.8</ele>
        <time>2019-08-09T10:13:38Z</time>
      </trkpt>
      <trkpt lat="48.4157" lon="7.46654">
        <ele>195.9</ele>
        <time>2019-08-09T10:13:40Z</time>
      </trkpt>
      <trkpt lat="48.41567" lon="7.46656">
        <ele>195.9</ele>
        <time>2019-08-09T10:13:41Z</time>
      </trkpt>
      <trkpt lat="48.41565" lon="7.46659">
        <ele>195.9</ele>
        <time>2019-08-09T10:13:42Z</time>
      </trkpt>
      <trkpt lat="48.41562" lon="7.46662">
        <ele>195.9</ele>
        <time>2019-08-09T10:13:43Z</time>
      </trkpt>
      <trkpt lat="48.41559" lon="7.46665">
        <ele>195.9</ele>
        <time>2019-08-09T10:13:44Z</time>
      </trkpt>
      <trkpt lat="48.41556" lon="7.46668">
        <ele>195.9</ele>
        <time>2019-08-09T10:13:45Z</time>
      </trkpt>
      <trkpt lat="48.41554" lon="7.46671">
        <ele>195.9</ele>
        <time>2019-08-09T10:13:46Z</time>
      </trkpt>
      <trkpt lat="48.41551" lon="7.46672">
        <ele>196</ele>
        <time>2019-08-09T10:13:47Z</time>
      </trkpt>
      <trkpt lat="48.41548" lon="7.46673">
        <ele>196</ele>
        <time>2019-08-09T10:13:48Z</time>
      </trkpt>
      <trkpt lat="48.41544" lon="7.46671">
        <ele>196</ele>
        <time>2019-08-09T10:13:49Z</time>
      </trkpt>
      <trkpt lat="48.41541" lon="7.4667">
        <ele>196</ele>
        <time>2019-08-09T10:13:50Z</time>
      </trkpt>
      <trkpt lat="48.41537" lon="7.46669">
        <ele>196</ele>
        <time>2019-08-09T10:13:51Z</time>
      </trkpt>
      <trkpt lat="48.41533" lon="7.46668">
        <ele>196</ele>
        <time>2019-08-09T10:13:52Z</time>
      </trkpt>
      <trkpt lat="48.4153" lon="7.46668">
        <ele>196.1</ele>
        <time>2019-08-09T10:13:53Z</time>
      </trkpt>
      <trkpt lat="48.41526" lon="7.46668">
        <ele>196.1</ele>
        <time>2019-08-09T10:13:54Z</time>
      </trkpt>
      <trkpt lat="48.41522" lon="7.46668">
        <ele>196.1</ele>
        <time>2019-08-09T10:13:55Z</time>
      </trkpt>
      <trkpt lat="48.41518" lon="7.46669">
        <ele>196.1</ele>
        <time>2019-08-09T10:13:56Z</time>
      </trkpt>
      <trkpt lat="48.41513" lon="7.46668">
        <ele>196.1</ele>
        <time>2019-08-09T10:13:57Z</time>
      </trkpt>
      <trkpt lat="48.41508" lon="7.46668">
        <ele>196.1</ele>
        <time>2019-08-09T10:13:58Z</time>
      </trkpt>
      <trkpt lat="48.41505" lon="7.46669">
        <ele>196.1</ele>
        <time>2019-08-09T10:13:59Z</time>
      </trkpt>
      <trkpt lat="48.415" lon="7.4667">
        <ele>196.1</ele>
        <time>2019-08-09T10:14:00Z</time>
      </trkpt>
      <trkpt lat="48.41496" lon="7.4667">
        <ele>196.1</ele>
        <time>2019-08-09T10:14:01Z</time>
      </trkpt>
      <trkpt lat="48.41491" lon="7.4667">
        <ele>196.1</ele>
        <time>2019-08-09T10:14:02Z</time>
      </trkpt>
      <trkpt lat="48.41486" lon="7.4667">
        <ele>196.1</ele>
        <time>2019-08-09T10:14:03Z</time>
      </trkpt>
      <trkpt lat="48.41483" lon="7.46669">
        <ele>196.1</ele>
        <time>2019-08-09T10:14:04Z</time>
      </trkpt>
      <trkpt lat="48.4148" lon="7.46669">
        <ele>196.1</ele>
        <time>2019-08-09T10:14:05Z</time>
      </trkpt>
      <trkpt lat="48.41476" lon="7.46669">
        <ele>196.1</ele>
        <time>2019-08-09T10:14:06Z</time>
      </trkpt>
      <trkpt lat="48.41471" lon="7.46668">
        <ele>195.8</ele>
        <time>2019-08-09T10:14:07Z</time>
      </trkpt>
      <trkpt lat="48.41466" lon="7.46669">
        <ele>195.6</ele>
        <time>2019-08-09T10:14:08Z</time>
      </trkpt>
      <trkpt lat="48.41462" lon="7.46669">
        <ele>195.4</ele>
        <time>2019-08-09T10:14:09Z</time>
      </trkpt>
      <trkpt lat="48.41457" lon="7.46671">
        <ele>195.3</ele>
        <time>2019-08-09T10:14:10Z</time>
      </trkpt>
      <trkpt lat="48.41453" lon="7.46672">
        <ele>195.1</ele>
        <time>2019-08-09T10:14:11Z</time>
      </trkpt>
      <trkpt lat="48.41449" lon="7.46672">
        <ele>195</ele>
        <time>2019-08-09T10:14:12Z</time>
      </trkpt>
      <trkpt lat="48.41445" lon="7.46672">
        <ele>194.9</ele>
        <time>2019-08-09T10:14:13Z</time>
      </trkpt>
      <trkpt lat="48.41441" lon="7.46673">
        <ele>194.7</ele>
        <time>2019-08-09T10:14:14Z</time>
      </trkpt>
      <trkpt lat="48.41436" lon="7.46672">
        <ele>194.6</ele>
        <time>2019-08-09T10:14:15Z</time>
      </trkpt>
      <trkpt lat="48.41432" lon="7.46672">
        <ele>194.6</ele>
        <time>2019-08-09T10:14:16Z</time>
      </trkpt>
      <trkpt lat="48.41428" lon="7.46672">
        <ele>194.5</ele>
        <time>2019-08-09T10:14:17Z</time>
      </trkpt>
      <trkpt lat="48.41423" lon="7.46672">
        <ele>194.4</ele>
        <time>2019-08-09T10:14:18Z</time>
      </trkpt>
      <trkpt lat="48.41418" lon="7.46672">
        <ele>194.3</ele>
        <time>2019-08-09T10:14:19Z</time>
      </trkpt>
      <trkpt lat="48.41413" lon="7.46672">
        <ele>194.2</ele>
        <time>2019-08-09T10:14:20Z</time>
      </trkpt>
      <trkpt lat="48.41407" lon="7.46673">
        <ele>194</ele>
        <time>2019-08-09T10:14:21Z</time>
      </trkpt>
      <trkpt lat="48.41403" lon="7.46674">
        <ele>193.9</ele>
        <time>2019-08-09T10:14:22Z</time>
      </trkpt>
      <trkpt lat="48.41398" lon="7.46675">
        <ele>193.7</ele>
        <time>2019-08-09T10:14:23Z</time>
      </trkpt>
      <trkpt lat="48.41393" lon="7.46676">
        <ele>193.6</ele>
        <time>2019-08-09T10:14:24Z</time>
      </trkpt>
      <trkpt lat="48.41389" lon="7.46677">
        <ele>193.5</ele>
        <time>2019-08-09T10:14:25Z</time>
      </trkpt>
      <trkpt lat="48.41384" lon="7.46678">
        <ele>193.3</ele>
        <time>2019-08-09T10:14:26Z</time>
      </trkpt>
      <trkpt lat="48.41379" lon="7.46678">
        <ele>193.2</ele>
        <time>2019-08-09T10:14:27Z</time>
      </trkpt>
      <trkpt lat="48.41373" lon="7.4668">
        <ele>192.9</ele>
        <time>2019-08-09T10:14:28Z</time>
      </trkpt>
      <trkpt lat="48.41367" lon="7.4668">
        <ele>192.6</ele>
        <time>2019-08-09T10:14:29Z</time>
      </trkpt>
      <trkpt lat="48.41361" lon="7.46682">
        <ele>191.9</ele>
        <time>2019-08-09T10:14:30Z</time>
      </trkpt>
      <trkpt lat="48.41356" lon="7.46682">
        <ele>191.8</ele>
        <time>2019-08-09T10:14:31Z</time>
      </trkpt>
      <trkpt lat="48.41351" lon="7.46684">
        <ele>191.7</ele>
        <time>2019-08-09T10:14:32Z</time>
      </trkpt>
      <trkpt lat="48.41346" lon="7.46684">
        <ele>191.4</ele>
        <time>2019-08-09T10:14:33Z</time>
      </trkpt>
      <trkpt lat="48.41342" lon="7.46684">
        <ele>191.4</ele>
        <time>2019-08-09T10:14:34Z</time>
      </trkpt>
      <trkpt lat="48.41336" lon="7.46685">
        <ele>191.1</ele>
        <time>2019-08-09T10:14:35Z</time>
      </trkpt>
      <trkpt lat="48.4133" lon="7.46686">
        <ele>190.7</ele>
        <time>2019-08-09T10:14:36Z</time>
      </trkpt>
      <trkpt lat="48.41323" lon="7.46688">
        <ele>190.2</ele>
        <time>2019-08-09T10:14:37Z</time>
      </trkpt>
      <trkpt lat="48.41317" lon="7.46689">
        <ele>189.8</ele>
        <time>2019-08-09T10:14:38Z</time>
      </trkpt>
      <trkpt lat="48.41311" lon="7.46691">
        <ele>189.5</ele>
        <time>2019-08-09T10:14:39Z</time>
      </trkpt>
      <trkpt lat="48.41304" lon="7.46693">
        <ele>189.2</ele>
        <time>2019-08-09T10:14:40Z</time>
      </trkpt>
      <trkpt lat="48.41297" lon="7.46695">
        <ele>188.9</ele>
        <time>2019-08-09T10:14:41Z</time>
      </trkpt>
      <trkpt lat="48.4129" lon="7.46698">
        <ele>188.7</ele>
        <time>2019-08-09T10:14:42Z</time>
      </trkpt>
      <trkpt lat="48.41283" lon="7.467">
        <ele>188.4</ele>
        <time>2019-08-09T10:14:43Z</time>
      </trkpt>
      <trkpt lat="48.41277" lon="7.46701">
        <ele>188.1</ele>
        <time>2019-08-09T10:14:44Z</time>
      </trkpt>
      <trkpt lat="48.4127" lon="7.46702">
        <ele>187.9</ele>
        <time>2019-08-09T10:14:45Z</time>
      </trkpt>
      <trkpt lat="48.41262" lon="7.46705">
        <ele>187.5</ele>
        <time>2019-08-09T10:14:46Z</time>
      </trkpt>
      <trkpt lat="48.41254" lon="7.46706">
        <ele>187.2</ele>
        <time>2019-08-09T10:14:47Z</time>
      </trkpt>
      <trkpt lat="48.41247" lon="7.46707">
        <ele>186.9</ele>
        <time>2019-08-09T10:14:48Z</time>
      </trkpt>
      <trkpt lat="48.41239" lon="7.4671">
        <ele>186.5</ele>
        <time>2019-08-09T10:14:49Z</time>
      </trkpt>
      <trkpt lat="48.41231" lon="7.46713">
        <ele>186.2</ele>
        <time>2019-08-09T10:14:50Z</time>
      </trkpt>
      <trkpt lat="48.41223" lon="7.46715">
        <ele>186</ele>
        <time>2019-08-09T10:14:51Z</time>
      </trkpt>
      <trkpt lat="48.41215" lon="7.46718">
        <ele>185.7</ele>
        <time>2019-08-09T10:14:52Z</time>
      </trkpt>
      <trkpt lat="48.41207" lon="7.46721">
        <ele>185.4</ele>
        <time>2019-08-09T10:14:53Z</time>
      </trkpt>
      <trkpt lat="48.412" lon="7.46724">
        <ele>185.2</ele>
        <time>2019-08-09T10:14:54Z</time>
      </trkpt>
      <trkpt lat="48.41192" lon="7.46727">
        <ele>185</ele>
        <time>2019-08-09T10:14:55Z</time>
      </trkpt>
      <trkpt lat="48.41185" lon="7.46732">
        <ele>184.8</ele>
        <time>2019-08-09T10:14:56Z</time>
      </trkpt>
      <trkpt lat="48.41178" lon="7.46735">
        <ele>184.6</ele>
        <time>2019-08-09T10:14:57Z</time>
      </trkpt>
      <trkpt lat="48.41172" lon="7.46738">
        <ele>184.4</ele>
        <time>2019-08-09T10:14:58Z</time>
      </trkpt>
      <trkpt lat="48.41166" lon="7.46742">
        <ele>184.2</ele>
        <time>2019-08-09T10:14:59Z</time>
      </trkpt>
      <trkpt lat="48.41161" lon="7.46744">
        <ele>184.1</ele>
        <time>2019-08-09T10:15:00Z</time>
      </trkpt>
      <trkpt lat="48.41155" lon="7.46748">
        <ele>183.9</ele>
        <time>2019-08-09T10:15:01Z</time>
      </trkpt>
      <trkpt lat="48.4115" lon="7.46751">
        <ele>183.7</ele>
        <time>2019-08-09T10:15:02Z</time>
      </trkpt>
      <trkpt lat="48.41144" lon="7.46755">
        <ele>183.5</ele>
        <time>2019-08-09T10:15:03Z</time>
      </trkpt>
      <trkpt lat="48.41138" lon="7.46757">
        <ele>183.3</ele>
        <time>2019-08-09T10:15:04Z</time>
      </trkpt>
      <trkpt lat="48.41133" lon="7.46758">
        <ele>183.2</ele>
        <time>2019-08-09T10:15:05Z</time>
      </trkpt>
      <trkpt lat="48.41128" lon="7.46758">
        <ele>183</ele>
        <time>2019-08-09T10:15:06Z</time>
      </trkpt>
      <trkpt lat="48.41123" lon="7.46758">
        <ele>182.9</ele>
        <time>2019-08-09T10:15:07Z</time>
      </trkpt>
      <trkpt lat="48.4112" lon="7.46758">
        <ele>182.9</ele>
        <time>2019-08-09T10:15:08Z</time>
      </trkpt>
      <trkpt lat="48.41117" lon="7.46758">
        <ele>182.9</ele>
        <time>2019-08-09T10:15:09Z</time>
      </trkpt>
      <trkpt lat="48.41114" lon="7.46758">
        <ele>182.8</ele>
        <time>2019-08-09T10:15:10Z</time>
      </trkpt>
      <trkpt lat="48.4111" lon="7.46756">
        <ele>182.8</ele>
        <time>2019-08-09T10:15:12Z</time>
      </trkpt>
      <trkpt lat="48.41109" lon="7.46751">
        <ele>182.7</ele>
        <time>2019-08-09T10:15:13Z</time>
      </trkpt>
      <trkpt lat="48.41107" lon="7.46746">
        <ele>182.6</ele>
        <time>2019-08-09T10:15:14Z</time>
      </trkpt>
      <trkpt lat="48.41106" lon="7.46742">
        <ele>182.5</ele>
        <time>2019-08-09T10:15:15Z</time>
      </trkpt>
      <trkpt lat="48.41104" lon="7.46736">
        <ele>182.4</ele>
        <time>2019-08-09T10:15:16Z</time>
      </trkpt>
      <trkpt lat="48.41102" lon="7.46731">
        <ele>182.4</ele>
        <time>2019-08-09T10:15:17Z</time>
      </trkpt>
      <trkpt lat="48.411" lon="7.46726">
        <ele>182.3</ele>
        <time>2019-08-09T10:15:18Z</time>
      </trkpt>
      <trkpt lat="48.41097" lon="7.4672">
        <ele>182.2</ele>
        <time>2019-08-09T10:15:19Z</time>
      </trkpt>
      <trkpt lat="48.41095" lon="7.46715">
        <ele>182.1</ele>
        <time>2019-08-09T10:15:20Z</time>
      </trkpt>
      <trkpt lat="48.41092" lon="7.4671">
        <ele>182</ele>
        <time>2019-08-09T10:15:21Z</time>
      </trkpt>
      <trkpt lat="48.41089" lon="7.46705">
        <ele>182.2</ele>
        <time>2019-08-09T10:15:22Z</time>
      </trkpt>
      <trkpt lat="48.41086" lon="7.46699">
        <ele>182.2</ele>
        <time>2019-08-09T10:15:23Z</time>
      </trkpt>
      <trkpt lat="48.41082" lon="7.46694">
        <ele>182.3</ele>
        <time>2019-08-09T10:15:24Z</time>
      </trkpt>
      <trkpt lat="48.41079" lon="7.4669">
        <ele>182.4</ele>
        <time>2019-08-09T10:15:25Z</time>
      </trkpt>
      <trkpt lat="48.41075" lon="7.46686">
        <ele>182.5</ele>
        <time>2019-08-09T10:15:26Z</time>
      </trkpt>
      <trkpt lat="48.41071" lon="7.46682">
        <ele>182.5</ele>
        <time>2019-08-09T10:15:27Z</time>
      </trkpt>
      <trkpt lat="48.41067" lon="7.46679">
        <ele>182.6</ele>
        <time>2019-08-09T10:15:28Z</time>
      </trkpt>
      <trkpt lat="48.41063" lon="7.46676">
        <ele>182.6</ele>
        <time>2019-08-09T10:15:29Z</time>
      </trkpt>
      <trkpt lat="48.41059" lon="7.46673">
        <ele>182.7</ele>
        <time>2019-08-09T10:15:30Z</time>
      </trkpt>
      <trkpt lat="48.41053" lon="7.46669">
        <ele>182.7</ele>
        <time>2019-08-09T10:15:31Z</time>
      </trkpt>
      <trkpt lat="48.41048" lon="7.46668">
        <ele>182.8</ele>
        <time>2019-08-09T10:15:32Z</time>
      </trkpt>
      <trkpt lat="48.41044" lon="7.46666">
        <ele>182.9</ele>
        <time>2019-08-09T10:15:33Z</time>
      </trkpt>
      <trkpt lat="48.4104" lon="7.46664">
        <ele>183.1</ele>
        <time>2019-08-09T10:15:34Z</time>
      </trkpt>
      <trkpt lat="48.41035" lon="7.46661">
        <ele>183.3</ele>
        <time>2019-08-09T10:15:35Z</time>
      </trkpt>
      <trkpt lat="48.41032" lon="7.46658">
        <ele>183.4</ele>
        <time>2019-08-09T10:15:36Z</time>
      </trkpt>
      <trkpt lat="48.41027" lon="7.46655">
        <ele>183.6</ele>
        <time>2019-08-09T10:15:37Z</time>
      </trkpt>
      <trkpt lat="48.41023" lon="7.46653">
        <ele>183.8</ele>
        <time>2019-08-09T10:15:38Z</time>
      </trkpt>
      <trkpt lat="48.41018" lon="7.46651">
        <ele>184.2</ele>
        <time>2019-08-09T10:15:39Z</time>
      </trkpt>
      <trkpt lat="48.41015" lon="7.46648">
        <ele>184.4</ele>
        <time>2019-08-09T10:15:40Z</time>
      </trkpt>
      <trkpt lat="48.41011" lon="7.46646">
        <ele>184.6</ele>
        <time>2019-08-09T10:15:41Z</time>
      </trkpt>
      <trkpt lat="48.41007" lon="7.46645">
        <ele>184.8</ele>
        <time>2019-08-09T10:15:42Z</time>
      </trkpt>
      <trkpt lat="48.41004" lon="7.46643">
        <ele>185</ele>
        <time>2019-08-09T10:15:43Z</time>
      </trkpt>
      <trkpt lat="48.40998" lon="7.46638">
        <ele>185.3</ele>
        <time>2019-08-09T10:15:44Z</time>
      </trkpt>
      <trkpt lat="48.40995" lon="7.46635">
        <ele>185.3</ele>
        <time>2019-08-09T10:15:45Z</time>
      </trkpt>
      <trkpt lat="48.40991" lon="7.46631">
        <ele>185.3</ele>
        <time>2019-08-09T10:15:46Z</time>
      </trkpt>
      <trkpt lat="48.40988" lon="7.46626">
        <ele>185.3</ele>
        <time>2019-08-09T10:15:47Z</time>
      </trkpt>
      <trkpt lat="48.40987" lon="7.46622">
        <ele>185.3</ele>
        <time>2019-08-09T10:15:48Z</time>
      </trkpt>
      <trkpt lat="48.40986" lon="7.46618">
        <ele>185.3</ele>
        <time>2019-08-09T10:15:49Z</time>
      </trkpt>
      <trkpt lat="48.40985" lon="7.46614">
        <ele>185.3</ele>
        <time>2019-08-09T10:15:50Z</time>
      </trkpt>
      <trkpt lat="48.40983" lon="7.46608">
        <ele>185.3</ele>
        <time>2019-08-09T10:15:51Z</time>
      </trkpt>
      <trkpt lat="48.40982" lon="7.46602">
        <ele>185.3</ele>
        <time>2019-08-09T10:15:52Z</time>
      </trkpt>
      <trkpt lat="48.4098" lon="7.46597">
        <ele>185.3</ele>
        <time>2019-08-09T10:15:53Z</time>
      </trkpt>
      <trkpt lat="48.40978" lon="7.46592">
        <ele>185.3</ele>
        <time>2019-08-09T10:15:54Z</time>
      </trkpt>
      <trkpt lat="48.40976" lon="7.46586">
        <ele>185.3</ele>
        <time>2019-08-09T10:15:55Z</time>
      </trkpt>
      <trkpt lat="48.40974" lon="7.46581">
        <ele>185.3</ele>
        <time>2019-08-09T10:15:56Z</time>
      </trkpt>
      <trkpt lat="48.40971" lon="7.46574">
        <ele>185.4</ele>
        <time>2019-08-09T10:15:57Z</time>
      </trkpt>
      <trkpt lat="48.40969" lon="7.46569">
        <ele>185.4</ele>
        <time>2019-08-09T10:15:58Z</time>
      </trkpt>
      <trkpt lat="48.40967" lon="7.46564">
        <ele>185.5</ele>
        <time>2019-08-09T10:15:59Z</time>
      </trkpt>
      <trkpt lat="48.40964" lon="7.46559">
        <ele>185.6</ele>
        <time>2019-08-09T10:16:00Z</time>
      </trkpt>
      <trkpt lat="48.40962" lon="7.46553">
        <ele>185.7</ele>
        <time>2019-08-09T10:16:01Z</time>
      </trkpt>
      <trkpt lat="48.4096" lon="7.46546">
        <ele>185.8</ele>
        <time>2019-08-09T10:16:02Z</time>
      </trkpt>
      <trkpt lat="48.40958" lon="7.46539">
        <ele>185.9</ele>
        <time>2019-08-09T10:16:03Z</time>
      </trkpt>
      <trkpt lat="48.40957" lon="7.46533">
        <ele>186</ele>
        <time>2019-08-09T10:16:04Z</time>
      </trkpt>
      <trkpt lat="48.40955" lon="7.46526">
        <ele>186.1</ele>
        <time>2019-08-09T10:16:05Z</time>
      </trkpt>
      <trkpt lat="48.40953" lon="7.4652">
        <ele>186.1</ele>
        <time>2019-08-09T10:16:06Z</time>
      </trkpt>
      <trkpt lat="48.40951" lon="7.46515">
        <ele>186.2</ele>
        <time>2019-08-09T10:16:07Z</time>
      </trkpt>
      <trkpt lat="48.40949" lon="7.46509">
        <ele>186.2</ele>
        <time>2019-08-09T10:16:08Z</time>
      </trkpt>
      <trkpt lat="48.40946" lon="7.46505">
        <ele>186.2</ele>
        <time>2019-08-09T10:16:09Z</time>
      </trkpt>
      <trkpt lat="48.40944" lon="7.46501">
        <ele>186.3</ele>
        <time>2019-08-09T10:16:10Z</time>
      </trkpt>
      <trkpt lat="48.4094" lon="7.46497">
        <ele>186.4</ele>
        <time>2019-08-09T10:16:11Z</time>
      </trkpt>
      <trkpt lat="48.40938" lon="7.46493">
        <ele>186.5</ele>
        <time>2019-08-09T10:16:12Z</time>
      </trkpt>
      <trkpt lat="48.40934" lon="7.46488">
        <ele>186.7</ele>
        <time>2019-08-09T10:16:13Z</time>
      </trkpt>
      <trkpt lat="48.40931" lon="7.46483">
        <ele>186.9</ele>
        <time>2019-08-09T10:16:14Z</time>
      </trkpt>
      <trkpt lat="48.40928" lon="7.46477">
        <ele>187.1</ele>
        <time>2019-08-09T10:16:15Z</time>
      </trkpt>
      <trkpt lat="48.40926" lon="7.46473">
        <ele>187.2</ele>
        <time>2019-08-09T10:16:16Z</time>
      </trkpt>
      <trkpt lat="48.40923" lon="7.46468">
        <ele>187.4</ele>
        <time>2019-08-09T10:16:17Z</time>
      </trkpt>
      <trkpt lat="48.40921" lon="7.46464">
        <ele>187.6</ele>
        <time>2019-08-09T10:16:18Z</time>
      </trkpt>
      <trkpt lat="48.40918" lon="7.46461">
        <ele>187.7</ele>
        <time>2019-08-09T10:16:19Z</time>
      </trkpt>
      <trkpt lat="48.40916" lon="7.46458">
        <ele>187.9</ele>
        <time>2019-08-09T10:16:20Z</time>
      </trkpt>
      <trkpt lat="48.40913" lon="7.46455">
        <ele>188.1</ele>
        <time>2019-08-09T10:16:21Z</time>
      </trkpt>
      <trkpt lat="48.4091" lon="7.46451">
        <ele>188.3</ele>
        <time>2019-08-09T10:16:22Z</time>
      </trkpt>
      <trkpt lat="48.40907" lon="7.46448">
        <ele>188.5</ele>
        <time>2019-08-09T10:16:23Z</time>
      </trkpt>
      <trkpt lat="48.40904" lon="7.46445">
        <ele>188.7</ele>
        <time>2019-08-09T10:16:24Z</time>
      </trkpt>
      <trkpt lat="48.40902" lon="7.46441">
        <ele>188.9</ele>
        <time>2019-08-09T10:16:25Z</time>
      </trkpt>
      <trkpt lat="48.40899" lon="7.46437">
        <ele>189.1</ele>
        <time>2019-08-09T10:16:26Z</time>
      </trkpt>
      <trkpt lat="48.40897" lon="7.46433">
        <ele>189.3</ele>
        <time>2019-08-09T10:16:27Z</time>
      </trkpt>
      <trkpt lat="48.40895" lon="7.46427">
        <ele>189.6</ele>
        <time>2019-08-09T10:16:28Z</time>
      </trkpt>
      <trkpt lat="48.40893" lon="7.46421">
        <ele>189.7</ele>
        <time>2019-08-09T10:16:29Z</time>
      </trkpt>
      <trkpt lat="48.40891" lon="7.46417">
        <ele>189.8</ele>
        <time>2019-08-09T10:16:30Z</time>
      </trkpt>
      <trkpt lat="48.40889" lon="7.46412">
        <ele>189.9</ele>
        <time>2019-08-09T10:16:31Z</time>
      </trkpt>
      <trkpt lat="48.40886" lon="7.46406">
        <ele>190.1</ele>
        <time>2019-08-09T10:16:32Z</time>
      </trkpt>
      <trkpt lat="48.40884" lon="7.46401">
        <ele>190.2</ele>
        <time>2019-08-09T10:16:33Z</time>
      </trkpt>
      <trkpt lat="48.40883" lon="7.46397">
        <ele>190.3</ele>
        <time>2019-08-09T10:16:34Z</time>
      </trkpt>
      <trkpt lat="48.40881" lon="7.46391">
        <ele>190.4</ele>
        <time>2019-08-09T10:16:35Z</time>
      </trkpt>
      <trkpt lat="48.4088" lon="7.46386">
        <ele>190.6</ele>
        <time>2019-08-09T10:16:36Z</time>
      </trkpt>
      <trkpt lat="48.40879" lon="7.46381">
        <ele>190.8</ele>
        <time>2019-08-09T10:16:37Z</time>
      </trkpt>
      <trkpt lat="48.40878" lon="7.46374">
        <ele>190.9</ele>
        <time>2019-08-09T10:16:38Z</time>
      </trkpt>
      <trkpt lat="48.40877" lon="7.46368">
        <ele>191.1</ele>
        <time>2019-08-09T10:16:39Z</time>
      </trkpt>
      <trkpt lat="48.40875" lon="7.46362">
        <ele>191.2</ele>
        <time>2019-08-09T10:16:40Z</time>
      </trkpt>
      <trkpt lat="48.40874" lon="7.46355">
        <ele>191.3</ele>
        <time>2019-08-09T10:16:41Z</time>
      </trkpt>
      <trkpt lat="48.40874" lon="7.46348">
        <ele>191.4</ele>
        <time>2019-08-09T10:16:42Z</time>
      </trkpt>
      <trkpt lat="48.40874" lon="7.46342">
        <ele>191.6</ele>
        <time>2019-08-09T10:16:43Z</time>
      </trkpt>
      <trkpt lat="48.40874" lon="7.46335">
        <ele>191.7</ele>
        <time>2019-08-09T10:16:44Z</time>
      </trkpt>
      <trkpt lat="48.40873" lon="7.46328">
        <ele>191.8</ele>
        <time>2019-08-09T10:16:45Z</time>
      </trkpt>
      <trkpt lat="48.40873" lon="7.46323">
        <ele>191.9</ele>
        <time>2019-08-09T10:16:46Z</time>
      </trkpt>
      <trkpt lat="48.40873" lon="7.46316">
        <ele>192</ele>
        <time>2019-08-09T10:16:47Z</time>
      </trkpt>
      <trkpt lat="48.40873" lon="7.46311">
        <ele>192.1</ele>
        <time>2019-08-09T10:16:48Z</time>
      </trkpt>
      <trkpt lat="48.40873" lon="7.46304">
        <ele>192.2</ele>
        <time>2019-08-09T10:16:49Z</time>
      </trkpt>
      <trkpt lat="48.40872" lon="7.46298">
        <ele>192.3</ele>
        <time>2019-08-09T10:16:50Z</time>
      </trkpt>
      <trkpt lat="48.40872" lon="7.46292">
        <ele>192.4</ele>
        <time>2019-08-09T10:16:51Z</time>
      </trkpt>
      <trkpt lat="48.40872" lon="7.46285">
        <ele>192.5</ele>
        <time>2019-08-09T10:16:52Z</time>
      </trkpt>
      <trkpt lat="48.40871" lon="7.46278">
        <ele>192.6</ele>
        <time>2019-08-09T10:16:53Z</time>
      </trkpt>
      <trkpt lat="48.40871" lon="7.46272">
        <ele>192.7</ele>
        <time>2019-08-09T10:16:54Z</time>
      </trkpt>
      <trkpt lat="48.4087" lon="7.46267">
        <ele>192.7</ele>
        <time>2019-08-09T10:16:55Z</time>
      </trkpt>
      <trkpt lat="48.4087" lon="7.4626">
        <ele>192.9</ele>
        <time>2019-08-09T10:16:56Z</time>
      </trkpt>
      <trkpt lat="48.40869" lon="7.46254">
        <ele>192.9</ele>
        <time>2019-08-09T10:16:57Z</time>
      </trkpt>
      <trkpt lat="48.40868" lon="7.46249">
        <ele>193</ele>
        <time>2019-08-09T10:16:58Z</time>
      </trkpt>
      <trkpt lat="48.40868" lon="7.46242">
        <ele>193.1</ele>
        <time>2019-08-09T10:16:59Z</time>
      </trkpt>
      <trkpt lat="48.40869" lon="7.46234">
        <ele>193.3</ele>
        <time>2019-08-09T10:17:00Z</time>
      </trkpt>
      <trkpt lat="48.40869" lon="7.46227">
        <ele>193.3</ele>
        <time>2019-08-09T10:17:01Z</time>
      </trkpt>
      <trkpt lat="48.40868" lon="7.4622">
        <ele>193.4</ele>
        <time>2019-08-09T10:17:02Z</time>
      </trkpt>
      <trkpt lat="48.40868" lon="7.46214">
        <ele>193.5</ele>
        <time>2019-08-09T10:17:03Z</time>
      </trkpt>
      <trkpt lat="48.40868" lon="7.46208">
        <ele>193.6</ele>
        <time>2019-08-09T10:17:04Z</time>
      </trkpt>
      <trkpt lat="48.40868" lon="7.46203">
        <ele>193.6</ele>
        <time>2019-08-09T10:17:05Z</time>
      </trkpt>
      <trkpt lat="48.40867" lon="7.46198">
        <ele>193.6</ele>
        <time>2019-08-09T10:17:06Z</time>
      </trkpt>
      <trkpt lat="48.40867" lon="7.46192">
        <ele>193.7</ele>
        <time>2019-08-09T10:17:07Z</time>
      </trkpt>
      <trkpt lat="48.40866" lon="7.46188">
        <ele>193.7</ele>
        <time>2019-08-09T10:17:08Z</time>
      </trkpt>
      <trkpt lat="48.40866" lon="7.46182">
        <ele>193.8</ele>
        <time>2019-08-09T10:17:09Z</time>
      </trkpt>
      <trkpt lat="48.40865" lon="7.46178">
        <ele>193.8</ele>
        <time>2019-08-09T10:17:10Z</time>
      </trkpt>
      <trkpt lat="48.40864" lon="7.46173">
        <ele>193.8</ele>
        <time>2019-08-09T10:17:11Z</time>
      </trkpt>
      <trkpt lat="48.40864" lon="7.46168">
        <ele>193.9</ele>
        <time>2019-08-09T10:17:12Z</time>
      </trkpt>
      <trkpt lat="48.40865" lon="7.46161">
        <ele>193.9</ele>
        <time>2019-08-09T10:17:13Z</time>
      </trkpt>
      <trkpt lat="48.40865" lon="7.46155">
        <ele>194</ele>
        <time>2019-08-09T10:17:14Z</time>
      </trkpt>
      <trkpt lat="48.40865" lon="7.46149">
        <ele>194</ele>
        <time>2019-08-09T10:17:15Z</time>
      </trkpt>
      <trkpt lat="48.40865" lon="7.46143">
        <ele>194.1</ele>
        <time>2019-08-09T10:17:16Z</time>
      </trkpt>
      <trkpt lat="48.40864" lon="7.46137">
        <ele>194.1</ele>
        <time>2019-08-09T10:17:17Z</time>
      </trkpt>
      <trkpt lat="48.40863" lon="7.46132">
        <ele>194.2</ele>
        <time>2019-08-09T10:17:18Z</time>
      </trkpt>
      <trkpt lat="48.40862" lon="7.46127">
        <ele>194.2</ele>
        <time>2019-08-09T10:17:19Z</time>
      </trkpt>
      <trkpt lat="48.40862" lon="7.46122">
        <ele>194.3</ele>
        <time>2019-08-09T10:17:20Z</time>
      </trkpt>
      <trkpt lat="48.40861" lon="7.46116">
        <ele>194.3</ele>
        <time>2019-08-09T10:17:21Z</time>
      </trkpt>
      <trkpt lat="48.40861" lon="7.4611">
        <ele>194.4</ele>
        <time>2019-08-09T10:17:22Z</time>
      </trkpt>
      <trkpt lat="48.4086" lon="7.46103">
        <ele>194.4</ele>
        <time>2019-08-09T10:17:23Z</time>
      </trkpt>
      <trkpt lat="48.40859" lon="7.46098">
        <ele>194.5</ele>
        <time>2019-08-09T10:17:24Z</time>
      </trkpt>
      <trkpt lat="48.40858" lon="7.46092">
        <ele>194.5</ele>
        <time>2019-08-09T10:17:25Z</time>
      </trkpt>
      <trkpt lat="48.40858" lon="7.46085">
        <ele>194.5</ele>
        <time>2019-08-09T10:17:26Z</time>
      </trkpt>
      <trkpt lat="48.40857" lon="7.46078">
        <ele>194.5</ele>
        <time>2019-08-09T10:17:27Z</time>
      </trkpt>
      <trkpt lat="48.40856" lon="7.46073">
        <ele>194.5</ele>
        <time>2019-08-09T10:17:28Z</time>
      </trkpt>
      <trkpt lat="48.40855" lon="7.46067">
        <ele>194.5</ele>
        <time>2019-08-09T10:17:29Z</time>
      </trkpt>
      <trkpt lat="48.40854" lon="7.46061">
        <ele>194.5</ele>
        <time>2019-08-09T10:17:30Z</time>
      </trkpt>
      <trkpt lat="48.40852" lon="7.46056">
        <ele>194.5</ele>
        <time>2019-08-09T10:17:31Z</time>
      </trkpt>
      <trkpt lat="48.40852" lon="7.46051">
        <ele>194.5</ele>
        <time>2019-08-09T10:17:32Z</time>
      </trkpt>
      <trkpt lat="48.40851" lon="7.46044">
        <ele>194.5</ele>
        <time>2019-08-09T10:17:33Z</time>
      </trkpt>
      <trkpt lat="48.40851" lon="7.46038">
        <ele>194.4</ele>
        <time>2019-08-09T10:17:34Z</time>
      </trkpt>
      <trkpt lat="48.4085" lon="7.46033">
        <ele>194.4</ele>
        <time>2019-08-09T10:17:35Z</time>
      </trkpt>
      <trkpt lat="48.40849" lon="7.46027">
        <ele>194.4</ele>
        <time>2019-08-09T10:17:36Z</time>
      </trkpt>
      <trkpt lat="48.40849" lon="7.46021">
        <ele>194.4</ele>
        <time>2019-08-09T10:17:37Z</time>
      </trkpt>
      <trkpt lat="48.40848" lon="7.46016">
        <ele>194.4</ele>
        <time>2019-08-09T10:17:38Z</time>
      </trkpt>
      <trkpt lat="48.40847" lon="7.4601">
        <ele>194.3</ele>
        <time>2019-08-09T10:17:39Z</time>
      </trkpt>
      <trkpt lat="48.40845" lon="7.46005">
        <ele>194.3</ele>
        <time>2019-08-09T10:17:40Z</time>
      </trkpt>
      <trkpt lat="48.40844" lon="7.45998">
        <ele>194.3</ele>
        <time>2019-08-09T10:17:41Z</time>
      </trkpt>
      <trkpt lat="48.40842" lon="7.45994">
        <ele>194.3</ele>
        <time>2019-08-09T10:17:42Z</time>
      </trkpt>
      <trkpt lat="48.40841" lon="7.45988">
        <ele>194.4</ele>
        <time>2019-08-09T10:17:43Z</time>
      </trkpt>
      <trkpt lat="48.40841" lon="7.45981">
        <ele>194.4</ele>
        <time>2019-08-09T10:17:44Z</time>
      </trkpt>
      <trkpt lat="48.4084" lon="7.45975">
        <ele>194.4</ele>
        <time>2019-08-09T10:17:45Z</time>
      </trkpt>
      <trkpt lat="48.40839" lon="7.45969">
        <ele>194.4</ele>
        <time>2019-08-09T10:17:46Z</time>
      </trkpt>
      <trkpt lat="48.40838" lon="7.45965">
        <ele>194.4</ele>
        <time>2019-08-09T10:17:47Z</time>
      </trkpt>
      <trkpt lat="48.40837" lon="7.4596">
        <ele>194.4</ele>
        <time>2019-08-09T10:17:48Z</time>
      </trkpt>
      <trkpt lat="48.40837" lon="7.45956">
        <ele>194.5</ele>
        <time>2019-08-09T10:17:49Z</time>
      </trkpt>
      <trkpt lat="48.40836" lon="7.4595">
        <ele>194.5</ele>
        <time>2019-08-09T10:17:50Z</time>
      </trkpt>
      <trkpt lat="48.40835" lon="7.45945">
        <ele>194.5</ele>
        <time>2019-08-09T10:17:51Z</time>
      </trkpt>
      <trkpt lat="48.40834" lon="7.45939">
        <ele>194.5</ele>
        <time>2019-08-09T10:17:52Z</time>
      </trkpt>
      <trkpt lat="48.40832" lon="7.45933">
        <ele>194.5</ele>
        <time>2019-08-09T10:17:53Z</time>
      </trkpt>
      <trkpt lat="48.4083" lon="7.45924">
        <ele>194.5</ele>
        <time>2019-08-09T10:17:54Z</time>
      </trkpt>
      <trkpt lat="48.40828" lon="7.45918">
        <ele>194.6</ele>
        <time>2019-08-09T10:17:55Z</time>
      </trkpt>
      <trkpt lat="48.40827" lon="7.45912">
        <ele>194.6</ele>
        <time>2019-08-09T10:17:56Z</time>
      </trkpt>
      <trkpt lat="48.40825" lon="7.45906">
        <ele>194.6</ele>
        <time>2019-08-09T10:17:57Z</time>
      </trkpt>
      <trkpt lat="48.40824" lon="7.459">
        <ele>194.6</ele>
        <time>2019-08-09T10:17:58Z</time>
      </trkpt>
      <trkpt lat="48.40823" lon="7.45895">
        <ele>194.6</ele>
        <time>2019-08-09T10:17:59Z</time>
      </trkpt>
      <trkpt lat="48.40822" lon="7.4589">
        <ele>194.6</ele>
        <time>2019-08-09T10:18:00Z</time>
      </trkpt>
      <trkpt lat="48.4082" lon="7.45884">
        <ele>194.6</ele>
        <time>2019-08-09T10:18:01Z</time>
      </trkpt>
      <trkpt lat="48.4082" lon="7.45879">
        <ele>194.7</ele>
        <time>2019-08-09T10:18:02Z</time>
      </trkpt>
      <trkpt lat="48.40818" lon="7.45874">
        <ele>194.7</ele>
        <time>2019-08-09T10:18:03Z</time>
      </trkpt>
      <trkpt lat="48.40818" lon="7.45868">
        <ele>194.7</ele>
        <time>2019-08-09T10:18:04Z</time>
      </trkpt>
      <trkpt lat="48.40817" lon="7.45861">
        <ele>194.7</ele>
        <time>2019-08-09T10:18:05Z</time>
      </trkpt>
      <trkpt lat="48.40816" lon="7.45855">
        <ele>194.8</ele>
        <time>2019-08-09T10:18:06Z</time>
      </trkpt>
      <trkpt lat="48.40814" lon="7.45849">
        <ele>194.8</ele>
        <time>2019-08-09T10:18:07Z</time>
      </trkpt>
      <trkpt lat="48.40813" lon="7.45843">
        <ele>194.9</ele>
        <time>2019-08-09T10:18:08Z</time>
      </trkpt>
      <trkpt lat="48.40811" lon="7.45838">
        <ele>194.9</ele>
        <time>2019-08-09T10:18:09Z</time>
      </trkpt>
      <trkpt lat="48.40809" lon="7.45831">
        <ele>195</ele>
        <time>2019-08-09T10:18:10Z</time>
      </trkpt>
      <trkpt lat="48.40807" lon="7.45825">
        <ele>195</ele>
        <time>2019-08-09T10:18:11Z</time>
      </trkpt>
      <trkpt lat="48.40806" lon="7.45817">
        <ele>195</ele>
        <time>2019-08-09T10:18:12Z</time>
      </trkpt>
      <trkpt lat="48.40805" lon="7.4581">
        <ele>195</ele>
        <time>2019-08-09T10:18:13Z</time>
      </trkpt>
      <trkpt lat="48.40804" lon="7.45804">
        <ele>195.1</ele>
        <time>2019-08-09T10:18:14Z</time>
      </trkpt>
      <trkpt lat="48.40802" lon="7.45799">
        <ele>195.1</ele>
        <time>2019-08-09T10:18:15Z</time>
      </trkpt>
      <trkpt lat="48.40801" lon="7.45794">
        <ele>195.1</ele>
        <time>2019-08-09T10:18:16Z</time>
      </trkpt>
      <trkpt lat="48.408" lon="7.45789">
        <ele>195.1</ele>
        <time>2019-08-09T10:18:17Z</time>
      </trkpt>
      <trkpt lat="48.40799" lon="7.45783">
        <ele>195.1</ele>
        <time>2019-08-09T10:18:18Z</time>
      </trkpt>
      <trkpt lat="48.40798" lon="7.45779">
        <ele>195.1</ele>
        <time>2019-08-09T10:18:19Z</time>
      </trkpt>
      <trkpt lat="48.40797" lon="7.45774">
        <ele>195.1</ele>
        <time>2019-08-09T10:18:20Z</time>
      </trkpt>
      <trkpt lat="48.40796" lon="7.45769">
        <ele>195.1</ele>
        <time>2019-08-09T10:18:21Z</time>
      </trkpt>
      <trkpt lat="48.40795" lon="7.45764">
        <ele>195.1</ele>
        <time>2019-08-09T10:18:22Z</time>
      </trkpt>
      <trkpt lat="48.40793" lon="7.45759">
        <ele>195.1</ele>
        <time>2019-08-09T10:18:23Z</time>
      </trkpt>
      <trkpt lat="48.40793" lon="7.45752">
        <ele>195.1</ele>
        <time>2019-08-09T10:18:24Z</time>
      </trkpt>
      <trkpt lat="48.40792" lon="7.45746">
        <ele>195.1</ele>
        <time>2019-08-09T10:18:25Z</time>
      </trkpt>
      <trkpt lat="48.40792" lon="7.45741">
        <ele>195.1</ele>
        <time>2019-08-09T10:18:26Z</time>
      </trkpt>
      <trkpt lat="48.40791" lon="7.45736">
        <ele>195.1</ele>
        <time>2019-08-09T10:18:27Z</time>
      </trkpt>
      <trkpt lat="48.40791" lon="7.45731">
        <ele>195.1</ele>
        <time>2019-08-09T10:18:28Z</time>
      </trkpt>
      <trkpt lat="48.40791" lon="7.45725">
        <ele>195.1</ele>
        <time>2019-08-09T10:18:29Z</time>
      </trkpt>
      <trkpt lat="48.40792" lon="7.4572">
        <ele>195.2</ele>
        <time>2019-08-09T10:18:30Z</time>
      </trkpt>
      <trkpt lat="48.40792" lon="7.45716">
        <ele>195.2</ele>
        <time>2019-08-09T10:18:31Z</time>
      </trkpt>
      <trkpt lat="48.40792" lon="7.45711">
        <ele>195.2</ele>
        <time>2019-08-09T10:18:32Z</time>
      </trkpt>
      <trkpt lat="48.40791" lon="7.45706">
        <ele>195.2</ele>
        <time>2019-08-09T10:18:33Z</time>
      </trkpt>
      <trkpt lat="48.40792" lon="7.45701">
        <ele>195.3</ele>
        <time>2019-08-09T10:18:34Z</time>
      </trkpt>
      <trkpt lat="48.40792" lon="7.45696">
        <ele>195.3</ele>
        <time>2019-08-09T10:18:35Z</time>
      </trkpt>
      <trkpt lat="48.40793" lon="7.4569">
        <ele>195.3</ele>
        <time>2019-08-09T10:18:36Z</time>
      </trkpt>
      <trkpt lat="48.40794" lon="7.45685">
        <ele>195.4</ele>
        <time>2019-08-09T10:18:37Z</time>
      </trkpt>
      <trkpt lat="48.40794" lon="7.4568">
        <ele>195.4</ele>
        <time>2019-08-09T10:18:38Z</time>
      </trkpt>
      <trkpt lat="48.40796" lon="7.45675">
        <ele>195.4</ele>
        <time>2019-08-09T10:18:39Z</time>
      </trkpt>
      <trkpt lat="48.40798" lon="7.45672">
        <ele>195.5</ele>
        <time>2019-08-09T10:18:40Z</time>
      </trkpt>
      <trkpt lat="48.408" lon="7.4567">
        <ele>195.5</ele>
        <time>2019-08-09T10:18:41Z</time>
      </trkpt>
      <trkpt lat="48.40803" lon="7.45663">
        <ele>195.4</ele>
        <time>2019-08-09T10:18:43Z</time>
      </trkpt>
      <trkpt lat="48.40803" lon="7.45658">
        <ele>195.4</ele>
        <time>2019-08-09T10:18:44Z</time>
      </trkpt>
      <trkpt lat="48.40801" lon="7.45652">
        <ele>195.4</ele>
        <time>2019-08-09T10:18:46Z</time>
      </trkpt>
      <trkpt lat="48.40797" lon="7.4565">
        <ele>195.4</ele>
        <time>2019-08-09T10:18:48Z</time>
      </trkpt>
      <trkpt lat="48.40793" lon="7.45653">
        <ele>195.9</ele>
        <time>2019-08-09T10:18:50Z</time>
      </trkpt>
      <trkpt lat="48.4079" lon="7.45659">
        <ele>195.5</ele>
        <time>2019-08-09T10:18:52Z</time>
      </trkpt>
      <trkpt lat="48.40791" lon="7.45665">
        <ele>195.5</ele>
        <time>2019-08-09T10:18:54Z</time>
      </trkpt>
      <trkpt lat="48.40794" lon="7.4567">
        <ele>195.5</ele>
        <time>2019-08-09T10:18:56Z</time>
      </trkpt>
      <trkpt lat="48.40799" lon="7.45669">
        <ele>195.5</ele>
        <time>2019-08-09T10:18:58Z</time>
      </trkpt>
      <trkpt lat="48.40803" lon="7.45667">
        <ele>195.5</ele>
        <time>2019-08-09T10:19:00Z</time>
      </trkpt>
      <trkpt lat="48.40807" lon="7.45667">
        <ele>195.5</ele>
        <time>2019-08-09T10:19:02Z</time>
      </trkpt>
      <trkpt lat="48.40812" lon="7.45669">
        <ele>195.5</ele>
        <time>2019-08-09T10:19:04Z</time>
      </trkpt>
      <trkpt lat="48.40815" lon="7.45675">
        <ele>195.5</ele>
        <time>2019-08-09T10:19:06Z</time>
      </trkpt>
      <trkpt lat="48.40813" lon="7.45681">
        <ele>195.5</ele>
        <time>2019-08-09T10:19:08Z</time>
      </trkpt>
      <trkpt lat="48.40809" lon="7.45685">
        <ele>195.5</ele>
        <time>2019-08-09T10:19:10Z</time>
      </trkpt>
      <trkpt lat="48.40806" lon="7.45686">
        <ele>195.5</ele>
        <time>2019-08-09T10:19:12Z</time>
      </trkpt>
      <trkpt lat="48.40803" lon="7.45687">
        <ele>195.5</ele>
        <time>2019-08-09T10:19:14Z</time>
      </trkpt>
      <trkpt lat="48.408" lon="7.45687">
        <ele>195.5</ele>
        <time>2019-08-09T10:19:22Z</time>
      </trkpt>
      <trkpt lat="48.40799" lon="7.45693">
        <ele>195.5</ele>
        <time>2019-08-09T10:19:40Z</time>
      </trkpt>
      <trkpt lat="48.40801" lon="7.45696">
        <ele>195.5</ele>
        <time>2019-08-09T10:19:43Z</time>
      </trkpt>
      <trkpt lat="48.40802" lon="7.45691">
        <ele>195.5</ele>
        <time>2019-08-09T10:19:45Z</time>
      </trkpt>
      <trkpt lat="48.40802" lon="7.45686">
        <ele>195.5</ele>
        <time>2019-08-09T10:19:47Z</time>
      </trkpt>
      <trkpt lat="48.40799" lon="7.45687">
        <ele>195.5</ele>
        <time>2019-08-09T10:19:49Z</time>
      </trkpt>
      <trkpt lat="48.40795" lon="7.45685">
        <ele>195.5</ele>
        <time>2019-08-09T10:19:52Z</time>
      </trkpt>
      <trkpt lat="48.40794" lon="7.4568">
        <ele>195.5</ele>
        <time>2019-08-09T10:19:55Z</time>
      </trkpt>
      <trkpt lat="48.40795" lon="7.45675">
        <ele>195.5</ele>
        <time>2019-08-09T10:19:57Z</time>
      </trkpt>
      <trkpt lat="48.40798" lon="7.4567">
        <ele>195.5</ele>
        <time>2019-08-09T10:19:59Z</time>
      </trkpt>
      <trkpt lat="48.40801" lon="7.45665">
        <ele>195.4</ele>
        <time>2019-08-09T10:20:01Z</time>
      </trkpt>
      <trkpt lat="48.40803" lon="7.45658">
        <ele>195.5</ele>
        <time>2019-08-09T10:20:03Z</time>
      </trkpt>
      <trkpt lat="48.40801" lon="7.45652">
        <ele>195.6</ele>
        <time>2019-08-09T10:20:05Z</time>
      </trkpt>
      <trkpt lat="48.40797" lon="7.45652">
        <ele>195.7</ele>
        <time>2019-08-09T10:20:07Z</time>
      </trkpt>
      <trkpt lat="48.40794" lon="7.45654">
        <ele>195.8</ele>
        <time>2019-08-09T10:20:08Z</time>
      </trkpt>
      <trkpt lat="48.4079" lon="7.45657">
        <ele>195.9</ele>
        <time>2019-08-09T10:20:10Z</time>
      </trkpt>
      <trkpt lat="48.40786" lon="7.45661">
        <ele>196.1</ele>
        <time>2019-08-09T10:20:12Z</time>
      </trkpt>
      <trkpt lat="48.40785" lon="7.45666">
        <ele>196.2</ele>
        <time>2019-08-09T10:20:19Z</time>
      </trkpt>
      <trkpt lat="48.40785" lon="7.45661">
        <ele>196.3</ele>
        <time>2019-08-09T10:20:55Z</time>
      </trkpt>
      <trkpt lat="48.40781" lon="7.4566">
        <ele>196.4</ele>
        <time>2019-08-09T10:21:04Z</time>
      </trkpt>
      <trkpt lat="48.40778" lon="7.45659">
        <ele>196.5</ele>
        <time>2019-08-09T10:21:06Z</time>
      </trkpt>
      <trkpt lat="48.40775" lon="7.45659">
        <ele>196.6</ele>
        <time>2019-08-09T10:21:07Z</time>
      </trkpt>
      <trkpt lat="48.4077" lon="7.45661">
        <ele>196.7</ele>
        <time>2019-08-09T10:21:09Z</time>
      </trkpt>
      <trkpt lat="48.40765" lon="7.45663">
        <ele>196.7</ele>
        <time>2019-08-09T10:21:11Z</time>
      </trkpt>
      <trkpt lat="48.40761" lon="7.45665">
        <ele>196.8</ele>
        <time>2019-08-09T10:21:13Z</time>
      </trkpt>
      <trkpt lat="48.40756" lon="7.45669">
        <ele>196.9</ele>
        <time>2019-08-09T10:21:15Z</time>
      </trkpt>
      <trkpt lat="48.40751" lon="7.4567">
        <ele>196.9</ele>
        <time>2019-08-09T10:21:17Z</time>
      </trkpt>
      <trkpt lat="48.40745" lon="7.45672">
        <ele>197</ele>
        <time>2019-08-09T10:21:19Z</time>
      </trkpt>
      <trkpt lat="48.40742" lon="7.45673">
        <ele>197</ele>
        <time>2019-08-09T10:21:20Z</time>
      </trkpt>
      <trkpt lat="48.40739" lon="7.45675">
        <ele>197.1</ele>
        <time>2019-08-09T10:21:21Z</time>
      </trkpt>
      <trkpt lat="48.40735" lon="7.45676">
        <ele>197.2</ele>
        <time>2019-08-09T10:21:22Z</time>
      </trkpt>
      <trkpt lat="48.40731" lon="7.45678">
        <ele>197.2</ele>
        <time>2019-08-09T10:21:23Z</time>
      </trkpt>
      <trkpt lat="48.40728" lon="7.4568">
        <ele>197.3</ele>
        <time>2019-08-09T10:21:24Z</time>
      </trkpt>
      <trkpt lat="48.40724" lon="7.45682">
        <ele>197.4</ele>
        <time>2019-08-09T10:21:25Z</time>
      </trkpt>
      <trkpt lat="48.4072" lon="7.45682">
        <ele>197.4</ele>
        <time>2019-08-09T10:21:26Z</time>
      </trkpt>
      <trkpt lat="48.40717" lon="7.45684">
        <ele>197.4</ele>
        <time>2019-08-09T10:21:27Z</time>
      </trkpt>
      <trkpt lat="48.40714" lon="7.45686">
        <ele>197.4</ele>
        <time>2019-08-09T10:21:28Z</time>
      </trkpt>
      <trkpt lat="48.4071" lon="7.45688">
        <ele>197.3</ele>
        <time>2019-08-09T10:21:29Z</time>
      </trkpt>
      <trkpt lat="48.40707" lon="7.45691">
        <ele>197.3</ele>
        <time>2019-08-09T10:21:30Z</time>
      </trkpt>
      <trkpt lat="48.40703" lon="7.45693">
        <ele>197.3</ele>
        <time>2019-08-09T10:21:31Z</time>
      </trkpt>
      <trkpt lat="48.407" lon="7.45696">
        <ele>197.2</ele>
        <time>2019-08-09T10:21:32Z</time>
      </trkpt>
      <trkpt lat="48.40697" lon="7.45698">
        <ele>197.2</ele>
        <time>2019-08-09T10:21:33Z</time>
      </trkpt>
      <trkpt lat="48.40693" lon="7.45701">
        <ele>197.2</ele>
        <time>2019-08-09T10:21:34Z</time>
      </trkpt>
      <trkpt lat="48.4069" lon="7.45703">
        <ele>197.1</ele>
        <time>2019-08-09T10:21:35Z</time>
      </trkpt>
      <trkpt lat="48.40687" lon="7.45706">
        <ele>197.1</ele>
        <time>2019-08-09T10:21:36Z</time>
      </trkpt>
      <trkpt lat="48.40683" lon="7.45709">
        <ele>197</ele>
        <time>2019-08-09T10:21:37Z</time>
      </trkpt>
      <trkpt lat="48.4068" lon="7.45711">
        <ele>197</ele>
        <time>2019-08-09T10:21:38Z</time>
      </trkpt>
      <trkpt lat="48.40676" lon="7.45713">
        <ele>197</ele>
        <time>2019-08-09T10:21:39Z</time>
      </trkpt>
      <trkpt lat="48.40673" lon="7.45716">
        <ele>197</ele>
        <time>2019-08-09T10:21:40Z</time>
      </trkpt>
      <trkpt lat="48.40669" lon="7.45719">
        <ele>197</ele>
        <time>2019-08-09T10:21:41Z</time>
      </trkpt>
      <trkpt lat="48.40666" lon="7.45722">
        <ele>197</ele>
        <time>2019-08-09T10:21:42Z</time>
      </trkpt>
      <trkpt lat="48.40662" lon="7.45724">
        <ele>197.1</ele>
        <time>2019-08-09T10:21:43Z</time>
      </trkpt>
      <trkpt lat="48.40659" lon="7.45726">
        <ele>197.1</ele>
        <time>2019-08-09T10:21:44Z</time>
      </trkpt>
      <trkpt lat="48.40655" lon="7.45729">
        <ele>197.1</ele>
        <time>2019-08-09T10:21:45Z</time>
      </trkpt>
      <trkpt lat="48.40652" lon="7.45731">
        <ele>197.2</ele>
        <time>2019-08-09T10:21:46Z</time>
      </trkpt>
      <trkpt lat="48.40648" lon="7.45734">
        <ele>197.2</ele>
        <time>2019-08-09T10:21:47Z</time>
      </trkpt>
      <trkpt lat="48.40645" lon="7.45736">
        <ele>197.3</ele>
        <time>2019-08-09T10:21:48Z</time>
      </trkpt>
      <trkpt lat="48.40641" lon="7.45737">
        <ele>197.3</ele>
        <time>2019-08-09T10:21:49Z</time>
      </trkpt>
      <trkpt lat="48.40638" lon="7.45739">
        <ele>197.3</ele>
        <time>2019-08-09T10:21:50Z</time>
      </trkpt>
      <trkpt lat="48.40634" lon="7.45741">
        <ele>197.4</ele>
        <time>2019-08-09T10:21:51Z</time>
      </trkpt>
      <trkpt lat="48.40631" lon="7.45744">
        <ele>197.4</ele>
        <time>2019-08-09T10:21:52Z</time>
      </trkpt>
      <trkpt lat="48.40627" lon="7.45746">
        <ele>197.4</ele>
        <time>2019-08-09T10:21:53Z</time>
      </trkpt>
      <trkpt lat="48.40623" lon="7.45748">
        <ele>197.5</ele>
        <time>2019-08-09T10:21:54Z</time>
      </trkpt>
      <trkpt lat="48.4062" lon="7.4575">
        <ele>197.5</ele>
        <time>2019-08-09T10:21:55Z</time>
      </trkpt>
      <trkpt lat="48.40616" lon="7.45751">
        <ele>197.5</ele>
        <time>2019-08-09T10:21:56Z</time>
      </trkpt>
      <trkpt lat="48.40612" lon="7.45752">
        <ele>197.6</ele>
        <time>2019-08-09T10:21:57Z</time>
      </trkpt>
      <trkpt lat="48.40608" lon="7.45753">
        <ele>197.6</ele>
        <time>2019-08-09T10:21:58Z</time>
      </trkpt>
      <trkpt lat="48.40605" lon="7.45753">
        <ele>197.7</ele>
        <time>2019-08-09T10:21:59Z</time>
      </trkpt>
      <trkpt lat="48.40601" lon="7.45752">
        <ele>197.7</ele>
        <time>2019-08-09T10:22:00Z</time>
      </trkpt>
      <trkpt lat="48.40597" lon="7.45751">
        <ele>197.8</ele>
        <time>2019-08-09T10:22:01Z</time>
      </trkpt>
      <trkpt lat="48.40594" lon="7.4575">
        <ele>197.9</ele>
        <time>2019-08-09T10:22:02Z</time>
      </trkpt>
      <trkpt lat="48.4059" lon="7.45749">
        <ele>198</ele>
        <time>2019-08-09T10:22:03Z</time>
      </trkpt>
      <trkpt lat="48.40587" lon="7.45747">
        <ele>198.2</ele>
        <time>2019-08-09T10:22:04Z</time>
      </trkpt>
      <trkpt lat="48.40583" lon="7.45746">
        <ele>198.3</ele>
        <time>2019-08-09T10:22:05Z</time>
      </trkpt>
      <trkpt lat="48.4058" lon="7.45745">
        <ele>198.4</ele>
        <time>2019-08-09T10:22:06Z</time>
      </trkpt>
      <trkpt lat="48.40576" lon="7.45745">
        <ele>198.6</ele>
        <time>2019-08-09T10:22:07Z</time>
      </trkpt>
      <trkpt lat="48.40573" lon="7.45744">
        <ele>198.7</ele>
        <time>2019-08-09T10:22:08Z</time>
      </trkpt>
      <trkpt lat="48.4057" lon="7.45744">
        <ele>198.8</ele>
        <time>2019-08-09T10:22:09Z</time>
      </trkpt>
      <trkpt lat="48.40567" lon="7.45744">
        <ele>198.9</ele>
        <time>2019-08-09T10:22:10Z</time>
      </trkpt>
      <trkpt lat="48.40564" lon="7.45743">
        <ele>199.1</ele>
        <time>2019-08-09T10:22:11Z</time>
      </trkpt>
      <trkpt lat="48.40561" lon="7.45742">
        <ele>199.2</ele>
        <time>2019-08-09T10:22:12Z</time>
      </trkpt>
      <trkpt lat="48.40556" lon="7.4574">
        <ele>199.4</ele>
        <time>2019-08-09T10:22:14Z</time>
      </trkpt>
      <trkpt lat="48.40551" lon="7.45738">
        <ele>199.7</ele>
        <time>2019-08-09T10:22:16Z</time>
      </trkpt>
      <trkpt lat="48.40548" lon="7.45737">
        <ele>199.8</ele>
        <time>2019-08-09T10:22:17Z</time>
      </trkpt>
      <trkpt lat="48.40543" lon="7.45735">
        <ele>200.1</ele>
        <time>2019-08-09T10:22:19Z</time>
      </trkpt>
      <trkpt lat="48.4054" lon="7.45734">
        <ele>200.3</ele>
        <time>2019-08-09T10:22:20Z</time>
      </trkpt>
      <trkpt lat="48.40537" lon="7.45732">
        <ele>200.5</ele>
        <time>2019-08-09T10:22:21Z</time>
      </trkpt>
      <trkpt lat="48.40534" lon="7.45731">
        <ele>200.6</ele>
        <time>2019-08-09T10:22:22Z</time>
      </trkpt>
      <trkpt lat="48.40532" lon="7.4573">
        <ele>200.8</ele>
        <time>2019-08-09T10:22:23Z</time>
      </trkpt>
      <trkpt lat="48.40529" lon="7.45728">
        <ele>201</ele>
        <time>2019-08-09T10:22:25Z</time>
      </trkpt>
      <trkpt lat="48.40526" lon="7.45726">
        <ele>201.3</ele>
        <time>2019-08-09T10:22:27Z</time>
      </trkpt>
      <trkpt lat="48.40524" lon="7.45722">
        <ele>201.8</ele>
        <time>2019-08-09T10:22:30Z</time>
      </trkpt>
      <trkpt lat="48.40523" lon="7.45717">
        <ele>201.9</ele>
        <time>2019-08-09T10:22:41Z</time>
      </trkpt>
      <trkpt lat="48.40525" lon="7.45712">
        <ele>201.9</ele>
        <time>2019-08-09T10:22:54Z</time>
      </trkpt>
      <trkpt lat="48.40525" lon="7.45704">
        <ele>202</ele>
        <time>2019-08-09T10:22:56Z</time>
      </trkpt>
      <trkpt lat="48.40525" lon="7.45699">
        <ele>202.1</ele>
        <time>2019-08-09T10:22:57Z</time>
      </trkpt>
      <trkpt lat="48.40525" lon="7.45691">
        <ele>202.1</ele>
        <time>2019-08-09T10:22:59Z</time>
      </trkpt>
      <trkpt lat="48.40525" lon="7.45687">
        <ele>202.1</ele>
        <time>2019-08-09T10:23:00Z</time>
      </trkpt>
      <trkpt lat="48.40525" lon="7.45682">
        <ele>202.1</ele>
        <time>2019-08-09T10:23:01Z</time>
      </trkpt>
      <trkpt lat="48.40526" lon="7.45676">
        <ele>202.1</ele>
        <time>2019-08-09T10:23:03Z</time>
      </trkpt>
      <trkpt lat="48.40527" lon="7.45672">
        <ele>202.1</ele>
        <time>2019-08-09T10:23:04Z</time>
      </trkpt>
      <trkpt lat="48.40523" lon="7.45675">
        <ele>202.1</ele>
        <time>2019-08-09T10:23:10Z</time>
      </trkpt>
      <trkpt lat="48.40522" lon="7.45679">
        <ele>202.1</ele>
        <time>2019-08-09T10:23:11Z</time>
      </trkpt>
      <trkpt lat="48.40519" lon="7.45684">
        <ele>202.1</ele>
        <time>2019-08-09T10:23:13Z</time>
      </trkpt>
      <trkpt lat="48.40516" lon="7.45688">
        <ele>202.1</ele>
        <time>2019-08-09T10:23:15Z</time>
      </trkpt>
      <trkpt lat="48.40516" lon="7.45693">
        <ele>202.1</ele>
        <time>2019-08-09T10:23:17Z</time>
      </trkpt>
      <trkpt lat="48.4052" lon="7.45688">
        <ele>202.1</ele>
        <time>2019-08-09T10:23:40Z</time>
      </trkpt>
      <trkpt lat="48.40522" lon="7.45681">
        <ele>202.1</ele>
        <time>2019-08-09T10:23:42Z</time>
      </trkpt>
      <trkpt lat="48.40524" lon="7.45674">
        <ele>202.1</ele>
        <time>2019-08-09T10:23:44Z</time>
      </trkpt>
      <trkpt lat="48.40525" lon="7.45668">
        <ele>202.2</ele>
        <time>2019-08-09T10:23:45Z</time>
      </trkpt>
      <trkpt lat="48.40527" lon="7.45662">
        <ele>202.2</ele>
        <time>2019-08-09T10:23:46Z</time>
      </trkpt>
      <trkpt lat="48.40527" lon="7.45656">
        <ele>202.2</ele>
        <time>2019-08-09T10:23:47Z</time>
      </trkpt>
      <trkpt lat="48.40528" lon="7.4565">
        <ele>202.2</ele>
        <time>2019-08-09T10:23:48Z</time>
      </trkpt>
      <trkpt lat="48.40529" lon="7.45646">
        <ele>202.2</ele>
        <time>2019-08-09T10:23:49Z</time>
      </trkpt>
      <trkpt lat="48.4053" lon="7.4564">
        <ele>202.2</ele>
        <time>2019-08-09T10:23:50Z</time>
      </trkpt>
      <trkpt lat="48.4053" lon="7.45634">
        <ele>202.2</ele>
        <time>2019-08-09T10:23:51Z</time>
      </trkpt>
      <trkpt lat="48.40531" lon="7.45628">
        <ele>202.2</ele>
        <time>2019-08-09T10:23:52Z</time>
      </trkpt>
      <trkpt lat="48.40532" lon="7.45623">
        <ele>202.3</ele>
        <time>2019-08-09T10:23:53Z</time>
      </trkpt>
      <trkpt lat="48.40532" lon="7.45616">
        <ele>202.3</ele>
        <time>2019-08-09T10:23:54Z</time>
      </trkpt>
      <trkpt lat="48.40532" lon="7.4561">
        <ele>202.4</ele>
        <time>2019-08-09T10:23:55Z</time>
      </trkpt>
      <trkpt lat="48.40533" lon="7.45603">
        <ele>202.4</ele>
        <time>2019-08-09T10:23:56Z</time>
      </trkpt>
      <trkpt lat="48.40534" lon="7.45597">
        <ele>202.4</ele>
        <time>2019-08-09T10:23:57Z</time>
      </trkpt>
      <trkpt lat="48.40535" lon="7.45592">
        <ele>202.4</ele>
        <time>2019-08-09T10:23:58Z</time>
      </trkpt>
      <trkpt lat="48.40536" lon="7.45587">
        <ele>202.5</ele>
        <time>2019-08-09T10:23:59Z</time>
      </trkpt>
      <trkpt lat="48.40535" lon="7.45581">
        <ele>202.5</ele>
        <time>2019-08-09T10:24:01Z</time>
      </trkpt>
      <trkpt lat="48.4053" lon="7.45578">
        <ele>202.6</ele>
        <time>2019-08-09T10:24:03Z</time>
      </trkpt>
      <trkpt lat="48.40527" lon="7.4558">
        <ele>202.7</ele>
        <time>2019-08-09T10:24:04Z</time>
      </trkpt>
      <trkpt lat="48.40524" lon="7.45583">
        <ele>202.7</ele>
        <time>2019-08-09T10:24:05Z</time>
      </trkpt>
      <trkpt lat="48.40521" lon="7.45587">
        <ele>202.6</ele>
        <time>2019-08-09T10:24:06Z</time>
      </trkpt>
      <trkpt lat="48.4052" lon="7.45593">
        <ele>202.6</ele>
        <time>2019-08-09T10:24:07Z</time>
      </trkpt>
      <trkpt lat="48.4052" lon="7.45598">
        <ele>202.5</ele>
        <time>2019-08-09T10:24:08Z</time>
      </trkpt>
      <trkpt lat="48.40521" lon="7.45604">
        <ele>202.4</ele>
        <time>2019-08-09T10:24:09Z</time>
      </trkpt>
      <trkpt lat="48.40523" lon="7.4561">
        <ele>202.3</ele>
        <time>2019-08-09T10:24:10Z</time>
      </trkpt>
      <trkpt lat="48.40524" lon="7.45616">
        <ele>202.3</ele>
        <time>2019-08-09T10:24:11Z</time>
      </trkpt>
      <trkpt lat="48.40524" lon="7.45622">
        <ele>202.2</ele>
        <time>2019-08-09T10:24:12Z</time>
      </trkpt>
      <trkpt lat="48.40524" lon="7.4563">
        <ele>202.2</ele>
        <time>2019-08-09T10:24:13Z</time>
      </trkpt>
      <trkpt lat="48.40524" lon="7.45638">
        <ele>202.2</ele>
        <time>2019-08-09T10:24:14Z</time>
      </trkpt>
      <trkpt lat="48.40523" lon="7.45645">
        <ele>202.2</ele>
        <time>2019-08-09T10:24:15Z</time>
      </trkpt>
      <trkpt lat="48.40523" lon="7.45652">
        <ele>202.1</ele>
        <time>2019-08-09T10:24:16Z</time>
      </trkpt>
      <trkpt lat="48.40522" lon="7.45658">
        <ele>202.1</ele>
        <time>2019-08-09T10:24:17Z</time>
      </trkpt>
      <trkpt lat="48.40522" lon="7.45664">
        <ele>202.1</ele>
        <time>2019-08-09T10:24:18Z</time>
      </trkpt>
      <trkpt lat="48.40521" lon="7.45671">
        <ele>202.1</ele>
        <time>2019-08-09T10:24:19Z</time>
      </trkpt>
      <trkpt lat="48.4052" lon="7.45676">
        <ele>202.1</ele>
        <time>2019-08-09T10:24:20Z</time>
      </trkpt>
      <trkpt lat="48.40519" lon="7.45681">
        <ele>202.1</ele>
        <time>2019-08-09T10:24:21Z</time>
      </trkpt>
      <trkpt lat="48.40518" lon="7.45685">
        <ele>202.1</ele>
        <time>2019-08-09T10:24:22Z</time>
      </trkpt>
      <trkpt lat="48.40517" lon="7.45689">
        <ele>202.1</ele>
        <time>2019-08-09T10:24:23Z</time>
      </trkpt>
      <trkpt lat="48.40515" lon="7.45692">
        <ele>202.1</ele>
        <time>2019-08-09T10:24:24Z</time>
      </trkpt>
      <trkpt lat="48.40514" lon="7.45697">
        <ele>202.2</ele>
        <time>2019-08-09T10:24:25Z</time>
      </trkpt>
      <trkpt lat="48.40511" lon="7.45701">
        <ele>202.2</ele>
        <time>2019-08-09T10:24:27Z</time>
      </trkpt>
      <trkpt lat="48.40506" lon="7.457">
        <ele>202.3</ele>
        <time>2019-08-09T10:24:30Z</time>
      </trkpt>
      <trkpt lat="48.40502" lon="7.45697">
        <ele>202.3</ele>
        <time>2019-08-09T10:24:32Z</time>
      </trkpt>
      <trkpt lat="48.40497" lon="7.45695">
        <ele>202.4</ele>
        <time>2019-08-09T10:24:34Z</time>
      </trkpt>
      <trkpt lat="48.40494" lon="7.45693">
        <ele>202.4</ele>
        <time>2019-08-09T10:24:36Z</time>
      </trkpt>
      <trkpt lat="48.4049" lon="7.45691">
        <ele>202.5</ele>
        <time>2019-08-09T10:24:38Z</time>
      </trkpt>
      <trkpt lat="48.40486" lon="7.45688">
        <ele>202.5</ele>
        <time>2019-08-09T10:24:39Z</time>
      </trkpt>
      <trkpt lat="48.40483" lon="7.45687">
        <ele>202.5</ele>
        <time>2019-08-09T10:24:40Z</time>
      </trkpt>
      <trkpt lat="48.4048" lon="7.45686">
        <ele>202.6</ele>
        <time>2019-08-09T10:24:41Z</time>
      </trkpt>
      <trkpt lat="48.40476" lon="7.45685">
        <ele>202.6</ele>
        <time>2019-08-09T10:24:42Z</time>
      </trkpt>
      <trkpt lat="48.40473" lon="7.45684">
        <ele>202.6</ele>
        <time>2019-08-09T10:24:43Z</time>
      </trkpt>
      <trkpt lat="48.4047" lon="7.45682">
        <ele>202.6</ele>
        <time>2019-08-09T10:24:44Z</time>
      </trkpt>
      <trkpt lat="48.40467" lon="7.45681">
        <ele>202.6</ele>
        <time>2019-08-09T10:24:45Z</time>
      </trkpt>
      <trkpt lat="48.40464" lon="7.45679">
        <ele>202.6</ele>
        <time>2019-08-09T10:24:46Z</time>
      </trkpt>
      <trkpt lat="48.40461" lon="7.45679">
        <ele>202.6</ele>
        <time>2019-08-09T10:24:47Z</time>
      </trkpt>
      <trkpt lat="48.40457" lon="7.45679">
        <ele>202.6</ele>
        <time>2019-08-09T10:24:48Z</time>
      </trkpt>
      <trkpt lat="48.40454" lon="7.45679">
        <ele>202.7</ele>
        <time>2019-08-09T10:24:49Z</time>
      </trkpt>
      <trkpt lat="48.4045" lon="7.45679">
        <ele>202.7</ele>
        <time>2019-08-09T10:24:50Z</time>
      </trkpt>
      <trkpt lat="48.40445" lon="7.4568">
        <ele>202.7</ele>
        <time>2019-08-09T10:24:51Z</time>
      </trkpt>
      <trkpt lat="48.4044" lon="7.45679">
        <ele>202.7</ele>
        <time>2019-08-09T10:24:52Z</time>
      </trkpt>
      <trkpt lat="48.40436" lon="7.45678">
        <ele>202.7</ele>
        <time>2019-08-09T10:24:53Z</time>
      </trkpt>
      <trkpt lat="48.40432" lon="7.45678">
        <ele>202.7</ele>
        <time>2019-08-09T10:24:54Z</time>
      </trkpt>
      <trkpt lat="48.40428" lon="7.45678">
        <ele>202.7</ele>
        <time>2019-08-09T10:24:55Z</time>
      </trkpt>
      <trkpt lat="48.40423" lon="7.45679">
        <ele>202.8</ele>
        <time>2019-08-09T10:24:56Z</time>
      </trkpt>
      <trkpt lat="48.40419" lon="7.45677">
        <ele>202.8</ele>
        <time>2019-08-09T10:24:57Z</time>
      </trkpt>
      <trkpt lat="48.40415" lon="7.45676">
        <ele>202.8</ele>
        <time>2019-08-09T10:24:58Z</time>
      </trkpt>
      <trkpt lat="48.40411" lon="7.45674">
        <ele>202.8</ele>
        <time>2019-08-09T10:24:59Z</time>
      </trkpt>
      <trkpt lat="48.40408" lon="7.45673">
        <ele>202.8</ele>
        <time>2019-08-09T10:25:00Z</time>
      </trkpt>
      <trkpt lat="48.40404" lon="7.4567">
        <ele>202.8</ele>
        <time>2019-08-09T10:25:01Z</time>
      </trkpt>
      <trkpt lat="48.404" lon="7.45669">
        <ele>202.8</ele>
        <time>2019-08-09T10:25:02Z</time>
      </trkpt>
      <trkpt lat="48.40396" lon="7.45667">
        <ele>202.8</ele>
        <time>2019-08-09T10:25:03Z</time>
      </trkpt>
      <trkpt lat="48.40392" lon="7.45665">
        <ele>202.8</ele>
        <time>2019-08-09T10:25:04Z</time>
      </trkpt>
      <trkpt lat="48.40388" lon="7.45664">
        <ele>202.8</ele>
        <time>2019-08-09T10:25:05Z</time>
      </trkpt>
      <trkpt lat="48.40384" lon="7.45664">
        <ele>202.8</ele>
        <time>2019-08-09T10:25:06Z</time>
      </trkpt>
      <trkpt lat="48.40381" lon="7.45663">
        <ele>202.7</ele>
        <time>2019-08-09T10:25:07Z</time>
      </trkpt>
      <trkpt lat="48.40377" lon="7.45664">
        <ele>202.7</ele>
        <time>2019-08-09T10:25:08Z</time>
      </trkpt>
      <trkpt lat="48.40372" lon="7.45663">
        <ele>202.6</ele>
        <time>2019-08-09T10:25:10Z</time>
      </trkpt>
      <trkpt lat="48.40368" lon="7.45661">
        <ele>202.5</ele>
        <time>2019-08-09T10:25:11Z</time>
      </trkpt>
      <trkpt lat="48.40364" lon="7.4566">
        <ele>202.5</ele>
        <time>2019-08-09T10:25:12Z</time>
      </trkpt>
      <trkpt lat="48.4036" lon="7.45659">
        <ele>202.3</ele>
        <time>2019-08-09T10:25:13Z</time>
      </trkpt>
      <trkpt lat="48.40356" lon="7.45659">
        <ele>202.2</ele>
        <time>2019-08-09T10:25:14Z</time>
      </trkpt>
      <trkpt lat="48.40353" lon="7.45658">
        <ele>202.2</ele>
        <time>2019-08-09T10:25:15Z</time>
      </trkpt>
      <trkpt lat="48.40349" lon="7.45657">
        <ele>202.1</ele>
        <time>2019-08-09T10:25:16Z</time>
      </trkpt>
      <trkpt lat="48.40346" lon="7.45657">
        <ele>202.1</ele>
        <time>2019-08-09T10:25:17Z</time>
      </trkpt>
      <trkpt lat="48.40343" lon="7.45656">
        <ele>202.1</ele>
        <time>2019-08-09T10:25:18Z</time>
      </trkpt>
      <trkpt lat="48.4034" lon="7.45654">
        <ele>202.1</ele>
        <time>2019-08-09T10:25:19Z</time>
      </trkpt>
      <trkpt lat="48.40337" lon="7.45653">
        <ele>202</ele>
        <time>2019-08-09T10:25:20Z</time>
      </trkpt>
      <trkpt lat="48.40333" lon="7.45652">
        <ele>202</ele>
        <time>2019-08-09T10:25:21Z</time>
      </trkpt>
      <trkpt lat="48.40329" lon="7.45651">
        <ele>202</ele>
        <time>2019-08-09T10:25:22Z</time>
      </trkpt>
      <trkpt lat="48.40326" lon="7.4565">
        <ele>202</ele>
        <time>2019-08-09T10:25:23Z</time>
      </trkpt>
      <trkpt lat="48.40323" lon="7.4565">
        <ele>202</ele>
        <time>2019-08-09T10:25:24Z</time>
      </trkpt>
      <trkpt lat="48.40319" lon="7.45649">
        <ele>202</ele>
        <time>2019-08-09T10:25:25Z</time>
      </trkpt>
      <trkpt lat="48.40317" lon="7.45649">
        <ele>202</ele>
        <time>2019-08-09T10:25:26Z</time>
      </trkpt>
      <trkpt lat="48.40312" lon="7.45648">
        <ele>202</ele>
        <time>2019-08-09T10:25:28Z</time>
      </trkpt>
      <trkpt lat="48.4031" lon="7.45644">
        <ele>202</ele>
        <time>2019-08-09T10:25:29Z</time>
      </trkpt>
      <trkpt lat="48.40308" lon="7.45639">
        <ele>202.1</ele>
        <time>2019-08-09T10:25:30Z</time>
      </trkpt>
      <trkpt lat="48.40307" lon="7.45634">
        <ele>202.2</ele>
        <time>2019-08-09T10:25:31Z</time>
      </trkpt>
      <trkpt lat="48.40307" lon="7.45629">
        <ele>202.3</ele>
        <time>2019-08-09T10:25:32Z</time>
      </trkpt>
      <trkpt lat="48.40306" lon="7.45624">
        <ele>202.4</ele>
        <time>2019-08-09T10:25:33Z</time>
      </trkpt>
      <trkpt lat="48.40307" lon="7.4562">
        <ele>202.5</ele>
        <time>2019-08-09T10:25:34Z</time>
      </trkpt>
      <trkpt lat="48.40307" lon="7.45615">
        <ele>202.5</ele>
        <time>2019-08-09T10:25:35Z</time>
      </trkpt>
      <trkpt lat="48.40307" lon="7.45611">
        <ele>202.6</ele>
        <time>2019-08-09T10:25:36Z</time>
      </trkpt>
      <trkpt lat="48.40307" lon="7.45605">
        <ele>202.7</ele>
        <time>2019-08-09T10:25:38Z</time>
      </trkpt>
      <trkpt lat="48.40306" lon="7.456">
        <ele>202.8</ele>
        <time>2019-08-09T10:25:40Z</time>
      </trkpt>
      <trkpt lat="48.40308" lon="7.45596">
        <ele>202.9</ele>
        <time>2019-08-09T10:25:42Z</time>
      </trkpt>
      <trkpt lat="48.4031" lon="7.45592">
        <ele>203</ele>
        <time>2019-08-09T10:25:44Z</time>
      </trkpt>
      <trkpt lat="48.40307" lon="7.45589">
        <ele>203.1</ele>
        <time>2019-08-09T10:25:54Z</time>
      </trkpt>
      <trkpt lat="48.40303" lon="7.45588">
        <ele>203.2</ele>
        <time>2019-08-09T10:26:07Z</time>
      </trkpt>
      <trkpt lat="48.403" lon="7.45592">
        <ele>203.3</ele>
        <time>2019-08-09T10:26:10Z</time>
      </trkpt>
      <trkpt lat="48.403" lon="7.45597">
        <ele>203.4</ele>
        <time>2019-08-09T10:26:12Z</time>
      </trkpt>
      <trkpt lat="48.40303" lon="7.45598">
        <ele>203.5</ele>
        <time>2019-08-09T10:26:14Z</time>
      </trkpt>
      <trkpt lat="48.40304" lon="7.45594">
        <ele>203.5</ele>
        <time>2019-08-09T10:26:16Z</time>
      </trkpt>
      <trkpt lat="48.40307" lon="7.45589">
        <ele>203.6</ele>
        <time>2019-08-09T10:26:18Z</time>
      </trkpt>
      <trkpt lat="48.40308" lon="7.45584">
        <ele>203.7</ele>
        <time>2019-08-09T10:26:20Z</time>
      </trkpt>
      <trkpt lat="48.4031" lon="7.4558">
        <ele>203.8</ele>
        <time>2019-08-09T10:26:21Z</time>
      </trkpt>
      <trkpt lat="48.40311" lon="7.45576">
        <ele>203.8</ele>
        <time>2019-08-09T10:26:22Z</time>
      </trkpt>
      <trkpt lat="48.40313" lon="7.45573">
        <ele>203.8</ele>
        <time>2019-08-09T10:26:23Z</time>
      </trkpt>
      <trkpt lat="48.40314" lon="7.45569">
        <ele>203.9</ele>
        <time>2019-08-09T10:26:24Z</time>
      </trkpt>
      <trkpt lat="48.40315" lon="7.45561">
        <ele>204</ele>
        <time>2019-08-09T10:26:26Z</time>
      </trkpt>
      <trkpt lat="48.40317" lon="7.45553">
        <ele>204.1</ele>
        <time>2019-08-09T10:26:28Z</time>
      </trkpt>
      <trkpt lat="48.40318" lon="7.45546">
        <ele>204.2</ele>
        <time>2019-08-09T10:26:30Z</time>
      </trkpt>
      <trkpt lat="48.40319" lon="7.45541">
        <ele>204.4</ele>
        <time>2019-08-09T10:26:31Z</time>
      </trkpt>
      <trkpt lat="48.40319" lon="7.45537">
        <ele>204.5</ele>
        <time>2019-08-09T10:26:32Z</time>
      </trkpt>
      <trkpt lat="48.4032" lon="7.45531">
        <ele>204.6</ele>
        <time>2019-08-09T10:26:33Z</time>
      </trkpt>
      <trkpt lat="48.40321" lon="7.45524">
        <ele>204.8</ele>
        <time>2019-08-09T10:26:35Z</time>
      </trkpt>
      <trkpt lat="48.40321" lon="7.45517">
        <ele>205</ele>
        <time>2019-08-09T10:26:37Z</time>
      </trkpt>
      <trkpt lat="48.40321" lon="7.45511">
        <ele>205.1</ele>
        <time>2019-08-09T10:26:39Z</time>
      </trkpt>
      <trkpt lat="48.40322" lon="7.45503">
        <ele>205.4</ele>
        <time>2019-08-09T10:26:41Z</time>
      </trkpt>
      <trkpt lat="48.40321" lon="7.45495">
        <ele>205.8</ele>
        <time>2019-08-09T10:26:43Z</time>
      </trkpt>
      <trkpt lat="48.40321" lon="7.45488">
        <ele>206.1</ele>
        <time>2019-08-09T10:26:45Z</time>
      </trkpt>
      <trkpt lat="48.4032" lon="7.45483">
        <ele>206.3</ele>
        <time>2019-08-09T10:26:47Z</time>
      </trkpt>
      <trkpt lat="48.4032" lon="7.45476">
        <ele>206.4</ele>
        <time>2019-08-09T10:26:49Z</time>
      </trkpt>
      <trkpt lat="48.40319" lon="7.4547">
        <ele>206.5</ele>
        <time>2019-08-09T10:26:51Z</time>
      </trkpt>
      <trkpt lat="48.40319" lon="7.45465">
        <ele>206.6</ele>
        <time>2019-08-09T10:26:53Z</time>
      </trkpt>
      <trkpt lat="48.40319" lon="7.4546">
        <ele>206.7</ele>
        <time>2019-08-09T10:26:55Z</time>
      </trkpt>
      <trkpt lat="48.4032" lon="7.45455">
        <ele>206.6</ele>
        <time>2019-08-09T10:26:58Z</time>
      </trkpt>
      <trkpt lat="48.40317" lon="7.45464">
        <ele>206.5</ele>
        <time>2019-08-09T10:29:19Z</time>
      </trkpt>
      <trkpt lat="48.40317" lon="7.45469">
        <ele>206.4</ele>
        <time>2019-08-09T10:29:20Z</time>
      </trkpt>
      <trkpt lat="48.40316" lon="7.45474">
        <ele>206.3</ele>
        <time>2019-08-09T10:29:21Z</time>
      </trkpt>
      <trkpt lat="48.40316" lon="7.45482">
        <ele>206</ele>
        <time>2019-08-09T10:29:22Z</time>
      </trkpt>
      <trkpt lat="48.40317" lon="7.45489">
        <ele>205.7</ele>
        <time>2019-08-09T10:29:23Z</time>
      </trkpt>
      <trkpt lat="48.40316" lon="7.45498">
        <ele>205.4</ele>
        <time>2019-08-09T10:29:24Z</time>
      </trkpt>
      <trkpt lat="48.40316" lon="7.45506">
        <ele>205.1</ele>
        <time>2019-08-09T10:29:25Z</time>
      </trkpt>
      <trkpt lat="48.40317" lon="7.45513">
        <ele>205</ele>
        <time>2019-08-09T10:29:26Z</time>
      </trkpt>
      <trkpt lat="48.40317" lon="7.45521">
        <ele>204.8</ele>
        <time>2019-08-09T10:29:27Z</time>
      </trkpt>
      <trkpt lat="48.40317" lon="7.45529">
        <ele>204.7</ele>
        <time>2019-08-09T10:29:28Z</time>
      </trkpt>
      <trkpt lat="48.40318" lon="7.45536">
        <ele>204.5</ele>
        <time>2019-08-09T10:29:29Z</time>
      </trkpt>
      <trkpt lat="48.40318" lon="7.45544">
        <ele>204.3</ele>
        <time>2019-08-09T10:29:30Z</time>
      </trkpt>
      <trkpt lat="48.40317" lon="7.45551">
        <ele>204.1</ele>
        <time>2019-08-09T10:29:31Z</time>
      </trkpt>
      <trkpt lat="48.40317" lon="7.45559">
        <ele>204</ele>
        <time>2019-08-09T10:29:32Z</time>
      </trkpt>
      <trkpt lat="48.40316" lon="7.45567">
        <ele>203.9</ele>
        <time>2019-08-09T10:29:33Z</time>
      </trkpt>
      <trkpt lat="48.40315" lon="7.45573">
        <ele>203.8</ele>
        <time>2019-08-09T10:29:34Z</time>
      </trkpt>
      <trkpt lat="48.40314" lon="7.45579">
        <ele>203.7</ele>
        <time>2019-08-09T10:29:35Z</time>
      </trkpt>
      <trkpt lat="48.40314" lon="7.45583">
        <ele>203.7</ele>
        <time>2019-08-09T10:29:36Z</time>
      </trkpt>
      <trkpt lat="48.40312" lon="7.45587">
        <ele>203.7</ele>
        <time>2019-08-09T10:29:37Z</time>
      </trkpt>
      <trkpt lat="48.40308" lon="7.45588">
        <ele>203.7</ele>
        <time>2019-08-09T10:29:39Z</time>
      </trkpt>
      <trkpt lat="48.40306" lon="7.45587">
        <ele>203.8</ele>
        <time>2019-08-09T10:29:40Z</time>
      </trkpt>
      <trkpt lat="48.40303" lon="7.45587">
        <ele>203.8</ele>
        <time>2019-08-09T10:29:41Z</time>
      </trkpt>
      <trkpt lat="48.40299" lon="7.45586">
        <ele>203.8</ele>
        <time>2019-08-09T10:29:42Z</time>
      </trkpt>
      <trkpt lat="48.40295" lon="7.45585">
        <ele>203.8</ele>
        <time>2019-08-09T10:29:43Z</time>
      </trkpt>
      <trkpt lat="48.40292" lon="7.45584">
        <ele>203.9</ele>
        <time>2019-08-09T10:29:44Z</time>
      </trkpt>
      <trkpt lat="48.40288" lon="7.45584">
        <ele>203.9</ele>
        <time>2019-08-09T10:29:45Z</time>
      </trkpt>
      <trkpt lat="48.40284" lon="7.45584">
        <ele>203.9</ele>
        <time>2019-08-09T10:29:46Z</time>
      </trkpt>
      <trkpt lat="48.40281" lon="7.45584">
        <ele>203.9</ele>
        <time>2019-08-09T10:29:47Z</time>
      </trkpt>
      <trkpt lat="48.40277" lon="7.45585">
        <ele>204</ele>
        <time>2019-08-09T10:29:48Z</time>
      </trkpt>
      <trkpt lat="48.40273" lon="7.45586">
        <ele>204</ele>
        <time>2019-08-09T10:29:49Z</time>
      </trkpt>
      <trkpt lat="48.40269" lon="7.45586">
        <ele>204.1</ele>
        <time>2019-08-09T10:29:50Z</time>
      </trkpt>
      <trkpt lat="48.40266" lon="7.45585">
        <ele>204.1</ele>
        <time>2019-08-09T10:29:51Z</time>
      </trkpt>
      <trkpt lat="48.40263" lon="7.45586">
        <ele>204.2</ele>
        <time>2019-08-09T10:29:52Z</time>
      </trkpt>
      <trkpt lat="48.40258" lon="7.45586">
        <ele>204.3</ele>
        <time>2019-08-09T10:29:54Z</time>
      </trkpt>
      <trkpt lat="48.40255" lon="7.45587">
        <ele>204.3</ele>
        <time>2019-08-09T10:29:55Z</time>
      </trkpt>
      <trkpt lat="48.40251" lon="7.45588">
        <ele>204.4</ele>
        <time>2019-08-09T10:29:56Z</time>
      </trkpt>
      <trkpt lat="48.40248" lon="7.45589">
        <ele>204.5</ele>
        <time>2019-08-09T10:29:57Z</time>
      </trkpt>
      <trkpt lat="48.40244" lon="7.45589">
        <ele>204.6</ele>
        <time>2019-08-09T10:29:58Z</time>
      </trkpt>
      <trkpt lat="48.40241" lon="7.4559">
        <ele>204.7</ele>
        <time>2019-08-09T10:29:59Z</time>
      </trkpt>
      <trkpt lat="48.40237" lon="7.4559">
        <ele>204.7</ele>
        <time>2019-08-09T10:30:00Z</time>
      </trkpt>
      <trkpt lat="48.40232" lon="7.45589">
        <ele>204.9</ele>
        <time>2019-08-09T10:30:02Z</time>
      </trkpt>
      <trkpt lat="48.40228" lon="7.45588">
        <ele>204.9</ele>
        <time>2019-08-09T10:30:03Z</time>
      </trkpt>
      <trkpt lat="48.40224" lon="7.45587">
        <ele>205</ele>
        <time>2019-08-09T10:30:04Z</time>
      </trkpt>
      <trkpt lat="48.4022" lon="7.45586">
        <ele>205.1</ele>
        <time>2019-08-09T10:30:05Z</time>
      </trkpt>
      <trkpt lat="48.40216" lon="7.45584">
        <ele>205.2</ele>
        <time>2019-08-09T10:30:06Z</time>
      </trkpt>
      <trkpt lat="48.40213" lon="7.45584">
        <ele>205.3</ele>
        <time>2019-08-09T10:30:07Z</time>
      </trkpt>
      <trkpt lat="48.40209" lon="7.45582">
        <ele>205.4</ele>
        <time>2019-08-09T10:30:08Z</time>
      </trkpt>
      <trkpt lat="48.40206" lon="7.45581">
        <ele>205.4</ele>
        <time>2019-08-09T10:30:09Z</time>
      </trkpt>
      <trkpt lat="48.40203" lon="7.4558">
        <ele>205.5</ele>
        <time>2019-08-09T10:30:10Z</time>
      </trkpt>
      <trkpt lat="48.402" lon="7.45579">
        <ele>205.6</ele>
        <time>2019-08-09T10:30:11Z</time>
      </trkpt>
      <trkpt lat="48.40195" lon="7.45578">
        <ele>205.7</ele>
        <time>2019-08-09T10:30:13Z</time>
      </trkpt>
      <trkpt lat="48.4019" lon="7.45578">
        <ele>205.8</ele>
        <time>2019-08-09T10:30:15Z</time>
      </trkpt>
      <trkpt lat="48.40187" lon="7.45578">
        <ele>205.9</ele>
        <time>2019-08-09T10:30:16Z</time>
      </trkpt>
      <trkpt lat="48.40184" lon="7.45576">
        <ele>206</ele>
        <time>2019-08-09T10:30:17Z</time>
      </trkpt>
      <trkpt lat="48.4018" lon="7.45575">
        <ele>206.1</ele>
        <time>2019-08-09T10:30:18Z</time>
      </trkpt>
      <trkpt lat="48.40177" lon="7.45575">
        <ele>206.2</ele>
        <time>2019-08-09T10:30:19Z</time>
      </trkpt>
      <trkpt lat="48.40173" lon="7.45574">
        <ele>206.2</ele>
        <time>2019-08-09T10:30:20Z</time>
      </trkpt>
      <trkpt lat="48.40169" lon="7.45573">
        <ele>206.3</ele>
        <time>2019-08-09T10:30:21Z</time>
      </trkpt>
      <trkpt lat="48.40166" lon="7.45573">
        <ele>206.4</ele>
        <time>2019-08-09T10:30:22Z</time>
      </trkpt>
      <trkpt lat="48.40163" lon="7.45573">
        <ele>206.5</ele>
        <time>2019-08-09T10:30:23Z</time>
      </trkpt>
      <trkpt lat="48.40158" lon="7.4557">
        <ele>206.6</ele>
        <time>2019-08-09T10:30:25Z</time>
      </trkpt>
      <trkpt lat="48.40155" lon="7.4557">
        <ele>206.6</ele>
        <time>2019-08-09T10:30:26Z</time>
      </trkpt>
      <trkpt lat="48.40152" lon="7.45569">
        <ele>206.7</ele>
        <time>2019-08-09T10:30:27Z</time>
      </trkpt>
      <trkpt lat="48.40148" lon="7.45568">
        <ele>206.8</ele>
        <time>2019-08-09T10:30:28Z</time>
      </trkpt>
      <trkpt lat="48.40145" lon="7.45567">
        <ele>206.8</ele>
        <time>2019-08-09T10:30:29Z</time>
      </trkpt>
      <trkpt lat="48.40141" lon="7.45566">
        <ele>206.9</ele>
        <time>2019-08-09T10:30:30Z</time>
      </trkpt>
      <trkpt lat="48.40137" lon="7.45566">
        <ele>206.9</ele>
        <time>2019-08-09T10:30:31Z</time>
      </trkpt>
      <trkpt lat="48.40134" lon="7.45566">
        <ele>206.9</ele>
        <time>2019-08-09T10:30:32Z</time>
      </trkpt>
      <trkpt lat="48.4013" lon="7.45566">
        <ele>207</ele>
        <time>2019-08-09T10:30:33Z</time>
      </trkpt>
      <trkpt lat="48.40126" lon="7.45565">
        <ele>207</ele>
        <time>2019-08-09T10:30:34Z</time>
      </trkpt>
      <trkpt lat="48.40122" lon="7.45566">
        <ele>207</ele>
        <time>2019-08-09T10:30:35Z</time>
      </trkpt>
      <trkpt lat="48.40119" lon="7.45566">
        <ele>207</ele>
        <time>2019-08-09T10:30:36Z</time>
      </trkpt>
      <trkpt lat="48.40114" lon="7.45565">
        <ele>207</ele>
        <time>2019-08-09T10:30:37Z</time>
      </trkpt>
      <trkpt lat="48.40109" lon="7.45565">
        <ele>206.9</ele>
        <time>2019-08-09T10:30:38Z</time>
      </trkpt>
      <trkpt lat="48.40105" lon="7.45565">
        <ele>206.9</ele>
        <time>2019-08-09T10:30:39Z</time>
      </trkpt>
      <trkpt lat="48.40101" lon="7.45565">
        <ele>206.8</ele>
        <time>2019-08-09T10:30:40Z</time>
      </trkpt>
      <trkpt lat="48.40096" lon="7.45565">
        <ele>206.8</ele>
        <time>2019-08-09T10:30:41Z</time>
      </trkpt>
      <trkpt lat="48.40092" lon="7.45564">
        <ele>206.7</ele>
        <time>2019-08-09T10:30:42Z</time>
      </trkpt>
      <trkpt lat="48.40087" lon="7.45562">
        <ele>206.6</ele>
        <time>2019-08-09T10:30:43Z</time>
      </trkpt>
      <trkpt lat="48.40083" lon="7.4556">
        <ele>206.6</ele>
        <time>2019-08-09T10:30:44Z</time>
      </trkpt>
      <trkpt lat="48.40079" lon="7.45555">
        <ele>206.5</ele>
        <time>2019-08-09T10:30:45Z</time>
      </trkpt>
      <trkpt lat="48.40075" lon="7.4555">
        <ele>206.4</ele>
        <time>2019-08-09T10:30:46Z</time>
      </trkpt>
      <trkpt lat="48.40071" lon="7.45545">
        <ele>206.3</ele>
        <time>2019-08-09T10:30:47Z</time>
      </trkpt>
      <trkpt lat="48.40067" lon="7.45539">
        <ele>206.2</ele>
        <time>2019-08-09T10:30:48Z</time>
      </trkpt>
      <trkpt lat="48.40064" lon="7.45532">
        <ele>206.1</ele>
        <time>2019-08-09T10:30:49Z</time>
      </trkpt>
      <trkpt lat="48.40061" lon="7.45526">
        <ele>206.1</ele>
        <time>2019-08-09T10:30:50Z</time>
      </trkpt>
      <trkpt lat="48.40058" lon="7.4552">
        <ele>206</ele>
        <time>2019-08-09T10:30:51Z</time>
      </trkpt>
      <trkpt lat="48.40055" lon="7.45513">
        <ele>205.9</ele>
        <time>2019-08-09T10:30:52Z</time>
      </trkpt>
      <trkpt lat="48.40052" lon="7.45507">
        <ele>205.9</ele>
        <time>2019-08-09T10:30:53Z</time>
      </trkpt>
      <trkpt lat="48.40049" lon="7.45501">
        <ele>205.9</ele>
        <time>2019-08-09T10:30:54Z</time>
      </trkpt>
      <trkpt lat="48.40046" lon="7.45494">
        <ele>205.9</ele>
        <time>2019-08-09T10:30:55Z</time>
      </trkpt>
      <trkpt lat="48.40043" lon="7.45488">
        <ele>205.8</ele>
        <time>2019-08-09T10:30:56Z</time>
      </trkpt>
      <trkpt lat="48.40041" lon="7.45482">
        <ele>205.8</ele>
        <time>2019-08-09T10:30:57Z</time>
      </trkpt>
      <trkpt lat="48.40038" lon="7.45476">
        <ele>205.8</ele>
        <time>2019-08-09T10:30:58Z</time>
      </trkpt>
      <trkpt lat="48.40035" lon="7.4547">
        <ele>205.8</ele>
        <time>2019-08-09T10:30:59Z</time>
      </trkpt>
      <trkpt lat="48.40033" lon="7.45464">
        <ele>205.8</ele>
        <time>2019-08-09T10:31:00Z</time>
      </trkpt>
      <trkpt lat="48.4003" lon="7.45458">
        <ele>205.9</ele>
        <time>2019-08-09T10:31:01Z</time>
      </trkpt>
      <trkpt lat="48.40028" lon="7.45454">
        <ele>205.9</ele>
        <time>2019-08-09T10:31:02Z</time>
      </trkpt>
      <trkpt lat="48.40024" lon="7.45449">
        <ele>205.9</ele>
        <time>2019-08-09T10:31:03Z</time>
      </trkpt>
      <trkpt lat="48.40022" lon="7.45444">
        <ele>205.8</ele>
        <time>2019-08-09T10:31:04Z</time>
      </trkpt>
      <trkpt lat="48.40019" lon="7.45439">
        <ele>205.8</ele>
        <time>2019-08-09T10:31:05Z</time>
      </trkpt>
      <trkpt lat="48.40017" lon="7.45435">
        <ele>205.8</ele>
        <time>2019-08-09T10:31:06Z</time>
      </trkpt>
      <trkpt lat="48.40014" lon="7.4543">
        <ele>205.8</ele>
        <time>2019-08-09T10:31:07Z</time>
      </trkpt>
      <trkpt lat="48.40011" lon="7.45425">
        <ele>205.7</ele>
        <time>2019-08-09T10:31:08Z</time>
      </trkpt>
      <trkpt lat="48.40008" lon="7.4542">
        <ele>205.7</ele>
        <time>2019-08-09T10:31:09Z</time>
      </trkpt>
      <trkpt lat="48.40004" lon="7.45417">
        <ele>205.6</ele>
        <time>2019-08-09T10:31:10Z</time>
      </trkpt>
      <trkpt lat="48.40001" lon="7.45412">
        <ele>205.6</ele>
        <time>2019-08-09T10:31:11Z</time>
      </trkpt>
      <trkpt lat="48.39999" lon="7.45409">
        <ele>205.5</ele>
        <time>2019-08-09T10:31:12Z</time>
      </trkpt>
      <trkpt lat="48.39995" lon="7.45407">
        <ele>205.5</ele>
        <time>2019-08-09T10:31:13Z</time>
      </trkpt>
      <trkpt lat="48.39991" lon="7.45404">
        <ele>205.5</ele>
        <time>2019-08-09T10:31:14Z</time>
      </trkpt>
      <trkpt lat="48.39988" lon="7.45399">
        <ele>205.4</ele>
        <time>2019-08-09T10:31:15Z</time>
      </trkpt>
      <trkpt lat="48.39984" lon="7.45396">
        <ele>205.4</ele>
        <time>2019-08-09T10:31:16Z</time>
      </trkpt>
      <trkpt lat="48.3998" lon="7.45393">
        <ele>205.4</ele>
        <time>2019-08-09T10:31:17Z</time>
      </trkpt>
      <trkpt lat="48.39977" lon="7.4539">
        <ele>205.3</ele>
        <time>2019-08-09T10:31:18Z</time>
      </trkpt>
      <trkpt lat="48.39974" lon="7.45386">
        <ele>205.3</ele>
        <time>2019-08-09T10:31:19Z</time>
      </trkpt>
      <trkpt lat="48.39971" lon="7.45383">
        <ele>205.3</ele>
        <time>2019-08-09T10:31:20Z</time>
      </trkpt>
      <trkpt lat="48.39967" lon="7.45378">
        <ele>205.3</ele>
        <time>2019-08-09T10:31:21Z</time>
      </trkpt>
      <trkpt lat="48.39964" lon="7.45374">
        <ele>205.3</ele>
        <time>2019-08-09T10:31:22Z</time>
      </trkpt>
      <trkpt lat="48.39961" lon="7.45371">
        <ele>205.3</ele>
        <time>2019-08-09T10:31:23Z</time>
      </trkpt>
      <trkpt lat="48.39957" lon="7.45367">
        <ele>205.3</ele>
        <time>2019-08-09T10:31:24Z</time>
      </trkpt>
      <trkpt lat="48.39954" lon="7.45364">
        <ele>205.3</ele>
        <time>2019-08-09T10:31:25Z</time>
      </trkpt>
      <trkpt lat="48.3995" lon="7.45359">
        <ele>205.3</ele>
        <time>2019-08-09T10:31:26Z</time>
      </trkpt>
      <trkpt lat="48.39947" lon="7.45355">
        <ele>205.3</ele>
        <time>2019-08-09T10:31:27Z</time>
      </trkpt>
      <trkpt lat="48.39943" lon="7.45352">
        <ele>205.3</ele>
        <time>2019-08-09T10:31:28Z</time>
      </trkpt>
      <trkpt lat="48.3994" lon="7.45349">
        <ele>205.3</ele>
        <time>2019-08-09T10:31:29Z</time>
      </trkpt>
      <trkpt lat="48.39937" lon="7.45346">
        <ele>205.3</ele>
        <time>2019-08-09T10:31:30Z</time>
      </trkpt>
      <trkpt lat="48.39933" lon="7.45341">
        <ele>205.3</ele>
        <time>2019-08-09T10:31:31Z</time>
      </trkpt>
      <trkpt lat="48.3993" lon="7.45338">
        <ele>205.3</ele>
        <time>2019-08-09T10:31:32Z</time>
      </trkpt>
      <trkpt lat="48.39926" lon="7.45334">
        <ele>205.3</ele>
        <time>2019-08-09T10:31:33Z</time>
      </trkpt>
      <trkpt lat="48.39922" lon="7.45331">
        <ele>205.3</ele>
        <time>2019-08-09T10:31:34Z</time>
      </trkpt>
      <trkpt lat="48.39919" lon="7.45327">
        <ele>205.3</ele>
        <time>2019-08-09T10:31:35Z</time>
      </trkpt>
      <trkpt lat="48.39916" lon="7.45324">
        <ele>205.3</ele>
        <time>2019-08-09T10:31:36Z</time>
      </trkpt>
      <trkpt lat="48.39912" lon="7.4532">
        <ele>205.3</ele>
        <time>2019-08-09T10:31:37Z</time>
      </trkpt>
      <trkpt lat="48.39908" lon="7.45317">
        <ele>205.3</ele>
        <time>2019-08-09T10:31:38Z</time>
      </trkpt>
      <trkpt lat="48.39904" lon="7.45313">
        <ele>205.3</ele>
        <time>2019-08-09T10:31:39Z</time>
      </trkpt>
      <trkpt lat="48.39901" lon="7.4531">
        <ele>205.3</ele>
        <time>2019-08-09T10:31:40Z</time>
      </trkpt>
      <trkpt lat="48.39897" lon="7.45307">
        <ele>205.3</ele>
        <time>2019-08-09T10:31:41Z</time>
      </trkpt>
      <trkpt lat="48.39893" lon="7.45304">
        <ele>205.3</ele>
        <time>2019-08-09T10:31:42Z</time>
      </trkpt>
      <trkpt lat="48.39889" lon="7.453">
        <ele>205.3</ele>
        <time>2019-08-09T10:31:43Z</time>
      </trkpt>
      <trkpt lat="48.39885" lon="7.45297">
        <ele>205.3</ele>
        <time>2019-08-09T10:31:44Z</time>
      </trkpt>
      <trkpt lat="48.39882" lon="7.45294">
        <ele>205.3</ele>
        <time>2019-08-09T10:31:45Z</time>
      </trkpt>
      <trkpt lat="48.39878" lon="7.4529">
        <ele>205.4</ele>
        <time>2019-08-09T10:31:46Z</time>
      </trkpt>
      <trkpt lat="48.39876" lon="7.45284">
        <ele>205.4</ele>
        <time>2019-08-09T10:31:47Z</time>
      </trkpt>
      <trkpt lat="48.39872" lon="7.4528">
        <ele>205.4</ele>
        <time>2019-08-09T10:31:48Z</time>
      </trkpt>
      <trkpt lat="48.39869" lon="7.45277">
        <ele>205.5</ele>
        <time>2019-08-09T10:31:49Z</time>
      </trkpt>
      <trkpt lat="48.39865" lon="7.45272">
        <ele>205.5</ele>
        <time>2019-08-09T10:31:50Z</time>
      </trkpt>
      <trkpt lat="48.39862" lon="7.45269">
        <ele>205.5</ele>
        <time>2019-08-09T10:31:51Z</time>
      </trkpt>
      <trkpt lat="48.39858" lon="7.45265">
        <ele>205.5</ele>
        <time>2019-08-09T10:31:52Z</time>
      </trkpt>
      <trkpt lat="48.39854" lon="7.45261">
        <ele>205.5</ele>
        <time>2019-08-09T10:31:53Z</time>
      </trkpt>
      <trkpt lat="48.3985" lon="7.45257">
        <ele>205.5</ele>
        <time>2019-08-09T10:31:54Z</time>
      </trkpt>
      <trkpt lat="48.39846" lon="7.45252">
        <ele>205.6</ele>
        <time>2019-08-09T10:31:55Z</time>
      </trkpt>
      <trkpt lat="48.39842" lon="7.45247">
        <ele>205.6</ele>
        <time>2019-08-09T10:31:56Z</time>
      </trkpt>
      <trkpt lat="48.39839" lon="7.45243">
        <ele>205.6</ele>
        <time>2019-08-09T10:31:57Z</time>
      </trkpt>
      <trkpt lat="48.39835" lon="7.4524">
        <ele>205.5</ele>
        <time>2019-08-09T10:31:58Z</time>
      </trkpt>
      <trkpt lat="48.39831" lon="7.45235">
        <ele>205.5</ele>
        <time>2019-08-09T10:31:59Z</time>
      </trkpt>
      <trkpt lat="48.39827" lon="7.45231">
        <ele>205.5</ele>
        <time>2019-08-09T10:32:00Z</time>
      </trkpt>
      <trkpt lat="48.39824" lon="7.45227">
        <ele>205.5</ele>
        <time>2019-08-09T10:32:01Z</time>
      </trkpt>
      <trkpt lat="48.3982" lon="7.45223">
        <ele>205.5</ele>
        <time>2019-08-09T10:32:02Z</time>
      </trkpt>
      <trkpt lat="48.39816" lon="7.45219">
        <ele>205.5</ele>
        <time>2019-08-09T10:32:03Z</time>
      </trkpt>
      <trkpt lat="48.39813" lon="7.45215">
        <ele>205.5</ele>
        <time>2019-08-09T10:32:04Z</time>
      </trkpt>
      <trkpt lat="48.39808" lon="7.45213">
        <ele>205.5</ele>
        <time>2019-08-09T10:32:05Z</time>
      </trkpt>
      <trkpt lat="48.39805" lon="7.45209">
        <ele>205.5</ele>
        <time>2019-08-09T10:32:06Z</time>
      </trkpt>
      <trkpt lat="48.39801" lon="7.45207">
        <ele>205.5</ele>
        <time>2019-08-09T10:32:07Z</time>
      </trkpt>
      <trkpt lat="48.39798" lon="7.45204">
        <ele>205.5</ele>
        <time>2019-08-09T10:32:08Z</time>
      </trkpt>
      <trkpt lat="48.39794" lon="7.452">
        <ele>205.5</ele>
        <time>2019-08-09T10:32:09Z</time>
      </trkpt>
      <trkpt lat="48.39791" lon="7.45197">
        <ele>205.4</ele>
        <time>2019-08-09T10:32:10Z</time>
      </trkpt>
      <trkpt lat="48.39788" lon="7.45193">
        <ele>205.4</ele>
        <time>2019-08-09T10:32:11Z</time>
      </trkpt>
      <trkpt lat="48.39785" lon="7.4519">
        <ele>205.4</ele>
        <time>2019-08-09T10:32:12Z</time>
      </trkpt>
      <trkpt lat="48.39782" lon="7.45187">
        <ele>205.4</ele>
        <time>2019-08-09T10:32:13Z</time>
      </trkpt>
      <trkpt lat="48.39779" lon="7.45182">
        <ele>205.4</ele>
        <time>2019-08-09T10:32:14Z</time>
      </trkpt>
      <trkpt lat="48.39776" lon="7.45178">
        <ele>205.3</ele>
        <time>2019-08-09T10:32:15Z</time>
      </trkpt>
      <trkpt lat="48.39773" lon="7.45175">
        <ele>205.3</ele>
        <time>2019-08-09T10:32:16Z</time>
      </trkpt>
      <trkpt lat="48.3977" lon="7.45171">
        <ele>205.3</ele>
        <time>2019-08-09T10:32:17Z</time>
      </trkpt>
      <trkpt lat="48.39766" lon="7.45166">
        <ele>205.3</ele>
        <time>2019-08-09T10:32:18Z</time>
      </trkpt>
      <trkpt lat="48.39762" lon="7.45163">
        <ele>205.2</ele>
        <time>2019-08-09T10:32:19Z</time>
      </trkpt>
      <trkpt lat="48.39759" lon="7.45159">
        <ele>205.2</ele>
        <time>2019-08-09T10:32:20Z</time>
      </trkpt>
      <trkpt lat="48.39755" lon="7.45155">
        <ele>205.2</ele>
        <time>2019-08-09T10:32:21Z</time>
      </trkpt>
      <trkpt lat="48.39752" lon="7.45152">
        <ele>205.2</ele>
        <time>2019-08-09T10:32:22Z</time>
      </trkpt>
      <trkpt lat="48.39749" lon="7.45148">
        <ele>205.1</ele>
        <time>2019-08-09T10:32:23Z</time>
      </trkpt>
      <trkpt lat="48.39746" lon="7.45144">
        <ele>205.1</ele>
        <time>2019-08-09T10:32:24Z</time>
      </trkpt>
      <trkpt lat="48.39743" lon="7.45139">
        <ele>205.1</ele>
        <time>2019-08-09T10:32:25Z</time>
      </trkpt>
      <trkpt lat="48.3974" lon="7.45136">
        <ele>205.1</ele>
        <time>2019-08-09T10:32:26Z</time>
      </trkpt>
      <trkpt lat="48.39737" lon="7.45132">
        <ele>205.1</ele>
        <time>2019-08-09T10:32:27Z</time>
      </trkpt>
      <trkpt lat="48.39733" lon="7.4513">
        <ele>205.1</ele>
        <time>2019-08-09T10:32:28Z</time>
      </trkpt>
      <trkpt lat="48.3973" lon="7.45125">
        <ele>205</ele>
        <time>2019-08-09T10:32:29Z</time>
      </trkpt>
      <trkpt lat="48.39728" lon="7.45121">
        <ele>205</ele>
        <time>2019-08-09T10:32:30Z</time>
      </trkpt>
      <trkpt lat="48.39725" lon="7.45117">
        <ele>205</ele>
        <time>2019-08-09T10:32:31Z</time>
      </trkpt>
      <trkpt lat="48.39722" lon="7.45113">
        <ele>205</ele>
        <time>2019-08-09T10:32:32Z</time>
      </trkpt>
      <trkpt lat="48.39718" lon="7.45109">
        <ele>205</ele>
        <time>2019-08-09T10:32:33Z</time>
      </trkpt>
      <trkpt lat="48.39715" lon="7.45104">
        <ele>204.9</ele>
        <time>2019-08-09T10:32:34Z</time>
      </trkpt>
      <trkpt lat="48.39711" lon="7.451">
        <ele>204.9</ele>
        <time>2019-08-09T10:32:35Z</time>
      </trkpt>
      <trkpt lat="48.39707" lon="7.45096">
        <ele>204.8</ele>
        <time>2019-08-09T10:32:36Z</time>
      </trkpt>
      <trkpt lat="48.39705" lon="7.45093">
        <ele>204.8</ele>
        <time>2019-08-09T10:32:37Z</time>
      </trkpt>
      <trkpt lat="48.39702" lon="7.45089">
        <ele>204.7</ele>
        <time>2019-08-09T10:32:38Z</time>
      </trkpt>
      <trkpt lat="48.39699" lon="7.45085">
        <ele>204.7</ele>
        <time>2019-08-09T10:32:39Z</time>
      </trkpt>
      <trkpt lat="48.39695" lon="7.45082">
        <ele>204.6</ele>
        <time>2019-08-09T10:32:40Z</time>
      </trkpt>
      <trkpt lat="48.39692" lon="7.4508">
        <ele>204.5</ele>
        <time>2019-08-09T10:32:41Z</time>
      </trkpt>
      <trkpt lat="48.39687" lon="7.4508">
        <ele>204.5</ele>
        <time>2019-08-09T10:32:42Z</time>
      </trkpt>
      <trkpt lat="48.39683" lon="7.45082">
        <ele>204.4</ele>
        <time>2019-08-09T10:32:43Z</time>
      </trkpt>
      <trkpt lat="48.39678" lon="7.45086">
        <ele>204.4</ele>
        <time>2019-08-09T10:32:44Z</time>
      </trkpt>
      <trkpt lat="48.39674" lon="7.45092">
        <ele>204.3</ele>
        <time>2019-08-09T10:32:45Z</time>
      </trkpt>
      <trkpt lat="48.39671" lon="7.45097">
        <ele>204.3</ele>
        <time>2019-08-09T10:32:46Z</time>
      </trkpt>
      <trkpt lat="48.39668" lon="7.45103">
        <ele>204.2</ele>
        <time>2019-08-09T10:32:47Z</time>
      </trkpt>
      <trkpt lat="48.39665" lon="7.45108">
        <ele>204.2</ele>
        <time>2019-08-09T10:32:48Z</time>
      </trkpt>
      <trkpt lat="48.39664" lon="7.45113">
        <ele>204.1</ele>
        <time>2019-08-09T10:32:49Z</time>
      </trkpt>
      <trkpt lat="48.39661" lon="7.45117">
        <ele>204.1</ele>
        <time>2019-08-09T10:32:50Z</time>
      </trkpt>
      <trkpt lat="48.39658" lon="7.45123">
        <ele>204.1</ele>
        <time>2019-08-09T10:32:51Z</time>
      </trkpt>
      <trkpt lat="48.39654" lon="7.45127">
        <ele>204.1</ele>
        <time>2019-08-09T10:32:52Z</time>
      </trkpt>
      <trkpt lat="48.39649" lon="7.4513">
        <ele>204.1</ele>
        <time>2019-08-09T10:32:53Z</time>
      </trkpt>
      <trkpt lat="48.39644" lon="7.45131">
        <ele>204.1</ele>
        <time>2019-08-09T10:32:54Z</time>
      </trkpt>
      <trkpt lat="48.39638" lon="7.45134">
        <ele>204.1</ele>
        <time>2019-08-09T10:32:55Z</time>
      </trkpt>
      <trkpt lat="48.39632" lon="7.45137">
        <ele>204.1</ele>
        <time>2019-08-09T10:32:56Z</time>
      </trkpt>
      <trkpt lat="48.39626" lon="7.45139">
        <ele>204</ele>
        <time>2019-08-09T10:32:57Z</time>
      </trkpt>
      <trkpt lat="48.39619" lon="7.45141">
        <ele>204</ele>
        <time>2019-08-09T10:32:58Z</time>
      </trkpt>
      <trkpt lat="48.39612" lon="7.45143">
        <ele>204</ele>
        <time>2019-08-09T10:32:59Z</time>
      </trkpt>
      <trkpt lat="48.39606" lon="7.45146">
        <ele>204</ele>
        <time>2019-08-09T10:33:00Z</time>
      </trkpt>
      <trkpt lat="48.39598" lon="7.45148">
        <ele>204</ele>
        <time>2019-08-09T10:33:01Z</time>
      </trkpt>
      <trkpt lat="48.39591" lon="7.45151">
        <ele>204</ele>
        <time>2019-08-09T10:33:02Z</time>
      </trkpt>
      <trkpt lat="48.39585" lon="7.45155">
        <ele>204</ele>
        <time>2019-08-09T10:33:03Z</time>
      </trkpt>
      <trkpt lat="48.39578" lon="7.45158">
        <ele>203.9</ele>
        <time>2019-08-09T10:33:04Z</time>
      </trkpt>
      <trkpt lat="48.39571" lon="7.4516">
        <ele>203.8</ele>
        <time>2019-08-09T10:33:05Z</time>
      </trkpt>
      <trkpt lat="48.39565" lon="7.45163">
        <ele>203.7</ele>
        <time>2019-08-09T10:33:06Z</time>
      </trkpt>
      <trkpt lat="48.39559" lon="7.45166">
        <ele>203.6</ele>
        <time>2019-08-09T10:33:07Z</time>
      </trkpt>
      <trkpt lat="48.39553" lon="7.45168">
        <ele>203.4</ele>
        <time>2019-08-09T10:33:08Z</time>
      </trkpt>
      <trkpt lat="48.39547" lon="7.4517">
        <ele>203.2</ele>
        <time>2019-08-09T10:33:09Z</time>
      </trkpt>
      <trkpt lat="48.39542" lon="7.45172">
        <ele>203</ele>
        <time>2019-08-09T10:33:10Z</time>
      </trkpt>
      <trkpt lat="48.39536" lon="7.45174">
        <ele>202.8</ele>
        <time>2019-08-09T10:33:11Z</time>
      </trkpt>
      <trkpt lat="48.3953" lon="7.45176">
        <ele>202.6</ele>
        <time>2019-08-09T10:33:12Z</time>
      </trkpt>
      <trkpt lat="48.39525" lon="7.45176">
        <ele>202.4</ele>
        <time>2019-08-09T10:33:13Z</time>
      </trkpt>
      <trkpt lat="48.3952" lon="7.45176">
        <ele>202.1</ele>
        <time>2019-08-09T10:33:14Z</time>
      </trkpt>
      <trkpt lat="48.39514" lon="7.45175">
        <ele>201.9</ele>
        <time>2019-08-09T10:33:15Z</time>
      </trkpt>
      <trkpt lat="48.39509" lon="7.45172">
        <ele>201.7</ele>
        <time>2019-08-09T10:33:16Z</time>
      </trkpt>
      <trkpt lat="48.39503" lon="7.45167">
        <ele>201.4</ele>
        <time>2019-08-09T10:33:17Z</time>
      </trkpt>
      <trkpt lat="48.39498" lon="7.45161">
        <ele>201.2</ele>
        <time>2019-08-09T10:33:18Z</time>
      </trkpt>
      <trkpt lat="48.39493" lon="7.45154">
        <ele>201.3</ele>
        <time>2019-08-09T10:33:19Z</time>
      </trkpt>
      <trkpt lat="48.39488" lon="7.45147">
        <ele>201.3</ele>
        <time>2019-08-09T10:33:20Z</time>
      </trkpt>
      <trkpt lat="48.39484" lon="7.4514">
        <ele>201.3</ele>
        <time>2019-08-09T10:33:21Z</time>
      </trkpt>
      <trkpt lat="48.3948" lon="7.45134">
        <ele>201.3</ele>
        <time>2019-08-09T10:33:22Z</time>
      </trkpt>
      <trkpt lat="48.39477" lon="7.45128">
        <ele>201.3</ele>
        <time>2019-08-09T10:33:23Z</time>
      </trkpt>
      <trkpt lat="48.39473" lon="7.45123">
        <ele>201.3</ele>
        <time>2019-08-09T10:33:24Z</time>
      </trkpt>
      <trkpt lat="48.39469" lon="7.45117">
        <ele>201.3</ele>
        <time>2019-08-09T10:33:25Z</time>
      </trkpt>
      <trkpt lat="48.39465" lon="7.45112">
        <ele>201.3</ele>
        <time>2019-08-09T10:33:26Z</time>
      </trkpt>
      <trkpt lat="48.39461" lon="7.45107">
        <ele>201.3</ele>
        <time>2019-08-09T10:33:27Z</time>
      </trkpt>
      <trkpt lat="48.39457" lon="7.45103">
        <ele>201.3</ele>
        <time>2019-08-09T10:33:28Z</time>
      </trkpt>
      <trkpt lat="48.39453" lon="7.45099">
        <ele>201.2</ele>
        <time>2019-08-09T10:33:29Z</time>
      </trkpt>
      <trkpt lat="48.39448" lon="7.45095">
        <ele>201.2</ele>
        <time>2019-08-09T10:33:30Z</time>
      </trkpt>
      <trkpt lat="48.39444" lon="7.45091">
        <ele>201.1</ele>
        <time>2019-08-09T10:33:31Z</time>
      </trkpt>
      <trkpt lat="48.3944" lon="7.45088">
        <ele>201.1</ele>
        <time>2019-08-09T10:33:32Z</time>
      </trkpt>
      <trkpt lat="48.39436" lon="7.45085">
        <ele>201.1</ele>
        <time>2019-08-09T10:33:33Z</time>
      </trkpt>
      <trkpt lat="48.39431" lon="7.45081">
        <ele>201</ele>
        <time>2019-08-09T10:33:34Z</time>
      </trkpt>
      <trkpt lat="48.39427" lon="7.45078">
        <ele>201</ele>
        <time>2019-08-09T10:33:35Z</time>
      </trkpt>
      <trkpt lat="48.39423" lon="7.45076">
        <ele>201</ele>
        <time>2019-08-09T10:33:36Z</time>
      </trkpt>
      <trkpt lat="48.39418" lon="7.45073">
        <ele>200.9</ele>
        <time>2019-08-09T10:33:37Z</time>
      </trkpt>
      <trkpt lat="48.39414" lon="7.45071">
        <ele>200.9</ele>
        <time>2019-08-09T10:33:38Z</time>
      </trkpt>
      <trkpt lat="48.3941" lon="7.45068">
        <ele>200.9</ele>
        <time>2019-08-09T10:33:39Z</time>
      </trkpt>
      <trkpt lat="48.39406" lon="7.45065">
        <ele>200.9</ele>
        <time>2019-08-09T10:33:40Z</time>
      </trkpt>
      <trkpt lat="48.394" lon="7.45062">
        <ele>200.8</ele>
        <time>2019-08-09T10:33:41Z</time>
      </trkpt>
      <trkpt lat="48.39396" lon="7.45059">
        <ele>200.8</ele>
        <time>2019-08-09T10:33:42Z</time>
      </trkpt>
      <trkpt lat="48.39392" lon="7.45056">
        <ele>200.8</ele>
        <time>2019-08-09T10:33:43Z</time>
      </trkpt>
      <trkpt lat="48.39388" lon="7.45053">
        <ele>200.9</ele>
        <time>2019-08-09T10:33:44Z</time>
      </trkpt>
      <trkpt lat="48.39384" lon="7.4505">
        <ele>200.9</ele>
        <time>2019-08-09T10:33:45Z</time>
      </trkpt>
      <trkpt lat="48.39379" lon="7.45047">
        <ele>200.9</ele>
        <time>2019-08-09T10:33:46Z</time>
      </trkpt>
      <trkpt lat="48.39375" lon="7.45044">
        <ele>200.9</ele>
        <time>2019-08-09T10:33:47Z</time>
      </trkpt>
      <trkpt lat="48.39372" lon="7.45041">
        <ele>201</ele>
        <time>2019-08-09T10:33:48Z</time>
      </trkpt>
      <trkpt lat="48.39368" lon="7.45039">
        <ele>201</ele>
        <time>2019-08-09T10:33:49Z</time>
      </trkpt>
      <trkpt lat="48.39364" lon="7.45036">
        <ele>201.1</ele>
        <time>2019-08-09T10:33:50Z</time>
      </trkpt>
      <trkpt lat="48.3936" lon="7.45033">
        <ele>201.2</ele>
        <time>2019-08-09T10:33:51Z</time>
      </trkpt>
      <trkpt lat="48.39356" lon="7.4503">
        <ele>201.3</ele>
        <time>2019-08-09T10:33:52Z</time>
      </trkpt>
      <trkpt lat="48.39351" lon="7.45027">
        <ele>201.4</ele>
        <time>2019-08-09T10:33:53Z</time>
      </trkpt>
      <trkpt lat="48.39347" lon="7.45023">
        <ele>201.4</ele>
        <time>2019-08-09T10:33:54Z</time>
      </trkpt>
      <trkpt lat="48.39342" lon="7.45021">
        <ele>201.5</ele>
        <time>2019-08-09T10:33:55Z</time>
      </trkpt>
      <trkpt lat="48.39337" lon="7.45018">
        <ele>201.6</ele>
        <time>2019-08-09T10:33:56Z</time>
      </trkpt>
      <trkpt lat="48.39332" lon="7.45016">
        <ele>201.6</ele>
        <time>2019-08-09T10:33:57Z</time>
      </trkpt>
      <trkpt lat="48.39328" lon="7.45013">
        <ele>201.6</ele>
        <time>2019-08-09T10:33:58Z</time>
      </trkpt>
      <trkpt lat="48.39324" lon="7.45011">
        <ele>201.5</ele>
        <time>2019-08-09T10:33:59Z</time>
      </trkpt>
      <trkpt lat="48.39321" lon="7.45009">
        <ele>201.5</ele>
        <time>2019-08-09T10:34:00Z</time>
      </trkpt>
      <trkpt lat="48.39317" lon="7.45007">
        <ele>201.4</ele>
        <time>2019-08-09T10:34:01Z</time>
      </trkpt>
      <trkpt lat="48.39313" lon="7.45005">
        <ele>201.3</ele>
        <time>2019-08-09T10:34:02Z</time>
      </trkpt>
      <trkpt lat="48.3931" lon="7.45003">
        <ele>201.2</ele>
        <time>2019-08-09T10:34:03Z</time>
      </trkpt>
      <trkpt lat="48.39306" lon="7.45001">
        <ele>201.2</ele>
        <time>2019-08-09T10:34:04Z</time>
      </trkpt>
      <trkpt lat="48.39302" lon="7.44998">
        <ele>201.1</ele>
        <time>2019-08-09T10:34:05Z</time>
      </trkpt>
      <trkpt lat="48.39298" lon="7.44995">
        <ele>201</ele>
        <time>2019-08-09T10:34:06Z</time>
      </trkpt>
      <trkpt lat="48.39294" lon="7.44992">
        <ele>200.9</ele>
        <time>2019-08-09T10:34:07Z</time>
      </trkpt>
      <trkpt lat="48.39289" lon="7.44989">
        <ele>200.8</ele>
        <time>2019-08-09T10:34:08Z</time>
      </trkpt>
      <trkpt lat="48.39285" lon="7.44986">
        <ele>200.8</ele>
        <time>2019-08-09T10:34:09Z</time>
      </trkpt>
      <trkpt lat="48.39282" lon="7.44984">
        <ele>200.7</ele>
        <time>2019-08-09T10:34:10Z</time>
      </trkpt>
      <trkpt lat="48.39278" lon="7.44981">
        <ele>200.6</ele>
        <time>2019-08-09T10:34:11Z</time>
      </trkpt>
      <trkpt lat="48.39274" lon="7.44978">
        <ele>200.5</ele>
        <time>2019-08-09T10:34:12Z</time>
      </trkpt>
      <trkpt lat="48.3927" lon="7.44974">
        <ele>200.4</ele>
        <time>2019-08-09T10:34:13Z</time>
      </trkpt>
      <trkpt lat="48.39266" lon="7.44969">
        <ele>200.3</ele>
        <time>2019-08-09T10:34:14Z</time>
      </trkpt>
      <trkpt lat="48.39262" lon="7.44965">
        <ele>200.2</ele>
        <time>2019-08-09T10:34:15Z</time>
      </trkpt>
      <trkpt lat="48.39259" lon="7.44962">
        <ele>200</ele>
        <time>2019-08-09T10:34:16Z</time>
      </trkpt>
      <trkpt lat="48.39255" lon="7.44958">
        <ele>199.9</ele>
        <time>2019-08-09T10:34:17Z</time>
      </trkpt>
      <trkpt lat="48.39252" lon="7.44955">
        <ele>199.8</ele>
        <time>2019-08-09T10:34:18Z</time>
      </trkpt>
      <trkpt lat="48.39249" lon="7.44951">
        <ele>199.7</ele>
        <time>2019-08-09T10:34:19Z</time>
      </trkpt>
      <trkpt lat="48.39245" lon="7.44946">
        <ele>199.6</ele>
        <time>2019-08-09T10:34:20Z</time>
      </trkpt>
      <trkpt lat="48.39242" lon="7.44942">
        <ele>199.4</ele>
        <time>2019-08-09T10:34:21Z</time>
      </trkpt>
      <trkpt lat="48.39238" lon="7.44936">
        <ele>199.4</ele>
        <time>2019-08-09T10:34:22Z</time>
      </trkpt>
      <trkpt lat="48.39235" lon="7.4493">
        <ele>199.4</ele>
        <time>2019-08-09T10:34:23Z</time>
      </trkpt>
      <trkpt lat="48.39234" lon="7.44924">
        <ele>199.4</ele>
        <time>2019-08-09T10:34:24Z</time>
      </trkpt>
      <trkpt lat="48.39232" lon="7.44919">
        <ele>199.4</ele>
        <time>2019-08-09T10:34:25Z</time>
      </trkpt>
      <trkpt lat="48.3923" lon="7.44913">
        <ele>199.5</ele>
        <time>2019-08-09T10:34:26Z</time>
      </trkpt>
      <trkpt lat="48.3923" lon="7.44908">
        <ele>199.5</ele>
        <time>2019-08-09T10:34:27Z</time>
      </trkpt>
      <trkpt lat="48.39229" lon="7.44903">
        <ele>199.6</ele>
        <time>2019-08-09T10:34:28Z</time>
      </trkpt>
      <trkpt lat="48.39228" lon="7.44898">
        <ele>199.6</ele>
        <time>2019-08-09T10:34:29Z</time>
      </trkpt>
      <trkpt lat="48.39228" lon="7.44893">
        <ele>199.7</ele>
        <time>2019-08-09T10:34:30Z</time>
      </trkpt>
      <trkpt lat="48.39228" lon="7.44888">
        <ele>199.8</ele>
        <time>2019-08-09T10:34:31Z</time>
      </trkpt>
      <trkpt lat="48.39227" lon="7.44883">
        <ele>199.9</ele>
        <time>2019-08-09T10:34:32Z</time>
      </trkpt>
      <trkpt lat="48.39225" lon="7.44875">
        <ele>200.1</ele>
        <time>2019-08-09T10:34:33Z</time>
      </trkpt>
      <trkpt lat="48.39224" lon="7.44869">
        <ele>200.2</ele>
        <time>2019-08-09T10:34:34Z</time>
      </trkpt>
      <trkpt lat="48.39223" lon="7.44863">
        <ele>200.3</ele>
        <time>2019-08-09T10:34:35Z</time>
      </trkpt>
      <trkpt lat="48.39221" lon="7.44856">
        <ele>200.3</ele>
        <time>2019-08-09T10:34:36Z</time>
      </trkpt>
      <trkpt lat="48.39219" lon="7.44851">
        <ele>200.4</ele>
        <time>2019-08-09T10:34:37Z</time>
      </trkpt>
      <trkpt lat="48.39217" lon="7.44844">
        <ele>200.5</ele>
        <time>2019-08-09T10:34:38Z</time>
      </trkpt>
      <trkpt lat="48.39216" lon="7.4484">
        <ele>200.3</ele>
        <time>2019-08-09T10:34:39Z</time>
      </trkpt>
      <trkpt lat="48.39214" lon="7.44836">
        <ele>200.3</ele>
        <time>2019-08-09T10:34:40Z</time>
      </trkpt>
      <trkpt lat="48.39212" lon="7.44833">
        <ele>200.2</ele>
        <time>2019-08-09T10:34:41Z</time>
      </trkpt>
      <trkpt lat="48.39208" lon="7.44829">
        <ele>200.1</ele>
        <time>2019-08-09T10:34:42Z</time>
      </trkpt>
      <trkpt lat="48.39204" lon="7.44825">
        <ele>200</ele>
        <time>2019-08-09T10:34:43Z</time>
      </trkpt>
      <trkpt lat="48.39201" lon="7.44821">
        <ele>199.9</ele>
        <time>2019-08-09T10:34:44Z</time>
      </trkpt>
      <trkpt lat="48.39197" lon="7.44816">
        <ele>199.8</ele>
        <time>2019-08-09T10:34:45Z</time>
      </trkpt>
      <trkpt lat="48.39194" lon="7.4481">
        <ele>199.7</ele>
        <time>2019-08-09T10:34:46Z</time>
      </trkpt>
      <trkpt lat="48.3919" lon="7.44805">
        <ele>199.7</ele>
        <time>2019-08-09T10:34:47Z</time>
      </trkpt>
      <trkpt lat="48.39187" lon="7.44799">
        <ele>199.6</ele>
        <time>2019-08-09T10:34:48Z</time>
      </trkpt>
      <trkpt lat="48.39183" lon="7.44794">
        <ele>199.6</ele>
        <time>2019-08-09T10:34:49Z</time>
      </trkpt>
      <trkpt lat="48.3918" lon="7.44789">
        <ele>199.5</ele>
        <time>2019-08-09T10:34:50Z</time>
      </trkpt>
      <trkpt lat="48.39176" lon="7.44784">
        <ele>199.5</ele>
        <time>2019-08-09T10:34:51Z</time>
      </trkpt>
      <trkpt lat="48.39173" lon="7.44779">
        <ele>199.5</ele>
        <time>2019-08-09T10:34:52Z</time>
      </trkpt>
      <trkpt lat="48.3917" lon="7.44774">
        <ele>199.5</ele>
        <time>2019-08-09T10:34:53Z</time>
      </trkpt>
      <trkpt lat="48.39167" lon="7.44769">
        <ele>199.5</ele>
        <time>2019-08-09T10:34:54Z</time>
      </trkpt>
      <trkpt lat="48.39163" lon="7.44762">
        <ele>199.5</ele>
        <time>2019-08-09T10:34:55Z</time>
      </trkpt>
      <trkpt lat="48.3916" lon="7.44755">
        <ele>199.5</ele>
        <time>2019-08-09T10:34:56Z</time>
      </trkpt>
      <trkpt lat="48.39156" lon="7.44749">
        <ele>199.5</ele>
        <time>2019-08-09T10:34:57Z</time>
      </trkpt>
      <trkpt lat="48.39151" lon="7.44742">
        <ele>199.5</ele>
        <time>2019-08-09T10:34:58Z</time>
      </trkpt>
      <trkpt lat="48.39148" lon="7.44735">
        <ele>199.5</ele>
        <time>2019-08-09T10:34:59Z</time>
      </trkpt>
      <trkpt lat="48.39146" lon="7.44731">
        <ele>199.6</ele>
        <time>2019-08-09T10:35:00Z</time>
      </trkpt>
      <trkpt lat="48.39143" lon="7.44725">
        <ele>199.6</ele>
        <time>2019-08-09T10:35:01Z</time>
      </trkpt>
      <trkpt lat="48.3914" lon="7.44718">
        <ele>199.7</ele>
        <time>2019-08-09T10:35:02Z</time>
      </trkpt>
      <trkpt lat="48.39138" lon="7.44712">
        <ele>199.7</ele>
        <time>2019-08-09T10:35:03Z</time>
      </trkpt>
      <trkpt lat="48.39136" lon="7.44707">
        <ele>199.7</ele>
        <time>2019-08-09T10:35:04Z</time>
      </trkpt>
      <trkpt lat="48.39134" lon="7.44701">
        <ele>199.7</ele>
        <time>2019-08-09T10:35:05Z</time>
      </trkpt>
      <trkpt lat="48.39132" lon="7.44695">
        <ele>199.7</ele>
        <time>2019-08-09T10:35:06Z</time>
      </trkpt>
      <trkpt lat="48.3913" lon="7.44688">
        <ele>199.7</ele>
        <time>2019-08-09T10:35:07Z</time>
      </trkpt>
      <trkpt lat="48.39129" lon="7.44682">
        <ele>199.7</ele>
        <time>2019-08-09T10:35:08Z</time>
      </trkpt>
      <trkpt lat="48.39128" lon="7.44678">
        <ele>199.7</ele>
        <time>2019-08-09T10:35:09Z</time>
      </trkpt>
      <trkpt lat="48.39126" lon="7.44673">
        <ele>199.7</ele>
        <time>2019-08-09T10:35:10Z</time>
      </trkpt>
      <trkpt lat="48.39125" lon="7.44668">
        <ele>199.7</ele>
        <time>2019-08-09T10:35:11Z</time>
      </trkpt>
      <trkpt lat="48.39123" lon="7.44662">
        <ele>199.7</ele>
        <time>2019-08-09T10:35:12Z</time>
      </trkpt>
      <trkpt lat="48.39121" lon="7.44656">
        <ele>199.7</ele>
        <time>2019-08-09T10:35:13Z</time>
      </trkpt>
      <trkpt lat="48.39119" lon="7.44651">
        <ele>199.7</ele>
        <time>2019-08-09T10:35:14Z</time>
      </trkpt>
      <trkpt lat="48.39116" lon="7.44646">
        <ele>199.7</ele>
        <time>2019-08-09T10:35:15Z</time>
      </trkpt>
      <trkpt lat="48.39115" lon="7.44641">
        <ele>199.7</ele>
        <time>2019-08-09T10:35:16Z</time>
      </trkpt>
      <trkpt lat="48.39115" lon="7.44636">
        <ele>199.5</ele>
        <time>2019-08-09T10:35:18Z</time>
      </trkpt>
      <trkpt lat="48.39117" lon="7.44632">
        <ele>199.5</ele>
        <time>2019-08-09T10:35:20Z</time>
      </trkpt>
      <trkpt lat="48.39118" lon="7.44626">
        <ele>199.5</ele>
        <time>2019-08-09T10:35:22Z</time>
      </trkpt>
      <trkpt lat="48.39119" lon="7.44622">
        <ele>199.5</ele>
        <time>2019-08-09T10:35:23Z</time>
      </trkpt>
      <trkpt lat="48.39118" lon="7.44615">
        <ele>199.5</ele>
        <time>2019-08-09T10:35:26Z</time>
      </trkpt>
      <trkpt lat="48.39115" lon="7.44613">
        <ele>199.5</ele>
        <time>2019-08-09T10:35:27Z</time>
      </trkpt>
      <trkpt lat="48.39112" lon="7.44609">
        <ele>199.6</ele>
        <time>2019-08-09T10:35:28Z</time>
      </trkpt>
      <trkpt lat="48.39108" lon="7.44606">
        <ele>199.6</ele>
        <time>2019-08-09T10:35:29Z</time>
      </trkpt>
      <trkpt lat="48.39103" lon="7.44603">
        <ele>199.6</ele>
        <time>2019-08-09T10:35:30Z</time>
      </trkpt>
      <trkpt lat="48.39098" lon="7.44602">
        <ele>199.6</ele>
        <time>2019-08-09T10:35:31Z</time>
      </trkpt>
      <trkpt lat="48.39093" lon="7.44602">
        <ele>199.7</ele>
        <time>2019-08-09T10:35:32Z</time>
      </trkpt>
      <trkpt lat="48.39088" lon="7.44604">
        <ele>199.7</ele>
        <time>2019-08-09T10:35:33Z</time>
      </trkpt>
      <trkpt lat="48.39082" lon="7.44605">
        <ele>199.7</ele>
        <time>2019-08-09T10:35:34Z</time>
      </trkpt>
      <trkpt lat="48.39076" lon="7.44605">
        <ele>199.7</ele>
        <time>2019-08-09T10:35:35Z</time>
      </trkpt>
      <trkpt lat="48.39069" lon="7.44606">
        <ele>199.6</ele>
        <time>2019-08-09T10:35:36Z</time>
      </trkpt>
      <trkpt lat="48.39064" lon="7.44605">
        <ele>199.6</ele>
        <time>2019-08-09T10:35:37Z</time>
      </trkpt>
      <trkpt lat="48.39058" lon="7.44603">
        <ele>199.5</ele>
        <time>2019-08-09T10:35:38Z</time>
      </trkpt>
      <trkpt lat="48.39053" lon="7.44602">
        <ele>199.5</ele>
        <time>2019-08-09T10:35:39Z</time>
      </trkpt>
      <trkpt lat="48.39048" lon="7.446">
        <ele>199.4</ele>
        <time>2019-08-09T10:35:40Z</time>
      </trkpt>
      <trkpt lat="48.39043" lon="7.44599">
        <ele>199.4</ele>
        <time>2019-08-09T10:35:41Z</time>
      </trkpt>
      <trkpt lat="48.39038" lon="7.44597">
        <ele>199.4</ele>
        <time>2019-08-09T10:35:42Z</time>
      </trkpt>
      <trkpt lat="48.39033" lon="7.44595">
        <ele>199.3</ele>
        <time>2019-08-09T10:35:43Z</time>
      </trkpt>
      <trkpt lat="48.39028" lon="7.44594">
        <ele>199.3</ele>
        <time>2019-08-09T10:35:44Z</time>
      </trkpt>
      <trkpt lat="48.39023" lon="7.44592">
        <ele>199.3</ele>
        <time>2019-08-09T10:35:45Z</time>
      </trkpt>
      <trkpt lat="48.39019" lon="7.4459">
        <ele>199.2</ele>
        <time>2019-08-09T10:35:46Z</time>
      </trkpt>
      <trkpt lat="48.39014" lon="7.44589">
        <ele>199.2</ele>
        <time>2019-08-09T10:35:47Z</time>
      </trkpt>
      <trkpt lat="48.39009" lon="7.44588">
        <ele>199.2</ele>
        <time>2019-08-09T10:35:48Z</time>
      </trkpt>
      <trkpt lat="48.39004" lon="7.44586">
        <ele>199.1</ele>
        <time>2019-08-09T10:35:49Z</time>
      </trkpt>
      <trkpt lat="48.38999" lon="7.44585">
        <ele>199.1</ele>
        <time>2019-08-09T10:35:50Z</time>
      </trkpt>
      <trkpt lat="48.38994" lon="7.44583">
        <ele>199.1</ele>
        <time>2019-08-09T10:35:51Z</time>
      </trkpt>
      <trkpt lat="48.3899" lon="7.44581">
        <ele>199.1</ele>
        <time>2019-08-09T10:35:52Z</time>
      </trkpt>
      <trkpt lat="48.38985" lon="7.4458">
        <ele>199</ele>
        <time>2019-08-09T10:35:53Z</time>
      </trkpt>
      <trkpt lat="48.3898" lon="7.44578">
        <ele>199</ele>
        <time>2019-08-09T10:35:54Z</time>
      </trkpt>
      <trkpt lat="48.38975" lon="7.44576">
        <ele>199</ele>
        <time>2019-08-09T10:35:55Z</time>
      </trkpt>
      <trkpt lat="48.3897" lon="7.44574">
        <ele>199</ele>
        <time>2019-08-09T10:35:56Z</time>
      </trkpt>
      <trkpt lat="48.38965" lon="7.44572">
        <ele>198.9</ele>
        <time>2019-08-09T10:35:57Z</time>
      </trkpt>
      <trkpt lat="48.38961" lon="7.4457">
        <ele>198.9</ele>
        <time>2019-08-09T10:35:58Z</time>
      </trkpt>
      <trkpt lat="48.38956" lon="7.44566">
        <ele>198.9</ele>
        <time>2019-08-09T10:35:59Z</time>
      </trkpt>
      <trkpt lat="48.38952" lon="7.44564">
        <ele>198.8</ele>
        <time>2019-08-09T10:36:00Z</time>
      </trkpt>
      <trkpt lat="48.38947" lon="7.44561">
        <ele>198.8</ele>
        <time>2019-08-09T10:36:01Z</time>
      </trkpt>
      <trkpt lat="48.38942" lon="7.44558">
        <ele>198.8</ele>
        <time>2019-08-09T10:36:02Z</time>
      </trkpt>
      <trkpt lat="48.38937" lon="7.44556">
        <ele>198.8</ele>
        <time>2019-08-09T10:36:03Z</time>
      </trkpt>
      <trkpt lat="48.38933" lon="7.44553">
        <ele>198.7</ele>
        <time>2019-08-09T10:36:04Z</time>
      </trkpt>
      <trkpt lat="48.38928" lon="7.44549">
        <ele>198.7</ele>
        <time>2019-08-09T10:36:05Z</time>
      </trkpt>
      <trkpt lat="48.38923" lon="7.44546">
        <ele>198.7</ele>
        <time>2019-08-09T10:36:06Z</time>
      </trkpt>
      <trkpt lat="48.38918" lon="7.44543">
        <ele>198.7</ele>
        <time>2019-08-09T10:36:07Z</time>
      </trkpt>
      <trkpt lat="48.38914" lon="7.44541">
        <ele>198.7</ele>
        <time>2019-08-09T10:36:08Z</time>
      </trkpt>
      <trkpt lat="48.3891" lon="7.44539">
        <ele>198.7</ele>
        <time>2019-08-09T10:36:09Z</time>
      </trkpt>
      <trkpt lat="48.38905" lon="7.44537">
        <ele>198.7</ele>
        <time>2019-08-09T10:36:10Z</time>
      </trkpt>
      <trkpt lat="48.389" lon="7.44535">
        <ele>198.7</ele>
        <time>2019-08-09T10:36:11Z</time>
      </trkpt>
      <trkpt lat="48.38895" lon="7.44532">
        <ele>198.7</ele>
        <time>2019-08-09T10:36:12Z</time>
      </trkpt>
      <trkpt lat="48.3889" lon="7.4453">
        <ele>198.6</ele>
        <time>2019-08-09T10:36:13Z</time>
      </trkpt>
      <trkpt lat="48.38886" lon="7.44526">
        <ele>198.6</ele>
        <time>2019-08-09T10:36:14Z</time>
      </trkpt>
      <trkpt lat="48.38881" lon="7.44523">
        <ele>198.6</ele>
        <time>2019-08-09T10:36:15Z</time>
      </trkpt>
      <trkpt lat="48.38876" lon="7.4452">
        <ele>198.6</ele>
        <time>2019-08-09T10:36:16Z</time>
      </trkpt>
      <trkpt lat="48.38871" lon="7.44517">
        <ele>198.5</ele>
        <time>2019-08-09T10:36:17Z</time>
      </trkpt>
      <trkpt lat="48.38866" lon="7.44514">
        <ele>198.5</ele>
        <time>2019-08-09T10:36:18Z</time>
      </trkpt>
      <trkpt lat="48.38861" lon="7.44511">
        <ele>198.4</ele>
        <time>2019-08-09T10:36:19Z</time>
      </trkpt>
      <trkpt lat="48.38856" lon="7.44508">
        <ele>198.4</ele>
        <time>2019-08-09T10:36:20Z</time>
      </trkpt>
      <trkpt lat="48.38852" lon="7.44504">
        <ele>198.4</ele>
        <time>2019-08-09T10:36:21Z</time>
      </trkpt>
      <trkpt lat="48.38847" lon="7.44502">
        <ele>198.4</ele>
        <time>2019-08-09T10:36:22Z</time>
      </trkpt>
      <trkpt lat="48.38842" lon="7.445">
        <ele>198.3</ele>
        <time>2019-08-09T10:36:23Z</time>
      </trkpt>
      <trkpt lat="48.38837" lon="7.44497">
        <ele>198.3</ele>
        <time>2019-08-09T10:36:24Z</time>
      </trkpt>
      <trkpt lat="48.38832" lon="7.44494">
        <ele>198.3</ele>
        <time>2019-08-09T10:36:25Z</time>
      </trkpt>
      <trkpt lat="48.38828" lon="7.44492">
        <ele>198.3</ele>
        <time>2019-08-09T10:36:26Z</time>
      </trkpt>
      <trkpt lat="48.38823" lon="7.44489">
        <ele>198.3</ele>
        <time>2019-08-09T10:36:27Z</time>
      </trkpt>
      <trkpt lat="48.38819" lon="7.44486">
        <ele>198.3</ele>
        <time>2019-08-09T10:36:28Z</time>
      </trkpt>
      <trkpt lat="48.38814" lon="7.44483">
        <ele>198.2</ele>
        <time>2019-08-09T10:36:29Z</time>
      </trkpt>
      <trkpt lat="48.38809" lon="7.4448">
        <ele>198.2</ele>
        <time>2019-08-09T10:36:30Z</time>
      </trkpt>
      <trkpt lat="48.38804" lon="7.44478">
        <ele>198.2</ele>
        <time>2019-08-09T10:36:31Z</time>
      </trkpt>
      <trkpt lat="48.38799" lon="7.44475">
        <ele>198.2</ele>
        <time>2019-08-09T10:36:32Z</time>
      </trkpt>
      <trkpt lat="48.38795" lon="7.44472">
        <ele>198.1</ele>
        <time>2019-08-09T10:36:33Z</time>
      </trkpt>
      <trkpt lat="48.3879" lon="7.44469">
        <ele>198.1</ele>
        <time>2019-08-09T10:36:34Z</time>
      </trkpt>
      <trkpt lat="48.38785" lon="7.44466">
        <ele>198.1</ele>
        <time>2019-08-09T10:36:35Z</time>
      </trkpt>
      <trkpt lat="48.38781" lon="7.44462">
        <ele>198</ele>
        <time>2019-08-09T10:36:36Z</time>
      </trkpt>
      <trkpt lat="48.38777" lon="7.44459">
        <ele>198</ele>
        <time>2019-08-09T10:36:37Z</time>
      </trkpt>
      <trkpt lat="48.38772" lon="7.44455">
        <ele>197.9</ele>
        <time>2019-08-09T10:36:38Z</time>
      </trkpt>
      <trkpt lat="48.38768" lon="7.44452">
        <ele>197.9</ele>
        <time>2019-08-09T10:36:39Z</time>
      </trkpt>
      <trkpt lat="48.38763" lon="7.44448">
        <ele>197.8</ele>
        <time>2019-08-09T10:36:40Z</time>
      </trkpt>
      <trkpt lat="48.38759" lon="7.44444">
        <ele>197.8</ele>
        <time>2019-08-09T10:36:41Z</time>
      </trkpt>
      <trkpt lat="48.38754" lon="7.44439">
        <ele>197.8</ele>
        <time>2019-08-09T10:36:42Z</time>
      </trkpt>
      <trkpt lat="48.38749" lon="7.44436">
        <ele>197.7</ele>
        <time>2019-08-09T10:36:43Z</time>
      </trkpt>
      <trkpt lat="48.38745" lon="7.44431">
        <ele>197.7</ele>
        <time>2019-08-09T10:36:44Z</time>
      </trkpt>
      <trkpt lat="48.38741" lon="7.44427">
        <ele>197.7</ele>
        <time>2019-08-09T10:36:45Z</time>
      </trkpt>
      <trkpt lat="48.38737" lon="7.44422">
        <ele>197.7</ele>
        <time>2019-08-09T10:36:46Z</time>
      </trkpt>
      <trkpt lat="48.38733" lon="7.44418">
        <ele>197.7</ele>
        <time>2019-08-09T10:36:47Z</time>
      </trkpt>
      <trkpt lat="48.38728" lon="7.44413">
        <ele>197.8</ele>
        <time>2019-08-09T10:36:48Z</time>
      </trkpt>
      <trkpt lat="48.38724" lon="7.44409">
        <ele>197.8</ele>
        <time>2019-08-09T10:36:49Z</time>
      </trkpt>
      <trkpt lat="48.3872" lon="7.44406">
        <ele>197.8</ele>
        <time>2019-08-09T10:36:50Z</time>
      </trkpt>
      <trkpt lat="48.38716" lon="7.44402">
        <ele>197.8</ele>
        <time>2019-08-09T10:36:51Z</time>
      </trkpt>
      <trkpt lat="48.38712" lon="7.44399">
        <ele>197.9</ele>
        <time>2019-08-09T10:36:52Z</time>
      </trkpt>
      <trkpt lat="48.38709" lon="7.44396">
        <ele>197.9</ele>
        <time>2019-08-09T10:36:53Z</time>
      </trkpt>
      <trkpt lat="48.38705" lon="7.44392">
        <ele>197.9</ele>
        <time>2019-08-09T10:36:54Z</time>
      </trkpt>
      <trkpt lat="48.38701" lon="7.44389">
        <ele>197.9</ele>
        <time>2019-08-09T10:36:55Z</time>
      </trkpt>
      <trkpt lat="48.38697" lon="7.44386">
        <ele>197.9</ele>
        <time>2019-08-09T10:36:56Z</time>
      </trkpt>
      <trkpt lat="48.38694" lon="7.44382">
        <ele>198</ele>
        <time>2019-08-09T10:36:57Z</time>
      </trkpt>
      <trkpt lat="48.3869" lon="7.4438">
        <ele>198</ele>
        <time>2019-08-09T10:36:58Z</time>
      </trkpt>
      <trkpt lat="48.38687" lon="7.44377">
        <ele>198.1</ele>
        <time>2019-08-09T10:36:59Z</time>
      </trkpt>
      <trkpt lat="48.38683" lon="7.44374">
        <ele>198.1</ele>
        <time>2019-08-09T10:37:00Z</time>
      </trkpt>
      <trkpt lat="48.38679" lon="7.44371">
        <ele>198.1</ele>
        <time>2019-08-09T10:37:01Z</time>
      </trkpt>
      <trkpt lat="48.38676" lon="7.44368">
        <ele>198.2</ele>
        <time>2019-08-09T10:37:02Z</time>
      </trkpt>
      <trkpt lat="48.38673" lon="7.44364">
        <ele>198.2</ele>
        <time>2019-08-09T10:37:03Z</time>
      </trkpt>
      <trkpt lat="48.38669" lon="7.44361">
        <ele>198.2</ele>
        <time>2019-08-09T10:37:04Z</time>
      </trkpt>
      <trkpt lat="48.38666" lon="7.44356">
        <ele>198.3</ele>
        <time>2019-08-09T10:37:05Z</time>
      </trkpt>
      <trkpt lat="48.38663" lon="7.44352">
        <ele>198.3</ele>
        <time>2019-08-09T10:37:06Z</time>
      </trkpt>
      <trkpt lat="48.3866" lon="7.44348">
        <ele>198.3</ele>
        <time>2019-08-09T10:37:07Z</time>
      </trkpt>
      <trkpt lat="48.38658" lon="7.44344">
        <ele>198.3</ele>
        <time>2019-08-09T10:37:08Z</time>
      </trkpt>
      <trkpt lat="48.38656" lon="7.44339">
        <ele>198.4</ele>
        <time>2019-08-09T10:37:09Z</time>
      </trkpt>
      <trkpt lat="48.38653" lon="7.44338">
        <ele>198.4</ele>
        <time>2019-08-09T10:37:10Z</time>
      </trkpt>
      <trkpt lat="48.3865" lon="7.44337">
        <ele>198.6</ele>
        <time>2019-08-09T10:37:11Z</time>
      </trkpt>
      <trkpt lat="48.38647" lon="7.44336">
        <ele>198.7</ele>
        <time>2019-08-09T10:37:12Z</time>
      </trkpt>
      <trkpt lat="48.38643" lon="7.44335">
        <ele>198.9</ele>
        <time>2019-08-09T10:37:13Z</time>
      </trkpt>
      <trkpt lat="48.38639" lon="7.44334">
        <ele>199</ele>
        <time>2019-08-09T10:37:14Z</time>
      </trkpt>
      <trkpt lat="48.38636" lon="7.44332">
        <ele>199.2</ele>
        <time>2019-08-09T10:37:15Z</time>
      </trkpt>
      <trkpt lat="48.38632" lon="7.44331">
        <ele>199.4</ele>
        <time>2019-08-09T10:37:16Z</time>
      </trkpt>
      <trkpt lat="48.38628" lon="7.44329">
        <ele>199.7</ele>
        <time>2019-08-09T10:37:17Z</time>
      </trkpt>
      <trkpt lat="48.38624" lon="7.44329">
        <ele>199.9</ele>
        <time>2019-08-09T10:37:18Z</time>
      </trkpt>
      <trkpt lat="48.3862" lon="7.44327">
        <ele>200.1</ele>
        <time>2019-08-09T10:37:19Z</time>
      </trkpt>
      <trkpt lat="48.38616" lon="7.44326">
        <ele>200.4</ele>
        <time>2019-08-09T10:37:20Z</time>
      </trkpt>
      <trkpt lat="48.38612" lon="7.44324">
        <ele>200.5</ele>
        <time>2019-08-09T10:37:21Z</time>
      </trkpt>
      <trkpt lat="48.38609" lon="7.44322">
        <ele>200.6</ele>
        <time>2019-08-09T10:37:22Z</time>
      </trkpt>
      <trkpt lat="48.38605" lon="7.4432">
        <ele>201.2</ele>
        <time>2019-08-09T10:37:23Z</time>
      </trkpt>
      <trkpt lat="48.38603" lon="7.44318">
        <ele>201.2</ele>
        <time>2019-08-09T10:37:24Z</time>
      </trkpt>
      <trkpt lat="48.386" lon="7.44316">
        <ele>201.3</ele>
        <time>2019-08-09T10:37:25Z</time>
      </trkpt>
      <trkpt lat="48.38596" lon="7.44314">
        <ele>201.5</ele>
        <time>2019-08-09T10:37:26Z</time>
      </trkpt>
      <trkpt lat="48.38593" lon="7.44311">
        <ele>201.5</ele>
        <time>2019-08-09T10:37:27Z</time>
      </trkpt>
      <trkpt lat="48.38589" lon="7.44309">
        <ele>201.6</ele>
        <time>2019-08-09T10:37:28Z</time>
      </trkpt>
      <trkpt lat="48.38585" lon="7.44308">
        <ele>201.7</ele>
        <time>2019-08-09T10:37:29Z</time>
      </trkpt>
      <trkpt lat="48.3858" lon="7.44308">
        <ele>201.8</ele>
        <time>2019-08-09T10:37:30Z</time>
      </trkpt>
      <trkpt lat="48.38576" lon="7.44308">
        <ele>201.9</ele>
        <time>2019-08-09T10:37:31Z</time>
      </trkpt>
      <trkpt lat="48.38572" lon="7.44307">
        <ele>202</ele>
        <time>2019-08-09T10:37:32Z</time>
      </trkpt>
      <trkpt lat="48.38569" lon="7.44308">
        <ele>202.1</ele>
        <time>2019-08-09T10:37:33Z</time>
      </trkpt>
      <trkpt lat="48.38565" lon="7.44307">
        <ele>202.2</ele>
        <time>2019-08-09T10:37:34Z</time>
      </trkpt>
      <trkpt lat="48.38561" lon="7.44307">
        <ele>202.4</ele>
        <time>2019-08-09T10:37:35Z</time>
      </trkpt>
      <trkpt lat="48.38557" lon="7.44307">
        <ele>202.5</ele>
        <time>2019-08-09T10:37:36Z</time>
      </trkpt>
      <trkpt lat="48.38554" lon="7.44306">
        <ele>202.7</ele>
        <time>2019-08-09T10:37:37Z</time>
      </trkpt>
      <trkpt lat="48.3855" lon="7.44306">
        <ele>202.8</ele>
        <time>2019-08-09T10:37:38Z</time>
      </trkpt>
      <trkpt lat="48.38547" lon="7.44306">
        <ele>202.9</ele>
        <time>2019-08-09T10:37:39Z</time>
      </trkpt>
      <trkpt lat="48.38544" lon="7.44305">
        <ele>203.1</ele>
        <time>2019-08-09T10:37:40Z</time>
      </trkpt>
      <trkpt lat="48.38541" lon="7.44305">
        <ele>203.2</ele>
        <time>2019-08-09T10:37:41Z</time>
      </trkpt>
      <trkpt lat="48.38537" lon="7.44305">
        <ele>203.4</ele>
        <time>2019-08-09T10:37:42Z</time>
      </trkpt>
      <trkpt lat="48.38534" lon="7.44305">
        <ele>203.5</ele>
        <time>2019-08-09T10:37:43Z</time>
      </trkpt>
      <trkpt lat="48.3853" lon="7.44305">
        <ele>203.7</ele>
        <time>2019-08-09T10:37:44Z</time>
      </trkpt>
      <trkpt lat="48.38526" lon="7.44304">
        <ele>203.8</ele>
        <time>2019-08-09T10:37:45Z</time>
      </trkpt>
      <trkpt lat="48.38522" lon="7.44305">
        <ele>204</ele>
        <time>2019-08-09T10:37:46Z</time>
      </trkpt>
      <trkpt lat="48.38519" lon="7.44304">
        <ele>204.1</ele>
        <time>2019-08-09T10:37:47Z</time>
      </trkpt>
      <trkpt lat="48.38516" lon="7.44303">
        <ele>204.3</ele>
        <time>2019-08-09T10:37:48Z</time>
      </trkpt>
      <trkpt lat="48.38513" lon="7.44302">
        <ele>204.4</ele>
        <time>2019-08-09T10:37:49Z</time>
      </trkpt>
      <trkpt lat="48.3851" lon="7.44301">
        <ele>204.5</ele>
        <time>2019-08-09T10:37:50Z</time>
      </trkpt>
      <trkpt lat="48.38507" lon="7.443">
        <ele>204.7</ele>
        <time>2019-08-09T10:37:51Z</time>
      </trkpt>
      <trkpt lat="48.38503" lon="7.44298">
        <ele>204.8</ele>
        <time>2019-08-09T10:37:52Z</time>
      </trkpt>
      <trkpt lat="48.385" lon="7.44297">
        <ele>204.9</ele>
        <time>2019-08-09T10:37:53Z</time>
      </trkpt>
      <trkpt lat="48.38496" lon="7.44297">
        <ele>205.1</ele>
        <time>2019-08-09T10:37:54Z</time>
      </trkpt>
      <trkpt lat="48.38492" lon="7.44296">
        <ele>205.2</ele>
        <time>2019-08-09T10:37:55Z</time>
      </trkpt>
      <trkpt lat="48.38488" lon="7.44295">
        <ele>205.3</ele>
        <time>2019-08-09T10:37:56Z</time>
      </trkpt>
      <trkpt lat="48.38484" lon="7.44294">
        <ele>205.4</ele>
        <time>2019-08-09T10:37:57Z</time>
      </trkpt>
      <trkpt lat="48.38481" lon="7.44294">
        <ele>205.5</ele>
        <time>2019-08-09T10:37:58Z</time>
      </trkpt>
      <trkpt lat="48.38477" lon="7.44295">
        <ele>205.7</ele>
        <time>2019-08-09T10:37:59Z</time>
      </trkpt>
      <trkpt lat="48.38473" lon="7.44296">
        <ele>205.8</ele>
        <time>2019-08-09T10:38:00Z</time>
      </trkpt>
      <trkpt lat="48.38469" lon="7.44295">
        <ele>205.9</ele>
        <time>2019-08-09T10:38:01Z</time>
      </trkpt>
      <trkpt lat="48.38465" lon="7.44296">
        <ele>206.1</ele>
        <time>2019-08-09T10:38:02Z</time>
      </trkpt>
      <trkpt lat="48.38461" lon="7.44295">
        <ele>206.2</ele>
        <time>2019-08-09T10:38:03Z</time>
      </trkpt>
      <trkpt lat="48.38458" lon="7.44295">
        <ele>206.3</ele>
        <time>2019-08-09T10:38:04Z</time>
      </trkpt>
      <trkpt lat="48.38454" lon="7.44295">
        <ele>206.5</ele>
        <time>2019-08-09T10:38:05Z</time>
      </trkpt>
      <trkpt lat="48.3845" lon="7.44295">
        <ele>206.6</ele>
        <time>2019-08-09T10:38:06Z</time>
      </trkpt>
      <trkpt lat="48.38447" lon="7.44295">
        <ele>206.7</ele>
        <time>2019-08-09T10:38:07Z</time>
      </trkpt>
      <trkpt lat="48.38443" lon="7.44295">
        <ele>206.8</ele>
        <time>2019-08-09T10:38:08Z</time>
      </trkpt>
      <trkpt lat="48.3844" lon="7.44293">
        <ele>206.9</ele>
        <time>2019-08-09T10:38:09Z</time>
      </trkpt>
      <trkpt lat="48.38437" lon="7.44292">
        <ele>207</ele>
        <time>2019-08-09T10:38:10Z</time>
      </trkpt>
      <trkpt lat="48.38434" lon="7.4429">
        <ele>207.1</ele>
        <time>2019-08-09T10:38:11Z</time>
      </trkpt>
      <trkpt lat="48.38431" lon="7.44288">
        <ele>207.2</ele>
        <time>2019-08-09T10:38:12Z</time>
      </trkpt>
      <trkpt lat="48.38427" lon="7.44286">
        <ele>207.3</ele>
        <time>2019-08-09T10:38:13Z</time>
      </trkpt>
      <trkpt lat="48.38424" lon="7.44284">
        <ele>207.5</ele>
        <time>2019-08-09T10:38:14Z</time>
      </trkpt>
      <trkpt lat="48.3842" lon="7.44282">
        <ele>207.6</ele>
        <time>2019-08-09T10:38:15Z</time>
      </trkpt>
      <trkpt lat="48.38417" lon="7.44279">
        <ele>207.8</ele>
        <time>2019-08-09T10:38:16Z</time>
      </trkpt>
      <trkpt lat="48.38413" lon="7.44275">
        <ele>207.9</ele>
        <time>2019-08-09T10:38:17Z</time>
      </trkpt>
      <trkpt lat="48.38411" lon="7.44273">
        <ele>208.1</ele>
        <time>2019-08-09T10:38:18Z</time>
      </trkpt>
      <trkpt lat="48.38408" lon="7.4427">
        <ele>208.2</ele>
        <time>2019-08-09T10:38:19Z</time>
      </trkpt>
      <trkpt lat="48.38405" lon="7.44265">
        <ele>208.4</ele>
        <time>2019-08-09T10:38:20Z</time>
      </trkpt>
      <trkpt lat="48.38402" lon="7.4426">
        <ele>208.5</ele>
        <time>2019-08-09T10:38:21Z</time>
      </trkpt>
      <trkpt lat="48.384" lon="7.44255">
        <ele>208.7</ele>
        <time>2019-08-09T10:38:22Z</time>
      </trkpt>
      <trkpt lat="48.38398" lon="7.44251">
        <ele>208.8</ele>
        <time>2019-08-09T10:38:23Z</time>
      </trkpt>
      <trkpt lat="48.38396" lon="7.44247">
        <ele>208.9</ele>
        <time>2019-08-09T10:38:24Z</time>
      </trkpt>
      <trkpt lat="48.38395" lon="7.44242">
        <ele>209</ele>
        <time>2019-08-09T10:38:25Z</time>
      </trkpt>
      <trkpt lat="48.38394" lon="7.44238">
        <ele>209.1</ele>
        <time>2019-08-09T10:38:26Z</time>
      </trkpt>
      <trkpt lat="48.38393" lon="7.44233">
        <ele>209.2</ele>
        <time>2019-08-09T10:38:27Z</time>
      </trkpt>
      <trkpt lat="48.38392" lon="7.44227">
        <ele>209.3</ele>
        <time>2019-08-09T10:38:28Z</time>
      </trkpt>
      <trkpt lat="48.3839" lon="7.44222">
        <ele>209.5</ele>
        <time>2019-08-09T10:38:29Z</time>
      </trkpt>
      <trkpt lat="48.38388" lon="7.44216">
        <ele>209.7</ele>
        <time>2019-08-09T10:38:30Z</time>
      </trkpt>
      <trkpt lat="48.38386" lon="7.4421">
        <ele>209.8</ele>
        <time>2019-08-09T10:38:31Z</time>
      </trkpt>
      <trkpt lat="48.38384" lon="7.44205">
        <ele>210</ele>
        <time>2019-08-09T10:38:32Z</time>
      </trkpt>
      <trkpt lat="48.38383" lon="7.442">
        <ele>210.1</ele>
        <time>2019-08-09T10:38:33Z</time>
      </trkpt>
      <trkpt lat="48.3838" lon="7.44195">
        <ele>210.3</ele>
        <time>2019-08-09T10:38:34Z</time>
      </trkpt>
      <trkpt lat="48.38379" lon="7.4419">
        <ele>210.4</ele>
        <time>2019-08-09T10:38:35Z</time>
      </trkpt>
      <trkpt lat="48.38376" lon="7.44185">
        <ele>210.6</ele>
        <time>2019-08-09T10:38:36Z</time>
      </trkpt>
      <trkpt lat="48.38374" lon="7.44181">
        <ele>210.7</ele>
        <time>2019-08-09T10:38:37Z</time>
      </trkpt>
      <trkpt lat="48.38371" lon="7.44177">
        <ele>210.8</ele>
        <time>2019-08-09T10:38:38Z</time>
      </trkpt>
      <trkpt lat="48.38369" lon="7.44172">
        <ele>211</ele>
        <time>2019-08-09T10:38:39Z</time>
      </trkpt>
      <trkpt lat="48.38367" lon="7.44167">
        <ele>211.1</ele>
        <time>2019-08-09T10:38:40Z</time>
      </trkpt>
      <trkpt lat="48.38364" lon="7.44163">
        <ele>211.4</ele>
        <time>2019-08-09T10:38:41Z</time>
      </trkpt>
      <trkpt lat="48.38361" lon="7.44159">
        <ele>211.5</ele>
        <time>2019-08-09T10:38:42Z</time>
      </trkpt>
      <trkpt lat="48.38358" lon="7.44155">
        <ele>211.6</ele>
        <time>2019-08-09T10:38:43Z</time>
      </trkpt>
      <trkpt lat="48.38356" lon="7.44151">
        <ele>211.8</ele>
        <time>2019-08-09T10:38:44Z</time>
      </trkpt>
      <trkpt lat="48.38353" lon="7.44148">
        <ele>211.8</ele>
        <time>2019-08-09T10:38:45Z</time>
      </trkpt>
      <trkpt lat="48.38351" lon="7.44144">
        <ele>211.9</ele>
        <time>2019-08-09T10:38:46Z</time>
      </trkpt>
      <trkpt lat="48.38349" lon="7.44141">
        <ele>211.9</ele>
        <time>2019-08-09T10:38:47Z</time>
      </trkpt>
      <trkpt lat="48.38346" lon="7.44137">
        <ele>212</ele>
        <time>2019-08-09T10:38:48Z</time>
      </trkpt>
      <trkpt lat="48.38344" lon="7.44134">
        <ele>212</ele>
        <time>2019-08-09T10:38:49Z</time>
      </trkpt>
      <trkpt lat="48.38342" lon="7.44131">
        <ele>212.3</ele>
        <time>2019-08-09T10:38:50Z</time>
      </trkpt>
      <trkpt lat="48.38338" lon="7.44127">
        <ele>212.5</ele>
        <time>2019-08-09T10:38:52Z</time>
      </trkpt>
      <trkpt lat="48.38336" lon="7.44124">
        <ele>212.6</ele>
        <time>2019-08-09T10:38:54Z</time>
      </trkpt>
      <trkpt lat="48.38335" lon="7.44119">
        <ele>212.7</ele>
        <time>2019-08-09T10:38:57Z</time>
      </trkpt>
      <trkpt lat="48.38334" lon="7.44115">
        <ele>212.8</ele>
        <time>2019-08-09T10:39:00Z</time>
      </trkpt>
      <trkpt lat="48.38333" lon="7.4411">
        <ele>212.9</ele>
        <time>2019-08-09T10:39:02Z</time>
      </trkpt>
      <trkpt lat="48.38333" lon="7.44104">
        <ele>213</ele>
        <time>2019-08-09T10:39:04Z</time>
      </trkpt>
      <trkpt lat="48.38333" lon="7.44099">
        <ele>213.1</ele>
        <time>2019-08-09T10:39:06Z</time>
      </trkpt>
      <trkpt lat="48.38331" lon="7.44093">
        <ele>213.3</ele>
        <time>2019-08-09T10:39:09Z</time>
      </trkpt>
      <trkpt lat="48.38329" lon="7.44088">
        <ele>213.4</ele>
        <time>2019-08-09T10:39:11Z</time>
      </trkpt>
      <trkpt lat="48.38327" lon="7.44083">
        <ele>213.6</ele>
        <time>2019-08-09T10:39:12Z</time>
      </trkpt>
      <trkpt lat="48.38325" lon="7.44079">
        <ele>213.7</ele>
        <time>2019-08-09T10:39:13Z</time>
      </trkpt>
      <trkpt lat="48.38324" lon="7.44075">
        <ele>213.9</ele>
        <time>2019-08-09T10:39:14Z</time>
      </trkpt>
      <trkpt lat="48.38322" lon="7.44072">
        <ele>214</ele>
        <time>2019-08-09T10:39:15Z</time>
      </trkpt>
      <trkpt lat="48.3832" lon="7.44068">
        <ele>214.2</ele>
        <time>2019-08-09T10:39:17Z</time>
      </trkpt>
      <trkpt lat="48.38319" lon="7.44065">
        <ele>214.3</ele>
        <time>2019-08-09T10:39:19Z</time>
      </trkpt>
      <trkpt lat="48.38316" lon="7.4406">
        <ele>214.5</ele>
        <time>2019-08-09T10:39:22Z</time>
      </trkpt>
      <trkpt lat="48.38314" lon="7.44056">
        <ele>214.6</ele>
        <time>2019-08-09T10:39:24Z</time>
      </trkpt>
      <trkpt lat="48.38313" lon="7.44052">
        <ele>214.7</ele>
        <time>2019-08-09T10:39:26Z</time>
      </trkpt>
      <trkpt lat="48.38312" lon="7.44047">
        <ele>214.9</ele>
        <time>2019-08-09T10:39:29Z</time>
      </trkpt>
      <trkpt lat="48.3831" lon="7.44042">
        <ele>215</ele>
        <time>2019-08-09T10:39:31Z</time>
      </trkpt>
      <trkpt lat="48.38309" lon="7.44035">
        <ele>215.2</ele>
        <time>2019-08-09T10:39:33Z</time>
      </trkpt>
      <trkpt lat="48.38307" lon="7.44029">
        <ele>215.3</ele>
        <time>2019-08-09T10:39:35Z</time>
      </trkpt>
      <trkpt lat="48.38306" lon="7.44022">
        <ele>215.5</ele>
        <time>2019-08-09T10:39:37Z</time>
      </trkpt>
      <trkpt lat="48.38304" lon="7.44015">
        <ele>215.7</ele>
        <time>2019-08-09T10:39:39Z</time>
      </trkpt>
      <trkpt lat="48.38302" lon="7.44007">
        <ele>215.9</ele>
        <time>2019-08-09T10:39:41Z</time>
      </trkpt>
      <trkpt lat="48.383" lon="7.44003">
        <ele>216.1</ele>
        <time>2019-08-09T10:39:42Z</time>
      </trkpt>
      <trkpt lat="48.38299" lon="7.43998">
        <ele>216.3</ele>
        <time>2019-08-09T10:39:43Z</time>
      </trkpt>
      <trkpt lat="48.38299" lon="7.43994">
        <ele>216.5</ele>
        <time>2019-08-09T10:39:44Z</time>
      </trkpt>
      <trkpt lat="48.38296" lon="7.43988">
        <ele>216.6</ele>
        <time>2019-08-09T10:39:46Z</time>
      </trkpt>
      <trkpt lat="48.38292" lon="7.43983">
        <ele>216.9</ele>
        <time>2019-08-09T10:39:48Z</time>
      </trkpt>
      <trkpt lat="48.3829" lon="7.43981">
        <ele>217</ele>
        <time>2019-08-09T10:39:49Z</time>
      </trkpt>
      <trkpt lat="48.38288" lon="7.43978">
        <ele>217.1</ele>
        <time>2019-08-09T10:39:50Z</time>
      </trkpt>
      <trkpt lat="48.38285" lon="7.43975">
        <ele>217.2</ele>
        <time>2019-08-09T10:39:51Z</time>
      </trkpt>
      <trkpt lat="48.38283" lon="7.43972">
        <ele>217.3</ele>
        <time>2019-08-09T10:39:52Z</time>
      </trkpt>
      <trkpt lat="48.38281" lon="7.43968">
        <ele>217.4</ele>
        <time>2019-08-09T10:39:53Z</time>
      </trkpt>
      <trkpt lat="48.38278" lon="7.43963">
        <ele>217.6</ele>
        <time>2019-08-09T10:39:55Z</time>
      </trkpt>
      <trkpt lat="48.38275" lon="7.43957">
        <ele>217.7</ele>
        <time>2019-08-09T10:39:57Z</time>
      </trkpt>
      <trkpt lat="48.38272" lon="7.43953">
        <ele>217.8</ele>
        <time>2019-08-09T10:39:59Z</time>
      </trkpt>
      <trkpt lat="48.3827" lon="7.4395">
        <ele>217.9</ele>
        <time>2019-08-09T10:40:00Z</time>
      </trkpt>
      <trkpt lat="48.38268" lon="7.43947">
        <ele>218</ele>
        <time>2019-08-09T10:40:01Z</time>
      </trkpt>
      <trkpt lat="48.38264" lon="7.43943">
        <ele>218.1</ele>
        <time>2019-08-09T10:40:03Z</time>
      </trkpt>
      <trkpt lat="48.3826" lon="7.43939">
        <ele>218.2</ele>
        <time>2019-08-09T10:40:05Z</time>
      </trkpt>
      <trkpt lat="48.38258" lon="7.43936">
        <ele>218.2</ele>
        <time>2019-08-09T10:40:06Z</time>
      </trkpt>
      <trkpt lat="48.38256" lon="7.43933">
        <ele>218.3</ele>
        <time>2019-08-09T10:40:07Z</time>
      </trkpt>
      <trkpt lat="48.38254" lon="7.43929">
        <ele>218.3</ele>
        <time>2019-08-09T10:40:08Z</time>
      </trkpt>
      <trkpt lat="48.38251" lon="7.43927">
        <ele>218.4</ele>
        <time>2019-08-09T10:40:09Z</time>
      </trkpt>
      <trkpt lat="48.38249" lon="7.43925">
        <ele>218.5</ele>
        <time>2019-08-09T10:40:10Z</time>
      </trkpt>
      <trkpt lat="48.38246" lon="7.43922">
        <ele>218.5</ele>
        <time>2019-08-09T10:40:11Z</time>
      </trkpt>
      <trkpt lat="48.38243" lon="7.43919">
        <ele>218.5</ele>
        <time>2019-08-09T10:40:12Z</time>
      </trkpt>
      <trkpt lat="48.38241" lon="7.43916">
        <ele>218.5</ele>
        <time>2019-08-09T10:40:13Z</time>
      </trkpt>
      <trkpt lat="48.38238" lon="7.43913">
        <ele>218.6</ele>
        <time>2019-08-09T10:40:14Z</time>
      </trkpt>
      <trkpt lat="48.38235" lon="7.43908">
        <ele>218.6</ele>
        <time>2019-08-09T10:40:15Z</time>
      </trkpt>
      <trkpt lat="48.38233" lon="7.43903">
        <ele>218.6</ele>
        <time>2019-08-09T10:40:16Z</time>
      </trkpt>
      <trkpt lat="48.38231" lon="7.439">
        <ele>218.6</ele>
        <time>2019-08-09T10:40:17Z</time>
      </trkpt>
      <trkpt lat="48.38229" lon="7.43896">
        <ele>218.6</ele>
        <time>2019-08-09T10:40:18Z</time>
      </trkpt>
      <trkpt lat="48.38227" lon="7.43893">
        <ele>218.7</ele>
        <time>2019-08-09T10:40:19Z</time>
      </trkpt>
      <trkpt lat="48.38224" lon="7.4389">
        <ele>218.7</ele>
        <time>2019-08-09T10:40:20Z</time>
      </trkpt>
      <trkpt lat="48.38221" lon="7.43888">
        <ele>218.7</ele>
        <time>2019-08-09T10:40:21Z</time>
      </trkpt>
      <trkpt lat="48.38219" lon="7.43884">
        <ele>218.7</ele>
        <time>2019-08-09T10:40:22Z</time>
      </trkpt>
      <trkpt lat="48.38216" lon="7.4388">
        <ele>218.7</ele>
        <time>2019-08-09T10:40:23Z</time>
      </trkpt>
      <trkpt lat="48.38213" lon="7.43877">
        <ele>218.6</ele>
        <time>2019-08-09T10:40:24Z</time>
      </trkpt>
      <trkpt lat="48.3821" lon="7.43874">
        <ele>218.6</ele>
        <time>2019-08-09T10:40:25Z</time>
      </trkpt>
      <trkpt lat="48.38207" lon="7.4387">
        <ele>218.7</ele>
        <time>2019-08-09T10:40:26Z</time>
      </trkpt>
      <trkpt lat="48.38204" lon="7.43866">
        <ele>218.8</ele>
        <time>2019-08-09T10:40:27Z</time>
      </trkpt>
      <trkpt lat="48.38201" lon="7.43861">
        <ele>218.8</ele>
        <time>2019-08-09T10:40:28Z</time>
      </trkpt>
      <trkpt lat="48.38199" lon="7.43856">
        <ele>218.9</ele>
        <time>2019-08-09T10:40:29Z</time>
      </trkpt>
      <trkpt lat="48.38197" lon="7.43852">
        <ele>219</ele>
        <time>2019-08-09T10:40:30Z</time>
      </trkpt>
      <trkpt lat="48.38195" lon="7.43848">
        <ele>219</ele>
        <time>2019-08-09T10:40:31Z</time>
      </trkpt>
      <trkpt lat="48.38193" lon="7.43845">
        <ele>219.1</ele>
        <time>2019-08-09T10:40:32Z</time>
      </trkpt>
      <trkpt lat="48.38192" lon="7.43841">
        <ele>219.1</ele>
        <time>2019-08-09T10:40:33Z</time>
      </trkpt>
      <trkpt lat="48.38188" lon="7.43835">
        <ele>219.2</ele>
        <time>2019-08-09T10:40:35Z</time>
      </trkpt>
      <trkpt lat="48.38186" lon="7.43831">
        <ele>219.3</ele>
        <time>2019-08-09T10:40:36Z</time>
      </trkpt>
      <trkpt lat="48.38184" lon="7.43825">
        <ele>219.4</ele>
        <time>2019-08-09T10:40:38Z</time>
      </trkpt>
      <trkpt lat="48.38182" lon="7.43818">
        <ele>219.5</ele>
        <time>2019-08-09T10:40:40Z</time>
      </trkpt>
      <trkpt lat="48.3818" lon="7.43813">
        <ele>219.6</ele>
        <time>2019-08-09T10:40:42Z</time>
      </trkpt>
      <trkpt lat="48.38178" lon="7.43808">
        <ele>219.7</ele>
        <time>2019-08-09T10:40:44Z</time>
      </trkpt>
      <trkpt lat="48.38176" lon="7.43802">
        <ele>219.8</ele>
        <time>2019-08-09T10:40:46Z</time>
      </trkpt>
      <trkpt lat="48.38174" lon="7.43796">
        <ele>219.9</ele>
        <time>2019-08-09T10:40:48Z</time>
      </trkpt>
      <trkpt lat="48.38172" lon="7.43791">
        <ele>220</ele>
        <time>2019-08-09T10:40:50Z</time>
      </trkpt>
      <trkpt lat="48.38171" lon="7.43785">
        <ele>220.1</ele>
        <time>2019-08-09T10:40:52Z</time>
      </trkpt>
      <trkpt lat="48.38169" lon="7.4378">
        <ele>220.2</ele>
        <time>2019-08-09T10:40:54Z</time>
      </trkpt>
      <trkpt lat="48.38167" lon="7.43775">
        <ele>220.2</ele>
        <time>2019-08-09T10:40:56Z</time>
      </trkpt>
      <trkpt lat="48.38166" lon="7.43769">
        <ele>220.3</ele>
        <time>2019-08-09T10:40:58Z</time>
      </trkpt>
      <trkpt lat="48.38165" lon="7.43765">
        <ele>220.4</ele>
        <time>2019-08-09T10:41:00Z</time>
      </trkpt>
      <trkpt lat="48.38163" lon="7.43761">
        <ele>220.4</ele>
        <time>2019-08-09T10:41:02Z</time>
      </trkpt>
      <trkpt lat="48.38162" lon="7.43757">
        <ele>220.5</ele>
        <time>2019-08-09T10:41:04Z</time>
      </trkpt>
      <trkpt lat="48.38161" lon="7.43752">
        <ele>220.6</ele>
        <time>2019-08-09T10:41:06Z</time>
      </trkpt>
      <trkpt lat="48.38159" lon="7.43747">
        <ele>220.6</ele>
        <time>2019-08-09T10:41:08Z</time>
      </trkpt>
      <trkpt lat="48.38158" lon="7.43741">
        <ele>220.7</ele>
        <time>2019-08-09T10:41:10Z</time>
      </trkpt>
      <trkpt lat="48.38158" lon="7.43735">
        <ele>220.8</ele>
        <time>2019-08-09T10:41:12Z</time>
      </trkpt>
      <trkpt lat="48.38157" lon="7.43728">
        <ele>221</ele>
        <time>2019-08-09T10:41:14Z</time>
      </trkpt>
      <trkpt lat="48.38156" lon="7.43724">
        <ele>221.1</ele>
        <time>2019-08-09T10:41:15Z</time>
      </trkpt>
      <trkpt lat="48.38154" lon="7.43719">
        <ele>221.2</ele>
        <time>2019-08-09T10:41:17Z</time>
      </trkpt>
      <trkpt lat="48.38151" lon="7.43713">
        <ele>221.4</ele>
        <time>2019-08-09T10:41:19Z</time>
      </trkpt>
      <trkpt lat="48.38149" lon="7.43705">
        <ele>221.5</ele>
        <time>2019-08-09T10:41:21Z</time>
      </trkpt>
      <trkpt lat="48.38146" lon="7.43699">
        <ele>221.6</ele>
        <time>2019-08-09T10:41:23Z</time>
      </trkpt>
      <trkpt lat="48.38145" lon="7.43695">
        <ele>221.6</ele>
        <time>2019-08-09T10:41:24Z</time>
      </trkpt>
      <trkpt lat="48.38142" lon="7.43688">
        <ele>221.7</ele>
        <time>2019-08-09T10:41:26Z</time>
      </trkpt>
      <trkpt lat="48.3814" lon="7.43681">
        <ele>221.8</ele>
        <time>2019-08-09T10:41:28Z</time>
      </trkpt>
      <trkpt lat="48.38139" lon="7.43677">
        <ele>221.9</ele>
        <time>2019-08-09T10:41:29Z</time>
      </trkpt>
      <trkpt lat="48.38136" lon="7.43671">
        <ele>222</ele>
        <time>2019-08-09T10:41:31Z</time>
      </trkpt>
      <trkpt lat="48.38133" lon="7.43666">
        <ele>222.1</ele>
        <time>2019-08-09T10:41:33Z</time>
      </trkpt>
      <trkpt lat="48.38129" lon="7.43661">
        <ele>222.3</ele>
        <time>2019-08-09T10:41:35Z</time>
      </trkpt>
      <trkpt lat="48.38126" lon="7.43655">
        <ele>222.4</ele>
        <time>2019-08-09T10:41:37Z</time>
      </trkpt>
      <trkpt lat="48.38123" lon="7.4365">
        <ele>222.6</ele>
        <time>2019-08-09T10:41:39Z</time>
      </trkpt>
      <trkpt lat="48.38121" lon="7.43648">
        <ele>222.7</ele>
        <time>2019-08-09T10:41:40Z</time>
      </trkpt>
      <trkpt lat="48.38116" lon="7.43643">
        <ele>222.8</ele>
        <time>2019-08-09T10:41:42Z</time>
      </trkpt>
      <trkpt lat="48.38112" lon="7.43638">
        <ele>222.9</ele>
        <time>2019-08-09T10:41:44Z</time>
      </trkpt>
      <trkpt lat="48.38109" lon="7.43634">
        <ele>223</ele>
        <time>2019-08-09T10:41:46Z</time>
      </trkpt>
      <trkpt lat="48.38104" lon="7.43629">
        <ele>223</ele>
        <time>2019-08-09T10:41:48Z</time>
      </trkpt>
      <trkpt lat="48.38102" lon="7.43626">
        <ele>223.1</ele>
        <time>2019-08-09T10:41:49Z</time>
      </trkpt>
      <trkpt lat="48.381" lon="7.43623">
        <ele>223.1</ele>
        <time>2019-08-09T10:41:50Z</time>
      </trkpt>
      <trkpt lat="48.38098" lon="7.4362">
        <ele>223.1</ele>
        <time>2019-08-09T10:41:51Z</time>
      </trkpt>
      <trkpt lat="48.38096" lon="7.43617">
        <ele>223.2</ele>
        <time>2019-08-09T10:41:52Z</time>
      </trkpt>
      <trkpt lat="48.38092" lon="7.43614">
        <ele>223.2</ele>
        <time>2019-08-09T10:41:54Z</time>
      </trkpt>
      <trkpt lat="48.38087" lon="7.4361">
        <ele>223.2</ele>
        <time>2019-08-09T10:41:56Z</time>
      </trkpt>
      <trkpt lat="48.38084" lon="7.43608">
        <ele>223.2</ele>
        <time>2019-08-09T10:41:57Z</time>
      </trkpt>
      <trkpt lat="48.38081" lon="7.43605">
        <ele>223.2</ele>
        <time>2019-08-09T10:41:58Z</time>
      </trkpt>
      <trkpt lat="48.38078" lon="7.43603">
        <ele>223.3</ele>
        <time>2019-08-09T10:41:59Z</time>
      </trkpt>
      <trkpt lat="48.38075" lon="7.43601">
        <ele>223.3</ele>
        <time>2019-08-09T10:42:00Z</time>
      </trkpt>
      <trkpt lat="48.38071" lon="7.43598">
        <ele>223.3</ele>
        <time>2019-08-09T10:42:02Z</time>
      </trkpt>
      <trkpt lat="48.38069" lon="7.43596">
        <ele>223.3</ele>
        <time>2019-08-09T10:42:04Z</time>
      </trkpt>
      <trkpt lat="48.38064" lon="7.43595">
        <ele>223.3</ele>
        <time>2019-08-09T10:42:06Z</time>
      </trkpt>
      <trkpt lat="48.3806" lon="7.43592">
        <ele>223.2</ele>
        <time>2019-08-09T10:42:08Z</time>
      </trkpt>
      <trkpt lat="48.38055" lon="7.43588">
        <ele>223.2</ele>
        <time>2019-08-09T10:42:10Z</time>
      </trkpt>
      <trkpt lat="48.38052" lon="7.43584">
        <ele>223.2</ele>
        <time>2019-08-09T10:42:12Z</time>
      </trkpt>
      <trkpt lat="48.38047" lon="7.43582">
        <ele>223.2</ele>
        <time>2019-08-09T10:42:14Z</time>
      </trkpt>
      <trkpt lat="48.38043" lon="7.43579">
        <ele>223.2</ele>
        <time>2019-08-09T10:42:16Z</time>
      </trkpt>
      <trkpt lat="48.38038" lon="7.43576">
        <ele>223.2</ele>
        <time>2019-08-09T10:42:18Z</time>
      </trkpt>
      <trkpt lat="48.38036" lon="7.43574">
        <ele>223.2</ele>
        <time>2019-08-09T10:42:19Z</time>
      </trkpt>
      <trkpt lat="48.38031" lon="7.4357">
        <ele>223.2</ele>
        <time>2019-08-09T10:42:21Z</time>
      </trkpt>
      <trkpt lat="48.38027" lon="7.43566">
        <ele>223.2</ele>
        <time>2019-08-09T10:42:23Z</time>
      </trkpt>
      <trkpt lat="48.38023" lon="7.43561">
        <ele>223.2</ele>
        <time>2019-08-09T10:42:25Z</time>
      </trkpt>
      <trkpt lat="48.38018" lon="7.43558">
        <ele>223.2</ele>
        <time>2019-08-09T10:42:27Z</time>
      </trkpt>
      <trkpt lat="48.38016" lon="7.43555">
        <ele>223.2</ele>
        <time>2019-08-09T10:42:28Z</time>
      </trkpt>
      <trkpt lat="48.38013" lon="7.43554">
        <ele>223.2</ele>
        <time>2019-08-09T10:42:29Z</time>
      </trkpt>
      <trkpt lat="48.38011" lon="7.43551">
        <ele>223.2</ele>
        <time>2019-08-09T10:42:30Z</time>
      </trkpt>
      <trkpt lat="48.38009" lon="7.43548">
        <ele>223.2</ele>
        <time>2019-08-09T10:42:31Z</time>
      </trkpt>
      <trkpt lat="48.38005" lon="7.43545">
        <ele>223.2</ele>
        <time>2019-08-09T10:42:33Z</time>
      </trkpt>
      <trkpt lat="48.38001" lon="7.4354">
        <ele>223.2</ele>
        <time>2019-08-09T10:42:35Z</time>
      </trkpt>
      <trkpt lat="48.37998" lon="7.43536">
        <ele>223.2</ele>
        <time>2019-08-09T10:42:37Z</time>
      </trkpt>
      <trkpt lat="48.37993" lon="7.43533">
        <ele>223.2</ele>
        <time>2019-08-09T10:42:39Z</time>
      </trkpt>
      <trkpt lat="48.37991" lon="7.43531">
        <ele>223.2</ele>
        <time>2019-08-09T10:42:40Z</time>
      </trkpt>
      <trkpt lat="48.37986" lon="7.43528">
        <ele>223.3</ele>
        <time>2019-08-09T10:42:42Z</time>
      </trkpt>
      <trkpt lat="48.37982" lon="7.43524">
        <ele>223.3</ele>
        <time>2019-08-09T10:42:44Z</time>
      </trkpt>
      <trkpt lat="48.37978" lon="7.43521">
        <ele>223.3</ele>
        <time>2019-08-09T10:42:46Z</time>
      </trkpt>
      <trkpt lat="48.37975" lon="7.43518">
        <ele>223.3</ele>
        <time>2019-08-09T10:42:48Z</time>
      </trkpt>
      <trkpt lat="48.3797" lon="7.43516">
        <ele>223.4</ele>
        <time>2019-08-09T10:42:50Z</time>
      </trkpt>
      <trkpt lat="48.37966" lon="7.43513">
        <ele>223.4</ele>
        <time>2019-08-09T10:42:52Z</time>
      </trkpt>
      <trkpt lat="48.37962" lon="7.43511">
        <ele>223.5</ele>
        <time>2019-08-09T10:42:54Z</time>
      </trkpt>
      <trkpt lat="48.37958" lon="7.43509">
        <ele>223.5</ele>
        <time>2019-08-09T10:42:56Z</time>
      </trkpt>
      <trkpt lat="48.37953" lon="7.43508">
        <ele>223.6</ele>
        <time>2019-08-09T10:42:58Z</time>
      </trkpt>
      <trkpt lat="48.37948" lon="7.43506">
        <ele>223.7</ele>
        <time>2019-08-09T10:43:00Z</time>
      </trkpt>
      <trkpt lat="48.37946" lon="7.43505">
        <ele>223.8</ele>
        <time>2019-08-09T10:43:01Z</time>
      </trkpt>
      <trkpt lat="48.37941" lon="7.43503">
        <ele>223.9</ele>
        <time>2019-08-09T10:43:03Z</time>
      </trkpt>
      <trkpt lat="48.37938" lon="7.43502">
        <ele>224</ele>
        <time>2019-08-09T10:43:04Z</time>
      </trkpt>
      <trkpt lat="48.37933" lon="7.435">
        <ele>224.1</ele>
        <time>2019-08-09T10:43:06Z</time>
      </trkpt>
      <trkpt lat="48.37929" lon="7.43498">
        <ele>224.2</ele>
        <time>2019-08-09T10:43:08Z</time>
      </trkpt>
      <trkpt lat="48.37926" lon="7.43496">
        <ele>224.3</ele>
        <time>2019-08-09T10:43:09Z</time>
      </trkpt>
      <trkpt lat="48.37921" lon="7.43495">
        <ele>224.5</ele>
        <time>2019-08-09T10:43:11Z</time>
      </trkpt>
      <trkpt lat="48.37918" lon="7.43494">
        <ele>224.6</ele>
        <time>2019-08-09T10:43:12Z</time>
      </trkpt>
      <trkpt lat="48.37914" lon="7.43491">
        <ele>224.8</ele>
        <time>2019-08-09T10:43:14Z</time>
      </trkpt>
      <trkpt lat="48.37909" lon="7.4349">
        <ele>225.1</ele>
        <time>2019-08-09T10:43:16Z</time>
      </trkpt>
      <trkpt lat="48.37905" lon="7.43487">
        <ele>225.3</ele>
        <time>2019-08-09T10:43:18Z</time>
      </trkpt>
      <trkpt lat="48.37901" lon="7.43484">
        <ele>225.5</ele>
        <time>2019-08-09T10:43:20Z</time>
      </trkpt>
      <trkpt lat="48.37896" lon="7.43481">
        <ele>225.7</ele>
        <time>2019-08-09T10:43:22Z</time>
      </trkpt>
      <trkpt lat="48.37892" lon="7.43477">
        <ele>225.9</ele>
        <time>2019-08-09T10:43:24Z</time>
      </trkpt>
      <trkpt lat="48.37889" lon="7.43473">
        <ele>226.1</ele>
        <time>2019-08-09T10:43:26Z</time>
      </trkpt>
      <trkpt lat="48.37885" lon="7.43471">
        <ele>226.2</ele>
        <time>2019-08-09T10:43:28Z</time>
      </trkpt>
      <trkpt lat="48.37882" lon="7.43467">
        <ele>226.4</ele>
        <time>2019-08-09T10:43:30Z</time>
      </trkpt>
      <trkpt lat="48.37879" lon="7.43464">
        <ele>226.5</ele>
        <time>2019-08-09T10:43:32Z</time>
      </trkpt>
      <trkpt lat="48.37874" lon="7.43461">
        <ele>226.6</ele>
        <time>2019-08-09T10:43:34Z</time>
      </trkpt>
      <trkpt lat="48.3787" lon="7.43457">
        <ele>226.7</ele>
        <time>2019-08-09T10:43:36Z</time>
      </trkpt>
      <trkpt lat="48.37867" lon="7.43455">
        <ele>226.8</ele>
        <time>2019-08-09T10:43:37Z</time>
      </trkpt>
      <trkpt lat="48.37865" lon="7.43452">
        <ele>226.8</ele>
        <time>2019-08-09T10:43:38Z</time>
      </trkpt>
      <trkpt lat="48.37861" lon="7.43447">
        <ele>226.9</ele>
        <time>2019-08-09T10:43:40Z</time>
      </trkpt>
      <trkpt lat="48.37858" lon="7.43445">
        <ele>227</ele>
        <time>2019-08-09T10:43:41Z</time>
      </trkpt>
      <trkpt lat="48.37854" lon="7.4344">
        <ele>227</ele>
        <time>2019-08-09T10:43:43Z</time>
      </trkpt>
      <trkpt lat="48.37849" lon="7.43436">
        <ele>227.1</ele>
        <time>2019-08-09T10:43:45Z</time>
      </trkpt>
      <trkpt lat="48.37847" lon="7.43433">
        <ele>227.2</ele>
        <time>2019-08-09T10:43:46Z</time>
      </trkpt>
      <trkpt lat="48.37843" lon="7.4343">
        <ele>227.4</ele>
        <time>2019-08-09T10:43:48Z</time>
      </trkpt>
      <trkpt lat="48.37839" lon="7.43426">
        <ele>227.6</ele>
        <time>2019-08-09T10:43:50Z</time>
      </trkpt>
      <trkpt lat="48.37835" lon="7.43424">
        <ele>227.8</ele>
        <time>2019-08-09T10:43:52Z</time>
      </trkpt>
      <trkpt lat="48.37832" lon="7.43421">
        <ele>228</ele>
        <time>2019-08-09T10:43:54Z</time>
      </trkpt>
      <trkpt lat="48.37828" lon="7.43418">
        <ele>228.3</ele>
        <time>2019-08-09T10:43:56Z</time>
      </trkpt>
      <trkpt lat="48.37823" lon="7.43416">
        <ele>228.6</ele>
        <time>2019-08-09T10:43:58Z</time>
      </trkpt>
      <trkpt lat="48.37819" lon="7.43412">
        <ele>228.8</ele>
        <time>2019-08-09T10:44:00Z</time>
      </trkpt>
      <trkpt lat="48.37816" lon="7.43409">
        <ele>229</ele>
        <time>2019-08-09T10:44:02Z</time>
      </trkpt>
      <trkpt lat="48.37812" lon="7.43405">
        <ele>229.2</ele>
        <time>2019-08-09T10:44:04Z</time>
      </trkpt>
      <trkpt lat="48.37809" lon="7.43403">
        <ele>229.4</ele>
        <time>2019-08-09T10:44:06Z</time>
      </trkpt>
      <trkpt lat="48.37805" lon="7.434">
        <ele>229.6</ele>
        <time>2019-08-09T10:44:08Z</time>
      </trkpt>
      <trkpt lat="48.37802" lon="7.43397">
        <ele>229.8</ele>
        <time>2019-08-09T10:44:10Z</time>
      </trkpt>
      <trkpt lat="48.37798" lon="7.43393">
        <ele>230.2</ele>
        <time>2019-08-09T10:44:12Z</time>
      </trkpt>
      <trkpt lat="48.37794" lon="7.4339">
        <ele>230.5</ele>
        <time>2019-08-09T10:44:14Z</time>
      </trkpt>
      <trkpt lat="48.3779" lon="7.43388">
        <ele>230.8</ele>
        <time>2019-08-09T10:44:16Z</time>
      </trkpt>
      <trkpt lat="48.37786" lon="7.43384">
        <ele>231.1</ele>
        <time>2019-08-09T10:44:18Z</time>
      </trkpt>
      <trkpt lat="48.37785" lon="7.43379">
        <ele>231.3</ele>
        <time>2019-08-09T10:44:21Z</time>
      </trkpt>
      <trkpt lat="48.37789" lon="7.43375">
        <ele>231.2</ele>
        <time>2019-08-09T10:44:23Z</time>
      </trkpt>
      <trkpt lat="48.37793" lon="7.4337">
        <ele>231.2</ele>
        <time>2019-08-09T10:44:25Z</time>
      </trkpt>
      <trkpt lat="48.37797" lon="7.43364">
        <ele>231.1</ele>
        <time>2019-08-09T10:44:27Z</time>
      </trkpt>
      <trkpt lat="48.37799" lon="7.43361">
        <ele>231.1</ele>
        <time>2019-08-09T10:44:28Z</time>
      </trkpt>
      <trkpt lat="48.37801" lon="7.43358">
        <ele>231.1</ele>
        <time>2019-08-09T10:44:29Z</time>
      </trkpt>
      <trkpt lat="48.37803" lon="7.43355">
        <ele>231.1</ele>
        <time>2019-08-09T10:44:30Z</time>
      </trkpt>
      <trkpt lat="48.37806" lon="7.43352">
        <ele>231.1</ele>
        <time>2019-08-09T10:44:31Z</time>
      </trkpt>
      <trkpt lat="48.3781" lon="7.43346">
        <ele>231.1</ele>
        <time>2019-08-09T10:44:33Z</time>
      </trkpt>
      <trkpt lat="48.37812" lon="7.43344">
        <ele>231.1</ele>
        <time>2019-08-09T10:44:34Z</time>
      </trkpt>
      <trkpt lat="48.37814" lon="7.43341">
        <ele>231.1</ele>
        <time>2019-08-09T10:44:35Z</time>
      </trkpt>
      <trkpt lat="48.37816" lon="7.43337">
        <ele>231.1</ele>
        <time>2019-08-09T10:44:36Z</time>
      </trkpt>
      <trkpt lat="48.3782" lon="7.43331">
        <ele>231.1</ele>
        <time>2019-08-09T10:44:38Z</time>
      </trkpt>
      <trkpt lat="48.37823" lon="7.43327">
        <ele>231.1</ele>
        <time>2019-08-09T10:44:39Z</time>
      </trkpt>
      <trkpt lat="48.37825" lon="7.43324">
        <ele>231.1</ele>
        <time>2019-08-09T10:44:40Z</time>
      </trkpt>
      <trkpt lat="48.37828" lon="7.43319">
        <ele>231.2</ele>
        <time>2019-08-09T10:44:41Z</time>
      </trkpt>
      <trkpt lat="48.3783" lon="7.43316">
        <ele>231.2</ele>
        <time>2019-08-09T10:44:42Z</time>
      </trkpt>
      <trkpt lat="48.37832" lon="7.43312">
        <ele>231.2</ele>
        <time>2019-08-09T10:44:43Z</time>
      </trkpt>
      <trkpt lat="48.37835" lon="7.43309">
        <ele>231.2</ele>
        <time>2019-08-09T10:44:44Z</time>
      </trkpt>
      <trkpt lat="48.37837" lon="7.43306">
        <ele>231.3</ele>
        <time>2019-08-09T10:44:45Z</time>
      </trkpt>
      <trkpt lat="48.37841" lon="7.43299">
        <ele>231.3</ele>
        <time>2019-08-09T10:44:47Z</time>
      </trkpt>
      <trkpt lat="48.37845" lon="7.43295">
        <ele>231.4</ele>
        <time>2019-08-09T10:44:49Z</time>
      </trkpt>
      <trkpt lat="48.37847" lon="7.43292">
        <ele>231.4</ele>
        <time>2019-08-09T10:44:50Z</time>
      </trkpt>
      <trkpt lat="48.37849" lon="7.43288">
        <ele>231.5</ele>
        <time>2019-08-09T10:44:51Z</time>
      </trkpt>
      <trkpt lat="48.37851" lon="7.43284">
        <ele>231.5</ele>
        <time>2019-08-09T10:44:52Z</time>
      </trkpt>
      <trkpt lat="48.37853" lon="7.43279">
        <ele>231.6</ele>
        <time>2019-08-09T10:44:53Z</time>
      </trkpt>
      <trkpt lat="48.37856" lon="7.43274">
        <ele>231.6</ele>
        <time>2019-08-09T10:44:54Z</time>
      </trkpt>
      <trkpt lat="48.37858" lon="7.4327">
        <ele>231.7</ele>
        <time>2019-08-09T10:44:55Z</time>
      </trkpt>
      <trkpt lat="48.37859" lon="7.43266">
        <ele>231.7</ele>
        <time>2019-08-09T10:44:56Z</time>
      </trkpt>
      <trkpt lat="48.37862" lon="7.43263">
        <ele>231.8</ele>
        <time>2019-08-09T10:44:57Z</time>
      </trkpt>
      <trkpt lat="48.37864" lon="7.4326">
        <ele>231.8</ele>
        <time>2019-08-09T10:44:58Z</time>
      </trkpt>
      <trkpt lat="48.37866" lon="7.43256">
        <ele>231.9</ele>
        <time>2019-08-09T10:44:59Z</time>
      </trkpt>
      <trkpt lat="48.37869" lon="7.43252">
        <ele>231.9</ele>
        <time>2019-08-09T10:45:00Z</time>
      </trkpt>
      <trkpt lat="48.37871" lon="7.43247">
        <ele>232</ele>
        <time>2019-08-09T10:45:01Z</time>
      </trkpt>
      <trkpt lat="48.37872" lon="7.43243">
        <ele>232.1</ele>
        <time>2019-08-09T10:45:02Z</time>
      </trkpt>
      <trkpt lat="48.37874" lon="7.43239">
        <ele>232.2</ele>
        <time>2019-08-09T10:45:03Z</time>
      </trkpt>
      <trkpt lat="48.37876" lon="7.43234">
        <ele>232.3</ele>
        <time>2019-08-09T10:45:04Z</time>
      </trkpt>
      <trkpt lat="48.37878" lon="7.4323">
        <ele>232.3</ele>
        <time>2019-08-09T10:45:05Z</time>
      </trkpt>
      <trkpt lat="48.37881" lon="7.43224">
        <ele>232.4</ele>
        <time>2019-08-09T10:45:07Z</time>
      </trkpt>
      <trkpt lat="48.37885" lon="7.4322">
        <ele>232.4</ele>
        <time>2019-08-09T10:45:09Z</time>
      </trkpt>
      <trkpt lat="48.37889" lon="7.43217">
        <ele>232.4</ele>
        <time>2019-08-09T10:45:11Z</time>
      </trkpt>
      <trkpt lat="48.37894" lon="7.43212">
        <ele>232.4</ele>
        <time>2019-08-09T10:45:13Z</time>
      </trkpt>
      <trkpt lat="48.37896" lon="7.43209">
        <ele>232.5</ele>
        <time>2019-08-09T10:45:14Z</time>
      </trkpt>
      <trkpt lat="48.379" lon="7.43205">
        <ele>232.5</ele>
        <time>2019-08-09T10:45:16Z</time>
      </trkpt>
      <trkpt lat="48.37902" lon="7.43202">
        <ele>232.5</ele>
        <time>2019-08-09T10:45:17Z</time>
      </trkpt>
      <trkpt lat="48.37905" lon="7.43198">
        <ele>232.5</ele>
        <time>2019-08-09T10:45:18Z</time>
      </trkpt>
      <trkpt lat="48.37908" lon="7.43194">
        <ele>232.9</ele>
        <time>2019-08-09T10:45:19Z</time>
      </trkpt>
      <trkpt lat="48.37913" lon="7.43189">
        <ele>233.1</ele>
        <time>2019-08-09T10:45:21Z</time>
      </trkpt>
      <trkpt lat="48.37915" lon="7.43187">
        <ele>233.3</ele>
        <time>2019-08-09T10:45:22Z</time>
      </trkpt>
      <trkpt lat="48.37918" lon="7.43186">
        <ele>233.4</ele>
        <time>2019-08-09T10:45:23Z</time>
      </trkpt>
      <trkpt lat="48.37921" lon="7.43184">
        <ele>233.6</ele>
        <time>2019-08-09T10:45:24Z</time>
      </trkpt>
      <trkpt lat="48.37924" lon="7.43183">
        <ele>233.7</ele>
        <time>2019-08-09T10:45:25Z</time>
      </trkpt>
      <trkpt lat="48.37926" lon="7.43181">
        <ele>233.8</ele>
        <time>2019-08-09T10:45:26Z</time>
      </trkpt>
      <trkpt lat="48.37929" lon="7.43179">
        <ele>233.9</ele>
        <time>2019-08-09T10:45:27Z</time>
      </trkpt>
      <trkpt lat="48.37932" lon="7.43178">
        <ele>234</ele>
        <time>2019-08-09T10:45:28Z</time>
      </trkpt>
      <trkpt lat="48.37935" lon="7.43177">
        <ele>234.2</ele>
        <time>2019-08-09T10:45:29Z</time>
      </trkpt>
      <trkpt lat="48.37938" lon="7.43177">
        <ele>234.3</ele>
        <time>2019-08-09T10:45:30Z</time>
      </trkpt>
      <trkpt lat="48.37943" lon="7.43177">
        <ele>234.5</ele>
        <time>2019-08-09T10:45:32Z</time>
      </trkpt>
      <trkpt lat="48.37948" lon="7.43179">
        <ele>234.8</ele>
        <time>2019-08-09T10:45:34Z</time>
      </trkpt>
      <trkpt lat="48.37954" lon="7.4318">
        <ele>235</ele>
        <time>2019-08-09T10:45:36Z</time>
      </trkpt>
      <trkpt lat="48.37957" lon="7.43182">
        <ele>235.2</ele>
        <time>2019-08-09T10:45:37Z</time>
      </trkpt>
      <trkpt lat="48.37959" lon="7.43183">
        <ele>235.3</ele>
        <time>2019-08-09T10:45:38Z</time>
      </trkpt>
      <trkpt lat="48.37962" lon="7.43182">
        <ele>235.4</ele>
        <time>2019-08-09T10:45:39Z</time>
      </trkpt>
      <trkpt lat="48.37967" lon="7.43184">
        <ele>235.6</ele>
        <time>2019-08-09T10:45:41Z</time>
      </trkpt>
      <trkpt lat="48.37972" lon="7.43186">
        <ele>235.8</ele>
        <time>2019-08-09T10:45:43Z</time>
      </trkpt>
      <trkpt lat="48.37977" lon="7.43188">
        <ele>236.1</ele>
        <time>2019-08-09T10:45:45Z</time>
      </trkpt>
      <trkpt lat="48.37979" lon="7.43189">
        <ele>236.2</ele>
        <time>2019-08-09T10:45:46Z</time>
      </trkpt>
      <trkpt lat="48.37984" lon="7.4319">
        <ele>236.4</ele>
        <time>2019-08-09T10:45:48Z</time>
      </trkpt>
      <trkpt lat="48.37989" lon="7.43188">
        <ele>236.6</ele>
        <time>2019-08-09T10:45:50Z</time>
      </trkpt>
      <trkpt lat="48.37994" lon="7.43189">
        <ele>236.8</ele>
        <time>2019-08-09T10:45:52Z</time>
      </trkpt>
      <trkpt lat="48.37997" lon="7.4319">
        <ele>236.9</ele>
        <time>2019-08-09T10:45:53Z</time>
      </trkpt>
      <trkpt lat="48.38" lon="7.43191">
        <ele>237</ele>
        <time>2019-08-09T10:45:54Z</time>
      </trkpt>
      <trkpt lat="48.38005" lon="7.43191">
        <ele>237.2</ele>
        <time>2019-08-09T10:45:56Z</time>
      </trkpt>
      <trkpt lat="48.38008" lon="7.4319">
        <ele>237.4</ele>
        <time>2019-08-09T10:45:57Z</time>
      </trkpt>
      <trkpt lat="48.38013" lon="7.4319">
        <ele>237.6</ele>
        <time>2019-08-09T10:45:59Z</time>
      </trkpt>
      <trkpt lat="48.38017" lon="7.43192">
        <ele>237.8</ele>
        <time>2019-08-09T10:46:01Z</time>
      </trkpt>
      <trkpt lat="48.38021" lon="7.43194">
        <ele>238</ele>
        <time>2019-08-09T10:46:03Z</time>
      </trkpt>
      <trkpt lat="48.38026" lon="7.43194">
        <ele>238.2</ele>
        <time>2019-08-09T10:46:05Z</time>
      </trkpt>
      <trkpt lat="48.38031" lon="7.43193">
        <ele>238.4</ele>
        <time>2019-08-09T10:46:07Z</time>
      </trkpt>
      <trkpt lat="48.38036" lon="7.43192">
        <ele>238.7</ele>
        <time>2019-08-09T10:46:09Z</time>
      </trkpt>
      <trkpt lat="48.3804" lon="7.4319">
        <ele>239</ele>
        <time>2019-08-09T10:46:11Z</time>
      </trkpt>
      <trkpt lat="48.38045" lon="7.43188">
        <ele>239.3</ele>
        <time>2019-08-09T10:46:13Z</time>
      </trkpt>
      <trkpt lat="48.3805" lon="7.43187">
        <ele>239.4</ele>
        <time>2019-08-09T10:46:15Z</time>
      </trkpt>
      <trkpt lat="48.38054" lon="7.43184">
        <ele>239.6</ele>
        <time>2019-08-09T10:46:17Z</time>
      </trkpt>
      <trkpt lat="48.38057" lon="7.43182">
        <ele>239.7</ele>
        <time>2019-08-09T10:46:18Z</time>
      </trkpt>
      <trkpt lat="48.3806" lon="7.4318">
        <ele>239.8</ele>
        <time>2019-08-09T10:46:19Z</time>
      </trkpt>
      <trkpt lat="48.38064" lon="7.43179">
        <ele>240</ele>
        <time>2019-08-09T10:46:21Z</time>
      </trkpt>
      <trkpt lat="48.38068" lon="7.43176">
        <ele>240.1</ele>
        <time>2019-08-09T10:46:23Z</time>
      </trkpt>
      <trkpt lat="48.38071" lon="7.43173">
        <ele>240.4</ele>
        <time>2019-08-09T10:46:25Z</time>
      </trkpt>
      <trkpt lat="48.38075" lon="7.43171">
        <ele>240.7</ele>
        <time>2019-08-09T10:46:27Z</time>
      </trkpt>
      <trkpt lat="48.38078" lon="7.43169">
        <ele>240.8</ele>
        <time>2019-08-09T10:46:28Z</time>
      </trkpt>
      <trkpt lat="48.38082" lon="7.43165">
        <ele>240.9</ele>
        <time>2019-08-09T10:46:30Z</time>
      </trkpt>
      <trkpt lat="48.38085" lon="7.43164">
        <ele>241</ele>
        <time>2019-08-09T10:46:31Z</time>
      </trkpt>
      <trkpt lat="48.38088" lon="7.43163">
        <ele>241.1</ele>
        <time>2019-08-09T10:46:32Z</time>
      </trkpt>
      <trkpt lat="48.38093" lon="7.4316">
        <ele>241.3</ele>
        <time>2019-08-09T10:46:34Z</time>
      </trkpt>
      <trkpt lat="48.38095" lon="7.43158">
        <ele>241.4</ele>
        <time>2019-08-09T10:46:35Z</time>
      </trkpt>
      <trkpt lat="48.38098" lon="7.43158">
        <ele>241.5</ele>
        <time>2019-08-09T10:46:36Z</time>
      </trkpt>
      <trkpt lat="48.38102" lon="7.43154">
        <ele>241.7</ele>
        <time>2019-08-09T10:46:38Z</time>
      </trkpt>
      <trkpt lat="48.38105" lon="7.43152">
        <ele>241.8</ele>
        <time>2019-08-09T10:46:39Z</time>
      </trkpt>
      <trkpt lat="48.38108" lon="7.4315">
        <ele>241.9</ele>
        <time>2019-08-09T10:46:40Z</time>
      </trkpt>
      <trkpt lat="48.3811" lon="7.43148">
        <ele>242.1</ele>
        <time>2019-08-09T10:46:41Z</time>
      </trkpt>
      <trkpt lat="48.38115" lon="7.43146">
        <ele>242.3</ele>
        <time>2019-08-09T10:46:43Z</time>
      </trkpt>
      <trkpt lat="48.38119" lon="7.43145">
        <ele>242.5</ele>
        <time>2019-08-09T10:46:45Z</time>
      </trkpt>
      <trkpt lat="48.38122" lon="7.43144">
        <ele>242.8</ele>
        <time>2019-08-09T10:46:47Z</time>
      </trkpt>
      <trkpt lat="48.38127" lon="7.43142">
        <ele>243.2</ele>
        <time>2019-08-09T10:46:49Z</time>
      </trkpt>
      <trkpt lat="48.38131" lon="7.43139">
        <ele>243.4</ele>
        <time>2019-08-09T10:46:51Z</time>
      </trkpt>
      <trkpt lat="48.38134" lon="7.43137">
        <ele>243.5</ele>
        <time>2019-08-09T10:46:53Z</time>
      </trkpt>
      <trkpt lat="48.38138" lon="7.43134">
        <ele>243.7</ele>
        <time>2019-08-09T10:46:55Z</time>
      </trkpt>
      <trkpt lat="48.38141" lon="7.43132">
        <ele>243.9</ele>
        <time>2019-08-09T10:46:56Z</time>
      </trkpt>
      <trkpt lat="48.38145" lon="7.43128">
        <ele>244.1</ele>
        <time>2019-08-09T10:46:58Z</time>
      </trkpt>
      <trkpt lat="48.38149" lon="7.43122">
        <ele>244.4</ele>
        <time>2019-08-09T10:47:00Z</time>
      </trkpt>
      <trkpt lat="48.38153" lon="7.43117">
        <ele>244.7</ele>
        <time>2019-08-09T10:47:02Z</time>
      </trkpt>
      <trkpt lat="48.38158" lon="7.43113">
        <ele>245.1</ele>
        <time>2019-08-09T10:47:04Z</time>
      </trkpt>
      <trkpt lat="48.38161" lon="7.4311">
        <ele>245.3</ele>
        <time>2019-08-09T10:47:05Z</time>
      </trkpt>
      <trkpt lat="48.38164" lon="7.43105">
        <ele>245.6</ele>
        <time>2019-08-09T10:47:07Z</time>
      </trkpt>
      <trkpt lat="48.38166" lon="7.43102">
        <ele>245.7</ele>
        <time>2019-08-09T10:47:08Z</time>
      </trkpt>
      <trkpt lat="48.3817" lon="7.43099">
        <ele>245.9</ele>
        <time>2019-08-09T10:47:10Z</time>
      </trkpt>
      <trkpt lat="48.38173" lon="7.43095">
        <ele>246</ele>
        <time>2019-08-09T10:47:12Z</time>
      </trkpt>
      <trkpt lat="48.38177" lon="7.43091">
        <ele>246.2</ele>
        <time>2019-08-09T10:47:14Z</time>
      </trkpt>
      <trkpt lat="48.3818" lon="7.43088">
        <ele>246.3</ele>
        <time>2019-08-09T10:47:16Z</time>
      </trkpt>
      <trkpt lat="48.38184" lon="7.43082">
        <ele>246.6</ele>
        <time>2019-08-09T10:47:18Z</time>
      </trkpt>
      <trkpt lat="48.38186" lon="7.43078">
        <ele>246.8</ele>
        <time>2019-08-09T10:47:19Z</time>
      </trkpt>
      <trkpt lat="48.3819" lon="7.43073">
        <ele>247</ele>
        <time>2019-08-09T10:47:21Z</time>
      </trkpt>
      <trkpt lat="48.38193" lon="7.43071">
        <ele>247.1</ele>
        <time>2019-08-09T10:47:23Z</time>
      </trkpt>
      <trkpt lat="48.38196" lon="7.43067">
        <ele>247.2</ele>
        <time>2019-08-09T10:47:25Z</time>
      </trkpt>
      <trkpt lat="48.38198" lon="7.4306">
        <ele>247.3</ele>
        <time>2019-08-09T10:47:27Z</time>
      </trkpt>
      <trkpt lat="48.382" lon="7.43054">
        <ele>247</ele>
        <time>2019-08-09T10:47:29Z</time>
      </trkpt>
      <trkpt lat="48.38201" lon="7.4305">
        <ele>246.8</ele>
        <time>2019-08-09T10:47:30Z</time>
      </trkpt>
      <trkpt lat="48.38202" lon="7.43043">
        <ele>246.5</ele>
        <time>2019-08-09T10:47:32Z</time>
      </trkpt>
      <trkpt lat="48.38203" lon="7.43036">
        <ele>246.1</ele>
        <time>2019-08-09T10:47:34Z</time>
      </trkpt>
      <trkpt lat="48.38203" lon="7.4303">
        <ele>246</ele>
        <time>2019-08-09T10:47:35Z</time>
      </trkpt>
      <trkpt lat="48.38202" lon="7.43026">
        <ele>246</ele>
        <time>2019-08-09T10:47:36Z</time>
      </trkpt>
      <trkpt lat="48.38202" lon="7.43022">
        <ele>246</ele>
        <time>2019-08-09T10:47:37Z</time>
      </trkpt>
      <trkpt lat="48.38201" lon="7.43015">
        <ele>246</ele>
        <time>2019-08-09T10:47:39Z</time>
      </trkpt>
      <trkpt lat="48.382" lon="7.43011">
        <ele>246</ele>
        <time>2019-08-09T10:47:40Z</time>
      </trkpt>
      <trkpt lat="48.38199" lon="7.43005">
        <ele>246</ele>
        <time>2019-08-09T10:47:41Z</time>
      </trkpt>
      <trkpt lat="48.38197" lon="7.43">
        <ele>246</ele>
        <time>2019-08-09T10:47:42Z</time>
      </trkpt>
      <trkpt lat="48.38196" lon="7.42996">
        <ele>246</ele>
        <time>2019-08-09T10:47:43Z</time>
      </trkpt>
      <trkpt lat="48.38194" lon="7.42989">
        <ele>246.1</ele>
        <time>2019-08-09T10:47:45Z</time>
      </trkpt>
      <trkpt lat="48.38193" lon="7.42985">
        <ele>246.1</ele>
        <time>2019-08-09T10:47:46Z</time>
      </trkpt>
      <trkpt lat="48.38192" lon="7.42982">
        <ele>246.1</ele>
        <time>2019-08-09T10:47:47Z</time>
      </trkpt>
      <trkpt lat="48.38191" lon="7.42978">
        <ele>246.1</ele>
        <time>2019-08-09T10:47:48Z</time>
      </trkpt>
      <trkpt lat="48.38188" lon="7.42971">
        <ele>246.1</ele>
        <time>2019-08-09T10:47:50Z</time>
      </trkpt>
      <trkpt lat="48.38185" lon="7.42966">
        <ele>246.2</ele>
        <time>2019-08-09T10:47:52Z</time>
      </trkpt>
      <trkpt lat="48.38183" lon="7.42961">
        <ele>246.2</ele>
        <time>2019-08-09T10:47:54Z</time>
      </trkpt>
      <trkpt lat="48.38179" lon="7.42955">
        <ele>246.3</ele>
        <time>2019-08-09T10:47:56Z</time>
      </trkpt>
      <trkpt lat="48.38177" lon="7.42949">
        <ele>246.4</ele>
        <time>2019-08-09T10:47:58Z</time>
      </trkpt>
      <trkpt lat="48.38174" lon="7.42946">
        <ele>246.5</ele>
        <time>2019-08-09T10:48:00Z</time>
      </trkpt>
      <trkpt lat="48.3817" lon="7.42949">
        <ele>246.7</ele>
        <time>2019-08-09T10:48:02Z</time>
      </trkpt>
      <trkpt lat="48.38168" lon="7.42953">
        <ele>246.8</ele>
        <time>2019-08-09T10:48:03Z</time>
      </trkpt>
      <trkpt lat="48.38166" lon="7.42956">
        <ele>247</ele>
        <time>2019-08-09T10:48:04Z</time>
      </trkpt>
      <trkpt lat="48.38162" lon="7.42961">
        <ele>247.2</ele>
        <time>2019-08-09T10:48:06Z</time>
      </trkpt>
      <trkpt lat="48.3816" lon="7.42963">
        <ele>247.3</ele>
        <time>2019-08-09T10:48:07Z</time>
      </trkpt>
      <trkpt lat="48.38157" lon="7.42965">
        <ele>247.4</ele>
        <time>2019-08-09T10:48:08Z</time>
      </trkpt>
      <trkpt lat="48.38154" lon="7.42967">
        <ele>247.5</ele>
        <time>2019-08-09T10:48:09Z</time>
      </trkpt>
      <trkpt lat="48.38149" lon="7.42969">
        <ele>247.7</ele>
        <time>2019-08-09T10:48:11Z</time>
      </trkpt>
      <trkpt lat="48.38147" lon="7.4297">
        <ele>247.8</ele>
        <time>2019-08-09T10:48:12Z</time>
      </trkpt>
      <trkpt lat="48.38144" lon="7.4297">
        <ele>247.9</ele>
        <time>2019-08-09T10:48:13Z</time>
      </trkpt>
      <trkpt lat="48.38141" lon="7.42971">
        <ele>248</ele>
        <time>2019-08-09T10:48:14Z</time>
      </trkpt>
      <trkpt lat="48.38137" lon="7.42972">
        <ele>248.2</ele>
        <time>2019-08-09T10:48:16Z</time>
      </trkpt>
      <trkpt lat="48.38132" lon="7.42973">
        <ele>248.3</ele>
        <time>2019-08-09T10:48:18Z</time>
      </trkpt>
      <trkpt lat="48.38128" lon="7.42973">
        <ele>248.5</ele>
        <time>2019-08-09T10:48:20Z</time>
      </trkpt>
      <trkpt lat="48.38122" lon="7.42974">
        <ele>248.7</ele>
        <time>2019-08-09T10:48:22Z</time>
      </trkpt>
      <trkpt lat="48.3812" lon="7.42974">
        <ele>248.8</ele>
        <time>2019-08-09T10:48:23Z</time>
      </trkpt>
      <trkpt lat="48.38114" lon="7.42974">
        <ele>249</ele>
        <time>2019-08-09T10:48:25Z</time>
      </trkpt>
      <trkpt lat="48.38111" lon="7.42974">
        <ele>249.1</ele>
        <time>2019-08-09T10:48:26Z</time>
      </trkpt>
      <trkpt lat="48.38108" lon="7.42974">
        <ele>249.2</ele>
        <time>2019-08-09T10:48:27Z</time>
      </trkpt>
      <trkpt lat="48.38105" lon="7.42974">
        <ele>249.3</ele>
        <time>2019-08-09T10:48:28Z</time>
      </trkpt>
      <trkpt lat="48.381" lon="7.42975">
        <ele>249.4</ele>
        <time>2019-08-09T10:48:30Z</time>
      </trkpt>
      <trkpt lat="48.38095" lon="7.42974">
        <ele>249.6</ele>
        <time>2019-08-09T10:48:32Z</time>
      </trkpt>
      <trkpt lat="48.3809" lon="7.42976">
        <ele>249.8</ele>
        <time>2019-08-09T10:48:34Z</time>
      </trkpt>
      <trkpt lat="48.38084" lon="7.42976">
        <ele>249.9</ele>
        <time>2019-08-09T10:48:36Z</time>
      </trkpt>
      <trkpt lat="48.38079" lon="7.42977">
        <ele>250.1</ele>
        <time>2019-08-09T10:48:38Z</time>
      </trkpt>
      <trkpt lat="48.38074" lon="7.42976">
        <ele>250.3</ele>
        <time>2019-08-09T10:48:40Z</time>
      </trkpt>
      <trkpt lat="48.38071" lon="7.42977">
        <ele>250.4</ele>
        <time>2019-08-09T10:48:41Z</time>
      </trkpt>
      <trkpt lat="48.38068" lon="7.42977">
        <ele>250.5</ele>
        <time>2019-08-09T10:48:42Z</time>
      </trkpt>
      <trkpt lat="48.38062" lon="7.42977">
        <ele>250.7</ele>
        <time>2019-08-09T10:48:44Z</time>
      </trkpt>
      <trkpt lat="48.38057" lon="7.42978">
        <ele>250.9</ele>
        <time>2019-08-09T10:48:46Z</time>
      </trkpt>
      <trkpt lat="48.38052" lon="7.42978">
        <ele>251.1</ele>
        <time>2019-08-09T10:48:48Z</time>
      </trkpt>
      <trkpt lat="48.38047" lon="7.42978">
        <ele>251.3</ele>
        <time>2019-08-09T10:48:50Z</time>
      </trkpt>
      <trkpt lat="48.38044" lon="7.42978">
        <ele>251.4</ele>
        <time>2019-08-09T10:48:51Z</time>
      </trkpt>
      <trkpt lat="48.38041" lon="7.42978">
        <ele>251.5</ele>
        <time>2019-08-09T10:48:52Z</time>
      </trkpt>
      <trkpt lat="48.38038" lon="7.42977">
        <ele>251.7</ele>
        <time>2019-08-09T10:48:53Z</time>
      </trkpt>
      <trkpt lat="48.38035" lon="7.42977">
        <ele>251.8</ele>
        <time>2019-08-09T10:48:54Z</time>
      </trkpt>
      <trkpt lat="48.38032" lon="7.42977">
        <ele>251.9</ele>
        <time>2019-08-09T10:48:55Z</time>
      </trkpt>
      <trkpt lat="48.38029" lon="7.42977">
        <ele>252.1</ele>
        <time>2019-08-09T10:48:56Z</time>
      </trkpt>
      <trkpt lat="48.38026" lon="7.42976">
        <ele>252.2</ele>
        <time>2019-08-09T10:48:57Z</time>
      </trkpt>
      <trkpt lat="48.38023" lon="7.42976">
        <ele>252.3</ele>
        <time>2019-08-09T10:48:58Z</time>
      </trkpt>
      <trkpt lat="48.3802" lon="7.42975">
        <ele>252.5</ele>
        <time>2019-08-09T10:48:59Z</time>
      </trkpt>
      <trkpt lat="48.38016" lon="7.42974">
        <ele>252.6</ele>
        <time>2019-08-09T10:49:00Z</time>
      </trkpt>
      <trkpt lat="48.38013" lon="7.42973">
        <ele>252.8</ele>
        <time>2019-08-09T10:49:01Z</time>
      </trkpt>
      <trkpt lat="48.38011" lon="7.42972">
        <ele>252.9</ele>
        <time>2019-08-09T10:49:02Z</time>
      </trkpt>
      <trkpt lat="48.38008" lon="7.42971">
        <ele>253.2</ele>
        <time>2019-08-09T10:49:03Z</time>
      </trkpt>
      <trkpt lat="48.38004" lon="7.4297">
        <ele>253</ele>
        <time>2019-08-09T10:49:04Z</time>
      </trkpt>
      <trkpt lat="48.38001" lon="7.42969">
        <ele>252.9</ele>
        <time>2019-08-09T10:49:05Z</time>
      </trkpt>
      <trkpt lat="48.37998" lon="7.42969">
        <ele>252.7</ele>
        <time>2019-08-09T10:49:06Z</time>
      </trkpt>
      <trkpt lat="48.37995" lon="7.42968">
        <ele>252.6</ele>
        <time>2019-08-09T10:49:07Z</time>
      </trkpt>
      <trkpt lat="48.37993" lon="7.42967">
        <ele>252.5</ele>
        <time>2019-08-09T10:49:08Z</time>
      </trkpt>
      <trkpt lat="48.3799" lon="7.42966">
        <ele>252.4</ele>
        <time>2019-08-09T10:49:09Z</time>
      </trkpt>
      <trkpt lat="48.37987" lon="7.42965">
        <ele>252.3</ele>
        <time>2019-08-09T10:49:10Z</time>
      </trkpt>
      <trkpt lat="48.37984" lon="7.42965">
        <ele>252.2</ele>
        <time>2019-08-09T10:49:11Z</time>
      </trkpt>
      <trkpt lat="48.37979" lon="7.42963">
        <ele>252.1</ele>
        <time>2019-08-09T10:49:13Z</time>
      </trkpt>
      <trkpt lat="48.37973" lon="7.42962">
        <ele>252</ele>
        <time>2019-08-09T10:49:15Z</time>
      </trkpt>
      <trkpt lat="48.3797" lon="7.4296">
        <ele>252</ele>
        <time>2019-08-09T10:49:16Z</time>
      </trkpt>
      <trkpt lat="48.37967" lon="7.42959">
        <ele>252</ele>
        <time>2019-08-09T10:49:17Z</time>
      </trkpt>
      <trkpt lat="48.37964" lon="7.42959">
        <ele>252</ele>
        <time>2019-08-09T10:49:18Z</time>
      </trkpt>
      <trkpt lat="48.3796" lon="7.42957">
        <ele>252</ele>
        <time>2019-08-09T10:49:19Z</time>
      </trkpt>
      <trkpt lat="48.37957" lon="7.42957">
        <ele>252</ele>
        <time>2019-08-09T10:49:20Z</time>
      </trkpt>
      <trkpt lat="48.37954" lon="7.42956">
        <ele>251.9</ele>
        <time>2019-08-09T10:49:21Z</time>
      </trkpt>
      <trkpt lat="48.37951" lon="7.42955">
        <ele>251.9</ele>
        <time>2019-08-09T10:49:22Z</time>
      </trkpt>
      <trkpt lat="48.37948" lon="7.42954">
        <ele>251.9</ele>
        <time>2019-08-09T10:49:23Z</time>
      </trkpt>
      <trkpt lat="48.37945" lon="7.42952">
        <ele>251.9</ele>
        <time>2019-08-09T10:49:24Z</time>
      </trkpt>
      <trkpt lat="48.37942" lon="7.42951">
        <ele>251.9</ele>
        <time>2019-08-09T10:49:25Z</time>
      </trkpt>
      <trkpt lat="48.37939" lon="7.4295">
        <ele>251.9</ele>
        <time>2019-08-09T10:49:26Z</time>
      </trkpt>
      <trkpt lat="48.37936" lon="7.42949">
        <ele>251.9</ele>
        <time>2019-08-09T10:49:27Z</time>
      </trkpt>
      <trkpt lat="48.37932" lon="7.42948">
        <ele>251.9</ele>
        <time>2019-08-09T10:49:28Z</time>
      </trkpt>
      <trkpt lat="48.3793" lon="7.42948">
        <ele>251.9</ele>
        <time>2019-08-09T10:49:29Z</time>
      </trkpt>
      <trkpt lat="48.37927" lon="7.42946">
        <ele>251.9</ele>
        <time>2019-08-09T10:49:30Z</time>
      </trkpt>
      <trkpt lat="48.37924" lon="7.42945">
        <ele>251.9</ele>
        <time>2019-08-09T10:49:31Z</time>
      </trkpt>
      <trkpt lat="48.37921" lon="7.42944">
        <ele>251.9</ele>
        <time>2019-08-09T10:49:32Z</time>
      </trkpt>
      <trkpt lat="48.37917" lon="7.42943">
        <ele>251.9</ele>
        <time>2019-08-09T10:49:33Z</time>
      </trkpt>
      <trkpt lat="48.37914" lon="7.42943">
        <ele>251.9</ele>
        <time>2019-08-09T10:49:34Z</time>
      </trkpt>
      <trkpt lat="48.3791" lon="7.42942">
        <ele>251.9</ele>
        <time>2019-08-09T10:49:35Z</time>
      </trkpt>
      <trkpt lat="48.37906" lon="7.42941">
        <ele>251.9</ele>
        <time>2019-08-09T10:49:36Z</time>
      </trkpt>
      <trkpt lat="48.37903" lon="7.4294">
        <ele>251.9</ele>
        <time>2019-08-09T10:49:37Z</time>
      </trkpt>
      <trkpt lat="48.37899" lon="7.42938">
        <ele>251.9</ele>
        <time>2019-08-09T10:49:38Z</time>
      </trkpt>
      <trkpt lat="48.37896" lon="7.42937">
        <ele>251.9</ele>
        <time>2019-08-09T10:49:39Z</time>
      </trkpt>
      <trkpt lat="48.37893" lon="7.42935">
        <ele>251.9</ele>
        <time>2019-08-09T10:49:40Z</time>
      </trkpt>
      <trkpt lat="48.3789" lon="7.42933">
        <ele>251.9</ele>
        <time>2019-08-09T10:49:41Z</time>
      </trkpt>
      <trkpt lat="48.37886" lon="7.42932">
        <ele>251.9</ele>
        <time>2019-08-09T10:49:42Z</time>
      </trkpt>
      <trkpt lat="48.37883" lon="7.42931">
        <ele>251.8</ele>
        <time>2019-08-09T10:49:43Z</time>
      </trkpt>
      <trkpt lat="48.37879" lon="7.42929">
        <ele>251.8</ele>
        <time>2019-08-09T10:49:44Z</time>
      </trkpt>
      <trkpt lat="48.37876" lon="7.42927">
        <ele>251.8</ele>
        <time>2019-08-09T10:49:45Z</time>
      </trkpt>
      <trkpt lat="48.37872" lon="7.42924">
        <ele>251.7</ele>
        <time>2019-08-09T10:49:46Z</time>
      </trkpt>
      <trkpt lat="48.37869" lon="7.42921">
        <ele>251.7</ele>
        <time>2019-08-09T10:49:47Z</time>
      </trkpt>
      <trkpt lat="48.37866" lon="7.42919">
        <ele>251.6</ele>
        <time>2019-08-09T10:49:48Z</time>
      </trkpt>
      <trkpt lat="48.37863" lon="7.42916">
        <ele>251.5</ele>
        <time>2019-08-09T10:49:49Z</time>
      </trkpt>
      <trkpt lat="48.3786" lon="7.42913">
        <ele>251.4</ele>
        <time>2019-08-09T10:49:50Z</time>
      </trkpt>
      <trkpt lat="48.37857" lon="7.42911">
        <ele>251.3</ele>
        <time>2019-08-09T10:49:51Z</time>
      </trkpt>
      <trkpt lat="48.37854" lon="7.42909">
        <ele>251.1</ele>
        <time>2019-08-09T10:49:52Z</time>
      </trkpt>
      <trkpt lat="48.37851" lon="7.42907">
        <ele>251</ele>
        <time>2019-08-09T10:49:53Z</time>
      </trkpt>
      <trkpt lat="48.37848" lon="7.42904">
        <ele>250.8</ele>
        <time>2019-08-09T10:49:54Z</time>
      </trkpt>
      <trkpt lat="48.37845" lon="7.42902">
        <ele>250.7</ele>
        <time>2019-08-09T10:49:55Z</time>
      </trkpt>
      <trkpt lat="48.37842" lon="7.429">
        <ele>250.6</ele>
        <time>2019-08-09T10:49:56Z</time>
      </trkpt>
      <trkpt lat="48.3784" lon="7.42898">
        <ele>250.4</ele>
        <time>2019-08-09T10:49:57Z</time>
      </trkpt>
      <trkpt lat="48.37837" lon="7.42896">
        <ele>250.3</ele>
        <time>2019-08-09T10:49:58Z</time>
      </trkpt>
      <trkpt lat="48.37835" lon="7.42895">
        <ele>250.2</ele>
        <time>2019-08-09T10:49:59Z</time>
      </trkpt>
      <trkpt lat="48.37831" lon="7.42893">
        <ele>250</ele>
        <time>2019-08-09T10:50:00Z</time>
      </trkpt>
      <trkpt lat="48.37828" lon="7.42892">
        <ele>249.9</ele>
        <time>2019-08-09T10:50:01Z</time>
      </trkpt>
      <trkpt lat="48.37825" lon="7.42889">
        <ele>249.8</ele>
        <time>2019-08-09T10:50:02Z</time>
      </trkpt>
      <trkpt lat="48.37821" lon="7.42887">
        <ele>249.7</ele>
        <time>2019-08-09T10:50:03Z</time>
      </trkpt>
      <trkpt lat="48.37818" lon="7.42884">
        <ele>249.6</ele>
        <time>2019-08-09T10:50:04Z</time>
      </trkpt>
      <trkpt lat="48.37815" lon="7.42881">
        <ele>249.6</ele>
        <time>2019-08-09T10:50:05Z</time>
      </trkpt>
      <trkpt lat="48.37811" lon="7.42878">
        <ele>249.5</ele>
        <time>2019-08-09T10:50:06Z</time>
      </trkpt>
      <trkpt lat="48.37808" lon="7.42875">
        <ele>249.5</ele>
        <time>2019-08-09T10:50:07Z</time>
      </trkpt>
      <trkpt lat="48.37804" lon="7.42873">
        <ele>249.4</ele>
        <time>2019-08-09T10:50:08Z</time>
      </trkpt>
      <trkpt lat="48.378" lon="7.42871">
        <ele>249.4</ele>
        <time>2019-08-09T10:50:09Z</time>
      </trkpt>
      <trkpt lat="48.37797" lon="7.4287">
        <ele>249.4</ele>
        <time>2019-08-09T10:50:10Z</time>
      </trkpt>
      <trkpt lat="48.37793" lon="7.42868">
        <ele>249.4</ele>
        <time>2019-08-09T10:50:11Z</time>
      </trkpt>
      <trkpt lat="48.3779" lon="7.42865">
        <ele>249.4</ele>
        <time>2019-08-09T10:50:12Z</time>
      </trkpt>
      <trkpt lat="48.37786" lon="7.42863">
        <ele>249.4</ele>
        <time>2019-08-09T10:50:13Z</time>
      </trkpt>
      <trkpt lat="48.37781" lon="7.42861">
        <ele>249.4</ele>
        <time>2019-08-09T10:50:14Z</time>
      </trkpt>
      <trkpt lat="48.37777" lon="7.4286">
        <ele>249.4</ele>
        <time>2019-08-09T10:50:15Z</time>
      </trkpt>
      <trkpt lat="48.37772" lon="7.42858">
        <ele>249.4</ele>
        <time>2019-08-09T10:50:16Z</time>
      </trkpt>
      <trkpt lat="48.37768" lon="7.42858">
        <ele>249.4</ele>
        <time>2019-08-09T10:50:17Z</time>
      </trkpt>
      <trkpt lat="48.37763" lon="7.42858">
        <ele>249.3</ele>
        <time>2019-08-09T10:50:18Z</time>
      </trkpt>
      <trkpt lat="48.37759" lon="7.42859">
        <ele>249.3</ele>
        <time>2019-08-09T10:50:19Z</time>
      </trkpt>
      <trkpt lat="48.37754" lon="7.42862">
        <ele>249.3</ele>
        <time>2019-08-09T10:50:20Z</time>
      </trkpt>
      <trkpt lat="48.3775" lon="7.42866">
        <ele>249.3</ele>
        <time>2019-08-09T10:50:21Z</time>
      </trkpt>
      <trkpt lat="48.37746" lon="7.4287">
        <ele>249.3</ele>
        <time>2019-08-09T10:50:22Z</time>
      </trkpt>
      <trkpt lat="48.37742" lon="7.42873">
        <ele>249.3</ele>
        <time>2019-08-09T10:50:23Z</time>
      </trkpt>
      <trkpt lat="48.37737" lon="7.42876">
        <ele>249.3</ele>
        <time>2019-08-09T10:50:24Z</time>
      </trkpt>
      <trkpt lat="48.37734" lon="7.42879">
        <ele>249.3</ele>
        <time>2019-08-09T10:50:25Z</time>
      </trkpt>
      <trkpt lat="48.3773" lon="7.42882">
        <ele>249.3</ele>
        <time>2019-08-09T10:50:26Z</time>
      </trkpt>
      <trkpt lat="48.37725" lon="7.42885">
        <ele>249.3</ele>
        <time>2019-08-09T10:50:27Z</time>
      </trkpt>
      <trkpt lat="48.37722" lon="7.42888">
        <ele>249.3</ele>
        <time>2019-08-09T10:50:28Z</time>
      </trkpt>
      <trkpt lat="48.37719" lon="7.42891">
        <ele>249.3</ele>
        <time>2019-08-09T10:50:29Z</time>
      </trkpt>
      <trkpt lat="48.37716" lon="7.42894">
        <ele>249.3</ele>
        <time>2019-08-09T10:50:30Z</time>
      </trkpt>
      <trkpt lat="48.37713" lon="7.42896">
        <ele>249.3</ele>
        <time>2019-08-09T10:50:31Z</time>
      </trkpt>
      <trkpt lat="48.3771" lon="7.42899">
        <ele>249.3</ele>
        <time>2019-08-09T10:50:32Z</time>
      </trkpt>
      <trkpt lat="48.37707" lon="7.42901">
        <ele>249.3</ele>
        <time>2019-08-09T10:50:33Z</time>
      </trkpt>
      <trkpt lat="48.37703" lon="7.42904">
        <ele>249.3</ele>
        <time>2019-08-09T10:50:34Z</time>
      </trkpt>
      <trkpt lat="48.377" lon="7.42906">
        <ele>249.3</ele>
        <time>2019-08-09T10:50:35Z</time>
      </trkpt>
      <trkpt lat="48.37696" lon="7.42909">
        <ele>249.3</ele>
        <time>2019-08-09T10:50:36Z</time>
      </trkpt>
      <trkpt lat="48.37693" lon="7.42912">
        <ele>249.3</ele>
        <time>2019-08-09T10:50:37Z</time>
      </trkpt>
      <trkpt lat="48.3769" lon="7.42915">
        <ele>249.3</ele>
        <time>2019-08-09T10:50:38Z</time>
      </trkpt>
      <trkpt lat="48.37687" lon="7.42917">
        <ele>249.3</ele>
        <time>2019-08-09T10:50:39Z</time>
      </trkpt>
      <trkpt lat="48.37683" lon="7.42919">
        <ele>249.3</ele>
        <time>2019-08-09T10:50:40Z</time>
      </trkpt>
      <trkpt lat="48.37679" lon="7.4292">
        <ele>249.3</ele>
        <time>2019-08-09T10:50:41Z</time>
      </trkpt>
      <trkpt lat="48.37675" lon="7.42922">
        <ele>249.3</ele>
        <time>2019-08-09T10:50:42Z</time>
      </trkpt>
      <trkpt lat="48.37671" lon="7.42923">
        <ele>249.3</ele>
        <time>2019-08-09T10:50:43Z</time>
      </trkpt>
      <trkpt lat="48.37668" lon="7.42924">
        <ele>249.4</ele>
        <time>2019-08-09T10:50:44Z</time>
      </trkpt>
      <trkpt lat="48.37665" lon="7.42924">
        <ele>249.4</ele>
        <time>2019-08-09T10:50:45Z</time>
      </trkpt>
      <trkpt lat="48.37661" lon="7.42925">
        <ele>249.5</ele>
        <time>2019-08-09T10:50:46Z</time>
      </trkpt>
      <trkpt lat="48.37656" lon="7.42925">
        <ele>249.6</ele>
        <time>2019-08-09T10:50:47Z</time>
      </trkpt>
      <trkpt lat="48.37653" lon="7.42926">
        <ele>249.7</ele>
        <time>2019-08-09T10:50:48Z</time>
      </trkpt>
      <trkpt lat="48.37649" lon="7.42927">
        <ele>249.8</ele>
        <time>2019-08-09T10:50:49Z</time>
      </trkpt>
      <trkpt lat="48.37645" lon="7.42927">
        <ele>250</ele>
        <time>2019-08-09T10:50:50Z</time>
      </trkpt>
      <trkpt lat="48.37642" lon="7.42927">
        <ele>250.1</ele>
        <time>2019-08-09T10:50:51Z</time>
      </trkpt>
      <trkpt lat="48.37638" lon="7.42928">
        <ele>250.3</ele>
        <time>2019-08-09T10:50:52Z</time>
      </trkpt>
      <trkpt lat="48.37634" lon="7.42928">
        <ele>250.4</ele>
        <time>2019-08-09T10:50:53Z</time>
      </trkpt>
      <trkpt lat="48.37631" lon="7.42929">
        <ele>250.5</ele>
        <time>2019-08-09T10:50:54Z</time>
      </trkpt>
      <trkpt lat="48.37627" lon="7.42929">
        <ele>250.7</ele>
        <time>2019-08-09T10:50:55Z</time>
      </trkpt>
      <trkpt lat="48.37624" lon="7.42929">
        <ele>250.8</ele>
        <time>2019-08-09T10:50:56Z</time>
      </trkpt>
      <trkpt lat="48.3762" lon="7.42929">
        <ele>250.9</ele>
        <time>2019-08-09T10:50:57Z</time>
      </trkpt>
      <trkpt lat="48.37617" lon="7.4293">
        <ele>251</ele>
        <time>2019-08-09T10:50:58Z</time>
      </trkpt>
      <trkpt lat="48.37614" lon="7.4293">
        <ele>251.1</ele>
        <time>2019-08-09T10:50:59Z</time>
      </trkpt>
      <trkpt lat="48.3761" lon="7.4293">
        <ele>251.2</ele>
        <time>2019-08-09T10:51:00Z</time>
      </trkpt>
      <trkpt lat="48.37607" lon="7.42931">
        <ele>251.3</ele>
        <time>2019-08-09T10:51:01Z</time>
      </trkpt>
      <trkpt lat="48.37604" lon="7.42932">
        <ele>251.4</ele>
        <time>2019-08-09T10:51:02Z</time>
      </trkpt>
      <trkpt lat="48.37601" lon="7.42933">
        <ele>251.5</ele>
        <time>2019-08-09T10:51:03Z</time>
      </trkpt>
      <trkpt lat="48.37598" lon="7.42935">
        <ele>251.6</ele>
        <time>2019-08-09T10:51:04Z</time>
      </trkpt>
      <trkpt lat="48.37595" lon="7.42937">
        <ele>251.7</ele>
        <time>2019-08-09T10:51:05Z</time>
      </trkpt>
      <trkpt lat="48.37593" lon="7.42939">
        <ele>251.9</ele>
        <time>2019-08-09T10:51:06Z</time>
      </trkpt>
      <trkpt lat="48.37589" lon="7.42941">
        <ele>252</ele>
        <time>2019-08-09T10:51:08Z</time>
      </trkpt>
      <trkpt lat="48.37585" lon="7.42942">
        <ele>252.1</ele>
        <time>2019-08-09T10:51:09Z</time>
      </trkpt>
      <trkpt lat="48.37583" lon="7.42944">
        <ele>252.2</ele>
        <time>2019-08-09T10:51:10Z</time>
      </trkpt>
      <trkpt lat="48.37578" lon="7.42947">
        <ele>252.4</ele>
        <time>2019-08-09T10:51:12Z</time>
      </trkpt>
      <trkpt lat="48.37573" lon="7.42949">
        <ele>252.6</ele>
        <time>2019-08-09T10:51:14Z</time>
      </trkpt>
      <trkpt lat="48.37569" lon="7.42953">
        <ele>252.8</ele>
        <time>2019-08-09T10:51:16Z</time>
      </trkpt>
      <trkpt lat="48.37566" lon="7.42955">
        <ele>252.9</ele>
        <time>2019-08-09T10:51:17Z</time>
      </trkpt>
      <trkpt lat="48.37563" lon="7.42956">
        <ele>253</ele>
        <time>2019-08-09T10:51:18Z</time>
      </trkpt>
      <trkpt lat="48.37558" lon="7.42958">
        <ele>253.2</ele>
        <time>2019-08-09T10:51:20Z</time>
      </trkpt>
      <trkpt lat="48.37556" lon="7.4296">
        <ele>253.3</ele>
        <time>2019-08-09T10:51:21Z</time>
      </trkpt>
      <trkpt lat="48.37553" lon="7.42961">
        <ele>253.4</ele>
        <time>2019-08-09T10:51:22Z</time>
      </trkpt>
      <trkpt lat="48.37548" lon="7.42963">
        <ele>253.5</ele>
        <time>2019-08-09T10:51:24Z</time>
      </trkpt>
      <trkpt lat="48.37543" lon="7.42965">
        <ele>253.7</ele>
        <time>2019-08-09T10:51:26Z</time>
      </trkpt>
      <trkpt lat="48.37539" lon="7.42968">
        <ele>253.8</ele>
        <time>2019-08-09T10:51:28Z</time>
      </trkpt>
      <trkpt lat="48.37535" lon="7.42971">
        <ele>254</ele>
        <time>2019-08-09T10:51:30Z</time>
      </trkpt>
      <trkpt lat="48.3753" lon="7.42973">
        <ele>254.1</ele>
        <time>2019-08-09T10:51:32Z</time>
      </trkpt>
      <trkpt lat="48.37526" lon="7.42974">
        <ele>254.3</ele>
        <time>2019-08-09T10:51:34Z</time>
      </trkpt>
      <trkpt lat="48.37521" lon="7.42974">
        <ele>254.4</ele>
        <time>2019-08-09T10:51:36Z</time>
      </trkpt>
      <trkpt lat="48.37516" lon="7.42974">
        <ele>254.5</ele>
        <time>2019-08-09T10:51:38Z</time>
      </trkpt>
      <trkpt lat="48.37512" lon="7.42976">
        <ele>254.7</ele>
        <time>2019-08-09T10:51:40Z</time>
      </trkpt>
      <trkpt lat="48.37508" lon="7.42977">
        <ele>254.8</ele>
        <time>2019-08-09T10:51:42Z</time>
      </trkpt>
      <trkpt lat="48.37503" lon="7.42979">
        <ele>254.9</ele>
        <time>2019-08-09T10:51:44Z</time>
      </trkpt>
      <trkpt lat="48.37501" lon="7.4298">
        <ele>255</ele>
        <time>2019-08-09T10:51:45Z</time>
      </trkpt>
      <trkpt lat="48.37495" lon="7.4298">
        <ele>255.1</ele>
        <time>2019-08-09T10:51:47Z</time>
      </trkpt>
      <trkpt lat="48.3749" lon="7.4298">
        <ele>255.3</ele>
        <time>2019-08-09T10:51:49Z</time>
      </trkpt>
      <trkpt lat="48.37485" lon="7.4298">
        <ele>255.4</ele>
        <time>2019-08-09T10:51:51Z</time>
      </trkpt>
      <trkpt lat="48.37482" lon="7.42981">
        <ele>255.5</ele>
        <time>2019-08-09T10:51:52Z</time>
      </trkpt>
      <trkpt lat="48.37479" lon="7.42982">
        <ele>255.6</ele>
        <time>2019-08-09T10:51:53Z</time>
      </trkpt>
      <trkpt lat="48.37477" lon="7.42983">
        <ele>255.6</ele>
        <time>2019-08-09T10:51:54Z</time>
      </trkpt>
      <trkpt lat="48.37472" lon="7.42985">
        <ele>255.8</ele>
        <time>2019-08-09T10:51:56Z</time>
      </trkpt>
      <trkpt lat="48.37467" lon="7.42985">
        <ele>255.9</ele>
        <time>2019-08-09T10:51:58Z</time>
      </trkpt>
      <trkpt lat="48.37462" lon="7.42986">
        <ele>256</ele>
        <time>2019-08-09T10:52:00Z</time>
      </trkpt>
      <trkpt lat="48.37457" lon="7.42986">
        <ele>256.2</ele>
        <time>2019-08-09T10:52:02Z</time>
      </trkpt>
      <trkpt lat="48.37452" lon="7.42987">
        <ele>256.3</ele>
        <time>2019-08-09T10:52:04Z</time>
      </trkpt>
      <trkpt lat="48.37447" lon="7.42988">
        <ele>256.5</ele>
        <time>2019-08-09T10:52:06Z</time>
      </trkpt>
      <trkpt lat="48.37442" lon="7.4299">
        <ele>256.7</ele>
        <time>2019-08-09T10:52:08Z</time>
      </trkpt>
      <trkpt lat="48.37437" lon="7.42991">
        <ele>256.9</ele>
        <time>2019-08-09T10:52:10Z</time>
      </trkpt>
      <trkpt lat="48.37432" lon="7.42993">
        <ele>257</ele>
        <time>2019-08-09T10:52:12Z</time>
      </trkpt>
      <trkpt lat="48.37428" lon="7.42995">
        <ele>257.2</ele>
        <time>2019-08-09T10:52:14Z</time>
      </trkpt>
      <trkpt lat="48.37425" lon="7.42996">
        <ele>257.3</ele>
        <time>2019-08-09T10:52:15Z</time>
      </trkpt>
      <trkpt lat="48.3742" lon="7.42998">
        <ele>257.5</ele>
        <time>2019-08-09T10:52:17Z</time>
      </trkpt>
      <trkpt lat="48.37416" lon="7.42998">
        <ele>257.7</ele>
        <time>2019-08-09T10:52:19Z</time>
      </trkpt>
      <trkpt lat="48.37412" lon="7.42999">
        <ele>257.9</ele>
        <time>2019-08-09T10:52:21Z</time>
      </trkpt>
      <trkpt lat="48.37409" lon="7.43001">
        <ele>258</ele>
        <time>2019-08-09T10:52:22Z</time>
      </trkpt>
      <trkpt lat="48.37407" lon="7.43002">
        <ele>258.2</ele>
        <time>2019-08-09T10:52:23Z</time>
      </trkpt>
      <trkpt lat="48.37404" lon="7.43004">
        <ele>258.3</ele>
        <time>2019-08-09T10:52:24Z</time>
      </trkpt>
      <trkpt lat="48.37401" lon="7.43005">
        <ele>258.5</ele>
        <time>2019-08-09T10:52:25Z</time>
      </trkpt>
      <trkpt lat="48.37396" lon="7.43008">
        <ele>258.9</ele>
        <time>2019-08-09T10:52:27Z</time>
      </trkpt>
      <trkpt lat="48.37391" lon="7.43008">
        <ele>259.3</ele>
        <time>2019-08-09T10:52:29Z</time>
      </trkpt>
      <trkpt lat="48.37386" lon="7.4301">
        <ele>259.6</ele>
        <time>2019-08-09T10:52:31Z</time>
      </trkpt>
      <trkpt lat="48.37383" lon="7.4301">
        <ele>259.9</ele>
        <time>2019-08-09T10:52:32Z</time>
      </trkpt>
      <trkpt lat="48.3738" lon="7.43011">
        <ele>260</ele>
        <time>2019-08-09T10:52:33Z</time>
      </trkpt>
      <trkpt lat="48.37378" lon="7.43011">
        <ele>260.1</ele>
        <time>2019-08-09T10:52:34Z</time>
      </trkpt>
      <trkpt lat="48.37375" lon="7.43012">
        <ele>260.2</ele>
        <time>2019-08-09T10:52:35Z</time>
      </trkpt>
      <trkpt lat="48.37369" lon="7.43013">
        <ele>260.4</ele>
        <time>2019-08-09T10:52:37Z</time>
      </trkpt>
      <trkpt lat="48.37364" lon="7.43014">
        <ele>260.5</ele>
        <time>2019-08-09T10:52:39Z</time>
      </trkpt>
      <trkpt lat="48.37361" lon="7.43014">
        <ele>260.6</ele>
        <time>2019-08-09T10:52:40Z</time>
      </trkpt>
      <trkpt lat="48.37357" lon="7.43015">
        <ele>260.9</ele>
        <time>2019-08-09T10:52:41Z</time>
      </trkpt>
      <trkpt lat="48.37355" lon="7.43016">
        <ele>261.2</ele>
        <time>2019-08-09T10:52:42Z</time>
      </trkpt>
      <trkpt lat="48.37352" lon="7.43016">
        <ele>261.5</ele>
        <time>2019-08-09T10:52:43Z</time>
      </trkpt>
      <trkpt lat="48.37349" lon="7.43016">
        <ele>261.8</ele>
        <time>2019-08-09T10:52:44Z</time>
      </trkpt>
      <trkpt lat="48.37346" lon="7.43017">
        <ele>262.1</ele>
        <time>2019-08-09T10:52:45Z</time>
      </trkpt>
      <trkpt lat="48.37341" lon="7.43018">
        <ele>262.6</ele>
        <time>2019-08-09T10:52:47Z</time>
      </trkpt>
      <trkpt lat="48.37337" lon="7.43018">
        <ele>262.9</ele>
        <time>2019-08-09T10:52:48Z</time>
      </trkpt>
      <trkpt lat="48.37332" lon="7.43018">
        <ele>263.4</ele>
        <time>2019-08-09T10:52:50Z</time>
      </trkpt>
      <trkpt lat="48.37329" lon="7.43017">
        <ele>263.6</ele>
        <time>2019-08-09T10:52:51Z</time>
      </trkpt>
      <trkpt lat="48.37326" lon="7.43018">
        <ele>263.9</ele>
        <time>2019-08-09T10:52:52Z</time>
      </trkpt>
      <trkpt lat="48.37323" lon="7.43018">
        <ele>264.2</ele>
        <time>2019-08-09T10:52:53Z</time>
      </trkpt>
      <trkpt lat="48.3732" lon="7.43018">
        <ele>264.5</ele>
        <time>2019-08-09T10:52:54Z</time>
      </trkpt>
      <trkpt lat="48.37317" lon="7.43018">
        <ele>264.7</ele>
        <time>2019-08-09T10:52:55Z</time>
      </trkpt>
      <trkpt lat="48.37314" lon="7.43018">
        <ele>265</ele>
        <time>2019-08-09T10:52:56Z</time>
      </trkpt>
      <trkpt lat="48.37311" lon="7.43019">
        <ele>265.3</ele>
        <time>2019-08-09T10:52:57Z</time>
      </trkpt>
      <trkpt lat="48.37308" lon="7.4302">
        <ele>265.5</ele>
        <time>2019-08-09T10:52:58Z</time>
      </trkpt>
      <trkpt lat="48.37303" lon="7.4302">
        <ele>266.1</ele>
        <time>2019-08-09T10:53:00Z</time>
      </trkpt>
      <trkpt lat="48.37298" lon="7.43021">
        <ele>266.5</ele>
        <time>2019-08-09T10:53:02Z</time>
      </trkpt>
      <trkpt lat="48.37293" lon="7.43022">
        <ele>266.6</ele>
        <time>2019-08-09T10:53:04Z</time>
      </trkpt>
      <trkpt lat="48.3729" lon="7.43022">
        <ele>266.8</ele>
        <time>2019-08-09T10:53:05Z</time>
      </trkpt>
      <trkpt lat="48.37286" lon="7.43022">
        <ele>266.9</ele>
        <time>2019-08-09T10:53:06Z</time>
      </trkpt>
      <trkpt lat="48.37283" lon="7.43023">
        <ele>267</ele>
        <time>2019-08-09T10:53:07Z</time>
      </trkpt>
      <trkpt lat="48.3728" lon="7.43023">
        <ele>267.1</ele>
        <time>2019-08-09T10:53:08Z</time>
      </trkpt>
      <trkpt lat="48.37275" lon="7.43023">
        <ele>267.3</ele>
        <time>2019-08-09T10:53:10Z</time>
      </trkpt>
      <trkpt lat="48.37269" lon="7.43023">
        <ele>267.4</ele>
        <time>2019-08-09T10:53:12Z</time>
      </trkpt>
      <trkpt lat="48.37264" lon="7.43022">
        <ele>267.5</ele>
        <time>2019-08-09T10:53:14Z</time>
      </trkpt>
      <trkpt lat="48.37262" lon="7.43022">
        <ele>267.5</ele>
        <time>2019-08-09T10:53:15Z</time>
      </trkpt>
      <trkpt lat="48.37258" lon="7.43023">
        <ele>267.6</ele>
        <time>2019-08-09T10:53:16Z</time>
      </trkpt>
      <trkpt lat="48.37255" lon="7.43023">
        <ele>267.7</ele>
        <time>2019-08-09T10:53:17Z</time>
      </trkpt>
      <trkpt lat="48.37253" lon="7.43024">
        <ele>267.7</ele>
        <time>2019-08-09T10:53:18Z</time>
      </trkpt>
      <trkpt lat="48.37249" lon="7.43024">
        <ele>267.8</ele>
        <time>2019-08-09T10:53:19Z</time>
      </trkpt>
      <trkpt lat="48.37246" lon="7.43025">
        <ele>267.8</ele>
        <time>2019-08-09T10:53:20Z</time>
      </trkpt>
      <trkpt lat="48.37243" lon="7.43025">
        <ele>267.8</ele>
        <time>2019-08-09T10:53:21Z</time>
      </trkpt>
      <trkpt lat="48.3724" lon="7.43026">
        <ele>267.8</ele>
        <time>2019-08-09T10:53:22Z</time>
      </trkpt>
      <trkpt lat="48.37237" lon="7.43026">
        <ele>267.8</ele>
        <time>2019-08-09T10:53:23Z</time>
      </trkpt>
      <trkpt lat="48.37234" lon="7.43027">
        <ele>267.8</ele>
        <time>2019-08-09T10:53:24Z</time>
      </trkpt>
      <trkpt lat="48.37231" lon="7.43027">
        <ele>267.8</ele>
        <time>2019-08-09T10:53:25Z</time>
      </trkpt>
      <trkpt lat="48.37228" lon="7.43028">
        <ele>267.8</ele>
        <time>2019-08-09T10:53:26Z</time>
      </trkpt>
      <trkpt lat="48.37226" lon="7.43028">
        <ele>267.8</ele>
        <time>2019-08-09T10:53:27Z</time>
      </trkpt>
      <trkpt lat="48.3722" lon="7.43028">
        <ele>267.8</ele>
        <time>2019-08-09T10:53:29Z</time>
      </trkpt>
      <trkpt lat="48.37218" lon="7.43028">
        <ele>267.8</ele>
        <time>2019-08-09T10:53:30Z</time>
      </trkpt>
      <trkpt lat="48.37215" lon="7.43029">
        <ele>267.8</ele>
        <time>2019-08-09T10:53:31Z</time>
      </trkpt>
      <trkpt lat="48.37212" lon="7.43029">
        <ele>267.8</ele>
        <time>2019-08-09T10:53:32Z</time>
      </trkpt>
      <trkpt lat="48.37209" lon="7.4303">
        <ele>267.7</ele>
        <time>2019-08-09T10:53:33Z</time>
      </trkpt>
      <trkpt lat="48.37206" lon="7.43031">
        <ele>267.7</ele>
        <time>2019-08-09T10:53:34Z</time>
      </trkpt>
      <trkpt lat="48.37202" lon="7.43032">
        <ele>267.7</ele>
        <time>2019-08-09T10:53:35Z</time>
      </trkpt>
      <trkpt lat="48.37199" lon="7.43033">
        <ele>267.6</ele>
        <time>2019-08-09T10:53:36Z</time>
      </trkpt>
      <trkpt lat="48.37195" lon="7.43033">
        <ele>267.6</ele>
        <time>2019-08-09T10:53:37Z</time>
      </trkpt>
      <trkpt lat="48.37191" lon="7.43034">
        <ele>267.5</ele>
        <time>2019-08-09T10:53:38Z</time>
      </trkpt>
      <trkpt lat="48.37188" lon="7.43034">
        <ele>267.5</ele>
        <time>2019-08-09T10:53:39Z</time>
      </trkpt>
      <trkpt lat="48.37185" lon="7.43034">
        <ele>267.5</ele>
        <time>2019-08-09T10:53:40Z</time>
      </trkpt>
      <trkpt lat="48.37181" lon="7.43035">
        <ele>267.4</ele>
        <time>2019-08-09T10:53:41Z</time>
      </trkpt>
      <trkpt lat="48.37178" lon="7.43036">
        <ele>267.4</ele>
        <time>2019-08-09T10:53:42Z</time>
      </trkpt>
      <trkpt lat="48.37174" lon="7.43037">
        <ele>267.3</ele>
        <time>2019-08-09T10:53:43Z</time>
      </trkpt>
      <trkpt lat="48.37171" lon="7.43037">
        <ele>267.3</ele>
        <time>2019-08-09T10:53:44Z</time>
      </trkpt>
      <trkpt lat="48.37167" lon="7.43038">
        <ele>267.2</ele>
        <time>2019-08-09T10:53:45Z</time>
      </trkpt>
      <trkpt lat="48.37163" lon="7.43038">
        <ele>267.2</ele>
        <time>2019-08-09T10:53:46Z</time>
      </trkpt>
      <trkpt lat="48.37159" lon="7.43038">
        <ele>267.1</ele>
        <time>2019-08-09T10:53:47Z</time>
      </trkpt>
      <trkpt lat="48.37156" lon="7.43038">
        <ele>267.1</ele>
        <time>2019-08-09T10:53:48Z</time>
      </trkpt>
      <trkpt lat="48.37152" lon="7.43039">
        <ele>267</ele>
        <time>2019-08-09T10:53:49Z</time>
      </trkpt>
      <trkpt lat="48.37148" lon="7.43039">
        <ele>266.9</ele>
        <time>2019-08-09T10:53:50Z</time>
      </trkpt>
      <trkpt lat="48.37145" lon="7.43039">
        <ele>266.9</ele>
        <time>2019-08-09T10:53:51Z</time>
      </trkpt>
      <trkpt lat="48.37141" lon="7.43039">
        <ele>266.8</ele>
        <time>2019-08-09T10:53:53Z</time>
      </trkpt>
      <trkpt lat="48.37134" lon="7.4304">
        <ele>266.6</ele>
        <time>2019-08-09T10:53:55Z</time>
      </trkpt>
      <trkpt lat="48.37131" lon="7.43042">
        <ele>266.5</ele>
        <time>2019-08-09T10:54:41Z</time>
      </trkpt>
      <trkpt lat="48.37128" lon="7.43043">
        <ele>266.4</ele>
        <time>2019-08-09T10:54:42Z</time>
      </trkpt>
      <trkpt lat="48.37124" lon="7.43045">
        <ele>266.3</ele>
        <time>2019-08-09T10:54:43Z</time>
      </trkpt>
      <trkpt lat="48.3712" lon="7.43046">
        <ele>266.2</ele>
        <time>2019-08-09T10:54:44Z</time>
      </trkpt>
      <trkpt lat="48.37115" lon="7.43047">
        <ele>266</ele>
        <time>2019-08-09T10:54:45Z</time>
      </trkpt>
      <trkpt lat="48.37111" lon="7.43048">
        <ele>265.9</ele>
        <time>2019-08-09T10:54:46Z</time>
      </trkpt>
      <trkpt lat="48.37106" lon="7.4305">
        <ele>265.8</ele>
        <time>2019-08-09T10:54:47Z</time>
      </trkpt>
      <trkpt lat="48.37101" lon="7.4305">
        <ele>265.7</ele>
        <time>2019-08-09T10:54:48Z</time>
      </trkpt>
      <trkpt lat="48.37096" lon="7.43051">
        <ele>265.6</ele>
        <time>2019-08-09T10:54:49Z</time>
      </trkpt>
      <trkpt lat="48.3709" lon="7.43052">
        <ele>265.4</ele>
        <time>2019-08-09T10:54:50Z</time>
      </trkpt>
      <trkpt lat="48.37085" lon="7.43053">
        <ele>265.3</ele>
        <time>2019-08-09T10:54:51Z</time>
      </trkpt>
      <trkpt lat="48.37079" lon="7.43054">
        <ele>265.1</ele>
        <time>2019-08-09T10:54:52Z</time>
      </trkpt>
      <trkpt lat="48.37074" lon="7.43055">
        <ele>265</ele>
        <time>2019-08-09T10:54:53Z</time>
      </trkpt>
      <trkpt lat="48.37068" lon="7.43055">
        <ele>264.8</ele>
        <time>2019-08-09T10:54:54Z</time>
      </trkpt>
      <trkpt lat="48.37062" lon="7.43055">
        <ele>264.7</ele>
        <time>2019-08-09T10:54:55Z</time>
      </trkpt>
      <trkpt lat="48.37057" lon="7.43056">
        <ele>264.6</ele>
        <time>2019-08-09T10:54:56Z</time>
      </trkpt>
      <trkpt lat="48.37052" lon="7.43056">
        <ele>264.4</ele>
        <time>2019-08-09T10:54:57Z</time>
      </trkpt>
      <trkpt lat="48.37046" lon="7.43056">
        <ele>264.3</ele>
        <time>2019-08-09T10:54:58Z</time>
      </trkpt>
      <trkpt lat="48.37041" lon="7.43056">
        <ele>264.2</ele>
        <time>2019-08-09T10:54:59Z</time>
      </trkpt>
      <trkpt lat="48.37035" lon="7.43056">
        <ele>264.1</ele>
        <time>2019-08-09T10:55:00Z</time>
      </trkpt>
      <trkpt lat="48.3703" lon="7.43057">
        <ele>264</ele>
        <time>2019-08-09T10:55:01Z</time>
      </trkpt>
      <trkpt lat="48.37024" lon="7.43058">
        <ele>264</ele>
        <time>2019-08-09T10:55:02Z</time>
      </trkpt>
      <trkpt lat="48.37019" lon="7.43059">
        <ele>264</ele>
        <time>2019-08-09T10:55:03Z</time>
      </trkpt>
      <trkpt lat="48.37014" lon="7.4306">
        <ele>263.9</ele>
        <time>2019-08-09T10:55:04Z</time>
      </trkpt>
      <trkpt lat="48.37009" lon="7.43061">
        <ele>263.9</ele>
        <time>2019-08-09T10:55:05Z</time>
      </trkpt>
      <trkpt lat="48.37004" lon="7.43062">
        <ele>263.9</ele>
        <time>2019-08-09T10:55:06Z</time>
      </trkpt>
      <trkpt lat="48.36999" lon="7.43063">
        <ele>263.8</ele>
        <time>2019-08-09T10:55:07Z</time>
      </trkpt>
      <trkpt lat="48.36994" lon="7.43064">
        <ele>263.8</ele>
        <time>2019-08-09T10:55:08Z</time>
      </trkpt>
      <trkpt lat="48.36989" lon="7.43064">
        <ele>263.8</ele>
        <time>2019-08-09T10:55:09Z</time>
      </trkpt>
      <trkpt lat="48.36985" lon="7.43064">
        <ele>263.8</ele>
        <time>2019-08-09T10:55:10Z</time>
      </trkpt>
      <trkpt lat="48.36981" lon="7.43065">
        <ele>263.8</ele>
        <time>2019-08-09T10:55:11Z</time>
      </trkpt>
      <trkpt lat="48.36977" lon="7.43066">
        <ele>263.8</ele>
        <time>2019-08-09T10:55:12Z</time>
      </trkpt>
      <trkpt lat="48.36972" lon="7.43067">
        <ele>263.9</ele>
        <time>2019-08-09T10:55:13Z</time>
      </trkpt>
      <trkpt lat="48.36968" lon="7.43068">
        <ele>263.9</ele>
        <time>2019-08-09T10:55:14Z</time>
      </trkpt>
      <trkpt lat="48.36964" lon="7.43068">
        <ele>263.9</ele>
        <time>2019-08-09T10:55:15Z</time>
      </trkpt>
      <trkpt lat="48.36959" lon="7.43069">
        <ele>263.9</ele>
        <time>2019-08-09T10:55:16Z</time>
      </trkpt>
      <trkpt lat="48.36955" lon="7.43071">
        <ele>263.9</ele>
        <time>2019-08-09T10:55:17Z</time>
      </trkpt>
      <trkpt lat="48.36952" lon="7.43072">
        <ele>263.9</ele>
        <time>2019-08-09T10:55:18Z</time>
      </trkpt>
      <trkpt lat="48.36948" lon="7.43073">
        <ele>264</ele>
        <time>2019-08-09T10:55:19Z</time>
      </trkpt>
      <trkpt lat="48.36944" lon="7.43073">
        <ele>264</ele>
        <time>2019-08-09T10:55:20Z</time>
      </trkpt>
      <trkpt lat="48.3694" lon="7.43073">
        <ele>264.1</ele>
        <time>2019-08-09T10:55:21Z</time>
      </trkpt>
      <trkpt lat="48.36936" lon="7.43073">
        <ele>264.1</ele>
        <time>2019-08-09T10:55:22Z</time>
      </trkpt>
      <trkpt lat="48.36932" lon="7.43072">
        <ele>264.1</ele>
        <time>2019-08-09T10:55:23Z</time>
      </trkpt>
      <trkpt lat="48.36928" lon="7.43073">
        <ele>264.2</ele>
        <time>2019-08-09T10:55:24Z</time>
      </trkpt>
      <trkpt lat="48.36924" lon="7.43073">
        <ele>264.2</ele>
        <time>2019-08-09T10:55:25Z</time>
      </trkpt>
      <trkpt lat="48.3692" lon="7.43075">
        <ele>264.3</ele>
        <time>2019-08-09T10:55:26Z</time>
      </trkpt>
      <trkpt lat="48.36917" lon="7.43077">
        <ele>264.3</ele>
        <time>2019-08-09T10:55:27Z</time>
      </trkpt>
      <trkpt lat="48.36914" lon="7.43078">
        <ele>264.4</ele>
        <time>2019-08-09T10:55:28Z</time>
      </trkpt>
      <trkpt lat="48.36911" lon="7.43079">
        <ele>264.4</ele>
        <time>2019-08-09T10:55:29Z</time>
      </trkpt>
      <trkpt lat="48.36907" lon="7.4308">
        <ele>264.5</ele>
        <time>2019-08-09T10:55:30Z</time>
      </trkpt>
      <trkpt lat="48.36904" lon="7.4308">
        <ele>264.5</ele>
        <time>2019-08-09T10:55:31Z</time>
      </trkpt>
      <trkpt lat="48.36901" lon="7.4308">
        <ele>264.6</ele>
        <time>2019-08-09T10:55:32Z</time>
      </trkpt>
      <trkpt lat="48.36898" lon="7.43081">
        <ele>264.6</ele>
        <time>2019-08-09T10:55:33Z</time>
      </trkpt>
      <trkpt lat="48.36894" lon="7.4308">
        <ele>264.7</ele>
        <time>2019-08-09T10:55:34Z</time>
      </trkpt>
      <trkpt lat="48.36891" lon="7.43081">
        <ele>264.7</ele>
        <time>2019-08-09T10:55:35Z</time>
      </trkpt>
      <trkpt lat="48.36888" lon="7.43081">
        <ele>264.8</ele>
        <time>2019-08-09T10:55:36Z</time>
      </trkpt>
      <trkpt lat="48.36884" lon="7.43082">
        <ele>264.9</ele>
        <time>2019-08-09T10:55:37Z</time>
      </trkpt>
      <trkpt lat="48.36881" lon="7.43083">
        <ele>264.9</ele>
        <time>2019-08-09T10:55:38Z</time>
      </trkpt>
      <trkpt lat="48.36878" lon="7.43083">
        <ele>265</ele>
        <time>2019-08-09T10:55:39Z</time>
      </trkpt>
      <trkpt lat="48.36875" lon="7.43083">
        <ele>265.1</ele>
        <time>2019-08-09T10:55:40Z</time>
      </trkpt>
      <trkpt lat="48.36871" lon="7.43083">
        <ele>265.1</ele>
        <time>2019-08-09T10:55:41Z</time>
      </trkpt>
      <trkpt lat="48.36869" lon="7.43083">
        <ele>265.2</ele>
        <time>2019-08-09T10:55:42Z</time>
      </trkpt>
      <trkpt lat="48.36865" lon="7.43084">
        <ele>265.3</ele>
        <time>2019-08-09T10:55:43Z</time>
      </trkpt>
      <trkpt lat="48.36862" lon="7.43086">
        <ele>265.4</ele>
        <time>2019-08-09T10:55:44Z</time>
      </trkpt>
      <trkpt lat="48.36859" lon="7.43087">
        <ele>265.5</ele>
        <time>2019-08-09T10:55:45Z</time>
      </trkpt>
      <trkpt lat="48.36854" lon="7.43089">
        <ele>265.6</ele>
        <time>2019-08-09T10:55:47Z</time>
      </trkpt>
      <trkpt lat="48.36851" lon="7.43089">
        <ele>265.7</ele>
        <time>2019-08-09T10:55:48Z</time>
      </trkpt>
      <trkpt lat="48.36848" lon="7.4309">
        <ele>265.7</ele>
        <time>2019-08-09T10:55:49Z</time>
      </trkpt>
      <trkpt lat="48.36845" lon="7.43091">
        <ele>265.8</ele>
        <time>2019-08-09T10:55:50Z</time>
      </trkpt>
      <trkpt lat="48.36841" lon="7.43092">
        <ele>265.8</ele>
        <time>2019-08-09T10:55:51Z</time>
      </trkpt>
      <trkpt lat="48.36838" lon="7.43092">
        <ele>265.9</ele>
        <time>2019-08-09T10:55:52Z</time>
      </trkpt>
      <trkpt lat="48.36835" lon="7.43093">
        <ele>266</ele>
        <time>2019-08-09T10:55:53Z</time>
      </trkpt>
      <trkpt lat="48.3683" lon="7.43094">
        <ele>266.1</ele>
        <time>2019-08-09T10:55:55Z</time>
      </trkpt>
      <trkpt lat="48.36824" lon="7.43095">
        <ele>266.2</ele>
        <time>2019-08-09T10:55:57Z</time>
      </trkpt>
      <trkpt lat="48.3682" lon="7.43095">
        <ele>266.4</ele>
        <time>2019-08-09T10:55:59Z</time>
      </trkpt>
      <trkpt lat="48.36814" lon="7.43096">
        <ele>266.6</ele>
        <time>2019-08-09T10:56:01Z</time>
      </trkpt>
      <trkpt lat="48.3681" lon="7.43096">
        <ele>266.7</ele>
        <time>2019-08-09T10:56:02Z</time>
      </trkpt>
      <trkpt lat="48.36807" lon="7.43096">
        <ele>266.8</ele>
        <time>2019-08-09T10:56:03Z</time>
      </trkpt>
      <trkpt lat="48.36804" lon="7.43097">
        <ele>266.9</ele>
        <time>2019-08-09T10:56:04Z</time>
      </trkpt>
      <trkpt lat="48.36801" lon="7.43097">
        <ele>267</ele>
        <time>2019-08-09T10:56:05Z</time>
      </trkpt>
      <trkpt lat="48.36798" lon="7.43097">
        <ele>267.1</ele>
        <time>2019-08-09T10:56:06Z</time>
      </trkpt>
      <trkpt lat="48.36793" lon="7.43098">
        <ele>267.2</ele>
        <time>2019-08-09T10:56:08Z</time>
      </trkpt>
      <trkpt lat="48.36788" lon="7.43098">
        <ele>267.4</ele>
        <time>2019-08-09T10:56:10Z</time>
      </trkpt>
      <trkpt lat="48.36783" lon="7.43099">
        <ele>267.5</ele>
        <time>2019-08-09T10:56:12Z</time>
      </trkpt>
      <trkpt lat="48.36778" lon="7.431">
        <ele>267.7</ele>
        <time>2019-08-09T10:56:14Z</time>
      </trkpt>
      <trkpt lat="48.36775" lon="7.431">
        <ele>267.7</ele>
        <time>2019-08-09T10:56:15Z</time>
      </trkpt>
      <trkpt lat="48.36773" lon="7.43101">
        <ele>267.8</ele>
        <time>2019-08-09T10:56:16Z</time>
      </trkpt>
      <trkpt lat="48.36767" lon="7.43101">
        <ele>267.9</ele>
        <time>2019-08-09T10:56:18Z</time>
      </trkpt>
      <trkpt lat="48.36764" lon="7.43103">
        <ele>268</ele>
        <time>2019-08-09T10:56:19Z</time>
      </trkpt>
      <trkpt lat="48.36761" lon="7.43103">
        <ele>268.4</ele>
        <time>2019-08-09T10:56:20Z</time>
      </trkpt>
      <trkpt lat="48.36755" lon="7.43104">
        <ele>268.3</ele>
        <time>2019-08-09T10:56:22Z</time>
      </trkpt>
      <trkpt lat="48.36753" lon="7.43105">
        <ele>268.3</ele>
        <time>2019-08-09T10:56:23Z</time>
      </trkpt>
      <trkpt lat="48.36749" lon="7.43105">
        <ele>268.3</ele>
        <time>2019-08-09T10:56:24Z</time>
      </trkpt>
      <trkpt lat="48.36745" lon="7.43105">
        <ele>268.3</ele>
        <time>2019-08-09T10:56:25Z</time>
      </trkpt>
      <trkpt lat="48.36742" lon="7.43106">
        <ele>268.3</ele>
        <time>2019-08-09T10:56:26Z</time>
      </trkpt>
      <trkpt lat="48.36739" lon="7.43106">
        <ele>268.3</ele>
        <time>2019-08-09T10:56:27Z</time>
      </trkpt>
      <trkpt lat="48.36733" lon="7.43107">
        <ele>268.4</ele>
        <time>2019-08-09T10:56:29Z</time>
      </trkpt>
      <trkpt lat="48.3673" lon="7.43108">
        <ele>268.5</ele>
        <time>2019-08-09T10:56:30Z</time>
      </trkpt>
      <trkpt lat="48.36727" lon="7.43108">
        <ele>268.5</ele>
        <time>2019-08-09T10:56:31Z</time>
      </trkpt>
      <trkpt lat="48.36724" lon="7.43108">
        <ele>268.6</ele>
        <time>2019-08-09T10:56:32Z</time>
      </trkpt>
      <trkpt lat="48.36721" lon="7.43108">
        <ele>268.6</ele>
        <time>2019-08-09T10:56:33Z</time>
      </trkpt>
      <trkpt lat="48.36716" lon="7.43109">
        <ele>268.7</ele>
        <time>2019-08-09T10:56:35Z</time>
      </trkpt>
      <trkpt lat="48.36711" lon="7.4311">
        <ele>268.8</ele>
        <time>2019-08-09T10:56:37Z</time>
      </trkpt>
      <trkpt lat="48.36707" lon="7.4311">
        <ele>268.9</ele>
        <time>2019-08-09T10:56:39Z</time>
      </trkpt>
      <trkpt lat="48.36704" lon="7.43108">
        <ele>269</ele>
        <time>2019-08-09T10:56:41Z</time>
      </trkpt>
      <trkpt lat="48.36705" lon="7.43102">
        <ele>269.2</ele>
        <time>2019-08-09T10:56:43Z</time>
      </trkpt>
      <trkpt lat="48.36706" lon="7.43094">
        <ele>269.4</ele>
        <time>2019-08-09T10:56:45Z</time>
      </trkpt>
      <trkpt lat="48.36707" lon="7.43089">
        <ele>269.6</ele>
        <time>2019-08-09T10:56:46Z</time>
      </trkpt>
      <trkpt lat="48.36707" lon="7.43084">
        <ele>269.7</ele>
        <time>2019-08-09T10:56:47Z</time>
      </trkpt>
      <trkpt lat="48.36708" lon="7.43079">
        <ele>269.8</ele>
        <time>2019-08-09T10:56:48Z</time>
      </trkpt>
      <trkpt lat="48.36709" lon="7.43073">
        <ele>269.9</ele>
        <time>2019-08-09T10:56:49Z</time>
      </trkpt>
      <trkpt lat="48.36709" lon="7.43068">
        <ele>270</ele>
        <time>2019-08-09T10:56:50Z</time>
      </trkpt>
      <trkpt lat="48.3671" lon="7.43063">
        <ele>270.1</ele>
        <time>2019-08-09T10:56:51Z</time>
      </trkpt>
      <trkpt lat="48.36712" lon="7.43057">
        <ele>270.2</ele>
        <time>2019-08-09T10:56:52Z</time>
      </trkpt>
      <trkpt lat="48.36713" lon="7.43054">
        <ele>270.3</ele>
        <time>2019-08-09T10:56:53Z</time>
      </trkpt>
      <trkpt lat="48.36714" lon="7.43049">
        <ele>270.4</ele>
        <time>2019-08-09T10:56:54Z</time>
      </trkpt>
      <trkpt lat="48.36715" lon="7.43045">
        <ele>270.4</ele>
        <time>2019-08-09T10:56:55Z</time>
      </trkpt>
      <trkpt lat="48.36715" lon="7.4304">
        <ele>270.5</ele>
        <time>2019-08-09T10:56:56Z</time>
      </trkpt>
      <trkpt lat="48.36715" lon="7.43035">
        <ele>270.6</ele>
        <time>2019-08-09T10:56:57Z</time>
      </trkpt>
      <trkpt lat="48.36715" lon="7.4303">
        <ele>270.6</ele>
        <time>2019-08-09T10:56:58Z</time>
      </trkpt>
      <trkpt lat="48.36714" lon="7.43025">
        <ele>270.7</ele>
        <time>2019-08-09T10:56:59Z</time>
      </trkpt>
      <trkpt lat="48.36715" lon="7.43019">
        <ele>270.8</ele>
        <time>2019-08-09T10:57:00Z</time>
      </trkpt>
      <trkpt lat="48.36716" lon="7.43014">
        <ele>270.8</ele>
        <time>2019-08-09T10:57:01Z</time>
      </trkpt>
      <trkpt lat="48.36716" lon="7.4301">
        <ele>270.9</ele>
        <time>2019-08-09T10:57:02Z</time>
      </trkpt>
      <trkpt lat="48.36717" lon="7.43005">
        <ele>271</ele>
        <time>2019-08-09T10:57:03Z</time>
      </trkpt>
      <trkpt lat="48.36717" lon="7.43">
        <ele>271.1</ele>
        <time>2019-08-09T10:57:04Z</time>
      </trkpt>
      <trkpt lat="48.36717" lon="7.42995">
        <ele>271.2</ele>
        <time>2019-08-09T10:57:05Z</time>
      </trkpt>
      <trkpt lat="48.36717" lon="7.42991">
        <ele>271.3</ele>
        <time>2019-08-09T10:57:06Z</time>
      </trkpt>
      <trkpt lat="48.36718" lon="7.42986">
        <ele>271.4</ele>
        <time>2019-08-09T10:57:07Z</time>
      </trkpt>
      <trkpt lat="48.36718" lon="7.42981">
        <ele>271.5</ele>
        <time>2019-08-09T10:57:08Z</time>
      </trkpt>
      <trkpt lat="48.36718" lon="7.42977">
        <ele>271.6</ele>
        <time>2019-08-09T10:57:09Z</time>
      </trkpt>
      <trkpt lat="48.36719" lon="7.42973">
        <ele>271.7</ele>
        <time>2019-08-09T10:57:10Z</time>
      </trkpt>
      <trkpt lat="48.3672" lon="7.42965">
        <ele>271.9</ele>
        <time>2019-08-09T10:57:12Z</time>
      </trkpt>
      <trkpt lat="48.3672" lon="7.4296">
        <ele>272</ele>
        <time>2019-08-09T10:57:13Z</time>
      </trkpt>
      <trkpt lat="48.3672" lon="7.42956">
        <ele>272.1</ele>
        <time>2019-08-09T10:57:14Z</time>
      </trkpt>
      <trkpt lat="48.36721" lon="7.42952">
        <ele>272.3</ele>
        <time>2019-08-09T10:57:15Z</time>
      </trkpt>
      <trkpt lat="48.36722" lon="7.42947">
        <ele>272.4</ele>
        <time>2019-08-09T10:57:16Z</time>
      </trkpt>
      <trkpt lat="48.36723" lon="7.42942">
        <ele>272.5</ele>
        <time>2019-08-09T10:57:17Z</time>
      </trkpt>
      <trkpt lat="48.36724" lon="7.42938">
        <ele>272.7</ele>
        <time>2019-08-09T10:57:18Z</time>
      </trkpt>
      <trkpt lat="48.36725" lon="7.42934">
        <ele>272.7</ele>
        <time>2019-08-09T10:57:19Z</time>
      </trkpt>
      <trkpt lat="48.36725" lon="7.4293">
        <ele>272.6</ele>
        <time>2019-08-09T10:57:20Z</time>
      </trkpt>
      <trkpt lat="48.36728" lon="7.42923">
        <ele>272.6</ele>
        <time>2019-08-09T10:57:22Z</time>
      </trkpt>
      <trkpt lat="48.36731" lon="7.42915">
        <ele>272.5</ele>
        <time>2019-08-09T10:57:24Z</time>
      </trkpt>
      <trkpt lat="48.36733" lon="7.42911">
        <ele>272.5</ele>
        <time>2019-08-09T10:57:25Z</time>
      </trkpt>
      <trkpt lat="48.36734" lon="7.42906">
        <ele>272.5</ele>
        <time>2019-08-09T10:57:26Z</time>
      </trkpt>
      <trkpt lat="48.36735" lon="7.42902">
        <ele>272.5</ele>
        <time>2019-08-09T10:57:27Z</time>
      </trkpt>
      <trkpt lat="48.36737" lon="7.42899">
        <ele>272.6</ele>
        <time>2019-08-09T10:57:28Z</time>
      </trkpt>
      <trkpt lat="48.36739" lon="7.42895">
        <ele>272.6</ele>
        <time>2019-08-09T10:57:29Z</time>
      </trkpt>
      <trkpt lat="48.3674" lon="7.42891">
        <ele>272.7</ele>
        <time>2019-08-09T10:57:30Z</time>
      </trkpt>
      <trkpt lat="48.36742" lon="7.42884">
        <ele>272.8</ele>
        <time>2019-08-09T10:57:32Z</time>
      </trkpt>
      <trkpt lat="48.36743" lon="7.42879">
        <ele>273</ele>
        <time>2019-08-09T10:57:33Z</time>
      </trkpt>
      <trkpt lat="48.36745" lon="7.42874">
        <ele>273.1</ele>
        <time>2019-08-09T10:57:34Z</time>
      </trkpt>
      <trkpt lat="48.36746" lon="7.4287">
        <ele>273.2</ele>
        <time>2019-08-09T10:57:35Z</time>
      </trkpt>
      <trkpt lat="48.36747" lon="7.42866">
        <ele>273.3</ele>
        <time>2019-08-09T10:57:36Z</time>
      </trkpt>
      <trkpt lat="48.36748" lon="7.42862">
        <ele>273.4</ele>
        <time>2019-08-09T10:57:37Z</time>
      </trkpt>
      <trkpt lat="48.36749" lon="7.42858">
        <ele>273.5</ele>
        <time>2019-08-09T10:57:38Z</time>
      </trkpt>
      <trkpt lat="48.36751" lon="7.42851">
        <ele>273.6</ele>
        <time>2019-08-09T10:57:40Z</time>
      </trkpt>
      <trkpt lat="48.36752" lon="7.42844">
        <ele>273.7</ele>
        <time>2019-08-09T10:57:42Z</time>
      </trkpt>
      <trkpt lat="48.36754" lon="7.42835">
        <ele>273.8</ele>
        <time>2019-08-09T10:57:44Z</time>
      </trkpt>
      <trkpt lat="48.36755" lon="7.42831">
        <ele>273.9</ele>
        <time>2019-08-09T10:57:45Z</time>
      </trkpt>
      <trkpt lat="48.36757" lon="7.42824">
        <ele>274</ele>
        <time>2019-08-09T10:57:47Z</time>
      </trkpt>
      <trkpt lat="48.36758" lon="7.42817">
        <ele>274</ele>
        <time>2019-08-09T10:57:49Z</time>
      </trkpt>
      <trkpt lat="48.36759" lon="7.42811">
        <ele>274.1</ele>
        <time>2019-08-09T10:57:51Z</time>
      </trkpt>
      <trkpt lat="48.3676" lon="7.42805">
        <ele>274.1</ele>
        <time>2019-08-09T10:57:53Z</time>
      </trkpt>
      <trkpt lat="48.36761" lon="7.42798">
        <ele>274.1</ele>
        <time>2019-08-09T10:57:55Z</time>
      </trkpt>
      <trkpt lat="48.36761" lon="7.42791">
        <ele>274.2</ele>
        <time>2019-08-09T10:57:57Z</time>
      </trkpt>
      <trkpt lat="48.36763" lon="7.42784">
        <ele>274.2</ele>
        <time>2019-08-09T10:57:59Z</time>
      </trkpt>
      <trkpt lat="48.36763" lon="7.42779">
        <ele>274.3</ele>
        <time>2019-08-09T10:58:00Z</time>
      </trkpt>
      <trkpt lat="48.36764" lon="7.42775">
        <ele>274.3</ele>
        <time>2019-08-09T10:58:01Z</time>
      </trkpt>
      <trkpt lat="48.36764" lon="7.42766">
        <ele>274.4</ele>
        <time>2019-08-09T10:58:03Z</time>
      </trkpt>
      <trkpt lat="48.36765" lon="7.42762">
        <ele>274.4</ele>
        <time>2019-08-09T10:58:04Z</time>
      </trkpt>
      <trkpt lat="48.36765" lon="7.42757">
        <ele>274.5</ele>
        <time>2019-08-09T10:58:05Z</time>
      </trkpt>
      <trkpt lat="48.36767" lon="7.42753">
        <ele>274.5</ele>
        <time>2019-08-09T10:58:06Z</time>
      </trkpt>
      <trkpt lat="48.36768" lon="7.42745">
        <ele>274.7</ele>
        <time>2019-08-09T10:58:08Z</time>
      </trkpt>
      <trkpt lat="48.36768" lon="7.42738">
        <ele>274.8</ele>
        <time>2019-08-09T10:58:10Z</time>
      </trkpt>
      <trkpt lat="48.36768" lon="7.42734">
        <ele>274.8</ele>
        <time>2019-08-09T10:58:11Z</time>
      </trkpt>
      <trkpt lat="48.36769" lon="7.42729">
        <ele>274.9</ele>
        <time>2019-08-09T10:58:12Z</time>
      </trkpt>
      <trkpt lat="48.36769" lon="7.42725">
        <ele>275</ele>
        <time>2019-08-09T10:58:13Z</time>
      </trkpt>
      <trkpt lat="48.3677" lon="7.42716">
        <ele>275.2</ele>
        <time>2019-08-09T10:58:15Z</time>
      </trkpt>
      <trkpt lat="48.36771" lon="7.42712">
        <ele>275.2</ele>
        <time>2019-08-09T10:58:16Z</time>
      </trkpt>
      <trkpt lat="48.36772" lon="7.42704">
        <ele>275.4</ele>
        <time>2019-08-09T10:58:18Z</time>
      </trkpt>
      <trkpt lat="48.36772" lon="7.427">
        <ele>275.4</ele>
        <time>2019-08-09T10:58:19Z</time>
      </trkpt>
      <trkpt lat="48.36773" lon="7.42692">
        <ele>275.6</ele>
        <time>2019-08-09T10:58:21Z</time>
      </trkpt>
      <trkpt lat="48.36773" lon="7.42687">
        <ele>275.7</ele>
        <time>2019-08-09T10:58:22Z</time>
      </trkpt>
      <trkpt lat="48.36773" lon="7.42682">
        <ele>275.8</ele>
        <time>2019-08-09T10:58:23Z</time>
      </trkpt>
      <trkpt lat="48.36773" lon="7.42678">
        <ele>275.9</ele>
        <time>2019-08-09T10:58:24Z</time>
      </trkpt>
      <trkpt lat="48.36772" lon="7.42673">
        <ele>275.9</ele>
        <time>2019-08-09T10:58:25Z</time>
      </trkpt>
      <trkpt lat="48.36772" lon="7.42669">
        <ele>275.7</ele>
        <time>2019-08-09T10:58:26Z</time>
      </trkpt>
      <trkpt lat="48.36772" lon="7.42661">
        <ele>275.6</ele>
        <time>2019-08-09T10:58:28Z</time>
      </trkpt>
      <trkpt lat="48.36772" lon="7.42657">
        <ele>275.5</ele>
        <time>2019-08-09T10:58:29Z</time>
      </trkpt>
      <trkpt lat="48.36773" lon="7.42649">
        <ele>275.2</ele>
        <time>2019-08-09T10:58:31Z</time>
      </trkpt>
      <trkpt lat="48.36774" lon="7.42644">
        <ele>275.1</ele>
        <time>2019-08-09T10:58:32Z</time>
      </trkpt>
      <trkpt lat="48.36774" lon="7.42639">
        <ele>275</ele>
        <time>2019-08-09T10:58:33Z</time>
      </trkpt>
      <trkpt lat="48.36774" lon="7.42633">
        <ele>274.7</ele>
        <time>2019-08-09T10:58:35Z</time>
      </trkpt>
      <trkpt lat="48.36774" lon="7.42627">
        <ele>274.5</ele>
        <time>2019-08-09T10:58:37Z</time>
      </trkpt>
      <trkpt lat="48.36775" lon="7.4262">
        <ele>274.3</ele>
        <time>2019-08-09T10:58:39Z</time>
      </trkpt>
      <trkpt lat="48.36776" lon="7.42613">
        <ele>274.1</ele>
        <time>2019-08-09T10:58:41Z</time>
      </trkpt>
      <trkpt lat="48.36777" lon="7.42608">
        <ele>273.9</ele>
        <time>2019-08-09T10:58:43Z</time>
      </trkpt>
      <trkpt lat="48.36776" lon="7.42602">
        <ele>273.2</ele>
        <time>2019-08-09T10:58:45Z</time>
      </trkpt>
      <trkpt lat="48.36774" lon="7.42601">
        <ele>273.1</ele>
        <time>2019-08-09T10:58:46Z</time>
      </trkpt>
      <trkpt lat="48.36769" lon="7.42601">
        <ele>273</ele>
        <time>2019-08-09T10:58:47Z</time>
      </trkpt>
      <trkpt lat="48.36765" lon="7.426">
        <ele>272.8</ele>
        <time>2019-08-09T10:58:48Z</time>
      </trkpt>
      <trkpt lat="48.3676" lon="7.426">
        <ele>272.6</ele>
        <time>2019-08-09T10:58:49Z</time>
      </trkpt>
      <trkpt lat="48.36755" lon="7.42601">
        <ele>272.3</ele>
        <time>2019-08-09T10:58:50Z</time>
      </trkpt>
      <trkpt lat="48.36751" lon="7.42602">
        <ele>272.1</ele>
        <time>2019-08-09T10:58:51Z</time>
      </trkpt>
      <trkpt lat="48.36746" lon="7.42603">
        <ele>271.9</ele>
        <time>2019-08-09T10:58:52Z</time>
      </trkpt>
      <trkpt lat="48.36741" lon="7.42604">
        <ele>271.8</ele>
        <time>2019-08-09T10:58:53Z</time>
      </trkpt>
      <trkpt lat="48.36737" lon="7.42604">
        <ele>271.6</ele>
        <time>2019-08-09T10:58:54Z</time>
      </trkpt>
      <trkpt lat="48.36733" lon="7.42604">
        <ele>271.5</ele>
        <time>2019-08-09T10:58:55Z</time>
      </trkpt>
      <trkpt lat="48.36728" lon="7.42604">
        <ele>271.3</ele>
        <time>2019-08-09T10:58:57Z</time>
      </trkpt>
      <trkpt lat="48.36724" lon="7.42604">
        <ele>271.1</ele>
        <time>2019-08-09T10:58:59Z</time>
      </trkpt>
      <trkpt lat="48.36721" lon="7.42604">
        <ele>271</ele>
        <time>2019-08-09T10:59:00Z</time>
      </trkpt>
      <trkpt lat="48.36717" lon="7.42605">
        <ele>270.8</ele>
        <time>2019-08-09T10:59:01Z</time>
      </trkpt>
      <trkpt lat="48.36713" lon="7.42606">
        <ele>270.6</ele>
        <time>2019-08-09T10:59:02Z</time>
      </trkpt>
      <trkpt lat="48.36707" lon="7.42607">
        <ele>270.4</ele>
        <time>2019-08-09T10:59:03Z</time>
      </trkpt>
      <trkpt lat="48.36701" lon="7.42608">
        <ele>270</ele>
        <time>2019-08-09T10:59:04Z</time>
      </trkpt>
      <trkpt lat="48.36696" lon="7.42608">
        <ele>269.6</ele>
        <time>2019-08-09T10:59:05Z</time>
      </trkpt>
      <trkpt lat="48.36691" lon="7.42609">
        <ele>269.2</ele>
        <time>2019-08-09T10:59:06Z</time>
      </trkpt>
      <trkpt lat="48.36687" lon="7.42609">
        <ele>268.9</ele>
        <time>2019-08-09T10:59:07Z</time>
      </trkpt>
      <trkpt lat="48.36683" lon="7.42609">
        <ele>268.6</ele>
        <time>2019-08-09T10:59:08Z</time>
      </trkpt>
      <trkpt lat="48.36679" lon="7.42609">
        <ele>268.2</ele>
        <time>2019-08-09T10:59:09Z</time>
      </trkpt>
      <trkpt lat="48.36675" lon="7.42609">
        <ele>267.8</ele>
        <time>2019-08-09T10:59:10Z</time>
      </trkpt>
      <trkpt lat="48.36671" lon="7.42609">
        <ele>267.5</ele>
        <time>2019-08-09T10:59:11Z</time>
      </trkpt>
      <trkpt lat="48.36665" lon="7.42609">
        <ele>267.1</ele>
        <time>2019-08-09T10:59:12Z</time>
      </trkpt>
      <trkpt lat="48.36659" lon="7.42609">
        <ele>266.7</ele>
        <time>2019-08-09T10:59:13Z</time>
      </trkpt>
      <trkpt lat="48.36653" lon="7.4261">
        <ele>266.2</ele>
        <time>2019-08-09T10:59:14Z</time>
      </trkpt>
      <trkpt lat="48.36646" lon="7.4261">
        <ele>265.7</ele>
        <time>2019-08-09T10:59:15Z</time>
      </trkpt>
      <trkpt lat="48.36639" lon="7.42611">
        <ele>265.2</ele>
        <time>2019-08-09T10:59:16Z</time>
      </trkpt>
      <trkpt lat="48.36632" lon="7.42612">
        <ele>264.6</ele>
        <time>2019-08-09T10:59:17Z</time>
      </trkpt>
      <trkpt lat="48.36625" lon="7.42613">
        <ele>264</ele>
        <time>2019-08-09T10:59:18Z</time>
      </trkpt>
      <trkpt lat="48.36619" lon="7.42613">
        <ele>263.5</ele>
        <time>2019-08-09T10:59:19Z</time>
      </trkpt>
      <trkpt lat="48.36612" lon="7.42614">
        <ele>262.9</ele>
        <time>2019-08-09T10:59:20Z</time>
      </trkpt>
      <trkpt lat="48.36605" lon="7.42614">
        <ele>262.3</ele>
        <time>2019-08-09T10:59:21Z</time>
      </trkpt>
      <trkpt lat="48.36598" lon="7.42614">
        <ele>261.7</ele>
        <time>2019-08-09T10:59:22Z</time>
      </trkpt>
      <trkpt lat="48.36593" lon="7.42614">
        <ele>261.1</ele>
        <time>2019-08-09T10:59:23Z</time>
      </trkpt>
      <trkpt lat="48.36586" lon="7.42613">
        <ele>260.4</ele>
        <time>2019-08-09T10:59:24Z</time>
      </trkpt>
      <trkpt lat="48.36581" lon="7.42612">
        <ele>259.6</ele>
        <time>2019-08-09T10:59:25Z</time>
      </trkpt>
      <trkpt lat="48.36574" lon="7.42611">
        <ele>258.8</ele>
        <time>2019-08-09T10:59:26Z</time>
      </trkpt>
      <trkpt lat="48.36569" lon="7.42608">
        <ele>258.2</ele>
        <time>2019-08-09T10:59:27Z</time>
      </trkpt>
      <trkpt lat="48.36564" lon="7.42606">
        <ele>257.7</ele>
        <time>2019-08-09T10:59:28Z</time>
      </trkpt>
      <trkpt lat="48.36558" lon="7.42605">
        <ele>257.2</ele>
        <time>2019-08-09T10:59:29Z</time>
      </trkpt>
      <trkpt lat="48.36553" lon="7.42604">
        <ele>256.8</ele>
        <time>2019-08-09T10:59:30Z</time>
      </trkpt>
      <trkpt lat="48.36548" lon="7.42602">
        <ele>256.4</ele>
        <time>2019-08-09T10:59:31Z</time>
      </trkpt>
      <trkpt lat="48.36542" lon="7.42601">
        <ele>256</ele>
        <time>2019-08-09T10:59:32Z</time>
      </trkpt>
      <trkpt lat="48.36538" lon="7.426">
        <ele>255.5</ele>
        <time>2019-08-09T10:59:33Z</time>
      </trkpt>
      <trkpt lat="48.36534" lon="7.42598">
        <ele>255.1</ele>
        <time>2019-08-09T10:59:34Z</time>
      </trkpt>
      <trkpt lat="48.36531" lon="7.42597">
        <ele>254.2</ele>
        <time>2019-08-09T10:59:35Z</time>
      </trkpt>
      <trkpt lat="48.36527" lon="7.42594">
        <ele>254.2</ele>
        <time>2019-08-09T10:59:37Z</time>
      </trkpt>
      <trkpt lat="48.36524" lon="7.42591">
        <ele>254.2</ele>
        <time>2019-08-09T10:59:40Z</time>
      </trkpt>
      <trkpt lat="48.36519" lon="7.42592">
        <ele>254.3</ele>
        <time>2019-08-09T10:59:42Z</time>
      </trkpt>
      <trkpt lat="48.36517" lon="7.42593">
        <ele>254.3</ele>
        <time>2019-08-09T10:59:43Z</time>
      </trkpt>
      <trkpt lat="48.36513" lon="7.42595">
        <ele>254.1</ele>
        <time>2019-08-09T10:59:44Z</time>
      </trkpt>
      <trkpt lat="48.3651" lon="7.42597">
        <ele>253.8</ele>
        <time>2019-08-09T10:59:45Z</time>
      </trkpt>
      <trkpt lat="48.36506" lon="7.426">
        <ele>253.8</ele>
        <time>2019-08-09T10:59:46Z</time>
      </trkpt>
      <trkpt lat="48.36502" lon="7.42602">
        <ele>253.9</ele>
        <time>2019-08-09T10:59:47Z</time>
      </trkpt>
      <trkpt lat="48.36498" lon="7.42604">
        <ele>254</ele>
        <time>2019-08-09T10:59:48Z</time>
      </trkpt>
      <trkpt lat="48.36494" lon="7.42605">
        <ele>254</ele>
        <time>2019-08-09T10:59:49Z</time>
      </trkpt>
      <trkpt lat="48.36489" lon="7.42608">
        <ele>254.2</ele>
        <time>2019-08-09T10:59:50Z</time>
      </trkpt>
      <trkpt lat="48.36485" lon="7.4261">
        <ele>254.3</ele>
        <time>2019-08-09T10:59:51Z</time>
      </trkpt>
      <trkpt lat="48.3648" lon="7.42613">
        <ele>254.4</ele>
        <time>2019-08-09T10:59:52Z</time>
      </trkpt>
      <trkpt lat="48.36475" lon="7.42616">
        <ele>254.5</ele>
        <time>2019-08-09T10:59:53Z</time>
      </trkpt>
      <trkpt lat="48.3647" lon="7.42619">
        <ele>254.5</ele>
        <time>2019-08-09T10:59:54Z</time>
      </trkpt>
      <trkpt lat="48.36467" lon="7.42621">
        <ele>254.6</ele>
        <time>2019-08-09T10:59:55Z</time>
      </trkpt>
      <trkpt lat="48.36463" lon="7.42623">
        <ele>254.6</ele>
        <time>2019-08-09T10:59:56Z</time>
      </trkpt>
      <trkpt lat="48.3646" lon="7.42626">
        <ele>254.8</ele>
        <time>2019-08-09T10:59:57Z</time>
      </trkpt>
      <trkpt lat="48.36457" lon="7.42629">
        <ele>255</ele>
        <time>2019-08-09T10:59:58Z</time>
      </trkpt>
      <trkpt lat="48.36454" lon="7.42632">
        <ele>255.2</ele>
        <time>2019-08-09T10:59:59Z</time>
      </trkpt>
      <trkpt lat="48.36451" lon="7.42634">
        <ele>255.2</ele>
        <time>2019-08-09T11:00:00Z</time>
      </trkpt>
      <trkpt lat="48.36449" lon="7.42637">
        <ele>255.2</ele>
        <time>2019-08-09T11:00:01Z</time>
      </trkpt>
      <trkpt lat="48.36445" lon="7.4264">
        <ele>255.3</ele>
        <time>2019-08-09T11:00:02Z</time>
      </trkpt>
      <trkpt lat="48.36442" lon="7.42643">
        <ele>255.4</ele>
        <time>2019-08-09T11:00:03Z</time>
      </trkpt>
      <trkpt lat="48.36438" lon="7.42647">
        <ele>255.5</ele>
        <time>2019-08-09T11:00:04Z</time>
      </trkpt>
      <trkpt lat="48.36434" lon="7.4265">
        <ele>255.6</ele>
        <time>2019-08-09T11:00:05Z</time>
      </trkpt>
      <trkpt lat="48.36431" lon="7.42653">
        <ele>255.6</ele>
        <time>2019-08-09T11:00:06Z</time>
      </trkpt>
      <trkpt lat="48.36427" lon="7.42656">
        <ele>255.6</ele>
        <time>2019-08-09T11:00:07Z</time>
      </trkpt>
      <trkpt lat="48.36423" lon="7.42659">
        <ele>255.5</ele>
        <time>2019-08-09T11:00:08Z</time>
      </trkpt>
      <trkpt lat="48.36417" lon="7.42665">
        <ele>255.4</ele>
        <time>2019-08-09T11:00:10Z</time>
      </trkpt>
      <trkpt lat="48.36414" lon="7.42668">
        <ele>255.3</ele>
        <time>2019-08-09T11:00:11Z</time>
      </trkpt>
      <trkpt lat="48.36411" lon="7.42673">
        <ele>255.2</ele>
        <time>2019-08-09T11:00:12Z</time>
      </trkpt>
      <trkpt lat="48.36408" lon="7.42676">
        <ele>255.1</ele>
        <time>2019-08-09T11:00:13Z</time>
      </trkpt>
      <trkpt lat="48.36405" lon="7.4268">
        <ele>254.9</ele>
        <time>2019-08-09T11:00:14Z</time>
      </trkpt>
      <trkpt lat="48.36404" lon="7.42685">
        <ele>254.7</ele>
        <time>2019-08-09T11:00:15Z</time>
      </trkpt>
      <trkpt lat="48.36401" lon="7.42691">
        <ele>254.5</ele>
        <time>2019-08-09T11:00:16Z</time>
      </trkpt>
      <trkpt lat="48.36399" lon="7.42698">
        <ele>254.3</ele>
        <time>2019-08-09T11:00:17Z</time>
      </trkpt>
      <trkpt lat="48.36398" lon="7.42704">
        <ele>254.1</ele>
        <time>2019-08-09T11:00:18Z</time>
      </trkpt>
      <trkpt lat="48.36395" lon="7.4271">
        <ele>253.9</ele>
        <time>2019-08-09T11:00:19Z</time>
      </trkpt>
      <trkpt lat="48.36394" lon="7.42716">
        <ele>253.7</ele>
        <time>2019-08-09T11:00:20Z</time>
      </trkpt>
      <trkpt lat="48.36393" lon="7.42722">
        <ele>253.7</ele>
        <time>2019-08-09T11:00:21Z</time>
      </trkpt>
      <trkpt lat="48.36391" lon="7.42727">
        <ele>253.6</ele>
        <time>2019-08-09T11:00:22Z</time>
      </trkpt>
      <trkpt lat="48.3639" lon="7.42734">
        <ele>253.6</ele>
        <time>2019-08-09T11:00:23Z</time>
      </trkpt>
      <trkpt lat="48.36391" lon="7.42742">
        <ele>253.7</ele>
        <time>2019-08-09T11:00:24Z</time>
      </trkpt>
      <trkpt lat="48.36391" lon="7.4275">
        <ele>253.8</ele>
        <time>2019-08-09T11:00:25Z</time>
      </trkpt>
      <trkpt lat="48.3639" lon="7.42758">
        <ele>253.9</ele>
        <time>2019-08-09T11:00:26Z</time>
      </trkpt>
      <trkpt lat="48.36391" lon="7.42766">
        <ele>254</ele>
        <time>2019-08-09T11:00:27Z</time>
      </trkpt>
      <trkpt lat="48.36391" lon="7.42774">
        <ele>254.1</ele>
        <time>2019-08-09T11:00:28Z</time>
      </trkpt>
      <trkpt lat="48.36391" lon="7.42781">
        <ele>254.1</ele>
        <time>2019-08-09T11:00:29Z</time>
      </trkpt>
      <trkpt lat="48.36391" lon="7.42788">
        <ele>254.2</ele>
        <time>2019-08-09T11:00:30Z</time>
      </trkpt>
      <trkpt lat="48.36391" lon="7.42796">
        <ele>254.4</ele>
        <time>2019-08-09T11:00:31Z</time>
      </trkpt>
      <trkpt lat="48.36392" lon="7.42802">
        <ele>254.4</ele>
        <time>2019-08-09T11:00:32Z</time>
      </trkpt>
      <trkpt lat="48.36392" lon="7.42808">
        <ele>254.5</ele>
        <time>2019-08-09T11:00:33Z</time>
      </trkpt>
      <trkpt lat="48.36392" lon="7.42814">
        <ele>254.6</ele>
        <time>2019-08-09T11:00:34Z</time>
      </trkpt>
      <trkpt lat="48.36391" lon="7.42821">
        <ele>254.7</ele>
        <time>2019-08-09T11:00:35Z</time>
      </trkpt>
      <trkpt lat="48.36392" lon="7.42826">
        <ele>254.8</ele>
        <time>2019-08-09T11:00:36Z</time>
      </trkpt>
      <trkpt lat="48.36392" lon="7.42832">
        <ele>254.9</ele>
        <time>2019-08-09T11:00:37Z</time>
      </trkpt>
      <trkpt lat="48.36392" lon="7.42838">
        <ele>255</ele>
        <time>2019-08-09T11:00:38Z</time>
      </trkpt>
      <trkpt lat="48.36391" lon="7.42844">
        <ele>255.1</ele>
        <time>2019-08-09T11:00:39Z</time>
      </trkpt>
      <trkpt lat="48.36391" lon="7.42851">
        <ele>255.2</ele>
        <time>2019-08-09T11:00:40Z</time>
      </trkpt>
      <trkpt lat="48.36392" lon="7.42858">
        <ele>255.4</ele>
        <time>2019-08-09T11:00:41Z</time>
      </trkpt>
      <trkpt lat="48.36393" lon="7.42865">
        <ele>255.5</ele>
        <time>2019-08-09T11:00:42Z</time>
      </trkpt>
      <trkpt lat="48.36393" lon="7.42872">
        <ele>255.6</ele>
        <time>2019-08-09T11:00:43Z</time>
      </trkpt>
      <trkpt lat="48.36394" lon="7.42879">
        <ele>255.7</ele>
        <time>2019-08-09T11:00:44Z</time>
      </trkpt>
      <trkpt lat="48.36394" lon="7.42885">
        <ele>255.8</ele>
        <time>2019-08-09T11:00:45Z</time>
      </trkpt>
      <trkpt lat="48.36394" lon="7.42892">
        <ele>255.9</ele>
        <time>2019-08-09T11:00:46Z</time>
      </trkpt>
      <trkpt lat="48.36395" lon="7.42898">
        <ele>256</ele>
        <time>2019-08-09T11:00:47Z</time>
      </trkpt>
      <trkpt lat="48.36395" lon="7.42904">
        <ele>256.1</ele>
        <time>2019-08-09T11:00:48Z</time>
      </trkpt>
      <trkpt lat="48.36395" lon="7.42912">
        <ele>256.2</ele>
        <time>2019-08-09T11:00:49Z</time>
      </trkpt>
      <trkpt lat="48.36396" lon="7.4292">
        <ele>256.3</ele>
        <time>2019-08-09T11:00:50Z</time>
      </trkpt>
      <trkpt lat="48.36397" lon="7.42928">
        <ele>256.4</ele>
        <time>2019-08-09T11:00:51Z</time>
      </trkpt>
      <trkpt lat="48.36397" lon="7.42935">
        <ele>256.5</ele>
        <time>2019-08-09T11:00:52Z</time>
      </trkpt>
      <trkpt lat="48.36398" lon="7.42943">
        <ele>256.6</ele>
        <time>2019-08-09T11:00:53Z</time>
      </trkpt>
      <trkpt lat="48.36398" lon="7.4295">
        <ele>256.7</ele>
        <time>2019-08-09T11:00:54Z</time>
      </trkpt>
      <trkpt lat="48.36398" lon="7.42957">
        <ele>256.7</ele>
        <time>2019-08-09T11:00:55Z</time>
      </trkpt>
      <trkpt lat="48.36399" lon="7.42964">
        <ele>256.8</ele>
        <time>2019-08-09T11:00:56Z</time>
      </trkpt>
      <trkpt lat="48.36399" lon="7.42971">
        <ele>256.9</ele>
        <time>2019-08-09T11:00:57Z</time>
      </trkpt>
      <trkpt lat="48.36399" lon="7.42979">
        <ele>257</ele>
        <time>2019-08-09T11:00:58Z</time>
      </trkpt>
      <trkpt lat="48.36397" lon="7.42987">
        <ele>257.1</ele>
        <time>2019-08-09T11:00:59Z</time>
      </trkpt>
      <trkpt lat="48.36397" lon="7.42995">
        <ele>257.1</ele>
        <time>2019-08-09T11:01:00Z</time>
      </trkpt>
      <trkpt lat="48.36396" lon="7.43003">
        <ele>257.2</ele>
        <time>2019-08-09T11:01:01Z</time>
      </trkpt>
      <trkpt lat="48.36396" lon="7.4301">
        <ele>257.3</ele>
        <time>2019-08-09T11:01:02Z</time>
      </trkpt>
      <trkpt lat="48.36396" lon="7.43018">
        <ele>257.4</ele>
        <time>2019-08-09T11:01:03Z</time>
      </trkpt>
      <trkpt lat="48.36396" lon="7.43026">
        <ele>257.5</ele>
        <time>2019-08-09T11:01:04Z</time>
      </trkpt>
      <trkpt lat="48.36396" lon="7.43033">
        <ele>257.6</ele>
        <time>2019-08-09T11:01:05Z</time>
      </trkpt>
      <trkpt lat="48.36397" lon="7.43041">
        <ele>257.7</ele>
        <time>2019-08-09T11:01:06Z</time>
      </trkpt>
      <trkpt lat="48.36396" lon="7.43049">
        <ele>257.7</ele>
        <time>2019-08-09T11:01:07Z</time>
      </trkpt>
      <trkpt lat="48.36396" lon="7.43057">
        <ele>257.6</ele>
        <time>2019-08-09T11:01:08Z</time>
      </trkpt>
      <trkpt lat="48.36396" lon="7.43064">
        <ele>257.5</ele>
        <time>2019-08-09T11:01:09Z</time>
      </trkpt>
      <trkpt lat="48.36396" lon="7.43071">
        <ele>257.4</ele>
        <time>2019-08-09T11:01:10Z</time>
      </trkpt>
      <trkpt lat="48.36397" lon="7.4308">
        <ele>257.2</ele>
        <time>2019-08-09T11:01:11Z</time>
      </trkpt>
      <trkpt lat="48.36397" lon="7.43087">
        <ele>256.9</ele>
        <time>2019-08-09T11:01:12Z</time>
      </trkpt>
      <trkpt lat="48.36397" lon="7.43095">
        <ele>256.6</ele>
        <time>2019-08-09T11:01:13Z</time>
      </trkpt>
      <trkpt lat="48.36396" lon="7.43101">
        <ele>256.4</ele>
        <time>2019-08-09T11:01:14Z</time>
      </trkpt>
      <trkpt lat="48.36396" lon="7.43108">
        <ele>256.2</ele>
        <time>2019-08-09T11:01:15Z</time>
      </trkpt>
      <trkpt lat="48.36395" lon="7.43115">
        <ele>255.9</ele>
        <time>2019-08-09T11:01:16Z</time>
      </trkpt>
      <trkpt lat="48.36394" lon="7.43121">
        <ele>255.7</ele>
        <time>2019-08-09T11:01:17Z</time>
      </trkpt>
      <trkpt lat="48.36392" lon="7.43127">
        <ele>255.6</ele>
        <time>2019-08-09T11:01:18Z</time>
      </trkpt>
      <trkpt lat="48.36391" lon="7.43135">
        <ele>255.4</ele>
        <time>2019-08-09T11:01:19Z</time>
      </trkpt>
      <trkpt lat="48.3639" lon="7.43143">
        <ele>255.2</ele>
        <time>2019-08-09T11:01:20Z</time>
      </trkpt>
      <trkpt lat="48.36389" lon="7.4315">
        <ele>255</ele>
        <time>2019-08-09T11:01:21Z</time>
      </trkpt>
      <trkpt lat="48.36389" lon="7.43158">
        <ele>254.7</ele>
        <time>2019-08-09T11:01:22Z</time>
      </trkpt>
      <trkpt lat="48.36389" lon="7.43166">
        <ele>254.4</ele>
        <time>2019-08-09T11:01:23Z</time>
      </trkpt>
      <trkpt lat="48.36387" lon="7.43173">
        <ele>254.3</ele>
        <time>2019-08-09T11:01:24Z</time>
      </trkpt>
      <trkpt lat="48.36386" lon="7.4318">
        <ele>254.1</ele>
        <time>2019-08-09T11:01:25Z</time>
      </trkpt>
      <trkpt lat="48.36385" lon="7.43188">
        <ele>253.9</ele>
        <time>2019-08-09T11:01:26Z</time>
      </trkpt>
      <trkpt lat="48.36385" lon="7.43197">
        <ele>253.7</ele>
        <time>2019-08-09T11:01:27Z</time>
      </trkpt>
      <trkpt lat="48.36384" lon="7.43207">
        <ele>253.5</ele>
        <time>2019-08-09T11:01:28Z</time>
      </trkpt>
      <trkpt lat="48.36384" lon="7.43216">
        <ele>253.2</ele>
        <time>2019-08-09T11:01:29Z</time>
      </trkpt>
      <trkpt lat="48.36383" lon="7.43225">
        <ele>252.9</ele>
        <time>2019-08-09T11:01:30Z</time>
      </trkpt>
      <trkpt lat="48.36383" lon="7.43234">
        <ele>252.6</ele>
        <time>2019-08-09T11:01:31Z</time>
      </trkpt>
      <trkpt lat="48.36383" lon="7.43243">
        <ele>252.2</ele>
        <time>2019-08-09T11:01:32Z</time>
      </trkpt>
      <trkpt lat="48.36383" lon="7.43252">
        <ele>251.8</ele>
        <time>2019-08-09T11:01:33Z</time>
      </trkpt>
      <trkpt lat="48.36382" lon="7.43261">
        <ele>251.5</ele>
        <time>2019-08-09T11:01:34Z</time>
      </trkpt>
      <trkpt lat="48.36382" lon="7.43271">
        <ele>251.3</ele>
        <time>2019-08-09T11:01:35Z</time>
      </trkpt>
      <trkpt lat="48.36382" lon="7.43281">
        <ele>251.1</ele>
        <time>2019-08-09T11:01:36Z</time>
      </trkpt>
      <trkpt lat="48.36382" lon="7.4329">
        <ele>250.9</ele>
        <time>2019-08-09T11:01:37Z</time>
      </trkpt>
      <trkpt lat="48.36382" lon="7.43299">
        <ele>250.7</ele>
        <time>2019-08-09T11:01:38Z</time>
      </trkpt>
      <trkpt lat="48.36382" lon="7.43308">
        <ele>250.4</ele>
        <time>2019-08-09T11:01:39Z</time>
      </trkpt>
      <trkpt lat="48.36383" lon="7.43316">
        <ele>250.2</ele>
        <time>2019-08-09T11:01:40Z</time>
      </trkpt>
      <trkpt lat="48.36383" lon="7.43323">
        <ele>249.9</ele>
        <time>2019-08-09T11:01:41Z</time>
      </trkpt>
      <trkpt lat="48.36382" lon="7.43329">
        <ele>249.9</ele>
        <time>2019-08-09T11:01:42Z</time>
      </trkpt>
      <trkpt lat="48.36377" lon="7.43327">
        <ele>249.5</ele>
        <time>2019-08-09T11:01:44Z</time>
      </trkpt>
      <trkpt lat="48.36374" lon="7.43322">
        <ele>249.2</ele>
        <time>2019-08-09T11:01:45Z</time>
      </trkpt>
      <trkpt lat="48.3637" lon="7.43315">
        <ele>248.8</ele>
        <time>2019-08-09T11:01:46Z</time>
      </trkpt>
      <trkpt lat="48.36366" lon="7.43305">
        <ele>248.5</ele>
        <time>2019-08-09T11:01:47Z</time>
      </trkpt>
      <trkpt lat="48.36363" lon="7.43293">
        <ele>248.2</ele>
        <time>2019-08-09T11:01:48Z</time>
      </trkpt>
      <trkpt lat="48.3636" lon="7.43281">
        <ele>247.9</ele>
        <time>2019-08-09T11:01:49Z</time>
      </trkpt>
      <trkpt lat="48.36357" lon="7.43272">
        <ele>247.7</ele>
        <time>2019-08-09T11:01:50Z</time>
      </trkpt>
      <trkpt lat="48.36354" lon="7.43263">
        <ele>247.5</ele>
        <time>2019-08-09T11:01:51Z</time>
      </trkpt>
      <trkpt lat="48.3635" lon="7.43255">
        <ele>247.3</ele>
        <time>2019-08-09T11:01:52Z</time>
      </trkpt>
      <trkpt lat="48.36348" lon="7.43246">
        <ele>247.1</ele>
        <time>2019-08-09T11:01:53Z</time>
      </trkpt>
      <trkpt lat="48.36345" lon="7.43239">
        <ele>246.9</ele>
        <time>2019-08-09T11:01:54Z</time>
      </trkpt>
      <trkpt lat="48.36342" lon="7.4323">
        <ele>246.7</ele>
        <time>2019-08-09T11:01:55Z</time>
      </trkpt>
      <trkpt lat="48.3634" lon="7.43222">
        <ele>246.6</ele>
        <time>2019-08-09T11:01:56Z</time>
      </trkpt>
      <trkpt lat="48.36338" lon="7.43213">
        <ele>246.4</ele>
        <time>2019-08-09T11:01:57Z</time>
      </trkpt>
      <trkpt lat="48.36336" lon="7.43205">
        <ele>246.3</ele>
        <time>2019-08-09T11:01:58Z</time>
      </trkpt>
      <trkpt lat="48.36334" lon="7.43197">
        <ele>246.1</ele>
        <time>2019-08-09T11:01:59Z</time>
      </trkpt>
      <trkpt lat="48.36333" lon="7.43189">
        <ele>245.9</ele>
        <time>2019-08-09T11:02:00Z</time>
      </trkpt>
      <trkpt lat="48.36331" lon="7.43181">
        <ele>245.7</ele>
        <time>2019-08-09T11:02:01Z</time>
      </trkpt>
      <trkpt lat="48.3633" lon="7.43173">
        <ele>245.5</ele>
        <time>2019-08-09T11:02:02Z</time>
      </trkpt>
      <trkpt lat="48.36327" lon="7.43165">
        <ele>245.3</ele>
        <time>2019-08-09T11:02:03Z</time>
      </trkpt>
      <trkpt lat="48.36326" lon="7.43158">
        <ele>245</ele>
        <time>2019-08-09T11:02:04Z</time>
      </trkpt>
      <trkpt lat="48.36324" lon="7.4315">
        <ele>244.8</ele>
        <time>2019-08-09T11:02:05Z</time>
      </trkpt>
      <trkpt lat="48.36322" lon="7.43141">
        <ele>244.4</ele>
        <time>2019-08-09T11:02:06Z</time>
      </trkpt>
      <trkpt lat="48.36321" lon="7.43132">
        <ele>244.1</ele>
        <time>2019-08-09T11:02:07Z</time>
      </trkpt>
      <trkpt lat="48.36318" lon="7.43122">
        <ele>243.7</ele>
        <time>2019-08-09T11:02:08Z</time>
      </trkpt>
      <trkpt lat="48.36315" lon="7.4311">
        <ele>243.4</ele>
        <time>2019-08-09T11:02:09Z</time>
      </trkpt>
      <trkpt lat="48.36313" lon="7.43098">
        <ele>243.1</ele>
        <time>2019-08-09T11:02:10Z</time>
      </trkpt>
      <trkpt lat="48.36311" lon="7.43088">
        <ele>243</ele>
        <time>2019-08-09T11:02:11Z</time>
      </trkpt>
      <trkpt lat="48.36308" lon="7.43076">
        <ele>242.6</ele>
        <time>2019-08-09T11:02:12Z</time>
      </trkpt>
      <trkpt lat="48.36305" lon="7.43065">
        <ele>241.9</ele>
        <time>2019-08-09T11:02:13Z</time>
      </trkpt>
      <trkpt lat="48.36302" lon="7.43056">
        <ele>241.2</ele>
        <time>2019-08-09T11:02:14Z</time>
      </trkpt>
      <trkpt lat="48.363" lon="7.43048">
        <ele>240.7</ele>
        <time>2019-08-09T11:02:15Z</time>
      </trkpt>
      <trkpt lat="48.36297" lon="7.43039">
        <ele>240.1</ele>
        <time>2019-08-09T11:02:16Z</time>
      </trkpt>
      <trkpt lat="48.36293" lon="7.43032">
        <ele>239.5</ele>
        <time>2019-08-09T11:02:17Z</time>
      </trkpt>
      <trkpt lat="48.36286" lon="7.43026">
        <ele>238.7</ele>
        <time>2019-08-09T11:02:18Z</time>
      </trkpt>
      <trkpt lat="48.36278" lon="7.43022">
        <ele>238</ele>
        <time>2019-08-09T11:02:19Z</time>
      </trkpt>
      <trkpt lat="48.3627" lon="7.4302">
        <ele>237.2</ele>
        <time>2019-08-09T11:02:20Z</time>
      </trkpt>
      <trkpt lat="48.36262" lon="7.43019">
        <ele>235.9</ele>
        <time>2019-08-09T11:02:21Z</time>
      </trkpt>
      <trkpt lat="48.36253" lon="7.4302">
        <ele>234.7</ele>
        <time>2019-08-09T11:02:22Z</time>
      </trkpt>
      <trkpt lat="48.36245" lon="7.43022">
        <ele>233.5</ele>
        <time>2019-08-09T11:02:23Z</time>
      </trkpt>
      <trkpt lat="48.36237" lon="7.43024">
        <ele>232.3</ele>
        <time>2019-08-09T11:02:24Z</time>
      </trkpt>
      <trkpt lat="48.36228" lon="7.43027">
        <ele>231.1</ele>
        <time>2019-08-09T11:02:25Z</time>
      </trkpt>
      <trkpt lat="48.3622" lon="7.4303">
        <ele>229.9</ele>
        <time>2019-08-09T11:02:26Z</time>
      </trkpt>
      <trkpt lat="48.36212" lon="7.43032">
        <ele>228.7</ele>
        <time>2019-08-09T11:02:27Z</time>
      </trkpt>
      <trkpt lat="48.36203" lon="7.43033">
        <ele>227.5</ele>
        <time>2019-08-09T11:02:28Z</time>
      </trkpt>
      <trkpt lat="48.36194" lon="7.43034">
        <ele>226.3</ele>
        <time>2019-08-09T11:02:29Z</time>
      </trkpt>
      <trkpt lat="48.36186" lon="7.43036">
        <ele>225.2</ele>
        <time>2019-08-09T11:02:30Z</time>
      </trkpt>
      <trkpt lat="48.36177" lon="7.43037">
        <ele>224</ele>
        <time>2019-08-09T11:02:31Z</time>
      </trkpt>
      <trkpt lat="48.36169" lon="7.43037">
        <ele>223</ele>
        <time>2019-08-09T11:02:32Z</time>
      </trkpt>
      <trkpt lat="48.3616" lon="7.43037">
        <ele>222</ele>
        <time>2019-08-09T11:02:33Z</time>
      </trkpt>
      <trkpt lat="48.36152" lon="7.43035">
        <ele>221</ele>
        <time>2019-08-09T11:02:34Z</time>
      </trkpt>
      <trkpt lat="48.36144" lon="7.43031">
        <ele>220.5</ele>
        <time>2019-08-09T11:02:35Z</time>
      </trkpt>
      <trkpt lat="48.36137" lon="7.43025">
        <ele>220.4</ele>
        <time>2019-08-09T11:02:36Z</time>
      </trkpt>
      <trkpt lat="48.36131" lon="7.43017">
        <ele>220.3</ele>
        <time>2019-08-09T11:02:37Z</time>
      </trkpt>
      <trkpt lat="48.36125" lon="7.43007">
        <ele>220.2</ele>
        <time>2019-08-09T11:02:38Z</time>
      </trkpt>
      <trkpt lat="48.3612" lon="7.42997">
        <ele>220.2</ele>
        <time>2019-08-09T11:02:39Z</time>
      </trkpt>
      <trkpt lat="48.36116" lon="7.42987">
        <ele>220.1</ele>
        <time>2019-08-09T11:02:40Z</time>
      </trkpt>
      <trkpt lat="48.36112" lon="7.42976">
        <ele>220.1</ele>
        <time>2019-08-09T11:02:41Z</time>
      </trkpt>
      <trkpt lat="48.36108" lon="7.42965">
        <ele>220.1</ele>
        <time>2019-08-09T11:02:42Z</time>
      </trkpt>
      <trkpt lat="48.36105" lon="7.42955">
        <ele>220.1</ele>
        <time>2019-08-09T11:02:43Z</time>
      </trkpt>
      <trkpt lat="48.36102" lon="7.42945">
        <ele>220</ele>
        <time>2019-08-09T11:02:44Z</time>
      </trkpt>
      <trkpt lat="48.36097" lon="7.42936">
        <ele>219.9</ele>
        <time>2019-08-09T11:02:45Z</time>
      </trkpt>
      <trkpt lat="48.36092" lon="7.42928">
        <ele>219.8</ele>
        <time>2019-08-09T11:02:46Z</time>
      </trkpt>
      <trkpt lat="48.36086" lon="7.42921">
        <ele>219.6</ele>
        <time>2019-08-09T11:02:47Z</time>
      </trkpt>
      <trkpt lat="48.3608" lon="7.42914">
        <ele>219.5</ele>
        <time>2019-08-09T11:02:48Z</time>
      </trkpt>
      <trkpt lat="48.36074" lon="7.4291">
        <ele>219.3</ele>
        <time>2019-08-09T11:02:49Z</time>
      </trkpt>
      <trkpt lat="48.36067" lon="7.42906">
        <ele>219.1</ele>
        <time>2019-08-09T11:02:50Z</time>
      </trkpt>
      <trkpt lat="48.36061" lon="7.42904">
        <ele>219</ele>
        <time>2019-08-09T11:02:51Z</time>
      </trkpt>
      <trkpt lat="48.36056" lon="7.42902">
        <ele>218.8</ele>
        <time>2019-08-09T11:02:52Z</time>
      </trkpt>
      <trkpt lat="48.36051" lon="7.42901">
        <ele>218.6</ele>
        <time>2019-08-09T11:02:53Z</time>
      </trkpt>
      <trkpt lat="48.36046" lon="7.429">
        <ele>218.5</ele>
        <time>2019-08-09T11:02:54Z</time>
      </trkpt>
      <trkpt lat="48.36041" lon="7.429">
        <ele>218.3</ele>
        <time>2019-08-09T11:02:55Z</time>
      </trkpt>
      <trkpt lat="48.36036" lon="7.42899">
        <ele>218.2</ele>
        <time>2019-08-09T11:02:56Z</time>
      </trkpt>
      <trkpt lat="48.36031" lon="7.42897">
        <ele>218.1</ele>
        <time>2019-08-09T11:02:57Z</time>
      </trkpt>
      <trkpt lat="48.36026" lon="7.42896">
        <ele>218</ele>
        <time>2019-08-09T11:02:58Z</time>
      </trkpt>
      <trkpt lat="48.36022" lon="7.42894">
        <ele>217.9</ele>
        <time>2019-08-09T11:02:59Z</time>
      </trkpt>
      <trkpt lat="48.36017" lon="7.42891">
        <ele>217.8</ele>
        <time>2019-08-09T11:03:00Z</time>
      </trkpt>
      <trkpt lat="48.36013" lon="7.42888">
        <ele>217.8</ele>
        <time>2019-08-09T11:03:01Z</time>
      </trkpt>
      <trkpt lat="48.36009" lon="7.42886">
        <ele>217.7</ele>
        <time>2019-08-09T11:03:02Z</time>
      </trkpt>
      <trkpt lat="48.36006" lon="7.42881">
        <ele>217.7</ele>
        <time>2019-08-09T11:03:03Z</time>
      </trkpt>
      <trkpt lat="48.36002" lon="7.42877">
        <ele>217.7</ele>
        <time>2019-08-09T11:03:04Z</time>
      </trkpt>
      <trkpt lat="48.35998" lon="7.42872">
        <ele>217.6</ele>
        <time>2019-08-09T11:03:05Z</time>
      </trkpt>
      <trkpt lat="48.35995" lon="7.42866">
        <ele>217.6</ele>
        <time>2019-08-09T11:03:06Z</time>
      </trkpt>
      <trkpt lat="48.35991" lon="7.4286">
        <ele>217.6</ele>
        <time>2019-08-09T11:03:07Z</time>
      </trkpt>
      <trkpt lat="48.35988" lon="7.42854">
        <ele>217.6</ele>
        <time>2019-08-09T11:03:08Z</time>
      </trkpt>
      <trkpt lat="48.35985" lon="7.42848">
        <ele>217.6</ele>
        <time>2019-08-09T11:03:09Z</time>
      </trkpt>
      <trkpt lat="48.35983" lon="7.42841">
        <ele>217.6</ele>
        <time>2019-08-09T11:03:10Z</time>
      </trkpt>
      <trkpt lat="48.3598" lon="7.42835">
        <ele>217.5</ele>
        <time>2019-08-09T11:03:11Z</time>
      </trkpt>
      <trkpt lat="48.35978" lon="7.42828">
        <ele>217.5</ele>
        <time>2019-08-09T11:03:12Z</time>
      </trkpt>
      <trkpt lat="48.35977" lon="7.4282">
        <ele>217.5</ele>
        <time>2019-08-09T11:03:13Z</time>
      </trkpt>
      <trkpt lat="48.35974" lon="7.42814">
        <ele>217.5</ele>
        <time>2019-08-09T11:03:14Z</time>
      </trkpt>
      <trkpt lat="48.35973" lon="7.42807">
        <ele>217.5</ele>
        <time>2019-08-09T11:03:15Z</time>
      </trkpt>
      <trkpt lat="48.35971" lon="7.428">
        <ele>217.5</ele>
        <time>2019-08-09T11:03:16Z</time>
      </trkpt>
      <trkpt lat="48.3597" lon="7.42793">
        <ele>217.5</ele>
        <time>2019-08-09T11:03:17Z</time>
      </trkpt>
      <trkpt lat="48.35969" lon="7.42786">
        <ele>217.5</ele>
        <time>2019-08-09T11:03:18Z</time>
      </trkpt>
      <trkpt lat="48.35969" lon="7.42778">
        <ele>217.5</ele>
        <time>2019-08-09T11:03:19Z</time>
      </trkpt>
      <trkpt lat="48.35968" lon="7.42771">
        <ele>217.5</ele>
        <time>2019-08-09T11:03:20Z</time>
      </trkpt>
      <trkpt lat="48.35967" lon="7.42764">
        <ele>217.6</ele>
        <time>2019-08-09T11:03:21Z</time>
      </trkpt>
      <trkpt lat="48.35965" lon="7.42757">
        <ele>217.6</ele>
        <time>2019-08-09T11:03:22Z</time>
      </trkpt>
      <trkpt lat="48.35964" lon="7.4275">
        <ele>217.6</ele>
        <time>2019-08-09T11:03:23Z</time>
      </trkpt>
      <trkpt lat="48.35962" lon="7.42743">
        <ele>217.7</ele>
        <time>2019-08-09T11:03:24Z</time>
      </trkpt>
      <trkpt lat="48.3596" lon="7.42735">
        <ele>217.7</ele>
        <time>2019-08-09T11:03:25Z</time>
      </trkpt>
      <trkpt lat="48.35957" lon="7.42727">
        <ele>217.7</ele>
        <time>2019-08-09T11:03:26Z</time>
      </trkpt>
      <trkpt lat="48.35955" lon="7.4272">
        <ele>217.8</ele>
        <time>2019-08-09T11:03:27Z</time>
      </trkpt>
      <trkpt lat="48.35952" lon="7.42712">
        <ele>217.8</ele>
        <time>2019-08-09T11:03:28Z</time>
      </trkpt>
      <trkpt lat="48.3595" lon="7.42706">
        <ele>217.9</ele>
        <time>2019-08-09T11:03:29Z</time>
      </trkpt>
      <trkpt lat="48.35947" lon="7.42699">
        <ele>217.9</ele>
        <time>2019-08-09T11:03:30Z</time>
      </trkpt>
      <trkpt lat="48.35944" lon="7.42693">
        <ele>218</ele>
        <time>2019-08-09T11:03:31Z</time>
      </trkpt>
      <trkpt lat="48.35941" lon="7.42686">
        <ele>218.1</ele>
        <time>2019-08-09T11:03:32Z</time>
      </trkpt>
      <trkpt lat="48.35939" lon="7.42679">
        <ele>218.2</ele>
        <time>2019-08-09T11:03:33Z</time>
      </trkpt>
      <trkpt lat="48.35936" lon="7.42673">
        <ele>218.2</ele>
        <time>2019-08-09T11:03:34Z</time>
      </trkpt>
      <trkpt lat="48.35933" lon="7.42667">
        <ele>218.3</ele>
        <time>2019-08-09T11:03:35Z</time>
      </trkpt>
      <trkpt lat="48.35931" lon="7.42662">
        <ele>218.4</ele>
        <time>2019-08-09T11:03:36Z</time>
      </trkpt>
      <trkpt lat="48.35928" lon="7.42656">
        <ele>218.6</ele>
        <time>2019-08-09T11:03:37Z</time>
      </trkpt>
      <trkpt lat="48.35926" lon="7.4265">
        <ele>218.7</ele>
        <time>2019-08-09T11:03:38Z</time>
      </trkpt>
      <trkpt lat="48.35923" lon="7.42646">
        <ele>218.8</ele>
        <time>2019-08-09T11:03:39Z</time>
      </trkpt>
      <trkpt lat="48.35921" lon="7.42641">
        <ele>218.8</ele>
        <time>2019-08-09T11:03:40Z</time>
      </trkpt>
      <trkpt lat="48.35918" lon="7.42637">
        <ele>218.9</ele>
        <time>2019-08-09T11:03:41Z</time>
      </trkpt>
      <trkpt lat="48.35915" lon="7.42632">
        <ele>219</ele>
        <time>2019-08-09T11:03:42Z</time>
      </trkpt>
      <trkpt lat="48.35912" lon="7.42627">
        <ele>219.1</ele>
        <time>2019-08-09T11:03:43Z</time>
      </trkpt>
      <trkpt lat="48.35909" lon="7.42624">
        <ele>219.1</ele>
        <time>2019-08-09T11:03:44Z</time>
      </trkpt>
      <trkpt lat="48.35906" lon="7.4262">
        <ele>219.2</ele>
        <time>2019-08-09T11:03:45Z</time>
      </trkpt>
      <trkpt lat="48.35902" lon="7.42615">
        <ele>219.2</ele>
        <time>2019-08-09T11:03:46Z</time>
      </trkpt>
      <trkpt lat="48.35898" lon="7.42612">
        <ele>219.3</ele>
        <time>2019-08-09T11:03:47Z</time>
      </trkpt>
      <trkpt lat="48.35894" lon="7.42609">
        <ele>219.3</ele>
        <time>2019-08-09T11:03:48Z</time>
      </trkpt>
      <trkpt lat="48.3589" lon="7.42606">
        <ele>219.3</ele>
        <time>2019-08-09T11:03:49Z</time>
      </trkpt>
      <trkpt lat="48.35884" lon="7.42604">
        <ele>219.3</ele>
        <time>2019-08-09T11:03:50Z</time>
      </trkpt>
      <trkpt lat="48.3588" lon="7.42602">
        <ele>219.3</ele>
        <time>2019-08-09T11:03:51Z</time>
      </trkpt>
      <trkpt lat="48.35876" lon="7.42599">
        <ele>219.3</ele>
        <time>2019-08-09T11:03:52Z</time>
      </trkpt>
      <trkpt lat="48.35872" lon="7.42597">
        <ele>219.3</ele>
        <time>2019-08-09T11:03:53Z</time>
      </trkpt>
      <trkpt lat="48.35869" lon="7.42596">
        <ele>219.3</ele>
        <time>2019-08-09T11:03:54Z</time>
      </trkpt>
      <trkpt lat="48.35866" lon="7.42595">
        <ele>219.3</ele>
        <time>2019-08-09T11:03:55Z</time>
      </trkpt>
      <trkpt lat="48.35862" lon="7.42593">
        <ele>219.3</ele>
        <time>2019-08-09T11:03:56Z</time>
      </trkpt>
      <trkpt lat="48.35859" lon="7.42592">
        <ele>219.3</ele>
        <time>2019-08-09T11:03:57Z</time>
      </trkpt>
      <trkpt lat="48.35855" lon="7.42591">
        <ele>219.3</ele>
        <time>2019-08-09T11:03:58Z</time>
      </trkpt>
      <trkpt lat="48.35851" lon="7.42589">
        <ele>219.3</ele>
        <time>2019-08-09T11:03:59Z</time>
      </trkpt>
      <trkpt lat="48.35846" lon="7.42587">
        <ele>219.3</ele>
        <time>2019-08-09T11:04:00Z</time>
      </trkpt>
      <trkpt lat="48.35843" lon="7.42586">
        <ele>219.3</ele>
        <time>2019-08-09T11:04:01Z</time>
      </trkpt>
      <trkpt lat="48.35839" lon="7.42584">
        <ele>219.3</ele>
        <time>2019-08-09T11:04:02Z</time>
      </trkpt>
      <trkpt lat="48.35836" lon="7.42582">
        <ele>219.3</ele>
        <time>2019-08-09T11:04:03Z</time>
      </trkpt>
      <trkpt lat="48.35831" lon="7.42581">
        <ele>219.3</ele>
        <time>2019-08-09T11:04:04Z</time>
      </trkpt>
      <trkpt lat="48.35828" lon="7.42579">
        <ele>219.3</ele>
        <time>2019-08-09T11:04:05Z</time>
      </trkpt>
      <trkpt lat="48.35824" lon="7.42578">
        <ele>219.3</ele>
        <time>2019-08-09T11:04:06Z</time>
      </trkpt>
      <trkpt lat="48.3582" lon="7.42576">
        <ele>219.3</ele>
        <time>2019-08-09T11:04:07Z</time>
      </trkpt>
      <trkpt lat="48.35817" lon="7.42575">
        <ele>219.3</ele>
        <time>2019-08-09T11:04:08Z</time>
      </trkpt>
      <trkpt lat="48.35813" lon="7.42573">
        <ele>219.3</ele>
        <time>2019-08-09T11:04:09Z</time>
      </trkpt>
      <trkpt lat="48.35809" lon="7.42571">
        <ele>219.3</ele>
        <time>2019-08-09T11:04:10Z</time>
      </trkpt>
      <trkpt lat="48.35804" lon="7.42569">
        <ele>219.3</ele>
        <time>2019-08-09T11:04:11Z</time>
      </trkpt>
      <trkpt lat="48.35801" lon="7.42568">
        <ele>219.3</ele>
        <time>2019-08-09T11:04:12Z</time>
      </trkpt>
      <trkpt lat="48.35798" lon="7.42567">
        <ele>219.3</ele>
        <time>2019-08-09T11:04:13Z</time>
      </trkpt>
      <trkpt lat="48.35795" lon="7.42565">
        <ele>219.3</ele>
        <time>2019-08-09T11:04:14Z</time>
      </trkpt>
      <trkpt lat="48.35789" lon="7.42565">
        <ele>219.3</ele>
        <time>2019-08-09T11:04:15Z</time>
      </trkpt>
      <trkpt lat="48.35785" lon="7.42564">
        <ele>219.3</ele>
        <time>2019-08-09T11:04:16Z</time>
      </trkpt>
      <trkpt lat="48.3578" lon="7.42563">
        <ele>219.2</ele>
        <time>2019-08-09T11:04:17Z</time>
      </trkpt>
      <trkpt lat="48.35777" lon="7.42562">
        <ele>219.2</ele>
        <time>2019-08-09T11:04:18Z</time>
      </trkpt>
      <trkpt lat="48.35772" lon="7.42561">
        <ele>219.2</ele>
        <time>2019-08-09T11:04:19Z</time>
      </trkpt>
      <trkpt lat="48.35768" lon="7.42559">
        <ele>219.2</ele>
        <time>2019-08-09T11:04:20Z</time>
      </trkpt>
      <trkpt lat="48.35763" lon="7.42557">
        <ele>219.2</ele>
        <time>2019-08-09T11:04:21Z</time>
      </trkpt>
      <trkpt lat="48.35759" lon="7.42556">
        <ele>219.2</ele>
        <time>2019-08-09T11:04:22Z</time>
      </trkpt>
      <trkpt lat="48.35755" lon="7.42555">
        <ele>219.2</ele>
        <time>2019-08-09T11:04:23Z</time>
      </trkpt>
      <trkpt lat="48.3575" lon="7.42553">
        <ele>219.2</ele>
        <time>2019-08-09T11:04:24Z</time>
      </trkpt>
      <trkpt lat="48.35745" lon="7.42553">
        <ele>219.2</ele>
        <time>2019-08-09T11:04:25Z</time>
      </trkpt>
      <trkpt lat="48.35742" lon="7.42552">
        <ele>219.2</ele>
        <time>2019-08-09T11:04:26Z</time>
      </trkpt>
      <trkpt lat="48.35738" lon="7.42551">
        <ele>219.2</ele>
        <time>2019-08-09T11:04:27Z</time>
      </trkpt>
      <trkpt lat="48.35734" lon="7.42551">
        <ele>219.2</ele>
        <time>2019-08-09T11:04:28Z</time>
      </trkpt>
      <trkpt lat="48.3573" lon="7.42549">
        <ele>219.2</ele>
        <time>2019-08-09T11:04:29Z</time>
      </trkpt>
      <trkpt lat="48.35726" lon="7.42549">
        <ele>219.2</ele>
        <time>2019-08-09T11:04:30Z</time>
      </trkpt>
      <trkpt lat="48.35721" lon="7.42548">
        <ele>219.2</ele>
        <time>2019-08-09T11:04:31Z</time>
      </trkpt>
      <trkpt lat="48.35717" lon="7.42546">
        <ele>219.2</ele>
        <time>2019-08-09T11:04:32Z</time>
      </trkpt>
      <trkpt lat="48.35713" lon="7.42545">
        <ele>219.2</ele>
        <time>2019-08-09T11:04:33Z</time>
      </trkpt>
      <trkpt lat="48.35709" lon="7.42543">
        <ele>219.2</ele>
        <time>2019-08-09T11:04:34Z</time>
      </trkpt>
      <trkpt lat="48.35705" lon="7.42541">
        <ele>219.2</ele>
        <time>2019-08-09T11:04:35Z</time>
      </trkpt>
      <trkpt lat="48.35701" lon="7.4254">
        <ele>219.1</ele>
        <time>2019-08-09T11:04:36Z</time>
      </trkpt>
      <trkpt lat="48.35697" lon="7.42539">
        <ele>219.1</ele>
        <time>2019-08-09T11:04:37Z</time>
      </trkpt>
      <trkpt lat="48.35692" lon="7.42539">
        <ele>219</ele>
        <time>2019-08-09T11:04:38Z</time>
      </trkpt>
      <trkpt lat="48.35687" lon="7.42538">
        <ele>218.9</ele>
        <time>2019-08-09T11:04:39Z</time>
      </trkpt>
      <trkpt lat="48.35682" lon="7.42537">
        <ele>218.9</ele>
        <time>2019-08-09T11:04:40Z</time>
      </trkpt>
      <trkpt lat="48.35677" lon="7.42537">
        <ele>218.8</ele>
        <time>2019-08-09T11:04:41Z</time>
      </trkpt>
      <trkpt lat="48.35673" lon="7.42536">
        <ele>218.8</ele>
        <time>2019-08-09T11:04:42Z</time>
      </trkpt>
      <trkpt lat="48.35668" lon="7.42535">
        <ele>218.8</ele>
        <time>2019-08-09T11:04:43Z</time>
      </trkpt>
      <trkpt lat="48.35664" lon="7.42533">
        <ele>218.7</ele>
        <time>2019-08-09T11:04:44Z</time>
      </trkpt>
      <trkpt lat="48.3566" lon="7.42531">
        <ele>218.7</ele>
        <time>2019-08-09T11:04:45Z</time>
      </trkpt>
      <trkpt lat="48.35655" lon="7.4253">
        <ele>218.7</ele>
        <time>2019-08-09T11:04:46Z</time>
      </trkpt>
      <trkpt lat="48.35651" lon="7.42529">
        <ele>218.7</ele>
        <time>2019-08-09T11:04:47Z</time>
      </trkpt>
      <trkpt lat="48.35646" lon="7.42529">
        <ele>218.7</ele>
        <time>2019-08-09T11:04:48Z</time>
      </trkpt>
      <trkpt lat="48.35642" lon="7.42528">
        <ele>218.7</ele>
        <time>2019-08-09T11:04:49Z</time>
      </trkpt>
      <trkpt lat="48.35639" lon="7.42528">
        <ele>218.7</ele>
        <time>2019-08-09T11:04:50Z</time>
      </trkpt>
      <trkpt lat="48.35635" lon="7.42525">
        <ele>218.7</ele>
        <time>2019-08-09T11:04:51Z</time>
      </trkpt>
      <trkpt lat="48.35629" lon="7.42525">
        <ele>218.8</ele>
        <time>2019-08-09T11:04:52Z</time>
      </trkpt>
      <trkpt lat="48.35624" lon="7.42523">
        <ele>218.9</ele>
        <time>2019-08-09T11:04:53Z</time>
      </trkpt>
      <trkpt lat="48.3562" lon="7.42521">
        <ele>219</ele>
        <time>2019-08-09T11:04:54Z</time>
      </trkpt>
      <trkpt lat="48.35616" lon="7.42518">
        <ele>219</ele>
        <time>2019-08-09T11:04:55Z</time>
      </trkpt>
      <trkpt lat="48.35611" lon="7.42516">
        <ele>219.1</ele>
        <time>2019-08-09T11:04:56Z</time>
      </trkpt>
      <trkpt lat="48.35607" lon="7.42514">
        <ele>219.2</ele>
        <time>2019-08-09T11:04:57Z</time>
      </trkpt>
      <trkpt lat="48.35603" lon="7.42512">
        <ele>219.2</ele>
        <time>2019-08-09T11:04:58Z</time>
      </trkpt>
      <trkpt lat="48.35598" lon="7.42511">
        <ele>219.2</ele>
        <time>2019-08-09T11:04:59Z</time>
      </trkpt>
      <trkpt lat="48.35595" lon="7.4251">
        <ele>219.3</ele>
        <time>2019-08-09T11:05:00Z</time>
      </trkpt>
      <trkpt lat="48.35591" lon="7.42508">
        <ele>219.3</ele>
        <time>2019-08-09T11:05:01Z</time>
      </trkpt>
      <trkpt lat="48.35588" lon="7.42506">
        <ele>219.3</ele>
        <time>2019-08-09T11:05:02Z</time>
      </trkpt>
      <trkpt lat="48.35585" lon="7.42505">
        <ele>219.3</ele>
        <time>2019-08-09T11:05:03Z</time>
      </trkpt>
      <trkpt lat="48.35582" lon="7.42504">
        <ele>219.3</ele>
        <time>2019-08-09T11:05:04Z</time>
      </trkpt>
      <trkpt lat="48.35579" lon="7.42503">
        <ele>219.3</ele>
        <time>2019-08-09T11:05:05Z</time>
      </trkpt>
      <trkpt lat="48.35576" lon="7.42503">
        <ele>219.3</ele>
        <time>2019-08-09T11:05:06Z</time>
      </trkpt>
      <trkpt lat="48.35572" lon="7.42502">
        <ele>219.3</ele>
        <time>2019-08-09T11:05:07Z</time>
      </trkpt>
      <trkpt lat="48.35569" lon="7.425">
        <ele>219.3</ele>
        <time>2019-08-09T11:05:08Z</time>
      </trkpt>
      <trkpt lat="48.35565" lon="7.42498">
        <ele>219.3</ele>
        <time>2019-08-09T11:05:09Z</time>
      </trkpt>
      <trkpt lat="48.35561" lon="7.42496">
        <ele>219.3</ele>
        <time>2019-08-09T11:05:10Z</time>
      </trkpt>
      <trkpt lat="48.35558" lon="7.42496">
        <ele>219.3</ele>
        <time>2019-08-09T11:05:11Z</time>
      </trkpt>
      <trkpt lat="48.35554" lon="7.42494">
        <ele>219.3</ele>
        <time>2019-08-09T11:05:12Z</time>
      </trkpt>
      <trkpt lat="48.35551" lon="7.42491">
        <ele>219.3</ele>
        <time>2019-08-09T11:05:13Z</time>
      </trkpt>
      <trkpt lat="48.35548" lon="7.42488">
        <ele>219.3</ele>
        <time>2019-08-09T11:05:14Z</time>
      </trkpt>
      <trkpt lat="48.35546" lon="7.42486">
        <ele>219.3</ele>
        <time>2019-08-09T11:05:16Z</time>
      </trkpt>
      <trkpt lat="48.35543" lon="7.42487">
        <ele>219.2</ele>
        <time>2019-08-09T11:05:19Z</time>
      </trkpt>
      <trkpt lat="48.35541" lon="7.42491">
        <ele>219.2</ele>
        <time>2019-08-09T11:05:23Z</time>
      </trkpt>
      <trkpt lat="48.35538" lon="7.42489">
        <ele>219.1</ele>
        <time>2019-08-09T11:05:25Z</time>
      </trkpt>
      <trkpt lat="48.35535" lon="7.42489">
        <ele>219</ele>
        <time>2019-08-09T11:05:28Z</time>
      </trkpt>
      <trkpt lat="48.35532" lon="7.42488">
        <ele>218.9</ele>
        <time>2019-08-09T11:05:47Z</time>
      </trkpt>
      <trkpt lat="48.35528" lon="7.42488">
        <ele>218.8</ele>
        <time>2019-08-09T11:05:49Z</time>
      </trkpt>
      <trkpt lat="48.35522" lon="7.42487">
        <ele>218.7</ele>
        <time>2019-08-09T11:05:51Z</time>
      </trkpt>
      <trkpt lat="48.35519" lon="7.42486">
        <ele>218.6</ele>
        <time>2019-08-09T11:05:52Z</time>
      </trkpt>
      <trkpt lat="48.35514" lon="7.42483">
        <ele>218.4</ele>
        <time>2019-08-09T11:05:54Z</time>
      </trkpt>
      <trkpt lat="48.35511" lon="7.42481">
        <ele>218.3</ele>
        <time>2019-08-09T11:05:55Z</time>
      </trkpt>
      <trkpt lat="48.35508" lon="7.42478">
        <ele>218.2</ele>
        <time>2019-08-09T11:05:56Z</time>
      </trkpt>
      <trkpt lat="48.35504" lon="7.42475">
        <ele>218</ele>
        <time>2019-08-09T11:05:57Z</time>
      </trkpt>
      <trkpt lat="48.355" lon="7.42473">
        <ele>217.9</ele>
        <time>2019-08-09T11:05:58Z</time>
      </trkpt>
      <trkpt lat="48.35496" lon="7.42471">
        <ele>217.7</ele>
        <time>2019-08-09T11:05:59Z</time>
      </trkpt>
      <trkpt lat="48.35492" lon="7.42469">
        <ele>217.6</ele>
        <time>2019-08-09T11:06:00Z</time>
      </trkpt>
      <trkpt lat="48.35488" lon="7.42466">
        <ele>217.4</ele>
        <time>2019-08-09T11:06:01Z</time>
      </trkpt>
      <trkpt lat="48.35483" lon="7.42462">
        <ele>217.2</ele>
        <time>2019-08-09T11:06:02Z</time>
      </trkpt>
      <trkpt lat="48.35479" lon="7.42458">
        <ele>216.9</ele>
        <time>2019-08-09T11:06:03Z</time>
      </trkpt>
      <trkpt lat="48.35473" lon="7.42455">
        <ele>216.7</ele>
        <time>2019-08-09T11:06:04Z</time>
      </trkpt>
      <trkpt lat="48.35467" lon="7.42451">
        <ele>216.4</ele>
        <time>2019-08-09T11:06:05Z</time>
      </trkpt>
      <trkpt lat="48.3546" lon="7.42448">
        <ele>216</ele>
        <time>2019-08-09T11:06:06Z</time>
      </trkpt>
      <trkpt lat="48.35454" lon="7.42444">
        <ele>215.7</ele>
        <time>2019-08-09T11:06:07Z</time>
      </trkpt>
      <trkpt lat="48.35447" lon="7.4244">
        <ele>215.3</ele>
        <time>2019-08-09T11:06:08Z</time>
      </trkpt>
      <trkpt lat="48.35441" lon="7.42437">
        <ele>214.9</ele>
        <time>2019-08-09T11:06:09Z</time>
      </trkpt>
      <trkpt lat="48.35436" lon="7.42434">
        <ele>214.6</ele>
        <time>2019-08-09T11:06:10Z</time>
      </trkpt>
      <trkpt lat="48.35429" lon="7.42432">
        <ele>214.2</ele>
        <time>2019-08-09T11:06:11Z</time>
      </trkpt>
      <trkpt lat="48.35422" lon="7.42433">
        <ele>213.8</ele>
        <time>2019-08-09T11:06:12Z</time>
      </trkpt>
      <trkpt lat="48.35414" lon="7.42435">
        <ele>212.8</ele>
        <time>2019-08-09T11:06:13Z</time>
      </trkpt>
      <trkpt lat="48.35407" lon="7.42438">
        <ele>212.4</ele>
        <time>2019-08-09T11:06:14Z</time>
      </trkpt>
      <trkpt lat="48.35399" lon="7.4244">
        <ele>212</ele>
        <time>2019-08-09T11:06:15Z</time>
      </trkpt>
      <trkpt lat="48.35392" lon="7.42444">
        <ele>211.6</ele>
        <time>2019-08-09T11:06:16Z</time>
      </trkpt>
      <trkpt lat="48.35385" lon="7.42449">
        <ele>211.2</ele>
        <time>2019-08-09T11:06:17Z</time>
      </trkpt>
      <trkpt lat="48.35379" lon="7.42454">
        <ele>210.7</ele>
        <time>2019-08-09T11:06:18Z</time>
      </trkpt>
      <trkpt lat="48.35372" lon="7.42459">
        <ele>210.3</ele>
        <time>2019-08-09T11:06:19Z</time>
      </trkpt>
      <trkpt lat="48.35365" lon="7.42464">
        <ele>209.8</ele>
        <time>2019-08-09T11:06:20Z</time>
      </trkpt>
      <trkpt lat="48.35359" lon="7.4247">
        <ele>209.3</ele>
        <time>2019-08-09T11:06:21Z</time>
      </trkpt>
      <trkpt lat="48.35352" lon="7.42475">
        <ele>208.7</ele>
        <time>2019-08-09T11:06:22Z</time>
      </trkpt>
      <trkpt lat="48.35346" lon="7.42478">
        <ele>208.2</ele>
        <time>2019-08-09T11:06:23Z</time>
      </trkpt>
      <trkpt lat="48.35339" lon="7.42478">
        <ele>207.8</ele>
        <time>2019-08-09T11:06:24Z</time>
      </trkpt>
      <trkpt lat="48.35333" lon="7.42479">
        <ele>207.5</ele>
        <time>2019-08-09T11:06:25Z</time>
      </trkpt>
      <trkpt lat="48.35326" lon="7.42479">
        <ele>207.1</ele>
        <time>2019-08-09T11:06:26Z</time>
      </trkpt>
      <trkpt lat="48.35319" lon="7.42479">
        <ele>206.8</ele>
        <time>2019-08-09T11:06:27Z</time>
      </trkpt>
      <trkpt lat="48.35313" lon="7.42479">
        <ele>206.4</ele>
        <time>2019-08-09T11:06:28Z</time>
      </trkpt>
      <trkpt lat="48.35306" lon="7.42479">
        <ele>206.1</ele>
        <time>2019-08-09T11:06:29Z</time>
      </trkpt>
      <trkpt lat="48.353" lon="7.42479">
        <ele>205.8</ele>
        <time>2019-08-09T11:06:30Z</time>
      </trkpt>
      <trkpt lat="48.35294" lon="7.42479">
        <ele>205.4</ele>
        <time>2019-08-09T11:06:31Z</time>
      </trkpt>
      <trkpt lat="48.35288" lon="7.42478">
        <ele>205.1</ele>
        <time>2019-08-09T11:06:32Z</time>
      </trkpt>
      <trkpt lat="48.35282" lon="7.42476">
        <ele>204.9</ele>
        <time>2019-08-09T11:06:33Z</time>
      </trkpt>
      <trkpt lat="48.35276" lon="7.42473">
        <ele>204.8</ele>
        <time>2019-08-09T11:06:34Z</time>
      </trkpt>
      <trkpt lat="48.35271" lon="7.4247">
        <ele>204.7</ele>
        <time>2019-08-09T11:06:35Z</time>
      </trkpt>
      <trkpt lat="48.35265" lon="7.42467">
        <ele>204.7</ele>
        <time>2019-08-09T11:06:36Z</time>
      </trkpt>
      <trkpt lat="48.3526" lon="7.42465">
        <ele>204.7</ele>
        <time>2019-08-09T11:06:37Z</time>
      </trkpt>
      <trkpt lat="48.35255" lon="7.42462">
        <ele>204.6</ele>
        <time>2019-08-09T11:06:38Z</time>
      </trkpt>
      <trkpt lat="48.3525" lon="7.42458">
        <ele>204.5</ele>
        <time>2019-08-09T11:06:39Z</time>
      </trkpt>
      <trkpt lat="48.35246" lon="7.42455">
        <ele>204.4</ele>
        <time>2019-08-09T11:06:40Z</time>
      </trkpt>
      <trkpt lat="48.35241" lon="7.42452">
        <ele>204.3</ele>
        <time>2019-08-09T11:06:41Z</time>
      </trkpt>
      <trkpt lat="48.35236" lon="7.42448">
        <ele>204.2</ele>
        <time>2019-08-09T11:06:42Z</time>
      </trkpt>
      <trkpt lat="48.35232" lon="7.42445">
        <ele>204.1</ele>
        <time>2019-08-09T11:06:43Z</time>
      </trkpt>
      <trkpt lat="48.35227" lon="7.42442">
        <ele>204.1</ele>
        <time>2019-08-09T11:06:44Z</time>
      </trkpt>
      <trkpt lat="48.35222" lon="7.42439">
        <ele>204</ele>
        <time>2019-08-09T11:06:45Z</time>
      </trkpt>
      <trkpt lat="48.35217" lon="7.42436">
        <ele>204</ele>
        <time>2019-08-09T11:06:46Z</time>
      </trkpt>
      <trkpt lat="48.35212" lon="7.42432">
        <ele>203.9</ele>
        <time>2019-08-09T11:06:47Z</time>
      </trkpt>
      <trkpt lat="48.35208" lon="7.42429">
        <ele>203.9</ele>
        <time>2019-08-09T11:06:48Z</time>
      </trkpt>
      <trkpt lat="48.35203" lon="7.42426">
        <ele>203.8</ele>
        <time>2019-08-09T11:06:49Z</time>
      </trkpt>
      <trkpt lat="48.35198" lon="7.42423">
        <ele>203.8</ele>
        <time>2019-08-09T11:06:50Z</time>
      </trkpt>
      <trkpt lat="48.35193" lon="7.4242">
        <ele>203.8</ele>
        <time>2019-08-09T11:06:51Z</time>
      </trkpt>
      <trkpt lat="48.35189" lon="7.42417">
        <ele>203.8</ele>
        <time>2019-08-09T11:06:52Z</time>
      </trkpt>
      <trkpt lat="48.35184" lon="7.42415">
        <ele>203.8</ele>
        <time>2019-08-09T11:06:53Z</time>
      </trkpt>
      <trkpt lat="48.3518" lon="7.42412">
        <ele>203.8</ele>
        <time>2019-08-09T11:06:54Z</time>
      </trkpt>
      <trkpt lat="48.35175" lon="7.42409">
        <ele>203.8</ele>
        <time>2019-08-09T11:06:55Z</time>
      </trkpt>
      <trkpt lat="48.3517" lon="7.42405">
        <ele>203.8</ele>
        <time>2019-08-09T11:06:56Z</time>
      </trkpt>
      <trkpt lat="48.35166" lon="7.42402">
        <ele>203.8</ele>
        <time>2019-08-09T11:06:57Z</time>
      </trkpt>
      <trkpt lat="48.35161" lon="7.42399">
        <ele>203.8</ele>
        <time>2019-08-09T11:06:58Z</time>
      </trkpt>
      <trkpt lat="48.35156" lon="7.42395">
        <ele>203.8</ele>
        <time>2019-08-09T11:06:59Z</time>
      </trkpt>
      <trkpt lat="48.35151" lon="7.42392">
        <ele>203.8</ele>
        <time>2019-08-09T11:07:00Z</time>
      </trkpt>
      <trkpt lat="48.35147" lon="7.42388">
        <ele>203.8</ele>
        <time>2019-08-09T11:07:01Z</time>
      </trkpt>
      <trkpt lat="48.35143" lon="7.42384">
        <ele>203.8</ele>
        <time>2019-08-09T11:07:02Z</time>
      </trkpt>
      <trkpt lat="48.35138" lon="7.42381">
        <ele>203.8</ele>
        <time>2019-08-09T11:07:03Z</time>
      </trkpt>
      <trkpt lat="48.35134" lon="7.42377">
        <ele>203.8</ele>
        <time>2019-08-09T11:07:04Z</time>
      </trkpt>
      <trkpt lat="48.35129" lon="7.42373">
        <ele>203.8</ele>
        <time>2019-08-09T11:07:05Z</time>
      </trkpt>
      <trkpt lat="48.35124" lon="7.42369">
        <ele>203.9</ele>
        <time>2019-08-09T11:07:06Z</time>
      </trkpt>
      <trkpt lat="48.3512" lon="7.42365">
        <ele>203.9</ele>
        <time>2019-08-09T11:07:07Z</time>
      </trkpt>
      <trkpt lat="48.35116" lon="7.42361">
        <ele>203.9</ele>
        <time>2019-08-09T11:07:08Z</time>
      </trkpt>
      <trkpt lat="48.35112" lon="7.42357">
        <ele>203.9</ele>
        <time>2019-08-09T11:07:09Z</time>
      </trkpt>
      <trkpt lat="48.35108" lon="7.42354">
        <ele>204</ele>
        <time>2019-08-09T11:07:10Z</time>
      </trkpt>
      <trkpt lat="48.35104" lon="7.4235">
        <ele>204</ele>
        <time>2019-08-09T11:07:11Z</time>
      </trkpt>
      <trkpt lat="48.351" lon="7.42347">
        <ele>204.1</ele>
        <time>2019-08-09T11:07:12Z</time>
      </trkpt>
      <trkpt lat="48.35095" lon="7.42344">
        <ele>204.1</ele>
        <time>2019-08-09T11:07:13Z</time>
      </trkpt>
      <trkpt lat="48.3509" lon="7.42341">
        <ele>204.2</ele>
        <time>2019-08-09T11:07:14Z</time>
      </trkpt>
      <trkpt lat="48.35086" lon="7.42339">
        <ele>204.2</ele>
        <time>2019-08-09T11:07:15Z</time>
      </trkpt>
      <trkpt lat="48.35081" lon="7.42337">
        <ele>204.3</ele>
        <time>2019-08-09T11:07:16Z</time>
      </trkpt>
      <trkpt lat="48.35076" lon="7.42335">
        <ele>204.4</ele>
        <time>2019-08-09T11:07:17Z</time>
      </trkpt>
      <trkpt lat="48.35071" lon="7.42334">
        <ele>204.4</ele>
        <time>2019-08-09T11:07:18Z</time>
      </trkpt>
      <trkpt lat="48.35065" lon="7.42333">
        <ele>204.5</ele>
        <time>2019-08-09T11:07:19Z</time>
      </trkpt>
      <trkpt lat="48.3506" lon="7.42332">
        <ele>204.6</ele>
        <time>2019-08-09T11:07:20Z</time>
      </trkpt>
      <trkpt lat="48.35054" lon="7.42331">
        <ele>204.7</ele>
        <time>2019-08-09T11:07:21Z</time>
      </trkpt>
      <trkpt lat="48.3505" lon="7.4233">
        <ele>204.8</ele>
        <time>2019-08-09T11:07:22Z</time>
      </trkpt>
      <trkpt lat="48.35044" lon="7.42329">
        <ele>204.9</ele>
        <time>2019-08-09T11:07:23Z</time>
      </trkpt>
      <trkpt lat="48.3504" lon="7.42328">
        <ele>205</ele>
        <time>2019-08-09T11:07:24Z</time>
      </trkpt>
      <trkpt lat="48.35035" lon="7.42327">
        <ele>205.1</ele>
        <time>2019-08-09T11:07:25Z</time>
      </trkpt>
      <trkpt lat="48.35032" lon="7.42327">
        <ele>205.1</ele>
        <time>2019-08-09T11:07:26Z</time>
      </trkpt>
      <trkpt lat="48.35027" lon="7.42326">
        <ele>205.2</ele>
        <time>2019-08-09T11:07:28Z</time>
      </trkpt>
      <trkpt lat="48.35021" lon="7.42327">
        <ele>205.3</ele>
        <time>2019-08-09T11:07:30Z</time>
      </trkpt>
      <trkpt lat="48.35018" lon="7.42327">
        <ele>205.4</ele>
        <time>2019-08-09T11:07:31Z</time>
      </trkpt>
      <trkpt lat="48.35014" lon="7.42327">
        <ele>205.5</ele>
        <time>2019-08-09T11:07:32Z</time>
      </trkpt>
      <trkpt lat="48.3501" lon="7.42326">
        <ele>205.6</ele>
        <time>2019-08-09T11:07:33Z</time>
      </trkpt>
      <trkpt lat="48.35006" lon="7.42326">
        <ele>205.7</ele>
        <time>2019-08-09T11:07:34Z</time>
      </trkpt>
      <trkpt lat="48.35002" lon="7.42325">
        <ele>205.8</ele>
        <time>2019-08-09T11:07:35Z</time>
      </trkpt>
      <trkpt lat="48.34999" lon="7.42325">
        <ele>205.8</ele>
        <time>2019-08-09T11:07:36Z</time>
      </trkpt>
      <trkpt lat="48.34996" lon="7.42325">
        <ele>205.9</ele>
        <time>2019-08-09T11:07:37Z</time>
      </trkpt>
      <trkpt lat="48.34992" lon="7.42325">
        <ele>205.9</ele>
        <time>2019-08-09T11:07:39Z</time>
      </trkpt>
      <trkpt lat="48.34987" lon="7.42327">
        <ele>205.9</ele>
        <time>2019-08-09T11:07:41Z</time>
      </trkpt>
      <trkpt lat="48.34985" lon="7.42329">
        <ele>205.9</ele>
        <time>2019-08-09T11:07:42Z</time>
      </trkpt>
      <trkpt lat="48.34982" lon="7.42331">
        <ele>205.9</ele>
        <time>2019-08-09T11:07:43Z</time>
      </trkpt>
      <trkpt lat="48.34979" lon="7.42333">
        <ele>206</ele>
        <time>2019-08-09T11:07:44Z</time>
      </trkpt>
      <trkpt lat="48.34976" lon="7.42335">
        <ele>206</ele>
        <time>2019-08-09T11:07:45Z</time>
      </trkpt>
      <trkpt lat="48.34973" lon="7.42336">
        <ele>206</ele>
        <time>2019-08-09T11:07:46Z</time>
      </trkpt>
      <trkpt lat="48.3497" lon="7.42338">
        <ele>206</ele>
        <time>2019-08-09T11:07:47Z</time>
      </trkpt>
      <trkpt lat="48.34967" lon="7.42339">
        <ele>206</ele>
        <time>2019-08-09T11:07:48Z</time>
      </trkpt>
      <trkpt lat="48.34964" lon="7.4234">
        <ele>206.1</ele>
        <time>2019-08-09T11:07:49Z</time>
      </trkpt>
      <trkpt lat="48.34961" lon="7.42341">
        <ele>206.1</ele>
        <time>2019-08-09T11:07:50Z</time>
      </trkpt>
      <trkpt lat="48.34956" lon="7.42342">
        <ele>206.1</ele>
        <time>2019-08-09T11:07:51Z</time>
      </trkpt>
      <trkpt lat="48.34953" lon="7.42343">
        <ele>206.1</ele>
        <time>2019-08-09T11:07:52Z</time>
      </trkpt>
      <trkpt lat="48.34949" lon="7.42344">
        <ele>206.2</ele>
        <time>2019-08-09T11:07:53Z</time>
      </trkpt>
      <trkpt lat="48.34945" lon="7.42345">
        <ele>206.2</ele>
        <time>2019-08-09T11:07:54Z</time>
      </trkpt>
      <trkpt lat="48.34941" lon="7.42345">
        <ele>206.4</ele>
        <time>2019-08-09T11:07:55Z</time>
      </trkpt>
      <trkpt lat="48.34938" lon="7.42346">
        <ele>206.5</ele>
        <time>2019-08-09T11:07:56Z</time>
      </trkpt>
      <trkpt lat="48.34935" lon="7.42346">
        <ele>206.6</ele>
        <time>2019-08-09T11:07:57Z</time>
      </trkpt>
      <trkpt lat="48.34932" lon="7.42347">
        <ele>206.7</ele>
        <time>2019-08-09T11:07:58Z</time>
      </trkpt>
      <trkpt lat="48.34928" lon="7.42347">
        <ele>206.8</ele>
        <time>2019-08-09T11:07:59Z</time>
      </trkpt>
      <trkpt lat="48.34925" lon="7.42348">
        <ele>207</ele>
        <time>2019-08-09T11:08:00Z</time>
      </trkpt>
      <trkpt lat="48.34921" lon="7.42348">
        <ele>207.1</ele>
        <time>2019-08-09T11:08:01Z</time>
      </trkpt>
      <trkpt lat="48.34917" lon="7.42349">
        <ele>207.2</ele>
        <time>2019-08-09T11:08:02Z</time>
      </trkpt>
      <trkpt lat="48.34913" lon="7.4235">
        <ele>207.3</ele>
        <time>2019-08-09T11:08:03Z</time>
      </trkpt>
      <trkpt lat="48.34909" lon="7.42351">
        <ele>207.5</ele>
        <time>2019-08-09T11:08:04Z</time>
      </trkpt>
      <trkpt lat="48.34906" lon="7.42352">
        <ele>207.6</ele>
        <time>2019-08-09T11:08:05Z</time>
      </trkpt>
      <trkpt lat="48.34903" lon="7.42352">
        <ele>207.7</ele>
        <time>2019-08-09T11:08:06Z</time>
      </trkpt>
      <trkpt lat="48.34901" lon="7.42353">
        <ele>207.8</ele>
        <time>2019-08-09T11:08:07Z</time>
      </trkpt>
      <trkpt lat="48.34895" lon="7.42356">
        <ele>208</ele>
        <time>2019-08-09T11:08:09Z</time>
      </trkpt>
      <trkpt lat="48.34892" lon="7.42357">
        <ele>208.1</ele>
        <time>2019-08-09T11:08:10Z</time>
      </trkpt>
      <trkpt lat="48.34888" lon="7.42358">
        <ele>208.2</ele>
        <time>2019-08-09T11:08:11Z</time>
      </trkpt>
      <trkpt lat="48.34885" lon="7.42359">
        <ele>208.2</ele>
        <time>2019-08-09T11:08:12Z</time>
      </trkpt>
      <trkpt lat="48.34882" lon="7.4236">
        <ele>208.3</ele>
        <time>2019-08-09T11:08:13Z</time>
      </trkpt>
      <trkpt lat="48.34879" lon="7.4236">
        <ele>208.3</ele>
        <time>2019-08-09T11:08:14Z</time>
      </trkpt>
      <trkpt lat="48.34875" lon="7.42361">
        <ele>208.4</ele>
        <time>2019-08-09T11:08:15Z</time>
      </trkpt>
      <trkpt lat="48.34872" lon="7.42362">
        <ele>208.4</ele>
        <time>2019-08-09T11:08:16Z</time>
      </trkpt>
      <trkpt lat="48.34868" lon="7.42363">
        <ele>208.5</ele>
        <time>2019-08-09T11:08:17Z</time>
      </trkpt>
      <trkpt lat="48.34864" lon="7.42363">
        <ele>208.5</ele>
        <time>2019-08-09T11:08:18Z</time>
      </trkpt>
      <trkpt lat="48.34861" lon="7.42364">
        <ele>208.6</ele>
        <time>2019-08-09T11:08:19Z</time>
      </trkpt>
      <trkpt lat="48.34858" lon="7.42365">
        <ele>208.6</ele>
        <time>2019-08-09T11:08:20Z</time>
      </trkpt>
      <trkpt lat="48.34855" lon="7.42365">
        <ele>208.7</ele>
        <time>2019-08-09T11:08:21Z</time>
      </trkpt>
      <trkpt lat="48.34852" lon="7.42366">
        <ele>208.8</ele>
        <time>2019-08-09T11:08:22Z</time>
      </trkpt>
      <trkpt lat="48.34849" lon="7.42366">
        <ele>208.8</ele>
        <time>2019-08-09T11:08:23Z</time>
      </trkpt>
      <trkpt lat="48.34846" lon="7.42366">
        <ele>208.9</ele>
        <time>2019-08-09T11:08:24Z</time>
      </trkpt>
      <trkpt lat="48.34842" lon="7.42366">
        <ele>209</ele>
        <time>2019-08-09T11:08:25Z</time>
      </trkpt>
      <trkpt lat="48.34839" lon="7.42366">
        <ele>209.2</ele>
        <time>2019-08-09T11:08:26Z</time>
      </trkpt>
      <trkpt lat="48.34835" lon="7.42366">
        <ele>209.3</ele>
        <time>2019-08-09T11:08:27Z</time>
      </trkpt>
      <trkpt lat="48.34831" lon="7.42367">
        <ele>209.4</ele>
        <time>2019-08-09T11:08:28Z</time>
      </trkpt>
      <trkpt lat="48.34828" lon="7.42367">
        <ele>209.5</ele>
        <time>2019-08-09T11:08:29Z</time>
      </trkpt>
      <trkpt lat="48.34824" lon="7.42367">
        <ele>209.6</ele>
        <time>2019-08-09T11:08:30Z</time>
      </trkpt>
      <trkpt lat="48.3482" lon="7.42368">
        <ele>209.8</ele>
        <time>2019-08-09T11:08:31Z</time>
      </trkpt>
      <trkpt lat="48.34816" lon="7.42368">
        <ele>210</ele>
        <time>2019-08-09T11:08:32Z</time>
      </trkpt>
      <trkpt lat="48.34811" lon="7.42368">
        <ele>210.1</ele>
        <time>2019-08-09T11:08:33Z</time>
      </trkpt>
      <trkpt lat="48.34808" lon="7.42369">
        <ele>210.2</ele>
        <time>2019-08-09T11:08:34Z</time>
      </trkpt>
      <trkpt lat="48.34803" lon="7.42369">
        <ele>210.3</ele>
        <time>2019-08-09T11:08:35Z</time>
      </trkpt>
      <trkpt lat="48.348" lon="7.42369">
        <ele>210.4</ele>
        <time>2019-08-09T11:08:36Z</time>
      </trkpt>
      <trkpt lat="48.34796" lon="7.4237">
        <ele>210.4</ele>
        <time>2019-08-09T11:08:37Z</time>
      </trkpt>
      <trkpt lat="48.34793" lon="7.42372">
        <ele>210.5</ele>
        <time>2019-08-09T11:08:38Z</time>
      </trkpt>
      <trkpt lat="48.3479" lon="7.42372">
        <ele>210.5</ele>
        <time>2019-08-09T11:08:39Z</time>
      </trkpt>
      <trkpt lat="48.34787" lon="7.42372">
        <ele>210.6</ele>
        <time>2019-08-09T11:08:40Z</time>
      </trkpt>
      <trkpt lat="48.34783" lon="7.42372">
        <ele>210.6</ele>
        <time>2019-08-09T11:08:41Z</time>
      </trkpt>
      <trkpt lat="48.3478" lon="7.42373">
        <ele>210.7</ele>
        <time>2019-08-09T11:08:42Z</time>
      </trkpt>
      <trkpt lat="48.34776" lon="7.42373">
        <ele>210.7</ele>
        <time>2019-08-09T11:08:43Z</time>
      </trkpt>
      <trkpt lat="48.34774" lon="7.42373">
        <ele>210.7</ele>
        <time>2019-08-09T11:08:44Z</time>
      </trkpt>
      <trkpt lat="48.3477" lon="7.42373">
        <ele>210.7</ele>
        <time>2019-08-09T11:08:45Z</time>
      </trkpt>
      <trkpt lat="48.34766" lon="7.42373">
        <ele>210.8</ele>
        <time>2019-08-09T11:08:46Z</time>
      </trkpt>
      <trkpt lat="48.34762" lon="7.42373">
        <ele>210.8</ele>
        <time>2019-08-09T11:08:47Z</time>
      </trkpt>
      <trkpt lat="48.34757" lon="7.42373">
        <ele>210.8</ele>
        <time>2019-08-09T11:08:48Z</time>
      </trkpt>
      <trkpt lat="48.34753" lon="7.42372">
        <ele>210.8</ele>
        <time>2019-08-09T11:08:49Z</time>
      </trkpt>
      <trkpt lat="48.3475" lon="7.42372">
        <ele>210.8</ele>
        <time>2019-08-09T11:08:50Z</time>
      </trkpt>
      <trkpt lat="48.34744" lon="7.42373">
        <ele>210.8</ele>
        <time>2019-08-09T11:08:52Z</time>
      </trkpt>
      <trkpt lat="48.34741" lon="7.42372">
        <ele>210.9</ele>
        <time>2019-08-09T11:08:53Z</time>
      </trkpt>
      <trkpt lat="48.34738" lon="7.42372">
        <ele>210.9</ele>
        <time>2019-08-09T11:08:54Z</time>
      </trkpt>
      <trkpt lat="48.34732" lon="7.42372">
        <ele>210.9</ele>
        <time>2019-08-09T11:08:56Z</time>
      </trkpt>
      <trkpt lat="48.34729" lon="7.42372">
        <ele>210.9</ele>
        <time>2019-08-09T11:08:57Z</time>
      </trkpt>
      <trkpt lat="48.34725" lon="7.42371">
        <ele>210.9</ele>
        <time>2019-08-09T11:08:58Z</time>
      </trkpt>
      <trkpt lat="48.3472" lon="7.4237">
        <ele>210.9</ele>
        <time>2019-08-09T11:08:59Z</time>
      </trkpt>
      <trkpt lat="48.34716" lon="7.42369">
        <ele>210.9</ele>
        <time>2019-08-09T11:09:00Z</time>
      </trkpt>
      <trkpt lat="48.34713" lon="7.42367">
        <ele>211</ele>
        <time>2019-08-09T11:09:01Z</time>
      </trkpt>
      <trkpt lat="48.34709" lon="7.42366">
        <ele>211</ele>
        <time>2019-08-09T11:09:02Z</time>
      </trkpt>
      <trkpt lat="48.34704" lon="7.42364">
        <ele>211</ele>
        <time>2019-08-09T11:09:03Z</time>
      </trkpt>
      <trkpt lat="48.347" lon="7.42363">
        <ele>211</ele>
        <time>2019-08-09T11:09:04Z</time>
      </trkpt>
      <trkpt lat="48.34696" lon="7.42363">
        <ele>211</ele>
        <time>2019-08-09T11:09:05Z</time>
      </trkpt>
      <trkpt lat="48.34693" lon="7.42362">
        <ele>211</ele>
        <time>2019-08-09T11:09:06Z</time>
      </trkpt>
      <trkpt lat="48.3469" lon="7.42361">
        <ele>211</ele>
        <time>2019-08-09T11:09:07Z</time>
      </trkpt>
      <trkpt lat="48.34686" lon="7.42359">
        <ele>211</ele>
        <time>2019-08-09T11:09:08Z</time>
      </trkpt>
      <trkpt lat="48.34682" lon="7.42358">
        <ele>211.1</ele>
        <time>2019-08-09T11:09:09Z</time>
      </trkpt>
      <trkpt lat="48.34679" lon="7.42357">
        <ele>211.1</ele>
        <time>2019-08-09T11:09:10Z</time>
      </trkpt>
      <trkpt lat="48.34675" lon="7.42356">
        <ele>211.1</ele>
        <time>2019-08-09T11:09:11Z</time>
      </trkpt>
      <trkpt lat="48.3467" lon="7.42353">
        <ele>211.1</ele>
        <time>2019-08-09T11:09:13Z</time>
      </trkpt>
      <trkpt lat="48.34667" lon="7.42352">
        <ele>211.1</ele>
        <time>2019-08-09T11:09:14Z</time>
      </trkpt>
      <trkpt lat="48.34663" lon="7.42351">
        <ele>211.1</ele>
        <time>2019-08-09T11:09:15Z</time>
      </trkpt>
      <trkpt lat="48.3466" lon="7.4235">
        <ele>211.1</ele>
        <time>2019-08-09T11:09:16Z</time>
      </trkpt>
      <trkpt lat="48.34656" lon="7.4235">
        <ele>211.1</ele>
        <time>2019-08-09T11:09:17Z</time>
      </trkpt>
      <trkpt lat="48.34653" lon="7.42349">
        <ele>211.1</ele>
        <time>2019-08-09T11:09:18Z</time>
      </trkpt>
      <trkpt lat="48.3465" lon="7.42348">
        <ele>211.2</ele>
        <time>2019-08-09T11:09:19Z</time>
      </trkpt>
      <trkpt lat="48.34647" lon="7.42347">
        <ele>211.2</ele>
        <time>2019-08-09T11:09:20Z</time>
      </trkpt>
      <trkpt lat="48.34643" lon="7.42347">
        <ele>211.2</ele>
        <time>2019-08-09T11:09:21Z</time>
      </trkpt>
      <trkpt lat="48.3464" lon="7.42346">
        <ele>211.2</ele>
        <time>2019-08-09T11:09:22Z</time>
      </trkpt>
      <trkpt lat="48.34636" lon="7.42346">
        <ele>211.2</ele>
        <time>2019-08-09T11:09:23Z</time>
      </trkpt>
      <trkpt lat="48.34633" lon="7.42346">
        <ele>211.2</ele>
        <time>2019-08-09T11:09:24Z</time>
      </trkpt>
      <trkpt lat="48.3463" lon="7.42345">
        <ele>211.2</ele>
        <time>2019-08-09T11:09:25Z</time>
      </trkpt>
      <trkpt lat="48.34627" lon="7.42344">
        <ele>211.2</ele>
        <time>2019-08-09T11:09:26Z</time>
      </trkpt>
      <trkpt lat="48.34624" lon="7.42343">
        <ele>211.2</ele>
        <time>2019-08-09T11:09:27Z</time>
      </trkpt>
      <trkpt lat="48.3462" lon="7.42343">
        <ele>211.3</ele>
        <time>2019-08-09T11:09:28Z</time>
      </trkpt>
      <trkpt lat="48.34616" lon="7.42343">
        <ele>211.3</ele>
        <time>2019-08-09T11:09:29Z</time>
      </trkpt>
      <trkpt lat="48.34611" lon="7.42341">
        <ele>211.3</ele>
        <time>2019-08-09T11:09:31Z</time>
      </trkpt>
      <trkpt lat="48.34608" lon="7.4234">
        <ele>211.3</ele>
        <time>2019-08-09T11:09:32Z</time>
      </trkpt>
      <trkpt lat="48.34605" lon="7.42339">
        <ele>211.3</ele>
        <time>2019-08-09T11:09:33Z</time>
      </trkpt>
      <trkpt lat="48.34601" lon="7.42338">
        <ele>211.3</ele>
        <time>2019-08-09T11:09:34Z</time>
      </trkpt>
      <trkpt lat="48.34597" lon="7.42337">
        <ele>211.3</ele>
        <time>2019-08-09T11:09:35Z</time>
      </trkpt>
      <trkpt lat="48.34593" lon="7.42336">
        <ele>211.7</ele>
        <time>2019-08-09T11:09:36Z</time>
      </trkpt>
      <trkpt lat="48.34588" lon="7.42335">
        <ele>212.1</ele>
        <time>2019-08-09T11:09:37Z</time>
      </trkpt>
      <trkpt lat="48.34585" lon="7.42334">
        <ele>212.4</ele>
        <time>2019-08-09T11:09:38Z</time>
      </trkpt>
      <trkpt lat="48.34581" lon="7.42334">
        <ele>212.8</ele>
        <time>2019-08-09T11:09:39Z</time>
      </trkpt>
      <trkpt lat="48.34578" lon="7.42334">
        <ele>213</ele>
        <time>2019-08-09T11:09:40Z</time>
      </trkpt>
      <trkpt lat="48.34575" lon="7.42333">
        <ele>213.3</ele>
        <time>2019-08-09T11:09:41Z</time>
      </trkpt>
      <trkpt lat="48.34571" lon="7.42333">
        <ele>213.7</ele>
        <time>2019-08-09T11:09:43Z</time>
      </trkpt>
      <trkpt lat="48.34567" lon="7.42333">
        <ele>214</ele>
        <time>2019-08-09T11:09:45Z</time>
      </trkpt>
      <trkpt lat="48.34563" lon="7.42334">
        <ele>214.4</ele>
        <time>2019-08-09T11:09:47Z</time>
      </trkpt>
      <trkpt lat="48.34559" lon="7.42334">
        <ele>214.7</ele>
        <time>2019-08-09T11:09:49Z</time>
      </trkpt>
      <trkpt lat="48.34555" lon="7.42332">
        <ele>215.1</ele>
        <time>2019-08-09T11:09:51Z</time>
      </trkpt>
      <trkpt lat="48.34551" lon="7.42332">
        <ele>215.4</ele>
        <time>2019-08-09T11:09:53Z</time>
      </trkpt>
      <trkpt lat="48.34546" lon="7.42331">
        <ele>215.8</ele>
        <time>2019-08-09T11:09:55Z</time>
      </trkpt>
      <trkpt lat="48.34542" lon="7.42331">
        <ele>216.1</ele>
        <time>2019-08-09T11:09:57Z</time>
      </trkpt>
      <trkpt lat="48.34538" lon="7.42332">
        <ele>216.5</ele>
        <time>2019-08-09T11:09:59Z</time>
      </trkpt>
      <trkpt lat="48.34533" lon="7.42332">
        <ele>216.8</ele>
        <time>2019-08-09T11:10:01Z</time>
      </trkpt>
      <trkpt lat="48.3453" lon="7.42331">
        <ele>217</ele>
        <time>2019-08-09T11:10:02Z</time>
      </trkpt>
      <trkpt lat="48.34526" lon="7.4233">
        <ele>217.4</ele>
        <time>2019-08-09T11:10:04Z</time>
      </trkpt>
      <trkpt lat="48.34521" lon="7.42329">
        <ele>217.7</ele>
        <time>2019-08-09T11:10:06Z</time>
      </trkpt>
      <trkpt lat="48.34516" lon="7.42327">
        <ele>218.1</ele>
        <time>2019-08-09T11:10:08Z</time>
      </trkpt>
      <trkpt lat="48.34513" lon="7.42325">
        <ele>218.3</ele>
        <time>2019-08-09T11:10:09Z</time>
      </trkpt>
      <trkpt lat="48.3451" lon="7.42324">
        <ele>218.5</ele>
        <time>2019-08-09T11:10:10Z</time>
      </trkpt>
      <trkpt lat="48.34506" lon="7.4232">
        <ele>218.8</ele>
        <time>2019-08-09T11:10:12Z</time>
      </trkpt>
      <trkpt lat="48.34501" lon="7.42316">
        <ele>219.2</ele>
        <time>2019-08-09T11:10:14Z</time>
      </trkpt>
      <trkpt lat="48.34499" lon="7.42314">
        <ele>219.4</ele>
        <time>2019-08-09T11:10:15Z</time>
      </trkpt>
      <trkpt lat="48.34496" lon="7.42311">
        <ele>219.5</ele>
        <time>2019-08-09T11:10:16Z</time>
      </trkpt>
      <trkpt lat="48.34493" lon="7.42309">
        <ele>219.7</ele>
        <time>2019-08-09T11:10:17Z</time>
      </trkpt>
      <trkpt lat="48.34491" lon="7.42307">
        <ele>219.9</ele>
        <time>2019-08-09T11:10:18Z</time>
      </trkpt>
      <trkpt lat="48.34487" lon="7.42302">
        <ele>220.2</ele>
        <time>2019-08-09T11:10:20Z</time>
      </trkpt>
      <trkpt lat="48.34485" lon="7.42299">
        <ele>220.3</ele>
        <time>2019-08-09T11:10:21Z</time>
      </trkpt>
      <trkpt lat="48.34481" lon="7.42294">
        <ele>220.5</ele>
        <time>2019-08-09T11:10:23Z</time>
      </trkpt>
      <trkpt lat="48.34477" lon="7.4229">
        <ele>220.7</ele>
        <time>2019-08-09T11:10:25Z</time>
      </trkpt>
      <trkpt lat="48.34472" lon="7.42285">
        <ele>220.9</ele>
        <time>2019-08-09T11:10:27Z</time>
      </trkpt>
      <trkpt lat="48.3447" lon="7.42282">
        <ele>221</ele>
        <time>2019-08-09T11:10:28Z</time>
      </trkpt>
      <trkpt lat="48.34467" lon="7.42279">
        <ele>221.1</ele>
        <time>2019-08-09T11:10:29Z</time>
      </trkpt>
      <trkpt lat="48.34465" lon="7.42276">
        <ele>221.2</ele>
        <time>2019-08-09T11:10:30Z</time>
      </trkpt>
      <trkpt lat="48.34462" lon="7.42271">
        <ele>221.4</ele>
        <time>2019-08-09T11:10:32Z</time>
      </trkpt>
      <trkpt lat="48.34459" lon="7.42267">
        <ele>221.6</ele>
        <time>2019-08-09T11:10:34Z</time>
      </trkpt>
      <trkpt lat="48.34454" lon="7.42264">
        <ele>221.8</ele>
        <time>2019-08-09T11:10:36Z</time>
      </trkpt>
      <trkpt lat="48.34452" lon="7.42263">
        <ele>221.9</ele>
        <time>2019-08-09T11:10:37Z</time>
      </trkpt>
      <trkpt lat="48.34448" lon="7.42259">
        <ele>222.1</ele>
        <time>2019-08-09T11:10:39Z</time>
      </trkpt>
      <trkpt lat="48.34444" lon="7.42255">
        <ele>222.4</ele>
        <time>2019-08-09T11:10:41Z</time>
      </trkpt>
      <trkpt lat="48.34441" lon="7.42253">
        <ele>222.5</ele>
        <time>2019-08-09T11:10:42Z</time>
      </trkpt>
      <trkpt lat="48.34439" lon="7.42251">
        <ele>222.6</ele>
        <time>2019-08-09T11:10:43Z</time>
      </trkpt>
      <trkpt lat="48.34434" lon="7.42248">
        <ele>222.8</ele>
        <time>2019-08-09T11:10:45Z</time>
      </trkpt>
      <trkpt lat="48.3443" lon="7.42246">
        <ele>222.9</ele>
        <time>2019-08-09T11:10:47Z</time>
      </trkpt>
      <trkpt lat="48.34426" lon="7.42244">
        <ele>223</ele>
        <time>2019-08-09T11:10:49Z</time>
      </trkpt>
      <trkpt lat="48.34421" lon="7.42242">
        <ele>223.1</ele>
        <time>2019-08-09T11:10:51Z</time>
      </trkpt>
      <trkpt lat="48.34416" lon="7.4224">
        <ele>223.1</ele>
        <time>2019-08-09T11:10:53Z</time>
      </trkpt>
      <trkpt lat="48.34412" lon="7.42238">
        <ele>223</ele>
        <time>2019-08-09T11:10:55Z</time>
      </trkpt>
      <trkpt lat="48.3441" lon="7.42237">
        <ele>223</ele>
        <time>2019-08-09T11:10:57Z</time>
      </trkpt>
      <trkpt lat="48.34406" lon="7.42235">
        <ele>222.9</ele>
        <time>2019-08-09T11:11:00Z</time>
      </trkpt>
      <trkpt lat="48.34405" lon="7.42231">
        <ele>222.7</ele>
        <time>2019-08-09T11:11:04Z</time>
      </trkpt>
      <trkpt lat="48.34408" lon="7.42232">
        <ele>222.6</ele>
        <time>2019-08-09T11:11:07Z</time>
      </trkpt>
      <trkpt lat="48.34406" lon="7.42225">
        <ele>220.9</ele>
        <time>2019-08-09T11:11:43Z</time>
      </trkpt>
      <trkpt lat="48.34414" lon="7.42231">
        <ele>220.9</ele>
        <time>2019-08-09T11:12:27Z</time>
      </trkpt>
      <trkpt lat="48.34417" lon="7.4222">
        <ele>220.9</ele>
        <time>2019-08-09T11:19:13Z</time>
      </trkpt>
      <trkpt lat="48.34419" lon="7.42216">
        <ele>220.9</ele>
        <time>2019-08-09T11:19:19Z</time>
      </trkpt>
      <trkpt lat="48.3442" lon="7.42212">
        <ele>220.9</ele>
        <time>2019-08-09T11:19:23Z</time>
      </trkpt>
      <trkpt lat="48.34422" lon="7.42208">
        <ele>220.9</ele>
        <time>2019-08-09T11:19:28Z</time>
      </trkpt>
      <trkpt lat="48.3442" lon="7.42212">
        <ele>220.9</ele>
        <time>2019-08-09T11:19:44Z</time>
      </trkpt>
      <trkpt lat="48.34422" lon="7.42208">
        <ele>220.9</ele>
        <time>2019-08-09T11:19:52Z</time>
      </trkpt>
      <trkpt lat="48.34421" lon="7.42212">
        <ele>221</ele>
        <time>2019-08-09T11:20:05Z</time>
      </trkpt>
      <trkpt lat="48.34423" lon="7.42214">
        <ele>221</ele>
        <time>2019-08-09T11:29:52Z</time>
      </trkpt>
      <trkpt lat="48.34424" lon="7.42209">
        <ele>221</ele>
        <time>2019-08-09T11:29:55Z</time>
      </trkpt>
      <trkpt lat="48.34426" lon="7.42205">
        <ele>221</ele>
        <time>2019-08-09T11:30:00Z</time>
      </trkpt>
      <trkpt lat="48.34421" lon="7.42211">
        <ele>221</ele>
        <time>2019-08-09T11:31:30Z</time>
      </trkpt>
      <trkpt lat="48.34419" lon="7.42225">
        <ele>221</ele>
        <time>2019-08-09T11:33:02Z</time>
      </trkpt>
      <trkpt lat="48.34419" lon="7.4223">
        <ele>221</ele>
        <time>2019-08-09T11:33:06Z</time>
      </trkpt>
      <trkpt lat="48.34419" lon="7.42213">
        <ele>221</ele>
        <time>2019-08-09T11:35:44Z</time>
      </trkpt>
      <trkpt lat="48.34421" lon="7.42208">
        <ele>221</ele>
        <time>2019-08-09T11:35:49Z</time>
      </trkpt>
      <trkpt lat="48.34424" lon="7.42202">
        <ele>221</ele>
        <time>2019-08-09T11:41:48Z</time>
      </trkpt>
      <trkpt lat="48.34425" lon="7.42199">
        <ele>221</ele>
        <time>2019-08-09T11:41:54Z</time>
      </trkpt>
      <trkpt lat="48.34429" lon="7.42194">
        <ele>221.1</ele>
        <time>2019-08-09T11:42:10Z</time>
      </trkpt>
      <trkpt lat="48.34429" lon="7.4219">
        <ele>221.1</ele>
        <time>2019-08-09T11:42:21Z</time>
      </trkpt>
      <trkpt lat="48.34417" lon="7.42225">
        <ele>220.9</ele>
        <time>2019-08-09T12:13:34Z</time>
      </trkpt>
      <trkpt lat="48.34419" lon="7.42228">
        <ele>220.9</ele>
        <time>2019-08-09T12:13:37Z</time>
      </trkpt>
      <trkpt lat="48.3442" lon="7.42232">
        <ele>220.9</ele>
        <time>2019-08-09T12:13:46Z</time>
      </trkpt>
      <trkpt lat="48.34417" lon="7.42225">
        <ele>220.9</ele>
        <time>2019-08-09T12:14:40Z</time>
      </trkpt>
      <trkpt lat="48.34407" lon="7.42231">
        <ele>220.9</ele>
        <time>2019-08-09T12:15:41Z</time>
      </trkpt>
      <trkpt lat="48.34406" lon="7.42227">
        <ele>220.9</ele>
        <time>2019-08-09T12:16:02Z</time>
      </trkpt>
      <trkpt lat="48.34405" lon="7.42223">
        <ele>220.9</ele>
        <time>2019-08-09T12:16:07Z</time>
      </trkpt>
      <trkpt lat="48.34406" lon="7.42219">
        <ele>220.9</ele>
        <time>2019-08-09T12:16:11Z</time>
      </trkpt>
      <trkpt lat="48.34413" lon="7.42221">
        <ele>220.9</ele>
        <time>2019-08-09T12:28:26Z</time>
      </trkpt>
      <trkpt lat="48.34414" lon="7.42217">
        <ele>220.9</ele>
        <time>2019-08-09T12:28:30Z</time>
      </trkpt>
      <trkpt lat="48.34418" lon="7.42226">
        <ele>220.9</ele>
        <time>2019-08-09T12:29:32Z</time>
      </trkpt>
      <trkpt lat="48.34423" lon="7.4223">
        <ele>220.9</ele>
        <time>2019-08-09T12:30:24Z</time>
      </trkpt>
      <trkpt lat="48.34426" lon="7.4223">
        <ele>220.9</ele>
        <time>2019-08-09T12:30:26Z</time>
      </trkpt>
      <trkpt lat="48.34429" lon="7.4223">
        <ele>220.9</ele>
        <time>2019-08-09T12:30:28Z</time>
      </trkpt>
      <trkpt lat="48.34432" lon="7.4223">
        <ele>220.9</ele>
        <time>2019-08-09T12:30:31Z</time>
      </trkpt>
      <trkpt lat="48.34428" lon="7.42227">
        <ele>220.9</ele>
        <time>2019-08-09T12:31:31Z</time>
      </trkpt>
      <trkpt lat="48.34424" lon="7.42228">
        <ele>220.9</ele>
        <time>2019-08-09T12:31:34Z</time>
      </trkpt>
      <trkpt lat="48.34421" lon="7.42228">
        <ele>220.9</ele>
        <time>2019-08-09T12:31:37Z</time>
      </trkpt>
      <trkpt lat="48.34418" lon="7.42227">
        <ele>220.9</ele>
        <time>2019-08-09T12:31:39Z</time>
      </trkpt>
      <trkpt lat="48.34415" lon="7.42226">
        <ele>220.9</ele>
        <time>2019-08-09T12:31:47Z</time>
      </trkpt>
      <trkpt lat="48.34413" lon="7.42228">
        <ele>220.9</ele>
        <time>2019-08-09T12:32:09Z</time>
      </trkpt>
      <trkpt lat="48.34412" lon="7.42223">
        <ele>220.9</ele>
        <time>2019-08-09T12:32:12Z</time>
      </trkpt>
      <trkpt lat="48.34412" lon="7.42228">
        <ele>220.9</ele>
        <time>2019-08-09T12:37:20Z</time>
      </trkpt>
      <trkpt lat="48.34406" lon="7.42226">
        <ele>220.9</ele>
        <time>2019-08-09T12:37:22Z</time>
      </trkpt>
      <trkpt lat="48.34403" lon="7.42226">
        <ele>220.9</ele>
        <time>2019-08-09T12:37:23Z</time>
      </trkpt>
      <trkpt lat="48.344" lon="7.42227">
        <ele>220.9</ele>
        <time>2019-08-09T12:37:24Z</time>
      </trkpt>
      <trkpt lat="48.34396" lon="7.42228">
        <ele>220.8</ele>
        <time>2019-08-09T12:37:25Z</time>
      </trkpt>
      <trkpt lat="48.34392" lon="7.42229">
        <ele>220.8</ele>
        <time>2019-08-09T12:37:26Z</time>
      </trkpt>
      <trkpt lat="48.34389" lon="7.42229">
        <ele>220.7</ele>
        <time>2019-08-09T12:37:27Z</time>
      </trkpt>
      <trkpt lat="48.34385" lon="7.42232">
        <ele>220.6</ele>
        <time>2019-08-09T12:37:28Z</time>
      </trkpt>
      <trkpt lat="48.34381" lon="7.42233">
        <ele>220.6</ele>
        <time>2019-08-09T12:37:29Z</time>
      </trkpt>
      <trkpt lat="48.34378" lon="7.42234">
        <ele>220.5</ele>
        <time>2019-08-09T12:37:30Z</time>
      </trkpt>
      <trkpt lat="48.34375" lon="7.42236">
        <ele>220.5</ele>
        <time>2019-08-09T12:37:31Z</time>
      </trkpt>
      <trkpt lat="48.34372" lon="7.42237">
        <ele>220.5</ele>
        <time>2019-08-09T12:37:32Z</time>
      </trkpt>
      <trkpt lat="48.34369" lon="7.42239">
        <ele>220.5</ele>
        <time>2019-08-09T12:37:33Z</time>
      </trkpt>
      <trkpt lat="48.34364" lon="7.4224">
        <ele>220.5</ele>
        <time>2019-08-09T12:37:35Z</time>
      </trkpt>
      <trkpt lat="48.34362" lon="7.42242">
        <ele>220.5</ele>
        <time>2019-08-09T12:37:36Z</time>
      </trkpt>
      <trkpt lat="48.34359" lon="7.42245">
        <ele>220.6</ele>
        <time>2019-08-09T12:37:37Z</time>
      </trkpt>
      <trkpt lat="48.34356" lon="7.42246">
        <ele>220.6</ele>
        <time>2019-08-09T12:37:38Z</time>
      </trkpt>
      <trkpt lat="48.34352" lon="7.42247">
        <ele>220.7</ele>
        <time>2019-08-09T12:37:39Z</time>
      </trkpt>
      <trkpt lat="48.34348" lon="7.42249">
        <ele>220.8</ele>
        <time>2019-08-09T12:37:40Z</time>
      </trkpt>
      <trkpt lat="48.34345" lon="7.42251">
        <ele>221</ele>
        <time>2019-08-09T12:37:41Z</time>
      </trkpt>
      <trkpt lat="48.34341" lon="7.42253">
        <ele>221.1</ele>
        <time>2019-08-09T12:37:42Z</time>
      </trkpt>
      <trkpt lat="48.34337" lon="7.42254">
        <ele>221.3</ele>
        <time>2019-08-09T12:37:43Z</time>
      </trkpt>
      <trkpt lat="48.34334" lon="7.42256">
        <ele>221.4</ele>
        <time>2019-08-09T12:37:44Z</time>
      </trkpt>
      <trkpt lat="48.3433" lon="7.42258">
        <ele>221.6</ele>
        <time>2019-08-09T12:37:45Z</time>
      </trkpt>
      <trkpt lat="48.34326" lon="7.42258">
        <ele>221.8</ele>
        <time>2019-08-09T12:37:46Z</time>
      </trkpt>
      <trkpt lat="48.34322" lon="7.42262">
        <ele>222</ele>
        <time>2019-08-09T12:37:47Z</time>
      </trkpt>
      <trkpt lat="48.34319" lon="7.42264">
        <ele>222.1</ele>
        <time>2019-08-09T12:37:48Z</time>
      </trkpt>
      <trkpt lat="48.34316" lon="7.42266">
        <ele>222.3</ele>
        <time>2019-08-09T12:37:49Z</time>
      </trkpt>
      <trkpt lat="48.34313" lon="7.42265">
        <ele>222.3</ele>
        <time>2019-08-09T12:37:50Z</time>
      </trkpt>
      <trkpt lat="48.34309" lon="7.42266">
        <ele>222.2</ele>
        <time>2019-08-09T12:37:51Z</time>
      </trkpt>
      <trkpt lat="48.34306" lon="7.42266">
        <ele>222.2</ele>
        <time>2019-08-09T12:37:52Z</time>
      </trkpt>
      <trkpt lat="48.34302" lon="7.42263">
        <ele>222.5</ele>
        <time>2019-08-09T12:37:53Z</time>
      </trkpt>
      <trkpt lat="48.34298" lon="7.42259">
        <ele>222.6</ele>
        <time>2019-08-09T12:37:54Z</time>
      </trkpt>
      <trkpt lat="48.34295" lon="7.42254">
        <ele>222.6</ele>
        <time>2019-08-09T12:37:55Z</time>
      </trkpt>
      <trkpt lat="48.34293" lon="7.42248">
        <ele>222.7</ele>
        <time>2019-08-09T12:37:56Z</time>
      </trkpt>
      <trkpt lat="48.34291" lon="7.42243">
        <ele>222.8</ele>
        <time>2019-08-09T12:37:57Z</time>
      </trkpt>
      <trkpt lat="48.34289" lon="7.42237">
        <ele>223</ele>
        <time>2019-08-09T12:37:58Z</time>
      </trkpt>
      <trkpt lat="48.34287" lon="7.42232">
        <ele>223.1</ele>
        <time>2019-08-09T12:37:59Z</time>
      </trkpt>
      <trkpt lat="48.34286" lon="7.42227">
        <ele>223.3</ele>
        <time>2019-08-09T12:38:00Z</time>
      </trkpt>
      <trkpt lat="48.34285" lon="7.42222">
        <ele>223.5</ele>
        <time>2019-08-09T12:38:01Z</time>
      </trkpt>
      <trkpt lat="48.34284" lon="7.42218">
        <ele>223.7</ele>
        <time>2019-08-09T12:38:02Z</time>
      </trkpt>
      <trkpt lat="48.34283" lon="7.42213">
        <ele>224</ele>
        <time>2019-08-09T12:38:03Z</time>
      </trkpt>
      <trkpt lat="48.34282" lon="7.42209">
        <ele>224.3</ele>
        <time>2019-08-09T12:38:04Z</time>
      </trkpt>
      <trkpt lat="48.34282" lon="7.42204">
        <ele>224.6</ele>
        <time>2019-08-09T12:38:05Z</time>
      </trkpt>
      <trkpt lat="48.34281" lon="7.42199">
        <ele>225</ele>
        <time>2019-08-09T12:38:06Z</time>
      </trkpt>
      <trkpt lat="48.3428" lon="7.42195">
        <ele>225.3</ele>
        <time>2019-08-09T12:38:07Z</time>
      </trkpt>
      <trkpt lat="48.34278" lon="7.4219">
        <ele>225.7</ele>
        <time>2019-08-09T12:38:08Z</time>
      </trkpt>
      <trkpt lat="48.34277" lon="7.42187">
        <ele>226</ele>
        <time>2019-08-09T12:38:09Z</time>
      </trkpt>
      <trkpt lat="48.34276" lon="7.42182">
        <ele>226.3</ele>
        <time>2019-08-09T12:38:10Z</time>
      </trkpt>
      <trkpt lat="48.34276" lon="7.42178">
        <ele>226.6</ele>
        <time>2019-08-09T12:38:11Z</time>
      </trkpt>
      <trkpt lat="48.34275" lon="7.42174">
        <ele>226.8</ele>
        <time>2019-08-09T12:38:12Z</time>
      </trkpt>
      <trkpt lat="48.34274" lon="7.42169">
        <ele>227</ele>
        <time>2019-08-09T12:38:13Z</time>
      </trkpt>
      <trkpt lat="48.34271" lon="7.42162">
        <ele>227.3</ele>
        <time>2019-08-09T12:38:15Z</time>
      </trkpt>
      <trkpt lat="48.34269" lon="7.42157">
        <ele>227.4</ele>
        <time>2019-08-09T12:38:16Z</time>
      </trkpt>
      <trkpt lat="48.34268" lon="7.42153">
        <ele>227.5</ele>
        <time>2019-08-09T12:38:17Z</time>
      </trkpt>
      <trkpt lat="48.34265" lon="7.42148">
        <ele>227.6</ele>
        <time>2019-08-09T12:38:18Z</time>
      </trkpt>
      <trkpt lat="48.34263" lon="7.42144">
        <ele>227.7</ele>
        <time>2019-08-09T12:38:19Z</time>
      </trkpt>
      <trkpt lat="48.3426" lon="7.42138">
        <ele>227.7</ele>
        <time>2019-08-09T12:38:21Z</time>
      </trkpt>
      <trkpt lat="48.34257" lon="7.42134">
        <ele>227.8</ele>
        <time>2019-08-09T12:38:22Z</time>
      </trkpt>
      <trkpt lat="48.34255" lon="7.42128">
        <ele>227.8</ele>
        <time>2019-08-09T12:38:24Z</time>
      </trkpt>
      <trkpt lat="48.34252" lon="7.4212">
        <ele>227.8</ele>
        <time>2019-08-09T12:38:26Z</time>
      </trkpt>
      <trkpt lat="48.34251" lon="7.42116">
        <ele>227.9</ele>
        <time>2019-08-09T12:38:27Z</time>
      </trkpt>
      <trkpt lat="48.34249" lon="7.42112">
        <ele>227.9</ele>
        <time>2019-08-09T12:38:28Z</time>
      </trkpt>
      <trkpt lat="48.34247" lon="7.42109">
        <ele>227.9</ele>
        <time>2019-08-09T12:38:29Z</time>
      </trkpt>
      <trkpt lat="48.34246" lon="7.42105">
        <ele>228</ele>
        <time>2019-08-09T12:38:30Z</time>
      </trkpt>
      <trkpt lat="48.34244" lon="7.42102">
        <ele>228</ele>
        <time>2019-08-09T12:38:31Z</time>
      </trkpt>
      <trkpt lat="48.34241" lon="7.42098">
        <ele>228.1</ele>
        <time>2019-08-09T12:38:32Z</time>
      </trkpt>
      <trkpt lat="48.34238" lon="7.42093">
        <ele>228.1</ele>
        <time>2019-08-09T12:38:33Z</time>
      </trkpt>
      <trkpt lat="48.34236" lon="7.42091">
        <ele>228.2</ele>
        <time>2019-08-09T12:38:34Z</time>
      </trkpt>
      <trkpt lat="48.34232" lon="7.42085">
        <ele>228.3</ele>
        <time>2019-08-09T12:38:36Z</time>
      </trkpt>
      <trkpt lat="48.3423" lon="7.42082">
        <ele>228.4</ele>
        <time>2019-08-09T12:38:37Z</time>
      </trkpt>
      <trkpt lat="48.34227" lon="7.42079">
        <ele>228.5</ele>
        <time>2019-08-09T12:38:38Z</time>
      </trkpt>
      <trkpt lat="48.34225" lon="7.42076">
        <ele>228.6</ele>
        <time>2019-08-09T12:38:39Z</time>
      </trkpt>
      <trkpt lat="48.34223" lon="7.42072">
        <ele>228.7</ele>
        <time>2019-08-09T12:38:40Z</time>
      </trkpt>
      <trkpt lat="48.34221" lon="7.42068">
        <ele>228.8</ele>
        <time>2019-08-09T12:38:41Z</time>
      </trkpt>
      <trkpt lat="48.34219" lon="7.42064">
        <ele>228.8</ele>
        <time>2019-08-09T12:38:42Z</time>
      </trkpt>
      <trkpt lat="48.34217" lon="7.4206">
        <ele>228.9</ele>
        <time>2019-08-09T12:38:43Z</time>
      </trkpt>
      <trkpt lat="48.34214" lon="7.42054">
        <ele>229</ele>
        <time>2019-08-09T12:38:45Z</time>
      </trkpt>
      <trkpt lat="48.34213" lon="7.4205">
        <ele>229.1</ele>
        <time>2019-08-09T12:38:46Z</time>
      </trkpt>
      <trkpt lat="48.34211" lon="7.42047">
        <ele>229.1</ele>
        <time>2019-08-09T12:38:47Z</time>
      </trkpt>
      <trkpt lat="48.34209" lon="7.42044">
        <ele>229.2</ele>
        <time>2019-08-09T12:38:48Z</time>
      </trkpt>
      <trkpt lat="48.34207" lon="7.4204">
        <ele>229.3</ele>
        <time>2019-08-09T12:38:49Z</time>
      </trkpt>
      <trkpt lat="48.34205" lon="7.42036">
        <ele>229.4</ele>
        <time>2019-08-09T12:38:50Z</time>
      </trkpt>
      <trkpt lat="48.34203" lon="7.42032">
        <ele>229.5</ele>
        <time>2019-08-09T12:38:51Z</time>
      </trkpt>
      <trkpt lat="48.34201" lon="7.42028">
        <ele>229.5</ele>
        <time>2019-08-09T12:38:52Z</time>
      </trkpt>
      <trkpt lat="48.34199" lon="7.42021">
        <ele>229.7</ele>
        <time>2019-08-09T12:38:54Z</time>
      </trkpt>
      <trkpt lat="48.34197" lon="7.42013">
        <ele>229.8</ele>
        <time>2019-08-09T12:38:56Z</time>
      </trkpt>
      <trkpt lat="48.34196" lon="7.42006">
        <ele>229.9</ele>
        <time>2019-08-09T12:38:58Z</time>
      </trkpt>
      <trkpt lat="48.34194" lon="7.42001">
        <ele>229.9</ele>
        <time>2019-08-09T12:38:59Z</time>
      </trkpt>
      <trkpt lat="48.34193" lon="7.41997">
        <ele>230</ele>
        <time>2019-08-09T12:39:00Z</time>
      </trkpt>
      <trkpt lat="48.34192" lon="7.41993">
        <ele>230</ele>
        <time>2019-08-09T12:39:01Z</time>
      </trkpt>
      <trkpt lat="48.34192" lon="7.41989">
        <ele>230</ele>
        <time>2019-08-09T12:39:02Z</time>
      </trkpt>
      <trkpt lat="48.34191" lon="7.41985">
        <ele>230</ele>
        <time>2019-08-09T12:39:03Z</time>
      </trkpt>
      <trkpt lat="48.34189" lon="7.41977">
        <ele>230.1</ele>
        <time>2019-08-09T12:39:05Z</time>
      </trkpt>
      <trkpt lat="48.34187" lon="7.4197">
        <ele>230.1</ele>
        <time>2019-08-09T12:39:07Z</time>
      </trkpt>
      <trkpt lat="48.34186" lon="7.41961">
        <ele>230.1</ele>
        <time>2019-08-09T12:39:09Z</time>
      </trkpt>
      <trkpt lat="48.34185" lon="7.41957">
        <ele>230.2</ele>
        <time>2019-08-09T12:39:10Z</time>
      </trkpt>
      <trkpt lat="48.34182" lon="7.41951">
        <ele>230.3</ele>
        <time>2019-08-09T12:39:12Z</time>
      </trkpt>
      <trkpt lat="48.3418" lon="7.41943">
        <ele>230.4</ele>
        <time>2019-08-09T12:39:14Z</time>
      </trkpt>
      <trkpt lat="48.34179" lon="7.41938">
        <ele>230.5</ele>
        <time>2019-08-09T12:39:15Z</time>
      </trkpt>
      <trkpt lat="48.34177" lon="7.4193">
        <ele>230.7</ele>
        <time>2019-08-09T12:39:17Z</time>
      </trkpt>
      <trkpt lat="48.34176" lon="7.41927">
        <ele>230.8</ele>
        <time>2019-08-09T12:39:18Z</time>
      </trkpt>
      <trkpt lat="48.34175" lon="7.41922">
        <ele>231</ele>
        <time>2019-08-09T12:39:19Z</time>
      </trkpt>
      <trkpt lat="48.34174" lon="7.41915">
        <ele>231.3</ele>
        <time>2019-08-09T12:39:21Z</time>
      </trkpt>
      <trkpt lat="48.34173" lon="7.41908">
        <ele>231.6</ele>
        <time>2019-08-09T12:39:23Z</time>
      </trkpt>
      <trkpt lat="48.34173" lon="7.41902">
        <ele>231.9</ele>
        <time>2019-08-09T12:39:25Z</time>
      </trkpt>
      <trkpt lat="48.34173" lon="7.41896">
        <ele>232.2</ele>
        <time>2019-08-09T12:39:27Z</time>
      </trkpt>
      <trkpt lat="48.34171" lon="7.41888">
        <ele>232.6</ele>
        <time>2019-08-09T12:39:29Z</time>
      </trkpt>
      <trkpt lat="48.3417" lon="7.41882">
        <ele>233</ele>
        <time>2019-08-09T12:39:31Z</time>
      </trkpt>
      <trkpt lat="48.34169" lon="7.41874">
        <ele>233.6</ele>
        <time>2019-08-09T12:39:33Z</time>
      </trkpt>
      <trkpt lat="48.34168" lon="7.41869">
        <ele>234.2</ele>
        <time>2019-08-09T12:39:34Z</time>
      </trkpt>
      <trkpt lat="48.34167" lon="7.41865">
        <ele>234.6</ele>
        <time>2019-08-09T12:39:35Z</time>
      </trkpt>
      <trkpt lat="48.34166" lon="7.41858">
        <ele>235.4</ele>
        <time>2019-08-09T12:39:37Z</time>
      </trkpt>
      <trkpt lat="48.34163" lon="7.41852">
        <ele>236.3</ele>
        <time>2019-08-09T12:39:39Z</time>
      </trkpt>
      <trkpt lat="48.34161" lon="7.41844">
        <ele>236.6</ele>
        <time>2019-08-09T12:39:41Z</time>
      </trkpt>
      <trkpt lat="48.34161" lon="7.41837">
        <ele>236.7</ele>
        <time>2019-08-09T12:39:43Z</time>
      </trkpt>
      <trkpt lat="48.34159" lon="7.41833">
        <ele>236.9</ele>
        <time>2019-08-09T12:39:46Z</time>
      </trkpt>
      <trkpt lat="48.34157" lon="7.41829">
        <ele>237</ele>
        <time>2019-08-09T12:39:48Z</time>
      </trkpt>
      <trkpt lat="48.34156" lon="7.41824">
        <ele>237.1</ele>
        <time>2019-08-09T12:39:50Z</time>
      </trkpt>
      <trkpt lat="48.34156" lon="7.41816">
        <ele>237.2</ele>
        <time>2019-08-09T12:39:52Z</time>
      </trkpt>
      <trkpt lat="48.34155" lon="7.41812">
        <ele>237.3</ele>
        <time>2019-08-09T12:39:55Z</time>
      </trkpt>
      <trkpt lat="48.34154" lon="7.41817">
        <ele>237.4</ele>
        <time>2019-08-09T12:40:02Z</time>
      </trkpt>
      <trkpt lat="48.34151" lon="7.41819">
        <ele>237.6</ele>
        <time>2019-08-09T12:40:13Z</time>
      </trkpt>
      <trkpt lat="48.34149" lon="7.41814">
        <ele>237.7</ele>
        <time>2019-08-09T12:40:20Z</time>
      </trkpt>
      <trkpt lat="48.34148" lon="7.41807">
        <ele>237.9</ele>
        <time>2019-08-09T12:40:22Z</time>
      </trkpt>
      <trkpt lat="48.34147" lon="7.41802">
        <ele>238.1</ele>
        <time>2019-08-09T12:40:23Z</time>
      </trkpt>
      <trkpt lat="48.34147" lon="7.41798">
        <ele>238.2</ele>
        <time>2019-08-09T12:40:24Z</time>
      </trkpt>
      <trkpt lat="48.34146" lon="7.41793">
        <ele>238.4</ele>
        <time>2019-08-09T12:40:25Z</time>
      </trkpt>
      <trkpt lat="48.34146" lon="7.41788">
        <ele>238.5</ele>
        <time>2019-08-09T12:40:26Z</time>
      </trkpt>
      <trkpt lat="48.34145" lon="7.41784">
        <ele>238.7</ele>
        <time>2019-08-09T12:40:27Z</time>
      </trkpt>
      <trkpt lat="48.34144" lon="7.4178">
        <ele>238.8</ele>
        <time>2019-08-09T12:40:28Z</time>
      </trkpt>
      <trkpt lat="48.34144" lon="7.41774">
        <ele>239</ele>
        <time>2019-08-09T12:40:29Z</time>
      </trkpt>
      <trkpt lat="48.34141" lon="7.41766">
        <ele>239.3</ele>
        <time>2019-08-09T12:40:31Z</time>
      </trkpt>
      <trkpt lat="48.3414" lon="7.41762">
        <ele>239.5</ele>
        <time>2019-08-09T12:40:32Z</time>
      </trkpt>
      <trkpt lat="48.34138" lon="7.41758">
        <ele>239.6</ele>
        <time>2019-08-09T12:40:33Z</time>
      </trkpt>
      <trkpt lat="48.34137" lon="7.41751">
        <ele>239.9</ele>
        <time>2019-08-09T12:40:35Z</time>
      </trkpt>
      <trkpt lat="48.34135" lon="7.41747">
        <ele>240</ele>
        <time>2019-08-09T12:40:36Z</time>
      </trkpt>
      <trkpt lat="48.34132" lon="7.41741">
        <ele>240.2</ele>
        <time>2019-08-09T12:40:38Z</time>
      </trkpt>
      <trkpt lat="48.3413" lon="7.41737">
        <ele>240.3</ele>
        <time>2019-08-09T12:40:39Z</time>
      </trkpt>
      <trkpt lat="48.34128" lon="7.4173">
        <ele>240.6</ele>
        <time>2019-08-09T12:40:41Z</time>
      </trkpt>
      <trkpt lat="48.34128" lon="7.41726">
        <ele>240.7</ele>
        <time>2019-08-09T12:40:42Z</time>
      </trkpt>
      <trkpt lat="48.34127" lon="7.41722">
        <ele>240.8</ele>
        <time>2019-08-09T12:40:43Z</time>
      </trkpt>
      <trkpt lat="48.34128" lon="7.41714">
        <ele>240.9</ele>
        <time>2019-08-09T12:40:45Z</time>
      </trkpt>
      <trkpt lat="48.34129" lon="7.41709">
        <ele>241</ele>
        <time>2019-08-09T12:40:46Z</time>
      </trkpt>
      <trkpt lat="48.3413" lon="7.41704">
        <ele>241.1</ele>
        <time>2019-08-09T12:40:47Z</time>
      </trkpt>
      <trkpt lat="48.3413" lon="7.41699">
        <ele>241.2</ele>
        <time>2019-08-09T12:40:48Z</time>
      </trkpt>
      <trkpt lat="48.34131" lon="7.41695">
        <ele>241.4</ele>
        <time>2019-08-09T12:40:49Z</time>
      </trkpt>
      <trkpt lat="48.34131" lon="7.41691">
        <ele>241.5</ele>
        <time>2019-08-09T12:40:50Z</time>
      </trkpt>
      <trkpt lat="48.34131" lon="7.41686">
        <ele>241.6</ele>
        <time>2019-08-09T12:40:51Z</time>
      </trkpt>
      <trkpt lat="48.34132" lon="7.41682">
        <ele>241.7</ele>
        <time>2019-08-09T12:40:52Z</time>
      </trkpt>
      <trkpt lat="48.34134" lon="7.41678">
        <ele>241.9</ele>
        <time>2019-08-09T12:40:53Z</time>
      </trkpt>
      <trkpt lat="48.34136" lon="7.41671">
        <ele>242.1</ele>
        <time>2019-08-09T12:40:55Z</time>
      </trkpt>
      <trkpt lat="48.34138" lon="7.41664">
        <ele>242.4</ele>
        <time>2019-08-09T12:40:57Z</time>
      </trkpt>
      <trkpt lat="48.34138" lon="7.41656">
        <ele>242.6</ele>
        <time>2019-08-09T12:40:59Z</time>
      </trkpt>
      <trkpt lat="48.34138" lon="7.41651">
        <ele>242.7</ele>
        <time>2019-08-09T12:41:00Z</time>
      </trkpt>
      <trkpt lat="48.34138" lon="7.41646">
        <ele>242.9</ele>
        <time>2019-08-09T12:41:01Z</time>
      </trkpt>
      <trkpt lat="48.34138" lon="7.41642">
        <ele>243</ele>
        <time>2019-08-09T12:41:02Z</time>
      </trkpt>
      <trkpt lat="48.34139" lon="7.41634">
        <ele>243.2</ele>
        <time>2019-08-09T12:41:04Z</time>
      </trkpt>
      <trkpt lat="48.3414" lon="7.41629">
        <ele>243.4</ele>
        <time>2019-08-09T12:41:05Z</time>
      </trkpt>
      <trkpt lat="48.34139" lon="7.41624">
        <ele>243.5</ele>
        <time>2019-08-09T12:41:06Z</time>
      </trkpt>
      <trkpt lat="48.3414" lon="7.41616">
        <ele>243.7</ele>
        <time>2019-08-09T12:41:08Z</time>
      </trkpt>
      <trkpt lat="48.3414" lon="7.41612">
        <ele>243.9</ele>
        <time>2019-08-09T12:41:09Z</time>
      </trkpt>
      <trkpt lat="48.34139" lon="7.41608">
        <ele>244</ele>
        <time>2019-08-09T12:41:10Z</time>
      </trkpt>
      <trkpt lat="48.34138" lon="7.41604">
        <ele>244.1</ele>
        <time>2019-08-09T12:41:11Z</time>
      </trkpt>
      <trkpt lat="48.34137" lon="7.41597">
        <ele>244.4</ele>
        <time>2019-08-09T12:41:13Z</time>
      </trkpt>
      <trkpt lat="48.34135" lon="7.41589">
        <ele>244.7</ele>
        <time>2019-08-09T12:41:15Z</time>
      </trkpt>
      <trkpt lat="48.34134" lon="7.41585">
        <ele>244.9</ele>
        <time>2019-08-09T12:41:16Z</time>
      </trkpt>
      <trkpt lat="48.34133" lon="7.41578">
        <ele>245.2</ele>
        <time>2019-08-09T12:41:18Z</time>
      </trkpt>
      <trkpt lat="48.34132" lon="7.4157">
        <ele>245.5</ele>
        <time>2019-08-09T12:41:20Z</time>
      </trkpt>
      <trkpt lat="48.34131" lon="7.41566">
        <ele>245.7</ele>
        <time>2019-08-09T12:41:21Z</time>
      </trkpt>
      <trkpt lat="48.34129" lon="7.41562">
        <ele>245.9</ele>
        <time>2019-08-09T12:41:22Z</time>
      </trkpt>
      <trkpt lat="48.34128" lon="7.41554">
        <ele>246.3</ele>
        <time>2019-08-09T12:41:24Z</time>
      </trkpt>
      <trkpt lat="48.34127" lon="7.41548">
        <ele>246.7</ele>
        <time>2019-08-09T12:41:26Z</time>
      </trkpt>
      <trkpt lat="48.34125" lon="7.41543">
        <ele>247.1</ele>
        <time>2019-08-09T12:41:28Z</time>
      </trkpt>
      <trkpt lat="48.34123" lon="7.41539">
        <ele>247.3</ele>
        <time>2019-08-09T12:41:29Z</time>
      </trkpt>
      <trkpt lat="48.34122" lon="7.41535">
        <ele>247.6</ele>
        <time>2019-08-09T12:41:30Z</time>
      </trkpt>
      <trkpt lat="48.34122" lon="7.41528">
        <ele>248</ele>
        <time>2019-08-09T12:41:32Z</time>
      </trkpt>
      <trkpt lat="48.34119" lon="7.41522">
        <ele>248.4</ele>
        <time>2019-08-09T12:41:34Z</time>
      </trkpt>
      <trkpt lat="48.34117" lon="7.41515">
        <ele>248.9</ele>
        <time>2019-08-09T12:41:36Z</time>
      </trkpt>
      <trkpt lat="48.34116" lon="7.41508">
        <ele>249.2</ele>
        <time>2019-08-09T12:41:38Z</time>
      </trkpt>
      <trkpt lat="48.34113" lon="7.41502">
        <ele>249.6</ele>
        <time>2019-08-09T12:41:40Z</time>
      </trkpt>
      <trkpt lat="48.34111" lon="7.41499">
        <ele>249.9</ele>
        <time>2019-08-09T12:41:41Z</time>
      </trkpt>
      <trkpt lat="48.3411" lon="7.41494">
        <ele>250.1</ele>
        <time>2019-08-09T12:41:42Z</time>
      </trkpt>
      <trkpt lat="48.34109" lon="7.4149">
        <ele>250.4</ele>
        <time>2019-08-09T12:41:43Z</time>
      </trkpt>
      <trkpt lat="48.34108" lon="7.41485">
        <ele>250.7</ele>
        <time>2019-08-09T12:41:45Z</time>
      </trkpt>
      <trkpt lat="48.34106" lon="7.41481">
        <ele>250.9</ele>
        <time>2019-08-09T12:41:46Z</time>
      </trkpt>
      <trkpt lat="48.34105" lon="7.41475">
        <ele>251.5</ele>
        <time>2019-08-09T12:41:48Z</time>
      </trkpt>
      <trkpt lat="48.34105" lon="7.4147">
        <ele>252.1</ele>
        <time>2019-08-09T12:41:50Z</time>
      </trkpt>
      <trkpt lat="48.34105" lon="7.41465">
        <ele>252.7</ele>
        <time>2019-08-09T12:41:52Z</time>
      </trkpt>
      <trkpt lat="48.34106" lon="7.41459">
        <ele>253.4</ele>
        <time>2019-08-09T12:41:53Z</time>
      </trkpt>
      <trkpt lat="48.34104" lon="7.41453">
        <ele>254.3</ele>
        <time>2019-08-09T12:41:56Z</time>
      </trkpt>
      <trkpt lat="48.34102" lon="7.41447">
        <ele>254.7</ele>
        <time>2019-08-09T12:41:58Z</time>
      </trkpt>
      <trkpt lat="48.341" lon="7.4144">
        <ele>255.2</ele>
        <time>2019-08-09T12:42:00Z</time>
      </trkpt>
      <trkpt lat="48.34099" lon="7.41433">
        <ele>255.6</ele>
        <time>2019-08-09T12:42:02Z</time>
      </trkpt>
      <trkpt lat="48.34098" lon="7.41426">
        <ele>256</ele>
        <time>2019-08-09T12:42:04Z</time>
      </trkpt>
      <trkpt lat="48.34098" lon="7.41419">
        <ele>256.4</ele>
        <time>2019-08-09T12:42:06Z</time>
      </trkpt>
      <trkpt lat="48.34099" lon="7.41412">
        <ele>256.8</ele>
        <time>2019-08-09T12:42:08Z</time>
      </trkpt>
      <trkpt lat="48.341" lon="7.41406">
        <ele>257.3</ele>
        <time>2019-08-09T12:42:10Z</time>
      </trkpt>
      <trkpt lat="48.34099" lon="7.41399">
        <ele>257.6</ele>
        <time>2019-08-09T12:42:12Z</time>
      </trkpt>
      <trkpt lat="48.34099" lon="7.41394">
        <ele>257.6</ele>
        <time>2019-08-09T12:42:13Z</time>
      </trkpt>
      <trkpt lat="48.341" lon="7.41387">
        <ele>257.7</ele>
        <time>2019-08-09T12:42:15Z</time>
      </trkpt>
      <trkpt lat="48.341" lon="7.4138">
        <ele>257.8</ele>
        <time>2019-08-09T12:42:17Z</time>
      </trkpt>
      <trkpt lat="48.341" lon="7.41372">
        <ele>257.9</ele>
        <time>2019-08-09T12:42:19Z</time>
      </trkpt>
      <trkpt lat="48.341" lon="7.41366">
        <ele>258</ele>
        <time>2019-08-09T12:42:21Z</time>
      </trkpt>
      <trkpt lat="48.34101" lon="7.4136">
        <ele>258.1</ele>
        <time>2019-08-09T12:42:23Z</time>
      </trkpt>
      <trkpt lat="48.34101" lon="7.41353">
        <ele>258.3</ele>
        <time>2019-08-09T12:42:25Z</time>
      </trkpt>
      <trkpt lat="48.34102" lon="7.41347">
        <ele>258.4</ele>
        <time>2019-08-09T12:42:27Z</time>
      </trkpt>
      <trkpt lat="48.34103" lon="7.41341">
        <ele>258.6</ele>
        <time>2019-08-09T12:42:29Z</time>
      </trkpt>
      <trkpt lat="48.34105" lon="7.41335">
        <ele>258.7</ele>
        <time>2019-08-09T12:42:31Z</time>
      </trkpt>
      <trkpt lat="48.34106" lon="7.41329">
        <ele>258.9</ele>
        <time>2019-08-09T12:42:33Z</time>
      </trkpt>
      <trkpt lat="48.34107" lon="7.41322">
        <ele>259</ele>
        <time>2019-08-09T12:42:35Z</time>
      </trkpt>
      <trkpt lat="48.34108" lon="7.41316">
        <ele>259.2</ele>
        <time>2019-08-09T12:42:37Z</time>
      </trkpt>
      <trkpt lat="48.34109" lon="7.4131">
        <ele>259.3</ele>
        <time>2019-08-09T12:42:39Z</time>
      </trkpt>
      <trkpt lat="48.34109" lon="7.41303">
        <ele>259.4</ele>
        <time>2019-08-09T12:42:41Z</time>
      </trkpt>
      <trkpt lat="48.3411" lon="7.41297">
        <ele>259.5</ele>
        <time>2019-08-09T12:42:43Z</time>
      </trkpt>
      <trkpt lat="48.34112" lon="7.4129">
        <ele>259.7</ele>
        <time>2019-08-09T12:42:45Z</time>
      </trkpt>
      <trkpt lat="48.34114" lon="7.41283">
        <ele>259.8</ele>
        <time>2019-08-09T12:42:47Z</time>
      </trkpt>
      <trkpt lat="48.34116" lon="7.41277">
        <ele>259.9</ele>
        <time>2019-08-09T12:42:49Z</time>
      </trkpt>
      <trkpt lat="48.34117" lon="7.4127">
        <ele>260</ele>
        <time>2019-08-09T12:42:51Z</time>
      </trkpt>
      <trkpt lat="48.34119" lon="7.41266">
        <ele>260.1</ele>
        <time>2019-08-09T12:42:52Z</time>
      </trkpt>
      <trkpt lat="48.3412" lon="7.41259">
        <ele>260.2</ele>
        <time>2019-08-09T12:42:54Z</time>
      </trkpt>
      <trkpt lat="48.34121" lon="7.41255">
        <ele>260.2</ele>
        <time>2019-08-09T12:42:55Z</time>
      </trkpt>
      <trkpt lat="48.34121" lon="7.4125">
        <ele>260.3</ele>
        <time>2019-08-09T12:42:56Z</time>
      </trkpt>
      <trkpt lat="48.34122" lon="7.41246">
        <ele>260.3</ele>
        <time>2019-08-09T12:42:57Z</time>
      </trkpt>
      <trkpt lat="48.34123" lon="7.41239">
        <ele>260.4</ele>
        <time>2019-08-09T12:42:59Z</time>
      </trkpt>
      <trkpt lat="48.34125" lon="7.41232">
        <ele>260.6</ele>
        <time>2019-08-09T12:43:01Z</time>
      </trkpt>
      <trkpt lat="48.34125" lon="7.41226">
        <ele>260.7</ele>
        <time>2019-08-09T12:43:03Z</time>
      </trkpt>
      <trkpt lat="48.34126" lon="7.41219">
        <ele>260.8</ele>
        <time>2019-08-09T12:43:05Z</time>
      </trkpt>
      <trkpt lat="48.34126" lon="7.41212">
        <ele>260.9</ele>
        <time>2019-08-09T12:43:07Z</time>
      </trkpt>
      <trkpt lat="48.34127" lon="7.41207">
        <ele>261</ele>
        <time>2019-08-09T12:43:08Z</time>
      </trkpt>
      <trkpt lat="48.34129" lon="7.41199">
        <ele>261.1</ele>
        <time>2019-08-09T12:43:10Z</time>
      </trkpt>
      <trkpt lat="48.3413" lon="7.41194">
        <ele>261.2</ele>
        <time>2019-08-09T12:43:11Z</time>
      </trkpt>
      <trkpt lat="48.3413" lon="7.41188">
        <ele>261.3</ele>
        <time>2019-08-09T12:43:12Z</time>
      </trkpt>
      <trkpt lat="48.3413" lon="7.41181">
        <ele>261.4</ele>
        <time>2019-08-09T12:43:13Z</time>
      </trkpt>
      <trkpt lat="48.34131" lon="7.41175">
        <ele>261.6</ele>
        <time>2019-08-09T12:43:14Z</time>
      </trkpt>
      <trkpt lat="48.34132" lon="7.41169">
        <ele>261.8</ele>
        <time>2019-08-09T12:43:15Z</time>
      </trkpt>
      <trkpt lat="48.34133" lon="7.41163">
        <ele>262</ele>
        <time>2019-08-09T12:43:16Z</time>
      </trkpt>
      <trkpt lat="48.34133" lon="7.41157">
        <ele>262.3</ele>
        <time>2019-08-09T12:43:17Z</time>
      </trkpt>
      <trkpt lat="48.34134" lon="7.41152">
        <ele>262.5</ele>
        <time>2019-08-09T12:43:18Z</time>
      </trkpt>
      <trkpt lat="48.34134" lon="7.41144">
        <ele>262.9</ele>
        <time>2019-08-09T12:43:20Z</time>
      </trkpt>
      <trkpt lat="48.34134" lon="7.4114">
        <ele>263.1</ele>
        <time>2019-08-09T12:43:21Z</time>
      </trkpt>
      <trkpt lat="48.34134" lon="7.41132">
        <ele>263.5</ele>
        <time>2019-08-09T12:43:23Z</time>
      </trkpt>
      <trkpt lat="48.34135" lon="7.41127">
        <ele>264</ele>
        <time>2019-08-09T12:43:25Z</time>
      </trkpt>
      <trkpt lat="48.34137" lon="7.41121">
        <ele>264.5</ele>
        <time>2019-08-09T12:43:27Z</time>
      </trkpt>
      <trkpt lat="48.34141" lon="7.41115">
        <ele>264.8</ele>
        <time>2019-08-09T12:43:29Z</time>
      </trkpt>
      <trkpt lat="48.34144" lon="7.41111">
        <ele>265</ele>
        <time>2019-08-09T12:43:31Z</time>
      </trkpt>
      <trkpt lat="48.34147" lon="7.41106">
        <ele>265.2</ele>
        <time>2019-08-09T12:43:33Z</time>
      </trkpt>
      <trkpt lat="48.34151" lon="7.41102">
        <ele>265.5</ele>
        <time>2019-08-09T12:43:35Z</time>
      </trkpt>
      <trkpt lat="48.34155" lon="7.41098">
        <ele>265.7</ele>
        <time>2019-08-09T12:43:37Z</time>
      </trkpt>
      <trkpt lat="48.34157" lon="7.41095">
        <ele>265.9</ele>
        <time>2019-08-09T12:43:38Z</time>
      </trkpt>
      <trkpt lat="48.34161" lon="7.41092">
        <ele>266.1</ele>
        <time>2019-08-09T12:43:40Z</time>
      </trkpt>
      <trkpt lat="48.34165" lon="7.41088">
        <ele>266.4</ele>
        <time>2019-08-09T12:43:42Z</time>
      </trkpt>
      <trkpt lat="48.3417" lon="7.41087">
        <ele>266.6</ele>
        <time>2019-08-09T12:43:44Z</time>
      </trkpt>
      <trkpt lat="48.34173" lon="7.41084">
        <ele>266.8</ele>
        <time>2019-08-09T12:43:46Z</time>
      </trkpt>
      <trkpt lat="48.34177" lon="7.4108">
        <ele>267.1</ele>
        <time>2019-08-09T12:43:48Z</time>
      </trkpt>
      <trkpt lat="48.34181" lon="7.41077">
        <ele>267.3</ele>
        <time>2019-08-09T12:43:50Z</time>
      </trkpt>
      <trkpt lat="48.34184" lon="7.41074">
        <ele>267.5</ele>
        <time>2019-08-09T12:43:51Z</time>
      </trkpt>
      <trkpt lat="48.34189" lon="7.41069">
        <ele>267.9</ele>
        <time>2019-08-09T12:43:53Z</time>
      </trkpt>
      <trkpt lat="48.34192" lon="7.41066">
        <ele>268.2</ele>
        <time>2019-08-09T12:43:54Z</time>
      </trkpt>
      <trkpt lat="48.34194" lon="7.41063">
        <ele>268.4</ele>
        <time>2019-08-09T12:43:55Z</time>
      </trkpt>
      <trkpt lat="48.34197" lon="7.41059">
        <ele>268.7</ele>
        <time>2019-08-09T12:43:57Z</time>
      </trkpt>
      <trkpt lat="48.34199" lon="7.41055">
        <ele>268.9</ele>
        <time>2019-08-09T12:43:58Z</time>
      </trkpt>
      <trkpt lat="48.34202" lon="7.41052">
        <ele>269.1</ele>
        <time>2019-08-09T12:43:59Z</time>
      </trkpt>
      <trkpt lat="48.34206" lon="7.41047">
        <ele>269.4</ele>
        <time>2019-08-09T12:44:01Z</time>
      </trkpt>
      <trkpt lat="48.3421" lon="7.41044">
        <ele>269.6</ele>
        <time>2019-08-09T12:44:02Z</time>
      </trkpt>
      <trkpt lat="48.34212" lon="7.41041">
        <ele>269.8</ele>
        <time>2019-08-09T12:44:03Z</time>
      </trkpt>
      <trkpt lat="48.34214" lon="7.41038">
        <ele>270</ele>
        <time>2019-08-09T12:44:04Z</time>
      </trkpt>
      <trkpt lat="48.34218" lon="7.41032">
        <ele>270.3</ele>
        <time>2019-08-09T12:44:06Z</time>
      </trkpt>
      <trkpt lat="48.34218" lon="7.41027">
        <ele>270.1</ele>
        <time>2019-08-09T12:44:08Z</time>
      </trkpt>
      <trkpt lat="48.34217" lon="7.41023">
        <ele>270</ele>
        <time>2019-08-09T12:44:12Z</time>
      </trkpt>
      <trkpt lat="48.34216" lon="7.41019">
        <ele>269.9</ele>
        <time>2019-08-09T12:44:13Z</time>
      </trkpt>
      <trkpt lat="48.34214" lon="7.41016">
        <ele>269.7</ele>
        <time>2019-08-09T12:44:15Z</time>
      </trkpt>
      <trkpt lat="48.34211" lon="7.41018">
        <ele>269.6</ele>
        <time>2019-08-09T12:45:17Z</time>
      </trkpt>
      <trkpt lat="48.34209" lon="7.4102">
        <ele>269.5</ele>
        <time>2019-08-09T12:45:18Z</time>
      </trkpt>
      <trkpt lat="48.34206" lon="7.41026">
        <ele>269.3</ele>
        <time>2019-08-09T12:45:19Z</time>
      </trkpt>
      <trkpt lat="48.34203" lon="7.41028">
        <ele>269.1</ele>
        <time>2019-08-09T12:45:20Z</time>
      </trkpt>
      <trkpt lat="48.342" lon="7.4103">
        <ele>268.9</ele>
        <time>2019-08-09T12:45:21Z</time>
      </trkpt>
      <trkpt lat="48.34197" lon="7.41034">
        <ele>268.6</ele>
        <time>2019-08-09T12:45:22Z</time>
      </trkpt>
      <trkpt lat="48.34194" lon="7.41039">
        <ele>268.4</ele>
        <time>2019-08-09T12:45:23Z</time>
      </trkpt>
      <trkpt lat="48.3419" lon="7.41044">
        <ele>268.1</ele>
        <time>2019-08-09T12:45:24Z</time>
      </trkpt>
      <trkpt lat="48.34187" lon="7.41048">
        <ele>267.8</ele>
        <time>2019-08-09T12:45:25Z</time>
      </trkpt>
      <trkpt lat="48.34182" lon="7.41051">
        <ele>267.5</ele>
        <time>2019-08-09T12:45:26Z</time>
      </trkpt>
      <trkpt lat="48.34179" lon="7.41054">
        <ele>267.3</ele>
        <time>2019-08-09T12:45:27Z</time>
      </trkpt>
      <trkpt lat="48.34174" lon="7.41057">
        <ele>267.1</ele>
        <time>2019-08-09T12:45:28Z</time>
      </trkpt>
      <trkpt lat="48.34169" lon="7.41061">
        <ele>266.9</ele>
        <time>2019-08-09T12:45:29Z</time>
      </trkpt>
      <trkpt lat="48.34163" lon="7.41066">
        <ele>266.6</ele>
        <time>2019-08-09T12:45:30Z</time>
      </trkpt>
      <trkpt lat="48.34158" lon="7.41072">
        <ele>266.3</ele>
        <time>2019-08-09T12:45:31Z</time>
      </trkpt>
      <trkpt lat="48.34153" lon="7.41078">
        <ele>266</ele>
        <time>2019-08-09T12:45:32Z</time>
      </trkpt>
      <trkpt lat="48.34149" lon="7.41085">
        <ele>265.7</ele>
        <time>2019-08-09T12:45:33Z</time>
      </trkpt>
      <trkpt lat="48.34145" lon="7.41093">
        <ele>265.4</ele>
        <time>2019-08-09T12:45:34Z</time>
      </trkpt>
      <trkpt lat="48.34141" lon="7.41102">
        <ele>265.1</ele>
        <time>2019-08-09T12:45:35Z</time>
      </trkpt>
      <trkpt lat="48.34137" lon="7.41112">
        <ele>264.8</ele>
        <time>2019-08-09T12:45:36Z</time>
      </trkpt>
      <trkpt lat="48.34134" lon="7.41121">
        <ele>264.3</ele>
        <time>2019-08-09T12:45:37Z</time>
      </trkpt>
      <trkpt lat="48.34132" lon="7.41131">
        <ele>263.5</ele>
        <time>2019-08-09T12:45:38Z</time>
      </trkpt>
      <trkpt lat="48.3413" lon="7.41139">
        <ele>263</ele>
        <time>2019-08-09T12:45:39Z</time>
      </trkpt>
      <trkpt lat="48.34127" lon="7.41147">
        <ele>262.5</ele>
        <time>2019-08-09T12:45:40Z</time>
      </trkpt>
      <trkpt lat="48.34125" lon="7.41157">
        <ele>262.1</ele>
        <time>2019-08-09T12:45:41Z</time>
      </trkpt>
      <trkpt lat="48.34123" lon="7.41165">
        <ele>261.7</ele>
        <time>2019-08-09T12:45:42Z</time>
      </trkpt>
      <trkpt lat="48.34121" lon="7.41175">
        <ele>261.4</ele>
        <time>2019-08-09T12:45:43Z</time>
      </trkpt>
      <trkpt lat="48.34119" lon="7.41184">
        <ele>261.2</ele>
        <time>2019-08-09T12:45:44Z</time>
      </trkpt>
      <trkpt lat="48.34117" lon="7.41194">
        <ele>261.1</ele>
        <time>2019-08-09T12:45:45Z</time>
      </trkpt>
      <trkpt lat="48.34115" lon="7.41202">
        <ele>261</ele>
        <time>2019-08-09T12:45:46Z</time>
      </trkpt>
      <trkpt lat="48.34113" lon="7.4121">
        <ele>260.8</ele>
        <time>2019-08-09T12:45:47Z</time>
      </trkpt>
      <trkpt lat="48.34111" lon="7.41219">
        <ele>260.6</ele>
        <time>2019-08-09T12:45:48Z</time>
      </trkpt>
      <trkpt lat="48.34109" lon="7.41227">
        <ele>260.5</ele>
        <time>2019-08-09T12:45:49Z</time>
      </trkpt>
      <trkpt lat="48.34107" lon="7.41235">
        <ele>260.4</ele>
        <time>2019-08-09T12:45:50Z</time>
      </trkpt>
      <trkpt lat="48.34105" lon="7.41246">
        <ele>260.2</ele>
        <time>2019-08-09T12:45:51Z</time>
      </trkpt>
      <trkpt lat="48.34103" lon="7.41255">
        <ele>260.1</ele>
        <time>2019-08-09T12:45:52Z</time>
      </trkpt>
      <trkpt lat="48.34102" lon="7.41265">
        <ele>259.9</ele>
        <time>2019-08-09T12:45:53Z</time>
      </trkpt>
      <trkpt lat="48.341" lon="7.41273">
        <ele>259.8</ele>
        <time>2019-08-09T12:45:54Z</time>
      </trkpt>
      <trkpt lat="48.34099" lon="7.41283">
        <ele>259.6</ele>
        <time>2019-08-09T12:45:55Z</time>
      </trkpt>
      <trkpt lat="48.34098" lon="7.41293">
        <ele>259.4</ele>
        <time>2019-08-09T12:45:56Z</time>
      </trkpt>
      <trkpt lat="48.34097" lon="7.41304">
        <ele>259.2</ele>
        <time>2019-08-09T12:45:57Z</time>
      </trkpt>
      <trkpt lat="48.34097" lon="7.41312">
        <ele>259</ele>
        <time>2019-08-09T12:45:58Z</time>
      </trkpt>
      <trkpt lat="48.34094" lon="7.41322">
        <ele>258.8</ele>
        <time>2019-08-09T12:45:59Z</time>
      </trkpt>
      <trkpt lat="48.34093" lon="7.41333">
        <ele>258.5</ele>
        <time>2019-08-09T12:46:00Z</time>
      </trkpt>
      <trkpt lat="48.34092" lon="7.41343">
        <ele>258.3</ele>
        <time>2019-08-09T12:46:01Z</time>
      </trkpt>
      <trkpt lat="48.34092" lon="7.41354">
        <ele>258.1</ele>
        <time>2019-08-09T12:46:02Z</time>
      </trkpt>
      <trkpt lat="48.34092" lon="7.41363">
        <ele>258</ele>
        <time>2019-08-09T12:46:03Z</time>
      </trkpt>
      <trkpt lat="48.34091" lon="7.41373">
        <ele>257.9</ele>
        <time>2019-08-09T12:46:04Z</time>
      </trkpt>
      <trkpt lat="48.3409" lon="7.41383">
        <ele>257.7</ele>
        <time>2019-08-09T12:46:05Z</time>
      </trkpt>
      <trkpt lat="48.34091" lon="7.41395">
        <ele>257.6</ele>
        <time>2019-08-09T12:46:06Z</time>
      </trkpt>
      <trkpt lat="48.3409" lon="7.41408">
        <ele>257</ele>
        <time>2019-08-09T12:46:07Z</time>
      </trkpt>
      <trkpt lat="48.34089" lon="7.41422">
        <ele>256.2</ele>
        <time>2019-08-09T12:46:08Z</time>
      </trkpt>
      <trkpt lat="48.3409" lon="7.41434">
        <ele>255.5</ele>
        <time>2019-08-09T12:46:09Z</time>
      </trkpt>
      <trkpt lat="48.34091" lon="7.41445">
        <ele>254.8</ele>
        <time>2019-08-09T12:46:10Z</time>
      </trkpt>
      <trkpt lat="48.34094" lon="7.4146">
        <ele>253.4</ele>
        <time>2019-08-09T12:46:11Z</time>
      </trkpt>
      <trkpt lat="48.34098" lon="7.41474">
        <ele>251.6</ele>
        <time>2019-08-09T12:46:12Z</time>
      </trkpt>
      <trkpt lat="48.34102" lon="7.41487">
        <ele>250.5</ele>
        <time>2019-08-09T12:46:13Z</time>
      </trkpt>
      <trkpt lat="48.34106" lon="7.415">
        <ele>249.7</ele>
        <time>2019-08-09T12:46:14Z</time>
      </trkpt>
      <trkpt lat="48.34111" lon="7.41513">
        <ele>248.9</ele>
        <time>2019-08-09T12:46:15Z</time>
      </trkpt>
      <trkpt lat="48.34115" lon="7.41526">
        <ele>248.2</ele>
        <time>2019-08-09T12:46:16Z</time>
      </trkpt>
      <trkpt lat="48.34119" lon="7.41538">
        <ele>247.4</ele>
        <time>2019-08-09T12:46:17Z</time>
      </trkpt>
      <trkpt lat="48.34122" lon="7.4155">
        <ele>246.6</ele>
        <time>2019-08-09T12:46:18Z</time>
      </trkpt>
      <trkpt lat="48.34124" lon="7.41562">
        <ele>245.9</ele>
        <time>2019-08-09T12:46:19Z</time>
      </trkpt>
      <trkpt lat="48.34125" lon="7.41572">
        <ele>245.5</ele>
        <time>2019-08-09T12:46:20Z</time>
      </trkpt>
      <trkpt lat="48.34128" lon="7.4158">
        <ele>245.1</ele>
        <time>2019-08-09T12:46:21Z</time>
      </trkpt>
      <trkpt lat="48.34129" lon="7.41587">
        <ele>244.8</ele>
        <time>2019-08-09T12:46:22Z</time>
      </trkpt>
      <trkpt lat="48.34131" lon="7.41594">
        <ele>244.5</ele>
        <time>2019-08-09T12:46:23Z</time>
      </trkpt>
      <trkpt lat="48.34133" lon="7.41602">
        <ele>244.2</ele>
        <time>2019-08-09T12:46:24Z</time>
      </trkpt>
      <trkpt lat="48.34134" lon="7.41609">
        <ele>244</ele>
        <time>2019-08-09T12:46:25Z</time>
      </trkpt>
      <trkpt lat="48.34136" lon="7.41616">
        <ele>243.8</ele>
        <time>2019-08-09T12:46:26Z</time>
      </trkpt>
      <trkpt lat="48.34137" lon="7.41622">
        <ele>243.6</ele>
        <time>2019-08-09T12:46:27Z</time>
      </trkpt>
      <trkpt lat="48.34138" lon="7.41628">
        <ele>243.4</ele>
        <time>2019-08-09T12:46:28Z</time>
      </trkpt>
      <trkpt lat="48.34139" lon="7.41635">
        <ele>243.2</ele>
        <time>2019-08-09T12:46:29Z</time>
      </trkpt>
      <trkpt lat="48.34139" lon="7.41643">
        <ele>243</ele>
        <time>2019-08-09T12:46:30Z</time>
      </trkpt>
      <trkpt lat="48.34139" lon="7.4165">
        <ele>242.8</ele>
        <time>2019-08-09T12:46:31Z</time>
      </trkpt>
      <trkpt lat="48.34139" lon="7.41658">
        <ele>242.5</ele>
        <time>2019-08-09T12:46:32Z</time>
      </trkpt>
      <trkpt lat="48.34138" lon="7.41666">
        <ele>242.3</ele>
        <time>2019-08-09T12:46:33Z</time>
      </trkpt>
      <trkpt lat="48.34138" lon="7.41673">
        <ele>242</ele>
        <time>2019-08-09T12:46:34Z</time>
      </trkpt>
      <trkpt lat="48.34138" lon="7.4168">
        <ele>241.8</ele>
        <time>2019-08-09T12:46:35Z</time>
      </trkpt>
      <trkpt lat="48.34137" lon="7.41687">
        <ele>241.5</ele>
        <time>2019-08-09T12:46:36Z</time>
      </trkpt>
      <trkpt lat="48.34136" lon="7.41694">
        <ele>241.3</ele>
        <time>2019-08-09T12:46:37Z</time>
      </trkpt>
      <trkpt lat="48.34135" lon="7.41701">
        <ele>241.1</ele>
        <time>2019-08-09T12:46:38Z</time>
      </trkpt>
      <trkpt lat="48.34134" lon="7.41707">
        <ele>241</ele>
        <time>2019-08-09T12:46:39Z</time>
      </trkpt>
      <trkpt lat="48.34132" lon="7.41713">
        <ele>240.8</ele>
        <time>2019-08-09T12:46:40Z</time>
      </trkpt>
      <trkpt lat="48.34132" lon="7.4172">
        <ele>240.7</ele>
        <time>2019-08-09T12:46:41Z</time>
      </trkpt>
      <trkpt lat="48.34132" lon="7.41727">
        <ele>240.5</ele>
        <time>2019-08-09T12:46:42Z</time>
      </trkpt>
      <trkpt lat="48.34132" lon="7.41734">
        <ele>240.2</ele>
        <time>2019-08-09T12:46:43Z</time>
      </trkpt>
      <trkpt lat="48.34134" lon="7.4174">
        <ele>240</ele>
        <time>2019-08-09T12:46:44Z</time>
      </trkpt>
      <trkpt lat="48.34136" lon="7.41746">
        <ele>239.8</ele>
        <time>2019-08-09T12:46:45Z</time>
      </trkpt>
      <trkpt lat="48.34138" lon="7.41753">
        <ele>239.5</ele>
        <time>2019-08-09T12:46:46Z</time>
      </trkpt>
      <trkpt lat="48.34141" lon="7.41759">
        <ele>239.2</ele>
        <time>2019-08-09T12:46:47Z</time>
      </trkpt>
      <trkpt lat="48.34143" lon="7.41767">
        <ele>238.9</ele>
        <time>2019-08-09T12:46:48Z</time>
      </trkpt>
      <trkpt lat="48.34145" lon="7.41774">
        <ele>238.6</ele>
        <time>2019-08-09T12:46:49Z</time>
      </trkpt>
      <trkpt lat="48.34147" lon="7.41781">
        <ele>238.3</ele>
        <time>2019-08-09T12:46:50Z</time>
      </trkpt>
      <trkpt lat="48.34148" lon="7.41789">
        <ele>238.1</ele>
        <time>2019-08-09T12:46:51Z</time>
      </trkpt>
      <trkpt lat="48.34149" lon="7.41797">
        <ele>237.8</ele>
        <time>2019-08-09T12:46:52Z</time>
      </trkpt>
      <trkpt lat="48.3415" lon="7.41805">
        <ele>237.5</ele>
        <time>2019-08-09T12:46:53Z</time>
      </trkpt>
      <trkpt lat="48.3415" lon="7.41814">
        <ele>237.3</ele>
        <time>2019-08-09T12:46:54Z</time>
      </trkpt>
      <trkpt lat="48.34152" lon="7.41821">
        <ele>237.1</ele>
        <time>2019-08-09T12:46:55Z</time>
      </trkpt>
      <trkpt lat="48.34153" lon="7.41827">
        <ele>237</ele>
        <time>2019-08-09T12:46:56Z</time>
      </trkpt>
      <trkpt lat="48.34153" lon="7.41832">
        <ele>236.9</ele>
        <time>2019-08-09T12:46:57Z</time>
      </trkpt>
      <trkpt lat="48.34149" lon="7.41835">
        <ele>237</ele>
        <time>2019-08-09T12:46:58Z</time>
      </trkpt>
      <trkpt lat="48.34145" lon="7.41836">
        <ele>237.1</ele>
        <time>2019-08-09T12:46:59Z</time>
      </trkpt>
      <trkpt lat="48.34141" lon="7.41835">
        <ele>237.1</ele>
        <time>2019-08-09T12:47:00Z</time>
      </trkpt>
      <trkpt lat="48.34137" lon="7.41836">
        <ele>237.2</ele>
        <time>2019-08-09T12:47:01Z</time>
      </trkpt>
      <trkpt lat="48.34133" lon="7.41838">
        <ele>237.3</ele>
        <time>2019-08-09T12:47:02Z</time>
      </trkpt>
      <trkpt lat="48.34129" lon="7.41841">
        <ele>237.4</ele>
        <time>2019-08-09T12:47:03Z</time>
      </trkpt>
      <trkpt lat="48.34126" lon="7.41844">
        <ele>237.4</ele>
        <time>2019-08-09T12:47:04Z</time>
      </trkpt>
      <trkpt lat="48.34122" lon="7.41846">
        <ele>237.5</ele>
        <time>2019-08-09T12:47:05Z</time>
      </trkpt>
      <trkpt lat="48.34119" lon="7.41849">
        <ele>237.6</ele>
        <time>2019-08-09T12:47:06Z</time>
      </trkpt>
      <trkpt lat="48.34115" lon="7.41851">
        <ele>237.7</ele>
        <time>2019-08-09T12:47:07Z</time>
      </trkpt>
      <trkpt lat="48.34112" lon="7.41854">
        <ele>237.8</ele>
        <time>2019-08-09T12:47:08Z</time>
      </trkpt>
      <trkpt lat="48.3411" lon="7.41858">
        <ele>237.8</ele>
        <time>2019-08-09T12:47:09Z</time>
      </trkpt>
      <trkpt lat="48.34108" lon="7.41862">
        <ele>237.9</ele>
        <time>2019-08-09T12:47:10Z</time>
      </trkpt>
      <trkpt lat="48.34106" lon="7.41866">
        <ele>238</ele>
        <time>2019-08-09T12:47:11Z</time>
      </trkpt>
      <trkpt lat="48.34103" lon="7.41873">
        <ele>238.1</ele>
        <time>2019-08-09T12:47:13Z</time>
      </trkpt>
      <trkpt lat="48.34102" lon="7.41877">
        <ele>238.1</ele>
        <time>2019-08-09T12:47:14Z</time>
      </trkpt>
      <trkpt lat="48.34101" lon="7.41882">
        <ele>238.1</ele>
        <time>2019-08-09T12:47:15Z</time>
      </trkpt>
      <trkpt lat="48.34099" lon="7.41886">
        <ele>238.1</ele>
        <time>2019-08-09T12:47:16Z</time>
      </trkpt>
      <trkpt lat="48.34098" lon="7.4189">
        <ele>238</ele>
        <time>2019-08-09T12:47:17Z</time>
      </trkpt>
      <trkpt lat="48.34097" lon="7.41894">
        <ele>238</ele>
        <time>2019-08-09T12:47:18Z</time>
      </trkpt>
      <trkpt lat="48.34094" lon="7.41901">
        <ele>238</ele>
        <time>2019-08-09T12:47:20Z</time>
      </trkpt>
      <trkpt lat="48.34093" lon="7.41904">
        <ele>238</ele>
        <time>2019-08-09T12:47:21Z</time>
      </trkpt>
      <trkpt lat="48.34091" lon="7.41907">
        <ele>237.9</ele>
        <time>2019-08-09T12:47:22Z</time>
      </trkpt>
      <trkpt lat="48.34088" lon="7.4191">
        <ele>237.9</ele>
        <time>2019-08-09T12:47:23Z</time>
      </trkpt>
      <trkpt lat="48.34086" lon="7.41913">
        <ele>237.9</ele>
        <time>2019-08-09T12:47:24Z</time>
      </trkpt>
      <trkpt lat="48.34084" lon="7.41918">
        <ele>237.9</ele>
        <time>2019-08-09T12:47:25Z</time>
      </trkpt>
      <trkpt lat="48.34083" lon="7.41921">
        <ele>237.9</ele>
        <time>2019-08-09T12:47:26Z</time>
      </trkpt>
      <trkpt lat="48.3408" lon="7.41929">
        <ele>237.8</ele>
        <time>2019-08-09T12:47:28Z</time>
      </trkpt>
      <trkpt lat="48.34079" lon="7.41933">
        <ele>237.8</ele>
        <time>2019-08-09T12:47:29Z</time>
      </trkpt>
      <trkpt lat="48.34077" lon="7.41939">
        <ele>237.8</ele>
        <time>2019-08-09T12:47:31Z</time>
      </trkpt>
      <trkpt lat="48.34074" lon="7.41945">
        <ele>237.8</ele>
        <time>2019-08-09T12:47:33Z</time>
      </trkpt>
      <trkpt lat="48.34071" lon="7.41949">
        <ele>237.7</ele>
        <time>2019-08-09T12:47:34Z</time>
      </trkpt>
      <trkpt lat="48.34069" lon="7.41953">
        <ele>237.7</ele>
        <time>2019-08-09T12:47:35Z</time>
      </trkpt>
      <trkpt lat="48.34067" lon="7.41957">
        <ele>237.6</ele>
        <time>2019-08-09T12:47:36Z</time>
      </trkpt>
      <trkpt lat="48.34065" lon="7.41961">
        <ele>237.6</ele>
        <time>2019-08-09T12:47:37Z</time>
      </trkpt>
      <trkpt lat="48.34061" lon="7.41965">
        <ele>237.6</ele>
        <time>2019-08-09T12:47:39Z</time>
      </trkpt>
      <trkpt lat="48.34056" lon="7.41964">
        <ele>237.5</ele>
        <time>2019-08-09T12:47:41Z</time>
      </trkpt>
      <trkpt lat="48.34052" lon="7.41964">
        <ele>237.4</ele>
        <time>2019-08-09T12:47:42Z</time>
      </trkpt>
      <trkpt lat="48.34046" lon="7.41963">
        <ele>237.5</ele>
        <time>2019-08-09T12:47:43Z</time>
      </trkpt>
      <trkpt lat="48.34042" lon="7.41963">
        <ele>237.6</ele>
        <time>2019-08-09T12:47:44Z</time>
      </trkpt>
      <trkpt lat="48.34037" lon="7.41964">
        <ele>237.6</ele>
        <time>2019-08-09T12:47:45Z</time>
      </trkpt>
      <trkpt lat="48.34033" lon="7.41965">
        <ele>237.6</ele>
        <time>2019-08-09T12:47:46Z</time>
      </trkpt>
      <trkpt lat="48.34029" lon="7.41966">
        <ele>237.5</ele>
        <time>2019-08-09T12:47:47Z</time>
      </trkpt>
      <trkpt lat="48.34025" lon="7.41966">
        <ele>237.5</ele>
        <time>2019-08-09T12:47:48Z</time>
      </trkpt>
      <trkpt lat="48.34021" lon="7.41967">
        <ele>237.3</ele>
        <time>2019-08-09T12:47:49Z</time>
      </trkpt>
      <trkpt lat="48.34017" lon="7.41966">
        <ele>237.1</ele>
        <time>2019-08-09T12:47:50Z</time>
      </trkpt>
      <trkpt lat="48.34013" lon="7.41967">
        <ele>236.8</ele>
        <time>2019-08-09T12:47:51Z</time>
      </trkpt>
      <trkpt lat="48.34009" lon="7.41968">
        <ele>236.6</ele>
        <time>2019-08-09T12:47:52Z</time>
      </trkpt>
      <trkpt lat="48.34006" lon="7.41968">
        <ele>236.4</ele>
        <time>2019-08-09T12:47:53Z</time>
      </trkpt>
      <trkpt lat="48.34002" lon="7.41969">
        <ele>236.3</ele>
        <time>2019-08-09T12:47:54Z</time>
      </trkpt>
      <trkpt lat="48.33998" lon="7.41968">
        <ele>236.1</ele>
        <time>2019-08-09T12:47:55Z</time>
      </trkpt>
      <trkpt lat="48.33994" lon="7.41967">
        <ele>235.9</ele>
        <time>2019-08-09T12:47:56Z</time>
      </trkpt>
      <trkpt lat="48.33989" lon="7.41968">
        <ele>235.7</ele>
        <time>2019-08-09T12:47:57Z</time>
      </trkpt>
      <trkpt lat="48.33984" lon="7.41969">
        <ele>235.5</ele>
        <time>2019-08-09T12:47:58Z</time>
      </trkpt>
      <trkpt lat="48.33979" lon="7.41969">
        <ele>235.4</ele>
        <time>2019-08-09T12:47:59Z</time>
      </trkpt>
      <trkpt lat="48.33975" lon="7.41969">
        <ele>235.2</ele>
        <time>2019-08-09T12:48:00Z</time>
      </trkpt>
      <trkpt lat="48.33972" lon="7.41969">
        <ele>235</ele>
        <time>2019-08-09T12:48:01Z</time>
      </trkpt>
      <trkpt lat="48.33967" lon="7.41968">
        <ele>234.7</ele>
        <time>2019-08-09T12:48:02Z</time>
      </trkpt>
      <trkpt lat="48.33962" lon="7.41969">
        <ele>234.3</ele>
        <time>2019-08-09T12:48:03Z</time>
      </trkpt>
      <trkpt lat="48.33957" lon="7.41969">
        <ele>234.1</ele>
        <time>2019-08-09T12:48:04Z</time>
      </trkpt>
      <trkpt lat="48.33952" lon="7.41969">
        <ele>233.9</ele>
        <time>2019-08-09T12:48:05Z</time>
      </trkpt>
      <trkpt lat="48.33948" lon="7.41967">
        <ele>233.7</ele>
        <time>2019-08-09T12:48:06Z</time>
      </trkpt>
      <trkpt lat="48.33943" lon="7.41966">
        <ele>233.5</ele>
        <time>2019-08-09T12:48:07Z</time>
      </trkpt>
      <trkpt lat="48.33938" lon="7.41964">
        <ele>233.3</ele>
        <time>2019-08-09T12:48:08Z</time>
      </trkpt>
      <trkpt lat="48.33933" lon="7.41962">
        <ele>233</ele>
        <time>2019-08-09T12:48:09Z</time>
      </trkpt>
      <trkpt lat="48.33929" lon="7.4196">
        <ele>232.8</ele>
        <time>2019-08-09T12:48:10Z</time>
      </trkpt>
      <trkpt lat="48.33925" lon="7.41958">
        <ele>232.6</ele>
        <time>2019-08-09T12:48:11Z</time>
      </trkpt>
      <trkpt lat="48.3392" lon="7.41955">
        <ele>232.4</ele>
        <time>2019-08-09T12:48:12Z</time>
      </trkpt>
      <trkpt lat="48.33915" lon="7.41954">
        <ele>232.1</ele>
        <time>2019-08-09T12:48:13Z</time>
      </trkpt>
      <trkpt lat="48.33911" lon="7.41951">
        <ele>231.8</ele>
        <time>2019-08-09T12:48:14Z</time>
      </trkpt>
      <trkpt lat="48.33906" lon="7.41949">
        <ele>231.6</ele>
        <time>2019-08-09T12:48:15Z</time>
      </trkpt>
      <trkpt lat="48.33901" lon="7.41947">
        <ele>231.5</ele>
        <time>2019-08-09T12:48:16Z</time>
      </trkpt>
      <trkpt lat="48.33897" lon="7.41945">
        <ele>231.3</ele>
        <time>2019-08-09T12:48:17Z</time>
      </trkpt>
      <trkpt lat="48.33893" lon="7.41944">
        <ele>231.2</ele>
        <time>2019-08-09T12:48:18Z</time>
      </trkpt>
      <trkpt lat="48.33889" lon="7.41942">
        <ele>231.1</ele>
        <time>2019-08-09T12:48:19Z</time>
      </trkpt>
      <trkpt lat="48.33886" lon="7.4194">
        <ele>231</ele>
        <time>2019-08-09T12:48:20Z</time>
      </trkpt>
      <trkpt lat="48.33883" lon="7.41939">
        <ele>230.9</ele>
        <time>2019-08-09T12:48:21Z</time>
      </trkpt>
      <trkpt lat="48.33878" lon="7.41937">
        <ele>230.8</ele>
        <time>2019-08-09T12:48:22Z</time>
      </trkpt>
      <trkpt lat="48.33874" lon="7.41936">
        <ele>230.6</ele>
        <time>2019-08-09T12:48:23Z</time>
      </trkpt>
      <trkpt lat="48.33869" lon="7.41935">
        <ele>230.5</ele>
        <time>2019-08-09T12:48:24Z</time>
      </trkpt>
      <trkpt lat="48.33863" lon="7.41935">
        <ele>230.9</ele>
        <time>2019-08-09T12:48:25Z</time>
      </trkpt>
      <trkpt lat="48.33859" lon="7.41937">
        <ele>231.3</ele>
        <time>2019-08-09T12:48:26Z</time>
      </trkpt>
      <trkpt lat="48.33854" lon="7.41938">
        <ele>231.5</ele>
        <time>2019-08-09T12:48:27Z</time>
      </trkpt>
      <trkpt lat="48.33849" lon="7.41939">
        <ele>231.8</ele>
        <time>2019-08-09T12:48:28Z</time>
      </trkpt>
      <trkpt lat="48.33845" lon="7.41942">
        <ele>232</ele>
        <time>2019-08-09T12:48:29Z</time>
      </trkpt>
      <trkpt lat="48.3384" lon="7.41944">
        <ele>232.2</ele>
        <time>2019-08-09T12:48:30Z</time>
      </trkpt>
      <trkpt lat="48.33836" lon="7.41947">
        <ele>232.3</ele>
        <time>2019-08-09T12:48:31Z</time>
      </trkpt>
      <trkpt lat="48.33832" lon="7.41951">
        <ele>232.5</ele>
        <time>2019-08-09T12:48:32Z</time>
      </trkpt>
      <trkpt lat="48.33828" lon="7.41953">
        <ele>232.7</ele>
        <time>2019-08-09T12:48:33Z</time>
      </trkpt>
      <trkpt lat="48.33825" lon="7.41956">
        <ele>232.8</ele>
        <time>2019-08-09T12:48:34Z</time>
      </trkpt>
      <trkpt lat="48.33821" lon="7.41958">
        <ele>233</ele>
        <time>2019-08-09T12:48:35Z</time>
      </trkpt>
      <trkpt lat="48.33817" lon="7.41961">
        <ele>233.2</ele>
        <time>2019-08-09T12:48:36Z</time>
      </trkpt>
      <trkpt lat="48.33814" lon="7.41963">
        <ele>233.4</ele>
        <time>2019-08-09T12:48:37Z</time>
      </trkpt>
      <trkpt lat="48.33809" lon="7.41966">
        <ele>233.7</ele>
        <time>2019-08-09T12:48:38Z</time>
      </trkpt>
      <trkpt lat="48.33805" lon="7.41968">
        <ele>233.8</ele>
        <time>2019-08-09T12:48:39Z</time>
      </trkpt>
      <trkpt lat="48.33801" lon="7.41971">
        <ele>234.1</ele>
        <time>2019-08-09T12:48:40Z</time>
      </trkpt>
      <trkpt lat="48.33796" lon="7.41974">
        <ele>234.3</ele>
        <time>2019-08-09T12:48:41Z</time>
      </trkpt>
      <trkpt lat="48.33793" lon="7.41976">
        <ele>234.5</ele>
        <time>2019-08-09T12:48:42Z</time>
      </trkpt>
      <trkpt lat="48.33789" lon="7.41979">
        <ele>234.7</ele>
        <time>2019-08-09T12:48:43Z</time>
      </trkpt>
      <trkpt lat="48.33785" lon="7.41982">
        <ele>234.9</ele>
        <time>2019-08-09T12:48:44Z</time>
      </trkpt>
      <trkpt lat="48.33782" lon="7.41985">
        <ele>235.2</ele>
        <time>2019-08-09T12:48:45Z</time>
      </trkpt>
      <trkpt lat="48.33779" lon="7.41989">
        <ele>235.4</ele>
        <time>2019-08-09T12:48:46Z</time>
      </trkpt>
      <trkpt lat="48.33776" lon="7.41992">
        <ele>235.6</ele>
        <time>2019-08-09T12:48:47Z</time>
      </trkpt>
      <trkpt lat="48.33772" lon="7.41996">
        <ele>235.8</ele>
        <time>2019-08-09T12:48:48Z</time>
      </trkpt>
      <trkpt lat="48.33769" lon="7.42">
        <ele>236</ele>
        <time>2019-08-09T12:48:49Z</time>
      </trkpt>
      <trkpt lat="48.33765" lon="7.42005">
        <ele>236.3</ele>
        <time>2019-08-09T12:48:50Z</time>
      </trkpt>
      <trkpt lat="48.33762" lon="7.4201">
        <ele>236.2</ele>
        <time>2019-08-09T12:48:51Z</time>
      </trkpt>
      <trkpt lat="48.33759" lon="7.42017">
        <ele>236.2</ele>
        <time>2019-08-09T12:48:52Z</time>
      </trkpt>
      <trkpt lat="48.33758" lon="7.42023">
        <ele>236.1</ele>
        <time>2019-08-09T12:48:53Z</time>
      </trkpt>
      <trkpt lat="48.33757" lon="7.42029">
        <ele>236.1</ele>
        <time>2019-08-09T12:48:55Z</time>
      </trkpt>
      <trkpt lat="48.33757" lon="7.42037">
        <ele>236.1</ele>
        <time>2019-08-09T12:48:57Z</time>
      </trkpt>
      <trkpt lat="48.33757" lon="7.42044">
        <ele>236</ele>
        <time>2019-08-09T12:48:58Z</time>
      </trkpt>
      <trkpt lat="48.33756" lon="7.4205">
        <ele>236</ele>
        <time>2019-08-09T12:48:59Z</time>
      </trkpt>
      <trkpt lat="48.33755" lon="7.42055">
        <ele>235.9</ele>
        <time>2019-08-09T12:49:00Z</time>
      </trkpt>
      <trkpt lat="48.33755" lon="7.42063">
        <ele>235.9</ele>
        <time>2019-08-09T12:49:01Z</time>
      </trkpt>
      <trkpt lat="48.33754" lon="7.4207">
        <ele>235.9</ele>
        <time>2019-08-09T12:49:02Z</time>
      </trkpt>
      <trkpt lat="48.33753" lon="7.42076">
        <ele>235.9</ele>
        <time>2019-08-09T12:49:03Z</time>
      </trkpt>
      <trkpt lat="48.33752" lon="7.42083">
        <ele>235.8</ele>
        <time>2019-08-09T12:49:04Z</time>
      </trkpt>
      <trkpt lat="48.33752" lon="7.42089">
        <ele>235.8</ele>
        <time>2019-08-09T12:49:05Z</time>
      </trkpt>
      <trkpt lat="48.33753" lon="7.42093">
        <ele>235.8</ele>
        <time>2019-08-09T12:49:06Z</time>
      </trkpt>
      <trkpt lat="48.33753" lon="7.42102">
        <ele>236</ele>
        <time>2019-08-09T12:49:07Z</time>
      </trkpt>
      <trkpt lat="48.33753" lon="7.42109">
        <ele>236.1</ele>
        <time>2019-08-09T12:49:08Z</time>
      </trkpt>
      <trkpt lat="48.33753" lon="7.42116">
        <ele>236.2</ele>
        <time>2019-08-09T12:49:09Z</time>
      </trkpt>
      <trkpt lat="48.33754" lon="7.42122">
        <ele>236.3</ele>
        <time>2019-08-09T12:49:10Z</time>
      </trkpt>
      <trkpt lat="48.33753" lon="7.42127">
        <ele>236.3</ele>
        <time>2019-08-09T12:49:11Z</time>
      </trkpt>
      <trkpt lat="48.33753" lon="7.42131">
        <ele>236.4</ele>
        <time>2019-08-09T12:49:12Z</time>
      </trkpt>
      <trkpt lat="48.33754" lon="7.42137">
        <ele>236.4</ele>
        <time>2019-08-09T12:49:13Z</time>
      </trkpt>
      <trkpt lat="48.33755" lon="7.42142">
        <ele>236.4</ele>
        <time>2019-08-09T12:49:14Z</time>
      </trkpt>
      <trkpt lat="48.33755" lon="7.42148">
        <ele>236.3</ele>
        <time>2019-08-09T12:49:15Z</time>
      </trkpt>
      <trkpt lat="48.33756" lon="7.42155">
        <ele>236.2</ele>
        <time>2019-08-09T12:49:16Z</time>
      </trkpt>
      <trkpt lat="48.33756" lon="7.42159">
        <ele>236.2</ele>
        <time>2019-08-09T12:49:17Z</time>
      </trkpt>
      <trkpt lat="48.33756" lon="7.42164">
        <ele>236.1</ele>
        <time>2019-08-09T12:49:18Z</time>
      </trkpt>
      <trkpt lat="48.33756" lon="7.4217">
        <ele>236</ele>
        <time>2019-08-09T12:49:19Z</time>
      </trkpt>
      <trkpt lat="48.33755" lon="7.42176">
        <ele>235.9</ele>
        <time>2019-08-09T12:49:20Z</time>
      </trkpt>
      <trkpt lat="48.33755" lon="7.42183">
        <ele>235.8</ele>
        <time>2019-08-09T12:49:21Z</time>
      </trkpt>
      <trkpt lat="48.33755" lon="7.42189">
        <ele>235.7</ele>
        <time>2019-08-09T12:49:22Z</time>
      </trkpt>
      <trkpt lat="48.33755" lon="7.42195">
        <ele>235.6</ele>
        <time>2019-08-09T12:49:23Z</time>
      </trkpt>
      <trkpt lat="48.33754" lon="7.42201">
        <ele>235.6</ele>
        <time>2019-08-09T12:49:24Z</time>
      </trkpt>
      <trkpt lat="48.33754" lon="7.42208">
        <ele>235.5</ele>
        <time>2019-08-09T12:49:25Z</time>
      </trkpt>
      <trkpt lat="48.33754" lon="7.42215">
        <ele>235.3</ele>
        <time>2019-08-09T12:49:26Z</time>
      </trkpt>
      <trkpt lat="48.33754" lon="7.42224">
        <ele>235.1</ele>
        <time>2019-08-09T12:49:27Z</time>
      </trkpt>
      <trkpt lat="48.33754" lon="7.42231">
        <ele>235</ele>
        <time>2019-08-09T12:49:28Z</time>
      </trkpt>
      <trkpt lat="48.33754" lon="7.42238">
        <ele>234.8</ele>
        <time>2019-08-09T12:49:29Z</time>
      </trkpt>
      <trkpt lat="48.33754" lon="7.42246">
        <ele>234.6</ele>
        <time>2019-08-09T12:49:30Z</time>
      </trkpt>
      <trkpt lat="48.33753" lon="7.42254">
        <ele>234.4</ele>
        <time>2019-08-09T12:49:31Z</time>
      </trkpt>
      <trkpt lat="48.33752" lon="7.42262">
        <ele>234.2</ele>
        <time>2019-08-09T12:49:32Z</time>
      </trkpt>
      <trkpt lat="48.33752" lon="7.42271">
        <ele>233.9</ele>
        <time>2019-08-09T12:49:33Z</time>
      </trkpt>
      <trkpt lat="48.33751" lon="7.4228">
        <ele>233.6</ele>
        <time>2019-08-09T12:49:34Z</time>
      </trkpt>
      <trkpt lat="48.33751" lon="7.42288">
        <ele>233.4</ele>
        <time>2019-08-09T12:49:35Z</time>
      </trkpt>
      <trkpt lat="48.3375" lon="7.42297">
        <ele>233.1</ele>
        <time>2019-08-09T12:49:36Z</time>
      </trkpt>
      <trkpt lat="48.33749" lon="7.42305">
        <ele>232.8</ele>
        <time>2019-08-09T12:49:37Z</time>
      </trkpt>
      <trkpt lat="48.33747" lon="7.42314">
        <ele>232.5</ele>
        <time>2019-08-09T12:49:38Z</time>
      </trkpt>
      <trkpt lat="48.33745" lon="7.42322">
        <ele>232.2</ele>
        <time>2019-08-09T12:49:39Z</time>
      </trkpt>
      <trkpt lat="48.33743" lon="7.42332">
        <ele>231.9</ele>
        <time>2019-08-09T12:49:40Z</time>
      </trkpt>
      <trkpt lat="48.33741" lon="7.42343">
        <ele>231.5</ele>
        <time>2019-08-09T12:49:41Z</time>
      </trkpt>
      <trkpt lat="48.33739" lon="7.42355">
        <ele>231</ele>
        <time>2019-08-09T12:49:42Z</time>
      </trkpt>
      <trkpt lat="48.33738" lon="7.42366">
        <ele>230.6</ele>
        <time>2019-08-09T12:49:43Z</time>
      </trkpt>
      <trkpt lat="48.33736" lon="7.42377">
        <ele>230.1</ele>
        <time>2019-08-09T12:49:44Z</time>
      </trkpt>
      <trkpt lat="48.33734" lon="7.42388">
        <ele>229.7</ele>
        <time>2019-08-09T12:49:45Z</time>
      </trkpt>
      <trkpt lat="48.33732" lon="7.42398">
        <ele>229.3</ele>
        <time>2019-08-09T12:49:46Z</time>
      </trkpt>
      <trkpt lat="48.33729" lon="7.4241">
        <ele>228.9</ele>
        <time>2019-08-09T12:49:47Z</time>
      </trkpt>
      <trkpt lat="48.33726" lon="7.42421">
        <ele>228.5</ele>
        <time>2019-08-09T12:49:48Z</time>
      </trkpt>
      <trkpt lat="48.33724" lon="7.42433">
        <ele>228.2</ele>
        <time>2019-08-09T12:49:49Z</time>
      </trkpt>
      <trkpt lat="48.33721" lon="7.42445">
        <ele>227.8</ele>
        <time>2019-08-09T12:49:50Z</time>
      </trkpt>
      <trkpt lat="48.33719" lon="7.42456">
        <ele>227.5</ele>
        <time>2019-08-09T12:49:51Z</time>
      </trkpt>
      <trkpt lat="48.33717" lon="7.42469">
        <ele>227.2</ele>
        <time>2019-08-09T12:49:52Z</time>
      </trkpt>
      <trkpt lat="48.33716" lon="7.42481">
        <ele>226.9</ele>
        <time>2019-08-09T12:49:53Z</time>
      </trkpt>
      <trkpt lat="48.33714" lon="7.42493">
        <ele>226.7</ele>
        <time>2019-08-09T12:49:54Z</time>
      </trkpt>
      <trkpt lat="48.33711" lon="7.42505">
        <ele>226.4</ele>
        <time>2019-08-09T12:49:55Z</time>
      </trkpt>
      <trkpt lat="48.33709" lon="7.42517">
        <ele>226.2</ele>
        <time>2019-08-09T12:49:56Z</time>
      </trkpt>
      <trkpt lat="48.33707" lon="7.42529">
        <ele>226</ele>
        <time>2019-08-09T12:49:57Z</time>
      </trkpt>
      <trkpt lat="48.33704" lon="7.4254">
        <ele>225.8</ele>
        <time>2019-08-09T12:49:58Z</time>
      </trkpt>
      <trkpt lat="48.33701" lon="7.42551">
        <ele>225.6</ele>
        <time>2019-08-09T12:49:59Z</time>
      </trkpt>
      <trkpt lat="48.33699" lon="7.42563">
        <ele>225.4</ele>
        <time>2019-08-09T12:50:00Z</time>
      </trkpt>
      <trkpt lat="48.33696" lon="7.42573">
        <ele>225.2</ele>
        <time>2019-08-09T12:50:01Z</time>
      </trkpt>
      <trkpt lat="48.33694" lon="7.42584">
        <ele>225.1</ele>
        <time>2019-08-09T12:50:02Z</time>
      </trkpt>
      <trkpt lat="48.33692" lon="7.42595">
        <ele>225.1</ele>
        <time>2019-08-09T12:50:03Z</time>
      </trkpt>
      <trkpt lat="48.3369" lon="7.42605">
        <ele>225.1</ele>
        <time>2019-08-09T12:50:04Z</time>
      </trkpt>
      <trkpt lat="48.33687" lon="7.42616">
        <ele>225.1</ele>
        <time>2019-08-09T12:50:05Z</time>
      </trkpt>
      <trkpt lat="48.33685" lon="7.42625">
        <ele>225.3</ele>
        <time>2019-08-09T12:50:06Z</time>
      </trkpt>
      <trkpt lat="48.33682" lon="7.42635">
        <ele>225.2</ele>
        <time>2019-08-09T12:50:07Z</time>
      </trkpt>
      <trkpt lat="48.33679" lon="7.42643">
        <ele>225.2</ele>
        <time>2019-08-09T12:50:08Z</time>
      </trkpt>
      <trkpt lat="48.33675" lon="7.42651">
        <ele>225.1</ele>
        <time>2019-08-09T12:50:09Z</time>
      </trkpt>
      <trkpt lat="48.33672" lon="7.42658">
        <ele>225.2</ele>
        <time>2019-08-09T12:50:10Z</time>
      </trkpt>
      <trkpt lat="48.33667" lon="7.42664">
        <ele>225.2</ele>
        <time>2019-08-09T12:50:11Z</time>
      </trkpt>
      <trkpt lat="48.33662" lon="7.42668">
        <ele>225.3</ele>
        <time>2019-08-09T12:50:12Z</time>
      </trkpt>
      <trkpt lat="48.33657" lon="7.42673">
        <ele>225.4</ele>
        <time>2019-08-09T12:50:13Z</time>
      </trkpt>
      <trkpt lat="48.33652" lon="7.42677">
        <ele>225.5</ele>
        <time>2019-08-09T12:50:14Z</time>
      </trkpt>
      <trkpt lat="48.33647" lon="7.42682">
        <ele>225.5</ele>
        <time>2019-08-09T12:50:15Z</time>
      </trkpt>
      <trkpt lat="48.33642" lon="7.42685">
        <ele>225.5</ele>
        <time>2019-08-09T12:50:16Z</time>
      </trkpt>
      <trkpt lat="48.33638" lon="7.42689">
        <ele>225.5</ele>
        <time>2019-08-09T12:50:17Z</time>
      </trkpt>
      <trkpt lat="48.33633" lon="7.42692">
        <ele>225.6</ele>
        <time>2019-08-09T12:50:18Z</time>
      </trkpt>
      <trkpt lat="48.33629" lon="7.42695">
        <ele>225.6</ele>
        <time>2019-08-09T12:50:19Z</time>
      </trkpt>
      <trkpt lat="48.33624" lon="7.42697">
        <ele>225.6</ele>
        <time>2019-08-09T12:50:20Z</time>
      </trkpt>
      <trkpt lat="48.33619" lon="7.42697">
        <ele>225.6</ele>
        <time>2019-08-09T12:50:21Z</time>
      </trkpt>
      <trkpt lat="48.33615" lon="7.42698">
        <ele>225.7</ele>
        <time>2019-08-09T12:50:22Z</time>
      </trkpt>
      <trkpt lat="48.3361" lon="7.427">
        <ele>225.7</ele>
        <time>2019-08-09T12:50:23Z</time>
      </trkpt>
      <trkpt lat="48.33605" lon="7.42701">
        <ele>225.7</ele>
        <time>2019-08-09T12:50:24Z</time>
      </trkpt>
      <trkpt lat="48.336" lon="7.42701">
        <ele>225.8</ele>
        <time>2019-08-09T12:50:25Z</time>
      </trkpt>
      <trkpt lat="48.33596" lon="7.42702">
        <ele>225.8</ele>
        <time>2019-08-09T12:50:26Z</time>
      </trkpt>
      <trkpt lat="48.33591" lon="7.42701">
        <ele>225.9</ele>
        <time>2019-08-09T12:50:27Z</time>
      </trkpt>
      <trkpt lat="48.33587" lon="7.42701">
        <ele>226</ele>
        <time>2019-08-09T12:50:28Z</time>
      </trkpt>
      <trkpt lat="48.33583" lon="7.42701">
        <ele>226.1</ele>
        <time>2019-08-09T12:50:29Z</time>
      </trkpt>
      <trkpt lat="48.33579" lon="7.427">
        <ele>226.2</ele>
        <time>2019-08-09T12:50:30Z</time>
      </trkpt>
      <trkpt lat="48.33575" lon="7.427">
        <ele>226.4</ele>
        <time>2019-08-09T12:50:31Z</time>
      </trkpt>
      <trkpt lat="48.33571" lon="7.42699">
        <ele>226.6</ele>
        <time>2019-08-09T12:50:32Z</time>
      </trkpt>
      <trkpt lat="48.33566" lon="7.42697">
        <ele>226.8</ele>
        <time>2019-08-09T12:50:33Z</time>
      </trkpt>
      <trkpt lat="48.33562" lon="7.42696">
        <ele>227</ele>
        <time>2019-08-09T12:50:34Z</time>
      </trkpt>
      <trkpt lat="48.33558" lon="7.42695">
        <ele>227.1</ele>
        <time>2019-08-09T12:50:35Z</time>
      </trkpt>
      <trkpt lat="48.33555" lon="7.42694">
        <ele>227.3</ele>
        <time>2019-08-09T12:50:36Z</time>
      </trkpt>
      <trkpt lat="48.33551" lon="7.42693">
        <ele>227.5</ele>
        <time>2019-08-09T12:50:37Z</time>
      </trkpt>
      <trkpt lat="48.33547" lon="7.42692">
        <ele>227.6</ele>
        <time>2019-08-09T12:50:38Z</time>
      </trkpt>
      <trkpt lat="48.33543" lon="7.42691">
        <ele>227.7</ele>
        <time>2019-08-09T12:50:39Z</time>
      </trkpt>
      <trkpt lat="48.33539" lon="7.4269">
        <ele>227.8</ele>
        <time>2019-08-09T12:50:40Z</time>
      </trkpt>
      <trkpt lat="48.33535" lon="7.42689">
        <ele>227.9</ele>
        <time>2019-08-09T12:50:41Z</time>
      </trkpt>
      <trkpt lat="48.33531" lon="7.42688">
        <ele>228</ele>
        <time>2019-08-09T12:50:42Z</time>
      </trkpt>
      <trkpt lat="48.33527" lon="7.42687">
        <ele>228</ele>
        <time>2019-08-09T12:50:43Z</time>
      </trkpt>
      <trkpt lat="48.33522" lon="7.42686">
        <ele>228.1</ele>
        <time>2019-08-09T12:50:44Z</time>
      </trkpt>
      <trkpt lat="48.33518" lon="7.42686">
        <ele>228.2</ele>
        <time>2019-08-09T12:50:45Z</time>
      </trkpt>
      <trkpt lat="48.33514" lon="7.42686">
        <ele>228.2</ele>
        <time>2019-08-09T12:50:46Z</time>
      </trkpt>
      <trkpt lat="48.3351" lon="7.42685">
        <ele>228.3</ele>
        <time>2019-08-09T12:50:47Z</time>
      </trkpt>
      <trkpt lat="48.33506" lon="7.42685">
        <ele>228.4</ele>
        <time>2019-08-09T12:50:48Z</time>
      </trkpt>
      <trkpt lat="48.33502" lon="7.42684">
        <ele>228.5</ele>
        <time>2019-08-09T12:50:49Z</time>
      </trkpt>
      <trkpt lat="48.33497" lon="7.42684">
        <ele>228.7</ele>
        <time>2019-08-09T12:50:50Z</time>
      </trkpt>
      <trkpt lat="48.33493" lon="7.42683">
        <ele>228.9</ele>
        <time>2019-08-09T12:50:51Z</time>
      </trkpt>
      <trkpt lat="48.33487" lon="7.42683">
        <ele>229.1</ele>
        <time>2019-08-09T12:50:52Z</time>
      </trkpt>
      <trkpt lat="48.33483" lon="7.42682">
        <ele>229.3</ele>
        <time>2019-08-09T12:50:53Z</time>
      </trkpt>
      <trkpt lat="48.33478" lon="7.42682">
        <ele>229.6</ele>
        <time>2019-08-09T12:50:54Z</time>
      </trkpt>
      <trkpt lat="48.33473" lon="7.42681">
        <ele>229.7</ele>
        <time>2019-08-09T12:50:55Z</time>
      </trkpt>
      <trkpt lat="48.33469" lon="7.4268">
        <ele>229.9</ele>
        <time>2019-08-09T12:50:56Z</time>
      </trkpt>
      <trkpt lat="48.33463" lon="7.42679">
        <ele>230.1</ele>
        <time>2019-08-09T12:50:57Z</time>
      </trkpt>
      <trkpt lat="48.33458" lon="7.42679">
        <ele>230.2</ele>
        <time>2019-08-09T12:50:58Z</time>
      </trkpt>
      <trkpt lat="48.33454" lon="7.42678">
        <ele>230.3</ele>
        <time>2019-08-09T12:50:59Z</time>
      </trkpt>
      <trkpt lat="48.33449" lon="7.42677">
        <ele>230.3</ele>
        <time>2019-08-09T12:51:00Z</time>
      </trkpt>
      <trkpt lat="48.33443" lon="7.42676">
        <ele>230.4</ele>
        <time>2019-08-09T12:51:01Z</time>
      </trkpt>
      <trkpt lat="48.33438" lon="7.42675">
        <ele>230.4</ele>
        <time>2019-08-09T12:51:02Z</time>
      </trkpt>
      <trkpt lat="48.33433" lon="7.42674">
        <ele>230.4</ele>
        <time>2019-08-09T12:51:03Z</time>
      </trkpt>
      <trkpt lat="48.33429" lon="7.42673">
        <ele>230.5</ele>
        <time>2019-08-09T12:51:04Z</time>
      </trkpt>
      <trkpt lat="48.33424" lon="7.42672">
        <ele>230.5</ele>
        <time>2019-08-09T12:51:05Z</time>
      </trkpt>
      <trkpt lat="48.33418" lon="7.42671">
        <ele>230.5</ele>
        <time>2019-08-09T12:51:06Z</time>
      </trkpt>
      <trkpt lat="48.33413" lon="7.42671">
        <ele>230.5</ele>
        <time>2019-08-09T12:51:07Z</time>
      </trkpt>
      <trkpt lat="48.33408" lon="7.4267">
        <ele>230.6</ele>
        <time>2019-08-09T12:51:08Z</time>
      </trkpt>
      <trkpt lat="48.33403" lon="7.42671">
        <ele>230.6</ele>
        <time>2019-08-09T12:51:09Z</time>
      </trkpt>
      <trkpt lat="48.33399" lon="7.4267">
        <ele>230.6</ele>
        <time>2019-08-09T12:51:10Z</time>
      </trkpt>
      <trkpt lat="48.33395" lon="7.4267">
        <ele>230.6</ele>
        <time>2019-08-09T12:51:11Z</time>
      </trkpt>
      <trkpt lat="48.3339" lon="7.4267">
        <ele>230.6</ele>
        <time>2019-08-09T12:51:12Z</time>
      </trkpt>
      <trkpt lat="48.33385" lon="7.4267">
        <ele>230.7</ele>
        <time>2019-08-09T12:51:13Z</time>
      </trkpt>
      <trkpt lat="48.3338" lon="7.4267">
        <ele>230.7</ele>
        <time>2019-08-09T12:51:14Z</time>
      </trkpt>
      <trkpt lat="48.33375" lon="7.42671">
        <ele>230.7</ele>
        <time>2019-08-09T12:51:15Z</time>
      </trkpt>
      <trkpt lat="48.33371" lon="7.42671">
        <ele>230.7</ele>
        <time>2019-08-09T12:51:16Z</time>
      </trkpt>
      <trkpt lat="48.33367" lon="7.42671">
        <ele>230.8</ele>
        <time>2019-08-09T12:51:17Z</time>
      </trkpt>
      <trkpt lat="48.33362" lon="7.42671">
        <ele>230.8</ele>
        <time>2019-08-09T12:51:18Z</time>
      </trkpt>
      <trkpt lat="48.33358" lon="7.42672">
        <ele>230.8</ele>
        <time>2019-08-09T12:51:19Z</time>
      </trkpt>
      <trkpt lat="48.33353" lon="7.42672">
        <ele>230.8</ele>
        <time>2019-08-09T12:51:20Z</time>
      </trkpt>
      <trkpt lat="48.33348" lon="7.42673">
        <ele>230.8</ele>
        <time>2019-08-09T12:51:21Z</time>
      </trkpt>
      <trkpt lat="48.33344" lon="7.42672">
        <ele>230.9</ele>
        <time>2019-08-09T12:51:22Z</time>
      </trkpt>
      <trkpt lat="48.3334" lon="7.42672">
        <ele>230.9</ele>
        <time>2019-08-09T12:51:23Z</time>
      </trkpt>
      <trkpt lat="48.33336" lon="7.42672">
        <ele>230.9</ele>
        <time>2019-08-09T12:51:24Z</time>
      </trkpt>
      <trkpt lat="48.33331" lon="7.42672">
        <ele>230.9</ele>
        <time>2019-08-09T12:51:25Z</time>
      </trkpt>
      <trkpt lat="48.33327" lon="7.42672">
        <ele>230.9</ele>
        <time>2019-08-09T12:51:26Z</time>
      </trkpt>
      <trkpt lat="48.33322" lon="7.42672">
        <ele>231</ele>
        <time>2019-08-09T12:51:27Z</time>
      </trkpt>
      <trkpt lat="48.33318" lon="7.42672">
        <ele>231</ele>
        <time>2019-08-09T12:51:28Z</time>
      </trkpt>
      <trkpt lat="48.33314" lon="7.42672">
        <ele>231</ele>
        <time>2019-08-09T12:51:29Z</time>
      </trkpt>
      <trkpt lat="48.3331" lon="7.42671">
        <ele>231</ele>
        <time>2019-08-09T12:51:30Z</time>
      </trkpt>
      <trkpt lat="48.33306" lon="7.4267">
        <ele>231</ele>
        <time>2019-08-09T12:51:31Z</time>
      </trkpt>
      <trkpt lat="48.33303" lon="7.4267">
        <ele>231</ele>
        <time>2019-08-09T12:51:32Z</time>
      </trkpt>
      <trkpt lat="48.33298" lon="7.42669">
        <ele>231.1</ele>
        <time>2019-08-09T12:51:33Z</time>
      </trkpt>
      <trkpt lat="48.33294" lon="7.42669">
        <ele>231.1</ele>
        <time>2019-08-09T12:51:34Z</time>
      </trkpt>
      <trkpt lat="48.33288" lon="7.42668">
        <ele>231.1</ele>
        <time>2019-08-09T12:51:35Z</time>
      </trkpt>
      <trkpt lat="48.33283" lon="7.42668">
        <ele>231.1</ele>
        <time>2019-08-09T12:51:36Z</time>
      </trkpt>
      <trkpt lat="48.33278" lon="7.42667">
        <ele>231.2</ele>
        <time>2019-08-09T12:51:37Z</time>
      </trkpt>
      <trkpt lat="48.33273" lon="7.42666">
        <ele>231.2</ele>
        <time>2019-08-09T12:51:38Z</time>
      </trkpt>
      <trkpt lat="48.3327" lon="7.42665">
        <ele>231.2</ele>
        <time>2019-08-09T12:51:39Z</time>
      </trkpt>
      <trkpt lat="48.33266" lon="7.42664">
        <ele>231.2</ele>
        <time>2019-08-09T12:51:40Z</time>
      </trkpt>
      <trkpt lat="48.33262" lon="7.42663">
        <ele>231.2</ele>
        <time>2019-08-09T12:51:41Z</time>
      </trkpt>
      <trkpt lat="48.33258" lon="7.42661">
        <ele>231.2</ele>
        <time>2019-08-09T12:51:42Z</time>
      </trkpt>
      <trkpt lat="48.33253" lon="7.4266">
        <ele>231.2</ele>
        <time>2019-08-09T12:51:43Z</time>
      </trkpt>
      <trkpt lat="48.33248" lon="7.42658">
        <ele>231.2</ele>
        <time>2019-08-09T12:51:44Z</time>
      </trkpt>
      <trkpt lat="48.33244" lon="7.42656">
        <ele>231.1</ele>
        <time>2019-08-09T12:51:45Z</time>
      </trkpt>
      <trkpt lat="48.3324" lon="7.42655">
        <ele>231.1</ele>
        <time>2019-08-09T12:51:46Z</time>
      </trkpt>
      <trkpt lat="48.33237" lon="7.42653">
        <ele>231.1</ele>
        <time>2019-08-09T12:51:47Z</time>
      </trkpt>
      <trkpt lat="48.33234" lon="7.42652">
        <ele>231.1</ele>
        <time>2019-08-09T12:51:48Z</time>
      </trkpt>
      <trkpt lat="48.33231" lon="7.42651">
        <ele>231.1</ele>
        <time>2019-08-09T12:51:49Z</time>
      </trkpt>
      <trkpt lat="48.33229" lon="7.42649">
        <ele>231.1</ele>
        <time>2019-08-09T12:51:50Z</time>
      </trkpt>
      <trkpt lat="48.33225" lon="7.42648">
        <ele>231.1</ele>
        <time>2019-08-09T12:51:51Z</time>
      </trkpt>
      <trkpt lat="48.33222" lon="7.42647">
        <ele>231.1</ele>
        <time>2019-08-09T12:51:52Z</time>
      </trkpt>
      <trkpt lat="48.33218" lon="7.42645">
        <ele>231.2</ele>
        <time>2019-08-09T12:51:53Z</time>
      </trkpt>
      <trkpt lat="48.33215" lon="7.42643">
        <ele>231.2</ele>
        <time>2019-08-09T12:51:54Z</time>
      </trkpt>
      <trkpt lat="48.33211" lon="7.42641">
        <ele>231.2</ele>
        <time>2019-08-09T12:51:55Z</time>
      </trkpt>
      <trkpt lat="48.33207" lon="7.42638">
        <ele>231.2</ele>
        <time>2019-08-09T12:51:56Z</time>
      </trkpt>
      <trkpt lat="48.33204" lon="7.42636">
        <ele>231.2</ele>
        <time>2019-08-09T12:51:57Z</time>
      </trkpt>
      <trkpt lat="48.332" lon="7.42635">
        <ele>231.3</ele>
        <time>2019-08-09T12:51:58Z</time>
      </trkpt>
      <trkpt lat="48.33196" lon="7.42634">
        <ele>231.3</ele>
        <time>2019-08-09T12:51:59Z</time>
      </trkpt>
      <trkpt lat="48.33193" lon="7.42632">
        <ele>231.3</ele>
        <time>2019-08-09T12:52:00Z</time>
      </trkpt>
      <trkpt lat="48.3319" lon="7.4263">
        <ele>231.3</ele>
        <time>2019-08-09T12:52:01Z</time>
      </trkpt>
      <trkpt lat="48.33186" lon="7.42628">
        <ele>231.3</ele>
        <time>2019-08-09T12:52:02Z</time>
      </trkpt>
      <trkpt lat="48.33182" lon="7.42626">
        <ele>231.4</ele>
        <time>2019-08-09T12:52:03Z</time>
      </trkpt>
      <trkpt lat="48.33179" lon="7.42624">
        <ele>231.4</ele>
        <time>2019-08-09T12:52:04Z</time>
      </trkpt>
      <trkpt lat="48.33176" lon="7.42622">
        <ele>231.4</ele>
        <time>2019-08-09T12:52:05Z</time>
      </trkpt>
      <trkpt lat="48.33173" lon="7.4262">
        <ele>231.4</ele>
        <time>2019-08-09T12:52:06Z</time>
      </trkpt>
      <trkpt lat="48.33168" lon="7.42618">
        <ele>231.5</ele>
        <time>2019-08-09T12:52:07Z</time>
      </trkpt>
      <trkpt lat="48.33164" lon="7.42616">
        <ele>231.5</ele>
        <time>2019-08-09T12:52:08Z</time>
      </trkpt>
      <trkpt lat="48.33161" lon="7.42615">
        <ele>231.6</ele>
        <time>2019-08-09T12:52:09Z</time>
      </trkpt>
      <trkpt lat="48.33158" lon="7.42613">
        <ele>231.6</ele>
        <time>2019-08-09T12:52:10Z</time>
      </trkpt>
      <trkpt lat="48.33155" lon="7.42611">
        <ele>231.5</ele>
        <time>2019-08-09T12:52:11Z</time>
      </trkpt>
      <trkpt lat="48.33151" lon="7.42609">
        <ele>231.3</ele>
        <time>2019-08-09T12:52:12Z</time>
      </trkpt>
      <trkpt lat="48.33147" lon="7.42607">
        <ele>231.1</ele>
        <time>2019-08-09T12:52:13Z</time>
      </trkpt>
      <trkpt lat="48.33144" lon="7.42605">
        <ele>230.9</ele>
        <time>2019-08-09T12:52:14Z</time>
      </trkpt>
      <trkpt lat="48.3314" lon="7.42602">
        <ele>230.6</ele>
        <time>2019-08-09T12:52:15Z</time>
      </trkpt>
      <trkpt lat="48.33136" lon="7.42599">
        <ele>230.4</ele>
        <time>2019-08-09T12:52:16Z</time>
      </trkpt>
      <trkpt lat="48.33132" lon="7.42597">
        <ele>230.3</ele>
        <time>2019-08-09T12:52:17Z</time>
      </trkpt>
      <trkpt lat="48.33128" lon="7.42594">
        <ele>230.1</ele>
        <time>2019-08-09T12:52:18Z</time>
      </trkpt>
      <trkpt lat="48.33124" lon="7.42592">
        <ele>229.9</ele>
        <time>2019-08-09T12:52:19Z</time>
      </trkpt>
      <trkpt lat="48.33121" lon="7.4259">
        <ele>229.8</ele>
        <time>2019-08-09T12:52:20Z</time>
      </trkpt>
      <trkpt lat="48.33117" lon="7.42588">
        <ele>229.7</ele>
        <time>2019-08-09T12:52:21Z</time>
      </trkpt>
      <trkpt lat="48.33114" lon="7.42586">
        <ele>229.6</ele>
        <time>2019-08-09T12:52:22Z</time>
      </trkpt>
      <trkpt lat="48.33109" lon="7.42584">
        <ele>229.4</ele>
        <time>2019-08-09T12:52:23Z</time>
      </trkpt>
      <trkpt lat="48.33106" lon="7.42582">
        <ele>229.3</ele>
        <time>2019-08-09T12:52:24Z</time>
      </trkpt>
      <trkpt lat="48.33102" lon="7.42579">
        <ele>229.1</ele>
        <time>2019-08-09T12:52:25Z</time>
      </trkpt>
      <trkpt lat="48.33097" lon="7.42577">
        <ele>229</ele>
        <time>2019-08-09T12:52:26Z</time>
      </trkpt>
      <trkpt lat="48.33093" lon="7.42575">
        <ele>228.9</ele>
        <time>2019-08-09T12:52:27Z</time>
      </trkpt>
      <trkpt lat="48.33088" lon="7.42572">
        <ele>228.8</ele>
        <time>2019-08-09T12:52:28Z</time>
      </trkpt>
      <trkpt lat="48.33084" lon="7.42568">
        <ele>228.7</ele>
        <time>2019-08-09T12:52:29Z</time>
      </trkpt>
      <trkpt lat="48.3308" lon="7.42566">
        <ele>228.6</ele>
        <time>2019-08-09T12:52:30Z</time>
      </trkpt>
      <trkpt lat="48.33076" lon="7.42564">
        <ele>228.5</ele>
        <time>2019-08-09T12:52:31Z</time>
      </trkpt>
      <trkpt lat="48.33071" lon="7.42562">
        <ele>228.3</ele>
        <time>2019-08-09T12:52:32Z</time>
      </trkpt>
      <trkpt lat="48.33066" lon="7.42559">
        <ele>228.2</ele>
        <time>2019-08-09T12:52:33Z</time>
      </trkpt>
      <trkpt lat="48.33062" lon="7.42555">
        <ele>228</ele>
        <time>2019-08-09T12:52:34Z</time>
      </trkpt>
      <trkpt lat="48.33058" lon="7.42552">
        <ele>227.8</ele>
        <time>2019-08-09T12:52:35Z</time>
      </trkpt>
      <trkpt lat="48.33054" lon="7.42549">
        <ele>227.7</ele>
        <time>2019-08-09T12:52:36Z</time>
      </trkpt>
      <trkpt lat="48.3305" lon="7.42544">
        <ele>227.5</ele>
        <time>2019-08-09T12:52:37Z</time>
      </trkpt>
      <trkpt lat="48.33045" lon="7.42539">
        <ele>227.3</ele>
        <time>2019-08-09T12:52:38Z</time>
      </trkpt>
      <trkpt lat="48.33041" lon="7.42535">
        <ele>227.1</ele>
        <time>2019-08-09T12:52:39Z</time>
      </trkpt>
      <trkpt lat="48.33037" lon="7.42531">
        <ele>227</ele>
        <time>2019-08-09T12:52:40Z</time>
      </trkpt>
      <trkpt lat="48.33032" lon="7.42527">
        <ele>226.8</ele>
        <time>2019-08-09T12:52:41Z</time>
      </trkpt>
      <trkpt lat="48.33029" lon="7.42523">
        <ele>226.6</ele>
        <time>2019-08-09T12:52:42Z</time>
      </trkpt>
      <trkpt lat="48.33026" lon="7.42519">
        <ele>226.5</ele>
        <time>2019-08-09T12:52:43Z</time>
      </trkpt>
      <trkpt lat="48.33021" lon="7.42515">
        <ele>226.4</ele>
        <time>2019-08-09T12:52:44Z</time>
      </trkpt>
      <trkpt lat="48.33017" lon="7.4251">
        <ele>226.3</ele>
        <time>2019-08-09T12:52:45Z</time>
      </trkpt>
      <trkpt lat="48.33014" lon="7.42507">
        <ele>226.2</ele>
        <time>2019-08-09T12:52:46Z</time>
      </trkpt>
      <trkpt lat="48.3301" lon="7.42503">
        <ele>226.1</ele>
        <time>2019-08-09T12:52:47Z</time>
      </trkpt>
      <trkpt lat="48.33006" lon="7.42499">
        <ele>226.1</ele>
        <time>2019-08-09T12:52:48Z</time>
      </trkpt>
      <trkpt lat="48.33002" lon="7.42495">
        <ele>226.1</ele>
        <time>2019-08-09T12:52:49Z</time>
      </trkpt>
      <trkpt lat="48.32999" lon="7.42492">
        <ele>226</ele>
        <time>2019-08-09T12:52:50Z</time>
      </trkpt>
      <trkpt lat="48.32994" lon="7.42488">
        <ele>226.1</ele>
        <time>2019-08-09T12:52:51Z</time>
      </trkpt>
      <trkpt lat="48.32991" lon="7.42485">
        <ele>226.2</ele>
        <time>2019-08-09T12:52:52Z</time>
      </trkpt>
      <trkpt lat="48.32988" lon="7.42482">
        <ele>226.2</ele>
        <time>2019-08-09T12:52:53Z</time>
      </trkpt>
      <trkpt lat="48.32984" lon="7.4248">
        <ele>226.3</ele>
        <time>2019-08-09T12:52:54Z</time>
      </trkpt>
      <trkpt lat="48.3298" lon="7.42477">
        <ele>226.3</ele>
        <time>2019-08-09T12:52:55Z</time>
      </trkpt>
      <trkpt lat="48.32976" lon="7.42473">
        <ele>226.3</ele>
        <time>2019-08-09T12:52:56Z</time>
      </trkpt>
      <trkpt lat="48.32972" lon="7.4247">
        <ele>226.2</ele>
        <time>2019-08-09T12:52:57Z</time>
      </trkpt>
      <trkpt lat="48.32968" lon="7.42467">
        <ele>226.2</ele>
        <time>2019-08-09T12:52:58Z</time>
      </trkpt>
      <trkpt lat="48.32963" lon="7.42464">
        <ele>226.2</ele>
        <time>2019-08-09T12:52:59Z</time>
      </trkpt>
      <trkpt lat="48.32958" lon="7.42461">
        <ele>226.2</ele>
        <time>2019-08-09T12:53:00Z</time>
      </trkpt>
      <trkpt lat="48.32954" lon="7.42458">
        <ele>226.2</ele>
        <time>2019-08-09T12:53:01Z</time>
      </trkpt>
      <trkpt lat="48.32949" lon="7.42455">
        <ele>226.1</ele>
        <time>2019-08-09T12:53:02Z</time>
      </trkpt>
      <trkpt lat="48.32945" lon="7.42453">
        <ele>226.1</ele>
        <time>2019-08-09T12:53:03Z</time>
      </trkpt>
      <trkpt lat="48.3294" lon="7.42452">
        <ele>226.1</ele>
        <time>2019-08-09T12:53:04Z</time>
      </trkpt>
      <trkpt lat="48.32936" lon="7.42449">
        <ele>226.2</ele>
        <time>2019-08-09T12:53:05Z</time>
      </trkpt>
      <trkpt lat="48.32932" lon="7.42446">
        <ele>226.2</ele>
        <time>2019-08-09T12:53:06Z</time>
      </trkpt>
      <trkpt lat="48.32927" lon="7.42443">
        <ele>226.2</ele>
        <time>2019-08-09T12:53:07Z</time>
      </trkpt>
      <trkpt lat="48.32924" lon="7.4244">
        <ele>226.2</ele>
        <time>2019-08-09T12:53:08Z</time>
      </trkpt>
      <trkpt lat="48.32921" lon="7.42437">
        <ele>226.2</ele>
        <time>2019-08-09T12:53:09Z</time>
      </trkpt>
      <trkpt lat="48.32918" lon="7.42435">
        <ele>226.2</ele>
        <time>2019-08-09T12:53:10Z</time>
      </trkpt>
      <trkpt lat="48.32915" lon="7.42433">
        <ele>226.2</ele>
        <time>2019-08-09T12:53:11Z</time>
      </trkpt>
      <trkpt lat="48.32911" lon="7.4243">
        <ele>226.2</ele>
        <time>2019-08-09T12:53:12Z</time>
      </trkpt>
      <trkpt lat="48.32908" lon="7.42427">
        <ele>226.2</ele>
        <time>2019-08-09T12:53:13Z</time>
      </trkpt>
      <trkpt lat="48.32904" lon="7.42426">
        <ele>226.2</ele>
        <time>2019-08-09T12:53:14Z</time>
      </trkpt>
      <trkpt lat="48.32899" lon="7.42424">
        <ele>226.2</ele>
        <time>2019-08-09T12:53:15Z</time>
      </trkpt>
      <trkpt lat="48.32895" lon="7.42422">
        <ele>226.2</ele>
        <time>2019-08-09T12:53:16Z</time>
      </trkpt>
      <trkpt lat="48.3289" lon="7.4242">
        <ele>226.2</ele>
        <time>2019-08-09T12:53:17Z</time>
      </trkpt>
      <trkpt lat="48.32886" lon="7.42418">
        <ele>226.2</ele>
        <time>2019-08-09T12:53:18Z</time>
      </trkpt>
      <trkpt lat="48.32882" lon="7.42415">
        <ele>226.2</ele>
        <time>2019-08-09T12:53:19Z</time>
      </trkpt>
      <trkpt lat="48.32877" lon="7.42414">
        <ele>226.3</ele>
        <time>2019-08-09T12:53:20Z</time>
      </trkpt>
      <trkpt lat="48.32873" lon="7.4241">
        <ele>226.3</ele>
        <time>2019-08-09T12:53:21Z</time>
      </trkpt>
      <trkpt lat="48.32869" lon="7.42409">
        <ele>226.3</ele>
        <time>2019-08-09T12:53:22Z</time>
      </trkpt>
      <trkpt lat="48.32865" lon="7.42407">
        <ele>226.3</ele>
        <time>2019-08-09T12:53:23Z</time>
      </trkpt>
      <trkpt lat="48.32862" lon="7.42404">
        <ele>226.3</ele>
        <time>2019-08-09T12:53:24Z</time>
      </trkpt>
      <trkpt lat="48.32858" lon="7.42403">
        <ele>226.3</ele>
        <time>2019-08-09T12:53:25Z</time>
      </trkpt>
      <trkpt lat="48.32854" lon="7.42402">
        <ele>226.3</ele>
        <time>2019-08-09T12:53:26Z</time>
      </trkpt>
      <trkpt lat="48.3285" lon="7.42401">
        <ele>226.3</ele>
        <time>2019-08-09T12:53:27Z</time>
      </trkpt>
      <trkpt lat="48.32846" lon="7.42401">
        <ele>226.3</ele>
        <time>2019-08-09T12:53:28Z</time>
      </trkpt>
      <trkpt lat="48.32842" lon="7.424">
        <ele>226.3</ele>
        <time>2019-08-09T12:53:29Z</time>
      </trkpt>
      <trkpt lat="48.32838" lon="7.42399">
        <ele>226.3</ele>
        <time>2019-08-09T12:53:30Z</time>
      </trkpt>
      <trkpt lat="48.32835" lon="7.42396">
        <ele>226.3</ele>
        <time>2019-08-09T12:53:31Z</time>
      </trkpt>
      <trkpt lat="48.32832" lon="7.42394">
        <ele>226.3</ele>
        <time>2019-08-09T12:53:32Z</time>
      </trkpt>
      <trkpt lat="48.32828" lon="7.42392">
        <ele>226.3</ele>
        <time>2019-08-09T12:53:33Z</time>
      </trkpt>
      <trkpt lat="48.32824" lon="7.42389">
        <ele>226.3</ele>
        <time>2019-08-09T12:53:34Z</time>
      </trkpt>
      <trkpt lat="48.32821" lon="7.42388">
        <ele>226.3</ele>
        <time>2019-08-09T12:53:35Z</time>
      </trkpt>
      <trkpt lat="48.32817" lon="7.42386">
        <ele>226.4</ele>
        <time>2019-08-09T12:53:36Z</time>
      </trkpt>
      <trkpt lat="48.32812" lon="7.42384">
        <ele>226.4</ele>
        <time>2019-08-09T12:53:37Z</time>
      </trkpt>
      <trkpt lat="48.32807" lon="7.42382">
        <ele>226.4</ele>
        <time>2019-08-09T12:53:38Z</time>
      </trkpt>
      <trkpt lat="48.32803" lon="7.42379">
        <ele>226.4</ele>
        <time>2019-08-09T12:53:39Z</time>
      </trkpt>
      <trkpt lat="48.32798" lon="7.42378">
        <ele>226.4</ele>
        <time>2019-08-09T12:53:40Z</time>
      </trkpt>
      <trkpt lat="48.32793" lon="7.42375">
        <ele>226.4</ele>
        <time>2019-08-09T12:53:41Z</time>
      </trkpt>
      <trkpt lat="48.32788" lon="7.42371">
        <ele>226.4</ele>
        <time>2019-08-09T12:53:42Z</time>
      </trkpt>
      <trkpt lat="48.32783" lon="7.42367">
        <ele>226.4</ele>
        <time>2019-08-09T12:53:43Z</time>
      </trkpt>
      <trkpt lat="48.32779" lon="7.42364">
        <ele>226.4</ele>
        <time>2019-08-09T12:53:44Z</time>
      </trkpt>
      <trkpt lat="48.32774" lon="7.4236">
        <ele>226.4</ele>
        <time>2019-08-09T12:53:45Z</time>
      </trkpt>
      <trkpt lat="48.3277" lon="7.42357">
        <ele>226.4</ele>
        <time>2019-08-09T12:53:46Z</time>
      </trkpt>
      <trkpt lat="48.32765" lon="7.42354">
        <ele>226.4</ele>
        <time>2019-08-09T12:53:47Z</time>
      </trkpt>
      <trkpt lat="48.32761" lon="7.42353">
        <ele>226.5</ele>
        <time>2019-08-09T12:53:48Z</time>
      </trkpt>
      <trkpt lat="48.32756" lon="7.42349">
        <ele>226.3</ele>
        <time>2019-08-09T12:53:49Z</time>
      </trkpt>
      <trkpt lat="48.32751" lon="7.42347">
        <ele>226.2</ele>
        <time>2019-08-09T12:53:50Z</time>
      </trkpt>
      <trkpt lat="48.32746" lon="7.42344">
        <ele>226</ele>
        <time>2019-08-09T12:53:51Z</time>
      </trkpt>
      <trkpt lat="48.32742" lon="7.42342">
        <ele>225.9</ele>
        <time>2019-08-09T12:53:52Z</time>
      </trkpt>
      <trkpt lat="48.32738" lon="7.4234">
        <ele>225.8</ele>
        <time>2019-08-09T12:53:53Z</time>
      </trkpt>
      <trkpt lat="48.32734" lon="7.42339">
        <ele>225.7</ele>
        <time>2019-08-09T12:53:54Z</time>
      </trkpt>
      <trkpt lat="48.32729" lon="7.42338">
        <ele>225.6</ele>
        <time>2019-08-09T12:53:55Z</time>
      </trkpt>
      <trkpt lat="48.32723" lon="7.42337">
        <ele>225.5</ele>
        <time>2019-08-09T12:53:56Z</time>
      </trkpt>
      <trkpt lat="48.32718" lon="7.42337">
        <ele>225.4</ele>
        <time>2019-08-09T12:53:57Z</time>
      </trkpt>
      <trkpt lat="48.32712" lon="7.42337">
        <ele>225.3</ele>
        <time>2019-08-09T12:53:58Z</time>
      </trkpt>
      <trkpt lat="48.32706" lon="7.42337">
        <ele>225.2</ele>
        <time>2019-08-09T12:53:59Z</time>
      </trkpt>
      <trkpt lat="48.327" lon="7.42336">
        <ele>225.1</ele>
        <time>2019-08-09T12:54:00Z</time>
      </trkpt>
      <trkpt lat="48.32696" lon="7.42334">
        <ele>224.6</ele>
        <time>2019-08-09T12:54:01Z</time>
      </trkpt>
      <trkpt lat="48.32691" lon="7.4233">
        <ele>224.4</ele>
        <time>2019-08-09T12:54:02Z</time>
      </trkpt>
      <trkpt lat="48.32689" lon="7.42325">
        <ele>224.2</ele>
        <time>2019-08-09T12:54:03Z</time>
      </trkpt>
      <trkpt lat="48.32687" lon="7.4232">
        <ele>224.1</ele>
        <time>2019-08-09T12:54:04Z</time>
      </trkpt>
      <trkpt lat="48.32686" lon="7.42314">
        <ele>224</ele>
        <time>2019-08-09T12:54:05Z</time>
      </trkpt>
      <trkpt lat="48.32684" lon="7.4231">
        <ele>224</ele>
        <time>2019-08-09T12:54:06Z</time>
      </trkpt>
      <trkpt lat="48.32682" lon="7.42306">
        <ele>223.9</ele>
        <time>2019-08-09T12:54:07Z</time>
      </trkpt>
      <trkpt lat="48.3268" lon="7.42301">
        <ele>223.9</ele>
        <time>2019-08-09T12:54:09Z</time>
      </trkpt>
      <trkpt lat="48.32676" lon="7.42296">
        <ele>224</ele>
        <time>2019-08-09T12:54:11Z</time>
      </trkpt>
      <trkpt lat="48.32674" lon="7.42293">
        <ele>224</ele>
        <time>2019-08-09T12:54:12Z</time>
      </trkpt>
      <trkpt lat="48.32671" lon="7.42289">
        <ele>224</ele>
        <time>2019-08-09T12:54:14Z</time>
      </trkpt>
      <trkpt lat="48.32668" lon="7.42285">
        <ele>224.1</ele>
        <time>2019-08-09T12:54:16Z</time>
      </trkpt>
      <trkpt lat="48.32664" lon="7.42282">
        <ele>224.1</ele>
        <time>2019-08-09T12:54:18Z</time>
      </trkpt>
      <trkpt lat="48.32661" lon="7.4228">
        <ele>224.2</ele>
        <time>2019-08-09T12:54:20Z</time>
      </trkpt>
      <trkpt lat="48.32657" lon="7.42276">
        <ele>224.2</ele>
        <time>2019-08-09T12:54:22Z</time>
      </trkpt>
      <trkpt lat="48.32652" lon="7.42274">
        <ele>224.3</ele>
        <time>2019-08-09T12:54:24Z</time>
      </trkpt>
      <trkpt lat="48.32648" lon="7.42273">
        <ele>224.3</ele>
        <time>2019-08-09T12:54:26Z</time>
      </trkpt>
      <trkpt lat="48.32643" lon="7.42272">
        <ele>224.4</ele>
        <time>2019-08-09T12:54:28Z</time>
      </trkpt>
      <trkpt lat="48.3264" lon="7.42271">
        <ele>224.5</ele>
        <time>2019-08-09T12:54:29Z</time>
      </trkpt>
      <trkpt lat="48.32637" lon="7.42271">
        <ele>224.6</ele>
        <time>2019-08-09T12:54:30Z</time>
      </trkpt>
      <trkpt lat="48.32634" lon="7.4227">
        <ele>224.8</ele>
        <time>2019-08-09T12:54:31Z</time>
      </trkpt>
      <trkpt lat="48.32631" lon="7.42268">
        <ele>224.9</ele>
        <time>2019-08-09T12:54:32Z</time>
      </trkpt>
      <trkpt lat="48.32627" lon="7.42265">
        <ele>225.2</ele>
        <time>2019-08-09T12:54:34Z</time>
      </trkpt>
      <trkpt lat="48.32622" lon="7.42263">
        <ele>225.4</ele>
        <time>2019-08-09T12:54:36Z</time>
      </trkpt>
      <trkpt lat="48.32617" lon="7.42261">
        <ele>225.8</ele>
        <time>2019-08-09T12:54:38Z</time>
      </trkpt>
      <trkpt lat="48.32612" lon="7.42259">
        <ele>225.8</ele>
        <time>2019-08-09T12:54:40Z</time>
      </trkpt>
      <trkpt lat="48.32607" lon="7.42254">
        <ele>225.8</ele>
        <time>2019-08-09T12:54:42Z</time>
      </trkpt>
      <trkpt lat="48.32605" lon="7.42251">
        <ele>225.8</ele>
        <time>2019-08-09T12:54:43Z</time>
      </trkpt>
      <trkpt lat="48.326" lon="7.42248">
        <ele>225.7</ele>
        <time>2019-08-09T12:54:45Z</time>
      </trkpt>
      <trkpt lat="48.32596" lon="7.42243">
        <ele>225.7</ele>
        <time>2019-08-09T12:54:47Z</time>
      </trkpt>
      <trkpt lat="48.32593" lon="7.42241">
        <ele>225.7</ele>
        <time>2019-08-09T12:54:49Z</time>
      </trkpt>
      <trkpt lat="48.3259" lon="7.42238">
        <ele>225.7</ele>
        <time>2019-08-09T12:54:51Z</time>
      </trkpt>
      <trkpt lat="48.32585" lon="7.42234">
        <ele>225.7</ele>
        <time>2019-08-09T12:54:53Z</time>
      </trkpt>
      <trkpt lat="48.32582" lon="7.42231">
        <ele>225.8</ele>
        <time>2019-08-09T12:54:54Z</time>
      </trkpt>
      <trkpt lat="48.32578" lon="7.4223">
        <ele>225.8</ele>
        <time>2019-08-09T12:54:55Z</time>
      </trkpt>
      <trkpt lat="48.32575" lon="7.42227">
        <ele>225.8</ele>
        <time>2019-08-09T12:54:56Z</time>
      </trkpt>
      <trkpt lat="48.32571" lon="7.42224">
        <ele>225.8</ele>
        <time>2019-08-09T12:54:57Z</time>
      </trkpt>
      <trkpt lat="48.32567" lon="7.42222">
        <ele>225.9</ele>
        <time>2019-08-09T12:54:58Z</time>
      </trkpt>
      <trkpt lat="48.32562" lon="7.42219">
        <ele>225.9</ele>
        <time>2019-08-09T12:54:59Z</time>
      </trkpt>
      <trkpt lat="48.32557" lon="7.42217">
        <ele>226</ele>
        <time>2019-08-09T12:55:00Z</time>
      </trkpt>
      <trkpt lat="48.32552" lon="7.42214">
        <ele>226.1</ele>
        <time>2019-08-09T12:55:01Z</time>
      </trkpt>
      <trkpt lat="48.32547" lon="7.42212">
        <ele>226.1</ele>
        <time>2019-08-09T12:55:02Z</time>
      </trkpt>
      <trkpt lat="48.32542" lon="7.4221">
        <ele>226.2</ele>
        <time>2019-08-09T12:55:03Z</time>
      </trkpt>
      <trkpt lat="48.32538" lon="7.42208">
        <ele>226.3</ele>
        <time>2019-08-09T12:55:04Z</time>
      </trkpt>
      <trkpt lat="48.32533" lon="7.42205">
        <ele>226.3</ele>
        <time>2019-08-09T12:55:05Z</time>
      </trkpt>
      <trkpt lat="48.32528" lon="7.42203">
        <ele>226.4</ele>
        <time>2019-08-09T12:55:06Z</time>
      </trkpt>
      <trkpt lat="48.32523" lon="7.42201">
        <ele>226.4</ele>
        <time>2019-08-09T12:55:07Z</time>
      </trkpt>
      <trkpt lat="48.32518" lon="7.42199">
        <ele>226.4</ele>
        <time>2019-08-09T12:55:08Z</time>
      </trkpt>
      <trkpt lat="48.32513" lon="7.42198">
        <ele>226.5</ele>
        <time>2019-08-09T12:55:09Z</time>
      </trkpt>
      <trkpt lat="48.32507" lon="7.42196">
        <ele>226.5</ele>
        <time>2019-08-09T12:55:10Z</time>
      </trkpt>
      <trkpt lat="48.32502" lon="7.42194">
        <ele>226.6</ele>
        <time>2019-08-09T12:55:11Z</time>
      </trkpt>
      <trkpt lat="48.32497" lon="7.42192">
        <ele>226.7</ele>
        <time>2019-08-09T12:55:12Z</time>
      </trkpt>
      <trkpt lat="48.32492" lon="7.42191">
        <ele>226.7</ele>
        <time>2019-08-09T12:55:13Z</time>
      </trkpt>
      <trkpt lat="48.32487" lon="7.4219">
        <ele>226.8</ele>
        <time>2019-08-09T12:55:14Z</time>
      </trkpt>
      <trkpt lat="48.32482" lon="7.4219">
        <ele>226.9</ele>
        <time>2019-08-09T12:55:15Z</time>
      </trkpt>
      <trkpt lat="48.32477" lon="7.4219">
        <ele>227</ele>
        <time>2019-08-09T12:55:16Z</time>
      </trkpt>
      <trkpt lat="48.32472" lon="7.42191">
        <ele>227.1</ele>
        <time>2019-08-09T12:55:17Z</time>
      </trkpt>
      <trkpt lat="48.32466" lon="7.42192">
        <ele>227.2</ele>
        <time>2019-08-09T12:55:18Z</time>
      </trkpt>
      <trkpt lat="48.32461" lon="7.42192">
        <ele>227.3</ele>
        <time>2019-08-09T12:55:19Z</time>
      </trkpt>
      <trkpt lat="48.32456" lon="7.42192">
        <ele>227.4</ele>
        <time>2019-08-09T12:55:20Z</time>
      </trkpt>
      <trkpt lat="48.32452" lon="7.42192">
        <ele>227.5</ele>
        <time>2019-08-09T12:55:21Z</time>
      </trkpt>
      <trkpt lat="48.32447" lon="7.42192">
        <ele>227.6</ele>
        <time>2019-08-09T12:55:22Z</time>
      </trkpt>
      <trkpt lat="48.32443" lon="7.42192">
        <ele>227.7</ele>
        <time>2019-08-09T12:55:23Z</time>
      </trkpt>
      <trkpt lat="48.32438" lon="7.42192">
        <ele>227.7</ele>
        <time>2019-08-09T12:55:24Z</time>
      </trkpt>
      <trkpt lat="48.32434" lon="7.42192">
        <ele>227.8</ele>
        <time>2019-08-09T12:55:25Z</time>
      </trkpt>
      <trkpt lat="48.32429" lon="7.42193">
        <ele>227.9</ele>
        <time>2019-08-09T12:55:26Z</time>
      </trkpt>
      <trkpt lat="48.32426" lon="7.42193">
        <ele>228</ele>
        <time>2019-08-09T12:55:27Z</time>
      </trkpt>
      <trkpt lat="48.32422" lon="7.42193">
        <ele>228.1</ele>
        <time>2019-08-09T12:55:28Z</time>
      </trkpt>
      <trkpt lat="48.32418" lon="7.42194">
        <ele>228.3</ele>
        <time>2019-08-09T12:55:29Z</time>
      </trkpt>
      <trkpt lat="48.32415" lon="7.42195">
        <ele>228.4</ele>
        <time>2019-08-09T12:55:30Z</time>
      </trkpt>
      <trkpt lat="48.32411" lon="7.42195">
        <ele>228.5</ele>
        <time>2019-08-09T12:55:31Z</time>
      </trkpt>
      <trkpt lat="48.32408" lon="7.42196">
        <ele>228.6</ele>
        <time>2019-08-09T12:55:32Z</time>
      </trkpt>
      <trkpt lat="48.32405" lon="7.42196">
        <ele>228.7</ele>
        <time>2019-08-09T12:55:33Z</time>
      </trkpt>
      <trkpt lat="48.32402" lon="7.42197">
        <ele>228.8</ele>
        <time>2019-08-09T12:55:34Z</time>
      </trkpt>
      <trkpt lat="48.32397" lon="7.42196">
        <ele>229.1</ele>
        <time>2019-08-09T12:55:36Z</time>
      </trkpt>
      <trkpt lat="48.32394" lon="7.42196">
        <ele>229.2</ele>
        <time>2019-08-09T12:55:37Z</time>
      </trkpt>
      <trkpt lat="48.32391" lon="7.42197">
        <ele>229.3</ele>
        <time>2019-08-09T12:55:38Z</time>
      </trkpt>
      <trkpt lat="48.32388" lon="7.42198">
        <ele>229.5</ele>
        <time>2019-08-09T12:55:39Z</time>
      </trkpt>
      <trkpt lat="48.32382" lon="7.42199">
        <ele>229.8</ele>
        <time>2019-08-09T12:55:41Z</time>
      </trkpt>
      <trkpt lat="48.32379" lon="7.42199">
        <ele>229.9</ele>
        <time>2019-08-09T12:55:42Z</time>
      </trkpt>
      <trkpt lat="48.32376" lon="7.42198">
        <ele>230</ele>
        <time>2019-08-09T12:55:43Z</time>
      </trkpt>
      <trkpt lat="48.32374" lon="7.42198">
        <ele>230.1</ele>
        <time>2019-08-09T12:55:44Z</time>
      </trkpt>
      <trkpt lat="48.32368" lon="7.42198">
        <ele>230.3</ele>
        <time>2019-08-09T12:55:46Z</time>
      </trkpt>
      <trkpt lat="48.32364" lon="7.42197">
        <ele>230.5</ele>
        <time>2019-08-09T12:55:47Z</time>
      </trkpt>
      <trkpt lat="48.32361" lon="7.42197">
        <ele>230.6</ele>
        <time>2019-08-09T12:55:48Z</time>
      </trkpt>
      <trkpt lat="48.32358" lon="7.42196">
        <ele>230.7</ele>
        <time>2019-08-09T12:55:49Z</time>
      </trkpt>
      <trkpt lat="48.32355" lon="7.42195">
        <ele>230.9</ele>
        <time>2019-08-09T12:55:50Z</time>
      </trkpt>
      <trkpt lat="48.3235" lon="7.42192">
        <ele>231.1</ele>
        <time>2019-08-09T12:55:52Z</time>
      </trkpt>
      <trkpt lat="48.32347" lon="7.4219">
        <ele>231.2</ele>
        <time>2019-08-09T12:55:53Z</time>
      </trkpt>
      <trkpt lat="48.32344" lon="7.42188">
        <ele>231.3</ele>
        <time>2019-08-09T12:55:54Z</time>
      </trkpt>
      <trkpt lat="48.32341" lon="7.42187">
        <ele>231.4</ele>
        <time>2019-08-09T12:55:55Z</time>
      </trkpt>
      <trkpt lat="48.32335" lon="7.42185">
        <ele>231.6</ele>
        <time>2019-08-09T12:55:57Z</time>
      </trkpt>
      <trkpt lat="48.32332" lon="7.42183">
        <ele>231.7</ele>
        <time>2019-08-09T12:55:58Z</time>
      </trkpt>
      <trkpt lat="48.32329" lon="7.42182">
        <ele>231.8</ele>
        <time>2019-08-09T12:55:59Z</time>
      </trkpt>
      <trkpt lat="48.32327" lon="7.4218">
        <ele>231.9</ele>
        <time>2019-08-09T12:56:00Z</time>
      </trkpt>
      <trkpt lat="48.32324" lon="7.42178">
        <ele>232</ele>
        <time>2019-08-09T12:56:01Z</time>
      </trkpt>
      <trkpt lat="48.3232" lon="7.42175">
        <ele>232.1</ele>
        <time>2019-08-09T12:56:03Z</time>
      </trkpt>
      <trkpt lat="48.32316" lon="7.42172">
        <ele>232.2</ele>
        <time>2019-08-09T12:56:05Z</time>
      </trkpt>
      <trkpt lat="48.32311" lon="7.42169">
        <ele>232.4</ele>
        <time>2019-08-09T12:56:07Z</time>
      </trkpt>
      <trkpt lat="48.32308" lon="7.42168">
        <ele>232.5</ele>
        <time>2019-08-09T12:56:08Z</time>
      </trkpt>
      <trkpt lat="48.32304" lon="7.42166">
        <ele>232.7</ele>
        <time>2019-08-09T12:56:10Z</time>
      </trkpt>
      <trkpt lat="48.323" lon="7.42161">
        <ele>233</ele>
        <time>2019-08-09T12:56:12Z</time>
      </trkpt>
      <trkpt lat="48.32296" lon="7.42158">
        <ele>233.2</ele>
        <time>2019-08-09T12:56:14Z</time>
      </trkpt>
      <trkpt lat="48.32294" lon="7.42155">
        <ele>233.4</ele>
        <time>2019-08-09T12:56:16Z</time>
      </trkpt>
      <trkpt lat="48.32291" lon="7.4215">
        <ele>234</ele>
        <time>2019-08-09T12:56:18Z</time>
      </trkpt>
      <trkpt lat="48.32288" lon="7.42144">
        <ele>234.5</ele>
        <time>2019-08-09T12:56:20Z</time>
      </trkpt>
      <trkpt lat="48.32286" lon="7.42138">
        <ele>235</ele>
        <time>2019-08-09T12:56:22Z</time>
      </trkpt>
      <trkpt lat="48.32284" lon="7.42133">
        <ele>235.3</ele>
        <time>2019-08-09T12:56:24Z</time>
      </trkpt>
      <trkpt lat="48.32281" lon="7.42129">
        <ele>235.7</ele>
        <time>2019-08-09T12:56:26Z</time>
      </trkpt>
      <trkpt lat="48.32278" lon="7.42124">
        <ele>236.1</ele>
        <time>2019-08-09T12:56:28Z</time>
      </trkpt>
      <trkpt lat="48.32276" lon="7.42117">
        <ele>236.6</ele>
        <time>2019-08-09T12:56:30Z</time>
      </trkpt>
      <trkpt lat="48.32275" lon="7.42111">
        <ele>237</ele>
        <time>2019-08-09T12:56:32Z</time>
      </trkpt>
      <trkpt lat="48.32273" lon="7.42106">
        <ele>237.3</ele>
        <time>2019-08-09T12:56:34Z</time>
      </trkpt>
      <trkpt lat="48.32271" lon="7.421">
        <ele>237.8</ele>
        <time>2019-08-09T12:56:36Z</time>
      </trkpt>
      <trkpt lat="48.32271" lon="7.42092">
        <ele>238.4</ele>
        <time>2019-08-09T12:56:38Z</time>
      </trkpt>
      <trkpt lat="48.3227" lon="7.42088">
        <ele>238.7</ele>
        <time>2019-08-09T12:56:40Z</time>
      </trkpt>
      <trkpt lat="48.32268" lon="7.42084">
        <ele>239.2</ele>
        <time>2019-08-09T12:56:42Z</time>
      </trkpt>
      <trkpt lat="48.32267" lon="7.42079">
        <ele>239.6</ele>
        <time>2019-08-09T12:56:44Z</time>
      </trkpt>
      <trkpt lat="48.32265" lon="7.42075">
        <ele>238.8</ele>
        <time>2019-08-09T12:56:46Z</time>
      </trkpt>
      <trkpt lat="48.32263" lon="7.4207">
        <ele>238.3</ele>
        <time>2019-08-09T12:56:48Z</time>
      </trkpt>
      <trkpt lat="48.32261" lon="7.42067">
        <ele>237.9</ele>
        <time>2019-08-09T12:56:50Z</time>
      </trkpt>
      <trkpt lat="48.32258" lon="7.42064">
        <ele>237.5</ele>
        <time>2019-08-09T12:56:52Z</time>
      </trkpt>
      <trkpt lat="48.32254" lon="7.42061">
        <ele>237</ele>
        <time>2019-08-09T12:56:54Z</time>
      </trkpt>
      <trkpt lat="48.32248" lon="7.42061">
        <ele>236.5</ele>
        <time>2019-08-09T12:56:56Z</time>
      </trkpt>
      <trkpt lat="48.32244" lon="7.4206">
        <ele>236.2</ele>
        <time>2019-08-09T12:56:58Z</time>
      </trkpt>
      <trkpt lat="48.32239" lon="7.4206">
        <ele>235.9</ele>
        <time>2019-08-09T12:57:00Z</time>
      </trkpt>
      <trkpt lat="48.32235" lon="7.42058">
        <ele>235.8</ele>
        <time>2019-08-09T12:57:02Z</time>
      </trkpt>
      <trkpt lat="48.32231" lon="7.42057">
        <ele>235.8</ele>
        <time>2019-08-09T12:57:04Z</time>
      </trkpt>
      <trkpt lat="48.32227" lon="7.42055">
        <ele>235.9</ele>
        <time>2019-08-09T12:57:06Z</time>
      </trkpt>
      <trkpt lat="48.32222" lon="7.42056">
        <ele>236.2</ele>
        <time>2019-08-09T12:57:08Z</time>
      </trkpt>
      <trkpt lat="48.32217" lon="7.42056">
        <ele>236.5</ele>
        <time>2019-08-09T12:57:10Z</time>
      </trkpt>
      <trkpt lat="48.32213" lon="7.42055">
        <ele>236.7</ele>
        <time>2019-08-09T12:57:12Z</time>
      </trkpt>
      <trkpt lat="48.32208" lon="7.42053">
        <ele>237</ele>
        <time>2019-08-09T12:57:14Z</time>
      </trkpt>
      <trkpt lat="48.32205" lon="7.42051">
        <ele>237.2</ele>
        <time>2019-08-09T12:57:16Z</time>
      </trkpt>
      <trkpt lat="48.322" lon="7.42048">
        <ele>237.4</ele>
        <time>2019-08-09T12:57:18Z</time>
      </trkpt>
      <trkpt lat="48.32197" lon="7.42047">
        <ele>237.6</ele>
        <time>2019-08-09T12:57:20Z</time>
      </trkpt>
      <trkpt lat="48.32192" lon="7.42046">
        <ele>237.7</ele>
        <time>2019-08-09T12:57:22Z</time>
      </trkpt>
      <trkpt lat="48.32187" lon="7.42047">
        <ele>237.9</ele>
        <time>2019-08-09T12:57:24Z</time>
      </trkpt>
      <trkpt lat="48.32183" lon="7.42045">
        <ele>238</ele>
        <time>2019-08-09T12:57:26Z</time>
      </trkpt>
      <trkpt lat="48.32179" lon="7.42042">
        <ele>238.2</ele>
        <time>2019-08-09T12:57:28Z</time>
      </trkpt>
      <trkpt lat="48.32175" lon="7.42042">
        <ele>238.3</ele>
        <time>2019-08-09T12:57:30Z</time>
      </trkpt>
      <trkpt lat="48.3217" lon="7.42043">
        <ele>238.4</ele>
        <time>2019-08-09T12:57:32Z</time>
      </trkpt>
      <trkpt lat="48.32167" lon="7.42041">
        <ele>238.4</ele>
        <time>2019-08-09T12:57:33Z</time>
      </trkpt>
      <trkpt lat="48.32164" lon="7.42041">
        <ele>238.5</ele>
        <time>2019-08-09T12:57:34Z</time>
      </trkpt>
      <trkpt lat="48.32161" lon="7.42041">
        <ele>238.5</ele>
        <time>2019-08-09T12:57:35Z</time>
      </trkpt>
      <trkpt lat="48.32158" lon="7.42041">
        <ele>238.5</ele>
        <time>2019-08-09T12:57:36Z</time>
      </trkpt>
      <trkpt lat="48.32155" lon="7.42042">
        <ele>238.4</ele>
        <time>2019-08-09T12:57:37Z</time>
      </trkpt>
      <trkpt lat="48.32152" lon="7.42043">
        <ele>238.4</ele>
        <time>2019-08-09T12:57:38Z</time>
      </trkpt>
      <trkpt lat="48.32148" lon="7.42045">
        <ele>238.3</ele>
        <time>2019-08-09T12:57:39Z</time>
      </trkpt>
      <trkpt lat="48.32145" lon="7.42046">
        <ele>238.2</ele>
        <time>2019-08-09T12:57:40Z</time>
      </trkpt>
      <trkpt lat="48.32142" lon="7.42047">
        <ele>238.1</ele>
        <time>2019-08-09T12:57:41Z</time>
      </trkpt>
      <trkpt lat="48.32138" lon="7.42048">
        <ele>238</ele>
        <time>2019-08-09T12:57:42Z</time>
      </trkpt>
      <trkpt lat="48.32135" lon="7.42049">
        <ele>237.8</ele>
        <time>2019-08-09T12:57:43Z</time>
      </trkpt>
      <trkpt lat="48.32131" lon="7.4205">
        <ele>237.8</ele>
        <time>2019-08-09T12:57:44Z</time>
      </trkpt>
      <trkpt lat="48.32127" lon="7.42053">
        <ele>237.6</ele>
        <time>2019-08-09T12:57:45Z</time>
      </trkpt>
      <trkpt lat="48.32123" lon="7.42056">
        <ele>236.9</ele>
        <time>2019-08-09T12:57:46Z</time>
      </trkpt>
      <trkpt lat="48.32118" lon="7.42059">
        <ele>236.4</ele>
        <time>2019-08-09T12:57:47Z</time>
      </trkpt>
      <trkpt lat="48.32114" lon="7.42063">
        <ele>235.9</ele>
        <time>2019-08-09T12:57:48Z</time>
      </trkpt>
      <trkpt lat="48.32111" lon="7.42067">
        <ele>235.7</ele>
        <time>2019-08-09T12:57:49Z</time>
      </trkpt>
      <trkpt lat="48.32109" lon="7.42071">
        <ele>235.5</ele>
        <time>2019-08-09T12:57:50Z</time>
      </trkpt>
      <trkpt lat="48.32106" lon="7.42075">
        <ele>235.3</ele>
        <time>2019-08-09T12:57:51Z</time>
      </trkpt>
      <trkpt lat="48.32104" lon="7.42079">
        <ele>235.1</ele>
        <time>2019-08-09T12:57:52Z</time>
      </trkpt>
      <trkpt lat="48.32102" lon="7.42083">
        <ele>235.1</ele>
        <time>2019-08-09T12:57:53Z</time>
      </trkpt>
      <trkpt lat="48.32099" lon="7.42086">
        <ele>235</ele>
        <time>2019-08-09T12:57:54Z</time>
      </trkpt>
      <trkpt lat="48.32097" lon="7.4209">
        <ele>234.9</ele>
        <time>2019-08-09T12:57:55Z</time>
      </trkpt>
      <trkpt lat="48.32093" lon="7.42095">
        <ele>234.8</ele>
        <time>2019-08-09T12:57:57Z</time>
      </trkpt>
      <trkpt lat="48.32091" lon="7.42099">
        <ele>234.7</ele>
        <time>2019-08-09T12:57:58Z</time>
      </trkpt>
      <trkpt lat="48.32088" lon="7.42103">
        <ele>234.7</ele>
        <time>2019-08-09T12:57:59Z</time>
      </trkpt>
      <trkpt lat="48.32086" lon="7.42105">
        <ele>234.7</ele>
        <time>2019-08-09T12:58:00Z</time>
      </trkpt>
      <trkpt lat="48.32083" lon="7.42107">
        <ele>234.7</ele>
        <time>2019-08-09T12:58:01Z</time>
      </trkpt>
      <trkpt lat="48.3208" lon="7.42113">
        <ele>234.7</ele>
        <time>2019-08-09T12:58:03Z</time>
      </trkpt>
      <trkpt lat="48.32078" lon="7.42116">
        <ele>234.7</ele>
        <time>2019-08-09T12:58:04Z</time>
      </trkpt>
      <trkpt lat="48.32075" lon="7.42119">
        <ele>234.7</ele>
        <time>2019-08-09T12:58:05Z</time>
      </trkpt>
      <trkpt lat="48.32072" lon="7.42126">
        <ele>234.7</ele>
        <time>2019-08-09T12:58:07Z</time>
      </trkpt>
      <trkpt lat="48.3207" lon="7.42128">
        <ele>234.8</ele>
        <time>2019-08-09T12:58:08Z</time>
      </trkpt>
      <trkpt lat="48.32067" lon="7.42131">
        <ele>234.8</ele>
        <time>2019-08-09T12:58:09Z</time>
      </trkpt>
      <trkpt lat="48.32065" lon="7.42134">
        <ele>234.8</ele>
        <time>2019-08-09T12:58:10Z</time>
      </trkpt>
      <trkpt lat="48.32063" lon="7.42138">
        <ele>234.8</ele>
        <time>2019-08-09T12:58:11Z</time>
      </trkpt>
      <trkpt lat="48.3206" lon="7.4214">
        <ele>234.8</ele>
        <time>2019-08-09T12:58:12Z</time>
      </trkpt>
      <trkpt lat="48.32057" lon="7.42142">
        <ele>234.8</ele>
        <time>2019-08-09T12:58:13Z</time>
      </trkpt>
      <trkpt lat="48.32052" lon="7.42146">
        <ele>234.9</ele>
        <time>2019-08-09T12:58:15Z</time>
      </trkpt>
      <trkpt lat="48.32049" lon="7.42151">
        <ele>234.8</ele>
        <time>2019-08-09T12:58:16Z</time>
      </trkpt>
      <trkpt lat="48.32045" lon="7.42153">
        <ele>234.8</ele>
        <time>2019-08-09T12:58:17Z</time>
      </trkpt>
      <trkpt lat="48.32042" lon="7.42156">
        <ele>234.8</ele>
        <time>2019-08-09T12:58:18Z</time>
      </trkpt>
      <trkpt lat="48.32039" lon="7.42158">
        <ele>234.7</ele>
        <time>2019-08-09T12:58:19Z</time>
      </trkpt>
      <trkpt lat="48.32035" lon="7.4216">
        <ele>234.7</ele>
        <time>2019-08-09T12:58:20Z</time>
      </trkpt>
      <trkpt lat="48.32032" lon="7.42162">
        <ele>234.6</ele>
        <time>2019-08-09T12:58:21Z</time>
      </trkpt>
      <trkpt lat="48.32028" lon="7.42164">
        <ele>234.5</ele>
        <time>2019-08-09T12:58:22Z</time>
      </trkpt>
      <trkpt lat="48.32024" lon="7.42165">
        <ele>234.4</ele>
        <time>2019-08-09T12:58:23Z</time>
      </trkpt>
      <trkpt lat="48.3202" lon="7.42167">
        <ele>234.3</ele>
        <time>2019-08-09T12:58:24Z</time>
      </trkpt>
      <trkpt lat="48.32016" lon="7.42169">
        <ele>234.2</ele>
        <time>2019-08-09T12:58:25Z</time>
      </trkpt>
      <trkpt lat="48.32012" lon="7.42171">
        <ele>234.1</ele>
        <time>2019-08-09T12:58:26Z</time>
      </trkpt>
      <trkpt lat="48.32007" lon="7.42172">
        <ele>234</ele>
        <time>2019-08-09T12:58:27Z</time>
      </trkpt>
      <trkpt lat="48.32002" lon="7.42172">
        <ele>233.9</ele>
        <time>2019-08-09T12:58:28Z</time>
      </trkpt>
      <trkpt lat="48.31998" lon="7.42173">
        <ele>233.8</ele>
        <time>2019-08-09T12:58:29Z</time>
      </trkpt>
      <trkpt lat="48.31993" lon="7.42173">
        <ele>233.7</ele>
        <time>2019-08-09T12:58:30Z</time>
      </trkpt>
      <trkpt lat="48.31988" lon="7.42172">
        <ele>233.6</ele>
        <time>2019-08-09T12:58:31Z</time>
      </trkpt>
      <trkpt lat="48.31982" lon="7.42172">
        <ele>233.4</ele>
        <time>2019-08-09T12:58:32Z</time>
      </trkpt>
      <trkpt lat="48.31977" lon="7.4217">
        <ele>233.3</ele>
        <time>2019-08-09T12:58:33Z</time>
      </trkpt>
      <trkpt lat="48.31971" lon="7.4217">
        <ele>233.2</ele>
        <time>2019-08-09T12:58:34Z</time>
      </trkpt>
      <trkpt lat="48.31966" lon="7.42168">
        <ele>233.1</ele>
        <time>2019-08-09T12:58:35Z</time>
      </trkpt>
      <trkpt lat="48.31962" lon="7.42168">
        <ele>233</ele>
        <time>2019-08-09T12:58:36Z</time>
      </trkpt>
      <trkpt lat="48.31957" lon="7.42169">
        <ele>233</ele>
        <time>2019-08-09T12:58:37Z</time>
      </trkpt>
      <trkpt lat="48.31952" lon="7.42168">
        <ele>232.9</ele>
        <time>2019-08-09T12:58:38Z</time>
      </trkpt>
      <trkpt lat="48.31948" lon="7.42167">
        <ele>232.9</ele>
        <time>2019-08-09T12:58:39Z</time>
      </trkpt>
      <trkpt lat="48.31943" lon="7.42166">
        <ele>232.9</ele>
        <time>2019-08-09T12:58:40Z</time>
      </trkpt>
      <trkpt lat="48.31939" lon="7.42166">
        <ele>232.9</ele>
        <time>2019-08-09T12:58:41Z</time>
      </trkpt>
      <trkpt lat="48.31934" lon="7.42165">
        <ele>232.9</ele>
        <time>2019-08-09T12:58:42Z</time>
      </trkpt>
      <trkpt lat="48.31931" lon="7.42166">
        <ele>232.9</ele>
        <time>2019-08-09T12:58:43Z</time>
      </trkpt>
      <trkpt lat="48.31927" lon="7.42167">
        <ele>232.9</ele>
        <time>2019-08-09T12:58:44Z</time>
      </trkpt>
      <trkpt lat="48.31923" lon="7.42168">
        <ele>232.8</ele>
        <time>2019-08-09T12:58:45Z</time>
      </trkpt>
      <trkpt lat="48.31919" lon="7.42167">
        <ele>232.8</ele>
        <time>2019-08-09T12:58:46Z</time>
      </trkpt>
      <trkpt lat="48.31916" lon="7.42167">
        <ele>232.8</ele>
        <time>2019-08-09T12:58:47Z</time>
      </trkpt>
      <trkpt lat="48.31912" lon="7.42165">
        <ele>232.8</ele>
        <time>2019-08-09T12:58:48Z</time>
      </trkpt>
      <trkpt lat="48.31908" lon="7.42166">
        <ele>232.7</ele>
        <time>2019-08-09T12:58:49Z</time>
      </trkpt>
      <trkpt lat="48.31904" lon="7.42165">
        <ele>232.7</ele>
        <time>2019-08-09T12:58:50Z</time>
      </trkpt>
      <trkpt lat="48.319" lon="7.42165">
        <ele>232.6</ele>
        <time>2019-08-09T12:58:51Z</time>
      </trkpt>
      <trkpt lat="48.31896" lon="7.42164">
        <ele>232.5</ele>
        <time>2019-08-09T12:58:52Z</time>
      </trkpt>
      <trkpt lat="48.31892" lon="7.42165">
        <ele>232.4</ele>
        <time>2019-08-09T12:58:53Z</time>
      </trkpt>
      <trkpt lat="48.31888" lon="7.42166">
        <ele>232.3</ele>
        <time>2019-08-09T12:58:54Z</time>
      </trkpt>
      <trkpt lat="48.31885" lon="7.42168">
        <ele>232.2</ele>
        <time>2019-08-09T12:58:55Z</time>
      </trkpt>
      <trkpt lat="48.31881" lon="7.42169">
        <ele>232.1</ele>
        <time>2019-08-09T12:58:56Z</time>
      </trkpt>
      <trkpt lat="48.31876" lon="7.4217">
        <ele>231.9</ele>
        <time>2019-08-09T12:58:57Z</time>
      </trkpt>
      <trkpt lat="48.31871" lon="7.42171">
        <ele>231.7</ele>
        <time>2019-08-09T12:58:58Z</time>
      </trkpt>
      <trkpt lat="48.31866" lon="7.42172">
        <ele>231.5</ele>
        <time>2019-08-09T12:58:59Z</time>
      </trkpt>
      <trkpt lat="48.31861" lon="7.42172">
        <ele>231.2</ele>
        <time>2019-08-09T12:59:00Z</time>
      </trkpt>
      <trkpt lat="48.31855" lon="7.42173">
        <ele>230.9</ele>
        <time>2019-08-09T12:59:01Z</time>
      </trkpt>
      <trkpt lat="48.3185" lon="7.42173">
        <ele>230.6</ele>
        <time>2019-08-09T12:59:02Z</time>
      </trkpt>
      <trkpt lat="48.31845" lon="7.42173">
        <ele>230.2</ele>
        <time>2019-08-09T12:59:03Z</time>
      </trkpt>
      <trkpt lat="48.3184" lon="7.42173">
        <ele>229.8</ele>
        <time>2019-08-09T12:59:04Z</time>
      </trkpt>
      <trkpt lat="48.31834" lon="7.42174">
        <ele>229.5</ele>
        <time>2019-08-09T12:59:05Z</time>
      </trkpt>
      <trkpt lat="48.3183" lon="7.42174">
        <ele>229.1</ele>
        <time>2019-08-09T12:59:06Z</time>
      </trkpt>
      <trkpt lat="48.31825" lon="7.42173">
        <ele>228.8</ele>
        <time>2019-08-09T12:59:07Z</time>
      </trkpt>
      <trkpt lat="48.31821" lon="7.42172">
        <ele>228.4</ele>
        <time>2019-08-09T12:59:08Z</time>
      </trkpt>
      <trkpt lat="48.31816" lon="7.42172">
        <ele>228.1</ele>
        <time>2019-08-09T12:59:09Z</time>
      </trkpt>
      <trkpt lat="48.31812" lon="7.42172">
        <ele>227.8</ele>
        <time>2019-08-09T12:59:10Z</time>
      </trkpt>
      <trkpt lat="48.31807" lon="7.42171">
        <ele>227.4</ele>
        <time>2019-08-09T12:59:11Z</time>
      </trkpt>
      <trkpt lat="48.31803" lon="7.42169">
        <ele>227</ele>
        <time>2019-08-09T12:59:12Z</time>
      </trkpt>
      <trkpt lat="48.31798" lon="7.42167">
        <ele>226.5</ele>
        <time>2019-08-09T12:59:13Z</time>
      </trkpt>
      <trkpt lat="48.31794" lon="7.42166">
        <ele>226.2</ele>
        <time>2019-08-09T12:59:14Z</time>
      </trkpt>
      <trkpt lat="48.31789" lon="7.42165">
        <ele>225.8</ele>
        <time>2019-08-09T12:59:15Z</time>
      </trkpt>
      <trkpt lat="48.31784" lon="7.42162">
        <ele>225.3</ele>
        <time>2019-08-09T12:59:16Z</time>
      </trkpt>
      <trkpt lat="48.3178" lon="7.42159">
        <ele>225</ele>
        <time>2019-08-09T12:59:17Z</time>
      </trkpt>
      <trkpt lat="48.31775" lon="7.42158">
        <ele>224.6</ele>
        <time>2019-08-09T12:59:18Z</time>
      </trkpt>
      <trkpt lat="48.3177" lon="7.42156">
        <ele>224.2</ele>
        <time>2019-08-09T12:59:19Z</time>
      </trkpt>
      <trkpt lat="48.31765" lon="7.42154">
        <ele>223.7</ele>
        <time>2019-08-09T12:59:20Z</time>
      </trkpt>
      <trkpt lat="48.3176" lon="7.42152">
        <ele>223.3</ele>
        <time>2019-08-09T12:59:21Z</time>
      </trkpt>
      <trkpt lat="48.31756" lon="7.42148">
        <ele>223</ele>
        <time>2019-08-09T12:59:22Z</time>
      </trkpt>
      <trkpt lat="48.31751" lon="7.42146">
        <ele>222.6</ele>
        <time>2019-08-09T12:59:23Z</time>
      </trkpt>
      <trkpt lat="48.31746" lon="7.42143">
        <ele>222.2</ele>
        <time>2019-08-09T12:59:24Z</time>
      </trkpt>
      <trkpt lat="48.31741" lon="7.42141">
        <ele>221.8</ele>
        <time>2019-08-09T12:59:25Z</time>
      </trkpt>
      <trkpt lat="48.31735" lon="7.42138">
        <ele>221.3</ele>
        <time>2019-08-09T12:59:26Z</time>
      </trkpt>
      <trkpt lat="48.31729" lon="7.42135">
        <ele>220.9</ele>
        <time>2019-08-09T12:59:27Z</time>
      </trkpt>
      <trkpt lat="48.31722" lon="7.42131">
        <ele>220.4</ele>
        <time>2019-08-09T12:59:28Z</time>
      </trkpt>
      <trkpt lat="48.31717" lon="7.42127">
        <ele>220</ele>
        <time>2019-08-09T12:59:29Z</time>
      </trkpt>
      <trkpt lat="48.31712" lon="7.42125">
        <ele>219.6</ele>
        <time>2019-08-09T12:59:30Z</time>
      </trkpt>
      <trkpt lat="48.31707" lon="7.42122">
        <ele>219.3</ele>
        <time>2019-08-09T12:59:31Z</time>
      </trkpt>
      <trkpt lat="48.31703" lon="7.4212">
        <ele>219</ele>
        <time>2019-08-09T12:59:32Z</time>
      </trkpt>
      <trkpt lat="48.31697" lon="7.4212">
        <ele>218.6</ele>
        <time>2019-08-09T12:59:33Z</time>
      </trkpt>
      <trkpt lat="48.31692" lon="7.42117">
        <ele>218.3</ele>
        <time>2019-08-09T12:59:34Z</time>
      </trkpt>
      <trkpt lat="48.31686" lon="7.42116">
        <ele>217.9</ele>
        <time>2019-08-09T12:59:35Z</time>
      </trkpt>
      <trkpt lat="48.31679" lon="7.42116">
        <ele>217.5</ele>
        <time>2019-08-09T12:59:36Z</time>
      </trkpt>
      <trkpt lat="48.31673" lon="7.42115">
        <ele>217.1</ele>
        <time>2019-08-09T12:59:37Z</time>
      </trkpt>
      <trkpt lat="48.31667" lon="7.42115">
        <ele>216.6</ele>
        <time>2019-08-09T12:59:38Z</time>
      </trkpt>
      <trkpt lat="48.31661" lon="7.42116">
        <ele>216.2</ele>
        <time>2019-08-09T12:59:39Z</time>
      </trkpt>
      <trkpt lat="48.31655" lon="7.42116">
        <ele>215.8</ele>
        <time>2019-08-09T12:59:40Z</time>
      </trkpt>
      <trkpt lat="48.31649" lon="7.42117">
        <ele>215.4</ele>
        <time>2019-08-09T12:59:41Z</time>
      </trkpt>
      <trkpt lat="48.31644" lon="7.42117">
        <ele>215</ele>
        <time>2019-08-09T12:59:42Z</time>
      </trkpt>
      <trkpt lat="48.31639" lon="7.42117">
        <ele>214.6</ele>
        <time>2019-08-09T12:59:43Z</time>
      </trkpt>
      <trkpt lat="48.31633" lon="7.42119">
        <ele>214.1</ele>
        <time>2019-08-09T12:59:44Z</time>
      </trkpt>
      <trkpt lat="48.31628" lon="7.42121">
        <ele>213.6</ele>
        <time>2019-08-09T12:59:45Z</time>
      </trkpt>
      <trkpt lat="48.31622" lon="7.42125">
        <ele>213.2</ele>
        <time>2019-08-09T12:59:46Z</time>
      </trkpt>
      <trkpt lat="48.31617" lon="7.42128">
        <ele>212.7</ele>
        <time>2019-08-09T12:59:47Z</time>
      </trkpt>
      <trkpt lat="48.31612" lon="7.42133">
        <ele>212</ele>
        <time>2019-08-09T12:59:48Z</time>
      </trkpt>
      <trkpt lat="48.31607" lon="7.42137">
        <ele>211.6</ele>
        <time>2019-08-09T12:59:49Z</time>
      </trkpt>
      <trkpt lat="48.31602" lon="7.42138">
        <ele>211.4</ele>
        <time>2019-08-09T12:59:50Z</time>
      </trkpt>
      <trkpt lat="48.31597" lon="7.42137">
        <ele>211.3</ele>
        <time>2019-08-09T12:59:51Z</time>
      </trkpt>
      <trkpt lat="48.31591" lon="7.42137">
        <ele>211.1</ele>
        <time>2019-08-09T12:59:52Z</time>
      </trkpt>
      <trkpt lat="48.31585" lon="7.42137">
        <ele>210.9</ele>
        <time>2019-08-09T12:59:53Z</time>
      </trkpt>
      <trkpt lat="48.31579" lon="7.42138">
        <ele>210.7</ele>
        <time>2019-08-09T12:59:54Z</time>
      </trkpt>
      <trkpt lat="48.31574" lon="7.42139">
        <ele>210.6</ele>
        <time>2019-08-09T12:59:55Z</time>
      </trkpt>
      <trkpt lat="48.31568" lon="7.4214">
        <ele>210.3</ele>
        <time>2019-08-09T12:59:56Z</time>
      </trkpt>
      <trkpt lat="48.31563" lon="7.42139">
        <ele>209.9</ele>
        <time>2019-08-09T12:59:57Z</time>
      </trkpt>
      <trkpt lat="48.31557" lon="7.42141">
        <ele>209.6</ele>
        <time>2019-08-09T12:59:58Z</time>
      </trkpt>
      <trkpt lat="48.31551" lon="7.42142">
        <ele>209.2</ele>
        <time>2019-08-09T12:59:59Z</time>
      </trkpt>
      <trkpt lat="48.31545" lon="7.42144">
        <ele>208.9</ele>
        <time>2019-08-09T13:00:00Z</time>
      </trkpt>
      <trkpt lat="48.3154" lon="7.42146">
        <ele>208.7</ele>
        <time>2019-08-09T13:00:01Z</time>
      </trkpt>
      <trkpt lat="48.31534" lon="7.42147">
        <ele>208.4</ele>
        <time>2019-08-09T13:00:02Z</time>
      </trkpt>
      <trkpt lat="48.31528" lon="7.4215">
        <ele>208.1</ele>
        <time>2019-08-09T13:00:03Z</time>
      </trkpt>
      <trkpt lat="48.31523" lon="7.42151">
        <ele>207.9</ele>
        <time>2019-08-09T13:00:04Z</time>
      </trkpt>
      <trkpt lat="48.31518" lon="7.42152">
        <ele>207.7</ele>
        <time>2019-08-09T13:00:05Z</time>
      </trkpt>
      <trkpt lat="48.31512" lon="7.42154">
        <ele>207.5</ele>
        <time>2019-08-09T13:00:06Z</time>
      </trkpt>
      <trkpt lat="48.31506" lon="7.42155">
        <ele>207.5</ele>
        <time>2019-08-09T13:00:07Z</time>
      </trkpt>
      <trkpt lat="48.315" lon="7.42156">
        <ele>207.6</ele>
        <time>2019-08-09T13:00:08Z</time>
      </trkpt>
      <trkpt lat="48.31494" lon="7.42157">
        <ele>207.6</ele>
        <time>2019-08-09T13:00:09Z</time>
      </trkpt>
      <trkpt lat="48.31489" lon="7.42157">
        <ele>207.6</ele>
        <time>2019-08-09T13:00:10Z</time>
      </trkpt>
      <trkpt lat="48.31484" lon="7.42158">
        <ele>207.6</ele>
        <time>2019-08-09T13:00:11Z</time>
      </trkpt>
      <trkpt lat="48.3148" lon="7.42158">
        <ele>207.6</ele>
        <time>2019-08-09T13:00:12Z</time>
      </trkpt>
      <trkpt lat="48.31476" lon="7.42158">
        <ele>207.7</ele>
        <time>2019-08-09T13:00:13Z</time>
      </trkpt>
      <trkpt lat="48.31473" lon="7.42159">
        <ele>207.7</ele>
        <time>2019-08-09T13:00:14Z</time>
      </trkpt>
      <trkpt lat="48.31469" lon="7.4216">
        <ele>207.8</ele>
        <time>2019-08-09T13:00:15Z</time>
      </trkpt>
      <trkpt lat="48.31465" lon="7.4216">
        <ele>207.9</ele>
        <time>2019-08-09T13:00:16Z</time>
      </trkpt>
      <trkpt lat="48.31461" lon="7.42159">
        <ele>208</ele>
        <time>2019-08-09T13:00:17Z</time>
      </trkpt>
      <trkpt lat="48.31458" lon="7.42158">
        <ele>208.1</ele>
        <time>2019-08-09T13:00:18Z</time>
      </trkpt>
      <trkpt lat="48.31454" lon="7.42157">
        <ele>208.3</ele>
        <time>2019-08-09T13:00:19Z</time>
      </trkpt>
      <trkpt lat="48.31449" lon="7.42156">
        <ele>208.5</ele>
        <time>2019-08-09T13:00:20Z</time>
      </trkpt>
      <trkpt lat="48.31445" lon="7.42154">
        <ele>208.7</ele>
        <time>2019-08-09T13:00:21Z</time>
      </trkpt>
      <trkpt lat="48.31441" lon="7.42155">
        <ele>209</ele>
        <time>2019-08-09T13:00:22Z</time>
      </trkpt>
      <trkpt lat="48.31438" lon="7.42155">
        <ele>209.2</ele>
        <time>2019-08-09T13:00:23Z</time>
      </trkpt>
      <trkpt lat="48.31436" lon="7.42153">
        <ele>209.4</ele>
        <time>2019-08-09T13:00:24Z</time>
      </trkpt>
      <trkpt lat="48.31432" lon="7.42152">
        <ele>209.5</ele>
        <time>2019-08-09T13:00:25Z</time>
      </trkpt>
      <trkpt lat="48.31429" lon="7.4215">
        <ele>209.7</ele>
        <time>2019-08-09T13:00:26Z</time>
      </trkpt>
      <trkpt lat="48.31426" lon="7.4215">
        <ele>209.9</ele>
        <time>2019-08-09T13:00:27Z</time>
      </trkpt>
      <trkpt lat="48.31423" lon="7.42149">
        <ele>210</ele>
        <time>2019-08-09T13:00:28Z</time>
      </trkpt>
      <trkpt lat="48.31419" lon="7.42148">
        <ele>210.3</ele>
        <time>2019-08-09T13:00:30Z</time>
      </trkpt>
      <trkpt lat="48.31414" lon="7.42148">
        <ele>210.6</ele>
        <time>2019-08-09T13:00:32Z</time>
      </trkpt>
      <trkpt lat="48.31411" lon="7.42148">
        <ele>210.8</ele>
        <time>2019-08-09T13:00:34Z</time>
      </trkpt>
      <trkpt lat="48.31406" lon="7.42148">
        <ele>211</ele>
        <time>2019-08-09T13:00:36Z</time>
      </trkpt>
      <trkpt lat="48.31403" lon="7.42148">
        <ele>211.3</ele>
        <time>2019-08-09T13:00:38Z</time>
      </trkpt>
      <trkpt lat="48.314" lon="7.42147">
        <ele>211.5</ele>
        <time>2019-08-09T13:00:39Z</time>
      </trkpt>
      <trkpt lat="48.31395" lon="7.42148">
        <ele>211.8</ele>
        <time>2019-08-09T13:00:41Z</time>
      </trkpt>
      <trkpt lat="48.31391" lon="7.42146">
        <ele>211.9</ele>
        <time>2019-08-09T13:00:43Z</time>
      </trkpt>
      <trkpt lat="48.31387" lon="7.42145">
        <ele>212.2</ele>
        <time>2019-08-09T13:00:45Z</time>
      </trkpt>
      <trkpt lat="48.31384" lon="7.42145">
        <ele>212.3</ele>
        <time>2019-08-09T13:00:46Z</time>
      </trkpt>
      <trkpt lat="48.31379" lon="7.42146">
        <ele>212.5</ele>
        <time>2019-08-09T13:00:48Z</time>
      </trkpt>
      <trkpt lat="48.31376" lon="7.42145">
        <ele>212.6</ele>
        <time>2019-08-09T13:00:49Z</time>
      </trkpt>
      <trkpt lat="48.31372" lon="7.42141">
        <ele>212.9</ele>
        <time>2019-08-09T13:00:51Z</time>
      </trkpt>
      <trkpt lat="48.31369" lon="7.42138">
        <ele>213.1</ele>
        <time>2019-08-09T13:00:52Z</time>
      </trkpt>
      <trkpt lat="48.31365" lon="7.42135">
        <ele>213.3</ele>
        <time>2019-08-09T13:00:54Z</time>
      </trkpt>
      <trkpt lat="48.3136" lon="7.42133">
        <ele>213.5</ele>
        <time>2019-08-09T13:00:56Z</time>
      </trkpt>
      <trkpt lat="48.31355" lon="7.42131">
        <ele>213.7</ele>
        <time>2019-08-09T13:00:58Z</time>
      </trkpt>
      <trkpt lat="48.3135" lon="7.42128">
        <ele>213.8</ele>
        <time>2019-08-09T13:01:00Z</time>
      </trkpt>
      <trkpt lat="48.31347" lon="7.42127">
        <ele>213.9</ele>
        <time>2019-08-09T13:01:01Z</time>
      </trkpt>
      <trkpt lat="48.31343" lon="7.42123">
        <ele>214</ele>
        <time>2019-08-09T13:01:03Z</time>
      </trkpt>
      <trkpt lat="48.3134" lon="7.42122">
        <ele>214.1</ele>
        <time>2019-08-09T13:01:04Z</time>
      </trkpt>
      <trkpt lat="48.31338" lon="7.4212">
        <ele>214.1</ele>
        <time>2019-08-09T13:01:05Z</time>
      </trkpt>
      <trkpt lat="48.31336" lon="7.42118">
        <ele>214.2</ele>
        <time>2019-08-09T13:01:06Z</time>
      </trkpt>
      <trkpt lat="48.31331" lon="7.42114">
        <ele>214.3</ele>
        <time>2019-08-09T13:01:08Z</time>
      </trkpt>
      <trkpt lat="48.31326" lon="7.4211">
        <ele>214.4</ele>
        <time>2019-08-09T13:01:10Z</time>
      </trkpt>
      <trkpt lat="48.31324" lon="7.42108">
        <ele>214.5</ele>
        <time>2019-08-09T13:01:11Z</time>
      </trkpt>
      <trkpt lat="48.31319" lon="7.42105">
        <ele>214.6</ele>
        <time>2019-08-09T13:01:13Z</time>
      </trkpt>
      <trkpt lat="48.31315" lon="7.42101">
        <ele>214.8</ele>
        <time>2019-08-09T13:01:15Z</time>
      </trkpt>
      <trkpt lat="48.31309" lon="7.42099">
        <ele>215</ele>
        <time>2019-08-09T13:01:17Z</time>
      </trkpt>
      <trkpt lat="48.31306" lon="7.42096">
        <ele>215.1</ele>
        <time>2019-08-09T13:01:19Z</time>
      </trkpt>
      <trkpt lat="48.31303" lon="7.42094">
        <ele>215.1</ele>
        <time>2019-08-09T13:01:20Z</time>
      </trkpt>
      <trkpt lat="48.31301" lon="7.42092">
        <ele>215.2</ele>
        <time>2019-08-09T13:01:21Z</time>
      </trkpt>
      <trkpt lat="48.31298" lon="7.4209">
        <ele>215.3</ele>
        <time>2019-08-09T13:01:22Z</time>
      </trkpt>
      <trkpt lat="48.31296" lon="7.42088">
        <ele>215.4</ele>
        <time>2019-08-09T13:01:23Z</time>
      </trkpt>
      <trkpt lat="48.31291" lon="7.42084">
        <ele>215.6</ele>
        <time>2019-08-09T13:01:25Z</time>
      </trkpt>
      <trkpt lat="48.31287" lon="7.42082">
        <ele>215.7</ele>
        <time>2019-08-09T13:01:27Z</time>
      </trkpt>
      <trkpt lat="48.31284" lon="7.4208">
        <ele>215.7</ele>
        <time>2019-08-09T13:01:28Z</time>
      </trkpt>
      <trkpt lat="48.31282" lon="7.42078">
        <ele>215.8</ele>
        <time>2019-08-09T13:01:29Z</time>
      </trkpt>
      <trkpt lat="48.31279" lon="7.42077">
        <ele>215.9</ele>
        <time>2019-08-09T13:01:30Z</time>
      </trkpt>
      <trkpt lat="48.31274" lon="7.42075">
        <ele>216</ele>
        <time>2019-08-09T13:01:32Z</time>
      </trkpt>
      <trkpt lat="48.31271" lon="7.42073">
        <ele>216</ele>
        <time>2019-08-09T13:01:33Z</time>
      </trkpt>
      <trkpt lat="48.31268" lon="7.42073">
        <ele>216.1</ele>
        <time>2019-08-09T13:01:34Z</time>
      </trkpt>
      <trkpt lat="48.31264" lon="7.42071">
        <ele>216.1</ele>
        <time>2019-08-09T13:01:35Z</time>
      </trkpt>
      <trkpt lat="48.31262" lon="7.4207">
        <ele>216.1</ele>
        <time>2019-08-09T13:01:36Z</time>
      </trkpt>
      <trkpt lat="48.31259" lon="7.42068">
        <ele>216.1</ele>
        <time>2019-08-09T13:01:37Z</time>
      </trkpt>
      <trkpt lat="48.31256" lon="7.42066">
        <ele>216.2</ele>
        <time>2019-08-09T13:01:38Z</time>
      </trkpt>
      <trkpt lat="48.31254" lon="7.42065">
        <ele>216.2</ele>
        <time>2019-08-09T13:01:39Z</time>
      </trkpt>
      <trkpt lat="48.31248" lon="7.42062">
        <ele>216.2</ele>
        <time>2019-08-09T13:01:41Z</time>
      </trkpt>
      <trkpt lat="48.31246" lon="7.4206">
        <ele>216.2</ele>
        <time>2019-08-09T13:01:42Z</time>
      </trkpt>
      <trkpt lat="48.31243" lon="7.42057">
        <ele>216.3</ele>
        <time>2019-08-09T13:01:43Z</time>
      </trkpt>
      <trkpt lat="48.31239" lon="7.42054">
        <ele>216.3</ele>
        <time>2019-08-09T13:01:45Z</time>
      </trkpt>
      <trkpt lat="48.31235" lon="7.42053">
        <ele>216.3</ele>
        <time>2019-08-09T13:01:46Z</time>
      </trkpt>
      <trkpt lat="48.31232" lon="7.4205">
        <ele>216.3</ele>
        <time>2019-08-09T13:01:47Z</time>
      </trkpt>
      <trkpt lat="48.31227" lon="7.42046">
        <ele>216.4</ele>
        <time>2019-08-09T13:01:49Z</time>
      </trkpt>
      <trkpt lat="48.31224" lon="7.42043">
        <ele>216.4</ele>
        <time>2019-08-09T13:01:50Z</time>
      </trkpt>
      <trkpt lat="48.31219" lon="7.42039">
        <ele>216.4</ele>
        <time>2019-08-09T13:01:52Z</time>
      </trkpt>
      <trkpt lat="48.31217" lon="7.42036">
        <ele>216.5</ele>
        <time>2019-08-09T13:01:53Z</time>
      </trkpt>
      <trkpt lat="48.31214" lon="7.42033">
        <ele>216.5</ele>
        <time>2019-08-09T13:01:54Z</time>
      </trkpt>
      <trkpt lat="48.31212" lon="7.42029">
        <ele>216.5</ele>
        <time>2019-08-09T13:01:55Z</time>
      </trkpt>
      <trkpt lat="48.31207" lon="7.42025">
        <ele>216.6</ele>
        <time>2019-08-09T13:01:57Z</time>
      </trkpt>
      <trkpt lat="48.31203" lon="7.42019">
        <ele>216.6</ele>
        <time>2019-08-09T13:01:59Z</time>
      </trkpt>
      <trkpt lat="48.31201" lon="7.42017">
        <ele>216.7</ele>
        <time>2019-08-09T13:02:00Z</time>
      </trkpt>
      <trkpt lat="48.31197" lon="7.42011">
        <ele>216.7</ele>
        <time>2019-08-09T13:02:02Z</time>
      </trkpt>
      <trkpt lat="48.31193" lon="7.42006">
        <ele>216.8</ele>
        <time>2019-08-09T13:02:04Z</time>
      </trkpt>
      <trkpt lat="48.31189" lon="7.42002">
        <ele>216.8</ele>
        <time>2019-08-09T13:02:06Z</time>
      </trkpt>
      <trkpt lat="48.31187" lon="7.41999">
        <ele>216.9</ele>
        <time>2019-08-09T13:02:07Z</time>
      </trkpt>
      <trkpt lat="48.31184" lon="7.41997">
        <ele>216.9</ele>
        <time>2019-08-09T13:02:08Z</time>
      </trkpt>
      <trkpt lat="48.31181" lon="7.41992">
        <ele>217</ele>
        <time>2019-08-09T13:02:10Z</time>
      </trkpt>
      <trkpt lat="48.31177" lon="7.41987">
        <ele>217.1</ele>
        <time>2019-08-09T13:02:12Z</time>
      </trkpt>
      <trkpt lat="48.31174" lon="7.41982">
        <ele>217.2</ele>
        <time>2019-08-09T13:02:14Z</time>
      </trkpt>
      <trkpt lat="48.31171" lon="7.4198">
        <ele>217.2</ele>
        <time>2019-08-09T13:02:15Z</time>
      </trkpt>
      <trkpt lat="48.31166" lon="7.41976">
        <ele>217.3</ele>
        <time>2019-08-09T13:02:17Z</time>
      </trkpt>
      <trkpt lat="48.31163" lon="7.41973">
        <ele>217.4</ele>
        <time>2019-08-09T13:02:18Z</time>
      </trkpt>
      <trkpt lat="48.3116" lon="7.41971">
        <ele>217.5</ele>
        <time>2019-08-09T13:02:19Z</time>
      </trkpt>
      <trkpt lat="48.31157" lon="7.41968">
        <ele>217.5</ele>
        <time>2019-08-09T13:02:20Z</time>
      </trkpt>
      <trkpt lat="48.31155" lon="7.41965">
        <ele>217.6</ele>
        <time>2019-08-09T13:02:21Z</time>
      </trkpt>
      <trkpt lat="48.31152" lon="7.41963">
        <ele>217.6</ele>
        <time>2019-08-09T13:02:22Z</time>
      </trkpt>
      <trkpt lat="48.31148" lon="7.41957">
        <ele>217.7</ele>
        <time>2019-08-09T13:02:24Z</time>
      </trkpt>
      <trkpt lat="48.31145" lon="7.41954">
        <ele>217.7</ele>
        <time>2019-08-09T13:02:25Z</time>
      </trkpt>
      <trkpt lat="48.31143" lon="7.41951">
        <ele>217.7</ele>
        <time>2019-08-09T13:02:26Z</time>
      </trkpt>
      <trkpt lat="48.31139" lon="7.41949">
        <ele>217.6</ele>
        <time>2019-08-09T13:02:27Z</time>
      </trkpt>
      <trkpt lat="48.31136" lon="7.41947">
        <ele>217.6</ele>
        <time>2019-08-09T13:02:28Z</time>
      </trkpt>
      <trkpt lat="48.31133" lon="7.41945">
        <ele>217.6</ele>
        <time>2019-08-09T13:02:29Z</time>
      </trkpt>
      <trkpt lat="48.31129" lon="7.41944">
        <ele>217.6</ele>
        <time>2019-08-09T13:02:30Z</time>
      </trkpt>
      <trkpt lat="48.31126" lon="7.41941">
        <ele>217.5</ele>
        <time>2019-08-09T13:02:31Z</time>
      </trkpt>
      <trkpt lat="48.31122" lon="7.41939">
        <ele>217.4</ele>
        <time>2019-08-09T13:02:32Z</time>
      </trkpt>
      <trkpt lat="48.31117" lon="7.41935">
        <ele>217.3</ele>
        <time>2019-08-09T13:02:33Z</time>
      </trkpt>
      <trkpt lat="48.31113" lon="7.41932">
        <ele>217.1</ele>
        <time>2019-08-09T13:02:34Z</time>
      </trkpt>
      <trkpt lat="48.31108" lon="7.41928">
        <ele>216.9</ele>
        <time>2019-08-09T13:02:35Z</time>
      </trkpt>
      <trkpt lat="48.31104" lon="7.41925">
        <ele>216.7</ele>
        <time>2019-08-09T13:02:36Z</time>
      </trkpt>
      <trkpt lat="48.311" lon="7.41921">
        <ele>216.6</ele>
        <time>2019-08-09T13:02:37Z</time>
      </trkpt>
      <trkpt lat="48.31096" lon="7.41917">
        <ele>216.4</ele>
        <time>2019-08-09T13:02:38Z</time>
      </trkpt>
      <trkpt lat="48.31092" lon="7.41913">
        <ele>216.2</ele>
        <time>2019-08-09T13:02:39Z</time>
      </trkpt>
      <trkpt lat="48.31088" lon="7.41909">
        <ele>216.1</ele>
        <time>2019-08-09T13:02:40Z</time>
      </trkpt>
      <trkpt lat="48.31085" lon="7.41903">
        <ele>215.9</ele>
        <time>2019-08-09T13:02:41Z</time>
      </trkpt>
      <trkpt lat="48.3108" lon="7.41899">
        <ele>215.6</ele>
        <time>2019-08-09T13:02:42Z</time>
      </trkpt>
      <trkpt lat="48.31076" lon="7.41894">
        <ele>215.4</ele>
        <time>2019-08-09T13:02:43Z</time>
      </trkpt>
      <trkpt lat="48.31072" lon="7.41889">
        <ele>215.3</ele>
        <time>2019-08-09T13:02:44Z</time>
      </trkpt>
      <trkpt lat="48.31068" lon="7.41885">
        <ele>215.1</ele>
        <time>2019-08-09T13:02:45Z</time>
      </trkpt>
      <trkpt lat="48.31064" lon="7.41881">
        <ele>215</ele>
        <time>2019-08-09T13:02:46Z</time>
      </trkpt>
      <trkpt lat="48.3106" lon="7.41876">
        <ele>214.9</ele>
        <time>2019-08-09T13:02:47Z</time>
      </trkpt>
      <trkpt lat="48.31056" lon="7.41872">
        <ele>214.7</ele>
        <time>2019-08-09T13:02:48Z</time>
      </trkpt>
      <trkpt lat="48.31053" lon="7.41869">
        <ele>214.6</ele>
        <time>2019-08-09T13:02:49Z</time>
      </trkpt>
      <trkpt lat="48.3105" lon="7.41865">
        <ele>214.5</ele>
        <time>2019-08-09T13:02:50Z</time>
      </trkpt>
      <trkpt lat="48.31047" lon="7.41863">
        <ele>214.5</ele>
        <time>2019-08-09T13:02:51Z</time>
      </trkpt>
      <trkpt lat="48.31044" lon="7.41862">
        <ele>214.9</ele>
        <time>2019-08-09T13:02:52Z</time>
      </trkpt>
      <trkpt lat="48.31041" lon="7.41859">
        <ele>215.1</ele>
        <time>2019-08-09T13:02:53Z</time>
      </trkpt>
      <trkpt lat="48.31037" lon="7.41856">
        <ele>215.3</ele>
        <time>2019-08-09T13:02:54Z</time>
      </trkpt>
      <trkpt lat="48.31033" lon="7.41855">
        <ele>215.7</ele>
        <time>2019-08-09T13:02:55Z</time>
      </trkpt>
      <trkpt lat="48.3103" lon="7.41853">
        <ele>215.9</ele>
        <time>2019-08-09T13:02:56Z</time>
      </trkpt>
      <trkpt lat="48.31026" lon="7.41853">
        <ele>216</ele>
        <time>2019-08-09T13:02:57Z</time>
      </trkpt>
      <trkpt lat="48.31021" lon="7.41852">
        <ele>216.3</ele>
        <time>2019-08-09T13:02:59Z</time>
      </trkpt>
      <trkpt lat="48.31017" lon="7.41852">
        <ele>216.4</ele>
        <time>2019-08-09T13:03:01Z</time>
      </trkpt>
      <trkpt lat="48.31014" lon="7.41849">
        <ele>216.6</ele>
        <time>2019-08-09T13:03:03Z</time>
      </trkpt>
      <trkpt lat="48.31012" lon="7.41845">
        <ele>216.8</ele>
        <time>2019-08-09T13:03:12Z</time>
      </trkpt>
      <trkpt lat="48.30997" lon="7.41844">
        <ele>217.8</ele>
        <time>2019-08-09T13:05:14Z</time>
      </trkpt>
      <trkpt lat="48.30995" lon="7.41839">
        <ele>218</ele>
        <time>2019-08-09T13:05:17Z</time>
      </trkpt>
      <trkpt lat="48.30994" lon="7.41834">
        <ele>218.2</ele>
        <time>2019-08-09T13:05:19Z</time>
      </trkpt>
      <trkpt lat="48.30992" lon="7.41829">
        <ele>218.4</ele>
        <time>2019-08-09T13:05:20Z</time>
      </trkpt>
      <trkpt lat="48.30991" lon="7.41823">
        <ele>218.6</ele>
        <time>2019-08-09T13:05:22Z</time>
      </trkpt>
      <trkpt lat="48.30991" lon="7.41818">
        <ele>218.7</ele>
        <time>2019-08-09T13:05:24Z</time>
      </trkpt>
      <trkpt lat="48.3099" lon="7.41813">
        <ele>218.8</ele>
        <time>2019-08-09T13:05:26Z</time>
      </trkpt>
      <trkpt lat="48.30989" lon="7.41808">
        <ele>219</ele>
        <time>2019-08-09T13:05:28Z</time>
      </trkpt>
      <trkpt lat="48.30988" lon="7.41803">
        <ele>219.1</ele>
        <time>2019-08-09T13:05:30Z</time>
      </trkpt>
      <trkpt lat="48.30985" lon="7.41801">
        <ele>218.9</ele>
        <time>2019-08-09T13:05:32Z</time>
      </trkpt>
      <trkpt lat="48.30983" lon="7.41804">
        <ele>218.7</ele>
        <time>2019-08-09T13:05:33Z</time>
      </trkpt>
      <trkpt lat="48.3098" lon="7.4181">
        <ele>218.3</ele>
        <time>2019-08-09T13:05:35Z</time>
      </trkpt>
      <trkpt lat="48.30979" lon="7.41816">
        <ele>218</ele>
        <time>2019-08-09T13:05:37Z</time>
      </trkpt>
      <trkpt lat="48.30978" lon="7.41824">
        <ele>217.6</ele>
        <time>2019-08-09T13:05:39Z</time>
      </trkpt>
      <trkpt lat="48.30978" lon="7.41831">
        <ele>217.2</ele>
        <time>2019-08-09T13:05:40Z</time>
      </trkpt>
      <trkpt lat="48.30977" lon="7.41838">
        <ele>216.8</ele>
        <time>2019-08-09T13:05:41Z</time>
      </trkpt>
      <trkpt lat="48.30975" lon="7.41843">
        <ele>216.5</ele>
        <time>2019-08-09T13:05:42Z</time>
      </trkpt>
      <trkpt lat="48.30972" lon="7.41846">
        <ele>216.2</ele>
        <time>2019-08-09T13:05:43Z</time>
      </trkpt>
      <trkpt lat="48.3097" lon="7.4185">
        <ele>215.9</ele>
        <time>2019-08-09T13:05:44Z</time>
      </trkpt>
      <trkpt lat="48.30967" lon="7.41851">
        <ele>215.7</ele>
        <time>2019-08-09T13:05:45Z</time>
      </trkpt>
      <trkpt lat="48.30964" lon="7.41852">
        <ele>215.4</ele>
        <time>2019-08-09T13:05:46Z</time>
      </trkpt>
      <trkpt lat="48.30961" lon="7.41853">
        <ele>215.2</ele>
        <time>2019-08-09T13:05:47Z</time>
      </trkpt>
      <trkpt lat="48.30958" lon="7.41854">
        <ele>215</ele>
        <time>2019-08-09T13:05:48Z</time>
      </trkpt>
      <trkpt lat="48.30955" lon="7.41856">
        <ele>214.8</ele>
        <time>2019-08-09T13:05:49Z</time>
      </trkpt>
      <trkpt lat="48.30952" lon="7.41859">
        <ele>214.6</ele>
        <time>2019-08-09T13:05:50Z</time>
      </trkpt>
      <trkpt lat="48.30948" lon="7.41862">
        <ele>214.4</ele>
        <time>2019-08-09T13:05:51Z</time>
      </trkpt>
      <trkpt lat="48.30945" lon="7.41863">
        <ele>214.1</ele>
        <time>2019-08-09T13:05:52Z</time>
      </trkpt>
      <trkpt lat="48.30942" lon="7.41861">
        <ele>213.9</ele>
        <time>2019-08-09T13:05:53Z</time>
      </trkpt>
      <trkpt lat="48.30938" lon="7.41858">
        <ele>213.6</ele>
        <time>2019-08-09T13:05:54Z</time>
      </trkpt>
      <trkpt lat="48.30935" lon="7.41857">
        <ele>213.4</ele>
        <time>2019-08-09T13:05:55Z</time>
      </trkpt>
      <trkpt lat="48.30932" lon="7.41856">
        <ele>213.2</ele>
        <time>2019-08-09T13:05:56Z</time>
      </trkpt>
      <trkpt lat="48.30928" lon="7.41855">
        <ele>213</ele>
        <time>2019-08-09T13:05:57Z</time>
      </trkpt>
      <trkpt lat="48.30923" lon="7.41852">
        <ele>212.8</ele>
        <time>2019-08-09T13:05:58Z</time>
      </trkpt>
      <trkpt lat="48.30919" lon="7.41849">
        <ele>212.5</ele>
        <time>2019-08-09T13:05:59Z</time>
      </trkpt>
      <trkpt lat="48.30915" lon="7.41846">
        <ele>212.3</ele>
        <time>2019-08-09T13:06:00Z</time>
      </trkpt>
      <trkpt lat="48.30911" lon="7.41844">
        <ele>212</ele>
        <time>2019-08-09T13:06:01Z</time>
      </trkpt>
      <trkpt lat="48.30906" lon="7.41842">
        <ele>211.7</ele>
        <time>2019-08-09T13:06:02Z</time>
      </trkpt>
      <trkpt lat="48.30901" lon="7.4184">
        <ele>211.4</ele>
        <time>2019-08-09T13:06:03Z</time>
      </trkpt>
      <trkpt lat="48.30896" lon="7.41836">
        <ele>210.9</ele>
        <time>2019-08-09T13:06:04Z</time>
      </trkpt>
      <trkpt lat="48.3089" lon="7.41835">
        <ele>210.5</ele>
        <time>2019-08-09T13:06:05Z</time>
      </trkpt>
      <trkpt lat="48.30885" lon="7.41832">
        <ele>210.1</ele>
        <time>2019-08-09T13:06:06Z</time>
      </trkpt>
      <trkpt lat="48.30878" lon="7.41829">
        <ele>209.6</ele>
        <time>2019-08-09T13:06:07Z</time>
      </trkpt>
      <trkpt lat="48.30872" lon="7.41825">
        <ele>208.9</ele>
        <time>2019-08-09T13:06:08Z</time>
      </trkpt>
      <trkpt lat="48.30866" lon="7.41823">
        <ele>208.2</ele>
        <time>2019-08-09T13:06:09Z</time>
      </trkpt>
      <trkpt lat="48.3086" lon="7.41819">
        <ele>207.4</ele>
        <time>2019-08-09T13:06:10Z</time>
      </trkpt>
      <trkpt lat="48.30856" lon="7.41816">
        <ele>207</ele>
        <time>2019-08-09T13:06:11Z</time>
      </trkpt>
      <trkpt lat="48.30852" lon="7.41813">
        <ele>206.6</ele>
        <time>2019-08-09T13:06:12Z</time>
      </trkpt>
      <trkpt lat="48.30849" lon="7.41811">
        <ele>206.4</ele>
        <time>2019-08-09T13:06:13Z</time>
      </trkpt>
      <trkpt lat="48.30846" lon="7.4181">
        <ele>206.2</ele>
        <time>2019-08-09T13:06:14Z</time>
      </trkpt>
      <trkpt lat="48.30842" lon="7.41808">
        <ele>205.8</ele>
        <time>2019-08-09T13:06:16Z</time>
      </trkpt>
      <trkpt lat="48.30838" lon="7.41811">
        <ele>205.2</ele>
        <time>2019-08-09T13:06:18Z</time>
      </trkpt>
      <trkpt lat="48.30837" lon="7.41812">
        <ele>204.7</ele>
        <time>2019-08-09T13:06:21Z</time>
      </trkpt>
      <trkpt lat="48.30835" lon="7.41814">
        <ele>204.5</ele>
        <time>2019-08-09T13:06:24Z</time>
      </trkpt>
      <trkpt lat="48.30834" lon="7.41816">
        <ele>204.3</ele>
        <time>2019-08-09T13:06:57Z</time>
      </trkpt>
      <trkpt lat="48.30833" lon="7.41818">
        <ele>204.1</ele>
        <time>2019-08-09T13:07:00Z</time>
      </trkpt>
      <trkpt lat="48.30832" lon="7.4182">
        <ele>203.9</ele>
        <time>2019-08-09T13:07:17Z</time>
      </trkpt>
      <trkpt lat="48.30831" lon="7.41822">
        <ele>203.7</ele>
        <time>2019-08-09T13:07:36Z</time>
      </trkpt>
      <trkpt lat="48.3083" lon="7.41824">
        <ele>203.5</ele>
        <time>2019-08-09T13:09:12Z</time>
      </trkpt>
      <trkpt lat="48.30828" lon="7.41826">
        <ele>203.3</ele>
        <time>2019-08-09T13:09:33Z</time>
      </trkpt>
      <trkpt lat="48.30827" lon="7.41827">
        <ele>203.2</ele>
        <time>2019-08-09T13:09:48Z</time>
      </trkpt>
      <trkpt lat="48.30826" lon="7.41829">
        <ele>203</ele>
        <time>2019-08-09T13:09:49Z</time>
      </trkpt>
      <trkpt lat="48.30824" lon="7.41834">
        <ele>202.6</ele>
        <time>2019-08-09T13:09:50Z</time>
      </trkpt>
      <trkpt lat="48.30824" lon="7.41841">
        <ele>202.2</ele>
        <time>2019-08-09T13:09:51Z</time>
      </trkpt>
      <trkpt lat="48.30823" lon="7.41847">
        <ele>201.8</ele>
        <time>2019-08-09T13:09:52Z</time>
      </trkpt>
      <trkpt lat="48.30821" lon="7.41855">
        <ele>201.3</ele>
        <time>2019-08-09T13:09:53Z</time>
      </trkpt>
      <trkpt lat="48.30817" lon="7.41864">
        <ele>200.8</ele>
        <time>2019-08-09T13:09:54Z</time>
      </trkpt>
      <trkpt lat="48.30815" lon="7.41872">
        <ele>200.3</ele>
        <time>2019-08-09T13:09:55Z</time>
      </trkpt>
      <trkpt lat="48.30812" lon="7.41882">
        <ele>199.6</ele>
        <time>2019-08-09T13:09:56Z</time>
      </trkpt>
      <trkpt lat="48.3081" lon="7.41891">
        <ele>198.9</ele>
        <time>2019-08-09T13:09:57Z</time>
      </trkpt>
      <trkpt lat="48.30808" lon="7.419">
        <ele>198.4</ele>
        <time>2019-08-09T13:09:58Z</time>
      </trkpt>
      <trkpt lat="48.30805" lon="7.41909">
        <ele>198.2</ele>
        <time>2019-08-09T13:09:59Z</time>
      </trkpt>
      <trkpt lat="48.30803" lon="7.4192">
        <ele>198</ele>
        <time>2019-08-09T13:10:00Z</time>
      </trkpt>
      <trkpt lat="48.308" lon="7.41931">
        <ele>197.7</ele>
        <time>2019-08-09T13:10:01Z</time>
      </trkpt>
      <trkpt lat="48.30795" lon="7.41939">
        <ele>197.5</ele>
        <time>2019-08-09T13:10:02Z</time>
      </trkpt>
      <trkpt lat="48.30791" lon="7.41947">
        <ele>197.3</ele>
        <time>2019-08-09T13:10:03Z</time>
      </trkpt>
      <trkpt lat="48.30785" lon="7.41955">
        <ele>197.2</ele>
        <time>2019-08-09T13:10:04Z</time>
      </trkpt>
      <trkpt lat="48.3078" lon="7.41962">
        <ele>197</ele>
        <time>2019-08-09T13:10:05Z</time>
      </trkpt>
      <trkpt lat="48.30775" lon="7.4197">
        <ele>196.9</ele>
        <time>2019-08-09T13:10:06Z</time>
      </trkpt>
      <trkpt lat="48.3077" lon="7.41978">
        <ele>196.8</ele>
        <time>2019-08-09T13:10:07Z</time>
      </trkpt>
      <trkpt lat="48.30766" lon="7.41986">
        <ele>196.7</ele>
        <time>2019-08-09T13:10:08Z</time>
      </trkpt>
      <trkpt lat="48.30763" lon="7.41995">
        <ele>196.5</ele>
        <time>2019-08-09T13:10:09Z</time>
      </trkpt>
      <trkpt lat="48.3076" lon="7.42004">
        <ele>196.3</ele>
        <time>2019-08-09T13:10:10Z</time>
      </trkpt>
      <trkpt lat="48.30759" lon="7.42014">
        <ele>196.2</ele>
        <time>2019-08-09T13:10:11Z</time>
      </trkpt>
      <trkpt lat="48.30758" lon="7.42023">
        <ele>196</ele>
        <time>2019-08-09T13:10:12Z</time>
      </trkpt>
      <trkpt lat="48.30757" lon="7.42031">
        <ele>195.9</ele>
        <time>2019-08-09T13:10:13Z</time>
      </trkpt>
      <trkpt lat="48.30756" lon="7.42039">
        <ele>195.8</ele>
        <time>2019-08-09T13:10:14Z</time>
      </trkpt>
      <trkpt lat="48.30755" lon="7.42046">
        <ele>195.6</ele>
        <time>2019-08-09T13:10:15Z</time>
      </trkpt>
      <trkpt lat="48.30755" lon="7.42052">
        <ele>195.5</ele>
        <time>2019-08-09T13:10:16Z</time>
      </trkpt>
      <trkpt lat="48.30755" lon="7.42057">
        <ele>195.5</ele>
        <time>2019-08-09T13:10:17Z</time>
      </trkpt>
      <trkpt lat="48.30753" lon="7.4206">
        <ele>195.4</ele>
        <time>2019-08-09T13:10:19Z</time>
      </trkpt>
      <trkpt lat="48.30751" lon="7.42055">
        <ele>195.3</ele>
        <time>2019-08-09T13:10:21Z</time>
      </trkpt>
      <trkpt lat="48.30748" lon="7.42051">
        <ele>194.9</ele>
        <time>2019-08-09T13:10:22Z</time>
      </trkpt>
      <trkpt lat="48.30745" lon="7.42048">
        <ele>194.6</ele>
        <time>2019-08-09T13:10:23Z</time>
      </trkpt>
      <trkpt lat="48.30742" lon="7.42044">
        <ele>194.3</ele>
        <time>2019-08-09T13:10:24Z</time>
      </trkpt>
      <trkpt lat="48.30739" lon="7.42041">
        <ele>194</ele>
        <time>2019-08-09T13:10:25Z</time>
      </trkpt>
      <trkpt lat="48.30735" lon="7.42038">
        <ele>193.8</ele>
        <time>2019-08-09T13:10:26Z</time>
      </trkpt>
      <trkpt lat="48.30731" lon="7.42035">
        <ele>193.6</ele>
        <time>2019-08-09T13:10:27Z</time>
      </trkpt>
      <trkpt lat="48.30726" lon="7.42033">
        <ele>193.4</ele>
        <time>2019-08-09T13:10:28Z</time>
      </trkpt>
      <trkpt lat="48.30722" lon="7.4203">
        <ele>193.2</ele>
        <time>2019-08-09T13:10:29Z</time>
      </trkpt>
      <trkpt lat="48.30718" lon="7.42027">
        <ele>193</ele>
        <time>2019-08-09T13:10:30Z</time>
      </trkpt>
      <trkpt lat="48.30714" lon="7.42023">
        <ele>192.8</ele>
        <time>2019-08-09T13:10:31Z</time>
      </trkpt>
      <trkpt lat="48.30709" lon="7.42019">
        <ele>192.6</ele>
        <time>2019-08-09T13:10:32Z</time>
      </trkpt>
      <trkpt lat="48.30705" lon="7.42014">
        <ele>192.3</ele>
        <time>2019-08-09T13:10:33Z</time>
      </trkpt>
      <trkpt lat="48.30701" lon="7.42009">
        <ele>192</ele>
        <time>2019-08-09T13:10:34Z</time>
      </trkpt>
      <trkpt lat="48.30696" lon="7.42004">
        <ele>191.7</ele>
        <time>2019-08-09T13:10:35Z</time>
      </trkpt>
      <trkpt lat="48.30692" lon="7.41999">
        <ele>191.5</ele>
        <time>2019-08-09T13:10:36Z</time>
      </trkpt>
      <trkpt lat="48.30689" lon="7.41991">
        <ele>191.2</ele>
        <time>2019-08-09T13:10:37Z</time>
      </trkpt>
      <trkpt lat="48.30686" lon="7.41985">
        <ele>191.1</ele>
        <time>2019-08-09T13:10:38Z</time>
      </trkpt>
      <trkpt lat="48.30682" lon="7.41979">
        <ele>191</ele>
        <time>2019-08-09T13:10:39Z</time>
      </trkpt>
      <trkpt lat="48.30677" lon="7.41973">
        <ele>190.9</ele>
        <time>2019-08-09T13:10:40Z</time>
      </trkpt>
      <trkpt lat="48.30673" lon="7.41968">
        <ele>190.8</ele>
        <time>2019-08-09T13:10:41Z</time>
      </trkpt>
      <trkpt lat="48.30668" lon="7.41963">
        <ele>190.8</ele>
        <time>2019-08-09T13:10:42Z</time>
      </trkpt>
      <trkpt lat="48.30664" lon="7.41958">
        <ele>190.7</ele>
        <time>2019-08-09T13:10:43Z</time>
      </trkpt>
      <trkpt lat="48.30659" lon="7.41954">
        <ele>190.7</ele>
        <time>2019-08-09T13:10:44Z</time>
      </trkpt>
      <trkpt lat="48.30654" lon="7.41951">
        <ele>190.5</ele>
        <time>2019-08-09T13:10:45Z</time>
      </trkpt>
      <trkpt lat="48.30649" lon="7.41946">
        <ele>190.4</ele>
        <time>2019-08-09T13:10:46Z</time>
      </trkpt>
      <trkpt lat="48.30644" lon="7.41941">
        <ele>190.3</ele>
        <time>2019-08-09T13:10:47Z</time>
      </trkpt>
      <trkpt lat="48.30639" lon="7.41937">
        <ele>190.2</ele>
        <time>2019-08-09T13:10:48Z</time>
      </trkpt>
      <trkpt lat="48.30634" lon="7.41933">
        <ele>190.1</ele>
        <time>2019-08-09T13:10:49Z</time>
      </trkpt>
      <trkpt lat="48.30629" lon="7.4193">
        <ele>190</ele>
        <time>2019-08-09T13:10:50Z</time>
      </trkpt>
      <trkpt lat="48.30624" lon="7.41927">
        <ele>189.9</ele>
        <time>2019-08-09T13:10:51Z</time>
      </trkpt>
      <trkpt lat="48.3062" lon="7.41923">
        <ele>189.8</ele>
        <time>2019-08-09T13:10:52Z</time>
      </trkpt>
      <trkpt lat="48.30615" lon="7.41919">
        <ele>189.7</ele>
        <time>2019-08-09T13:10:53Z</time>
      </trkpt>
      <trkpt lat="48.30609" lon="7.41917">
        <ele>189.6</ele>
        <time>2019-08-09T13:10:54Z</time>
      </trkpt>
      <trkpt lat="48.30604" lon="7.41915">
        <ele>189.5</ele>
        <time>2019-08-09T13:10:55Z</time>
      </trkpt>
      <trkpt lat="48.30598" lon="7.41913">
        <ele>189.4</ele>
        <time>2019-08-09T13:10:56Z</time>
      </trkpt>
      <trkpt lat="48.30593" lon="7.4191">
        <ele>189.3</ele>
        <time>2019-08-09T13:10:57Z</time>
      </trkpt>
      <trkpt lat="48.30588" lon="7.41906">
        <ele>189.3</ele>
        <time>2019-08-09T13:10:58Z</time>
      </trkpt>
      <trkpt lat="48.30583" lon="7.41903">
        <ele>189.3</ele>
        <time>2019-08-09T13:10:59Z</time>
      </trkpt>
      <trkpt lat="48.30579" lon="7.419">
        <ele>189.3</ele>
        <time>2019-08-09T13:11:00Z</time>
      </trkpt>
      <trkpt lat="48.30574" lon="7.41898">
        <ele>189.4</ele>
        <time>2019-08-09T13:11:01Z</time>
      </trkpt>
      <trkpt lat="48.30569" lon="7.41897">
        <ele>189.5</ele>
        <time>2019-08-09T13:11:02Z</time>
      </trkpt>
      <trkpt lat="48.30564" lon="7.41895">
        <ele>189.7</ele>
        <time>2019-08-09T13:11:03Z</time>
      </trkpt>
      <trkpt lat="48.30559" lon="7.41893">
        <ele>189.8</ele>
        <time>2019-08-09T13:11:04Z</time>
      </trkpt>
      <trkpt lat="48.30555" lon="7.41888">
        <ele>190</ele>
        <time>2019-08-09T13:11:05Z</time>
      </trkpt>
      <trkpt lat="48.3055" lon="7.41885">
        <ele>190.1</ele>
        <time>2019-08-09T13:11:06Z</time>
      </trkpt>
      <trkpt lat="48.30546" lon="7.41882">
        <ele>190.2</ele>
        <time>2019-08-09T13:11:07Z</time>
      </trkpt>
      <trkpt lat="48.30542" lon="7.41879">
        <ele>190.4</ele>
        <time>2019-08-09T13:11:08Z</time>
      </trkpt>
      <trkpt lat="48.30537" lon="7.41876">
        <ele>190.5</ele>
        <time>2019-08-09T13:11:09Z</time>
      </trkpt>
      <trkpt lat="48.30533" lon="7.41873">
        <ele>190.6</ele>
        <time>2019-08-09T13:11:10Z</time>
      </trkpt>
      <trkpt lat="48.30529" lon="7.41871">
        <ele>190.7</ele>
        <time>2019-08-09T13:11:11Z</time>
      </trkpt>
      <trkpt lat="48.30526" lon="7.41867">
        <ele>190.8</ele>
        <time>2019-08-09T13:11:12Z</time>
      </trkpt>
      <trkpt lat="48.30522" lon="7.41865">
        <ele>190.9</ele>
        <time>2019-08-09T13:11:13Z</time>
      </trkpt>
      <trkpt lat="48.30519" lon="7.41863">
        <ele>191</ele>
        <time>2019-08-09T13:11:14Z</time>
      </trkpt>
      <trkpt lat="48.30516" lon="7.4186">
        <ele>191.1</ele>
        <time>2019-08-09T13:11:15Z</time>
      </trkpt>
      <trkpt lat="48.30512" lon="7.41858">
        <ele>191.2</ele>
        <time>2019-08-09T13:11:16Z</time>
      </trkpt>
      <trkpt lat="48.30509" lon="7.41855">
        <ele>191.3</ele>
        <time>2019-08-09T13:11:17Z</time>
      </trkpt>
      <trkpt lat="48.30506" lon="7.41852">
        <ele>191.4</ele>
        <time>2019-08-09T13:11:18Z</time>
      </trkpt>
      <trkpt lat="48.30503" lon="7.4185">
        <ele>191.5</ele>
        <time>2019-08-09T13:11:19Z</time>
      </trkpt>
      <trkpt lat="48.305" lon="7.41848">
        <ele>191.6</ele>
        <time>2019-08-09T13:11:20Z</time>
      </trkpt>
      <trkpt lat="48.30497" lon="7.41847">
        <ele>191.7</ele>
        <time>2019-08-09T13:11:21Z</time>
      </trkpt>
      <trkpt lat="48.30494" lon="7.41845">
        <ele>191.8</ele>
        <time>2019-08-09T13:11:22Z</time>
      </trkpt>
      <trkpt lat="48.30491" lon="7.41843">
        <ele>191.8</ele>
        <time>2019-08-09T13:11:23Z</time>
      </trkpt>
      <trkpt lat="48.30487" lon="7.41841">
        <ele>191.9</ele>
        <time>2019-08-09T13:11:24Z</time>
      </trkpt>
      <trkpt lat="48.30485" lon="7.41838">
        <ele>192</ele>
        <time>2019-08-09T13:11:25Z</time>
      </trkpt>
      <trkpt lat="48.30482" lon="7.41834">
        <ele>192.1</ele>
        <time>2019-08-09T13:11:26Z</time>
      </trkpt>
      <trkpt lat="48.30479" lon="7.41832">
        <ele>192.1</ele>
        <time>2019-08-09T13:11:27Z</time>
      </trkpt>
      <trkpt lat="48.30477" lon="7.41827">
        <ele>192.2</ele>
        <time>2019-08-09T13:11:28Z</time>
      </trkpt>
      <trkpt lat="48.30474" lon="7.41824">
        <ele>192.3</ele>
        <time>2019-08-09T13:11:29Z</time>
      </trkpt>
      <trkpt lat="48.30471" lon="7.41823">
        <ele>192.3</ele>
        <time>2019-08-09T13:11:30Z</time>
      </trkpt>
      <trkpt lat="48.30468" lon="7.41821">
        <ele>192.4</ele>
        <time>2019-08-09T13:11:31Z</time>
      </trkpt>
      <trkpt lat="48.30465" lon="7.41817">
        <ele>192.5</ele>
        <time>2019-08-09T13:11:32Z</time>
      </trkpt>
      <trkpt lat="48.30462" lon="7.41814">
        <ele>192.5</ele>
        <time>2019-08-09T13:11:33Z</time>
      </trkpt>
      <trkpt lat="48.30459" lon="7.41812">
        <ele>192.6</ele>
        <time>2019-08-09T13:11:34Z</time>
      </trkpt>
      <trkpt lat="48.30456" lon="7.41809">
        <ele>192.6</ele>
        <time>2019-08-09T13:11:35Z</time>
      </trkpt>
      <trkpt lat="48.30453" lon="7.41807">
        <ele>192.6</ele>
        <time>2019-08-09T13:11:36Z</time>
      </trkpt>
      <trkpt lat="48.30451" lon="7.41804">
        <ele>192.6</ele>
        <time>2019-08-09T13:11:37Z</time>
      </trkpt>
      <trkpt lat="48.30448" lon="7.41802">
        <ele>192.7</ele>
        <time>2019-08-09T13:11:38Z</time>
      </trkpt>
      <trkpt lat="48.30446" lon="7.41799">
        <ele>192.7</ele>
        <time>2019-08-09T13:11:39Z</time>
      </trkpt>
      <trkpt lat="48.30443" lon="7.41797">
        <ele>192.7</ele>
        <time>2019-08-09T13:11:40Z</time>
      </trkpt>
      <trkpt lat="48.3044" lon="7.41794">
        <ele>192.8</ele>
        <time>2019-08-09T13:11:41Z</time>
      </trkpt>
      <trkpt lat="48.30437" lon="7.41793">
        <ele>192.8</ele>
        <time>2019-08-09T13:11:42Z</time>
      </trkpt>
      <trkpt lat="48.30434" lon="7.4179">
        <ele>192.8</ele>
        <time>2019-08-09T13:11:43Z</time>
      </trkpt>
      <trkpt lat="48.30431" lon="7.41787">
        <ele>192.9</ele>
        <time>2019-08-09T13:11:44Z</time>
      </trkpt>
      <trkpt lat="48.30428" lon="7.41784">
        <ele>192.9</ele>
        <time>2019-08-09T13:11:45Z</time>
      </trkpt>
      <trkpt lat="48.30425" lon="7.41783">
        <ele>193</ele>
        <time>2019-08-09T13:11:46Z</time>
      </trkpt>
      <trkpt lat="48.30421" lon="7.41781">
        <ele>193</ele>
        <time>2019-08-09T13:11:47Z</time>
      </trkpt>
      <trkpt lat="48.30418" lon="7.4178">
        <ele>193.1</ele>
        <time>2019-08-09T13:11:48Z</time>
      </trkpt>
      <trkpt lat="48.30414" lon="7.41777">
        <ele>193.2</ele>
        <time>2019-08-09T13:11:49Z</time>
      </trkpt>
      <trkpt lat="48.30412" lon="7.41774">
        <ele>193.2</ele>
        <time>2019-08-09T13:11:50Z</time>
      </trkpt>
      <trkpt lat="48.30408" lon="7.41773">
        <ele>193.3</ele>
        <time>2019-08-09T13:11:51Z</time>
      </trkpt>
      <trkpt lat="48.30405" lon="7.41771">
        <ele>193.4</ele>
        <time>2019-08-09T13:11:52Z</time>
      </trkpt>
      <trkpt lat="48.30401" lon="7.41769">
        <ele>193.4</ele>
        <time>2019-08-09T13:11:53Z</time>
      </trkpt>
      <trkpt lat="48.30397" lon="7.41767">
        <ele>193.5</ele>
        <time>2019-08-09T13:11:54Z</time>
      </trkpt>
      <trkpt lat="48.30394" lon="7.41764">
        <ele>193.6</ele>
        <time>2019-08-09T13:11:55Z</time>
      </trkpt>
      <trkpt lat="48.30389" lon="7.41762">
        <ele>193.6</ele>
        <time>2019-08-09T13:11:57Z</time>
      </trkpt>
      <trkpt lat="48.30384" lon="7.41759">
        <ele>193.6</ele>
        <time>2019-08-09T13:11:59Z</time>
      </trkpt>
      <trkpt lat="48.30381" lon="7.41757">
        <ele>193.6</ele>
        <time>2019-08-09T13:12:00Z</time>
      </trkpt>
      <trkpt lat="48.30379" lon="7.41755">
        <ele>193.5</ele>
        <time>2019-08-09T13:12:01Z</time>
      </trkpt>
      <trkpt lat="48.30375" lon="7.41753">
        <ele>193.5</ele>
        <time>2019-08-09T13:12:02Z</time>
      </trkpt>
      <trkpt lat="48.30372" lon="7.41752">
        <ele>193.5</ele>
        <time>2019-08-09T13:12:03Z</time>
      </trkpt>
      <trkpt lat="48.30368" lon="7.4175">
        <ele>193.4</ele>
        <time>2019-08-09T13:12:04Z</time>
      </trkpt>
      <trkpt lat="48.30364" lon="7.4175">
        <ele>193.4</ele>
        <time>2019-08-09T13:12:05Z</time>
      </trkpt>
      <trkpt lat="48.30359" lon="7.41748">
        <ele>193.3</ele>
        <time>2019-08-09T13:12:07Z</time>
      </trkpt>
      <trkpt lat="48.30356" lon="7.41747">
        <ele>193.3</ele>
        <time>2019-08-09T13:12:08Z</time>
      </trkpt>
      <trkpt lat="48.30352" lon="7.41745">
        <ele>193.3</ele>
        <time>2019-08-09T13:12:10Z</time>
      </trkpt>
      <trkpt lat="48.3035" lon="7.41743">
        <ele>193.2</ele>
        <time>2019-08-09T13:12:11Z</time>
      </trkpt>
      <trkpt lat="48.30347" lon="7.41742">
        <ele>193.2</ele>
        <time>2019-08-09T13:12:12Z</time>
      </trkpt>
      <trkpt lat="48.30343" lon="7.41741">
        <ele>193.1</ele>
        <time>2019-08-09T13:12:13Z</time>
      </trkpt>
      <trkpt lat="48.30337" lon="7.4174">
        <ele>193.1</ele>
        <time>2019-08-09T13:12:14Z</time>
      </trkpt>
      <trkpt lat="48.30333" lon="7.4174">
        <ele>193</ele>
        <time>2019-08-09T13:12:15Z</time>
      </trkpt>
      <trkpt lat="48.30328" lon="7.4174">
        <ele>192.9</ele>
        <time>2019-08-09T13:12:16Z</time>
      </trkpt>
      <trkpt lat="48.30324" lon="7.41739">
        <ele>192.9</ele>
        <time>2019-08-09T13:12:17Z</time>
      </trkpt>
      <trkpt lat="48.3032" lon="7.41739">
        <ele>192.8</ele>
        <time>2019-08-09T13:12:18Z</time>
      </trkpt>
      <trkpt lat="48.30315" lon="7.41739">
        <ele>192.7</ele>
        <time>2019-08-09T13:12:19Z</time>
      </trkpt>
      <trkpt lat="48.30311" lon="7.41739">
        <ele>192.7</ele>
        <time>2019-08-09T13:12:20Z</time>
      </trkpt>
      <trkpt lat="48.30307" lon="7.41738">
        <ele>192.6</ele>
        <time>2019-08-09T13:12:21Z</time>
      </trkpt>
      <trkpt lat="48.30303" lon="7.41738">
        <ele>192.5</ele>
        <time>2019-08-09T13:12:22Z</time>
      </trkpt>
      <trkpt lat="48.30299" lon="7.41737">
        <ele>192.5</ele>
        <time>2019-08-09T13:12:23Z</time>
      </trkpt>
      <trkpt lat="48.30295" lon="7.41736">
        <ele>192.4</ele>
        <time>2019-08-09T13:12:24Z</time>
      </trkpt>
      <trkpt lat="48.3029" lon="7.41735">
        <ele>192.4</ele>
        <time>2019-08-09T13:12:25Z</time>
      </trkpt>
      <trkpt lat="48.30286" lon="7.41734">
        <ele>192.3</ele>
        <time>2019-08-09T13:12:26Z</time>
      </trkpt>
      <trkpt lat="48.30281" lon="7.41733">
        <ele>192.2</ele>
        <time>2019-08-09T13:12:27Z</time>
      </trkpt>
      <trkpt lat="48.30277" lon="7.41733">
        <ele>192.2</ele>
        <time>2019-08-09T13:12:28Z</time>
      </trkpt>
      <trkpt lat="48.30273" lon="7.41732">
        <ele>192.1</ele>
        <time>2019-08-09T13:12:29Z</time>
      </trkpt>
      <trkpt lat="48.30269" lon="7.41732">
        <ele>192.1</ele>
        <time>2019-08-09T13:12:30Z</time>
      </trkpt>
      <trkpt lat="48.30266" lon="7.4173">
        <ele>192.1</ele>
        <time>2019-08-09T13:12:31Z</time>
      </trkpt>
      <trkpt lat="48.30261" lon="7.41729">
        <ele>192</ele>
        <time>2019-08-09T13:12:32Z</time>
      </trkpt>
      <trkpt lat="48.30257" lon="7.41727">
        <ele>192</ele>
        <time>2019-08-09T13:12:33Z</time>
      </trkpt>
      <trkpt lat="48.30253" lon="7.41725">
        <ele>192</ele>
        <time>2019-08-09T13:12:34Z</time>
      </trkpt>
      <trkpt lat="48.30249" lon="7.41724">
        <ele>191.9</ele>
        <time>2019-08-09T13:12:35Z</time>
      </trkpt>
      <trkpt lat="48.30244" lon="7.41724">
        <ele>191.9</ele>
        <time>2019-08-09T13:12:36Z</time>
      </trkpt>
      <trkpt lat="48.3024" lon="7.41722">
        <ele>191.8</ele>
        <time>2019-08-09T13:12:37Z</time>
      </trkpt>
      <trkpt lat="48.30237" lon="7.41721">
        <ele>191.8</ele>
        <time>2019-08-09T13:12:38Z</time>
      </trkpt>
      <trkpt lat="48.30232" lon="7.41719">
        <ele>191.8</ele>
        <time>2019-08-09T13:12:39Z</time>
      </trkpt>
      <trkpt lat="48.30228" lon="7.41717">
        <ele>191.7</ele>
        <time>2019-08-09T13:12:40Z</time>
      </trkpt>
      <trkpt lat="48.30224" lon="7.41716">
        <ele>191.7</ele>
        <time>2019-08-09T13:12:41Z</time>
      </trkpt>
      <trkpt lat="48.30221" lon="7.41715">
        <ele>191.6</ele>
        <time>2019-08-09T13:12:42Z</time>
      </trkpt>
      <trkpt lat="48.30217" lon="7.41714">
        <ele>191.6</ele>
        <time>2019-08-09T13:12:43Z</time>
      </trkpt>
      <trkpt lat="48.30213" lon="7.41714">
        <ele>191.5</ele>
        <time>2019-08-09T13:12:44Z</time>
      </trkpt>
      <trkpt lat="48.30209" lon="7.41713">
        <ele>191.5</ele>
        <time>2019-08-09T13:12:45Z</time>
      </trkpt>
      <trkpt lat="48.30205" lon="7.41712">
        <ele>191.4</ele>
        <time>2019-08-09T13:12:46Z</time>
      </trkpt>
      <trkpt lat="48.30201" lon="7.41711">
        <ele>191.3</ele>
        <time>2019-08-09T13:12:47Z</time>
      </trkpt>
      <trkpt lat="48.30197" lon="7.4171">
        <ele>191.3</ele>
        <time>2019-08-09T13:12:48Z</time>
      </trkpt>
      <trkpt lat="48.30192" lon="7.41708">
        <ele>191.2</ele>
        <time>2019-08-09T13:12:49Z</time>
      </trkpt>
      <trkpt lat="48.30188" lon="7.41708">
        <ele>191.2</ele>
        <time>2019-08-09T13:12:50Z</time>
      </trkpt>
      <trkpt lat="48.30184" lon="7.41708">
        <ele>191.1</ele>
        <time>2019-08-09T13:12:51Z</time>
      </trkpt>
      <trkpt lat="48.3018" lon="7.41707">
        <ele>191.1</ele>
        <time>2019-08-09T13:12:52Z</time>
      </trkpt>
      <trkpt lat="48.30175" lon="7.41707">
        <ele>191</ele>
        <time>2019-08-09T13:12:53Z</time>
      </trkpt>
      <trkpt lat="48.3017" lon="7.41706">
        <ele>190.9</ele>
        <time>2019-08-09T13:12:54Z</time>
      </trkpt>
      <trkpt lat="48.30165" lon="7.41706">
        <ele>190.9</ele>
        <time>2019-08-09T13:12:55Z</time>
      </trkpt>
      <trkpt lat="48.3016" lon="7.41704">
        <ele>190.8</ele>
        <time>2019-08-09T13:12:56Z</time>
      </trkpt>
      <trkpt lat="48.30155" lon="7.41704">
        <ele>190.7</ele>
        <time>2019-08-09T13:12:57Z</time>
      </trkpt>
      <trkpt lat="48.30149" lon="7.41704">
        <ele>190.6</ele>
        <time>2019-08-09T13:12:58Z</time>
      </trkpt>
      <trkpt lat="48.30144" lon="7.41705">
        <ele>190.6</ele>
        <time>2019-08-09T13:12:59Z</time>
      </trkpt>
      <trkpt lat="48.30138" lon="7.41706">
        <ele>190.5</ele>
        <time>2019-08-09T13:13:00Z</time>
      </trkpt>
      <trkpt lat="48.30133" lon="7.41707">
        <ele>190.4</ele>
        <time>2019-08-09T13:13:01Z</time>
      </trkpt>
      <trkpt lat="48.30129" lon="7.41707">
        <ele>190.3</ele>
        <time>2019-08-09T13:13:02Z</time>
      </trkpt>
      <trkpt lat="48.30124" lon="7.41708">
        <ele>190.3</ele>
        <time>2019-08-09T13:13:03Z</time>
      </trkpt>
      <trkpt lat="48.30118" lon="7.41709">
        <ele>190.2</ele>
        <time>2019-08-09T13:13:04Z</time>
      </trkpt>
      <trkpt lat="48.30113" lon="7.4171">
        <ele>190.1</ele>
        <time>2019-08-09T13:13:05Z</time>
      </trkpt>
      <trkpt lat="48.30107" lon="7.41711">
        <ele>190.1</ele>
        <time>2019-08-09T13:13:06Z</time>
      </trkpt>
      <trkpt lat="48.30102" lon="7.41711">
        <ele>190</ele>
        <time>2019-08-09T13:13:07Z</time>
      </trkpt>
      <trkpt lat="48.30096" lon="7.41712">
        <ele>189.9</ele>
        <time>2019-08-09T13:13:08Z</time>
      </trkpt>
      <trkpt lat="48.30091" lon="7.41711">
        <ele>189.8</ele>
        <time>2019-08-09T13:13:09Z</time>
      </trkpt>
      <trkpt lat="48.30086" lon="7.4171">
        <ele>189.7</ele>
        <time>2019-08-09T13:13:10Z</time>
      </trkpt>
      <trkpt lat="48.30081" lon="7.41709">
        <ele>189.6</ele>
        <time>2019-08-09T13:13:11Z</time>
      </trkpt>
      <trkpt lat="48.30075" lon="7.41707">
        <ele>189.5</ele>
        <time>2019-08-09T13:13:12Z</time>
      </trkpt>
      <trkpt lat="48.30069" lon="7.41706">
        <ele>189.4</ele>
        <time>2019-08-09T13:13:13Z</time>
      </trkpt>
      <trkpt lat="48.30063" lon="7.41706">
        <ele>189.4</ele>
        <time>2019-08-09T13:13:14Z</time>
      </trkpt>
      <trkpt lat="48.30057" lon="7.41706">
        <ele>189.3</ele>
        <time>2019-08-09T13:13:15Z</time>
      </trkpt>
      <trkpt lat="48.30052" lon="7.41705">
        <ele>189.3</ele>
        <time>2019-08-09T13:13:16Z</time>
      </trkpt>
      <trkpt lat="48.30046" lon="7.41705">
        <ele>189.3</ele>
        <time>2019-08-09T13:13:17Z</time>
      </trkpt>
      <trkpt lat="48.3004" lon="7.41704">
        <ele>189.2</ele>
        <time>2019-08-09T13:13:18Z</time>
      </trkpt>
      <trkpt lat="48.30035" lon="7.41702">
        <ele>189.2</ele>
        <time>2019-08-09T13:13:19Z</time>
      </trkpt>
      <trkpt lat="48.30029" lon="7.41701">
        <ele>189.1</ele>
        <time>2019-08-09T13:13:20Z</time>
      </trkpt>
      <trkpt lat="48.30024" lon="7.417">
        <ele>189</ele>
        <time>2019-08-09T13:13:21Z</time>
      </trkpt>
      <trkpt lat="48.30018" lon="7.41698">
        <ele>188.8</ele>
        <time>2019-08-09T13:13:22Z</time>
      </trkpt>
      <trkpt lat="48.30012" lon="7.41697">
        <ele>188.7</ele>
        <time>2019-08-09T13:13:23Z</time>
      </trkpt>
      <trkpt lat="48.30007" lon="7.41696">
        <ele>188.6</ele>
        <time>2019-08-09T13:13:24Z</time>
      </trkpt>
      <trkpt lat="48.3" lon="7.41694">
        <ele>188.6</ele>
        <time>2019-08-09T13:13:25Z</time>
      </trkpt>
      <trkpt lat="48.29994" lon="7.41692">
        <ele>188.5</ele>
        <time>2019-08-09T13:13:26Z</time>
      </trkpt>
      <trkpt lat="48.29989" lon="7.4169">
        <ele>188.4</ele>
        <time>2019-08-09T13:13:27Z</time>
      </trkpt>
      <trkpt lat="48.29983" lon="7.41688">
        <ele>188.3</ele>
        <time>2019-08-09T13:13:28Z</time>
      </trkpt>
      <trkpt lat="48.29977" lon="7.41684">
        <ele>188.3</ele>
        <time>2019-08-09T13:13:29Z</time>
      </trkpt>
      <trkpt lat="48.29971" lon="7.41683">
        <ele>188.2</ele>
        <time>2019-08-09T13:13:30Z</time>
      </trkpt>
      <trkpt lat="48.29966" lon="7.41681">
        <ele>188.1</ele>
        <time>2019-08-09T13:13:31Z</time>
      </trkpt>
      <trkpt lat="48.29962" lon="7.4168">
        <ele>188</ele>
        <time>2019-08-09T13:13:32Z</time>
      </trkpt>
      <trkpt lat="48.29956" lon="7.41681">
        <ele>187.9</ele>
        <time>2019-08-09T13:13:33Z</time>
      </trkpt>
      <trkpt lat="48.29949" lon="7.4168">
        <ele>187.9</ele>
        <time>2019-08-09T13:13:34Z</time>
      </trkpt>
      <trkpt lat="48.29943" lon="7.4168">
        <ele>187.8</ele>
        <time>2019-08-09T13:13:35Z</time>
      </trkpt>
      <trkpt lat="48.29937" lon="7.41681">
        <ele>187.8</ele>
        <time>2019-08-09T13:13:36Z</time>
      </trkpt>
      <trkpt lat="48.29931" lon="7.41682">
        <ele>187.7</ele>
        <time>2019-08-09T13:13:37Z</time>
      </trkpt>
      <trkpt lat="48.29925" lon="7.41683">
        <ele>187.6</ele>
        <time>2019-08-09T13:13:38Z</time>
      </trkpt>
      <trkpt lat="48.29919" lon="7.41684">
        <ele>187.6</ele>
        <time>2019-08-09T13:13:39Z</time>
      </trkpt>
      <trkpt lat="48.29913" lon="7.41685">
        <ele>187.5</ele>
        <time>2019-08-09T13:13:40Z</time>
      </trkpt>
      <trkpt lat="48.29907" lon="7.41686">
        <ele>187.4</ele>
        <time>2019-08-09T13:13:41Z</time>
      </trkpt>
      <trkpt lat="48.29901" lon="7.41687">
        <ele>187.3</ele>
        <time>2019-08-09T13:13:42Z</time>
      </trkpt>
      <trkpt lat="48.29896" lon="7.41688">
        <ele>187.3</ele>
        <time>2019-08-09T13:13:43Z</time>
      </trkpt>
      <trkpt lat="48.2989" lon="7.41688">
        <ele>187.2</ele>
        <time>2019-08-09T13:13:44Z</time>
      </trkpt>
      <trkpt lat="48.29884" lon="7.41689">
        <ele>187.1</ele>
        <time>2019-08-09T13:13:45Z</time>
      </trkpt>
      <trkpt lat="48.29879" lon="7.41689">
        <ele>187</ele>
        <time>2019-08-09T13:13:46Z</time>
      </trkpt>
      <trkpt lat="48.29872" lon="7.41691">
        <ele>187</ele>
        <time>2019-08-09T13:13:47Z</time>
      </trkpt>
      <trkpt lat="48.29867" lon="7.41692">
        <ele>187</ele>
        <time>2019-08-09T13:13:48Z</time>
      </trkpt>
      <trkpt lat="48.29862" lon="7.41692">
        <ele>186.9</ele>
        <time>2019-08-09T13:13:49Z</time>
      </trkpt>
      <trkpt lat="48.29856" lon="7.41692">
        <ele>186.9</ele>
        <time>2019-08-09T13:13:50Z</time>
      </trkpt>
      <trkpt lat="48.2985" lon="7.41691">
        <ele>186.9</ele>
        <time>2019-08-09T13:13:51Z</time>
      </trkpt>
      <trkpt lat="48.29844" lon="7.4169">
        <ele>186.8</ele>
        <time>2019-08-09T13:13:52Z</time>
      </trkpt>
      <trkpt lat="48.29838" lon="7.41689">
        <ele>186.8</ele>
        <time>2019-08-09T13:13:53Z</time>
      </trkpt>
      <trkpt lat="48.29833" lon="7.41689">
        <ele>186.8</ele>
        <time>2019-08-09T13:13:54Z</time>
      </trkpt>
      <trkpt lat="48.29828" lon="7.41689">
        <ele>186.8</ele>
        <time>2019-08-09T13:13:55Z</time>
      </trkpt>
      <trkpt lat="48.29822" lon="7.41688">
        <ele>186.7</ele>
        <time>2019-08-09T13:13:56Z</time>
      </trkpt>
      <trkpt lat="48.29817" lon="7.41688">
        <ele>186.7</ele>
        <time>2019-08-09T13:13:57Z</time>
      </trkpt>
      <trkpt lat="48.29811" lon="7.41689">
        <ele>186.7</ele>
        <time>2019-08-09T13:13:58Z</time>
      </trkpt>
      <trkpt lat="48.29805" lon="7.41688">
        <ele>186.6</ele>
        <time>2019-08-09T13:13:59Z</time>
      </trkpt>
      <trkpt lat="48.29799" lon="7.41687">
        <ele>186.6</ele>
        <time>2019-08-09T13:14:00Z</time>
      </trkpt>
      <trkpt lat="48.29793" lon="7.41687">
        <ele>186.5</ele>
        <time>2019-08-09T13:14:01Z</time>
      </trkpt>
      <trkpt lat="48.29788" lon="7.41686">
        <ele>186.5</ele>
        <time>2019-08-09T13:14:02Z</time>
      </trkpt>
      <trkpt lat="48.29782" lon="7.41684">
        <ele>186.4</ele>
        <time>2019-08-09T13:14:03Z</time>
      </trkpt>
      <trkpt lat="48.29776" lon="7.41683">
        <ele>186.4</ele>
        <time>2019-08-09T13:14:04Z</time>
      </trkpt>
      <trkpt lat="48.29768" lon="7.41682">
        <ele>186.3</ele>
        <time>2019-08-09T13:14:05Z</time>
      </trkpt>
      <trkpt lat="48.2976" lon="7.41681">
        <ele>186.2</ele>
        <time>2019-08-09T13:14:06Z</time>
      </trkpt>
      <trkpt lat="48.29753" lon="7.4168">
        <ele>186.1</ele>
        <time>2019-08-09T13:14:07Z</time>
      </trkpt>
      <trkpt lat="48.29745" lon="7.41679">
        <ele>185.9</ele>
        <time>2019-08-09T13:14:08Z</time>
      </trkpt>
      <trkpt lat="48.29738" lon="7.41678">
        <ele>185.7</ele>
        <time>2019-08-09T13:14:09Z</time>
      </trkpt>
      <trkpt lat="48.29731" lon="7.41677">
        <ele>185.5</ele>
        <time>2019-08-09T13:14:10Z</time>
      </trkpt>
      <trkpt lat="48.29724" lon="7.41677">
        <ele>185.3</ele>
        <time>2019-08-09T13:14:11Z</time>
      </trkpt>
      <trkpt lat="48.29717" lon="7.41676">
        <ele>185</ele>
        <time>2019-08-09T13:14:12Z</time>
      </trkpt>
      <trkpt lat="48.29711" lon="7.41675">
        <ele>184.7</ele>
        <time>2019-08-09T13:14:13Z</time>
      </trkpt>
      <trkpt lat="48.29704" lon="7.41675">
        <ele>184.4</ele>
        <time>2019-08-09T13:14:14Z</time>
      </trkpt>
      <trkpt lat="48.29698" lon="7.41674">
        <ele>184</ele>
        <time>2019-08-09T13:14:15Z</time>
      </trkpt>
      <trkpt lat="48.29692" lon="7.41673">
        <ele>183.7</ele>
        <time>2019-08-09T13:14:16Z</time>
      </trkpt>
      <trkpt lat="48.29686" lon="7.41673">
        <ele>183.4</ele>
        <time>2019-08-09T13:14:17Z</time>
      </trkpt>
      <trkpt lat="48.2968" lon="7.41673">
        <ele>183.1</ele>
        <time>2019-08-09T13:14:18Z</time>
      </trkpt>
      <trkpt lat="48.29674" lon="7.41672">
        <ele>182.9</ele>
        <time>2019-08-09T13:14:19Z</time>
      </trkpt>
      <trkpt lat="48.29669" lon="7.41671">
        <ele>182.7</ele>
        <time>2019-08-09T13:14:20Z</time>
      </trkpt>
      <trkpt lat="48.29663" lon="7.41672">
        <ele>182.6</ele>
        <time>2019-08-09T13:14:21Z</time>
      </trkpt>
      <trkpt lat="48.29657" lon="7.41673">
        <ele>182.5</ele>
        <time>2019-08-09T13:14:22Z</time>
      </trkpt>
      <trkpt lat="48.29651" lon="7.41674">
        <ele>182.4</ele>
        <time>2019-08-09T13:14:23Z</time>
      </trkpt>
      <trkpt lat="48.29646" lon="7.41674">
        <ele>182.4</ele>
        <time>2019-08-09T13:14:24Z</time>
      </trkpt>
      <trkpt lat="48.29641" lon="7.41674">
        <ele>182.3</ele>
        <time>2019-08-09T13:14:25Z</time>
      </trkpt>
      <trkpt lat="48.29635" lon="7.41674">
        <ele>182.3</ele>
        <time>2019-08-09T13:14:26Z</time>
      </trkpt>
      <trkpt lat="48.2963" lon="7.41673">
        <ele>182.3</ele>
        <time>2019-08-09T13:14:27Z</time>
      </trkpt>
      <trkpt lat="48.29624" lon="7.41672">
        <ele>182.3</ele>
        <time>2019-08-09T13:14:28Z</time>
      </trkpt>
      <trkpt lat="48.29619" lon="7.41671">
        <ele>182.3</ele>
        <time>2019-08-09T13:14:29Z</time>
      </trkpt>
      <trkpt lat="48.29613" lon="7.41672">
        <ele>182.2</ele>
        <time>2019-08-09T13:14:30Z</time>
      </trkpt>
      <trkpt lat="48.29608" lon="7.41671">
        <ele>182.2</ele>
        <time>2019-08-09T13:14:31Z</time>
      </trkpt>
      <trkpt lat="48.29603" lon="7.41671">
        <ele>182.3</ele>
        <time>2019-08-09T13:14:32Z</time>
      </trkpt>
      <trkpt lat="48.29598" lon="7.41672">
        <ele>182.3</ele>
        <time>2019-08-09T13:14:33Z</time>
      </trkpt>
      <trkpt lat="48.29591" lon="7.41673">
        <ele>182.4</ele>
        <time>2019-08-09T13:14:34Z</time>
      </trkpt>
      <trkpt lat="48.29585" lon="7.41674">
        <ele>182.4</ele>
        <time>2019-08-09T13:14:35Z</time>
      </trkpt>
      <trkpt lat="48.2958" lon="7.41673">
        <ele>182.4</ele>
        <time>2019-08-09T13:14:36Z</time>
      </trkpt>
      <trkpt lat="48.29574" lon="7.41672">
        <ele>182.4</ele>
        <time>2019-08-09T13:14:37Z</time>
      </trkpt>
      <trkpt lat="48.29569" lon="7.41673">
        <ele>182.4</ele>
        <time>2019-08-09T13:14:38Z</time>
      </trkpt>
      <trkpt lat="48.29563" lon="7.41674">
        <ele>182.4</ele>
        <time>2019-08-09T13:14:39Z</time>
      </trkpt>
      <trkpt lat="48.29559" lon="7.41674">
        <ele>182.4</ele>
        <time>2019-08-09T13:14:40Z</time>
      </trkpt>
      <trkpt lat="48.29553" lon="7.41675">
        <ele>182.4</ele>
        <time>2019-08-09T13:14:41Z</time>
      </trkpt>
      <trkpt lat="48.29547" lon="7.41675">
        <ele>182.5</ele>
        <time>2019-08-09T13:14:42Z</time>
      </trkpt>
      <trkpt lat="48.29541" lon="7.41676">
        <ele>182.5</ele>
        <time>2019-08-09T13:14:43Z</time>
      </trkpt>
      <trkpt lat="48.29535" lon="7.41677">
        <ele>182.6</ele>
        <time>2019-08-09T13:14:44Z</time>
      </trkpt>
      <trkpt lat="48.2953" lon="7.41677">
        <ele>182.6</ele>
        <time>2019-08-09T13:14:45Z</time>
      </trkpt>
      <trkpt lat="48.29525" lon="7.41677">
        <ele>182.7</ele>
        <time>2019-08-09T13:14:46Z</time>
      </trkpt>
      <trkpt lat="48.2952" lon="7.41676">
        <ele>182.7</ele>
        <time>2019-08-09T13:14:47Z</time>
      </trkpt>
      <trkpt lat="48.29515" lon="7.41676">
        <ele>182.8</ele>
        <time>2019-08-09T13:14:48Z</time>
      </trkpt>
      <trkpt lat="48.29508" lon="7.41678">
        <ele>182.9</ele>
        <time>2019-08-09T13:14:49Z</time>
      </trkpt>
      <trkpt lat="48.29503" lon="7.41677">
        <ele>183</ele>
        <time>2019-08-09T13:14:50Z</time>
      </trkpt>
      <trkpt lat="48.29496" lon="7.41677">
        <ele>183.1</ele>
        <time>2019-08-09T13:14:51Z</time>
      </trkpt>
      <trkpt lat="48.29491" lon="7.41678">
        <ele>183.2</ele>
        <time>2019-08-09T13:14:52Z</time>
      </trkpt>
      <trkpt lat="48.29484" lon="7.41679">
        <ele>183.3</ele>
        <time>2019-08-09T13:14:53Z</time>
      </trkpt>
      <trkpt lat="48.29479" lon="7.4168">
        <ele>183.3</ele>
        <time>2019-08-09T13:14:54Z</time>
      </trkpt>
      <trkpt lat="48.29473" lon="7.41681">
        <ele>183.3</ele>
        <time>2019-08-09T13:14:55Z</time>
      </trkpt>
      <trkpt lat="48.29467" lon="7.41682">
        <ele>183.3</ele>
        <time>2019-08-09T13:14:56Z</time>
      </trkpt>
      <trkpt lat="48.29463" lon="7.41682">
        <ele>183.3</ele>
        <time>2019-08-09T13:14:57Z</time>
      </trkpt>
      <trkpt lat="48.29458" lon="7.41682">
        <ele>183.3</ele>
        <time>2019-08-09T13:14:58Z</time>
      </trkpt>
      <trkpt lat="48.29453" lon="7.41682">
        <ele>183.3</ele>
        <time>2019-08-09T13:14:59Z</time>
      </trkpt>
      <trkpt lat="48.29449" lon="7.41681">
        <ele>183.3</ele>
        <time>2019-08-09T13:15:00Z</time>
      </trkpt>
      <trkpt lat="48.29443" lon="7.41683">
        <ele>183.3</ele>
        <time>2019-08-09T13:15:01Z</time>
      </trkpt>
      <trkpt lat="48.29439" lon="7.41683">
        <ele>183.3</ele>
        <time>2019-08-09T13:15:02Z</time>
      </trkpt>
      <trkpt lat="48.29434" lon="7.41683">
        <ele>183.3</ele>
        <time>2019-08-09T13:15:03Z</time>
      </trkpt>
      <trkpt lat="48.2943" lon="7.41682">
        <ele>183.3</ele>
        <time>2019-08-09T13:15:04Z</time>
      </trkpt>
      <trkpt lat="48.29425" lon="7.41683">
        <ele>183.3</ele>
        <time>2019-08-09T13:15:05Z</time>
      </trkpt>
      <trkpt lat="48.2942" lon="7.41683">
        <ele>183.3</ele>
        <time>2019-08-09T13:15:06Z</time>
      </trkpt>
      <trkpt lat="48.29416" lon="7.41683">
        <ele>183.3</ele>
        <time>2019-08-09T13:15:07Z</time>
      </trkpt>
      <trkpt lat="48.29411" lon="7.41685">
        <ele>183.3</ele>
        <time>2019-08-09T13:15:08Z</time>
      </trkpt>
      <trkpt lat="48.29407" lon="7.41686">
        <ele>183.3</ele>
        <time>2019-08-09T13:15:09Z</time>
      </trkpt>
      <trkpt lat="48.29403" lon="7.41686">
        <ele>183.3</ele>
        <time>2019-08-09T13:15:10Z</time>
      </trkpt>
      <trkpt lat="48.29398" lon="7.41687">
        <ele>183.3</ele>
        <time>2019-08-09T13:15:11Z</time>
      </trkpt>
      <trkpt lat="48.29394" lon="7.41687">
        <ele>183.3</ele>
        <time>2019-08-09T13:15:12Z</time>
      </trkpt>
      <trkpt lat="48.29389" lon="7.41688">
        <ele>183.3</ele>
        <time>2019-08-09T13:15:13Z</time>
      </trkpt>
      <trkpt lat="48.29384" lon="7.41688">
        <ele>183.3</ele>
        <time>2019-08-09T13:15:14Z</time>
      </trkpt>
      <trkpt lat="48.29381" lon="7.41689">
        <ele>183.3</ele>
        <time>2019-08-09T13:15:15Z</time>
      </trkpt>
      <trkpt lat="48.29375" lon="7.41689">
        <ele>183.3</ele>
        <time>2019-08-09T13:15:16Z</time>
      </trkpt>
      <trkpt lat="48.2937" lon="7.4169">
        <ele>183.3</ele>
        <time>2019-08-09T13:15:17Z</time>
      </trkpt>
      <trkpt lat="48.29365" lon="7.41691">
        <ele>183.3</ele>
        <time>2019-08-09T13:15:18Z</time>
      </trkpt>
      <trkpt lat="48.29361" lon="7.41692">
        <ele>183.3</ele>
        <time>2019-08-09T13:15:19Z</time>
      </trkpt>
      <trkpt lat="48.29357" lon="7.41693">
        <ele>183.3</ele>
        <time>2019-08-09T13:15:20Z</time>
      </trkpt>
      <trkpt lat="48.29352" lon="7.41693">
        <ele>183.3</ele>
        <time>2019-08-09T13:15:21Z</time>
      </trkpt>
      <trkpt lat="48.29349" lon="7.41692">
        <ele>183.3</ele>
        <time>2019-08-09T13:15:22Z</time>
      </trkpt>
      <trkpt lat="48.29345" lon="7.41692">
        <ele>183.4</ele>
        <time>2019-08-09T13:15:23Z</time>
      </trkpt>
      <trkpt lat="48.29341" lon="7.41693">
        <ele>183.4</ele>
        <time>2019-08-09T13:15:24Z</time>
      </trkpt>
      <trkpt lat="48.29336" lon="7.41693">
        <ele>183.5</ele>
        <time>2019-08-09T13:15:25Z</time>
      </trkpt>
      <trkpt lat="48.29333" lon="7.41694">
        <ele>183.5</ele>
        <time>2019-08-09T13:15:26Z</time>
      </trkpt>
      <trkpt lat="48.29329" lon="7.41694">
        <ele>183.6</ele>
        <time>2019-08-09T13:15:27Z</time>
      </trkpt>
      <trkpt lat="48.29323" lon="7.41695">
        <ele>183.6</ele>
        <time>2019-08-09T13:15:28Z</time>
      </trkpt>
      <trkpt lat="48.29317" lon="7.41696">
        <ele>183.7</ele>
        <time>2019-08-09T13:15:29Z</time>
      </trkpt>
      <trkpt lat="48.29314" lon="7.41697">
        <ele>183.7</ele>
        <time>2019-08-09T13:15:30Z</time>
      </trkpt>
      <trkpt lat="48.2931" lon="7.41696">
        <ele>183.7</ele>
        <time>2019-08-09T13:15:31Z</time>
      </trkpt>
      <trkpt lat="48.29305" lon="7.41696">
        <ele>183.7</ele>
        <time>2019-08-09T13:15:32Z</time>
      </trkpt>
      <trkpt lat="48.29301" lon="7.41697">
        <ele>183.7</ele>
        <time>2019-08-09T13:15:33Z</time>
      </trkpt>
      <trkpt lat="48.29295" lon="7.41697">
        <ele>183.7</ele>
        <time>2019-08-09T13:15:34Z</time>
      </trkpt>
      <trkpt lat="48.29291" lon="7.41696">
        <ele>183.7</ele>
        <time>2019-08-09T13:15:35Z</time>
      </trkpt>
      <trkpt lat="48.29285" lon="7.41696">
        <ele>183.7</ele>
        <time>2019-08-09T13:15:36Z</time>
      </trkpt>
      <trkpt lat="48.29281" lon="7.41697">
        <ele>183.7</ele>
        <time>2019-08-09T13:15:37Z</time>
      </trkpt>
      <trkpt lat="48.29276" lon="7.41698">
        <ele>183.6</ele>
        <time>2019-08-09T13:15:38Z</time>
      </trkpt>
      <trkpt lat="48.2927" lon="7.41698">
        <ele>183.6</ele>
        <time>2019-08-09T13:15:39Z</time>
      </trkpt>
      <trkpt lat="48.29266" lon="7.41698">
        <ele>183.6</ele>
        <time>2019-08-09T13:15:40Z</time>
      </trkpt>
      <trkpt lat="48.29262" lon="7.41698">
        <ele>183.6</ele>
        <time>2019-08-09T13:15:41Z</time>
      </trkpt>
      <trkpt lat="48.29257" lon="7.41699">
        <ele>183.5</ele>
        <time>2019-08-09T13:15:42Z</time>
      </trkpt>
      <trkpt lat="48.29253" lon="7.41697">
        <ele>183.5</ele>
        <time>2019-08-09T13:15:43Z</time>
      </trkpt>
      <trkpt lat="48.29248" lon="7.41698">
        <ele>183.5</ele>
        <time>2019-08-09T13:15:44Z</time>
      </trkpt>
      <trkpt lat="48.29243" lon="7.41698">
        <ele>183.5</ele>
        <time>2019-08-09T13:15:45Z</time>
      </trkpt>
      <trkpt lat="48.29239" lon="7.41699">
        <ele>183.5</ele>
        <time>2019-08-09T13:15:46Z</time>
      </trkpt>
      <trkpt lat="48.29234" lon="7.417">
        <ele>183.5</ele>
        <time>2019-08-09T13:15:47Z</time>
      </trkpt>
      <trkpt lat="48.29229" lon="7.41701">
        <ele>183.5</ele>
        <time>2019-08-09T13:15:48Z</time>
      </trkpt>
      <trkpt lat="48.29225" lon="7.417">
        <ele>183.5</ele>
        <time>2019-08-09T13:15:49Z</time>
      </trkpt>
      <trkpt lat="48.29219" lon="7.41701">
        <ele>183.5</ele>
        <time>2019-08-09T13:15:50Z</time>
      </trkpt>
      <trkpt lat="48.29214" lon="7.41702">
        <ele>183.5</ele>
        <time>2019-08-09T13:15:51Z</time>
      </trkpt>
      <trkpt lat="48.29209" lon="7.41702">
        <ele>183.5</ele>
        <time>2019-08-09T13:15:52Z</time>
      </trkpt>
      <trkpt lat="48.29204" lon="7.41701">
        <ele>183.5</ele>
        <time>2019-08-09T13:15:53Z</time>
      </trkpt>
      <trkpt lat="48.292" lon="7.41701">
        <ele>183.5</ele>
        <time>2019-08-09T13:15:54Z</time>
      </trkpt>
      <trkpt lat="48.29195" lon="7.41702">
        <ele>183.6</ele>
        <time>2019-08-09T13:15:55Z</time>
      </trkpt>
      <trkpt lat="48.2919" lon="7.41702">
        <ele>183.6</ele>
        <time>2019-08-09T13:15:56Z</time>
      </trkpt>
      <trkpt lat="48.29185" lon="7.41702">
        <ele>183.6</ele>
        <time>2019-08-09T13:15:57Z</time>
      </trkpt>
      <trkpt lat="48.29181" lon="7.41702">
        <ele>183.6</ele>
        <time>2019-08-09T13:15:58Z</time>
      </trkpt>
      <trkpt lat="48.29178" lon="7.41702">
        <ele>183.6</ele>
        <time>2019-08-09T13:15:59Z</time>
      </trkpt>
      <trkpt lat="48.29174" lon="7.41702">
        <ele>183.7</ele>
        <time>2019-08-09T13:16:00Z</time>
      </trkpt>
      <trkpt lat="48.2917" lon="7.41704">
        <ele>183.8</ele>
        <time>2019-08-09T13:16:01Z</time>
      </trkpt>
      <trkpt lat="48.29166" lon="7.41704">
        <ele>183.8</ele>
        <time>2019-08-09T13:16:02Z</time>
      </trkpt>
      <trkpt lat="48.29162" lon="7.41705">
        <ele>183.9</ele>
        <time>2019-08-09T13:16:03Z</time>
      </trkpt>
      <trkpt lat="48.29158" lon="7.41705">
        <ele>184</ele>
        <time>2019-08-09T13:16:04Z</time>
      </trkpt>
      <trkpt lat="48.29153" lon="7.41705">
        <ele>184</ele>
        <time>2019-08-09T13:16:05Z</time>
      </trkpt>
      <trkpt lat="48.29147" lon="7.41705">
        <ele>184.1</ele>
        <time>2019-08-09T13:16:06Z</time>
      </trkpt>
      <trkpt lat="48.29142" lon="7.41704">
        <ele>184.1</ele>
        <time>2019-08-09T13:16:07Z</time>
      </trkpt>
      <trkpt lat="48.29137" lon="7.41704">
        <ele>184.2</ele>
        <time>2019-08-09T13:16:08Z</time>
      </trkpt>
      <trkpt lat="48.29132" lon="7.41703">
        <ele>184.2</ele>
        <time>2019-08-09T13:16:09Z</time>
      </trkpt>
      <trkpt lat="48.29127" lon="7.41704">
        <ele>184.3</ele>
        <time>2019-08-09T13:16:10Z</time>
      </trkpt>
      <trkpt lat="48.29123" lon="7.41704">
        <ele>184.3</ele>
        <time>2019-08-09T13:16:11Z</time>
      </trkpt>
      <trkpt lat="48.29119" lon="7.41703">
        <ele>184.3</ele>
        <time>2019-08-09T13:16:12Z</time>
      </trkpt>
      <trkpt lat="48.29115" lon="7.41701">
        <ele>184.3</ele>
        <time>2019-08-09T13:16:13Z</time>
      </trkpt>
      <trkpt lat="48.2911" lon="7.41701">
        <ele>184.4</ele>
        <time>2019-08-09T13:16:14Z</time>
      </trkpt>
      <trkpt lat="48.29106" lon="7.41701">
        <ele>184.4</ele>
        <time>2019-08-09T13:16:15Z</time>
      </trkpt>
      <trkpt lat="48.291" lon="7.417">
        <ele>184.4</ele>
        <time>2019-08-09T13:16:16Z</time>
      </trkpt>
      <trkpt lat="48.29095" lon="7.417">
        <ele>184.4</ele>
        <time>2019-08-09T13:16:17Z</time>
      </trkpt>
      <trkpt lat="48.2909" lon="7.417">
        <ele>184.5</ele>
        <time>2019-08-09T13:16:18Z</time>
      </trkpt>
      <trkpt lat="48.29084" lon="7.41701">
        <ele>184.3</ele>
        <time>2019-08-09T13:16:19Z</time>
      </trkpt>
      <trkpt lat="48.29079" lon="7.41701">
        <ele>184.1</ele>
        <time>2019-08-09T13:16:20Z</time>
      </trkpt>
      <trkpt lat="48.29074" lon="7.417">
        <ele>183.9</ele>
        <time>2019-08-09T13:16:21Z</time>
      </trkpt>
      <trkpt lat="48.2907" lon="7.417">
        <ele>183.8</ele>
        <time>2019-08-09T13:16:22Z</time>
      </trkpt>
      <trkpt lat="48.29066" lon="7.41699">
        <ele>183.8</ele>
        <time>2019-08-09T13:16:23Z</time>
      </trkpt>
      <trkpt lat="48.2906" lon="7.41698">
        <ele>183.8</ele>
        <time>2019-08-09T13:16:24Z</time>
      </trkpt>
      <trkpt lat="48.29055" lon="7.41699">
        <ele>183.9</ele>
        <time>2019-08-09T13:16:25Z</time>
      </trkpt>
      <trkpt lat="48.2905" lon="7.41698">
        <ele>184</ele>
        <time>2019-08-09T13:16:26Z</time>
      </trkpt>
      <trkpt lat="48.29045" lon="7.41698">
        <ele>184</ele>
        <time>2019-08-09T13:16:27Z</time>
      </trkpt>
      <trkpt lat="48.2904" lon="7.41698">
        <ele>184.1</ele>
        <time>2019-08-09T13:16:28Z</time>
      </trkpt>
      <trkpt lat="48.29035" lon="7.41698">
        <ele>184.1</ele>
        <time>2019-08-09T13:16:29Z</time>
      </trkpt>
      <trkpt lat="48.2903" lon="7.41697">
        <ele>184.2</ele>
        <time>2019-08-09T13:16:30Z</time>
      </trkpt>
      <trkpt lat="48.29025" lon="7.41698">
        <ele>184.3</ele>
        <time>2019-08-09T13:16:31Z</time>
      </trkpt>
      <trkpt lat="48.2902" lon="7.41698">
        <ele>184.4</ele>
        <time>2019-08-09T13:16:32Z</time>
      </trkpt>
      <trkpt lat="48.29014" lon="7.41698">
        <ele>184.5</ele>
        <time>2019-08-09T13:16:33Z</time>
      </trkpt>
      <trkpt lat="48.2901" lon="7.41696">
        <ele>184.6</ele>
        <time>2019-08-09T13:16:34Z</time>
      </trkpt>
      <trkpt lat="48.29005" lon="7.41695">
        <ele>184.6</ele>
        <time>2019-08-09T13:16:35Z</time>
      </trkpt>
      <trkpt lat="48.29" lon="7.41694">
        <ele>184.7</ele>
        <time>2019-08-09T13:16:36Z</time>
      </trkpt>
      <trkpt lat="48.28996" lon="7.41693">
        <ele>184.8</ele>
        <time>2019-08-09T13:16:37Z</time>
      </trkpt>
      <trkpt lat="48.28991" lon="7.41694">
        <ele>184.9</ele>
        <time>2019-08-09T13:16:38Z</time>
      </trkpt>
      <trkpt lat="48.28987" lon="7.41693">
        <ele>185</ele>
        <time>2019-08-09T13:16:39Z</time>
      </trkpt>
      <trkpt lat="48.28982" lon="7.41692">
        <ele>185.1</ele>
        <time>2019-08-09T13:16:40Z</time>
      </trkpt>
      <trkpt lat="48.28977" lon="7.41691">
        <ele>185.2</ele>
        <time>2019-08-09T13:16:41Z</time>
      </trkpt>
      <trkpt lat="48.28972" lon="7.41691">
        <ele>185.3</ele>
        <time>2019-08-09T13:16:42Z</time>
      </trkpt>
      <trkpt lat="48.28968" lon="7.4169">
        <ele>185.4</ele>
        <time>2019-08-09T13:16:43Z</time>
      </trkpt>
      <trkpt lat="48.28964" lon="7.4169">
        <ele>185.5</ele>
        <time>2019-08-09T13:16:44Z</time>
      </trkpt>
      <trkpt lat="48.2896" lon="7.4169">
        <ele>185.7</ele>
        <time>2019-08-09T13:16:45Z</time>
      </trkpt>
      <trkpt lat="48.28957" lon="7.41689">
        <ele>185.9</ele>
        <time>2019-08-09T13:16:46Z</time>
      </trkpt>
      <trkpt lat="48.28953" lon="7.41689">
        <ele>185.9</ele>
        <time>2019-08-09T13:16:47Z</time>
      </trkpt>
      <trkpt lat="48.2895" lon="7.41688">
        <ele>185.9</ele>
        <time>2019-08-09T13:16:48Z</time>
      </trkpt>
      <trkpt lat="48.28946" lon="7.41687">
        <ele>185.9</ele>
        <time>2019-08-09T13:16:49Z</time>
      </trkpt>
      <trkpt lat="48.28942" lon="7.41689">
        <ele>186</ele>
        <time>2019-08-09T13:16:50Z</time>
      </trkpt>
      <trkpt lat="48.28939" lon="7.41688">
        <ele>186</ele>
        <time>2019-08-09T13:16:51Z</time>
      </trkpt>
      <trkpt lat="48.28935" lon="7.41688">
        <ele>186</ele>
        <time>2019-08-09T13:16:52Z</time>
      </trkpt>
      <trkpt lat="48.28931" lon="7.41687">
        <ele>186</ele>
        <time>2019-08-09T13:16:53Z</time>
      </trkpt>
      <trkpt lat="48.28927" lon="7.41686">
        <ele>186</ele>
        <time>2019-08-09T13:16:54Z</time>
      </trkpt>
      <trkpt lat="48.28924" lon="7.41686">
        <ele>186</ele>
        <time>2019-08-09T13:16:55Z</time>
      </trkpt>
      <trkpt lat="48.2892" lon="7.41686">
        <ele>186</ele>
        <time>2019-08-09T13:16:56Z</time>
      </trkpt>
      <trkpt lat="48.28917" lon="7.41686">
        <ele>186</ele>
        <time>2019-08-09T13:16:57Z</time>
      </trkpt>
      <trkpt lat="48.28913" lon="7.41686">
        <ele>186</ele>
        <time>2019-08-09T13:16:58Z</time>
      </trkpt>
      <trkpt lat="48.2891" lon="7.41686">
        <ele>186</ele>
        <time>2019-08-09T13:16:59Z</time>
      </trkpt>
      <trkpt lat="48.28905" lon="7.41685">
        <ele>186.1</ele>
        <time>2019-08-09T13:17:00Z</time>
      </trkpt>
      <trkpt lat="48.28901" lon="7.41684">
        <ele>186.1</ele>
        <time>2019-08-09T13:17:01Z</time>
      </trkpt>
      <trkpt lat="48.28897" lon="7.41684">
        <ele>186.1</ele>
        <time>2019-08-09T13:17:02Z</time>
      </trkpt>
      <trkpt lat="48.28893" lon="7.41684">
        <ele>186.1</ele>
        <time>2019-08-09T13:17:03Z</time>
      </trkpt>
      <trkpt lat="48.28889" lon="7.41685">
        <ele>186.1</ele>
        <time>2019-08-09T13:17:04Z</time>
      </trkpt>
      <trkpt lat="48.28885" lon="7.41684">
        <ele>186.1</ele>
        <time>2019-08-09T13:17:05Z</time>
      </trkpt>
      <trkpt lat="48.28881" lon="7.41684">
        <ele>186.1</ele>
        <time>2019-08-09T13:17:06Z</time>
      </trkpt>
      <trkpt lat="48.28876" lon="7.41684">
        <ele>186.1</ele>
        <time>2019-08-09T13:17:07Z</time>
      </trkpt>
      <trkpt lat="48.28872" lon="7.41683">
        <ele>186.1</ele>
        <time>2019-08-09T13:17:08Z</time>
      </trkpt>
      <trkpt lat="48.28867" lon="7.41682">
        <ele>186.1</ele>
        <time>2019-08-09T13:17:09Z</time>
      </trkpt>
      <trkpt lat="48.28863" lon="7.41682">
        <ele>186.1</ele>
        <time>2019-08-09T13:17:10Z</time>
      </trkpt>
      <trkpt lat="48.28858" lon="7.41683">
        <ele>186.1</ele>
        <time>2019-08-09T13:17:11Z</time>
      </trkpt>
      <trkpt lat="48.28854" lon="7.41683">
        <ele>186.1</ele>
        <time>2019-08-09T13:17:12Z</time>
      </trkpt>
      <trkpt lat="48.2885" lon="7.41684">
        <ele>186.1</ele>
        <time>2019-08-09T13:17:13Z</time>
      </trkpt>
      <trkpt lat="48.28845" lon="7.41683">
        <ele>186.1</ele>
        <time>2019-08-09T13:17:14Z</time>
      </trkpt>
      <trkpt lat="48.28841" lon="7.41681">
        <ele>186</ele>
        <time>2019-08-09T13:17:15Z</time>
      </trkpt>
      <trkpt lat="48.28836" lon="7.4168">
        <ele>186</ele>
        <time>2019-08-09T13:17:16Z</time>
      </trkpt>
      <trkpt lat="48.28832" lon="7.4168">
        <ele>186</ele>
        <time>2019-08-09T13:17:17Z</time>
      </trkpt>
      <trkpt lat="48.28829" lon="7.41677">
        <ele>186</ele>
        <time>2019-08-09T13:17:18Z</time>
      </trkpt>
      <trkpt lat="48.28824" lon="7.41678">
        <ele>186</ele>
        <time>2019-08-09T13:17:19Z</time>
      </trkpt>
      <trkpt lat="48.2882" lon="7.41676">
        <ele>186</ele>
        <time>2019-08-09T13:17:20Z</time>
      </trkpt>
      <trkpt lat="48.28815" lon="7.41675">
        <ele>186.1</ele>
        <time>2019-08-09T13:17:21Z</time>
      </trkpt>
      <trkpt lat="48.2881" lon="7.41674">
        <ele>186.1</ele>
        <time>2019-08-09T13:17:22Z</time>
      </trkpt>
      <trkpt lat="48.28806" lon="7.41672">
        <ele>186.1</ele>
        <time>2019-08-09T13:17:23Z</time>
      </trkpt>
      <trkpt lat="48.28802" lon="7.41671">
        <ele>186.1</ele>
        <time>2019-08-09T13:17:24Z</time>
      </trkpt>
      <trkpt lat="48.28797" lon="7.41671">
        <ele>186.2</ele>
        <time>2019-08-09T13:17:25Z</time>
      </trkpt>
      <trkpt lat="48.28792" lon="7.41671">
        <ele>186.2</ele>
        <time>2019-08-09T13:17:26Z</time>
      </trkpt>
      <trkpt lat="48.28788" lon="7.41672">
        <ele>186.2</ele>
        <time>2019-08-09T13:17:27Z</time>
      </trkpt>
      <trkpt lat="48.28783" lon="7.41672">
        <ele>186.3</ele>
        <time>2019-08-09T13:17:28Z</time>
      </trkpt>
      <trkpt lat="48.28779" lon="7.41673">
        <ele>186.3</ele>
        <time>2019-08-09T13:17:29Z</time>
      </trkpt>
      <trkpt lat="48.28774" lon="7.41673">
        <ele>186.4</ele>
        <time>2019-08-09T13:17:30Z</time>
      </trkpt>
      <trkpt lat="48.28769" lon="7.41673">
        <ele>186.5</ele>
        <time>2019-08-09T13:17:31Z</time>
      </trkpt>
      <trkpt lat="48.28765" lon="7.41673">
        <ele>186.5</ele>
        <time>2019-08-09T13:17:32Z</time>
      </trkpt>
      <trkpt lat="48.28761" lon="7.41674">
        <ele>186.6</ele>
        <time>2019-08-09T13:17:33Z</time>
      </trkpt>
      <trkpt lat="48.28757" lon="7.41671">
        <ele>186.6</ele>
        <time>2019-08-09T13:17:34Z</time>
      </trkpt>
      <trkpt lat="48.28753" lon="7.41671">
        <ele>186.7</ele>
        <time>2019-08-09T13:17:35Z</time>
      </trkpt>
      <trkpt lat="48.28749" lon="7.4167">
        <ele>186.7</ele>
        <time>2019-08-09T13:17:36Z</time>
      </trkpt>
      <trkpt lat="48.28746" lon="7.41669">
        <ele>186.8</ele>
        <time>2019-08-09T13:17:37Z</time>
      </trkpt>
      <trkpt lat="48.28742" lon="7.41668">
        <ele>186.9</ele>
        <time>2019-08-09T13:17:38Z</time>
      </trkpt>
      <trkpt lat="48.28739" lon="7.41667">
        <ele>186.9</ele>
        <time>2019-08-09T13:17:39Z</time>
      </trkpt>
      <trkpt lat="48.28736" lon="7.41664">
        <ele>187</ele>
        <time>2019-08-09T13:17:41Z</time>
      </trkpt>
      <trkpt lat="48.28733" lon="7.41663">
        <ele>187</ele>
        <time>2019-08-09T13:17:43Z</time>
      </trkpt>
      <trkpt lat="48.2873" lon="7.41664">
        <ele>187.1</ele>
        <time>2019-08-09T13:17:46Z</time>
      </trkpt>
      <trkpt lat="48.28727" lon="7.41665">
        <ele>187.1</ele>
        <time>2019-08-09T13:17:48Z</time>
      </trkpt>
      <trkpt lat="48.28723" lon="7.41669">
        <ele>187.2</ele>
        <time>2019-08-09T13:17:50Z</time>
      </trkpt>
      <trkpt lat="48.28721" lon="7.41673">
        <ele>187.2</ele>
        <time>2019-08-09T13:17:51Z</time>
      </trkpt>
      <trkpt lat="48.28719" lon="7.41678">
        <ele>187.2</ele>
        <time>2019-08-09T13:17:52Z</time>
      </trkpt>
      <trkpt lat="48.28717" lon="7.41682">
        <ele>187.2</ele>
        <time>2019-08-09T13:17:53Z</time>
      </trkpt>
      <trkpt lat="48.28715" lon="7.41687">
        <ele>187.2</ele>
        <time>2019-08-09T13:17:54Z</time>
      </trkpt>
      <trkpt lat="48.28713" lon="7.41693">
        <ele>187.2</ele>
        <time>2019-08-09T13:17:55Z</time>
      </trkpt>
      <trkpt lat="48.28713" lon="7.41699">
        <ele>187.2</ele>
        <time>2019-08-09T13:17:56Z</time>
      </trkpt>
      <trkpt lat="48.28712" lon="7.41704">
        <ele>187.2</ele>
        <time>2019-08-09T13:17:57Z</time>
      </trkpt>
      <trkpt lat="48.28711" lon="7.4171">
        <ele>187.2</ele>
        <time>2019-08-09T13:17:58Z</time>
      </trkpt>
      <trkpt lat="48.28709" lon="7.41716">
        <ele>187.2</ele>
        <time>2019-08-09T13:17:59Z</time>
      </trkpt>
      <trkpt lat="48.28707" lon="7.41722">
        <ele>187.2</ele>
        <time>2019-08-09T13:18:00Z</time>
      </trkpt>
      <trkpt lat="48.28706" lon="7.41727">
        <ele>187.3</ele>
        <time>2019-08-09T13:18:01Z</time>
      </trkpt>
      <trkpt lat="48.28703" lon="7.41733">
        <ele>187.3</ele>
        <time>2019-08-09T13:18:02Z</time>
      </trkpt>
      <trkpt lat="48.28703" lon="7.41739">
        <ele>187.3</ele>
        <time>2019-08-09T13:18:03Z</time>
      </trkpt>
      <trkpt lat="48.28702" lon="7.41746">
        <ele>187.3</ele>
        <time>2019-08-09T13:18:04Z</time>
      </trkpt>
      <trkpt lat="48.28704" lon="7.41753">
        <ele>187.2</ele>
        <time>2019-08-09T13:18:05Z</time>
      </trkpt>
      <trkpt lat="48.28704" lon="7.41759">
        <ele>187.2</ele>
        <time>2019-08-09T13:18:06Z</time>
      </trkpt>
      <trkpt lat="48.28705" lon="7.41765">
        <ele>187.2</ele>
        <time>2019-08-09T13:18:07Z</time>
      </trkpt>
      <trkpt lat="48.28705" lon="7.41772">
        <ele>187.2</ele>
        <time>2019-08-09T13:18:08Z</time>
      </trkpt>
      <trkpt lat="48.28707" lon="7.41777">
        <ele>187.2</ele>
        <time>2019-08-09T13:18:09Z</time>
      </trkpt>
      <trkpt lat="48.28707" lon="7.41783">
        <ele>187.1</ele>
        <time>2019-08-09T13:18:10Z</time>
      </trkpt>
      <trkpt lat="48.28703" lon="7.41787">
        <ele>187.2</ele>
        <time>2019-08-09T13:18:12Z</time>
      </trkpt>
      <trkpt lat="48.287" lon="7.41789">
        <ele>187.2</ele>
        <time>2019-08-09T13:18:13Z</time>
      </trkpt>
      <trkpt lat="48.28697" lon="7.41791">
        <ele>187.2</ele>
        <time>2019-08-09T13:18:14Z</time>
      </trkpt>
      <trkpt lat="48.28693" lon="7.41792">
        <ele>187.3</ele>
        <time>2019-08-09T13:18:15Z</time>
      </trkpt>
      <trkpt lat="48.28689" lon="7.41793">
        <ele>187.3</ele>
        <time>2019-08-09T13:18:16Z</time>
      </trkpt>
      <trkpt lat="48.28685" lon="7.41793">
        <ele>187.3</ele>
        <time>2019-08-09T13:18:17Z</time>
      </trkpt>
      <trkpt lat="48.28681" lon="7.41795">
        <ele>187.3</ele>
        <time>2019-08-09T13:18:18Z</time>
      </trkpt>
      <trkpt lat="48.28676" lon="7.41796">
        <ele>187.4</ele>
        <time>2019-08-09T13:18:19Z</time>
      </trkpt>
      <trkpt lat="48.28672" lon="7.41797">
        <ele>187.4</ele>
        <time>2019-08-09T13:18:20Z</time>
      </trkpt>
      <trkpt lat="48.28668" lon="7.41799">
        <ele>187.4</ele>
        <time>2019-08-09T13:18:21Z</time>
      </trkpt>
      <trkpt lat="48.28663" lon="7.418">
        <ele>187.4</ele>
        <time>2019-08-09T13:18:22Z</time>
      </trkpt>
      <trkpt lat="48.2866" lon="7.41801">
        <ele>187.4</ele>
        <time>2019-08-09T13:18:23Z</time>
      </trkpt>
      <trkpt lat="48.28657" lon="7.41802">
        <ele>187.5</ele>
        <time>2019-08-09T13:18:24Z</time>
      </trkpt>
      <trkpt lat="48.28653" lon="7.41803">
        <ele>187.5</ele>
        <time>2019-08-09T13:18:26Z</time>
      </trkpt>
      <trkpt lat="48.28651" lon="7.41799">
        <ele>187.5</ele>
        <time>2019-08-09T13:18:28Z</time>
      </trkpt>
      <trkpt lat="48.28649" lon="7.41793">
        <ele>187.5</ele>
        <time>2019-08-09T13:18:30Z</time>
      </trkpt>
      <trkpt lat="48.2865" lon="7.41789">
        <ele>187.5</ele>
        <time>2019-08-09T13:18:38Z</time>
      </trkpt>
      <trkpt lat="48.28645" lon="7.41786">
        <ele>187.5</ele>
        <time>2019-08-09T13:19:27Z</time>
      </trkpt>
      <trkpt lat="48.28645" lon="7.41779">
        <ele>187.6</ele>
        <time>2019-08-09T13:19:29Z</time>
      </trkpt>
      <trkpt lat="48.28645" lon="7.41773">
        <ele>187.6</ele>
        <time>2019-08-09T13:19:30Z</time>
      </trkpt>
      <trkpt lat="48.28645" lon="7.41768">
        <ele>187.6</ele>
        <time>2019-08-09T13:19:31Z</time>
      </trkpt>
      <trkpt lat="48.28645" lon="7.41763">
        <ele>187.6</ele>
        <time>2019-08-09T13:19:32Z</time>
      </trkpt>
      <trkpt lat="48.28645" lon="7.41758">
        <ele>187.7</ele>
        <time>2019-08-09T13:19:33Z</time>
      </trkpt>
      <trkpt lat="48.28644" lon="7.41753">
        <ele>187.7</ele>
        <time>2019-08-09T13:19:34Z</time>
      </trkpt>
      <trkpt lat="48.28645" lon="7.41748">
        <ele>187.7</ele>
        <time>2019-08-09T13:19:35Z</time>
      </trkpt>
      <trkpt lat="48.28645" lon="7.41742">
        <ele>187.7</ele>
        <time>2019-08-09T13:19:36Z</time>
      </trkpt>
      <trkpt lat="48.28645" lon="7.41737">
        <ele>187.7</ele>
        <time>2019-08-09T13:19:37Z</time>
      </trkpt>
      <trkpt lat="48.28644" lon="7.41731">
        <ele>187.8</ele>
        <time>2019-08-09T13:19:38Z</time>
      </trkpt>
      <trkpt lat="48.28643" lon="7.41726">
        <ele>187.8</ele>
        <time>2019-08-09T13:19:39Z</time>
      </trkpt>
      <trkpt lat="48.28641" lon="7.41719">
        <ele>187.8</ele>
        <time>2019-08-09T13:19:40Z</time>
      </trkpt>
      <trkpt lat="48.28641" lon="7.41713">
        <ele>187.8</ele>
        <time>2019-08-09T13:19:41Z</time>
      </trkpt>
      <trkpt lat="48.2864" lon="7.41707">
        <ele>187.8</ele>
        <time>2019-08-09T13:19:42Z</time>
      </trkpt>
      <trkpt lat="48.28641" lon="7.41701">
        <ele>187.9</ele>
        <time>2019-08-09T13:19:43Z</time>
      </trkpt>
      <trkpt lat="48.28641" lon="7.41696">
        <ele>187.9</ele>
        <time>2019-08-09T13:19:44Z</time>
      </trkpt>
      <trkpt lat="48.2864" lon="7.4169">
        <ele>187.9</ele>
        <time>2019-08-09T13:19:45Z</time>
      </trkpt>
      <trkpt lat="48.28639" lon="7.41683">
        <ele>187.9</ele>
        <time>2019-08-09T13:19:46Z</time>
      </trkpt>
      <trkpt lat="48.28639" lon="7.41677">
        <ele>187.9</ele>
        <time>2019-08-09T13:19:47Z</time>
      </trkpt>
      <trkpt lat="48.28638" lon="7.41672">
        <ele>187.9</ele>
        <time>2019-08-09T13:19:48Z</time>
      </trkpt>
      <trkpt lat="48.28637" lon="7.41665">
        <ele>187.9</ele>
        <time>2019-08-09T13:19:49Z</time>
      </trkpt>
      <trkpt lat="48.28638" lon="7.41658">
        <ele>187.9</ele>
        <time>2019-08-09T13:19:50Z</time>
      </trkpt>
      <trkpt lat="48.28638" lon="7.41652">
        <ele>187.8</ele>
        <time>2019-08-09T13:19:51Z</time>
      </trkpt>
      <trkpt lat="48.28638" lon="7.41645">
        <ele>187.8</ele>
        <time>2019-08-09T13:19:52Z</time>
      </trkpt>
      <trkpt lat="48.28637" lon="7.4164">
        <ele>187.8</ele>
        <time>2019-08-09T13:19:53Z</time>
      </trkpt>
      <trkpt lat="48.28637" lon="7.41635">
        <ele>187.8</ele>
        <time>2019-08-09T13:19:54Z</time>
      </trkpt>
      <trkpt lat="48.28635" lon="7.4163">
        <ele>187.8</ele>
        <time>2019-08-09T13:19:55Z</time>
      </trkpt>
      <trkpt lat="48.28634" lon="7.41624">
        <ele>187.7</ele>
        <time>2019-08-09T13:19:56Z</time>
      </trkpt>
      <trkpt lat="48.28633" lon="7.41619">
        <ele>187.7</ele>
        <time>2019-08-09T13:19:57Z</time>
      </trkpt>
      <trkpt lat="48.28631" lon="7.41614">
        <ele>187.7</ele>
        <time>2019-08-09T13:19:58Z</time>
      </trkpt>
      <trkpt lat="48.2863" lon="7.41609">
        <ele>187.7</ele>
        <time>2019-08-09T13:19:59Z</time>
      </trkpt>
      <trkpt lat="48.28628" lon="7.41604">
        <ele>187.8</ele>
        <time>2019-08-09T13:20:00Z</time>
      </trkpt>
      <trkpt lat="48.28624" lon="7.41598">
        <ele>187.8</ele>
        <time>2019-08-09T13:20:01Z</time>
      </trkpt>
      <trkpt lat="48.28622" lon="7.41594">
        <ele>187.9</ele>
        <time>2019-08-09T13:20:02Z</time>
      </trkpt>
      <trkpt lat="48.28619" lon="7.41589">
        <ele>187.9</ele>
        <time>2019-08-09T13:20:03Z</time>
      </trkpt>
      <trkpt lat="48.28617" lon="7.41584">
        <ele>188</ele>
        <time>2019-08-09T13:20:04Z</time>
      </trkpt>
      <trkpt lat="48.28615" lon="7.41578">
        <ele>188.1</ele>
        <time>2019-08-09T13:20:05Z</time>
      </trkpt>
      <trkpt lat="48.28612" lon="7.41573">
        <ele>188.2</ele>
        <time>2019-08-09T13:20:06Z</time>
      </trkpt>
      <trkpt lat="48.28609" lon="7.41567">
        <ele>188.3</ele>
        <time>2019-08-09T13:20:07Z</time>
      </trkpt>
      <trkpt lat="48.28607" lon="7.41561">
        <ele>188.3</ele>
        <time>2019-08-09T13:20:08Z</time>
      </trkpt>
      <trkpt lat="48.28604" lon="7.41556">
        <ele>188.4</ele>
        <time>2019-08-09T13:20:09Z</time>
      </trkpt>
      <trkpt lat="48.28601" lon="7.4155">
        <ele>188.5</ele>
        <time>2019-08-09T13:20:10Z</time>
      </trkpt>
      <trkpt lat="48.28599" lon="7.41545">
        <ele>188.5</ele>
        <time>2019-08-09T13:20:11Z</time>
      </trkpt>
      <trkpt lat="48.28595" lon="7.41539">
        <ele>188.6</ele>
        <time>2019-08-09T13:20:12Z</time>
      </trkpt>
      <trkpt lat="48.28593" lon="7.41535">
        <ele>188.6</ele>
        <time>2019-08-09T13:20:13Z</time>
      </trkpt>
      <trkpt lat="48.28591" lon="7.41529">
        <ele>188.7</ele>
        <time>2019-08-09T13:20:14Z</time>
      </trkpt>
      <trkpt lat="48.2859" lon="7.41523">
        <ele>188.7</ele>
        <time>2019-08-09T13:20:15Z</time>
      </trkpt>
      <trkpt lat="48.28589" lon="7.41516">
        <ele>188.6</ele>
        <time>2019-08-09T13:20:16Z</time>
      </trkpt>
      <trkpt lat="48.28589" lon="7.4151">
        <ele>188.6</ele>
        <time>2019-08-09T13:20:17Z</time>
      </trkpt>
      <trkpt lat="48.28588" lon="7.41503">
        <ele>188.6</ele>
        <time>2019-08-09T13:20:18Z</time>
      </trkpt>
      <trkpt lat="48.28586" lon="7.41498">
        <ele>188.5</ele>
        <time>2019-08-09T13:20:19Z</time>
      </trkpt>
      <trkpt lat="48.28585" lon="7.41492">
        <ele>188.5</ele>
        <time>2019-08-09T13:20:20Z</time>
      </trkpt>
      <trkpt lat="48.28584" lon="7.41485">
        <ele>188.4</ele>
        <time>2019-08-09T13:20:21Z</time>
      </trkpt>
      <trkpt lat="48.28583" lon="7.41478">
        <ele>188.3</ele>
        <time>2019-08-09T13:20:22Z</time>
      </trkpt>
      <trkpt lat="48.28582" lon="7.41471">
        <ele>188.3</ele>
        <time>2019-08-09T13:20:23Z</time>
      </trkpt>
      <trkpt lat="48.28582" lon="7.41465">
        <ele>188.3</ele>
        <time>2019-08-09T13:20:24Z</time>
      </trkpt>
      <trkpt lat="48.28582" lon="7.41459">
        <ele>188.3</ele>
        <time>2019-08-09T13:20:25Z</time>
      </trkpt>
      <trkpt lat="48.28583" lon="7.41453">
        <ele>188.3</ele>
        <time>2019-08-09T13:20:26Z</time>
      </trkpt>
      <trkpt lat="48.28583" lon="7.41448">
        <ele>188.4</ele>
        <time>2019-08-09T13:20:27Z</time>
      </trkpt>
      <trkpt lat="48.28585" lon="7.41443">
        <ele>188.4</ele>
        <time>2019-08-09T13:20:28Z</time>
      </trkpt>
      <trkpt lat="48.28587" lon="7.41438">
        <ele>188.4</ele>
        <time>2019-08-09T13:20:29Z</time>
      </trkpt>
      <trkpt lat="48.28589" lon="7.41432">
        <ele>188.3</ele>
        <time>2019-08-09T13:20:30Z</time>
      </trkpt>
      <trkpt lat="48.28591" lon="7.41427">
        <ele>188.3</ele>
        <time>2019-08-09T13:20:31Z</time>
      </trkpt>
      <trkpt lat="48.28593" lon="7.41421">
        <ele>188.3</ele>
        <time>2019-08-09T13:20:32Z</time>
      </trkpt>
      <trkpt lat="48.28596" lon="7.41417">
        <ele>188.2</ele>
        <time>2019-08-09T13:20:33Z</time>
      </trkpt>
      <trkpt lat="48.28599" lon="7.41412">
        <ele>188.2</ele>
        <time>2019-08-09T13:20:34Z</time>
      </trkpt>
      <trkpt lat="48.28602" lon="7.41408">
        <ele>188.2</ele>
        <time>2019-08-09T13:20:35Z</time>
      </trkpt>
      <trkpt lat="48.28606" lon="7.41403">
        <ele>188.2</ele>
        <time>2019-08-09T13:20:36Z</time>
      </trkpt>
      <trkpt lat="48.28608" lon="7.41398">
        <ele>188.3</ele>
        <time>2019-08-09T13:20:37Z</time>
      </trkpt>
      <trkpt lat="48.28611" lon="7.41394">
        <ele>188.3</ele>
        <time>2019-08-09T13:20:38Z</time>
      </trkpt>
      <trkpt lat="48.28614" lon="7.4139">
        <ele>188.3</ele>
        <time>2019-08-09T13:20:39Z</time>
      </trkpt>
      <trkpt lat="48.28616" lon="7.41386">
        <ele>188.3</ele>
        <time>2019-08-09T13:20:40Z</time>
      </trkpt>
      <trkpt lat="48.28619" lon="7.41383">
        <ele>188.2</ele>
        <time>2019-08-09T13:20:41Z</time>
      </trkpt>
      <trkpt lat="48.28623" lon="7.4138">
        <ele>188.1</ele>
        <time>2019-08-09T13:20:42Z</time>
      </trkpt>
      <trkpt lat="48.28626" lon="7.41378">
        <ele>188</ele>
        <time>2019-08-09T13:20:43Z</time>
      </trkpt>
      <trkpt lat="48.28629" lon="7.41375">
        <ele>187.8</ele>
        <time>2019-08-09T13:20:44Z</time>
      </trkpt>
      <trkpt lat="48.28632" lon="7.41371">
        <ele>187.7</ele>
        <time>2019-08-09T13:20:45Z</time>
      </trkpt>
      <trkpt lat="48.28635" lon="7.41367">
        <ele>187.6</ele>
        <time>2019-08-09T13:20:46Z</time>
      </trkpt>
      <trkpt lat="48.28637" lon="7.41363">
        <ele>187.5</ele>
        <time>2019-08-09T13:20:47Z</time>
      </trkpt>
      <trkpt lat="48.2864" lon="7.41359">
        <ele>187.4</ele>
        <time>2019-08-09T13:20:48Z</time>
      </trkpt>
      <trkpt lat="48.28644" lon="7.41357">
        <ele>187.4</ele>
        <time>2019-08-09T13:20:49Z</time>
      </trkpt>
      <trkpt lat="48.28647" lon="7.41352">
        <ele>187.3</ele>
        <time>2019-08-09T13:20:50Z</time>
      </trkpt>
      <trkpt lat="48.28651" lon="7.41348">
        <ele>187.3</ele>
        <time>2019-08-09T13:20:51Z</time>
      </trkpt>
      <trkpt lat="48.28653" lon="7.41343">
        <ele>187.3</ele>
        <time>2019-08-09T13:20:52Z</time>
      </trkpt>
      <trkpt lat="48.28655" lon="7.41338">
        <ele>187.3</ele>
        <time>2019-08-09T13:20:53Z</time>
      </trkpt>
      <trkpt lat="48.28657" lon="7.41334">
        <ele>187.2</ele>
        <time>2019-08-09T13:20:54Z</time>
      </trkpt>
      <trkpt lat="48.28658" lon="7.4133">
        <ele>187.2</ele>
        <time>2019-08-09T13:20:55Z</time>
      </trkpt>
      <trkpt lat="48.2866" lon="7.41326">
        <ele>187.1</ele>
        <time>2019-08-09T13:20:56Z</time>
      </trkpt>
      <trkpt lat="48.28661" lon="7.4132">
        <ele>187</ele>
        <time>2019-08-09T13:20:57Z</time>
      </trkpt>
      <trkpt lat="48.28662" lon="7.41316">
        <ele>186.9</ele>
        <time>2019-08-09T13:20:58Z</time>
      </trkpt>
      <trkpt lat="48.28663" lon="7.41311">
        <ele>186.9</ele>
        <time>2019-08-09T13:20:59Z</time>
      </trkpt>
      <trkpt lat="48.28663" lon="7.41305">
        <ele>186.9</ele>
        <time>2019-08-09T13:21:00Z</time>
      </trkpt>
      <trkpt lat="48.28663" lon="7.413">
        <ele>187</ele>
        <time>2019-08-09T13:21:01Z</time>
      </trkpt>
      <trkpt lat="48.28663" lon="7.41294">
        <ele>187</ele>
        <time>2019-08-09T13:21:02Z</time>
      </trkpt>
      <trkpt lat="48.28662" lon="7.41288">
        <ele>187</ele>
        <time>2019-08-09T13:21:03Z</time>
      </trkpt>
      <trkpt lat="48.28663" lon="7.41282">
        <ele>187</ele>
        <time>2019-08-09T13:21:04Z</time>
      </trkpt>
      <trkpt lat="48.28663" lon="7.41277">
        <ele>187</ele>
        <time>2019-08-09T13:21:05Z</time>
      </trkpt>
      <trkpt lat="48.28662" lon="7.41271">
        <ele>187</ele>
        <time>2019-08-09T13:21:06Z</time>
      </trkpt>
      <trkpt lat="48.28662" lon="7.41266">
        <ele>187</ele>
        <time>2019-08-09T13:21:07Z</time>
      </trkpt>
      <trkpt lat="48.28662" lon="7.41262">
        <ele>187</ele>
        <time>2019-08-09T13:21:08Z</time>
      </trkpt>
      <trkpt lat="48.28662" lon="7.41255">
        <ele>186.9</ele>
        <time>2019-08-09T13:21:09Z</time>
      </trkpt>
      <trkpt lat="48.28661" lon="7.4125">
        <ele>186.9</ele>
        <time>2019-08-09T13:21:10Z</time>
      </trkpt>
      <trkpt lat="48.2866" lon="7.41245">
        <ele>186.8</ele>
        <time>2019-08-09T13:21:11Z</time>
      </trkpt>
      <trkpt lat="48.2866" lon="7.41239">
        <ele>186.8</ele>
        <time>2019-08-09T13:21:12Z</time>
      </trkpt>
      <trkpt lat="48.28659" lon="7.41234">
        <ele>186.7</ele>
        <time>2019-08-09T13:21:13Z</time>
      </trkpt>
      <trkpt lat="48.28658" lon="7.41228">
        <ele>186.6</ele>
        <time>2019-08-09T13:21:14Z</time>
      </trkpt>
      <trkpt lat="48.28658" lon="7.41222">
        <ele>186.6</ele>
        <time>2019-08-09T13:21:15Z</time>
      </trkpt>
      <trkpt lat="48.28658" lon="7.41217">
        <ele>186.5</ele>
        <time>2019-08-09T13:21:16Z</time>
      </trkpt>
      <trkpt lat="48.28657" lon="7.41211">
        <ele>186.4</ele>
        <time>2019-08-09T13:21:17Z</time>
      </trkpt>
      <trkpt lat="48.28658" lon="7.41205">
        <ele>186.4</ele>
        <time>2019-08-09T13:21:18Z</time>
      </trkpt>
      <trkpt lat="48.28658" lon="7.41199">
        <ele>186.5</ele>
        <time>2019-08-09T13:21:19Z</time>
      </trkpt>
      <trkpt lat="48.28657" lon="7.41192">
        <ele>186.5</ele>
        <time>2019-08-09T13:21:20Z</time>
      </trkpt>
      <trkpt lat="48.28658" lon="7.41186">
        <ele>186.6</ele>
        <time>2019-08-09T13:21:21Z</time>
      </trkpt>
      <trkpt lat="48.28658" lon="7.41179">
        <ele>186.6</ele>
        <time>2019-08-09T13:21:22Z</time>
      </trkpt>
      <trkpt lat="48.28658" lon="7.41172">
        <ele>186.7</ele>
        <time>2019-08-09T13:21:23Z</time>
      </trkpt>
      <trkpt lat="48.28658" lon="7.41165">
        <ele>186.7</ele>
        <time>2019-08-09T13:21:24Z</time>
      </trkpt>
      <trkpt lat="48.28658" lon="7.41159">
        <ele>186.7</ele>
        <time>2019-08-09T13:21:25Z</time>
      </trkpt>
      <trkpt lat="48.28658" lon="7.41152">
        <ele>186.8</ele>
        <time>2019-08-09T13:21:26Z</time>
      </trkpt>
      <trkpt lat="48.28658" lon="7.41146">
        <ele>186.8</ele>
        <time>2019-08-09T13:21:27Z</time>
      </trkpt>
      <trkpt lat="48.28658" lon="7.4114">
        <ele>186.9</ele>
        <time>2019-08-09T13:21:28Z</time>
      </trkpt>
      <trkpt lat="48.28658" lon="7.41135">
        <ele>186.9</ele>
        <time>2019-08-09T13:21:29Z</time>
      </trkpt>
      <trkpt lat="48.28658" lon="7.41129">
        <ele>186.9</ele>
        <time>2019-08-09T13:21:30Z</time>
      </trkpt>
      <trkpt lat="48.28658" lon="7.41124">
        <ele>187</ele>
        <time>2019-08-09T13:21:31Z</time>
      </trkpt>
      <trkpt lat="48.28658" lon="7.41118">
        <ele>187</ele>
        <time>2019-08-09T13:21:32Z</time>
      </trkpt>
      <trkpt lat="48.28658" lon="7.41112">
        <ele>187</ele>
        <time>2019-08-09T13:21:33Z</time>
      </trkpt>
      <trkpt lat="48.28658" lon="7.41106">
        <ele>187</ele>
        <time>2019-08-09T13:21:34Z</time>
      </trkpt>
      <trkpt lat="48.28657" lon="7.41101">
        <ele>187</ele>
        <time>2019-08-09T13:21:35Z</time>
      </trkpt>
      <trkpt lat="48.28657" lon="7.41096">
        <ele>187.1</ele>
        <time>2019-08-09T13:21:36Z</time>
      </trkpt>
      <trkpt lat="48.28656" lon="7.41091">
        <ele>187.1</ele>
        <time>2019-08-09T13:21:37Z</time>
      </trkpt>
      <trkpt lat="48.28656" lon="7.41086">
        <ele>187.1</ele>
        <time>2019-08-09T13:21:38Z</time>
      </trkpt>
      <trkpt lat="48.28656" lon="7.41081">
        <ele>187.1</ele>
        <time>2019-08-09T13:21:39Z</time>
      </trkpt>
      <trkpt lat="48.28655" lon="7.41075">
        <ele>187.1</ele>
        <time>2019-08-09T13:21:40Z</time>
      </trkpt>
      <trkpt lat="48.28655" lon="7.4107">
        <ele>187.1</ele>
        <time>2019-08-09T13:21:41Z</time>
      </trkpt>
      <trkpt lat="48.28654" lon="7.41065">
        <ele>187.2</ele>
        <time>2019-08-09T13:21:42Z</time>
      </trkpt>
      <trkpt lat="48.28653" lon="7.41061">
        <ele>187.2</ele>
        <time>2019-08-09T13:21:43Z</time>
      </trkpt>
      <trkpt lat="48.28652" lon="7.41057">
        <ele>187.2</ele>
        <time>2019-08-09T13:21:45Z</time>
      </trkpt>
      <trkpt lat="48.2865" lon="7.41063">
        <ele>187.2</ele>
        <time>2019-08-09T13:22:19Z</time>
      </trkpt>
      <trkpt lat="48.28647" lon="7.41064">
        <ele>187.2</ele>
        <time>2019-08-09T13:22:22Z</time>
      </trkpt>
      <trkpt lat="48.28643" lon="7.41063">
        <ele>187.2</ele>
        <time>2019-08-09T13:22:24Z</time>
      </trkpt>
      <trkpt lat="48.28639" lon="7.41063">
        <ele>187.2</ele>
        <time>2019-08-09T13:22:26Z</time>
      </trkpt>
      <trkpt lat="48.28634" lon="7.4106">
        <ele>187.2</ele>
        <time>2019-08-09T13:22:28Z</time>
      </trkpt>
      <trkpt lat="48.2863" lon="7.41059">
        <ele>187.2</ele>
        <time>2019-08-09T13:22:30Z</time>
      </trkpt>
      <trkpt lat="48.28626" lon="7.41057">
        <ele>187.1</ele>
        <time>2019-08-09T13:22:32Z</time>
      </trkpt>
      <trkpt lat="48.28621" lon="7.41055">
        <ele>187.1</ele>
        <time>2019-08-09T13:22:34Z</time>
      </trkpt>
      <trkpt lat="48.28618" lon="7.41055">
        <ele>187.1</ele>
        <time>2019-08-09T13:22:35Z</time>
      </trkpt>
      <trkpt lat="48.28615" lon="7.41054">
        <ele>187.1</ele>
        <time>2019-08-09T13:22:36Z</time>
      </trkpt>
      <trkpt lat="48.28612" lon="7.41054">
        <ele>187.1</ele>
        <time>2019-08-09T13:22:37Z</time>
      </trkpt>
      <trkpt lat="48.28609" lon="7.41052">
        <ele>187.1</ele>
        <time>2019-08-09T13:22:38Z</time>
      </trkpt>
      <trkpt lat="48.28605" lon="7.41051">
        <ele>187</ele>
        <time>2019-08-09T13:22:39Z</time>
      </trkpt>
      <trkpt lat="48.28602" lon="7.4105">
        <ele>187</ele>
        <time>2019-08-09T13:22:40Z</time>
      </trkpt>
      <trkpt lat="48.28598" lon="7.41048">
        <ele>187</ele>
        <time>2019-08-09T13:22:41Z</time>
      </trkpt>
      <trkpt lat="48.28595" lon="7.41046">
        <ele>187</ele>
        <time>2019-08-09T13:22:42Z</time>
      </trkpt>
      <trkpt lat="48.28591" lon="7.41045">
        <ele>186.9</ele>
        <time>2019-08-09T13:22:43Z</time>
      </trkpt>
      <trkpt lat="48.28588" lon="7.41043">
        <ele>186.9</ele>
        <time>2019-08-09T13:22:44Z</time>
      </trkpt>
      <trkpt lat="48.28584" lon="7.41042">
        <ele>186.9</ele>
        <time>2019-08-09T13:22:45Z</time>
      </trkpt>
      <trkpt lat="48.28581" lon="7.41041">
        <ele>186.9</ele>
        <time>2019-08-09T13:22:46Z</time>
      </trkpt>
      <trkpt lat="48.28577" lon="7.4104">
        <ele>186.8</ele>
        <time>2019-08-09T13:22:47Z</time>
      </trkpt>
      <trkpt lat="48.28574" lon="7.4104">
        <ele>186.8</ele>
        <time>2019-08-09T13:22:48Z</time>
      </trkpt>
      <trkpt lat="48.28571" lon="7.41039">
        <ele>186.8</ele>
        <time>2019-08-09T13:22:49Z</time>
      </trkpt>
      <trkpt lat="48.28568" lon="7.41039">
        <ele>186.7</ele>
        <time>2019-08-09T13:22:50Z</time>
      </trkpt>
      <trkpt lat="48.28565" lon="7.41039">
        <ele>186.7</ele>
        <time>2019-08-09T13:22:51Z</time>
      </trkpt>
      <trkpt lat="48.28561" lon="7.4104">
        <ele>186.6</ele>
        <time>2019-08-09T13:22:52Z</time>
      </trkpt>
      <trkpt lat="48.28558" lon="7.4104">
        <ele>186.6</ele>
        <time>2019-08-09T13:22:53Z</time>
      </trkpt>
      <trkpt lat="48.28555" lon="7.41041">
        <ele>186.6</ele>
        <time>2019-08-09T13:22:54Z</time>
      </trkpt>
      <trkpt lat="48.28551" lon="7.41042">
        <ele>186.5</ele>
        <time>2019-08-09T13:22:55Z</time>
      </trkpt>
      <trkpt lat="48.28548" lon="7.41044">
        <ele>186.5</ele>
        <time>2019-08-09T13:22:56Z</time>
      </trkpt>
      <trkpt lat="48.28545" lon="7.41045">
        <ele>186.4</ele>
        <time>2019-08-09T13:22:57Z</time>
      </trkpt>
      <trkpt lat="48.28541" lon="7.41047">
        <ele>186.4</ele>
        <time>2019-08-09T13:22:58Z</time>
      </trkpt>
      <trkpt lat="48.28538" lon="7.4105">
        <ele>186.3</ele>
        <time>2019-08-09T13:22:59Z</time>
      </trkpt>
      <trkpt lat="48.28535" lon="7.41052">
        <ele>186.3</ele>
        <time>2019-08-09T13:23:00Z</time>
      </trkpt>
      <trkpt lat="48.28532" lon="7.41056">
        <ele>186.2</ele>
        <time>2019-08-09T13:23:01Z</time>
      </trkpt>
      <trkpt lat="48.28529" lon="7.41058">
        <ele>186.2</ele>
        <time>2019-08-09T13:23:02Z</time>
      </trkpt>
      <trkpt lat="48.28526" lon="7.41062">
        <ele>186.1</ele>
        <time>2019-08-09T13:23:03Z</time>
      </trkpt>
      <trkpt lat="48.28523" lon="7.41065">
        <ele>186</ele>
        <time>2019-08-09T13:23:04Z</time>
      </trkpt>
      <trkpt lat="48.28519" lon="7.41068">
        <ele>186</ele>
        <time>2019-08-09T13:23:05Z</time>
      </trkpt>
      <trkpt lat="48.28516" lon="7.41071">
        <ele>185.9</ele>
        <time>2019-08-09T13:23:06Z</time>
      </trkpt>
      <trkpt lat="48.28513" lon="7.41073">
        <ele>185.9</ele>
        <time>2019-08-09T13:23:07Z</time>
      </trkpt>
      <trkpt lat="48.28509" lon="7.41076">
        <ele>185.8</ele>
        <time>2019-08-09T13:23:08Z</time>
      </trkpt>
      <trkpt lat="48.28506" lon="7.41078">
        <ele>185.8</ele>
        <time>2019-08-09T13:23:09Z</time>
      </trkpt>
      <trkpt lat="48.28502" lon="7.41082">
        <ele>185.7</ele>
        <time>2019-08-09T13:23:10Z</time>
      </trkpt>
      <trkpt lat="48.28499" lon="7.41085">
        <ele>185.7</ele>
        <time>2019-08-09T13:23:11Z</time>
      </trkpt>
      <trkpt lat="48.28495" lon="7.41088">
        <ele>185.6</ele>
        <time>2019-08-09T13:23:12Z</time>
      </trkpt>
      <trkpt lat="48.28491" lon="7.41091">
        <ele>185.6</ele>
        <time>2019-08-09T13:23:13Z</time>
      </trkpt>
      <trkpt lat="48.28488" lon="7.41094">
        <ele>185.6</ele>
        <time>2019-08-09T13:23:14Z</time>
      </trkpt>
      <trkpt lat="48.28484" lon="7.41097">
        <ele>185.6</ele>
        <time>2019-08-09T13:23:15Z</time>
      </trkpt>
      <trkpt lat="48.28481" lon="7.41099">
        <ele>185.5</ele>
        <time>2019-08-09T13:23:16Z</time>
      </trkpt>
      <trkpt lat="48.28476" lon="7.41101">
        <ele>185.5</ele>
        <time>2019-08-09T13:23:17Z</time>
      </trkpt>
      <trkpt lat="48.28472" lon="7.41101">
        <ele>185.5</ele>
        <time>2019-08-09T13:23:18Z</time>
      </trkpt>
      <trkpt lat="48.28468" lon="7.41102">
        <ele>185.5</ele>
        <time>2019-08-09T13:23:19Z</time>
      </trkpt>
      <trkpt lat="48.28464" lon="7.41102">
        <ele>185.5</ele>
        <time>2019-08-09T13:23:20Z</time>
      </trkpt>
      <trkpt lat="48.2846" lon="7.41102">
        <ele>185.6</ele>
        <time>2019-08-09T13:23:21Z</time>
      </trkpt>
      <trkpt lat="48.28456" lon="7.41101">
        <ele>185.6</ele>
        <time>2019-08-09T13:23:22Z</time>
      </trkpt>
      <trkpt lat="48.28452" lon="7.41101">
        <ele>185.6</ele>
        <time>2019-08-09T13:23:23Z</time>
      </trkpt>
      <trkpt lat="48.28447" lon="7.411">
        <ele>185.7</ele>
        <time>2019-08-09T13:23:24Z</time>
      </trkpt>
      <trkpt lat="48.28443" lon="7.41098">
        <ele>185.7</ele>
        <time>2019-08-09T13:23:25Z</time>
      </trkpt>
      <trkpt lat="48.28439" lon="7.41096">
        <ele>185.7</ele>
        <time>2019-08-09T13:23:26Z</time>
      </trkpt>
      <trkpt lat="48.28435" lon="7.41094">
        <ele>185.8</ele>
        <time>2019-08-09T13:23:27Z</time>
      </trkpt>
      <trkpt lat="48.28431" lon="7.41092">
        <ele>185.9</ele>
        <time>2019-08-09T13:23:28Z</time>
      </trkpt>
      <trkpt lat="48.28427" lon="7.4109">
        <ele>186</ele>
        <time>2019-08-09T13:23:29Z</time>
      </trkpt>
      <trkpt lat="48.28422" lon="7.41088">
        <ele>186.1</ele>
        <time>2019-08-09T13:23:30Z</time>
      </trkpt>
      <trkpt lat="48.28417" lon="7.41087">
        <ele>186.2</ele>
        <time>2019-08-09T13:23:31Z</time>
      </trkpt>
      <trkpt lat="48.28413" lon="7.41084">
        <ele>186.3</ele>
        <time>2019-08-09T13:23:32Z</time>
      </trkpt>
      <trkpt lat="48.28409" lon="7.41084">
        <ele>186.4</ele>
        <time>2019-08-09T13:23:33Z</time>
      </trkpt>
      <trkpt lat="48.28405" lon="7.41083">
        <ele>186.3</ele>
        <time>2019-08-09T13:23:34Z</time>
      </trkpt>
      <trkpt lat="48.28401" lon="7.41084">
        <ele>186.2</ele>
        <time>2019-08-09T13:23:35Z</time>
      </trkpt>
      <trkpt lat="48.28397" lon="7.41085">
        <ele>186.1</ele>
        <time>2019-08-09T13:23:36Z</time>
      </trkpt>
      <trkpt lat="48.28393" lon="7.41084">
        <ele>186.1</ele>
        <time>2019-08-09T13:23:37Z</time>
      </trkpt>
      <trkpt lat="48.28388" lon="7.41084">
        <ele>186</ele>
        <time>2019-08-09T13:23:38Z</time>
      </trkpt>
      <trkpt lat="48.28384" lon="7.41084">
        <ele>185.9</ele>
        <time>2019-08-09T13:23:39Z</time>
      </trkpt>
      <trkpt lat="48.28379" lon="7.41084">
        <ele>185.8</ele>
        <time>2019-08-09T13:23:40Z</time>
      </trkpt>
      <trkpt lat="48.28376" lon="7.41084">
        <ele>185.7</ele>
        <time>2019-08-09T13:23:41Z</time>
      </trkpt>
      <trkpt lat="48.28373" lon="7.41083">
        <ele>185.7</ele>
        <time>2019-08-09T13:23:42Z</time>
      </trkpt>
      <trkpt lat="48.28369" lon="7.41082">
        <ele>185.7</ele>
        <time>2019-08-09T13:23:43Z</time>
      </trkpt>
      <trkpt lat="48.28365" lon="7.41081">
        <ele>185.7</ele>
        <time>2019-08-09T13:23:44Z</time>
      </trkpt>
      <trkpt lat="48.28361" lon="7.4108">
        <ele>185.6</ele>
        <time>2019-08-09T13:23:45Z</time>
      </trkpt>
      <trkpt lat="48.28357" lon="7.41078">
        <ele>185.6</ele>
        <time>2019-08-09T13:23:46Z</time>
      </trkpt>
      <trkpt lat="48.28354" lon="7.41077">
        <ele>185.6</ele>
        <time>2019-08-09T13:23:47Z</time>
      </trkpt>
      <trkpt lat="48.2835" lon="7.41076">
        <ele>185.5</ele>
        <time>2019-08-09T13:23:48Z</time>
      </trkpt>
      <trkpt lat="48.28346" lon="7.41075">
        <ele>185.5</ele>
        <time>2019-08-09T13:23:49Z</time>
      </trkpt>
      <trkpt lat="48.28343" lon="7.41075">
        <ele>185.6</ele>
        <time>2019-08-09T13:23:50Z</time>
      </trkpt>
      <trkpt lat="48.2834" lon="7.41073">
        <ele>185.6</ele>
        <time>2019-08-09T13:23:51Z</time>
      </trkpt>
      <trkpt lat="48.28336" lon="7.41071">
        <ele>185.6</ele>
        <time>2019-08-09T13:23:52Z</time>
      </trkpt>
      <trkpt lat="48.28333" lon="7.4107">
        <ele>185.6</ele>
        <time>2019-08-09T13:23:53Z</time>
      </trkpt>
      <trkpt lat="48.28329" lon="7.41068">
        <ele>185.6</ele>
        <time>2019-08-09T13:23:54Z</time>
      </trkpt>
      <trkpt lat="48.28325" lon="7.41066">
        <ele>185.6</ele>
        <time>2019-08-09T13:23:55Z</time>
      </trkpt>
      <trkpt lat="48.28321" lon="7.41065">
        <ele>185.6</ele>
        <time>2019-08-09T13:23:56Z</time>
      </trkpt>
      <trkpt lat="48.28316" lon="7.41064">
        <ele>185.6</ele>
        <time>2019-08-09T13:23:57Z</time>
      </trkpt>
      <trkpt lat="48.28312" lon="7.41063">
        <ele>185.7</ele>
        <time>2019-08-09T13:23:58Z</time>
      </trkpt>
      <trkpt lat="48.28309" lon="7.41062">
        <ele>185.7</ele>
        <time>2019-08-09T13:23:59Z</time>
      </trkpt>
      <trkpt lat="48.28305" lon="7.4106">
        <ele>185.7</ele>
        <time>2019-08-09T13:24:00Z</time>
      </trkpt>
      <trkpt lat="48.28302" lon="7.41059">
        <ele>185.7</ele>
        <time>2019-08-09T13:24:01Z</time>
      </trkpt>
      <trkpt lat="48.28298" lon="7.41059">
        <ele>185.7</ele>
        <time>2019-08-09T13:24:02Z</time>
      </trkpt>
      <trkpt lat="48.28294" lon="7.41059">
        <ele>185.7</ele>
        <time>2019-08-09T13:24:03Z</time>
      </trkpt>
      <trkpt lat="48.2829" lon="7.41059">
        <ele>185.7</ele>
        <time>2019-08-09T13:24:04Z</time>
      </trkpt>
      <trkpt lat="48.28287" lon="7.41057">
        <ele>185.7</ele>
        <time>2019-08-09T13:24:05Z</time>
      </trkpt>
      <trkpt lat="48.28283" lon="7.41057">
        <ele>185.7</ele>
        <time>2019-08-09T13:24:06Z</time>
      </trkpt>
      <trkpt lat="48.28279" lon="7.41057">
        <ele>185.7</ele>
        <time>2019-08-09T13:24:07Z</time>
      </trkpt>
      <trkpt lat="48.28274" lon="7.41056">
        <ele>185.7</ele>
        <time>2019-08-09T13:24:08Z</time>
      </trkpt>
      <trkpt lat="48.2827" lon="7.41056">
        <ele>185.8</ele>
        <time>2019-08-09T13:24:09Z</time>
      </trkpt>
      <trkpt lat="48.28266" lon="7.41056">
        <ele>185.8</ele>
        <time>2019-08-09T13:24:10Z</time>
      </trkpt>
      <trkpt lat="48.28262" lon="7.41056">
        <ele>185.8</ele>
        <time>2019-08-09T13:24:11Z</time>
      </trkpt>
      <trkpt lat="48.28258" lon="7.41056">
        <ele>185.8</ele>
        <time>2019-08-09T13:24:12Z</time>
      </trkpt>
      <trkpt lat="48.28254" lon="7.41057">
        <ele>185.8</ele>
        <time>2019-08-09T13:24:13Z</time>
      </trkpt>
      <trkpt lat="48.2825" lon="7.4106">
        <ele>185.8</ele>
        <time>2019-08-09T13:24:14Z</time>
      </trkpt>
      <trkpt lat="48.28246" lon="7.4106">
        <ele>185.8</ele>
        <time>2019-08-09T13:24:15Z</time>
      </trkpt>
      <trkpt lat="48.28242" lon="7.4106">
        <ele>185.8</ele>
        <time>2019-08-09T13:24:16Z</time>
      </trkpt>
      <trkpt lat="48.28238" lon="7.41061">
        <ele>185.8</ele>
        <time>2019-08-09T13:24:17Z</time>
      </trkpt>
      <trkpt lat="48.28234" lon="7.41062">
        <ele>185.8</ele>
        <time>2019-08-09T13:24:18Z</time>
      </trkpt>
      <trkpt lat="48.2823" lon="7.41064">
        <ele>185.8</ele>
        <time>2019-08-09T13:24:19Z</time>
      </trkpt>
      <trkpt lat="48.28227" lon="7.41065">
        <ele>185.8</ele>
        <time>2019-08-09T13:24:20Z</time>
      </trkpt>
      <trkpt lat="48.28223" lon="7.41067">
        <ele>185.8</ele>
        <time>2019-08-09T13:24:21Z</time>
      </trkpt>
      <trkpt lat="48.28219" lon="7.41069">
        <ele>185.8</ele>
        <time>2019-08-09T13:24:22Z</time>
      </trkpt>
      <trkpt lat="48.28216" lon="7.4107">
        <ele>185.9</ele>
        <time>2019-08-09T13:24:23Z</time>
      </trkpt>
      <trkpt lat="48.28212" lon="7.41071">
        <ele>185.9</ele>
        <time>2019-08-09T13:24:24Z</time>
      </trkpt>
      <trkpt lat="48.28208" lon="7.41073">
        <ele>185.9</ele>
        <time>2019-08-09T13:24:25Z</time>
      </trkpt>
      <trkpt lat="48.28204" lon="7.41074">
        <ele>185.9</ele>
        <time>2019-08-09T13:24:26Z</time>
      </trkpt>
      <trkpt lat="48.28199" lon="7.41074">
        <ele>185.9</ele>
        <time>2019-08-09T13:24:27Z</time>
      </trkpt>
      <trkpt lat="48.28195" lon="7.41074">
        <ele>185.9</ele>
        <time>2019-08-09T13:24:28Z</time>
      </trkpt>
      <trkpt lat="48.2819" lon="7.41075">
        <ele>185.9</ele>
        <time>2019-08-09T13:24:29Z</time>
      </trkpt>
      <trkpt lat="48.28186" lon="7.41075">
        <ele>185.9</ele>
        <time>2019-08-09T13:24:30Z</time>
      </trkpt>
      <trkpt lat="48.28182" lon="7.41075">
        <ele>185.9</ele>
        <time>2019-08-09T13:24:31Z</time>
      </trkpt>
      <trkpt lat="48.28178" lon="7.41076">
        <ele>186</ele>
        <time>2019-08-09T13:24:32Z</time>
      </trkpt>
      <trkpt lat="48.28174" lon="7.41077">
        <ele>186</ele>
        <time>2019-08-09T13:24:33Z</time>
      </trkpt>
      <trkpt lat="48.28169" lon="7.41077">
        <ele>186</ele>
        <time>2019-08-09T13:24:34Z</time>
      </trkpt>
      <trkpt lat="48.28165" lon="7.41076">
        <ele>186</ele>
        <time>2019-08-09T13:24:35Z</time>
      </trkpt>
      <trkpt lat="48.2816" lon="7.41075">
        <ele>185.9</ele>
        <time>2019-08-09T13:24:36Z</time>
      </trkpt>
      <trkpt lat="48.28155" lon="7.41074">
        <ele>185.9</ele>
        <time>2019-08-09T13:24:37Z</time>
      </trkpt>
      <trkpt lat="48.2815" lon="7.41073">
        <ele>185.9</ele>
        <time>2019-08-09T13:24:38Z</time>
      </trkpt>
      <trkpt lat="48.28146" lon="7.41073">
        <ele>185.9</ele>
        <time>2019-08-09T13:24:39Z</time>
      </trkpt>
      <trkpt lat="48.28141" lon="7.41071">
        <ele>185.9</ele>
        <time>2019-08-09T13:24:40Z</time>
      </trkpt>
      <trkpt lat="48.28137" lon="7.41069">
        <ele>185.9</ele>
        <time>2019-08-09T13:24:41Z</time>
      </trkpt>
      <trkpt lat="48.28132" lon="7.41067">
        <ele>185.8</ele>
        <time>2019-08-09T13:24:42Z</time>
      </trkpt>
      <trkpt lat="48.28127" lon="7.41064">
        <ele>185.8</ele>
        <time>2019-08-09T13:24:43Z</time>
      </trkpt>
      <trkpt lat="48.28122" lon="7.41062">
        <ele>185.8</ele>
        <time>2019-08-09T13:24:44Z</time>
      </trkpt>
      <trkpt lat="48.28118" lon="7.4106">
        <ele>185.8</ele>
        <time>2019-08-09T13:24:45Z</time>
      </trkpt>
      <trkpt lat="48.28113" lon="7.41058">
        <ele>185.7</ele>
        <time>2019-08-09T13:24:46Z</time>
      </trkpt>
      <trkpt lat="48.28109" lon="7.41056">
        <ele>185.7</ele>
        <time>2019-08-09T13:24:47Z</time>
      </trkpt>
      <trkpt lat="48.28104" lon="7.41055">
        <ele>185.7</ele>
        <time>2019-08-09T13:24:48Z</time>
      </trkpt>
      <trkpt lat="48.28099" lon="7.41053">
        <ele>185.7</ele>
        <time>2019-08-09T13:24:49Z</time>
      </trkpt>
      <trkpt lat="48.28095" lon="7.41051">
        <ele>185.7</ele>
        <time>2019-08-09T13:24:50Z</time>
      </trkpt>
      <trkpt lat="48.2809" lon="7.4105">
        <ele>185.7</ele>
        <time>2019-08-09T13:24:51Z</time>
      </trkpt>
      <trkpt lat="48.28086" lon="7.41048">
        <ele>185.7</ele>
        <time>2019-08-09T13:24:52Z</time>
      </trkpt>
      <trkpt lat="48.28081" lon="7.41046">
        <ele>185.7</ele>
        <time>2019-08-09T13:24:53Z</time>
      </trkpt>
      <trkpt lat="48.28076" lon="7.41044">
        <ele>185.8</ele>
        <time>2019-08-09T13:24:54Z</time>
      </trkpt>
      <trkpt lat="48.28071" lon="7.41042">
        <ele>185.8</ele>
        <time>2019-08-09T13:24:55Z</time>
      </trkpt>
      <trkpt lat="48.28066" lon="7.4104">
        <ele>185.9</ele>
        <time>2019-08-09T13:24:56Z</time>
      </trkpt>
      <trkpt lat="48.28062" lon="7.41038">
        <ele>185.9</ele>
        <time>2019-08-09T13:24:57Z</time>
      </trkpt>
      <trkpt lat="48.28058" lon="7.41037">
        <ele>186</ele>
        <time>2019-08-09T13:24:58Z</time>
      </trkpt>
      <trkpt lat="48.28053" lon="7.41036">
        <ele>186</ele>
        <time>2019-08-09T13:24:59Z</time>
      </trkpt>
      <trkpt lat="48.28048" lon="7.41037">
        <ele>186.1</ele>
        <time>2019-08-09T13:25:00Z</time>
      </trkpt>
      <trkpt lat="48.28043" lon="7.41037">
        <ele>186.2</ele>
        <time>2019-08-09T13:25:01Z</time>
      </trkpt>
      <trkpt lat="48.28038" lon="7.41037">
        <ele>186.3</ele>
        <time>2019-08-09T13:25:02Z</time>
      </trkpt>
      <trkpt lat="48.28033" lon="7.41038">
        <ele>186.4</ele>
        <time>2019-08-09T13:25:03Z</time>
      </trkpt>
      <trkpt lat="48.28028" lon="7.41039">
        <ele>186.5</ele>
        <time>2019-08-09T13:25:04Z</time>
      </trkpt>
      <trkpt lat="48.28023" lon="7.41041">
        <ele>186.6</ele>
        <time>2019-08-09T13:25:05Z</time>
      </trkpt>
      <trkpt lat="48.28018" lon="7.41043">
        <ele>186.7</ele>
        <time>2019-08-09T13:25:06Z</time>
      </trkpt>
      <trkpt lat="48.28014" lon="7.41045">
        <ele>186.8</ele>
        <time>2019-08-09T13:25:07Z</time>
      </trkpt>
      <trkpt lat="48.2801" lon="7.41048">
        <ele>187</ele>
        <time>2019-08-09T13:25:08Z</time>
      </trkpt>
      <trkpt lat="48.28007" lon="7.41048">
        <ele>187</ele>
        <time>2019-08-09T13:25:09Z</time>
      </trkpt>
      <trkpt lat="48.28004" lon="7.41045">
        <ele>187</ele>
        <time>2019-08-09T13:25:10Z</time>
      </trkpt>
      <trkpt lat="48.28002" lon="7.41039">
        <ele>187</ele>
        <time>2019-08-09T13:25:11Z</time>
      </trkpt>
      <trkpt lat="48.28003" lon="7.41034">
        <ele>187</ele>
        <time>2019-08-09T13:25:12Z</time>
      </trkpt>
      <trkpt lat="48.28006" lon="7.41029">
        <ele>187.1</ele>
        <time>2019-08-09T13:25:13Z</time>
      </trkpt>
      <trkpt lat="48.2801" lon="7.41023">
        <ele>187.1</ele>
        <time>2019-08-09T13:25:14Z</time>
      </trkpt>
      <trkpt lat="48.28012" lon="7.41017">
        <ele>187.1</ele>
        <time>2019-08-09T13:25:15Z</time>
      </trkpt>
      <trkpt lat="48.28015" lon="7.4101">
        <ele>187.1</ele>
        <time>2019-08-09T13:25:16Z</time>
      </trkpt>
      <trkpt lat="48.28018" lon="7.41004">
        <ele>187.2</ele>
        <time>2019-08-09T13:25:17Z</time>
      </trkpt>
      <trkpt lat="48.2802" lon="7.40999">
        <ele>187.2</ele>
        <time>2019-08-09T13:25:18Z</time>
      </trkpt>
      <trkpt lat="48.28023" lon="7.40994">
        <ele>187.2</ele>
        <time>2019-08-09T13:25:19Z</time>
      </trkpt>
      <trkpt lat="48.28025" lon="7.40989">
        <ele>187.2</ele>
        <time>2019-08-09T13:25:20Z</time>
      </trkpt>
      <trkpt lat="48.28027" lon="7.40984">
        <ele>187.2</ele>
        <time>2019-08-09T13:25:21Z</time>
      </trkpt>
      <trkpt lat="48.28028" lon="7.40979">
        <ele>187.2</ele>
        <time>2019-08-09T13:25:22Z</time>
      </trkpt>
      <trkpt lat="48.28029" lon="7.40974">
        <ele>187.3</ele>
        <time>2019-08-09T13:25:23Z</time>
      </trkpt>
      <trkpt lat="48.28029" lon="7.40969">
        <ele>187.3</ele>
        <time>2019-08-09T13:25:24Z</time>
      </trkpt>
      <trkpt lat="48.2803" lon="7.40962">
        <ele>187.3</ele>
        <time>2019-08-09T13:25:25Z</time>
      </trkpt>
      <trkpt lat="48.28031" lon="7.40956">
        <ele>187.3</ele>
        <time>2019-08-09T13:25:26Z</time>
      </trkpt>
      <trkpt lat="48.28031" lon="7.40951">
        <ele>187.3</ele>
        <time>2019-08-09T13:25:27Z</time>
      </trkpt>
      <trkpt lat="48.28032" lon="7.40945">
        <ele>187.4</ele>
        <time>2019-08-09T13:25:28Z</time>
      </trkpt>
      <trkpt lat="48.28032" lon="7.4094">
        <ele>187.4</ele>
        <time>2019-08-09T13:25:29Z</time>
      </trkpt>
      <trkpt lat="48.28032" lon="7.40934">
        <ele>187.4</ele>
        <time>2019-08-09T13:25:30Z</time>
      </trkpt>
      <trkpt lat="48.28033" lon="7.40929">
        <ele>187.4</ele>
        <time>2019-08-09T13:25:31Z</time>
      </trkpt>
      <trkpt lat="48.28033" lon="7.40923">
        <ele>187.4</ele>
        <time>2019-08-09T13:25:32Z</time>
      </trkpt>
      <trkpt lat="48.28034" lon="7.40918">
        <ele>187.4</ele>
        <time>2019-08-09T13:25:33Z</time>
      </trkpt>
      <trkpt lat="48.28034" lon="7.40912">
        <ele>187.4</ele>
        <time>2019-08-09T13:25:34Z</time>
      </trkpt>
      <trkpt lat="48.28034" lon="7.40907">
        <ele>187.5</ele>
        <time>2019-08-09T13:25:35Z</time>
      </trkpt>
      <trkpt lat="48.28035" lon="7.409">
        <ele>187.5</ele>
        <time>2019-08-09T13:25:36Z</time>
      </trkpt>
      <trkpt lat="48.28035" lon="7.40894">
        <ele>187.5</ele>
        <time>2019-08-09T13:25:37Z</time>
      </trkpt>
      <trkpt lat="48.28035" lon="7.40887">
        <ele>187.5</ele>
        <time>2019-08-09T13:25:38Z</time>
      </trkpt>
      <trkpt lat="48.28034" lon="7.40881">
        <ele>187.6</ele>
        <time>2019-08-09T13:25:39Z</time>
      </trkpt>
      <trkpt lat="48.28034" lon="7.40875">
        <ele>187.6</ele>
        <time>2019-08-09T13:25:40Z</time>
      </trkpt>
      <trkpt lat="48.28034" lon="7.40869">
        <ele>187.7</ele>
        <time>2019-08-09T13:25:41Z</time>
      </trkpt>
      <trkpt lat="48.28034" lon="7.40863">
        <ele>187.8</ele>
        <time>2019-08-09T13:25:42Z</time>
      </trkpt>
      <trkpt lat="48.28034" lon="7.40858">
        <ele>187.8</ele>
        <time>2019-08-09T13:25:43Z</time>
      </trkpt>
      <trkpt lat="48.28034" lon="7.40852">
        <ele>187.9</ele>
        <time>2019-08-09T13:25:44Z</time>
      </trkpt>
      <trkpt lat="48.28034" lon="7.40847">
        <ele>187.9</ele>
        <time>2019-08-09T13:25:45Z</time>
      </trkpt>
      <trkpt lat="48.28035" lon="7.4084">
        <ele>188</ele>
        <time>2019-08-09T13:25:46Z</time>
      </trkpt>
      <trkpt lat="48.28035" lon="7.40834">
        <ele>188.1</ele>
        <time>2019-08-09T13:25:47Z</time>
      </trkpt>
      <trkpt lat="48.28035" lon="7.40828">
        <ele>188.1</ele>
        <time>2019-08-09T13:25:48Z</time>
      </trkpt>
      <trkpt lat="48.28034" lon="7.40823">
        <ele>188.1</ele>
        <time>2019-08-09T13:25:49Z</time>
      </trkpt>
      <trkpt lat="48.28034" lon="7.40817">
        <ele>188.1</ele>
        <time>2019-08-09T13:25:50Z</time>
      </trkpt>
      <trkpt lat="48.28034" lon="7.40811">
        <ele>188.2</ele>
        <time>2019-08-09T13:25:51Z</time>
      </trkpt>
      <trkpt lat="48.28033" lon="7.40805">
        <ele>188.2</ele>
        <time>2019-08-09T13:25:52Z</time>
      </trkpt>
      <trkpt lat="48.28032" lon="7.40799">
        <ele>188.2</ele>
        <time>2019-08-09T13:25:53Z</time>
      </trkpt>
      <trkpt lat="48.28031" lon="7.40794">
        <ele>188.2</ele>
        <time>2019-08-09T13:25:54Z</time>
      </trkpt>
      <trkpt lat="48.28031" lon="7.40789">
        <ele>188.2</ele>
        <time>2019-08-09T13:25:55Z</time>
      </trkpt>
      <trkpt lat="48.2803" lon="7.40783">
        <ele>188.2</ele>
        <time>2019-08-09T13:25:56Z</time>
      </trkpt>
      <trkpt lat="48.2803" lon="7.40777">
        <ele>188.3</ele>
        <time>2019-08-09T13:25:57Z</time>
      </trkpt>
      <trkpt lat="48.2803" lon="7.40771">
        <ele>188.3</ele>
        <time>2019-08-09T13:25:58Z</time>
      </trkpt>
      <trkpt lat="48.2803" lon="7.40765">
        <ele>188.4</ele>
        <time>2019-08-09T13:25:59Z</time>
      </trkpt>
      <trkpt lat="48.2803" lon="7.40759">
        <ele>188.4</ele>
        <time>2019-08-09T13:26:00Z</time>
      </trkpt>
      <trkpt lat="48.28031" lon="7.40753">
        <ele>188.5</ele>
        <time>2019-08-09T13:26:01Z</time>
      </trkpt>
      <trkpt lat="48.28032" lon="7.40747">
        <ele>188.5</ele>
        <time>2019-08-09T13:26:02Z</time>
      </trkpt>
      <trkpt lat="48.28032" lon="7.40741">
        <ele>188.6</ele>
        <time>2019-08-09T13:26:03Z</time>
      </trkpt>
      <trkpt lat="48.28034" lon="7.40734">
        <ele>188.7</ele>
        <time>2019-08-09T13:26:04Z</time>
      </trkpt>
      <trkpt lat="48.28036" lon="7.40728">
        <ele>188.8</ele>
        <time>2019-08-09T13:26:05Z</time>
      </trkpt>
      <trkpt lat="48.28037" lon="7.40721">
        <ele>188.9</ele>
        <time>2019-08-09T13:26:06Z</time>
      </trkpt>
      <trkpt lat="48.28038" lon="7.40715">
        <ele>188.9</ele>
        <time>2019-08-09T13:26:07Z</time>
      </trkpt>
      <trkpt lat="48.2804" lon="7.40709">
        <ele>189</ele>
        <time>2019-08-09T13:26:08Z</time>
      </trkpt>
      <trkpt lat="48.28041" lon="7.40703">
        <ele>189</ele>
        <time>2019-08-09T13:26:09Z</time>
      </trkpt>
      <trkpt lat="48.28042" lon="7.40697">
        <ele>189.1</ele>
        <time>2019-08-09T13:26:10Z</time>
      </trkpt>
      <trkpt lat="48.28043" lon="7.40691">
        <ele>189.1</ele>
        <time>2019-08-09T13:26:11Z</time>
      </trkpt>
      <trkpt lat="48.28045" lon="7.40685">
        <ele>189.2</ele>
        <time>2019-08-09T13:26:12Z</time>
      </trkpt>
      <trkpt lat="48.28046" lon="7.4068">
        <ele>189.2</ele>
        <time>2019-08-09T13:26:13Z</time>
      </trkpt>
      <trkpt lat="48.28047" lon="7.40674">
        <ele>189.2</ele>
        <time>2019-08-09T13:26:14Z</time>
      </trkpt>
      <trkpt lat="48.28049" lon="7.40669">
        <ele>189.3</ele>
        <time>2019-08-09T13:26:15Z</time>
      </trkpt>
      <trkpt lat="48.2805" lon="7.40664">
        <ele>189.3</ele>
        <time>2019-08-09T13:26:16Z</time>
      </trkpt>
      <trkpt lat="48.28052" lon="7.4066">
        <ele>189.3</ele>
        <time>2019-08-09T13:26:17Z</time>
      </trkpt>
      <trkpt lat="48.28053" lon="7.40655">
        <ele>189.3</ele>
        <time>2019-08-09T13:26:18Z</time>
      </trkpt>
      <trkpt lat="48.28054" lon="7.40651">
        <ele>189.4</ele>
        <time>2019-08-09T13:26:19Z</time>
      </trkpt>
      <trkpt lat="48.28057" lon="7.40644">
        <ele>189.4</ele>
        <time>2019-08-09T13:26:21Z</time>
      </trkpt>
      <trkpt lat="48.28059" lon="7.4064">
        <ele>189.4</ele>
        <time>2019-08-09T13:26:22Z</time>
      </trkpt>
      <trkpt lat="48.28061" lon="7.40634">
        <ele>189.4</ele>
        <time>2019-08-09T13:26:23Z</time>
      </trkpt>
      <trkpt lat="48.28062" lon="7.40629">
        <ele>189.4</ele>
        <time>2019-08-09T13:26:24Z</time>
      </trkpt>
      <trkpt lat="48.28064" lon="7.40624">
        <ele>189.5</ele>
        <time>2019-08-09T13:26:25Z</time>
      </trkpt>
      <trkpt lat="48.28065" lon="7.40619">
        <ele>189.5</ele>
        <time>2019-08-09T13:26:26Z</time>
      </trkpt>
      <trkpt lat="48.28066" lon="7.40613">
        <ele>189.5</ele>
        <time>2019-08-09T13:26:27Z</time>
      </trkpt>
      <trkpt lat="48.28067" lon="7.40608">
        <ele>189.5</ele>
        <time>2019-08-09T13:26:28Z</time>
      </trkpt>
      <trkpt lat="48.28068" lon="7.40603">
        <ele>189.6</ele>
        <time>2019-08-09T13:26:29Z</time>
      </trkpt>
      <trkpt lat="48.28069" lon="7.40598">
        <ele>189.6</ele>
        <time>2019-08-09T13:26:30Z</time>
      </trkpt>
      <trkpt lat="48.2807" lon="7.40593">
        <ele>189.6</ele>
        <time>2019-08-09T13:26:31Z</time>
      </trkpt>
      <trkpt lat="48.28072" lon="7.40587">
        <ele>189.7</ele>
        <time>2019-08-09T13:26:32Z</time>
      </trkpt>
      <trkpt lat="48.28074" lon="7.40582">
        <ele>189.7</ele>
        <time>2019-08-09T13:26:33Z</time>
      </trkpt>
      <trkpt lat="48.28076" lon="7.40577">
        <ele>189.7</ele>
        <time>2019-08-09T13:26:34Z</time>
      </trkpt>
      <trkpt lat="48.28078" lon="7.40572">
        <ele>189.7</ele>
        <time>2019-08-09T13:26:35Z</time>
      </trkpt>
      <trkpt lat="48.2808" lon="7.40566">
        <ele>189.8</ele>
        <time>2019-08-09T13:26:36Z</time>
      </trkpt>
      <trkpt lat="48.28083" lon="7.4056">
        <ele>189.8</ele>
        <time>2019-08-09T13:26:37Z</time>
      </trkpt>
      <trkpt lat="48.28085" lon="7.40554">
        <ele>189.8</ele>
        <time>2019-08-09T13:26:38Z</time>
      </trkpt>
      <trkpt lat="48.28087" lon="7.40549">
        <ele>189.8</ele>
        <time>2019-08-09T13:26:39Z</time>
      </trkpt>
      <trkpt lat="48.28088" lon="7.40544">
        <ele>189.8</ele>
        <time>2019-08-09T13:26:40Z</time>
      </trkpt>
      <trkpt lat="48.2809" lon="7.40538">
        <ele>189.7</ele>
        <time>2019-08-09T13:26:41Z</time>
      </trkpt>
      <trkpt lat="48.28093" lon="7.40532">
        <ele>189.7</ele>
        <time>2019-08-09T13:26:42Z</time>
      </trkpt>
      <trkpt lat="48.28095" lon="7.40526">
        <ele>189.7</ele>
        <time>2019-08-09T13:26:43Z</time>
      </trkpt>
      <trkpt lat="48.28096" lon="7.40521">
        <ele>189.6</ele>
        <time>2019-08-09T13:26:44Z</time>
      </trkpt>
      <trkpt lat="48.28098" lon="7.40516">
        <ele>189.5</ele>
        <time>2019-08-09T13:26:45Z</time>
      </trkpt>
      <trkpt lat="48.281" lon="7.40511">
        <ele>189.5</ele>
        <time>2019-08-09T13:26:46Z</time>
      </trkpt>
      <trkpt lat="48.28101" lon="7.40505">
        <ele>189.4</ele>
        <time>2019-08-09T13:26:47Z</time>
      </trkpt>
      <trkpt lat="48.28102" lon="7.40499">
        <ele>189.4</ele>
        <time>2019-08-09T13:26:48Z</time>
      </trkpt>
      <trkpt lat="48.28103" lon="7.40493">
        <ele>189.3</ele>
        <time>2019-08-09T13:26:49Z</time>
      </trkpt>
      <trkpt lat="48.28104" lon="7.40487">
        <ele>189.2</ele>
        <time>2019-08-09T13:26:50Z</time>
      </trkpt>
      <trkpt lat="48.28106" lon="7.4048">
        <ele>189.1</ele>
        <time>2019-08-09T13:26:51Z</time>
      </trkpt>
      <trkpt lat="48.28107" lon="7.40473">
        <ele>189.1</ele>
        <time>2019-08-09T13:26:52Z</time>
      </trkpt>
      <trkpt lat="48.28108" lon="7.40466">
        <ele>189</ele>
        <time>2019-08-09T13:26:53Z</time>
      </trkpt>
      <trkpt lat="48.28109" lon="7.40459">
        <ele>189</ele>
        <time>2019-08-09T13:26:54Z</time>
      </trkpt>
      <trkpt lat="48.2811" lon="7.40452">
        <ele>188.9</ele>
        <time>2019-08-09T13:26:55Z</time>
      </trkpt>
      <trkpt lat="48.2811" lon="7.40445">
        <ele>188.9</ele>
        <time>2019-08-09T13:26:56Z</time>
      </trkpt>
      <trkpt lat="48.2811" lon="7.40437">
        <ele>188.9</ele>
        <time>2019-08-09T13:26:57Z</time>
      </trkpt>
      <trkpt lat="48.2811" lon="7.40429">
        <ele>188.9</ele>
        <time>2019-08-09T13:26:58Z</time>
      </trkpt>
      <trkpt lat="48.2811" lon="7.40421">
        <ele>188.9</ele>
        <time>2019-08-09T13:26:59Z</time>
      </trkpt>
      <trkpt lat="48.28111" lon="7.40414">
        <ele>188.9</ele>
        <time>2019-08-09T13:27:00Z</time>
      </trkpt>
      <trkpt lat="48.28111" lon="7.40407">
        <ele>189</ele>
        <time>2019-08-09T13:27:01Z</time>
      </trkpt>
      <trkpt lat="48.28112" lon="7.404">
        <ele>189</ele>
        <time>2019-08-09T13:27:02Z</time>
      </trkpt>
      <trkpt lat="48.28113" lon="7.40393">
        <ele>189</ele>
        <time>2019-08-09T13:27:03Z</time>
      </trkpt>
      <trkpt lat="48.28114" lon="7.40386">
        <ele>189</ele>
        <time>2019-08-09T13:27:04Z</time>
      </trkpt>
      <trkpt lat="48.28115" lon="7.40379">
        <ele>189.1</ele>
        <time>2019-08-09T13:27:05Z</time>
      </trkpt>
      <trkpt lat="48.28116" lon="7.40371">
        <ele>189.1</ele>
        <time>2019-08-09T13:27:06Z</time>
      </trkpt>
      <trkpt lat="48.28119" lon="7.40365">
        <ele>189.2</ele>
        <time>2019-08-09T13:27:07Z</time>
      </trkpt>
      <trkpt lat="48.2812" lon="7.40359">
        <ele>189.3</ele>
        <time>2019-08-09T13:27:08Z</time>
      </trkpt>
      <trkpt lat="48.28122" lon="7.40354">
        <ele>189.3</ele>
        <time>2019-08-09T13:27:09Z</time>
      </trkpt>
      <trkpt lat="48.28125" lon="7.40348">
        <ele>189.4</ele>
        <time>2019-08-09T13:27:10Z</time>
      </trkpt>
      <trkpt lat="48.28127" lon="7.40343">
        <ele>189.4</ele>
        <time>2019-08-09T13:27:11Z</time>
      </trkpt>
      <trkpt lat="48.2813" lon="7.40339">
        <ele>189.5</ele>
        <time>2019-08-09T13:27:12Z</time>
      </trkpt>
      <trkpt lat="48.28132" lon="7.40334">
        <ele>189.5</ele>
        <time>2019-08-09T13:27:13Z</time>
      </trkpt>
      <trkpt lat="48.28134" lon="7.4033">
        <ele>189.6</ele>
        <time>2019-08-09T13:27:14Z</time>
      </trkpt>
      <trkpt lat="48.28136" lon="7.40325">
        <ele>189.6</ele>
        <time>2019-08-09T13:27:15Z</time>
      </trkpt>
      <trkpt lat="48.28138" lon="7.4032">
        <ele>189.7</ele>
        <time>2019-08-09T13:27:16Z</time>
      </trkpt>
      <trkpt lat="48.28141" lon="7.40314">
        <ele>189.8</ele>
        <time>2019-08-09T13:27:17Z</time>
      </trkpt>
      <trkpt lat="48.28143" lon="7.40309">
        <ele>189.9</ele>
        <time>2019-08-09T13:27:18Z</time>
      </trkpt>
      <trkpt lat="48.28145" lon="7.40302">
        <ele>190</ele>
        <time>2019-08-09T13:27:19Z</time>
      </trkpt>
      <trkpt lat="48.28147" lon="7.40296">
        <ele>190.1</ele>
        <time>2019-08-09T13:27:20Z</time>
      </trkpt>
      <trkpt lat="48.28149" lon="7.40289">
        <ele>190.2</ele>
        <time>2019-08-09T13:27:21Z</time>
      </trkpt>
      <trkpt lat="48.28151" lon="7.40283">
        <ele>190.4</ele>
        <time>2019-08-09T13:27:22Z</time>
      </trkpt>
      <trkpt lat="48.28152" lon="7.40276">
        <ele>190.5</ele>
        <time>2019-08-09T13:27:23Z</time>
      </trkpt>
      <trkpt lat="48.28154" lon="7.40271">
        <ele>190.6</ele>
        <time>2019-08-09T13:27:24Z</time>
      </trkpt>
      <trkpt lat="48.28156" lon="7.40265">
        <ele>190.7</ele>
        <time>2019-08-09T13:27:25Z</time>
      </trkpt>
      <trkpt lat="48.28158" lon="7.4026">
        <ele>190.8</ele>
        <time>2019-08-09T13:27:26Z</time>
      </trkpt>
      <trkpt lat="48.28159" lon="7.40256">
        <ele>190.9</ele>
        <time>2019-08-09T13:27:27Z</time>
      </trkpt>
      <trkpt lat="48.28161" lon="7.40249">
        <ele>191</ele>
        <time>2019-08-09T13:27:29Z</time>
      </trkpt>
      <trkpt lat="48.28163" lon="7.40244">
        <ele>191.1</ele>
        <time>2019-08-09T13:27:31Z</time>
      </trkpt>
      <trkpt lat="48.28165" lon="7.40241">
        <ele>191.2</ele>
        <time>2019-08-09T13:27:33Z</time>
      </trkpt>
      <trkpt lat="48.28163" lon="7.40236">
        <ele>191.2</ele>
        <time>2019-08-09T13:27:47Z</time>
      </trkpt>
      <trkpt lat="48.28161" lon="7.40231">
        <ele>191.3</ele>
        <time>2019-08-09T13:27:49Z</time>
      </trkpt>
      <trkpt lat="48.28158" lon="7.40231">
        <ele>191.4</ele>
        <time>2019-08-09T13:27:50Z</time>
      </trkpt>
      <trkpt lat="48.28155" lon="7.40231">
        <ele>191.4</ele>
        <time>2019-08-09T13:27:51Z</time>
      </trkpt>
      <trkpt lat="48.28152" lon="7.40229">
        <ele>191.4</ele>
        <time>2019-08-09T13:27:52Z</time>
      </trkpt>
      <trkpt lat="48.28148" lon="7.40228">
        <ele>191.4</ele>
        <time>2019-08-09T13:27:53Z</time>
      </trkpt>
      <trkpt lat="48.28144" lon="7.40227">
        <ele>191.4</ele>
        <time>2019-08-09T13:27:54Z</time>
      </trkpt>
      <trkpt lat="48.28141" lon="7.40225">
        <ele>191.4</ele>
        <time>2019-08-09T13:27:55Z</time>
      </trkpt>
      <trkpt lat="48.28136" lon="7.40224">
        <ele>191.4</ele>
        <time>2019-08-09T13:27:56Z</time>
      </trkpt>
      <trkpt lat="48.28132" lon="7.40224">
        <ele>191.4</ele>
        <time>2019-08-09T13:27:57Z</time>
      </trkpt>
      <trkpt lat="48.28127" lon="7.40224">
        <ele>191.4</ele>
        <time>2019-08-09T13:27:58Z</time>
      </trkpt>
      <trkpt lat="48.28123" lon="7.40225">
        <ele>191.4</ele>
        <time>2019-08-09T13:27:59Z</time>
      </trkpt>
      <trkpt lat="48.28119" lon="7.40225">
        <ele>191.4</ele>
        <time>2019-08-09T13:28:00Z</time>
      </trkpt>
      <trkpt lat="48.28115" lon="7.40224">
        <ele>191.4</ele>
        <time>2019-08-09T13:28:01Z</time>
      </trkpt>
      <trkpt lat="48.28111" lon="7.40222">
        <ele>191.4</ele>
        <time>2019-08-09T13:28:02Z</time>
      </trkpt>
      <trkpt lat="48.28106" lon="7.40221">
        <ele>191.4</ele>
        <time>2019-08-09T13:28:03Z</time>
      </trkpt>
      <trkpt lat="48.28102" lon="7.40221">
        <ele>191.4</ele>
        <time>2019-08-09T13:28:04Z</time>
      </trkpt>
      <trkpt lat="48.28097" lon="7.40221">
        <ele>191.3</ele>
        <time>2019-08-09T13:28:05Z</time>
      </trkpt>
      <trkpt lat="48.28093" lon="7.40221">
        <ele>191.3</ele>
        <time>2019-08-09T13:28:06Z</time>
      </trkpt>
      <trkpt lat="48.28089" lon="7.4022">
        <ele>191.3</ele>
        <time>2019-08-09T13:28:07Z</time>
      </trkpt>
      <trkpt lat="48.28083" lon="7.40219">
        <ele>191.2</ele>
        <time>2019-08-09T13:28:08Z</time>
      </trkpt>
      <trkpt lat="48.28078" lon="7.40217">
        <ele>191.2</ele>
        <time>2019-08-09T13:28:09Z</time>
      </trkpt>
      <trkpt lat="48.28074" lon="7.40218">
        <ele>191.2</ele>
        <time>2019-08-09T13:28:10Z</time>
      </trkpt>
      <trkpt lat="48.28069" lon="7.40217">
        <ele>191.1</ele>
        <time>2019-08-09T13:28:11Z</time>
      </trkpt>
      <trkpt lat="48.28064" lon="7.40216">
        <ele>191.1</ele>
        <time>2019-08-09T13:28:12Z</time>
      </trkpt>
      <trkpt lat="48.28059" lon="7.40215">
        <ele>191.1</ele>
        <time>2019-08-09T13:28:13Z</time>
      </trkpt>
      <trkpt lat="48.28054" lon="7.40215">
        <ele>191</ele>
        <time>2019-08-09T13:28:14Z</time>
      </trkpt>
      <trkpt lat="48.28049" lon="7.40215">
        <ele>191</ele>
        <time>2019-08-09T13:28:15Z</time>
      </trkpt>
      <trkpt lat="48.28044" lon="7.40214">
        <ele>191</ele>
        <time>2019-08-09T13:28:16Z</time>
      </trkpt>
      <trkpt lat="48.2804" lon="7.40214">
        <ele>190.9</ele>
        <time>2019-08-09T13:28:17Z</time>
      </trkpt>
      <trkpt lat="48.28035" lon="7.40214">
        <ele>190.9</ele>
        <time>2019-08-09T13:28:18Z</time>
      </trkpt>
      <trkpt lat="48.2803" lon="7.40212">
        <ele>190.9</ele>
        <time>2019-08-09T13:28:19Z</time>
      </trkpt>
      <trkpt lat="48.28025" lon="7.40211">
        <ele>190.8</ele>
        <time>2019-08-09T13:28:20Z</time>
      </trkpt>
      <trkpt lat="48.2802" lon="7.40211">
        <ele>190.8</ele>
        <time>2019-08-09T13:28:21Z</time>
      </trkpt>
      <trkpt lat="48.28015" lon="7.4021">
        <ele>190.7</ele>
        <time>2019-08-09T13:28:22Z</time>
      </trkpt>
      <trkpt lat="48.2801" lon="7.40209">
        <ele>190.7</ele>
        <time>2019-08-09T13:28:23Z</time>
      </trkpt>
      <trkpt lat="48.28005" lon="7.40208">
        <ele>190.7</ele>
        <time>2019-08-09T13:28:24Z</time>
      </trkpt>
      <trkpt lat="48.28" lon="7.40207">
        <ele>190.6</ele>
        <time>2019-08-09T13:28:25Z</time>
      </trkpt>
      <trkpt lat="48.27996" lon="7.40206">
        <ele>190.6</ele>
        <time>2019-08-09T13:28:26Z</time>
      </trkpt>
      <trkpt lat="48.27991" lon="7.40206">
        <ele>190.6</ele>
        <time>2019-08-09T13:28:27Z</time>
      </trkpt>
      <trkpt lat="48.27987" lon="7.40206">
        <ele>190.6</ele>
        <time>2019-08-09T13:28:28Z</time>
      </trkpt>
      <trkpt lat="48.27983" lon="7.40206">
        <ele>190.5</ele>
        <time>2019-08-09T13:28:29Z</time>
      </trkpt>
      <trkpt lat="48.27977" lon="7.40206">
        <ele>190.5</ele>
        <time>2019-08-09T13:28:30Z</time>
      </trkpt>
      <trkpt lat="48.27972" lon="7.40205">
        <ele>190.5</ele>
        <time>2019-08-09T13:28:31Z</time>
      </trkpt>
      <trkpt lat="48.27967" lon="7.40205">
        <ele>190.5</ele>
        <time>2019-08-09T13:28:32Z</time>
      </trkpt>
      <trkpt lat="48.27961" lon="7.40205">
        <ele>190.5</ele>
        <time>2019-08-09T13:28:33Z</time>
      </trkpt>
      <trkpt lat="48.27956" lon="7.40205">
        <ele>190.4</ele>
        <time>2019-08-09T13:28:34Z</time>
      </trkpt>
      <trkpt lat="48.2795" lon="7.40204">
        <ele>190.4</ele>
        <time>2019-08-09T13:28:35Z</time>
      </trkpt>
      <trkpt lat="48.27945" lon="7.40204">
        <ele>190.6</ele>
        <time>2019-08-09T13:28:36Z</time>
      </trkpt>
      <trkpt lat="48.27939" lon="7.40204">
        <ele>190.8</ele>
        <time>2019-08-09T13:28:37Z</time>
      </trkpt>
      <trkpt lat="48.27934" lon="7.40204">
        <ele>191</ele>
        <time>2019-08-09T13:28:38Z</time>
      </trkpt>
      <trkpt lat="48.27928" lon="7.40204">
        <ele>191.2</ele>
        <time>2019-08-09T13:28:39Z</time>
      </trkpt>
      <trkpt lat="48.27923" lon="7.40204">
        <ele>191.2</ele>
        <time>2019-08-09T13:28:40Z</time>
      </trkpt>
      <trkpt lat="48.27918" lon="7.40203">
        <ele>191.2</ele>
        <time>2019-08-09T13:28:41Z</time>
      </trkpt>
      <trkpt lat="48.27913" lon="7.40203">
        <ele>191.2</ele>
        <time>2019-08-09T13:28:42Z</time>
      </trkpt>
      <trkpt lat="48.27908" lon="7.40202">
        <ele>191.2</ele>
        <time>2019-08-09T13:28:43Z</time>
      </trkpt>
      <trkpt lat="48.27902" lon="7.40202">
        <ele>191.2</ele>
        <time>2019-08-09T13:28:44Z</time>
      </trkpt>
      <trkpt lat="48.27896" lon="7.40202">
        <ele>191.2</ele>
        <time>2019-08-09T13:28:45Z</time>
      </trkpt>
      <trkpt lat="48.27891" lon="7.40201">
        <ele>191.1</ele>
        <time>2019-08-09T13:28:46Z</time>
      </trkpt>
      <trkpt lat="48.27886" lon="7.40201">
        <ele>191.1</ele>
        <time>2019-08-09T13:28:47Z</time>
      </trkpt>
      <trkpt lat="48.2788" lon="7.40201">
        <ele>191</ele>
        <time>2019-08-09T13:28:48Z</time>
      </trkpt>
      <trkpt lat="48.27875" lon="7.402">
        <ele>191</ele>
        <time>2019-08-09T13:28:49Z</time>
      </trkpt>
      <trkpt lat="48.2787" lon="7.40199">
        <ele>191</ele>
        <time>2019-08-09T13:28:50Z</time>
      </trkpt>
      <trkpt lat="48.27865" lon="7.40198">
        <ele>191</ele>
        <time>2019-08-09T13:28:51Z</time>
      </trkpt>
      <trkpt lat="48.27861" lon="7.40197">
        <ele>190.9</ele>
        <time>2019-08-09T13:28:52Z</time>
      </trkpt>
      <trkpt lat="48.27856" lon="7.40195">
        <ele>190.9</ele>
        <time>2019-08-09T13:28:53Z</time>
      </trkpt>
      <trkpt lat="48.27851" lon="7.40193">
        <ele>190.9</ele>
        <time>2019-08-09T13:28:54Z</time>
      </trkpt>
      <trkpt lat="48.27846" lon="7.40191">
        <ele>190.9</ele>
        <time>2019-08-09T13:28:55Z</time>
      </trkpt>
      <trkpt lat="48.27841" lon="7.40189">
        <ele>190.9</ele>
        <time>2019-08-09T13:28:56Z</time>
      </trkpt>
      <trkpt lat="48.27835" lon="7.40187">
        <ele>190.9</ele>
        <time>2019-08-09T13:28:57Z</time>
      </trkpt>
      <trkpt lat="48.27829" lon="7.40187">
        <ele>191</ele>
        <time>2019-08-09T13:28:58Z</time>
      </trkpt>
      <trkpt lat="48.27824" lon="7.40186">
        <ele>191</ele>
        <time>2019-08-09T13:28:59Z</time>
      </trkpt>
      <trkpt lat="48.27818" lon="7.40183">
        <ele>191</ele>
        <time>2019-08-09T13:29:00Z</time>
      </trkpt>
      <trkpt lat="48.27812" lon="7.40181">
        <ele>191</ele>
        <time>2019-08-09T13:29:01Z</time>
      </trkpt>
      <trkpt lat="48.27807" lon="7.4018">
        <ele>191</ele>
        <time>2019-08-09T13:29:02Z</time>
      </trkpt>
      <trkpt lat="48.27802" lon="7.40179">
        <ele>191</ele>
        <time>2019-08-09T13:29:03Z</time>
      </trkpt>
      <trkpt lat="48.27798" lon="7.40178">
        <ele>191</ele>
        <time>2019-08-09T13:29:04Z</time>
      </trkpt>
      <trkpt lat="48.27793" lon="7.40176">
        <ele>191</ele>
        <time>2019-08-09T13:29:05Z</time>
      </trkpt>
      <trkpt lat="48.27788" lon="7.40174">
        <ele>191</ele>
        <time>2019-08-09T13:29:06Z</time>
      </trkpt>
      <trkpt lat="48.27784" lon="7.40173">
        <ele>191</ele>
        <time>2019-08-09T13:29:07Z</time>
      </trkpt>
      <trkpt lat="48.27779" lon="7.40172">
        <ele>191</ele>
        <time>2019-08-09T13:29:08Z</time>
      </trkpt>
      <trkpt lat="48.27775" lon="7.40171">
        <ele>191</ele>
        <time>2019-08-09T13:29:09Z</time>
      </trkpt>
      <trkpt lat="48.27772" lon="7.40169">
        <ele>191</ele>
        <time>2019-08-09T13:29:10Z</time>
      </trkpt>
      <trkpt lat="48.27767" lon="7.40167">
        <ele>191</ele>
        <time>2019-08-09T13:29:11Z</time>
      </trkpt>
      <trkpt lat="48.27763" lon="7.40165">
        <ele>191</ele>
        <time>2019-08-09T13:29:12Z</time>
      </trkpt>
      <trkpt lat="48.27758" lon="7.40163">
        <ele>191</ele>
        <time>2019-08-09T13:29:13Z</time>
      </trkpt>
      <trkpt lat="48.27753" lon="7.4016">
        <ele>191.1</ele>
        <time>2019-08-09T13:29:14Z</time>
      </trkpt>
      <trkpt lat="48.27748" lon="7.40158">
        <ele>191.1</ele>
        <time>2019-08-09T13:29:15Z</time>
      </trkpt>
      <trkpt lat="48.27744" lon="7.40155">
        <ele>191.2</ele>
        <time>2019-08-09T13:29:16Z</time>
      </trkpt>
      <trkpt lat="48.2774" lon="7.40152">
        <ele>191.2</ele>
        <time>2019-08-09T13:29:17Z</time>
      </trkpt>
      <trkpt lat="48.27736" lon="7.40148">
        <ele>191.3</ele>
        <time>2019-08-09T13:29:18Z</time>
      </trkpt>
      <trkpt lat="48.27731" lon="7.40145">
        <ele>191.3</ele>
        <time>2019-08-09T13:29:19Z</time>
      </trkpt>
      <trkpt lat="48.27727" lon="7.40141">
        <ele>191.3</ele>
        <time>2019-08-09T13:29:20Z</time>
      </trkpt>
      <trkpt lat="48.27722" lon="7.40138">
        <ele>191.3</ele>
        <time>2019-08-09T13:29:21Z</time>
      </trkpt>
      <trkpt lat="48.27718" lon="7.40136">
        <ele>191.3</ele>
        <time>2019-08-09T13:29:22Z</time>
      </trkpt>
      <trkpt lat="48.27714" lon="7.40135">
        <ele>191.3</ele>
        <time>2019-08-09T13:29:23Z</time>
      </trkpt>
      <trkpt lat="48.2771" lon="7.40132">
        <ele>191.3</ele>
        <time>2019-08-09T13:29:24Z</time>
      </trkpt>
      <trkpt lat="48.27706" lon="7.40127">
        <ele>191.3</ele>
        <time>2019-08-09T13:29:25Z</time>
      </trkpt>
      <trkpt lat="48.27702" lon="7.40124">
        <ele>191.2</ele>
        <time>2019-08-09T13:29:26Z</time>
      </trkpt>
      <trkpt lat="48.27698" lon="7.40121">
        <ele>191.2</ele>
        <time>2019-08-09T13:29:27Z</time>
      </trkpt>
      <trkpt lat="48.27694" lon="7.40118">
        <ele>191.1</ele>
        <time>2019-08-09T13:29:28Z</time>
      </trkpt>
      <trkpt lat="48.27689" lon="7.40117">
        <ele>191</ele>
        <time>2019-08-09T13:29:29Z</time>
      </trkpt>
      <trkpt lat="48.27686" lon="7.40115">
        <ele>190.9</ele>
        <time>2019-08-09T13:29:30Z</time>
      </trkpt>
      <trkpt lat="48.27682" lon="7.40113">
        <ele>190.9</ele>
        <time>2019-08-09T13:29:31Z</time>
      </trkpt>
      <trkpt lat="48.27679" lon="7.4011">
        <ele>190.9</ele>
        <time>2019-08-09T13:29:32Z</time>
      </trkpt>
      <trkpt lat="48.27676" lon="7.40109">
        <ele>190.9</ele>
        <time>2019-08-09T13:29:33Z</time>
      </trkpt>
      <trkpt lat="48.27672" lon="7.40107">
        <ele>190.9</ele>
        <time>2019-08-09T13:29:34Z</time>
      </trkpt>
      <trkpt lat="48.27669" lon="7.40104">
        <ele>190.9</ele>
        <time>2019-08-09T13:29:35Z</time>
      </trkpt>
      <trkpt lat="48.27666" lon="7.40102">
        <ele>190.9</ele>
        <time>2019-08-09T13:29:36Z</time>
      </trkpt>
      <trkpt lat="48.27663" lon="7.40101">
        <ele>190.9</ele>
        <time>2019-08-09T13:29:37Z</time>
      </trkpt>
      <trkpt lat="48.27661" lon="7.40099">
        <ele>190.9</ele>
        <time>2019-08-09T13:29:38Z</time>
      </trkpt>
      <trkpt lat="48.27658" lon="7.40096">
        <ele>191</ele>
        <time>2019-08-09T13:29:39Z</time>
      </trkpt>
      <trkpt lat="48.27656" lon="7.40091">
        <ele>191</ele>
        <time>2019-08-09T13:29:41Z</time>
      </trkpt>
      <trkpt lat="48.27653" lon="7.40088">
        <ele>191</ele>
        <time>2019-08-09T13:29:45Z</time>
      </trkpt>
      <trkpt lat="48.2765" lon="7.40085">
        <ele>191.1</ele>
        <time>2019-08-09T13:29:48Z</time>
      </trkpt>
      <trkpt lat="48.27647" lon="7.40084">
        <ele>191.2</ele>
        <time>2019-08-09T13:29:55Z</time>
      </trkpt>
      <trkpt lat="48.27646" lon="7.40079">
        <ele>191.2</ele>
        <time>2019-08-09T13:29:57Z</time>
      </trkpt>
      <trkpt lat="48.27644" lon="7.40076">
        <ele>191.2</ele>
        <time>2019-08-09T13:29:58Z</time>
      </trkpt>
      <trkpt lat="48.27643" lon="7.40072">
        <ele>191.3</ele>
        <time>2019-08-09T13:29:59Z</time>
      </trkpt>
      <trkpt lat="48.27641" lon="7.40068">
        <ele>191.3</ele>
        <time>2019-08-09T13:30:00Z</time>
      </trkpt>
      <trkpt lat="48.27638" lon="7.40066">
        <ele>191.4</ele>
        <time>2019-08-09T13:30:01Z</time>
      </trkpt>
      <trkpt lat="48.27635" lon="7.40063">
        <ele>191.4</ele>
        <time>2019-08-09T13:30:02Z</time>
      </trkpt>
      <trkpt lat="48.27632" lon="7.40062">
        <ele>191.4</ele>
        <time>2019-08-09T13:30:03Z</time>
      </trkpt>
      <trkpt lat="48.27627" lon="7.40062">
        <ele>191.1</ele>
        <time>2019-08-09T13:30:04Z</time>
      </trkpt>
      <trkpt lat="48.27623" lon="7.40062">
        <ele>191.1</ele>
        <time>2019-08-09T13:30:05Z</time>
      </trkpt>
      <trkpt lat="48.27619" lon="7.40061">
        <ele>191</ele>
        <time>2019-08-09T13:30:06Z</time>
      </trkpt>
      <trkpt lat="48.27615" lon="7.4006">
        <ele>191</ele>
        <time>2019-08-09T13:30:07Z</time>
      </trkpt>
      <trkpt lat="48.27611" lon="7.40056">
        <ele>191</ele>
        <time>2019-08-09T13:30:08Z</time>
      </trkpt>
      <trkpt lat="48.27606" lon="7.40054">
        <ele>190.9</ele>
        <time>2019-08-09T13:30:09Z</time>
      </trkpt>
      <trkpt lat="48.27602" lon="7.40051">
        <ele>190.9</ele>
        <time>2019-08-09T13:30:10Z</time>
      </trkpt>
      <trkpt lat="48.27597" lon="7.40048">
        <ele>190.9</ele>
        <time>2019-08-09T13:30:11Z</time>
      </trkpt>
      <trkpt lat="48.27593" lon="7.40043">
        <ele>190.6</ele>
        <time>2019-08-09T13:30:12Z</time>
      </trkpt>
      <trkpt lat="48.2759" lon="7.4004">
        <ele>190.5</ele>
        <time>2019-08-09T13:30:13Z</time>
      </trkpt>
      <trkpt lat="48.27586" lon="7.40037">
        <ele>190.3</ele>
        <time>2019-08-09T13:30:14Z</time>
      </trkpt>
      <trkpt lat="48.27582" lon="7.40034">
        <ele>190.2</ele>
        <time>2019-08-09T13:30:15Z</time>
      </trkpt>
      <trkpt lat="48.27579" lon="7.4003">
        <ele>190.2</ele>
        <time>2019-08-09T13:30:16Z</time>
      </trkpt>
      <trkpt lat="48.27576" lon="7.40027">
        <ele>190.1</ele>
        <time>2019-08-09T13:30:17Z</time>
      </trkpt>
      <trkpt lat="48.27572" lon="7.40024">
        <ele>190.1</ele>
        <time>2019-08-09T13:30:18Z</time>
      </trkpt>
      <trkpt lat="48.27568" lon="7.40022">
        <ele>190.1</ele>
        <time>2019-08-09T13:30:19Z</time>
      </trkpt>
      <trkpt lat="48.27565" lon="7.40019">
        <ele>190</ele>
        <time>2019-08-09T13:30:20Z</time>
      </trkpt>
      <trkpt lat="48.27561" lon="7.40015">
        <ele>189.9</ele>
        <time>2019-08-09T13:30:21Z</time>
      </trkpt>
      <trkpt lat="48.27557" lon="7.4001">
        <ele>189.8</ele>
        <time>2019-08-09T13:30:22Z</time>
      </trkpt>
      <trkpt lat="48.27554" lon="7.40006">
        <ele>189.7</ele>
        <time>2019-08-09T13:30:23Z</time>
      </trkpt>
      <trkpt lat="48.2755" lon="7.40002">
        <ele>189.6</ele>
        <time>2019-08-09T13:30:24Z</time>
      </trkpt>
      <trkpt lat="48.27547" lon="7.39998">
        <ele>189.5</ele>
        <time>2019-08-09T13:30:25Z</time>
      </trkpt>
      <trkpt lat="48.27543" lon="7.39994">
        <ele>189.4</ele>
        <time>2019-08-09T13:30:26Z</time>
      </trkpt>
      <trkpt lat="48.27539" lon="7.39991">
        <ele>189.3</ele>
        <time>2019-08-09T13:30:27Z</time>
      </trkpt>
      <trkpt lat="48.27535" lon="7.39987">
        <ele>189.3</ele>
        <time>2019-08-09T13:30:28Z</time>
      </trkpt>
      <trkpt lat="48.27531" lon="7.39983">
        <ele>189.3</ele>
        <time>2019-08-09T13:30:29Z</time>
      </trkpt>
      <trkpt lat="48.27527" lon="7.3998">
        <ele>189.4</ele>
        <time>2019-08-09T13:30:30Z</time>
      </trkpt>
      <trkpt lat="48.27524" lon="7.39977">
        <ele>189.4</ele>
        <time>2019-08-09T13:30:31Z</time>
      </trkpt>
      <trkpt lat="48.27521" lon="7.39975">
        <ele>189.5</ele>
        <time>2019-08-09T13:30:32Z</time>
      </trkpt>
      <trkpt lat="48.27519" lon="7.39972">
        <ele>189.5</ele>
        <time>2019-08-09T13:30:33Z</time>
      </trkpt>
      <trkpt lat="48.27516" lon="7.3997">
        <ele>189.5</ele>
        <time>2019-08-09T13:30:34Z</time>
      </trkpt>
      <trkpt lat="48.27513" lon="7.39967">
        <ele>189.6</ele>
        <time>2019-08-09T13:30:35Z</time>
      </trkpt>
      <trkpt lat="48.2751" lon="7.39965">
        <ele>189.6</ele>
        <time>2019-08-09T13:30:36Z</time>
      </trkpt>
      <trkpt lat="48.27507" lon="7.39962">
        <ele>189.6</ele>
        <time>2019-08-09T13:30:37Z</time>
      </trkpt>
      <trkpt lat="48.27503" lon="7.39959">
        <ele>189.7</ele>
        <time>2019-08-09T13:30:38Z</time>
      </trkpt>
      <trkpt lat="48.27498" lon="7.39957">
        <ele>189.7</ele>
        <time>2019-08-09T13:30:39Z</time>
      </trkpt>
      <trkpt lat="48.27493" lon="7.39957">
        <ele>189.7</ele>
        <time>2019-08-09T13:30:40Z</time>
      </trkpt>
      <trkpt lat="48.27488" lon="7.39956">
        <ele>189.8</ele>
        <time>2019-08-09T13:30:41Z</time>
      </trkpt>
      <trkpt lat="48.27483" lon="7.39956">
        <ele>189.8</ele>
        <time>2019-08-09T13:30:42Z</time>
      </trkpt>
      <trkpt lat="48.27479" lon="7.39956">
        <ele>189.9</ele>
        <time>2019-08-09T13:30:43Z</time>
      </trkpt>
      <trkpt lat="48.27476" lon="7.39954">
        <ele>189.9</ele>
        <time>2019-08-09T13:30:44Z</time>
      </trkpt>
      <trkpt lat="48.27471" lon="7.39954">
        <ele>189.9</ele>
        <time>2019-08-09T13:30:45Z</time>
      </trkpt>
      <trkpt lat="48.27467" lon="7.39953">
        <ele>189.8</ele>
        <time>2019-08-09T13:30:46Z</time>
      </trkpt>
      <trkpt lat="48.27463" lon="7.39952">
        <ele>189.8</ele>
        <time>2019-08-09T13:30:47Z</time>
      </trkpt>
      <trkpt lat="48.27459" lon="7.39951">
        <ele>189.7</ele>
        <time>2019-08-09T13:30:48Z</time>
      </trkpt>
      <trkpt lat="48.27454" lon="7.3995">
        <ele>190</ele>
        <time>2019-08-09T13:30:49Z</time>
      </trkpt>
      <trkpt lat="48.2745" lon="7.39949">
        <ele>190.2</ele>
        <time>2019-08-09T13:30:50Z</time>
      </trkpt>
      <trkpt lat="48.27446" lon="7.39948">
        <ele>190.4</ele>
        <time>2019-08-09T13:30:51Z</time>
      </trkpt>
      <trkpt lat="48.27442" lon="7.39946">
        <ele>190.6</ele>
        <time>2019-08-09T13:30:52Z</time>
      </trkpt>
      <trkpt lat="48.27437" lon="7.39946">
        <ele>190.7</ele>
        <time>2019-08-09T13:30:53Z</time>
      </trkpt>
      <trkpt lat="48.27432" lon="7.39945">
        <ele>190.9</ele>
        <time>2019-08-09T13:30:54Z</time>
      </trkpt>
      <trkpt lat="48.27427" lon="7.39943">
        <ele>191</ele>
        <time>2019-08-09T13:30:55Z</time>
      </trkpt>
      <trkpt lat="48.27422" lon="7.39941">
        <ele>191.1</ele>
        <time>2019-08-09T13:30:56Z</time>
      </trkpt>
      <trkpt lat="48.27417" lon="7.3994">
        <ele>191.2</ele>
        <time>2019-08-09T13:30:57Z</time>
      </trkpt>
      <trkpt lat="48.27414" lon="7.39939">
        <ele>191.2</ele>
        <time>2019-08-09T13:30:58Z</time>
      </trkpt>
      <trkpt lat="48.2741" lon="7.39938">
        <ele>191.3</ele>
        <time>2019-08-09T13:30:59Z</time>
      </trkpt>
      <trkpt lat="48.27407" lon="7.39937">
        <ele>191.3</ele>
        <time>2019-08-09T13:31:00Z</time>
      </trkpt>
      <trkpt lat="48.27403" lon="7.39936">
        <ele>191.4</ele>
        <time>2019-08-09T13:31:01Z</time>
      </trkpt>
      <trkpt lat="48.27399" lon="7.39935">
        <ele>191.4</ele>
        <time>2019-08-09T13:31:02Z</time>
      </trkpt>
      <trkpt lat="48.27395" lon="7.39934">
        <ele>191.5</ele>
        <time>2019-08-09T13:31:03Z</time>
      </trkpt>
      <trkpt lat="48.27391" lon="7.39933">
        <ele>191.5</ele>
        <time>2019-08-09T13:31:04Z</time>
      </trkpt>
      <trkpt lat="48.27387" lon="7.39932">
        <ele>191.5</ele>
        <time>2019-08-09T13:31:05Z</time>
      </trkpt>
      <trkpt lat="48.27383" lon="7.3993">
        <ele>191.6</ele>
        <time>2019-08-09T13:31:06Z</time>
      </trkpt>
      <trkpt lat="48.27378" lon="7.39927">
        <ele>191.6</ele>
        <time>2019-08-09T13:31:07Z</time>
      </trkpt>
      <trkpt lat="48.27374" lon="7.39925">
        <ele>191.6</ele>
        <time>2019-08-09T13:31:08Z</time>
      </trkpt>
      <trkpt lat="48.27369" lon="7.39923">
        <ele>191.6</ele>
        <time>2019-08-09T13:31:09Z</time>
      </trkpt>
      <trkpt lat="48.27365" lon="7.3992">
        <ele>191.6</ele>
        <time>2019-08-09T13:31:10Z</time>
      </trkpt>
      <trkpt lat="48.2736" lon="7.39918">
        <ele>191.6</ele>
        <time>2019-08-09T13:31:11Z</time>
      </trkpt>
      <trkpt lat="48.27356" lon="7.39917">
        <ele>191.6</ele>
        <time>2019-08-09T13:31:12Z</time>
      </trkpt>
      <trkpt lat="48.27351" lon="7.39915">
        <ele>191.6</ele>
        <time>2019-08-09T13:31:13Z</time>
      </trkpt>
      <trkpt lat="48.27346" lon="7.39913">
        <ele>191.6</ele>
        <time>2019-08-09T13:31:14Z</time>
      </trkpt>
      <trkpt lat="48.27341" lon="7.39911">
        <ele>191.6</ele>
        <time>2019-08-09T13:31:15Z</time>
      </trkpt>
      <trkpt lat="48.27335" lon="7.3991">
        <ele>191.6</ele>
        <time>2019-08-09T13:31:16Z</time>
      </trkpt>
      <trkpt lat="48.27331" lon="7.39909">
        <ele>191.6</ele>
        <time>2019-08-09T13:31:17Z</time>
      </trkpt>
      <trkpt lat="48.27327" lon="7.39908">
        <ele>191.6</ele>
        <time>2019-08-09T13:31:18Z</time>
      </trkpt>
      <trkpt lat="48.27323" lon="7.39907">
        <ele>191.6</ele>
        <time>2019-08-09T13:31:19Z</time>
      </trkpt>
      <trkpt lat="48.27319" lon="7.39906">
        <ele>191.6</ele>
        <time>2019-08-09T13:31:20Z</time>
      </trkpt>
      <trkpt lat="48.27316" lon="7.39904">
        <ele>191.6</ele>
        <time>2019-08-09T13:31:21Z</time>
      </trkpt>
      <trkpt lat="48.27313" lon="7.39904">
        <ele>191.6</ele>
        <time>2019-08-09T13:31:22Z</time>
      </trkpt>
      <trkpt lat="48.2731" lon="7.39903">
        <ele>191.6</ele>
        <time>2019-08-09T13:31:23Z</time>
      </trkpt>
      <trkpt lat="48.27307" lon="7.39903">
        <ele>191.6</ele>
        <time>2019-08-09T13:31:24Z</time>
      </trkpt>
      <trkpt lat="48.27304" lon="7.399">
        <ele>191.6</ele>
        <time>2019-08-09T13:31:25Z</time>
      </trkpt>
      <trkpt lat="48.273" lon="7.399">
        <ele>191.6</ele>
        <time>2019-08-09T13:31:26Z</time>
      </trkpt>
      <trkpt lat="48.27295" lon="7.399">
        <ele>191.6</ele>
        <time>2019-08-09T13:31:28Z</time>
      </trkpt>
      <trkpt lat="48.2729" lon="7.39899">
        <ele>191.6</ele>
        <time>2019-08-09T13:31:30Z</time>
      </trkpt>
      <trkpt lat="48.27284" lon="7.399">
        <ele>191.6</ele>
        <time>2019-08-09T13:31:32Z</time>
      </trkpt>
      <trkpt lat="48.27282" lon="7.399">
        <ele>191.6</ele>
        <time>2019-08-09T13:31:33Z</time>
      </trkpt>
      <trkpt lat="48.27278" lon="7.399">
        <ele>191.6</ele>
        <time>2019-08-09T13:31:34Z</time>
      </trkpt>
      <trkpt lat="48.27275" lon="7.399">
        <ele>191.6</ele>
        <time>2019-08-09T13:31:35Z</time>
      </trkpt>
      <trkpt lat="48.2727" lon="7.39901">
        <ele>191.6</ele>
        <time>2019-08-09T13:31:37Z</time>
      </trkpt>
      <trkpt lat="48.27266" lon="7.39902">
        <ele>191.6</ele>
        <time>2019-08-09T13:31:38Z</time>
      </trkpt>
      <trkpt lat="48.27261" lon="7.39904">
        <ele>191.6</ele>
        <time>2019-08-09T13:31:40Z</time>
      </trkpt>
      <trkpt lat="48.27257" lon="7.39906">
        <ele>191.6</ele>
        <time>2019-08-09T13:31:41Z</time>
      </trkpt>
      <trkpt lat="48.27254" lon="7.39908">
        <ele>191.6</ele>
        <time>2019-08-09T13:31:42Z</time>
      </trkpt>
      <trkpt lat="48.2725" lon="7.39908">
        <ele>191.6</ele>
        <time>2019-08-09T13:31:43Z</time>
      </trkpt>
      <trkpt lat="48.27245" lon="7.39909">
        <ele>191.6</ele>
        <time>2019-08-09T13:31:45Z</time>
      </trkpt>
      <trkpt lat="48.27242" lon="7.39909">
        <ele>191.6</ele>
        <time>2019-08-09T13:31:46Z</time>
      </trkpt>
      <trkpt lat="48.27238" lon="7.3991">
        <ele>191.6</ele>
        <time>2019-08-09T13:31:47Z</time>
      </trkpt>
      <trkpt lat="48.27234" lon="7.39911">
        <ele>191.6</ele>
        <time>2019-08-09T13:31:48Z</time>
      </trkpt>
      <trkpt lat="48.2723" lon="7.39911">
        <ele>191.6</ele>
        <time>2019-08-09T13:31:49Z</time>
      </trkpt>
      <trkpt lat="48.27226" lon="7.39911">
        <ele>191.5</ele>
        <time>2019-08-09T13:31:50Z</time>
      </trkpt>
      <trkpt lat="48.27222" lon="7.39912">
        <ele>191.5</ele>
        <time>2019-08-09T13:31:51Z</time>
      </trkpt>
      <trkpt lat="48.27218" lon="7.39912">
        <ele>191.5</ele>
        <time>2019-08-09T13:31:52Z</time>
      </trkpt>
      <trkpt lat="48.27213" lon="7.39912">
        <ele>191.5</ele>
        <time>2019-08-09T13:31:53Z</time>
      </trkpt>
      <trkpt lat="48.27208" lon="7.39911">
        <ele>191.5</ele>
        <time>2019-08-09T13:31:55Z</time>
      </trkpt>
      <trkpt lat="48.27203" lon="7.39912">
        <ele>191.4</ele>
        <time>2019-08-09T13:31:56Z</time>
      </trkpt>
      <trkpt lat="48.27198" lon="7.39912">
        <ele>191.4</ele>
        <time>2019-08-09T13:31:57Z</time>
      </trkpt>
      <trkpt lat="48.27195" lon="7.39911">
        <ele>191.4</ele>
        <time>2019-08-09T13:31:58Z</time>
      </trkpt>
      <trkpt lat="48.27191" lon="7.39911">
        <ele>191.4</ele>
        <time>2019-08-09T13:31:59Z</time>
      </trkpt>
      <trkpt lat="48.27189" lon="7.39911">
        <ele>191.3</ele>
        <time>2019-08-09T13:32:00Z</time>
      </trkpt>
      <trkpt lat="48.27186" lon="7.39911">
        <ele>191.3</ele>
        <time>2019-08-09T13:32:01Z</time>
      </trkpt>
      <trkpt lat="48.27182" lon="7.39912">
        <ele>191.3</ele>
        <time>2019-08-09T13:32:02Z</time>
      </trkpt>
      <trkpt lat="48.27178" lon="7.39913">
        <ele>191.3</ele>
        <time>2019-08-09T13:32:03Z</time>
      </trkpt>
      <trkpt lat="48.27174" lon="7.39915">
        <ele>191.2</ele>
        <time>2019-08-09T13:32:04Z</time>
      </trkpt>
      <trkpt lat="48.27171" lon="7.39916">
        <ele>191.2</ele>
        <time>2019-08-09T13:32:05Z</time>
      </trkpt>
      <trkpt lat="48.27168" lon="7.39918">
        <ele>191.2</ele>
        <time>2019-08-09T13:32:06Z</time>
      </trkpt>
      <trkpt lat="48.27164" lon="7.39919">
        <ele>191.1</ele>
        <time>2019-08-09T13:32:07Z</time>
      </trkpt>
      <trkpt lat="48.27161" lon="7.39921">
        <ele>191.1</ele>
        <time>2019-08-09T13:32:08Z</time>
      </trkpt>
      <trkpt lat="48.27158" lon="7.39923">
        <ele>191.1</ele>
        <time>2019-08-09T13:32:09Z</time>
      </trkpt>
      <trkpt lat="48.27155" lon="7.39925">
        <ele>191.1</ele>
        <time>2019-08-09T13:32:10Z</time>
      </trkpt>
      <trkpt lat="48.2715" lon="7.39926">
        <ele>191</ele>
        <time>2019-08-09T13:32:12Z</time>
      </trkpt>
      <trkpt lat="48.27147" lon="7.39927">
        <ele>191</ele>
        <time>2019-08-09T13:32:13Z</time>
      </trkpt>
      <trkpt lat="48.27144" lon="7.39928">
        <ele>191</ele>
        <time>2019-08-09T13:32:14Z</time>
      </trkpt>
      <trkpt lat="48.2714" lon="7.39929">
        <ele>191</ele>
        <time>2019-08-09T13:32:15Z</time>
      </trkpt>
      <trkpt lat="48.27137" lon="7.39929">
        <ele>191</ele>
        <time>2019-08-09T13:32:16Z</time>
      </trkpt>
      <trkpt lat="48.27133" lon="7.39928">
        <ele>190.9</ele>
        <time>2019-08-09T13:32:18Z</time>
      </trkpt>
      <trkpt lat="48.27129" lon="7.39929">
        <ele>190.9</ele>
        <time>2019-08-09T13:32:20Z</time>
      </trkpt>
      <trkpt lat="48.27126" lon="7.39928">
        <ele>190.9</ele>
        <time>2019-08-09T13:32:23Z</time>
      </trkpt>
      <trkpt lat="48.27123" lon="7.39928">
        <ele>190.9</ele>
        <time>2019-08-09T13:32:25Z</time>
      </trkpt>
      <trkpt lat="48.27119" lon="7.3993">
        <ele>190.9</ele>
        <time>2019-08-09T13:32:27Z</time>
      </trkpt>
      <trkpt lat="48.27116" lon="7.39931">
        <ele>190.9</ele>
        <time>2019-08-09T13:32:28Z</time>
      </trkpt>
      <trkpt lat="48.27113" lon="7.39931">
        <ele>190.8</ele>
        <time>2019-08-09T13:32:30Z</time>
      </trkpt>
      <trkpt lat="48.27109" lon="7.39933">
        <ele>190.8</ele>
        <time>2019-08-09T13:32:33Z</time>
      </trkpt>
      <trkpt lat="48.27106" lon="7.39934">
        <ele>190.8</ele>
        <time>2019-08-09T13:32:40Z</time>
      </trkpt>
      <trkpt lat="48.27102" lon="7.39937">
        <ele>190.8</ele>
        <time>2019-08-09T13:32:50Z</time>
      </trkpt>
      <trkpt lat="48.27099" lon="7.39938">
        <ele>190.8</ele>
        <time>2019-08-09T13:32:52Z</time>
      </trkpt>
      <trkpt lat="48.27096" lon="7.39943">
        <ele>190.7</ele>
        <time>2019-08-09T13:32:54Z</time>
      </trkpt>
      <trkpt lat="48.27092" lon="7.39943">
        <ele>190.7</ele>
        <time>2019-08-09T13:32:56Z</time>
      </trkpt>
      <trkpt lat="48.27088" lon="7.39942">
        <ele>190.7</ele>
        <time>2019-08-09T13:32:58Z</time>
      </trkpt>
      <trkpt lat="48.27086" lon="7.39943">
        <ele>190.7</ele>
        <time>2019-08-09T13:33:00Z</time>
      </trkpt>
      <trkpt lat="48.27081" lon="7.39944">
        <ele>190.7</ele>
        <time>2019-08-09T13:33:03Z</time>
      </trkpt>
      <trkpt lat="48.27085" lon="7.39945">
        <ele>190.7</ele>
        <time>2019-08-09T13:33:39Z</time>
      </trkpt>
      <trkpt lat="48.27087" lon="7.39946">
        <ele>190.6</ele>
        <time>2019-08-09T13:33:41Z</time>
      </trkpt>
      <trkpt lat="48.27084" lon="7.39946">
        <ele>190.6</ele>
        <time>2019-08-09T13:33:54Z</time>
      </trkpt>
      <trkpt lat="48.27079" lon="7.39948">
        <ele>190.6</ele>
        <time>2019-08-09T13:33:56Z</time>
      </trkpt>
      <trkpt lat="48.27074" lon="7.39949">
        <ele>190.6</ele>
        <time>2019-08-09T13:33:58Z</time>
      </trkpt>
      <trkpt lat="48.2707" lon="7.39949">
        <ele>190.6</ele>
        <time>2019-08-09T13:34:00Z</time>
      </trkpt>
      <trkpt lat="48.27065" lon="7.3995">
        <ele>190.5</ele>
        <time>2019-08-09T13:34:02Z</time>
      </trkpt>
      <trkpt lat="48.27059" lon="7.39951">
        <ele>190.5</ele>
        <time>2019-08-09T13:34:04Z</time>
      </trkpt>
      <trkpt lat="48.27056" lon="7.39951">
        <ele>190.5</ele>
        <time>2019-08-09T13:34:05Z</time>
      </trkpt>
      <trkpt lat="48.27052" lon="7.39951">
        <ele>190.5</ele>
        <time>2019-08-09T13:34:06Z</time>
      </trkpt>
      <trkpt lat="48.27049" lon="7.39952">
        <ele>190.5</ele>
        <time>2019-08-09T13:34:07Z</time>
      </trkpt>
      <trkpt lat="48.27046" lon="7.39953">
        <ele>190.5</ele>
        <time>2019-08-09T13:34:08Z</time>
      </trkpt>
      <trkpt lat="48.27043" lon="7.39953">
        <ele>190.5</ele>
        <time>2019-08-09T13:34:09Z</time>
      </trkpt>
      <trkpt lat="48.27039" lon="7.39955">
        <ele>190.5</ele>
        <time>2019-08-09T13:34:11Z</time>
      </trkpt>
      <trkpt lat="48.27035" lon="7.39956">
        <ele>190.5</ele>
        <time>2019-08-09T13:34:13Z</time>
      </trkpt>
      <trkpt lat="48.27029" lon="7.39959">
        <ele>190.5</ele>
        <time>2019-08-09T13:34:15Z</time>
      </trkpt>
      <trkpt lat="48.27027" lon="7.3996">
        <ele>190.5</ele>
        <time>2019-08-09T13:34:16Z</time>
      </trkpt>
      <trkpt lat="48.27023" lon="7.39962">
        <ele>190.5</ele>
        <time>2019-08-09T13:34:17Z</time>
      </trkpt>
      <trkpt lat="48.2702" lon="7.39964">
        <ele>190.5</ele>
        <time>2019-08-09T13:34:18Z</time>
      </trkpt>
      <trkpt lat="48.27017" lon="7.39966">
        <ele>190.6</ele>
        <time>2019-08-09T13:34:19Z</time>
      </trkpt>
      <trkpt lat="48.27015" lon="7.39968">
        <ele>190.6</ele>
        <time>2019-08-09T13:34:20Z</time>
      </trkpt>
      <trkpt lat="48.2701" lon="7.39971">
        <ele>190.6</ele>
        <time>2019-08-09T13:34:22Z</time>
      </trkpt>
      <trkpt lat="48.27007" lon="7.39972">
        <ele>190.6</ele>
        <time>2019-08-09T13:34:23Z</time>
      </trkpt>
      <trkpt lat="48.27004" lon="7.39973">
        <ele>190.6</ele>
        <time>2019-08-09T13:34:24Z</time>
      </trkpt>
      <trkpt lat="48.27001" lon="7.39975">
        <ele>190.6</ele>
        <time>2019-08-09T13:34:25Z</time>
      </trkpt>
      <trkpt lat="48.26998" lon="7.39977">
        <ele>190.6</ele>
        <time>2019-08-09T13:34:26Z</time>
      </trkpt>
      <trkpt lat="48.26995" lon="7.39978">
        <ele>190.6</ele>
        <time>2019-08-09T13:34:27Z</time>
      </trkpt>
      <trkpt lat="48.2699" lon="7.39982">
        <ele>190.6</ele>
        <time>2019-08-09T13:34:29Z</time>
      </trkpt>
      <trkpt lat="48.26988" lon="7.39984">
        <ele>190.6</ele>
        <time>2019-08-09T13:34:30Z</time>
      </trkpt>
      <trkpt lat="48.26985" lon="7.39985">
        <ele>190.6</ele>
        <time>2019-08-09T13:34:31Z</time>
      </trkpt>
      <trkpt lat="48.26982" lon="7.39987">
        <ele>190.6</ele>
        <time>2019-08-09T13:34:32Z</time>
      </trkpt>
      <trkpt lat="48.26978" lon="7.3998">
        <ele>190.6</ele>
        <time>2019-08-09T13:34:54Z</time>
      </trkpt>
      <trkpt lat="48.26979" lon="7.39972">
        <ele>190.6</ele>
        <time>2019-08-09T13:34:57Z</time>
      </trkpt>
      <trkpt lat="48.26978" lon="7.39967">
        <ele>190.6</ele>
        <time>2019-08-09T13:35:00Z</time>
      </trkpt>
      <trkpt lat="48.26979" lon="7.39962">
        <ele>190.6</ele>
        <time>2019-08-09T13:35:03Z</time>
      </trkpt>
      <trkpt lat="48.26979" lon="7.39958">
        <ele>190.6</ele>
        <time>2019-08-09T13:35:05Z</time>
      </trkpt>
      <trkpt lat="48.26979" lon="7.39954">
        <ele>190.6</ele>
        <time>2019-08-09T13:35:07Z</time>
      </trkpt>
      <trkpt lat="48.26981" lon="7.3995">
        <ele>190.6</ele>
        <time>2019-08-09T13:35:17Z</time>
      </trkpt>
      <trkpt lat="48.26973" lon="7.39916">
        <ele>190.7</ele>
        <time>2019-08-09T13:35:31Z</time>
      </trkpt>
      <trkpt lat="48.26971" lon="7.39908">
        <ele>190.7</ele>
        <time>2019-08-09T13:35:33Z</time>
      </trkpt>
      <trkpt lat="48.26965" lon="7.39888">
        <ele>190.7</ele>
        <time>2019-08-09T13:35:39Z</time>
      </trkpt>
      <trkpt lat="48.26963" lon="7.39884">
        <ele>190.3</ele>
        <time>2019-08-09T13:35:43Z</time>
      </trkpt>
      <trkpt lat="48.26961" lon="7.39879">
        <ele>190.3</ele>
        <time>2019-08-09T13:35:50Z</time>
      </trkpt>
      <trkpt lat="48.26962" lon="7.39884">
        <ele>190.3</ele>
        <time>2019-08-09T13:35:52Z</time>
      </trkpt>
      <trkpt lat="48.26984" lon="7.39929">
        <ele>190</ele>
        <time>2019-08-09T13:38:05Z</time>
      </trkpt>
      <trkpt lat="48.26987" lon="7.39932">
        <ele>190</ele>
        <time>2019-08-09T13:38:08Z</time>
      </trkpt>
      <trkpt lat="48.26989" lon="7.39934">
        <ele>190</ele>
        <time>2019-08-09T13:38:12Z</time>
      </trkpt>
      <trkpt lat="48.26992" lon="7.39936">
        <ele>189.9</ele>
        <time>2019-08-09T13:38:18Z</time>
      </trkpt>
      <trkpt lat="48.26995" lon="7.39937">
        <ele>189.9</ele>
        <time>2019-08-09T13:38:33Z</time>
      </trkpt>
      <trkpt lat="48.26998" lon="7.39933">
        <ele>189.9</ele>
        <time>2019-08-09T13:38:41Z</time>
      </trkpt>
      <trkpt lat="48.26995" lon="7.39934">
        <ele>189.9</ele>
        <time>2019-08-09T13:38:48Z</time>
      </trkpt>
      <trkpt lat="48.26992" lon="7.39937">
        <ele>189.9</ele>
        <time>2019-08-09T13:38:53Z</time>
      </trkpt>
      <trkpt lat="48.26991" lon="7.39944">
        <ele>189.9</ele>
        <time>2019-08-09T13:38:55Z</time>
      </trkpt>
      <trkpt lat="48.26991" lon="7.39949">
        <ele>189.8</ele>
        <time>2019-08-09T13:38:56Z</time>
      </trkpt>
      <trkpt lat="48.26985" lon="7.39955">
        <ele>189.8</ele>
        <time>2019-08-09T13:38:57Z</time>
      </trkpt>
      <trkpt lat="48.26983" lon="7.39956">
        <ele>189.8</ele>
        <time>2019-08-09T13:38:58Z</time>
      </trkpt>
      <trkpt lat="48.26982" lon="7.39962">
        <ele>189.8</ele>
        <time>2019-08-09T13:39:00Z</time>
      </trkpt>
      <trkpt lat="48.26981" lon="7.39966">
        <ele>189.8</ele>
        <time>2019-08-09T13:39:02Z</time>
      </trkpt>
      <trkpt lat="48.26981" lon="7.39972">
        <ele>189.8</ele>
        <time>2019-08-09T13:39:05Z</time>
      </trkpt>
      <trkpt lat="48.26981" lon="7.39977">
        <ele>189.8</ele>
        <time>2019-08-09T13:39:08Z</time>
      </trkpt>
      <trkpt lat="48.26975" lon="7.3998">
        <ele>189.7</ele>
        <time>2019-08-09T13:41:47Z</time>
      </trkpt>
      <trkpt lat="48.26973" lon="7.39979">
        <ele>189.7</ele>
        <time>2019-08-09T13:41:57Z</time>
      </trkpt>
      <trkpt lat="48.26969" lon="7.39985">
        <ele>189.7</ele>
        <time>2019-08-09T13:43:03Z</time>
      </trkpt>
      <trkpt lat="48.26963" lon="7.39987">
        <ele>189.7</ele>
        <time>2019-08-09T13:43:05Z</time>
      </trkpt>
      <trkpt lat="48.2696" lon="7.39988">
        <ele>189.7</ele>
        <time>2019-08-09T13:43:06Z</time>
      </trkpt>
      <trkpt lat="48.26957" lon="7.39988">
        <ele>189.7</ele>
        <time>2019-08-09T13:43:07Z</time>
      </trkpt>
      <trkpt lat="48.26954" lon="7.39988">
        <ele>189.7</ele>
        <time>2019-08-09T13:43:08Z</time>
      </trkpt>
      <trkpt lat="48.2695" lon="7.39988">
        <ele>189.7</ele>
        <time>2019-08-09T13:43:09Z</time>
      </trkpt>
      <trkpt lat="48.26946" lon="7.39989">
        <ele>189.7</ele>
        <time>2019-08-09T13:43:10Z</time>
      </trkpt>
      <trkpt lat="48.26942" lon="7.39989">
        <ele>189.7</ele>
        <time>2019-08-09T13:43:11Z</time>
      </trkpt>
      <trkpt lat="48.26939" lon="7.3999">
        <ele>189.7</ele>
        <time>2019-08-09T13:43:12Z</time>
      </trkpt>
      <trkpt lat="48.26935" lon="7.39991">
        <ele>189.7</ele>
        <time>2019-08-09T13:43:13Z</time>
      </trkpt>
      <trkpt lat="48.2693" lon="7.3999">
        <ele>189.7</ele>
        <time>2019-08-09T13:43:14Z</time>
      </trkpt>
      <trkpt lat="48.26925" lon="7.39991">
        <ele>189.7</ele>
        <time>2019-08-09T13:43:15Z</time>
      </trkpt>
      <trkpt lat="48.2692" lon="7.39992">
        <ele>189.7</ele>
        <time>2019-08-09T13:43:16Z</time>
      </trkpt>
      <trkpt lat="48.26916" lon="7.39992">
        <ele>189.7</ele>
        <time>2019-08-09T13:43:17Z</time>
      </trkpt>
      <trkpt lat="48.26912" lon="7.39993">
        <ele>189.7</ele>
        <time>2019-08-09T13:43:18Z</time>
      </trkpt>
      <trkpt lat="48.26908" lon="7.39993">
        <ele>189.7</ele>
        <time>2019-08-09T13:43:19Z</time>
      </trkpt>
      <trkpt lat="48.26905" lon="7.39994">
        <ele>189.7</ele>
        <time>2019-08-09T13:43:20Z</time>
      </trkpt>
      <trkpt lat="48.26901" lon="7.39994">
        <ele>189.7</ele>
        <time>2019-08-09T13:43:21Z</time>
      </trkpt>
      <trkpt lat="48.26897" lon="7.39994">
        <ele>189.7</ele>
        <time>2019-08-09T13:43:22Z</time>
      </trkpt>
      <trkpt lat="48.26893" lon="7.39994">
        <ele>189.7</ele>
        <time>2019-08-09T13:43:23Z</time>
      </trkpt>
      <trkpt lat="48.26889" lon="7.39994">
        <ele>189.7</ele>
        <time>2019-08-09T13:43:24Z</time>
      </trkpt>
      <trkpt lat="48.26885" lon="7.39995">
        <ele>189.7</ele>
        <time>2019-08-09T13:43:25Z</time>
      </trkpt>
      <trkpt lat="48.26881" lon="7.39995">
        <ele>189.7</ele>
        <time>2019-08-09T13:43:26Z</time>
      </trkpt>
      <trkpt lat="48.26877" lon="7.39994">
        <ele>189.7</ele>
        <time>2019-08-09T13:43:27Z</time>
      </trkpt>
      <trkpt lat="48.26871" lon="7.39993">
        <ele>189.7</ele>
        <time>2019-08-09T13:43:28Z</time>
      </trkpt>
      <trkpt lat="48.26868" lon="7.39994">
        <ele>189.7</ele>
        <time>2019-08-09T13:43:29Z</time>
      </trkpt>
      <trkpt lat="48.26863" lon="7.39992">
        <ele>189.7</ele>
        <time>2019-08-09T13:43:30Z</time>
      </trkpt>
      <trkpt lat="48.26859" lon="7.39991">
        <ele>189.7</ele>
        <time>2019-08-09T13:43:31Z</time>
      </trkpt>
      <trkpt lat="48.26854" lon="7.3999">
        <ele>189.6</ele>
        <time>2019-08-09T13:43:32Z</time>
      </trkpt>
      <trkpt lat="48.26849" lon="7.39989">
        <ele>189.6</ele>
        <time>2019-08-09T13:43:33Z</time>
      </trkpt>
      <trkpt lat="48.26844" lon="7.39987">
        <ele>189.6</ele>
        <time>2019-08-09T13:43:34Z</time>
      </trkpt>
      <trkpt lat="48.2684" lon="7.39984">
        <ele>189.6</ele>
        <time>2019-08-09T13:43:35Z</time>
      </trkpt>
      <trkpt lat="48.26836" lon="7.39981">
        <ele>189.6</ele>
        <time>2019-08-09T13:43:36Z</time>
      </trkpt>
      <trkpt lat="48.26833" lon="7.39979">
        <ele>189.5</ele>
        <time>2019-08-09T13:43:37Z</time>
      </trkpt>
      <trkpt lat="48.26831" lon="7.39977">
        <ele>189.5</ele>
        <time>2019-08-09T13:43:38Z</time>
      </trkpt>
      <trkpt lat="48.26827" lon="7.39976">
        <ele>189.5</ele>
        <time>2019-08-09T13:43:39Z</time>
      </trkpt>
      <trkpt lat="48.26825" lon="7.39979">
        <ele>189.4</ele>
        <time>2019-08-09T13:43:40Z</time>
      </trkpt>
      <trkpt lat="48.2682" lon="7.39987">
        <ele>189.1</ele>
        <time>2019-08-09T13:43:42Z</time>
      </trkpt>
      <trkpt lat="48.26818" lon="7.39992">
        <ele>189</ele>
        <time>2019-08-09T13:43:43Z</time>
      </trkpt>
      <trkpt lat="48.26815" lon="7.39997">
        <ele>188.9</ele>
        <time>2019-08-09T13:43:44Z</time>
      </trkpt>
      <trkpt lat="48.26812" lon="7.40002">
        <ele>188.9</ele>
        <time>2019-08-09T13:43:45Z</time>
      </trkpt>
      <trkpt lat="48.2681" lon="7.40007">
        <ele>188.8</ele>
        <time>2019-08-09T13:43:46Z</time>
      </trkpt>
      <trkpt lat="48.26808" lon="7.40013">
        <ele>188.7</ele>
        <time>2019-08-09T13:43:47Z</time>
      </trkpt>
      <trkpt lat="48.26805" lon="7.4002">
        <ele>188.6</ele>
        <time>2019-08-09T13:43:48Z</time>
      </trkpt>
      <trkpt lat="48.26802" lon="7.40025">
        <ele>188.5</ele>
        <time>2019-08-09T13:43:49Z</time>
      </trkpt>
      <trkpt lat="48.26799" lon="7.40031">
        <ele>188.4</ele>
        <time>2019-08-09T13:43:50Z</time>
      </trkpt>
      <trkpt lat="48.26797" lon="7.40037">
        <ele>188.3</ele>
        <time>2019-08-09T13:43:51Z</time>
      </trkpt>
      <trkpt lat="48.26794" lon="7.40043">
        <ele>188.2</ele>
        <time>2019-08-09T13:43:52Z</time>
      </trkpt>
      <trkpt lat="48.26791" lon="7.40051">
        <ele>188.1</ele>
        <time>2019-08-09T13:43:53Z</time>
      </trkpt>
      <trkpt lat="48.26788" lon="7.40058">
        <ele>187.9</ele>
        <time>2019-08-09T13:43:54Z</time>
      </trkpt>
      <trkpt lat="48.26786" lon="7.40065">
        <ele>187.7</ele>
        <time>2019-08-09T13:43:55Z</time>
      </trkpt>
      <trkpt lat="48.26783" lon="7.40072">
        <ele>187.4</ele>
        <time>2019-08-09T13:43:56Z</time>
      </trkpt>
      <trkpt lat="48.26781" lon="7.40079">
        <ele>187.1</ele>
        <time>2019-08-09T13:43:57Z</time>
      </trkpt>
      <trkpt lat="48.2678" lon="7.40087">
        <ele>186.9</ele>
        <time>2019-08-09T13:43:58Z</time>
      </trkpt>
      <trkpt lat="48.26779" lon="7.40094">
        <ele>186.7</ele>
        <time>2019-08-09T13:43:59Z</time>
      </trkpt>
      <trkpt lat="48.26778" lon="7.40102">
        <ele>186.6</ele>
        <time>2019-08-09T13:44:00Z</time>
      </trkpt>
      <trkpt lat="48.26777" lon="7.4011">
        <ele>186.5</ele>
        <time>2019-08-09T13:44:01Z</time>
      </trkpt>
      <trkpt lat="48.26776" lon="7.40117">
        <ele>186.4</ele>
        <time>2019-08-09T13:44:02Z</time>
      </trkpt>
      <trkpt lat="48.26775" lon="7.40125">
        <ele>186.4</ele>
        <time>2019-08-09T13:44:03Z</time>
      </trkpt>
      <trkpt lat="48.26774" lon="7.40133">
        <ele>186.4</ele>
        <time>2019-08-09T13:44:04Z</time>
      </trkpt>
      <trkpt lat="48.26773" lon="7.40139">
        <ele>186.3</ele>
        <time>2019-08-09T13:44:05Z</time>
      </trkpt>
      <trkpt lat="48.26772" lon="7.40148">
        <ele>186.3</ele>
        <time>2019-08-09T13:44:06Z</time>
      </trkpt>
      <trkpt lat="48.26772" lon="7.40155">
        <ele>186.3</ele>
        <time>2019-08-09T13:44:07Z</time>
      </trkpt>
      <trkpt lat="48.26772" lon="7.40163">
        <ele>186.3</ele>
        <time>2019-08-09T13:44:08Z</time>
      </trkpt>
      <trkpt lat="48.26771" lon="7.4017">
        <ele>186.3</ele>
        <time>2019-08-09T13:44:09Z</time>
      </trkpt>
      <trkpt lat="48.2677" lon="7.40176">
        <ele>186.2</ele>
        <time>2019-08-09T13:44:10Z</time>
      </trkpt>
      <trkpt lat="48.26769" lon="7.40182">
        <ele>186.2</ele>
        <time>2019-08-09T13:44:11Z</time>
      </trkpt>
      <trkpt lat="48.26768" lon="7.40189">
        <ele>186.2</ele>
        <time>2019-08-09T13:44:12Z</time>
      </trkpt>
      <trkpt lat="48.26768" lon="7.40196">
        <ele>186.1</ele>
        <time>2019-08-09T13:44:13Z</time>
      </trkpt>
      <trkpt lat="48.26767" lon="7.40203">
        <ele>186.1</ele>
        <time>2019-08-09T13:44:14Z</time>
      </trkpt>
      <trkpt lat="48.26767" lon="7.4021">
        <ele>186.1</ele>
        <time>2019-08-09T13:44:15Z</time>
      </trkpt>
      <trkpt lat="48.26767" lon="7.40216">
        <ele>186.1</ele>
        <time>2019-08-09T13:44:16Z</time>
      </trkpt>
      <trkpt lat="48.26767" lon="7.40222">
        <ele>186.1</ele>
        <time>2019-08-09T13:44:17Z</time>
      </trkpt>
      <trkpt lat="48.26766" lon="7.40227">
        <ele>186.1</ele>
        <time>2019-08-09T13:44:18Z</time>
      </trkpt>
      <trkpt lat="48.26764" lon="7.40233">
        <ele>186.2</ele>
        <time>2019-08-09T13:44:19Z</time>
      </trkpt>
      <trkpt lat="48.26763" lon="7.40241">
        <ele>186.2</ele>
        <time>2019-08-09T13:44:20Z</time>
      </trkpt>
      <trkpt lat="48.26763" lon="7.40248">
        <ele>186.2</ele>
        <time>2019-08-09T13:44:21Z</time>
      </trkpt>
      <trkpt lat="48.26763" lon="7.40255">
        <ele>186.2</ele>
        <time>2019-08-09T13:44:22Z</time>
      </trkpt>
      <trkpt lat="48.26762" lon="7.40262">
        <ele>186.3</ele>
        <time>2019-08-09T13:44:23Z</time>
      </trkpt>
      <trkpt lat="48.26762" lon="7.40269">
        <ele>186.3</ele>
        <time>2019-08-09T13:44:24Z</time>
      </trkpt>
      <trkpt lat="48.26761" lon="7.40275">
        <ele>186.3</ele>
        <time>2019-08-09T13:44:25Z</time>
      </trkpt>
      <trkpt lat="48.2676" lon="7.40282">
        <ele>186.4</ele>
        <time>2019-08-09T13:44:26Z</time>
      </trkpt>
      <trkpt lat="48.2676" lon="7.40288">
        <ele>186.4</ele>
        <time>2019-08-09T13:44:27Z</time>
      </trkpt>
      <trkpt lat="48.26759" lon="7.40295">
        <ele>186.5</ele>
        <time>2019-08-09T13:44:28Z</time>
      </trkpt>
      <trkpt lat="48.26759" lon="7.40301">
        <ele>186.5</ele>
        <time>2019-08-09T13:44:29Z</time>
      </trkpt>
      <trkpt lat="48.26758" lon="7.40307">
        <ele>186.6</ele>
        <time>2019-08-09T13:44:30Z</time>
      </trkpt>
      <trkpt lat="48.26757" lon="7.40314">
        <ele>186.6</ele>
        <time>2019-08-09T13:44:31Z</time>
      </trkpt>
      <trkpt lat="48.26756" lon="7.4032">
        <ele>186.7</ele>
        <time>2019-08-09T13:44:32Z</time>
      </trkpt>
      <trkpt lat="48.26755" lon="7.40326">
        <ele>186.7</ele>
        <time>2019-08-09T13:44:33Z</time>
      </trkpt>
      <trkpt lat="48.26755" lon="7.40333">
        <ele>186.8</ele>
        <time>2019-08-09T13:44:34Z</time>
      </trkpt>
      <trkpt lat="48.26753" lon="7.40341">
        <ele>186.8</ele>
        <time>2019-08-09T13:44:35Z</time>
      </trkpt>
      <trkpt lat="48.26753" lon="7.40348">
        <ele>186.9</ele>
        <time>2019-08-09T13:44:36Z</time>
      </trkpt>
      <trkpt lat="48.26752" lon="7.40355">
        <ele>186.9</ele>
        <time>2019-08-09T13:44:37Z</time>
      </trkpt>
      <trkpt lat="48.26752" lon="7.4036">
        <ele>187</ele>
        <time>2019-08-09T13:44:38Z</time>
      </trkpt>
      <trkpt lat="48.2675" lon="7.40366">
        <ele>187</ele>
        <time>2019-08-09T13:44:39Z</time>
      </trkpt>
      <trkpt lat="48.26749" lon="7.40373">
        <ele>187.1</ele>
        <time>2019-08-09T13:44:40Z</time>
      </trkpt>
      <trkpt lat="48.26748" lon="7.4038">
        <ele>187.1</ele>
        <time>2019-08-09T13:44:41Z</time>
      </trkpt>
      <trkpt lat="48.26747" lon="7.40386">
        <ele>187.1</ele>
        <time>2019-08-09T13:44:42Z</time>
      </trkpt>
      <trkpt lat="48.26747" lon="7.40392">
        <ele>187.1</ele>
        <time>2019-08-09T13:44:43Z</time>
      </trkpt>
      <trkpt lat="48.26745" lon="7.40398">
        <ele>187.1</ele>
        <time>2019-08-09T13:44:44Z</time>
      </trkpt>
      <trkpt lat="48.26745" lon="7.40404">
        <ele>187.1</ele>
        <time>2019-08-09T13:44:45Z</time>
      </trkpt>
      <trkpt lat="48.26744" lon="7.4041">
        <ele>187.1</ele>
        <time>2019-08-09T13:44:46Z</time>
      </trkpt>
      <trkpt lat="48.26744" lon="7.40417">
        <ele>187.1</ele>
        <time>2019-08-09T13:44:47Z</time>
      </trkpt>
      <trkpt lat="48.26743" lon="7.40424">
        <ele>187.1</ele>
        <time>2019-08-09T13:44:48Z</time>
      </trkpt>
      <trkpt lat="48.26742" lon="7.40431">
        <ele>187.1</ele>
        <time>2019-08-09T13:44:49Z</time>
      </trkpt>
      <trkpt lat="48.26741" lon="7.40438">
        <ele>187.1</ele>
        <time>2019-08-09T13:44:50Z</time>
      </trkpt>
      <trkpt lat="48.2674" lon="7.40445">
        <ele>187.1</ele>
        <time>2019-08-09T13:44:51Z</time>
      </trkpt>
      <trkpt lat="48.26739" lon="7.40452">
        <ele>187.1</ele>
        <time>2019-08-09T13:44:52Z</time>
      </trkpt>
      <trkpt lat="48.26737" lon="7.40458">
        <ele>187.1</ele>
        <time>2019-08-09T13:44:53Z</time>
      </trkpt>
      <trkpt lat="48.26735" lon="7.40465">
        <ele>187.1</ele>
        <time>2019-08-09T13:44:54Z</time>
      </trkpt>
      <trkpt lat="48.26734" lon="7.40471">
        <ele>187.1</ele>
        <time>2019-08-09T13:44:55Z</time>
      </trkpt>
      <trkpt lat="48.26733" lon="7.40478">
        <ele>187.1</ele>
        <time>2019-08-09T13:44:56Z</time>
      </trkpt>
      <trkpt lat="48.26732" lon="7.40485">
        <ele>187.1</ele>
        <time>2019-08-09T13:44:57Z</time>
      </trkpt>
      <trkpt lat="48.2673" lon="7.40494">
        <ele>187.1</ele>
        <time>2019-08-09T13:44:58Z</time>
      </trkpt>
      <trkpt lat="48.26728" lon="7.40501">
        <ele>187.1</ele>
        <time>2019-08-09T13:44:59Z</time>
      </trkpt>
      <trkpt lat="48.26726" lon="7.40508">
        <ele>187.1</ele>
        <time>2019-08-09T13:45:00Z</time>
      </trkpt>
      <trkpt lat="48.26725" lon="7.40516">
        <ele>187.1</ele>
        <time>2019-08-09T13:45:01Z</time>
      </trkpt>
      <trkpt lat="48.26724" lon="7.40524">
        <ele>187</ele>
        <time>2019-08-09T13:45:02Z</time>
      </trkpt>
      <trkpt lat="48.26723" lon="7.40532">
        <ele>186.9</ele>
        <time>2019-08-09T13:45:03Z</time>
      </trkpt>
      <trkpt lat="48.26721" lon="7.4054">
        <ele>186.9</ele>
        <time>2019-08-09T13:45:04Z</time>
      </trkpt>
      <trkpt lat="48.2672" lon="7.40548">
        <ele>186.7</ele>
        <time>2019-08-09T13:45:05Z</time>
      </trkpt>
      <trkpt lat="48.26719" lon="7.40556">
        <ele>186.6</ele>
        <time>2019-08-09T13:45:06Z</time>
      </trkpt>
      <trkpt lat="48.26718" lon="7.40563">
        <ele>186.5</ele>
        <time>2019-08-09T13:45:07Z</time>
      </trkpt>
      <trkpt lat="48.26716" lon="7.40571">
        <ele>186.3</ele>
        <time>2019-08-09T13:45:08Z</time>
      </trkpt>
      <trkpt lat="48.26713" lon="7.40581">
        <ele>186.2</ele>
        <time>2019-08-09T13:45:09Z</time>
      </trkpt>
      <trkpt lat="48.26712" lon="7.4059">
        <ele>186.1</ele>
        <time>2019-08-09T13:45:10Z</time>
      </trkpt>
      <trkpt lat="48.26711" lon="7.40598">
        <ele>186.1</ele>
        <time>2019-08-09T13:45:11Z</time>
      </trkpt>
      <trkpt lat="48.2671" lon="7.40605">
        <ele>186</ele>
        <time>2019-08-09T13:45:12Z</time>
      </trkpt>
      <trkpt lat="48.26707" lon="7.40612">
        <ele>185.8</ele>
        <time>2019-08-09T13:45:13Z</time>
      </trkpt>
      <trkpt lat="48.26706" lon="7.40619">
        <ele>185.7</ele>
        <time>2019-08-09T13:45:14Z</time>
      </trkpt>
      <trkpt lat="48.26705" lon="7.40626">
        <ele>185.5</ele>
        <time>2019-08-09T13:45:15Z</time>
      </trkpt>
      <trkpt lat="48.26704" lon="7.40633">
        <ele>185.3</ele>
        <time>2019-08-09T13:45:16Z</time>
      </trkpt>
      <trkpt lat="48.26704" lon="7.4064">
        <ele>185.1</ele>
        <time>2019-08-09T13:45:17Z</time>
      </trkpt>
      <trkpt lat="48.26703" lon="7.40647">
        <ele>185</ele>
        <time>2019-08-09T13:45:18Z</time>
      </trkpt>
      <trkpt lat="48.267" lon="7.4065">
        <ele>185</ele>
        <time>2019-08-09T13:45:19Z</time>
      </trkpt>
      <trkpt lat="48.26697" lon="7.40654">
        <ele>185</ele>
        <time>2019-08-09T13:45:20Z</time>
      </trkpt>
      <trkpt lat="48.26694" lon="7.40656">
        <ele>184.9</ele>
        <time>2019-08-09T13:45:21Z</time>
      </trkpt>
      <trkpt lat="48.26691" lon="7.40658">
        <ele>184.9</ele>
        <time>2019-08-09T13:45:22Z</time>
      </trkpt>
      <trkpt lat="48.26687" lon="7.4066">
        <ele>184.8</ele>
        <time>2019-08-09T13:45:23Z</time>
      </trkpt>
      <trkpt lat="48.26684" lon="7.40661">
        <ele>184.7</ele>
        <time>2019-08-09T13:45:24Z</time>
      </trkpt>
      <trkpt lat="48.2668" lon="7.40662">
        <ele>184.6</ele>
        <time>2019-08-09T13:45:25Z</time>
      </trkpt>
      <trkpt lat="48.26676" lon="7.40663">
        <ele>184.5</ele>
        <time>2019-08-09T13:45:26Z</time>
      </trkpt>
      <trkpt lat="48.26671" lon="7.40664">
        <ele>184.3</ele>
        <time>2019-08-09T13:45:27Z</time>
      </trkpt>
      <trkpt lat="48.26668" lon="7.40665">
        <ele>184.2</ele>
        <time>2019-08-09T13:45:28Z</time>
      </trkpt>
      <trkpt lat="48.26664" lon="7.40666">
        <ele>184.1</ele>
        <time>2019-08-09T13:45:29Z</time>
      </trkpt>
      <trkpt lat="48.26661" lon="7.40666">
        <ele>183.9</ele>
        <time>2019-08-09T13:45:30Z</time>
      </trkpt>
      <trkpt lat="48.26657" lon="7.40667">
        <ele>183.8</ele>
        <time>2019-08-09T13:45:31Z</time>
      </trkpt>
      <trkpt lat="48.26653" lon="7.40667">
        <ele>183.6</ele>
        <time>2019-08-09T13:45:32Z</time>
      </trkpt>
      <trkpt lat="48.26648" lon="7.40666">
        <ele>183.3</ele>
        <time>2019-08-09T13:45:33Z</time>
      </trkpt>
      <trkpt lat="48.26643" lon="7.40666">
        <ele>183.2</ele>
        <time>2019-08-09T13:45:34Z</time>
      </trkpt>
      <trkpt lat="48.26638" lon="7.40666">
        <ele>183.1</ele>
        <time>2019-08-09T13:45:35Z</time>
      </trkpt>
      <trkpt lat="48.26633" lon="7.40667">
        <ele>183</ele>
        <time>2019-08-09T13:45:36Z</time>
      </trkpt>
      <trkpt lat="48.26629" lon="7.40668">
        <ele>182.9</ele>
        <time>2019-08-09T13:45:37Z</time>
      </trkpt>
      <trkpt lat="48.26624" lon="7.40669">
        <ele>182.9</ele>
        <time>2019-08-09T13:45:38Z</time>
      </trkpt>
      <trkpt lat="48.2662" lon="7.4067">
        <ele>182.8</ele>
        <time>2019-08-09T13:45:39Z</time>
      </trkpt>
      <trkpt lat="48.26616" lon="7.40671">
        <ele>182.8</ele>
        <time>2019-08-09T13:45:40Z</time>
      </trkpt>
      <trkpt lat="48.26611" lon="7.40672">
        <ele>182.8</ele>
        <time>2019-08-09T13:45:41Z</time>
      </trkpt>
      <trkpt lat="48.26606" lon="7.40673">
        <ele>182.8</ele>
        <time>2019-08-09T13:45:42Z</time>
      </trkpt>
      <trkpt lat="48.26602" lon="7.40673">
        <ele>182.8</ele>
        <time>2019-08-09T13:45:43Z</time>
      </trkpt>
      <trkpt lat="48.26597" lon="7.40674">
        <ele>182.8</ele>
        <time>2019-08-09T13:45:44Z</time>
      </trkpt>
      <trkpt lat="48.26592" lon="7.40674">
        <ele>182.9</ele>
        <time>2019-08-09T13:45:45Z</time>
      </trkpt>
      <trkpt lat="48.26587" lon="7.40676">
        <ele>182.9</ele>
        <time>2019-08-09T13:45:46Z</time>
      </trkpt>
      <trkpt lat="48.26582" lon="7.40678">
        <ele>182.9</ele>
        <time>2019-08-09T13:45:47Z</time>
      </trkpt>
      <trkpt lat="48.26577" lon="7.40678">
        <ele>183</ele>
        <time>2019-08-09T13:45:48Z</time>
      </trkpt>
      <trkpt lat="48.26573" lon="7.40678">
        <ele>183</ele>
        <time>2019-08-09T13:45:49Z</time>
      </trkpt>
      <trkpt lat="48.26568" lon="7.40678">
        <ele>183.1</ele>
        <time>2019-08-09T13:45:50Z</time>
      </trkpt>
      <trkpt lat="48.26563" lon="7.40679">
        <ele>183.1</ele>
        <time>2019-08-09T13:45:51Z</time>
      </trkpt>
      <trkpt lat="48.26558" lon="7.40679">
        <ele>183.2</ele>
        <time>2019-08-09T13:45:52Z</time>
      </trkpt>
      <trkpt lat="48.26554" lon="7.4068">
        <ele>183.2</ele>
        <time>2019-08-09T13:45:53Z</time>
      </trkpt>
      <trkpt lat="48.2655" lon="7.4068">
        <ele>183.2</ele>
        <time>2019-08-09T13:45:54Z</time>
      </trkpt>
      <trkpt lat="48.26545" lon="7.4068">
        <ele>183.3</ele>
        <time>2019-08-09T13:45:55Z</time>
      </trkpt>
      <trkpt lat="48.26541" lon="7.4068">
        <ele>183.3</ele>
        <time>2019-08-09T13:45:56Z</time>
      </trkpt>
      <trkpt lat="48.26536" lon="7.40681">
        <ele>183.3</ele>
        <time>2019-08-09T13:45:57Z</time>
      </trkpt>
      <trkpt lat="48.26532" lon="7.40681">
        <ele>183.3</ele>
        <time>2019-08-09T13:45:58Z</time>
      </trkpt>
      <trkpt lat="48.26528" lon="7.40681">
        <ele>183.4</ele>
        <time>2019-08-09T13:45:59Z</time>
      </trkpt>
      <trkpt lat="48.26524" lon="7.40681">
        <ele>183.4</ele>
        <time>2019-08-09T13:46:00Z</time>
      </trkpt>
      <trkpt lat="48.26519" lon="7.40682">
        <ele>183.4</ele>
        <time>2019-08-09T13:46:01Z</time>
      </trkpt>
      <trkpt lat="48.26515" lon="7.4068">
        <ele>183.4</ele>
        <time>2019-08-09T13:46:02Z</time>
      </trkpt>
      <trkpt lat="48.26511" lon="7.4068">
        <ele>183.5</ele>
        <time>2019-08-09T13:46:03Z</time>
      </trkpt>
      <trkpt lat="48.26506" lon="7.40678">
        <ele>183.5</ele>
        <time>2019-08-09T13:46:04Z</time>
      </trkpt>
      <trkpt lat="48.26502" lon="7.40676">
        <ele>183.5</ele>
        <time>2019-08-09T13:46:05Z</time>
      </trkpt>
      <trkpt lat="48.26498" lon="7.40674">
        <ele>183.6</ele>
        <time>2019-08-09T13:46:06Z</time>
      </trkpt>
      <trkpt lat="48.26494" lon="7.40672">
        <ele>183.6</ele>
        <time>2019-08-09T13:46:07Z</time>
      </trkpt>
      <trkpt lat="48.2649" lon="7.40669">
        <ele>183.6</ele>
        <time>2019-08-09T13:46:08Z</time>
      </trkpt>
      <trkpt lat="48.26487" lon="7.40666">
        <ele>183.7</ele>
        <time>2019-08-09T13:46:09Z</time>
      </trkpt>
      <trkpt lat="48.26482" lon="7.40662">
        <ele>183.7</ele>
        <time>2019-08-09T13:46:10Z</time>
      </trkpt>
      <trkpt lat="48.26479" lon="7.40658">
        <ele>183.7</ele>
        <time>2019-08-09T13:46:11Z</time>
      </trkpt>
      <trkpt lat="48.26476" lon="7.40653">
        <ele>183.7</ele>
        <time>2019-08-09T13:46:12Z</time>
      </trkpt>
      <trkpt lat="48.26473" lon="7.40648">
        <ele>183.7</ele>
        <time>2019-08-09T13:46:13Z</time>
      </trkpt>
      <trkpt lat="48.2647" lon="7.40645">
        <ele>183.7</ele>
        <time>2019-08-09T13:46:14Z</time>
      </trkpt>
      <trkpt lat="48.26467" lon="7.40642">
        <ele>183.7</ele>
        <time>2019-08-09T13:46:15Z</time>
      </trkpt>
      <trkpt lat="48.26464" lon="7.4064">
        <ele>183.7</ele>
        <time>2019-08-09T13:46:16Z</time>
      </trkpt>
      <trkpt lat="48.26461" lon="7.40636">
        <ele>183.5</ele>
        <time>2019-08-09T13:46:17Z</time>
      </trkpt>
      <trkpt lat="48.2646" lon="7.40631">
        <ele>183.5</ele>
        <time>2019-08-09T13:46:19Z</time>
      </trkpt>
      <trkpt lat="48.26456" lon="7.4063">
        <ele>183.4</ele>
        <time>2019-08-09T13:46:21Z</time>
      </trkpt>
      <trkpt lat="48.26454" lon="7.40627">
        <ele>183.4</ele>
        <time>2019-08-09T13:46:22Z</time>
      </trkpt>
      <trkpt lat="48.26451" lon="7.40625">
        <ele>183.3</ele>
        <time>2019-08-09T13:46:23Z</time>
      </trkpt>
      <trkpt lat="48.26449" lon="7.40622">
        <ele>183.3</ele>
        <time>2019-08-09T13:46:24Z</time>
      </trkpt>
      <trkpt lat="48.26446" lon="7.40618">
        <ele>183.2</ele>
        <time>2019-08-09T13:46:25Z</time>
      </trkpt>
      <trkpt lat="48.26443" lon="7.40615">
        <ele>183.2</ele>
        <time>2019-08-09T13:46:26Z</time>
      </trkpt>
      <trkpt lat="48.2644" lon="7.40611">
        <ele>183.1</ele>
        <time>2019-08-09T13:46:27Z</time>
      </trkpt>
      <trkpt lat="48.26438" lon="7.40608">
        <ele>183.1</ele>
        <time>2019-08-09T13:46:28Z</time>
      </trkpt>
      <trkpt lat="48.26435" lon="7.40604">
        <ele>183.1</ele>
        <time>2019-08-09T13:46:29Z</time>
      </trkpt>
      <trkpt lat="48.26432" lon="7.406">
        <ele>183</ele>
        <time>2019-08-09T13:46:30Z</time>
      </trkpt>
      <trkpt lat="48.26429" lon="7.40596">
        <ele>183</ele>
        <time>2019-08-09T13:46:31Z</time>
      </trkpt>
      <trkpt lat="48.26426" lon="7.40592">
        <ele>182.9</ele>
        <time>2019-08-09T13:46:32Z</time>
      </trkpt>
      <trkpt lat="48.26423" lon="7.40588">
        <ele>182.9</ele>
        <time>2019-08-09T13:46:33Z</time>
      </trkpt>
      <trkpt lat="48.2642" lon="7.40583">
        <ele>182.9</ele>
        <time>2019-08-09T13:46:34Z</time>
      </trkpt>
      <trkpt lat="48.26417" lon="7.40579">
        <ele>182.8</ele>
        <time>2019-08-09T13:46:35Z</time>
      </trkpt>
      <trkpt lat="48.26414" lon="7.40575">
        <ele>182.8</ele>
        <time>2019-08-09T13:46:36Z</time>
      </trkpt>
      <trkpt lat="48.26411" lon="7.40573">
        <ele>182.8</ele>
        <time>2019-08-09T13:46:37Z</time>
      </trkpt>
      <trkpt lat="48.26408" lon="7.40569">
        <ele>182.8</ele>
        <time>2019-08-09T13:46:38Z</time>
      </trkpt>
      <trkpt lat="48.26405" lon="7.40565">
        <ele>182.8</ele>
        <time>2019-08-09T13:46:39Z</time>
      </trkpt>
      <trkpt lat="48.26404" lon="7.40559">
        <ele>182.8</ele>
        <time>2019-08-09T13:46:40Z</time>
      </trkpt>
      <trkpt lat="48.264" lon="7.40556">
        <ele>182.8</ele>
        <time>2019-08-09T13:46:41Z</time>
      </trkpt>
      <trkpt lat="48.26398" lon="7.40552">
        <ele>182.7</ele>
        <time>2019-08-09T13:46:42Z</time>
      </trkpt>
      <trkpt lat="48.26395" lon="7.40547">
        <ele>182.7</ele>
        <time>2019-08-09T13:46:43Z</time>
      </trkpt>
      <trkpt lat="48.26393" lon="7.40542">
        <ele>182.7</ele>
        <time>2019-08-09T13:46:44Z</time>
      </trkpt>
      <trkpt lat="48.2639" lon="7.40538">
        <ele>182.7</ele>
        <time>2019-08-09T13:46:45Z</time>
      </trkpt>
      <trkpt lat="48.26388" lon="7.40533">
        <ele>182.7</ele>
        <time>2019-08-09T13:46:46Z</time>
      </trkpt>
      <trkpt lat="48.26385" lon="7.40529">
        <ele>182.7</ele>
        <time>2019-08-09T13:46:47Z</time>
      </trkpt>
      <trkpt lat="48.26382" lon="7.40525">
        <ele>182.7</ele>
        <time>2019-08-09T13:46:48Z</time>
      </trkpt>
      <trkpt lat="48.26379" lon="7.40523">
        <ele>182.7</ele>
        <time>2019-08-09T13:46:49Z</time>
      </trkpt>
      <trkpt lat="48.26375" lon="7.40519">
        <ele>182.7</ele>
        <time>2019-08-09T13:46:50Z</time>
      </trkpt>
      <trkpt lat="48.26371" lon="7.40516">
        <ele>182.7</ele>
        <time>2019-08-09T13:46:51Z</time>
      </trkpt>
      <trkpt lat="48.26368" lon="7.40514">
        <ele>182.7</ele>
        <time>2019-08-09T13:46:52Z</time>
      </trkpt>
      <trkpt lat="48.26365" lon="7.40513">
        <ele>182.7</ele>
        <time>2019-08-09T13:46:53Z</time>
      </trkpt>
      <trkpt lat="48.26362" lon="7.40511">
        <ele>182.7</ele>
        <time>2019-08-09T13:46:54Z</time>
      </trkpt>
      <trkpt lat="48.26359" lon="7.40509">
        <ele>182.7</ele>
        <time>2019-08-09T13:46:55Z</time>
      </trkpt>
      <trkpt lat="48.26356" lon="7.40508">
        <ele>182.7</ele>
        <time>2019-08-09T13:46:56Z</time>
      </trkpt>
      <trkpt lat="48.26353" lon="7.40506">
        <ele>182.7</ele>
        <time>2019-08-09T13:46:57Z</time>
      </trkpt>
      <trkpt lat="48.26349" lon="7.40505">
        <ele>182.7</ele>
        <time>2019-08-09T13:46:58Z</time>
      </trkpt>
      <trkpt lat="48.26344" lon="7.40505">
        <ele>182.7</ele>
        <time>2019-08-09T13:46:59Z</time>
      </trkpt>
      <trkpt lat="48.2634" lon="7.40505">
        <ele>182.7</ele>
        <time>2019-08-09T13:47:00Z</time>
      </trkpt>
      <trkpt lat="48.26335" lon="7.40503">
        <ele>182.7</ele>
        <time>2019-08-09T13:47:01Z</time>
      </trkpt>
      <trkpt lat="48.26331" lon="7.40503">
        <ele>182.7</ele>
        <time>2019-08-09T13:47:02Z</time>
      </trkpt>
      <trkpt lat="48.26326" lon="7.40502">
        <ele>182.7</ele>
        <time>2019-08-09T13:47:03Z</time>
      </trkpt>
      <trkpt lat="48.26323" lon="7.40501">
        <ele>182.7</ele>
        <time>2019-08-09T13:47:04Z</time>
      </trkpt>
      <trkpt lat="48.26319" lon="7.40501">
        <ele>182.7</ele>
        <time>2019-08-09T13:47:05Z</time>
      </trkpt>
      <trkpt lat="48.26315" lon="7.40501">
        <ele>182.7</ele>
        <time>2019-08-09T13:47:06Z</time>
      </trkpt>
      <trkpt lat="48.26311" lon="7.40502">
        <ele>182.7</ele>
        <time>2019-08-09T13:47:07Z</time>
      </trkpt>
      <trkpt lat="48.26308" lon="7.40501">
        <ele>182.7</ele>
        <time>2019-08-09T13:47:08Z</time>
      </trkpt>
      <trkpt lat="48.26305" lon="7.40502">
        <ele>182.7</ele>
        <time>2019-08-09T13:47:09Z</time>
      </trkpt>
      <trkpt lat="48.26301" lon="7.40502">
        <ele>182.7</ele>
        <time>2019-08-09T13:47:10Z</time>
      </trkpt>
      <trkpt lat="48.26297" lon="7.40502">
        <ele>182.7</ele>
        <time>2019-08-09T13:47:11Z</time>
      </trkpt>
      <trkpt lat="48.26294" lon="7.40502">
        <ele>182.7</ele>
        <time>2019-08-09T13:47:12Z</time>
      </trkpt>
      <trkpt lat="48.2629" lon="7.40502">
        <ele>182.7</ele>
        <time>2019-08-09T13:47:13Z</time>
      </trkpt>
      <trkpt lat="48.26286" lon="7.40501">
        <ele>182.7</ele>
        <time>2019-08-09T13:47:14Z</time>
      </trkpt>
      <trkpt lat="48.2628" lon="7.40502">
        <ele>182.7</ele>
        <time>2019-08-09T13:47:15Z</time>
      </trkpt>
      <trkpt lat="48.26275" lon="7.40503">
        <ele>182.7</ele>
        <time>2019-08-09T13:47:16Z</time>
      </trkpt>
      <trkpt lat="48.2627" lon="7.40504">
        <ele>182.7</ele>
        <time>2019-08-09T13:47:17Z</time>
      </trkpt>
      <trkpt lat="48.26266" lon="7.40505">
        <ele>182.7</ele>
        <time>2019-08-09T13:47:18Z</time>
      </trkpt>
      <trkpt lat="48.26262" lon="7.40505">
        <ele>182.7</ele>
        <time>2019-08-09T13:47:19Z</time>
      </trkpt>
      <trkpt lat="48.26258" lon="7.40505">
        <ele>182.7</ele>
        <time>2019-08-09T13:47:20Z</time>
      </trkpt>
      <trkpt lat="48.26254" lon="7.40506">
        <ele>182.7</ele>
        <time>2019-08-09T13:47:21Z</time>
      </trkpt>
      <trkpt lat="48.26249" lon="7.40506">
        <ele>182.7</ele>
        <time>2019-08-09T13:47:22Z</time>
      </trkpt>
      <trkpt lat="48.26245" lon="7.40506">
        <ele>182.7</ele>
        <time>2019-08-09T13:47:23Z</time>
      </trkpt>
      <trkpt lat="48.2624" lon="7.40506">
        <ele>182.7</ele>
        <time>2019-08-09T13:47:24Z</time>
      </trkpt>
      <trkpt lat="48.26236" lon="7.40506">
        <ele>182.8</ele>
        <time>2019-08-09T13:47:25Z</time>
      </trkpt>
      <trkpt lat="48.26232" lon="7.40505">
        <ele>182.9</ele>
        <time>2019-08-09T13:47:26Z</time>
      </trkpt>
      <trkpt lat="48.26228" lon="7.40504">
        <ele>183</ele>
        <time>2019-08-09T13:47:27Z</time>
      </trkpt>
      <trkpt lat="48.26224" lon="7.40505">
        <ele>183.1</ele>
        <time>2019-08-09T13:47:28Z</time>
      </trkpt>
      <trkpt lat="48.2622" lon="7.40505">
        <ele>183.2</ele>
        <time>2019-08-09T13:47:29Z</time>
      </trkpt>
      <trkpt lat="48.26216" lon="7.40505">
        <ele>183.4</ele>
        <time>2019-08-09T13:47:30Z</time>
      </trkpt>
      <trkpt lat="48.26211" lon="7.40505">
        <ele>183.5</ele>
        <time>2019-08-09T13:47:31Z</time>
      </trkpt>
      <trkpt lat="48.26207" lon="7.40505">
        <ele>183.6</ele>
        <time>2019-08-09T13:47:32Z</time>
      </trkpt>
      <trkpt lat="48.26203" lon="7.40505">
        <ele>183.8</ele>
        <time>2019-08-09T13:47:33Z</time>
      </trkpt>
      <trkpt lat="48.26198" lon="7.40505">
        <ele>183.9</ele>
        <time>2019-08-09T13:47:34Z</time>
      </trkpt>
      <trkpt lat="48.26193" lon="7.40505">
        <ele>184.1</ele>
        <time>2019-08-09T13:47:35Z</time>
      </trkpt>
      <trkpt lat="48.26189" lon="7.40506">
        <ele>184.1</ele>
        <time>2019-08-09T13:47:36Z</time>
      </trkpt>
      <trkpt lat="48.26185" lon="7.40507">
        <ele>184.2</ele>
        <time>2019-08-09T13:47:37Z</time>
      </trkpt>
      <trkpt lat="48.2618" lon="7.40507">
        <ele>184.2</ele>
        <time>2019-08-09T13:47:38Z</time>
      </trkpt>
      <trkpt lat="48.26176" lon="7.40507">
        <ele>184.3</ele>
        <time>2019-08-09T13:47:39Z</time>
      </trkpt>
      <trkpt lat="48.26172" lon="7.40507">
        <ele>184.3</ele>
        <time>2019-08-09T13:47:40Z</time>
      </trkpt>
      <trkpt lat="48.26169" lon="7.40507">
        <ele>184.4</ele>
        <time>2019-08-09T13:47:41Z</time>
      </trkpt>
      <trkpt lat="48.26165" lon="7.40506">
        <ele>184.4</ele>
        <time>2019-08-09T13:47:42Z</time>
      </trkpt>
      <trkpt lat="48.26162" lon="7.40507">
        <ele>184.5</ele>
        <time>2019-08-09T13:47:43Z</time>
      </trkpt>
      <trkpt lat="48.26158" lon="7.40508">
        <ele>184.6</ele>
        <time>2019-08-09T13:47:44Z</time>
      </trkpt>
      <trkpt lat="48.26154" lon="7.40508">
        <ele>184.6</ele>
        <time>2019-08-09T13:47:45Z</time>
      </trkpt>
      <trkpt lat="48.2615" lon="7.40508">
        <ele>184.6</ele>
        <time>2019-08-09T13:47:46Z</time>
      </trkpt>
      <trkpt lat="48.26146" lon="7.40508">
        <ele>184.7</ele>
        <time>2019-08-09T13:47:47Z</time>
      </trkpt>
      <trkpt lat="48.26143" lon="7.40506">
        <ele>184.7</ele>
        <time>2019-08-09T13:47:48Z</time>
      </trkpt>
      <trkpt lat="48.2614" lon="7.40505">
        <ele>184.7</ele>
        <time>2019-08-09T13:47:49Z</time>
      </trkpt>
      <trkpt lat="48.26136" lon="7.40503">
        <ele>184.7</ele>
        <time>2019-08-09T13:47:50Z</time>
      </trkpt>
      <trkpt lat="48.26133" lon="7.40501">
        <ele>184.8</ele>
        <time>2019-08-09T13:47:51Z</time>
      </trkpt>
      <trkpt lat="48.26129" lon="7.405">
        <ele>184.8</ele>
        <time>2019-08-09T13:47:52Z</time>
      </trkpt>
      <trkpt lat="48.26125" lon="7.40498">
        <ele>184.8</ele>
        <time>2019-08-09T13:47:53Z</time>
      </trkpt>
      <trkpt lat="48.26121" lon="7.40498">
        <ele>184.9</ele>
        <time>2019-08-09T13:47:54Z</time>
      </trkpt>
      <trkpt lat="48.26117" lon="7.40496">
        <ele>184.9</ele>
        <time>2019-08-09T13:47:55Z</time>
      </trkpt>
      <trkpt lat="48.26114" lon="7.40494">
        <ele>185</ele>
        <time>2019-08-09T13:47:56Z</time>
      </trkpt>
      <trkpt lat="48.2611" lon="7.40493">
        <ele>185.2</ele>
        <time>2019-08-09T13:47:57Z</time>
      </trkpt>
      <trkpt lat="48.26106" lon="7.4049">
        <ele>185.3</ele>
        <time>2019-08-09T13:47:58Z</time>
      </trkpt>
      <trkpt lat="48.26102" lon="7.40488">
        <ele>185.5</ele>
        <time>2019-08-09T13:47:59Z</time>
      </trkpt>
      <trkpt lat="48.261" lon="7.40484">
        <ele>185.6</ele>
        <time>2019-08-09T13:48:00Z</time>
      </trkpt>
      <trkpt lat="48.26098" lon="7.40481">
        <ele>186.1</ele>
        <time>2019-08-09T13:48:01Z</time>
      </trkpt>
      <trkpt lat="48.26095" lon="7.40476">
        <ele>186.2</ele>
        <time>2019-08-09T13:48:02Z</time>
      </trkpt>
      <trkpt lat="48.26093" lon="7.40471">
        <ele>186.3</ele>
        <time>2019-08-09T13:48:03Z</time>
      </trkpt>
      <trkpt lat="48.26092" lon="7.40465">
        <ele>186.4</ele>
        <time>2019-08-09T13:48:04Z</time>
      </trkpt>
      <trkpt lat="48.26092" lon="7.40459">
        <ele>186.6</ele>
        <time>2019-08-09T13:48:05Z</time>
      </trkpt>
      <trkpt lat="48.26091" lon="7.40453">
        <ele>186.7</ele>
        <time>2019-08-09T13:48:06Z</time>
      </trkpt>
      <trkpt lat="48.2609" lon="7.40448">
        <ele>186.8</ele>
        <time>2019-08-09T13:48:07Z</time>
      </trkpt>
      <trkpt lat="48.26089" lon="7.40443">
        <ele>186.9</ele>
        <time>2019-08-09T13:48:08Z</time>
      </trkpt>
      <trkpt lat="48.26085" lon="7.40436">
        <ele>187.1</ele>
        <time>2019-08-09T13:48:10Z</time>
      </trkpt>
      <trkpt lat="48.26082" lon="7.40435">
        <ele>187.2</ele>
        <time>2019-08-09T13:48:11Z</time>
      </trkpt>
      <trkpt lat="48.26078" lon="7.40433">
        <ele>187.3</ele>
        <time>2019-08-09T13:48:12Z</time>
      </trkpt>
      <trkpt lat="48.26074" lon="7.40431">
        <ele>187.4</ele>
        <time>2019-08-09T13:48:13Z</time>
      </trkpt>
      <trkpt lat="48.2607" lon="7.40428">
        <ele>187.5</ele>
        <time>2019-08-09T13:48:14Z</time>
      </trkpt>
      <trkpt lat="48.26067" lon="7.40426">
        <ele>187.7</ele>
        <time>2019-08-09T13:48:15Z</time>
      </trkpt>
      <trkpt lat="48.26063" lon="7.40425">
        <ele>187.8</ele>
        <time>2019-08-09T13:48:16Z</time>
      </trkpt>
      <trkpt lat="48.26059" lon="7.40423">
        <ele>187.9</ele>
        <time>2019-08-09T13:48:17Z</time>
      </trkpt>
      <trkpt lat="48.26056" lon="7.40422">
        <ele>188</ele>
        <time>2019-08-09T13:48:18Z</time>
      </trkpt>
      <trkpt lat="48.26053" lon="7.40419">
        <ele>188.1</ele>
        <time>2019-08-09T13:48:19Z</time>
      </trkpt>
      <trkpt lat="48.26049" lon="7.40418">
        <ele>188.2</ele>
        <time>2019-08-09T13:48:20Z</time>
      </trkpt>
      <trkpt lat="48.26046" lon="7.40414">
        <ele>188.4</ele>
        <time>2019-08-09T13:48:21Z</time>
      </trkpt>
      <trkpt lat="48.26044" lon="7.40412">
        <ele>188.4</ele>
        <time>2019-08-09T13:48:22Z</time>
      </trkpt>
      <trkpt lat="48.26042" lon="7.40409">
        <ele>188.5</ele>
        <time>2019-08-09T13:48:23Z</time>
      </trkpt>
      <trkpt lat="48.26039" lon="7.40405">
        <ele>188.6</ele>
        <time>2019-08-09T13:48:24Z</time>
      </trkpt>
      <trkpt lat="48.26037" lon="7.404">
        <ele>188.8</ele>
        <time>2019-08-09T13:48:25Z</time>
      </trkpt>
      <trkpt lat="48.26035" lon="7.40397">
        <ele>188.9</ele>
        <time>2019-08-09T13:48:26Z</time>
      </trkpt>
      <trkpt lat="48.26031" lon="7.4039">
        <ele>189</ele>
        <time>2019-08-09T13:48:28Z</time>
      </trkpt>
      <trkpt lat="48.26029" lon="7.40386">
        <ele>189.1</ele>
        <time>2019-08-09T13:48:29Z</time>
      </trkpt>
      <trkpt lat="48.26027" lon="7.40382">
        <ele>189.2</ele>
        <time>2019-08-09T13:48:30Z</time>
      </trkpt>
      <trkpt lat="48.26023" lon="7.40377">
        <ele>189.4</ele>
        <time>2019-08-09T13:48:32Z</time>
      </trkpt>
      <trkpt lat="48.26019" lon="7.4037">
        <ele>189.5</ele>
        <time>2019-08-09T13:48:34Z</time>
      </trkpt>
      <trkpt lat="48.26017" lon="7.40366">
        <ele>189.6</ele>
        <time>2019-08-09T13:48:35Z</time>
      </trkpt>
      <trkpt lat="48.26014" lon="7.40361">
        <ele>189.7</ele>
        <time>2019-08-09T13:48:36Z</time>
      </trkpt>
      <trkpt lat="48.26012" lon="7.40357">
        <ele>189.7</ele>
        <time>2019-08-09T13:48:37Z</time>
      </trkpt>
      <trkpt lat="48.2601" lon="7.40353">
        <ele>189.8</ele>
        <time>2019-08-09T13:48:38Z</time>
      </trkpt>
      <trkpt lat="48.26006" lon="7.4035">
        <ele>189.9</ele>
        <time>2019-08-09T13:48:39Z</time>
      </trkpt>
      <trkpt lat="48.26004" lon="7.40346">
        <ele>190</ele>
        <time>2019-08-09T13:48:40Z</time>
      </trkpt>
      <trkpt lat="48.26002" lon="7.40342">
        <ele>190.1</ele>
        <time>2019-08-09T13:48:41Z</time>
      </trkpt>
      <trkpt lat="48.26" lon="7.40339">
        <ele>190.2</ele>
        <time>2019-08-09T13:48:42Z</time>
      </trkpt>
      <trkpt lat="48.25997" lon="7.40332">
        <ele>190.4</ele>
        <time>2019-08-09T13:48:44Z</time>
      </trkpt>
      <trkpt lat="48.25995" lon="7.40328">
        <ele>190.5</ele>
        <time>2019-08-09T13:48:45Z</time>
      </trkpt>
      <trkpt lat="48.25992" lon="7.40324">
        <ele>190.6</ele>
        <time>2019-08-09T13:48:46Z</time>
      </trkpt>
      <trkpt lat="48.25991" lon="7.4032">
        <ele>190.7</ele>
        <time>2019-08-09T13:48:47Z</time>
      </trkpt>
      <trkpt lat="48.25988" lon="7.40317">
        <ele>190.8</ele>
        <time>2019-08-09T13:48:48Z</time>
      </trkpt>
      <trkpt lat="48.25986" lon="7.40313">
        <ele>190.8</ele>
        <time>2019-08-09T13:48:49Z</time>
      </trkpt>
      <trkpt lat="48.25985" lon="7.4031">
        <ele>190.9</ele>
        <time>2019-08-09T13:48:50Z</time>
      </trkpt>
      <trkpt lat="48.25983" lon="7.40306">
        <ele>191</ele>
        <time>2019-08-09T13:48:51Z</time>
      </trkpt>
      <trkpt lat="48.25981" lon="7.40302">
        <ele>191.1</ele>
        <time>2019-08-09T13:48:52Z</time>
      </trkpt>
      <trkpt lat="48.25978" lon="7.40295">
        <ele>191.2</ele>
        <time>2019-08-09T13:48:54Z</time>
      </trkpt>
      <trkpt lat="48.25975" lon="7.40289">
        <ele>191.4</ele>
        <time>2019-08-09T13:48:56Z</time>
      </trkpt>
      <trkpt lat="48.25974" lon="7.40285">
        <ele>191.5</ele>
        <time>2019-08-09T13:48:57Z</time>
      </trkpt>
      <trkpt lat="48.25972" lon="7.40281">
        <ele>191.6</ele>
        <time>2019-08-09T13:48:58Z</time>
      </trkpt>
      <trkpt lat="48.25971" lon="7.40276">
        <ele>191.7</ele>
        <time>2019-08-09T13:48:59Z</time>
      </trkpt>
      <trkpt lat="48.25969" lon="7.40272">
        <ele>191.8</ele>
        <time>2019-08-09T13:49:00Z</time>
      </trkpt>
      <trkpt lat="48.25966" lon="7.40267">
        <ele>192</ele>
        <time>2019-08-09T13:49:01Z</time>
      </trkpt>
      <trkpt lat="48.25965" lon="7.40263">
        <ele>192.1</ele>
        <time>2019-08-09T13:49:02Z</time>
      </trkpt>
      <trkpt lat="48.25963" lon="7.40259">
        <ele>192.2</ele>
        <time>2019-08-09T13:49:03Z</time>
      </trkpt>
      <trkpt lat="48.25961" lon="7.40255">
        <ele>192.3</ele>
        <time>2019-08-09T13:49:04Z</time>
      </trkpt>
      <trkpt lat="48.25959" lon="7.40251">
        <ele>192.4</ele>
        <time>2019-08-09T13:49:05Z</time>
      </trkpt>
      <trkpt lat="48.25957" lon="7.40247">
        <ele>192.5</ele>
        <time>2019-08-09T13:49:06Z</time>
      </trkpt>
      <trkpt lat="48.25956" lon="7.40243">
        <ele>192.6</ele>
        <time>2019-08-09T13:49:07Z</time>
      </trkpt>
      <trkpt lat="48.25953" lon="7.40237">
        <ele>192.8</ele>
        <time>2019-08-09T13:49:09Z</time>
      </trkpt>
      <trkpt lat="48.2595" lon="7.40229">
        <ele>192.9</ele>
        <time>2019-08-09T13:49:11Z</time>
      </trkpt>
      <trkpt lat="48.25948" lon="7.40226">
        <ele>193</ele>
        <time>2019-08-09T13:49:12Z</time>
      </trkpt>
      <trkpt lat="48.25947" lon="7.40221">
        <ele>193.1</ele>
        <time>2019-08-09T13:49:13Z</time>
      </trkpt>
      <trkpt lat="48.25944" lon="7.40217">
        <ele>193.2</ele>
        <time>2019-08-09T13:49:14Z</time>
      </trkpt>
      <trkpt lat="48.25942" lon="7.40214">
        <ele>193.3</ele>
        <time>2019-08-09T13:49:15Z</time>
      </trkpt>
      <trkpt lat="48.2594" lon="7.4021">
        <ele>193.4</ele>
        <time>2019-08-09T13:49:16Z</time>
      </trkpt>
      <trkpt lat="48.25938" lon="7.40206">
        <ele>193.6</ele>
        <time>2019-08-09T13:49:17Z</time>
      </trkpt>
      <trkpt lat="48.25936" lon="7.40202">
        <ele>193.7</ele>
        <time>2019-08-09T13:49:18Z</time>
      </trkpt>
      <trkpt lat="48.25934" lon="7.40199">
        <ele>193.9</ele>
        <time>2019-08-09T13:49:19Z</time>
      </trkpt>
      <trkpt lat="48.25931" lon="7.40191">
        <ele>194.1</ele>
        <time>2019-08-09T13:49:21Z</time>
      </trkpt>
      <trkpt lat="48.25929" lon="7.40187">
        <ele>194.2</ele>
        <time>2019-08-09T13:49:22Z</time>
      </trkpt>
      <trkpt lat="48.25927" lon="7.40182">
        <ele>194.4</ele>
        <time>2019-08-09T13:49:23Z</time>
      </trkpt>
      <trkpt lat="48.25925" lon="7.40177">
        <ele>194.5</ele>
        <time>2019-08-09T13:49:24Z</time>
      </trkpt>
      <trkpt lat="48.25923" lon="7.40173">
        <ele>194.6</ele>
        <time>2019-08-09T13:49:25Z</time>
      </trkpt>
      <trkpt lat="48.25922" lon="7.40168">
        <ele>194.8</ele>
        <time>2019-08-09T13:49:26Z</time>
      </trkpt>
      <trkpt lat="48.2592" lon="7.40164">
        <ele>194.9</ele>
        <time>2019-08-09T13:49:27Z</time>
      </trkpt>
      <trkpt lat="48.25918" lon="7.40161">
        <ele>195</ele>
        <time>2019-08-09T13:49:28Z</time>
      </trkpt>
      <trkpt lat="48.25916" lon="7.40157">
        <ele>195.1</ele>
        <time>2019-08-09T13:49:29Z</time>
      </trkpt>
      <trkpt lat="48.25914" lon="7.40153">
        <ele>195.1</ele>
        <time>2019-08-09T13:49:30Z</time>
      </trkpt>
      <trkpt lat="48.25911" lon="7.40145">
        <ele>195.1</ele>
        <time>2019-08-09T13:49:32Z</time>
      </trkpt>
      <trkpt lat="48.2591" lon="7.40141">
        <ele>195.1</ele>
        <time>2019-08-09T13:49:33Z</time>
      </trkpt>
      <trkpt lat="48.25909" lon="7.40136">
        <ele>195.1</ele>
        <time>2019-08-09T13:49:34Z</time>
      </trkpt>
      <trkpt lat="48.25908" lon="7.40133">
        <ele>195.1</ele>
        <time>2019-08-09T13:49:35Z</time>
      </trkpt>
      <trkpt lat="48.25905" lon="7.40126">
        <ele>195.1</ele>
        <time>2019-08-09T13:49:37Z</time>
      </trkpt>
      <trkpt lat="48.25903" lon="7.40122">
        <ele>195.1</ele>
        <time>2019-08-09T13:49:38Z</time>
      </trkpt>
      <trkpt lat="48.25902" lon="7.40118">
        <ele>195.1</ele>
        <time>2019-08-09T13:49:39Z</time>
      </trkpt>
      <trkpt lat="48.259" lon="7.40113">
        <ele>195.1</ele>
        <time>2019-08-09T13:49:40Z</time>
      </trkpt>
      <trkpt lat="48.25898" lon="7.40109">
        <ele>195.1</ele>
        <time>2019-08-09T13:49:41Z</time>
      </trkpt>
      <trkpt lat="48.25896" lon="7.40104">
        <ele>195.1</ele>
        <time>2019-08-09T13:49:43Z</time>
      </trkpt>
      <trkpt lat="48.25894" lon="7.40099">
        <ele>195.2</ele>
        <time>2019-08-09T13:49:45Z</time>
      </trkpt>
      <trkpt lat="48.2589" lon="7.40096">
        <ele>195.3</ele>
        <time>2019-08-09T13:49:47Z</time>
      </trkpt>
      <trkpt lat="48.25885" lon="7.40095">
        <ele>195.4</ele>
        <time>2019-08-09T13:49:49Z</time>
      </trkpt>
      <trkpt lat="48.25881" lon="7.40092">
        <ele>195.5</ele>
        <time>2019-08-09T13:49:51Z</time>
      </trkpt>
      <trkpt lat="48.25877" lon="7.40092">
        <ele>195.6</ele>
        <time>2019-08-09T13:49:53Z</time>
      </trkpt>
      <trkpt lat="48.25875" lon="7.4009">
        <ele>195.6</ele>
        <time>2019-08-09T13:49:58Z</time>
      </trkpt>
      <trkpt lat="48.25872" lon="7.40086">
        <ele>195.7</ele>
        <time>2019-08-09T13:50:00Z</time>
      </trkpt>
      <trkpt lat="48.2587" lon="7.40083">
        <ele>195.8</ele>
        <time>2019-08-09T13:50:01Z</time>
      </trkpt>
      <trkpt lat="48.25867" lon="7.40079">
        <ele>195.8</ele>
        <time>2019-08-09T13:50:03Z</time>
      </trkpt>
      <trkpt lat="48.25865" lon="7.40076">
        <ele>195.9</ele>
        <time>2019-08-09T13:50:04Z</time>
      </trkpt>
      <trkpt lat="48.25862" lon="7.40074">
        <ele>195.9</ele>
        <time>2019-08-09T13:50:05Z</time>
      </trkpt>
      <trkpt lat="48.25859" lon="7.4007">
        <ele>196</ele>
        <time>2019-08-09T13:50:06Z</time>
      </trkpt>
      <trkpt lat="48.25857" lon="7.40066">
        <ele>196</ele>
        <time>2019-08-09T13:50:07Z</time>
      </trkpt>
      <trkpt lat="48.25854" lon="7.40063">
        <ele>196.1</ele>
        <time>2019-08-09T13:50:08Z</time>
      </trkpt>
      <trkpt lat="48.25851" lon="7.4006">
        <ele>196.1</ele>
        <time>2019-08-09T13:50:09Z</time>
      </trkpt>
      <trkpt lat="48.25848" lon="7.40058">
        <ele>196.2</ele>
        <time>2019-08-09T13:50:10Z</time>
      </trkpt>
      <trkpt lat="48.25845" lon="7.40056">
        <ele>196.2</ele>
        <time>2019-08-09T13:50:11Z</time>
      </trkpt>
      <trkpt lat="48.25843" lon="7.40054">
        <ele>196.3</ele>
        <time>2019-08-09T13:50:12Z</time>
      </trkpt>
      <trkpt lat="48.2584" lon="7.40052">
        <ele>196.3</ele>
        <time>2019-08-09T13:50:13Z</time>
      </trkpt>
      <trkpt lat="48.25837" lon="7.4005">
        <ele>196.4</ele>
        <time>2019-08-09T13:50:14Z</time>
      </trkpt>
      <trkpt lat="48.25834" lon="7.40048">
        <ele>196.4</ele>
        <time>2019-08-09T13:50:15Z</time>
      </trkpt>
      <trkpt lat="48.25831" lon="7.40045">
        <ele>196.4</ele>
        <time>2019-08-09T13:50:16Z</time>
      </trkpt>
      <trkpt lat="48.25828" lon="7.40042">
        <ele>196.5</ele>
        <time>2019-08-09T13:50:17Z</time>
      </trkpt>
      <trkpt lat="48.25825" lon="7.40039">
        <ele>196.5</ele>
        <time>2019-08-09T13:50:18Z</time>
      </trkpt>
      <trkpt lat="48.25822" lon="7.40036">
        <ele>196.6</ele>
        <time>2019-08-09T13:50:19Z</time>
      </trkpt>
      <trkpt lat="48.2582" lon="7.40034">
        <ele>196.6</ele>
        <time>2019-08-09T13:50:20Z</time>
      </trkpt>
      <trkpt lat="48.25817" lon="7.4003">
        <ele>196.6</ele>
        <time>2019-08-09T13:50:21Z</time>
      </trkpt>
      <trkpt lat="48.25813" lon="7.40028">
        <ele>196.7</ele>
        <time>2019-08-09T13:50:22Z</time>
      </trkpt>
      <trkpt lat="48.2581" lon="7.40025">
        <ele>196.7</ele>
        <time>2019-08-09T13:50:23Z</time>
      </trkpt>
      <trkpt lat="48.25806" lon="7.40023">
        <ele>196.7</ele>
        <time>2019-08-09T13:50:24Z</time>
      </trkpt>
      <trkpt lat="48.25802" lon="7.4002">
        <ele>196.7</ele>
        <time>2019-08-09T13:50:25Z</time>
      </trkpt>
      <trkpt lat="48.25798" lon="7.40017">
        <ele>196.8</ele>
        <time>2019-08-09T13:50:26Z</time>
      </trkpt>
      <trkpt lat="48.25795" lon="7.40014">
        <ele>196.8</ele>
        <time>2019-08-09T13:50:27Z</time>
      </trkpt>
      <trkpt lat="48.25791" lon="7.40013">
        <ele>196.8</ele>
        <time>2019-08-09T13:50:28Z</time>
      </trkpt>
      <trkpt lat="48.25788" lon="7.40011">
        <ele>196.8</ele>
        <time>2019-08-09T13:50:29Z</time>
      </trkpt>
      <trkpt lat="48.25784" lon="7.40009">
        <ele>196.8</ele>
        <time>2019-08-09T13:50:30Z</time>
      </trkpt>
      <trkpt lat="48.25781" lon="7.40008">
        <ele>196.8</ele>
        <time>2019-08-09T13:50:31Z</time>
      </trkpt>
      <trkpt lat="48.25778" lon="7.40006">
        <ele>196.8</ele>
        <time>2019-08-09T13:50:32Z</time>
      </trkpt>
      <trkpt lat="48.25775" lon="7.40004">
        <ele>196.8</ele>
        <time>2019-08-09T13:50:33Z</time>
      </trkpt>
      <trkpt lat="48.25772" lon="7.40002">
        <ele>196.8</ele>
        <time>2019-08-09T13:50:34Z</time>
      </trkpt>
      <trkpt lat="48.25768" lon="7.40001">
        <ele>196.8</ele>
        <time>2019-08-09T13:50:35Z</time>
      </trkpt>
      <trkpt lat="48.25765" lon="7.39998">
        <ele>196.8</ele>
        <time>2019-08-09T13:50:36Z</time>
      </trkpt>
      <trkpt lat="48.25762" lon="7.39996">
        <ele>196.8</ele>
        <time>2019-08-09T13:50:37Z</time>
      </trkpt>
      <trkpt lat="48.25758" lon="7.39995">
        <ele>196.8</ele>
        <time>2019-08-09T13:50:38Z</time>
      </trkpt>
      <trkpt lat="48.25754" lon="7.39994">
        <ele>196.7</ele>
        <time>2019-08-09T13:50:39Z</time>
      </trkpt>
      <trkpt lat="48.25751" lon="7.39993">
        <ele>196.7</ele>
        <time>2019-08-09T13:50:40Z</time>
      </trkpt>
      <trkpt lat="48.25747" lon="7.39991">
        <ele>196.7</ele>
        <time>2019-08-09T13:50:41Z</time>
      </trkpt>
      <trkpt lat="48.25743" lon="7.39989">
        <ele>196.6</ele>
        <time>2019-08-09T13:50:42Z</time>
      </trkpt>
      <trkpt lat="48.25739" lon="7.39987">
        <ele>196.6</ele>
        <time>2019-08-09T13:50:43Z</time>
      </trkpt>
      <trkpt lat="48.25735" lon="7.39986">
        <ele>196.6</ele>
        <time>2019-08-09T13:50:44Z</time>
      </trkpt>
      <trkpt lat="48.25731" lon="7.39985">
        <ele>196.5</ele>
        <time>2019-08-09T13:50:45Z</time>
      </trkpt>
      <trkpt lat="48.25727" lon="7.39983">
        <ele>196.5</ele>
        <time>2019-08-09T13:50:46Z</time>
      </trkpt>
      <trkpt lat="48.25723" lon="7.39981">
        <ele>196.4</ele>
        <time>2019-08-09T13:50:47Z</time>
      </trkpt>
      <trkpt lat="48.25719" lon="7.39979">
        <ele>196.4</ele>
        <time>2019-08-09T13:50:48Z</time>
      </trkpt>
      <trkpt lat="48.25714" lon="7.39977">
        <ele>196.3</ele>
        <time>2019-08-09T13:50:49Z</time>
      </trkpt>
      <trkpt lat="48.2571" lon="7.39976">
        <ele>196.3</ele>
        <time>2019-08-09T13:50:50Z</time>
      </trkpt>
      <trkpt lat="48.25706" lon="7.39974">
        <ele>196.2</ele>
        <time>2019-08-09T13:50:51Z</time>
      </trkpt>
      <trkpt lat="48.25701" lon="7.39972">
        <ele>196.2</ele>
        <time>2019-08-09T13:50:52Z</time>
      </trkpt>
      <trkpt lat="48.25697" lon="7.3997">
        <ele>196.1</ele>
        <time>2019-08-09T13:50:53Z</time>
      </trkpt>
      <trkpt lat="48.25693" lon="7.39969">
        <ele>196.1</ele>
        <time>2019-08-09T13:50:54Z</time>
      </trkpt>
      <trkpt lat="48.25688" lon="7.39968">
        <ele>196</ele>
        <time>2019-08-09T13:50:55Z</time>
      </trkpt>
      <trkpt lat="48.25684" lon="7.39967">
        <ele>196</ele>
        <time>2019-08-09T13:50:56Z</time>
      </trkpt>
      <trkpt lat="48.2568" lon="7.39965">
        <ele>196</ele>
        <time>2019-08-09T13:50:57Z</time>
      </trkpt>
      <trkpt lat="48.25676" lon="7.39963">
        <ele>195.9</ele>
        <time>2019-08-09T13:50:58Z</time>
      </trkpt>
      <trkpt lat="48.25672" lon="7.3996">
        <ele>195.9</ele>
        <time>2019-08-09T13:50:59Z</time>
      </trkpt>
      <trkpt lat="48.25668" lon="7.39958">
        <ele>195.8</ele>
        <time>2019-08-09T13:51:00Z</time>
      </trkpt>
      <trkpt lat="48.25665" lon="7.39955">
        <ele>195.8</ele>
        <time>2019-08-09T13:51:01Z</time>
      </trkpt>
      <trkpt lat="48.25661" lon="7.39952">
        <ele>195.7</ele>
        <time>2019-08-09T13:51:02Z</time>
      </trkpt>
      <trkpt lat="48.25657" lon="7.3995">
        <ele>195.7</ele>
        <time>2019-08-09T13:51:03Z</time>
      </trkpt>
      <trkpt lat="48.25652" lon="7.39947">
        <ele>195.6</ele>
        <time>2019-08-09T13:51:04Z</time>
      </trkpt>
      <trkpt lat="48.25648" lon="7.39946">
        <ele>195.6</ele>
        <time>2019-08-09T13:51:05Z</time>
      </trkpt>
      <trkpt lat="48.25643" lon="7.39945">
        <ele>195.5</ele>
        <time>2019-08-09T13:51:06Z</time>
      </trkpt>
      <trkpt lat="48.25639" lon="7.39945">
        <ele>195.5</ele>
        <time>2019-08-09T13:51:07Z</time>
      </trkpt>
      <trkpt lat="48.25635" lon="7.39945">
        <ele>195.4</ele>
        <time>2019-08-09T13:51:08Z</time>
      </trkpt>
      <trkpt lat="48.2563" lon="7.39945">
        <ele>195.4</ele>
        <time>2019-08-09T13:51:09Z</time>
      </trkpt>
      <trkpt lat="48.25625" lon="7.39944">
        <ele>195.3</ele>
        <time>2019-08-09T13:51:10Z</time>
      </trkpt>
      <trkpt lat="48.25621" lon="7.39944">
        <ele>195.3</ele>
        <time>2019-08-09T13:51:11Z</time>
      </trkpt>
      <trkpt lat="48.25616" lon="7.39944">
        <ele>195.2</ele>
        <time>2019-08-09T13:51:12Z</time>
      </trkpt>
      <trkpt lat="48.25611" lon="7.39944">
        <ele>195.2</ele>
        <time>2019-08-09T13:51:13Z</time>
      </trkpt>
      <trkpt lat="48.25607" lon="7.39944">
        <ele>195.1</ele>
        <time>2019-08-09T13:51:14Z</time>
      </trkpt>
      <trkpt lat="48.25602" lon="7.39945">
        <ele>195.1</ele>
        <time>2019-08-09T13:51:15Z</time>
      </trkpt>
      <trkpt lat="48.25597" lon="7.39946">
        <ele>195</ele>
        <time>2019-08-09T13:51:16Z</time>
      </trkpt>
      <trkpt lat="48.25592" lon="7.39947">
        <ele>195</ele>
        <time>2019-08-09T13:51:17Z</time>
      </trkpt>
      <trkpt lat="48.25587" lon="7.39947">
        <ele>194.9</ele>
        <time>2019-08-09T13:51:18Z</time>
      </trkpt>
      <trkpt lat="48.25583" lon="7.39946">
        <ele>194.9</ele>
        <time>2019-08-09T13:51:19Z</time>
      </trkpt>
      <trkpt lat="48.25579" lon="7.39946">
        <ele>195</ele>
        <time>2019-08-09T13:51:20Z</time>
      </trkpt>
      <trkpt lat="48.25575" lon="7.39947">
        <ele>195</ele>
        <time>2019-08-09T13:51:21Z</time>
      </trkpt>
      <trkpt lat="48.25571" lon="7.39946">
        <ele>195</ele>
        <time>2019-08-09T13:51:22Z</time>
      </trkpt>
      <trkpt lat="48.25566" lon="7.39944">
        <ele>195</ele>
        <time>2019-08-09T13:51:23Z</time>
      </trkpt>
      <trkpt lat="48.25562" lon="7.39943">
        <ele>195</ele>
        <time>2019-08-09T13:51:24Z</time>
      </trkpt>
      <trkpt lat="48.25558" lon="7.39942">
        <ele>195</ele>
        <time>2019-08-09T13:51:25Z</time>
      </trkpt>
      <trkpt lat="48.25553" lon="7.39941">
        <ele>195.1</ele>
        <time>2019-08-09T13:51:26Z</time>
      </trkpt>
      <trkpt lat="48.25549" lon="7.39942">
        <ele>195.1</ele>
        <time>2019-08-09T13:51:27Z</time>
      </trkpt>
      <trkpt lat="48.25545" lon="7.39942">
        <ele>195.1</ele>
        <time>2019-08-09T13:51:28Z</time>
      </trkpt>
      <trkpt lat="48.25541" lon="7.39942">
        <ele>195.1</ele>
        <time>2019-08-09T13:51:29Z</time>
      </trkpt>
      <trkpt lat="48.25538" lon="7.39942">
        <ele>195.1</ele>
        <time>2019-08-09T13:51:30Z</time>
      </trkpt>
      <trkpt lat="48.25534" lon="7.3994">
        <ele>195.2</ele>
        <time>2019-08-09T13:51:31Z</time>
      </trkpt>
      <trkpt lat="48.2553" lon="7.3994">
        <ele>195.3</ele>
        <time>2019-08-09T13:51:32Z</time>
      </trkpt>
      <trkpt lat="48.25526" lon="7.39939">
        <ele>195.5</ele>
        <time>2019-08-09T13:51:33Z</time>
      </trkpt>
      <trkpt lat="48.25521" lon="7.39938">
        <ele>195.6</ele>
        <time>2019-08-09T13:51:34Z</time>
      </trkpt>
      <trkpt lat="48.25516" lon="7.39938">
        <ele>195.8</ele>
        <time>2019-08-09T13:51:35Z</time>
      </trkpt>
      <trkpt lat="48.25511" lon="7.39937">
        <ele>195.9</ele>
        <time>2019-08-09T13:51:36Z</time>
      </trkpt>
      <trkpt lat="48.25506" lon="7.39936">
        <ele>196</ele>
        <time>2019-08-09T13:51:37Z</time>
      </trkpt>
      <trkpt lat="48.25502" lon="7.39934">
        <ele>196.1</ele>
        <time>2019-08-09T13:51:38Z</time>
      </trkpt>
      <trkpt lat="48.25499" lon="7.39933">
        <ele>196.1</ele>
        <time>2019-08-09T13:51:39Z</time>
      </trkpt>
      <trkpt lat="48.25495" lon="7.39931">
        <ele>196.1</ele>
        <time>2019-08-09T13:51:40Z</time>
      </trkpt>
      <trkpt lat="48.25491" lon="7.39931">
        <ele>196.2</ele>
        <time>2019-08-09T13:51:41Z</time>
      </trkpt>
      <trkpt lat="48.25486" lon="7.3993">
        <ele>196.2</ele>
        <time>2019-08-09T13:51:42Z</time>
      </trkpt>
      <trkpt lat="48.25481" lon="7.39928">
        <ele>196.2</ele>
        <time>2019-08-09T13:51:43Z</time>
      </trkpt>
      <trkpt lat="48.25477" lon="7.39927">
        <ele>196.2</ele>
        <time>2019-08-09T13:51:44Z</time>
      </trkpt>
      <trkpt lat="48.25471" lon="7.39927">
        <ele>196.3</ele>
        <time>2019-08-09T13:51:45Z</time>
      </trkpt>
      <trkpt lat="48.25466" lon="7.39927">
        <ele>196.3</ele>
        <time>2019-08-09T13:51:46Z</time>
      </trkpt>
      <trkpt lat="48.25462" lon="7.39926">
        <ele>196.3</ele>
        <time>2019-08-09T13:51:47Z</time>
      </trkpt>
      <trkpt lat="48.25457" lon="7.39925">
        <ele>196.3</ele>
        <time>2019-08-09T13:51:48Z</time>
      </trkpt>
      <trkpt lat="48.25453" lon="7.39924">
        <ele>196.3</ele>
        <time>2019-08-09T13:51:49Z</time>
      </trkpt>
      <trkpt lat="48.25448" lon="7.39923">
        <ele>196.4</ele>
        <time>2019-08-09T13:51:50Z</time>
      </trkpt>
      <trkpt lat="48.25443" lon="7.39922">
        <ele>196.4</ele>
        <time>2019-08-09T13:51:51Z</time>
      </trkpt>
      <trkpt lat="48.25439" lon="7.3992">
        <ele>196.4</ele>
        <time>2019-08-09T13:51:52Z</time>
      </trkpt>
      <trkpt lat="48.25435" lon="7.39918">
        <ele>196.4</ele>
        <time>2019-08-09T13:51:53Z</time>
      </trkpt>
      <trkpt lat="48.2543" lon="7.39917">
        <ele>196.4</ele>
        <time>2019-08-09T13:51:54Z</time>
      </trkpt>
      <trkpt lat="48.25426" lon="7.39915">
        <ele>196.4</ele>
        <time>2019-08-09T13:51:55Z</time>
      </trkpt>
      <trkpt lat="48.25421" lon="7.39914">
        <ele>196.4</ele>
        <time>2019-08-09T13:51:56Z</time>
      </trkpt>
      <trkpt lat="48.25416" lon="7.39913">
        <ele>196.4</ele>
        <time>2019-08-09T13:51:57Z</time>
      </trkpt>
      <trkpt lat="48.25412" lon="7.39911">
        <ele>196.4</ele>
        <time>2019-08-09T13:51:58Z</time>
      </trkpt>
      <trkpt lat="48.25407" lon="7.39909">
        <ele>196.5</ele>
        <time>2019-08-09T13:51:59Z</time>
      </trkpt>
      <trkpt lat="48.25403" lon="7.39906">
        <ele>196.6</ele>
        <time>2019-08-09T13:52:00Z</time>
      </trkpt>
      <trkpt lat="48.25398" lon="7.39905">
        <ele>196.7</ele>
        <time>2019-08-09T13:52:01Z</time>
      </trkpt>
      <trkpt lat="48.25394" lon="7.39903">
        <ele>196.8</ele>
        <time>2019-08-09T13:52:02Z</time>
      </trkpt>
      <trkpt lat="48.2539" lon="7.39901">
        <ele>196.9</ele>
        <time>2019-08-09T13:52:03Z</time>
      </trkpt>
      <trkpt lat="48.25385" lon="7.39899">
        <ele>197</ele>
        <time>2019-08-09T13:52:04Z</time>
      </trkpt>
      <trkpt lat="48.25381" lon="7.39896">
        <ele>197.1</ele>
        <time>2019-08-09T13:52:05Z</time>
      </trkpt>
      <trkpt lat="48.25378" lon="7.39894">
        <ele>197.2</ele>
        <time>2019-08-09T13:52:06Z</time>
      </trkpt>
      <trkpt lat="48.25375" lon="7.39891">
        <ele>197.2</ele>
        <time>2019-08-09T13:52:07Z</time>
      </trkpt>
      <trkpt lat="48.25371" lon="7.39889">
        <ele>197.2</ele>
        <time>2019-08-09T13:52:08Z</time>
      </trkpt>
      <trkpt lat="48.25367" lon="7.39884">
        <ele>197.1</ele>
        <time>2019-08-09T13:52:09Z</time>
      </trkpt>
      <trkpt lat="48.25363" lon="7.39881">
        <ele>197.1</ele>
        <time>2019-08-09T13:52:10Z</time>
      </trkpt>
      <trkpt lat="48.25361" lon="7.39878">
        <ele>197</ele>
        <time>2019-08-09T13:52:11Z</time>
      </trkpt>
      <trkpt lat="48.25358" lon="7.39875">
        <ele>197</ele>
        <time>2019-08-09T13:52:13Z</time>
      </trkpt>
      <trkpt lat="48.25355" lon="7.39872">
        <ele>197</ele>
        <time>2019-08-09T13:52:16Z</time>
      </trkpt>
      <trkpt lat="48.25351" lon="7.3987">
        <ele>196.9</ele>
        <time>2019-08-09T13:52:18Z</time>
      </trkpt>
      <trkpt lat="48.25348" lon="7.39868">
        <ele>197</ele>
        <time>2019-08-09T13:52:19Z</time>
      </trkpt>
      <trkpt lat="48.25347" lon="7.39865">
        <ele>197</ele>
        <time>2019-08-09T13:52:20Z</time>
      </trkpt>
      <trkpt lat="48.25344" lon="7.39862">
        <ele>197</ele>
        <time>2019-08-09T13:52:21Z</time>
      </trkpt>
      <trkpt lat="48.25342" lon="7.39859">
        <ele>197</ele>
        <time>2019-08-09T13:52:22Z</time>
      </trkpt>
      <trkpt lat="48.2534" lon="7.39855">
        <ele>197</ele>
        <time>2019-08-09T13:52:23Z</time>
      </trkpt>
      <trkpt lat="48.25337" lon="7.39851">
        <ele>197</ele>
        <time>2019-08-09T13:52:24Z</time>
      </trkpt>
      <trkpt lat="48.25334" lon="7.39849">
        <ele>197</ele>
        <time>2019-08-09T13:52:25Z</time>
      </trkpt>
      <trkpt lat="48.2533" lon="7.39847">
        <ele>197</ele>
        <time>2019-08-09T13:52:26Z</time>
      </trkpt>
      <trkpt lat="48.25327" lon="7.39845">
        <ele>197</ele>
        <time>2019-08-09T13:52:27Z</time>
      </trkpt>
      <trkpt lat="48.25323" lon="7.39842">
        <ele>197.1</ele>
        <time>2019-08-09T13:52:28Z</time>
      </trkpt>
      <trkpt lat="48.2532" lon="7.3984">
        <ele>197.1</ele>
        <time>2019-08-09T13:52:29Z</time>
      </trkpt>
      <trkpt lat="48.25317" lon="7.39837">
        <ele>197.1</ele>
        <time>2019-08-09T13:52:30Z</time>
      </trkpt>
      <trkpt lat="48.25314" lon="7.39835">
        <ele>197.1</ele>
        <time>2019-08-09T13:52:31Z</time>
      </trkpt>
      <trkpt lat="48.2531" lon="7.39833">
        <ele>197.1</ele>
        <time>2019-08-09T13:52:32Z</time>
      </trkpt>
      <trkpt lat="48.25306" lon="7.39831">
        <ele>197.1</ele>
        <time>2019-08-09T13:52:33Z</time>
      </trkpt>
      <trkpt lat="48.25303" lon="7.39829">
        <ele>197.2</ele>
        <time>2019-08-09T13:52:34Z</time>
      </trkpt>
      <trkpt lat="48.25299" lon="7.39827">
        <ele>197.2</ele>
        <time>2019-08-09T13:52:35Z</time>
      </trkpt>
      <trkpt lat="48.25295" lon="7.39826">
        <ele>197.2</ele>
        <time>2019-08-09T13:52:36Z</time>
      </trkpt>
      <trkpt lat="48.2529" lon="7.39824">
        <ele>197.3</ele>
        <time>2019-08-09T13:52:37Z</time>
      </trkpt>
      <trkpt lat="48.25286" lon="7.39823">
        <ele>197.3</ele>
        <time>2019-08-09T13:52:38Z</time>
      </trkpt>
      <trkpt lat="48.25282" lon="7.39822">
        <ele>197.3</ele>
        <time>2019-08-09T13:52:39Z</time>
      </trkpt>
      <trkpt lat="48.25278" lon="7.3982">
        <ele>197.4</ele>
        <time>2019-08-09T13:52:40Z</time>
      </trkpt>
      <trkpt lat="48.25275" lon="7.39816">
        <ele>197.4</ele>
        <time>2019-08-09T13:52:41Z</time>
      </trkpt>
      <trkpt lat="48.25271" lon="7.39814">
        <ele>197.4</ele>
        <time>2019-08-09T13:52:42Z</time>
      </trkpt>
      <trkpt lat="48.25268" lon="7.39812">
        <ele>197.4</ele>
        <time>2019-08-09T13:52:43Z</time>
      </trkpt>
      <trkpt lat="48.25265" lon="7.3981">
        <ele>197.4</ele>
        <time>2019-08-09T13:52:44Z</time>
      </trkpt>
      <trkpt lat="48.25262" lon="7.39807">
        <ele>197.4</ele>
        <time>2019-08-09T13:52:45Z</time>
      </trkpt>
      <trkpt lat="48.25259" lon="7.39803">
        <ele>197.3</ele>
        <time>2019-08-09T13:52:46Z</time>
      </trkpt>
      <trkpt lat="48.25256" lon="7.398">
        <ele>197.3</ele>
        <time>2019-08-09T13:52:47Z</time>
      </trkpt>
      <trkpt lat="48.25253" lon="7.39797">
        <ele>197.3</ele>
        <time>2019-08-09T13:52:48Z</time>
      </trkpt>
      <trkpt lat="48.2525" lon="7.39795">
        <ele>197.3</ele>
        <time>2019-08-09T13:52:49Z</time>
      </trkpt>
      <trkpt lat="48.25245" lon="7.39793">
        <ele>197.3</ele>
        <time>2019-08-09T13:52:50Z</time>
      </trkpt>
      <trkpt lat="48.25241" lon="7.3979">
        <ele>197.2</ele>
        <time>2019-08-09T13:52:51Z</time>
      </trkpt>
      <trkpt lat="48.25236" lon="7.39789">
        <ele>197.2</ele>
        <time>2019-08-09T13:52:52Z</time>
      </trkpt>
      <trkpt lat="48.25232" lon="7.39789">
        <ele>197.2</ele>
        <time>2019-08-09T13:52:53Z</time>
      </trkpt>
      <trkpt lat="48.25228" lon="7.39787">
        <ele>197.2</ele>
        <time>2019-08-09T13:52:54Z</time>
      </trkpt>
      <trkpt lat="48.25224" lon="7.39784">
        <ele>197.2</ele>
        <time>2019-08-09T13:52:55Z</time>
      </trkpt>
      <trkpt lat="48.25219" lon="7.39782">
        <ele>197.1</ele>
        <time>2019-08-09T13:52:56Z</time>
      </trkpt>
      <trkpt lat="48.25214" lon="7.39781">
        <ele>197</ele>
        <time>2019-08-09T13:52:57Z</time>
      </trkpt>
      <trkpt lat="48.2521" lon="7.3978">
        <ele>197</ele>
        <time>2019-08-09T13:52:58Z</time>
      </trkpt>
      <trkpt lat="48.25205" lon="7.39778">
        <ele>196.9</ele>
        <time>2019-08-09T13:52:59Z</time>
      </trkpt>
      <trkpt lat="48.25201" lon="7.39776">
        <ele>196.8</ele>
        <time>2019-08-09T13:53:00Z</time>
      </trkpt>
      <trkpt lat="48.25197" lon="7.39773">
        <ele>196.8</ele>
        <time>2019-08-09T13:53:01Z</time>
      </trkpt>
      <trkpt lat="48.25193" lon="7.39772">
        <ele>196.7</ele>
        <time>2019-08-09T13:53:02Z</time>
      </trkpt>
      <trkpt lat="48.2519" lon="7.39771">
        <ele>196.7</ele>
        <time>2019-08-09T13:53:03Z</time>
      </trkpt>
      <trkpt lat="48.25186" lon="7.39769">
        <ele>196.6</ele>
        <time>2019-08-09T13:53:04Z</time>
      </trkpt>
      <trkpt lat="48.25182" lon="7.39769">
        <ele>196.6</ele>
        <time>2019-08-09T13:53:05Z</time>
      </trkpt>
      <trkpt lat="48.25178" lon="7.39768">
        <ele>196.5</ele>
        <time>2019-08-09T13:53:06Z</time>
      </trkpt>
      <trkpt lat="48.25173" lon="7.39768">
        <ele>196.5</ele>
        <time>2019-08-09T13:53:07Z</time>
      </trkpt>
      <trkpt lat="48.2517" lon="7.39767">
        <ele>196.5</ele>
        <time>2019-08-09T13:53:08Z</time>
      </trkpt>
      <trkpt lat="48.25166" lon="7.39765">
        <ele>196.4</ele>
        <time>2019-08-09T13:53:09Z</time>
      </trkpt>
      <trkpt lat="48.25162" lon="7.39763">
        <ele>196.4</ele>
        <time>2019-08-09T13:53:10Z</time>
      </trkpt>
      <trkpt lat="48.25157" lon="7.39761">
        <ele>196.3</ele>
        <time>2019-08-09T13:53:11Z</time>
      </trkpt>
      <trkpt lat="48.25153" lon="7.39759">
        <ele>196.3</ele>
        <time>2019-08-09T13:53:12Z</time>
      </trkpt>
      <trkpt lat="48.25149" lon="7.39758">
        <ele>196.3</ele>
        <time>2019-08-09T13:53:13Z</time>
      </trkpt>
      <trkpt lat="48.25145" lon="7.39755">
        <ele>196.2</ele>
        <time>2019-08-09T13:53:14Z</time>
      </trkpt>
      <trkpt lat="48.25141" lon="7.39754">
        <ele>196.2</ele>
        <time>2019-08-09T13:53:15Z</time>
      </trkpt>
      <trkpt lat="48.25137" lon="7.39752">
        <ele>196.2</ele>
        <time>2019-08-09T13:53:16Z</time>
      </trkpt>
      <trkpt lat="48.25132" lon="7.3975">
        <ele>196.2</ele>
        <time>2019-08-09T13:53:17Z</time>
      </trkpt>
      <trkpt lat="48.25128" lon="7.39748">
        <ele>196.2</ele>
        <time>2019-08-09T13:53:18Z</time>
      </trkpt>
      <trkpt lat="48.25124" lon="7.39746">
        <ele>196.2</ele>
        <time>2019-08-09T13:53:19Z</time>
      </trkpt>
      <trkpt lat="48.2512" lon="7.39745">
        <ele>196.2</ele>
        <time>2019-08-09T13:53:20Z</time>
      </trkpt>
      <trkpt lat="48.25116" lon="7.39744">
        <ele>196.2</ele>
        <time>2019-08-09T13:53:21Z</time>
      </trkpt>
      <trkpt lat="48.25111" lon="7.39743">
        <ele>196.2</ele>
        <time>2019-08-09T13:53:22Z</time>
      </trkpt>
      <trkpt lat="48.25107" lon="7.3974">
        <ele>196.2</ele>
        <time>2019-08-09T13:53:23Z</time>
      </trkpt>
      <trkpt lat="48.25102" lon="7.39739">
        <ele>196.2</ele>
        <time>2019-08-09T13:53:24Z</time>
      </trkpt>
      <trkpt lat="48.25097" lon="7.39737">
        <ele>196.2</ele>
        <time>2019-08-09T13:53:25Z</time>
      </trkpt>
      <trkpt lat="48.25092" lon="7.39735">
        <ele>196.2</ele>
        <time>2019-08-09T13:53:26Z</time>
      </trkpt>
      <trkpt lat="48.25087" lon="7.39733">
        <ele>196.1</ele>
        <time>2019-08-09T13:53:27Z</time>
      </trkpt>
      <trkpt lat="48.25083" lon="7.39731">
        <ele>196.1</ele>
        <time>2019-08-09T13:53:28Z</time>
      </trkpt>
      <trkpt lat="48.25078" lon="7.39729">
        <ele>196.1</ele>
        <time>2019-08-09T13:53:29Z</time>
      </trkpt>
      <trkpt lat="48.25073" lon="7.39726">
        <ele>196.1</ele>
        <time>2019-08-09T13:53:30Z</time>
      </trkpt>
      <trkpt lat="48.25068" lon="7.39724">
        <ele>196.1</ele>
        <time>2019-08-09T13:53:31Z</time>
      </trkpt>
      <trkpt lat="48.25066" lon="7.39722">
        <ele>196.1</ele>
        <time>2019-08-09T13:53:32Z</time>
      </trkpt>
      <trkpt lat="48.25063" lon="7.39719">
        <ele>196.1</ele>
        <time>2019-08-09T13:53:33Z</time>
      </trkpt>
      <trkpt lat="48.25059" lon="7.39716">
        <ele>196.1</ele>
        <time>2019-08-09T13:53:34Z</time>
      </trkpt>
      <trkpt lat="48.25055" lon="7.39714">
        <ele>196.1</ele>
        <time>2019-08-09T13:53:35Z</time>
      </trkpt>
      <trkpt lat="48.25051" lon="7.39712">
        <ele>196</ele>
        <time>2019-08-09T13:53:36Z</time>
      </trkpt>
      <trkpt lat="48.25048" lon="7.3971">
        <ele>196</ele>
        <time>2019-08-09T13:53:37Z</time>
      </trkpt>
      <trkpt lat="48.25045" lon="7.39704">
        <ele>195.7</ele>
        <time>2019-08-09T13:53:39Z</time>
      </trkpt>
      <trkpt lat="48.25042" lon="7.39699">
        <ele>195.5</ele>
        <time>2019-08-09T13:53:41Z</time>
      </trkpt>
      <trkpt lat="48.25038" lon="7.39694">
        <ele>195.3</ele>
        <time>2019-08-09T13:53:43Z</time>
      </trkpt>
      <trkpt lat="48.25035" lon="7.39694">
        <ele>195.3</ele>
        <time>2019-08-09T13:53:44Z</time>
      </trkpt>
      <trkpt lat="48.25031" lon="7.39691">
        <ele>195.1</ele>
        <time>2019-08-09T13:53:46Z</time>
      </trkpt>
      <trkpt lat="48.25027" lon="7.39691">
        <ele>195.1</ele>
        <time>2019-08-09T13:53:47Z</time>
      </trkpt>
      <trkpt lat="48.25024" lon="7.39691">
        <ele>195.1</ele>
        <time>2019-08-09T13:53:48Z</time>
      </trkpt>
      <trkpt lat="48.2502" lon="7.39689">
        <ele>195</ele>
        <time>2019-08-09T13:53:49Z</time>
      </trkpt>
      <trkpt lat="48.25016" lon="7.39688">
        <ele>195</ele>
        <time>2019-08-09T13:53:50Z</time>
      </trkpt>
      <trkpt lat="48.25013" lon="7.39687">
        <ele>195</ele>
        <time>2019-08-09T13:53:51Z</time>
      </trkpt>
      <trkpt lat="48.25009" lon="7.39685">
        <ele>195</ele>
        <time>2019-08-09T13:53:52Z</time>
      </trkpt>
      <trkpt lat="48.25006" lon="7.39684">
        <ele>195</ele>
        <time>2019-08-09T13:53:53Z</time>
      </trkpt>
      <trkpt lat="48.25002" lon="7.39682">
        <ele>195</ele>
        <time>2019-08-09T13:53:54Z</time>
      </trkpt>
      <trkpt lat="48.24999" lon="7.3968">
        <ele>195</ele>
        <time>2019-08-09T13:53:55Z</time>
      </trkpt>
      <trkpt lat="48.24995" lon="7.39679">
        <ele>195</ele>
        <time>2019-08-09T13:53:56Z</time>
      </trkpt>
      <trkpt lat="48.24991" lon="7.39677">
        <ele>195</ele>
        <time>2019-08-09T13:53:57Z</time>
      </trkpt>
      <trkpt lat="48.24987" lon="7.39675">
        <ele>195</ele>
        <time>2019-08-09T13:53:58Z</time>
      </trkpt>
      <trkpt lat="48.24983" lon="7.39674">
        <ele>195</ele>
        <time>2019-08-09T13:53:59Z</time>
      </trkpt>
      <trkpt lat="48.24979" lon="7.39673">
        <ele>195</ele>
        <time>2019-08-09T13:54:00Z</time>
      </trkpt>
      <trkpt lat="48.24975" lon="7.39671">
        <ele>195</ele>
        <time>2019-08-09T13:54:01Z</time>
      </trkpt>
      <trkpt lat="48.2497" lon="7.39668">
        <ele>195</ele>
        <time>2019-08-09T13:54:02Z</time>
      </trkpt>
      <trkpt lat="48.24966" lon="7.39666">
        <ele>195</ele>
        <time>2019-08-09T13:54:03Z</time>
      </trkpt>
      <trkpt lat="48.24962" lon="7.39664">
        <ele>195</ele>
        <time>2019-08-09T13:54:04Z</time>
      </trkpt>
      <trkpt lat="48.24958" lon="7.39662">
        <ele>194.9</ele>
        <time>2019-08-09T13:54:05Z</time>
      </trkpt>
      <trkpt lat="48.24955" lon="7.39661">
        <ele>194.9</ele>
        <time>2019-08-09T13:54:06Z</time>
      </trkpt>
      <trkpt lat="48.24951" lon="7.39659">
        <ele>194.9</ele>
        <time>2019-08-09T13:54:07Z</time>
      </trkpt>
      <trkpt lat="48.24947" lon="7.39657">
        <ele>194.9</ele>
        <time>2019-08-09T13:54:08Z</time>
      </trkpt>
      <trkpt lat="48.24943" lon="7.39656">
        <ele>194.9</ele>
        <time>2019-08-09T13:54:09Z</time>
      </trkpt>
      <trkpt lat="48.24939" lon="7.39656">
        <ele>194.9</ele>
        <time>2019-08-09T13:54:10Z</time>
      </trkpt>
      <trkpt lat="48.24934" lon="7.39654">
        <ele>194.9</ele>
        <time>2019-08-09T13:54:11Z</time>
      </trkpt>
      <trkpt lat="48.2493" lon="7.39654">
        <ele>194.8</ele>
        <time>2019-08-09T13:54:12Z</time>
      </trkpt>
      <trkpt lat="48.24925" lon="7.39653">
        <ele>194.8</ele>
        <time>2019-08-09T13:54:13Z</time>
      </trkpt>
      <trkpt lat="48.24921" lon="7.39652">
        <ele>194.8</ele>
        <time>2019-08-09T13:54:14Z</time>
      </trkpt>
      <trkpt lat="48.24917" lon="7.3965">
        <ele>194.8</ele>
        <time>2019-08-09T13:54:15Z</time>
      </trkpt>
      <trkpt lat="48.24913" lon="7.39649">
        <ele>194.7</ele>
        <time>2019-08-09T13:54:16Z</time>
      </trkpt>
      <trkpt lat="48.24909" lon="7.39646">
        <ele>194.7</ele>
        <time>2019-08-09T13:54:17Z</time>
      </trkpt>
      <trkpt lat="48.24905" lon="7.39644">
        <ele>194.7</ele>
        <time>2019-08-09T13:54:18Z</time>
      </trkpt>
      <trkpt lat="48.249" lon="7.39643">
        <ele>194.7</ele>
        <time>2019-08-09T13:54:19Z</time>
      </trkpt>
      <trkpt lat="48.24896" lon="7.39642">
        <ele>194.8</ele>
        <time>2019-08-09T13:54:20Z</time>
      </trkpt>
      <trkpt lat="48.24891" lon="7.39641">
        <ele>194.8</ele>
        <time>2019-08-09T13:54:21Z</time>
      </trkpt>
      <trkpt lat="48.24887" lon="7.3964">
        <ele>194.8</ele>
        <time>2019-08-09T13:54:22Z</time>
      </trkpt>
      <trkpt lat="48.24882" lon="7.39639">
        <ele>194.8</ele>
        <time>2019-08-09T13:54:23Z</time>
      </trkpt>
      <trkpt lat="48.24878" lon="7.39639">
        <ele>194.9</ele>
        <time>2019-08-09T13:54:24Z</time>
      </trkpt>
      <trkpt lat="48.24873" lon="7.3964">
        <ele>194.9</ele>
        <time>2019-08-09T13:54:25Z</time>
      </trkpt>
      <trkpt lat="48.24868" lon="7.39641">
        <ele>194.9</ele>
        <time>2019-08-09T13:54:26Z</time>
      </trkpt>
      <trkpt lat="48.24863" lon="7.39641">
        <ele>194.9</ele>
        <time>2019-08-09T13:54:27Z</time>
      </trkpt>
      <trkpt lat="48.24859" lon="7.39643">
        <ele>195</ele>
        <time>2019-08-09T13:54:28Z</time>
      </trkpt>
      <trkpt lat="48.24855" lon="7.39644">
        <ele>195</ele>
        <time>2019-08-09T13:54:29Z</time>
      </trkpt>
      <trkpt lat="48.2485" lon="7.39645">
        <ele>195</ele>
        <time>2019-08-09T13:54:30Z</time>
      </trkpt>
      <trkpt lat="48.24846" lon="7.39646">
        <ele>195.1</ele>
        <time>2019-08-09T13:54:31Z</time>
      </trkpt>
      <trkpt lat="48.24842" lon="7.39648">
        <ele>195.1</ele>
        <time>2019-08-09T13:54:32Z</time>
      </trkpt>
      <trkpt lat="48.24838" lon="7.3965">
        <ele>195.1</ele>
        <time>2019-08-09T13:54:33Z</time>
      </trkpt>
      <trkpt lat="48.24834" lon="7.39651">
        <ele>195.1</ele>
        <time>2019-08-09T13:54:34Z</time>
      </trkpt>
      <trkpt lat="48.24831" lon="7.39651">
        <ele>195.2</ele>
        <time>2019-08-09T13:54:35Z</time>
      </trkpt>
      <trkpt lat="48.24827" lon="7.39652">
        <ele>195.2</ele>
        <time>2019-08-09T13:54:36Z</time>
      </trkpt>
      <trkpt lat="48.24823" lon="7.39654">
        <ele>195.2</ele>
        <time>2019-08-09T13:54:37Z</time>
      </trkpt>
      <trkpt lat="48.24818" lon="7.39655">
        <ele>195.3</ele>
        <time>2019-08-09T13:54:38Z</time>
      </trkpt>
      <trkpt lat="48.24814" lon="7.39656">
        <ele>195.3</ele>
        <time>2019-08-09T13:54:39Z</time>
      </trkpt>
      <trkpt lat="48.2481" lon="7.39657">
        <ele>195.3</ele>
        <time>2019-08-09T13:54:40Z</time>
      </trkpt>
      <trkpt lat="48.24805" lon="7.39659">
        <ele>195.4</ele>
        <time>2019-08-09T13:54:41Z</time>
      </trkpt>
      <trkpt lat="48.24802" lon="7.39661">
        <ele>195.4</ele>
        <time>2019-08-09T13:54:42Z</time>
      </trkpt>
      <trkpt lat="48.24798" lon="7.39662">
        <ele>195.4</ele>
        <time>2019-08-09T13:54:43Z</time>
      </trkpt>
      <trkpt lat="48.24793" lon="7.39662">
        <ele>195.4</ele>
        <time>2019-08-09T13:54:44Z</time>
      </trkpt>
      <trkpt lat="48.24789" lon="7.39662">
        <ele>195.4</ele>
        <time>2019-08-09T13:54:45Z</time>
      </trkpt>
      <trkpt lat="48.24783" lon="7.39663">
        <ele>195.4</ele>
        <time>2019-08-09T13:54:46Z</time>
      </trkpt>
      <trkpt lat="48.24779" lon="7.39663">
        <ele>195.4</ele>
        <time>2019-08-09T13:54:47Z</time>
      </trkpt>
      <trkpt lat="48.24775" lon="7.39664">
        <ele>195.4</ele>
        <time>2019-08-09T13:54:48Z</time>
      </trkpt>
      <trkpt lat="48.2477" lon="7.39664">
        <ele>195.4</ele>
        <time>2019-08-09T13:54:49Z</time>
      </trkpt>
      <trkpt lat="48.24766" lon="7.39664">
        <ele>195.4</ele>
        <time>2019-08-09T13:54:50Z</time>
      </trkpt>
      <trkpt lat="48.24762" lon="7.39664">
        <ele>195.3</ele>
        <time>2019-08-09T13:54:51Z</time>
      </trkpt>
      <trkpt lat="48.24757" lon="7.39663">
        <ele>195.3</ele>
        <time>2019-08-09T13:54:52Z</time>
      </trkpt>
      <trkpt lat="48.24751" lon="7.39664">
        <ele>195.3</ele>
        <time>2019-08-09T13:54:53Z</time>
      </trkpt>
      <trkpt lat="48.24746" lon="7.39665">
        <ele>195.2</ele>
        <time>2019-08-09T13:54:54Z</time>
      </trkpt>
      <trkpt lat="48.24741" lon="7.39666">
        <ele>195.2</ele>
        <time>2019-08-09T13:54:55Z</time>
      </trkpt>
      <trkpt lat="48.24736" lon="7.39667">
        <ele>195.2</ele>
        <time>2019-08-09T13:54:56Z</time>
      </trkpt>
      <trkpt lat="48.24731" lon="7.39667">
        <ele>195.1</ele>
        <time>2019-08-09T13:54:57Z</time>
      </trkpt>
      <trkpt lat="48.24726" lon="7.39667">
        <ele>195.1</ele>
        <time>2019-08-09T13:54:58Z</time>
      </trkpt>
      <trkpt lat="48.24721" lon="7.39667">
        <ele>195</ele>
        <time>2019-08-09T13:54:59Z</time>
      </trkpt>
      <trkpt lat="48.24716" lon="7.39668">
        <ele>195</ele>
        <time>2019-08-09T13:55:00Z</time>
      </trkpt>
      <trkpt lat="48.24711" lon="7.39668">
        <ele>194.9</ele>
        <time>2019-08-09T13:55:01Z</time>
      </trkpt>
      <trkpt lat="48.24705" lon="7.39668">
        <ele>194.9</ele>
        <time>2019-08-09T13:55:02Z</time>
      </trkpt>
      <trkpt lat="48.247" lon="7.39668">
        <ele>194.9</ele>
        <time>2019-08-09T13:55:03Z</time>
      </trkpt>
      <trkpt lat="48.24695" lon="7.39667">
        <ele>194.8</ele>
        <time>2019-08-09T13:55:04Z</time>
      </trkpt>
      <trkpt lat="48.2469" lon="7.39668">
        <ele>194.8</ele>
        <time>2019-08-09T13:55:05Z</time>
      </trkpt>
      <trkpt lat="48.24686" lon="7.39668">
        <ele>194.7</ele>
        <time>2019-08-09T13:55:06Z</time>
      </trkpt>
      <trkpt lat="48.24681" lon="7.39668">
        <ele>194.7</ele>
        <time>2019-08-09T13:55:07Z</time>
      </trkpt>
      <trkpt lat="48.24676" lon="7.39668">
        <ele>194.7</ele>
        <time>2019-08-09T13:55:08Z</time>
      </trkpt>
      <trkpt lat="48.2467" lon="7.39668">
        <ele>194.6</ele>
        <time>2019-08-09T13:55:09Z</time>
      </trkpt>
      <trkpt lat="48.24665" lon="7.39669">
        <ele>194.6</ele>
        <time>2019-08-09T13:55:10Z</time>
      </trkpt>
      <trkpt lat="48.2466" lon="7.3967">
        <ele>194.6</ele>
        <time>2019-08-09T13:55:11Z</time>
      </trkpt>
      <trkpt lat="48.24655" lon="7.39671">
        <ele>194.5</ele>
        <time>2019-08-09T13:55:12Z</time>
      </trkpt>
      <trkpt lat="48.2465" lon="7.39672">
        <ele>194.5</ele>
        <time>2019-08-09T13:55:13Z</time>
      </trkpt>
      <trkpt lat="48.24646" lon="7.39673">
        <ele>194.5</ele>
        <time>2019-08-09T13:55:14Z</time>
      </trkpt>
      <trkpt lat="48.24642" lon="7.39673">
        <ele>194.4</ele>
        <time>2019-08-09T13:55:15Z</time>
      </trkpt>
      <trkpt lat="48.24638" lon="7.39674">
        <ele>194.4</ele>
        <time>2019-08-09T13:55:16Z</time>
      </trkpt>
      <trkpt lat="48.24634" lon="7.39673">
        <ele>194.4</ele>
        <time>2019-08-09T13:55:17Z</time>
      </trkpt>
      <trkpt lat="48.24629" lon="7.39672">
        <ele>194.5</ele>
        <time>2019-08-09T13:55:18Z</time>
      </trkpt>
      <trkpt lat="48.24625" lon="7.39672">
        <ele>194.5</ele>
        <time>2019-08-09T13:55:19Z</time>
      </trkpt>
      <trkpt lat="48.2462" lon="7.39671">
        <ele>194.5</ele>
        <time>2019-08-09T13:55:20Z</time>
      </trkpt>
      <trkpt lat="48.24616" lon="7.39669">
        <ele>194.6</ele>
        <time>2019-08-09T13:55:21Z</time>
      </trkpt>
      <trkpt lat="48.24612" lon="7.39667">
        <ele>194.6</ele>
        <time>2019-08-09T13:55:22Z</time>
      </trkpt>
      <trkpt lat="48.24607" lon="7.39665">
        <ele>194.6</ele>
        <time>2019-08-09T13:55:23Z</time>
      </trkpt>
      <trkpt lat="48.24603" lon="7.39663">
        <ele>194.7</ele>
        <time>2019-08-09T13:55:24Z</time>
      </trkpt>
      <trkpt lat="48.24599" lon="7.39662">
        <ele>194.7</ele>
        <time>2019-08-09T13:55:25Z</time>
      </trkpt>
      <trkpt lat="48.24594" lon="7.39661">
        <ele>194.7</ele>
        <time>2019-08-09T13:55:26Z</time>
      </trkpt>
      <trkpt lat="48.24589" lon="7.3966">
        <ele>194.8</ele>
        <time>2019-08-09T13:55:27Z</time>
      </trkpt>
      <trkpt lat="48.24584" lon="7.3966">
        <ele>194.8</ele>
        <time>2019-08-09T13:55:28Z</time>
      </trkpt>
      <trkpt lat="48.24579" lon="7.39659">
        <ele>194.8</ele>
        <time>2019-08-09T13:55:29Z</time>
      </trkpt>
      <trkpt lat="48.24575" lon="7.39658">
        <ele>194.9</ele>
        <time>2019-08-09T13:55:30Z</time>
      </trkpt>
      <trkpt lat="48.24571" lon="7.39657">
        <ele>194.9</ele>
        <time>2019-08-09T13:55:31Z</time>
      </trkpt>
      <trkpt lat="48.24567" lon="7.39656">
        <ele>194.9</ele>
        <time>2019-08-09T13:55:32Z</time>
      </trkpt>
      <trkpt lat="48.24562" lon="7.39656">
        <ele>195</ele>
        <time>2019-08-09T13:55:33Z</time>
      </trkpt>
      <trkpt lat="48.24557" lon="7.39655">
        <ele>195</ele>
        <time>2019-08-09T13:55:34Z</time>
      </trkpt>
      <trkpt lat="48.24553" lon="7.39654">
        <ele>195</ele>
        <time>2019-08-09T13:55:35Z</time>
      </trkpt>
      <trkpt lat="48.24548" lon="7.39653">
        <ele>195.1</ele>
        <time>2019-08-09T13:55:36Z</time>
      </trkpt>
      <trkpt lat="48.24544" lon="7.39651">
        <ele>195.1</ele>
        <time>2019-08-09T13:55:37Z</time>
      </trkpt>
      <trkpt lat="48.2454" lon="7.3965">
        <ele>195.1</ele>
        <time>2019-08-09T13:55:38Z</time>
      </trkpt>
      <trkpt lat="48.24536" lon="7.39649">
        <ele>195.1</ele>
        <time>2019-08-09T13:55:39Z</time>
      </trkpt>
      <trkpt lat="48.24532" lon="7.39647">
        <ele>195.2</ele>
        <time>2019-08-09T13:55:40Z</time>
      </trkpt>
      <trkpt lat="48.24527" lon="7.39646">
        <ele>195.2</ele>
        <time>2019-08-09T13:55:41Z</time>
      </trkpt>
      <trkpt lat="48.24523" lon="7.39644">
        <ele>195.2</ele>
        <time>2019-08-09T13:55:42Z</time>
      </trkpt>
      <trkpt lat="48.24519" lon="7.39643">
        <ele>195.3</ele>
        <time>2019-08-09T13:55:43Z</time>
      </trkpt>
      <trkpt lat="48.24514" lon="7.39642">
        <ele>195.3</ele>
        <time>2019-08-09T13:55:44Z</time>
      </trkpt>
      <trkpt lat="48.24509" lon="7.39641">
        <ele>195.3</ele>
        <time>2019-08-09T13:55:45Z</time>
      </trkpt>
      <trkpt lat="48.24504" lon="7.3964">
        <ele>195.3</ele>
        <time>2019-08-09T13:55:46Z</time>
      </trkpt>
      <trkpt lat="48.245" lon="7.39639">
        <ele>195.4</ele>
        <time>2019-08-09T13:55:47Z</time>
      </trkpt>
      <trkpt lat="48.24495" lon="7.39637">
        <ele>195.4</ele>
        <time>2019-08-09T13:55:48Z</time>
      </trkpt>
      <trkpt lat="48.24491" lon="7.39636">
        <ele>195.4</ele>
        <time>2019-08-09T13:55:49Z</time>
      </trkpt>
      <trkpt lat="48.24487" lon="7.39635">
        <ele>195.5</ele>
        <time>2019-08-09T13:55:50Z</time>
      </trkpt>
      <trkpt lat="48.24483" lon="7.39633">
        <ele>195.5</ele>
        <time>2019-08-09T13:55:51Z</time>
      </trkpt>
      <trkpt lat="48.24479" lon="7.39631">
        <ele>195.5</ele>
        <time>2019-08-09T13:55:52Z</time>
      </trkpt>
      <trkpt lat="48.24474" lon="7.39629">
        <ele>195.5</ele>
        <time>2019-08-09T13:55:53Z</time>
      </trkpt>
      <trkpt lat="48.2447" lon="7.39627">
        <ele>195.6</ele>
        <time>2019-08-09T13:55:54Z</time>
      </trkpt>
      <trkpt lat="48.24465" lon="7.39626">
        <ele>195.6</ele>
        <time>2019-08-09T13:55:55Z</time>
      </trkpt>
      <trkpt lat="48.2446" lon="7.39624">
        <ele>195.6</ele>
        <time>2019-08-09T13:55:56Z</time>
      </trkpt>
      <trkpt lat="48.24456" lon="7.39623">
        <ele>195.7</ele>
        <time>2019-08-09T13:55:57Z</time>
      </trkpt>
      <trkpt lat="48.24451" lon="7.39623">
        <ele>195.7</ele>
        <time>2019-08-09T13:55:58Z</time>
      </trkpt>
      <trkpt lat="48.24447" lon="7.39622">
        <ele>195.7</ele>
        <time>2019-08-09T13:55:59Z</time>
      </trkpt>
      <trkpt lat="48.24442" lon="7.39621">
        <ele>195.7</ele>
        <time>2019-08-09T13:56:00Z</time>
      </trkpt>
      <trkpt lat="48.24438" lon="7.3962">
        <ele>195.8</ele>
        <time>2019-08-09T13:56:01Z</time>
      </trkpt>
      <trkpt lat="48.24434" lon="7.39619">
        <ele>195.8</ele>
        <time>2019-08-09T13:56:02Z</time>
      </trkpt>
      <trkpt lat="48.2443" lon="7.39618">
        <ele>195.8</ele>
        <time>2019-08-09T13:56:03Z</time>
      </trkpt>
      <trkpt lat="48.24426" lon="7.39617">
        <ele>195.8</ele>
        <time>2019-08-09T13:56:04Z</time>
      </trkpt>
      <trkpt lat="48.24422" lon="7.39616">
        <ele>195.9</ele>
        <time>2019-08-09T13:56:05Z</time>
      </trkpt>
      <trkpt lat="48.24418" lon="7.39613">
        <ele>195.9</ele>
        <time>2019-08-09T13:56:06Z</time>
      </trkpt>
      <trkpt lat="48.24414" lon="7.39614">
        <ele>195.9</ele>
        <time>2019-08-09T13:56:07Z</time>
      </trkpt>
      <trkpt lat="48.24411" lon="7.39613">
        <ele>195.9</ele>
        <time>2019-08-09T13:56:08Z</time>
      </trkpt>
      <trkpt lat="48.24407" lon="7.39612">
        <ele>196</ele>
        <time>2019-08-09T13:56:10Z</time>
      </trkpt>
      <trkpt lat="48.24401" lon="7.39611">
        <ele>196</ele>
        <time>2019-08-09T13:56:12Z</time>
      </trkpt>
      <trkpt lat="48.24397" lon="7.3961">
        <ele>196</ele>
        <time>2019-08-09T13:56:13Z</time>
      </trkpt>
      <trkpt lat="48.24394" lon="7.3961">
        <ele>196</ele>
        <time>2019-08-09T13:56:14Z</time>
      </trkpt>
      <trkpt lat="48.2439" lon="7.3961">
        <ele>196.1</ele>
        <time>2019-08-09T13:56:15Z</time>
      </trkpt>
      <trkpt lat="48.24386" lon="7.3961">
        <ele>196.1</ele>
        <time>2019-08-09T13:56:16Z</time>
      </trkpt>
      <trkpt lat="48.24383" lon="7.39609">
        <ele>196.1</ele>
        <time>2019-08-09T13:56:17Z</time>
      </trkpt>
      <trkpt lat="48.24379" lon="7.39608">
        <ele>196.1</ele>
        <time>2019-08-09T13:56:18Z</time>
      </trkpt>
      <trkpt lat="48.24375" lon="7.39608">
        <ele>196.1</ele>
        <time>2019-08-09T13:56:19Z</time>
      </trkpt>
      <trkpt lat="48.24371" lon="7.39608">
        <ele>196.2</ele>
        <time>2019-08-09T13:56:20Z</time>
      </trkpt>
      <trkpt lat="48.24368" lon="7.39607">
        <ele>196.2</ele>
        <time>2019-08-09T13:56:21Z</time>
      </trkpt>
      <trkpt lat="48.24364" lon="7.39607">
        <ele>196.2</ele>
        <time>2019-08-09T13:56:22Z</time>
      </trkpt>
      <trkpt lat="48.2436" lon="7.39607">
        <ele>196.2</ele>
        <time>2019-08-09T13:56:23Z</time>
      </trkpt>
      <trkpt lat="48.24356" lon="7.39607">
        <ele>196.3</ele>
        <time>2019-08-09T13:56:24Z</time>
      </trkpt>
      <trkpt lat="48.24352" lon="7.39607">
        <ele>196.3</ele>
        <time>2019-08-09T13:56:25Z</time>
      </trkpt>
      <trkpt lat="48.24348" lon="7.39607">
        <ele>196.3</ele>
        <time>2019-08-09T13:56:26Z</time>
      </trkpt>
      <trkpt lat="48.24343" lon="7.39607">
        <ele>196.3</ele>
        <time>2019-08-09T13:56:27Z</time>
      </trkpt>
      <trkpt lat="48.24339" lon="7.39607">
        <ele>196.4</ele>
        <time>2019-08-09T13:56:28Z</time>
      </trkpt>
      <trkpt lat="48.24335" lon="7.39606">
        <ele>196.4</ele>
        <time>2019-08-09T13:56:29Z</time>
      </trkpt>
      <trkpt lat="48.24331" lon="7.39605">
        <ele>196.4</ele>
        <time>2019-08-09T13:56:30Z</time>
      </trkpt>
      <trkpt lat="48.24327" lon="7.39604">
        <ele>196.4</ele>
        <time>2019-08-09T13:56:31Z</time>
      </trkpt>
      <trkpt lat="48.24322" lon="7.39604">
        <ele>196.5</ele>
        <time>2019-08-09T13:56:32Z</time>
      </trkpt>
      <trkpt lat="48.24319" lon="7.39603">
        <ele>196.5</ele>
        <time>2019-08-09T13:56:33Z</time>
      </trkpt>
      <trkpt lat="48.24315" lon="7.39602">
        <ele>196.5</ele>
        <time>2019-08-09T13:56:34Z</time>
      </trkpt>
      <trkpt lat="48.24311" lon="7.396">
        <ele>196.6</ele>
        <time>2019-08-09T13:56:35Z</time>
      </trkpt>
      <trkpt lat="48.24307" lon="7.39599">
        <ele>196.6</ele>
        <time>2019-08-09T13:56:36Z</time>
      </trkpt>
      <trkpt lat="48.24304" lon="7.39599">
        <ele>196.6</ele>
        <time>2019-08-09T13:56:37Z</time>
      </trkpt>
      <trkpt lat="48.243" lon="7.39598">
        <ele>196.6</ele>
        <time>2019-08-09T13:56:38Z</time>
      </trkpt>
      <trkpt lat="48.24296" lon="7.39597">
        <ele>196.7</ele>
        <time>2019-08-09T13:56:39Z</time>
      </trkpt>
      <trkpt lat="48.24293" lon="7.39596">
        <ele>196.7</ele>
        <time>2019-08-09T13:56:40Z</time>
      </trkpt>
      <trkpt lat="48.24289" lon="7.39594">
        <ele>196.8</ele>
        <time>2019-08-09T13:56:41Z</time>
      </trkpt>
      <trkpt lat="48.24286" lon="7.39594">
        <ele>196.8</ele>
        <time>2019-08-09T13:56:42Z</time>
      </trkpt>
      <trkpt lat="48.24283" lon="7.39592">
        <ele>196.8</ele>
        <time>2019-08-09T13:56:43Z</time>
      </trkpt>
      <trkpt lat="48.24281" lon="7.39591">
        <ele>196.8</ele>
        <time>2019-08-09T13:56:44Z</time>
      </trkpt>
      <trkpt lat="48.24277" lon="7.39591">
        <ele>196.9</ele>
        <time>2019-08-09T13:56:45Z</time>
      </trkpt>
      <trkpt lat="48.24274" lon="7.39589">
        <ele>196.9</ele>
        <time>2019-08-09T13:56:46Z</time>
      </trkpt>
      <trkpt lat="48.24272" lon="7.39588">
        <ele>197</ele>
        <time>2019-08-09T13:56:47Z</time>
      </trkpt>
      <trkpt lat="48.24269" lon="7.39587">
        <ele>197</ele>
        <time>2019-08-09T13:56:48Z</time>
      </trkpt>
      <trkpt lat="48.24266" lon="7.39583">
        <ele>197</ele>
        <time>2019-08-09T13:56:50Z</time>
      </trkpt>
      <trkpt lat="48.24262" lon="7.39582">
        <ele>197.1</ele>
        <time>2019-08-09T13:56:52Z</time>
      </trkpt>
      <trkpt lat="48.24258" lon="7.39582">
        <ele>197.2</ele>
        <time>2019-08-09T13:56:54Z</time>
      </trkpt>
      <trkpt lat="48.24255" lon="7.39581">
        <ele>197.2</ele>
        <time>2019-08-09T13:56:55Z</time>
      </trkpt>
      <trkpt lat="48.24252" lon="7.39581">
        <ele>197.2</ele>
        <time>2019-08-09T13:56:56Z</time>
      </trkpt>
      <trkpt lat="48.24248" lon="7.39579">
        <ele>197.3</ele>
        <time>2019-08-09T13:56:57Z</time>
      </trkpt>
      <trkpt lat="48.24245" lon="7.39578">
        <ele>197.3</ele>
        <time>2019-08-09T13:56:58Z</time>
      </trkpt>
      <trkpt lat="48.24241" lon="7.39577">
        <ele>197.3</ele>
        <time>2019-08-09T13:56:59Z</time>
      </trkpt>
      <trkpt lat="48.24237" lon="7.39576">
        <ele>197.3</ele>
        <time>2019-08-09T13:57:00Z</time>
      </trkpt>
      <trkpt lat="48.24233" lon="7.39575">
        <ele>197.3</ele>
        <time>2019-08-09T13:57:01Z</time>
      </trkpt>
      <trkpt lat="48.24228" lon="7.39575">
        <ele>197.3</ele>
        <time>2019-08-09T13:57:02Z</time>
      </trkpt>
      <trkpt lat="48.24224" lon="7.39575">
        <ele>197.3</ele>
        <time>2019-08-09T13:57:03Z</time>
      </trkpt>
      <trkpt lat="48.2422" lon="7.39573">
        <ele>197.3</ele>
        <time>2019-08-09T13:57:04Z</time>
      </trkpt>
      <trkpt lat="48.24217" lon="7.39572">
        <ele>197.3</ele>
        <time>2019-08-09T13:57:05Z</time>
      </trkpt>
      <trkpt lat="48.24213" lon="7.39571">
        <ele>197.3</ele>
        <time>2019-08-09T13:57:06Z</time>
      </trkpt>
      <trkpt lat="48.24209" lon="7.3957">
        <ele>197.3</ele>
        <time>2019-08-09T13:57:07Z</time>
      </trkpt>
      <trkpt lat="48.24205" lon="7.39569">
        <ele>197.3</ele>
        <time>2019-08-09T13:57:08Z</time>
      </trkpt>
      <trkpt lat="48.242" lon="7.39568">
        <ele>197.3</ele>
        <time>2019-08-09T13:57:09Z</time>
      </trkpt>
      <trkpt lat="48.24196" lon="7.39568">
        <ele>197.3</ele>
        <time>2019-08-09T13:57:10Z</time>
      </trkpt>
      <trkpt lat="48.24191" lon="7.39568">
        <ele>197.3</ele>
        <time>2019-08-09T13:57:11Z</time>
      </trkpt>
      <trkpt lat="48.24187" lon="7.39567">
        <ele>197.2</ele>
        <time>2019-08-09T13:57:12Z</time>
      </trkpt>
      <trkpt lat="48.24183" lon="7.39566">
        <ele>197.2</ele>
        <time>2019-08-09T13:57:13Z</time>
      </trkpt>
      <trkpt lat="48.24179" lon="7.39564">
        <ele>197.2</ele>
        <time>2019-08-09T13:57:14Z</time>
      </trkpt>
      <trkpt lat="48.24174" lon="7.39563">
        <ele>197.2</ele>
        <time>2019-08-09T13:57:15Z</time>
      </trkpt>
      <trkpt lat="48.2417" lon="7.39561">
        <ele>197.2</ele>
        <time>2019-08-09T13:57:16Z</time>
      </trkpt>
      <trkpt lat="48.24166" lon="7.39559">
        <ele>197.1</ele>
        <time>2019-08-09T13:57:17Z</time>
      </trkpt>
      <trkpt lat="48.24162" lon="7.39558">
        <ele>197.1</ele>
        <time>2019-08-09T13:57:18Z</time>
      </trkpt>
      <trkpt lat="48.24157" lon="7.39557">
        <ele>197.1</ele>
        <time>2019-08-09T13:57:19Z</time>
      </trkpt>
      <trkpt lat="48.24153" lon="7.39556">
        <ele>197</ele>
        <time>2019-08-09T13:57:20Z</time>
      </trkpt>
      <trkpt lat="48.24149" lon="7.39555">
        <ele>197</ele>
        <time>2019-08-09T13:57:21Z</time>
      </trkpt>
      <trkpt lat="48.24144" lon="7.39555">
        <ele>197</ele>
        <time>2019-08-09T13:57:22Z</time>
      </trkpt>
      <trkpt lat="48.2414" lon="7.39555">
        <ele>197</ele>
        <time>2019-08-09T13:57:23Z</time>
      </trkpt>
      <trkpt lat="48.24135" lon="7.39555">
        <ele>196.9</ele>
        <time>2019-08-09T13:57:24Z</time>
      </trkpt>
      <trkpt lat="48.24131" lon="7.39554">
        <ele>196.9</ele>
        <time>2019-08-09T13:57:25Z</time>
      </trkpt>
      <trkpt lat="48.24126" lon="7.39555">
        <ele>196.9</ele>
        <time>2019-08-09T13:57:26Z</time>
      </trkpt>
      <trkpt lat="48.24121" lon="7.39554">
        <ele>196.9</ele>
        <time>2019-08-09T13:57:27Z</time>
      </trkpt>
      <trkpt lat="48.24116" lon="7.39554">
        <ele>196.9</ele>
        <time>2019-08-09T13:57:28Z</time>
      </trkpt>
      <trkpt lat="48.24111" lon="7.39553">
        <ele>196.9</ele>
        <time>2019-08-09T13:57:29Z</time>
      </trkpt>
      <trkpt lat="48.24107" lon="7.39552">
        <ele>196.9</ele>
        <time>2019-08-09T13:57:30Z</time>
      </trkpt>
      <trkpt lat="48.24102" lon="7.39552">
        <ele>196.9</ele>
        <time>2019-08-09T13:57:31Z</time>
      </trkpt>
      <trkpt lat="48.24098" lon="7.39552">
        <ele>196.9</ele>
        <time>2019-08-09T13:57:32Z</time>
      </trkpt>
      <trkpt lat="48.24094" lon="7.39551">
        <ele>196.9</ele>
        <time>2019-08-09T13:57:33Z</time>
      </trkpt>
      <trkpt lat="48.2409" lon="7.39551">
        <ele>196.9</ele>
        <time>2019-08-09T13:57:34Z</time>
      </trkpt>
      <trkpt lat="48.24085" lon="7.39551">
        <ele>196.9</ele>
        <time>2019-08-09T13:57:35Z</time>
      </trkpt>
      <trkpt lat="48.2408" lon="7.39551">
        <ele>196.9</ele>
        <time>2019-08-09T13:57:36Z</time>
      </trkpt>
      <trkpt lat="48.24075" lon="7.39552">
        <ele>196.9</ele>
        <time>2019-08-09T13:57:37Z</time>
      </trkpt>
      <trkpt lat="48.2407" lon="7.39551">
        <ele>196.9</ele>
        <time>2019-08-09T13:57:38Z</time>
      </trkpt>
      <trkpt lat="48.24065" lon="7.3955">
        <ele>196.9</ele>
        <time>2019-08-09T13:57:39Z</time>
      </trkpt>
      <trkpt lat="48.24059" lon="7.39551">
        <ele>196.9</ele>
        <time>2019-08-09T13:57:40Z</time>
      </trkpt>
      <trkpt lat="48.24053" lon="7.39551">
        <ele>197</ele>
        <time>2019-08-09T13:57:41Z</time>
      </trkpt>
      <trkpt lat="48.24047" lon="7.39551">
        <ele>196.9</ele>
        <time>2019-08-09T13:57:42Z</time>
      </trkpt>
      <trkpt lat="48.2404" lon="7.3955">
        <ele>196.9</ele>
        <time>2019-08-09T13:57:43Z</time>
      </trkpt>
      <trkpt lat="48.24035" lon="7.39549">
        <ele>196.9</ele>
        <time>2019-08-09T13:57:44Z</time>
      </trkpt>
      <trkpt lat="48.2403" lon="7.39547">
        <ele>196.9</ele>
        <time>2019-08-09T13:57:45Z</time>
      </trkpt>
      <trkpt lat="48.24025" lon="7.39545">
        <ele>196.9</ele>
        <time>2019-08-09T13:57:46Z</time>
      </trkpt>
      <trkpt lat="48.2402" lon="7.39543">
        <ele>196.9</ele>
        <time>2019-08-09T13:57:47Z</time>
      </trkpt>
      <trkpt lat="48.24014" lon="7.3954">
        <ele>196.9</ele>
        <time>2019-08-09T13:57:48Z</time>
      </trkpt>
      <trkpt lat="48.24009" lon="7.39536">
        <ele>196.8</ele>
        <time>2019-08-09T13:57:49Z</time>
      </trkpt>
      <trkpt lat="48.24004" lon="7.39533">
        <ele>196.8</ele>
        <time>2019-08-09T13:57:50Z</time>
      </trkpt>
      <trkpt lat="48.23999" lon="7.39531">
        <ele>196.8</ele>
        <time>2019-08-09T13:57:51Z</time>
      </trkpt>
      <trkpt lat="48.23994" lon="7.39529">
        <ele>196.7</ele>
        <time>2019-08-09T13:57:52Z</time>
      </trkpt>
      <trkpt lat="48.2399" lon="7.39527">
        <ele>196.6</ele>
        <time>2019-08-09T13:57:53Z</time>
      </trkpt>
      <trkpt lat="48.23985" lon="7.39525">
        <ele>196.6</ele>
        <time>2019-08-09T13:57:54Z</time>
      </trkpt>
      <trkpt lat="48.2398" lon="7.39523">
        <ele>196.5</ele>
        <time>2019-08-09T13:57:55Z</time>
      </trkpt>
      <trkpt lat="48.23975" lon="7.3952">
        <ele>196.4</ele>
        <time>2019-08-09T13:57:56Z</time>
      </trkpt>
      <trkpt lat="48.2397" lon="7.39518">
        <ele>196.3</ele>
        <time>2019-08-09T13:57:57Z</time>
      </trkpt>
      <trkpt lat="48.23965" lon="7.39516">
        <ele>196.2</ele>
        <time>2019-08-09T13:57:58Z</time>
      </trkpt>
      <trkpt lat="48.2396" lon="7.39514">
        <ele>196.1</ele>
        <time>2019-08-09T13:57:59Z</time>
      </trkpt>
      <trkpt lat="48.23955" lon="7.39512">
        <ele>196</ele>
        <time>2019-08-09T13:58:00Z</time>
      </trkpt>
      <trkpt lat="48.2395" lon="7.39509">
        <ele>195.9</ele>
        <time>2019-08-09T13:58:01Z</time>
      </trkpt>
      <trkpt lat="48.23945" lon="7.39507">
        <ele>195.8</ele>
        <time>2019-08-09T13:58:02Z</time>
      </trkpt>
      <trkpt lat="48.2394" lon="7.39506">
        <ele>195.8</ele>
        <time>2019-08-09T13:58:03Z</time>
      </trkpt>
      <trkpt lat="48.23935" lon="7.39504">
        <ele>195.7</ele>
        <time>2019-08-09T13:58:04Z</time>
      </trkpt>
      <trkpt lat="48.2393" lon="7.39501">
        <ele>195.6</ele>
        <time>2019-08-09T13:58:05Z</time>
      </trkpt>
      <trkpt lat="48.23926" lon="7.39498">
        <ele>195.6</ele>
        <time>2019-08-09T13:58:06Z</time>
      </trkpt>
      <trkpt lat="48.23921" lon="7.39496">
        <ele>195.5</ele>
        <time>2019-08-09T13:58:07Z</time>
      </trkpt>
      <trkpt lat="48.23916" lon="7.39494">
        <ele>195.4</ele>
        <time>2019-08-09T13:58:08Z</time>
      </trkpt>
      <trkpt lat="48.23911" lon="7.39492">
        <ele>195.4</ele>
        <time>2019-08-09T13:58:09Z</time>
      </trkpt>
      <trkpt lat="48.23905" lon="7.39489">
        <ele>195.3</ele>
        <time>2019-08-09T13:58:10Z</time>
      </trkpt>
      <trkpt lat="48.239" lon="7.39487">
        <ele>195.3</ele>
        <time>2019-08-09T13:58:11Z</time>
      </trkpt>
      <trkpt lat="48.23895" lon="7.39484">
        <ele>195.2</ele>
        <time>2019-08-09T13:58:12Z</time>
      </trkpt>
      <trkpt lat="48.2389" lon="7.39481">
        <ele>195.1</ele>
        <time>2019-08-09T13:58:13Z</time>
      </trkpt>
      <trkpt lat="48.23885" lon="7.39479">
        <ele>195.1</ele>
        <time>2019-08-09T13:58:14Z</time>
      </trkpt>
      <trkpt lat="48.2388" lon="7.39476">
        <ele>195</ele>
        <time>2019-08-09T13:58:15Z</time>
      </trkpt>
      <trkpt lat="48.23875" lon="7.39475">
        <ele>195</ele>
        <time>2019-08-09T13:58:16Z</time>
      </trkpt>
      <trkpt lat="48.2387" lon="7.39473">
        <ele>194.9</ele>
        <time>2019-08-09T13:58:17Z</time>
      </trkpt>
      <trkpt lat="48.23865" lon="7.39471">
        <ele>194.9</ele>
        <time>2019-08-09T13:58:18Z</time>
      </trkpt>
      <trkpt lat="48.2386" lon="7.39468">
        <ele>194.8</ele>
        <time>2019-08-09T13:58:19Z</time>
      </trkpt>
      <trkpt lat="48.23855" lon="7.39466">
        <ele>194.8</ele>
        <time>2019-08-09T13:58:20Z</time>
      </trkpt>
      <trkpt lat="48.2385" lon="7.39465">
        <ele>194.7</ele>
        <time>2019-08-09T13:58:21Z</time>
      </trkpt>
      <trkpt lat="48.23845" lon="7.39461">
        <ele>194.7</ele>
        <time>2019-08-09T13:58:22Z</time>
      </trkpt>
      <trkpt lat="48.2384" lon="7.39459">
        <ele>194.7</ele>
        <time>2019-08-09T13:58:23Z</time>
      </trkpt>
      <trkpt lat="48.23835" lon="7.39457">
        <ele>194.7</ele>
        <time>2019-08-09T13:58:24Z</time>
      </trkpt>
      <trkpt lat="48.23831" lon="7.39455">
        <ele>194.7</ele>
        <time>2019-08-09T13:58:25Z</time>
      </trkpt>
      <trkpt lat="48.23826" lon="7.39453">
        <ele>194.6</ele>
        <time>2019-08-09T13:58:26Z</time>
      </trkpt>
      <trkpt lat="48.23821" lon="7.39451">
        <ele>194.6</ele>
        <time>2019-08-09T13:58:27Z</time>
      </trkpt>
      <trkpt lat="48.23815" lon="7.39449">
        <ele>194.6</ele>
        <time>2019-08-09T13:58:28Z</time>
      </trkpt>
      <trkpt lat="48.2381" lon="7.39448">
        <ele>194.5</ele>
        <time>2019-08-09T13:58:29Z</time>
      </trkpt>
      <trkpt lat="48.23805" lon="7.39447">
        <ele>194.5</ele>
        <time>2019-08-09T13:58:30Z</time>
      </trkpt>
      <trkpt lat="48.23801" lon="7.39444">
        <ele>194.4</ele>
        <time>2019-08-09T13:58:31Z</time>
      </trkpt>
      <trkpt lat="48.23797" lon="7.39443">
        <ele>194.3</ele>
        <time>2019-08-09T13:58:32Z</time>
      </trkpt>
      <trkpt lat="48.23792" lon="7.3944">
        <ele>194.2</ele>
        <time>2019-08-09T13:58:33Z</time>
      </trkpt>
      <trkpt lat="48.23787" lon="7.39438">
        <ele>194.1</ele>
        <time>2019-08-09T13:58:34Z</time>
      </trkpt>
      <trkpt lat="48.23782" lon="7.39436">
        <ele>194.1</ele>
        <time>2019-08-09T13:58:35Z</time>
      </trkpt>
      <trkpt lat="48.23777" lon="7.39435">
        <ele>194</ele>
        <time>2019-08-09T13:58:36Z</time>
      </trkpt>
      <trkpt lat="48.23772" lon="7.39433">
        <ele>193.9</ele>
        <time>2019-08-09T13:58:37Z</time>
      </trkpt>
      <trkpt lat="48.23766" lon="7.39432">
        <ele>193.8</ele>
        <time>2019-08-09T13:58:38Z</time>
      </trkpt>
      <trkpt lat="48.2376" lon="7.3943">
        <ele>193.7</ele>
        <time>2019-08-09T13:58:39Z</time>
      </trkpt>
      <trkpt lat="48.23755" lon="7.39428">
        <ele>193.6</ele>
        <time>2019-08-09T13:58:40Z</time>
      </trkpt>
      <trkpt lat="48.2375" lon="7.39426">
        <ele>193.5</ele>
        <time>2019-08-09T13:58:41Z</time>
      </trkpt>
      <trkpt lat="48.23745" lon="7.39425">
        <ele>193.5</ele>
        <time>2019-08-09T13:58:42Z</time>
      </trkpt>
      <trkpt lat="48.23739" lon="7.39424">
        <ele>193.4</ele>
        <time>2019-08-09T13:58:43Z</time>
      </trkpt>
      <trkpt lat="48.23735" lon="7.39421">
        <ele>193.3</ele>
        <time>2019-08-09T13:58:44Z</time>
      </trkpt>
      <trkpt lat="48.2373" lon="7.39419">
        <ele>193.2</ele>
        <time>2019-08-09T13:58:45Z</time>
      </trkpt>
      <trkpt lat="48.23724" lon="7.39417">
        <ele>193.2</ele>
        <time>2019-08-09T13:58:46Z</time>
      </trkpt>
      <trkpt lat="48.23719" lon="7.39414">
        <ele>193.1</ele>
        <time>2019-08-09T13:58:47Z</time>
      </trkpt>
      <trkpt lat="48.23712" lon="7.39412">
        <ele>193.1</ele>
        <time>2019-08-09T13:58:48Z</time>
      </trkpt>
      <trkpt lat="48.23706" lon="7.39411">
        <ele>193.1</ele>
        <time>2019-08-09T13:58:49Z</time>
      </trkpt>
      <trkpt lat="48.237" lon="7.39409">
        <ele>193.1</ele>
        <time>2019-08-09T13:58:50Z</time>
      </trkpt>
      <trkpt lat="48.23695" lon="7.39408">
        <ele>193.1</ele>
        <time>2019-08-09T13:58:51Z</time>
      </trkpt>
      <trkpt lat="48.23689" lon="7.39406">
        <ele>193.1</ele>
        <time>2019-08-09T13:58:52Z</time>
      </trkpt>
      <trkpt lat="48.23684" lon="7.39404">
        <ele>193.1</ele>
        <time>2019-08-09T13:58:53Z</time>
      </trkpt>
      <trkpt lat="48.23678" lon="7.39402">
        <ele>193.1</ele>
        <time>2019-08-09T13:58:54Z</time>
      </trkpt>
      <trkpt lat="48.23673" lon="7.394">
        <ele>193.1</ele>
        <time>2019-08-09T13:58:55Z</time>
      </trkpt>
      <trkpt lat="48.23667" lon="7.39398">
        <ele>193.1</ele>
        <time>2019-08-09T13:58:56Z</time>
      </trkpt>
      <trkpt lat="48.23662" lon="7.39396">
        <ele>193.1</ele>
        <time>2019-08-09T13:58:57Z</time>
      </trkpt>
      <trkpt lat="48.23656" lon="7.39393">
        <ele>193.1</ele>
        <time>2019-08-09T13:58:58Z</time>
      </trkpt>
      <trkpt lat="48.23651" lon="7.39391">
        <ele>193.1</ele>
        <time>2019-08-09T13:58:59Z</time>
      </trkpt>
      <trkpt lat="48.23645" lon="7.39389">
        <ele>193.1</ele>
        <time>2019-08-09T13:59:00Z</time>
      </trkpt>
      <trkpt lat="48.23639" lon="7.39386">
        <ele>193.1</ele>
        <time>2019-08-09T13:59:01Z</time>
      </trkpt>
      <trkpt lat="48.23633" lon="7.39383">
        <ele>193.1</ele>
        <time>2019-08-09T13:59:02Z</time>
      </trkpt>
      <trkpt lat="48.23628" lon="7.39381">
        <ele>193.1</ele>
        <time>2019-08-09T13:59:03Z</time>
      </trkpt>
      <trkpt lat="48.23622" lon="7.39379">
        <ele>193.1</ele>
        <time>2019-08-09T13:59:04Z</time>
      </trkpt>
      <trkpt lat="48.23617" lon="7.39378">
        <ele>193.1</ele>
        <time>2019-08-09T13:59:05Z</time>
      </trkpt>
      <trkpt lat="48.23611" lon="7.39377">
        <ele>193.1</ele>
        <time>2019-08-09T13:59:06Z</time>
      </trkpt>
      <trkpt lat="48.23606" lon="7.39375">
        <ele>193</ele>
        <time>2019-08-09T13:59:07Z</time>
      </trkpt>
      <trkpt lat="48.236" lon="7.39373">
        <ele>193</ele>
        <time>2019-08-09T13:59:08Z</time>
      </trkpt>
      <trkpt lat="48.23595" lon="7.3937">
        <ele>193</ele>
        <time>2019-08-09T13:59:09Z</time>
      </trkpt>
      <trkpt lat="48.23589" lon="7.39368">
        <ele>192.9</ele>
        <time>2019-08-09T13:59:10Z</time>
      </trkpt>
      <trkpt lat="48.23584" lon="7.39366">
        <ele>192.7</ele>
        <time>2019-08-09T13:59:11Z</time>
      </trkpt>
      <trkpt lat="48.2358" lon="7.39363">
        <ele>192.5</ele>
        <time>2019-08-09T13:59:12Z</time>
      </trkpt>
      <trkpt lat="48.23575" lon="7.3936">
        <ele>192.3</ele>
        <time>2019-08-09T13:59:13Z</time>
      </trkpt>
      <trkpt lat="48.2357" lon="7.39358">
        <ele>192</ele>
        <time>2019-08-09T13:59:14Z</time>
      </trkpt>
      <trkpt lat="48.23565" lon="7.39357">
        <ele>191.8</ele>
        <time>2019-08-09T13:59:15Z</time>
      </trkpt>
      <trkpt lat="48.23561" lon="7.39356">
        <ele>191.5</ele>
        <time>2019-08-09T13:59:16Z</time>
      </trkpt>
      <trkpt lat="48.23556" lon="7.39355">
        <ele>191.3</ele>
        <time>2019-08-09T13:59:17Z</time>
      </trkpt>
      <trkpt lat="48.23551" lon="7.39354">
        <ele>191.1</ele>
        <time>2019-08-09T13:59:18Z</time>
      </trkpt>
      <trkpt lat="48.23545" lon="7.39352">
        <ele>190.9</ele>
        <time>2019-08-09T13:59:19Z</time>
      </trkpt>
      <trkpt lat="48.2354" lon="7.39351">
        <ele>190.8</ele>
        <time>2019-08-09T13:59:20Z</time>
      </trkpt>
      <trkpt lat="48.23535" lon="7.39349">
        <ele>190.7</ele>
        <time>2019-08-09T13:59:21Z</time>
      </trkpt>
      <trkpt lat="48.2353" lon="7.39346">
        <ele>190.7</ele>
        <time>2019-08-09T13:59:22Z</time>
      </trkpt>
      <trkpt lat="48.23526" lon="7.39344">
        <ele>190.7</ele>
        <time>2019-08-09T13:59:23Z</time>
      </trkpt>
      <trkpt lat="48.2352" lon="7.39343">
        <ele>190.6</ele>
        <time>2019-08-09T13:59:24Z</time>
      </trkpt>
      <trkpt lat="48.23515" lon="7.39341">
        <ele>190.6</ele>
        <time>2019-08-09T13:59:25Z</time>
      </trkpt>
      <trkpt lat="48.2351" lon="7.39338">
        <ele>190.5</ele>
        <time>2019-08-09T13:59:26Z</time>
      </trkpt>
      <trkpt lat="48.23505" lon="7.39336">
        <ele>190.4</ele>
        <time>2019-08-09T13:59:27Z</time>
      </trkpt>
      <trkpt lat="48.23499" lon="7.39334">
        <ele>190.2</ele>
        <time>2019-08-09T13:59:28Z</time>
      </trkpt>
      <trkpt lat="48.23494" lon="7.39332">
        <ele>189.9</ele>
        <time>2019-08-09T13:59:29Z</time>
      </trkpt>
      <trkpt lat="48.23489" lon="7.3933">
        <ele>189.7</ele>
        <time>2019-08-09T13:59:30Z</time>
      </trkpt>
      <trkpt lat="48.23482" lon="7.39329">
        <ele>189.4</ele>
        <time>2019-08-09T13:59:31Z</time>
      </trkpt>
      <trkpt lat="48.23476" lon="7.39326">
        <ele>189.1</ele>
        <time>2019-08-09T13:59:32Z</time>
      </trkpt>
      <trkpt lat="48.23471" lon="7.39323">
        <ele>188.9</ele>
        <time>2019-08-09T13:59:33Z</time>
      </trkpt>
      <trkpt lat="48.23465" lon="7.3932">
        <ele>188.8</ele>
        <time>2019-08-09T13:59:34Z</time>
      </trkpt>
      <trkpt lat="48.23459" lon="7.39317">
        <ele>188.6</ele>
        <time>2019-08-09T13:59:35Z</time>
      </trkpt>
      <trkpt lat="48.23453" lon="7.39315">
        <ele>188.5</ele>
        <time>2019-08-09T13:59:36Z</time>
      </trkpt>
      <trkpt lat="48.23447" lon="7.39313">
        <ele>188.2</ele>
        <time>2019-08-09T13:59:37Z</time>
      </trkpt>
      <trkpt lat="48.23441" lon="7.39311">
        <ele>187.9</ele>
        <time>2019-08-09T13:59:38Z</time>
      </trkpt>
      <trkpt lat="48.23435" lon="7.39308">
        <ele>187.6</ele>
        <time>2019-08-09T13:59:39Z</time>
      </trkpt>
      <trkpt lat="48.23428" lon="7.39306">
        <ele>187.3</ele>
        <time>2019-08-09T13:59:40Z</time>
      </trkpt>
      <trkpt lat="48.23422" lon="7.39303">
        <ele>187</ele>
        <time>2019-08-09T13:59:41Z</time>
      </trkpt>
      <trkpt lat="48.23415" lon="7.393">
        <ele>186.7</ele>
        <time>2019-08-09T13:59:42Z</time>
      </trkpt>
      <trkpt lat="48.23408" lon="7.39297">
        <ele>186.6</ele>
        <time>2019-08-09T13:59:43Z</time>
      </trkpt>
      <trkpt lat="48.23402" lon="7.39295">
        <ele>186.5</ele>
        <time>2019-08-09T13:59:44Z</time>
      </trkpt>
      <trkpt lat="48.23395" lon="7.39292">
        <ele>186.5</ele>
        <time>2019-08-09T13:59:45Z</time>
      </trkpt>
      <trkpt lat="48.23388" lon="7.39288">
        <ele>186.5</ele>
        <time>2019-08-09T13:59:46Z</time>
      </trkpt>
      <trkpt lat="48.23382" lon="7.39285">
        <ele>186.5</ele>
        <time>2019-08-09T13:59:47Z</time>
      </trkpt>
      <trkpt lat="48.23377" lon="7.39279">
        <ele>186.5</ele>
        <time>2019-08-09T13:59:48Z</time>
      </trkpt>
      <trkpt lat="48.23372" lon="7.39272">
        <ele>186.5</ele>
        <time>2019-08-09T13:59:49Z</time>
      </trkpt>
      <trkpt lat="48.23367" lon="7.39265">
        <ele>186.4</ele>
        <time>2019-08-09T13:59:50Z</time>
      </trkpt>
      <trkpt lat="48.23362" lon="7.39258">
        <ele>186.3</ele>
        <time>2019-08-09T13:59:51Z</time>
      </trkpt>
      <trkpt lat="48.23356" lon="7.39252">
        <ele>186.2</ele>
        <time>2019-08-09T13:59:52Z</time>
      </trkpt>
      <trkpt lat="48.23351" lon="7.39247">
        <ele>186.2</ele>
        <time>2019-08-09T13:59:53Z</time>
      </trkpt>
      <trkpt lat="48.23345" lon="7.39243">
        <ele>185.9</ele>
        <time>2019-08-09T13:59:54Z</time>
      </trkpt>
      <trkpt lat="48.23339" lon="7.3924">
        <ele>185.7</ele>
        <time>2019-08-09T13:59:55Z</time>
      </trkpt>
      <trkpt lat="48.23333" lon="7.39237">
        <ele>185.6</ele>
        <time>2019-08-09T13:59:56Z</time>
      </trkpt>
      <trkpt lat="48.23328" lon="7.39233">
        <ele>185.7</ele>
        <time>2019-08-09T13:59:57Z</time>
      </trkpt>
      <trkpt lat="48.23323" lon="7.39228">
        <ele>185.8</ele>
        <time>2019-08-09T13:59:58Z</time>
      </trkpt>
      <trkpt lat="48.23319" lon="7.39224">
        <ele>185.9</ele>
        <time>2019-08-09T13:59:59Z</time>
      </trkpt>
      <trkpt lat="48.23315" lon="7.39221">
        <ele>186</ele>
        <time>2019-08-09T14:00:00Z</time>
      </trkpt>
      <trkpt lat="48.2331" lon="7.39219">
        <ele>186</ele>
        <time>2019-08-09T14:00:01Z</time>
      </trkpt>
      <trkpt lat="48.23306" lon="7.39217">
        <ele>186.1</ele>
        <time>2019-08-09T14:00:02Z</time>
      </trkpt>
      <trkpt lat="48.23302" lon="7.39214">
        <ele>186.2</ele>
        <time>2019-08-09T14:00:03Z</time>
      </trkpt>
      <trkpt lat="48.23298" lon="7.39212">
        <ele>186.3</ele>
        <time>2019-08-09T14:00:04Z</time>
      </trkpt>
      <trkpt lat="48.23294" lon="7.39209">
        <ele>186.4</ele>
        <time>2019-08-09T14:00:05Z</time>
      </trkpt>
      <trkpt lat="48.2329" lon="7.39206">
        <ele>186.5</ele>
        <time>2019-08-09T14:00:06Z</time>
      </trkpt>
      <trkpt lat="48.23286" lon="7.39204">
        <ele>186.5</ele>
        <time>2019-08-09T14:00:07Z</time>
      </trkpt>
      <trkpt lat="48.23282" lon="7.39202">
        <ele>186.6</ele>
        <time>2019-08-09T14:00:08Z</time>
      </trkpt>
      <trkpt lat="48.23278" lon="7.392">
        <ele>186.7</ele>
        <time>2019-08-09T14:00:09Z</time>
      </trkpt>
      <trkpt lat="48.23274" lon="7.39199">
        <ele>186.8</ele>
        <time>2019-08-09T14:00:10Z</time>
      </trkpt>
      <trkpt lat="48.2327" lon="7.39198">
        <ele>186.9</ele>
        <time>2019-08-09T14:00:11Z</time>
      </trkpt>
      <trkpt lat="48.23267" lon="7.39196">
        <ele>187</ele>
        <time>2019-08-09T14:00:12Z</time>
      </trkpt>
      <trkpt lat="48.23263" lon="7.39195">
        <ele>187.1</ele>
        <time>2019-08-09T14:00:13Z</time>
      </trkpt>
      <trkpt lat="48.2326" lon="7.39194">
        <ele>187.2</ele>
        <time>2019-08-09T14:00:14Z</time>
      </trkpt>
      <trkpt lat="48.23256" lon="7.39193">
        <ele>187.3</ele>
        <time>2019-08-09T14:00:15Z</time>
      </trkpt>
      <trkpt lat="48.23252" lon="7.39191">
        <ele>187.4</ele>
        <time>2019-08-09T14:00:16Z</time>
      </trkpt>
      <trkpt lat="48.23248" lon="7.39189">
        <ele>187.5</ele>
        <time>2019-08-09T14:00:17Z</time>
      </trkpt>
      <trkpt lat="48.23244" lon="7.39187">
        <ele>187.6</ele>
        <time>2019-08-09T14:00:18Z</time>
      </trkpt>
      <trkpt lat="48.23241" lon="7.39185">
        <ele>187.7</ele>
        <time>2019-08-09T14:00:19Z</time>
      </trkpt>
      <trkpt lat="48.23237" lon="7.39183">
        <ele>187.8</ele>
        <time>2019-08-09T14:00:20Z</time>
      </trkpt>
      <trkpt lat="48.23234" lon="7.39181">
        <ele>187.8</ele>
        <time>2019-08-09T14:00:21Z</time>
      </trkpt>
      <trkpt lat="48.2323" lon="7.39179">
        <ele>187.9</ele>
        <time>2019-08-09T14:00:22Z</time>
      </trkpt>
      <trkpt lat="48.23227" lon="7.39176">
        <ele>188</ele>
        <time>2019-08-09T14:00:23Z</time>
      </trkpt>
      <trkpt lat="48.23223" lon="7.39174">
        <ele>188.1</ele>
        <time>2019-08-09T14:00:24Z</time>
      </trkpt>
      <trkpt lat="48.2322" lon="7.3917">
        <ele>188.2</ele>
        <time>2019-08-09T14:00:25Z</time>
      </trkpt>
      <trkpt lat="48.23217" lon="7.39168">
        <ele>188.3</ele>
        <time>2019-08-09T14:00:26Z</time>
      </trkpt>
      <trkpt lat="48.23213" lon="7.39166">
        <ele>188.4</ele>
        <time>2019-08-09T14:00:27Z</time>
      </trkpt>
      <trkpt lat="48.23209" lon="7.39165">
        <ele>188.5</ele>
        <time>2019-08-09T14:00:28Z</time>
      </trkpt>
      <trkpt lat="48.23205" lon="7.39164">
        <ele>188.6</ele>
        <time>2019-08-09T14:00:29Z</time>
      </trkpt>
      <trkpt lat="48.23202" lon="7.39162">
        <ele>188.7</ele>
        <time>2019-08-09T14:00:30Z</time>
      </trkpt>
      <trkpt lat="48.23198" lon="7.39161">
        <ele>188.8</ele>
        <time>2019-08-09T14:00:31Z</time>
      </trkpt>
      <trkpt lat="48.23195" lon="7.39159">
        <ele>188.9</ele>
        <time>2019-08-09T14:00:32Z</time>
      </trkpt>
      <trkpt lat="48.23192" lon="7.39156">
        <ele>189</ele>
        <time>2019-08-09T14:00:33Z</time>
      </trkpt>
      <trkpt lat="48.23189" lon="7.39154">
        <ele>189</ele>
        <time>2019-08-09T14:00:34Z</time>
      </trkpt>
      <trkpt lat="48.23186" lon="7.39152">
        <ele>189.1</ele>
        <time>2019-08-09T14:00:35Z</time>
      </trkpt>
      <trkpt lat="48.23183" lon="7.39149">
        <ele>189.2</ele>
        <time>2019-08-09T14:00:36Z</time>
      </trkpt>
      <trkpt lat="48.2318" lon="7.39147">
        <ele>189.2</ele>
        <time>2019-08-09T14:00:37Z</time>
      </trkpt>
      <trkpt lat="48.23178" lon="7.39145">
        <ele>189.3</ele>
        <time>2019-08-09T14:00:38Z</time>
      </trkpt>
      <trkpt lat="48.23175" lon="7.39144">
        <ele>189.3</ele>
        <time>2019-08-09T14:00:39Z</time>
      </trkpt>
      <trkpt lat="48.23172" lon="7.39141">
        <ele>189.4</ele>
        <time>2019-08-09T14:00:40Z</time>
      </trkpt>
      <trkpt lat="48.23169" lon="7.39139">
        <ele>189.5</ele>
        <time>2019-08-09T14:00:41Z</time>
      </trkpt>
      <trkpt lat="48.23166" lon="7.39139">
        <ele>189.5</ele>
        <time>2019-08-09T14:00:42Z</time>
      </trkpt>
      <trkpt lat="48.23163" lon="7.39136">
        <ele>189.6</ele>
        <time>2019-08-09T14:00:43Z</time>
      </trkpt>
      <trkpt lat="48.2316" lon="7.39134">
        <ele>189.6</ele>
        <time>2019-08-09T14:00:44Z</time>
      </trkpt>
      <trkpt lat="48.23158" lon="7.39132">
        <ele>189.6</ele>
        <time>2019-08-09T14:00:45Z</time>
      </trkpt>
      <trkpt lat="48.23155" lon="7.39129">
        <ele>189.6</ele>
        <time>2019-08-09T14:00:46Z</time>
      </trkpt>
      <trkpt lat="48.23153" lon="7.39128">
        <ele>189.7</ele>
        <time>2019-08-09T14:00:47Z</time>
      </trkpt>
      <trkpt lat="48.2315" lon="7.39125">
        <ele>189.7</ele>
        <time>2019-08-09T14:00:48Z</time>
      </trkpt>
      <trkpt lat="48.23148" lon="7.39123">
        <ele>189.7</ele>
        <time>2019-08-09T14:00:49Z</time>
      </trkpt>
      <trkpt lat="48.23145" lon="7.39122">
        <ele>189.7</ele>
        <time>2019-08-09T14:00:50Z</time>
      </trkpt>
      <trkpt lat="48.23142" lon="7.3912">
        <ele>189.8</ele>
        <time>2019-08-09T14:00:51Z</time>
      </trkpt>
      <trkpt lat="48.23139" lon="7.39118">
        <ele>189.8</ele>
        <time>2019-08-09T14:00:52Z</time>
      </trkpt>
      <trkpt lat="48.23135" lon="7.39116">
        <ele>189.8</ele>
        <time>2019-08-09T14:00:53Z</time>
      </trkpt>
      <trkpt lat="48.23132" lon="7.39114">
        <ele>189.8</ele>
        <time>2019-08-09T14:00:54Z</time>
      </trkpt>
      <trkpt lat="48.23129" lon="7.39111">
        <ele>189.8</ele>
        <time>2019-08-09T14:00:55Z</time>
      </trkpt>
      <trkpt lat="48.23126" lon="7.39109">
        <ele>189.8</ele>
        <time>2019-08-09T14:00:56Z</time>
      </trkpt>
      <trkpt lat="48.23122" lon="7.39106">
        <ele>189.8</ele>
        <time>2019-08-09T14:00:57Z</time>
      </trkpt>
      <trkpt lat="48.23119" lon="7.39105">
        <ele>189.9</ele>
        <time>2019-08-09T14:00:58Z</time>
      </trkpt>
      <trkpt lat="48.23116" lon="7.39103">
        <ele>189.9</ele>
        <time>2019-08-09T14:00:59Z</time>
      </trkpt>
      <trkpt lat="48.23112" lon="7.39101">
        <ele>189.9</ele>
        <time>2019-08-09T14:01:00Z</time>
      </trkpt>
      <trkpt lat="48.23109" lon="7.39099">
        <ele>189.9</ele>
        <time>2019-08-09T14:01:01Z</time>
      </trkpt>
      <trkpt lat="48.23105" lon="7.39097">
        <ele>189.9</ele>
        <time>2019-08-09T14:01:02Z</time>
      </trkpt>
      <trkpt lat="48.23101" lon="7.39095">
        <ele>189.9</ele>
        <time>2019-08-09T14:01:03Z</time>
      </trkpt>
      <trkpt lat="48.23097" lon="7.39092">
        <ele>189.9</ele>
        <time>2019-08-09T14:01:04Z</time>
      </trkpt>
      <trkpt lat="48.23094" lon="7.3909">
        <ele>189.9</ele>
        <time>2019-08-09T14:01:05Z</time>
      </trkpt>
      <trkpt lat="48.23089" lon="7.39087">
        <ele>189.9</ele>
        <time>2019-08-09T14:01:06Z</time>
      </trkpt>
      <trkpt lat="48.23085" lon="7.39084">
        <ele>189.9</ele>
        <time>2019-08-09T14:01:07Z</time>
      </trkpt>
      <trkpt lat="48.23081" lon="7.3908">
        <ele>189.9</ele>
        <time>2019-08-09T14:01:08Z</time>
      </trkpt>
      <trkpt lat="48.23075" lon="7.39078">
        <ele>189.9</ele>
        <time>2019-08-09T14:01:09Z</time>
      </trkpt>
      <trkpt lat="48.23071" lon="7.39075">
        <ele>189.9</ele>
        <time>2019-08-09T14:01:10Z</time>
      </trkpt>
      <trkpt lat="48.23067" lon="7.39072">
        <ele>189.9</ele>
        <time>2019-08-09T14:01:11Z</time>
      </trkpt>
      <trkpt lat="48.23063" lon="7.3907">
        <ele>189.9</ele>
        <time>2019-08-09T14:01:12Z</time>
      </trkpt>
      <trkpt lat="48.23059" lon="7.39067">
        <ele>190</ele>
        <time>2019-08-09T14:01:13Z</time>
      </trkpt>
      <trkpt lat="48.23055" lon="7.39064">
        <ele>190</ele>
        <time>2019-08-09T14:01:14Z</time>
      </trkpt>
      <trkpt lat="48.2305" lon="7.39062">
        <ele>190</ele>
        <time>2019-08-09T14:01:15Z</time>
      </trkpt>
      <trkpt lat="48.23046" lon="7.3906">
        <ele>190</ele>
        <time>2019-08-09T14:01:16Z</time>
      </trkpt>
      <trkpt lat="48.23041" lon="7.39057">
        <ele>190.1</ele>
        <time>2019-08-09T14:01:17Z</time>
      </trkpt>
      <trkpt lat="48.23037" lon="7.39055">
        <ele>190.1</ele>
        <time>2019-08-09T14:01:18Z</time>
      </trkpt>
      <trkpt lat="48.23033" lon="7.39053">
        <ele>190.1</ele>
        <time>2019-08-09T14:01:19Z</time>
      </trkpt>
      <trkpt lat="48.2303" lon="7.39049">
        <ele>190.2</ele>
        <time>2019-08-09T14:01:20Z</time>
      </trkpt>
      <trkpt lat="48.23026" lon="7.39047">
        <ele>190.3</ele>
        <time>2019-08-09T14:01:21Z</time>
      </trkpt>
      <trkpt lat="48.23022" lon="7.39044">
        <ele>190.3</ele>
        <time>2019-08-09T14:01:22Z</time>
      </trkpt>
      <trkpt lat="48.23017" lon="7.39042">
        <ele>190.4</ele>
        <time>2019-08-09T14:01:23Z</time>
      </trkpt>
      <trkpt lat="48.23013" lon="7.39039">
        <ele>190.5</ele>
        <time>2019-08-09T14:01:24Z</time>
      </trkpt>
      <trkpt lat="48.23008" lon="7.39036">
        <ele>190.5</ele>
        <time>2019-08-09T14:01:25Z</time>
      </trkpt>
      <trkpt lat="48.23004" lon="7.39034">
        <ele>190.6</ele>
        <time>2019-08-09T14:01:26Z</time>
      </trkpt>
      <trkpt lat="48.23" lon="7.39031">
        <ele>190.6</ele>
        <time>2019-08-09T14:01:27Z</time>
      </trkpt>
      <trkpt lat="48.22997" lon="7.39028">
        <ele>190.7</ele>
        <time>2019-08-09T14:01:28Z</time>
      </trkpt>
      <trkpt lat="48.22994" lon="7.39025">
        <ele>190.7</ele>
        <time>2019-08-09T14:01:29Z</time>
      </trkpt>
      <trkpt lat="48.2299" lon="7.39022">
        <ele>190.8</ele>
        <time>2019-08-09T14:01:30Z</time>
      </trkpt>
      <trkpt lat="48.22986" lon="7.39019">
        <ele>190.9</ele>
        <time>2019-08-09T14:01:31Z</time>
      </trkpt>
      <trkpt lat="48.22981" lon="7.39017">
        <ele>190.9</ele>
        <time>2019-08-09T14:01:32Z</time>
      </trkpt>
      <trkpt lat="48.22977" lon="7.39015">
        <ele>191</ele>
        <time>2019-08-09T14:01:33Z</time>
      </trkpt>
      <trkpt lat="48.22973" lon="7.39012">
        <ele>191.1</ele>
        <time>2019-08-09T14:01:34Z</time>
      </trkpt>
      <trkpt lat="48.22969" lon="7.3901">
        <ele>191.1</ele>
        <time>2019-08-09T14:01:35Z</time>
      </trkpt>
      <trkpt lat="48.22965" lon="7.39008">
        <ele>191.1</ele>
        <time>2019-08-09T14:01:36Z</time>
      </trkpt>
      <trkpt lat="48.22962" lon="7.39005">
        <ele>191.2</ele>
        <time>2019-08-09T14:01:37Z</time>
      </trkpt>
      <trkpt lat="48.22959" lon="7.39003">
        <ele>191.2</ele>
        <time>2019-08-09T14:01:38Z</time>
      </trkpt>
      <trkpt lat="48.22955" lon="7.39001">
        <ele>191.2</ele>
        <time>2019-08-09T14:01:39Z</time>
      </trkpt>
      <trkpt lat="48.22951" lon="7.39">
        <ele>191.3</ele>
        <time>2019-08-09T14:01:40Z</time>
      </trkpt>
      <trkpt lat="48.22947" lon="7.38998">
        <ele>191.3</ele>
        <time>2019-08-09T14:01:41Z</time>
      </trkpt>
      <trkpt lat="48.22944" lon="7.38997">
        <ele>191.3</ele>
        <time>2019-08-09T14:01:42Z</time>
      </trkpt>
      <trkpt lat="48.22941" lon="7.38995">
        <ele>191.3</ele>
        <time>2019-08-09T14:01:43Z</time>
      </trkpt>
      <trkpt lat="48.22937" lon="7.38994">
        <ele>191.4</ele>
        <time>2019-08-09T14:01:44Z</time>
      </trkpt>
      <trkpt lat="48.22933" lon="7.38992">
        <ele>191.4</ele>
        <time>2019-08-09T14:01:45Z</time>
      </trkpt>
      <trkpt lat="48.22929" lon="7.3899">
        <ele>191.4</ele>
        <time>2019-08-09T14:01:46Z</time>
      </trkpt>
      <trkpt lat="48.22925" lon="7.38988">
        <ele>191.4</ele>
        <time>2019-08-09T14:01:47Z</time>
      </trkpt>
      <trkpt lat="48.22921" lon="7.38986">
        <ele>191.5</ele>
        <time>2019-08-09T14:01:48Z</time>
      </trkpt>
      <trkpt lat="48.22917" lon="7.38983">
        <ele>191.5</ele>
        <time>2019-08-09T14:01:49Z</time>
      </trkpt>
      <trkpt lat="48.22913" lon="7.38981">
        <ele>191.5</ele>
        <time>2019-08-09T14:01:50Z</time>
      </trkpt>
      <trkpt lat="48.22908" lon="7.3898">
        <ele>191.5</ele>
        <time>2019-08-09T14:01:51Z</time>
      </trkpt>
      <trkpt lat="48.22903" lon="7.38978">
        <ele>191.6</ele>
        <time>2019-08-09T14:01:52Z</time>
      </trkpt>
      <trkpt lat="48.22898" lon="7.38975">
        <ele>191.6</ele>
        <time>2019-08-09T14:01:53Z</time>
      </trkpt>
      <trkpt lat="48.22895" lon="7.38974">
        <ele>191.7</ele>
        <time>2019-08-09T14:01:54Z</time>
      </trkpt>
      <trkpt lat="48.22891" lon="7.38971">
        <ele>191.7</ele>
        <time>2019-08-09T14:01:55Z</time>
      </trkpt>
      <trkpt lat="48.22888" lon="7.38969">
        <ele>191.8</ele>
        <time>2019-08-09T14:01:56Z</time>
      </trkpt>
      <trkpt lat="48.22884" lon="7.38966">
        <ele>191.8</ele>
        <time>2019-08-09T14:01:57Z</time>
      </trkpt>
      <trkpt lat="48.2288" lon="7.38964">
        <ele>191.8</ele>
        <time>2019-08-09T14:01:58Z</time>
      </trkpt>
      <trkpt lat="48.22876" lon="7.38962">
        <ele>191.9</ele>
        <time>2019-08-09T14:01:59Z</time>
      </trkpt>
      <trkpt lat="48.22872" lon="7.38959">
        <ele>191.9</ele>
        <time>2019-08-09T14:02:00Z</time>
      </trkpt>
      <trkpt lat="48.22869" lon="7.38955">
        <ele>192</ele>
        <time>2019-08-09T14:02:01Z</time>
      </trkpt>
      <trkpt lat="48.22865" lon="7.38953">
        <ele>192</ele>
        <time>2019-08-09T14:02:02Z</time>
      </trkpt>
      <trkpt lat="48.22862" lon="7.3895">
        <ele>192.1</ele>
        <time>2019-08-09T14:02:03Z</time>
      </trkpt>
      <trkpt lat="48.22858" lon="7.38948">
        <ele>192.1</ele>
        <time>2019-08-09T14:02:04Z</time>
      </trkpt>
      <trkpt lat="48.22854" lon="7.38945">
        <ele>192.2</ele>
        <time>2019-08-09T14:02:05Z</time>
      </trkpt>
      <trkpt lat="48.2285" lon="7.38941">
        <ele>192.2</ele>
        <time>2019-08-09T14:02:06Z</time>
      </trkpt>
      <trkpt lat="48.22846" lon="7.38938">
        <ele>192.3</ele>
        <time>2019-08-09T14:02:07Z</time>
      </trkpt>
      <trkpt lat="48.22843" lon="7.38934">
        <ele>192.3</ele>
        <time>2019-08-09T14:02:08Z</time>
      </trkpt>
      <trkpt lat="48.2284" lon="7.38931">
        <ele>192.4</ele>
        <time>2019-08-09T14:02:09Z</time>
      </trkpt>
      <trkpt lat="48.22837" lon="7.38928">
        <ele>192.4</ele>
        <time>2019-08-09T14:02:10Z</time>
      </trkpt>
      <trkpt lat="48.22833" lon="7.38924">
        <ele>192.5</ele>
        <time>2019-08-09T14:02:11Z</time>
      </trkpt>
      <trkpt lat="48.22829" lon="7.3892">
        <ele>192.5</ele>
        <time>2019-08-09T14:02:12Z</time>
      </trkpt>
      <trkpt lat="48.22826" lon="7.38917">
        <ele>192.6</ele>
        <time>2019-08-09T14:02:13Z</time>
      </trkpt>
      <trkpt lat="48.22821" lon="7.38912">
        <ele>192.6</ele>
        <time>2019-08-09T14:02:14Z</time>
      </trkpt>
      <trkpt lat="48.22818" lon="7.38909">
        <ele>192.7</ele>
        <time>2019-08-09T14:02:15Z</time>
      </trkpt>
      <trkpt lat="48.22814" lon="7.38906">
        <ele>192.7</ele>
        <time>2019-08-09T14:02:16Z</time>
      </trkpt>
      <trkpt lat="48.22812" lon="7.38903">
        <ele>192.8</ele>
        <time>2019-08-09T14:02:17Z</time>
      </trkpt>
      <trkpt lat="48.22808" lon="7.389">
        <ele>192.8</ele>
        <time>2019-08-09T14:02:18Z</time>
      </trkpt>
      <trkpt lat="48.22805" lon="7.38896">
        <ele>192.9</ele>
        <time>2019-08-09T14:02:19Z</time>
      </trkpt>
      <trkpt lat="48.22801" lon="7.38892">
        <ele>192.9</ele>
        <time>2019-08-09T14:02:20Z</time>
      </trkpt>
      <trkpt lat="48.22798" lon="7.38888">
        <ele>192.9</ele>
        <time>2019-08-09T14:02:21Z</time>
      </trkpt>
      <trkpt lat="48.22794" lon="7.38884">
        <ele>193</ele>
        <time>2019-08-09T14:02:22Z</time>
      </trkpt>
      <trkpt lat="48.2279" lon="7.3888">
        <ele>193</ele>
        <time>2019-08-09T14:02:23Z</time>
      </trkpt>
      <trkpt lat="48.22785" lon="7.38876">
        <ele>193.1</ele>
        <time>2019-08-09T14:02:24Z</time>
      </trkpt>
      <trkpt lat="48.22782" lon="7.38873">
        <ele>193.1</ele>
        <time>2019-08-09T14:02:25Z</time>
      </trkpt>
      <trkpt lat="48.22778" lon="7.3887">
        <ele>193.1</ele>
        <time>2019-08-09T14:02:26Z</time>
      </trkpt>
      <trkpt lat="48.22774" lon="7.38866">
        <ele>193.2</ele>
        <time>2019-08-09T14:02:27Z</time>
      </trkpt>
      <trkpt lat="48.2277" lon="7.38862">
        <ele>193.2</ele>
        <time>2019-08-09T14:02:28Z</time>
      </trkpt>
      <trkpt lat="48.22767" lon="7.38858">
        <ele>193.2</ele>
        <time>2019-08-09T14:02:29Z</time>
      </trkpt>
      <trkpt lat="48.22764" lon="7.38854">
        <ele>193.3</ele>
        <time>2019-08-09T14:02:30Z</time>
      </trkpt>
      <trkpt lat="48.22761" lon="7.3885">
        <ele>193.3</ele>
        <time>2019-08-09T14:02:31Z</time>
      </trkpt>
      <trkpt lat="48.22757" lon="7.38847">
        <ele>193.3</ele>
        <time>2019-08-09T14:02:32Z</time>
      </trkpt>
      <trkpt lat="48.22753" lon="7.38843">
        <ele>193.3</ele>
        <time>2019-08-09T14:02:33Z</time>
      </trkpt>
      <trkpt lat="48.22748" lon="7.3884">
        <ele>193.3</ele>
        <time>2019-08-09T14:02:34Z</time>
      </trkpt>
      <trkpt lat="48.22744" lon="7.38836">
        <ele>193.4</ele>
        <time>2019-08-09T14:02:35Z</time>
      </trkpt>
      <trkpt lat="48.2274" lon="7.38833">
        <ele>193.4</ele>
        <time>2019-08-09T14:02:36Z</time>
      </trkpt>
      <trkpt lat="48.22736" lon="7.38829">
        <ele>193.4</ele>
        <time>2019-08-09T14:02:37Z</time>
      </trkpt>
      <trkpt lat="48.22732" lon="7.38825">
        <ele>193.4</ele>
        <time>2019-08-09T14:02:38Z</time>
      </trkpt>
      <trkpt lat="48.22728" lon="7.38821">
        <ele>193.4</ele>
        <time>2019-08-09T14:02:39Z</time>
      </trkpt>
      <trkpt lat="48.22724" lon="7.38817">
        <ele>193.4</ele>
        <time>2019-08-09T14:02:40Z</time>
      </trkpt>
      <trkpt lat="48.2272" lon="7.38813">
        <ele>193.4</ele>
        <time>2019-08-09T14:02:41Z</time>
      </trkpt>
      <trkpt lat="48.22716" lon="7.3881">
        <ele>193.4</ele>
        <time>2019-08-09T14:02:42Z</time>
      </trkpt>
      <trkpt lat="48.2271" lon="7.38807">
        <ele>193.5</ele>
        <time>2019-08-09T14:02:43Z</time>
      </trkpt>
      <trkpt lat="48.22706" lon="7.38803">
        <ele>193.5</ele>
        <time>2019-08-09T14:02:44Z</time>
      </trkpt>
      <trkpt lat="48.22703" lon="7.388">
        <ele>193.5</ele>
        <time>2019-08-09T14:02:45Z</time>
      </trkpt>
      <trkpt lat="48.22699" lon="7.38797">
        <ele>193.5</ele>
        <time>2019-08-09T14:02:46Z</time>
      </trkpt>
      <trkpt lat="48.22696" lon="7.38794">
        <ele>193.5</ele>
        <time>2019-08-09T14:02:47Z</time>
      </trkpt>
      <trkpt lat="48.22692" lon="7.38791">
        <ele>193.5</ele>
        <time>2019-08-09T14:02:48Z</time>
      </trkpt>
      <trkpt lat="48.22687" lon="7.38787">
        <ele>193.5</ele>
        <time>2019-08-09T14:02:49Z</time>
      </trkpt>
      <trkpt lat="48.22684" lon="7.38783">
        <ele>193.5</ele>
        <time>2019-08-09T14:02:50Z</time>
      </trkpt>
      <trkpt lat="48.22679" lon="7.3878">
        <ele>193.5</ele>
        <time>2019-08-09T14:02:51Z</time>
      </trkpt>
      <trkpt lat="48.22676" lon="7.38777">
        <ele>193.5</ele>
        <time>2019-08-09T14:02:52Z</time>
      </trkpt>
      <trkpt lat="48.22672" lon="7.38774">
        <ele>193.5</ele>
        <time>2019-08-09T14:02:53Z</time>
      </trkpt>
      <trkpt lat="48.22668" lon="7.38771">
        <ele>193.5</ele>
        <time>2019-08-09T14:02:54Z</time>
      </trkpt>
      <trkpt lat="48.22664" lon="7.38768">
        <ele>193.5</ele>
        <time>2019-08-09T14:02:55Z</time>
      </trkpt>
      <trkpt lat="48.2266" lon="7.38764">
        <ele>193.5</ele>
        <time>2019-08-09T14:02:56Z</time>
      </trkpt>
      <trkpt lat="48.22657" lon="7.3876">
        <ele>193.4</ele>
        <time>2019-08-09T14:02:57Z</time>
      </trkpt>
      <trkpt lat="48.22653" lon="7.38757">
        <ele>193.4</ele>
        <time>2019-08-09T14:02:58Z</time>
      </trkpt>
      <trkpt lat="48.2265" lon="7.38754">
        <ele>193.4</ele>
        <time>2019-08-09T14:02:59Z</time>
      </trkpt>
      <trkpt lat="48.22645" lon="7.3875">
        <ele>193.4</ele>
        <time>2019-08-09T14:03:00Z</time>
      </trkpt>
      <trkpt lat="48.22642" lon="7.38747">
        <ele>193.4</ele>
        <time>2019-08-09T14:03:01Z</time>
      </trkpt>
      <trkpt lat="48.22637" lon="7.38744">
        <ele>193.3</ele>
        <time>2019-08-09T14:03:02Z</time>
      </trkpt>
      <trkpt lat="48.22634" lon="7.38741">
        <ele>193.3</ele>
        <time>2019-08-09T14:03:03Z</time>
      </trkpt>
      <trkpt lat="48.22631" lon="7.38738">
        <ele>193.3</ele>
        <time>2019-08-09T14:03:04Z</time>
      </trkpt>
      <trkpt lat="48.22628" lon="7.38734">
        <ele>193.2</ele>
        <time>2019-08-09T14:03:05Z</time>
      </trkpt>
      <trkpt lat="48.22625" lon="7.38732">
        <ele>193.2</ele>
        <time>2019-08-09T14:03:06Z</time>
      </trkpt>
      <trkpt lat="48.22622" lon="7.38729">
        <ele>193.2</ele>
        <time>2019-08-09T14:03:07Z</time>
      </trkpt>
      <trkpt lat="48.22618" lon="7.38728">
        <ele>193.2</ele>
        <time>2019-08-09T14:03:08Z</time>
      </trkpt>
      <trkpt lat="48.22614" lon="7.38725">
        <ele>193.1</ele>
        <time>2019-08-09T14:03:09Z</time>
      </trkpt>
      <trkpt lat="48.2261" lon="7.38722">
        <ele>193.1</ele>
        <time>2019-08-09T14:03:10Z</time>
      </trkpt>
      <trkpt lat="48.22606" lon="7.3872">
        <ele>193</ele>
        <time>2019-08-09T14:03:11Z</time>
      </trkpt>
      <trkpt lat="48.22603" lon="7.38717">
        <ele>193</ele>
        <time>2019-08-09T14:03:12Z</time>
      </trkpt>
      <trkpt lat="48.226" lon="7.38714">
        <ele>192.9</ele>
        <time>2019-08-09T14:03:13Z</time>
      </trkpt>
      <trkpt lat="48.22597" lon="7.38709">
        <ele>192.9</ele>
        <time>2019-08-09T14:03:15Z</time>
      </trkpt>
      <trkpt lat="48.22592" lon="7.38706">
        <ele>192.8</ele>
        <time>2019-08-09T14:03:17Z</time>
      </trkpt>
      <trkpt lat="48.2259" lon="7.38706">
        <ele>192.8</ele>
        <time>2019-08-09T14:03:45Z</time>
      </trkpt>
      <trkpt lat="48.22587" lon="7.38705">
        <ele>193.1</ele>
        <time>2019-08-09T14:03:46Z</time>
      </trkpt>
      <trkpt lat="48.22583" lon="7.38703">
        <ele>193.3</ele>
        <time>2019-08-09T14:03:47Z</time>
      </trkpt>
      <trkpt lat="48.22579" lon="7.38702">
        <ele>193.6</ele>
        <time>2019-08-09T14:03:48Z</time>
      </trkpt>
      <trkpt lat="48.22576" lon="7.38701">
        <ele>193.7</ele>
        <time>2019-08-09T14:03:49Z</time>
      </trkpt>
      <trkpt lat="48.22574" lon="7.38699">
        <ele>193.8</ele>
        <time>2019-08-09T14:03:50Z</time>
      </trkpt>
      <trkpt lat="48.22571" lon="7.38698">
        <ele>193.8</ele>
        <time>2019-08-09T14:03:51Z</time>
      </trkpt>
      <trkpt lat="48.22568" lon="7.38697">
        <ele>193.8</ele>
        <time>2019-08-09T14:03:52Z</time>
      </trkpt>
      <trkpt lat="48.22565" lon="7.38694">
        <ele>193.8</ele>
        <time>2019-08-09T14:03:53Z</time>
      </trkpt>
      <trkpt lat="48.22562" lon="7.38691">
        <ele>193.8</ele>
        <time>2019-08-09T14:03:54Z</time>
      </trkpt>
      <trkpt lat="48.22559" lon="7.38689">
        <ele>193.7</ele>
        <time>2019-08-09T14:03:55Z</time>
      </trkpt>
      <trkpt lat="48.22556" lon="7.38688">
        <ele>193.7</ele>
        <time>2019-08-09T14:03:56Z</time>
      </trkpt>
      <trkpt lat="48.22552" lon="7.38686">
        <ele>193.6</ele>
        <time>2019-08-09T14:03:57Z</time>
      </trkpt>
      <trkpt lat="48.22548" lon="7.38683">
        <ele>193.5</ele>
        <time>2019-08-09T14:03:58Z</time>
      </trkpt>
      <trkpt lat="48.22545" lon="7.3868">
        <ele>193.5</ele>
        <time>2019-08-09T14:03:59Z</time>
      </trkpt>
      <trkpt lat="48.22541" lon="7.38677">
        <ele>193.4</ele>
        <time>2019-08-09T14:04:00Z</time>
      </trkpt>
      <trkpt lat="48.22538" lon="7.38675">
        <ele>193.3</ele>
        <time>2019-08-09T14:04:01Z</time>
      </trkpt>
      <trkpt lat="48.22534" lon="7.38672">
        <ele>193.3</ele>
        <time>2019-08-09T14:04:02Z</time>
      </trkpt>
      <trkpt lat="48.2253" lon="7.38669">
        <ele>193.2</ele>
        <time>2019-08-09T14:04:03Z</time>
      </trkpt>
      <trkpt lat="48.22525" lon="7.38665">
        <ele>193.2</ele>
        <time>2019-08-09T14:04:04Z</time>
      </trkpt>
      <trkpt lat="48.22521" lon="7.38662">
        <ele>193.2</ele>
        <time>2019-08-09T14:04:05Z</time>
      </trkpt>
      <trkpt lat="48.22516" lon="7.3866">
        <ele>193.1</ele>
        <time>2019-08-09T14:04:06Z</time>
      </trkpt>
      <trkpt lat="48.22512" lon="7.38656">
        <ele>193.1</ele>
        <time>2019-08-09T14:04:07Z</time>
      </trkpt>
      <trkpt lat="48.22508" lon="7.38653">
        <ele>193.2</ele>
        <time>2019-08-09T14:04:08Z</time>
      </trkpt>
      <trkpt lat="48.22504" lon="7.3865">
        <ele>193.2</ele>
        <time>2019-08-09T14:04:09Z</time>
      </trkpt>
      <trkpt lat="48.225" lon="7.38646">
        <ele>193.2</ele>
        <time>2019-08-09T14:04:10Z</time>
      </trkpt>
      <trkpt lat="48.22496" lon="7.38642">
        <ele>193.3</ele>
        <time>2019-08-09T14:04:11Z</time>
      </trkpt>
      <trkpt lat="48.22491" lon="7.3864">
        <ele>193.3</ele>
        <time>2019-08-09T14:04:12Z</time>
      </trkpt>
      <trkpt lat="48.22486" lon="7.38638">
        <ele>193.4</ele>
        <time>2019-08-09T14:04:13Z</time>
      </trkpt>
      <trkpt lat="48.22483" lon="7.38635">
        <ele>193.5</ele>
        <time>2019-08-09T14:04:14Z</time>
      </trkpt>
      <trkpt lat="48.22479" lon="7.38631">
        <ele>193.6</ele>
        <time>2019-08-09T14:04:15Z</time>
      </trkpt>
      <trkpt lat="48.22475" lon="7.38628">
        <ele>193.6</ele>
        <time>2019-08-09T14:04:16Z</time>
      </trkpt>
      <trkpt lat="48.22471" lon="7.38624">
        <ele>193.7</ele>
        <time>2019-08-09T14:04:17Z</time>
      </trkpt>
      <trkpt lat="48.22467" lon="7.38621">
        <ele>193.8</ele>
        <time>2019-08-09T14:04:18Z</time>
      </trkpt>
      <trkpt lat="48.22462" lon="7.38618">
        <ele>193.8</ele>
        <time>2019-08-09T14:04:19Z</time>
      </trkpt>
      <trkpt lat="48.22458" lon="7.38615">
        <ele>193.9</ele>
        <time>2019-08-09T14:04:20Z</time>
      </trkpt>
      <trkpt lat="48.22455" lon="7.38611">
        <ele>193.9</ele>
        <time>2019-08-09T14:04:21Z</time>
      </trkpt>
      <trkpt lat="48.22451" lon="7.38608">
        <ele>193.9</ele>
        <time>2019-08-09T14:04:22Z</time>
      </trkpt>
      <trkpt lat="48.22447" lon="7.38605">
        <ele>194</ele>
        <time>2019-08-09T14:04:23Z</time>
      </trkpt>
      <trkpt lat="48.22443" lon="7.38603">
        <ele>194</ele>
        <time>2019-08-09T14:04:24Z</time>
      </trkpt>
      <trkpt lat="48.2244" lon="7.386">
        <ele>194</ele>
        <time>2019-08-09T14:04:25Z</time>
      </trkpt>
      <trkpt lat="48.22435" lon="7.38597">
        <ele>194</ele>
        <time>2019-08-09T14:04:26Z</time>
      </trkpt>
      <trkpt lat="48.22431" lon="7.38594">
        <ele>194</ele>
        <time>2019-08-09T14:04:27Z</time>
      </trkpt>
      <trkpt lat="48.22427" lon="7.3859">
        <ele>194</ele>
        <time>2019-08-09T14:04:28Z</time>
      </trkpt>
      <trkpt lat="48.22423" lon="7.38587">
        <ele>194</ele>
        <time>2019-08-09T14:04:29Z</time>
      </trkpt>
      <trkpt lat="48.22418" lon="7.38584">
        <ele>193.9</ele>
        <time>2019-08-09T14:04:30Z</time>
      </trkpt>
      <trkpt lat="48.22414" lon="7.38581">
        <ele>193.8</ele>
        <time>2019-08-09T14:04:31Z</time>
      </trkpt>
      <trkpt lat="48.2241" lon="7.38578">
        <ele>193.8</ele>
        <time>2019-08-09T14:04:32Z</time>
      </trkpt>
      <trkpt lat="48.22405" lon="7.38576">
        <ele>193.7</ele>
        <time>2019-08-09T14:04:33Z</time>
      </trkpt>
      <trkpt lat="48.22401" lon="7.38573">
        <ele>193.7</ele>
        <time>2019-08-09T14:04:34Z</time>
      </trkpt>
      <trkpt lat="48.22397" lon="7.38571">
        <ele>193.7</ele>
        <time>2019-08-09T14:04:35Z</time>
      </trkpt>
      <trkpt lat="48.22394" lon="7.38568">
        <ele>193.6</ele>
        <time>2019-08-09T14:04:36Z</time>
      </trkpt>
      <trkpt lat="48.2239" lon="7.38565">
        <ele>193.6</ele>
        <time>2019-08-09T14:04:37Z</time>
      </trkpt>
      <trkpt lat="48.22386" lon="7.38562">
        <ele>193.6</ele>
        <time>2019-08-09T14:04:38Z</time>
      </trkpt>
      <trkpt lat="48.22382" lon="7.38559">
        <ele>193.6</ele>
        <time>2019-08-09T14:04:39Z</time>
      </trkpt>
      <trkpt lat="48.22379" lon="7.38555">
        <ele>193.6</ele>
        <time>2019-08-09T14:04:40Z</time>
      </trkpt>
      <trkpt lat="48.22375" lon="7.38551">
        <ele>193.6</ele>
        <time>2019-08-09T14:04:41Z</time>
      </trkpt>
      <trkpt lat="48.2237" lon="7.38548">
        <ele>193.5</ele>
        <time>2019-08-09T14:04:42Z</time>
      </trkpt>
      <trkpt lat="48.22366" lon="7.38545">
        <ele>193.5</ele>
        <time>2019-08-09T14:04:43Z</time>
      </trkpt>
      <trkpt lat="48.22362" lon="7.38543">
        <ele>193.5</ele>
        <time>2019-08-09T14:04:44Z</time>
      </trkpt>
      <trkpt lat="48.22359" lon="7.3854">
        <ele>193.5</ele>
        <time>2019-08-09T14:04:45Z</time>
      </trkpt>
      <trkpt lat="48.22355" lon="7.38536">
        <ele>193.5</ele>
        <time>2019-08-09T14:04:46Z</time>
      </trkpt>
      <trkpt lat="48.22351" lon="7.38533">
        <ele>193.5</ele>
        <time>2019-08-09T14:04:47Z</time>
      </trkpt>
      <trkpt lat="48.22347" lon="7.38531">
        <ele>193.5</ele>
        <time>2019-08-09T14:04:48Z</time>
      </trkpt>
      <trkpt lat="48.22343" lon="7.38528">
        <ele>193.5</ele>
        <time>2019-08-09T14:04:49Z</time>
      </trkpt>
      <trkpt lat="48.22339" lon="7.38525">
        <ele>193.5</ele>
        <time>2019-08-09T14:04:50Z</time>
      </trkpt>
      <trkpt lat="48.22334" lon="7.38523">
        <ele>193.4</ele>
        <time>2019-08-09T14:04:51Z</time>
      </trkpt>
      <trkpt lat="48.2233" lon="7.38519">
        <ele>193.4</ele>
        <time>2019-08-09T14:04:52Z</time>
      </trkpt>
      <trkpt lat="48.22326" lon="7.38516">
        <ele>193.4</ele>
        <time>2019-08-09T14:04:53Z</time>
      </trkpt>
      <trkpt lat="48.22323" lon="7.38514">
        <ele>193.3</ele>
        <time>2019-08-09T14:04:54Z</time>
      </trkpt>
      <trkpt lat="48.22319" lon="7.3851">
        <ele>193.2</ele>
        <time>2019-08-09T14:04:55Z</time>
      </trkpt>
      <trkpt lat="48.22315" lon="7.38507">
        <ele>193.1</ele>
        <time>2019-08-09T14:04:56Z</time>
      </trkpt>
      <trkpt lat="48.2231" lon="7.38504">
        <ele>193</ele>
        <time>2019-08-09T14:04:57Z</time>
      </trkpt>
      <trkpt lat="48.22306" lon="7.38502">
        <ele>192.9</ele>
        <time>2019-08-09T14:04:58Z</time>
      </trkpt>
      <trkpt lat="48.22301" lon="7.38499">
        <ele>192.7</ele>
        <time>2019-08-09T14:04:59Z</time>
      </trkpt>
      <trkpt lat="48.22297" lon="7.38497">
        <ele>192.6</ele>
        <time>2019-08-09T14:05:00Z</time>
      </trkpt>
      <trkpt lat="48.22292" lon="7.38494">
        <ele>192.5</ele>
        <time>2019-08-09T14:05:01Z</time>
      </trkpt>
      <trkpt lat="48.22286" lon="7.38492">
        <ele>192.3</ele>
        <time>2019-08-09T14:05:02Z</time>
      </trkpt>
      <trkpt lat="48.22281" lon="7.38489">
        <ele>192.2</ele>
        <time>2019-08-09T14:05:03Z</time>
      </trkpt>
      <trkpt lat="48.22277" lon="7.38488">
        <ele>192.1</ele>
        <time>2019-08-09T14:05:04Z</time>
      </trkpt>
      <trkpt lat="48.22272" lon="7.38485">
        <ele>192</ele>
        <time>2019-08-09T14:05:05Z</time>
      </trkpt>
      <trkpt lat="48.22267" lon="7.38483">
        <ele>191.9</ele>
        <time>2019-08-09T14:05:06Z</time>
      </trkpt>
      <trkpt lat="48.22261" lon="7.38481">
        <ele>191.7</ele>
        <time>2019-08-09T14:05:07Z</time>
      </trkpt>
      <trkpt lat="48.22255" lon="7.38478">
        <ele>191.6</ele>
        <time>2019-08-09T14:05:08Z</time>
      </trkpt>
      <trkpt lat="48.2225" lon="7.38476">
        <ele>191.5</ele>
        <time>2019-08-09T14:05:09Z</time>
      </trkpt>
      <trkpt lat="48.22243" lon="7.38473">
        <ele>191.4</ele>
        <time>2019-08-09T14:05:10Z</time>
      </trkpt>
      <trkpt lat="48.22236" lon="7.38472">
        <ele>191.4</ele>
        <time>2019-08-09T14:05:11Z</time>
      </trkpt>
      <trkpt lat="48.2223" lon="7.3847">
        <ele>191.3</ele>
        <time>2019-08-09T14:05:12Z</time>
      </trkpt>
      <trkpt lat="48.22223" lon="7.38468">
        <ele>191.2</ele>
        <time>2019-08-09T14:05:13Z</time>
      </trkpt>
      <trkpt lat="48.22217" lon="7.38465">
        <ele>191.1</ele>
        <time>2019-08-09T14:05:14Z</time>
      </trkpt>
      <trkpt lat="48.22211" lon="7.38463">
        <ele>191</ele>
        <time>2019-08-09T14:05:15Z</time>
      </trkpt>
      <trkpt lat="48.22205" lon="7.38461">
        <ele>190.9</ele>
        <time>2019-08-09T14:05:16Z</time>
      </trkpt>
      <trkpt lat="48.222" lon="7.38459">
        <ele>190.9</ele>
        <time>2019-08-09T14:05:17Z</time>
      </trkpt>
      <trkpt lat="48.22194" lon="7.38457">
        <ele>190.8</ele>
        <time>2019-08-09T14:05:18Z</time>
      </trkpt>
      <trkpt lat="48.22189" lon="7.38455">
        <ele>190.7</ele>
        <time>2019-08-09T14:05:19Z</time>
      </trkpt>
      <trkpt lat="48.22183" lon="7.38452">
        <ele>190.7</ele>
        <time>2019-08-09T14:05:20Z</time>
      </trkpt>
      <trkpt lat="48.22177" lon="7.3845">
        <ele>190.6</ele>
        <time>2019-08-09T14:05:21Z</time>
      </trkpt>
      <trkpt lat="48.22171" lon="7.38447">
        <ele>190.5</ele>
        <time>2019-08-09T14:05:22Z</time>
      </trkpt>
      <trkpt lat="48.22166" lon="7.38444">
        <ele>190.4</ele>
        <time>2019-08-09T14:05:23Z</time>
      </trkpt>
      <trkpt lat="48.22161" lon="7.38441">
        <ele>190.4</ele>
        <time>2019-08-09T14:05:24Z</time>
      </trkpt>
      <trkpt lat="48.22156" lon="7.38439">
        <ele>190.3</ele>
        <time>2019-08-09T14:05:25Z</time>
      </trkpt>
      <trkpt lat="48.22151" lon="7.38437">
        <ele>190.3</ele>
        <time>2019-08-09T14:05:26Z</time>
      </trkpt>
      <trkpt lat="48.22145" lon="7.38435">
        <ele>190.2</ele>
        <time>2019-08-09T14:05:27Z</time>
      </trkpt>
      <trkpt lat="48.2214" lon="7.38434">
        <ele>190.2</ele>
        <time>2019-08-09T14:05:28Z</time>
      </trkpt>
      <trkpt lat="48.22134" lon="7.38432">
        <ele>190.1</ele>
        <time>2019-08-09T14:05:29Z</time>
      </trkpt>
      <trkpt lat="48.22129" lon="7.38431">
        <ele>190.1</ele>
        <time>2019-08-09T14:05:30Z</time>
      </trkpt>
      <trkpt lat="48.22124" lon="7.38429">
        <ele>190.1</ele>
        <time>2019-08-09T14:05:31Z</time>
      </trkpt>
      <trkpt lat="48.22119" lon="7.38428">
        <ele>190</ele>
        <time>2019-08-09T14:05:32Z</time>
      </trkpt>
      <trkpt lat="48.22113" lon="7.38425">
        <ele>190</ele>
        <time>2019-08-09T14:05:33Z</time>
      </trkpt>
      <trkpt lat="48.22108" lon="7.38423">
        <ele>189.9</ele>
        <time>2019-08-09T14:05:34Z</time>
      </trkpt>
      <trkpt lat="48.22103" lon="7.3842">
        <ele>189.9</ele>
        <time>2019-08-09T14:05:35Z</time>
      </trkpt>
      <trkpt lat="48.22099" lon="7.38418">
        <ele>189.9</ele>
        <time>2019-08-09T14:05:36Z</time>
      </trkpt>
      <trkpt lat="48.22094" lon="7.38416">
        <ele>189.9</ele>
        <time>2019-08-09T14:05:37Z</time>
      </trkpt>
      <trkpt lat="48.2209" lon="7.38413">
        <ele>189.8</ele>
        <time>2019-08-09T14:05:38Z</time>
      </trkpt>
      <trkpt lat="48.22085" lon="7.38409">
        <ele>189.8</ele>
        <time>2019-08-09T14:05:39Z</time>
      </trkpt>
      <trkpt lat="48.2208" lon="7.38403">
        <ele>189.8</ele>
        <time>2019-08-09T14:05:40Z</time>
      </trkpt>
      <trkpt lat="48.22074" lon="7.38397">
        <ele>189.8</ele>
        <time>2019-08-09T14:05:41Z</time>
      </trkpt>
      <trkpt lat="48.22069" lon="7.38393">
        <ele>189.8</ele>
        <time>2019-08-09T14:05:42Z</time>
      </trkpt>
      <trkpt lat="48.22065" lon="7.38389">
        <ele>189.8</ele>
        <time>2019-08-09T14:05:43Z</time>
      </trkpt>
      <trkpt lat="48.2206" lon="7.38384">
        <ele>189.8</ele>
        <time>2019-08-09T14:05:44Z</time>
      </trkpt>
      <trkpt lat="48.22057" lon="7.3838">
        <ele>189.8</ele>
        <time>2019-08-09T14:05:45Z</time>
      </trkpt>
      <trkpt lat="48.22054" lon="7.38377">
        <ele>189.8</ele>
        <time>2019-08-09T14:05:46Z</time>
      </trkpt>
      <trkpt lat="48.2205" lon="7.38373">
        <ele>189.9</ele>
        <time>2019-08-09T14:05:47Z</time>
      </trkpt>
      <trkpt lat="48.22047" lon="7.38369">
        <ele>189.9</ele>
        <time>2019-08-09T14:05:48Z</time>
      </trkpt>
      <trkpt lat="48.22042" lon="7.38365">
        <ele>189.9</ele>
        <time>2019-08-09T14:05:49Z</time>
      </trkpt>
      <trkpt lat="48.22038" lon="7.38361">
        <ele>189.8</ele>
        <time>2019-08-09T14:05:50Z</time>
      </trkpt>
      <trkpt lat="48.22034" lon="7.38357">
        <ele>189.8</ele>
        <time>2019-08-09T14:05:51Z</time>
      </trkpt>
      <trkpt lat="48.2203" lon="7.38353">
        <ele>189.8</ele>
        <time>2019-08-09T14:05:52Z</time>
      </trkpt>
      <trkpt lat="48.22026" lon="7.38349">
        <ele>189.8</ele>
        <time>2019-08-09T14:05:53Z</time>
      </trkpt>
      <trkpt lat="48.22022" lon="7.38345">
        <ele>189.8</ele>
        <time>2019-08-09T14:05:54Z</time>
      </trkpt>
      <trkpt lat="48.22019" lon="7.38343">
        <ele>189.8</ele>
        <time>2019-08-09T14:05:55Z</time>
      </trkpt>
      <trkpt lat="48.22016" lon="7.3834">
        <ele>189.9</ele>
        <time>2019-08-09T14:05:56Z</time>
      </trkpt>
      <trkpt lat="48.22012" lon="7.38336">
        <ele>189.9</ele>
        <time>2019-08-09T14:05:57Z</time>
      </trkpt>
      <trkpt lat="48.22008" lon="7.38333">
        <ele>189.9</ele>
        <time>2019-08-09T14:05:58Z</time>
      </trkpt>
      <trkpt lat="48.22004" lon="7.3833">
        <ele>189.9</ele>
        <time>2019-08-09T14:05:59Z</time>
      </trkpt>
      <trkpt lat="48.21999" lon="7.38327">
        <ele>189.9</ele>
        <time>2019-08-09T14:06:00Z</time>
      </trkpt>
      <trkpt lat="48.21993" lon="7.38324">
        <ele>190</ele>
        <time>2019-08-09T14:06:01Z</time>
      </trkpt>
      <trkpt lat="48.21989" lon="7.38321">
        <ele>190</ele>
        <time>2019-08-09T14:06:02Z</time>
      </trkpt>
      <trkpt lat="48.21984" lon="7.38318">
        <ele>190</ele>
        <time>2019-08-09T14:06:03Z</time>
      </trkpt>
      <trkpt lat="48.2198" lon="7.38315">
        <ele>190</ele>
        <time>2019-08-09T14:06:04Z</time>
      </trkpt>
      <trkpt lat="48.21975" lon="7.38311">
        <ele>190.1</ele>
        <time>2019-08-09T14:06:05Z</time>
      </trkpt>
      <trkpt lat="48.21971" lon="7.38308">
        <ele>190.1</ele>
        <time>2019-08-09T14:06:06Z</time>
      </trkpt>
      <trkpt lat="48.21969" lon="7.38304">
        <ele>190.1</ele>
        <time>2019-08-09T14:06:07Z</time>
      </trkpt>
      <trkpt lat="48.21965" lon="7.38301">
        <ele>190.1</ele>
        <time>2019-08-09T14:06:08Z</time>
      </trkpt>
      <trkpt lat="48.21962" lon="7.38298">
        <ele>190.1</ele>
        <time>2019-08-09T14:06:09Z</time>
      </trkpt>
      <trkpt lat="48.21959" lon="7.38296">
        <ele>190.1</ele>
        <time>2019-08-09T14:06:10Z</time>
      </trkpt>
      <trkpt lat="48.21955" lon="7.3829">
        <ele>190.1</ele>
        <time>2019-08-09T14:06:12Z</time>
      </trkpt>
      <trkpt lat="48.21951" lon="7.38287">
        <ele>190.1</ele>
        <time>2019-08-09T14:06:14Z</time>
      </trkpt>
      <trkpt lat="48.21949" lon="7.38283">
        <ele>190.1</ele>
        <time>2019-08-09T14:06:23Z</time>
      </trkpt>
      <trkpt lat="48.21946" lon="7.38281">
        <ele>190.1</ele>
        <time>2019-08-09T14:06:24Z</time>
      </trkpt>
      <trkpt lat="48.21944" lon="7.38279">
        <ele>190.1</ele>
        <time>2019-08-09T14:06:25Z</time>
      </trkpt>
      <trkpt lat="48.21941" lon="7.38277">
        <ele>190.1</ele>
        <time>2019-08-09T14:06:26Z</time>
      </trkpt>
      <trkpt lat="48.21939" lon="7.38275">
        <ele>190.1</ele>
        <time>2019-08-09T14:06:27Z</time>
      </trkpt>
      <trkpt lat="48.21935" lon="7.38271">
        <ele>190.2</ele>
        <time>2019-08-09T14:06:29Z</time>
      </trkpt>
      <trkpt lat="48.2193" lon="7.38267">
        <ele>190.2</ele>
        <time>2019-08-09T14:06:31Z</time>
      </trkpt>
      <trkpt lat="48.21927" lon="7.38266">
        <ele>190.2</ele>
        <time>2019-08-09T14:06:32Z</time>
      </trkpt>
      <trkpt lat="48.21924" lon="7.38264">
        <ele>190.2</ele>
        <time>2019-08-09T14:06:33Z</time>
      </trkpt>
      <trkpt lat="48.21921" lon="7.38264">
        <ele>190.2</ele>
        <time>2019-08-09T14:06:34Z</time>
      </trkpt>
      <trkpt lat="48.21917" lon="7.38263">
        <ele>190.2</ele>
        <time>2019-08-09T14:06:35Z</time>
      </trkpt>
      <trkpt lat="48.21913" lon="7.38261">
        <ele>190.2</ele>
        <time>2019-08-09T14:06:36Z</time>
      </trkpt>
      <trkpt lat="48.21909" lon="7.3826">
        <ele>190.2</ele>
        <time>2019-08-09T14:06:37Z</time>
      </trkpt>
      <trkpt lat="48.21905" lon="7.38259">
        <ele>190.2</ele>
        <time>2019-08-09T14:06:38Z</time>
      </trkpt>
      <trkpt lat="48.21902" lon="7.38258">
        <ele>190.3</ele>
        <time>2019-08-09T14:06:39Z</time>
      </trkpt>
      <trkpt lat="48.21899" lon="7.38258">
        <ele>190.3</ele>
        <time>2019-08-09T14:06:40Z</time>
      </trkpt>
      <trkpt lat="48.21896" lon="7.38256">
        <ele>190.3</ele>
        <time>2019-08-09T14:06:41Z</time>
      </trkpt>
      <trkpt lat="48.21892" lon="7.38256">
        <ele>190.3</ele>
        <time>2019-08-09T14:06:42Z</time>
      </trkpt>
      <trkpt lat="48.21888" lon="7.38255">
        <ele>190.3</ele>
        <time>2019-08-09T14:06:43Z</time>
      </trkpt>
      <trkpt lat="48.21884" lon="7.38254">
        <ele>190.3</ele>
        <time>2019-08-09T14:06:44Z</time>
      </trkpt>
      <trkpt lat="48.21879" lon="7.38253">
        <ele>190.4</ele>
        <time>2019-08-09T14:06:45Z</time>
      </trkpt>
      <trkpt lat="48.21875" lon="7.38252">
        <ele>190.4</ele>
        <time>2019-08-09T14:06:46Z</time>
      </trkpt>
      <trkpt lat="48.21872" lon="7.38251">
        <ele>190.4</ele>
        <time>2019-08-09T14:06:47Z</time>
      </trkpt>
      <trkpt lat="48.21869" lon="7.38252">
        <ele>190.4</ele>
        <time>2019-08-09T14:06:48Z</time>
      </trkpt>
      <trkpt lat="48.21865" lon="7.38252">
        <ele>190.4</ele>
        <time>2019-08-09T14:06:49Z</time>
      </trkpt>
      <trkpt lat="48.21862" lon="7.38251">
        <ele>190.5</ele>
        <time>2019-08-09T14:06:50Z</time>
      </trkpt>
      <trkpt lat="48.21859" lon="7.38251">
        <ele>190.5</ele>
        <time>2019-08-09T14:06:51Z</time>
      </trkpt>
      <trkpt lat="48.21854" lon="7.3825">
        <ele>190.6</ele>
        <time>2019-08-09T14:06:52Z</time>
      </trkpt>
      <trkpt lat="48.21851" lon="7.3825">
        <ele>190.6</ele>
        <time>2019-08-09T14:06:53Z</time>
      </trkpt>
      <trkpt lat="48.21846" lon="7.38249">
        <ele>190.6</ele>
        <time>2019-08-09T14:06:54Z</time>
      </trkpt>
      <trkpt lat="48.21842" lon="7.38248">
        <ele>190.7</ele>
        <time>2019-08-09T14:06:55Z</time>
      </trkpt>
      <trkpt lat="48.21839" lon="7.38247">
        <ele>190.7</ele>
        <time>2019-08-09T14:06:56Z</time>
      </trkpt>
      <trkpt lat="48.21835" lon="7.38246">
        <ele>190.8</ele>
        <time>2019-08-09T14:06:57Z</time>
      </trkpt>
      <trkpt lat="48.21832" lon="7.38246">
        <ele>190.8</ele>
        <time>2019-08-09T14:06:58Z</time>
      </trkpt>
      <trkpt lat="48.21828" lon="7.38245">
        <ele>190.8</ele>
        <time>2019-08-09T14:06:59Z</time>
      </trkpt>
      <trkpt lat="48.21824" lon="7.38244">
        <ele>190.9</ele>
        <time>2019-08-09T14:07:00Z</time>
      </trkpt>
      <trkpt lat="48.2182" lon="7.38243">
        <ele>190.9</ele>
        <time>2019-08-09T14:07:01Z</time>
      </trkpt>
      <trkpt lat="48.21815" lon="7.38242">
        <ele>191</ele>
        <time>2019-08-09T14:07:02Z</time>
      </trkpt>
      <trkpt lat="48.2181" lon="7.3824">
        <ele>191</ele>
        <time>2019-08-09T14:07:03Z</time>
      </trkpt>
      <trkpt lat="48.21806" lon="7.38239">
        <ele>191.1</ele>
        <time>2019-08-09T14:07:04Z</time>
      </trkpt>
      <trkpt lat="48.21802" lon="7.38239">
        <ele>191.1</ele>
        <time>2019-08-09T14:07:05Z</time>
      </trkpt>
      <trkpt lat="48.21797" lon="7.38239">
        <ele>191.1</ele>
        <time>2019-08-09T14:07:06Z</time>
      </trkpt>
      <trkpt lat="48.21793" lon="7.38237">
        <ele>191.2</ele>
        <time>2019-08-09T14:07:07Z</time>
      </trkpt>
      <trkpt lat="48.21789" lon="7.38236">
        <ele>191.2</ele>
        <time>2019-08-09T14:07:08Z</time>
      </trkpt>
      <trkpt lat="48.21786" lon="7.38235">
        <ele>191.2</ele>
        <time>2019-08-09T14:07:09Z</time>
      </trkpt>
      <trkpt lat="48.21782" lon="7.38234">
        <ele>191.2</ele>
        <time>2019-08-09T14:07:10Z</time>
      </trkpt>
      <trkpt lat="48.21778" lon="7.38233">
        <ele>191.2</ele>
        <time>2019-08-09T14:07:11Z</time>
      </trkpt>
      <trkpt lat="48.21775" lon="7.38232">
        <ele>191.3</ele>
        <time>2019-08-09T14:07:12Z</time>
      </trkpt>
      <trkpt lat="48.21771" lon="7.38231">
        <ele>191.3</ele>
        <time>2019-08-09T14:07:13Z</time>
      </trkpt>
      <trkpt lat="48.21767" lon="7.38229">
        <ele>191.3</ele>
        <time>2019-08-09T14:07:14Z</time>
      </trkpt>
      <trkpt lat="48.21764" lon="7.38229">
        <ele>191.3</ele>
        <time>2019-08-09T14:07:15Z</time>
      </trkpt>
      <trkpt lat="48.2176" lon="7.38228">
        <ele>191.4</ele>
        <time>2019-08-09T14:07:16Z</time>
      </trkpt>
      <trkpt lat="48.21756" lon="7.38226">
        <ele>191.4</ele>
        <time>2019-08-09T14:07:17Z</time>
      </trkpt>
      <trkpt lat="48.21752" lon="7.38224">
        <ele>191.4</ele>
        <time>2019-08-09T14:07:18Z</time>
      </trkpt>
      <trkpt lat="48.21748" lon="7.38221">
        <ele>191.5</ele>
        <time>2019-08-09T14:07:19Z</time>
      </trkpt>
      <trkpt lat="48.21743" lon="7.38219">
        <ele>191.5</ele>
        <time>2019-08-09T14:07:20Z</time>
      </trkpt>
      <trkpt lat="48.21738" lon="7.38217">
        <ele>191.5</ele>
        <time>2019-08-09T14:07:21Z</time>
      </trkpt>
      <trkpt lat="48.21733" lon="7.38216">
        <ele>191.4</ele>
        <time>2019-08-09T14:07:22Z</time>
      </trkpt>
      <trkpt lat="48.21728" lon="7.38215">
        <ele>191.4</ele>
        <time>2019-08-09T14:07:23Z</time>
      </trkpt>
      <trkpt lat="48.21724" lon="7.38214">
        <ele>191.4</ele>
        <time>2019-08-09T14:07:24Z</time>
      </trkpt>
      <trkpt lat="48.21719" lon="7.38212">
        <ele>191.4</ele>
        <time>2019-08-09T14:07:25Z</time>
      </trkpt>
      <trkpt lat="48.21713" lon="7.3821">
        <ele>191.4</ele>
        <time>2019-08-09T14:07:26Z</time>
      </trkpt>
      <trkpt lat="48.21708" lon="7.38208">
        <ele>191.4</ele>
        <time>2019-08-09T14:07:27Z</time>
      </trkpt>
      <trkpt lat="48.21703" lon="7.38206">
        <ele>191.4</ele>
        <time>2019-08-09T14:07:28Z</time>
      </trkpt>
      <trkpt lat="48.21698" lon="7.38204">
        <ele>191.4</ele>
        <time>2019-08-09T14:07:29Z</time>
      </trkpt>
      <trkpt lat="48.21693" lon="7.38203">
        <ele>191.4</ele>
        <time>2019-08-09T14:07:30Z</time>
      </trkpt>
      <trkpt lat="48.21688" lon="7.38202">
        <ele>191.4</ele>
        <time>2019-08-09T14:07:31Z</time>
      </trkpt>
      <trkpt lat="48.21683" lon="7.38201">
        <ele>191.4</ele>
        <time>2019-08-09T14:07:32Z</time>
      </trkpt>
      <trkpt lat="48.21677" lon="7.382">
        <ele>191.4</ele>
        <time>2019-08-09T14:07:33Z</time>
      </trkpt>
      <trkpt lat="48.21672" lon="7.38199">
        <ele>191.4</ele>
        <time>2019-08-09T14:07:34Z</time>
      </trkpt>
      <trkpt lat="48.21666" lon="7.38197">
        <ele>191.4</ele>
        <time>2019-08-09T14:07:35Z</time>
      </trkpt>
      <trkpt lat="48.21659" lon="7.38196">
        <ele>191.4</ele>
        <time>2019-08-09T14:07:36Z</time>
      </trkpt>
      <trkpt lat="48.21653" lon="7.38194">
        <ele>191.3</ele>
        <time>2019-08-09T14:07:37Z</time>
      </trkpt>
      <trkpt lat="48.21646" lon="7.38193">
        <ele>191.3</ele>
        <time>2019-08-09T14:07:38Z</time>
      </trkpt>
      <trkpt lat="48.2164" lon="7.38191">
        <ele>191.3</ele>
        <time>2019-08-09T14:07:39Z</time>
      </trkpt>
      <trkpt lat="48.21634" lon="7.38191">
        <ele>191.2</ele>
        <time>2019-08-09T14:07:40Z</time>
      </trkpt>
      <trkpt lat="48.21627" lon="7.3819">
        <ele>191.2</ele>
        <time>2019-08-09T14:07:41Z</time>
      </trkpt>
      <trkpt lat="48.2162" lon="7.38189">
        <ele>191.1</ele>
        <time>2019-08-09T14:07:42Z</time>
      </trkpt>
      <trkpt lat="48.21614" lon="7.38187">
        <ele>191</ele>
        <time>2019-08-09T14:07:43Z</time>
      </trkpt>
      <trkpt lat="48.21607" lon="7.38187">
        <ele>190.9</ele>
        <time>2019-08-09T14:07:44Z</time>
      </trkpt>
      <trkpt lat="48.21601" lon="7.38187">
        <ele>190.8</ele>
        <time>2019-08-09T14:07:45Z</time>
      </trkpt>
      <trkpt lat="48.21594" lon="7.38186">
        <ele>190.6</ele>
        <time>2019-08-09T14:07:46Z</time>
      </trkpt>
      <trkpt lat="48.21588" lon="7.38186">
        <ele>190.4</ele>
        <time>2019-08-09T14:07:47Z</time>
      </trkpt>
      <trkpt lat="48.21582" lon="7.38185">
        <ele>190.2</ele>
        <time>2019-08-09T14:07:48Z</time>
      </trkpt>
      <trkpt lat="48.21576" lon="7.38184">
        <ele>189.9</ele>
        <time>2019-08-09T14:07:49Z</time>
      </trkpt>
      <trkpt lat="48.2157" lon="7.38183">
        <ele>189.5</ele>
        <time>2019-08-09T14:07:50Z</time>
      </trkpt>
      <trkpt lat="48.21564" lon="7.38182">
        <ele>189.1</ele>
        <time>2019-08-09T14:07:51Z</time>
      </trkpt>
      <trkpt lat="48.21558" lon="7.38181">
        <ele>188.7</ele>
        <time>2019-08-09T14:07:52Z</time>
      </trkpt>
      <trkpt lat="48.21552" lon="7.3818">
        <ele>188.3</ele>
        <time>2019-08-09T14:07:53Z</time>
      </trkpt>
      <trkpt lat="48.21547" lon="7.38178">
        <ele>187.9</ele>
        <time>2019-08-09T14:07:54Z</time>
      </trkpt>
      <trkpt lat="48.21541" lon="7.38178">
        <ele>187.5</ele>
        <time>2019-08-09T14:07:55Z</time>
      </trkpt>
      <trkpt lat="48.21535" lon="7.38178">
        <ele>187</ele>
        <time>2019-08-09T14:07:56Z</time>
      </trkpt>
      <trkpt lat="48.21529" lon="7.38178">
        <ele>186.6</ele>
        <time>2019-08-09T14:07:57Z</time>
      </trkpt>
      <trkpt lat="48.21523" lon="7.38178">
        <ele>186.2</ele>
        <time>2019-08-09T14:07:58Z</time>
      </trkpt>
      <trkpt lat="48.21517" lon="7.38177">
        <ele>185.9</ele>
        <time>2019-08-09T14:07:59Z</time>
      </trkpt>
      <trkpt lat="48.21511" lon="7.38177">
        <ele>185.7</ele>
        <time>2019-08-09T14:08:00Z</time>
      </trkpt>
      <trkpt lat="48.21506" lon="7.38177">
        <ele>185.5</ele>
        <time>2019-08-09T14:08:01Z</time>
      </trkpt>
      <trkpt lat="48.215" lon="7.38176">
        <ele>185.3</ele>
        <time>2019-08-09T14:08:02Z</time>
      </trkpt>
      <trkpt lat="48.21495" lon="7.38175">
        <ele>185.2</ele>
        <time>2019-08-09T14:08:03Z</time>
      </trkpt>
      <trkpt lat="48.2149" lon="7.38173">
        <ele>185.1</ele>
        <time>2019-08-09T14:08:04Z</time>
      </trkpt>
      <trkpt lat="48.21485" lon="7.38171">
        <ele>185.1</ele>
        <time>2019-08-09T14:08:05Z</time>
      </trkpt>
      <trkpt lat="48.2148" lon="7.3817">
        <ele>185</ele>
        <time>2019-08-09T14:08:06Z</time>
      </trkpt>
      <trkpt lat="48.21476" lon="7.38167">
        <ele>185</ele>
        <time>2019-08-09T14:08:07Z</time>
      </trkpt>
      <trkpt lat="48.21472" lon="7.38162">
        <ele>184.9</ele>
        <time>2019-08-09T14:08:08Z</time>
      </trkpt>
      <trkpt lat="48.21468" lon="7.38157">
        <ele>184.9</ele>
        <time>2019-08-09T14:08:09Z</time>
      </trkpt>
      <trkpt lat="48.21464" lon="7.38152">
        <ele>184.9</ele>
        <time>2019-08-09T14:08:10Z</time>
      </trkpt>
      <trkpt lat="48.2146" lon="7.38146">
        <ele>184.8</ele>
        <time>2019-08-09T14:08:11Z</time>
      </trkpt>
      <trkpt lat="48.21456" lon="7.38141">
        <ele>184.8</ele>
        <time>2019-08-09T14:08:12Z</time>
      </trkpt>
      <trkpt lat="48.21452" lon="7.38136">
        <ele>184.7</ele>
        <time>2019-08-09T14:08:13Z</time>
      </trkpt>
      <trkpt lat="48.21449" lon="7.38131">
        <ele>184.7</ele>
        <time>2019-08-09T14:08:14Z</time>
      </trkpt>
      <trkpt lat="48.21445" lon="7.38126">
        <ele>184.6</ele>
        <time>2019-08-09T14:08:15Z</time>
      </trkpt>
      <trkpt lat="48.21442" lon="7.38121">
        <ele>184.5</ele>
        <time>2019-08-09T14:08:16Z</time>
      </trkpt>
      <trkpt lat="48.21439" lon="7.38116">
        <ele>184.5</ele>
        <time>2019-08-09T14:08:17Z</time>
      </trkpt>
      <trkpt lat="48.21435" lon="7.38111">
        <ele>184.4</ele>
        <time>2019-08-09T14:08:18Z</time>
      </trkpt>
      <trkpt lat="48.21431" lon="7.38106">
        <ele>184.3</ele>
        <time>2019-08-09T14:08:19Z</time>
      </trkpt>
      <trkpt lat="48.21427" lon="7.38101">
        <ele>184.3</ele>
        <time>2019-08-09T14:08:20Z</time>
      </trkpt>
      <trkpt lat="48.21423" lon="7.38096">
        <ele>184.2</ele>
        <time>2019-08-09T14:08:21Z</time>
      </trkpt>
      <trkpt lat="48.21419" lon="7.38091">
        <ele>184.1</ele>
        <time>2019-08-09T14:08:22Z</time>
      </trkpt>
      <trkpt lat="48.21415" lon="7.38086">
        <ele>184.1</ele>
        <time>2019-08-09T14:08:23Z</time>
      </trkpt>
      <trkpt lat="48.21411" lon="7.38081">
        <ele>184.1</ele>
        <time>2019-08-09T14:08:24Z</time>
      </trkpt>
      <trkpt lat="48.21406" lon="7.38076">
        <ele>184.1</ele>
        <time>2019-08-09T14:08:25Z</time>
      </trkpt>
      <trkpt lat="48.21402" lon="7.38071">
        <ele>184.1</ele>
        <time>2019-08-09T14:08:26Z</time>
      </trkpt>
      <trkpt lat="48.21398" lon="7.38066">
        <ele>184.1</ele>
        <time>2019-08-09T14:08:27Z</time>
      </trkpt>
      <trkpt lat="48.21394" lon="7.38061">
        <ele>184.1</ele>
        <time>2019-08-09T14:08:28Z</time>
      </trkpt>
      <trkpt lat="48.2139" lon="7.38056">
        <ele>184.1</ele>
        <time>2019-08-09T14:08:29Z</time>
      </trkpt>
      <trkpt lat="48.21385" lon="7.38052">
        <ele>184.1</ele>
        <time>2019-08-09T14:08:30Z</time>
      </trkpt>
      <trkpt lat="48.21381" lon="7.38047">
        <ele>184.2</ele>
        <time>2019-08-09T14:08:31Z</time>
      </trkpt>
      <trkpt lat="48.21377" lon="7.38042">
        <ele>184.2</ele>
        <time>2019-08-09T14:08:32Z</time>
      </trkpt>
      <trkpt lat="48.21373" lon="7.38038">
        <ele>184.3</ele>
        <time>2019-08-09T14:08:33Z</time>
      </trkpt>
      <trkpt lat="48.2137" lon="7.38033">
        <ele>184.4</ele>
        <time>2019-08-09T14:08:34Z</time>
      </trkpt>
      <trkpt lat="48.21365" lon="7.38028">
        <ele>184.5</ele>
        <time>2019-08-09T14:08:35Z</time>
      </trkpt>
      <trkpt lat="48.21361" lon="7.38023">
        <ele>184.6</ele>
        <time>2019-08-09T14:08:36Z</time>
      </trkpt>
      <trkpt lat="48.21357" lon="7.38018">
        <ele>184.7</ele>
        <time>2019-08-09T14:08:37Z</time>
      </trkpt>
      <trkpt lat="48.21354" lon="7.38014">
        <ele>184.8</ele>
        <time>2019-08-09T14:08:38Z</time>
      </trkpt>
      <trkpt lat="48.2135" lon="7.38009">
        <ele>184.9</ele>
        <time>2019-08-09T14:08:39Z</time>
      </trkpt>
      <trkpt lat="48.21346" lon="7.38004">
        <ele>185</ele>
        <time>2019-08-09T14:08:40Z</time>
      </trkpt>
      <trkpt lat="48.21342" lon="7.37999">
        <ele>185</ele>
        <time>2019-08-09T14:08:41Z</time>
      </trkpt>
      <trkpt lat="48.21339" lon="7.37995">
        <ele>185</ele>
        <time>2019-08-09T14:08:42Z</time>
      </trkpt>
      <trkpt lat="48.21335" lon="7.3799">
        <ele>185</ele>
        <time>2019-08-09T14:08:43Z</time>
      </trkpt>
      <trkpt lat="48.2133" lon="7.37985">
        <ele>185</ele>
        <time>2019-08-09T14:08:44Z</time>
      </trkpt>
      <trkpt lat="48.21327" lon="7.3798">
        <ele>185</ele>
        <time>2019-08-09T14:08:45Z</time>
      </trkpt>
      <trkpt lat="48.21323" lon="7.37976">
        <ele>184.9</ele>
        <time>2019-08-09T14:08:46Z</time>
      </trkpt>
      <trkpt lat="48.21319" lon="7.3797">
        <ele>184.8</ele>
        <time>2019-08-09T14:08:47Z</time>
      </trkpt>
      <trkpt lat="48.21316" lon="7.37966">
        <ele>184.7</ele>
        <time>2019-08-09T14:08:48Z</time>
      </trkpt>
      <trkpt lat="48.21312" lon="7.37962">
        <ele>184.7</ele>
        <time>2019-08-09T14:08:49Z</time>
      </trkpt>
      <trkpt lat="48.21308" lon="7.37958">
        <ele>184.6</ele>
        <time>2019-08-09T14:08:50Z</time>
      </trkpt>
      <trkpt lat="48.21304" lon="7.37953">
        <ele>184.5</ele>
        <time>2019-08-09T14:08:51Z</time>
      </trkpt>
      <trkpt lat="48.213" lon="7.37948">
        <ele>184.5</ele>
        <time>2019-08-09T14:08:52Z</time>
      </trkpt>
      <trkpt lat="48.21297" lon="7.37945">
        <ele>184.5</ele>
        <time>2019-08-09T14:08:53Z</time>
      </trkpt>
      <trkpt lat="48.21294" lon="7.37942">
        <ele>184.5</ele>
        <time>2019-08-09T14:08:54Z</time>
      </trkpt>
      <trkpt lat="48.2129" lon="7.37938">
        <ele>184.5</ele>
        <time>2019-08-09T14:08:55Z</time>
      </trkpt>
      <trkpt lat="48.21286" lon="7.37934">
        <ele>184.5</ele>
        <time>2019-08-09T14:08:56Z</time>
      </trkpt>
      <trkpt lat="48.21283" lon="7.37929">
        <ele>184.5</ele>
        <time>2019-08-09T14:08:57Z</time>
      </trkpt>
      <trkpt lat="48.21279" lon="7.37924">
        <ele>184.5</ele>
        <time>2019-08-09T14:08:58Z</time>
      </trkpt>
      <trkpt lat="48.21274" lon="7.37919">
        <ele>184.5</ele>
        <time>2019-08-09T14:08:59Z</time>
      </trkpt>
      <trkpt lat="48.2127" lon="7.37913">
        <ele>184.5</ele>
        <time>2019-08-09T14:09:00Z</time>
      </trkpt>
      <trkpt lat="48.21265" lon="7.37908">
        <ele>184.5</ele>
        <time>2019-08-09T14:09:01Z</time>
      </trkpt>
      <trkpt lat="48.2126" lon="7.37904">
        <ele>184.6</ele>
        <time>2019-08-09T14:09:02Z</time>
      </trkpt>
      <trkpt lat="48.21256" lon="7.379">
        <ele>184.6</ele>
        <time>2019-08-09T14:09:03Z</time>
      </trkpt>
      <trkpt lat="48.21251" lon="7.37896">
        <ele>184.6</ele>
        <time>2019-08-09T14:09:04Z</time>
      </trkpt>
      <trkpt lat="48.21247" lon="7.37892">
        <ele>184.6</ele>
        <time>2019-08-09T14:09:05Z</time>
      </trkpt>
      <trkpt lat="48.21242" lon="7.37888">
        <ele>184.6</ele>
        <time>2019-08-09T14:09:06Z</time>
      </trkpt>
      <trkpt lat="48.21238" lon="7.37884">
        <ele>184.6</ele>
        <time>2019-08-09T14:09:07Z</time>
      </trkpt>
      <trkpt lat="48.21234" lon="7.3788">
        <ele>184.7</ele>
        <time>2019-08-09T14:09:08Z</time>
      </trkpt>
      <trkpt lat="48.2123" lon="7.37877">
        <ele>184.7</ele>
        <time>2019-08-09T14:09:09Z</time>
      </trkpt>
      <trkpt lat="48.21227" lon="7.37873">
        <ele>184.7</ele>
        <time>2019-08-09T14:09:10Z</time>
      </trkpt>
      <trkpt lat="48.21223" lon="7.3787">
        <ele>184.7</ele>
        <time>2019-08-09T14:09:11Z</time>
      </trkpt>
      <trkpt lat="48.2122" lon="7.37867">
        <ele>184.8</ele>
        <time>2019-08-09T14:09:12Z</time>
      </trkpt>
      <trkpt lat="48.21217" lon="7.37865">
        <ele>184.8</ele>
        <time>2019-08-09T14:09:13Z</time>
      </trkpt>
      <trkpt lat="48.21213" lon="7.37863">
        <ele>184.8</ele>
        <time>2019-08-09T14:09:14Z</time>
      </trkpt>
      <trkpt lat="48.2121" lon="7.3786">
        <ele>184.8</ele>
        <time>2019-08-09T14:09:15Z</time>
      </trkpt>
      <trkpt lat="48.21206" lon="7.37857">
        <ele>184.8</ele>
        <time>2019-08-09T14:09:16Z</time>
      </trkpt>
      <trkpt lat="48.21202" lon="7.37855">
        <ele>184.8</ele>
        <time>2019-08-09T14:09:17Z</time>
      </trkpt>
      <trkpt lat="48.21197" lon="7.37853">
        <ele>184.8</ele>
        <time>2019-08-09T14:09:18Z</time>
      </trkpt>
      <trkpt lat="48.21192" lon="7.37852">
        <ele>184.8</ele>
        <time>2019-08-09T14:09:19Z</time>
      </trkpt>
      <trkpt lat="48.21187" lon="7.3785">
        <ele>184.8</ele>
        <time>2019-08-09T14:09:20Z</time>
      </trkpt>
      <trkpt lat="48.21182" lon="7.37849">
        <ele>184.8</ele>
        <time>2019-08-09T14:09:21Z</time>
      </trkpt>
      <trkpt lat="48.21178" lon="7.37847">
        <ele>184.8</ele>
        <time>2019-08-09T14:09:22Z</time>
      </trkpt>
      <trkpt lat="48.21173" lon="7.37845">
        <ele>184.8</ele>
        <time>2019-08-09T14:09:23Z</time>
      </trkpt>
      <trkpt lat="48.21169" lon="7.37843">
        <ele>184.8</ele>
        <time>2019-08-09T14:09:24Z</time>
      </trkpt>
      <trkpt lat="48.21165" lon="7.3784">
        <ele>184.8</ele>
        <time>2019-08-09T14:09:25Z</time>
      </trkpt>
      <trkpt lat="48.21161" lon="7.37839">
        <ele>184.8</ele>
        <time>2019-08-09T14:09:26Z</time>
      </trkpt>
      <trkpt lat="48.21158" lon="7.37837">
        <ele>184.8</ele>
        <time>2019-08-09T14:09:27Z</time>
      </trkpt>
      <trkpt lat="48.21154" lon="7.37836">
        <ele>184.8</ele>
        <time>2019-08-09T14:09:28Z</time>
      </trkpt>
      <trkpt lat="48.2115" lon="7.37835">
        <ele>184.8</ele>
        <time>2019-08-09T14:09:29Z</time>
      </trkpt>
      <trkpt lat="48.21146" lon="7.37834">
        <ele>184.8</ele>
        <time>2019-08-09T14:09:30Z</time>
      </trkpt>
      <trkpt lat="48.21142" lon="7.37831">
        <ele>184.8</ele>
        <time>2019-08-09T14:09:31Z</time>
      </trkpt>
      <trkpt lat="48.21137" lon="7.37828">
        <ele>184.8</ele>
        <time>2019-08-09T14:09:32Z</time>
      </trkpt>
      <trkpt lat="48.21133" lon="7.37826">
        <ele>184.8</ele>
        <time>2019-08-09T14:09:33Z</time>
      </trkpt>
      <trkpt lat="48.21128" lon="7.37822">
        <ele>184.8</ele>
        <time>2019-08-09T14:09:34Z</time>
      </trkpt>
      <trkpt lat="48.21124" lon="7.37822">
        <ele>184.8</ele>
        <time>2019-08-09T14:09:35Z</time>
      </trkpt>
      <trkpt lat="48.2112" lon="7.37821">
        <ele>184.8</ele>
        <time>2019-08-09T14:09:36Z</time>
      </trkpt>
      <trkpt lat="48.21115" lon="7.37819">
        <ele>184.9</ele>
        <time>2019-08-09T14:09:37Z</time>
      </trkpt>
      <trkpt lat="48.21111" lon="7.37816">
        <ele>184.9</ele>
        <time>2019-08-09T14:09:38Z</time>
      </trkpt>
      <trkpt lat="48.21107" lon="7.37815">
        <ele>184.9</ele>
        <time>2019-08-09T14:09:39Z</time>
      </trkpt>
      <trkpt lat="48.21101" lon="7.37813">
        <ele>184.9</ele>
        <time>2019-08-09T14:09:40Z</time>
      </trkpt>
      <trkpt lat="48.21097" lon="7.37811">
        <ele>185</ele>
        <time>2019-08-09T14:09:41Z</time>
      </trkpt>
      <trkpt lat="48.21093" lon="7.37809">
        <ele>185.1</ele>
        <time>2019-08-09T14:09:42Z</time>
      </trkpt>
      <trkpt lat="48.2109" lon="7.37807">
        <ele>185.1</ele>
        <time>2019-08-09T14:09:43Z</time>
      </trkpt>
      <trkpt lat="48.21087" lon="7.37804">
        <ele>185.2</ele>
        <time>2019-08-09T14:09:44Z</time>
      </trkpt>
      <trkpt lat="48.21083" lon="7.37801">
        <ele>185.3</ele>
        <time>2019-08-09T14:09:45Z</time>
      </trkpt>
      <trkpt lat="48.21079" lon="7.37798">
        <ele>185.5</ele>
        <time>2019-08-09T14:09:46Z</time>
      </trkpt>
      <trkpt lat="48.21075" lon="7.37795">
        <ele>185.7</ele>
        <time>2019-08-09T14:09:47Z</time>
      </trkpt>
      <trkpt lat="48.21071" lon="7.37792">
        <ele>185.8</ele>
        <time>2019-08-09T14:09:48Z</time>
      </trkpt>
      <trkpt lat="48.21067" lon="7.3779">
        <ele>186</ele>
        <time>2019-08-09T14:09:49Z</time>
      </trkpt>
      <trkpt lat="48.21063" lon="7.37787">
        <ele>186.1</ele>
        <time>2019-08-09T14:09:50Z</time>
      </trkpt>
      <trkpt lat="48.21059" lon="7.37785">
        <ele>186.1</ele>
        <time>2019-08-09T14:09:51Z</time>
      </trkpt>
      <trkpt lat="48.21055" lon="7.37784">
        <ele>186.2</ele>
        <time>2019-08-09T14:09:52Z</time>
      </trkpt>
      <trkpt lat="48.2105" lon="7.37782">
        <ele>186.2</ele>
        <time>2019-08-09T14:09:53Z</time>
      </trkpt>
      <trkpt lat="48.21046" lon="7.3778">
        <ele>186.3</ele>
        <time>2019-08-09T14:09:54Z</time>
      </trkpt>
      <trkpt lat="48.21042" lon="7.37778">
        <ele>186.3</ele>
        <time>2019-08-09T14:09:55Z</time>
      </trkpt>
      <trkpt lat="48.21037" lon="7.37776">
        <ele>186.3</ele>
        <time>2019-08-09T14:09:56Z</time>
      </trkpt>
      <trkpt lat="48.21033" lon="7.37773">
        <ele>186.4</ele>
        <time>2019-08-09T14:09:57Z</time>
      </trkpt>
      <trkpt lat="48.21029" lon="7.3777">
        <ele>186.4</ele>
        <time>2019-08-09T14:09:58Z</time>
      </trkpt>
      <trkpt lat="48.21025" lon="7.37768">
        <ele>186.5</ele>
        <time>2019-08-09T14:09:59Z</time>
      </trkpt>
      <trkpt lat="48.2102" lon="7.37765">
        <ele>186.5</ele>
        <time>2019-08-09T14:10:00Z</time>
      </trkpt>
      <trkpt lat="48.21015" lon="7.37763">
        <ele>186.6</ele>
        <time>2019-08-09T14:10:01Z</time>
      </trkpt>
      <trkpt lat="48.21011" lon="7.37761">
        <ele>186.6</ele>
        <time>2019-08-09T14:10:02Z</time>
      </trkpt>
      <trkpt lat="48.21006" lon="7.37759">
        <ele>186.6</ele>
        <time>2019-08-09T14:10:03Z</time>
      </trkpt>
      <trkpt lat="48.21002" lon="7.37757">
        <ele>186.7</ele>
        <time>2019-08-09T14:10:04Z</time>
      </trkpt>
      <trkpt lat="48.20998" lon="7.37755">
        <ele>186.7</ele>
        <time>2019-08-09T14:10:05Z</time>
      </trkpt>
      <trkpt lat="48.20994" lon="7.37753">
        <ele>186.7</ele>
        <time>2019-08-09T14:10:06Z</time>
      </trkpt>
      <trkpt lat="48.20991" lon="7.3775">
        <ele>186.8</ele>
        <time>2019-08-09T14:10:07Z</time>
      </trkpt>
      <trkpt lat="48.20988" lon="7.37748">
        <ele>186.8</ele>
        <time>2019-08-09T14:10:08Z</time>
      </trkpt>
      <trkpt lat="48.20985" lon="7.37746">
        <ele>186.8</ele>
        <time>2019-08-09T14:10:09Z</time>
      </trkpt>
      <trkpt lat="48.20981" lon="7.37743">
        <ele>186.9</ele>
        <time>2019-08-09T14:10:10Z</time>
      </trkpt>
      <trkpt lat="48.20976" lon="7.3774">
        <ele>186.9</ele>
        <time>2019-08-09T14:10:11Z</time>
      </trkpt>
      <trkpt lat="48.20972" lon="7.37738">
        <ele>187</ele>
        <time>2019-08-09T14:10:12Z</time>
      </trkpt>
      <trkpt lat="48.20968" lon="7.37736">
        <ele>187</ele>
        <time>2019-08-09T14:10:13Z</time>
      </trkpt>
      <trkpt lat="48.20964" lon="7.37733">
        <ele>187.1</ele>
        <time>2019-08-09T14:10:14Z</time>
      </trkpt>
      <trkpt lat="48.20959" lon="7.37732">
        <ele>187.1</ele>
        <time>2019-08-09T14:10:15Z</time>
      </trkpt>
      <trkpt lat="48.20955" lon="7.37729">
        <ele>187.2</ele>
        <time>2019-08-09T14:10:16Z</time>
      </trkpt>
      <trkpt lat="48.20951" lon="7.37727">
        <ele>187.2</ele>
        <time>2019-08-09T14:10:17Z</time>
      </trkpt>
      <trkpt lat="48.20948" lon="7.37724">
        <ele>187.3</ele>
        <time>2019-08-09T14:10:18Z</time>
      </trkpt>
      <trkpt lat="48.20944" lon="7.37722">
        <ele>187.4</ele>
        <time>2019-08-09T14:10:19Z</time>
      </trkpt>
      <trkpt lat="48.2094" lon="7.3772">
        <ele>187.4</ele>
        <time>2019-08-09T14:10:20Z</time>
      </trkpt>
      <trkpt lat="48.20936" lon="7.37718">
        <ele>187.5</ele>
        <time>2019-08-09T14:10:21Z</time>
      </trkpt>
      <trkpt lat="48.20932" lon="7.37715">
        <ele>187.6</ele>
        <time>2019-08-09T14:10:22Z</time>
      </trkpt>
      <trkpt lat="48.20928" lon="7.37713">
        <ele>187.7</ele>
        <time>2019-08-09T14:10:23Z</time>
      </trkpt>
      <trkpt lat="48.20924" lon="7.37711">
        <ele>187.7</ele>
        <time>2019-08-09T14:10:24Z</time>
      </trkpt>
      <trkpt lat="48.2092" lon="7.37708">
        <ele>187.8</ele>
        <time>2019-08-09T14:10:25Z</time>
      </trkpt>
      <trkpt lat="48.20916" lon="7.37705">
        <ele>187.9</ele>
        <time>2019-08-09T14:10:26Z</time>
      </trkpt>
      <trkpt lat="48.20912" lon="7.37701">
        <ele>188</ele>
        <time>2019-08-09T14:10:27Z</time>
      </trkpt>
      <trkpt lat="48.20909" lon="7.37697">
        <ele>188</ele>
        <time>2019-08-09T14:10:28Z</time>
      </trkpt>
      <trkpt lat="48.20906" lon="7.37694">
        <ele>188.1</ele>
        <time>2019-08-09T14:10:29Z</time>
      </trkpt>
      <trkpt lat="48.20903" lon="7.37691">
        <ele>188.2</ele>
        <time>2019-08-09T14:10:30Z</time>
      </trkpt>
      <trkpt lat="48.209" lon="7.37687">
        <ele>188.3</ele>
        <time>2019-08-09T14:10:31Z</time>
      </trkpt>
      <trkpt lat="48.20897" lon="7.37683">
        <ele>188.3</ele>
        <time>2019-08-09T14:10:32Z</time>
      </trkpt>
      <trkpt lat="48.20894" lon="7.37681">
        <ele>188.4</ele>
        <time>2019-08-09T14:10:33Z</time>
      </trkpt>
      <trkpt lat="48.20891" lon="7.37678">
        <ele>188.4</ele>
        <time>2019-08-09T14:10:34Z</time>
      </trkpt>
      <trkpt lat="48.20887" lon="7.37675">
        <ele>188.5</ele>
        <time>2019-08-09T14:10:35Z</time>
      </trkpt>
      <trkpt lat="48.20884" lon="7.37672">
        <ele>188.5</ele>
        <time>2019-08-09T14:10:36Z</time>
      </trkpt>
      <trkpt lat="48.2088" lon="7.37668">
        <ele>188.6</ele>
        <time>2019-08-09T14:10:37Z</time>
      </trkpt>
      <trkpt lat="48.20876" lon="7.37664">
        <ele>188.7</ele>
        <time>2019-08-09T14:10:38Z</time>
      </trkpt>
      <trkpt lat="48.20873" lon="7.3766">
        <ele>188.7</ele>
        <time>2019-08-09T14:10:39Z</time>
      </trkpt>
      <trkpt lat="48.2087" lon="7.37656">
        <ele>188.8</ele>
        <time>2019-08-09T14:10:40Z</time>
      </trkpt>
      <trkpt lat="48.20867" lon="7.37651">
        <ele>188.8</ele>
        <time>2019-08-09T14:10:41Z</time>
      </trkpt>
      <trkpt lat="48.20864" lon="7.37648">
        <ele>188.9</ele>
        <time>2019-08-09T14:10:42Z</time>
      </trkpt>
      <trkpt lat="48.20861" lon="7.37646">
        <ele>188.9</ele>
        <time>2019-08-09T14:10:43Z</time>
      </trkpt>
      <trkpt lat="48.20858" lon="7.37643">
        <ele>189</ele>
        <time>2019-08-09T14:10:44Z</time>
      </trkpt>
      <trkpt lat="48.20854" lon="7.3764">
        <ele>189</ele>
        <time>2019-08-09T14:10:45Z</time>
      </trkpt>
      <trkpt lat="48.20851" lon="7.37636">
        <ele>189.1</ele>
        <time>2019-08-09T14:10:46Z</time>
      </trkpt>
      <trkpt lat="48.20848" lon="7.37633">
        <ele>189.1</ele>
        <time>2019-08-09T14:10:47Z</time>
      </trkpt>
      <trkpt lat="48.20845" lon="7.37629">
        <ele>189.2</ele>
        <time>2019-08-09T14:10:48Z</time>
      </trkpt>
      <trkpt lat="48.20842" lon="7.37625">
        <ele>189.3</ele>
        <time>2019-08-09T14:10:49Z</time>
      </trkpt>
      <trkpt lat="48.20838" lon="7.37621">
        <ele>189.3</ele>
        <time>2019-08-09T14:10:50Z</time>
      </trkpt>
      <trkpt lat="48.20834" lon="7.37617">
        <ele>189.4</ele>
        <time>2019-08-09T14:10:51Z</time>
      </trkpt>
      <trkpt lat="48.2083" lon="7.37612">
        <ele>189.4</ele>
        <time>2019-08-09T14:10:52Z</time>
      </trkpt>
      <trkpt lat="48.20826" lon="7.37608">
        <ele>189.5</ele>
        <time>2019-08-09T14:10:53Z</time>
      </trkpt>
      <trkpt lat="48.20823" lon="7.37605">
        <ele>189.6</ele>
        <time>2019-08-09T14:10:54Z</time>
      </trkpt>
      <trkpt lat="48.20819" lon="7.37602">
        <ele>189.6</ele>
        <time>2019-08-09T14:10:55Z</time>
      </trkpt>
      <trkpt lat="48.20816" lon="7.37598">
        <ele>189.7</ele>
        <time>2019-08-09T14:10:56Z</time>
      </trkpt>
      <trkpt lat="48.20812" lon="7.37595">
        <ele>189.7</ele>
        <time>2019-08-09T14:10:57Z</time>
      </trkpt>
      <trkpt lat="48.20808" lon="7.37592">
        <ele>189.8</ele>
        <time>2019-08-09T14:10:58Z</time>
      </trkpt>
      <trkpt lat="48.20804" lon="7.3759">
        <ele>189.9</ele>
        <time>2019-08-09T14:10:59Z</time>
      </trkpt>
      <trkpt lat="48.20801" lon="7.37587">
        <ele>189.9</ele>
        <time>2019-08-09T14:11:00Z</time>
      </trkpt>
      <trkpt lat="48.20798" lon="7.37583">
        <ele>190</ele>
        <time>2019-08-09T14:11:01Z</time>
      </trkpt>
      <trkpt lat="48.20794" lon="7.37579">
        <ele>190.1</ele>
        <time>2019-08-09T14:11:02Z</time>
      </trkpt>
      <trkpt lat="48.20791" lon="7.37575">
        <ele>190.1</ele>
        <time>2019-08-09T14:11:03Z</time>
      </trkpt>
      <trkpt lat="48.20787" lon="7.37572">
        <ele>190.2</ele>
        <time>2019-08-09T14:11:04Z</time>
      </trkpt>
      <trkpt lat="48.20784" lon="7.37568">
        <ele>190.3</ele>
        <time>2019-08-09T14:11:05Z</time>
      </trkpt>
      <trkpt lat="48.2078" lon="7.37566">
        <ele>190.3</ele>
        <time>2019-08-09T14:11:06Z</time>
      </trkpt>
      <trkpt lat="48.20776" lon="7.37563">
        <ele>190.4</ele>
        <time>2019-08-09T14:11:07Z</time>
      </trkpt>
      <trkpt lat="48.20773" lon="7.37559">
        <ele>190.5</ele>
        <time>2019-08-09T14:11:08Z</time>
      </trkpt>
      <trkpt lat="48.20769" lon="7.37555">
        <ele>190.6</ele>
        <time>2019-08-09T14:11:09Z</time>
      </trkpt>
      <trkpt lat="48.20766" lon="7.37551">
        <ele>190.6</ele>
        <time>2019-08-09T14:11:10Z</time>
      </trkpt>
      <trkpt lat="48.20762" lon="7.37548">
        <ele>190.7</ele>
        <time>2019-08-09T14:11:11Z</time>
      </trkpt>
      <trkpt lat="48.20758" lon="7.37544">
        <ele>190.8</ele>
        <time>2019-08-09T14:11:12Z</time>
      </trkpt>
      <trkpt lat="48.20754" lon="7.3754">
        <ele>190.9</ele>
        <time>2019-08-09T14:11:13Z</time>
      </trkpt>
      <trkpt lat="48.2075" lon="7.37537">
        <ele>191</ele>
        <time>2019-08-09T14:11:14Z</time>
      </trkpt>
      <trkpt lat="48.20747" lon="7.37534">
        <ele>191.1</ele>
        <time>2019-08-09T14:11:15Z</time>
      </trkpt>
      <trkpt lat="48.20744" lon="7.37531">
        <ele>191.2</ele>
        <time>2019-08-09T14:11:16Z</time>
      </trkpt>
      <trkpt lat="48.20741" lon="7.37527">
        <ele>191.4</ele>
        <time>2019-08-09T14:11:17Z</time>
      </trkpt>
      <trkpt lat="48.20738" lon="7.37523">
        <ele>191.6</ele>
        <time>2019-08-09T14:11:18Z</time>
      </trkpt>
      <trkpt lat="48.20734" lon="7.3752">
        <ele>191.7</ele>
        <time>2019-08-09T14:11:19Z</time>
      </trkpt>
      <trkpt lat="48.2073" lon="7.37517">
        <ele>191.9</ele>
        <time>2019-08-09T14:11:20Z</time>
      </trkpt>
      <trkpt lat="48.20726" lon="7.37514">
        <ele>192.2</ele>
        <time>2019-08-09T14:11:21Z</time>
      </trkpt>
      <trkpt lat="48.20722" lon="7.37511">
        <ele>192.3</ele>
        <time>2019-08-09T14:11:22Z</time>
      </trkpt>
      <trkpt lat="48.20719" lon="7.37507">
        <ele>192.5</ele>
        <time>2019-08-09T14:11:23Z</time>
      </trkpt>
      <trkpt lat="48.20715" lon="7.37503">
        <ele>192.6</ele>
        <time>2019-08-09T14:11:24Z</time>
      </trkpt>
      <trkpt lat="48.2071" lon="7.375">
        <ele>192.6</ele>
        <time>2019-08-09T14:11:25Z</time>
      </trkpt>
      <trkpt lat="48.20706" lon="7.37496">
        <ele>192.7</ele>
        <time>2019-08-09T14:11:26Z</time>
      </trkpt>
      <trkpt lat="48.20703" lon="7.37491">
        <ele>192.7</ele>
        <time>2019-08-09T14:11:27Z</time>
      </trkpt>
      <trkpt lat="48.20699" lon="7.37487">
        <ele>192.8</ele>
        <time>2019-08-09T14:11:28Z</time>
      </trkpt>
      <trkpt lat="48.20695" lon="7.37484">
        <ele>192.8</ele>
        <time>2019-08-09T14:11:29Z</time>
      </trkpt>
      <trkpt lat="48.20691" lon="7.37481">
        <ele>192.8</ele>
        <time>2019-08-09T14:11:30Z</time>
      </trkpt>
      <trkpt lat="48.20687" lon="7.37478">
        <ele>192.8</ele>
        <time>2019-08-09T14:11:31Z</time>
      </trkpt>
      <trkpt lat="48.20683" lon="7.37475">
        <ele>192.8</ele>
        <time>2019-08-09T14:11:32Z</time>
      </trkpt>
      <trkpt lat="48.20679" lon="7.37471">
        <ele>192.9</ele>
        <time>2019-08-09T14:11:33Z</time>
      </trkpt>
      <trkpt lat="48.20675" lon="7.37468">
        <ele>192.9</ele>
        <time>2019-08-09T14:11:34Z</time>
      </trkpt>
      <trkpt lat="48.20672" lon="7.37466">
        <ele>192.9</ele>
        <time>2019-08-09T14:11:35Z</time>
      </trkpt>
      <trkpt lat="48.20668" lon="7.37463">
        <ele>193</ele>
        <time>2019-08-09T14:11:36Z</time>
      </trkpt>
      <trkpt lat="48.20665" lon="7.37462">
        <ele>193</ele>
        <time>2019-08-09T14:11:37Z</time>
      </trkpt>
      <trkpt lat="48.20661" lon="7.3746">
        <ele>193</ele>
        <time>2019-08-09T14:11:38Z</time>
      </trkpt>
      <trkpt lat="48.20659" lon="7.37458">
        <ele>193.1</ele>
        <time>2019-08-09T14:11:39Z</time>
      </trkpt>
      <trkpt lat="48.20656" lon="7.37456">
        <ele>193.1</ele>
        <time>2019-08-09T14:11:40Z</time>
      </trkpt>
      <trkpt lat="48.20653" lon="7.37455">
        <ele>193.2</ele>
        <time>2019-08-09T14:11:41Z</time>
      </trkpt>
      <trkpt lat="48.2065" lon="7.37454">
        <ele>193.2</ele>
        <time>2019-08-09T14:11:42Z</time>
      </trkpt>
      <trkpt lat="48.20647" lon="7.37453">
        <ele>193.2</ele>
        <time>2019-08-09T14:11:43Z</time>
      </trkpt>
      <trkpt lat="48.20643" lon="7.37452">
        <ele>193.2</ele>
        <time>2019-08-09T14:11:44Z</time>
      </trkpt>
      <trkpt lat="48.20639" lon="7.37451">
        <ele>193.3</ele>
        <time>2019-08-09T14:11:45Z</time>
      </trkpt>
      <trkpt lat="48.20637" lon="7.37448">
        <ele>193.3</ele>
        <time>2019-08-09T14:11:46Z</time>
      </trkpt>
      <trkpt lat="48.20634" lon="7.37447">
        <ele>193.3</ele>
        <time>2019-08-09T14:11:47Z</time>
      </trkpt>
      <trkpt lat="48.20632" lon="7.37446">
        <ele>193.3</ele>
        <time>2019-08-09T14:11:48Z</time>
      </trkpt>
      <trkpt lat="48.20628" lon="7.37444">
        <ele>193.4</ele>
        <time>2019-08-09T14:11:50Z</time>
      </trkpt>
      <trkpt lat="48.20625" lon="7.37444">
        <ele>193.4</ele>
        <time>2019-08-09T14:11:52Z</time>
      </trkpt>
      <trkpt lat="48.20622" lon="7.37441">
        <ele>193.4</ele>
        <time>2019-08-09T14:11:56Z</time>
      </trkpt>
      <trkpt lat="48.20625" lon="7.37444">
        <ele>193.4</ele>
        <time>2019-08-09T14:12:01Z</time>
      </trkpt>
      <trkpt lat="48.20622" lon="7.37444">
        <ele>193.4</ele>
        <time>2019-08-09T14:12:50Z</time>
      </trkpt>
      <trkpt lat="48.20618" lon="7.37443">
        <ele>193.4</ele>
        <time>2019-08-09T14:12:52Z</time>
      </trkpt>
      <trkpt lat="48.20616" lon="7.37442">
        <ele>193.4</ele>
        <time>2019-08-09T14:12:53Z</time>
      </trkpt>
      <trkpt lat="48.20613" lon="7.37438">
        <ele>193.5</ele>
        <time>2019-08-09T14:12:54Z</time>
      </trkpt>
      <trkpt lat="48.2061" lon="7.37434">
        <ele>193.7</ele>
        <time>2019-08-09T14:12:55Z</time>
      </trkpt>
      <trkpt lat="48.20607" lon="7.37431">
        <ele>193.8</ele>
        <time>2019-08-09T14:12:56Z</time>
      </trkpt>
      <trkpt lat="48.20605" lon="7.37428">
        <ele>193.9</ele>
        <time>2019-08-09T14:12:57Z</time>
      </trkpt>
      <trkpt lat="48.20602" lon="7.37426">
        <ele>194</ele>
        <time>2019-08-09T14:12:58Z</time>
      </trkpt>
      <trkpt lat="48.206" lon="7.37423">
        <ele>194.1</ele>
        <time>2019-08-09T14:12:59Z</time>
      </trkpt>
      <trkpt lat="48.20597" lon="7.37419">
        <ele>194.2</ele>
        <time>2019-08-09T14:13:00Z</time>
      </trkpt>
      <trkpt lat="48.20595" lon="7.37414">
        <ele>194.3</ele>
        <time>2019-08-09T14:13:01Z</time>
      </trkpt>
      <trkpt lat="48.20593" lon="7.3741">
        <ele>194.4</ele>
        <time>2019-08-09T14:13:02Z</time>
      </trkpt>
      <trkpt lat="48.20591" lon="7.37406">
        <ele>194.4</ele>
        <time>2019-08-09T14:13:03Z</time>
      </trkpt>
      <trkpt lat="48.20588" lon="7.37402">
        <ele>194.5</ele>
        <time>2019-08-09T14:13:04Z</time>
      </trkpt>
      <trkpt lat="48.20586" lon="7.37398">
        <ele>194.6</ele>
        <time>2019-08-09T14:13:05Z</time>
      </trkpt>
      <trkpt lat="48.20583" lon="7.37394">
        <ele>194.7</ele>
        <time>2019-08-09T14:13:06Z</time>
      </trkpt>
      <trkpt lat="48.20581" lon="7.3739">
        <ele>194.7</ele>
        <time>2019-08-09T14:13:07Z</time>
      </trkpt>
      <trkpt lat="48.20579" lon="7.37386">
        <ele>194.8</ele>
        <time>2019-08-09T14:13:08Z</time>
      </trkpt>
      <trkpt lat="48.20577" lon="7.37383">
        <ele>194.8</ele>
        <time>2019-08-09T14:13:09Z</time>
      </trkpt>
      <trkpt lat="48.20575" lon="7.37379">
        <ele>194.9</ele>
        <time>2019-08-09T14:13:10Z</time>
      </trkpt>
      <trkpt lat="48.20572" lon="7.37376">
        <ele>195</ele>
        <time>2019-08-09T14:13:11Z</time>
      </trkpt>
      <trkpt lat="48.2057" lon="7.37372">
        <ele>195</ele>
        <time>2019-08-09T14:13:12Z</time>
      </trkpt>
      <trkpt lat="48.20569" lon="7.37368">
        <ele>195.1</ele>
        <time>2019-08-09T14:13:13Z</time>
      </trkpt>
      <trkpt lat="48.20567" lon="7.37364">
        <ele>195.1</ele>
        <time>2019-08-09T14:13:14Z</time>
      </trkpt>
      <trkpt lat="48.20566" lon="7.3736">
        <ele>195.1</ele>
        <time>2019-08-09T14:13:15Z</time>
      </trkpt>
      <trkpt lat="48.20565" lon="7.37355">
        <ele>195.1</ele>
        <time>2019-08-09T14:13:16Z</time>
      </trkpt>
      <trkpt lat="48.20564" lon="7.37351">
        <ele>195.1</ele>
        <time>2019-08-09T14:13:17Z</time>
      </trkpt>
      <trkpt lat="48.20563" lon="7.37346">
        <ele>195.1</ele>
        <time>2019-08-09T14:13:18Z</time>
      </trkpt>
      <trkpt lat="48.20563" lon="7.37341">
        <ele>195.1</ele>
        <time>2019-08-09T14:13:19Z</time>
      </trkpt>
      <trkpt lat="48.20563" lon="7.37336">
        <ele>195.1</ele>
        <time>2019-08-09T14:13:20Z</time>
      </trkpt>
      <trkpt lat="48.20562" lon="7.37331">
        <ele>195.1</ele>
        <time>2019-08-09T14:13:21Z</time>
      </trkpt>
      <trkpt lat="48.20562" lon="7.37326">
        <ele>195.1</ele>
        <time>2019-08-09T14:13:22Z</time>
      </trkpt>
      <trkpt lat="48.20561" lon="7.37322">
        <ele>195.1</ele>
        <time>2019-08-09T14:13:23Z</time>
      </trkpt>
      <trkpt lat="48.2056" lon="7.37316">
        <ele>195.1</ele>
        <time>2019-08-09T14:13:24Z</time>
      </trkpt>
      <trkpt lat="48.20559" lon="7.37311">
        <ele>195.1</ele>
        <time>2019-08-09T14:13:25Z</time>
      </trkpt>
      <trkpt lat="48.20558" lon="7.37306">
        <ele>195</ele>
        <time>2019-08-09T14:13:26Z</time>
      </trkpt>
      <trkpt lat="48.20558" lon="7.37301">
        <ele>195</ele>
        <time>2019-08-09T14:13:27Z</time>
      </trkpt>
      <trkpt lat="48.20557" lon="7.37296">
        <ele>195</ele>
        <time>2019-08-09T14:13:28Z</time>
      </trkpt>
      <trkpt lat="48.20557" lon="7.37291">
        <ele>195</ele>
        <time>2019-08-09T14:13:29Z</time>
      </trkpt>
      <trkpt lat="48.20556" lon="7.37285">
        <ele>195</ele>
        <time>2019-08-09T14:13:30Z</time>
      </trkpt>
      <trkpt lat="48.20556" lon="7.3728">
        <ele>195</ele>
        <time>2019-08-09T14:13:31Z</time>
      </trkpt>
      <trkpt lat="48.20555" lon="7.37275">
        <ele>195</ele>
        <time>2019-08-09T14:13:32Z</time>
      </trkpt>
      <trkpt lat="48.20555" lon="7.3727">
        <ele>195</ele>
        <time>2019-08-09T14:13:33Z</time>
      </trkpt>
      <trkpt lat="48.20555" lon="7.37265">
        <ele>195</ele>
        <time>2019-08-09T14:13:34Z</time>
      </trkpt>
      <trkpt lat="48.20554" lon="7.3726">
        <ele>195</ele>
        <time>2019-08-09T14:13:35Z</time>
      </trkpt>
      <trkpt lat="48.20554" lon="7.37255">
        <ele>195</ele>
        <time>2019-08-09T14:13:36Z</time>
      </trkpt>
      <trkpt lat="48.20554" lon="7.3725">
        <ele>195</ele>
        <time>2019-08-09T14:13:37Z</time>
      </trkpt>
      <trkpt lat="48.20554" lon="7.37245">
        <ele>195</ele>
        <time>2019-08-09T14:13:38Z</time>
      </trkpt>
      <trkpt lat="48.20553" lon="7.3724">
        <ele>195</ele>
        <time>2019-08-09T14:13:39Z</time>
      </trkpt>
      <trkpt lat="48.20553" lon="7.37235">
        <ele>195</ele>
        <time>2019-08-09T14:13:40Z</time>
      </trkpt>
      <trkpt lat="48.20552" lon="7.37229">
        <ele>195</ele>
        <time>2019-08-09T14:13:41Z</time>
      </trkpt>
      <trkpt lat="48.20551" lon="7.37224">
        <ele>195</ele>
        <time>2019-08-09T14:13:42Z</time>
      </trkpt>
      <trkpt lat="48.20551" lon="7.3722">
        <ele>195</ele>
        <time>2019-08-09T14:13:43Z</time>
      </trkpt>
      <trkpt lat="48.2055" lon="7.37216">
        <ele>195</ele>
        <time>2019-08-09T14:13:44Z</time>
      </trkpt>
      <trkpt lat="48.20549" lon="7.37209">
        <ele>195.1</ele>
        <time>2019-08-09T14:13:46Z</time>
      </trkpt>
      <trkpt lat="48.20548" lon="7.37204">
        <ele>195.1</ele>
        <time>2019-08-09T14:13:47Z</time>
      </trkpt>
      <trkpt lat="48.20547" lon="7.372">
        <ele>195.2</ele>
        <time>2019-08-09T14:13:48Z</time>
      </trkpt>
      <trkpt lat="48.20547" lon="7.37196">
        <ele>195.2</ele>
        <time>2019-08-09T14:13:49Z</time>
      </trkpt>
      <trkpt lat="48.20545" lon="7.37191">
        <ele>195.3</ele>
        <time>2019-08-09T14:13:51Z</time>
      </trkpt>
      <trkpt lat="48.20542" lon="7.37185">
        <ele>195.3</ele>
        <time>2019-08-09T14:13:53Z</time>
      </trkpt>
      <trkpt lat="48.20539" lon="7.37184">
        <ele>195.4</ele>
        <time>2019-08-09T14:13:54Z</time>
      </trkpt>
      <trkpt lat="48.20537" lon="7.37183">
        <ele>195.4</ele>
        <time>2019-08-09T14:13:55Z</time>
      </trkpt>
      <trkpt lat="48.20534" lon="7.37183">
        <ele>195.4</ele>
        <time>2019-08-09T14:13:56Z</time>
      </trkpt>
      <trkpt lat="48.2053" lon="7.37183">
        <ele>195.5</ele>
        <time>2019-08-09T14:13:57Z</time>
      </trkpt>
      <trkpt lat="48.20527" lon="7.37183">
        <ele>195.5</ele>
        <time>2019-08-09T14:13:58Z</time>
      </trkpt>
      <trkpt lat="48.20523" lon="7.37183">
        <ele>195.5</ele>
        <time>2019-08-09T14:13:59Z</time>
      </trkpt>
      <trkpt lat="48.2052" lon="7.37182">
        <ele>195.6</ele>
        <time>2019-08-09T14:14:00Z</time>
      </trkpt>
      <trkpt lat="48.20516" lon="7.37181">
        <ele>195.6</ele>
        <time>2019-08-09T14:14:01Z</time>
      </trkpt>
      <trkpt lat="48.20512" lon="7.37178">
        <ele>195.7</ele>
        <time>2019-08-09T14:14:02Z</time>
      </trkpt>
      <trkpt lat="48.20509" lon="7.37177">
        <ele>195.7</ele>
        <time>2019-08-09T14:14:03Z</time>
      </trkpt>
      <trkpt lat="48.20505" lon="7.37175">
        <ele>195.8</ele>
        <time>2019-08-09T14:14:04Z</time>
      </trkpt>
      <trkpt lat="48.20501" lon="7.37174">
        <ele>195.8</ele>
        <time>2019-08-09T14:14:05Z</time>
      </trkpt>
      <trkpt lat="48.20497" lon="7.37174">
        <ele>195.9</ele>
        <time>2019-08-09T14:14:06Z</time>
      </trkpt>
      <trkpt lat="48.20493" lon="7.37173">
        <ele>195.9</ele>
        <time>2019-08-09T14:14:07Z</time>
      </trkpt>
      <trkpt lat="48.20489" lon="7.37172">
        <ele>195.9</ele>
        <time>2019-08-09T14:14:08Z</time>
      </trkpt>
      <trkpt lat="48.20486" lon="7.37171">
        <ele>195.9</ele>
        <time>2019-08-09T14:14:09Z</time>
      </trkpt>
      <trkpt lat="48.20483" lon="7.37169">
        <ele>195.9</ele>
        <time>2019-08-09T14:14:10Z</time>
      </trkpt>
      <trkpt lat="48.20479" lon="7.37167">
        <ele>195.9</ele>
        <time>2019-08-09T14:14:11Z</time>
      </trkpt>
      <trkpt lat="48.20476" lon="7.37165">
        <ele>195.9</ele>
        <time>2019-08-09T14:14:12Z</time>
      </trkpt>
      <trkpt lat="48.20473" lon="7.37163">
        <ele>196</ele>
        <time>2019-08-09T14:14:13Z</time>
      </trkpt>
      <trkpt lat="48.20469" lon="7.37162">
        <ele>196</ele>
        <time>2019-08-09T14:14:14Z</time>
      </trkpt>
      <trkpt lat="48.20466" lon="7.3716">
        <ele>196</ele>
        <time>2019-08-09T14:14:15Z</time>
      </trkpt>
      <trkpt lat="48.20462" lon="7.37158">
        <ele>196</ele>
        <time>2019-08-09T14:14:16Z</time>
      </trkpt>
      <trkpt lat="48.20458" lon="7.37156">
        <ele>196</ele>
        <time>2019-08-09T14:14:17Z</time>
      </trkpt>
      <trkpt lat="48.20455" lon="7.37154">
        <ele>196</ele>
        <time>2019-08-09T14:14:18Z</time>
      </trkpt>
      <trkpt lat="48.20452" lon="7.37153">
        <ele>196</ele>
        <time>2019-08-09T14:14:19Z</time>
      </trkpt>
      <trkpt lat="48.20448" lon="7.37152">
        <ele>196</ele>
        <time>2019-08-09T14:14:20Z</time>
      </trkpt>
      <trkpt lat="48.20444" lon="7.37151">
        <ele>196.1</ele>
        <time>2019-08-09T14:14:21Z</time>
      </trkpt>
      <trkpt lat="48.2044" lon="7.37149">
        <ele>196.1</ele>
        <time>2019-08-09T14:14:22Z</time>
      </trkpt>
      <trkpt lat="48.20437" lon="7.37148">
        <ele>196.1</ele>
        <time>2019-08-09T14:14:23Z</time>
      </trkpt>
      <trkpt lat="48.20433" lon="7.37147">
        <ele>196.1</ele>
        <time>2019-08-09T14:14:24Z</time>
      </trkpt>
      <trkpt lat="48.2043" lon="7.37146">
        <ele>196.1</ele>
        <time>2019-08-09T14:14:25Z</time>
      </trkpt>
      <trkpt lat="48.20426" lon="7.37145">
        <ele>196.1</ele>
        <time>2019-08-09T14:14:26Z</time>
      </trkpt>
      <trkpt lat="48.20423" lon="7.37144">
        <ele>196.1</ele>
        <time>2019-08-09T14:14:27Z</time>
      </trkpt>
      <trkpt lat="48.2042" lon="7.37143">
        <ele>196</ele>
        <time>2019-08-09T14:14:28Z</time>
      </trkpt>
      <trkpt lat="48.20416" lon="7.37142">
        <ele>196</ele>
        <time>2019-08-09T14:14:29Z</time>
      </trkpt>
      <trkpt lat="48.20413" lon="7.37141">
        <ele>196.1</ele>
        <time>2019-08-09T14:14:30Z</time>
      </trkpt>
      <trkpt lat="48.20409" lon="7.37139">
        <ele>196.1</ele>
        <time>2019-08-09T14:14:31Z</time>
      </trkpt>
      <trkpt lat="48.20406" lon="7.37137">
        <ele>196.1</ele>
        <time>2019-08-09T14:14:32Z</time>
      </trkpt>
      <trkpt lat="48.20403" lon="7.37134">
        <ele>196.1</ele>
        <time>2019-08-09T14:14:33Z</time>
      </trkpt>
      <trkpt lat="48.204" lon="7.37131">
        <ele>196.1</ele>
        <time>2019-08-09T14:14:34Z</time>
      </trkpt>
      <trkpt lat="48.20396" lon="7.37129">
        <ele>196.1</ele>
        <time>2019-08-09T14:14:35Z</time>
      </trkpt>
      <trkpt lat="48.20392" lon="7.37128">
        <ele>196.1</ele>
        <time>2019-08-09T14:14:36Z</time>
      </trkpt>
      <trkpt lat="48.20388" lon="7.37126">
        <ele>196.1</ele>
        <time>2019-08-09T14:14:37Z</time>
      </trkpt>
      <trkpt lat="48.20385" lon="7.37125">
        <ele>196.1</ele>
        <time>2019-08-09T14:14:38Z</time>
      </trkpt>
      <trkpt lat="48.20381" lon="7.37123">
        <ele>196.1</ele>
        <time>2019-08-09T14:14:39Z</time>
      </trkpt>
      <trkpt lat="48.20378" lon="7.37122">
        <ele>196.1</ele>
        <time>2019-08-09T14:14:40Z</time>
      </trkpt>
      <trkpt lat="48.20374" lon="7.3712">
        <ele>196.1</ele>
        <time>2019-08-09T14:14:41Z</time>
      </trkpt>
      <trkpt lat="48.2037" lon="7.37119">
        <ele>196.1</ele>
        <time>2019-08-09T14:14:42Z</time>
      </trkpt>
      <trkpt lat="48.20367" lon="7.37118">
        <ele>196.1</ele>
        <time>2019-08-09T14:14:43Z</time>
      </trkpt>
      <trkpt lat="48.20363" lon="7.37116">
        <ele>196.1</ele>
        <time>2019-08-09T14:14:44Z</time>
      </trkpt>
      <trkpt lat="48.2036" lon="7.37114">
        <ele>196</ele>
        <time>2019-08-09T14:14:45Z</time>
      </trkpt>
      <trkpt lat="48.20356" lon="7.37113">
        <ele>196</ele>
        <time>2019-08-09T14:14:46Z</time>
      </trkpt>
      <trkpt lat="48.20353" lon="7.37111">
        <ele>196</ele>
        <time>2019-08-09T14:14:47Z</time>
      </trkpt>
      <trkpt lat="48.2035" lon="7.37111">
        <ele>196</ele>
        <time>2019-08-09T14:14:48Z</time>
      </trkpt>
      <trkpt lat="48.20347" lon="7.37109">
        <ele>196</ele>
        <time>2019-08-09T14:14:49Z</time>
      </trkpt>
      <trkpt lat="48.20343" lon="7.37108">
        <ele>196.1</ele>
        <time>2019-08-09T14:14:50Z</time>
      </trkpt>
      <trkpt lat="48.2034" lon="7.37106">
        <ele>196.1</ele>
        <time>2019-08-09T14:14:51Z</time>
      </trkpt>
      <trkpt lat="48.20336" lon="7.37104">
        <ele>196.1</ele>
        <time>2019-08-09T14:14:52Z</time>
      </trkpt>
      <trkpt lat="48.20333" lon="7.37102">
        <ele>196.2</ele>
        <time>2019-08-09T14:14:53Z</time>
      </trkpt>
      <trkpt lat="48.2033" lon="7.37099">
        <ele>196.2</ele>
        <time>2019-08-09T14:14:54Z</time>
      </trkpt>
      <trkpt lat="48.20327" lon="7.37097">
        <ele>196.3</ele>
        <time>2019-08-09T14:14:55Z</time>
      </trkpt>
      <trkpt lat="48.20324" lon="7.37096">
        <ele>196.3</ele>
        <time>2019-08-09T14:14:56Z</time>
      </trkpt>
      <trkpt lat="48.2032" lon="7.37095">
        <ele>196.4</ele>
        <time>2019-08-09T14:14:57Z</time>
      </trkpt>
      <trkpt lat="48.20316" lon="7.37094">
        <ele>196.4</ele>
        <time>2019-08-09T14:14:58Z</time>
      </trkpt>
      <trkpt lat="48.20313" lon="7.37093">
        <ele>196.5</ele>
        <time>2019-08-09T14:14:59Z</time>
      </trkpt>
      <trkpt lat="48.2031" lon="7.37092">
        <ele>196.5</ele>
        <time>2019-08-09T14:15:00Z</time>
      </trkpt>
      <trkpt lat="48.20305" lon="7.37089">
        <ele>196.5</ele>
        <time>2019-08-09T14:15:02Z</time>
      </trkpt>
      <trkpt lat="48.20301" lon="7.37088">
        <ele>196.6</ele>
        <time>2019-08-09T14:15:03Z</time>
      </trkpt>
      <trkpt lat="48.20298" lon="7.37085">
        <ele>196.6</ele>
        <time>2019-08-09T14:15:04Z</time>
      </trkpt>
      <trkpt lat="48.20295" lon="7.37083">
        <ele>196.6</ele>
        <time>2019-08-09T14:15:05Z</time>
      </trkpt>
      <trkpt lat="48.20292" lon="7.3708">
        <ele>196.6</ele>
        <time>2019-08-09T14:15:06Z</time>
      </trkpt>
      <trkpt lat="48.20288" lon="7.3708">
        <ele>196.6</ele>
        <time>2019-08-09T14:15:07Z</time>
      </trkpt>
      <trkpt lat="48.20285" lon="7.37078">
        <ele>196.6</ele>
        <time>2019-08-09T14:15:08Z</time>
      </trkpt>
      <trkpt lat="48.20281" lon="7.37077">
        <ele>196.6</ele>
        <time>2019-08-09T14:15:09Z</time>
      </trkpt>
      <trkpt lat="48.20278" lon="7.37075">
        <ele>196.6</ele>
        <time>2019-08-09T14:15:10Z</time>
      </trkpt>
      <trkpt lat="48.20274" lon="7.37074">
        <ele>196.6</ele>
        <time>2019-08-09T14:15:11Z</time>
      </trkpt>
      <trkpt lat="48.2027" lon="7.37072">
        <ele>196.6</ele>
        <time>2019-08-09T14:15:12Z</time>
      </trkpt>
      <trkpt lat="48.20266" lon="7.3707">
        <ele>196.6</ele>
        <time>2019-08-09T14:15:13Z</time>
      </trkpt>
      <trkpt lat="48.20262" lon="7.37069">
        <ele>196.6</ele>
        <time>2019-08-09T14:15:14Z</time>
      </trkpt>
      <trkpt lat="48.20258" lon="7.37068">
        <ele>196.7</ele>
        <time>2019-08-09T14:15:15Z</time>
      </trkpt>
      <trkpt lat="48.20255" lon="7.37067">
        <ele>196.7</ele>
        <time>2019-08-09T14:15:16Z</time>
      </trkpt>
      <trkpt lat="48.20252" lon="7.37065">
        <ele>196.7</ele>
        <time>2019-08-09T14:15:17Z</time>
      </trkpt>
      <trkpt lat="48.20248" lon="7.37063">
        <ele>196.7</ele>
        <time>2019-08-09T14:15:18Z</time>
      </trkpt>
      <trkpt lat="48.20245" lon="7.37061">
        <ele>196.7</ele>
        <time>2019-08-09T14:15:19Z</time>
      </trkpt>
      <trkpt lat="48.20241" lon="7.3706">
        <ele>196.7</ele>
        <time>2019-08-09T14:15:20Z</time>
      </trkpt>
      <trkpt lat="48.20238" lon="7.37058">
        <ele>196.7</ele>
        <time>2019-08-09T14:15:21Z</time>
      </trkpt>
      <trkpt lat="48.20234" lon="7.37057">
        <ele>196.7</ele>
        <time>2019-08-09T14:15:22Z</time>
      </trkpt>
      <trkpt lat="48.20231" lon="7.37056">
        <ele>196.7</ele>
        <time>2019-08-09T14:15:23Z</time>
      </trkpt>
      <trkpt lat="48.20228" lon="7.37054">
        <ele>196.7</ele>
        <time>2019-08-09T14:15:24Z</time>
      </trkpt>
      <trkpt lat="48.20224" lon="7.37052">
        <ele>196.6</ele>
        <time>2019-08-09T14:15:25Z</time>
      </trkpt>
      <trkpt lat="48.20221" lon="7.3705">
        <ele>196.6</ele>
        <time>2019-08-09T14:15:26Z</time>
      </trkpt>
      <trkpt lat="48.20217" lon="7.37047">
        <ele>196.6</ele>
        <time>2019-08-09T14:15:27Z</time>
      </trkpt>
      <trkpt lat="48.20213" lon="7.37045">
        <ele>196.6</ele>
        <time>2019-08-09T14:15:28Z</time>
      </trkpt>
      <trkpt lat="48.2021" lon="7.37043">
        <ele>196.6</ele>
        <time>2019-08-09T14:15:29Z</time>
      </trkpt>
      <trkpt lat="48.20206" lon="7.37041">
        <ele>196.6</ele>
        <time>2019-08-09T14:15:30Z</time>
      </trkpt>
      <trkpt lat="48.20202" lon="7.37038">
        <ele>196.5</ele>
        <time>2019-08-09T14:15:31Z</time>
      </trkpt>
      <trkpt lat="48.20198" lon="7.37036">
        <ele>196.5</ele>
        <time>2019-08-09T14:15:32Z</time>
      </trkpt>
      <trkpt lat="48.20194" lon="7.37033">
        <ele>196.4</ele>
        <time>2019-08-09T14:15:33Z</time>
      </trkpt>
      <trkpt lat="48.20192" lon="7.37029">
        <ele>196.4</ele>
        <time>2019-08-09T14:15:34Z</time>
      </trkpt>
      <trkpt lat="48.20191" lon="7.37022">
        <ele>196.3</ele>
        <time>2019-08-09T14:15:35Z</time>
      </trkpt>
      <trkpt lat="48.2019" lon="7.37016">
        <ele>196.3</ele>
        <time>2019-08-09T14:15:36Z</time>
      </trkpt>
      <trkpt lat="48.2019" lon="7.3701">
        <ele>196.5</ele>
        <time>2019-08-09T14:15:37Z</time>
      </trkpt>
      <trkpt lat="48.20189" lon="7.37004">
        <ele>196.6</ele>
        <time>2019-08-09T14:15:38Z</time>
      </trkpt>
      <trkpt lat="48.20188" lon="7.36997">
        <ele>196.7</ele>
        <time>2019-08-09T14:15:39Z</time>
      </trkpt>
      <trkpt lat="48.20186" lon="7.36993">
        <ele>196.7</ele>
        <time>2019-08-09T14:15:40Z</time>
      </trkpt>
      <trkpt lat="48.20181" lon="7.3699">
        <ele>196.7</ele>
        <time>2019-08-09T14:15:42Z</time>
      </trkpt>
      <trkpt lat="48.20177" lon="7.36988">
        <ele>196.7</ele>
        <time>2019-08-09T14:15:43Z</time>
      </trkpt>
      <trkpt lat="48.20174" lon="7.36986">
        <ele>196.7</ele>
        <time>2019-08-09T14:15:44Z</time>
      </trkpt>
      <trkpt lat="48.2017" lon="7.36984">
        <ele>196.7</ele>
        <time>2019-08-09T14:15:45Z</time>
      </trkpt>
      <trkpt lat="48.20166" lon="7.36982">
        <ele>196.7</ele>
        <time>2019-08-09T14:15:46Z</time>
      </trkpt>
      <trkpt lat="48.20162" lon="7.3698">
        <ele>196.7</ele>
        <time>2019-08-09T14:15:47Z</time>
      </trkpt>
      <trkpt lat="48.20158" lon="7.36978">
        <ele>196.7</ele>
        <time>2019-08-09T14:15:48Z</time>
      </trkpt>
      <trkpt lat="48.20154" lon="7.36976">
        <ele>196.7</ele>
        <time>2019-08-09T14:15:49Z</time>
      </trkpt>
      <trkpt lat="48.2015" lon="7.36973">
        <ele>196.7</ele>
        <time>2019-08-09T14:15:50Z</time>
      </trkpt>
      <trkpt lat="48.20147" lon="7.3697">
        <ele>196.6</ele>
        <time>2019-08-09T14:15:51Z</time>
      </trkpt>
      <trkpt lat="48.20143" lon="7.36968">
        <ele>196.6</ele>
        <time>2019-08-09T14:15:52Z</time>
      </trkpt>
      <trkpt lat="48.2014" lon="7.36965">
        <ele>196.5</ele>
        <time>2019-08-09T14:15:53Z</time>
      </trkpt>
      <trkpt lat="48.20136" lon="7.36962">
        <ele>196.4</ele>
        <time>2019-08-09T14:15:54Z</time>
      </trkpt>
      <trkpt lat="48.20133" lon="7.36959">
        <ele>196.4</ele>
        <time>2019-08-09T14:15:55Z</time>
      </trkpt>
      <trkpt lat="48.2013" lon="7.36957">
        <ele>196.3</ele>
        <time>2019-08-09T14:15:56Z</time>
      </trkpt>
      <trkpt lat="48.20127" lon="7.36953">
        <ele>196.2</ele>
        <time>2019-08-09T14:15:57Z</time>
      </trkpt>
      <trkpt lat="48.20123" lon="7.36949">
        <ele>196.1</ele>
        <time>2019-08-09T14:15:58Z</time>
      </trkpt>
      <trkpt lat="48.20119" lon="7.36946">
        <ele>196</ele>
        <time>2019-08-09T14:15:59Z</time>
      </trkpt>
      <trkpt lat="48.20116" lon="7.36943">
        <ele>195.9</ele>
        <time>2019-08-09T14:16:00Z</time>
      </trkpt>
      <trkpt lat="48.20112" lon="7.3694">
        <ele>195.9</ele>
        <time>2019-08-09T14:16:01Z</time>
      </trkpt>
      <trkpt lat="48.20108" lon="7.36937">
        <ele>195.9</ele>
        <time>2019-08-09T14:16:02Z</time>
      </trkpt>
      <trkpt lat="48.20104" lon="7.36933">
        <ele>195.9</ele>
        <time>2019-08-09T14:16:03Z</time>
      </trkpt>
      <trkpt lat="48.201" lon="7.3693">
        <ele>195.8</ele>
        <time>2019-08-09T14:16:04Z</time>
      </trkpt>
      <trkpt lat="48.20096" lon="7.36926">
        <ele>195.8</ele>
        <time>2019-08-09T14:16:05Z</time>
      </trkpt>
      <trkpt lat="48.20092" lon="7.36923">
        <ele>195.8</ele>
        <time>2019-08-09T14:16:06Z</time>
      </trkpt>
      <trkpt lat="48.20088" lon="7.36919">
        <ele>195.8</ele>
        <time>2019-08-09T14:16:07Z</time>
      </trkpt>
      <trkpt lat="48.20084" lon="7.36916">
        <ele>195.8</ele>
        <time>2019-08-09T14:16:08Z</time>
      </trkpt>
      <trkpt lat="48.2008" lon="7.36913">
        <ele>195.8</ele>
        <time>2019-08-09T14:16:09Z</time>
      </trkpt>
      <trkpt lat="48.20076" lon="7.3691">
        <ele>195.7</ele>
        <time>2019-08-09T14:16:10Z</time>
      </trkpt>
      <trkpt lat="48.20072" lon="7.36906">
        <ele>195.6</ele>
        <time>2019-08-09T14:16:11Z</time>
      </trkpt>
      <trkpt lat="48.20068" lon="7.36902">
        <ele>195.5</ele>
        <time>2019-08-09T14:16:12Z</time>
      </trkpt>
      <trkpt lat="48.20064" lon="7.36898">
        <ele>195.4</ele>
        <time>2019-08-09T14:16:13Z</time>
      </trkpt>
      <trkpt lat="48.2006" lon="7.36895">
        <ele>195.3</ele>
        <time>2019-08-09T14:16:14Z</time>
      </trkpt>
      <trkpt lat="48.20056" lon="7.36892">
        <ele>195.2</ele>
        <time>2019-08-09T14:16:15Z</time>
      </trkpt>
      <trkpt lat="48.20052" lon="7.36889">
        <ele>195.1</ele>
        <time>2019-08-09T14:16:16Z</time>
      </trkpt>
      <trkpt lat="48.20049" lon="7.36886">
        <ele>195.1</ele>
        <time>2019-08-09T14:16:17Z</time>
      </trkpt>
      <trkpt lat="48.20045" lon="7.36883">
        <ele>195</ele>
        <time>2019-08-09T14:16:18Z</time>
      </trkpt>
      <trkpt lat="48.2004" lon="7.36881">
        <ele>195.1</ele>
        <time>2019-08-09T14:16:19Z</time>
      </trkpt>
      <trkpt lat="48.20036" lon="7.36879">
        <ele>195</ele>
        <time>2019-08-09T14:16:20Z</time>
      </trkpt>
      <trkpt lat="48.20032" lon="7.36877">
        <ele>194.9</ele>
        <time>2019-08-09T14:16:21Z</time>
      </trkpt>
      <trkpt lat="48.20028" lon="7.36875">
        <ele>194.9</ele>
        <time>2019-08-09T14:16:22Z</time>
      </trkpt>
      <trkpt lat="48.20024" lon="7.36872">
        <ele>194.8</ele>
        <time>2019-08-09T14:16:23Z</time>
      </trkpt>
      <trkpt lat="48.2002" lon="7.36868">
        <ele>194.8</ele>
        <time>2019-08-09T14:16:24Z</time>
      </trkpt>
      <trkpt lat="48.20017" lon="7.36865">
        <ele>194.7</ele>
        <time>2019-08-09T14:16:25Z</time>
      </trkpt>
      <trkpt lat="48.20014" lon="7.36862">
        <ele>194.6</ele>
        <time>2019-08-09T14:16:26Z</time>
      </trkpt>
      <trkpt lat="48.2001" lon="7.36859">
        <ele>194.6</ele>
        <time>2019-08-09T14:16:27Z</time>
      </trkpt>
      <trkpt lat="48.20007" lon="7.36856">
        <ele>194.5</ele>
        <time>2019-08-09T14:16:28Z</time>
      </trkpt>
      <trkpt lat="48.20003" lon="7.36852">
        <ele>194.5</ele>
        <time>2019-08-09T14:16:29Z</time>
      </trkpt>
      <trkpt lat="48.19998" lon="7.36849">
        <ele>194.5</ele>
        <time>2019-08-09T14:16:30Z</time>
      </trkpt>
      <trkpt lat="48.19994" lon="7.36846">
        <ele>194.4</ele>
        <time>2019-08-09T14:16:31Z</time>
      </trkpt>
      <trkpt lat="48.1999" lon="7.36842">
        <ele>194.4</ele>
        <time>2019-08-09T14:16:32Z</time>
      </trkpt>
      <trkpt lat="48.19987" lon="7.36838">
        <ele>194.4</ele>
        <time>2019-08-09T14:16:33Z</time>
      </trkpt>
      <trkpt lat="48.19982" lon="7.36834">
        <ele>194.4</ele>
        <time>2019-08-09T14:16:34Z</time>
      </trkpt>
      <trkpt lat="48.19978" lon="7.36829">
        <ele>194.3</ele>
        <time>2019-08-09T14:16:35Z</time>
      </trkpt>
      <trkpt lat="48.19973" lon="7.36825">
        <ele>194.3</ele>
        <time>2019-08-09T14:16:36Z</time>
      </trkpt>
      <trkpt lat="48.19969" lon="7.36821">
        <ele>194.3</ele>
        <time>2019-08-09T14:16:37Z</time>
      </trkpt>
      <trkpt lat="48.19965" lon="7.36816">
        <ele>194.3</ele>
        <time>2019-08-09T14:16:38Z</time>
      </trkpt>
      <trkpt lat="48.19961" lon="7.36812">
        <ele>194.4</ele>
        <time>2019-08-09T14:16:39Z</time>
      </trkpt>
      <trkpt lat="48.19957" lon="7.36808">
        <ele>194.4</ele>
        <time>2019-08-09T14:16:40Z</time>
      </trkpt>
      <trkpt lat="48.19953" lon="7.36806">
        <ele>194.4</ele>
        <time>2019-08-09T14:16:41Z</time>
      </trkpt>
      <trkpt lat="48.19948" lon="7.36804">
        <ele>194.4</ele>
        <time>2019-08-09T14:16:42Z</time>
      </trkpt>
      <trkpt lat="48.19943" lon="7.36802">
        <ele>194.5</ele>
        <time>2019-08-09T14:16:43Z</time>
      </trkpt>
      <trkpt lat="48.1994" lon="7.368">
        <ele>194.5</ele>
        <time>2019-08-09T14:16:44Z</time>
      </trkpt>
      <trkpt lat="48.19937" lon="7.36798">
        <ele>194.5</ele>
        <time>2019-08-09T14:16:45Z</time>
      </trkpt>
      <trkpt lat="48.19933" lon="7.3679">
        <ele>194.6</ele>
        <time>2019-08-09T14:16:47Z</time>
      </trkpt>
      <trkpt lat="48.19933" lon="7.36785">
        <ele>194.6</ele>
        <time>2019-08-09T14:16:48Z</time>
      </trkpt>
      <trkpt lat="48.19934" lon="7.3678">
        <ele>194.7</ele>
        <time>2019-08-09T14:16:49Z</time>
      </trkpt>
      <trkpt lat="48.19935" lon="7.36775">
        <ele>194.7</ele>
        <time>2019-08-09T14:16:51Z</time>
      </trkpt>
      <trkpt lat="48.19937" lon="7.36771">
        <ele>194.7</ele>
        <time>2019-08-09T14:16:57Z</time>
      </trkpt>
      <trkpt lat="48.19939" lon="7.36766">
        <ele>194.8</ele>
        <time>2019-08-09T14:16:59Z</time>
      </trkpt>
      <trkpt lat="48.19941" lon="7.36758">
        <ele>194.6</ele>
        <time>2019-08-09T14:17:01Z</time>
      </trkpt>
      <trkpt lat="48.19942" lon="7.36754">
        <ele>194.5</ele>
        <time>2019-08-09T14:17:02Z</time>
      </trkpt>
      <trkpt lat="48.1994" lon="7.3675">
        <ele>194.4</ele>
        <time>2019-08-09T14:17:03Z</time>
      </trkpt>
      <trkpt lat="48.19937" lon="7.36745">
        <ele>194.2</ele>
        <time>2019-08-09T14:17:04Z</time>
      </trkpt>
      <trkpt lat="48.19934" lon="7.36741">
        <ele>194.1</ele>
        <time>2019-08-09T14:17:05Z</time>
      </trkpt>
      <trkpt lat="48.19931" lon="7.36737">
        <ele>193.9</ele>
        <time>2019-08-09T14:17:06Z</time>
      </trkpt>
      <trkpt lat="48.19929" lon="7.36733">
        <ele>193.8</ele>
        <time>2019-08-09T14:17:07Z</time>
      </trkpt>
      <trkpt lat="48.19926" lon="7.36729">
        <ele>193.6</ele>
        <time>2019-08-09T14:17:08Z</time>
      </trkpt>
      <trkpt lat="48.19924" lon="7.36725">
        <ele>193.5</ele>
        <time>2019-08-09T14:17:09Z</time>
      </trkpt>
      <trkpt lat="48.19921" lon="7.3672">
        <ele>193.4</ele>
        <time>2019-08-09T14:17:10Z</time>
      </trkpt>
      <trkpt lat="48.19918" lon="7.36717">
        <ele>193.3</ele>
        <time>2019-08-09T14:17:11Z</time>
      </trkpt>
      <trkpt lat="48.19915" lon="7.36714">
        <ele>193.2</ele>
        <time>2019-08-09T14:17:12Z</time>
      </trkpt>
      <trkpt lat="48.19912" lon="7.3671">
        <ele>193.1</ele>
        <time>2019-08-09T14:17:13Z</time>
      </trkpt>
      <trkpt lat="48.1991" lon="7.36707">
        <ele>193.1</ele>
        <time>2019-08-09T14:17:14Z</time>
      </trkpt>
      <trkpt lat="48.19908" lon="7.36704">
        <ele>193.1</ele>
        <time>2019-08-09T14:17:15Z</time>
      </trkpt>
      <trkpt lat="48.19906" lon="7.367">
        <ele>193</ele>
        <time>2019-08-09T14:17:16Z</time>
      </trkpt>
      <trkpt lat="48.19904" lon="7.36696">
        <ele>193</ele>
        <time>2019-08-09T14:17:17Z</time>
      </trkpt>
      <trkpt lat="48.19902" lon="7.36692">
        <ele>193</ele>
        <time>2019-08-09T14:17:18Z</time>
      </trkpt>
      <trkpt lat="48.19899" lon="7.36687">
        <ele>193</ele>
        <time>2019-08-09T14:17:19Z</time>
      </trkpt>
      <trkpt lat="48.19896" lon="7.36683">
        <ele>192.9</ele>
        <time>2019-08-09T14:17:20Z</time>
      </trkpt>
      <trkpt lat="48.19893" lon="7.36678">
        <ele>192.9</ele>
        <time>2019-08-09T14:17:21Z</time>
      </trkpt>
      <trkpt lat="48.1989" lon="7.36674">
        <ele>192.9</ele>
        <time>2019-08-09T14:17:22Z</time>
      </trkpt>
      <trkpt lat="48.19886" lon="7.36669">
        <ele>192.8</ele>
        <time>2019-08-09T14:17:23Z</time>
      </trkpt>
      <trkpt lat="48.19883" lon="7.36665">
        <ele>192.8</ele>
        <time>2019-08-09T14:17:24Z</time>
      </trkpt>
      <trkpt lat="48.1988" lon="7.36661">
        <ele>192.8</ele>
        <time>2019-08-09T14:17:25Z</time>
      </trkpt>
      <trkpt lat="48.19877" lon="7.36657">
        <ele>192.7</ele>
        <time>2019-08-09T14:17:26Z</time>
      </trkpt>
      <trkpt lat="48.19873" lon="7.36653">
        <ele>192.7</ele>
        <time>2019-08-09T14:17:27Z</time>
      </trkpt>
      <trkpt lat="48.1987" lon="7.36648">
        <ele>192.6</ele>
        <time>2019-08-09T14:17:28Z</time>
      </trkpt>
      <trkpt lat="48.19867" lon="7.36644">
        <ele>192.6</ele>
        <time>2019-08-09T14:17:29Z</time>
      </trkpt>
      <trkpt lat="48.19864" lon="7.3664">
        <ele>192.5</ele>
        <time>2019-08-09T14:17:30Z</time>
      </trkpt>
      <trkpt lat="48.19861" lon="7.36636">
        <ele>192.5</ele>
        <time>2019-08-09T14:17:31Z</time>
      </trkpt>
      <trkpt lat="48.19857" lon="7.36632">
        <ele>192.4</ele>
        <time>2019-08-09T14:17:32Z</time>
      </trkpt>
      <trkpt lat="48.19854" lon="7.36627">
        <ele>192.3</ele>
        <time>2019-08-09T14:17:33Z</time>
      </trkpt>
      <trkpt lat="48.1985" lon="7.36622">
        <ele>192.2</ele>
        <time>2019-08-09T14:17:34Z</time>
      </trkpt>
      <trkpt lat="48.19846" lon="7.36618">
        <ele>192.1</ele>
        <time>2019-08-09T14:17:35Z</time>
      </trkpt>
      <trkpt lat="48.19842" lon="7.36614">
        <ele>192.1</ele>
        <time>2019-08-09T14:17:36Z</time>
      </trkpt>
      <trkpt lat="48.19838" lon="7.36611">
        <ele>192</ele>
        <time>2019-08-09T14:17:37Z</time>
      </trkpt>
      <trkpt lat="48.19836" lon="7.36606">
        <ele>191.9</ele>
        <time>2019-08-09T14:17:38Z</time>
      </trkpt>
      <trkpt lat="48.19832" lon="7.36603">
        <ele>191.9</ele>
        <time>2019-08-09T14:17:39Z</time>
      </trkpt>
      <trkpt lat="48.19828" lon="7.36599">
        <ele>191.8</ele>
        <time>2019-08-09T14:17:40Z</time>
      </trkpt>
      <trkpt lat="48.19825" lon="7.36598">
        <ele>191.8</ele>
        <time>2019-08-09T14:17:41Z</time>
      </trkpt>
      <trkpt lat="48.19821" lon="7.36596">
        <ele>191.8</ele>
        <time>2019-08-09T14:17:42Z</time>
      </trkpt>
      <trkpt lat="48.19817" lon="7.36593">
        <ele>191.7</ele>
        <time>2019-08-09T14:17:43Z</time>
      </trkpt>
      <trkpt lat="48.19814" lon="7.36589">
        <ele>191.7</ele>
        <time>2019-08-09T14:17:44Z</time>
      </trkpt>
      <trkpt lat="48.1981" lon="7.36586">
        <ele>191.7</ele>
        <time>2019-08-09T14:17:45Z</time>
      </trkpt>
      <trkpt lat="48.19807" lon="7.36582">
        <ele>191.6</ele>
        <time>2019-08-09T14:17:46Z</time>
      </trkpt>
      <trkpt lat="48.19803" lon="7.36578">
        <ele>191.6</ele>
        <time>2019-08-09T14:17:47Z</time>
      </trkpt>
      <trkpt lat="48.19799" lon="7.36575">
        <ele>191.6</ele>
        <time>2019-08-09T14:17:48Z</time>
      </trkpt>
      <trkpt lat="48.19795" lon="7.36571">
        <ele>191.5</ele>
        <time>2019-08-09T14:17:49Z</time>
      </trkpt>
      <trkpt lat="48.19791" lon="7.36568">
        <ele>191.5</ele>
        <time>2019-08-09T14:17:50Z</time>
      </trkpt>
      <trkpt lat="48.19788" lon="7.36566">
        <ele>191.5</ele>
        <time>2019-08-09T14:17:51Z</time>
      </trkpt>
      <trkpt lat="48.19784" lon="7.36563">
        <ele>191.5</ele>
        <time>2019-08-09T14:17:52Z</time>
      </trkpt>
      <trkpt lat="48.19781" lon="7.3656">
        <ele>191.5</ele>
        <time>2019-08-09T14:17:53Z</time>
      </trkpt>
      <trkpt lat="48.19778" lon="7.36556">
        <ele>191.4</ele>
        <time>2019-08-09T14:17:54Z</time>
      </trkpt>
      <trkpt lat="48.19775" lon="7.36553">
        <ele>191.4</ele>
        <time>2019-08-09T14:17:55Z</time>
      </trkpt>
      <trkpt lat="48.19771" lon="7.3655">
        <ele>191.4</ele>
        <time>2019-08-09T14:17:56Z</time>
      </trkpt>
      <trkpt lat="48.19767" lon="7.36548">
        <ele>191.3</ele>
        <time>2019-08-09T14:17:57Z</time>
      </trkpt>
      <trkpt lat="48.19763" lon="7.36546">
        <ele>191.3</ele>
        <time>2019-08-09T14:17:58Z</time>
      </trkpt>
      <trkpt lat="48.19759" lon="7.36543">
        <ele>191.2</ele>
        <time>2019-08-09T14:17:59Z</time>
      </trkpt>
      <trkpt lat="48.19755" lon="7.36541">
        <ele>191.2</ele>
        <time>2019-08-09T14:18:00Z</time>
      </trkpt>
      <trkpt lat="48.19751" lon="7.36539">
        <ele>191.2</ele>
        <time>2019-08-09T14:18:01Z</time>
      </trkpt>
      <trkpt lat="48.19747" lon="7.36537">
        <ele>191.1</ele>
        <time>2019-08-09T14:18:02Z</time>
      </trkpt>
      <trkpt lat="48.19745" lon="7.36535">
        <ele>191.1</ele>
        <time>2019-08-09T14:18:03Z</time>
      </trkpt>
      <trkpt lat="48.1974" lon="7.36534">
        <ele>191.1</ele>
        <time>2019-08-09T14:18:04Z</time>
      </trkpt>
      <trkpt lat="48.19735" lon="7.36532">
        <ele>191</ele>
        <time>2019-08-09T14:18:05Z</time>
      </trkpt>
      <trkpt lat="48.1973" lon="7.36529">
        <ele>191</ele>
        <time>2019-08-09T14:18:06Z</time>
      </trkpt>
      <trkpt lat="48.19725" lon="7.36526">
        <ele>190.9</ele>
        <time>2019-08-09T14:18:07Z</time>
      </trkpt>
      <trkpt lat="48.19719" lon="7.36524">
        <ele>190.8</ele>
        <time>2019-08-09T14:18:08Z</time>
      </trkpt>
      <trkpt lat="48.19714" lon="7.3652">
        <ele>190.5</ele>
        <time>2019-08-09T14:18:09Z</time>
      </trkpt>
      <trkpt lat="48.19709" lon="7.36518">
        <ele>190.3</ele>
        <time>2019-08-09T14:18:10Z</time>
      </trkpt>
      <trkpt lat="48.19704" lon="7.36516">
        <ele>190.1</ele>
        <time>2019-08-09T14:18:11Z</time>
      </trkpt>
      <trkpt lat="48.19699" lon="7.36514">
        <ele>189.9</ele>
        <time>2019-08-09T14:18:12Z</time>
      </trkpt>
      <trkpt lat="48.19693" lon="7.36512">
        <ele>189.7</ele>
        <time>2019-08-09T14:18:13Z</time>
      </trkpt>
      <trkpt lat="48.19689" lon="7.3651">
        <ele>189.6</ele>
        <time>2019-08-09T14:18:14Z</time>
      </trkpt>
      <trkpt lat="48.19684" lon="7.36507">
        <ele>189.6</ele>
        <time>2019-08-09T14:18:15Z</time>
      </trkpt>
      <trkpt lat="48.19678" lon="7.36504">
        <ele>189.5</ele>
        <time>2019-08-09T14:18:16Z</time>
      </trkpt>
      <trkpt lat="48.19672" lon="7.36502">
        <ele>189.5</ele>
        <time>2019-08-09T14:18:17Z</time>
      </trkpt>
      <trkpt lat="48.19666" lon="7.365">
        <ele>189.5</ele>
        <time>2019-08-09T14:18:18Z</time>
      </trkpt>
      <trkpt lat="48.19661" lon="7.36498">
        <ele>189.5</ele>
        <time>2019-08-09T14:18:19Z</time>
      </trkpt>
      <trkpt lat="48.19656" lon="7.36495">
        <ele>189.5</ele>
        <time>2019-08-09T14:18:20Z</time>
      </trkpt>
      <trkpt lat="48.19651" lon="7.36493">
        <ele>189.6</ele>
        <time>2019-08-09T14:18:21Z</time>
      </trkpt>
      <trkpt lat="48.19647" lon="7.3649">
        <ele>189.6</ele>
        <time>2019-08-09T14:18:22Z</time>
      </trkpt>
      <trkpt lat="48.19643" lon="7.36488">
        <ele>189.6</ele>
        <time>2019-08-09T14:18:23Z</time>
      </trkpt>
      <trkpt lat="48.19638" lon="7.36486">
        <ele>189.6</ele>
        <time>2019-08-09T14:18:24Z</time>
      </trkpt>
      <trkpt lat="48.19633" lon="7.36483">
        <ele>189.6</ele>
        <time>2019-08-09T14:18:25Z</time>
      </trkpt>
      <trkpt lat="48.19628" lon="7.36482">
        <ele>189.6</ele>
        <time>2019-08-09T14:18:26Z</time>
      </trkpt>
      <trkpt lat="48.19624" lon="7.36481">
        <ele>189.6</ele>
        <time>2019-08-09T14:18:27Z</time>
      </trkpt>
      <trkpt lat="48.1962" lon="7.3648">
        <ele>189.6</ele>
        <time>2019-08-09T14:18:28Z</time>
      </trkpt>
      <trkpt lat="48.19616" lon="7.36479">
        <ele>189.6</ele>
        <time>2019-08-09T14:18:29Z</time>
      </trkpt>
      <trkpt lat="48.19612" lon="7.36478">
        <ele>189.6</ele>
        <time>2019-08-09T14:18:30Z</time>
      </trkpt>
      <trkpt lat="48.19608" lon="7.36476">
        <ele>189.6</ele>
        <time>2019-08-09T14:18:31Z</time>
      </trkpt>
      <trkpt lat="48.19604" lon="7.36473">
        <ele>189.7</ele>
        <time>2019-08-09T14:18:32Z</time>
      </trkpt>
      <trkpt lat="48.19599" lon="7.36472">
        <ele>189.7</ele>
        <time>2019-08-09T14:18:33Z</time>
      </trkpt>
      <trkpt lat="48.19595" lon="7.36469">
        <ele>189.7</ele>
        <time>2019-08-09T14:18:34Z</time>
      </trkpt>
      <trkpt lat="48.1959" lon="7.36466">
        <ele>189.7</ele>
        <time>2019-08-09T14:18:35Z</time>
      </trkpt>
      <trkpt lat="48.19586" lon="7.36463">
        <ele>189.7</ele>
        <time>2019-08-09T14:18:36Z</time>
      </trkpt>
      <trkpt lat="48.19581" lon="7.36462">
        <ele>189.7</ele>
        <time>2019-08-09T14:18:37Z</time>
      </trkpt>
      <trkpt lat="48.19576" lon="7.36459">
        <ele>189.7</ele>
        <time>2019-08-09T14:18:38Z</time>
      </trkpt>
      <trkpt lat="48.19572" lon="7.36457">
        <ele>189.6</ele>
        <time>2019-08-09T14:18:39Z</time>
      </trkpt>
      <trkpt lat="48.19568" lon="7.36456">
        <ele>189.6</ele>
        <time>2019-08-09T14:18:40Z</time>
      </trkpt>
      <trkpt lat="48.19564" lon="7.36453">
        <ele>189.5</ele>
        <time>2019-08-09T14:18:41Z</time>
      </trkpt>
      <trkpt lat="48.1956" lon="7.36451">
        <ele>189.5</ele>
        <time>2019-08-09T14:18:42Z</time>
      </trkpt>
      <trkpt lat="48.19556" lon="7.36448">
        <ele>189.5</ele>
        <time>2019-08-09T14:18:43Z</time>
      </trkpt>
      <trkpt lat="48.19551" lon="7.36446">
        <ele>189.5</ele>
        <time>2019-08-09T14:18:44Z</time>
      </trkpt>
      <trkpt lat="48.19546" lon="7.36444">
        <ele>189.5</ele>
        <time>2019-08-09T14:18:45Z</time>
      </trkpt>
      <trkpt lat="48.19541" lon="7.36443">
        <ele>189.4</ele>
        <time>2019-08-09T14:18:46Z</time>
      </trkpt>
      <trkpt lat="48.19536" lon="7.36442">
        <ele>189.4</ele>
        <time>2019-08-09T14:18:47Z</time>
      </trkpt>
      <trkpt lat="48.19531" lon="7.36439">
        <ele>189.4</ele>
        <time>2019-08-09T14:18:48Z</time>
      </trkpt>
      <trkpt lat="48.19526" lon="7.36437">
        <ele>189.3</ele>
        <time>2019-08-09T14:18:49Z</time>
      </trkpt>
      <trkpt lat="48.19521" lon="7.36435">
        <ele>189.3</ele>
        <time>2019-08-09T14:18:50Z</time>
      </trkpt>
      <trkpt lat="48.19517" lon="7.36434">
        <ele>189.2</ele>
        <time>2019-08-09T14:18:51Z</time>
      </trkpt>
      <trkpt lat="48.19513" lon="7.36432">
        <ele>189.2</ele>
        <time>2019-08-09T14:18:52Z</time>
      </trkpt>
      <trkpt lat="48.19509" lon="7.3643">
        <ele>189.2</ele>
        <time>2019-08-09T14:18:53Z</time>
      </trkpt>
      <trkpt lat="48.19504" lon="7.36428">
        <ele>189.2</ele>
        <time>2019-08-09T14:18:54Z</time>
      </trkpt>
      <trkpt lat="48.19499" lon="7.36425">
        <ele>189.2</ele>
        <time>2019-08-09T14:18:55Z</time>
      </trkpt>
      <trkpt lat="48.19494" lon="7.36424">
        <ele>189.2</ele>
        <time>2019-08-09T14:18:56Z</time>
      </trkpt>
      <trkpt lat="48.1949" lon="7.36421">
        <ele>189.1</ele>
        <time>2019-08-09T14:18:57Z</time>
      </trkpt>
      <trkpt lat="48.19486" lon="7.36419">
        <ele>189.1</ele>
        <time>2019-08-09T14:18:58Z</time>
      </trkpt>
      <trkpt lat="48.19481" lon="7.36417">
        <ele>189.1</ele>
        <time>2019-08-09T14:18:59Z</time>
      </trkpt>
      <trkpt lat="48.19476" lon="7.36416">
        <ele>189</ele>
        <time>2019-08-09T14:19:00Z</time>
      </trkpt>
      <trkpt lat="48.19471" lon="7.36413">
        <ele>189</ele>
        <time>2019-08-09T14:19:01Z</time>
      </trkpt>
      <trkpt lat="48.19465" lon="7.36411">
        <ele>188.9</ele>
        <time>2019-08-09T14:19:02Z</time>
      </trkpt>
      <trkpt lat="48.19459" lon="7.3641">
        <ele>188.9</ele>
        <time>2019-08-09T14:19:03Z</time>
      </trkpt>
      <trkpt lat="48.19454" lon="7.36408">
        <ele>188.8</ele>
        <time>2019-08-09T14:19:04Z</time>
      </trkpt>
      <trkpt lat="48.19448" lon="7.36406">
        <ele>188.8</ele>
        <time>2019-08-09T14:19:05Z</time>
      </trkpt>
      <trkpt lat="48.19443" lon="7.36404">
        <ele>188.7</ele>
        <time>2019-08-09T14:19:06Z</time>
      </trkpt>
      <trkpt lat="48.19438" lon="7.36403">
        <ele>188.5</ele>
        <time>2019-08-09T14:19:07Z</time>
      </trkpt>
      <trkpt lat="48.19434" lon="7.36403">
        <ele>188.4</ele>
        <time>2019-08-09T14:19:08Z</time>
      </trkpt>
      <trkpt lat="48.1943" lon="7.36404">
        <ele>188.4</ele>
        <time>2019-08-09T14:19:09Z</time>
      </trkpt>
      <trkpt lat="48.19427" lon="7.36407">
        <ele>188.2</ele>
        <time>2019-08-09T14:19:10Z</time>
      </trkpt>
      <trkpt lat="48.19424" lon="7.36409">
        <ele>188.2</ele>
        <time>2019-08-09T14:19:11Z</time>
      </trkpt>
      <trkpt lat="48.19421" lon="7.36411">
        <ele>188.3</ele>
        <time>2019-08-09T14:19:12Z</time>
      </trkpt>
      <trkpt lat="48.19417" lon="7.3641">
        <ele>188.3</ele>
        <time>2019-08-09T14:19:13Z</time>
      </trkpt>
      <trkpt lat="48.19414" lon="7.36409">
        <ele>188.3</ele>
        <time>2019-08-09T14:19:14Z</time>
      </trkpt>
      <trkpt lat="48.19411" lon="7.36407">
        <ele>188.3</ele>
        <time>2019-08-09T14:19:15Z</time>
      </trkpt>
      <trkpt lat="48.19408" lon="7.36405">
        <ele>188.4</ele>
        <time>2019-08-09T14:19:16Z</time>
      </trkpt>
      <trkpt lat="48.19404" lon="7.36404">
        <ele>188.4</ele>
        <time>2019-08-09T14:19:17Z</time>
      </trkpt>
      <trkpt lat="48.19401" lon="7.36402">
        <ele>188.4</ele>
        <time>2019-08-09T14:19:18Z</time>
      </trkpt>
      <trkpt lat="48.19398" lon="7.364">
        <ele>188.4</ele>
        <time>2019-08-09T14:19:19Z</time>
      </trkpt>
      <trkpt lat="48.19394" lon="7.36398">
        <ele>188.5</ele>
        <time>2019-08-09T14:19:20Z</time>
      </trkpt>
      <trkpt lat="48.1939" lon="7.36396">
        <ele>188.5</ele>
        <time>2019-08-09T14:19:21Z</time>
      </trkpt>
      <trkpt lat="48.19387" lon="7.36394">
        <ele>188.5</ele>
        <time>2019-08-09T14:19:22Z</time>
      </trkpt>
      <trkpt lat="48.19383" lon="7.36393">
        <ele>188.5</ele>
        <time>2019-08-09T14:19:23Z</time>
      </trkpt>
      <trkpt lat="48.19379" lon="7.36391">
        <ele>188.6</ele>
        <time>2019-08-09T14:19:24Z</time>
      </trkpt>
      <trkpt lat="48.19375" lon="7.3639">
        <ele>188.6</ele>
        <time>2019-08-09T14:19:25Z</time>
      </trkpt>
      <trkpt lat="48.19371" lon="7.36388">
        <ele>188.6</ele>
        <time>2019-08-09T14:19:26Z</time>
      </trkpt>
      <trkpt lat="48.19367" lon="7.36386">
        <ele>188.6</ele>
        <time>2019-08-09T14:19:27Z</time>
      </trkpt>
      <trkpt lat="48.19363" lon="7.36384">
        <ele>188.6</ele>
        <time>2019-08-09T14:19:28Z</time>
      </trkpt>
      <trkpt lat="48.19359" lon="7.36383">
        <ele>188.6</ele>
        <time>2019-08-09T14:19:29Z</time>
      </trkpt>
      <trkpt lat="48.19355" lon="7.36382">
        <ele>188.7</ele>
        <time>2019-08-09T14:19:30Z</time>
      </trkpt>
      <trkpt lat="48.19351" lon="7.3638">
        <ele>188.7</ele>
        <time>2019-08-09T14:19:31Z</time>
      </trkpt>
      <trkpt lat="48.19347" lon="7.36379">
        <ele>188.7</ele>
        <time>2019-08-09T14:19:32Z</time>
      </trkpt>
      <trkpt lat="48.19343" lon="7.36377">
        <ele>188.7</ele>
        <time>2019-08-09T14:19:33Z</time>
      </trkpt>
      <trkpt lat="48.19339" lon="7.36376">
        <ele>188.7</ele>
        <time>2019-08-09T14:19:34Z</time>
      </trkpt>
      <trkpt lat="48.19335" lon="7.36374">
        <ele>188.8</ele>
        <time>2019-08-09T14:19:35Z</time>
      </trkpt>
      <trkpt lat="48.1933" lon="7.36372">
        <ele>188.8</ele>
        <time>2019-08-09T14:19:36Z</time>
      </trkpt>
      <trkpt lat="48.19326" lon="7.3637">
        <ele>188.8</ele>
        <time>2019-08-09T14:19:37Z</time>
      </trkpt>
      <trkpt lat="48.19322" lon="7.36367">
        <ele>188.8</ele>
        <time>2019-08-09T14:19:38Z</time>
      </trkpt>
      <trkpt lat="48.19317" lon="7.36363">
        <ele>188.8</ele>
        <time>2019-08-09T14:19:39Z</time>
      </trkpt>
      <trkpt lat="48.19313" lon="7.3636">
        <ele>188.8</ele>
        <time>2019-08-09T14:19:40Z</time>
      </trkpt>
      <trkpt lat="48.19311" lon="7.36356">
        <ele>188.9</ele>
        <time>2019-08-09T14:19:41Z</time>
      </trkpt>
      <trkpt lat="48.19308" lon="7.36353">
        <ele>188.9</ele>
        <time>2019-08-09T14:19:42Z</time>
      </trkpt>
      <trkpt lat="48.19304" lon="7.3635">
        <ele>188.9</ele>
        <time>2019-08-09T14:19:43Z</time>
      </trkpt>
      <trkpt lat="48.19301" lon="7.36347">
        <ele>188.9</ele>
        <time>2019-08-09T14:19:44Z</time>
      </trkpt>
      <trkpt lat="48.19297" lon="7.36345">
        <ele>188.9</ele>
        <time>2019-08-09T14:19:45Z</time>
      </trkpt>
      <trkpt lat="48.19293" lon="7.36343">
        <ele>188.9</ele>
        <time>2019-08-09T14:19:46Z</time>
      </trkpt>
      <trkpt lat="48.19289" lon="7.36341">
        <ele>188.9</ele>
        <time>2019-08-09T14:19:47Z</time>
      </trkpt>
      <trkpt lat="48.19284" lon="7.36338">
        <ele>189</ele>
        <time>2019-08-09T14:19:48Z</time>
      </trkpt>
      <trkpt lat="48.1928" lon="7.36335">
        <ele>189</ele>
        <time>2019-08-09T14:19:49Z</time>
      </trkpt>
      <trkpt lat="48.19275" lon="7.36332">
        <ele>189</ele>
        <time>2019-08-09T14:19:50Z</time>
      </trkpt>
      <trkpt lat="48.19271" lon="7.3633">
        <ele>189</ele>
        <time>2019-08-09T14:19:51Z</time>
      </trkpt>
      <trkpt lat="48.19268" lon="7.36327">
        <ele>189</ele>
        <time>2019-08-09T14:19:52Z</time>
      </trkpt>
      <trkpt lat="48.19264" lon="7.36324">
        <ele>189.1</ele>
        <time>2019-08-09T14:19:53Z</time>
      </trkpt>
      <trkpt lat="48.1926" lon="7.36322">
        <ele>189.1</ele>
        <time>2019-08-09T14:19:54Z</time>
      </trkpt>
      <trkpt lat="48.19256" lon="7.3632">
        <ele>189.1</ele>
        <time>2019-08-09T14:19:55Z</time>
      </trkpt>
      <trkpt lat="48.19251" lon="7.36317">
        <ele>189.1</ele>
        <time>2019-08-09T14:19:56Z</time>
      </trkpt>
      <trkpt lat="48.19247" lon="7.36314">
        <ele>189.1</ele>
        <time>2019-08-09T14:19:57Z</time>
      </trkpt>
      <trkpt lat="48.19243" lon="7.36311">
        <ele>189.2</ele>
        <time>2019-08-09T14:19:58Z</time>
      </trkpt>
      <trkpt lat="48.19239" lon="7.36308">
        <ele>189.2</ele>
        <time>2019-08-09T14:19:59Z</time>
      </trkpt>
      <trkpt lat="48.19235" lon="7.36304">
        <ele>189.2</ele>
        <time>2019-08-09T14:20:00Z</time>
      </trkpt>
      <trkpt lat="48.19231" lon="7.36301">
        <ele>189.2</ele>
        <time>2019-08-09T14:20:01Z</time>
      </trkpt>
      <trkpt lat="48.19226" lon="7.36297">
        <ele>189.3</ele>
        <time>2019-08-09T14:20:02Z</time>
      </trkpt>
      <trkpt lat="48.19222" lon="7.36294">
        <ele>189.3</ele>
        <time>2019-08-09T14:20:03Z</time>
      </trkpt>
      <trkpt lat="48.19218" lon="7.36292">
        <ele>189.3</ele>
        <time>2019-08-09T14:20:04Z</time>
      </trkpt>
      <trkpt lat="48.19215" lon="7.3629">
        <ele>189.4</ele>
        <time>2019-08-09T14:20:05Z</time>
      </trkpt>
      <trkpt lat="48.19211" lon="7.36287">
        <ele>189.4</ele>
        <time>2019-08-09T14:20:06Z</time>
      </trkpt>
      <trkpt lat="48.19207" lon="7.36284">
        <ele>189.5</ele>
        <time>2019-08-09T14:20:07Z</time>
      </trkpt>
      <trkpt lat="48.19202" lon="7.36281">
        <ele>189.5</ele>
        <time>2019-08-09T14:20:08Z</time>
      </trkpt>
      <trkpt lat="48.19198" lon="7.36278">
        <ele>189.5</ele>
        <time>2019-08-09T14:20:09Z</time>
      </trkpt>
      <trkpt lat="48.19192" lon="7.36275">
        <ele>189.6</ele>
        <time>2019-08-09T14:20:11Z</time>
      </trkpt>
      <trkpt lat="48.19188" lon="7.36273">
        <ele>189.6</ele>
        <time>2019-08-09T14:20:12Z</time>
      </trkpt>
      <trkpt lat="48.19185" lon="7.36271">
        <ele>189.7</ele>
        <time>2019-08-09T14:20:13Z</time>
      </trkpt>
      <trkpt lat="48.19183" lon="7.36269">
        <ele>189.7</ele>
        <time>2019-08-09T14:20:14Z</time>
      </trkpt>
      <trkpt lat="48.1918" lon="7.36267">
        <ele>189.7</ele>
        <time>2019-08-09T14:20:15Z</time>
      </trkpt>
      <trkpt lat="48.19177" lon="7.36264">
        <ele>189.8</ele>
        <time>2019-08-09T14:20:16Z</time>
      </trkpt>
      <trkpt lat="48.19174" lon="7.36264">
        <ele>189.8</ele>
        <time>2019-08-09T14:20:17Z</time>
      </trkpt>
      <trkpt lat="48.1917" lon="7.36261">
        <ele>189.9</ele>
        <time>2019-08-09T14:20:18Z</time>
      </trkpt>
      <trkpt lat="48.19166" lon="7.36258">
        <ele>189.9</ele>
        <time>2019-08-09T14:20:19Z</time>
      </trkpt>
      <trkpt lat="48.19163" lon="7.36256">
        <ele>190</ele>
        <time>2019-08-09T14:20:20Z</time>
      </trkpt>
      <trkpt lat="48.1916" lon="7.36255">
        <ele>190</ele>
        <time>2019-08-09T14:20:21Z</time>
      </trkpt>
      <trkpt lat="48.19156" lon="7.36253">
        <ele>190</ele>
        <time>2019-08-09T14:20:22Z</time>
      </trkpt>
      <trkpt lat="48.19153" lon="7.3625">
        <ele>190.1</ele>
        <time>2019-08-09T14:20:23Z</time>
      </trkpt>
      <trkpt lat="48.1915" lon="7.36248">
        <ele>190.1</ele>
        <time>2019-08-09T14:20:24Z</time>
      </trkpt>
      <trkpt lat="48.19147" lon="7.36246">
        <ele>190.2</ele>
        <time>2019-08-09T14:20:25Z</time>
      </trkpt>
      <trkpt lat="48.19144" lon="7.36243">
        <ele>190.2</ele>
        <time>2019-08-09T14:20:26Z</time>
      </trkpt>
      <trkpt lat="48.19141" lon="7.36241">
        <ele>190.2</ele>
        <time>2019-08-09T14:20:27Z</time>
      </trkpt>
      <trkpt lat="48.19137" lon="7.36238">
        <ele>190.3</ele>
        <time>2019-08-09T14:20:28Z</time>
      </trkpt>
      <trkpt lat="48.19133" lon="7.36235">
        <ele>190.3</ele>
        <time>2019-08-09T14:20:29Z</time>
      </trkpt>
      <trkpt lat="48.19129" lon="7.36232">
        <ele>190.4</ele>
        <time>2019-08-09T14:20:30Z</time>
      </trkpt>
      <trkpt lat="48.19125" lon="7.36228">
        <ele>190.4</ele>
        <time>2019-08-09T14:20:31Z</time>
      </trkpt>
      <trkpt lat="48.19122" lon="7.36225">
        <ele>190.5</ele>
        <time>2019-08-09T14:20:32Z</time>
      </trkpt>
      <trkpt lat="48.19118" lon="7.36222">
        <ele>190.5</ele>
        <time>2019-08-09T14:20:33Z</time>
      </trkpt>
      <trkpt lat="48.19115" lon="7.36219">
        <ele>190.5</ele>
        <time>2019-08-09T14:20:34Z</time>
      </trkpt>
      <trkpt lat="48.19112" lon="7.36217">
        <ele>190.6</ele>
        <time>2019-08-09T14:20:35Z</time>
      </trkpt>
      <trkpt lat="48.19109" lon="7.36214">
        <ele>190.6</ele>
        <time>2019-08-09T14:20:36Z</time>
      </trkpt>
      <trkpt lat="48.19105" lon="7.36211">
        <ele>190.6</ele>
        <time>2019-08-09T14:20:37Z</time>
      </trkpt>
      <trkpt lat="48.19102" lon="7.36207">
        <ele>190.7</ele>
        <time>2019-08-09T14:20:38Z</time>
      </trkpt>
      <trkpt lat="48.19098" lon="7.36204">
        <ele>190.7</ele>
        <time>2019-08-09T14:20:39Z</time>
      </trkpt>
      <trkpt lat="48.19094" lon="7.362">
        <ele>190.7</ele>
        <time>2019-08-09T14:20:40Z</time>
      </trkpt>
      <trkpt lat="48.1909" lon="7.36197">
        <ele>190.8</ele>
        <time>2019-08-09T14:20:41Z</time>
      </trkpt>
      <trkpt lat="48.19086" lon="7.36193">
        <ele>190.8</ele>
        <time>2019-08-09T14:20:42Z</time>
      </trkpt>
      <trkpt lat="48.1908" lon="7.3619">
        <ele>190.8</ele>
        <time>2019-08-09T14:20:43Z</time>
      </trkpt>
      <trkpt lat="48.19076" lon="7.36187">
        <ele>190.9</ele>
        <time>2019-08-09T14:20:44Z</time>
      </trkpt>
      <trkpt lat="48.19073" lon="7.36183">
        <ele>190.9</ele>
        <time>2019-08-09T14:20:45Z</time>
      </trkpt>
      <trkpt lat="48.19069" lon="7.3618">
        <ele>190.9</ele>
        <time>2019-08-09T14:20:46Z</time>
      </trkpt>
      <trkpt lat="48.19066" lon="7.36176">
        <ele>190.9</ele>
        <time>2019-08-09T14:20:47Z</time>
      </trkpt>
      <trkpt lat="48.19062" lon="7.36172">
        <ele>191</ele>
        <time>2019-08-09T14:20:48Z</time>
      </trkpt>
      <trkpt lat="48.19059" lon="7.36167">
        <ele>191</ele>
        <time>2019-08-09T14:20:49Z</time>
      </trkpt>
      <trkpt lat="48.19056" lon="7.36163">
        <ele>191</ele>
        <time>2019-08-09T14:20:50Z</time>
      </trkpt>
      <trkpt lat="48.19052" lon="7.36159">
        <ele>191.1</ele>
        <time>2019-08-09T14:20:51Z</time>
      </trkpt>
      <trkpt lat="48.19049" lon="7.36155">
        <ele>191.1</ele>
        <time>2019-08-09T14:20:52Z</time>
      </trkpt>
      <trkpt lat="48.19045" lon="7.36152">
        <ele>191.1</ele>
        <time>2019-08-09T14:20:53Z</time>
      </trkpt>
      <trkpt lat="48.19042" lon="7.36149">
        <ele>191.1</ele>
        <time>2019-08-09T14:20:54Z</time>
      </trkpt>
      <trkpt lat="48.19038" lon="7.36145">
        <ele>191.2</ele>
        <time>2019-08-09T14:20:55Z</time>
      </trkpt>
      <trkpt lat="48.19036" lon="7.36143">
        <ele>191.2</ele>
        <time>2019-08-09T14:20:56Z</time>
      </trkpt>
      <trkpt lat="48.19033" lon="7.36139">
        <ele>191.2</ele>
        <time>2019-08-09T14:20:57Z</time>
      </trkpt>
      <trkpt lat="48.19029" lon="7.36136">
        <ele>191.2</ele>
        <time>2019-08-09T14:20:58Z</time>
      </trkpt>
      <trkpt lat="48.19025" lon="7.36132">
        <ele>191.2</ele>
        <time>2019-08-09T14:20:59Z</time>
      </trkpt>
      <trkpt lat="48.19022" lon="7.36129">
        <ele>191.3</ele>
        <time>2019-08-09T14:21:00Z</time>
      </trkpt>
      <trkpt lat="48.19018" lon="7.36126">
        <ele>191.3</ele>
        <time>2019-08-09T14:21:01Z</time>
      </trkpt>
      <trkpt lat="48.19015" lon="7.36122">
        <ele>191.3</ele>
        <time>2019-08-09T14:21:02Z</time>
      </trkpt>
      <trkpt lat="48.19011" lon="7.36118">
        <ele>191.3</ele>
        <time>2019-08-09T14:21:03Z</time>
      </trkpt>
      <trkpt lat="48.19008" lon="7.36115">
        <ele>191.4</ele>
        <time>2019-08-09T14:21:04Z</time>
      </trkpt>
      <trkpt lat="48.19004" lon="7.36111">
        <ele>191.4</ele>
        <time>2019-08-09T14:21:05Z</time>
      </trkpt>
      <trkpt lat="48.19" lon="7.36107">
        <ele>191.4</ele>
        <time>2019-08-09T14:21:06Z</time>
      </trkpt>
      <trkpt lat="48.18997" lon="7.36104">
        <ele>191.4</ele>
        <time>2019-08-09T14:21:07Z</time>
      </trkpt>
      <trkpt lat="48.18993" lon="7.36101">
        <ele>191.5</ele>
        <time>2019-08-09T14:21:08Z</time>
      </trkpt>
      <trkpt lat="48.1899" lon="7.36098">
        <ele>191.5</ele>
        <time>2019-08-09T14:21:09Z</time>
      </trkpt>
      <trkpt lat="48.18987" lon="7.36095">
        <ele>191.5</ele>
        <time>2019-08-09T14:21:10Z</time>
      </trkpt>
      <trkpt lat="48.18984" lon="7.36092">
        <ele>191.5</ele>
        <time>2019-08-09T14:21:11Z</time>
      </trkpt>
      <trkpt lat="48.1898" lon="7.36089">
        <ele>191.6</ele>
        <time>2019-08-09T14:21:12Z</time>
      </trkpt>
      <trkpt lat="48.18977" lon="7.36086">
        <ele>191.6</ele>
        <time>2019-08-09T14:21:13Z</time>
      </trkpt>
      <trkpt lat="48.18974" lon="7.36082">
        <ele>191.6</ele>
        <time>2019-08-09T14:21:14Z</time>
      </trkpt>
      <trkpt lat="48.1897" lon="7.36078">
        <ele>191.6</ele>
        <time>2019-08-09T14:21:15Z</time>
      </trkpt>
      <trkpt lat="48.18967" lon="7.36074">
        <ele>191.7</ele>
        <time>2019-08-09T14:21:16Z</time>
      </trkpt>
      <trkpt lat="48.18964" lon="7.36069">
        <ele>191.7</ele>
        <time>2019-08-09T14:21:17Z</time>
      </trkpt>
      <trkpt lat="48.1896" lon="7.36065">
        <ele>191.7</ele>
        <time>2019-08-09T14:21:18Z</time>
      </trkpt>
      <trkpt lat="48.18957" lon="7.36061">
        <ele>191.8</ele>
        <time>2019-08-09T14:21:19Z</time>
      </trkpt>
      <trkpt lat="48.18953" lon="7.36057">
        <ele>191.8</ele>
        <time>2019-08-09T14:21:20Z</time>
      </trkpt>
      <trkpt lat="48.1895" lon="7.36053">
        <ele>191.8</ele>
        <time>2019-08-09T14:21:21Z</time>
      </trkpt>
      <trkpt lat="48.18947" lon="7.3605">
        <ele>191.8</ele>
        <time>2019-08-09T14:21:22Z</time>
      </trkpt>
      <trkpt lat="48.18943" lon="7.36046">
        <ele>191.9</ele>
        <time>2019-08-09T14:21:23Z</time>
      </trkpt>
      <trkpt lat="48.1894" lon="7.36042">
        <ele>191.9</ele>
        <time>2019-08-09T14:21:24Z</time>
      </trkpt>
      <trkpt lat="48.18937" lon="7.36038">
        <ele>191.9</ele>
        <time>2019-08-09T14:21:25Z</time>
      </trkpt>
      <trkpt lat="48.18934" lon="7.36035">
        <ele>191.9</ele>
        <time>2019-08-09T14:21:26Z</time>
      </trkpt>
      <trkpt lat="48.18931" lon="7.36031">
        <ele>191.9</ele>
        <time>2019-08-09T14:21:27Z</time>
      </trkpt>
      <trkpt lat="48.18927" lon="7.36028">
        <ele>192</ele>
        <time>2019-08-09T14:21:28Z</time>
      </trkpt>
      <trkpt lat="48.18924" lon="7.36024">
        <ele>192</ele>
        <time>2019-08-09T14:21:29Z</time>
      </trkpt>
      <trkpt lat="48.18921" lon="7.3602">
        <ele>192</ele>
        <time>2019-08-09T14:21:30Z</time>
      </trkpt>
      <trkpt lat="48.18917" lon="7.36017">
        <ele>192</ele>
        <time>2019-08-09T14:21:31Z</time>
      </trkpt>
      <trkpt lat="48.18914" lon="7.36014">
        <ele>192.1</ele>
        <time>2019-08-09T14:21:32Z</time>
      </trkpt>
      <trkpt lat="48.18911" lon="7.36011">
        <ele>192.1</ele>
        <time>2019-08-09T14:21:33Z</time>
      </trkpt>
      <trkpt lat="48.18907" lon="7.36008">
        <ele>192.1</ele>
        <time>2019-08-09T14:21:34Z</time>
      </trkpt>
      <trkpt lat="48.18904" lon="7.36005">
        <ele>192.2</ele>
        <time>2019-08-09T14:21:35Z</time>
      </trkpt>
      <trkpt lat="48.18902" lon="7.36003">
        <ele>192.2</ele>
        <time>2019-08-09T14:21:36Z</time>
      </trkpt>
      <trkpt lat="48.18899" lon="7.36001">
        <ele>192.2</ele>
        <time>2019-08-09T14:21:37Z</time>
      </trkpt>
      <trkpt lat="48.18896" lon="7.35998">
        <ele>192.3</ele>
        <time>2019-08-09T14:21:39Z</time>
      </trkpt>
      <trkpt lat="48.18893" lon="7.35996">
        <ele>192.3</ele>
        <time>2019-08-09T14:21:41Z</time>
      </trkpt>
      <trkpt lat="48.1889" lon="7.35993">
        <ele>192.4</ele>
        <time>2019-08-09T14:21:43Z</time>
      </trkpt>
      <trkpt lat="48.18884" lon="7.35989">
        <ele>192.4</ele>
        <time>2019-08-09T14:21:45Z</time>
      </trkpt>
      <trkpt lat="48.18882" lon="7.35987">
        <ele>192.5</ele>
        <time>2019-08-09T14:21:46Z</time>
      </trkpt>
      <trkpt lat="48.18878" lon="7.35985">
        <ele>192.5</ele>
        <time>2019-08-09T14:21:47Z</time>
      </trkpt>
      <trkpt lat="48.18876" lon="7.35984">
        <ele>192.5</ele>
        <time>2019-08-09T14:21:48Z</time>
      </trkpt>
      <trkpt lat="48.18873" lon="7.35982">
        <ele>192.5</ele>
        <time>2019-08-09T14:21:49Z</time>
      </trkpt>
      <trkpt lat="48.1887" lon="7.35981">
        <ele>192.6</ele>
        <time>2019-08-09T14:21:50Z</time>
      </trkpt>
      <trkpt lat="48.18867" lon="7.35979">
        <ele>192.6</ele>
        <time>2019-08-09T14:21:51Z</time>
      </trkpt>
      <trkpt lat="48.18864" lon="7.35976">
        <ele>192.7</ele>
        <time>2019-08-09T14:21:52Z</time>
      </trkpt>
      <trkpt lat="48.18861" lon="7.35974">
        <ele>192.8</ele>
        <time>2019-08-09T14:21:53Z</time>
      </trkpt>
      <trkpt lat="48.18857" lon="7.35972">
        <ele>192.9</ele>
        <time>2019-08-09T14:21:54Z</time>
      </trkpt>
      <trkpt lat="48.18853" lon="7.3597">
        <ele>193.1</ele>
        <time>2019-08-09T14:21:55Z</time>
      </trkpt>
      <trkpt lat="48.18849" lon="7.35967">
        <ele>193.2</ele>
        <time>2019-08-09T14:21:56Z</time>
      </trkpt>
      <trkpt lat="48.18845" lon="7.35965">
        <ele>193.4</ele>
        <time>2019-08-09T14:21:57Z</time>
      </trkpt>
      <trkpt lat="48.18841" lon="7.35962">
        <ele>193.5</ele>
        <time>2019-08-09T14:21:58Z</time>
      </trkpt>
      <trkpt lat="48.18837" lon="7.35959">
        <ele>193.6</ele>
        <time>2019-08-09T14:21:59Z</time>
      </trkpt>
      <trkpt lat="48.18833" lon="7.35956">
        <ele>193.6</ele>
        <time>2019-08-09T14:22:00Z</time>
      </trkpt>
      <trkpt lat="48.18829" lon="7.35953">
        <ele>193.6</ele>
        <time>2019-08-09T14:22:01Z</time>
      </trkpt>
      <trkpt lat="48.18825" lon="7.35951">
        <ele>193.6</ele>
        <time>2019-08-09T14:22:02Z</time>
      </trkpt>
      <trkpt lat="48.18821" lon="7.35948">
        <ele>193.5</ele>
        <time>2019-08-09T14:22:03Z</time>
      </trkpt>
      <trkpt lat="48.18817" lon="7.35946">
        <ele>193.4</ele>
        <time>2019-08-09T14:22:04Z</time>
      </trkpt>
      <trkpt lat="48.18814" lon="7.35944">
        <ele>193.3</ele>
        <time>2019-08-09T14:22:05Z</time>
      </trkpt>
      <trkpt lat="48.1881" lon="7.35942">
        <ele>193.3</ele>
        <time>2019-08-09T14:22:06Z</time>
      </trkpt>
      <trkpt lat="48.18807" lon="7.35939">
        <ele>193.2</ele>
        <time>2019-08-09T14:22:07Z</time>
      </trkpt>
      <trkpt lat="48.18803" lon="7.35936">
        <ele>193.2</ele>
        <time>2019-08-09T14:22:08Z</time>
      </trkpt>
      <trkpt lat="48.188" lon="7.35933">
        <ele>193.1</ele>
        <time>2019-08-09T14:22:09Z</time>
      </trkpt>
      <trkpt lat="48.18797" lon="7.3593">
        <ele>193.1</ele>
        <time>2019-08-09T14:22:10Z</time>
      </trkpt>
      <trkpt lat="48.18793" lon="7.35928">
        <ele>193.1</ele>
        <time>2019-08-09T14:22:11Z</time>
      </trkpt>
      <trkpt lat="48.18791" lon="7.35925">
        <ele>193.1</ele>
        <time>2019-08-09T14:22:12Z</time>
      </trkpt>
      <trkpt lat="48.18787" lon="7.35922">
        <ele>193.1</ele>
        <time>2019-08-09T14:22:13Z</time>
      </trkpt>
      <trkpt lat="48.18783" lon="7.35919">
        <ele>193.1</ele>
        <time>2019-08-09T14:22:14Z</time>
      </trkpt>
      <trkpt lat="48.18779" lon="7.35918">
        <ele>193.1</ele>
        <time>2019-08-09T14:22:15Z</time>
      </trkpt>
      <trkpt lat="48.18774" lon="7.35916">
        <ele>193.1</ele>
        <time>2019-08-09T14:22:16Z</time>
      </trkpt>
      <trkpt lat="48.18771" lon="7.35914">
        <ele>193.1</ele>
        <time>2019-08-09T14:22:17Z</time>
      </trkpt>
      <trkpt lat="48.18767" lon="7.35912">
        <ele>193.1</ele>
        <time>2019-08-09T14:22:18Z</time>
      </trkpt>
      <trkpt lat="48.18764" lon="7.35909">
        <ele>193.1</ele>
        <time>2019-08-09T14:22:19Z</time>
      </trkpt>
      <trkpt lat="48.1876" lon="7.35905">
        <ele>193.1</ele>
        <time>2019-08-09T14:22:20Z</time>
      </trkpt>
      <trkpt lat="48.18756" lon="7.35902">
        <ele>193.1</ele>
        <time>2019-08-09T14:22:21Z</time>
      </trkpt>
      <trkpt lat="48.18752" lon="7.359">
        <ele>193.1</ele>
        <time>2019-08-09T14:22:22Z</time>
      </trkpt>
      <trkpt lat="48.18748" lon="7.35898">
        <ele>193.1</ele>
        <time>2019-08-09T14:22:23Z</time>
      </trkpt>
      <trkpt lat="48.18745" lon="7.35895">
        <ele>193.1</ele>
        <time>2019-08-09T14:22:24Z</time>
      </trkpt>
      <trkpt lat="48.18741" lon="7.35892">
        <ele>193.1</ele>
        <time>2019-08-09T14:22:25Z</time>
      </trkpt>
      <trkpt lat="48.18737" lon="7.3589">
        <ele>193.1</ele>
        <time>2019-08-09T14:22:26Z</time>
      </trkpt>
      <trkpt lat="48.18734" lon="7.35887">
        <ele>193.1</ele>
        <time>2019-08-09T14:22:27Z</time>
      </trkpt>
      <trkpt lat="48.1873" lon="7.35883">
        <ele>193.1</ele>
        <time>2019-08-09T14:22:28Z</time>
      </trkpt>
      <trkpt lat="48.18726" lon="7.35879">
        <ele>193.2</ele>
        <time>2019-08-09T14:22:29Z</time>
      </trkpt>
      <trkpt lat="48.18723" lon="7.35876">
        <ele>193.2</ele>
        <time>2019-08-09T14:22:30Z</time>
      </trkpt>
      <trkpt lat="48.18719" lon="7.35873">
        <ele>193.2</ele>
        <time>2019-08-09T14:22:31Z</time>
      </trkpt>
      <trkpt lat="48.18715" lon="7.3587">
        <ele>193.2</ele>
        <time>2019-08-09T14:22:32Z</time>
      </trkpt>
      <trkpt lat="48.18711" lon="7.35866">
        <ele>193.2</ele>
        <time>2019-08-09T14:22:33Z</time>
      </trkpt>
      <trkpt lat="48.18707" lon="7.35862">
        <ele>193.3</ele>
        <time>2019-08-09T14:22:34Z</time>
      </trkpt>
      <trkpt lat="48.18702" lon="7.35859">
        <ele>193.3</ele>
        <time>2019-08-09T14:22:35Z</time>
      </trkpt>
      <trkpt lat="48.18699" lon="7.35855">
        <ele>193.3</ele>
        <time>2019-08-09T14:22:36Z</time>
      </trkpt>
      <trkpt lat="48.18694" lon="7.35853">
        <ele>193.3</ele>
        <time>2019-08-09T14:22:37Z</time>
      </trkpt>
      <trkpt lat="48.1869" lon="7.3585">
        <ele>193.3</ele>
        <time>2019-08-09T14:22:38Z</time>
      </trkpt>
      <trkpt lat="48.18686" lon="7.35848">
        <ele>193.3</ele>
        <time>2019-08-09T14:22:39Z</time>
      </trkpt>
      <trkpt lat="48.18681" lon="7.35844">
        <ele>193.4</ele>
        <time>2019-08-09T14:22:40Z</time>
      </trkpt>
      <trkpt lat="48.18677" lon="7.3584">
        <ele>193.4</ele>
        <time>2019-08-09T14:22:41Z</time>
      </trkpt>
      <trkpt lat="48.18671" lon="7.35837">
        <ele>193.4</ele>
        <time>2019-08-09T14:22:42Z</time>
      </trkpt>
      <trkpt lat="48.18668" lon="7.35834">
        <ele>193.4</ele>
        <time>2019-08-09T14:22:43Z</time>
      </trkpt>
      <trkpt lat="48.18665" lon="7.3583">
        <ele>193.4</ele>
        <time>2019-08-09T14:22:44Z</time>
      </trkpt>
      <trkpt lat="48.18661" lon="7.35827">
        <ele>193.4</ele>
        <time>2019-08-09T14:22:45Z</time>
      </trkpt>
      <trkpt lat="48.18657" lon="7.35825">
        <ele>193.4</ele>
        <time>2019-08-09T14:22:46Z</time>
      </trkpt>
      <trkpt lat="48.18654" lon="7.35823">
        <ele>193.4</ele>
        <time>2019-08-09T14:22:47Z</time>
      </trkpt>
      <trkpt lat="48.1865" lon="7.3582">
        <ele>193.5</ele>
        <time>2019-08-09T14:22:48Z</time>
      </trkpt>
      <trkpt lat="48.18646" lon="7.35817">
        <ele>193.5</ele>
        <time>2019-08-09T14:22:49Z</time>
      </trkpt>
      <trkpt lat="48.18641" lon="7.35814">
        <ele>193.5</ele>
        <time>2019-08-09T14:22:50Z</time>
      </trkpt>
      <trkpt lat="48.18638" lon="7.35813">
        <ele>193.5</ele>
        <time>2019-08-09T14:22:51Z</time>
      </trkpt>
      <trkpt lat="48.18635" lon="7.35811">
        <ele>193.5</ele>
        <time>2019-08-09T14:22:52Z</time>
      </trkpt>
      <trkpt lat="48.18631" lon="7.35808">
        <ele>193.5</ele>
        <time>2019-08-09T14:22:53Z</time>
      </trkpt>
      <trkpt lat="48.18627" lon="7.35806">
        <ele>193.5</ele>
        <time>2019-08-09T14:22:54Z</time>
      </trkpt>
      <trkpt lat="48.18623" lon="7.35804">
        <ele>193.5</ele>
        <time>2019-08-09T14:22:55Z</time>
      </trkpt>
      <trkpt lat="48.18618" lon="7.35802">
        <ele>193.5</ele>
        <time>2019-08-09T14:22:56Z</time>
      </trkpt>
      <trkpt lat="48.18615" lon="7.35799">
        <ele>193.5</ele>
        <time>2019-08-09T14:22:57Z</time>
      </trkpt>
      <trkpt lat="48.18611" lon="7.35797">
        <ele>193.5</ele>
        <time>2019-08-09T14:22:58Z</time>
      </trkpt>
      <trkpt lat="48.18607" lon="7.35794">
        <ele>193.5</ele>
        <time>2019-08-09T14:22:59Z</time>
      </trkpt>
      <trkpt lat="48.18602" lon="7.35793">
        <ele>193.6</ele>
        <time>2019-08-09T14:23:00Z</time>
      </trkpt>
      <trkpt lat="48.18599" lon="7.35789">
        <ele>193.6</ele>
        <time>2019-08-09T14:23:01Z</time>
      </trkpt>
      <trkpt lat="48.18596" lon="7.35786">
        <ele>193.6</ele>
        <time>2019-08-09T14:23:02Z</time>
      </trkpt>
      <trkpt lat="48.18593" lon="7.35783">
        <ele>193.7</ele>
        <time>2019-08-09T14:23:03Z</time>
      </trkpt>
      <trkpt lat="48.18589" lon="7.3578">
        <ele>193.7</ele>
        <time>2019-08-09T14:23:04Z</time>
      </trkpt>
      <trkpt lat="48.18585" lon="7.35777">
        <ele>193.7</ele>
        <time>2019-08-09T14:23:05Z</time>
      </trkpt>
      <trkpt lat="48.18582" lon="7.35775">
        <ele>193.8</ele>
        <time>2019-08-09T14:23:06Z</time>
      </trkpt>
      <trkpt lat="48.18578" lon="7.35771">
        <ele>193.8</ele>
        <time>2019-08-09T14:23:07Z</time>
      </trkpt>
      <trkpt lat="48.18575" lon="7.35769">
        <ele>193.8</ele>
        <time>2019-08-09T14:23:08Z</time>
      </trkpt>
      <trkpt lat="48.18571" lon="7.35767">
        <ele>193.9</ele>
        <time>2019-08-09T14:23:09Z</time>
      </trkpt>
      <trkpt lat="48.18568" lon="7.35764">
        <ele>193.9</ele>
        <time>2019-08-09T14:23:10Z</time>
      </trkpt>
      <trkpt lat="48.18564" lon="7.35762">
        <ele>193.9</ele>
        <time>2019-08-09T14:23:11Z</time>
      </trkpt>
      <trkpt lat="48.1856" lon="7.35759">
        <ele>194</ele>
        <time>2019-08-09T14:23:12Z</time>
      </trkpt>
      <trkpt lat="48.18556" lon="7.35757">
        <ele>194</ele>
        <time>2019-08-09T14:23:13Z</time>
      </trkpt>
      <trkpt lat="48.18552" lon="7.35754">
        <ele>194.1</ele>
        <time>2019-08-09T14:23:14Z</time>
      </trkpt>
      <trkpt lat="48.18548" lon="7.35752">
        <ele>194.1</ele>
        <time>2019-08-09T14:23:15Z</time>
      </trkpt>
      <trkpt lat="48.18544" lon="7.3575">
        <ele>194.2</ele>
        <time>2019-08-09T14:23:16Z</time>
      </trkpt>
      <trkpt lat="48.1854" lon="7.35748">
        <ele>194.2</ele>
        <time>2019-08-09T14:23:17Z</time>
      </trkpt>
      <trkpt lat="48.18536" lon="7.35745">
        <ele>194.3</ele>
        <time>2019-08-09T14:23:18Z</time>
      </trkpt>
      <trkpt lat="48.18533" lon="7.35742">
        <ele>194.3</ele>
        <time>2019-08-09T14:23:19Z</time>
      </trkpt>
      <trkpt lat="48.18529" lon="7.35739">
        <ele>194.3</ele>
        <time>2019-08-09T14:23:20Z</time>
      </trkpt>
      <trkpt lat="48.18526" lon="7.35735">
        <ele>194.4</ele>
        <time>2019-08-09T14:23:21Z</time>
      </trkpt>
      <trkpt lat="48.18522" lon="7.35732">
        <ele>194.4</ele>
        <time>2019-08-09T14:23:22Z</time>
      </trkpt>
      <trkpt lat="48.18519" lon="7.35729">
        <ele>194.5</ele>
        <time>2019-08-09T14:23:23Z</time>
      </trkpt>
      <trkpt lat="48.18516" lon="7.35726">
        <ele>194.5</ele>
        <time>2019-08-09T14:23:24Z</time>
      </trkpt>
      <trkpt lat="48.18512" lon="7.35723">
        <ele>194.6</ele>
        <time>2019-08-09T14:23:25Z</time>
      </trkpt>
      <trkpt lat="48.18509" lon="7.3572">
        <ele>194.6</ele>
        <time>2019-08-09T14:23:26Z</time>
      </trkpt>
      <trkpt lat="48.18505" lon="7.35717">
        <ele>194.7</ele>
        <time>2019-08-09T14:23:27Z</time>
      </trkpt>
      <trkpt lat="48.18501" lon="7.35713">
        <ele>194.7</ele>
        <time>2019-08-09T14:23:28Z</time>
      </trkpt>
      <trkpt lat="48.18498" lon="7.35711">
        <ele>194.8</ele>
        <time>2019-08-09T14:23:29Z</time>
      </trkpt>
      <trkpt lat="48.18496" lon="7.35708">
        <ele>194.8</ele>
        <time>2019-08-09T14:23:30Z</time>
      </trkpt>
      <trkpt lat="48.18492" lon="7.35705">
        <ele>194.8</ele>
        <time>2019-08-09T14:23:31Z</time>
      </trkpt>
      <trkpt lat="48.1849" lon="7.35703">
        <ele>194.9</ele>
        <time>2019-08-09T14:23:32Z</time>
      </trkpt>
      <trkpt lat="48.18487" lon="7.357">
        <ele>194.9</ele>
        <time>2019-08-09T14:23:33Z</time>
      </trkpt>
      <trkpt lat="48.18483" lon="7.35697">
        <ele>195</ele>
        <time>2019-08-09T14:23:34Z</time>
      </trkpt>
      <trkpt lat="48.1848" lon="7.35694">
        <ele>195</ele>
        <time>2019-08-09T14:23:35Z</time>
      </trkpt>
      <trkpt lat="48.18476" lon="7.35691">
        <ele>195</ele>
        <time>2019-08-09T14:23:36Z</time>
      </trkpt>
      <trkpt lat="48.18472" lon="7.35689">
        <ele>195.1</ele>
        <time>2019-08-09T14:23:37Z</time>
      </trkpt>
      <trkpt lat="48.18469" lon="7.35687">
        <ele>195.1</ele>
        <time>2019-08-09T14:23:38Z</time>
      </trkpt>
      <trkpt lat="48.18465" lon="7.35684">
        <ele>195.2</ele>
        <time>2019-08-09T14:23:39Z</time>
      </trkpt>
      <trkpt lat="48.18463" lon="7.35681">
        <ele>195.2</ele>
        <time>2019-08-09T14:23:40Z</time>
      </trkpt>
      <trkpt lat="48.18459" lon="7.35679">
        <ele>195.2</ele>
        <time>2019-08-09T14:23:41Z</time>
      </trkpt>
      <trkpt lat="48.18455" lon="7.35675">
        <ele>195.3</ele>
        <time>2019-08-09T14:23:42Z</time>
      </trkpt>
      <trkpt lat="48.18452" lon="7.35672">
        <ele>195.3</ele>
        <time>2019-08-09T14:23:43Z</time>
      </trkpt>
      <trkpt lat="48.18449" lon="7.3567">
        <ele>195.3</ele>
        <time>2019-08-09T14:23:44Z</time>
      </trkpt>
      <trkpt lat="48.18447" lon="7.35667">
        <ele>195.3</ele>
        <time>2019-08-09T14:23:45Z</time>
      </trkpt>
      <trkpt lat="48.18443" lon="7.35665">
        <ele>195.4</ele>
        <time>2019-08-09T14:23:46Z</time>
      </trkpt>
      <trkpt lat="48.1844" lon="7.35663">
        <ele>195.4</ele>
        <time>2019-08-09T14:23:47Z</time>
      </trkpt>
      <trkpt lat="48.18437" lon="7.35661">
        <ele>195.4</ele>
        <time>2019-08-09T14:23:48Z</time>
      </trkpt>
      <trkpt lat="48.18433" lon="7.35658">
        <ele>195.4</ele>
        <time>2019-08-09T14:23:49Z</time>
      </trkpt>
      <trkpt lat="48.18429" lon="7.35655">
        <ele>195.5</ele>
        <time>2019-08-09T14:23:50Z</time>
      </trkpt>
      <trkpt lat="48.18426" lon="7.35651">
        <ele>195.5</ele>
        <time>2019-08-09T14:23:51Z</time>
      </trkpt>
      <trkpt lat="48.18422" lon="7.35649">
        <ele>195.5</ele>
        <time>2019-08-09T14:23:52Z</time>
      </trkpt>
      <trkpt lat="48.18419" lon="7.35645">
        <ele>195.5</ele>
        <time>2019-08-09T14:23:53Z</time>
      </trkpt>
      <trkpt lat="48.18416" lon="7.35642">
        <ele>195.5</ele>
        <time>2019-08-09T14:23:54Z</time>
      </trkpt>
      <trkpt lat="48.18412" lon="7.35639">
        <ele>195.5</ele>
        <time>2019-08-09T14:23:55Z</time>
      </trkpt>
      <trkpt lat="48.18408" lon="7.35637">
        <ele>195.5</ele>
        <time>2019-08-09T14:23:56Z</time>
      </trkpt>
      <trkpt lat="48.18405" lon="7.35635">
        <ele>195.5</ele>
        <time>2019-08-09T14:23:57Z</time>
      </trkpt>
      <trkpt lat="48.18402" lon="7.35633">
        <ele>195.5</ele>
        <time>2019-08-09T14:23:58Z</time>
      </trkpt>
      <trkpt lat="48.18399" lon="7.3563">
        <ele>195.5</ele>
        <time>2019-08-09T14:23:59Z</time>
      </trkpt>
      <trkpt lat="48.18397" lon="7.35627">
        <ele>195.5</ele>
        <time>2019-08-09T14:24:00Z</time>
      </trkpt>
      <trkpt lat="48.18394" lon="7.35624">
        <ele>195.5</ele>
        <time>2019-08-09T14:24:01Z</time>
      </trkpt>
      <trkpt lat="48.18391" lon="7.35621">
        <ele>195.5</ele>
        <time>2019-08-09T14:24:02Z</time>
      </trkpt>
      <trkpt lat="48.18388" lon="7.35619">
        <ele>195.5</ele>
        <time>2019-08-09T14:24:03Z</time>
      </trkpt>
      <trkpt lat="48.18385" lon="7.35616">
        <ele>195.5</ele>
        <time>2019-08-09T14:24:04Z</time>
      </trkpt>
      <trkpt lat="48.18382" lon="7.35613">
        <ele>195.5</ele>
        <time>2019-08-09T14:24:05Z</time>
      </trkpt>
      <trkpt lat="48.18379" lon="7.3561">
        <ele>195.5</ele>
        <time>2019-08-09T14:24:06Z</time>
      </trkpt>
      <trkpt lat="48.18376" lon="7.35606">
        <ele>195.4</ele>
        <time>2019-08-09T14:24:07Z</time>
      </trkpt>
      <trkpt lat="48.18372" lon="7.35603">
        <ele>195.4</ele>
        <time>2019-08-09T14:24:08Z</time>
      </trkpt>
      <trkpt lat="48.18369" lon="7.35599">
        <ele>195.4</ele>
        <time>2019-08-09T14:24:09Z</time>
      </trkpt>
      <trkpt lat="48.18364" lon="7.35595">
        <ele>195.4</ele>
        <time>2019-08-09T14:24:10Z</time>
      </trkpt>
      <trkpt lat="48.1836" lon="7.35591">
        <ele>195.4</ele>
        <time>2019-08-09T14:24:11Z</time>
      </trkpt>
      <trkpt lat="48.18355" lon="7.35587">
        <ele>195.4</ele>
        <time>2019-08-09T14:24:12Z</time>
      </trkpt>
      <trkpt lat="48.1835" lon="7.35584">
        <ele>195.3</ele>
        <time>2019-08-09T14:24:13Z</time>
      </trkpt>
      <trkpt lat="48.18345" lon="7.3558">
        <ele>195.3</ele>
        <time>2019-08-09T14:24:14Z</time>
      </trkpt>
      <trkpt lat="48.18341" lon="7.35576">
        <ele>195.3</ele>
        <time>2019-08-09T14:24:15Z</time>
      </trkpt>
      <trkpt lat="48.18336" lon="7.35573">
        <ele>195.3</ele>
        <time>2019-08-09T14:24:16Z</time>
      </trkpt>
      <trkpt lat="48.18333" lon="7.35569">
        <ele>195.3</ele>
        <time>2019-08-09T14:24:17Z</time>
      </trkpt>
      <trkpt lat="48.18329" lon="7.35565">
        <ele>195.2</ele>
        <time>2019-08-09T14:24:18Z</time>
      </trkpt>
      <trkpt lat="48.18326" lon="7.35561">
        <ele>195.2</ele>
        <time>2019-08-09T14:24:19Z</time>
      </trkpt>
      <trkpt lat="48.18321" lon="7.35559">
        <ele>195.2</ele>
        <time>2019-08-09T14:24:20Z</time>
      </trkpt>
      <trkpt lat="48.18317" lon="7.35555">
        <ele>195.2</ele>
        <time>2019-08-09T14:24:21Z</time>
      </trkpt>
      <trkpt lat="48.18312" lon="7.35553">
        <ele>195.2</ele>
        <time>2019-08-09T14:24:22Z</time>
      </trkpt>
      <trkpt lat="48.18308" lon="7.3555">
        <ele>195.2</ele>
        <time>2019-08-09T14:24:23Z</time>
      </trkpt>
      <trkpt lat="48.18304" lon="7.35547">
        <ele>195.2</ele>
        <time>2019-08-09T14:24:24Z</time>
      </trkpt>
      <trkpt lat="48.18299" lon="7.35543">
        <ele>195.2</ele>
        <time>2019-08-09T14:24:25Z</time>
      </trkpt>
      <trkpt lat="48.18294" lon="7.3554">
        <ele>195.2</ele>
        <time>2019-08-09T14:24:26Z</time>
      </trkpt>
      <trkpt lat="48.1829" lon="7.35538">
        <ele>195.2</ele>
        <time>2019-08-09T14:24:27Z</time>
      </trkpt>
      <trkpt lat="48.18286" lon="7.35535">
        <ele>195.2</ele>
        <time>2019-08-09T14:24:28Z</time>
      </trkpt>
      <trkpt lat="48.18281" lon="7.35533">
        <ele>195.2</ele>
        <time>2019-08-09T14:24:29Z</time>
      </trkpt>
      <trkpt lat="48.18277" lon="7.35532">
        <ele>195.2</ele>
        <time>2019-08-09T14:24:30Z</time>
      </trkpt>
      <trkpt lat="48.18274" lon="7.3553">
        <ele>195.1</ele>
        <time>2019-08-09T14:24:31Z</time>
      </trkpt>
      <trkpt lat="48.18271" lon="7.35529">
        <ele>195.1</ele>
        <time>2019-08-09T14:24:32Z</time>
      </trkpt>
      <trkpt lat="48.18267" lon="7.35527">
        <ele>195</ele>
        <time>2019-08-09T14:24:33Z</time>
      </trkpt>
      <trkpt lat="48.18263" lon="7.35525">
        <ele>194.9</ele>
        <time>2019-08-09T14:24:34Z</time>
      </trkpt>
      <trkpt lat="48.18258" lon="7.35523">
        <ele>194.8</ele>
        <time>2019-08-09T14:24:35Z</time>
      </trkpt>
      <trkpt lat="48.18253" lon="7.35521">
        <ele>194.7</ele>
        <time>2019-08-09T14:24:36Z</time>
      </trkpt>
      <trkpt lat="48.18249" lon="7.35519">
        <ele>194.7</ele>
        <time>2019-08-09T14:24:37Z</time>
      </trkpt>
      <trkpt lat="48.18244" lon="7.35518">
        <ele>194.6</ele>
        <time>2019-08-09T14:24:38Z</time>
      </trkpt>
      <trkpt lat="48.1824" lon="7.35515">
        <ele>194.6</ele>
        <time>2019-08-09T14:24:39Z</time>
      </trkpt>
      <trkpt lat="48.18236" lon="7.35515">
        <ele>194.6</ele>
        <time>2019-08-09T14:24:40Z</time>
      </trkpt>
      <trkpt lat="48.18231" lon="7.35512">
        <ele>194.6</ele>
        <time>2019-08-09T14:24:41Z</time>
      </trkpt>
      <trkpt lat="48.18227" lon="7.3551">
        <ele>194.6</ele>
        <time>2019-08-09T14:24:42Z</time>
      </trkpt>
      <trkpt lat="48.18222" lon="7.35508">
        <ele>194.6</ele>
        <time>2019-08-09T14:24:43Z</time>
      </trkpt>
      <trkpt lat="48.18217" lon="7.35507">
        <ele>194.5</ele>
        <time>2019-08-09T14:24:44Z</time>
      </trkpt>
      <trkpt lat="48.18212" lon="7.35505">
        <ele>194.5</ele>
        <time>2019-08-09T14:24:45Z</time>
      </trkpt>
      <trkpt lat="48.18207" lon="7.35504">
        <ele>194.5</ele>
        <time>2019-08-09T14:24:46Z</time>
      </trkpt>
      <trkpt lat="48.18202" lon="7.35502">
        <ele>194.5</ele>
        <time>2019-08-09T14:24:47Z</time>
      </trkpt>
      <trkpt lat="48.18197" lon="7.35501">
        <ele>194.4</ele>
        <time>2019-08-09T14:24:48Z</time>
      </trkpt>
      <trkpt lat="48.18192" lon="7.355">
        <ele>194.4</ele>
        <time>2019-08-09T14:24:49Z</time>
      </trkpt>
      <trkpt lat="48.18187" lon="7.35498">
        <ele>194.4</ele>
        <time>2019-08-09T14:24:50Z</time>
      </trkpt>
      <trkpt lat="48.18183" lon="7.35498">
        <ele>194.3</ele>
        <time>2019-08-09T14:24:51Z</time>
      </trkpt>
      <trkpt lat="48.18177" lon="7.35497">
        <ele>194.3</ele>
        <time>2019-08-09T14:24:52Z</time>
      </trkpt>
      <trkpt lat="48.18171" lon="7.35496">
        <ele>194.3</ele>
        <time>2019-08-09T14:24:53Z</time>
      </trkpt>
      <trkpt lat="48.18165" lon="7.35496">
        <ele>194.2</ele>
        <time>2019-08-09T14:24:54Z</time>
      </trkpt>
      <trkpt lat="48.1816" lon="7.35494">
        <ele>194.2</ele>
        <time>2019-08-09T14:24:55Z</time>
      </trkpt>
      <trkpt lat="48.18155" lon="7.35494">
        <ele>194.1</ele>
        <time>2019-08-09T14:24:56Z</time>
      </trkpt>
      <trkpt lat="48.18149" lon="7.35494">
        <ele>194</ele>
        <time>2019-08-09T14:24:57Z</time>
      </trkpt>
      <trkpt lat="48.18144" lon="7.35493">
        <ele>194</ele>
        <time>2019-08-09T14:24:58Z</time>
      </trkpt>
      <trkpt lat="48.18139" lon="7.35491">
        <ele>193.9</ele>
        <time>2019-08-09T14:24:59Z</time>
      </trkpt>
      <trkpt lat="48.18133" lon="7.3549">
        <ele>193.9</ele>
        <time>2019-08-09T14:25:00Z</time>
      </trkpt>
      <trkpt lat="48.18128" lon="7.35489">
        <ele>193.8</ele>
        <time>2019-08-09T14:25:01Z</time>
      </trkpt>
      <trkpt lat="48.18123" lon="7.35489">
        <ele>193.7</ele>
        <time>2019-08-09T14:25:02Z</time>
      </trkpt>
      <trkpt lat="48.18117" lon="7.35489">
        <ele>193.6</ele>
        <time>2019-08-09T14:25:03Z</time>
      </trkpt>
      <trkpt lat="48.18111" lon="7.35488">
        <ele>193.5</ele>
        <time>2019-08-09T14:25:04Z</time>
      </trkpt>
      <trkpt lat="48.18105" lon="7.35487">
        <ele>193.4</ele>
        <time>2019-08-09T14:25:05Z</time>
      </trkpt>
      <trkpt lat="48.181" lon="7.35486">
        <ele>193.3</ele>
        <time>2019-08-09T14:25:06Z</time>
      </trkpt>
      <trkpt lat="48.18094" lon="7.35484">
        <ele>193.2</ele>
        <time>2019-08-09T14:25:07Z</time>
      </trkpt>
      <trkpt lat="48.18088" lon="7.35481">
        <ele>193.1</ele>
        <time>2019-08-09T14:25:08Z</time>
      </trkpt>
      <trkpt lat="48.18083" lon="7.35479">
        <ele>193</ele>
        <time>2019-08-09T14:25:09Z</time>
      </trkpt>
      <trkpt lat="48.18079" lon="7.35477">
        <ele>192.9</ele>
        <time>2019-08-09T14:25:10Z</time>
      </trkpt>
      <trkpt lat="48.18075" lon="7.35475">
        <ele>192.8</ele>
        <time>2019-08-09T14:25:11Z</time>
      </trkpt>
      <trkpt lat="48.18071" lon="7.35471">
        <ele>192.7</ele>
        <time>2019-08-09T14:25:12Z</time>
      </trkpt>
      <trkpt lat="48.18067" lon="7.35468">
        <ele>192.6</ele>
        <time>2019-08-09T14:25:13Z</time>
      </trkpt>
      <trkpt lat="48.18062" lon="7.35464">
        <ele>192.5</ele>
        <time>2019-08-09T14:25:14Z</time>
      </trkpt>
      <trkpt lat="48.18057" lon="7.35462">
        <ele>192.4</ele>
        <time>2019-08-09T14:25:15Z</time>
      </trkpt>
      <trkpt lat="48.18053" lon="7.35457">
        <ele>192.2</ele>
        <time>2019-08-09T14:25:16Z</time>
      </trkpt>
      <trkpt lat="48.18048" lon="7.35453">
        <ele>192.1</ele>
        <time>2019-08-09T14:25:17Z</time>
      </trkpt>
      <trkpt lat="48.18044" lon="7.35449">
        <ele>192</ele>
        <time>2019-08-09T14:25:18Z</time>
      </trkpt>
      <trkpt lat="48.1804" lon="7.35447">
        <ele>191.8</ele>
        <time>2019-08-09T14:25:19Z</time>
      </trkpt>
      <trkpt lat="48.18035" lon="7.35445">
        <ele>191.7</ele>
        <time>2019-08-09T14:25:20Z</time>
      </trkpt>
      <trkpt lat="48.18031" lon="7.35442">
        <ele>191.6</ele>
        <time>2019-08-09T14:25:21Z</time>
      </trkpt>
      <trkpt lat="48.18026" lon="7.3544">
        <ele>191.5</ele>
        <time>2019-08-09T14:25:22Z</time>
      </trkpt>
      <trkpt lat="48.18022" lon="7.35437">
        <ele>191.4</ele>
        <time>2019-08-09T14:25:23Z</time>
      </trkpt>
      <trkpt lat="48.18018" lon="7.35434">
        <ele>191.2</ele>
        <time>2019-08-09T14:25:24Z</time>
      </trkpt>
      <trkpt lat="48.18013" lon="7.35432">
        <ele>191.1</ele>
        <time>2019-08-09T14:25:25Z</time>
      </trkpt>
      <trkpt lat="48.18008" lon="7.3543">
        <ele>191</ele>
        <time>2019-08-09T14:25:26Z</time>
      </trkpt>
      <trkpt lat="48.18004" lon="7.35427">
        <ele>190.9</ele>
        <time>2019-08-09T14:25:27Z</time>
      </trkpt>
      <trkpt lat="48.17999" lon="7.35425">
        <ele>190.9</ele>
        <time>2019-08-09T14:25:28Z</time>
      </trkpt>
      <trkpt lat="48.17995" lon="7.35423">
        <ele>190.9</ele>
        <time>2019-08-09T14:25:29Z</time>
      </trkpt>
      <trkpt lat="48.17991" lon="7.35421">
        <ele>190.9</ele>
        <time>2019-08-09T14:25:30Z</time>
      </trkpt>
      <trkpt lat="48.17986" lon="7.35419">
        <ele>190.9</ele>
        <time>2019-08-09T14:25:31Z</time>
      </trkpt>
      <trkpt lat="48.17981" lon="7.35416">
        <ele>190.9</ele>
        <time>2019-08-09T14:25:32Z</time>
      </trkpt>
      <trkpt lat="48.17976" lon="7.35414">
        <ele>190.9</ele>
        <time>2019-08-09T14:25:33Z</time>
      </trkpt>
      <trkpt lat="48.1797" lon="7.35412">
        <ele>190.9</ele>
        <time>2019-08-09T14:25:34Z</time>
      </trkpt>
      <trkpt lat="48.17965" lon="7.35409">
        <ele>190.9</ele>
        <time>2019-08-09T14:25:35Z</time>
      </trkpt>
      <trkpt lat="48.1796" lon="7.35407">
        <ele>190.9</ele>
        <time>2019-08-09T14:25:36Z</time>
      </trkpt>
      <trkpt lat="48.17955" lon="7.35405">
        <ele>190.9</ele>
        <time>2019-08-09T14:25:37Z</time>
      </trkpt>
      <trkpt lat="48.1795" lon="7.35402">
        <ele>190.9</ele>
        <time>2019-08-09T14:25:38Z</time>
      </trkpt>
      <trkpt lat="48.17946" lon="7.35399">
        <ele>190.9</ele>
        <time>2019-08-09T14:25:39Z</time>
      </trkpt>
      <trkpt lat="48.17943" lon="7.35397">
        <ele>190.9</ele>
        <time>2019-08-09T14:25:40Z</time>
      </trkpt>
      <trkpt lat="48.17938" lon="7.35394">
        <ele>190.9</ele>
        <time>2019-08-09T14:25:41Z</time>
      </trkpt>
      <trkpt lat="48.17935" lon="7.35391">
        <ele>190.9</ele>
        <time>2019-08-09T14:25:42Z</time>
      </trkpt>
      <trkpt lat="48.1793" lon="7.35389">
        <ele>190.9</ele>
        <time>2019-08-09T14:25:43Z</time>
      </trkpt>
      <trkpt lat="48.17926" lon="7.35386">
        <ele>190.9</ele>
        <time>2019-08-09T14:25:44Z</time>
      </trkpt>
      <trkpt lat="48.17922" lon="7.35384">
        <ele>190.9</ele>
        <time>2019-08-09T14:25:45Z</time>
      </trkpt>
      <trkpt lat="48.17918" lon="7.35382">
        <ele>190.9</ele>
        <time>2019-08-09T14:25:46Z</time>
      </trkpt>
      <trkpt lat="48.17915" lon="7.3538">
        <ele>190.9</ele>
        <time>2019-08-09T14:25:47Z</time>
      </trkpt>
      <trkpt lat="48.1791" lon="7.35378">
        <ele>190.9</ele>
        <time>2019-08-09T14:25:48Z</time>
      </trkpt>
      <trkpt lat="48.17907" lon="7.35376">
        <ele>190.9</ele>
        <time>2019-08-09T14:25:49Z</time>
      </trkpt>
      <trkpt lat="48.17904" lon="7.35374">
        <ele>190.9</ele>
        <time>2019-08-09T14:25:50Z</time>
      </trkpt>
      <trkpt lat="48.17901" lon="7.3537">
        <ele>190.9</ele>
        <time>2019-08-09T14:25:51Z</time>
      </trkpt>
      <trkpt lat="48.17897" lon="7.35368">
        <ele>190.9</ele>
        <time>2019-08-09T14:25:52Z</time>
      </trkpt>
      <trkpt lat="48.17893" lon="7.35365">
        <ele>190.9</ele>
        <time>2019-08-09T14:25:53Z</time>
      </trkpt>
      <trkpt lat="48.17888" lon="7.35362">
        <ele>190.9</ele>
        <time>2019-08-09T14:25:54Z</time>
      </trkpt>
      <trkpt lat="48.17885" lon="7.35359">
        <ele>190.9</ele>
        <time>2019-08-09T14:25:55Z</time>
      </trkpt>
      <trkpt lat="48.17881" lon="7.35357">
        <ele>190.9</ele>
        <time>2019-08-09T14:25:56Z</time>
      </trkpt>
      <trkpt lat="48.17877" lon="7.35354">
        <ele>190.9</ele>
        <time>2019-08-09T14:25:57Z</time>
      </trkpt>
      <trkpt lat="48.17873" lon="7.35351">
        <ele>190.9</ele>
        <time>2019-08-09T14:25:58Z</time>
      </trkpt>
      <trkpt lat="48.17869" lon="7.35348">
        <ele>190.9</ele>
        <time>2019-08-09T14:25:59Z</time>
      </trkpt>
      <trkpt lat="48.17865" lon="7.35346">
        <ele>190.9</ele>
        <time>2019-08-09T14:26:00Z</time>
      </trkpt>
      <trkpt lat="48.17861" lon="7.35344">
        <ele>190.9</ele>
        <time>2019-08-09T14:26:01Z</time>
      </trkpt>
      <trkpt lat="48.17858" lon="7.35341">
        <ele>190.9</ele>
        <time>2019-08-09T14:26:02Z</time>
      </trkpt>
      <trkpt lat="48.17854" lon="7.35339">
        <ele>190.9</ele>
        <time>2019-08-09T14:26:03Z</time>
      </trkpt>
      <trkpt lat="48.1785" lon="7.35338">
        <ele>190.9</ele>
        <time>2019-08-09T14:26:04Z</time>
      </trkpt>
      <trkpt lat="48.17846" lon="7.35336">
        <ele>190.9</ele>
        <time>2019-08-09T14:26:05Z</time>
      </trkpt>
      <trkpt lat="48.17843" lon="7.35335">
        <ele>190.9</ele>
        <time>2019-08-09T14:26:06Z</time>
      </trkpt>
      <trkpt lat="48.17839" lon="7.35333">
        <ele>190.9</ele>
        <time>2019-08-09T14:26:07Z</time>
      </trkpt>
      <trkpt lat="48.17835" lon="7.3533">
        <ele>190.9</ele>
        <time>2019-08-09T14:26:08Z</time>
      </trkpt>
      <trkpt lat="48.17831" lon="7.35329">
        <ele>190.9</ele>
        <time>2019-08-09T14:26:09Z</time>
      </trkpt>
      <trkpt lat="48.17826" lon="7.35327">
        <ele>190.9</ele>
        <time>2019-08-09T14:26:10Z</time>
      </trkpt>
      <trkpt lat="48.17821" lon="7.35325">
        <ele>190.9</ele>
        <time>2019-08-09T14:26:11Z</time>
      </trkpt>
      <trkpt lat="48.17816" lon="7.35324">
        <ele>190.8</ele>
        <time>2019-08-09T14:26:12Z</time>
      </trkpt>
      <trkpt lat="48.17811" lon="7.35322">
        <ele>190.8</ele>
        <time>2019-08-09T14:26:13Z</time>
      </trkpt>
      <trkpt lat="48.17805" lon="7.35317">
        <ele>190.8</ele>
        <time>2019-08-09T14:26:14Z</time>
      </trkpt>
      <trkpt lat="48.17801" lon="7.35313">
        <ele>190.7</ele>
        <time>2019-08-09T14:26:15Z</time>
      </trkpt>
      <trkpt lat="48.17796" lon="7.35308">
        <ele>190.6</ele>
        <time>2019-08-09T14:26:16Z</time>
      </trkpt>
      <trkpt lat="48.17792" lon="7.35302">
        <ele>190.5</ele>
        <time>2019-08-09T14:26:17Z</time>
      </trkpt>
      <trkpt lat="48.17789" lon="7.35296">
        <ele>190.3</ele>
        <time>2019-08-09T14:26:18Z</time>
      </trkpt>
      <trkpt lat="48.17785" lon="7.35289">
        <ele>190.1</ele>
        <time>2019-08-09T14:26:19Z</time>
      </trkpt>
      <trkpt lat="48.17781" lon="7.35282">
        <ele>189.8</ele>
        <time>2019-08-09T14:26:20Z</time>
      </trkpt>
      <trkpt lat="48.17775" lon="7.35276">
        <ele>189.5</ele>
        <time>2019-08-09T14:26:21Z</time>
      </trkpt>
      <trkpt lat="48.17772" lon="7.3527">
        <ele>189.3</ele>
        <time>2019-08-09T14:26:22Z</time>
      </trkpt>
      <trkpt lat="48.17768" lon="7.35264">
        <ele>189.1</ele>
        <time>2019-08-09T14:26:23Z</time>
      </trkpt>
      <trkpt lat="48.17764" lon="7.35258">
        <ele>189</ele>
        <time>2019-08-09T14:26:24Z</time>
      </trkpt>
      <trkpt lat="48.17761" lon="7.35253">
        <ele>188.9</ele>
        <time>2019-08-09T14:26:25Z</time>
      </trkpt>
      <trkpt lat="48.17755" lon="7.35248">
        <ele>188.8</ele>
        <time>2019-08-09T14:26:26Z</time>
      </trkpt>
      <trkpt lat="48.17751" lon="7.35245">
        <ele>188.7</ele>
        <time>2019-08-09T14:26:27Z</time>
      </trkpt>
      <trkpt lat="48.17746" lon="7.35242">
        <ele>188.7</ele>
        <time>2019-08-09T14:26:28Z</time>
      </trkpt>
      <trkpt lat="48.17741" lon="7.35239">
        <ele>188.7</ele>
        <time>2019-08-09T14:26:29Z</time>
      </trkpt>
      <trkpt lat="48.17736" lon="7.35237">
        <ele>188.7</ele>
        <time>2019-08-09T14:26:30Z</time>
      </trkpt>
      <trkpt lat="48.17731" lon="7.35234">
        <ele>188.7</ele>
        <time>2019-08-09T14:26:31Z</time>
      </trkpt>
      <trkpt lat="48.17726" lon="7.35232">
        <ele>188.7</ele>
        <time>2019-08-09T14:26:32Z</time>
      </trkpt>
      <trkpt lat="48.17722" lon="7.35229">
        <ele>188.7</ele>
        <time>2019-08-09T14:26:33Z</time>
      </trkpt>
      <trkpt lat="48.17718" lon="7.35226">
        <ele>188.7</ele>
        <time>2019-08-09T14:26:34Z</time>
      </trkpt>
      <trkpt lat="48.17714" lon="7.35223">
        <ele>188.7</ele>
        <time>2019-08-09T14:26:35Z</time>
      </trkpt>
      <trkpt lat="48.1771" lon="7.35221">
        <ele>188.7</ele>
        <time>2019-08-09T14:26:36Z</time>
      </trkpt>
      <trkpt lat="48.17706" lon="7.35219">
        <ele>188.7</ele>
        <time>2019-08-09T14:26:37Z</time>
      </trkpt>
      <trkpt lat="48.17701" lon="7.35218">
        <ele>188.7</ele>
        <time>2019-08-09T14:26:38Z</time>
      </trkpt>
      <trkpt lat="48.17696" lon="7.35215">
        <ele>188.7</ele>
        <time>2019-08-09T14:26:39Z</time>
      </trkpt>
      <trkpt lat="48.17692" lon="7.35212">
        <ele>188.7</ele>
        <time>2019-08-09T14:26:40Z</time>
      </trkpt>
      <trkpt lat="48.17688" lon="7.3521">
        <ele>188.7</ele>
        <time>2019-08-09T14:26:41Z</time>
      </trkpt>
      <trkpt lat="48.17684" lon="7.35208">
        <ele>188.7</ele>
        <time>2019-08-09T14:26:42Z</time>
      </trkpt>
      <trkpt lat="48.1768" lon="7.35205">
        <ele>188.7</ele>
        <time>2019-08-09T14:26:43Z</time>
      </trkpt>
      <trkpt lat="48.17676" lon="7.35204">
        <ele>188.7</ele>
        <time>2019-08-09T14:26:44Z</time>
      </trkpt>
      <trkpt lat="48.17673" lon="7.35203">
        <ele>188.7</ele>
        <time>2019-08-09T14:26:45Z</time>
      </trkpt>
      <trkpt lat="48.17668" lon="7.352">
        <ele>188.7</ele>
        <time>2019-08-09T14:26:46Z</time>
      </trkpt>
      <trkpt lat="48.17664" lon="7.35197">
        <ele>188.7</ele>
        <time>2019-08-09T14:26:47Z</time>
      </trkpt>
      <trkpt lat="48.17661" lon="7.35193">
        <ele>188.7</ele>
        <time>2019-08-09T14:26:48Z</time>
      </trkpt>
      <trkpt lat="48.17657" lon="7.3519">
        <ele>188.7</ele>
        <time>2019-08-09T14:26:49Z</time>
      </trkpt>
      <trkpt lat="48.17654" lon="7.35186">
        <ele>188.7</ele>
        <time>2019-08-09T14:26:50Z</time>
      </trkpt>
      <trkpt lat="48.17651" lon="7.35182">
        <ele>188.7</ele>
        <time>2019-08-09T14:26:51Z</time>
      </trkpt>
      <trkpt lat="48.17647" lon="7.35179">
        <ele>188.7</ele>
        <time>2019-08-09T14:26:52Z</time>
      </trkpt>
      <trkpt lat="48.17643" lon="7.35174">
        <ele>188.7</ele>
        <time>2019-08-09T14:26:53Z</time>
      </trkpt>
      <trkpt lat="48.17641" lon="7.3517">
        <ele>188.7</ele>
        <time>2019-08-09T14:26:54Z</time>
      </trkpt>
      <trkpt lat="48.17635" lon="7.35165">
        <ele>188.7</ele>
        <time>2019-08-09T14:26:55Z</time>
      </trkpt>
      <trkpt lat="48.17631" lon="7.35161">
        <ele>188.7</ele>
        <time>2019-08-09T14:26:56Z</time>
      </trkpt>
      <trkpt lat="48.17626" lon="7.35159">
        <ele>188.7</ele>
        <time>2019-08-09T14:26:57Z</time>
      </trkpt>
      <trkpt lat="48.17621" lon="7.35158">
        <ele>188.7</ele>
        <time>2019-08-09T14:26:58Z</time>
      </trkpt>
      <trkpt lat="48.17616" lon="7.35155">
        <ele>188.7</ele>
        <time>2019-08-09T14:26:59Z</time>
      </trkpt>
      <trkpt lat="48.17611" lon="7.35152">
        <ele>188.7</ele>
        <time>2019-08-09T14:27:00Z</time>
      </trkpt>
      <trkpt lat="48.17606" lon="7.3515">
        <ele>188.7</ele>
        <time>2019-08-09T14:27:01Z</time>
      </trkpt>
      <trkpt lat="48.176" lon="7.35148">
        <ele>188.7</ele>
        <time>2019-08-09T14:27:02Z</time>
      </trkpt>
      <trkpt lat="48.17594" lon="7.35146">
        <ele>188.6</ele>
        <time>2019-08-09T14:27:03Z</time>
      </trkpt>
      <trkpt lat="48.17589" lon="7.35144">
        <ele>188.6</ele>
        <time>2019-08-09T14:27:04Z</time>
      </trkpt>
      <trkpt lat="48.17583" lon="7.3514">
        <ele>188.6</ele>
        <time>2019-08-09T14:27:05Z</time>
      </trkpt>
      <trkpt lat="48.17579" lon="7.35137">
        <ele>188.5</ele>
        <time>2019-08-09T14:27:06Z</time>
      </trkpt>
      <trkpt lat="48.17575" lon="7.35135">
        <ele>188.4</ele>
        <time>2019-08-09T14:27:07Z</time>
      </trkpt>
      <trkpt lat="48.17571" lon="7.35132">
        <ele>188.3</ele>
        <time>2019-08-09T14:27:08Z</time>
      </trkpt>
      <trkpt lat="48.17567" lon="7.35129">
        <ele>188.2</ele>
        <time>2019-08-09T14:27:09Z</time>
      </trkpt>
      <trkpt lat="48.17563" lon="7.35126">
        <ele>188.1</ele>
        <time>2019-08-09T14:27:10Z</time>
      </trkpt>
      <trkpt lat="48.17559" lon="7.35123">
        <ele>188</ele>
        <time>2019-08-09T14:27:11Z</time>
      </trkpt>
      <trkpt lat="48.17555" lon="7.3512">
        <ele>187.9</ele>
        <time>2019-08-09T14:27:12Z</time>
      </trkpt>
      <trkpt lat="48.17552" lon="7.35117">
        <ele>187.8</ele>
        <time>2019-08-09T14:27:13Z</time>
      </trkpt>
      <trkpt lat="48.17548" lon="7.35113">
        <ele>187.7</ele>
        <time>2019-08-09T14:27:14Z</time>
      </trkpt>
      <trkpt lat="48.17544" lon="7.3511">
        <ele>187.6</ele>
        <time>2019-08-09T14:27:15Z</time>
      </trkpt>
      <trkpt lat="48.17539" lon="7.35107">
        <ele>187.5</ele>
        <time>2019-08-09T14:27:16Z</time>
      </trkpt>
      <trkpt lat="48.17535" lon="7.35103">
        <ele>187.4</ele>
        <time>2019-08-09T14:27:17Z</time>
      </trkpt>
      <trkpt lat="48.17531" lon="7.35101">
        <ele>187.3</ele>
        <time>2019-08-09T14:27:18Z</time>
      </trkpt>
      <trkpt lat="48.17527" lon="7.35098">
        <ele>187.2</ele>
        <time>2019-08-09T14:27:19Z</time>
      </trkpt>
      <trkpt lat="48.17523" lon="7.35096">
        <ele>187.1</ele>
        <time>2019-08-09T14:27:20Z</time>
      </trkpt>
      <trkpt lat="48.17519" lon="7.35093">
        <ele>187</ele>
        <time>2019-08-09T14:27:21Z</time>
      </trkpt>
      <trkpt lat="48.17515" lon="7.3509">
        <ele>186.9</ele>
        <time>2019-08-09T14:27:22Z</time>
      </trkpt>
      <trkpt lat="48.1751" lon="7.35087">
        <ele>186.8</ele>
        <time>2019-08-09T14:27:23Z</time>
      </trkpt>
      <trkpt lat="48.17505" lon="7.35084">
        <ele>186.7</ele>
        <time>2019-08-09T14:27:24Z</time>
      </trkpt>
      <trkpt lat="48.175" lon="7.35081">
        <ele>186.6</ele>
        <time>2019-08-09T14:27:25Z</time>
      </trkpt>
      <trkpt lat="48.17495" lon="7.35078">
        <ele>186.5</ele>
        <time>2019-08-09T14:27:26Z</time>
      </trkpt>
      <trkpt lat="48.1749" lon="7.35074">
        <ele>186.4</ele>
        <time>2019-08-09T14:27:27Z</time>
      </trkpt>
      <trkpt lat="48.17486" lon="7.35071">
        <ele>186.4</ele>
        <time>2019-08-09T14:27:28Z</time>
      </trkpt>
      <trkpt lat="48.17482" lon="7.35068">
        <ele>186.3</ele>
        <time>2019-08-09T14:27:29Z</time>
      </trkpt>
      <trkpt lat="48.17479" lon="7.35065">
        <ele>186.3</ele>
        <time>2019-08-09T14:27:30Z</time>
      </trkpt>
      <trkpt lat="48.17476" lon="7.35062">
        <ele>186.3</ele>
        <time>2019-08-09T14:27:31Z</time>
      </trkpt>
      <trkpt lat="48.17472" lon="7.35058">
        <ele>186.4</ele>
        <time>2019-08-09T14:27:32Z</time>
      </trkpt>
      <trkpt lat="48.17468" lon="7.35055">
        <ele>186.4</ele>
        <time>2019-08-09T14:27:33Z</time>
      </trkpt>
      <trkpt lat="48.17463" lon="7.35051">
        <ele>186.5</ele>
        <time>2019-08-09T14:27:34Z</time>
      </trkpt>
      <trkpt lat="48.1746" lon="7.35047">
        <ele>186.5</ele>
        <time>2019-08-09T14:27:35Z</time>
      </trkpt>
      <trkpt lat="48.17456" lon="7.35044">
        <ele>186.6</ele>
        <time>2019-08-09T14:27:36Z</time>
      </trkpt>
      <trkpt lat="48.17453" lon="7.3504">
        <ele>186.6</ele>
        <time>2019-08-09T14:27:37Z</time>
      </trkpt>
      <trkpt lat="48.17449" lon="7.35036">
        <ele>186.6</ele>
        <time>2019-08-09T14:27:38Z</time>
      </trkpt>
      <trkpt lat="48.17445" lon="7.35031">
        <ele>186.7</ele>
        <time>2019-08-09T14:27:39Z</time>
      </trkpt>
      <trkpt lat="48.17441" lon="7.35027">
        <ele>186.7</ele>
        <time>2019-08-09T14:27:40Z</time>
      </trkpt>
      <trkpt lat="48.17436" lon="7.35025">
        <ele>186.7</ele>
        <time>2019-08-09T14:27:41Z</time>
      </trkpt>
      <trkpt lat="48.17432" lon="7.35022">
        <ele>186.7</ele>
        <time>2019-08-09T14:27:42Z</time>
      </trkpt>
      <trkpt lat="48.17429" lon="7.35019">
        <ele>186.7</ele>
        <time>2019-08-09T14:27:43Z</time>
      </trkpt>
      <trkpt lat="48.17426" lon="7.35016">
        <ele>186.6</ele>
        <time>2019-08-09T14:27:44Z</time>
      </trkpt>
      <trkpt lat="48.17422" lon="7.35013">
        <ele>186.6</ele>
        <time>2019-08-09T14:27:45Z</time>
      </trkpt>
      <trkpt lat="48.17418" lon="7.35009">
        <ele>186.6</ele>
        <time>2019-08-09T14:27:46Z</time>
      </trkpt>
      <trkpt lat="48.17414" lon="7.35005">
        <ele>186.5</ele>
        <time>2019-08-09T14:27:47Z</time>
      </trkpt>
      <trkpt lat="48.17409" lon="7.35001">
        <ele>186.4</ele>
        <time>2019-08-09T14:27:48Z</time>
      </trkpt>
      <trkpt lat="48.17405" lon="7.34997">
        <ele>186.3</ele>
        <time>2019-08-09T14:27:49Z</time>
      </trkpt>
      <trkpt lat="48.17402" lon="7.34994">
        <ele>186.2</ele>
        <time>2019-08-09T14:27:50Z</time>
      </trkpt>
      <trkpt lat="48.17399" lon="7.3499">
        <ele>186.1</ele>
        <time>2019-08-09T14:27:51Z</time>
      </trkpt>
      <trkpt lat="48.17396" lon="7.34987">
        <ele>186</ele>
        <time>2019-08-09T14:27:52Z</time>
      </trkpt>
      <trkpt lat="48.17393" lon="7.34984">
        <ele>185.9</ele>
        <time>2019-08-09T14:27:53Z</time>
      </trkpt>
      <trkpt lat="48.1739" lon="7.34981">
        <ele>185.9</ele>
        <time>2019-08-09T14:27:54Z</time>
      </trkpt>
      <trkpt lat="48.17386" lon="7.34977">
        <ele>185.8</ele>
        <time>2019-08-09T14:27:55Z</time>
      </trkpt>
      <trkpt lat="48.17383" lon="7.34974">
        <ele>185.8</ele>
        <time>2019-08-09T14:27:56Z</time>
      </trkpt>
      <trkpt lat="48.1738" lon="7.34971">
        <ele>185.7</ele>
        <time>2019-08-09T14:27:57Z</time>
      </trkpt>
      <trkpt lat="48.17377" lon="7.34968">
        <ele>185.7</ele>
        <time>2019-08-09T14:27:58Z</time>
      </trkpt>
      <trkpt lat="48.17373" lon="7.34964">
        <ele>185.7</ele>
        <time>2019-08-09T14:27:59Z</time>
      </trkpt>
      <trkpt lat="48.17369" lon="7.34961">
        <ele>185.7</ele>
        <time>2019-08-09T14:28:00Z</time>
      </trkpt>
      <trkpt lat="48.17364" lon="7.34957">
        <ele>185.7</ele>
        <time>2019-08-09T14:28:01Z</time>
      </trkpt>
      <trkpt lat="48.17361" lon="7.34953">
        <ele>185.7</ele>
        <time>2019-08-09T14:28:02Z</time>
      </trkpt>
      <trkpt lat="48.17357" lon="7.34949">
        <ele>185.7</ele>
        <time>2019-08-09T14:28:03Z</time>
      </trkpt>
      <trkpt lat="48.17353" lon="7.34945">
        <ele>185.7</ele>
        <time>2019-08-09T14:28:04Z</time>
      </trkpt>
      <trkpt lat="48.17349" lon="7.34941">
        <ele>185.7</ele>
        <time>2019-08-09T14:28:05Z</time>
      </trkpt>
      <trkpt lat="48.17344" lon="7.34937">
        <ele>185.7</ele>
        <time>2019-08-09T14:28:06Z</time>
      </trkpt>
      <trkpt lat="48.1734" lon="7.34933">
        <ele>185.7</ele>
        <time>2019-08-09T14:28:07Z</time>
      </trkpt>
      <trkpt lat="48.17336" lon="7.3493">
        <ele>185.7</ele>
        <time>2019-08-09T14:28:08Z</time>
      </trkpt>
      <trkpt lat="48.17332" lon="7.34926">
        <ele>185.7</ele>
        <time>2019-08-09T14:28:09Z</time>
      </trkpt>
      <trkpt lat="48.17328" lon="7.34923">
        <ele>185.6</ele>
        <time>2019-08-09T14:28:10Z</time>
      </trkpt>
      <trkpt lat="48.17323" lon="7.3492">
        <ele>185.5</ele>
        <time>2019-08-09T14:28:11Z</time>
      </trkpt>
      <trkpt lat="48.17319" lon="7.34917">
        <ele>185.3</ele>
        <time>2019-08-09T14:28:12Z</time>
      </trkpt>
      <trkpt lat="48.17314" lon="7.34913">
        <ele>185.1</ele>
        <time>2019-08-09T14:28:13Z</time>
      </trkpt>
      <trkpt lat="48.17308" lon="7.3491">
        <ele>184.9</ele>
        <time>2019-08-09T14:28:14Z</time>
      </trkpt>
      <trkpt lat="48.17302" lon="7.34906">
        <ele>184.7</ele>
        <time>2019-08-09T14:28:15Z</time>
      </trkpt>
      <trkpt lat="48.17298" lon="7.34903">
        <ele>184.6</ele>
        <time>2019-08-09T14:28:16Z</time>
      </trkpt>
      <trkpt lat="48.17294" lon="7.349">
        <ele>184.4</ele>
        <time>2019-08-09T14:28:17Z</time>
      </trkpt>
      <trkpt lat="48.17289" lon="7.34898">
        <ele>184.3</ele>
        <time>2019-08-09T14:28:18Z</time>
      </trkpt>
      <trkpt lat="48.17284" lon="7.34896">
        <ele>184.2</ele>
        <time>2019-08-09T14:28:19Z</time>
      </trkpt>
      <trkpt lat="48.1728" lon="7.34893">
        <ele>184.1</ele>
        <time>2019-08-09T14:28:20Z</time>
      </trkpt>
      <trkpt lat="48.17276" lon="7.34889">
        <ele>184</ele>
        <time>2019-08-09T14:28:21Z</time>
      </trkpt>
      <trkpt lat="48.17272" lon="7.34887">
        <ele>184</ele>
        <time>2019-08-09T14:28:22Z</time>
      </trkpt>
      <trkpt lat="48.17268" lon="7.34884">
        <ele>183.9</ele>
        <time>2019-08-09T14:28:23Z</time>
      </trkpt>
      <trkpt lat="48.17264" lon="7.34882">
        <ele>183.9</ele>
        <time>2019-08-09T14:28:24Z</time>
      </trkpt>
      <trkpt lat="48.17261" lon="7.34879">
        <ele>183.9</ele>
        <time>2019-08-09T14:28:25Z</time>
      </trkpt>
      <trkpt lat="48.17257" lon="7.34876">
        <ele>183.9</ele>
        <time>2019-08-09T14:28:26Z</time>
      </trkpt>
      <trkpt lat="48.17252" lon="7.34873">
        <ele>183.9</ele>
        <time>2019-08-09T14:28:27Z</time>
      </trkpt>
      <trkpt lat="48.17248" lon="7.34869">
        <ele>183.9</ele>
        <time>2019-08-09T14:28:28Z</time>
      </trkpt>
      <trkpt lat="48.17244" lon="7.34867">
        <ele>183.9</ele>
        <time>2019-08-09T14:28:29Z</time>
      </trkpt>
      <trkpt lat="48.17239" lon="7.34863">
        <ele>183.8</ele>
        <time>2019-08-09T14:28:30Z</time>
      </trkpt>
      <trkpt lat="48.17235" lon="7.3486">
        <ele>183.8</ele>
        <time>2019-08-09T14:28:31Z</time>
      </trkpt>
      <trkpt lat="48.1723" lon="7.34857">
        <ele>183.8</ele>
        <time>2019-08-09T14:28:32Z</time>
      </trkpt>
      <trkpt lat="48.17225" lon="7.34854">
        <ele>183.8</ele>
        <time>2019-08-09T14:28:33Z</time>
      </trkpt>
      <trkpt lat="48.1722" lon="7.34851">
        <ele>183.8</ele>
        <time>2019-08-09T14:28:34Z</time>
      </trkpt>
      <trkpt lat="48.17216" lon="7.34849">
        <ele>183.7</ele>
        <time>2019-08-09T14:28:35Z</time>
      </trkpt>
      <trkpt lat="48.17212" lon="7.34846">
        <ele>183.7</ele>
        <time>2019-08-09T14:28:36Z</time>
      </trkpt>
      <trkpt lat="48.17207" lon="7.34843">
        <ele>183.7</ele>
        <time>2019-08-09T14:28:37Z</time>
      </trkpt>
      <trkpt lat="48.17203" lon="7.34839">
        <ele>183.7</ele>
        <time>2019-08-09T14:28:38Z</time>
      </trkpt>
      <trkpt lat="48.17198" lon="7.34836">
        <ele>183.7</ele>
        <time>2019-08-09T14:28:39Z</time>
      </trkpt>
      <trkpt lat="48.17193" lon="7.34833">
        <ele>183.6</ele>
        <time>2019-08-09T14:28:40Z</time>
      </trkpt>
      <trkpt lat="48.17188" lon="7.34831">
        <ele>183.6</ele>
        <time>2019-08-09T14:28:41Z</time>
      </trkpt>
      <trkpt lat="48.17183" lon="7.34829">
        <ele>183.6</ele>
        <time>2019-08-09T14:28:42Z</time>
      </trkpt>
      <trkpt lat="48.17178" lon="7.34825">
        <ele>183.6</ele>
        <time>2019-08-09T14:28:43Z</time>
      </trkpt>
      <trkpt lat="48.17174" lon="7.34822">
        <ele>183.6</ele>
        <time>2019-08-09T14:28:44Z</time>
      </trkpt>
      <trkpt lat="48.17169" lon="7.34819">
        <ele>183.5</ele>
        <time>2019-08-09T14:28:45Z</time>
      </trkpt>
      <trkpt lat="48.17164" lon="7.34816">
        <ele>183.5</ele>
        <time>2019-08-09T14:28:46Z</time>
      </trkpt>
      <trkpt lat="48.1716" lon="7.34813">
        <ele>183.5</ele>
        <time>2019-08-09T14:28:47Z</time>
      </trkpt>
      <trkpt lat="48.17155" lon="7.34809">
        <ele>183.5</ele>
        <time>2019-08-09T14:28:48Z</time>
      </trkpt>
      <trkpt lat="48.17151" lon="7.34806">
        <ele>183.5</ele>
        <time>2019-08-09T14:28:49Z</time>
      </trkpt>
      <trkpt lat="48.17147" lon="7.34803">
        <ele>183.5</ele>
        <time>2019-08-09T14:28:50Z</time>
      </trkpt>
      <trkpt lat="48.17142" lon="7.34799">
        <ele>183.5</ele>
        <time>2019-08-09T14:28:51Z</time>
      </trkpt>
      <trkpt lat="48.17138" lon="7.34795">
        <ele>183.5</ele>
        <time>2019-08-09T14:28:52Z</time>
      </trkpt>
      <trkpt lat="48.17133" lon="7.34792">
        <ele>183.5</ele>
        <time>2019-08-09T14:28:53Z</time>
      </trkpt>
      <trkpt lat="48.17129" lon="7.34787">
        <ele>183.5</ele>
        <time>2019-08-09T14:28:54Z</time>
      </trkpt>
      <trkpt lat="48.17125" lon="7.34782">
        <ele>183.5</ele>
        <time>2019-08-09T14:28:55Z</time>
      </trkpt>
      <trkpt lat="48.17122" lon="7.34778">
        <ele>183.5</ele>
        <time>2019-08-09T14:28:56Z</time>
      </trkpt>
      <trkpt lat="48.17118" lon="7.34773">
        <ele>183.5</ele>
        <time>2019-08-09T14:28:57Z</time>
      </trkpt>
      <trkpt lat="48.17113" lon="7.34768">
        <ele>183.5</ele>
        <time>2019-08-09T14:28:58Z</time>
      </trkpt>
      <trkpt lat="48.17109" lon="7.34763">
        <ele>183.5</ele>
        <time>2019-08-09T14:28:59Z</time>
      </trkpt>
      <trkpt lat="48.17106" lon="7.34757">
        <ele>183.5</ele>
        <time>2019-08-09T14:29:00Z</time>
      </trkpt>
      <trkpt lat="48.17102" lon="7.34752">
        <ele>183.4</ele>
        <time>2019-08-09T14:29:01Z</time>
      </trkpt>
      <trkpt lat="48.17098" lon="7.34747">
        <ele>183.4</ele>
        <time>2019-08-09T14:29:02Z</time>
      </trkpt>
      <trkpt lat="48.17093" lon="7.34742">
        <ele>183.4</ele>
        <time>2019-08-09T14:29:03Z</time>
      </trkpt>
      <trkpt lat="48.17089" lon="7.34738">
        <ele>183.4</ele>
        <time>2019-08-09T14:29:04Z</time>
      </trkpt>
      <trkpt lat="48.17085" lon="7.34734">
        <ele>183.4</ele>
        <time>2019-08-09T14:29:05Z</time>
      </trkpt>
      <trkpt lat="48.1708" lon="7.34729">
        <ele>183.4</ele>
        <time>2019-08-09T14:29:06Z</time>
      </trkpt>
      <trkpt lat="48.17075" lon="7.34727">
        <ele>183.4</ele>
        <time>2019-08-09T14:29:07Z</time>
      </trkpt>
      <trkpt lat="48.17071" lon="7.34723">
        <ele>183.3</ele>
        <time>2019-08-09T14:29:08Z</time>
      </trkpt>
      <trkpt lat="48.17066" lon="7.34719">
        <ele>183.3</ele>
        <time>2019-08-09T14:29:09Z</time>
      </trkpt>
      <trkpt lat="48.17062" lon="7.34713">
        <ele>183.3</ele>
        <time>2019-08-09T14:29:10Z</time>
      </trkpt>
      <trkpt lat="48.17057" lon="7.34709">
        <ele>183.3</ele>
        <time>2019-08-09T14:29:11Z</time>
      </trkpt>
      <trkpt lat="48.17053" lon="7.34704">
        <ele>183.3</ele>
        <time>2019-08-09T14:29:12Z</time>
      </trkpt>
      <trkpt lat="48.17049" lon="7.34699">
        <ele>183.3</ele>
        <time>2019-08-09T14:29:13Z</time>
      </trkpt>
      <trkpt lat="48.17046" lon="7.34695">
        <ele>183.3</ele>
        <time>2019-08-09T14:29:14Z</time>
      </trkpt>
      <trkpt lat="48.17042" lon="7.34691">
        <ele>183.3</ele>
        <time>2019-08-09T14:29:15Z</time>
      </trkpt>
      <trkpt lat="48.17038" lon="7.34688">
        <ele>183.2</ele>
        <time>2019-08-09T14:29:16Z</time>
      </trkpt>
      <trkpt lat="48.17035" lon="7.34684">
        <ele>183.2</ele>
        <time>2019-08-09T14:29:17Z</time>
      </trkpt>
      <trkpt lat="48.17031" lon="7.3468">
        <ele>183.2</ele>
        <time>2019-08-09T14:29:18Z</time>
      </trkpt>
      <trkpt lat="48.17027" lon="7.34678">
        <ele>183.2</ele>
        <time>2019-08-09T14:29:19Z</time>
      </trkpt>
      <trkpt lat="48.17023" lon="7.34674">
        <ele>183.2</ele>
        <time>2019-08-09T14:29:20Z</time>
      </trkpt>
      <trkpt lat="48.17019" lon="7.34669">
        <ele>183.2</ele>
        <time>2019-08-09T14:29:21Z</time>
      </trkpt>
      <trkpt lat="48.17015" lon="7.34666">
        <ele>183.1</ele>
        <time>2019-08-09T14:29:22Z</time>
      </trkpt>
      <trkpt lat="48.17011" lon="7.34662">
        <ele>183.1</ele>
        <time>2019-08-09T14:29:23Z</time>
      </trkpt>
      <trkpt lat="48.17007" lon="7.34657">
        <ele>183.1</ele>
        <time>2019-08-09T14:29:24Z</time>
      </trkpt>
      <trkpt lat="48.17004" lon="7.34654">
        <ele>183.1</ele>
        <time>2019-08-09T14:29:25Z</time>
      </trkpt>
      <trkpt lat="48.17" lon="7.34651">
        <ele>183.1</ele>
        <time>2019-08-09T14:29:26Z</time>
      </trkpt>
      <trkpt lat="48.16995" lon="7.34649">
        <ele>183</ele>
        <time>2019-08-09T14:29:27Z</time>
      </trkpt>
      <trkpt lat="48.16991" lon="7.34646">
        <ele>183</ele>
        <time>2019-08-09T14:29:28Z</time>
      </trkpt>
      <trkpt lat="48.16987" lon="7.34643">
        <ele>183</ele>
        <time>2019-08-09T14:29:29Z</time>
      </trkpt>
      <trkpt lat="48.16983" lon="7.34639">
        <ele>183</ele>
        <time>2019-08-09T14:29:30Z</time>
      </trkpt>
      <trkpt lat="48.1698" lon="7.34635">
        <ele>182.9</ele>
        <time>2019-08-09T14:29:31Z</time>
      </trkpt>
      <trkpt lat="48.16977" lon="7.34632">
        <ele>182.9</ele>
        <time>2019-08-09T14:29:32Z</time>
      </trkpt>
      <trkpt lat="48.16974" lon="7.34629">
        <ele>182.9</ele>
        <time>2019-08-09T14:29:33Z</time>
      </trkpt>
      <trkpt lat="48.16971" lon="7.34626">
        <ele>182.9</ele>
        <time>2019-08-09T14:29:34Z</time>
      </trkpt>
      <trkpt lat="48.16969" lon="7.34623">
        <ele>182.9</ele>
        <time>2019-08-09T14:29:35Z</time>
      </trkpt>
      <trkpt lat="48.16966" lon="7.34622">
        <ele>182.9</ele>
        <time>2019-08-09T14:29:37Z</time>
      </trkpt>
      <trkpt lat="48.16963" lon="7.34621">
        <ele>182.9</ele>
        <time>2019-08-09T14:30:02Z</time>
      </trkpt>
      <trkpt lat="48.1696" lon="7.34619">
        <ele>182.9</ele>
        <time>2019-08-09T14:30:03Z</time>
      </trkpt>
      <trkpt lat="48.16956" lon="7.34616">
        <ele>182.9</ele>
        <time>2019-08-09T14:30:05Z</time>
      </trkpt>
      <trkpt lat="48.16951" lon="7.34611">
        <ele>182.9</ele>
        <time>2019-08-09T14:30:07Z</time>
      </trkpt>
      <trkpt lat="48.16949" lon="7.34608">
        <ele>182.9</ele>
        <time>2019-08-09T14:30:08Z</time>
      </trkpt>
      <trkpt lat="48.16946" lon="7.34604">
        <ele>182.9</ele>
        <time>2019-08-09T14:30:09Z</time>
      </trkpt>
      <trkpt lat="48.16943" lon="7.346">
        <ele>182.9</ele>
        <time>2019-08-09T14:30:10Z</time>
      </trkpt>
      <trkpt lat="48.16941" lon="7.34596">
        <ele>182.9</ele>
        <time>2019-08-09T14:30:11Z</time>
      </trkpt>
      <trkpt lat="48.16938" lon="7.34592">
        <ele>182.9</ele>
        <time>2019-08-09T14:30:12Z</time>
      </trkpt>
      <trkpt lat="48.16935" lon="7.3459">
        <ele>182.8</ele>
        <time>2019-08-09T14:30:13Z</time>
      </trkpt>
      <trkpt lat="48.16932" lon="7.34587">
        <ele>182.8</ele>
        <time>2019-08-09T14:30:14Z</time>
      </trkpt>
      <trkpt lat="48.16929" lon="7.34584">
        <ele>182.8</ele>
        <time>2019-08-09T14:30:15Z</time>
      </trkpt>
      <trkpt lat="48.16925" lon="7.34581">
        <ele>182.8</ele>
        <time>2019-08-09T14:30:16Z</time>
      </trkpt>
      <trkpt lat="48.16921" lon="7.34577">
        <ele>182.7</ele>
        <time>2019-08-09T14:30:17Z</time>
      </trkpt>
      <trkpt lat="48.16917" lon="7.34574">
        <ele>182.7</ele>
        <time>2019-08-09T14:30:18Z</time>
      </trkpt>
      <trkpt lat="48.16913" lon="7.3457">
        <ele>182.7</ele>
        <time>2019-08-09T14:30:19Z</time>
      </trkpt>
      <trkpt lat="48.1691" lon="7.34566">
        <ele>182.6</ele>
        <time>2019-08-09T14:30:20Z</time>
      </trkpt>
      <trkpt lat="48.16905" lon="7.34561">
        <ele>182.6</ele>
        <time>2019-08-09T14:30:21Z</time>
      </trkpt>
      <trkpt lat="48.16902" lon="7.34558">
        <ele>182.6</ele>
        <time>2019-08-09T14:30:22Z</time>
      </trkpt>
      <trkpt lat="48.16898" lon="7.34555">
        <ele>182.6</ele>
        <time>2019-08-09T14:30:23Z</time>
      </trkpt>
      <trkpt lat="48.16895" lon="7.34551">
        <ele>182.5</ele>
        <time>2019-08-09T14:30:24Z</time>
      </trkpt>
      <trkpt lat="48.16891" lon="7.34548">
        <ele>182.5</ele>
        <time>2019-08-09T14:30:25Z</time>
      </trkpt>
      <trkpt lat="48.16886" lon="7.34544">
        <ele>182.5</ele>
        <time>2019-08-09T14:30:26Z</time>
      </trkpt>
      <trkpt lat="48.16883" lon="7.34541">
        <ele>182.5</ele>
        <time>2019-08-09T14:30:27Z</time>
      </trkpt>
      <trkpt lat="48.16879" lon="7.34537">
        <ele>182.5</ele>
        <time>2019-08-09T14:30:28Z</time>
      </trkpt>
      <trkpt lat="48.16875" lon="7.34533">
        <ele>182.5</ele>
        <time>2019-08-09T14:30:29Z</time>
      </trkpt>
      <trkpt lat="48.16872" lon="7.3453">
        <ele>182.5</ele>
        <time>2019-08-09T14:30:30Z</time>
      </trkpt>
      <trkpt lat="48.16867" lon="7.34527">
        <ele>182.5</ele>
        <time>2019-08-09T14:30:31Z</time>
      </trkpt>
      <trkpt lat="48.16864" lon="7.34524">
        <ele>182.5</ele>
        <time>2019-08-09T14:30:32Z</time>
      </trkpt>
      <trkpt lat="48.16861" lon="7.34521">
        <ele>182.5</ele>
        <time>2019-08-09T14:30:33Z</time>
      </trkpt>
      <trkpt lat="48.16858" lon="7.34518">
        <ele>182.6</ele>
        <time>2019-08-09T14:30:34Z</time>
      </trkpt>
      <trkpt lat="48.16854" lon="7.34515">
        <ele>182.6</ele>
        <time>2019-08-09T14:30:35Z</time>
      </trkpt>
      <trkpt lat="48.16851" lon="7.34511">
        <ele>182.6</ele>
        <time>2019-08-09T14:30:36Z</time>
      </trkpt>
      <trkpt lat="48.16848" lon="7.34509">
        <ele>182.7</ele>
        <time>2019-08-09T14:30:37Z</time>
      </trkpt>
      <trkpt lat="48.16845" lon="7.34508">
        <ele>182.7</ele>
        <time>2019-08-09T14:30:38Z</time>
      </trkpt>
      <trkpt lat="48.16841" lon="7.34505">
        <ele>182.8</ele>
        <time>2019-08-09T14:30:39Z</time>
      </trkpt>
      <trkpt lat="48.16838" lon="7.34503">
        <ele>182.8</ele>
        <time>2019-08-09T14:30:40Z</time>
      </trkpt>
      <trkpt lat="48.16835" lon="7.34501">
        <ele>182.9</ele>
        <time>2019-08-09T14:30:41Z</time>
      </trkpt>
      <trkpt lat="48.16832" lon="7.34498">
        <ele>182.9</ele>
        <time>2019-08-09T14:30:42Z</time>
      </trkpt>
      <trkpt lat="48.1683" lon="7.34496">
        <ele>183</ele>
        <time>2019-08-09T14:30:43Z</time>
      </trkpt>
      <trkpt lat="48.16827" lon="7.34494">
        <ele>183</ele>
        <time>2019-08-09T14:30:44Z</time>
      </trkpt>
      <trkpt lat="48.16824" lon="7.34492">
        <ele>183.1</ele>
        <time>2019-08-09T14:30:45Z</time>
      </trkpt>
      <trkpt lat="48.16821" lon="7.3449">
        <ele>183.1</ele>
        <time>2019-08-09T14:30:46Z</time>
      </trkpt>
      <trkpt lat="48.16817" lon="7.34489">
        <ele>183.2</ele>
        <time>2019-08-09T14:30:47Z</time>
      </trkpt>
      <trkpt lat="48.16813" lon="7.34487">
        <ele>183.2</ele>
        <time>2019-08-09T14:30:48Z</time>
      </trkpt>
      <trkpt lat="48.16809" lon="7.34483">
        <ele>183.3</ele>
        <time>2019-08-09T14:30:49Z</time>
      </trkpt>
      <trkpt lat="48.16806" lon="7.34481">
        <ele>183.3</ele>
        <time>2019-08-09T14:30:50Z</time>
      </trkpt>
      <trkpt lat="48.16802" lon="7.34478">
        <ele>183.4</ele>
        <time>2019-08-09T14:30:51Z</time>
      </trkpt>
      <trkpt lat="48.16799" lon="7.34476">
        <ele>183.4</ele>
        <time>2019-08-09T14:30:52Z</time>
      </trkpt>
      <trkpt lat="48.16795" lon="7.34474">
        <ele>183.4</ele>
        <time>2019-08-09T14:30:53Z</time>
      </trkpt>
      <trkpt lat="48.16792" lon="7.34472">
        <ele>183.4</ele>
        <time>2019-08-09T14:30:54Z</time>
      </trkpt>
      <trkpt lat="48.16788" lon="7.3447">
        <ele>183.4</ele>
        <time>2019-08-09T14:30:55Z</time>
      </trkpt>
      <trkpt lat="48.16784" lon="7.34468">
        <ele>183.4</ele>
        <time>2019-08-09T14:30:56Z</time>
      </trkpt>
      <trkpt lat="48.1678" lon="7.34466">
        <ele>183.4</ele>
        <time>2019-08-09T14:30:57Z</time>
      </trkpt>
      <trkpt lat="48.16777" lon="7.34463">
        <ele>183.4</ele>
        <time>2019-08-09T14:30:58Z</time>
      </trkpt>
      <trkpt lat="48.16773" lon="7.34461">
        <ele>183.3</ele>
        <time>2019-08-09T14:30:59Z</time>
      </trkpt>
      <trkpt lat="48.16769" lon="7.34459">
        <ele>183.3</ele>
        <time>2019-08-09T14:31:00Z</time>
      </trkpt>
      <trkpt lat="48.16766" lon="7.34457">
        <ele>183.2</ele>
        <time>2019-08-09T14:31:01Z</time>
      </trkpt>
      <trkpt lat="48.16761" lon="7.34455">
        <ele>183.2</ele>
        <time>2019-08-09T14:31:02Z</time>
      </trkpt>
      <trkpt lat="48.16758" lon="7.34451">
        <ele>183.1</ele>
        <time>2019-08-09T14:31:03Z</time>
      </trkpt>
      <trkpt lat="48.16753" lon="7.34449">
        <ele>183</ele>
        <time>2019-08-09T14:31:04Z</time>
      </trkpt>
      <trkpt lat="48.1675" lon="7.34447">
        <ele>182.9</ele>
        <time>2019-08-09T14:31:05Z</time>
      </trkpt>
      <trkpt lat="48.16746" lon="7.34445">
        <ele>182.9</ele>
        <time>2019-08-09T14:31:06Z</time>
      </trkpt>
      <trkpt lat="48.16743" lon="7.34443">
        <ele>182.8</ele>
        <time>2019-08-09T14:31:07Z</time>
      </trkpt>
      <trkpt lat="48.16739" lon="7.3444">
        <ele>182.8</ele>
        <time>2019-08-09T14:31:08Z</time>
      </trkpt>
      <trkpt lat="48.16735" lon="7.34439">
        <ele>182.7</ele>
        <time>2019-08-09T14:31:09Z</time>
      </trkpt>
      <trkpt lat="48.16731" lon="7.34436">
        <ele>182.7</ele>
        <time>2019-08-09T14:31:10Z</time>
      </trkpt>
      <trkpt lat="48.16727" lon="7.34434">
        <ele>182.7</ele>
        <time>2019-08-09T14:31:11Z</time>
      </trkpt>
      <trkpt lat="48.16722" lon="7.34431">
        <ele>182.6</ele>
        <time>2019-08-09T14:31:12Z</time>
      </trkpt>
      <trkpt lat="48.16718" lon="7.34429">
        <ele>182.6</ele>
        <time>2019-08-09T14:31:13Z</time>
      </trkpt>
      <trkpt lat="48.16714" lon="7.34426">
        <ele>182.6</ele>
        <time>2019-08-09T14:31:14Z</time>
      </trkpt>
      <trkpt lat="48.1671" lon="7.34423">
        <ele>182.6</ele>
        <time>2019-08-09T14:31:15Z</time>
      </trkpt>
      <trkpt lat="48.16706" lon="7.34421">
        <ele>182.5</ele>
        <time>2019-08-09T14:31:16Z</time>
      </trkpt>
      <trkpt lat="48.16702" lon="7.34419">
        <ele>182.5</ele>
        <time>2019-08-09T14:31:17Z</time>
      </trkpt>
      <trkpt lat="48.16699" lon="7.34416">
        <ele>182.5</ele>
        <time>2019-08-09T14:31:18Z</time>
      </trkpt>
      <trkpt lat="48.16694" lon="7.34414">
        <ele>182.4</ele>
        <time>2019-08-09T14:31:19Z</time>
      </trkpt>
      <trkpt lat="48.1669" lon="7.34412">
        <ele>182.4</ele>
        <time>2019-08-09T14:31:20Z</time>
      </trkpt>
      <trkpt lat="48.16686" lon="7.34411">
        <ele>182.3</ele>
        <time>2019-08-09T14:31:21Z</time>
      </trkpt>
      <trkpt lat="48.16683" lon="7.34408">
        <ele>182.3</ele>
        <time>2019-08-09T14:31:22Z</time>
      </trkpt>
      <trkpt lat="48.16678" lon="7.34405">
        <ele>182.2</ele>
        <time>2019-08-09T14:31:23Z</time>
      </trkpt>
      <trkpt lat="48.16674" lon="7.34403">
        <ele>182.2</ele>
        <time>2019-08-09T14:31:24Z</time>
      </trkpt>
      <trkpt lat="48.1667" lon="7.34401">
        <ele>182.1</ele>
        <time>2019-08-09T14:31:25Z</time>
      </trkpt>
      <trkpt lat="48.16665" lon="7.34399">
        <ele>182</ele>
        <time>2019-08-09T14:31:26Z</time>
      </trkpt>
      <trkpt lat="48.16659" lon="7.34397">
        <ele>182</ele>
        <time>2019-08-09T14:31:27Z</time>
      </trkpt>
      <trkpt lat="48.16654" lon="7.34395">
        <ele>181.9</ele>
        <time>2019-08-09T14:31:28Z</time>
      </trkpt>
      <trkpt lat="48.1665" lon="7.34394">
        <ele>181.9</ele>
        <time>2019-08-09T14:31:29Z</time>
      </trkpt>
      <trkpt lat="48.16645" lon="7.34393">
        <ele>181.8</ele>
        <time>2019-08-09T14:31:30Z</time>
      </trkpt>
      <trkpt lat="48.1664" lon="7.34391">
        <ele>181.8</ele>
        <time>2019-08-09T14:31:31Z</time>
      </trkpt>
      <trkpt lat="48.16635" lon="7.34388">
        <ele>181.8</ele>
        <time>2019-08-09T14:31:32Z</time>
      </trkpt>
      <trkpt lat="48.1663" lon="7.34386">
        <ele>181.8</ele>
        <time>2019-08-09T14:31:33Z</time>
      </trkpt>
      <trkpt lat="48.16625" lon="7.34383">
        <ele>181.8</ele>
        <time>2019-08-09T14:31:34Z</time>
      </trkpt>
      <trkpt lat="48.16621" lon="7.3438">
        <ele>181.8</ele>
        <time>2019-08-09T14:31:35Z</time>
      </trkpt>
      <trkpt lat="48.16617" lon="7.34377">
        <ele>181.8</ele>
        <time>2019-08-09T14:31:36Z</time>
      </trkpt>
      <trkpt lat="48.16612" lon="7.34374">
        <ele>181.8</ele>
        <time>2019-08-09T14:31:37Z</time>
      </trkpt>
      <trkpt lat="48.16607" lon="7.34371">
        <ele>181.8</ele>
        <time>2019-08-09T14:31:38Z</time>
      </trkpt>
      <trkpt lat="48.16602" lon="7.3437">
        <ele>181.8</ele>
        <time>2019-08-09T14:31:39Z</time>
      </trkpt>
      <trkpt lat="48.16599" lon="7.3437">
        <ele>181.8</ele>
        <time>2019-08-09T14:31:40Z</time>
      </trkpt>
      <trkpt lat="48.16595" lon="7.34368">
        <ele>181.9</ele>
        <time>2019-08-09T14:31:41Z</time>
      </trkpt>
      <trkpt lat="48.1659" lon="7.34367">
        <ele>181.9</ele>
        <time>2019-08-09T14:31:42Z</time>
      </trkpt>
      <trkpt lat="48.16586" lon="7.34365">
        <ele>181.9</ele>
        <time>2019-08-09T14:31:43Z</time>
      </trkpt>
      <trkpt lat="48.16583" lon="7.34363">
        <ele>181.9</ele>
        <time>2019-08-09T14:31:44Z</time>
      </trkpt>
      <trkpt lat="48.1658" lon="7.34363">
        <ele>181.9</ele>
        <time>2019-08-09T14:31:45Z</time>
      </trkpt>
      <trkpt lat="48.16577" lon="7.34361">
        <ele>181.9</ele>
        <time>2019-08-09T14:31:46Z</time>
      </trkpt>
      <trkpt lat="48.16573" lon="7.34357">
        <ele>181.9</ele>
        <time>2019-08-09T14:31:47Z</time>
      </trkpt>
      <trkpt lat="48.16571" lon="7.34355">
        <ele>181.9</ele>
        <time>2019-08-09T14:31:48Z</time>
      </trkpt>
      <trkpt lat="48.16568" lon="7.34351">
        <ele>181.9</ele>
        <time>2019-08-09T14:31:49Z</time>
      </trkpt>
      <trkpt lat="48.16564" lon="7.34348">
        <ele>181.9</ele>
        <time>2019-08-09T14:31:50Z</time>
      </trkpt>
      <trkpt lat="48.1656" lon="7.34346">
        <ele>181.9</ele>
        <time>2019-08-09T14:31:51Z</time>
      </trkpt>
      <trkpt lat="48.16556" lon="7.34343">
        <ele>181.8</ele>
        <time>2019-08-09T14:31:52Z</time>
      </trkpt>
      <trkpt lat="48.16552" lon="7.3434">
        <ele>181.8</ele>
        <time>2019-08-09T14:31:53Z</time>
      </trkpt>
      <trkpt lat="48.16548" lon="7.34338">
        <ele>181.8</ele>
        <time>2019-08-09T14:31:54Z</time>
      </trkpt>
      <trkpt lat="48.16543" lon="7.34336">
        <ele>181.8</ele>
        <time>2019-08-09T14:31:55Z</time>
      </trkpt>
      <trkpt lat="48.16539" lon="7.34334">
        <ele>181.8</ele>
        <time>2019-08-09T14:31:56Z</time>
      </trkpt>
      <trkpt lat="48.16536" lon="7.34331">
        <ele>181.8</ele>
        <time>2019-08-09T14:31:57Z</time>
      </trkpt>
      <trkpt lat="48.16531" lon="7.34328">
        <ele>181.7</ele>
        <time>2019-08-09T14:31:58Z</time>
      </trkpt>
      <trkpt lat="48.16527" lon="7.34326">
        <ele>181.7</ele>
        <time>2019-08-09T14:31:59Z</time>
      </trkpt>
      <trkpt lat="48.16522" lon="7.34323">
        <ele>181.7</ele>
        <time>2019-08-09T14:32:00Z</time>
      </trkpt>
      <trkpt lat="48.16518" lon="7.34321">
        <ele>181.8</ele>
        <time>2019-08-09T14:32:01Z</time>
      </trkpt>
      <trkpt lat="48.16514" lon="7.34318">
        <ele>181.8</ele>
        <time>2019-08-09T14:32:02Z</time>
      </trkpt>
      <trkpt lat="48.1651" lon="7.34317">
        <ele>181.8</ele>
        <time>2019-08-09T14:32:03Z</time>
      </trkpt>
      <trkpt lat="48.16505" lon="7.34315">
        <ele>181.8</ele>
        <time>2019-08-09T14:32:04Z</time>
      </trkpt>
      <trkpt lat="48.16502" lon="7.34312">
        <ele>181.8</ele>
        <time>2019-08-09T14:32:05Z</time>
      </trkpt>
      <trkpt lat="48.16498" lon="7.3431">
        <ele>181.8</ele>
        <time>2019-08-09T14:32:06Z</time>
      </trkpt>
      <trkpt lat="48.16495" lon="7.34306">
        <ele>181.8</ele>
        <time>2019-08-09T14:32:07Z</time>
      </trkpt>
      <trkpt lat="48.16491" lon="7.34304">
        <ele>181.8</ele>
        <time>2019-08-09T14:32:08Z</time>
      </trkpt>
      <trkpt lat="48.16487" lon="7.34302">
        <ele>181.9</ele>
        <time>2019-08-09T14:32:09Z</time>
      </trkpt>
      <trkpt lat="48.16483" lon="7.343">
        <ele>181.9</ele>
        <time>2019-08-09T14:32:10Z</time>
      </trkpt>
      <trkpt lat="48.1648" lon="7.34298">
        <ele>181.9</ele>
        <time>2019-08-09T14:32:11Z</time>
      </trkpt>
      <trkpt lat="48.16476" lon="7.34296">
        <ele>181.9</ele>
        <time>2019-08-09T14:32:12Z</time>
      </trkpt>
      <trkpt lat="48.16472" lon="7.34294">
        <ele>181.9</ele>
        <time>2019-08-09T14:32:13Z</time>
      </trkpt>
      <trkpt lat="48.16469" lon="7.34292">
        <ele>181.9</ele>
        <time>2019-08-09T14:32:14Z</time>
      </trkpt>
      <trkpt lat="48.16465" lon="7.34291">
        <ele>181.9</ele>
        <time>2019-08-09T14:32:15Z</time>
      </trkpt>
      <trkpt lat="48.1646" lon="7.34289">
        <ele>181.8</ele>
        <time>2019-08-09T14:32:16Z</time>
      </trkpt>
      <trkpt lat="48.16456" lon="7.34285">
        <ele>181.8</ele>
        <time>2019-08-09T14:32:17Z</time>
      </trkpt>
      <trkpt lat="48.16453" lon="7.34283">
        <ele>181.8</ele>
        <time>2019-08-09T14:32:18Z</time>
      </trkpt>
      <trkpt lat="48.16449" lon="7.3428">
        <ele>181.7</ele>
        <time>2019-08-09T14:32:19Z</time>
      </trkpt>
      <trkpt lat="48.16445" lon="7.34278">
        <ele>181.7</ele>
        <time>2019-08-09T14:32:20Z</time>
      </trkpt>
      <trkpt lat="48.1644" lon="7.34275">
        <ele>181.6</ele>
        <time>2019-08-09T14:32:21Z</time>
      </trkpt>
      <trkpt lat="48.16435" lon="7.34273">
        <ele>181.6</ele>
        <time>2019-08-09T14:32:22Z</time>
      </trkpt>
      <trkpt lat="48.1643" lon="7.34271">
        <ele>181.5</ele>
        <time>2019-08-09T14:32:23Z</time>
      </trkpt>
      <trkpt lat="48.16426" lon="7.34269">
        <ele>181.5</ele>
        <time>2019-08-09T14:32:24Z</time>
      </trkpt>
      <trkpt lat="48.16422" lon="7.34267">
        <ele>181.4</ele>
        <time>2019-08-09T14:32:25Z</time>
      </trkpt>
      <trkpt lat="48.16419" lon="7.34265">
        <ele>181.4</ele>
        <time>2019-08-09T14:32:26Z</time>
      </trkpt>
      <trkpt lat="48.16414" lon="7.34262">
        <ele>181.4</ele>
        <time>2019-08-09T14:32:27Z</time>
      </trkpt>
      <trkpt lat="48.1641" lon="7.3426">
        <ele>181.3</ele>
        <time>2019-08-09T14:32:28Z</time>
      </trkpt>
      <trkpt lat="48.16404" lon="7.34256">
        <ele>181.3</ele>
        <time>2019-08-09T14:32:29Z</time>
      </trkpt>
      <trkpt lat="48.16399" lon="7.34253">
        <ele>181.2</ele>
        <time>2019-08-09T14:32:30Z</time>
      </trkpt>
      <trkpt lat="48.16394" lon="7.3425">
        <ele>181.2</ele>
        <time>2019-08-09T14:32:31Z</time>
      </trkpt>
      <trkpt lat="48.16388" lon="7.34247">
        <ele>181.1</ele>
        <time>2019-08-09T14:32:32Z</time>
      </trkpt>
      <trkpt lat="48.16383" lon="7.34244">
        <ele>181.1</ele>
        <time>2019-08-09T14:32:33Z</time>
      </trkpt>
      <trkpt lat="48.16378" lon="7.34242">
        <ele>181.1</ele>
        <time>2019-08-09T14:32:34Z</time>
      </trkpt>
      <trkpt lat="48.16373" lon="7.3424">
        <ele>181.1</ele>
        <time>2019-08-09T14:32:35Z</time>
      </trkpt>
      <trkpt lat="48.16369" lon="7.34237">
        <ele>181.1</ele>
        <time>2019-08-09T14:32:36Z</time>
      </trkpt>
      <trkpt lat="48.16364" lon="7.34235">
        <ele>181</ele>
        <time>2019-08-09T14:32:37Z</time>
      </trkpt>
      <trkpt lat="48.1636" lon="7.34234">
        <ele>181</ele>
        <time>2019-08-09T14:32:38Z</time>
      </trkpt>
      <trkpt lat="48.16356" lon="7.34232">
        <ele>181</ele>
        <time>2019-08-09T14:32:39Z</time>
      </trkpt>
      <trkpt lat="48.16352" lon="7.34229">
        <ele>181</ele>
        <time>2019-08-09T14:32:40Z</time>
      </trkpt>
      <trkpt lat="48.16347" lon="7.34227">
        <ele>181</ele>
        <time>2019-08-09T14:32:41Z</time>
      </trkpt>
      <trkpt lat="48.16343" lon="7.34225">
        <ele>180.9</ele>
        <time>2019-08-09T14:32:42Z</time>
      </trkpt>
      <trkpt lat="48.16338" lon="7.34223">
        <ele>180.9</ele>
        <time>2019-08-09T14:32:43Z</time>
      </trkpt>
      <trkpt lat="48.16333" lon="7.34221">
        <ele>180.9</ele>
        <time>2019-08-09T14:32:44Z</time>
      </trkpt>
      <trkpt lat="48.1633" lon="7.34219">
        <ele>180.9</ele>
        <time>2019-08-09T14:32:45Z</time>
      </trkpt>
      <trkpt lat="48.16326" lon="7.34218">
        <ele>180.9</ele>
        <time>2019-08-09T14:32:46Z</time>
      </trkpt>
      <trkpt lat="48.16322" lon="7.34216">
        <ele>180.8</ele>
        <time>2019-08-09T14:32:47Z</time>
      </trkpt>
      <trkpt lat="48.16318" lon="7.34214">
        <ele>180.8</ele>
        <time>2019-08-09T14:32:48Z</time>
      </trkpt>
      <trkpt lat="48.16314" lon="7.34212">
        <ele>180.8</ele>
        <time>2019-08-09T14:32:49Z</time>
      </trkpt>
      <trkpt lat="48.16311" lon="7.34209">
        <ele>180.8</ele>
        <time>2019-08-09T14:32:50Z</time>
      </trkpt>
      <trkpt lat="48.16307" lon="7.34207">
        <ele>180.7</ele>
        <time>2019-08-09T14:32:51Z</time>
      </trkpt>
      <trkpt lat="48.16303" lon="7.34204">
        <ele>180.7</ele>
        <time>2019-08-09T14:32:52Z</time>
      </trkpt>
      <trkpt lat="48.16298" lon="7.34202">
        <ele>180.7</ele>
        <time>2019-08-09T14:32:53Z</time>
      </trkpt>
      <trkpt lat="48.16293" lon="7.342">
        <ele>180.6</ele>
        <time>2019-08-09T14:32:54Z</time>
      </trkpt>
      <trkpt lat="48.16288" lon="7.34197">
        <ele>180.6</ele>
        <time>2019-08-09T14:32:55Z</time>
      </trkpt>
      <trkpt lat="48.16283" lon="7.34195">
        <ele>180.6</ele>
        <time>2019-08-09T14:32:56Z</time>
      </trkpt>
      <trkpt lat="48.16278" lon="7.34193">
        <ele>180.6</ele>
        <time>2019-08-09T14:32:57Z</time>
      </trkpt>
      <trkpt lat="48.16274" lon="7.3419">
        <ele>180.5</ele>
        <time>2019-08-09T14:32:58Z</time>
      </trkpt>
      <trkpt lat="48.1627" lon="7.34188">
        <ele>180.5</ele>
        <time>2019-08-09T14:32:59Z</time>
      </trkpt>
      <trkpt lat="48.16265" lon="7.34185">
        <ele>180.5</ele>
        <time>2019-08-09T14:33:00Z</time>
      </trkpt>
      <trkpt lat="48.16258" lon="7.34183">
        <ele>180.5</ele>
        <time>2019-08-09T14:33:01Z</time>
      </trkpt>
      <trkpt lat="48.16254" lon="7.34181">
        <ele>180.5</ele>
        <time>2019-08-09T14:33:02Z</time>
      </trkpt>
      <trkpt lat="48.16249" lon="7.34179">
        <ele>180.5</ele>
        <time>2019-08-09T14:33:03Z</time>
      </trkpt>
      <trkpt lat="48.16245" lon="7.34176">
        <ele>180.5</ele>
        <time>2019-08-09T14:33:04Z</time>
      </trkpt>
      <trkpt lat="48.16241" lon="7.34175">
        <ele>180.5</ele>
        <time>2019-08-09T14:33:05Z</time>
      </trkpt>
      <trkpt lat="48.16237" lon="7.34173">
        <ele>180.4</ele>
        <time>2019-08-09T14:33:06Z</time>
      </trkpt>
      <trkpt lat="48.16232" lon="7.34169">
        <ele>180.4</ele>
        <time>2019-08-09T14:33:07Z</time>
      </trkpt>
      <trkpt lat="48.16227" lon="7.34167">
        <ele>180.4</ele>
        <time>2019-08-09T14:33:08Z</time>
      </trkpt>
      <trkpt lat="48.16223" lon="7.34165">
        <ele>180.4</ele>
        <time>2019-08-09T14:33:09Z</time>
      </trkpt>
      <trkpt lat="48.16218" lon="7.34163">
        <ele>180.4</ele>
        <time>2019-08-09T14:33:10Z</time>
      </trkpt>
      <trkpt lat="48.16214" lon="7.34161">
        <ele>180.4</ele>
        <time>2019-08-09T14:33:11Z</time>
      </trkpt>
      <trkpt lat="48.1621" lon="7.34157">
        <ele>180.4</ele>
        <time>2019-08-09T14:33:12Z</time>
      </trkpt>
      <trkpt lat="48.16205" lon="7.34154">
        <ele>180.4</ele>
        <time>2019-08-09T14:33:13Z</time>
      </trkpt>
      <trkpt lat="48.16201" lon="7.34152">
        <ele>180.3</ele>
        <time>2019-08-09T14:33:14Z</time>
      </trkpt>
      <trkpt lat="48.16196" lon="7.34149">
        <ele>180.3</ele>
        <time>2019-08-09T14:33:15Z</time>
      </trkpt>
      <trkpt lat="48.16192" lon="7.34147">
        <ele>180.3</ele>
        <time>2019-08-09T14:33:16Z</time>
      </trkpt>
      <trkpt lat="48.16186" lon="7.34146">
        <ele>180.3</ele>
        <time>2019-08-09T14:33:17Z</time>
      </trkpt>
      <trkpt lat="48.16182" lon="7.34144">
        <ele>180.3</ele>
        <time>2019-08-09T14:33:18Z</time>
      </trkpt>
      <trkpt lat="48.16178" lon="7.34141">
        <ele>180.3</ele>
        <time>2019-08-09T14:33:19Z</time>
      </trkpt>
      <trkpt lat="48.16174" lon="7.34139">
        <ele>180.3</ele>
        <time>2019-08-09T14:33:20Z</time>
      </trkpt>
      <trkpt lat="48.1617" lon="7.34137">
        <ele>180.2</ele>
        <time>2019-08-09T14:33:21Z</time>
      </trkpt>
      <trkpt lat="48.16166" lon="7.34136">
        <ele>180.2</ele>
        <time>2019-08-09T14:33:22Z</time>
      </trkpt>
      <trkpt lat="48.16163" lon="7.34137">
        <ele>180.2</ele>
        <time>2019-08-09T14:33:23Z</time>
      </trkpt>
      <trkpt lat="48.16159" lon="7.34135">
        <ele>180.2</ele>
        <time>2019-08-09T14:33:24Z</time>
      </trkpt>
      <trkpt lat="48.16155" lon="7.34135">
        <ele>180.2</ele>
        <time>2019-08-09T14:33:25Z</time>
      </trkpt>
      <trkpt lat="48.16151" lon="7.34135">
        <ele>180.2</ele>
        <time>2019-08-09T14:33:26Z</time>
      </trkpt>
      <trkpt lat="48.16148" lon="7.34135">
        <ele>180.2</ele>
        <time>2019-08-09T14:33:27Z</time>
      </trkpt>
      <trkpt lat="48.16144" lon="7.34138">
        <ele>180.2</ele>
        <time>2019-08-09T14:33:28Z</time>
      </trkpt>
      <trkpt lat="48.1614" lon="7.3414">
        <ele>180.2</ele>
        <time>2019-08-09T14:33:29Z</time>
      </trkpt>
      <trkpt lat="48.16136" lon="7.34141">
        <ele>180.2</ele>
        <time>2019-08-09T14:33:30Z</time>
      </trkpt>
      <trkpt lat="48.16132" lon="7.34143">
        <ele>180.2</ele>
        <time>2019-08-09T14:33:31Z</time>
      </trkpt>
      <trkpt lat="48.16129" lon="7.34144">
        <ele>180.2</ele>
        <time>2019-08-09T14:33:32Z</time>
      </trkpt>
      <trkpt lat="48.16125" lon="7.34144">
        <ele>180.2</ele>
        <time>2019-08-09T14:33:33Z</time>
      </trkpt>
      <trkpt lat="48.1612" lon="7.34144">
        <ele>180.2</ele>
        <time>2019-08-09T14:33:34Z</time>
      </trkpt>
      <trkpt lat="48.16118" lon="7.34142">
        <ele>180.2</ele>
        <time>2019-08-09T14:33:35Z</time>
      </trkpt>
      <trkpt lat="48.16115" lon="7.3414">
        <ele>180.2</ele>
        <time>2019-08-09T14:33:36Z</time>
      </trkpt>
      <trkpt lat="48.16112" lon="7.34137">
        <ele>180.2</ele>
        <time>2019-08-09T14:33:38Z</time>
      </trkpt>
      <trkpt lat="48.16109" lon="7.34134">
        <ele>180.1</ele>
        <time>2019-08-09T14:33:56Z</time>
      </trkpt>
      <trkpt lat="48.16106" lon="7.34131">
        <ele>180.1</ele>
        <time>2019-08-09T14:33:57Z</time>
      </trkpt>
      <trkpt lat="48.16104" lon="7.34127">
        <ele>180.1</ele>
        <time>2019-08-09T14:33:58Z</time>
      </trkpt>
      <trkpt lat="48.161" lon="7.34131">
        <ele>180</ele>
        <time>2019-08-09T14:34:00Z</time>
      </trkpt>
      <trkpt lat="48.16098" lon="7.34137">
        <ele>180</ele>
        <time>2019-08-09T14:34:02Z</time>
      </trkpt>
      <trkpt lat="48.16097" lon="7.34144">
        <ele>179.9</ele>
        <time>2019-08-09T14:34:04Z</time>
      </trkpt>
      <trkpt lat="48.16097" lon="7.34152">
        <ele>179.9</ele>
        <time>2019-08-09T14:34:06Z</time>
      </trkpt>
      <trkpt lat="48.16098" lon="7.34156">
        <ele>179.8</ele>
        <time>2019-08-09T14:34:08Z</time>
      </trkpt>
      <trkpt lat="48.16097" lon="7.34161">
        <ele>179.8</ele>
        <time>2019-08-09T14:34:10Z</time>
      </trkpt>
      <trkpt lat="48.16096" lon="7.34166">
        <ele>179.8</ele>
        <time>2019-08-09T14:34:12Z</time>
      </trkpt>
      <trkpt lat="48.16095" lon="7.34171">
        <ele>179.8</ele>
        <time>2019-08-09T14:34:14Z</time>
      </trkpt>
      <trkpt lat="48.16094" lon="7.34174">
        <ele>179.7</ele>
        <time>2019-08-09T14:34:29Z</time>
      </trkpt>
      <trkpt lat="48.16092" lon="7.34178">
        <ele>179.7</ele>
        <time>2019-08-09T14:34:39Z</time>
      </trkpt>
      <trkpt lat="48.16089" lon="7.34179">
        <ele>179.8</ele>
        <time>2019-08-09T14:34:45Z</time>
      </trkpt>
      <trkpt lat="48.16088" lon="7.34183">
        <ele>179.8</ele>
        <time>2019-08-09T14:34:57Z</time>
      </trkpt>
      <trkpt lat="48.16087" lon="7.34187">
        <ele>179.8</ele>
        <time>2019-08-09T14:35:03Z</time>
      </trkpt>
      <trkpt lat="48.16085" lon="7.34182">
        <ele>179.8</ele>
        <time>2019-08-09T14:55:14Z</time>
      </trkpt>
      <trkpt lat="48.16087" lon="7.34179">
        <ele>179.8</ele>
        <time>2019-08-09T14:55:18Z</time>
      </trkpt>
      <trkpt lat="48.1609" lon="7.34178">
        <ele>179.8</ele>
        <time>2019-08-09T14:55:20Z</time>
      </trkpt>
      <trkpt lat="48.16093" lon="7.34175">
        <ele>179.8</ele>
        <time>2019-08-09T14:55:23Z</time>
      </trkpt>
      <trkpt lat="48.16094" lon="7.3417">
        <ele>179.8</ele>
        <time>2019-08-09T14:55:27Z</time>
      </trkpt>
      <trkpt lat="48.16095" lon="7.34166">
        <ele>179.8</ele>
        <time>2019-08-09T14:55:29Z</time>
      </trkpt>
      <trkpt lat="48.16095" lon="7.3416">
        <ele>179.9</ele>
        <time>2019-08-09T14:55:31Z</time>
      </trkpt>
      <trkpt lat="48.16095" lon="7.34153">
        <ele>179.9</ele>
        <time>2019-08-09T14:55:33Z</time>
      </trkpt>
      <trkpt lat="48.16096" lon="7.34149">
        <ele>179.9</ele>
        <time>2019-08-09T14:55:35Z</time>
      </trkpt>
      <trkpt lat="48.16095" lon="7.34145">
        <ele>179.9</ele>
        <time>2019-08-09T14:55:37Z</time>
      </trkpt>
      <trkpt lat="48.16091" lon="7.34143">
        <ele>179.9</ele>
        <time>2019-08-09T14:55:39Z</time>
      </trkpt>
      <trkpt lat="48.16087" lon="7.34143">
        <ele>180.1</ele>
        <time>2019-08-09T14:55:41Z</time>
      </trkpt>
      <trkpt lat="48.16084" lon="7.34142">
        <ele>180.1</ele>
        <time>2019-08-09T14:55:42Z</time>
      </trkpt>
      <trkpt lat="48.16081" lon="7.34141">
        <ele>180.1</ele>
        <time>2019-08-09T14:55:43Z</time>
      </trkpt>
      <trkpt lat="48.16078" lon="7.3414">
        <ele>180.1</ele>
        <time>2019-08-09T14:55:44Z</time>
      </trkpt>
      <trkpt lat="48.16076" lon="7.34139">
        <ele>180.1</ele>
        <time>2019-08-09T14:55:45Z</time>
      </trkpt>
      <trkpt lat="48.16073" lon="7.34138">
        <ele>180.1</ele>
        <time>2019-08-09T14:55:46Z</time>
      </trkpt>
      <trkpt lat="48.1607" lon="7.34137">
        <ele>180.1</ele>
        <time>2019-08-09T14:55:47Z</time>
      </trkpt>
      <trkpt lat="48.16067" lon="7.34136">
        <ele>180.1</ele>
        <time>2019-08-09T14:55:48Z</time>
      </trkpt>
      <trkpt lat="48.16063" lon="7.34135">
        <ele>180.1</ele>
        <time>2019-08-09T14:55:49Z</time>
      </trkpt>
      <trkpt lat="48.1606" lon="7.34135">
        <ele>180.1</ele>
        <time>2019-08-09T14:55:50Z</time>
      </trkpt>
      <trkpt lat="48.16058" lon="7.34134">
        <ele>180.1</ele>
        <time>2019-08-09T14:55:51Z</time>
      </trkpt>
      <trkpt lat="48.16055" lon="7.34132">
        <ele>180.1</ele>
        <time>2019-08-09T14:55:52Z</time>
      </trkpt>
      <trkpt lat="48.16052" lon="7.34131">
        <ele>180.1</ele>
        <time>2019-08-09T14:55:53Z</time>
      </trkpt>
      <trkpt lat="48.16049" lon="7.34129">
        <ele>180.1</ele>
        <time>2019-08-09T14:55:54Z</time>
      </trkpt>
      <trkpt lat="48.16046" lon="7.34128">
        <ele>180.1</ele>
        <time>2019-08-09T14:55:55Z</time>
      </trkpt>
      <trkpt lat="48.16043" lon="7.34127">
        <ele>180.1</ele>
        <time>2019-08-09T14:55:56Z</time>
      </trkpt>
      <trkpt lat="48.1604" lon="7.34125">
        <ele>180.1</ele>
        <time>2019-08-09T14:55:57Z</time>
      </trkpt>
      <trkpt lat="48.16037" lon="7.34123">
        <ele>180.1</ele>
        <time>2019-08-09T14:55:58Z</time>
      </trkpt>
      <trkpt lat="48.16034" lon="7.34122">
        <ele>180.1</ele>
        <time>2019-08-09T14:55:59Z</time>
      </trkpt>
      <trkpt lat="48.1603" lon="7.3412">
        <ele>180.1</ele>
        <time>2019-08-09T14:56:00Z</time>
      </trkpt>
      <trkpt lat="48.16027" lon="7.34119">
        <ele>180.1</ele>
        <time>2019-08-09T14:56:01Z</time>
      </trkpt>
      <trkpt lat="48.16024" lon="7.34118">
        <ele>180.1</ele>
        <time>2019-08-09T14:56:02Z</time>
      </trkpt>
      <trkpt lat="48.16021" lon="7.34117">
        <ele>180.1</ele>
        <time>2019-08-09T14:56:03Z</time>
      </trkpt>
      <trkpt lat="48.16017" lon="7.34115">
        <ele>180.1</ele>
        <time>2019-08-09T14:56:04Z</time>
      </trkpt>
      <trkpt lat="48.16014" lon="7.34114">
        <ele>180.1</ele>
        <time>2019-08-09T14:56:05Z</time>
      </trkpt>
      <trkpt lat="48.16011" lon="7.34113">
        <ele>180.1</ele>
        <time>2019-08-09T14:56:06Z</time>
      </trkpt>
      <trkpt lat="48.16008" lon="7.34112">
        <ele>180.1</ele>
        <time>2019-08-09T14:56:07Z</time>
      </trkpt>
      <trkpt lat="48.16005" lon="7.34109">
        <ele>180.1</ele>
        <time>2019-08-09T14:56:08Z</time>
      </trkpt>
      <trkpt lat="48.16002" lon="7.34106">
        <ele>180.1</ele>
        <time>2019-08-09T14:56:09Z</time>
      </trkpt>
      <trkpt lat="48.15999" lon="7.34103">
        <ele>180.1</ele>
        <time>2019-08-09T14:56:10Z</time>
      </trkpt>
      <trkpt lat="48.15996" lon="7.34101">
        <ele>180.1</ele>
        <time>2019-08-09T14:56:11Z</time>
      </trkpt>
      <trkpt lat="48.15993" lon="7.341">
        <ele>180.1</ele>
        <time>2019-08-09T14:56:12Z</time>
      </trkpt>
      <trkpt lat="48.1599" lon="7.34099">
        <ele>180.1</ele>
        <time>2019-08-09T14:56:13Z</time>
      </trkpt>
      <trkpt lat="48.15987" lon="7.34097">
        <ele>180.1</ele>
        <time>2019-08-09T14:56:14Z</time>
      </trkpt>
      <trkpt lat="48.15982" lon="7.34095">
        <ele>180.1</ele>
        <time>2019-08-09T14:56:16Z</time>
      </trkpt>
      <trkpt lat="48.15979" lon="7.34093">
        <ele>180.1</ele>
        <time>2019-08-09T14:56:17Z</time>
      </trkpt>
      <trkpt lat="48.15976" lon="7.34092">
        <ele>180.1</ele>
        <time>2019-08-09T14:56:18Z</time>
      </trkpt>
      <trkpt lat="48.15973" lon="7.3409">
        <ele>180.1</ele>
        <time>2019-08-09T14:56:19Z</time>
      </trkpt>
      <trkpt lat="48.1597" lon="7.34088">
        <ele>180.1</ele>
        <time>2019-08-09T14:56:20Z</time>
      </trkpt>
      <trkpt lat="48.15966" lon="7.34086">
        <ele>180.2</ele>
        <time>2019-08-09T14:56:21Z</time>
      </trkpt>
      <trkpt lat="48.15963" lon="7.34084">
        <ele>180.2</ele>
        <time>2019-08-09T14:56:22Z</time>
      </trkpt>
      <trkpt lat="48.1596" lon="7.34083">
        <ele>180.2</ele>
        <time>2019-08-09T14:56:23Z</time>
      </trkpt>
      <trkpt lat="48.15957" lon="7.34082">
        <ele>180.2</ele>
        <time>2019-08-09T14:56:24Z</time>
      </trkpt>
      <trkpt lat="48.15952" lon="7.34082">
        <ele>180.2</ele>
        <time>2019-08-09T14:56:26Z</time>
      </trkpt>
      <trkpt lat="48.15949" lon="7.34081">
        <ele>180.2</ele>
        <time>2019-08-09T14:56:27Z</time>
      </trkpt>
      <trkpt lat="48.15946" lon="7.3408">
        <ele>180.2</ele>
        <time>2019-08-09T14:56:28Z</time>
      </trkpt>
      <trkpt lat="48.15941" lon="7.34078">
        <ele>180.2</ele>
        <time>2019-08-09T14:56:30Z</time>
      </trkpt>
      <trkpt lat="48.15938" lon="7.34076">
        <ele>180.2</ele>
        <time>2019-08-09T14:56:31Z</time>
      </trkpt>
      <trkpt lat="48.15935" lon="7.34076">
        <ele>180.3</ele>
        <time>2019-08-09T14:56:32Z</time>
      </trkpt>
      <trkpt lat="48.15932" lon="7.34075">
        <ele>180.3</ele>
        <time>2019-08-09T14:56:33Z</time>
      </trkpt>
      <trkpt lat="48.1593" lon="7.34074">
        <ele>180.3</ele>
        <time>2019-08-09T14:56:34Z</time>
      </trkpt>
      <trkpt lat="48.15926" lon="7.34073">
        <ele>180.3</ele>
        <time>2019-08-09T14:56:35Z</time>
      </trkpt>
      <trkpt lat="48.15922" lon="7.34072">
        <ele>180.3</ele>
        <time>2019-08-09T14:56:36Z</time>
      </trkpt>
      <trkpt lat="48.15919" lon="7.34071">
        <ele>180.3</ele>
        <time>2019-08-09T14:56:37Z</time>
      </trkpt>
      <trkpt lat="48.15915" lon="7.34069">
        <ele>180.3</ele>
        <time>2019-08-09T14:56:38Z</time>
      </trkpt>
      <trkpt lat="48.15912" lon="7.34069">
        <ele>180.4</ele>
        <time>2019-08-09T14:56:39Z</time>
      </trkpt>
      <trkpt lat="48.15909" lon="7.34067">
        <ele>180.4</ele>
        <time>2019-08-09T14:56:40Z</time>
      </trkpt>
      <trkpt lat="48.15905" lon="7.34065">
        <ele>180.4</ele>
        <time>2019-08-09T14:56:41Z</time>
      </trkpt>
      <trkpt lat="48.15902" lon="7.34063">
        <ele>180.4</ele>
        <time>2019-08-09T14:56:42Z</time>
      </trkpt>
      <trkpt lat="48.15899" lon="7.34061">
        <ele>180.4</ele>
        <time>2019-08-09T14:56:43Z</time>
      </trkpt>
      <trkpt lat="48.15895" lon="7.34059">
        <ele>180.5</ele>
        <time>2019-08-09T14:56:44Z</time>
      </trkpt>
      <trkpt lat="48.15892" lon="7.34058">
        <ele>180.5</ele>
        <time>2019-08-09T14:56:45Z</time>
      </trkpt>
      <trkpt lat="48.15888" lon="7.34056">
        <ele>180.5</ele>
        <time>2019-08-09T14:56:46Z</time>
      </trkpt>
      <trkpt lat="48.15885" lon="7.34054">
        <ele>180.5</ele>
        <time>2019-08-09T14:56:47Z</time>
      </trkpt>
      <trkpt lat="48.15882" lon="7.34052">
        <ele>180.5</ele>
        <time>2019-08-09T14:56:48Z</time>
      </trkpt>
      <trkpt lat="48.1588" lon="7.34051">
        <ele>180.5</ele>
        <time>2019-08-09T14:56:49Z</time>
      </trkpt>
      <trkpt lat="48.15877" lon="7.34048">
        <ele>180.5</ele>
        <time>2019-08-09T14:56:50Z</time>
      </trkpt>
      <trkpt lat="48.15875" lon="7.34045">
        <ele>180.5</ele>
        <time>2019-08-09T14:56:51Z</time>
      </trkpt>
      <trkpt lat="48.15872" lon="7.34043">
        <ele>180.5</ele>
        <time>2019-08-09T14:56:52Z</time>
      </trkpt>
      <trkpt lat="48.15868" lon="7.3404">
        <ele>180.5</ele>
        <time>2019-08-09T14:56:54Z</time>
      </trkpt>
      <trkpt lat="48.15863" lon="7.34037">
        <ele>180.6</ele>
        <time>2019-08-09T14:56:56Z</time>
      </trkpt>
      <trkpt lat="48.1586" lon="7.34036">
        <ele>180.6</ele>
        <time>2019-08-09T14:56:57Z</time>
      </trkpt>
      <trkpt lat="48.15857" lon="7.34034">
        <ele>180.6</ele>
        <time>2019-08-09T14:56:58Z</time>
      </trkpt>
      <trkpt lat="48.15854" lon="7.34033">
        <ele>180.6</ele>
        <time>2019-08-09T14:56:59Z</time>
      </trkpt>
      <trkpt lat="48.15851" lon="7.34032">
        <ele>180.6</ele>
        <time>2019-08-09T14:57:00Z</time>
      </trkpt>
      <trkpt lat="48.15848" lon="7.3403">
        <ele>180.7</ele>
        <time>2019-08-09T14:57:01Z</time>
      </trkpt>
      <trkpt lat="48.15844" lon="7.34029">
        <ele>180.7</ele>
        <time>2019-08-09T14:57:02Z</time>
      </trkpt>
      <trkpt lat="48.15841" lon="7.34027">
        <ele>180.7</ele>
        <time>2019-08-09T14:57:03Z</time>
      </trkpt>
      <trkpt lat="48.15838" lon="7.34025">
        <ele>180.8</ele>
        <time>2019-08-09T14:57:04Z</time>
      </trkpt>
      <trkpt lat="48.15835" lon="7.34023">
        <ele>180.9</ele>
        <time>2019-08-09T14:57:05Z</time>
      </trkpt>
      <trkpt lat="48.15832" lon="7.34021">
        <ele>180.9</ele>
        <time>2019-08-09T14:57:06Z</time>
      </trkpt>
      <trkpt lat="48.15829" lon="7.3402">
        <ele>181</ele>
        <time>2019-08-09T14:57:07Z</time>
      </trkpt>
      <trkpt lat="48.15826" lon="7.34019">
        <ele>181</ele>
        <time>2019-08-09T14:57:08Z</time>
      </trkpt>
      <trkpt lat="48.15823" lon="7.34017">
        <ele>181</ele>
        <time>2019-08-09T14:57:09Z</time>
      </trkpt>
      <trkpt lat="48.1582" lon="7.34015">
        <ele>181.1</ele>
        <time>2019-08-09T14:57:10Z</time>
      </trkpt>
      <trkpt lat="48.15817" lon="7.34013">
        <ele>181.1</ele>
        <time>2019-08-09T14:57:11Z</time>
      </trkpt>
      <trkpt lat="48.15814" lon="7.34011">
        <ele>181.2</ele>
        <time>2019-08-09T14:57:12Z</time>
      </trkpt>
      <trkpt lat="48.15812" lon="7.34009">
        <ele>181.2</ele>
        <time>2019-08-09T14:57:13Z</time>
      </trkpt>
      <trkpt lat="48.15809" lon="7.34007">
        <ele>181.2</ele>
        <time>2019-08-09T14:57:14Z</time>
      </trkpt>
      <trkpt lat="48.15806" lon="7.34005">
        <ele>181.3</ele>
        <time>2019-08-09T14:57:15Z</time>
      </trkpt>
      <trkpt lat="48.15803" lon="7.34004">
        <ele>181.3</ele>
        <time>2019-08-09T14:57:16Z</time>
      </trkpt>
      <trkpt lat="48.158" lon="7.34002">
        <ele>181.3</ele>
        <time>2019-08-09T14:57:17Z</time>
      </trkpt>
      <trkpt lat="48.15797" lon="7.33999">
        <ele>181.4</ele>
        <time>2019-08-09T14:57:18Z</time>
      </trkpt>
      <trkpt lat="48.15794" lon="7.33997">
        <ele>181.4</ele>
        <time>2019-08-09T14:57:19Z</time>
      </trkpt>
      <trkpt lat="48.15792" lon="7.33995">
        <ele>181.5</ele>
        <time>2019-08-09T14:57:20Z</time>
      </trkpt>
      <trkpt lat="48.15787" lon="7.33991">
        <ele>181.6</ele>
        <time>2019-08-09T14:57:22Z</time>
      </trkpt>
      <trkpt lat="48.15784" lon="7.33987">
        <ele>181.7</ele>
        <time>2019-08-09T14:57:24Z</time>
      </trkpt>
      <trkpt lat="48.1578" lon="7.33983">
        <ele>181.7</ele>
        <time>2019-08-09T14:57:25Z</time>
      </trkpt>
      <trkpt lat="48.15778" lon="7.3398">
        <ele>181.8</ele>
        <time>2019-08-09T14:57:26Z</time>
      </trkpt>
      <trkpt lat="48.15775" lon="7.33976">
        <ele>181.9</ele>
        <time>2019-08-09T14:57:27Z</time>
      </trkpt>
      <trkpt lat="48.15773" lon="7.33974">
        <ele>181.9</ele>
        <time>2019-08-09T14:57:28Z</time>
      </trkpt>
      <trkpt lat="48.15769" lon="7.33969">
        <ele>182.1</ele>
        <time>2019-08-09T14:57:30Z</time>
      </trkpt>
      <trkpt lat="48.15766" lon="7.33966">
        <ele>182.1</ele>
        <time>2019-08-09T14:57:31Z</time>
      </trkpt>
      <trkpt lat="48.15764" lon="7.33963">
        <ele>182.2</ele>
        <time>2019-08-09T14:57:32Z</time>
      </trkpt>
      <trkpt lat="48.15761" lon="7.33956">
        <ele>182.3</ele>
        <time>2019-08-09T14:57:34Z</time>
      </trkpt>
      <trkpt lat="48.15759" lon="7.33953">
        <ele>182.3</ele>
        <time>2019-08-09T14:57:35Z</time>
      </trkpt>
      <trkpt lat="48.15756" lon="7.3395">
        <ele>182.4</ele>
        <time>2019-08-09T14:57:36Z</time>
      </trkpt>
      <trkpt lat="48.15753" lon="7.33948">
        <ele>182.5</ele>
        <time>2019-08-09T14:57:37Z</time>
      </trkpt>
      <trkpt lat="48.1575" lon="7.33946">
        <ele>182.5</ele>
        <time>2019-08-09T14:57:38Z</time>
      </trkpt>
      <trkpt lat="48.15748" lon="7.33943">
        <ele>182.6</ele>
        <time>2019-08-09T14:57:39Z</time>
      </trkpt>
      <trkpt lat="48.15744" lon="7.33937">
        <ele>182.7</ele>
        <time>2019-08-09T14:57:41Z</time>
      </trkpt>
      <trkpt lat="48.15741" lon="7.33934">
        <ele>182.8</ele>
        <time>2019-08-09T14:57:42Z</time>
      </trkpt>
      <trkpt lat="48.15739" lon="7.33932">
        <ele>182.9</ele>
        <time>2019-08-09T14:57:43Z</time>
      </trkpt>
      <trkpt lat="48.15734" lon="7.33928">
        <ele>183</ele>
        <time>2019-08-09T14:57:45Z</time>
      </trkpt>
      <trkpt lat="48.1573" lon="7.33925">
        <ele>183.1</ele>
        <time>2019-08-09T14:57:46Z</time>
      </trkpt>
      <trkpt lat="48.15727" lon="7.33923">
        <ele>183.2</ele>
        <time>2019-08-09T14:57:47Z</time>
      </trkpt>
      <trkpt lat="48.15724" lon="7.33921">
        <ele>183.3</ele>
        <time>2019-08-09T14:57:48Z</time>
      </trkpt>
      <trkpt lat="48.15721" lon="7.3392">
        <ele>183.3</ele>
        <time>2019-08-09T14:57:49Z</time>
      </trkpt>
      <trkpt lat="48.15717" lon="7.33917">
        <ele>183.4</ele>
        <time>2019-08-09T14:57:50Z</time>
      </trkpt>
      <trkpt lat="48.15714" lon="7.33915">
        <ele>183.5</ele>
        <time>2019-08-09T14:57:51Z</time>
      </trkpt>
      <trkpt lat="48.15711" lon="7.33914">
        <ele>183.6</ele>
        <time>2019-08-09T14:57:52Z</time>
      </trkpt>
      <trkpt lat="48.15708" lon="7.33912">
        <ele>183.7</ele>
        <time>2019-08-09T14:57:53Z</time>
      </trkpt>
      <trkpt lat="48.15705" lon="7.33911">
        <ele>183.7</ele>
        <time>2019-08-09T14:57:54Z</time>
      </trkpt>
      <trkpt lat="48.15702" lon="7.33908">
        <ele>183.8</ele>
        <time>2019-08-09T14:57:55Z</time>
      </trkpt>
      <trkpt lat="48.15698" lon="7.33905">
        <ele>183.8</ele>
        <time>2019-08-09T14:57:56Z</time>
      </trkpt>
      <trkpt lat="48.15694" lon="7.33904">
        <ele>183.9</ele>
        <time>2019-08-09T14:57:57Z</time>
      </trkpt>
      <trkpt lat="48.15691" lon="7.33903">
        <ele>183.9</ele>
        <time>2019-08-09T14:57:58Z</time>
      </trkpt>
      <trkpt lat="48.15686" lon="7.33902">
        <ele>184</ele>
        <time>2019-08-09T14:58:00Z</time>
      </trkpt>
      <trkpt lat="48.15681" lon="7.339">
        <ele>184.1</ele>
        <time>2019-08-09T14:58:02Z</time>
      </trkpt>
      <trkpt lat="48.15678" lon="7.33898">
        <ele>184.2</ele>
        <time>2019-08-09T14:58:03Z</time>
      </trkpt>
      <trkpt lat="48.15675" lon="7.33895">
        <ele>184.3</ele>
        <time>2019-08-09T14:58:04Z</time>
      </trkpt>
      <trkpt lat="48.15672" lon="7.33894">
        <ele>184.3</ele>
        <time>2019-08-09T14:58:05Z</time>
      </trkpt>
      <trkpt lat="48.15669" lon="7.33893">
        <ele>184.4</ele>
        <time>2019-08-09T14:58:06Z</time>
      </trkpt>
      <trkpt lat="48.15667" lon="7.33891">
        <ele>184.5</ele>
        <time>2019-08-09T14:58:07Z</time>
      </trkpt>
      <trkpt lat="48.15664" lon="7.33889">
        <ele>184.6</ele>
        <time>2019-08-09T14:58:08Z</time>
      </trkpt>
      <trkpt lat="48.15661" lon="7.33888">
        <ele>184.6</ele>
        <time>2019-08-09T14:58:09Z</time>
      </trkpt>
      <trkpt lat="48.15658" lon="7.33888">
        <ele>184.7</ele>
        <time>2019-08-09T14:58:10Z</time>
      </trkpt>
      <trkpt lat="48.15655" lon="7.33886">
        <ele>184.8</ele>
        <time>2019-08-09T14:58:11Z</time>
      </trkpt>
      <trkpt lat="48.15651" lon="7.33885">
        <ele>184.9</ele>
        <time>2019-08-09T14:58:12Z</time>
      </trkpt>
      <trkpt lat="48.15648" lon="7.33884">
        <ele>185</ele>
        <time>2019-08-09T14:58:13Z</time>
      </trkpt>
      <trkpt lat="48.15645" lon="7.33882">
        <ele>185.1</ele>
        <time>2019-08-09T14:58:14Z</time>
      </trkpt>
      <trkpt lat="48.15643" lon="7.3388">
        <ele>185.2</ele>
        <time>2019-08-09T14:58:15Z</time>
      </trkpt>
      <trkpt lat="48.1564" lon="7.33878">
        <ele>185.3</ele>
        <time>2019-08-09T14:58:16Z</time>
      </trkpt>
      <trkpt lat="48.15635" lon="7.33876">
        <ele>185.4</ele>
        <time>2019-08-09T14:58:18Z</time>
      </trkpt>
      <trkpt lat="48.1563" lon="7.33874">
        <ele>185.6</ele>
        <time>2019-08-09T14:58:20Z</time>
      </trkpt>
      <trkpt lat="48.15626" lon="7.33873">
        <ele>185.8</ele>
        <time>2019-08-09T14:58:22Z</time>
      </trkpt>
      <trkpt lat="48.15622" lon="7.33873">
        <ele>185.9</ele>
        <time>2019-08-09T14:58:24Z</time>
      </trkpt>
      <trkpt lat="48.15618" lon="7.33873">
        <ele>186.1</ele>
        <time>2019-08-09T14:58:26Z</time>
      </trkpt>
      <trkpt lat="48.15613" lon="7.33872">
        <ele>186.3</ele>
        <time>2019-08-09T14:58:28Z</time>
      </trkpt>
      <trkpt lat="48.15611" lon="7.33871">
        <ele>186.8</ele>
        <time>2019-08-09T14:58:29Z</time>
      </trkpt>
      <trkpt lat="48.15608" lon="7.3387">
        <ele>187.1</ele>
        <time>2019-08-09T14:58:30Z</time>
      </trkpt>
      <trkpt lat="48.15605" lon="7.33869">
        <ele>187.4</ele>
        <time>2019-08-09T14:58:31Z</time>
      </trkpt>
      <trkpt lat="48.15599" lon="7.33866">
        <ele>187.9</ele>
        <time>2019-08-09T14:58:33Z</time>
      </trkpt>
      <trkpt lat="48.15596" lon="7.33865">
        <ele>188.2</ele>
        <time>2019-08-09T14:58:34Z</time>
      </trkpt>
      <trkpt lat="48.15593" lon="7.33864">
        <ele>188.5</ele>
        <time>2019-08-09T14:58:35Z</time>
      </trkpt>
      <trkpt lat="48.1559" lon="7.33863">
        <ele>188.8</ele>
        <time>2019-08-09T14:58:36Z</time>
      </trkpt>
      <trkpt lat="48.15587" lon="7.33862">
        <ele>189.1</ele>
        <time>2019-08-09T14:58:37Z</time>
      </trkpt>
      <trkpt lat="48.15584" lon="7.33861">
        <ele>189.4</ele>
        <time>2019-08-09T14:58:38Z</time>
      </trkpt>
      <trkpt lat="48.15581" lon="7.33861">
        <ele>189.7</ele>
        <time>2019-08-09T14:58:39Z</time>
      </trkpt>
      <trkpt lat="48.15575" lon="7.3386">
        <ele>190.2</ele>
        <time>2019-08-09T14:58:41Z</time>
      </trkpt>
      <trkpt lat="48.15572" lon="7.3386">
        <ele>190.6</ele>
        <time>2019-08-09T14:58:42Z</time>
      </trkpt>
      <trkpt lat="48.15569" lon="7.33859">
        <ele>190.9</ele>
        <time>2019-08-09T14:58:43Z</time>
      </trkpt>
      <trkpt lat="48.15565" lon="7.33858">
        <ele>191.2</ele>
        <time>2019-08-09T14:58:44Z</time>
      </trkpt>
      <trkpt lat="48.15562" lon="7.33857">
        <ele>191.5</ele>
        <time>2019-08-09T14:58:45Z</time>
      </trkpt>
      <trkpt lat="48.15558" lon="7.33855">
        <ele>191.8</ele>
        <time>2019-08-09T14:58:46Z</time>
      </trkpt>
      <trkpt lat="48.15556" lon="7.33855">
        <ele>192</ele>
        <time>2019-08-09T14:58:47Z</time>
      </trkpt>
      <trkpt lat="48.15552" lon="7.33854">
        <ele>192.2</ele>
        <time>2019-08-09T14:58:48Z</time>
      </trkpt>
      <trkpt lat="48.1555" lon="7.33853">
        <ele>192.4</ele>
        <time>2019-08-09T14:58:49Z</time>
      </trkpt>
      <trkpt lat="48.15547" lon="7.33853">
        <ele>192.6</ele>
        <time>2019-08-09T14:58:50Z</time>
      </trkpt>
      <trkpt lat="48.15544" lon="7.33853">
        <ele>192.8</ele>
        <time>2019-08-09T14:58:51Z</time>
      </trkpt>
      <trkpt lat="48.1554" lon="7.33853">
        <ele>193</ele>
        <time>2019-08-09T14:58:52Z</time>
      </trkpt>
      <trkpt lat="48.15537" lon="7.33852">
        <ele>193.2</ele>
        <time>2019-08-09T14:58:53Z</time>
      </trkpt>
      <trkpt lat="48.15534" lon="7.33852">
        <ele>193.4</ele>
        <time>2019-08-09T14:58:54Z</time>
      </trkpt>
      <trkpt lat="48.1553" lon="7.33851">
        <ele>193.7</ele>
        <time>2019-08-09T14:58:55Z</time>
      </trkpt>
      <trkpt lat="48.15526" lon="7.3385">
        <ele>193.9</ele>
        <time>2019-08-09T14:58:56Z</time>
      </trkpt>
      <trkpt lat="48.15523" lon="7.33849">
        <ele>194.2</ele>
        <time>2019-08-09T14:58:57Z</time>
      </trkpt>
      <trkpt lat="48.1552" lon="7.33849">
        <ele>194.4</ele>
        <time>2019-08-09T14:58:58Z</time>
      </trkpt>
      <trkpt lat="48.15516" lon="7.33849">
        <ele>194.7</ele>
        <time>2019-08-09T14:58:59Z</time>
      </trkpt>
      <trkpt lat="48.15513" lon="7.33848">
        <ele>194.9</ele>
        <time>2019-08-09T14:59:00Z</time>
      </trkpt>
      <trkpt lat="48.15508" lon="7.33848">
        <ele>195.4</ele>
        <time>2019-08-09T14:59:02Z</time>
      </trkpt>
      <trkpt lat="48.15505" lon="7.33848">
        <ele>195.6</ele>
        <time>2019-08-09T14:59:03Z</time>
      </trkpt>
      <trkpt lat="48.15502" lon="7.33847">
        <ele>195.8</ele>
        <time>2019-08-09T14:59:04Z</time>
      </trkpt>
      <trkpt lat="48.15499" lon="7.33846">
        <ele>196</ele>
        <time>2019-08-09T14:59:05Z</time>
      </trkpt>
      <trkpt lat="48.15496" lon="7.33845">
        <ele>196.1</ele>
        <time>2019-08-09T14:59:06Z</time>
      </trkpt>
      <trkpt lat="48.15494" lon="7.33843">
        <ele>196.3</ele>
        <time>2019-08-09T14:59:07Z</time>
      </trkpt>
      <trkpt lat="48.1549" lon="7.33842">
        <ele>196.5</ele>
        <time>2019-08-09T14:59:08Z</time>
      </trkpt>
      <trkpt lat="48.15487" lon="7.3384">
        <ele>196.7</ele>
        <time>2019-08-09T14:59:09Z</time>
      </trkpt>
      <trkpt lat="48.15484" lon="7.33841">
        <ele>196.9</ele>
        <time>2019-08-09T14:59:10Z</time>
      </trkpt>
      <trkpt lat="48.15479" lon="7.33839">
        <ele>197.2</ele>
        <time>2019-08-09T14:59:12Z</time>
      </trkpt>
      <trkpt lat="48.15474" lon="7.33837">
        <ele>197.6</ele>
        <time>2019-08-09T14:59:14Z</time>
      </trkpt>
      <trkpt lat="48.15471" lon="7.33836">
        <ele>197.8</ele>
        <time>2019-08-09T14:59:15Z</time>
      </trkpt>
      <trkpt lat="48.15468" lon="7.33835">
        <ele>198</ele>
        <time>2019-08-09T14:59:16Z</time>
      </trkpt>
      <trkpt lat="48.15465" lon="7.33834">
        <ele>198.3</ele>
        <time>2019-08-09T14:59:17Z</time>
      </trkpt>
      <trkpt lat="48.15462" lon="7.33834">
        <ele>198.5</ele>
        <time>2019-08-09T14:59:18Z</time>
      </trkpt>
      <trkpt lat="48.15459" lon="7.33834">
        <ele>198.7</ele>
        <time>2019-08-09T14:59:19Z</time>
      </trkpt>
      <trkpt lat="48.15456" lon="7.33832">
        <ele>198.9</ele>
        <time>2019-08-09T14:59:20Z</time>
      </trkpt>
      <trkpt lat="48.15453" lon="7.3383">
        <ele>199.1</ele>
        <time>2019-08-09T14:59:21Z</time>
      </trkpt>
      <trkpt lat="48.15449" lon="7.33829">
        <ele>199.3</ele>
        <time>2019-08-09T14:59:22Z</time>
      </trkpt>
      <trkpt lat="48.15446" lon="7.33828">
        <ele>199.5</ele>
        <time>2019-08-09T14:59:23Z</time>
      </trkpt>
      <trkpt lat="48.15443" lon="7.33827">
        <ele>199.7</ele>
        <time>2019-08-09T14:59:24Z</time>
      </trkpt>
      <trkpt lat="48.1544" lon="7.33824">
        <ele>199.9</ele>
        <time>2019-08-09T14:59:25Z</time>
      </trkpt>
      <trkpt lat="48.15437" lon="7.33823">
        <ele>200</ele>
        <time>2019-08-09T14:59:26Z</time>
      </trkpt>
      <trkpt lat="48.15434" lon="7.33821">
        <ele>200.2</ele>
        <time>2019-08-09T14:59:27Z</time>
      </trkpt>
      <trkpt lat="48.1543" lon="7.33821">
        <ele>200.4</ele>
        <time>2019-08-09T14:59:29Z</time>
      </trkpt>
      <trkpt lat="48.15428" lon="7.3382">
        <ele>200.5</ele>
        <time>2019-08-09T14:59:30Z</time>
      </trkpt>
      <trkpt lat="48.15423" lon="7.33817">
        <ele>200.8</ele>
        <time>2019-08-09T14:59:32Z</time>
      </trkpt>
      <trkpt lat="48.1542" lon="7.33815">
        <ele>201.1</ele>
        <time>2019-08-09T14:59:33Z</time>
      </trkpt>
      <trkpt lat="48.15417" lon="7.33813">
        <ele>201.3</ele>
        <time>2019-08-09T14:59:34Z</time>
      </trkpt>
      <trkpt lat="48.15414" lon="7.33811">
        <ele>201.6</ele>
        <time>2019-08-09T14:59:35Z</time>
      </trkpt>
      <trkpt lat="48.15411" lon="7.3381">
        <ele>201.8</ele>
        <time>2019-08-09T14:59:36Z</time>
      </trkpt>
      <trkpt lat="48.15408" lon="7.33809">
        <ele>202.1</ele>
        <time>2019-08-09T14:59:37Z</time>
      </trkpt>
      <trkpt lat="48.15404" lon="7.33807">
        <ele>202.5</ele>
        <time>2019-08-09T14:59:38Z</time>
      </trkpt>
      <trkpt lat="48.154" lon="7.33806">
        <ele>202.8</ele>
        <time>2019-08-09T14:59:39Z</time>
      </trkpt>
      <trkpt lat="48.15396" lon="7.33805">
        <ele>203</ele>
        <time>2019-08-09T14:59:40Z</time>
      </trkpt>
      <trkpt lat="48.15391" lon="7.33803">
        <ele>203.3</ele>
        <time>2019-08-09T14:59:41Z</time>
      </trkpt>
      <trkpt lat="48.15388" lon="7.33803">
        <ele>203.5</ele>
        <time>2019-08-09T14:59:42Z</time>
      </trkpt>
      <trkpt lat="48.15384" lon="7.33805">
        <ele>203.8</ele>
        <time>2019-08-09T14:59:43Z</time>
      </trkpt>
      <trkpt lat="48.15381" lon="7.33805">
        <ele>204</ele>
        <time>2019-08-09T14:59:44Z</time>
      </trkpt>
      <trkpt lat="48.15376" lon="7.33804">
        <ele>204.4</ele>
        <time>2019-08-09T14:59:46Z</time>
      </trkpt>
      <trkpt lat="48.15373" lon="7.33803">
        <ele>204.3</ele>
        <time>2019-08-09T14:59:47Z</time>
      </trkpt>
      <trkpt lat="48.1537" lon="7.33802">
        <ele>204.3</ele>
        <time>2019-08-09T14:59:48Z</time>
      </trkpt>
      <trkpt lat="48.15365" lon="7.33801">
        <ele>204.3</ele>
        <time>2019-08-09T14:59:50Z</time>
      </trkpt>
      <trkpt lat="48.15361" lon="7.33799">
        <ele>204.2</ele>
        <time>2019-08-09T14:59:52Z</time>
      </trkpt>
      <trkpt lat="48.15358" lon="7.33797">
        <ele>204.2</ele>
        <time>2019-08-09T14:59:53Z</time>
      </trkpt>
      <trkpt lat="48.15356" lon="7.33795">
        <ele>204.2</ele>
        <time>2019-08-09T14:59:54Z</time>
      </trkpt>
      <trkpt lat="48.15353" lon="7.33793">
        <ele>204.1</ele>
        <time>2019-08-09T14:59:55Z</time>
      </trkpt>
      <trkpt lat="48.1535" lon="7.33791">
        <ele>204.1</ele>
        <time>2019-08-09T14:59:57Z</time>
      </trkpt>
      <trkpt lat="48.15347" lon="7.33789">
        <ele>204.1</ele>
        <time>2019-08-09T14:59:58Z</time>
      </trkpt>
      <trkpt lat="48.15345" lon="7.33787">
        <ele>204</ele>
        <time>2019-08-09T14:59:59Z</time>
      </trkpt>
      <trkpt lat="48.15341" lon="7.33784">
        <ele>204</ele>
        <time>2019-08-09T15:00:01Z</time>
      </trkpt>
      <trkpt lat="48.15336" lon="7.33781">
        <ele>203.9</ele>
        <time>2019-08-09T15:00:03Z</time>
      </trkpt>
      <trkpt lat="48.15333" lon="7.33778">
        <ele>203.9</ele>
        <time>2019-08-09T15:00:04Z</time>
      </trkpt>
      <trkpt lat="48.15331" lon="7.33775">
        <ele>203.8</ele>
        <time>2019-08-09T15:00:05Z</time>
      </trkpt>
      <trkpt lat="48.15328" lon="7.33773">
        <ele>203.8</ele>
        <time>2019-08-09T15:00:06Z</time>
      </trkpt>
      <trkpt lat="48.15326" lon="7.33771">
        <ele>203.8</ele>
        <time>2019-08-09T15:00:07Z</time>
      </trkpt>
      <trkpt lat="48.15322" lon="7.33768">
        <ele>203.7</ele>
        <time>2019-08-09T15:00:09Z</time>
      </trkpt>
      <trkpt lat="48.15319" lon="7.33766">
        <ele>203.7</ele>
        <time>2019-08-09T15:00:10Z</time>
      </trkpt>
      <trkpt lat="48.15317" lon="7.33764">
        <ele>203.6</ele>
        <time>2019-08-09T15:00:11Z</time>
      </trkpt>
      <trkpt lat="48.15314" lon="7.33762">
        <ele>203.6</ele>
        <time>2019-08-09T15:00:12Z</time>
      </trkpt>
      <trkpt lat="48.15311" lon="7.3376">
        <ele>203.6</ele>
        <time>2019-08-09T15:00:13Z</time>
      </trkpt>
      <trkpt lat="48.15308" lon="7.33758">
        <ele>203.5</ele>
        <time>2019-08-09T15:00:14Z</time>
      </trkpt>
      <trkpt lat="48.15306" lon="7.33757">
        <ele>203.5</ele>
        <time>2019-08-09T15:00:15Z</time>
      </trkpt>
      <trkpt lat="48.15303" lon="7.33754">
        <ele>203.4</ele>
        <time>2019-08-09T15:00:16Z</time>
      </trkpt>
      <trkpt lat="48.153" lon="7.33752">
        <ele>203.4</ele>
        <time>2019-08-09T15:00:17Z</time>
      </trkpt>
      <trkpt lat="48.15296" lon="7.3375">
        <ele>203.3</ele>
        <time>2019-08-09T15:00:18Z</time>
      </trkpt>
      <trkpt lat="48.15293" lon="7.33748">
        <ele>203.2</ele>
        <time>2019-08-09T15:00:19Z</time>
      </trkpt>
      <trkpt lat="48.1529" lon="7.33748">
        <ele>203.2</ele>
        <time>2019-08-09T15:00:20Z</time>
      </trkpt>
      <trkpt lat="48.15286" lon="7.33747">
        <ele>203.1</ele>
        <time>2019-08-09T15:00:21Z</time>
      </trkpt>
      <trkpt lat="48.15283" lon="7.33745">
        <ele>203</ele>
        <time>2019-08-09T15:00:22Z</time>
      </trkpt>
      <trkpt lat="48.1528" lon="7.33743">
        <ele>203</ele>
        <time>2019-08-09T15:00:23Z</time>
      </trkpt>
      <trkpt lat="48.15275" lon="7.3374">
        <ele>202.9</ele>
        <time>2019-08-09T15:00:25Z</time>
      </trkpt>
      <trkpt lat="48.15272" lon="7.33739">
        <ele>202.8</ele>
        <time>2019-08-09T15:00:26Z</time>
      </trkpt>
      <trkpt lat="48.15268" lon="7.33737">
        <ele>202.7</ele>
        <time>2019-08-09T15:00:27Z</time>
      </trkpt>
      <trkpt lat="48.15265" lon="7.33736">
        <ele>202.7</ele>
        <time>2019-08-09T15:00:28Z</time>
      </trkpt>
      <trkpt lat="48.15262" lon="7.33735">
        <ele>202.6</ele>
        <time>2019-08-09T15:00:29Z</time>
      </trkpt>
      <trkpt lat="48.15259" lon="7.33733">
        <ele>202.5</ele>
        <time>2019-08-09T15:00:30Z</time>
      </trkpt>
      <trkpt lat="48.15256" lon="7.33731">
        <ele>202.4</ele>
        <time>2019-08-09T15:00:31Z</time>
      </trkpt>
      <trkpt lat="48.15252" lon="7.3373">
        <ele>202.3</ele>
        <time>2019-08-09T15:00:32Z</time>
      </trkpt>
      <trkpt lat="48.15248" lon="7.33728">
        <ele>202.2</ele>
        <time>2019-08-09T15:00:33Z</time>
      </trkpt>
      <trkpt lat="48.15245" lon="7.33727">
        <ele>202.1</ele>
        <time>2019-08-09T15:00:34Z</time>
      </trkpt>
      <trkpt lat="48.15241" lon="7.33726">
        <ele>202</ele>
        <time>2019-08-09T15:00:35Z</time>
      </trkpt>
      <trkpt lat="48.15237" lon="7.33725">
        <ele>201.9</ele>
        <time>2019-08-09T15:00:36Z</time>
      </trkpt>
      <trkpt lat="48.15233" lon="7.33724">
        <ele>201.8</ele>
        <time>2019-08-09T15:00:37Z</time>
      </trkpt>
      <trkpt lat="48.15229" lon="7.33722">
        <ele>201.7</ele>
        <time>2019-08-09T15:00:38Z</time>
      </trkpt>
      <trkpt lat="48.15225" lon="7.3372">
        <ele>201.6</ele>
        <time>2019-08-09T15:00:39Z</time>
      </trkpt>
      <trkpt lat="48.15221" lon="7.33718">
        <ele>201.5</ele>
        <time>2019-08-09T15:00:40Z</time>
      </trkpt>
      <trkpt lat="48.15216" lon="7.33716">
        <ele>201.4</ele>
        <time>2019-08-09T15:00:41Z</time>
      </trkpt>
      <trkpt lat="48.15212" lon="7.33715">
        <ele>201.3</ele>
        <time>2019-08-09T15:00:42Z</time>
      </trkpt>
      <trkpt lat="48.15207" lon="7.33713">
        <ele>201.2</ele>
        <time>2019-08-09T15:00:43Z</time>
      </trkpt>
      <trkpt lat="48.15203" lon="7.33711">
        <ele>201.1</ele>
        <time>2019-08-09T15:00:44Z</time>
      </trkpt>
      <trkpt lat="48.15199" lon="7.3371">
        <ele>201</ele>
        <time>2019-08-09T15:00:45Z</time>
      </trkpt>
      <trkpt lat="48.15195" lon="7.33707">
        <ele>201</ele>
        <time>2019-08-09T15:00:46Z</time>
      </trkpt>
      <trkpt lat="48.1519" lon="7.33705">
        <ele>200.9</ele>
        <time>2019-08-09T15:00:47Z</time>
      </trkpt>
      <trkpt lat="48.15185" lon="7.33702">
        <ele>200.8</ele>
        <time>2019-08-09T15:00:48Z</time>
      </trkpt>
      <trkpt lat="48.15181" lon="7.337">
        <ele>200.7</ele>
        <time>2019-08-09T15:00:49Z</time>
      </trkpt>
      <trkpt lat="48.15177" lon="7.33698">
        <ele>200.6</ele>
        <time>2019-08-09T15:00:50Z</time>
      </trkpt>
      <trkpt lat="48.15173" lon="7.33696">
        <ele>200.6</ele>
        <time>2019-08-09T15:00:51Z</time>
      </trkpt>
      <trkpt lat="48.15169" lon="7.33695">
        <ele>200.5</ele>
        <time>2019-08-09T15:00:52Z</time>
      </trkpt>
      <trkpt lat="48.15164" lon="7.33692">
        <ele>200.4</ele>
        <time>2019-08-09T15:00:53Z</time>
      </trkpt>
      <trkpt lat="48.1516" lon="7.3369">
        <ele>200.4</ele>
        <time>2019-08-09T15:00:54Z</time>
      </trkpt>
      <trkpt lat="48.15156" lon="7.33688">
        <ele>200.3</ele>
        <time>2019-08-09T15:00:55Z</time>
      </trkpt>
      <trkpt lat="48.15152" lon="7.33687">
        <ele>200.2</ele>
        <time>2019-08-09T15:00:56Z</time>
      </trkpt>
      <trkpt lat="48.15147" lon="7.33685">
        <ele>200.2</ele>
        <time>2019-08-09T15:00:57Z</time>
      </trkpt>
      <trkpt lat="48.15143" lon="7.33683">
        <ele>200.1</ele>
        <time>2019-08-09T15:00:58Z</time>
      </trkpt>
      <trkpt lat="48.15138" lon="7.33681">
        <ele>200</ele>
        <time>2019-08-09T15:00:59Z</time>
      </trkpt>
      <trkpt lat="48.15134" lon="7.33679">
        <ele>200</ele>
        <time>2019-08-09T15:01:00Z</time>
      </trkpt>
      <trkpt lat="48.15131" lon="7.33678">
        <ele>199.9</ele>
        <time>2019-08-09T15:01:01Z</time>
      </trkpt>
      <trkpt lat="48.15128" lon="7.33677">
        <ele>199.9</ele>
        <time>2019-08-09T15:01:02Z</time>
      </trkpt>
      <trkpt lat="48.15125" lon="7.33675">
        <ele>199.8</ele>
        <time>2019-08-09T15:01:03Z</time>
      </trkpt>
      <trkpt lat="48.15121" lon="7.33673">
        <ele>199.8</ele>
        <time>2019-08-09T15:01:04Z</time>
      </trkpt>
      <trkpt lat="48.15118" lon="7.33672">
        <ele>199.7</ele>
        <time>2019-08-09T15:01:05Z</time>
      </trkpt>
      <trkpt lat="48.15114" lon="7.33669">
        <ele>199.7</ele>
        <time>2019-08-09T15:01:06Z</time>
      </trkpt>
      <trkpt lat="48.1511" lon="7.33667">
        <ele>199.6</ele>
        <time>2019-08-09T15:01:07Z</time>
      </trkpt>
      <trkpt lat="48.15107" lon="7.33665">
        <ele>199.5</ele>
        <time>2019-08-09T15:01:08Z</time>
      </trkpt>
      <trkpt lat="48.15104" lon="7.33663">
        <ele>199.5</ele>
        <time>2019-08-09T15:01:09Z</time>
      </trkpt>
      <trkpt lat="48.151" lon="7.3366">
        <ele>199.4</ele>
        <time>2019-08-09T15:01:10Z</time>
      </trkpt>
      <trkpt lat="48.15097" lon="7.33658">
        <ele>199.4</ele>
        <time>2019-08-09T15:01:11Z</time>
      </trkpt>
      <trkpt lat="48.15094" lon="7.33656">
        <ele>199.3</ele>
        <time>2019-08-09T15:01:12Z</time>
      </trkpt>
      <trkpt lat="48.15091" lon="7.33655">
        <ele>199.3</ele>
        <time>2019-08-09T15:01:13Z</time>
      </trkpt>
      <trkpt lat="48.15088" lon="7.33654">
        <ele>199.2</ele>
        <time>2019-08-09T15:01:14Z</time>
      </trkpt>
      <trkpt lat="48.15086" lon="7.33652">
        <ele>199.2</ele>
        <time>2019-08-09T15:01:15Z</time>
      </trkpt>
      <trkpt lat="48.15083" lon="7.3365">
        <ele>199.1</ele>
        <time>2019-08-09T15:01:16Z</time>
      </trkpt>
      <trkpt lat="48.1508" lon="7.33649">
        <ele>199.1</ele>
        <time>2019-08-09T15:01:17Z</time>
      </trkpt>
      <trkpt lat="48.15078" lon="7.33646">
        <ele>199.1</ele>
        <time>2019-08-09T15:01:18Z</time>
      </trkpt>
      <trkpt lat="48.15075" lon="7.33645">
        <ele>199</ele>
        <time>2019-08-09T15:01:19Z</time>
      </trkpt>
      <trkpt lat="48.15072" lon="7.33643">
        <ele>199</ele>
        <time>2019-08-09T15:01:20Z</time>
      </trkpt>
      <trkpt lat="48.1507" lon="7.3364">
        <ele>199</ele>
        <time>2019-08-09T15:01:21Z</time>
      </trkpt>
      <trkpt lat="48.15066" lon="7.33638">
        <ele>198.9</ele>
        <time>2019-08-09T15:01:22Z</time>
      </trkpt>
      <trkpt lat="48.15064" lon="7.33636">
        <ele>198.9</ele>
        <time>2019-08-09T15:01:23Z</time>
      </trkpt>
      <trkpt lat="48.15061" lon="7.33634">
        <ele>198.9</ele>
        <time>2019-08-09T15:01:24Z</time>
      </trkpt>
      <trkpt lat="48.15058" lon="7.33631">
        <ele>198.9</ele>
        <time>2019-08-09T15:01:25Z</time>
      </trkpt>
      <trkpt lat="48.15055" lon="7.33629">
        <ele>198.8</ele>
        <time>2019-08-09T15:01:26Z</time>
      </trkpt>
      <trkpt lat="48.15052" lon="7.33627">
        <ele>198.8</ele>
        <time>2019-08-09T15:01:27Z</time>
      </trkpt>
      <trkpt lat="48.15048" lon="7.33624">
        <ele>198.7</ele>
        <time>2019-08-09T15:01:28Z</time>
      </trkpt>
      <trkpt lat="48.15045" lon="7.33622">
        <ele>198.7</ele>
        <time>2019-08-09T15:01:29Z</time>
      </trkpt>
      <trkpt lat="48.15041" lon="7.3362">
        <ele>198.6</ele>
        <time>2019-08-09T15:01:30Z</time>
      </trkpt>
      <trkpt lat="48.15038" lon="7.33618">
        <ele>198.6</ele>
        <time>2019-08-09T15:01:31Z</time>
      </trkpt>
      <trkpt lat="48.15035" lon="7.33616">
        <ele>198.6</ele>
        <time>2019-08-09T15:01:32Z</time>
      </trkpt>
      <trkpt lat="48.15032" lon="7.33614">
        <ele>198.5</ele>
        <time>2019-08-09T15:01:33Z</time>
      </trkpt>
      <trkpt lat="48.15028" lon="7.33611">
        <ele>198.5</ele>
        <time>2019-08-09T15:01:34Z</time>
      </trkpt>
      <trkpt lat="48.15025" lon="7.33609">
        <ele>198.4</ele>
        <time>2019-08-09T15:01:35Z</time>
      </trkpt>
      <trkpt lat="48.15021" lon="7.33607">
        <ele>198.3</ele>
        <time>2019-08-09T15:01:36Z</time>
      </trkpt>
      <trkpt lat="48.15018" lon="7.33604">
        <ele>198.2</ele>
        <time>2019-08-09T15:01:37Z</time>
      </trkpt>
      <trkpt lat="48.15015" lon="7.33601">
        <ele>198.1</ele>
        <time>2019-08-09T15:01:38Z</time>
      </trkpt>
      <trkpt lat="48.15011" lon="7.33599">
        <ele>198.1</ele>
        <time>2019-08-09T15:01:39Z</time>
      </trkpt>
      <trkpt lat="48.15008" lon="7.33596">
        <ele>198</ele>
        <time>2019-08-09T15:01:40Z</time>
      </trkpt>
      <trkpt lat="48.15005" lon="7.33593">
        <ele>197.9</ele>
        <time>2019-08-09T15:01:41Z</time>
      </trkpt>
      <trkpt lat="48.15001" lon="7.3359">
        <ele>197.8</ele>
        <time>2019-08-09T15:01:42Z</time>
      </trkpt>
      <trkpt lat="48.14997" lon="7.33587">
        <ele>197.7</ele>
        <time>2019-08-09T15:01:43Z</time>
      </trkpt>
      <trkpt lat="48.14994" lon="7.33585">
        <ele>197.6</ele>
        <time>2019-08-09T15:01:44Z</time>
      </trkpt>
      <trkpt lat="48.1499" lon="7.33582">
        <ele>197.5</ele>
        <time>2019-08-09T15:01:45Z</time>
      </trkpt>
      <trkpt lat="48.14987" lon="7.33578">
        <ele>197.4</ele>
        <time>2019-08-09T15:01:46Z</time>
      </trkpt>
      <trkpt lat="48.14983" lon="7.33575">
        <ele>197.3</ele>
        <time>2019-08-09T15:01:47Z</time>
      </trkpt>
      <trkpt lat="48.1498" lon="7.33574">
        <ele>197.2</ele>
        <time>2019-08-09T15:01:48Z</time>
      </trkpt>
      <trkpt lat="48.14977" lon="7.3357">
        <ele>197.1</ele>
        <time>2019-08-09T15:01:49Z</time>
      </trkpt>
      <trkpt lat="48.14973" lon="7.33567">
        <ele>197</ele>
        <time>2019-08-09T15:01:50Z</time>
      </trkpt>
      <trkpt lat="48.14969" lon="7.33564">
        <ele>196.9</ele>
        <time>2019-08-09T15:01:51Z</time>
      </trkpt>
      <trkpt lat="48.14965" lon="7.33561">
        <ele>196.8</ele>
        <time>2019-08-09T15:01:52Z</time>
      </trkpt>
      <trkpt lat="48.14961" lon="7.33558">
        <ele>196.7</ele>
        <time>2019-08-09T15:01:53Z</time>
      </trkpt>
      <trkpt lat="48.14957" lon="7.33555">
        <ele>196.6</ele>
        <time>2019-08-09T15:01:54Z</time>
      </trkpt>
      <trkpt lat="48.14953" lon="7.33552">
        <ele>196.6</ele>
        <time>2019-08-09T15:01:55Z</time>
      </trkpt>
      <trkpt lat="48.14949" lon="7.33549">
        <ele>196.5</ele>
        <time>2019-08-09T15:01:56Z</time>
      </trkpt>
      <trkpt lat="48.14945" lon="7.33547">
        <ele>196.4</ele>
        <time>2019-08-09T15:01:57Z</time>
      </trkpt>
      <trkpt lat="48.14942" lon="7.33544">
        <ele>196.3</ele>
        <time>2019-08-09T15:01:58Z</time>
      </trkpt>
      <trkpt lat="48.14937" lon="7.33541">
        <ele>196.2</ele>
        <time>2019-08-09T15:01:59Z</time>
      </trkpt>
      <trkpt lat="48.14933" lon="7.33539">
        <ele>196.1</ele>
        <time>2019-08-09T15:02:00Z</time>
      </trkpt>
      <trkpt lat="48.14929" lon="7.33536">
        <ele>196.1</ele>
        <time>2019-08-09T15:02:01Z</time>
      </trkpt>
      <trkpt lat="48.14924" lon="7.33534">
        <ele>196</ele>
        <time>2019-08-09T15:02:02Z</time>
      </trkpt>
      <trkpt lat="48.1492" lon="7.33532">
        <ele>195.9</ele>
        <time>2019-08-09T15:02:03Z</time>
      </trkpt>
      <trkpt lat="48.14916" lon="7.3353">
        <ele>195.8</ele>
        <time>2019-08-09T15:02:04Z</time>
      </trkpt>
      <trkpt lat="48.14912" lon="7.33528">
        <ele>195.7</ele>
        <time>2019-08-09T15:02:05Z</time>
      </trkpt>
      <trkpt lat="48.14908" lon="7.33526">
        <ele>195.6</ele>
        <time>2019-08-09T15:02:06Z</time>
      </trkpt>
      <trkpt lat="48.14904" lon="7.33525">
        <ele>195.5</ele>
        <time>2019-08-09T15:02:07Z</time>
      </trkpt>
      <trkpt lat="48.14899" lon="7.33523">
        <ele>195.4</ele>
        <time>2019-08-09T15:02:08Z</time>
      </trkpt>
      <trkpt lat="48.14894" lon="7.3352">
        <ele>195.3</ele>
        <time>2019-08-09T15:02:09Z</time>
      </trkpt>
      <trkpt lat="48.14889" lon="7.33517">
        <ele>195.6</ele>
        <time>2019-08-09T15:02:10Z</time>
      </trkpt>
      <trkpt lat="48.14885" lon="7.33515">
        <ele>195.7</ele>
        <time>2019-08-09T15:02:11Z</time>
      </trkpt>
      <trkpt lat="48.1488" lon="7.33513">
        <ele>195.9</ele>
        <time>2019-08-09T15:02:12Z</time>
      </trkpt>
      <trkpt lat="48.14875" lon="7.33511">
        <ele>196.1</ele>
        <time>2019-08-09T15:02:13Z</time>
      </trkpt>
      <trkpt lat="48.1487" lon="7.33508">
        <ele>196.2</ele>
        <time>2019-08-09T15:02:14Z</time>
      </trkpt>
      <trkpt lat="48.14866" lon="7.33506">
        <ele>196.3</ele>
        <time>2019-08-09T15:02:15Z</time>
      </trkpt>
      <trkpt lat="48.14863" lon="7.33502">
        <ele>196.5</ele>
        <time>2019-08-09T15:02:16Z</time>
      </trkpt>
      <trkpt lat="48.14858" lon="7.33499">
        <ele>196.6</ele>
        <time>2019-08-09T15:02:17Z</time>
      </trkpt>
      <trkpt lat="48.14855" lon="7.33495">
        <ele>196.7</ele>
        <time>2019-08-09T15:02:18Z</time>
      </trkpt>
      <trkpt lat="48.14851" lon="7.33492">
        <ele>196.8</ele>
        <time>2019-08-09T15:02:19Z</time>
      </trkpt>
      <trkpt lat="48.14847" lon="7.33488">
        <ele>196.9</ele>
        <time>2019-08-09T15:02:20Z</time>
      </trkpt>
      <trkpt lat="48.14843" lon="7.33484">
        <ele>197</ele>
        <time>2019-08-09T15:02:21Z</time>
      </trkpt>
      <trkpt lat="48.1484" lon="7.33479">
        <ele>197.1</ele>
        <time>2019-08-09T15:02:22Z</time>
      </trkpt>
      <trkpt lat="48.14836" lon="7.33474">
        <ele>197.2</ele>
        <time>2019-08-09T15:02:23Z</time>
      </trkpt>
      <trkpt lat="48.14833" lon="7.33471">
        <ele>197.3</ele>
        <time>2019-08-09T15:02:24Z</time>
      </trkpt>
      <trkpt lat="48.1483" lon="7.33467">
        <ele>197.3</ele>
        <time>2019-08-09T15:02:25Z</time>
      </trkpt>
      <trkpt lat="48.14828" lon="7.33463">
        <ele>197.4</ele>
        <time>2019-08-09T15:02:26Z</time>
      </trkpt>
      <trkpt lat="48.14825" lon="7.33459">
        <ele>197.8</ele>
        <time>2019-08-09T15:02:27Z</time>
      </trkpt>
      <trkpt lat="48.14822" lon="7.33455">
        <ele>197.5</ele>
        <time>2019-08-09T15:02:28Z</time>
      </trkpt>
      <trkpt lat="48.1482" lon="7.3345">
        <ele>197.3</ele>
        <time>2019-08-09T15:02:29Z</time>
      </trkpt>
      <trkpt lat="48.14818" lon="7.33446">
        <ele>197.2</ele>
        <time>2019-08-09T15:02:30Z</time>
      </trkpt>
      <trkpt lat="48.14815" lon="7.3344">
        <ele>197</ele>
        <time>2019-08-09T15:02:31Z</time>
      </trkpt>
      <trkpt lat="48.14813" lon="7.33435">
        <ele>196.9</ele>
        <time>2019-08-09T15:02:32Z</time>
      </trkpt>
      <trkpt lat="48.14812" lon="7.33429">
        <ele>196.7</ele>
        <time>2019-08-09T15:02:33Z</time>
      </trkpt>
      <trkpt lat="48.1481" lon="7.33425">
        <ele>196.6</ele>
        <time>2019-08-09T15:02:34Z</time>
      </trkpt>
      <trkpt lat="48.14808" lon="7.3342">
        <ele>196.5</ele>
        <time>2019-08-09T15:02:35Z</time>
      </trkpt>
      <trkpt lat="48.14806" lon="7.33417">
        <ele>196.4</ele>
        <time>2019-08-09T15:02:36Z</time>
      </trkpt>
      <trkpt lat="48.14804" lon="7.33412">
        <ele>196.4</ele>
        <time>2019-08-09T15:02:37Z</time>
      </trkpt>
      <trkpt lat="48.14801" lon="7.33406">
        <ele>196.3</ele>
        <time>2019-08-09T15:02:38Z</time>
      </trkpt>
      <trkpt lat="48.14798" lon="7.334">
        <ele>196.3</ele>
        <time>2019-08-09T15:02:39Z</time>
      </trkpt>
      <trkpt lat="48.14795" lon="7.33393">
        <ele>196.3</ele>
        <time>2019-08-09T15:02:40Z</time>
      </trkpt>
      <trkpt lat="48.14792" lon="7.33387">
        <ele>196.2</ele>
        <time>2019-08-09T15:02:41Z</time>
      </trkpt>
      <trkpt lat="48.1479" lon="7.33382">
        <ele>196.2</ele>
        <time>2019-08-09T15:02:42Z</time>
      </trkpt>
      <trkpt lat="48.14787" lon="7.33378">
        <ele>196.2</ele>
        <time>2019-08-09T15:02:43Z</time>
      </trkpt>
      <trkpt lat="48.14784" lon="7.33373">
        <ele>196.1</ele>
        <time>2019-08-09T15:02:44Z</time>
      </trkpt>
      <trkpt lat="48.14781" lon="7.33368">
        <ele>196.1</ele>
        <time>2019-08-09T15:02:45Z</time>
      </trkpt>
      <trkpt lat="48.14777" lon="7.33363">
        <ele>196.1</ele>
        <time>2019-08-09T15:02:46Z</time>
      </trkpt>
      <trkpt lat="48.14774" lon="7.33357">
        <ele>196.1</ele>
        <time>2019-08-09T15:02:47Z</time>
      </trkpt>
      <trkpt lat="48.14771" lon="7.33352">
        <ele>196.1</ele>
        <time>2019-08-09T15:02:48Z</time>
      </trkpt>
      <trkpt lat="48.14768" lon="7.33346">
        <ele>196.1</ele>
        <time>2019-08-09T15:02:49Z</time>
      </trkpt>
      <trkpt lat="48.14765" lon="7.33341">
        <ele>196.1</ele>
        <time>2019-08-09T15:02:50Z</time>
      </trkpt>
      <trkpt lat="48.14761" lon="7.33336">
        <ele>196.1</ele>
        <time>2019-08-09T15:02:51Z</time>
      </trkpt>
      <trkpt lat="48.14757" lon="7.3333">
        <ele>196.1</ele>
        <time>2019-08-09T15:02:52Z</time>
      </trkpt>
      <trkpt lat="48.14753" lon="7.33324">
        <ele>196.1</ele>
        <time>2019-08-09T15:02:53Z</time>
      </trkpt>
      <trkpt lat="48.1475" lon="7.33319">
        <ele>196.1</ele>
        <time>2019-08-09T15:02:54Z</time>
      </trkpt>
      <trkpt lat="48.14747" lon="7.33314">
        <ele>196.1</ele>
        <time>2019-08-09T15:02:55Z</time>
      </trkpt>
      <trkpt lat="48.14743" lon="7.33309">
        <ele>196.1</ele>
        <time>2019-08-09T15:02:56Z</time>
      </trkpt>
      <trkpt lat="48.14741" lon="7.33303">
        <ele>196.1</ele>
        <time>2019-08-09T15:02:57Z</time>
      </trkpt>
      <trkpt lat="48.14737" lon="7.33297">
        <ele>196.1</ele>
        <time>2019-08-09T15:02:58Z</time>
      </trkpt>
      <trkpt lat="48.14734" lon="7.33292">
        <ele>196.1</ele>
        <time>2019-08-09T15:02:59Z</time>
      </trkpt>
      <trkpt lat="48.14732" lon="7.33286">
        <ele>196.1</ele>
        <time>2019-08-09T15:03:00Z</time>
      </trkpt>
      <trkpt lat="48.14729" lon="7.33281">
        <ele>196</ele>
        <time>2019-08-09T15:03:01Z</time>
      </trkpt>
      <trkpt lat="48.14725" lon="7.33276">
        <ele>196</ele>
        <time>2019-08-09T15:03:02Z</time>
      </trkpt>
      <trkpt lat="48.14722" lon="7.33272">
        <ele>196</ele>
        <time>2019-08-09T15:03:03Z</time>
      </trkpt>
      <trkpt lat="48.14718" lon="7.33268">
        <ele>196</ele>
        <time>2019-08-09T15:03:04Z</time>
      </trkpt>
      <trkpt lat="48.14714" lon="7.33265">
        <ele>196</ele>
        <time>2019-08-09T15:03:05Z</time>
      </trkpt>
      <trkpt lat="48.14711" lon="7.33261">
        <ele>196</ele>
        <time>2019-08-09T15:03:06Z</time>
      </trkpt>
      <trkpt lat="48.14707" lon="7.33256">
        <ele>195.9</ele>
        <time>2019-08-09T15:03:07Z</time>
      </trkpt>
      <trkpt lat="48.14704" lon="7.33252">
        <ele>195.9</ele>
        <time>2019-08-09T15:03:08Z</time>
      </trkpt>
      <trkpt lat="48.147" lon="7.33249">
        <ele>195.9</ele>
        <time>2019-08-09T15:03:09Z</time>
      </trkpt>
      <trkpt lat="48.14697" lon="7.33246">
        <ele>195.9</ele>
        <time>2019-08-09T15:03:10Z</time>
      </trkpt>
      <trkpt lat="48.14693" lon="7.33243">
        <ele>195.9</ele>
        <time>2019-08-09T15:03:11Z</time>
      </trkpt>
      <trkpt lat="48.14689" lon="7.33238">
        <ele>195.9</ele>
        <time>2019-08-09T15:03:12Z</time>
      </trkpt>
      <trkpt lat="48.14686" lon="7.33234">
        <ele>195.8</ele>
        <time>2019-08-09T15:03:13Z</time>
      </trkpt>
      <trkpt lat="48.14682" lon="7.3323">
        <ele>195.8</ele>
        <time>2019-08-09T15:03:14Z</time>
      </trkpt>
      <trkpt lat="48.14678" lon="7.33228">
        <ele>195.8</ele>
        <time>2019-08-09T15:03:15Z</time>
      </trkpt>
      <trkpt lat="48.14674" lon="7.33226">
        <ele>195.7</ele>
        <time>2019-08-09T15:03:16Z</time>
      </trkpt>
      <trkpt lat="48.1467" lon="7.33224">
        <ele>195.6</ele>
        <time>2019-08-09T15:03:17Z</time>
      </trkpt>
      <trkpt lat="48.14667" lon="7.33222">
        <ele>195.6</ele>
        <time>2019-08-09T15:03:18Z</time>
      </trkpt>
      <trkpt lat="48.14663" lon="7.33221">
        <ele>195.5</ele>
        <time>2019-08-09T15:03:19Z</time>
      </trkpt>
      <trkpt lat="48.14659" lon="7.33219">
        <ele>195.5</ele>
        <time>2019-08-09T15:03:20Z</time>
      </trkpt>
      <trkpt lat="48.14655" lon="7.33217">
        <ele>195.4</ele>
        <time>2019-08-09T15:03:21Z</time>
      </trkpt>
      <trkpt lat="48.14651" lon="7.33214">
        <ele>195.4</ele>
        <time>2019-08-09T15:03:22Z</time>
      </trkpt>
      <trkpt lat="48.14647" lon="7.33212">
        <ele>195.4</ele>
        <time>2019-08-09T15:03:23Z</time>
      </trkpt>
      <trkpt lat="48.14643" lon="7.3321">
        <ele>195.3</ele>
        <time>2019-08-09T15:03:24Z</time>
      </trkpt>
      <trkpt lat="48.1464" lon="7.33205">
        <ele>195.3</ele>
        <time>2019-08-09T15:03:25Z</time>
      </trkpt>
      <trkpt lat="48.14636" lon="7.33202">
        <ele>195.3</ele>
        <time>2019-08-09T15:03:26Z</time>
      </trkpt>
      <trkpt lat="48.14633" lon="7.332">
        <ele>195.3</ele>
        <time>2019-08-09T15:03:27Z</time>
      </trkpt>
      <trkpt lat="48.1463" lon="7.33196">
        <ele>195.3</ele>
        <time>2019-08-09T15:03:28Z</time>
      </trkpt>
      <trkpt lat="48.14628" lon="7.33193">
        <ele>195.3</ele>
        <time>2019-08-09T15:03:29Z</time>
      </trkpt>
      <trkpt lat="48.14625" lon="7.33189">
        <ele>195.3</ele>
        <time>2019-08-09T15:03:30Z</time>
      </trkpt>
      <trkpt lat="48.14622" lon="7.33185">
        <ele>195.3</ele>
        <time>2019-08-09T15:03:31Z</time>
      </trkpt>
      <trkpt lat="48.14618" lon="7.3318">
        <ele>195.3</ele>
        <time>2019-08-09T15:03:33Z</time>
      </trkpt>
      <trkpt lat="48.14615" lon="7.33177">
        <ele>195.2</ele>
        <time>2019-08-09T15:03:34Z</time>
      </trkpt>
      <trkpt lat="48.14612" lon="7.33173">
        <ele>195.2</ele>
        <time>2019-08-09T15:03:35Z</time>
      </trkpt>
      <trkpt lat="48.14608" lon="7.3317">
        <ele>195.2</ele>
        <time>2019-08-09T15:03:36Z</time>
      </trkpt>
      <trkpt lat="48.14605" lon="7.33166">
        <ele>195.2</ele>
        <time>2019-08-09T15:03:37Z</time>
      </trkpt>
      <trkpt lat="48.14602" lon="7.33162">
        <ele>195.2</ele>
        <time>2019-08-09T15:03:38Z</time>
      </trkpt>
      <trkpt lat="48.14599" lon="7.33158">
        <ele>195.2</ele>
        <time>2019-08-09T15:03:39Z</time>
      </trkpt>
      <trkpt lat="48.14596" lon="7.33155">
        <ele>195.2</ele>
        <time>2019-08-09T15:03:40Z</time>
      </trkpt>
      <trkpt lat="48.14593" lon="7.33151">
        <ele>195.2</ele>
        <time>2019-08-09T15:03:41Z</time>
      </trkpt>
      <trkpt lat="48.14589" lon="7.33146">
        <ele>195.2</ele>
        <time>2019-08-09T15:03:42Z</time>
      </trkpt>
      <trkpt lat="48.14586" lon="7.33142">
        <ele>195.3</ele>
        <time>2019-08-09T15:03:43Z</time>
      </trkpt>
      <trkpt lat="48.14582" lon="7.33137">
        <ele>195.3</ele>
        <time>2019-08-09T15:03:44Z</time>
      </trkpt>
      <trkpt lat="48.14578" lon="7.33133">
        <ele>195.3</ele>
        <time>2019-08-09T15:03:45Z</time>
      </trkpt>
      <trkpt lat="48.14575" lon="7.33129">
        <ele>195.3</ele>
        <time>2019-08-09T15:03:46Z</time>
      </trkpt>
      <trkpt lat="48.14571" lon="7.33124">
        <ele>195.3</ele>
        <time>2019-08-09T15:03:47Z</time>
      </trkpt>
      <trkpt lat="48.14568" lon="7.3312">
        <ele>195.3</ele>
        <time>2019-08-09T15:03:48Z</time>
      </trkpt>
      <trkpt lat="48.14564" lon="7.33115">
        <ele>195.3</ele>
        <time>2019-08-09T15:03:49Z</time>
      </trkpt>
      <trkpt lat="48.1456" lon="7.33111">
        <ele>195.3</ele>
        <time>2019-08-09T15:03:50Z</time>
      </trkpt>
      <trkpt lat="48.14557" lon="7.33106">
        <ele>195.4</ele>
        <time>2019-08-09T15:03:51Z</time>
      </trkpt>
      <trkpt lat="48.14553" lon="7.33101">
        <ele>195.4</ele>
        <time>2019-08-09T15:03:52Z</time>
      </trkpt>
      <trkpt lat="48.14549" lon="7.33095">
        <ele>195.4</ele>
        <time>2019-08-09T15:03:53Z</time>
      </trkpt>
      <trkpt lat="48.14545" lon="7.3309">
        <ele>195.5</ele>
        <time>2019-08-09T15:03:54Z</time>
      </trkpt>
      <trkpt lat="48.14541" lon="7.33085">
        <ele>195.5</ele>
        <time>2019-08-09T15:03:55Z</time>
      </trkpt>
      <trkpt lat="48.14537" lon="7.33081">
        <ele>195.5</ele>
        <time>2019-08-09T15:03:56Z</time>
      </trkpt>
      <trkpt lat="48.14533" lon="7.33077">
        <ele>195.5</ele>
        <time>2019-08-09T15:03:57Z</time>
      </trkpt>
      <trkpt lat="48.14529" lon="7.33073">
        <ele>195.5</ele>
        <time>2019-08-09T15:03:58Z</time>
      </trkpt>
      <trkpt lat="48.14525" lon="7.3307">
        <ele>195.5</ele>
        <time>2019-08-09T15:03:59Z</time>
      </trkpt>
      <trkpt lat="48.14522" lon="7.33065">
        <ele>195.5</ele>
        <time>2019-08-09T15:04:00Z</time>
      </trkpt>
      <trkpt lat="48.14518" lon="7.33061">
        <ele>195.5</ele>
        <time>2019-08-09T15:04:01Z</time>
      </trkpt>
      <trkpt lat="48.14513" lon="7.33057">
        <ele>195.5</ele>
        <time>2019-08-09T15:04:02Z</time>
      </trkpt>
      <trkpt lat="48.14509" lon="7.33053">
        <ele>195.5</ele>
        <time>2019-08-09T15:04:03Z</time>
      </trkpt>
      <trkpt lat="48.14506" lon="7.33049">
        <ele>195.5</ele>
        <time>2019-08-09T15:04:04Z</time>
      </trkpt>
      <trkpt lat="48.14501" lon="7.33045">
        <ele>195.5</ele>
        <time>2019-08-09T15:04:05Z</time>
      </trkpt>
      <trkpt lat="48.14497" lon="7.33041">
        <ele>195.6</ele>
        <time>2019-08-09T15:04:06Z</time>
      </trkpt>
      <trkpt lat="48.14493" lon="7.33038">
        <ele>195.6</ele>
        <time>2019-08-09T15:04:07Z</time>
      </trkpt>
      <trkpt lat="48.14489" lon="7.33034">
        <ele>195.6</ele>
        <time>2019-08-09T15:04:08Z</time>
      </trkpt>
      <trkpt lat="48.14486" lon="7.3303">
        <ele>195.6</ele>
        <time>2019-08-09T15:04:09Z</time>
      </trkpt>
      <trkpt lat="48.14482" lon="7.33027">
        <ele>195.6</ele>
        <time>2019-08-09T15:04:10Z</time>
      </trkpt>
      <trkpt lat="48.14478" lon="7.33024">
        <ele>195.7</ele>
        <time>2019-08-09T15:04:11Z</time>
      </trkpt>
      <trkpt lat="48.14476" lon="7.3302">
        <ele>195.8</ele>
        <time>2019-08-09T15:04:12Z</time>
      </trkpt>
      <trkpt lat="48.14472" lon="7.33016">
        <ele>195.7</ele>
        <time>2019-08-09T15:04:14Z</time>
      </trkpt>
      <trkpt lat="48.14469" lon="7.33011">
        <ele>195.7</ele>
        <time>2019-08-09T15:04:16Z</time>
      </trkpt>
      <trkpt lat="48.14467" lon="7.33008">
        <ele>195.7</ele>
        <time>2019-08-09T15:04:17Z</time>
      </trkpt>
      <trkpt lat="48.14465" lon="7.33003">
        <ele>195.7</ele>
        <time>2019-08-09T15:04:18Z</time>
      </trkpt>
      <trkpt lat="48.14462" lon="7.32999">
        <ele>195.6</ele>
        <time>2019-08-09T15:04:19Z</time>
      </trkpt>
      <trkpt lat="48.1446" lon="7.32996">
        <ele>195.6</ele>
        <time>2019-08-09T15:04:20Z</time>
      </trkpt>
      <trkpt lat="48.14457" lon="7.32991">
        <ele>195.5</ele>
        <time>2019-08-09T15:04:21Z</time>
      </trkpt>
      <trkpt lat="48.14454" lon="7.32987">
        <ele>195.5</ele>
        <time>2019-08-09T15:04:22Z</time>
      </trkpt>
      <trkpt lat="48.14451" lon="7.32983">
        <ele>195.4</ele>
        <time>2019-08-09T15:04:23Z</time>
      </trkpt>
      <trkpt lat="48.14447" lon="7.32979">
        <ele>195.3</ele>
        <time>2019-08-09T15:04:24Z</time>
      </trkpt>
      <trkpt lat="48.14444" lon="7.32974">
        <ele>195.3</ele>
        <time>2019-08-09T15:04:25Z</time>
      </trkpt>
      <trkpt lat="48.1444" lon="7.3297">
        <ele>195.2</ele>
        <time>2019-08-09T15:04:26Z</time>
      </trkpt>
      <trkpt lat="48.14437" lon="7.32965">
        <ele>195.2</ele>
        <time>2019-08-09T15:04:27Z</time>
      </trkpt>
      <trkpt lat="48.14433" lon="7.32962">
        <ele>195.1</ele>
        <time>2019-08-09T15:04:28Z</time>
      </trkpt>
      <trkpt lat="48.14429" lon="7.32957">
        <ele>195.1</ele>
        <time>2019-08-09T15:04:29Z</time>
      </trkpt>
      <trkpt lat="48.14426" lon="7.32952">
        <ele>195.1</ele>
        <time>2019-08-09T15:04:30Z</time>
      </trkpt>
      <trkpt lat="48.14422" lon="7.32948">
        <ele>195</ele>
        <time>2019-08-09T15:04:31Z</time>
      </trkpt>
      <trkpt lat="48.14418" lon="7.32941">
        <ele>195</ele>
        <time>2019-08-09T15:04:32Z</time>
      </trkpt>
      <trkpt lat="48.14415" lon="7.32937">
        <ele>195</ele>
        <time>2019-08-09T15:04:33Z</time>
      </trkpt>
      <trkpt lat="48.14412" lon="7.32933">
        <ele>195</ele>
        <time>2019-08-09T15:04:34Z</time>
      </trkpt>
      <trkpt lat="48.14408" lon="7.32928">
        <ele>195</ele>
        <time>2019-08-09T15:04:35Z</time>
      </trkpt>
      <trkpt lat="48.14405" lon="7.32923">
        <ele>195</ele>
        <time>2019-08-09T15:04:36Z</time>
      </trkpt>
      <trkpt lat="48.14402" lon="7.32918">
        <ele>195.1</ele>
        <time>2019-08-09T15:04:37Z</time>
      </trkpt>
      <trkpt lat="48.14398" lon="7.32913">
        <ele>195.1</ele>
        <time>2019-08-09T15:04:38Z</time>
      </trkpt>
      <trkpt lat="48.14396" lon="7.32907">
        <ele>195.2</ele>
        <time>2019-08-09T15:04:39Z</time>
      </trkpt>
      <trkpt lat="48.14393" lon="7.32903">
        <ele>195.2</ele>
        <time>2019-08-09T15:04:40Z</time>
      </trkpt>
      <trkpt lat="48.14389" lon="7.32897">
        <ele>195.3</ele>
        <time>2019-08-09T15:04:41Z</time>
      </trkpt>
      <trkpt lat="48.14386" lon="7.32893">
        <ele>195.4</ele>
        <time>2019-08-09T15:04:42Z</time>
      </trkpt>
      <trkpt lat="48.14383" lon="7.32889">
        <ele>195.5</ele>
        <time>2019-08-09T15:04:43Z</time>
      </trkpt>
      <trkpt lat="48.1438" lon="7.32884">
        <ele>195.6</ele>
        <time>2019-08-09T15:04:44Z</time>
      </trkpt>
      <trkpt lat="48.14377" lon="7.32879">
        <ele>195.7</ele>
        <time>2019-08-09T15:04:45Z</time>
      </trkpt>
      <trkpt lat="48.14375" lon="7.32873">
        <ele>195.8</ele>
        <time>2019-08-09T15:04:46Z</time>
      </trkpt>
      <trkpt lat="48.14372" lon="7.32867">
        <ele>195.9</ele>
        <time>2019-08-09T15:04:47Z</time>
      </trkpt>
      <trkpt lat="48.14369" lon="7.32861">
        <ele>196</ele>
        <time>2019-08-09T15:04:48Z</time>
      </trkpt>
      <trkpt lat="48.14366" lon="7.32857">
        <ele>196</ele>
        <time>2019-08-09T15:04:49Z</time>
      </trkpt>
      <trkpt lat="48.14364" lon="7.32852">
        <ele>196</ele>
        <time>2019-08-09T15:04:50Z</time>
      </trkpt>
      <trkpt lat="48.14361" lon="7.32847">
        <ele>196.1</ele>
        <time>2019-08-09T15:04:51Z</time>
      </trkpt>
      <trkpt lat="48.14358" lon="7.32843">
        <ele>196.1</ele>
        <time>2019-08-09T15:04:52Z</time>
      </trkpt>
      <trkpt lat="48.14356" lon="7.32838">
        <ele>196.1</ele>
        <time>2019-08-09T15:04:53Z</time>
      </trkpt>
      <trkpt lat="48.14353" lon="7.32834">
        <ele>196.1</ele>
        <time>2019-08-09T15:04:54Z</time>
      </trkpt>
      <trkpt lat="48.1435" lon="7.3283">
        <ele>196.1</ele>
        <time>2019-08-09T15:04:55Z</time>
      </trkpt>
      <trkpt lat="48.14348" lon="7.32825">
        <ele>196.1</ele>
        <time>2019-08-09T15:04:56Z</time>
      </trkpt>
      <trkpt lat="48.14345" lon="7.32821">
        <ele>196.1</ele>
        <time>2019-08-09T15:04:57Z</time>
      </trkpt>
      <trkpt lat="48.14342" lon="7.32816">
        <ele>196.1</ele>
        <time>2019-08-09T15:04:58Z</time>
      </trkpt>
      <trkpt lat="48.1434" lon="7.32811">
        <ele>196.1</ele>
        <time>2019-08-09T15:04:59Z</time>
      </trkpt>
      <trkpt lat="48.14337" lon="7.32808">
        <ele>196.2</ele>
        <time>2019-08-09T15:05:00Z</time>
      </trkpt>
      <trkpt lat="48.14335" lon="7.32805">
        <ele>196.2</ele>
        <time>2019-08-09T15:05:01Z</time>
      </trkpt>
      <trkpt lat="48.14332" lon="7.32802">
        <ele>196.2</ele>
        <time>2019-08-09T15:05:02Z</time>
      </trkpt>
      <trkpt lat="48.14328" lon="7.32798">
        <ele>196.2</ele>
        <time>2019-08-09T15:05:03Z</time>
      </trkpt>
      <trkpt lat="48.14325" lon="7.32794">
        <ele>196.2</ele>
        <time>2019-08-09T15:05:04Z</time>
      </trkpt>
      <trkpt lat="48.14322" lon="7.3279">
        <ele>196.2</ele>
        <time>2019-08-09T15:05:05Z</time>
      </trkpt>
      <trkpt lat="48.14318" lon="7.32787">
        <ele>196.2</ele>
        <time>2019-08-09T15:05:06Z</time>
      </trkpt>
      <trkpt lat="48.14314" lon="7.32785">
        <ele>196.2</ele>
        <time>2019-08-09T15:05:07Z</time>
      </trkpt>
      <trkpt lat="48.1431" lon="7.32783">
        <ele>196.2</ele>
        <time>2019-08-09T15:05:08Z</time>
      </trkpt>
      <trkpt lat="48.14307" lon="7.32782">
        <ele>196.3</ele>
        <time>2019-08-09T15:05:09Z</time>
      </trkpt>
      <trkpt lat="48.14304" lon="7.32779">
        <ele>196.3</ele>
        <time>2019-08-09T15:05:10Z</time>
      </trkpt>
      <trkpt lat="48.14301" lon="7.32779">
        <ele>196.3</ele>
        <time>2019-08-09T15:05:11Z</time>
      </trkpt>
      <trkpt lat="48.14298" lon="7.32778">
        <ele>196.3</ele>
        <time>2019-08-09T15:05:12Z</time>
      </trkpt>
      <trkpt lat="48.14295" lon="7.32776">
        <ele>196.3</ele>
        <time>2019-08-09T15:05:13Z</time>
      </trkpt>
      <trkpt lat="48.1429" lon="7.32772">
        <ele>196.4</ele>
        <time>2019-08-09T15:05:15Z</time>
      </trkpt>
      <trkpt lat="48.14288" lon="7.3277">
        <ele>196.4</ele>
        <time>2019-08-09T15:05:16Z</time>
      </trkpt>
      <trkpt lat="48.14283" lon="7.32766">
        <ele>196.5</ele>
        <time>2019-08-09T15:05:18Z</time>
      </trkpt>
      <trkpt lat="48.1428" lon="7.32763">
        <ele>196.5</ele>
        <time>2019-08-09T15:05:19Z</time>
      </trkpt>
      <trkpt lat="48.14276" lon="7.3276">
        <ele>196.6</ele>
        <time>2019-08-09T15:05:20Z</time>
      </trkpt>
      <trkpt lat="48.14273" lon="7.32756">
        <ele>196.7</ele>
        <time>2019-08-09T15:05:21Z</time>
      </trkpt>
      <trkpt lat="48.1427" lon="7.32753">
        <ele>196.7</ele>
        <time>2019-08-09T15:05:22Z</time>
      </trkpt>
      <trkpt lat="48.14264" lon="7.32751">
        <ele>196.8</ele>
        <time>2019-08-09T15:05:24Z</time>
      </trkpt>
      <trkpt lat="48.14261" lon="7.32749">
        <ele>196.9</ele>
        <time>2019-08-09T15:05:25Z</time>
      </trkpt>
      <trkpt lat="48.14258" lon="7.32748">
        <ele>196.9</ele>
        <time>2019-08-09T15:05:26Z</time>
      </trkpt>
      <trkpt lat="48.14255" lon="7.32746">
        <ele>197</ele>
        <time>2019-08-09T15:05:27Z</time>
      </trkpt>
      <trkpt lat="48.14252" lon="7.32745">
        <ele>197</ele>
        <time>2019-08-09T15:05:28Z</time>
      </trkpt>
      <trkpt lat="48.14249" lon="7.32743">
        <ele>197.1</ele>
        <time>2019-08-09T15:05:29Z</time>
      </trkpt>
      <trkpt lat="48.14244" lon="7.32741">
        <ele>197.2</ele>
        <time>2019-08-09T15:05:31Z</time>
      </trkpt>
      <trkpt lat="48.1424" lon="7.3274">
        <ele>197.2</ele>
        <time>2019-08-09T15:05:33Z</time>
      </trkpt>
      <trkpt lat="48.14237" lon="7.32742">
        <ele>197.3</ele>
        <time>2019-08-09T15:05:44Z</time>
      </trkpt>
      <trkpt lat="48.14234" lon="7.32739">
        <ele>197.3</ele>
        <time>2019-08-09T15:05:53Z</time>
      </trkpt>
      <trkpt lat="48.14231" lon="7.32738">
        <ele>197.4</ele>
        <time>2019-08-09T15:05:55Z</time>
      </trkpt>
      <trkpt lat="48.14227" lon="7.32733">
        <ele>197.5</ele>
        <time>2019-08-09T15:05:57Z</time>
      </trkpt>
      <trkpt lat="48.14225" lon="7.32731">
        <ele>197.6</ele>
        <time>2019-08-09T15:05:58Z</time>
      </trkpt>
      <trkpt lat="48.1422" lon="7.32729">
        <ele>197.7</ele>
        <time>2019-08-09T15:06:00Z</time>
      </trkpt>
      <trkpt lat="48.14215" lon="7.32724">
        <ele>197.9</ele>
        <time>2019-08-09T15:06:02Z</time>
      </trkpt>
      <trkpt lat="48.1421" lon="7.3272">
        <ele>198.1</ele>
        <time>2019-08-09T15:06:04Z</time>
      </trkpt>
      <trkpt lat="48.14207" lon="7.32718">
        <ele>198.2</ele>
        <time>2019-08-09T15:06:05Z</time>
      </trkpt>
      <trkpt lat="48.14202" lon="7.32717">
        <ele>198.4</ele>
        <time>2019-08-09T15:06:07Z</time>
      </trkpt>
      <trkpt lat="48.14197" lon="7.32715">
        <ele>198.6</ele>
        <time>2019-08-09T15:06:09Z</time>
      </trkpt>
      <trkpt lat="48.14192" lon="7.32712">
        <ele>198.7</ele>
        <time>2019-08-09T15:06:11Z</time>
      </trkpt>
      <trkpt lat="48.1419" lon="7.3271">
        <ele>198.8</ele>
        <time>2019-08-09T15:06:12Z</time>
      </trkpt>
      <trkpt lat="48.14187" lon="7.32706">
        <ele>198.9</ele>
        <time>2019-08-09T15:06:13Z</time>
      </trkpt>
      <trkpt lat="48.14184" lon="7.32704">
        <ele>199</ele>
        <time>2019-08-09T15:06:14Z</time>
      </trkpt>
      <trkpt lat="48.14182" lon="7.32702">
        <ele>199.2</ele>
        <time>2019-08-09T15:06:15Z</time>
      </trkpt>
      <trkpt lat="48.14177" lon="7.32698">
        <ele>199.2</ele>
        <time>2019-08-09T15:06:17Z</time>
      </trkpt>
      <trkpt lat="48.14174" lon="7.32695">
        <ele>199.3</ele>
        <time>2019-08-09T15:06:18Z</time>
      </trkpt>
      <trkpt lat="48.14171" lon="7.32694">
        <ele>199.3</ele>
        <time>2019-08-09T15:06:19Z</time>
      </trkpt>
      <trkpt lat="48.14168" lon="7.32692">
        <ele>199.4</ele>
        <time>2019-08-09T15:06:20Z</time>
      </trkpt>
      <trkpt lat="48.14165" lon="7.32691">
        <ele>199.4</ele>
        <time>2019-08-09T15:06:21Z</time>
      </trkpt>
      <trkpt lat="48.14162" lon="7.32688">
        <ele>199.5</ele>
        <time>2019-08-09T15:06:22Z</time>
      </trkpt>
      <trkpt lat="48.14159" lon="7.32685">
        <ele>199.5</ele>
        <time>2019-08-09T15:06:23Z</time>
      </trkpt>
      <trkpt lat="48.14155" lon="7.32682">
        <ele>199.5</ele>
        <time>2019-08-09T15:06:24Z</time>
      </trkpt>
      <trkpt lat="48.14152" lon="7.32679">
        <ele>199.6</ele>
        <time>2019-08-09T15:06:25Z</time>
      </trkpt>
      <trkpt lat="48.14149" lon="7.32677">
        <ele>199.6</ele>
        <time>2019-08-09T15:06:26Z</time>
      </trkpt>
      <trkpt lat="48.14146" lon="7.32675">
        <ele>199.7</ele>
        <time>2019-08-09T15:06:27Z</time>
      </trkpt>
      <trkpt lat="48.14144" lon="7.32671">
        <ele>199.7</ele>
        <time>2019-08-09T15:06:28Z</time>
      </trkpt>
      <trkpt lat="48.1414" lon="7.32668">
        <ele>199.8</ele>
        <time>2019-08-09T15:06:29Z</time>
      </trkpt>
      <trkpt lat="48.14136" lon="7.32664">
        <ele>200</ele>
        <time>2019-08-09T15:06:30Z</time>
      </trkpt>
      <trkpt lat="48.14133" lon="7.32661">
        <ele>200.1</ele>
        <time>2019-08-09T15:06:31Z</time>
      </trkpt>
      <trkpt lat="48.14129" lon="7.32659">
        <ele>200.1</ele>
        <time>2019-08-09T15:06:32Z</time>
      </trkpt>
      <trkpt lat="48.14126" lon="7.32657">
        <ele>200.2</ele>
        <time>2019-08-09T15:06:33Z</time>
      </trkpt>
      <trkpt lat="48.14123" lon="7.32654">
        <ele>200.2</ele>
        <time>2019-08-09T15:06:34Z</time>
      </trkpt>
      <trkpt lat="48.14119" lon="7.32651">
        <ele>200.2</ele>
        <time>2019-08-09T15:06:35Z</time>
      </trkpt>
      <trkpt lat="48.14116" lon="7.32648">
        <ele>200.3</ele>
        <time>2019-08-09T15:06:36Z</time>
      </trkpt>
      <trkpt lat="48.14112" lon="7.32645">
        <ele>200.3</ele>
        <time>2019-08-09T15:06:37Z</time>
      </trkpt>
      <trkpt lat="48.1411" lon="7.32642">
        <ele>200.3</ele>
        <time>2019-08-09T15:06:38Z</time>
      </trkpt>
      <trkpt lat="48.14107" lon="7.32638">
        <ele>200.3</ele>
        <time>2019-08-09T15:06:39Z</time>
      </trkpt>
      <trkpt lat="48.14103" lon="7.32637">
        <ele>200.3</ele>
        <time>2019-08-09T15:06:40Z</time>
      </trkpt>
      <trkpt lat="48.141" lon="7.32635">
        <ele>200.4</ele>
        <time>2019-08-09T15:06:41Z</time>
      </trkpt>
      <trkpt lat="48.14097" lon="7.32633">
        <ele>200.4</ele>
        <time>2019-08-09T15:06:42Z</time>
      </trkpt>
      <trkpt lat="48.14094" lon="7.3263">
        <ele>200.4</ele>
        <time>2019-08-09T15:06:43Z</time>
      </trkpt>
      <trkpt lat="48.14091" lon="7.32628">
        <ele>200.4</ele>
        <time>2019-08-09T15:06:44Z</time>
      </trkpt>
      <trkpt lat="48.14087" lon="7.32625">
        <ele>200.5</ele>
        <time>2019-08-09T15:06:45Z</time>
      </trkpt>
      <trkpt lat="48.14083" lon="7.32623">
        <ele>200.5</ele>
        <time>2019-08-09T15:06:46Z</time>
      </trkpt>
      <trkpt lat="48.1408" lon="7.32621">
        <ele>200.5</ele>
        <time>2019-08-09T15:06:47Z</time>
      </trkpt>
      <trkpt lat="48.14077" lon="7.3262">
        <ele>200.5</ele>
        <time>2019-08-09T15:06:48Z</time>
      </trkpt>
      <trkpt lat="48.14074" lon="7.32618">
        <ele>200.6</ele>
        <time>2019-08-09T15:06:49Z</time>
      </trkpt>
      <trkpt lat="48.14071" lon="7.32615">
        <ele>200.6</ele>
        <time>2019-08-09T15:06:50Z</time>
      </trkpt>
      <trkpt lat="48.14068" lon="7.32612">
        <ele>200.6</ele>
        <time>2019-08-09T15:06:51Z</time>
      </trkpt>
      <trkpt lat="48.14065" lon="7.3261">
        <ele>200.6</ele>
        <time>2019-08-09T15:06:52Z</time>
      </trkpt>
      <trkpt lat="48.14062" lon="7.32607">
        <ele>200.5</ele>
        <time>2019-08-09T15:06:53Z</time>
      </trkpt>
      <trkpt lat="48.14059" lon="7.32604">
        <ele>200.5</ele>
        <time>2019-08-09T15:06:54Z</time>
      </trkpt>
      <trkpt lat="48.14056" lon="7.32602">
        <ele>200.4</ele>
        <time>2019-08-09T15:06:55Z</time>
      </trkpt>
      <trkpt lat="48.14054" lon="7.32599">
        <ele>200.3</ele>
        <time>2019-08-09T15:06:56Z</time>
      </trkpt>
      <trkpt lat="48.14051" lon="7.32597">
        <ele>200.2</ele>
        <time>2019-08-09T15:06:57Z</time>
      </trkpt>
      <trkpt lat="48.14048" lon="7.32593">
        <ele>200</ele>
        <time>2019-08-09T15:06:58Z</time>
      </trkpt>
      <trkpt lat="48.14045" lon="7.3259">
        <ele>199.9</ele>
        <time>2019-08-09T15:06:59Z</time>
      </trkpt>
      <trkpt lat="48.14042" lon="7.32588">
        <ele>199.8</ele>
        <time>2019-08-09T15:07:00Z</time>
      </trkpt>
      <trkpt lat="48.1404" lon="7.32586">
        <ele>199.7</ele>
        <time>2019-08-09T15:07:01Z</time>
      </trkpt>
      <trkpt lat="48.14037" lon="7.32584">
        <ele>199.6</ele>
        <time>2019-08-09T15:07:02Z</time>
      </trkpt>
      <trkpt lat="48.14034" lon="7.32582">
        <ele>199.5</ele>
        <time>2019-08-09T15:07:03Z</time>
      </trkpt>
      <trkpt lat="48.14031" lon="7.3258">
        <ele>199.3</ele>
        <time>2019-08-09T15:07:04Z</time>
      </trkpt>
      <trkpt lat="48.14028" lon="7.32578">
        <ele>199.2</ele>
        <time>2019-08-09T15:07:05Z</time>
      </trkpt>
      <trkpt lat="48.14026" lon="7.32575">
        <ele>199.1</ele>
        <time>2019-08-09T15:07:06Z</time>
      </trkpt>
      <trkpt lat="48.14023" lon="7.32573">
        <ele>199</ele>
        <time>2019-08-09T15:07:07Z</time>
      </trkpt>
      <trkpt lat="48.14021" lon="7.3257">
        <ele>198.9</ele>
        <time>2019-08-09T15:07:08Z</time>
      </trkpt>
      <trkpt lat="48.14017" lon="7.32566">
        <ele>198.7</ele>
        <time>2019-08-09T15:07:10Z</time>
      </trkpt>
      <trkpt lat="48.14014" lon="7.32565">
        <ele>198.6</ele>
        <time>2019-08-09T15:07:11Z</time>
      </trkpt>
      <trkpt lat="48.14009" lon="7.32562">
        <ele>198.4</ele>
        <time>2019-08-09T15:07:13Z</time>
      </trkpt>
      <trkpt lat="48.14007" lon="7.32559">
        <ele>198.3</ele>
        <time>2019-08-09T15:07:14Z</time>
      </trkpt>
      <trkpt lat="48.14005" lon="7.32557">
        <ele>198.2</ele>
        <time>2019-08-09T15:07:15Z</time>
      </trkpt>
      <trkpt lat="48.14002" lon="7.32555">
        <ele>197.9</ele>
        <time>2019-08-09T15:07:16Z</time>
      </trkpt>
      <trkpt lat="48.13999" lon="7.32554">
        <ele>197.7</ele>
        <time>2019-08-09T15:07:17Z</time>
      </trkpt>
      <trkpt lat="48.13993" lon="7.32552">
        <ele>197.5</ele>
        <time>2019-08-09T15:07:19Z</time>
      </trkpt>
      <trkpt lat="48.13989" lon="7.32555">
        <ele>197.3</ele>
        <time>2019-08-09T15:07:21Z</time>
      </trkpt>
      <trkpt lat="48.13991" lon="7.3256">
        <ele>197.2</ele>
        <time>2019-08-09T15:07:23Z</time>
      </trkpt>
      <trkpt lat="48.13989" lon="7.32565">
        <ele>197.1</ele>
        <time>2019-08-09T15:07:25Z</time>
      </trkpt>
      <trkpt lat="48.13987" lon="7.32569">
        <ele>197.1</ele>
        <time>2019-08-09T15:07:26Z</time>
      </trkpt>
      <trkpt lat="48.13986" lon="7.32573">
        <ele>197</ele>
        <time>2019-08-09T15:07:27Z</time>
      </trkpt>
      <trkpt lat="48.13985" lon="7.32579">
        <ele>196.9</ele>
        <time>2019-08-09T15:07:28Z</time>
      </trkpt>
      <trkpt lat="48.13984" lon="7.32586">
        <ele>196.7</ele>
        <time>2019-08-09T15:07:29Z</time>
      </trkpt>
      <trkpt lat="48.13981" lon="7.32593">
        <ele>196.5</ele>
        <time>2019-08-09T15:07:30Z</time>
      </trkpt>
      <trkpt lat="48.13979" lon="7.32602">
        <ele>196.4</ele>
        <time>2019-08-09T15:07:31Z</time>
      </trkpt>
      <trkpt lat="48.13975" lon="7.3261">
        <ele>196.3</ele>
        <time>2019-08-09T15:07:32Z</time>
      </trkpt>
      <trkpt lat="48.13972" lon="7.32619">
        <ele>196.2</ele>
        <time>2019-08-09T15:07:33Z</time>
      </trkpt>
      <trkpt lat="48.13969" lon="7.32628">
        <ele>196.2</ele>
        <time>2019-08-09T15:07:34Z</time>
      </trkpt>
      <trkpt lat="48.13965" lon="7.32639">
        <ele>196.1</ele>
        <time>2019-08-09T15:07:35Z</time>
      </trkpt>
      <trkpt lat="48.13963" lon="7.32649">
        <ele>196</ele>
        <time>2019-08-09T15:07:36Z</time>
      </trkpt>
      <trkpt lat="48.1396" lon="7.32659">
        <ele>195.9</ele>
        <time>2019-08-09T15:07:37Z</time>
      </trkpt>
      <trkpt lat="48.13957" lon="7.32669">
        <ele>195.8</ele>
        <time>2019-08-09T15:07:38Z</time>
      </trkpt>
      <trkpt lat="48.13955" lon="7.32677">
        <ele>195.8</ele>
        <time>2019-08-09T15:07:39Z</time>
      </trkpt>
      <trkpt lat="48.13953" lon="7.32684">
        <ele>195.7</ele>
        <time>2019-08-09T15:07:40Z</time>
      </trkpt>
      <trkpt lat="48.13952" lon="7.32691">
        <ele>195.7</ele>
        <time>2019-08-09T15:07:41Z</time>
      </trkpt>
      <trkpt lat="48.1395" lon="7.32696">
        <ele>195.7</ele>
        <time>2019-08-09T15:07:42Z</time>
      </trkpt>
      <trkpt lat="48.13948" lon="7.32701">
        <ele>195.7</ele>
        <time>2019-08-09T15:07:43Z</time>
      </trkpt>
      <trkpt lat="48.13946" lon="7.32704">
        <ele>195.7</ele>
        <time>2019-08-09T15:07:44Z</time>
      </trkpt>
      <trkpt lat="48.13943" lon="7.32706">
        <ele>195.7</ele>
        <time>2019-08-09T15:07:45Z</time>
      </trkpt>
      <trkpt lat="48.1394" lon="7.32704">
        <ele>195.7</ele>
        <time>2019-08-09T15:07:46Z</time>
      </trkpt>
      <trkpt lat="48.13936" lon="7.32703">
        <ele>195.7</ele>
        <time>2019-08-09T15:07:47Z</time>
      </trkpt>
      <trkpt lat="48.13933" lon="7.32701">
        <ele>195.7</ele>
        <time>2019-08-09T15:07:48Z</time>
      </trkpt>
      <trkpt lat="48.13929" lon="7.327">
        <ele>195.7</ele>
        <time>2019-08-09T15:07:49Z</time>
      </trkpt>
      <trkpt lat="48.13925" lon="7.32698">
        <ele>195.7</ele>
        <time>2019-08-09T15:07:50Z</time>
      </trkpt>
      <trkpt lat="48.13921" lon="7.32698">
        <ele>195.7</ele>
        <time>2019-08-09T15:07:51Z</time>
      </trkpt>
      <trkpt lat="48.13918" lon="7.32697">
        <ele>195.7</ele>
        <time>2019-08-09T15:07:52Z</time>
      </trkpt>
      <trkpt lat="48.13914" lon="7.32696">
        <ele>195.7</ele>
        <time>2019-08-09T15:07:53Z</time>
      </trkpt>
      <trkpt lat="48.13911" lon="7.32695">
        <ele>195.7</ele>
        <time>2019-08-09T15:07:54Z</time>
      </trkpt>
      <trkpt lat="48.13907" lon="7.32695">
        <ele>195.8</ele>
        <time>2019-08-09T15:07:55Z</time>
      </trkpt>
      <trkpt lat="48.13903" lon="7.32695">
        <ele>195.8</ele>
        <time>2019-08-09T15:07:56Z</time>
      </trkpt>
      <trkpt lat="48.13898" lon="7.32695">
        <ele>195.8</ele>
        <time>2019-08-09T15:07:57Z</time>
      </trkpt>
      <trkpt lat="48.13894" lon="7.32695">
        <ele>195.8</ele>
        <time>2019-08-09T15:07:58Z</time>
      </trkpt>
      <trkpt lat="48.13891" lon="7.32694">
        <ele>195.8</ele>
        <time>2019-08-09T15:07:59Z</time>
      </trkpt>
      <trkpt lat="48.13887" lon="7.32693">
        <ele>195.8</ele>
        <time>2019-08-09T15:08:00Z</time>
      </trkpt>
      <trkpt lat="48.13883" lon="7.32692">
        <ele>195.8</ele>
        <time>2019-08-09T15:08:01Z</time>
      </trkpt>
      <trkpt lat="48.13879" lon="7.32692">
        <ele>195.8</ele>
        <time>2019-08-09T15:08:02Z</time>
      </trkpt>
      <trkpt lat="48.13875" lon="7.3269">
        <ele>195.8</ele>
        <time>2019-08-09T15:08:03Z</time>
      </trkpt>
      <trkpt lat="48.13871" lon="7.3269">
        <ele>195.8</ele>
        <time>2019-08-09T15:08:04Z</time>
      </trkpt>
      <trkpt lat="48.13866" lon="7.3269">
        <ele>195.8</ele>
        <time>2019-08-09T15:08:05Z</time>
      </trkpt>
      <trkpt lat="48.13861" lon="7.32689">
        <ele>195.8</ele>
        <time>2019-08-09T15:08:06Z</time>
      </trkpt>
      <trkpt lat="48.13857" lon="7.32689">
        <ele>195.9</ele>
        <time>2019-08-09T15:08:07Z</time>
      </trkpt>
      <trkpt lat="48.13853" lon="7.32687">
        <ele>195.9</ele>
        <time>2019-08-09T15:08:08Z</time>
      </trkpt>
      <trkpt lat="48.13849" lon="7.32687">
        <ele>195.9</ele>
        <time>2019-08-09T15:08:09Z</time>
      </trkpt>
      <trkpt lat="48.13844" lon="7.32687">
        <ele>195.9</ele>
        <time>2019-08-09T15:08:10Z</time>
      </trkpt>
      <trkpt lat="48.1384" lon="7.32688">
        <ele>195.9</ele>
        <time>2019-08-09T15:08:11Z</time>
      </trkpt>
      <trkpt lat="48.13836" lon="7.32688">
        <ele>195.9</ele>
        <time>2019-08-09T15:08:12Z</time>
      </trkpt>
      <trkpt lat="48.13832" lon="7.32688">
        <ele>195.9</ele>
        <time>2019-08-09T15:08:13Z</time>
      </trkpt>
      <trkpt lat="48.13827" lon="7.32687">
        <ele>195.9</ele>
        <time>2019-08-09T15:08:14Z</time>
      </trkpt>
      <trkpt lat="48.13822" lon="7.32685">
        <ele>195.9</ele>
        <time>2019-08-09T15:08:15Z</time>
      </trkpt>
      <trkpt lat="48.13818" lon="7.32684">
        <ele>195.9</ele>
        <time>2019-08-09T15:08:16Z</time>
      </trkpt>
      <trkpt lat="48.13814" lon="7.32683">
        <ele>195.9</ele>
        <time>2019-08-09T15:08:17Z</time>
      </trkpt>
      <trkpt lat="48.1381" lon="7.32681">
        <ele>195.9</ele>
        <time>2019-08-09T15:08:18Z</time>
      </trkpt>
      <trkpt lat="48.13805" lon="7.32681">
        <ele>195.9</ele>
        <time>2019-08-09T15:08:19Z</time>
      </trkpt>
      <trkpt lat="48.13799" lon="7.3268">
        <ele>195.9</ele>
        <time>2019-08-09T15:08:20Z</time>
      </trkpt>
      <trkpt lat="48.13795" lon="7.3268">
        <ele>195.9</ele>
        <time>2019-08-09T15:08:21Z</time>
      </trkpt>
      <trkpt lat="48.13791" lon="7.3268">
        <ele>195.9</ele>
        <time>2019-08-09T15:08:22Z</time>
      </trkpt>
      <trkpt lat="48.13787" lon="7.32679">
        <ele>195.9</ele>
        <time>2019-08-09T15:08:23Z</time>
      </trkpt>
      <trkpt lat="48.13783" lon="7.32679">
        <ele>195.9</ele>
        <time>2019-08-09T15:08:24Z</time>
      </trkpt>
      <trkpt lat="48.13778" lon="7.32678">
        <ele>195.8</ele>
        <time>2019-08-09T15:08:25Z</time>
      </trkpt>
      <trkpt lat="48.13773" lon="7.32678">
        <ele>195.8</ele>
        <time>2019-08-09T15:08:26Z</time>
      </trkpt>
      <trkpt lat="48.1377" lon="7.32677">
        <ele>195.8</ele>
        <time>2019-08-09T15:08:27Z</time>
      </trkpt>
      <trkpt lat="48.13767" lon="7.32676">
        <ele>195.8</ele>
        <time>2019-08-09T15:08:28Z</time>
      </trkpt>
      <trkpt lat="48.13764" lon="7.32675">
        <ele>195.8</ele>
        <time>2019-08-09T15:08:29Z</time>
      </trkpt>
      <trkpt lat="48.1376" lon="7.32675">
        <ele>195.8</ele>
        <time>2019-08-09T15:08:30Z</time>
      </trkpt>
      <trkpt lat="48.13757" lon="7.32673">
        <ele>195.8</ele>
        <time>2019-08-09T15:08:31Z</time>
      </trkpt>
      <trkpt lat="48.13751" lon="7.32672">
        <ele>195.8</ele>
        <time>2019-08-09T15:08:33Z</time>
      </trkpt>
      <trkpt lat="48.13748" lon="7.32672">
        <ele>195.8</ele>
        <time>2019-08-09T15:08:34Z</time>
      </trkpt>
      <trkpt lat="48.13743" lon="7.32671">
        <ele>195.8</ele>
        <time>2019-08-09T15:08:35Z</time>
      </trkpt>
      <trkpt lat="48.1374" lon="7.3267">
        <ele>195.8</ele>
        <time>2019-08-09T15:08:36Z</time>
      </trkpt>
      <trkpt lat="48.13736" lon="7.32669">
        <ele>195.8</ele>
        <time>2019-08-09T15:08:37Z</time>
      </trkpt>
      <trkpt lat="48.13733" lon="7.32668">
        <ele>195.8</ele>
        <time>2019-08-09T15:08:38Z</time>
      </trkpt>
      <trkpt lat="48.13729" lon="7.32667">
        <ele>195.8</ele>
        <time>2019-08-09T15:08:39Z</time>
      </trkpt>
      <trkpt lat="48.13725" lon="7.32665">
        <ele>195.8</ele>
        <time>2019-08-09T15:08:40Z</time>
      </trkpt>
      <trkpt lat="48.13722" lon="7.32663">
        <ele>195.8</ele>
        <time>2019-08-09T15:08:41Z</time>
      </trkpt>
      <trkpt lat="48.13719" lon="7.32662">
        <ele>195.8</ele>
        <time>2019-08-09T15:08:42Z</time>
      </trkpt>
      <trkpt lat="48.13715" lon="7.32661">
        <ele>195.8</ele>
        <time>2019-08-09T15:08:43Z</time>
      </trkpt>
      <trkpt lat="48.13712" lon="7.32659">
        <ele>195.8</ele>
        <time>2019-08-09T15:08:44Z</time>
      </trkpt>
      <trkpt lat="48.13707" lon="7.32659">
        <ele>195.7</ele>
        <time>2019-08-09T15:08:45Z</time>
      </trkpt>
      <trkpt lat="48.13703" lon="7.32658">
        <ele>195.7</ele>
        <time>2019-08-09T15:08:46Z</time>
      </trkpt>
      <trkpt lat="48.13698" lon="7.32656">
        <ele>195.7</ele>
        <time>2019-08-09T15:08:47Z</time>
      </trkpt>
      <trkpt lat="48.13694" lon="7.32655">
        <ele>195.7</ele>
        <time>2019-08-09T15:08:48Z</time>
      </trkpt>
      <trkpt lat="48.13688" lon="7.32654">
        <ele>195.7</ele>
        <time>2019-08-09T15:08:49Z</time>
      </trkpt>
      <trkpt lat="48.13684" lon="7.32653">
        <ele>195.7</ele>
        <time>2019-08-09T15:08:50Z</time>
      </trkpt>
      <trkpt lat="48.1368" lon="7.32653">
        <ele>195.7</ele>
        <time>2019-08-09T15:08:51Z</time>
      </trkpt>
      <trkpt lat="48.13675" lon="7.32652">
        <ele>195.7</ele>
        <time>2019-08-09T15:08:52Z</time>
      </trkpt>
      <trkpt lat="48.13671" lon="7.32651">
        <ele>195.6</ele>
        <time>2019-08-09T15:08:53Z</time>
      </trkpt>
      <trkpt lat="48.13666" lon="7.32651">
        <ele>195.6</ele>
        <time>2019-08-09T15:08:54Z</time>
      </trkpt>
      <trkpt lat="48.13661" lon="7.32651">
        <ele>195.6</ele>
        <time>2019-08-09T15:08:55Z</time>
      </trkpt>
      <trkpt lat="48.13657" lon="7.3265">
        <ele>195.6</ele>
        <time>2019-08-09T15:08:56Z</time>
      </trkpt>
      <trkpt lat="48.13652" lon="7.32649">
        <ele>195.6</ele>
        <time>2019-08-09T15:08:57Z</time>
      </trkpt>
      <trkpt lat="48.13648" lon="7.32649">
        <ele>195.6</ele>
        <time>2019-08-09T15:08:58Z</time>
      </trkpt>
      <trkpt lat="48.13644" lon="7.32648">
        <ele>195.5</ele>
        <time>2019-08-09T15:08:59Z</time>
      </trkpt>
      <trkpt lat="48.1364" lon="7.32648">
        <ele>195.5</ele>
        <time>2019-08-09T15:09:00Z</time>
      </trkpt>
      <trkpt lat="48.13636" lon="7.32647">
        <ele>195.5</ele>
        <time>2019-08-09T15:09:01Z</time>
      </trkpt>
      <trkpt lat="48.13632" lon="7.32647">
        <ele>195.5</ele>
        <time>2019-08-09T15:09:02Z</time>
      </trkpt>
      <trkpt lat="48.13627" lon="7.32647">
        <ele>195.4</ele>
        <time>2019-08-09T15:09:03Z</time>
      </trkpt>
      <trkpt lat="48.13622" lon="7.32646">
        <ele>195.4</ele>
        <time>2019-08-09T15:09:04Z</time>
      </trkpt>
      <trkpt lat="48.13618" lon="7.32646">
        <ele>195.3</ele>
        <time>2019-08-09T15:09:05Z</time>
      </trkpt>
      <trkpt lat="48.13613" lon="7.32645">
        <ele>195.3</ele>
        <time>2019-08-09T15:09:06Z</time>
      </trkpt>
      <trkpt lat="48.13609" lon="7.32645">
        <ele>195.3</ele>
        <time>2019-08-09T15:09:07Z</time>
      </trkpt>
      <trkpt lat="48.13605" lon="7.32643">
        <ele>195.2</ele>
        <time>2019-08-09T15:09:08Z</time>
      </trkpt>
      <trkpt lat="48.13601" lon="7.32642">
        <ele>195.1</ele>
        <time>2019-08-09T15:09:09Z</time>
      </trkpt>
      <trkpt lat="48.13597" lon="7.32642">
        <ele>195.1</ele>
        <time>2019-08-09T15:09:10Z</time>
      </trkpt>
      <trkpt lat="48.13592" lon="7.32642">
        <ele>195</ele>
        <time>2019-08-09T15:09:11Z</time>
      </trkpt>
      <trkpt lat="48.13587" lon="7.32643">
        <ele>195</ele>
        <time>2019-08-09T15:09:12Z</time>
      </trkpt>
      <trkpt lat="48.13582" lon="7.32642">
        <ele>194.9</ele>
        <time>2019-08-09T15:09:13Z</time>
      </trkpt>
      <trkpt lat="48.13578" lon="7.32642">
        <ele>194.9</ele>
        <time>2019-08-09T15:09:14Z</time>
      </trkpt>
      <trkpt lat="48.13574" lon="7.32642">
        <ele>194.9</ele>
        <time>2019-08-09T15:09:15Z</time>
      </trkpt>
      <trkpt lat="48.1357" lon="7.32642">
        <ele>194.8</ele>
        <time>2019-08-09T15:09:16Z</time>
      </trkpt>
      <trkpt lat="48.13566" lon="7.32642">
        <ele>194.8</ele>
        <time>2019-08-09T15:09:17Z</time>
      </trkpt>
      <trkpt lat="48.13562" lon="7.32641">
        <ele>194.7</ele>
        <time>2019-08-09T15:09:18Z</time>
      </trkpt>
      <trkpt lat="48.13558" lon="7.32641">
        <ele>194.7</ele>
        <time>2019-08-09T15:09:19Z</time>
      </trkpt>
      <trkpt lat="48.13554" lon="7.3264">
        <ele>194.7</ele>
        <time>2019-08-09T15:09:20Z</time>
      </trkpt>
      <trkpt lat="48.1355" lon="7.32639">
        <ele>194.6</ele>
        <time>2019-08-09T15:09:21Z</time>
      </trkpt>
      <trkpt lat="48.13546" lon="7.32638">
        <ele>194.6</ele>
        <time>2019-08-09T15:09:22Z</time>
      </trkpt>
      <trkpt lat="48.13542" lon="7.32636">
        <ele>194.5</ele>
        <time>2019-08-09T15:09:23Z</time>
      </trkpt>
      <trkpt lat="48.13538" lon="7.32634">
        <ele>194.5</ele>
        <time>2019-08-09T15:09:24Z</time>
      </trkpt>
      <trkpt lat="48.13533" lon="7.3263">
        <ele>194.5</ele>
        <time>2019-08-09T15:09:25Z</time>
      </trkpt>
      <trkpt lat="48.1353" lon="7.32626">
        <ele>194.5</ele>
        <time>2019-08-09T15:09:26Z</time>
      </trkpt>
      <trkpt lat="48.13527" lon="7.32623">
        <ele>194.5</ele>
        <time>2019-08-09T15:09:27Z</time>
      </trkpt>
      <trkpt lat="48.13525" lon="7.32618">
        <ele>194.5</ele>
        <time>2019-08-09T15:09:29Z</time>
      </trkpt>
      <trkpt lat="48.13527" lon="7.32613">
        <ele>194.5</ele>
        <time>2019-08-09T15:09:31Z</time>
      </trkpt>
      <trkpt lat="48.13528" lon="7.32606">
        <ele>194.5</ele>
        <time>2019-08-09T15:09:33Z</time>
      </trkpt>
      <trkpt lat="48.13529" lon="7.32597">
        <ele>194.5</ele>
        <time>2019-08-09T15:09:35Z</time>
      </trkpt>
      <trkpt lat="48.13529" lon="7.32592">
        <ele>194.5</ele>
        <time>2019-08-09T15:09:36Z</time>
      </trkpt>
      <trkpt lat="48.1353" lon="7.32588">
        <ele>194.5</ele>
        <time>2019-08-09T15:09:37Z</time>
      </trkpt>
      <trkpt lat="48.1353" lon="7.32583">
        <ele>194.5</ele>
        <time>2019-08-09T15:09:38Z</time>
      </trkpt>
      <trkpt lat="48.1353" lon="7.32578">
        <ele>194.5</ele>
        <time>2019-08-09T15:09:39Z</time>
      </trkpt>
      <trkpt lat="48.1353" lon="7.32574">
        <ele>194.6</ele>
        <time>2019-08-09T15:09:40Z</time>
      </trkpt>
      <trkpt lat="48.1353" lon="7.32569">
        <ele>194.6</ele>
        <time>2019-08-09T15:09:41Z</time>
      </trkpt>
      <trkpt lat="48.1353" lon="7.32563">
        <ele>194.6</ele>
        <time>2019-08-09T15:09:42Z</time>
      </trkpt>
      <trkpt lat="48.13531" lon="7.32559">
        <ele>194.6</ele>
        <time>2019-08-09T15:09:43Z</time>
      </trkpt>
      <trkpt lat="48.13531" lon="7.32555">
        <ele>194.6</ele>
        <time>2019-08-09T15:09:44Z</time>
      </trkpt>
      <trkpt lat="48.13531" lon="7.3255">
        <ele>194.7</ele>
        <time>2019-08-09T15:09:45Z</time>
      </trkpt>
      <trkpt lat="48.13531" lon="7.32545">
        <ele>194.7</ele>
        <time>2019-08-09T15:09:46Z</time>
      </trkpt>
      <trkpt lat="48.13531" lon="7.32539">
        <ele>194.7</ele>
        <time>2019-08-09T15:09:47Z</time>
      </trkpt>
      <trkpt lat="48.13531" lon="7.32533">
        <ele>194.7</ele>
        <time>2019-08-09T15:09:48Z</time>
      </trkpt>
      <trkpt lat="48.13531" lon="7.32527">
        <ele>194.8</ele>
        <time>2019-08-09T15:09:49Z</time>
      </trkpt>
      <trkpt lat="48.1353" lon="7.32521">
        <ele>194.8</ele>
        <time>2019-08-09T15:09:50Z</time>
      </trkpt>
      <trkpt lat="48.1353" lon="7.32516">
        <ele>194.8</ele>
        <time>2019-08-09T15:09:51Z</time>
      </trkpt>
      <trkpt lat="48.1353" lon="7.3251">
        <ele>194.9</ele>
        <time>2019-08-09T15:09:52Z</time>
      </trkpt>
      <trkpt lat="48.13529" lon="7.32506">
        <ele>194.9</ele>
        <time>2019-08-09T15:09:53Z</time>
      </trkpt>
      <trkpt lat="48.1353" lon="7.325">
        <ele>195</ele>
        <time>2019-08-09T15:09:54Z</time>
      </trkpt>
      <trkpt lat="48.1353" lon="7.32494">
        <ele>195.1</ele>
        <time>2019-08-09T15:09:55Z</time>
      </trkpt>
      <trkpt lat="48.1353" lon="7.32489">
        <ele>195.1</ele>
        <time>2019-08-09T15:09:56Z</time>
      </trkpt>
      <trkpt lat="48.1353" lon="7.32483">
        <ele>195.2</ele>
        <time>2019-08-09T15:09:57Z</time>
      </trkpt>
      <trkpt lat="48.1353" lon="7.32477">
        <ele>195.2</ele>
        <time>2019-08-09T15:09:58Z</time>
      </trkpt>
      <trkpt lat="48.1353" lon="7.32472">
        <ele>195.3</ele>
        <time>2019-08-09T15:09:59Z</time>
      </trkpt>
      <trkpt lat="48.1353" lon="7.32467">
        <ele>195.3</ele>
        <time>2019-08-09T15:10:00Z</time>
      </trkpt>
      <trkpt lat="48.1353" lon="7.32461">
        <ele>195.4</ele>
        <time>2019-08-09T15:10:01Z</time>
      </trkpt>
      <trkpt lat="48.1353" lon="7.32455">
        <ele>195.5</ele>
        <time>2019-08-09T15:10:02Z</time>
      </trkpt>
      <trkpt lat="48.1353" lon="7.32449">
        <ele>195.5</ele>
        <time>2019-08-09T15:10:03Z</time>
      </trkpt>
      <trkpt lat="48.1353" lon="7.32444">
        <ele>195.6</ele>
        <time>2019-08-09T15:10:04Z</time>
      </trkpt>
      <trkpt lat="48.1353" lon="7.32438">
        <ele>195.6</ele>
        <time>2019-08-09T15:10:05Z</time>
      </trkpt>
      <trkpt lat="48.13529" lon="7.32433">
        <ele>195.7</ele>
        <time>2019-08-09T15:10:06Z</time>
      </trkpt>
      <trkpt lat="48.13529" lon="7.32427">
        <ele>195.8</ele>
        <time>2019-08-09T15:10:07Z</time>
      </trkpt>
      <trkpt lat="48.13529" lon="7.32422">
        <ele>195.8</ele>
        <time>2019-08-09T15:10:08Z</time>
      </trkpt>
      <trkpt lat="48.13528" lon="7.32417">
        <ele>195.9</ele>
        <time>2019-08-09T15:10:09Z</time>
      </trkpt>
      <trkpt lat="48.13527" lon="7.32412">
        <ele>196</ele>
        <time>2019-08-09T15:10:10Z</time>
      </trkpt>
      <trkpt lat="48.13527" lon="7.32406">
        <ele>196</ele>
        <time>2019-08-09T15:10:11Z</time>
      </trkpt>
      <trkpt lat="48.13526" lon="7.32401">
        <ele>196.2</ele>
        <time>2019-08-09T15:10:12Z</time>
      </trkpt>
      <trkpt lat="48.13525" lon="7.32396">
        <ele>196.2</ele>
        <time>2019-08-09T15:10:13Z</time>
      </trkpt>
      <trkpt lat="48.13525" lon="7.32391">
        <ele>196.3</ele>
        <time>2019-08-09T15:10:14Z</time>
      </trkpt>
      <trkpt lat="48.13524" lon="7.32386">
        <ele>196.4</ele>
        <time>2019-08-09T15:10:15Z</time>
      </trkpt>
      <trkpt lat="48.13522" lon="7.32381">
        <ele>196.6</ele>
        <time>2019-08-09T15:10:16Z</time>
      </trkpt>
      <trkpt lat="48.13521" lon="7.32377">
        <ele>196.7</ele>
        <time>2019-08-09T15:10:17Z</time>
      </trkpt>
      <trkpt lat="48.1352" lon="7.32373">
        <ele>196.8</ele>
        <time>2019-08-09T15:10:18Z</time>
      </trkpt>
      <trkpt lat="48.13518" lon="7.32369">
        <ele>196.9</ele>
        <time>2019-08-09T15:10:19Z</time>
      </trkpt>
      <trkpt lat="48.13515" lon="7.32366">
        <ele>197.1</ele>
        <time>2019-08-09T15:10:20Z</time>
      </trkpt>
      <trkpt lat="48.13512" lon="7.32364">
        <ele>197.2</ele>
        <time>2019-08-09T15:10:21Z</time>
      </trkpt>
      <trkpt lat="48.13509" lon="7.32361">
        <ele>197.5</ele>
        <time>2019-08-09T15:10:22Z</time>
      </trkpt>
      <trkpt lat="48.13506" lon="7.3236">
        <ele>197.4</ele>
        <time>2019-08-09T15:10:23Z</time>
      </trkpt>
      <trkpt lat="48.13503" lon="7.32358">
        <ele>197.4</ele>
        <time>2019-08-09T15:10:24Z</time>
      </trkpt>
      <trkpt lat="48.13499" lon="7.32355">
        <ele>197.3</ele>
        <time>2019-08-09T15:10:25Z</time>
      </trkpt>
      <trkpt lat="48.13495" lon="7.32353">
        <ele>197.3</ele>
        <time>2019-08-09T15:10:26Z</time>
      </trkpt>
      <trkpt lat="48.13492" lon="7.32352">
        <ele>197.2</ele>
        <time>2019-08-09T15:10:27Z</time>
      </trkpt>
      <trkpt lat="48.13488" lon="7.32351">
        <ele>197.1</ele>
        <time>2019-08-09T15:10:28Z</time>
      </trkpt>
      <trkpt lat="48.13484" lon="7.32351">
        <ele>197.1</ele>
        <time>2019-08-09T15:10:29Z</time>
      </trkpt>
      <trkpt lat="48.1348" lon="7.3235">
        <ele>197</ele>
        <time>2019-08-09T15:10:30Z</time>
      </trkpt>
      <trkpt lat="48.13476" lon="7.32349">
        <ele>196.9</ele>
        <time>2019-08-09T15:10:31Z</time>
      </trkpt>
      <trkpt lat="48.13472" lon="7.32349">
        <ele>196.9</ele>
        <time>2019-08-09T15:10:32Z</time>
      </trkpt>
      <trkpt lat="48.13467" lon="7.32348">
        <ele>196.8</ele>
        <time>2019-08-09T15:10:33Z</time>
      </trkpt>
      <trkpt lat="48.13462" lon="7.32348">
        <ele>196.7</ele>
        <time>2019-08-09T15:10:34Z</time>
      </trkpt>
      <trkpt lat="48.13458" lon="7.32348">
        <ele>196.7</ele>
        <time>2019-08-09T15:10:35Z</time>
      </trkpt>
      <trkpt lat="48.13454" lon="7.32347">
        <ele>196.6</ele>
        <time>2019-08-09T15:10:36Z</time>
      </trkpt>
      <trkpt lat="48.1345" lon="7.32346">
        <ele>196.6</ele>
        <time>2019-08-09T15:10:37Z</time>
      </trkpt>
      <trkpt lat="48.13446" lon="7.32346">
        <ele>196.5</ele>
        <time>2019-08-09T15:10:38Z</time>
      </trkpt>
      <trkpt lat="48.13442" lon="7.32346">
        <ele>196.5</ele>
        <time>2019-08-09T15:10:39Z</time>
      </trkpt>
      <trkpt lat="48.13438" lon="7.32344">
        <ele>196.4</ele>
        <time>2019-08-09T15:10:40Z</time>
      </trkpt>
      <trkpt lat="48.13434" lon="7.32344">
        <ele>196.4</ele>
        <time>2019-08-09T15:10:41Z</time>
      </trkpt>
      <trkpt lat="48.13429" lon="7.32345">
        <ele>196.4</ele>
        <time>2019-08-09T15:10:42Z</time>
      </trkpt>
      <trkpt lat="48.13425" lon="7.32344">
        <ele>196.3</ele>
        <time>2019-08-09T15:10:43Z</time>
      </trkpt>
      <trkpt lat="48.13422" lon="7.32344">
        <ele>196.3</ele>
        <time>2019-08-09T15:10:44Z</time>
      </trkpt>
      <trkpt lat="48.13417" lon="7.32343">
        <ele>196.2</ele>
        <time>2019-08-09T15:10:45Z</time>
      </trkpt>
      <trkpt lat="48.13412" lon="7.32343">
        <ele>196.2</ele>
        <time>2019-08-09T15:10:46Z</time>
      </trkpt>
      <trkpt lat="48.13408" lon="7.32342">
        <ele>196.2</ele>
        <time>2019-08-09T15:10:47Z</time>
      </trkpt>
      <trkpt lat="48.13403" lon="7.32342">
        <ele>196.1</ele>
        <time>2019-08-09T15:10:48Z</time>
      </trkpt>
      <trkpt lat="48.134" lon="7.32341">
        <ele>196</ele>
        <time>2019-08-09T15:10:49Z</time>
      </trkpt>
      <trkpt lat="48.13395" lon="7.32341">
        <ele>196</ele>
        <time>2019-08-09T15:10:50Z</time>
      </trkpt>
      <trkpt lat="48.1339" lon="7.32341">
        <ele>195.9</ele>
        <time>2019-08-09T15:10:51Z</time>
      </trkpt>
      <trkpt lat="48.13386" lon="7.3234">
        <ele>195.9</ele>
        <time>2019-08-09T15:10:52Z</time>
      </trkpt>
      <trkpt lat="48.13382" lon="7.3234">
        <ele>195.8</ele>
        <time>2019-08-09T15:10:53Z</time>
      </trkpt>
      <trkpt lat="48.13378" lon="7.32339">
        <ele>195.8</ele>
        <time>2019-08-09T15:10:54Z</time>
      </trkpt>
      <trkpt lat="48.13374" lon="7.32339">
        <ele>195.8</ele>
        <time>2019-08-09T15:10:55Z</time>
      </trkpt>
      <trkpt lat="48.13371" lon="7.32339">
        <ele>195.7</ele>
        <time>2019-08-09T15:10:56Z</time>
      </trkpt>
      <trkpt lat="48.13367" lon="7.32338">
        <ele>195.7</ele>
        <time>2019-08-09T15:10:57Z</time>
      </trkpt>
      <trkpt lat="48.13364" lon="7.32338">
        <ele>195.7</ele>
        <time>2019-08-09T15:10:58Z</time>
      </trkpt>
      <trkpt lat="48.13361" lon="7.32337">
        <ele>195.6</ele>
        <time>2019-08-09T15:10:59Z</time>
      </trkpt>
      <trkpt lat="48.13358" lon="7.32335">
        <ele>195.6</ele>
        <time>2019-08-09T15:11:00Z</time>
      </trkpt>
      <trkpt lat="48.13355" lon="7.32331">
        <ele>195.6</ele>
        <time>2019-08-09T15:11:01Z</time>
      </trkpt>
      <trkpt lat="48.13354" lon="7.32327">
        <ele>195.6</ele>
        <time>2019-08-09T15:11:02Z</time>
      </trkpt>
      <trkpt lat="48.13354" lon="7.32323">
        <ele>195.5</ele>
        <time>2019-08-09T15:11:03Z</time>
      </trkpt>
      <trkpt lat="48.13354" lon="7.32318">
        <ele>195.5</ele>
        <time>2019-08-09T15:11:04Z</time>
      </trkpt>
      <trkpt lat="48.13354" lon="7.32313">
        <ele>195.5</ele>
        <time>2019-08-09T15:11:05Z</time>
      </trkpt>
      <trkpt lat="48.13354" lon="7.32307">
        <ele>195.6</ele>
        <time>2019-08-09T15:11:06Z</time>
      </trkpt>
      <trkpt lat="48.13355" lon="7.32301">
        <ele>195.6</ele>
        <time>2019-08-09T15:11:07Z</time>
      </trkpt>
      <trkpt lat="48.13356" lon="7.32295">
        <ele>195.6</ele>
        <time>2019-08-09T15:11:08Z</time>
      </trkpt>
      <trkpt lat="48.13356" lon="7.32289">
        <ele>195.6</ele>
        <time>2019-08-09T15:11:09Z</time>
      </trkpt>
      <trkpt lat="48.13357" lon="7.32282">
        <ele>195.6</ele>
        <time>2019-08-09T15:11:10Z</time>
      </trkpt>
      <trkpt lat="48.13358" lon="7.32274">
        <ele>195.6</ele>
        <time>2019-08-09T15:11:11Z</time>
      </trkpt>
      <trkpt lat="48.13358" lon="7.32267">
        <ele>195.7</ele>
        <time>2019-08-09T15:11:12Z</time>
      </trkpt>
      <trkpt lat="48.13359" lon="7.32262">
        <ele>195.7</ele>
        <time>2019-08-09T15:11:13Z</time>
      </trkpt>
      <trkpt lat="48.13359" lon="7.32255">
        <ele>195.7</ele>
        <time>2019-08-09T15:11:14Z</time>
      </trkpt>
      <trkpt lat="48.13359" lon="7.32249">
        <ele>195.7</ele>
        <time>2019-08-09T15:11:15Z</time>
      </trkpt>
      <trkpt lat="48.13359" lon="7.32242">
        <ele>195.7</ele>
        <time>2019-08-09T15:11:16Z</time>
      </trkpt>
      <trkpt lat="48.13359" lon="7.32236">
        <ele>195.8</ele>
        <time>2019-08-09T15:11:17Z</time>
      </trkpt>
      <trkpt lat="48.13359" lon="7.32231">
        <ele>195.8</ele>
        <time>2019-08-09T15:11:18Z</time>
      </trkpt>
      <trkpt lat="48.13359" lon="7.32224">
        <ele>195.8</ele>
        <time>2019-08-09T15:11:19Z</time>
      </trkpt>
      <trkpt lat="48.13358" lon="7.32218">
        <ele>195.8</ele>
        <time>2019-08-09T15:11:20Z</time>
      </trkpt>
      <trkpt lat="48.13359" lon="7.32211">
        <ele>195.9</ele>
        <time>2019-08-09T15:11:21Z</time>
      </trkpt>
      <trkpt lat="48.13359" lon="7.32205">
        <ele>195.9</ele>
        <time>2019-08-09T15:11:22Z</time>
      </trkpt>
      <trkpt lat="48.13359" lon="7.32199">
        <ele>195.9</ele>
        <time>2019-08-09T15:11:23Z</time>
      </trkpt>
      <trkpt lat="48.13358" lon="7.32192">
        <ele>196</ele>
        <time>2019-08-09T15:11:24Z</time>
      </trkpt>
      <trkpt lat="48.13357" lon="7.32185">
        <ele>196</ele>
        <time>2019-08-09T15:11:25Z</time>
      </trkpt>
      <trkpt lat="48.13357" lon="7.3218">
        <ele>196</ele>
        <time>2019-08-09T15:11:26Z</time>
      </trkpt>
      <trkpt lat="48.13357" lon="7.32174">
        <ele>196</ele>
        <time>2019-08-09T15:11:27Z</time>
      </trkpt>
      <trkpt lat="48.13356" lon="7.32167">
        <ele>196</ele>
        <time>2019-08-09T15:11:28Z</time>
      </trkpt>
      <trkpt lat="48.13355" lon="7.32162">
        <ele>196.1</ele>
        <time>2019-08-09T15:11:29Z</time>
      </trkpt>
      <trkpt lat="48.13354" lon="7.32155">
        <ele>196.1</ele>
        <time>2019-08-09T15:11:30Z</time>
      </trkpt>
      <trkpt lat="48.13352" lon="7.3215">
        <ele>196.1</ele>
        <time>2019-08-09T15:11:31Z</time>
      </trkpt>
      <trkpt lat="48.13351" lon="7.32144">
        <ele>196.1</ele>
        <time>2019-08-09T15:11:32Z</time>
      </trkpt>
      <trkpt lat="48.13351" lon="7.32139">
        <ele>196.1</ele>
        <time>2019-08-09T15:11:33Z</time>
      </trkpt>
      <trkpt lat="48.13351" lon="7.32134">
        <ele>196.1</ele>
        <time>2019-08-09T15:11:34Z</time>
      </trkpt>
      <trkpt lat="48.1335" lon="7.32128">
        <ele>196.1</ele>
        <time>2019-08-09T15:11:35Z</time>
      </trkpt>
      <trkpt lat="48.13349" lon="7.32122">
        <ele>196.1</ele>
        <time>2019-08-09T15:11:36Z</time>
      </trkpt>
      <trkpt lat="48.13349" lon="7.32115">
        <ele>196.2</ele>
        <time>2019-08-09T15:11:37Z</time>
      </trkpt>
      <trkpt lat="48.13349" lon="7.3211">
        <ele>196.2</ele>
        <time>2019-08-09T15:11:38Z</time>
      </trkpt>
      <trkpt lat="48.13348" lon="7.32103">
        <ele>196.2</ele>
        <time>2019-08-09T15:11:39Z</time>
      </trkpt>
      <trkpt lat="48.13348" lon="7.32097">
        <ele>196.3</ele>
        <time>2019-08-09T15:11:40Z</time>
      </trkpt>
      <trkpt lat="48.13348" lon="7.32091">
        <ele>196.3</ele>
        <time>2019-08-09T15:11:41Z</time>
      </trkpt>
      <trkpt lat="48.13347" lon="7.32085">
        <ele>196.4</ele>
        <time>2019-08-09T15:11:42Z</time>
      </trkpt>
      <trkpt lat="48.13346" lon="7.3208">
        <ele>196.4</ele>
        <time>2019-08-09T15:11:43Z</time>
      </trkpt>
      <trkpt lat="48.13346" lon="7.32074">
        <ele>196.5</ele>
        <time>2019-08-09T15:11:44Z</time>
      </trkpt>
      <trkpt lat="48.13345" lon="7.32066">
        <ele>196.6</ele>
        <time>2019-08-09T15:11:46Z</time>
      </trkpt>
      <trkpt lat="48.13345" lon="7.3206">
        <ele>196.7</ele>
        <time>2019-08-09T15:11:47Z</time>
      </trkpt>
      <trkpt lat="48.13344" lon="7.32055">
        <ele>196.7</ele>
        <time>2019-08-09T15:11:48Z</time>
      </trkpt>
      <trkpt lat="48.13344" lon="7.32049">
        <ele>196.8</ele>
        <time>2019-08-09T15:11:49Z</time>
      </trkpt>
      <trkpt lat="48.13344" lon="7.32043">
        <ele>196.9</ele>
        <time>2019-08-09T15:11:50Z</time>
      </trkpt>
      <trkpt lat="48.13344" lon="7.32037">
        <ele>196.9</ele>
        <time>2019-08-09T15:11:51Z</time>
      </trkpt>
      <trkpt lat="48.13344" lon="7.3203">
        <ele>197</ele>
        <time>2019-08-09T15:11:52Z</time>
      </trkpt>
      <trkpt lat="48.13343" lon="7.32023">
        <ele>197.1</ele>
        <time>2019-08-09T15:11:53Z</time>
      </trkpt>
      <trkpt lat="48.13343" lon="7.32017">
        <ele>197.2</ele>
        <time>2019-08-09T15:11:54Z</time>
      </trkpt>
      <trkpt lat="48.13343" lon="7.32012">
        <ele>197.3</ele>
        <time>2019-08-09T15:11:55Z</time>
      </trkpt>
      <trkpt lat="48.13343" lon="7.32006">
        <ele>197.4</ele>
        <time>2019-08-09T15:11:56Z</time>
      </trkpt>
      <trkpt lat="48.13343" lon="7.32001">
        <ele>197.5</ele>
        <time>2019-08-09T15:11:57Z</time>
      </trkpt>
      <trkpt lat="48.13343" lon="7.31996">
        <ele>197.5</ele>
        <time>2019-08-09T15:11:58Z</time>
      </trkpt>
      <trkpt lat="48.13342" lon="7.3199">
        <ele>197.6</ele>
        <time>2019-08-09T15:11:59Z</time>
      </trkpt>
      <trkpt lat="48.13342" lon="7.31985">
        <ele>197.7</ele>
        <time>2019-08-09T15:12:00Z</time>
      </trkpt>
      <trkpt lat="48.13341" lon="7.3198">
        <ele>197.8</ele>
        <time>2019-08-09T15:12:01Z</time>
      </trkpt>
      <trkpt lat="48.1334" lon="7.31974">
        <ele>197.9</ele>
        <time>2019-08-09T15:12:02Z</time>
      </trkpt>
      <trkpt lat="48.1334" lon="7.31968">
        <ele>198</ele>
        <time>2019-08-09T15:12:03Z</time>
      </trkpt>
      <trkpt lat="48.13338" lon="7.31963">
        <ele>198.1</ele>
        <time>2019-08-09T15:12:04Z</time>
      </trkpt>
      <trkpt lat="48.13338" lon="7.31957">
        <ele>198.2</ele>
        <time>2019-08-09T15:12:05Z</time>
      </trkpt>
      <trkpt lat="48.13337" lon="7.3195">
        <ele>198.3</ele>
        <time>2019-08-09T15:12:06Z</time>
      </trkpt>
      <trkpt lat="48.13337" lon="7.31945">
        <ele>198.4</ele>
        <time>2019-08-09T15:12:07Z</time>
      </trkpt>
      <trkpt lat="48.13336" lon="7.3194">
        <ele>198.4</ele>
        <time>2019-08-09T15:12:08Z</time>
      </trkpt>
      <trkpt lat="48.13336" lon="7.31935">
        <ele>198.5</ele>
        <time>2019-08-09T15:12:09Z</time>
      </trkpt>
      <trkpt lat="48.13336" lon="7.31929">
        <ele>198.5</ele>
        <time>2019-08-09T15:12:10Z</time>
      </trkpt>
      <trkpt lat="48.13336" lon="7.31923">
        <ele>198.6</ele>
        <time>2019-08-09T15:12:11Z</time>
      </trkpt>
      <trkpt lat="48.13335" lon="7.31916">
        <ele>198.6</ele>
        <time>2019-08-09T15:12:12Z</time>
      </trkpt>
      <trkpt lat="48.13335" lon="7.31911">
        <ele>198.6</ele>
        <time>2019-08-09T15:12:13Z</time>
      </trkpt>
      <trkpt lat="48.13334" lon="7.31905">
        <ele>198.7</ele>
        <time>2019-08-09T15:12:14Z</time>
      </trkpt>
      <trkpt lat="48.13334" lon="7.31899">
        <ele>198.7</ele>
        <time>2019-08-09T15:12:15Z</time>
      </trkpt>
      <trkpt lat="48.13334" lon="7.31893">
        <ele>198.7</ele>
        <time>2019-08-09T15:12:16Z</time>
      </trkpt>
      <trkpt lat="48.13333" lon="7.31887">
        <ele>198.8</ele>
        <time>2019-08-09T15:12:17Z</time>
      </trkpt>
      <trkpt lat="48.13333" lon="7.31883">
        <ele>198.8</ele>
        <time>2019-08-09T15:12:18Z</time>
      </trkpt>
      <trkpt lat="48.13334" lon="7.31878">
        <ele>198.8</ele>
        <time>2019-08-09T15:12:19Z</time>
      </trkpt>
      <trkpt lat="48.13333" lon="7.31872">
        <ele>198.8</ele>
        <time>2019-08-09T15:12:20Z</time>
      </trkpt>
      <trkpt lat="48.13334" lon="7.31868">
        <ele>198.9</ele>
        <time>2019-08-09T15:12:21Z</time>
      </trkpt>
      <trkpt lat="48.13335" lon="7.31863">
        <ele>198.9</ele>
        <time>2019-08-09T15:12:23Z</time>
      </trkpt>
      <trkpt lat="48.13333" lon="7.31867">
        <ele>198.9</ele>
        <time>2019-08-09T15:12:33Z</time>
      </trkpt>
      <trkpt lat="48.13334" lon="7.31871">
        <ele>199</ele>
        <time>2019-08-09T15:12:45Z</time>
      </trkpt>
      <trkpt lat="48.13337" lon="7.31872">
        <ele>199</ele>
        <time>2019-08-09T15:13:07Z</time>
      </trkpt>
      <trkpt lat="48.13333" lon="7.3187">
        <ele>199</ele>
        <time>2019-08-09T15:13:23Z</time>
      </trkpt>
      <trkpt lat="48.13331" lon="7.31866">
        <ele>199</ele>
        <time>2019-08-09T15:13:26Z</time>
      </trkpt>
      <trkpt lat="48.13336" lon="7.31859">
        <ele>199.1</ele>
        <time>2019-08-09T15:15:33Z</time>
      </trkpt>
      <trkpt lat="48.13339" lon="7.31858">
        <ele>199.3</ele>
        <time>2019-08-09T15:15:34Z</time>
      </trkpt>
      <trkpt lat="48.13345" lon="7.31859">
        <ele>199.4</ele>
        <time>2019-08-09T15:15:35Z</time>
      </trkpt>
      <trkpt lat="48.1335" lon="7.3186">
        <ele>199.5</ele>
        <time>2019-08-09T15:15:36Z</time>
      </trkpt>
      <trkpt lat="48.13355" lon="7.31861">
        <ele>199.5</ele>
        <time>2019-08-09T15:15:37Z</time>
      </trkpt>
      <trkpt lat="48.13361" lon="7.31863">
        <ele>199.6</ele>
        <time>2019-08-09T15:15:38Z</time>
      </trkpt>
      <trkpt lat="48.13367" lon="7.31865">
        <ele>199.7</ele>
        <time>2019-08-09T15:15:39Z</time>
      </trkpt>
      <trkpt lat="48.13372" lon="7.31867">
        <ele>199.8</ele>
        <time>2019-08-09T15:15:40Z</time>
      </trkpt>
      <trkpt lat="48.13378" lon="7.3187">
        <ele>199.8</ele>
        <time>2019-08-09T15:15:41Z</time>
      </trkpt>
      <trkpt lat="48.13385" lon="7.31872">
        <ele>199.9</ele>
        <time>2019-08-09T15:15:42Z</time>
      </trkpt>
      <trkpt lat="48.1339" lon="7.31876">
        <ele>200</ele>
        <time>2019-08-09T15:15:43Z</time>
      </trkpt>
      <trkpt lat="48.13396" lon="7.31879">
        <ele>200.1</ele>
        <time>2019-08-09T15:15:44Z</time>
      </trkpt>
      <trkpt lat="48.13403" lon="7.31883">
        <ele>200.1</ele>
        <time>2019-08-09T15:15:45Z</time>
      </trkpt>
      <trkpt lat="48.13408" lon="7.31885">
        <ele>200.3</ele>
        <time>2019-08-09T15:15:46Z</time>
      </trkpt>
      <trkpt lat="48.13412" lon="7.31885">
        <ele>200.3</ele>
        <time>2019-08-09T15:15:47Z</time>
      </trkpt>
      <trkpt lat="48.13415" lon="7.31886">
        <ele>200.3</ele>
        <time>2019-08-09T15:15:48Z</time>
      </trkpt>
      <trkpt lat="48.13418" lon="7.3188">
        <ele>200.4</ele>
        <time>2019-08-09T15:15:49Z</time>
      </trkpt>
      <trkpt lat="48.13418" lon="7.31874">
        <ele>200.4</ele>
        <time>2019-08-09T15:15:50Z</time>
      </trkpt>
      <trkpt lat="48.13416" lon="7.31869">
        <ele>200.4</ele>
        <time>2019-08-09T15:15:51Z</time>
      </trkpt>
      <trkpt lat="48.13415" lon="7.31864">
        <ele>200.4</ele>
        <time>2019-08-09T15:15:52Z</time>
      </trkpt>
      <trkpt lat="48.13414" lon="7.31859">
        <ele>200.4</ele>
        <time>2019-08-09T15:15:53Z</time>
      </trkpt>
      <trkpt lat="48.13412" lon="7.31855">
        <ele>200.4</ele>
        <time>2019-08-09T15:15:54Z</time>
      </trkpt>
      <trkpt lat="48.1341" lon="7.31847">
        <ele>200.5</ele>
        <time>2019-08-09T15:15:56Z</time>
      </trkpt>
      <trkpt lat="48.13406" lon="7.31839">
        <ele>200.5</ele>
        <time>2019-08-09T15:15:58Z</time>
      </trkpt>
      <trkpt lat="48.13405" lon="7.31833">
        <ele>200.5</ele>
        <time>2019-08-09T15:15:59Z</time>
      </trkpt>
      <trkpt lat="48.13403" lon="7.31827">
        <ele>200.5</ele>
        <time>2019-08-09T15:16:00Z</time>
      </trkpt>
      <trkpt lat="48.13402" lon="7.3182">
        <ele>200.5</ele>
        <time>2019-08-09T15:16:02Z</time>
      </trkpt>
      <trkpt lat="48.13402" lon="7.31816">
        <ele>200.5</ele>
        <time>2019-08-09T15:16:03Z</time>
      </trkpt>
      <trkpt lat="48.13399" lon="7.31806">
        <ele>200.6</ele>
        <time>2019-08-09T15:16:05Z</time>
      </trkpt>
      <trkpt lat="48.13398" lon="7.31798">
        <ele>200.6</ele>
        <time>2019-08-09T15:16:07Z</time>
      </trkpt>
      <trkpt lat="48.13398" lon="7.31793">
        <ele>200.7</ele>
        <time>2019-08-09T15:16:08Z</time>
      </trkpt>
      <trkpt lat="48.13398" lon="7.31786">
        <ele>200.7</ele>
        <time>2019-08-09T15:16:09Z</time>
      </trkpt>
      <trkpt lat="48.13398" lon="7.3178">
        <ele>200.8</ele>
        <time>2019-08-09T15:16:10Z</time>
      </trkpt>
      <trkpt lat="48.13398" lon="7.31774">
        <ele>200.9</ele>
        <time>2019-08-09T15:16:12Z</time>
      </trkpt>
      <trkpt lat="48.13398" lon="7.31769">
        <ele>201.1</ele>
        <time>2019-08-09T15:16:13Z</time>
      </trkpt>
      <trkpt lat="48.13399" lon="7.31763">
        <ele>201.2</ele>
        <time>2019-08-09T15:16:14Z</time>
      </trkpt>
      <trkpt lat="48.13398" lon="7.31758">
        <ele>201.4</ele>
        <time>2019-08-09T15:16:15Z</time>
      </trkpt>
      <trkpt lat="48.13398" lon="7.31753">
        <ele>201.6</ele>
        <time>2019-08-09T15:16:16Z</time>
      </trkpt>
      <trkpt lat="48.13398" lon="7.31749">
        <ele>201.8</ele>
        <time>2019-08-09T15:16:17Z</time>
      </trkpt>
      <trkpt lat="48.13399" lon="7.31738">
        <ele>202.2</ele>
        <time>2019-08-09T15:16:19Z</time>
      </trkpt>
      <trkpt lat="48.13399" lon="7.31733">
        <ele>202.4</ele>
        <time>2019-08-09T15:16:20Z</time>
      </trkpt>
      <trkpt lat="48.13398" lon="7.31729">
        <ele>202.6</ele>
        <time>2019-08-09T15:16:21Z</time>
      </trkpt>
      <trkpt lat="48.13398" lon="7.31725">
        <ele>202.7</ele>
        <time>2019-08-09T15:16:22Z</time>
      </trkpt>
      <trkpt lat="48.13398" lon="7.31718">
        <ele>202.9</ele>
        <time>2019-08-09T15:16:23Z</time>
      </trkpt>
      <trkpt lat="48.13398" lon="7.31712">
        <ele>203.1</ele>
        <time>2019-08-09T15:16:24Z</time>
      </trkpt>
      <trkpt lat="48.13399" lon="7.31707">
        <ele>203.3</ele>
        <time>2019-08-09T15:16:25Z</time>
      </trkpt>
      <trkpt lat="48.13399" lon="7.31702">
        <ele>203.5</ele>
        <time>2019-08-09T15:16:26Z</time>
      </trkpt>
      <trkpt lat="48.134" lon="7.31696">
        <ele>203.6</ele>
        <time>2019-08-09T15:16:27Z</time>
      </trkpt>
      <trkpt lat="48.134" lon="7.3169">
        <ele>203.7</ele>
        <time>2019-08-09T15:16:28Z</time>
      </trkpt>
      <trkpt lat="48.134" lon="7.31684">
        <ele>203.9</ele>
        <time>2019-08-09T15:16:29Z</time>
      </trkpt>
      <trkpt lat="48.134" lon="7.31678">
        <ele>204</ele>
        <time>2019-08-09T15:16:30Z</time>
      </trkpt>
      <trkpt lat="48.13401" lon="7.31668">
        <ele>204.3</ele>
        <time>2019-08-09T15:16:32Z</time>
      </trkpt>
      <trkpt lat="48.13401" lon="7.31662">
        <ele>204.4</ele>
        <time>2019-08-09T15:16:33Z</time>
      </trkpt>
      <trkpt lat="48.13402" lon="7.31655">
        <ele>204.6</ele>
        <time>2019-08-09T15:16:34Z</time>
      </trkpt>
      <trkpt lat="48.13402" lon="7.31649">
        <ele>204.7</ele>
        <time>2019-08-09T15:16:35Z</time>
      </trkpt>
      <trkpt lat="48.13402" lon="7.31645">
        <ele>204.8</ele>
        <time>2019-08-09T15:16:36Z</time>
      </trkpt>
      <trkpt lat="48.13403" lon="7.31639">
        <ele>204.9</ele>
        <time>2019-08-09T15:16:37Z</time>
      </trkpt>
      <trkpt lat="48.13403" lon="7.31633">
        <ele>205.1</ele>
        <time>2019-08-09T15:16:38Z</time>
      </trkpt>
      <trkpt lat="48.13404" lon="7.31628">
        <ele>205.2</ele>
        <time>2019-08-09T15:16:39Z</time>
      </trkpt>
      <trkpt lat="48.13404" lon="7.31622">
        <ele>205.3</ele>
        <time>2019-08-09T15:16:40Z</time>
      </trkpt>
      <trkpt lat="48.13404" lon="7.31616">
        <ele>205.5</ele>
        <time>2019-08-09T15:16:41Z</time>
      </trkpt>
      <trkpt lat="48.13404" lon="7.3161">
        <ele>205.6</ele>
        <time>2019-08-09T15:16:42Z</time>
      </trkpt>
      <trkpt lat="48.13404" lon="7.31604">
        <ele>205.7</ele>
        <time>2019-08-09T15:16:43Z</time>
      </trkpt>
      <trkpt lat="48.13405" lon="7.316">
        <ele>205.8</ele>
        <time>2019-08-09T15:16:44Z</time>
      </trkpt>
      <trkpt lat="48.13405" lon="7.31595">
        <ele>205.9</ele>
        <time>2019-08-09T15:16:45Z</time>
      </trkpt>
      <trkpt lat="48.13405" lon="7.3159">
        <ele>206</ele>
        <time>2019-08-09T15:16:46Z</time>
      </trkpt>
      <trkpt lat="48.13406" lon="7.31582">
        <ele>206.1</ele>
        <time>2019-08-09T15:16:47Z</time>
      </trkpt>
      <trkpt lat="48.13407" lon="7.31576">
        <ele>206.3</ele>
        <time>2019-08-09T15:16:48Z</time>
      </trkpt>
      <trkpt lat="48.13407" lon="7.3157">
        <ele>206.4</ele>
        <time>2019-08-09T15:16:49Z</time>
      </trkpt>
      <trkpt lat="48.13408" lon="7.31564">
        <ele>206.5</ele>
        <time>2019-08-09T15:16:50Z</time>
      </trkpt>
      <trkpt lat="48.1341" lon="7.3156">
        <ele>206.6</ele>
        <time>2019-08-09T15:16:51Z</time>
      </trkpt>
      <trkpt lat="48.13411" lon="7.31554">
        <ele>206.7</ele>
        <time>2019-08-09T15:16:52Z</time>
      </trkpt>
      <trkpt lat="48.13412" lon="7.31548">
        <ele>206.9</ele>
        <time>2019-08-09T15:16:53Z</time>
      </trkpt>
      <trkpt lat="48.13414" lon="7.31541">
        <ele>207</ele>
        <time>2019-08-09T15:16:54Z</time>
      </trkpt>
      <trkpt lat="48.13415" lon="7.31536">
        <ele>207.1</ele>
        <time>2019-08-09T15:16:55Z</time>
      </trkpt>
      <trkpt lat="48.13416" lon="7.31531">
        <ele>207.1</ele>
        <time>2019-08-09T15:16:56Z</time>
      </trkpt>
      <trkpt lat="48.13418" lon="7.31526">
        <ele>207.2</ele>
        <time>2019-08-09T15:16:57Z</time>
      </trkpt>
      <trkpt lat="48.1342" lon="7.31522">
        <ele>207.2</ele>
        <time>2019-08-09T15:16:58Z</time>
      </trkpt>
      <trkpt lat="48.13422" lon="7.31517">
        <ele>207.2</ele>
        <time>2019-08-09T15:16:59Z</time>
      </trkpt>
      <trkpt lat="48.13423" lon="7.31511">
        <ele>207.3</ele>
        <time>2019-08-09T15:17:00Z</time>
      </trkpt>
      <trkpt lat="48.13425" lon="7.31507">
        <ele>207.3</ele>
        <time>2019-08-09T15:17:01Z</time>
      </trkpt>
      <trkpt lat="48.13427" lon="7.31501">
        <ele>207.3</ele>
        <time>2019-08-09T15:17:02Z</time>
      </trkpt>
      <trkpt lat="48.13429" lon="7.31496">
        <ele>207.3</ele>
        <time>2019-08-09T15:17:03Z</time>
      </trkpt>
      <trkpt lat="48.1343" lon="7.31492">
        <ele>207.3</ele>
        <time>2019-08-09T15:17:04Z</time>
      </trkpt>
      <trkpt lat="48.13432" lon="7.31487">
        <ele>207.4</ele>
        <time>2019-08-09T15:17:05Z</time>
      </trkpt>
      <trkpt lat="48.13434" lon="7.31482">
        <ele>207.4</ele>
        <time>2019-08-09T15:17:06Z</time>
      </trkpt>
      <trkpt lat="48.13435" lon="7.31477">
        <ele>207.4</ele>
        <time>2019-08-09T15:17:07Z</time>
      </trkpt>
      <trkpt lat="48.13435" lon="7.31472">
        <ele>207.4</ele>
        <time>2019-08-09T15:17:08Z</time>
      </trkpt>
      <trkpt lat="48.13436" lon="7.31467">
        <ele>207.5</ele>
        <time>2019-08-09T15:17:09Z</time>
      </trkpt>
      <trkpt lat="48.13436" lon="7.31461">
        <ele>207.5</ele>
        <time>2019-08-09T15:17:10Z</time>
      </trkpt>
      <trkpt lat="48.13436" lon="7.31457">
        <ele>207.5</ele>
        <time>2019-08-09T15:17:11Z</time>
      </trkpt>
      <trkpt lat="48.13436" lon="7.3145">
        <ele>207.5</ele>
        <time>2019-08-09T15:17:12Z</time>
      </trkpt>
      <trkpt lat="48.13436" lon="7.31445">
        <ele>207.5</ele>
        <time>2019-08-09T15:17:13Z</time>
      </trkpt>
      <trkpt lat="48.13435" lon="7.31436">
        <ele>207.5</ele>
        <time>2019-08-09T15:17:15Z</time>
      </trkpt>
      <trkpt lat="48.13435" lon="7.31431">
        <ele>207.5</ele>
        <time>2019-08-09T15:17:16Z</time>
      </trkpt>
      <trkpt lat="48.13435" lon="7.31425">
        <ele>207.5</ele>
        <time>2019-08-09T15:17:17Z</time>
      </trkpt>
      <trkpt lat="48.13436" lon="7.31418">
        <ele>207.4</ele>
        <time>2019-08-09T15:17:18Z</time>
      </trkpt>
      <trkpt lat="48.13437" lon="7.31412">
        <ele>207.4</ele>
        <time>2019-08-09T15:17:19Z</time>
      </trkpt>
      <trkpt lat="48.13438" lon="7.31407">
        <ele>207.4</ele>
        <time>2019-08-09T15:17:20Z</time>
      </trkpt>
      <trkpt lat="48.13438" lon="7.31401">
        <ele>207.3</ele>
        <time>2019-08-09T15:17:21Z</time>
      </trkpt>
      <trkpt lat="48.13439" lon="7.31394">
        <ele>207.3</ele>
        <time>2019-08-09T15:17:22Z</time>
      </trkpt>
      <trkpt lat="48.1344" lon="7.31388">
        <ele>207.2</ele>
        <time>2019-08-09T15:17:23Z</time>
      </trkpt>
      <trkpt lat="48.13442" lon="7.31378">
        <ele>207.2</ele>
        <time>2019-08-09T15:17:25Z</time>
      </trkpt>
      <trkpt lat="48.13443" lon="7.31374">
        <ele>207.1</ele>
        <time>2019-08-09T15:17:26Z</time>
      </trkpt>
      <trkpt lat="48.13444" lon="7.31369">
        <ele>207.1</ele>
        <time>2019-08-09T15:17:27Z</time>
      </trkpt>
      <trkpt lat="48.13445" lon="7.31362">
        <ele>207</ele>
        <time>2019-08-09T15:17:28Z</time>
      </trkpt>
      <trkpt lat="48.13445" lon="7.31356">
        <ele>207</ele>
        <time>2019-08-09T15:17:30Z</time>
      </trkpt>
      <trkpt lat="48.13446" lon="7.31352">
        <ele>207</ele>
        <time>2019-08-09T15:17:31Z</time>
      </trkpt>
      <trkpt lat="48.13447" lon="7.31346">
        <ele>207.1</ele>
        <time>2019-08-09T15:17:32Z</time>
      </trkpt>
      <trkpt lat="48.13448" lon="7.31341">
        <ele>207.1</ele>
        <time>2019-08-09T15:17:33Z</time>
      </trkpt>
      <trkpt lat="48.13449" lon="7.31335">
        <ele>207.2</ele>
        <time>2019-08-09T15:17:34Z</time>
      </trkpt>
      <trkpt lat="48.13449" lon="7.3133">
        <ele>207.2</ele>
        <time>2019-08-09T15:17:35Z</time>
      </trkpt>
      <trkpt lat="48.1345" lon="7.31323">
        <ele>207.2</ele>
        <time>2019-08-09T15:17:36Z</time>
      </trkpt>
      <trkpt lat="48.13451" lon="7.31317">
        <ele>207.3</ele>
        <time>2019-08-09T15:17:37Z</time>
      </trkpt>
      <trkpt lat="48.13453" lon="7.31309">
        <ele>207.4</ele>
        <time>2019-08-09T15:17:39Z</time>
      </trkpt>
      <trkpt lat="48.13453" lon="7.31303">
        <ele>207.5</ele>
        <time>2019-08-09T15:17:40Z</time>
      </trkpt>
      <trkpt lat="48.13454" lon="7.31297">
        <ele>207.6</ele>
        <time>2019-08-09T15:17:41Z</time>
      </trkpt>
      <trkpt lat="48.13454" lon="7.31292">
        <ele>207.7</ele>
        <time>2019-08-09T15:17:42Z</time>
      </trkpt>
      <trkpt lat="48.13456" lon="7.31281">
        <ele>208</ele>
        <time>2019-08-09T15:17:44Z</time>
      </trkpt>
      <trkpt lat="48.13457" lon="7.31274">
        <ele>208.2</ele>
        <time>2019-08-09T15:17:45Z</time>
      </trkpt>
      <trkpt lat="48.13459" lon="7.31265">
        <ele>208.5</ele>
        <time>2019-08-09T15:17:47Z</time>
      </trkpt>
      <trkpt lat="48.1346" lon="7.3126">
        <ele>208.6</ele>
        <time>2019-08-09T15:17:48Z</time>
      </trkpt>
      <trkpt lat="48.13461" lon="7.31254">
        <ele>208.8</ele>
        <time>2019-08-09T15:17:49Z</time>
      </trkpt>
      <trkpt lat="48.13461" lon="7.31247">
        <ele>209</ele>
        <time>2019-08-09T15:17:50Z</time>
      </trkpt>
      <trkpt lat="48.13462" lon="7.31242">
        <ele>209.1</ele>
        <time>2019-08-09T15:17:51Z</time>
      </trkpt>
      <trkpt lat="48.13464" lon="7.31234">
        <ele>209.3</ele>
        <time>2019-08-09T15:17:53Z</time>
      </trkpt>
      <trkpt lat="48.13466" lon="7.31224">
        <ele>209.6</ele>
        <time>2019-08-09T15:17:54Z</time>
      </trkpt>
      <trkpt lat="48.13467" lon="7.31219">
        <ele>209.7</ele>
        <time>2019-08-09T15:17:55Z</time>
      </trkpt>
      <trkpt lat="48.13468" lon="7.31214">
        <ele>209.8</ele>
        <time>2019-08-09T15:17:56Z</time>
      </trkpt>
      <trkpt lat="48.13469" lon="7.31209">
        <ele>209.9</ele>
        <time>2019-08-09T15:17:57Z</time>
      </trkpt>
      <trkpt lat="48.1347" lon="7.31203">
        <ele>210</ele>
        <time>2019-08-09T15:17:58Z</time>
      </trkpt>
      <trkpt lat="48.13471" lon="7.31194">
        <ele>210.2</ele>
        <time>2019-08-09T15:18:00Z</time>
      </trkpt>
      <trkpt lat="48.13473" lon="7.31188">
        <ele>210.3</ele>
        <time>2019-08-09T15:18:01Z</time>
      </trkpt>
      <trkpt lat="48.13475" lon="7.31182">
        <ele>210.5</ele>
        <time>2019-08-09T15:18:02Z</time>
      </trkpt>
      <trkpt lat="48.13477" lon="7.31175">
        <ele>210.6</ele>
        <time>2019-08-09T15:18:03Z</time>
      </trkpt>
      <trkpt lat="48.13479" lon="7.31169">
        <ele>210.7</ele>
        <time>2019-08-09T15:18:04Z</time>
      </trkpt>
      <trkpt lat="48.13481" lon="7.31164">
        <ele>210.8</ele>
        <time>2019-08-09T15:18:05Z</time>
      </trkpt>
      <trkpt lat="48.13482" lon="7.3116">
        <ele>210.9</ele>
        <time>2019-08-09T15:18:06Z</time>
      </trkpt>
      <trkpt lat="48.13484" lon="7.31155">
        <ele>211</ele>
        <time>2019-08-09T15:18:07Z</time>
      </trkpt>
      <trkpt lat="48.13486" lon="7.31148">
        <ele>211.2</ele>
        <time>2019-08-09T15:18:08Z</time>
      </trkpt>
      <trkpt lat="48.13488" lon="7.31143">
        <ele>211.3</ele>
        <time>2019-08-09T15:18:09Z</time>
      </trkpt>
      <trkpt lat="48.1349" lon="7.31138">
        <ele>211.4</ele>
        <time>2019-08-09T15:18:10Z</time>
      </trkpt>
      <trkpt lat="48.13492" lon="7.31132">
        <ele>211.6</ele>
        <time>2019-08-09T15:18:11Z</time>
      </trkpt>
      <trkpt lat="48.13493" lon="7.31128">
        <ele>211.6</ele>
        <time>2019-08-09T15:18:12Z</time>
      </trkpt>
      <trkpt lat="48.13494" lon="7.31122">
        <ele>211.7</ele>
        <time>2019-08-09T15:18:13Z</time>
      </trkpt>
      <trkpt lat="48.13494" lon="7.31115">
        <ele>211.7</ele>
        <time>2019-08-09T15:18:14Z</time>
      </trkpt>
      <trkpt lat="48.13494" lon="7.31108">
        <ele>211.8</ele>
        <time>2019-08-09T15:18:15Z</time>
      </trkpt>
      <trkpt lat="48.13495" lon="7.31102">
        <ele>211.9</ele>
        <time>2019-08-09T15:18:16Z</time>
      </trkpt>
      <trkpt lat="48.13495" lon="7.31096">
        <ele>212</ele>
        <time>2019-08-09T15:18:17Z</time>
      </trkpt>
      <trkpt lat="48.13495" lon="7.3109">
        <ele>212.1</ele>
        <time>2019-08-09T15:18:18Z</time>
      </trkpt>
      <trkpt lat="48.13495" lon="7.31083">
        <ele>212.2</ele>
        <time>2019-08-09T15:18:19Z</time>
      </trkpt>
      <trkpt lat="48.13495" lon="7.31078">
        <ele>212.2</ele>
        <time>2019-08-09T15:18:20Z</time>
      </trkpt>
      <trkpt lat="48.13495" lon="7.31072">
        <ele>212.3</ele>
        <time>2019-08-09T15:18:21Z</time>
      </trkpt>
      <trkpt lat="48.13495" lon="7.31066">
        <ele>212.4</ele>
        <time>2019-08-09T15:18:22Z</time>
      </trkpt>
      <trkpt lat="48.13495" lon="7.3106">
        <ele>212.4</ele>
        <time>2019-08-09T15:18:23Z</time>
      </trkpt>
      <trkpt lat="48.13495" lon="7.31048">
        <ele>212.5</ele>
        <time>2019-08-09T15:18:25Z</time>
      </trkpt>
      <trkpt lat="48.13496" lon="7.31042">
        <ele>212.5</ele>
        <time>2019-08-09T15:18:26Z</time>
      </trkpt>
      <trkpt lat="48.13495" lon="7.31034">
        <ele>212.5</ele>
        <time>2019-08-09T15:18:27Z</time>
      </trkpt>
      <trkpt lat="48.13495" lon="7.31029">
        <ele>212.5</ele>
        <time>2019-08-09T15:18:28Z</time>
      </trkpt>
      <trkpt lat="48.13495" lon="7.31023">
        <ele>212.5</ele>
        <time>2019-08-09T15:18:29Z</time>
      </trkpt>
      <trkpt lat="48.13494" lon="7.31018">
        <ele>212.5</ele>
        <time>2019-08-09T15:18:30Z</time>
      </trkpt>
      <trkpt lat="48.13495" lon="7.31009">
        <ele>212.5</ele>
        <time>2019-08-09T15:18:31Z</time>
      </trkpt>
      <trkpt lat="48.13494" lon="7.31003">
        <ele>212.5</ele>
        <time>2019-08-09T15:18:32Z</time>
      </trkpt>
      <trkpt lat="48.13496" lon="7.30994">
        <ele>212.5</ele>
        <time>2019-08-09T15:18:34Z</time>
      </trkpt>
      <trkpt lat="48.13498" lon="7.30987">
        <ele>212.5</ele>
        <time>2019-08-09T15:18:35Z</time>
      </trkpt>
      <trkpt lat="48.13499" lon="7.30979">
        <ele>212.5</ele>
        <time>2019-08-09T15:18:36Z</time>
      </trkpt>
      <trkpt lat="48.135" lon="7.30973">
        <ele>212.5</ele>
        <time>2019-08-09T15:18:37Z</time>
      </trkpt>
      <trkpt lat="48.135" lon="7.30968">
        <ele>212.5</ele>
        <time>2019-08-09T15:18:38Z</time>
      </trkpt>
      <trkpt lat="48.13502" lon="7.30963">
        <ele>212.5</ele>
        <time>2019-08-09T15:18:39Z</time>
      </trkpt>
      <trkpt lat="48.13503" lon="7.30955">
        <ele>212.5</ele>
        <time>2019-08-09T15:18:40Z</time>
      </trkpt>
      <trkpt lat="48.13504" lon="7.3095">
        <ele>212.5</ele>
        <time>2019-08-09T15:18:41Z</time>
      </trkpt>
      <trkpt lat="48.13505" lon="7.30944">
        <ele>212.5</ele>
        <time>2019-08-09T15:18:42Z</time>
      </trkpt>
      <trkpt lat="48.13506" lon="7.30938">
        <ele>212.6</ele>
        <time>2019-08-09T15:18:43Z</time>
      </trkpt>
      <trkpt lat="48.13508" lon="7.30933">
        <ele>212.6</ele>
        <time>2019-08-09T15:18:44Z</time>
      </trkpt>
      <trkpt lat="48.13509" lon="7.30927">
        <ele>212.6</ele>
        <time>2019-08-09T15:18:45Z</time>
      </trkpt>
      <trkpt lat="48.1351" lon="7.30921">
        <ele>212.7</ele>
        <time>2019-08-09T15:18:46Z</time>
      </trkpt>
      <trkpt lat="48.13512" lon="7.30914">
        <ele>212.7</ele>
        <time>2019-08-09T15:18:47Z</time>
      </trkpt>
      <trkpt lat="48.13513" lon="7.30907">
        <ele>212.9</ele>
        <time>2019-08-09T15:18:48Z</time>
      </trkpt>
      <trkpt lat="48.13514" lon="7.30902">
        <ele>213</ele>
        <time>2019-08-09T15:18:49Z</time>
      </trkpt>
      <trkpt lat="48.13516" lon="7.30895">
        <ele>213.1</ele>
        <time>2019-08-09T15:18:50Z</time>
      </trkpt>
      <trkpt lat="48.13517" lon="7.30889">
        <ele>213.2</ele>
        <time>2019-08-09T15:18:51Z</time>
      </trkpt>
      <trkpt lat="48.13518" lon="7.30884">
        <ele>213.3</ele>
        <time>2019-08-09T15:18:52Z</time>
      </trkpt>
      <trkpt lat="48.13519" lon="7.30879">
        <ele>213.3</ele>
        <time>2019-08-09T15:18:53Z</time>
      </trkpt>
      <trkpt lat="48.13521" lon="7.30871">
        <ele>213.4</ele>
        <time>2019-08-09T15:18:55Z</time>
      </trkpt>
      <trkpt lat="48.13521" lon="7.30866">
        <ele>213.5</ele>
        <time>2019-08-09T15:18:56Z</time>
      </trkpt>
      <trkpt lat="48.13521" lon="7.3086">
        <ele>213.5</ele>
        <time>2019-08-09T15:18:57Z</time>
      </trkpt>
      <trkpt lat="48.13522" lon="7.30855">
        <ele>213.5</ele>
        <time>2019-08-09T15:18:58Z</time>
      </trkpt>
      <trkpt lat="48.13522" lon="7.30848">
        <ele>213.5</ele>
        <time>2019-08-09T15:18:59Z</time>
      </trkpt>
      <trkpt lat="48.13522" lon="7.3084">
        <ele>213.6</ele>
        <time>2019-08-09T15:19:00Z</time>
      </trkpt>
      <trkpt lat="48.13522" lon="7.30835">
        <ele>213.6</ele>
        <time>2019-08-09T15:19:01Z</time>
      </trkpt>
      <trkpt lat="48.13522" lon="7.30829">
        <ele>213.6</ele>
        <time>2019-08-09T15:19:02Z</time>
      </trkpt>
      <trkpt lat="48.13522" lon="7.3082">
        <ele>213.7</ele>
        <time>2019-08-09T15:19:04Z</time>
      </trkpt>
      <trkpt lat="48.13522" lon="7.30813">
        <ele>213.8</ele>
        <time>2019-08-09T15:19:05Z</time>
      </trkpt>
      <trkpt lat="48.13523" lon="7.30808">
        <ele>213.9</ele>
        <time>2019-08-09T15:19:06Z</time>
      </trkpt>
      <trkpt lat="48.13523" lon="7.30803">
        <ele>214</ele>
        <time>2019-08-09T15:19:07Z</time>
      </trkpt>
      <trkpt lat="48.13524" lon="7.30796">
        <ele>214.1</ele>
        <time>2019-08-09T15:19:08Z</time>
      </trkpt>
      <trkpt lat="48.13524" lon="7.30792">
        <ele>214.2</ele>
        <time>2019-08-09T15:19:09Z</time>
      </trkpt>
      <trkpt lat="48.13524" lon="7.30787">
        <ele>214.3</ele>
        <time>2019-08-09T15:19:10Z</time>
      </trkpt>
      <trkpt lat="48.13524" lon="7.30778">
        <ele>214.4</ele>
        <time>2019-08-09T15:19:12Z</time>
      </trkpt>
      <trkpt lat="48.13524" lon="7.30772">
        <ele>214.5</ele>
        <time>2019-08-09T15:19:13Z</time>
      </trkpt>
      <trkpt lat="48.13524" lon="7.3076">
        <ele>214.6</ele>
        <time>2019-08-09T15:19:15Z</time>
      </trkpt>
      <trkpt lat="48.13524" lon="7.30754">
        <ele>214.6</ele>
        <time>2019-08-09T15:19:16Z</time>
      </trkpt>
      <trkpt lat="48.13524" lon="7.30749">
        <ele>214.7</ele>
        <time>2019-08-09T15:19:17Z</time>
      </trkpt>
      <trkpt lat="48.13525" lon="7.30744">
        <ele>214.7</ele>
        <time>2019-08-09T15:19:18Z</time>
      </trkpt>
      <trkpt lat="48.13526" lon="7.30736">
        <ele>214.9</ele>
        <time>2019-08-09T15:19:19Z</time>
      </trkpt>
      <trkpt lat="48.13527" lon="7.30731">
        <ele>215</ele>
        <time>2019-08-09T15:19:20Z</time>
      </trkpt>
      <trkpt lat="48.13528" lon="7.30727">
        <ele>215</ele>
        <time>2019-08-09T15:19:21Z</time>
      </trkpt>
      <trkpt lat="48.13528" lon="7.30721">
        <ele>215.1</ele>
        <time>2019-08-09T15:19:22Z</time>
      </trkpt>
      <trkpt lat="48.13529" lon="7.30716">
        <ele>215.2</ele>
        <time>2019-08-09T15:19:23Z</time>
      </trkpt>
      <trkpt lat="48.1353" lon="7.3071">
        <ele>215.3</ele>
        <time>2019-08-09T15:19:24Z</time>
      </trkpt>
      <trkpt lat="48.13531" lon="7.30702">
        <ele>215.4</ele>
        <time>2019-08-09T15:19:26Z</time>
      </trkpt>
      <trkpt lat="48.13532" lon="7.30696">
        <ele>215.5</ele>
        <time>2019-08-09T15:19:27Z</time>
      </trkpt>
      <trkpt lat="48.13533" lon="7.3069">
        <ele>215.5</ele>
        <time>2019-08-09T15:19:28Z</time>
      </trkpt>
      <trkpt lat="48.13535" lon="7.30684">
        <ele>215.5</ele>
        <time>2019-08-09T15:19:29Z</time>
      </trkpt>
      <trkpt lat="48.13536" lon="7.30678">
        <ele>215.5</ele>
        <time>2019-08-09T15:19:30Z</time>
      </trkpt>
      <trkpt lat="48.13536" lon="7.3067">
        <ele>215.5</ele>
        <time>2019-08-09T15:19:32Z</time>
      </trkpt>
      <trkpt lat="48.13537" lon="7.30665">
        <ele>215.5</ele>
        <time>2019-08-09T15:19:33Z</time>
      </trkpt>
      <trkpt lat="48.13539" lon="7.30657">
        <ele>215.5</ele>
        <time>2019-08-09T15:19:34Z</time>
      </trkpt>
      <trkpt lat="48.13539" lon="7.30653">
        <ele>215.5</ele>
        <time>2019-08-09T15:19:35Z</time>
      </trkpt>
      <trkpt lat="48.13539" lon="7.30644">
        <ele>215.5</ele>
        <time>2019-08-09T15:19:36Z</time>
      </trkpt>
      <trkpt lat="48.13539" lon="7.30638">
        <ele>215.5</ele>
        <time>2019-08-09T15:19:37Z</time>
      </trkpt>
      <trkpt lat="48.13539" lon="7.30632">
        <ele>215.5</ele>
        <time>2019-08-09T15:19:38Z</time>
      </trkpt>
      <trkpt lat="48.13539" lon="7.30626">
        <ele>215.5</ele>
        <time>2019-08-09T15:19:39Z</time>
      </trkpt>
      <trkpt lat="48.13539" lon="7.30621">
        <ele>215.5</ele>
        <time>2019-08-09T15:19:40Z</time>
      </trkpt>
      <trkpt lat="48.13539" lon="7.30615">
        <ele>215.5</ele>
        <time>2019-08-09T15:19:41Z</time>
      </trkpt>
      <trkpt lat="48.13539" lon="7.3061">
        <ele>215.5</ele>
        <time>2019-08-09T15:19:42Z</time>
      </trkpt>
      <trkpt lat="48.1354" lon="7.30605">
        <ele>215.5</ele>
        <time>2019-08-09T15:19:43Z</time>
      </trkpt>
      <trkpt lat="48.1354" lon="7.30599">
        <ele>215.5</ele>
        <time>2019-08-09T15:19:44Z</time>
      </trkpt>
      <trkpt lat="48.1354" lon="7.30594">
        <ele>215.5</ele>
        <time>2019-08-09T15:19:45Z</time>
      </trkpt>
      <trkpt lat="48.1354" lon="7.30589">
        <ele>215.5</ele>
        <time>2019-08-09T15:19:46Z</time>
      </trkpt>
      <trkpt lat="48.1354" lon="7.30585">
        <ele>215.5</ele>
        <time>2019-08-09T15:19:47Z</time>
      </trkpt>
      <trkpt lat="48.1354" lon="7.30581">
        <ele>215.5</ele>
        <time>2019-08-09T15:19:48Z</time>
      </trkpt>
      <trkpt lat="48.1354" lon="7.30576">
        <ele>215.5</ele>
        <time>2019-08-09T15:19:49Z</time>
      </trkpt>
      <trkpt lat="48.1354" lon="7.30568">
        <ele>215.5</ele>
        <time>2019-08-09T15:19:51Z</time>
      </trkpt>
      <trkpt lat="48.1354" lon="7.30564">
        <ele>215.5</ele>
        <time>2019-08-09T15:19:52Z</time>
      </trkpt>
      <trkpt lat="48.1354" lon="7.30558">
        <ele>215.5</ele>
        <time>2019-08-09T15:19:53Z</time>
      </trkpt>
      <trkpt lat="48.1354" lon="7.30553">
        <ele>215.5</ele>
        <time>2019-08-09T15:19:54Z</time>
      </trkpt>
      <trkpt lat="48.13541" lon="7.30548">
        <ele>215.6</ele>
        <time>2019-08-09T15:19:55Z</time>
      </trkpt>
      <trkpt lat="48.13542" lon="7.30544">
        <ele>215.4</ele>
        <time>2019-08-09T15:19:56Z</time>
      </trkpt>
      <trkpt lat="48.13543" lon="7.3054">
        <ele>215.3</ele>
        <time>2019-08-09T15:19:57Z</time>
      </trkpt>
      <trkpt lat="48.13544" lon="7.30535">
        <ele>215.2</ele>
        <time>2019-08-09T15:19:58Z</time>
      </trkpt>
      <trkpt lat="48.13545" lon="7.30527">
        <ele>215.1</ele>
        <time>2019-08-09T15:20:00Z</time>
      </trkpt>
      <trkpt lat="48.13545" lon="7.30521">
        <ele>215.1</ele>
        <time>2019-08-09T15:20:01Z</time>
      </trkpt>
      <trkpt lat="48.13546" lon="7.30513">
        <ele>215</ele>
        <time>2019-08-09T15:20:03Z</time>
      </trkpt>
      <trkpt lat="48.13546" lon="7.30508">
        <ele>214.9</ele>
        <time>2019-08-09T15:20:04Z</time>
      </trkpt>
      <trkpt lat="48.13547" lon="7.30502">
        <ele>214.9</ele>
        <time>2019-08-09T15:20:05Z</time>
      </trkpt>
      <trkpt lat="48.13548" lon="7.30498">
        <ele>214.8</ele>
        <time>2019-08-09T15:20:06Z</time>
      </trkpt>
      <trkpt lat="48.13548" lon="7.30493">
        <ele>214.8</ele>
        <time>2019-08-09T15:20:07Z</time>
      </trkpt>
      <trkpt lat="48.13548" lon="7.30488">
        <ele>214.8</ele>
        <time>2019-08-09T15:20:08Z</time>
      </trkpt>
      <trkpt lat="48.13548" lon="7.30482">
        <ele>214.8</ele>
        <time>2019-08-09T15:20:09Z</time>
      </trkpt>
      <trkpt lat="48.13549" lon="7.30477">
        <ele>214.8</ele>
        <time>2019-08-09T15:20:10Z</time>
      </trkpt>
      <trkpt lat="48.1355" lon="7.30472">
        <ele>214.8</ele>
        <time>2019-08-09T15:20:11Z</time>
      </trkpt>
      <trkpt lat="48.13549" lon="7.30468">
        <ele>214.8</ele>
        <time>2019-08-09T15:20:12Z</time>
      </trkpt>
      <trkpt lat="48.13549" lon="7.30462">
        <ele>214.7</ele>
        <time>2019-08-09T15:20:13Z</time>
      </trkpt>
      <trkpt lat="48.13549" lon="7.30455">
        <ele>214.7</ele>
        <time>2019-08-09T15:20:14Z</time>
      </trkpt>
      <trkpt lat="48.1355" lon="7.3045">
        <ele>214.7</ele>
        <time>2019-08-09T15:20:15Z</time>
      </trkpt>
      <trkpt lat="48.1355" lon="7.30445">
        <ele>214.7</ele>
        <time>2019-08-09T15:20:16Z</time>
      </trkpt>
      <trkpt lat="48.13551" lon="7.30439">
        <ele>214.6</ele>
        <time>2019-08-09T15:20:17Z</time>
      </trkpt>
      <trkpt lat="48.13551" lon="7.30434">
        <ele>214.6</ele>
        <time>2019-08-09T15:20:18Z</time>
      </trkpt>
      <trkpt lat="48.1355" lon="7.30428">
        <ele>214.6</ele>
        <time>2019-08-09T15:20:19Z</time>
      </trkpt>
      <trkpt lat="48.1355" lon="7.30424">
        <ele>214.6</ele>
        <time>2019-08-09T15:20:20Z</time>
      </trkpt>
      <trkpt lat="48.1355" lon="7.30419">
        <ele>214.6</ele>
        <time>2019-08-09T15:20:21Z</time>
      </trkpt>
      <trkpt lat="48.1355" lon="7.30414">
        <ele>214.6</ele>
        <time>2019-08-09T15:20:22Z</time>
      </trkpt>
      <trkpt lat="48.13551" lon="7.30409">
        <ele>214.6</ele>
        <time>2019-08-09T15:20:23Z</time>
      </trkpt>
      <trkpt lat="48.13552" lon="7.30404">
        <ele>214.6</ele>
        <time>2019-08-09T15:20:24Z</time>
      </trkpt>
      <trkpt lat="48.13553" lon="7.304">
        <ele>214.6</ele>
        <time>2019-08-09T15:20:25Z</time>
      </trkpt>
      <trkpt lat="48.13553" lon="7.30394">
        <ele>214.5</ele>
        <time>2019-08-09T15:20:26Z</time>
      </trkpt>
      <trkpt lat="48.13553" lon="7.30388">
        <ele>214.5</ele>
        <time>2019-08-09T15:20:27Z</time>
      </trkpt>
      <trkpt lat="48.13554" lon="7.30383">
        <ele>214.4</ele>
        <time>2019-08-09T15:20:28Z</time>
      </trkpt>
      <trkpt lat="48.13554" lon="7.30373">
        <ele>214.5</ele>
        <time>2019-08-09T15:20:30Z</time>
      </trkpt>
      <trkpt lat="48.13555" lon="7.30367">
        <ele>214.7</ele>
        <time>2019-08-09T15:20:31Z</time>
      </trkpt>
      <trkpt lat="48.13556" lon="7.30358">
        <ele>214.9</ele>
        <time>2019-08-09T15:20:32Z</time>
      </trkpt>
      <trkpt lat="48.13557" lon="7.30353">
        <ele>215.1</ele>
        <time>2019-08-09T15:20:33Z</time>
      </trkpt>
      <trkpt lat="48.13559" lon="7.30346">
        <ele>215.2</ele>
        <time>2019-08-09T15:20:34Z</time>
      </trkpt>
      <trkpt lat="48.13559" lon="7.30342">
        <ele>215.3</ele>
        <time>2019-08-09T15:20:35Z</time>
      </trkpt>
      <trkpt lat="48.13561" lon="7.30337">
        <ele>215.3</ele>
        <time>2019-08-09T15:20:36Z</time>
      </trkpt>
      <trkpt lat="48.13563" lon="7.30331">
        <ele>215.4</ele>
        <time>2019-08-09T15:20:37Z</time>
      </trkpt>
      <trkpt lat="48.13564" lon="7.30324">
        <ele>215.4</ele>
        <time>2019-08-09T15:20:38Z</time>
      </trkpt>
      <trkpt lat="48.13564" lon="7.30318">
        <ele>215.4</ele>
        <time>2019-08-09T15:20:39Z</time>
      </trkpt>
      <trkpt lat="48.13565" lon="7.30312">
        <ele>215.4</ele>
        <time>2019-08-09T15:20:40Z</time>
      </trkpt>
      <trkpt lat="48.13565" lon="7.30306">
        <ele>215.4</ele>
        <time>2019-08-09T15:20:41Z</time>
      </trkpt>
      <trkpt lat="48.13566" lon="7.30301">
        <ele>215.4</ele>
        <time>2019-08-09T15:20:42Z</time>
      </trkpt>
      <trkpt lat="48.13567" lon="7.30296">
        <ele>215.4</ele>
        <time>2019-08-09T15:20:43Z</time>
      </trkpt>
      <trkpt lat="48.13569" lon="7.30291">
        <ele>215.4</ele>
        <time>2019-08-09T15:20:44Z</time>
      </trkpt>
      <trkpt lat="48.1357" lon="7.30286">
        <ele>215.4</ele>
        <time>2019-08-09T15:20:45Z</time>
      </trkpt>
      <trkpt lat="48.13571" lon="7.3028">
        <ele>215.4</ele>
        <time>2019-08-09T15:20:46Z</time>
      </trkpt>
      <trkpt lat="48.13572" lon="7.30274">
        <ele>215.5</ele>
        <time>2019-08-09T15:20:47Z</time>
      </trkpt>
      <trkpt lat="48.13576" lon="7.30268">
        <ele>215.5</ele>
        <time>2019-08-09T15:20:48Z</time>
      </trkpt>
      <trkpt lat="48.13578" lon="7.30262">
        <ele>215.5</ele>
        <time>2019-08-09T15:20:49Z</time>
      </trkpt>
      <trkpt lat="48.1358" lon="7.30256">
        <ele>215.6</ele>
        <time>2019-08-09T15:20:50Z</time>
      </trkpt>
      <trkpt lat="48.13582" lon="7.3025">
        <ele>215.7</ele>
        <time>2019-08-09T15:20:51Z</time>
      </trkpt>
      <trkpt lat="48.13584" lon="7.30244">
        <ele>215.8</ele>
        <time>2019-08-09T15:20:52Z</time>
      </trkpt>
      <trkpt lat="48.13586" lon="7.30237">
        <ele>215.9</ele>
        <time>2019-08-09T15:20:53Z</time>
      </trkpt>
      <trkpt lat="48.13588" lon="7.30229">
        <ele>216</ele>
        <time>2019-08-09T15:20:54Z</time>
      </trkpt>
      <trkpt lat="48.13589" lon="7.30222">
        <ele>216.2</ele>
        <time>2019-08-09T15:20:55Z</time>
      </trkpt>
      <trkpt lat="48.13591" lon="7.30214">
        <ele>216.3</ele>
        <time>2019-08-09T15:20:56Z</time>
      </trkpt>
      <trkpt lat="48.13592" lon="7.30207">
        <ele>216.4</ele>
        <time>2019-08-09T15:20:57Z</time>
      </trkpt>
      <trkpt lat="48.13593" lon="7.302">
        <ele>216.4</ele>
        <time>2019-08-09T15:20:58Z</time>
      </trkpt>
      <trkpt lat="48.13595" lon="7.30192">
        <ele>216.5</ele>
        <time>2019-08-09T15:20:59Z</time>
      </trkpt>
      <trkpt lat="48.13595" lon="7.30185">
        <ele>216.5</ele>
        <time>2019-08-09T15:21:00Z</time>
      </trkpt>
      <trkpt lat="48.13596" lon="7.30178">
        <ele>216.6</ele>
        <time>2019-08-09T15:21:01Z</time>
      </trkpt>
      <trkpt lat="48.13597" lon="7.3017">
        <ele>216.7</ele>
        <time>2019-08-09T15:21:02Z</time>
      </trkpt>
      <trkpt lat="48.13597" lon="7.30163">
        <ele>216.7</ele>
        <time>2019-08-09T15:21:03Z</time>
      </trkpt>
      <trkpt lat="48.13598" lon="7.30156">
        <ele>216.8</ele>
        <time>2019-08-09T15:21:04Z</time>
      </trkpt>
      <trkpt lat="48.13599" lon="7.3015">
        <ele>216.8</ele>
        <time>2019-08-09T15:21:05Z</time>
      </trkpt>
      <trkpt lat="48.136" lon="7.30144">
        <ele>216.9</ele>
        <time>2019-08-09T15:21:06Z</time>
      </trkpt>
      <trkpt lat="48.13601" lon="7.30138">
        <ele>216.9</ele>
        <time>2019-08-09T15:21:07Z</time>
      </trkpt>
      <trkpt lat="48.13602" lon="7.30132">
        <ele>217</ele>
        <time>2019-08-09T15:21:08Z</time>
      </trkpt>
      <trkpt lat="48.13602" lon="7.30126">
        <ele>217.2</ele>
        <time>2019-08-09T15:21:09Z</time>
      </trkpt>
      <trkpt lat="48.13603" lon="7.3012">
        <ele>217.2</ele>
        <time>2019-08-09T15:21:10Z</time>
      </trkpt>
      <trkpt lat="48.13603" lon="7.30113">
        <ele>217.2</ele>
        <time>2019-08-09T15:21:11Z</time>
      </trkpt>
      <trkpt lat="48.13603" lon="7.30106">
        <ele>217.2</ele>
        <time>2019-08-09T15:21:12Z</time>
      </trkpt>
      <trkpt lat="48.13603" lon="7.30099">
        <ele>217.2</ele>
        <time>2019-08-09T15:21:13Z</time>
      </trkpt>
      <trkpt lat="48.13604" lon="7.30093">
        <ele>217.2</ele>
        <time>2019-08-09T15:21:14Z</time>
      </trkpt>
      <trkpt lat="48.13604" lon="7.30087">
        <ele>217.2</ele>
        <time>2019-08-09T15:21:15Z</time>
      </trkpt>
      <trkpt lat="48.13605" lon="7.30082">
        <ele>217.2</ele>
        <time>2019-08-09T15:21:16Z</time>
      </trkpt>
      <trkpt lat="48.13605" lon="7.30077">
        <ele>217.4</ele>
        <time>2019-08-09T15:21:17Z</time>
      </trkpt>
      <trkpt lat="48.13606" lon="7.30071">
        <ele>217.4</ele>
        <time>2019-08-09T15:21:18Z</time>
      </trkpt>
      <trkpt lat="48.13606" lon="7.30065">
        <ele>217.5</ele>
        <time>2019-08-09T15:21:19Z</time>
      </trkpt>
      <trkpt lat="48.13607" lon="7.3006">
        <ele>217.6</ele>
        <time>2019-08-09T15:21:20Z</time>
      </trkpt>
      <trkpt lat="48.13608" lon="7.30055">
        <ele>217.6</ele>
        <time>2019-08-09T15:21:21Z</time>
      </trkpt>
      <trkpt lat="48.13608" lon="7.30049">
        <ele>217.7</ele>
        <time>2019-08-09T15:21:22Z</time>
      </trkpt>
      <trkpt lat="48.13608" lon="7.30043">
        <ele>217.8</ele>
        <time>2019-08-09T15:21:23Z</time>
      </trkpt>
      <trkpt lat="48.13608" lon="7.30038">
        <ele>217.9</ele>
        <time>2019-08-09T15:21:24Z</time>
      </trkpt>
      <trkpt lat="48.13608" lon="7.30033">
        <ele>218</ele>
        <time>2019-08-09T15:21:25Z</time>
      </trkpt>
      <trkpt lat="48.13609" lon="7.30028">
        <ele>218.1</ele>
        <time>2019-08-09T15:21:26Z</time>
      </trkpt>
      <trkpt lat="48.13609" lon="7.3002">
        <ele>218.3</ele>
        <time>2019-08-09T15:21:28Z</time>
      </trkpt>
      <trkpt lat="48.1361" lon="7.30014">
        <ele>218.5</ele>
        <time>2019-08-09T15:21:30Z</time>
      </trkpt>
      <trkpt lat="48.1361" lon="7.3001">
        <ele>218.6</ele>
        <time>2019-08-09T15:21:33Z</time>
      </trkpt>
      <trkpt lat="48.13607" lon="7.30005">
        <ele>218.8</ele>
        <time>2019-08-09T15:21:35Z</time>
      </trkpt>
      <trkpt lat="48.13603" lon="7.30001">
        <ele>219</ele>
        <time>2019-08-09T15:21:37Z</time>
      </trkpt>
      <trkpt lat="48.13601" lon="7.29999">
        <ele>219</ele>
        <time>2019-08-09T15:21:38Z</time>
      </trkpt>
      <trkpt lat="48.13598" lon="7.29998">
        <ele>219</ele>
        <time>2019-08-09T15:21:39Z</time>
      </trkpt>
      <trkpt lat="48.13595" lon="7.29996">
        <ele>219</ele>
        <time>2019-08-09T15:21:40Z</time>
      </trkpt>
      <trkpt lat="48.13593" lon="7.29994">
        <ele>219</ele>
        <time>2019-08-09T15:21:41Z</time>
      </trkpt>
      <trkpt lat="48.13589" lon="7.29993">
        <ele>219</ele>
        <time>2019-08-09T15:21:43Z</time>
      </trkpt>
      <trkpt lat="48.13587" lon="7.29995">
        <ele>219</ele>
        <time>2019-08-09T15:21:46Z</time>
      </trkpt>
      <trkpt lat="48.13585" lon="7.29999">
        <ele>218.9</ele>
        <time>2019-08-09T15:21:51Z</time>
      </trkpt>
      <trkpt lat="48.13589" lon="7.3">
        <ele>218.9</ele>
        <time>2019-08-09T15:21:56Z</time>
      </trkpt>
      <trkpt lat="48.13593" lon="7.29998">
        <ele>218.9</ele>
        <time>2019-08-09T15:21:58Z</time>
      </trkpt>
      <trkpt lat="48.13597" lon="7.29998">
        <ele>218.9</ele>
        <time>2019-08-09T15:22:00Z</time>
      </trkpt>
      <trkpt lat="48.136" lon="7.29999">
        <ele>218.9</ele>
        <time>2019-08-09T15:22:01Z</time>
      </trkpt>
      <trkpt lat="48.13603" lon="7.30003">
        <ele>218.8</ele>
        <time>2019-08-09T15:22:03Z</time>
      </trkpt>
      <trkpt lat="48.13606" lon="7.30006">
        <ele>218.8</ele>
        <time>2019-08-09T15:22:05Z</time>
      </trkpt>
      <trkpt lat="48.13605" lon="7.30011">
        <ele>218.7</ele>
        <time>2019-08-09T15:22:15Z</time>
      </trkpt>
      <trkpt lat="48.13607" lon="7.30006">
        <ele>218.7</ele>
        <time>2019-08-09T15:22:41Z</time>
      </trkpt>
      <trkpt lat="48.13607" lon="7.30001">
        <ele>218.6</ele>
        <time>2019-08-09T15:22:44Z</time>
      </trkpt>
      <trkpt lat="48.13603" lon="7.29999">
        <ele>218.5</ele>
        <time>2019-08-09T15:22:46Z</time>
      </trkpt>
      <trkpt lat="48.13599" lon="7.29998">
        <ele>218.4</ele>
        <time>2019-08-09T15:22:47Z</time>
      </trkpt>
      <trkpt lat="48.13595" lon="7.29997">
        <ele>218.3</ele>
        <time>2019-08-09T15:22:48Z</time>
      </trkpt>
      <trkpt lat="48.13591" lon="7.29996">
        <ele>218.2</ele>
        <time>2019-08-09T15:22:49Z</time>
      </trkpt>
      <trkpt lat="48.13587" lon="7.29994">
        <ele>218</ele>
        <time>2019-08-09T15:22:50Z</time>
      </trkpt>
      <trkpt lat="48.13582" lon="7.29993">
        <ele>217.8</ele>
        <time>2019-08-09T15:22:51Z</time>
      </trkpt>
      <trkpt lat="48.13577" lon="7.29992">
        <ele>217.7</ele>
        <time>2019-08-09T15:22:52Z</time>
      </trkpt>
      <trkpt lat="48.13573" lon="7.29991">
        <ele>217.6</ele>
        <time>2019-08-09T15:22:53Z</time>
      </trkpt>
      <trkpt lat="48.13569" lon="7.2999">
        <ele>217.4</ele>
        <time>2019-08-09T15:22:54Z</time>
      </trkpt>
      <trkpt lat="48.13564" lon="7.2999">
        <ele>217.3</ele>
        <time>2019-08-09T15:22:55Z</time>
      </trkpt>
      <trkpt lat="48.13559" lon="7.2999">
        <ele>217.2</ele>
        <time>2019-08-09T15:22:56Z</time>
      </trkpt>
      <trkpt lat="48.13554" lon="7.29988">
        <ele>217.1</ele>
        <time>2019-08-09T15:22:57Z</time>
      </trkpt>
      <trkpt lat="48.13549" lon="7.29987">
        <ele>217</ele>
        <time>2019-08-09T15:22:58Z</time>
      </trkpt>
      <trkpt lat="48.13544" lon="7.29985">
        <ele>217</ele>
        <time>2019-08-09T15:22:59Z</time>
      </trkpt>
      <trkpt lat="48.13538" lon="7.29986">
        <ele>216.9</ele>
        <time>2019-08-09T15:23:00Z</time>
      </trkpt>
      <trkpt lat="48.13533" lon="7.29986">
        <ele>216.9</ele>
        <time>2019-08-09T15:23:01Z</time>
      </trkpt>
      <trkpt lat="48.13528" lon="7.29986">
        <ele>216.8</ele>
        <time>2019-08-09T15:23:02Z</time>
      </trkpt>
      <trkpt lat="48.13523" lon="7.29986">
        <ele>216.8</ele>
        <time>2019-08-09T15:23:03Z</time>
      </trkpt>
      <trkpt lat="48.13518" lon="7.29986">
        <ele>216.7</ele>
        <time>2019-08-09T15:23:04Z</time>
      </trkpt>
      <trkpt lat="48.13513" lon="7.29987">
        <ele>216.7</ele>
        <time>2019-08-09T15:23:05Z</time>
      </trkpt>
      <trkpt lat="48.13508" lon="7.29989">
        <ele>216.5</ele>
        <time>2019-08-09T15:23:06Z</time>
      </trkpt>
      <trkpt lat="48.13504" lon="7.29987">
        <ele>216.4</ele>
        <time>2019-08-09T15:23:07Z</time>
      </trkpt>
      <trkpt lat="48.13499" lon="7.29987">
        <ele>216.3</ele>
        <time>2019-08-09T15:23:08Z</time>
      </trkpt>
      <trkpt lat="48.13494" lon="7.29988">
        <ele>216.1</ele>
        <time>2019-08-09T15:23:09Z</time>
      </trkpt>
      <trkpt lat="48.13489" lon="7.2999">
        <ele>215.9</ele>
        <time>2019-08-09T15:23:10Z</time>
      </trkpt>
      <trkpt lat="48.13484" lon="7.29989">
        <ele>215.7</ele>
        <time>2019-08-09T15:23:11Z</time>
      </trkpt>
      <trkpt lat="48.13479" lon="7.2999">
        <ele>215.6</ele>
        <time>2019-08-09T15:23:12Z</time>
      </trkpt>
      <trkpt lat="48.13475" lon="7.29991">
        <ele>215.4</ele>
        <time>2019-08-09T15:23:13Z</time>
      </trkpt>
      <trkpt lat="48.13471" lon="7.29995">
        <ele>215.3</ele>
        <time>2019-08-09T15:23:14Z</time>
      </trkpt>
      <trkpt lat="48.13465" lon="7.29996">
        <ele>215.1</ele>
        <time>2019-08-09T15:23:15Z</time>
      </trkpt>
      <trkpt lat="48.1346" lon="7.29996">
        <ele>215</ele>
        <time>2019-08-09T15:23:16Z</time>
      </trkpt>
      <trkpt lat="48.13455" lon="7.29996">
        <ele>215</ele>
        <time>2019-08-09T15:23:17Z</time>
      </trkpt>
      <trkpt lat="48.1345" lon="7.29996">
        <ele>214.9</ele>
        <time>2019-08-09T15:23:18Z</time>
      </trkpt>
      <trkpt lat="48.13446" lon="7.29996">
        <ele>214.9</ele>
        <time>2019-08-09T15:23:19Z</time>
      </trkpt>
      <trkpt lat="48.13442" lon="7.29996">
        <ele>214.9</ele>
        <time>2019-08-09T15:23:20Z</time>
      </trkpt>
      <trkpt lat="48.13437" lon="7.29999">
        <ele>214.8</ele>
        <time>2019-08-09T15:23:21Z</time>
      </trkpt>
      <trkpt lat="48.13432" lon="7.3">
        <ele>214.8</ele>
        <time>2019-08-09T15:23:22Z</time>
      </trkpt>
      <trkpt lat="48.13427" lon="7.30001">
        <ele>214.8</ele>
        <time>2019-08-09T15:23:23Z</time>
      </trkpt>
      <trkpt lat="48.13421" lon="7.30001">
        <ele>214.8</ele>
        <time>2019-08-09T15:23:24Z</time>
      </trkpt>
      <trkpt lat="48.13416" lon="7.30002">
        <ele>214.7</ele>
        <time>2019-08-09T15:23:25Z</time>
      </trkpt>
      <trkpt lat="48.1341" lon="7.30005">
        <ele>214.7</ele>
        <time>2019-08-09T15:23:26Z</time>
      </trkpt>
      <trkpt lat="48.13405" lon="7.30007">
        <ele>214.6</ele>
        <time>2019-08-09T15:23:27Z</time>
      </trkpt>
      <trkpt lat="48.134" lon="7.30009">
        <ele>214.6</ele>
        <time>2019-08-09T15:23:28Z</time>
      </trkpt>
      <trkpt lat="48.13395" lon="7.3001">
        <ele>214.6</ele>
        <time>2019-08-09T15:23:29Z</time>
      </trkpt>
      <trkpt lat="48.1339" lon="7.30011">
        <ele>214.5</ele>
        <time>2019-08-09T15:23:30Z</time>
      </trkpt>
      <trkpt lat="48.13385" lon="7.30012">
        <ele>214.5</ele>
        <time>2019-08-09T15:23:31Z</time>
      </trkpt>
      <trkpt lat="48.1338" lon="7.30012">
        <ele>214.4</ele>
        <time>2019-08-09T15:23:32Z</time>
      </trkpt>
      <trkpt lat="48.13375" lon="7.30012">
        <ele>214.4</ele>
        <time>2019-08-09T15:23:33Z</time>
      </trkpt>
      <trkpt lat="48.1337" lon="7.30012">
        <ele>214.3</ele>
        <time>2019-08-09T15:23:34Z</time>
      </trkpt>
      <trkpt lat="48.13365" lon="7.30013">
        <ele>214.3</ele>
        <time>2019-08-09T15:23:35Z</time>
      </trkpt>
      <trkpt lat="48.1336" lon="7.30013">
        <ele>214.2</ele>
        <time>2019-08-09T15:23:36Z</time>
      </trkpt>
      <trkpt lat="48.13356" lon="7.30014">
        <ele>214.2</ele>
        <time>2019-08-09T15:23:37Z</time>
      </trkpt>
      <trkpt lat="48.13351" lon="7.30015">
        <ele>214.1</ele>
        <time>2019-08-09T15:23:38Z</time>
      </trkpt>
      <trkpt lat="48.13347" lon="7.30017">
        <ele>214</ele>
        <time>2019-08-09T15:23:39Z</time>
      </trkpt>
      <trkpt lat="48.13343" lon="7.30017">
        <ele>213.9</ele>
        <time>2019-08-09T15:23:40Z</time>
      </trkpt>
      <trkpt lat="48.13339" lon="7.30016">
        <ele>213.8</ele>
        <time>2019-08-09T15:23:41Z</time>
      </trkpt>
      <trkpt lat="48.13336" lon="7.30017">
        <ele>213.8</ele>
        <time>2019-08-09T15:23:43Z</time>
      </trkpt>
      <trkpt lat="48.13339" lon="7.30017">
        <ele>213.7</ele>
        <time>2019-08-09T15:23:47Z</time>
      </trkpt>
      <trkpt lat="48.13335" lon="7.30023">
        <ele>213.6</ele>
        <time>2019-08-09T15:24:09Z</time>
      </trkpt>
      <trkpt lat="48.13332" lon="7.30019">
        <ele>213.5</ele>
        <time>2019-08-09T15:24:11Z</time>
      </trkpt>
      <trkpt lat="48.13333" lon="7.30014">
        <ele>213.4</ele>
        <time>2019-08-09T15:24:14Z</time>
      </trkpt>
      <trkpt lat="48.13331" lon="7.3001">
        <ele>213.3</ele>
        <time>2019-08-09T15:24:21Z</time>
      </trkpt>
      <trkpt lat="48.13329" lon="7.30008">
        <ele>213.2</ele>
        <time>2019-08-09T15:24:22Z</time>
      </trkpt>
      <trkpt lat="48.13325" lon="7.30007">
        <ele>213.2</ele>
        <time>2019-08-09T15:24:23Z</time>
      </trkpt>
      <trkpt lat="48.13321" lon="7.30011">
        <ele>213.1</ele>
        <time>2019-08-09T15:24:25Z</time>
      </trkpt>
      <trkpt lat="48.13319" lon="7.30017">
        <ele>213.1</ele>
        <time>2019-08-09T15:24:27Z</time>
      </trkpt>
      <trkpt lat="48.13317" lon="7.30023">
        <ele>213</ele>
        <time>2019-08-09T15:24:29Z</time>
      </trkpt>
      <trkpt lat="48.13315" lon="7.30027">
        <ele>213</ele>
        <time>2019-08-09T15:24:30Z</time>
      </trkpt>
      <trkpt lat="48.13313" lon="7.30031">
        <ele>212.9</ele>
        <time>2019-08-09T15:24:31Z</time>
      </trkpt>
      <trkpt lat="48.13311" lon="7.30034">
        <ele>212.9</ele>
        <time>2019-08-09T15:24:32Z</time>
      </trkpt>
      <trkpt lat="48.13307" lon="7.30039">
        <ele>212.8</ele>
        <time>2019-08-09T15:24:34Z</time>
      </trkpt>
      <trkpt lat="48.13303" lon="7.30038">
        <ele>212.6</ele>
        <time>2019-08-09T15:24:36Z</time>
      </trkpt>
      <trkpt lat="48.133" lon="7.30038">
        <ele>212.6</ele>
        <time>2019-08-09T15:24:37Z</time>
      </trkpt>
      <trkpt lat="48.13295" lon="7.30038">
        <ele>212.5</ele>
        <time>2019-08-09T15:24:39Z</time>
      </trkpt>
      <trkpt lat="48.13291" lon="7.30036">
        <ele>212.4</ele>
        <time>2019-08-09T15:24:41Z</time>
      </trkpt>
      <trkpt lat="48.13287" lon="7.30034">
        <ele>212.3</ele>
        <time>2019-08-09T15:24:43Z</time>
      </trkpt>
      <trkpt lat="48.13282" lon="7.30033">
        <ele>212.2</ele>
        <time>2019-08-09T15:24:45Z</time>
      </trkpt>
      <trkpt lat="48.13278" lon="7.30031">
        <ele>212.1</ele>
        <time>2019-08-09T15:24:47Z</time>
      </trkpt>
      <trkpt lat="48.13276" lon="7.3003">
        <ele>212</ele>
        <time>2019-08-09T15:24:48Z</time>
      </trkpt>
      <trkpt lat="48.13273" lon="7.3003">
        <ele>212</ele>
        <time>2019-08-09T15:24:49Z</time>
      </trkpt>
      <trkpt lat="48.1327" lon="7.30031">
        <ele>211.9</ele>
        <time>2019-08-09T15:24:50Z</time>
      </trkpt>
      <trkpt lat="48.13267" lon="7.30031">
        <ele>211.9</ele>
        <time>2019-08-09T15:24:51Z</time>
      </trkpt>
      <trkpt lat="48.13264" lon="7.30032">
        <ele>211.8</ele>
        <time>2019-08-09T15:24:52Z</time>
      </trkpt>
      <trkpt lat="48.13258" lon="7.30033">
        <ele>211.7</ele>
        <time>2019-08-09T15:24:54Z</time>
      </trkpt>
      <trkpt lat="48.13256" lon="7.30033">
        <ele>211.6</ele>
        <time>2019-08-09T15:24:55Z</time>
      </trkpt>
      <trkpt lat="48.13253" lon="7.30034">
        <ele>211.6</ele>
        <time>2019-08-09T15:24:56Z</time>
      </trkpt>
      <trkpt lat="48.1325" lon="7.30036">
        <ele>211.5</ele>
        <time>2019-08-09T15:24:57Z</time>
      </trkpt>
      <trkpt lat="48.13246" lon="7.30038">
        <ele>211.4</ele>
        <time>2019-08-09T15:24:58Z</time>
      </trkpt>
      <trkpt lat="48.13243" lon="7.30039">
        <ele>211.4</ele>
        <time>2019-08-09T15:24:59Z</time>
      </trkpt>
      <trkpt lat="48.13241" lon="7.3004">
        <ele>211.3</ele>
        <time>2019-08-09T15:25:00Z</time>
      </trkpt>
      <trkpt lat="48.13237" lon="7.30043">
        <ele>211.2</ele>
        <time>2019-08-09T15:25:02Z</time>
      </trkpt>
      <trkpt lat="48.13234" lon="7.30047">
        <ele>211.1</ele>
        <time>2019-08-09T15:25:04Z</time>
      </trkpt>
      <trkpt lat="48.13231" lon="7.30053">
        <ele>211.1</ele>
        <time>2019-08-09T15:25:06Z</time>
      </trkpt>
      <trkpt lat="48.13227" lon="7.30055">
        <ele>211.2</ele>
        <time>2019-08-09T15:25:08Z</time>
      </trkpt>
      <trkpt lat="48.13224" lon="7.30057">
        <ele>211.2</ele>
        <time>2019-08-09T15:25:10Z</time>
      </trkpt>
      <trkpt lat="48.1322" lon="7.30058">
        <ele>211.2</ele>
        <time>2019-08-09T15:25:12Z</time>
      </trkpt>
      <trkpt lat="48.13216" lon="7.3006">
        <ele>211.2</ele>
        <time>2019-08-09T15:25:14Z</time>
      </trkpt>
      <trkpt lat="48.13211" lon="7.3006">
        <ele>211.3</ele>
        <time>2019-08-09T15:25:16Z</time>
      </trkpt>
      <trkpt lat="48.13206" lon="7.30063">
        <ele>211.3</ele>
        <time>2019-08-09T15:25:18Z</time>
      </trkpt>
      <trkpt lat="48.13201" lon="7.30061">
        <ele>211.4</ele>
        <time>2019-08-09T15:25:20Z</time>
      </trkpt>
      <trkpt lat="48.13196" lon="7.30063">
        <ele>211.4</ele>
        <time>2019-08-09T15:25:22Z</time>
      </trkpt>
      <trkpt lat="48.13194" lon="7.30064">
        <ele>211.4</ele>
        <time>2019-08-09T15:25:23Z</time>
      </trkpt>
      <trkpt lat="48.1319" lon="7.30066">
        <ele>211.4</ele>
        <time>2019-08-09T15:25:24Z</time>
      </trkpt>
      <trkpt lat="48.13186" lon="7.30067">
        <ele>211.4</ele>
        <time>2019-08-09T15:25:25Z</time>
      </trkpt>
      <trkpt lat="48.13183" lon="7.30068">
        <ele>211.5</ele>
        <time>2019-08-09T15:25:26Z</time>
      </trkpt>
      <trkpt lat="48.13179" lon="7.3007">
        <ele>211.5</ele>
        <time>2019-08-09T15:25:27Z</time>
      </trkpt>
      <trkpt lat="48.13176" lon="7.30071">
        <ele>211.5</ele>
        <time>2019-08-09T15:25:28Z</time>
      </trkpt>
      <trkpt lat="48.13173" lon="7.30072">
        <ele>211.5</ele>
        <time>2019-08-09T15:25:29Z</time>
      </trkpt>
      <trkpt lat="48.1317" lon="7.30073">
        <ele>211.5</ele>
        <time>2019-08-09T15:25:30Z</time>
      </trkpt>
      <trkpt lat="48.13166" lon="7.30075">
        <ele>211.5</ele>
        <time>2019-08-09T15:25:32Z</time>
      </trkpt>
      <trkpt lat="48.13162" lon="7.30078">
        <ele>211.5</ele>
        <time>2019-08-09T15:25:34Z</time>
      </trkpt>
      <trkpt lat="48.13158" lon="7.30079">
        <ele>211.4</ele>
        <time>2019-08-09T15:25:36Z</time>
      </trkpt>
      <trkpt lat="48.13155" lon="7.30081">
        <ele>211.4</ele>
        <time>2019-08-09T15:25:38Z</time>
      </trkpt>
      <trkpt lat="48.13152" lon="7.30084">
        <ele>211.4</ele>
        <time>2019-08-09T15:25:41Z</time>
      </trkpt>
      <trkpt lat="48.13155" lon="7.30086">
        <ele>211.4</ele>
        <time>2019-08-09T15:25:47Z</time>
      </trkpt>
      <trkpt lat="48.13151" lon="7.30087">
        <ele>211.4</ele>
        <time>2019-08-09T15:26:13Z</time>
      </trkpt>
      <trkpt lat="48.13148" lon="7.30086">
        <ele>211.4</ele>
        <time>2019-08-09T15:26:14Z</time>
      </trkpt>
      <trkpt lat="48.13145" lon="7.30086">
        <ele>211.3</ele>
        <time>2019-08-09T15:26:15Z</time>
      </trkpt>
      <trkpt lat="48.13142" lon="7.30086">
        <ele>211.3</ele>
        <time>2019-08-09T15:26:16Z</time>
      </trkpt>
      <trkpt lat="48.13139" lon="7.30087">
        <ele>211.2</ele>
        <time>2019-08-09T15:26:17Z</time>
      </trkpt>
      <trkpt lat="48.13135" lon="7.30088">
        <ele>211.2</ele>
        <time>2019-08-09T15:26:18Z</time>
      </trkpt>
      <trkpt lat="48.13132" lon="7.30088">
        <ele>211.1</ele>
        <time>2019-08-09T15:26:19Z</time>
      </trkpt>
      <trkpt lat="48.13128" lon="7.30088">
        <ele>211.1</ele>
        <time>2019-08-09T15:26:20Z</time>
      </trkpt>
      <trkpt lat="48.13125" lon="7.30089">
        <ele>211</ele>
        <time>2019-08-09T15:26:21Z</time>
      </trkpt>
      <trkpt lat="48.13122" lon="7.30089">
        <ele>211</ele>
        <time>2019-08-09T15:26:22Z</time>
      </trkpt>
      <trkpt lat="48.13119" lon="7.30089">
        <ele>210.9</ele>
        <time>2019-08-09T15:26:23Z</time>
      </trkpt>
      <trkpt lat="48.13114" lon="7.30088">
        <ele>210.9</ele>
        <time>2019-08-09T15:26:25Z</time>
      </trkpt>
      <trkpt lat="48.13109" lon="7.30089">
        <ele>210.8</ele>
        <time>2019-08-09T15:26:27Z</time>
      </trkpt>
      <trkpt lat="48.13106" lon="7.3009">
        <ele>210.7</ele>
        <time>2019-08-09T15:26:28Z</time>
      </trkpt>
      <trkpt lat="48.13101" lon="7.30088">
        <ele>210.6</ele>
        <time>2019-08-09T15:26:30Z</time>
      </trkpt>
      <trkpt lat="48.13096" lon="7.30089">
        <ele>210.5</ele>
        <time>2019-08-09T15:26:32Z</time>
      </trkpt>
      <trkpt lat="48.13093" lon="7.30089">
        <ele>210.5</ele>
        <time>2019-08-09T15:26:33Z</time>
      </trkpt>
      <trkpt lat="48.1309" lon="7.30087">
        <ele>210.4</ele>
        <time>2019-08-09T15:26:34Z</time>
      </trkpt>
      <trkpt lat="48.13085" lon="7.30086">
        <ele>210.4</ele>
        <time>2019-08-09T15:26:36Z</time>
      </trkpt>
      <trkpt lat="48.13081" lon="7.30085">
        <ele>210.3</ele>
        <time>2019-08-09T15:26:38Z</time>
      </trkpt>
      <trkpt lat="48.13077" lon="7.30085">
        <ele>210.3</ele>
        <time>2019-08-09T15:26:40Z</time>
      </trkpt>
      <trkpt lat="48.13073" lon="7.30086">
        <ele>210.3</ele>
        <time>2019-08-09T15:26:43Z</time>
      </trkpt>
      <trkpt lat="48.13068" lon="7.30082">
        <ele>210.3</ele>
        <time>2019-08-09T15:26:45Z</time>
      </trkpt>
      <trkpt lat="48.13065" lon="7.30082">
        <ele>210.3</ele>
        <time>2019-08-09T15:26:46Z</time>
      </trkpt>
      <trkpt lat="48.13061" lon="7.3008">
        <ele>210.3</ele>
        <time>2019-08-09T15:26:48Z</time>
      </trkpt>
      <trkpt lat="48.13056" lon="7.30078">
        <ele>210.4</ele>
        <time>2019-08-09T15:26:50Z</time>
      </trkpt>
      <trkpt lat="48.13051" lon="7.30079">
        <ele>210.4</ele>
        <time>2019-08-09T15:26:52Z</time>
      </trkpt>
      <trkpt lat="48.13047" lon="7.30079">
        <ele>210.5</ele>
        <time>2019-08-09T15:26:53Z</time>
      </trkpt>
      <trkpt lat="48.13041" lon="7.30081">
        <ele>210.6</ele>
        <time>2019-08-09T15:26:54Z</time>
      </trkpt>
      <trkpt lat="48.13035" lon="7.30084">
        <ele>210.7</ele>
        <time>2019-08-09T15:26:55Z</time>
      </trkpt>
      <trkpt lat="48.13029" lon="7.30088">
        <ele>210.7</ele>
        <time>2019-08-09T15:26:56Z</time>
      </trkpt>
      <trkpt lat="48.13025" lon="7.30093">
        <ele>210.7</ele>
        <time>2019-08-09T15:26:57Z</time>
      </trkpt>
      <trkpt lat="48.13021" lon="7.30095">
        <ele>210.8</ele>
        <time>2019-08-09T15:26:58Z</time>
      </trkpt>
      <trkpt lat="48.13018" lon="7.30096">
        <ele>210.8</ele>
        <time>2019-08-09T15:26:59Z</time>
      </trkpt>
      <trkpt lat="48.13015" lon="7.30097">
        <ele>210.8</ele>
        <time>2019-08-09T15:27:00Z</time>
      </trkpt>
      <trkpt lat="48.13011" lon="7.30099">
        <ele>210.8</ele>
        <time>2019-08-09T15:27:02Z</time>
      </trkpt>
      <trkpt lat="48.13008" lon="7.30104">
        <ele>210.9</ele>
        <time>2019-08-09T15:27:04Z</time>
      </trkpt>
      <trkpt lat="48.13007" lon="7.30108">
        <ele>210.9</ele>
        <time>2019-08-09T15:27:06Z</time>
      </trkpt>
      <trkpt lat="48.13007" lon="7.30112">
        <ele>210.9</ele>
        <time>2019-08-09T15:27:09Z</time>
      </trkpt>
      <trkpt lat="48.13006" lon="7.30115">
        <ele>210.8</ele>
        <time>2019-08-09T15:28:27Z</time>
      </trkpt>
      <trkpt lat="48.13006" lon="7.30119">
        <ele>210.7</ele>
        <time>2019-08-09T15:28:28Z</time>
      </trkpt>
      <trkpt lat="48.13008" lon="7.30124">
        <ele>210.6</ele>
        <time>2019-08-09T15:28:29Z</time>
      </trkpt>
      <trkpt lat="48.13011" lon="7.30127">
        <ele>210.5</ele>
        <time>2019-08-09T15:28:30Z</time>
      </trkpt>
      <trkpt lat="48.13013" lon="7.3013">
        <ele>210.4</ele>
        <time>2019-08-09T15:28:31Z</time>
      </trkpt>
      <trkpt lat="48.13015" lon="7.30135">
        <ele>210.3</ele>
        <time>2019-08-09T15:28:32Z</time>
      </trkpt>
      <trkpt lat="48.13017" lon="7.3014">
        <ele>210.1</ele>
        <time>2019-08-09T15:28:33Z</time>
      </trkpt>
      <trkpt lat="48.13019" lon="7.30145">
        <ele>210</ele>
        <time>2019-08-09T15:28:34Z</time>
      </trkpt>
      <trkpt lat="48.1302" lon="7.30151">
        <ele>209.9</ele>
        <time>2019-08-09T15:28:35Z</time>
      </trkpt>
      <trkpt lat="48.13021" lon="7.30158">
        <ele>209.8</ele>
        <time>2019-08-09T15:28:36Z</time>
      </trkpt>
      <trkpt lat="48.13021" lon="7.30163">
        <ele>209.7</ele>
        <time>2019-08-09T15:28:37Z</time>
      </trkpt>
      <trkpt lat="48.13022" lon="7.30168">
        <ele>209.6</ele>
        <time>2019-08-09T15:28:38Z</time>
      </trkpt>
      <trkpt lat="48.13023" lon="7.30175">
        <ele>209.5</ele>
        <time>2019-08-09T15:28:39Z</time>
      </trkpt>
      <trkpt lat="48.13024" lon="7.30181">
        <ele>209.4</ele>
        <time>2019-08-09T15:28:40Z</time>
      </trkpt>
      <trkpt lat="48.13025" lon="7.30188">
        <ele>209.3</ele>
        <time>2019-08-09T15:28:41Z</time>
      </trkpt>
      <trkpt lat="48.13025" lon="7.30195">
        <ele>209.2</ele>
        <time>2019-08-09T15:28:42Z</time>
      </trkpt>
      <trkpt lat="48.13027" lon="7.30202">
        <ele>209.1</ele>
        <time>2019-08-09T15:28:43Z</time>
      </trkpt>
      <trkpt lat="48.13029" lon="7.30209">
        <ele>209</ele>
        <time>2019-08-09T15:28:44Z</time>
      </trkpt>
      <trkpt lat="48.1303" lon="7.30216">
        <ele>208.9</ele>
        <time>2019-08-09T15:28:45Z</time>
      </trkpt>
      <trkpt lat="48.13031" lon="7.30222">
        <ele>208.8</ele>
        <time>2019-08-09T15:28:46Z</time>
      </trkpt>
      <trkpt lat="48.13032" lon="7.30229">
        <ele>208.7</ele>
        <time>2019-08-09T15:28:47Z</time>
      </trkpt>
      <trkpt lat="48.13031" lon="7.30236">
        <ele>208.6</ele>
        <time>2019-08-09T15:28:48Z</time>
      </trkpt>
      <trkpt lat="48.13029" lon="7.30245">
        <ele>208.5</ele>
        <time>2019-08-09T15:28:49Z</time>
      </trkpt>
      <trkpt lat="48.13028" lon="7.30253">
        <ele>208.5</ele>
        <time>2019-08-09T15:28:50Z</time>
      </trkpt>
      <trkpt lat="48.13028" lon="7.3026">
        <ele>208.4</ele>
        <time>2019-08-09T15:28:51Z</time>
      </trkpt>
      <trkpt lat="48.13027" lon="7.3027">
        <ele>208.3</ele>
        <time>2019-08-09T15:28:52Z</time>
      </trkpt>
      <trkpt lat="48.13027" lon="7.30278">
        <ele>208.2</ele>
        <time>2019-08-09T15:28:53Z</time>
      </trkpt>
      <trkpt lat="48.13025" lon="7.30286">
        <ele>208.1</ele>
        <time>2019-08-09T15:28:54Z</time>
      </trkpt>
      <trkpt lat="48.13025" lon="7.30293">
        <ele>208.1</ele>
        <time>2019-08-09T15:28:55Z</time>
      </trkpt>
      <trkpt lat="48.13024" lon="7.30301">
        <ele>208</ele>
        <time>2019-08-09T15:28:56Z</time>
      </trkpt>
      <trkpt lat="48.13024" lon="7.30308">
        <ele>208</ele>
        <time>2019-08-09T15:28:57Z</time>
      </trkpt>
      <trkpt lat="48.13023" lon="7.30316">
        <ele>207.9</ele>
        <time>2019-08-09T15:28:58Z</time>
      </trkpt>
      <trkpt lat="48.13023" lon="7.30323">
        <ele>207.8</ele>
        <time>2019-08-09T15:28:59Z</time>
      </trkpt>
      <trkpt lat="48.13023" lon="7.30329">
        <ele>207.8</ele>
        <time>2019-08-09T15:29:00Z</time>
      </trkpt>
      <trkpt lat="48.13023" lon="7.30335">
        <ele>207.7</ele>
        <time>2019-08-09T15:29:01Z</time>
      </trkpt>
      <trkpt lat="48.13023" lon="7.30342">
        <ele>207.7</ele>
        <time>2019-08-09T15:29:02Z</time>
      </trkpt>
      <trkpt lat="48.13022" lon="7.30348">
        <ele>207.6</ele>
        <time>2019-08-09T15:29:03Z</time>
      </trkpt>
      <trkpt lat="48.1302" lon="7.30356">
        <ele>207.6</ele>
        <time>2019-08-09T15:29:04Z</time>
      </trkpt>
      <trkpt lat="48.13019" lon="7.30363">
        <ele>207.5</ele>
        <time>2019-08-09T15:29:05Z</time>
      </trkpt>
      <trkpt lat="48.13019" lon="7.3037">
        <ele>207.5</ele>
        <time>2019-08-09T15:29:06Z</time>
      </trkpt>
      <trkpt lat="48.13019" lon="7.30377">
        <ele>207.4</ele>
        <time>2019-08-09T15:29:07Z</time>
      </trkpt>
      <trkpt lat="48.13018" lon="7.30383">
        <ele>207.4</ele>
        <time>2019-08-09T15:29:08Z</time>
      </trkpt>
      <trkpt lat="48.13017" lon="7.3039">
        <ele>207.3</ele>
        <time>2019-08-09T15:29:09Z</time>
      </trkpt>
      <trkpt lat="48.13016" lon="7.30395">
        <ele>207.2</ele>
        <time>2019-08-09T15:29:10Z</time>
      </trkpt>
      <trkpt lat="48.13015" lon="7.30402">
        <ele>207.2</ele>
        <time>2019-08-09T15:29:11Z</time>
      </trkpt>
      <trkpt lat="48.13013" lon="7.30408">
        <ele>207.1</ele>
        <time>2019-08-09T15:29:12Z</time>
      </trkpt>
      <trkpt lat="48.13012" lon="7.30415">
        <ele>207.1</ele>
        <time>2019-08-09T15:29:13Z</time>
      </trkpt>
      <trkpt lat="48.13011" lon="7.30423">
        <ele>207</ele>
        <time>2019-08-09T15:29:14Z</time>
      </trkpt>
      <trkpt lat="48.1301" lon="7.3043">
        <ele>207</ele>
        <time>2019-08-09T15:29:15Z</time>
      </trkpt>
      <trkpt lat="48.13009" lon="7.30437">
        <ele>206.9</ele>
        <time>2019-08-09T15:29:16Z</time>
      </trkpt>
      <trkpt lat="48.13008" lon="7.30443">
        <ele>206.9</ele>
        <time>2019-08-09T15:29:17Z</time>
      </trkpt>
      <trkpt lat="48.13007" lon="7.3045">
        <ele>206.8</ele>
        <time>2019-08-09T15:29:18Z</time>
      </trkpt>
      <trkpt lat="48.13008" lon="7.30458">
        <ele>206.7</ele>
        <time>2019-08-09T15:29:19Z</time>
      </trkpt>
      <trkpt lat="48.13007" lon="7.30466">
        <ele>206.7</ele>
        <time>2019-08-09T15:29:20Z</time>
      </trkpt>
      <trkpt lat="48.13006" lon="7.30474">
        <ele>206.6</ele>
        <time>2019-08-09T15:29:21Z</time>
      </trkpt>
      <trkpt lat="48.13005" lon="7.30482">
        <ele>206.6</ele>
        <time>2019-08-09T15:29:22Z</time>
      </trkpt>
      <trkpt lat="48.13004" lon="7.30489">
        <ele>206.5</ele>
        <time>2019-08-09T15:29:23Z</time>
      </trkpt>
      <trkpt lat="48.13003" lon="7.30496">
        <ele>206.5</ele>
        <time>2019-08-09T15:29:24Z</time>
      </trkpt>
      <trkpt lat="48.13003" lon="7.30503">
        <ele>206.4</ele>
        <time>2019-08-09T15:29:25Z</time>
      </trkpt>
      <trkpt lat="48.13002" lon="7.3051">
        <ele>206.4</ele>
        <time>2019-08-09T15:29:26Z</time>
      </trkpt>
      <trkpt lat="48.13001" lon="7.30517">
        <ele>206.4</ele>
        <time>2019-08-09T15:29:27Z</time>
      </trkpt>
      <trkpt lat="48.13" lon="7.30524">
        <ele>206.3</ele>
        <time>2019-08-09T15:29:28Z</time>
      </trkpt>
      <trkpt lat="48.13" lon="7.30531">
        <ele>206.3</ele>
        <time>2019-08-09T15:29:29Z</time>
      </trkpt>
      <trkpt lat="48.13" lon="7.30537">
        <ele>206.2</ele>
        <time>2019-08-09T15:29:30Z</time>
      </trkpt>
      <trkpt lat="48.12999" lon="7.30546">
        <ele>206.2</ele>
        <time>2019-08-09T15:29:31Z</time>
      </trkpt>
      <trkpt lat="48.12999" lon="7.30554">
        <ele>206.2</ele>
        <time>2019-08-09T15:29:32Z</time>
      </trkpt>
      <trkpt lat="48.12998" lon="7.30561">
        <ele>206.1</ele>
        <time>2019-08-09T15:29:33Z</time>
      </trkpt>
      <trkpt lat="48.12998" lon="7.30568">
        <ele>206.1</ele>
        <time>2019-08-09T15:29:34Z</time>
      </trkpt>
      <trkpt lat="48.12998" lon="7.30575">
        <ele>206</ele>
        <time>2019-08-09T15:29:35Z</time>
      </trkpt>
      <trkpt lat="48.12997" lon="7.30583">
        <ele>206</ele>
        <time>2019-08-09T15:29:36Z</time>
      </trkpt>
      <trkpt lat="48.12996" lon="7.30591">
        <ele>206</ele>
        <time>2019-08-09T15:29:37Z</time>
      </trkpt>
      <trkpt lat="48.12996" lon="7.30598">
        <ele>205.9</ele>
        <time>2019-08-09T15:29:38Z</time>
      </trkpt>
      <trkpt lat="48.12996" lon="7.30605">
        <ele>205.9</ele>
        <time>2019-08-09T15:29:39Z</time>
      </trkpt>
      <trkpt lat="48.12995" lon="7.30612">
        <ele>205.8</ele>
        <time>2019-08-09T15:29:40Z</time>
      </trkpt>
      <trkpt lat="48.12994" lon="7.30618">
        <ele>205.8</ele>
        <time>2019-08-09T15:29:41Z</time>
      </trkpt>
      <trkpt lat="48.12994" lon="7.30625">
        <ele>205.8</ele>
        <time>2019-08-09T15:29:42Z</time>
      </trkpt>
      <trkpt lat="48.12993" lon="7.30631">
        <ele>205.7</ele>
        <time>2019-08-09T15:29:43Z</time>
      </trkpt>
      <trkpt lat="48.12993" lon="7.30636">
        <ele>205.7</ele>
        <time>2019-08-09T15:29:44Z</time>
      </trkpt>
      <trkpt lat="48.12993" lon="7.30642">
        <ele>205.7</ele>
        <time>2019-08-09T15:29:45Z</time>
      </trkpt>
      <trkpt lat="48.12993" lon="7.30648">
        <ele>205.7</ele>
        <time>2019-08-09T15:29:46Z</time>
      </trkpt>
      <trkpt lat="48.12993" lon="7.30654">
        <ele>205.6</ele>
        <time>2019-08-09T15:29:47Z</time>
      </trkpt>
      <trkpt lat="48.12994" lon="7.3066">
        <ele>205.6</ele>
        <time>2019-08-09T15:29:48Z</time>
      </trkpt>
      <trkpt lat="48.12996" lon="7.30668">
        <ele>205.6</ele>
        <time>2019-08-09T15:29:49Z</time>
      </trkpt>
      <trkpt lat="48.12996" lon="7.30676">
        <ele>205.5</ele>
        <time>2019-08-09T15:29:50Z</time>
      </trkpt>
      <trkpt lat="48.12997" lon="7.30682">
        <ele>205.5</ele>
        <time>2019-08-09T15:29:51Z</time>
      </trkpt>
      <trkpt lat="48.12998" lon="7.3069">
        <ele>205.5</ele>
        <time>2019-08-09T15:29:52Z</time>
      </trkpt>
      <trkpt lat="48.12997" lon="7.30697">
        <ele>205.4</ele>
        <time>2019-08-09T15:29:53Z</time>
      </trkpt>
      <trkpt lat="48.12997" lon="7.30704">
        <ele>205.4</ele>
        <time>2019-08-09T15:29:54Z</time>
      </trkpt>
      <trkpt lat="48.12998" lon="7.30713">
        <ele>205.4</ele>
        <time>2019-08-09T15:29:55Z</time>
      </trkpt>
      <trkpt lat="48.12998" lon="7.3072">
        <ele>205.3</ele>
        <time>2019-08-09T15:29:56Z</time>
      </trkpt>
      <trkpt lat="48.12999" lon="7.30727">
        <ele>205.3</ele>
        <time>2019-08-09T15:29:57Z</time>
      </trkpt>
      <trkpt lat="48.13" lon="7.30733">
        <ele>205.2</ele>
        <time>2019-08-09T15:29:58Z</time>
      </trkpt>
      <trkpt lat="48.13" lon="7.30738">
        <ele>205.2</ele>
        <time>2019-08-09T15:29:59Z</time>
      </trkpt>
      <trkpt lat="48.13001" lon="7.30745">
        <ele>205.2</ele>
        <time>2019-08-09T15:30:00Z</time>
      </trkpt>
      <trkpt lat="48.13002" lon="7.30751">
        <ele>205.1</ele>
        <time>2019-08-09T15:30:01Z</time>
      </trkpt>
      <trkpt lat="48.13003" lon="7.3076">
        <ele>205.1</ele>
        <time>2019-08-09T15:30:02Z</time>
      </trkpt>
      <trkpt lat="48.13004" lon="7.30767">
        <ele>205</ele>
        <time>2019-08-09T15:30:03Z</time>
      </trkpt>
      <trkpt lat="48.13005" lon="7.30772">
        <ele>205</ele>
        <time>2019-08-09T15:30:04Z</time>
      </trkpt>
      <trkpt lat="48.13006" lon="7.30779">
        <ele>205</ele>
        <time>2019-08-09T15:30:05Z</time>
      </trkpt>
      <trkpt lat="48.13009" lon="7.30786">
        <ele>204.9</ele>
        <time>2019-08-09T15:30:06Z</time>
      </trkpt>
      <trkpt lat="48.1301" lon="7.30793">
        <ele>204.9</ele>
        <time>2019-08-09T15:30:07Z</time>
      </trkpt>
      <trkpt lat="48.13011" lon="7.308">
        <ele>204.8</ele>
        <time>2019-08-09T15:30:08Z</time>
      </trkpt>
      <trkpt lat="48.13011" lon="7.30807">
        <ele>204.8</ele>
        <time>2019-08-09T15:30:09Z</time>
      </trkpt>
      <trkpt lat="48.13014" lon="7.30815">
        <ele>204.7</ele>
        <time>2019-08-09T15:30:10Z</time>
      </trkpt>
      <trkpt lat="48.13015" lon="7.30823">
        <ele>204.7</ele>
        <time>2019-08-09T15:30:11Z</time>
      </trkpt>
      <trkpt lat="48.13016" lon="7.3083">
        <ele>204.6</ele>
        <time>2019-08-09T15:30:12Z</time>
      </trkpt>
      <trkpt lat="48.13018" lon="7.30839">
        <ele>204.6</ele>
        <time>2019-08-09T15:30:13Z</time>
      </trkpt>
      <trkpt lat="48.13018" lon="7.30847">
        <ele>204.5</ele>
        <time>2019-08-09T15:30:14Z</time>
      </trkpt>
      <trkpt lat="48.13019" lon="7.30854">
        <ele>204.5</ele>
        <time>2019-08-09T15:30:15Z</time>
      </trkpt>
      <trkpt lat="48.1302" lon="7.30861">
        <ele>204.5</ele>
        <time>2019-08-09T15:30:16Z</time>
      </trkpt>
      <trkpt lat="48.13021" lon="7.30869">
        <ele>204.4</ele>
        <time>2019-08-09T15:30:17Z</time>
      </trkpt>
      <trkpt lat="48.13021" lon="7.30876">
        <ele>204.4</ele>
        <time>2019-08-09T15:30:18Z</time>
      </trkpt>
      <trkpt lat="48.1302" lon="7.30884">
        <ele>204.4</ele>
        <time>2019-08-09T15:30:19Z</time>
      </trkpt>
      <trkpt lat="48.1302" lon="7.30892">
        <ele>204.3</ele>
        <time>2019-08-09T15:30:20Z</time>
      </trkpt>
      <trkpt lat="48.1302" lon="7.309">
        <ele>204.3</ele>
        <time>2019-08-09T15:30:21Z</time>
      </trkpt>
      <trkpt lat="48.13019" lon="7.30907">
        <ele>204.3</ele>
        <time>2019-08-09T15:30:22Z</time>
      </trkpt>
      <trkpt lat="48.13019" lon="7.30915">
        <ele>204.3</ele>
        <time>2019-08-09T15:30:23Z</time>
      </trkpt>
      <trkpt lat="48.13019" lon="7.30921">
        <ele>204.2</ele>
        <time>2019-08-09T15:30:24Z</time>
      </trkpt>
      <trkpt lat="48.13019" lon="7.30929">
        <ele>204.2</ele>
        <time>2019-08-09T15:30:25Z</time>
      </trkpt>
      <trkpt lat="48.13019" lon="7.30936">
        <ele>204.2</ele>
        <time>2019-08-09T15:30:26Z</time>
      </trkpt>
      <trkpt lat="48.13018" lon="7.30943">
        <ele>204.2</ele>
        <time>2019-08-09T15:30:27Z</time>
      </trkpt>
      <trkpt lat="48.13017" lon="7.3095">
        <ele>204.2</ele>
        <time>2019-08-09T15:30:28Z</time>
      </trkpt>
      <trkpt lat="48.13016" lon="7.30958">
        <ele>204.1</ele>
        <time>2019-08-09T15:30:29Z</time>
      </trkpt>
      <trkpt lat="48.13015" lon="7.30965">
        <ele>204.1</ele>
        <time>2019-08-09T15:30:30Z</time>
      </trkpt>
      <trkpt lat="48.13014" lon="7.30973">
        <ele>204.1</ele>
        <time>2019-08-09T15:30:31Z</time>
      </trkpt>
      <trkpt lat="48.13013" lon="7.3098">
        <ele>204</ele>
        <time>2019-08-09T15:30:32Z</time>
      </trkpt>
      <trkpt lat="48.13015" lon="7.30988">
        <ele>204</ele>
        <time>2019-08-09T15:30:33Z</time>
      </trkpt>
      <trkpt lat="48.13015" lon="7.30995">
        <ele>203.9</ele>
        <time>2019-08-09T15:30:34Z</time>
      </trkpt>
      <trkpt lat="48.13015" lon="7.31003">
        <ele>203.9</ele>
        <time>2019-08-09T15:30:35Z</time>
      </trkpt>
      <trkpt lat="48.13014" lon="7.31011">
        <ele>203.8</ele>
        <time>2019-08-09T15:30:36Z</time>
      </trkpt>
      <trkpt lat="48.13011" lon="7.31015">
        <ele>203.8</ele>
        <time>2019-08-09T15:30:37Z</time>
      </trkpt>
      <trkpt lat="48.13007" lon="7.31013">
        <ele>203.7</ele>
        <time>2019-08-09T15:30:39Z</time>
      </trkpt>
      <trkpt lat="48.13002" lon="7.3101">
        <ele>203.5</ele>
        <time>2019-08-09T15:30:40Z</time>
      </trkpt>
      <trkpt lat="48.12996" lon="7.31008">
        <ele>203.3</ele>
        <time>2019-08-09T15:30:41Z</time>
      </trkpt>
      <trkpt lat="48.1299" lon="7.31007">
        <ele>203.2</ele>
        <time>2019-08-09T15:30:42Z</time>
      </trkpt>
      <trkpt lat="48.12985" lon="7.31008">
        <ele>203.1</ele>
        <time>2019-08-09T15:30:43Z</time>
      </trkpt>
      <trkpt lat="48.12979" lon="7.31007">
        <ele>203</ele>
        <time>2019-08-09T15:30:44Z</time>
      </trkpt>
      <trkpt lat="48.12972" lon="7.31007">
        <ele>202.9</ele>
        <time>2019-08-09T15:30:45Z</time>
      </trkpt>
      <trkpt lat="48.12968" lon="7.31007">
        <ele>202.9</ele>
        <time>2019-08-09T15:30:46Z</time>
      </trkpt>
      <trkpt lat="48.12965" lon="7.31011">
        <ele>202.9</ele>
        <time>2019-08-09T15:30:47Z</time>
      </trkpt>
      <trkpt lat="48.12964" lon="7.31017">
        <ele>202.9</ele>
        <time>2019-08-09T15:30:48Z</time>
      </trkpt>
      <trkpt lat="48.12963" lon="7.31025">
        <ele>202.9</ele>
        <time>2019-08-09T15:30:49Z</time>
      </trkpt>
      <trkpt lat="48.12963" lon="7.31032">
        <ele>202.8</ele>
        <time>2019-08-09T15:30:50Z</time>
      </trkpt>
      <trkpt lat="48.12963" lon="7.3104">
        <ele>202.8</ele>
        <time>2019-08-09T15:30:51Z</time>
      </trkpt>
      <trkpt lat="48.12964" lon="7.31047">
        <ele>202.8</ele>
        <time>2019-08-09T15:30:52Z</time>
      </trkpt>
      <trkpt lat="48.12965" lon="7.31054">
        <ele>202.8</ele>
        <time>2019-08-09T15:30:53Z</time>
      </trkpt>
      <trkpt lat="48.12964" lon="7.31061">
        <ele>202.8</ele>
        <time>2019-08-09T15:30:54Z</time>
      </trkpt>
      <trkpt lat="48.12963" lon="7.31069">
        <ele>202.8</ele>
        <time>2019-08-09T15:30:55Z</time>
      </trkpt>
      <trkpt lat="48.12963" lon="7.31076">
        <ele>202.8</ele>
        <time>2019-08-09T15:30:56Z</time>
      </trkpt>
      <trkpt lat="48.12964" lon="7.31084">
        <ele>202.8</ele>
        <time>2019-08-09T15:30:57Z</time>
      </trkpt>
      <trkpt lat="48.12963" lon="7.31092">
        <ele>202.8</ele>
        <time>2019-08-09T15:30:58Z</time>
      </trkpt>
      <trkpt lat="48.12963" lon="7.311">
        <ele>202.8</ele>
        <time>2019-08-09T15:30:59Z</time>
      </trkpt>
      <trkpt lat="48.12961" lon="7.31108">
        <ele>202.8</ele>
        <time>2019-08-09T15:31:00Z</time>
      </trkpt>
      <trkpt lat="48.12961" lon="7.31116">
        <ele>202.8</ele>
        <time>2019-08-09T15:31:01Z</time>
      </trkpt>
      <trkpt lat="48.12959" lon="7.31123">
        <ele>202.8</ele>
        <time>2019-08-09T15:31:02Z</time>
      </trkpt>
      <trkpt lat="48.12958" lon="7.31131">
        <ele>202.8</ele>
        <time>2019-08-09T15:31:03Z</time>
      </trkpt>
      <trkpt lat="48.12957" lon="7.31138">
        <ele>202.8</ele>
        <time>2019-08-09T15:31:04Z</time>
      </trkpt>
      <trkpt lat="48.12955" lon="7.31146">
        <ele>202.7</ele>
        <time>2019-08-09T15:31:05Z</time>
      </trkpt>
      <trkpt lat="48.12953" lon="7.31154">
        <ele>202.6</ele>
        <time>2019-08-09T15:31:06Z</time>
      </trkpt>
      <trkpt lat="48.12951" lon="7.3116">
        <ele>202.5</ele>
        <time>2019-08-09T15:31:07Z</time>
      </trkpt>
      <trkpt lat="48.12949" lon="7.31167">
        <ele>202.4</ele>
        <time>2019-08-09T15:31:08Z</time>
      </trkpt>
      <trkpt lat="48.12948" lon="7.31174">
        <ele>202.3</ele>
        <time>2019-08-09T15:31:09Z</time>
      </trkpt>
      <trkpt lat="48.12947" lon="7.31182">
        <ele>202.2</ele>
        <time>2019-08-09T15:31:10Z</time>
      </trkpt>
      <trkpt lat="48.12945" lon="7.31188">
        <ele>202.1</ele>
        <time>2019-08-09T15:31:11Z</time>
      </trkpt>
      <trkpt lat="48.12944" lon="7.31195">
        <ele>202</ele>
        <time>2019-08-09T15:31:12Z</time>
      </trkpt>
      <trkpt lat="48.12943" lon="7.31202">
        <ele>201.9</ele>
        <time>2019-08-09T15:31:13Z</time>
      </trkpt>
      <trkpt lat="48.12943" lon="7.3121">
        <ele>201.9</ele>
        <time>2019-08-09T15:31:14Z</time>
      </trkpt>
      <trkpt lat="48.12941" lon="7.31217">
        <ele>201.9</ele>
        <time>2019-08-09T15:31:15Z</time>
      </trkpt>
      <trkpt lat="48.12939" lon="7.31225">
        <ele>201.9</ele>
        <time>2019-08-09T15:31:16Z</time>
      </trkpt>
      <trkpt lat="48.12938" lon="7.31233">
        <ele>201.8</ele>
        <time>2019-08-09T15:31:17Z</time>
      </trkpt>
      <trkpt lat="48.12938" lon="7.31241">
        <ele>201.8</ele>
        <time>2019-08-09T15:31:18Z</time>
      </trkpt>
      <trkpt lat="48.12936" lon="7.31247">
        <ele>201.8</ele>
        <time>2019-08-09T15:31:19Z</time>
      </trkpt>
      <trkpt lat="48.12935" lon="7.31255">
        <ele>201.8</ele>
        <time>2019-08-09T15:31:20Z</time>
      </trkpt>
      <trkpt lat="48.12933" lon="7.31262">
        <ele>201.8</ele>
        <time>2019-08-09T15:31:21Z</time>
      </trkpt>
      <trkpt lat="48.12931" lon="7.3127">
        <ele>201.8</ele>
        <time>2019-08-09T15:31:22Z</time>
      </trkpt>
      <trkpt lat="48.1293" lon="7.31277">
        <ele>201.8</ele>
        <time>2019-08-09T15:31:23Z</time>
      </trkpt>
      <trkpt lat="48.12928" lon="7.31286">
        <ele>201.8</ele>
        <time>2019-08-09T15:31:24Z</time>
      </trkpt>
      <trkpt lat="48.12927" lon="7.31294">
        <ele>201.8</ele>
        <time>2019-08-09T15:31:25Z</time>
      </trkpt>
      <trkpt lat="48.12926" lon="7.31302">
        <ele>201.8</ele>
        <time>2019-08-09T15:31:26Z</time>
      </trkpt>
      <trkpt lat="48.12925" lon="7.3131">
        <ele>201.8</ele>
        <time>2019-08-09T15:31:27Z</time>
      </trkpt>
      <trkpt lat="48.12924" lon="7.31319">
        <ele>201.8</ele>
        <time>2019-08-09T15:31:28Z</time>
      </trkpt>
      <trkpt lat="48.12923" lon="7.31326">
        <ele>201.8</ele>
        <time>2019-08-09T15:31:29Z</time>
      </trkpt>
      <trkpt lat="48.12921" lon="7.31333">
        <ele>201.8</ele>
        <time>2019-08-09T15:31:30Z</time>
      </trkpt>
      <trkpt lat="48.1292" lon="7.31342">
        <ele>201.8</ele>
        <time>2019-08-09T15:31:31Z</time>
      </trkpt>
      <trkpt lat="48.12918" lon="7.31349">
        <ele>201.7</ele>
        <time>2019-08-09T15:31:32Z</time>
      </trkpt>
      <trkpt lat="48.12917" lon="7.31355">
        <ele>201.6</ele>
        <time>2019-08-09T15:31:33Z</time>
      </trkpt>
      <trkpt lat="48.12916" lon="7.31362">
        <ele>201.5</ele>
        <time>2019-08-09T15:31:34Z</time>
      </trkpt>
      <trkpt lat="48.12914" lon="7.31369">
        <ele>201.4</ele>
        <time>2019-08-09T15:31:35Z</time>
      </trkpt>
      <trkpt lat="48.12912" lon="7.31376">
        <ele>201.3</ele>
        <time>2019-08-09T15:31:36Z</time>
      </trkpt>
      <trkpt lat="48.12911" lon="7.31383">
        <ele>201.2</ele>
        <time>2019-08-09T15:31:37Z</time>
      </trkpt>
      <trkpt lat="48.1291" lon="7.3139">
        <ele>201</ele>
        <time>2019-08-09T15:31:38Z</time>
      </trkpt>
      <trkpt lat="48.12908" lon="7.31397">
        <ele>201</ele>
        <time>2019-08-09T15:31:39Z</time>
      </trkpt>
      <trkpt lat="48.12907" lon="7.31404">
        <ele>200.9</ele>
        <time>2019-08-09T15:31:40Z</time>
      </trkpt>
      <trkpt lat="48.12905" lon="7.31409">
        <ele>200.9</ele>
        <time>2019-08-09T15:31:41Z</time>
      </trkpt>
      <trkpt lat="48.12904" lon="7.31414">
        <ele>200.9</ele>
        <time>2019-08-09T15:31:42Z</time>
      </trkpt>
      <trkpt lat="48.12905" lon="7.31409">
        <ele>200.9</ele>
        <time>2019-08-09T15:31:46Z</time>
      </trkpt>
      <trkpt lat="48.12903" lon="7.31414">
        <ele>200.9</ele>
        <time>2019-08-09T15:32:10Z</time>
      </trkpt>
      <trkpt lat="48.12902" lon="7.31418">
        <ele>201</ele>
        <time>2019-08-09T15:32:12Z</time>
      </trkpt>
      <trkpt lat="48.12901" lon="7.31422">
        <ele>201</ele>
        <time>2019-08-09T15:32:13Z</time>
      </trkpt>
      <trkpt lat="48.129" lon="7.31426">
        <ele>201</ele>
        <time>2019-08-09T15:32:14Z</time>
      </trkpt>
      <trkpt lat="48.12898" lon="7.31434">
        <ele>201.1</ele>
        <time>2019-08-09T15:32:16Z</time>
      </trkpt>
      <trkpt lat="48.12897" lon="7.31439">
        <ele>201.1</ele>
        <time>2019-08-09T15:32:17Z</time>
      </trkpt>
      <trkpt lat="48.12896" lon="7.31445">
        <ele>201.2</ele>
        <time>2019-08-09T15:32:18Z</time>
      </trkpt>
      <trkpt lat="48.12896" lon="7.31451">
        <ele>201</ele>
        <time>2019-08-09T15:32:19Z</time>
      </trkpt>
      <trkpt lat="48.12895" lon="7.31456">
        <ele>200.8</ele>
        <time>2019-08-09T15:32:20Z</time>
      </trkpt>
      <trkpt lat="48.12894" lon="7.31462">
        <ele>200.6</ele>
        <time>2019-08-09T15:32:21Z</time>
      </trkpt>
      <trkpt lat="48.12893" lon="7.31469">
        <ele>200.3</ele>
        <time>2019-08-09T15:32:22Z</time>
      </trkpt>
      <trkpt lat="48.12892" lon="7.31475">
        <ele>200.1</ele>
        <time>2019-08-09T15:32:23Z</time>
      </trkpt>
      <trkpt lat="48.12892" lon="7.31481">
        <ele>200</ele>
        <time>2019-08-09T15:32:24Z</time>
      </trkpt>
      <trkpt lat="48.1289" lon="7.31489">
        <ele>199.8</ele>
        <time>2019-08-09T15:32:25Z</time>
      </trkpt>
      <trkpt lat="48.1289" lon="7.31496">
        <ele>199.6</ele>
        <time>2019-08-09T15:32:26Z</time>
      </trkpt>
      <trkpt lat="48.12889" lon="7.31502">
        <ele>199.4</ele>
        <time>2019-08-09T15:32:27Z</time>
      </trkpt>
      <trkpt lat="48.12888" lon="7.31509">
        <ele>199.2</ele>
        <time>2019-08-09T15:32:28Z</time>
      </trkpt>
      <trkpt lat="48.12887" lon="7.31515">
        <ele>199.1</ele>
        <time>2019-08-09T15:32:29Z</time>
      </trkpt>
      <trkpt lat="48.12886" lon="7.31521">
        <ele>199</ele>
        <time>2019-08-09T15:32:30Z</time>
      </trkpt>
      <trkpt lat="48.12885" lon="7.31527">
        <ele>198.9</ele>
        <time>2019-08-09T15:32:31Z</time>
      </trkpt>
      <trkpt lat="48.12885" lon="7.31535">
        <ele>198.7</ele>
        <time>2019-08-09T15:32:32Z</time>
      </trkpt>
      <trkpt lat="48.12885" lon="7.31541">
        <ele>198.6</ele>
        <time>2019-08-09T15:32:33Z</time>
      </trkpt>
      <trkpt lat="48.12885" lon="7.31548">
        <ele>198.5</ele>
        <time>2019-08-09T15:32:34Z</time>
      </trkpt>
      <trkpt lat="48.12884" lon="7.31555">
        <ele>198.3</ele>
        <time>2019-08-09T15:32:35Z</time>
      </trkpt>
      <trkpt lat="48.12883" lon="7.31563">
        <ele>198.3</ele>
        <time>2019-08-09T15:32:36Z</time>
      </trkpt>
      <trkpt lat="48.12882" lon="7.3157">
        <ele>198.2</ele>
        <time>2019-08-09T15:32:37Z</time>
      </trkpt>
      <trkpt lat="48.12882" lon="7.31578">
        <ele>198.1</ele>
        <time>2019-08-09T15:32:38Z</time>
      </trkpt>
      <trkpt lat="48.12881" lon="7.31587">
        <ele>198</ele>
        <time>2019-08-09T15:32:39Z</time>
      </trkpt>
      <trkpt lat="48.12881" lon="7.31594">
        <ele>197.9</ele>
        <time>2019-08-09T15:32:40Z</time>
      </trkpt>
      <trkpt lat="48.12881" lon="7.31601">
        <ele>197.8</ele>
        <time>2019-08-09T15:32:41Z</time>
      </trkpt>
      <trkpt lat="48.1288" lon="7.31609">
        <ele>197.8</ele>
        <time>2019-08-09T15:32:42Z</time>
      </trkpt>
      <trkpt lat="48.12879" lon="7.31617">
        <ele>197.7</ele>
        <time>2019-08-09T15:32:43Z</time>
      </trkpt>
      <trkpt lat="48.12878" lon="7.31623">
        <ele>197.7</ele>
        <time>2019-08-09T15:32:44Z</time>
      </trkpt>
      <trkpt lat="48.12878" lon="7.31628">
        <ele>197.7</ele>
        <time>2019-08-09T15:32:45Z</time>
      </trkpt>
      <trkpt lat="48.12876" lon="7.31634">
        <ele>197.7</ele>
        <time>2019-08-09T15:32:46Z</time>
      </trkpt>
      <trkpt lat="48.12876" lon="7.3164">
        <ele>197.6</ele>
        <time>2019-08-09T15:32:47Z</time>
      </trkpt>
      <trkpt lat="48.12875" lon="7.31646">
        <ele>197.6</ele>
        <time>2019-08-09T15:32:48Z</time>
      </trkpt>
      <trkpt lat="48.12874" lon="7.31653">
        <ele>197.6</ele>
        <time>2019-08-09T15:32:49Z</time>
      </trkpt>
      <trkpt lat="48.12874" lon="7.31659">
        <ele>197.6</ele>
        <time>2019-08-09T15:32:50Z</time>
      </trkpt>
      <trkpt lat="48.12872" lon="7.31667">
        <ele>197.6</ele>
        <time>2019-08-09T15:32:51Z</time>
      </trkpt>
      <trkpt lat="48.12871" lon="7.31674">
        <ele>197.5</ele>
        <time>2019-08-09T15:32:52Z</time>
      </trkpt>
      <trkpt lat="48.1287" lon="7.31682">
        <ele>197.5</ele>
        <time>2019-08-09T15:32:53Z</time>
      </trkpt>
      <trkpt lat="48.12869" lon="7.31688">
        <ele>197.5</ele>
        <time>2019-08-09T15:32:54Z</time>
      </trkpt>
      <trkpt lat="48.12867" lon="7.31694">
        <ele>197.5</ele>
        <time>2019-08-09T15:32:55Z</time>
      </trkpt>
      <trkpt lat="48.12865" lon="7.31699">
        <ele>197.5</ele>
        <time>2019-08-09T15:32:56Z</time>
      </trkpt>
      <trkpt lat="48.12864" lon="7.31705">
        <ele>197.4</ele>
        <time>2019-08-09T15:32:57Z</time>
      </trkpt>
      <trkpt lat="48.12861" lon="7.31711">
        <ele>197.4</ele>
        <time>2019-08-09T15:32:58Z</time>
      </trkpt>
      <trkpt lat="48.12859" lon="7.31718">
        <ele>197.4</ele>
        <time>2019-08-09T15:32:59Z</time>
      </trkpt>
      <trkpt lat="48.12857" lon="7.31724">
        <ele>197.4</ele>
        <time>2019-08-09T15:33:00Z</time>
      </trkpt>
      <trkpt lat="48.12854" lon="7.31729">
        <ele>197.4</ele>
        <time>2019-08-09T15:33:01Z</time>
      </trkpt>
      <trkpt lat="48.12852" lon="7.31736">
        <ele>197.3</ele>
        <time>2019-08-09T15:33:02Z</time>
      </trkpt>
      <trkpt lat="48.12849" lon="7.31743">
        <ele>197.3</ele>
        <time>2019-08-09T15:33:03Z</time>
      </trkpt>
      <trkpt lat="48.12847" lon="7.31749">
        <ele>197.3</ele>
        <time>2019-08-09T15:33:04Z</time>
      </trkpt>
      <trkpt lat="48.12844" lon="7.31755">
        <ele>197.3</ele>
        <time>2019-08-09T15:33:05Z</time>
      </trkpt>
      <trkpt lat="48.1284" lon="7.3176">
        <ele>197.2</ele>
        <time>2019-08-09T15:33:06Z</time>
      </trkpt>
      <trkpt lat="48.12837" lon="7.31766">
        <ele>197.2</ele>
        <time>2019-08-09T15:33:07Z</time>
      </trkpt>
      <trkpt lat="48.12834" lon="7.31772">
        <ele>197.2</ele>
        <time>2019-08-09T15:33:08Z</time>
      </trkpt>
      <trkpt lat="48.12831" lon="7.31779">
        <ele>197.2</ele>
        <time>2019-08-09T15:33:09Z</time>
      </trkpt>
      <trkpt lat="48.12828" lon="7.31783">
        <ele>197.2</ele>
        <time>2019-08-09T15:33:10Z</time>
      </trkpt>
      <trkpt lat="48.12825" lon="7.31789">
        <ele>197.1</ele>
        <time>2019-08-09T15:33:11Z</time>
      </trkpt>
      <trkpt lat="48.12822" lon="7.31797">
        <ele>197.1</ele>
        <time>2019-08-09T15:33:12Z</time>
      </trkpt>
      <trkpt lat="48.12819" lon="7.31802">
        <ele>197.1</ele>
        <time>2019-08-09T15:33:13Z</time>
      </trkpt>
      <trkpt lat="48.12816" lon="7.31809">
        <ele>197.1</ele>
        <time>2019-08-09T15:33:14Z</time>
      </trkpt>
      <trkpt lat="48.12814" lon="7.31815">
        <ele>197.1</ele>
        <time>2019-08-09T15:33:15Z</time>
      </trkpt>
      <trkpt lat="48.12812" lon="7.31821">
        <ele>197</ele>
        <time>2019-08-09T15:33:16Z</time>
      </trkpt>
      <trkpt lat="48.12808" lon="7.31829">
        <ele>197</ele>
        <time>2019-08-09T15:33:17Z</time>
      </trkpt>
      <trkpt lat="48.12804" lon="7.31835">
        <ele>196.9</ele>
        <time>2019-08-09T15:33:18Z</time>
      </trkpt>
      <trkpt lat="48.12801" lon="7.31842">
        <ele>196.9</ele>
        <time>2019-08-09T15:33:19Z</time>
      </trkpt>
      <trkpt lat="48.12798" lon="7.3185">
        <ele>196.8</ele>
        <time>2019-08-09T15:33:20Z</time>
      </trkpt>
      <trkpt lat="48.12795" lon="7.31858">
        <ele>196.8</ele>
        <time>2019-08-09T15:33:21Z</time>
      </trkpt>
      <trkpt lat="48.12794" lon="7.31865">
        <ele>196.7</ele>
        <time>2019-08-09T15:33:22Z</time>
      </trkpt>
      <trkpt lat="48.1279" lon="7.31871">
        <ele>196.7</ele>
        <time>2019-08-09T15:33:23Z</time>
      </trkpt>
      <trkpt lat="48.12787" lon="7.31879">
        <ele>196.6</ele>
        <time>2019-08-09T15:33:24Z</time>
      </trkpt>
      <trkpt lat="48.12785" lon="7.31886">
        <ele>196.5</ele>
        <time>2019-08-09T15:33:25Z</time>
      </trkpt>
      <trkpt lat="48.12783" lon="7.31895">
        <ele>196.5</ele>
        <time>2019-08-09T15:33:26Z</time>
      </trkpt>
      <trkpt lat="48.1278" lon="7.31902">
        <ele>196.4</ele>
        <time>2019-08-09T15:33:27Z</time>
      </trkpt>
      <trkpt lat="48.12779" lon="7.31909">
        <ele>196.3</ele>
        <time>2019-08-09T15:33:28Z</time>
      </trkpt>
      <trkpt lat="48.12778" lon="7.31916">
        <ele>196.3</ele>
        <time>2019-08-09T15:33:29Z</time>
      </trkpt>
      <trkpt lat="48.12775" lon="7.31924">
        <ele>196.2</ele>
        <time>2019-08-09T15:33:30Z</time>
      </trkpt>
      <trkpt lat="48.12773" lon="7.31932">
        <ele>196.1</ele>
        <time>2019-08-09T15:33:31Z</time>
      </trkpt>
      <trkpt lat="48.12771" lon="7.3194">
        <ele>196</ele>
        <time>2019-08-09T15:33:32Z</time>
      </trkpt>
      <trkpt lat="48.12768" lon="7.31948">
        <ele>195.9</ele>
        <time>2019-08-09T15:33:33Z</time>
      </trkpt>
      <trkpt lat="48.12766" lon="7.31956">
        <ele>195.8</ele>
        <time>2019-08-09T15:33:34Z</time>
      </trkpt>
      <trkpt lat="48.12765" lon="7.31963">
        <ele>195.7</ele>
        <time>2019-08-09T15:33:35Z</time>
      </trkpt>
      <trkpt lat="48.12763" lon="7.31971">
        <ele>195.6</ele>
        <time>2019-08-09T15:33:36Z</time>
      </trkpt>
      <trkpt lat="48.12762" lon="7.3198">
        <ele>195.5</ele>
        <time>2019-08-09T15:33:37Z</time>
      </trkpt>
      <trkpt lat="48.1276" lon="7.31987">
        <ele>195.5</ele>
        <time>2019-08-09T15:33:38Z</time>
      </trkpt>
      <trkpt lat="48.1276" lon="7.31995">
        <ele>195.4</ele>
        <time>2019-08-09T15:33:39Z</time>
      </trkpt>
      <trkpt lat="48.12758" lon="7.32003">
        <ele>195.3</ele>
        <time>2019-08-09T15:33:40Z</time>
      </trkpt>
      <trkpt lat="48.12756" lon="7.32011">
        <ele>195.2</ele>
        <time>2019-08-09T15:33:41Z</time>
      </trkpt>
      <trkpt lat="48.12754" lon="7.32019">
        <ele>195.2</ele>
        <time>2019-08-09T15:33:42Z</time>
      </trkpt>
      <trkpt lat="48.12752" lon="7.32026">
        <ele>195.1</ele>
        <time>2019-08-09T15:33:43Z</time>
      </trkpt>
      <trkpt lat="48.1275" lon="7.32034">
        <ele>195.1</ele>
        <time>2019-08-09T15:33:44Z</time>
      </trkpt>
      <trkpt lat="48.12749" lon="7.32042">
        <ele>195</ele>
        <time>2019-08-09T15:33:45Z</time>
      </trkpt>
      <trkpt lat="48.12747" lon="7.32049">
        <ele>195</ele>
        <time>2019-08-09T15:33:46Z</time>
      </trkpt>
      <trkpt lat="48.12745" lon="7.32058">
        <ele>194.9</ele>
        <time>2019-08-09T15:33:47Z</time>
      </trkpt>
      <trkpt lat="48.12745" lon="7.32067">
        <ele>195</ele>
        <time>2019-08-09T15:33:48Z</time>
      </trkpt>
      <trkpt lat="48.12744" lon="7.32075">
        <ele>195</ele>
        <time>2019-08-09T15:33:49Z</time>
      </trkpt>
      <trkpt lat="48.12743" lon="7.32083">
        <ele>195</ele>
        <time>2019-08-09T15:33:50Z</time>
      </trkpt>
      <trkpt lat="48.12742" lon="7.32092">
        <ele>195</ele>
        <time>2019-08-09T15:33:51Z</time>
      </trkpt>
      <trkpt lat="48.12741" lon="7.32101">
        <ele>195.1</ele>
        <time>2019-08-09T15:33:52Z</time>
      </trkpt>
      <trkpt lat="48.12741" lon="7.3211">
        <ele>195.1</ele>
        <time>2019-08-09T15:33:53Z</time>
      </trkpt>
      <trkpt lat="48.1274" lon="7.32118">
        <ele>195.2</ele>
        <time>2019-08-09T15:33:54Z</time>
      </trkpt>
      <trkpt lat="48.12739" lon="7.32127">
        <ele>195.2</ele>
        <time>2019-08-09T15:33:55Z</time>
      </trkpt>
      <trkpt lat="48.1274" lon="7.32136">
        <ele>195.3</ele>
        <time>2019-08-09T15:33:56Z</time>
      </trkpt>
      <trkpt lat="48.12738" lon="7.32145">
        <ele>195.4</ele>
        <time>2019-08-09T15:33:57Z</time>
      </trkpt>
      <trkpt lat="48.12737" lon="7.32153">
        <ele>195.5</ele>
        <time>2019-08-09T15:33:58Z</time>
      </trkpt>
      <trkpt lat="48.12736" lon="7.32163">
        <ele>195.6</ele>
        <time>2019-08-09T15:33:59Z</time>
      </trkpt>
      <trkpt lat="48.12736" lon="7.32171">
        <ele>195.7</ele>
        <time>2019-08-09T15:34:00Z</time>
      </trkpt>
      <trkpt lat="48.12734" lon="7.3218">
        <ele>195.8</ele>
        <time>2019-08-09T15:34:01Z</time>
      </trkpt>
      <trkpt lat="48.12733" lon="7.32188">
        <ele>195.9</ele>
        <time>2019-08-09T15:34:02Z</time>
      </trkpt>
      <trkpt lat="48.12732" lon="7.32195">
        <ele>196</ele>
        <time>2019-08-09T15:34:03Z</time>
      </trkpt>
      <trkpt lat="48.12731" lon="7.322">
        <ele>196</ele>
        <time>2019-08-09T15:34:04Z</time>
      </trkpt>
      <trkpt lat="48.12728" lon="7.32204">
        <ele>196</ele>
        <time>2019-08-09T15:34:05Z</time>
      </trkpt>
      <trkpt lat="48.12725" lon="7.32205">
        <ele>195.9</ele>
        <time>2019-08-09T15:34:06Z</time>
      </trkpt>
      <trkpt lat="48.12722" lon="7.32202">
        <ele>195.7</ele>
        <time>2019-08-09T15:34:07Z</time>
      </trkpt>
      <trkpt lat="48.12718" lon="7.322">
        <ele>195.5</ele>
        <time>2019-08-09T15:34:08Z</time>
      </trkpt>
      <trkpt lat="48.12713" lon="7.32197">
        <ele>195.4</ele>
        <time>2019-08-09T15:34:09Z</time>
      </trkpt>
      <trkpt lat="48.12708" lon="7.32195">
        <ele>195.3</ele>
        <time>2019-08-09T15:34:10Z</time>
      </trkpt>
      <trkpt lat="48.12704" lon="7.32194">
        <ele>195.2</ele>
        <time>2019-08-09T15:34:11Z</time>
      </trkpt>
      <trkpt lat="48.12701" lon="7.32192">
        <ele>195.2</ele>
        <time>2019-08-09T15:34:12Z</time>
      </trkpt>
      <trkpt lat="48.12697" lon="7.3219">
        <ele>195.1</ele>
        <time>2019-08-09T15:34:13Z</time>
      </trkpt>
      <trkpt lat="48.12693" lon="7.3219">
        <ele>195.1</ele>
        <time>2019-08-09T15:34:14Z</time>
      </trkpt>
      <trkpt lat="48.1269" lon="7.32189">
        <ele>195.1</ele>
        <time>2019-08-09T15:34:15Z</time>
      </trkpt>
      <trkpt lat="48.12686" lon="7.32187">
        <ele>195.1</ele>
        <time>2019-08-09T15:34:17Z</time>
      </trkpt>
      <trkpt lat="48.12678" lon="7.32184">
        <ele>195</ele>
        <time>2019-08-09T15:34:44Z</time>
      </trkpt>
      <trkpt lat="48.12672" lon="7.32184">
        <ele>195</ele>
        <time>2019-08-09T15:35:45Z</time>
      </trkpt>
      <trkpt lat="48.12666" lon="7.32185">
        <ele>195</ele>
        <time>2019-08-09T15:35:46Z</time>
      </trkpt>
      <trkpt lat="48.1266" lon="7.32184">
        <ele>195</ele>
        <time>2019-08-09T15:35:47Z</time>
      </trkpt>
      <trkpt lat="48.12654" lon="7.32184">
        <ele>195.1</ele>
        <time>2019-08-09T15:35:48Z</time>
      </trkpt>
      <trkpt lat="48.12649" lon="7.32183">
        <ele>195.1</ele>
        <time>2019-08-09T15:35:49Z</time>
      </trkpt>
      <trkpt lat="48.12644" lon="7.32182">
        <ele>195.2</ele>
        <time>2019-08-09T15:35:50Z</time>
      </trkpt>
      <trkpt lat="48.12639" lon="7.32181">
        <ele>195.3</ele>
        <time>2019-08-09T15:35:51Z</time>
      </trkpt>
      <trkpt lat="48.12636" lon="7.32179">
        <ele>195.4</ele>
        <time>2019-08-09T15:35:52Z</time>
      </trkpt>
      <trkpt lat="48.12632" lon="7.32179">
        <ele>195.4</ele>
        <time>2019-08-09T15:35:53Z</time>
      </trkpt>
      <trkpt lat="48.12628" lon="7.32179">
        <ele>195.5</ele>
        <time>2019-08-09T15:35:54Z</time>
      </trkpt>
      <trkpt lat="48.12625" lon="7.32178">
        <ele>195.6</ele>
        <time>2019-08-09T15:35:55Z</time>
      </trkpt>
      <trkpt lat="48.12621" lon="7.32177">
        <ele>195.6</ele>
        <time>2019-08-09T15:35:56Z</time>
      </trkpt>
      <trkpt lat="48.12617" lon="7.32176">
        <ele>195.7</ele>
        <time>2019-08-09T15:35:57Z</time>
      </trkpt>
      <trkpt lat="48.12613" lon="7.32176">
        <ele>195.7</ele>
        <time>2019-08-09T15:35:58Z</time>
      </trkpt>
      <trkpt lat="48.12609" lon="7.32175">
        <ele>195.8</ele>
        <time>2019-08-09T15:35:59Z</time>
      </trkpt>
      <trkpt lat="48.12605" lon="7.32175">
        <ele>195.8</ele>
        <time>2019-08-09T15:36:00Z</time>
      </trkpt>
      <trkpt lat="48.12601" lon="7.32174">
        <ele>195.8</ele>
        <time>2019-08-09T15:36:02Z</time>
      </trkpt>
      <trkpt lat="48.12597" lon="7.32173">
        <ele>195.8</ele>
        <time>2019-08-09T15:36:04Z</time>
      </trkpt>
      <trkpt lat="48.12594" lon="7.32173">
        <ele>195.8</ele>
        <time>2019-08-09T15:36:06Z</time>
      </trkpt>
      <trkpt lat="48.1259" lon="7.32171">
        <ele>195.9</ele>
        <time>2019-08-09T15:36:08Z</time>
      </trkpt>
      <trkpt lat="48.12587" lon="7.32172">
        <ele>195.9</ele>
        <time>2019-08-09T15:36:09Z</time>
      </trkpt>
      <trkpt lat="48.12584" lon="7.32171">
        <ele>196</ele>
        <time>2019-08-09T15:36:10Z</time>
      </trkpt>
      <trkpt lat="48.12582" lon="7.3217">
        <ele>196</ele>
        <time>2019-08-09T15:36:11Z</time>
      </trkpt>
      <trkpt lat="48.12578" lon="7.32171">
        <ele>196.1</ele>
        <time>2019-08-09T15:36:12Z</time>
      </trkpt>
      <trkpt lat="48.12575" lon="7.3217">
        <ele>196.2</ele>
        <time>2019-08-09T15:36:13Z</time>
      </trkpt>
      <trkpt lat="48.12572" lon="7.3217">
        <ele>196.3</ele>
        <time>2019-08-09T15:36:14Z</time>
      </trkpt>
      <trkpt lat="48.12568" lon="7.3217">
        <ele>196.5</ele>
        <time>2019-08-09T15:36:15Z</time>
      </trkpt>
      <trkpt lat="48.12564" lon="7.32169">
        <ele>196.7</ele>
        <time>2019-08-09T15:36:16Z</time>
      </trkpt>
      <trkpt lat="48.12561" lon="7.3217">
        <ele>196.8</ele>
        <time>2019-08-09T15:36:17Z</time>
      </trkpt>
      <trkpt lat="48.12557" lon="7.32168">
        <ele>196.8</ele>
        <time>2019-08-09T15:36:18Z</time>
      </trkpt>
      <trkpt lat="48.12554" lon="7.32167">
        <ele>196.8</ele>
        <time>2019-08-09T15:36:19Z</time>
      </trkpt>
      <trkpt lat="48.1255" lon="7.32166">
        <ele>196.7</ele>
        <time>2019-08-09T15:36:20Z</time>
      </trkpt>
      <trkpt lat="48.12547" lon="7.32165">
        <ele>196.7</ele>
        <time>2019-08-09T15:36:21Z</time>
      </trkpt>
      <trkpt lat="48.12543" lon="7.32164">
        <ele>196.7</ele>
        <time>2019-08-09T15:36:22Z</time>
      </trkpt>
      <trkpt lat="48.12539" lon="7.32162">
        <ele>196.7</ele>
        <time>2019-08-09T15:36:23Z</time>
      </trkpt>
      <trkpt lat="48.12536" lon="7.3216">
        <ele>196.6</ele>
        <time>2019-08-09T15:36:24Z</time>
      </trkpt>
      <trkpt lat="48.12533" lon="7.32159">
        <ele>196.6</ele>
        <time>2019-08-09T15:36:25Z</time>
      </trkpt>
      <trkpt lat="48.12528" lon="7.3216">
        <ele>196.6</ele>
        <time>2019-08-09T15:36:26Z</time>
      </trkpt>
      <trkpt lat="48.12524" lon="7.32163">
        <ele>196.6</ele>
        <time>2019-08-09T15:36:27Z</time>
      </trkpt>
      <trkpt lat="48.1252" lon="7.32167">
        <ele>196.6</ele>
        <time>2019-08-09T15:36:28Z</time>
      </trkpt>
      <trkpt lat="48.12519" lon="7.32172">
        <ele>196.5</ele>
        <time>2019-08-09T15:36:29Z</time>
      </trkpt>
      <trkpt lat="48.12517" lon="7.32178">
        <ele>196.5</ele>
        <time>2019-08-09T15:36:30Z</time>
      </trkpt>
      <trkpt lat="48.12516" lon="7.32184">
        <ele>196.5</ele>
        <time>2019-08-09T15:36:31Z</time>
      </trkpt>
      <trkpt lat="48.12515" lon="7.32191">
        <ele>196.4</ele>
        <time>2019-08-09T15:36:32Z</time>
      </trkpt>
      <trkpt lat="48.12514" lon="7.32197">
        <ele>196.3</ele>
        <time>2019-08-09T15:36:33Z</time>
      </trkpt>
      <trkpt lat="48.12513" lon="7.32205">
        <ele>196.2</ele>
        <time>2019-08-09T15:36:34Z</time>
      </trkpt>
      <trkpt lat="48.12512" lon="7.32213">
        <ele>196.1</ele>
        <time>2019-08-09T15:36:35Z</time>
      </trkpt>
      <trkpt lat="48.12512" lon="7.32219">
        <ele>196</ele>
        <time>2019-08-09T15:36:36Z</time>
      </trkpt>
      <trkpt lat="48.12511" lon="7.32227">
        <ele>196</ele>
        <time>2019-08-09T15:36:37Z</time>
      </trkpt>
      <trkpt lat="48.12511" lon="7.32233">
        <ele>196</ele>
        <time>2019-08-09T15:36:38Z</time>
      </trkpt>
      <trkpt lat="48.1251" lon="7.32239">
        <ele>196</ele>
        <time>2019-08-09T15:36:39Z</time>
      </trkpt>
      <trkpt lat="48.1251" lon="7.32245">
        <ele>196</ele>
        <time>2019-08-09T15:36:40Z</time>
      </trkpt>
      <trkpt lat="48.12509" lon="7.3225">
        <ele>196</ele>
        <time>2019-08-09T15:36:41Z</time>
      </trkpt>
      <trkpt lat="48.12508" lon="7.32255">
        <ele>196.2</ele>
        <time>2019-08-09T15:36:42Z</time>
      </trkpt>
      <trkpt lat="48.12505" lon="7.3226">
        <ele>196.3</ele>
        <time>2019-08-09T15:36:43Z</time>
      </trkpt>
      <trkpt lat="48.12499" lon="7.32258">
        <ele>196.5</ele>
        <time>2019-08-09T15:36:45Z</time>
      </trkpt>
      <trkpt lat="48.12496" lon="7.32257">
        <ele>196.5</ele>
        <time>2019-08-09T15:36:46Z</time>
      </trkpt>
      <trkpt lat="48.12492" lon="7.32256">
        <ele>196.5</ele>
        <time>2019-08-09T15:36:47Z</time>
      </trkpt>
      <trkpt lat="48.12488" lon="7.32256">
        <ele>196.5</ele>
        <time>2019-08-09T15:36:48Z</time>
      </trkpt>
      <trkpt lat="48.12484" lon="7.32255">
        <ele>196.4</ele>
        <time>2019-08-09T15:36:49Z</time>
      </trkpt>
      <trkpt lat="48.1248" lon="7.32255">
        <ele>196.4</ele>
        <time>2019-08-09T15:36:50Z</time>
      </trkpt>
      <trkpt lat="48.12477" lon="7.32255">
        <ele>196.3</ele>
        <time>2019-08-09T15:36:51Z</time>
      </trkpt>
      <trkpt lat="48.12474" lon="7.32255">
        <ele>196.2</ele>
        <time>2019-08-09T15:36:52Z</time>
      </trkpt>
      <trkpt lat="48.12471" lon="7.32254">
        <ele>196.2</ele>
        <time>2019-08-09T15:36:53Z</time>
      </trkpt>
      <trkpt lat="48.12467" lon="7.32253">
        <ele>196.1</ele>
        <time>2019-08-09T15:36:54Z</time>
      </trkpt>
      <trkpt lat="48.12464" lon="7.32252">
        <ele>196</ele>
        <time>2019-08-09T15:36:55Z</time>
      </trkpt>
      <trkpt lat="48.12461" lon="7.32251">
        <ele>195.9</ele>
        <time>2019-08-09T15:36:56Z</time>
      </trkpt>
      <trkpt lat="48.12458" lon="7.3225">
        <ele>195.9</ele>
        <time>2019-08-09T15:36:57Z</time>
      </trkpt>
      <trkpt lat="48.12455" lon="7.32251">
        <ele>195.8</ele>
        <time>2019-08-09T15:36:58Z</time>
      </trkpt>
      <trkpt lat="48.12452" lon="7.32251">
        <ele>195.7</ele>
        <time>2019-08-09T15:36:59Z</time>
      </trkpt>
      <trkpt lat="48.12447" lon="7.3225">
        <ele>195.6</ele>
        <time>2019-08-09T15:37:01Z</time>
      </trkpt>
      <trkpt lat="48.12442" lon="7.32248">
        <ele>195.5</ele>
        <time>2019-08-09T15:37:03Z</time>
      </trkpt>
      <trkpt lat="48.12439" lon="7.32247">
        <ele>195.4</ele>
        <time>2019-08-09T15:37:04Z</time>
      </trkpt>
      <trkpt lat="48.12435" lon="7.32246">
        <ele>195.4</ele>
        <time>2019-08-09T15:37:05Z</time>
      </trkpt>
      <trkpt lat="48.12431" lon="7.32245">
        <ele>195.3</ele>
        <time>2019-08-09T15:37:06Z</time>
      </trkpt>
      <trkpt lat="48.12427" lon="7.32245">
        <ele>195.3</ele>
        <time>2019-08-09T15:37:07Z</time>
      </trkpt>
      <trkpt lat="48.12423" lon="7.32244">
        <ele>195.3</ele>
        <time>2019-08-09T15:37:08Z</time>
      </trkpt>
      <trkpt lat="48.1242" lon="7.32242">
        <ele>195.2</ele>
        <time>2019-08-09T15:37:09Z</time>
      </trkpt>
      <trkpt lat="48.12417" lon="7.32241">
        <ele>195.2</ele>
        <time>2019-08-09T15:37:10Z</time>
      </trkpt>
      <trkpt lat="48.12413" lon="7.3224">
        <ele>195.2</ele>
        <time>2019-08-09T15:37:11Z</time>
      </trkpt>
      <trkpt lat="48.1241" lon="7.32238">
        <ele>195.2</ele>
        <time>2019-08-09T15:37:12Z</time>
      </trkpt>
      <trkpt lat="48.12406" lon="7.32238">
        <ele>195.2</ele>
        <time>2019-08-09T15:37:13Z</time>
      </trkpt>
      <trkpt lat="48.12402" lon="7.32237">
        <ele>195.2</ele>
        <time>2019-08-09T15:37:14Z</time>
      </trkpt>
      <trkpt lat="48.12398" lon="7.32237">
        <ele>195.2</ele>
        <time>2019-08-09T15:37:15Z</time>
      </trkpt>
      <trkpt lat="48.12395" lon="7.32237">
        <ele>195.2</ele>
        <time>2019-08-09T15:37:16Z</time>
      </trkpt>
      <trkpt lat="48.12391" lon="7.32235">
        <ele>195.2</ele>
        <time>2019-08-09T15:37:17Z</time>
      </trkpt>
      <trkpt lat="48.12387" lon="7.32235">
        <ele>195.2</ele>
        <time>2019-08-09T15:37:18Z</time>
      </trkpt>
      <trkpt lat="48.12384" lon="7.32234">
        <ele>195.2</ele>
        <time>2019-08-09T15:37:19Z</time>
      </trkpt>
      <trkpt lat="48.1238" lon="7.32233">
        <ele>195.2</ele>
        <time>2019-08-09T15:37:20Z</time>
      </trkpt>
      <trkpt lat="48.12376" lon="7.32233">
        <ele>195.1</ele>
        <time>2019-08-09T15:37:21Z</time>
      </trkpt>
      <trkpt lat="48.12372" lon="7.32232">
        <ele>195.1</ele>
        <time>2019-08-09T15:37:22Z</time>
      </trkpt>
      <trkpt lat="48.12368" lon="7.32232">
        <ele>195.1</ele>
        <time>2019-08-09T15:37:23Z</time>
      </trkpt>
      <trkpt lat="48.12363" lon="7.32231">
        <ele>195</ele>
        <time>2019-08-09T15:37:24Z</time>
      </trkpt>
      <trkpt lat="48.12358" lon="7.32231">
        <ele>194.9</ele>
        <time>2019-08-09T15:37:25Z</time>
      </trkpt>
      <trkpt lat="48.12354" lon="7.32231">
        <ele>194.8</ele>
        <time>2019-08-09T15:37:26Z</time>
      </trkpt>
      <trkpt lat="48.1235" lon="7.3223">
        <ele>194.7</ele>
        <time>2019-08-09T15:37:27Z</time>
      </trkpt>
      <trkpt lat="48.12347" lon="7.3223">
        <ele>194.6</ele>
        <time>2019-08-09T15:37:28Z</time>
      </trkpt>
      <trkpt lat="48.12343" lon="7.32228">
        <ele>194.6</ele>
        <time>2019-08-09T15:37:29Z</time>
      </trkpt>
      <trkpt lat="48.12339" lon="7.32227">
        <ele>194.5</ele>
        <time>2019-08-09T15:37:30Z</time>
      </trkpt>
      <trkpt lat="48.12335" lon="7.32225">
        <ele>194.4</ele>
        <time>2019-08-09T15:37:31Z</time>
      </trkpt>
      <trkpt lat="48.1233" lon="7.32224">
        <ele>194.3</ele>
        <time>2019-08-09T15:37:32Z</time>
      </trkpt>
      <trkpt lat="48.12325" lon="7.32223">
        <ele>194.3</ele>
        <time>2019-08-09T15:37:33Z</time>
      </trkpt>
      <trkpt lat="48.12322" lon="7.32224">
        <ele>194.3</ele>
        <time>2019-08-09T15:37:34Z</time>
      </trkpt>
      <trkpt lat="48.12318" lon="7.32223">
        <ele>194.3</ele>
        <time>2019-08-09T15:37:35Z</time>
      </trkpt>
      <trkpt lat="48.12314" lon="7.32222">
        <ele>194.3</ele>
        <time>2019-08-09T15:37:36Z</time>
      </trkpt>
      <trkpt lat="48.1231" lon="7.32222">
        <ele>194.3</ele>
        <time>2019-08-09T15:37:37Z</time>
      </trkpt>
      <trkpt lat="48.12307" lon="7.32221">
        <ele>194.4</ele>
        <time>2019-08-09T15:37:38Z</time>
      </trkpt>
      <trkpt lat="48.12304" lon="7.3222">
        <ele>194.5</ele>
        <time>2019-08-09T15:37:39Z</time>
      </trkpt>
      <trkpt lat="48.12299" lon="7.32215">
        <ele>194.7</ele>
        <time>2019-08-09T15:37:41Z</time>
      </trkpt>
      <trkpt lat="48.12299" lon="7.32209">
        <ele>194.7</ele>
        <time>2019-08-09T15:37:42Z</time>
      </trkpt>
      <trkpt lat="48.123" lon="7.32204">
        <ele>194.7</ele>
        <time>2019-08-09T15:37:43Z</time>
      </trkpt>
      <trkpt lat="48.12302" lon="7.32199">
        <ele>194.7</ele>
        <time>2019-08-09T15:37:44Z</time>
      </trkpt>
      <trkpt lat="48.12303" lon="7.32193">
        <ele>194.7</ele>
        <time>2019-08-09T15:37:45Z</time>
      </trkpt>
      <trkpt lat="48.12304" lon="7.32188">
        <ele>194.7</ele>
        <time>2019-08-09T15:37:46Z</time>
      </trkpt>
      <trkpt lat="48.12305" lon="7.32184">
        <ele>194.7</ele>
        <time>2019-08-09T15:37:47Z</time>
      </trkpt>
      <trkpt lat="48.12305" lon="7.32179">
        <ele>194.7</ele>
        <time>2019-08-09T15:37:48Z</time>
      </trkpt>
      <trkpt lat="48.12307" lon="7.32174">
        <ele>194.8</ele>
        <time>2019-08-09T15:37:49Z</time>
      </trkpt>
      <trkpt lat="48.12308" lon="7.32167">
        <ele>194.8</ele>
        <time>2019-08-09T15:37:50Z</time>
      </trkpt>
      <trkpt lat="48.1231" lon="7.32162">
        <ele>194.8</ele>
        <time>2019-08-09T15:37:51Z</time>
      </trkpt>
      <trkpt lat="48.1231" lon="7.32153">
        <ele>194.8</ele>
        <time>2019-08-09T15:37:53Z</time>
      </trkpt>
      <trkpt lat="48.12311" lon="7.32144">
        <ele>194.9</ele>
        <time>2019-08-09T15:37:55Z</time>
      </trkpt>
      <trkpt lat="48.12313" lon="7.32138">
        <ele>194.9</ele>
        <time>2019-08-09T15:37:56Z</time>
      </trkpt>
      <trkpt lat="48.12314" lon="7.32133">
        <ele>194.9</ele>
        <time>2019-08-09T15:37:57Z</time>
      </trkpt>
      <trkpt lat="48.12316" lon="7.32128">
        <ele>194.9</ele>
        <time>2019-08-09T15:37:58Z</time>
      </trkpt>
      <trkpt lat="48.12317" lon="7.32121">
        <ele>195</ele>
        <time>2019-08-09T15:37:59Z</time>
      </trkpt>
      <trkpt lat="48.12318" lon="7.32116">
        <ele>195</ele>
        <time>2019-08-09T15:38:00Z</time>
      </trkpt>
      <trkpt lat="48.1232" lon="7.32111">
        <ele>195</ele>
        <time>2019-08-09T15:38:01Z</time>
      </trkpt>
      <trkpt lat="48.1232" lon="7.32106">
        <ele>195</ele>
        <time>2019-08-09T15:38:02Z</time>
      </trkpt>
      <trkpt lat="48.12321" lon="7.32102">
        <ele>195.1</ele>
        <time>2019-08-09T15:38:03Z</time>
      </trkpt>
      <trkpt lat="48.12322" lon="7.32097">
        <ele>195.1</ele>
        <time>2019-08-09T15:38:05Z</time>
      </trkpt>
      <trkpt lat="48.12321" lon="7.32102">
        <ele>195.1</ele>
        <time>2019-08-09T15:38:09Z</time>
      </trkpt>
      <trkpt lat="48.12321" lon="7.32106">
        <ele>195.1</ele>
        <time>2019-08-09T15:38:13Z</time>
      </trkpt>
      <trkpt lat="48.12323" lon="7.321">
        <ele>195.2</ele>
        <time>2019-08-09T15:38:25Z</time>
      </trkpt>
      <trkpt lat="48.12324" lon="7.32093">
        <ele>195.2</ele>
        <time>2019-08-09T15:38:27Z</time>
      </trkpt>
      <trkpt lat="48.12324" lon="7.32086">
        <ele>195.3</ele>
        <time>2019-08-09T15:38:29Z</time>
      </trkpt>
      <trkpt lat="48.12325" lon="7.32081">
        <ele>195.3</ele>
        <time>2019-08-09T15:38:31Z</time>
      </trkpt>
      <trkpt lat="48.12327" lon="7.32075">
        <ele>195.4</ele>
        <time>2019-08-09T15:38:33Z</time>
      </trkpt>
      <trkpt lat="48.12328" lon="7.32068">
        <ele>195.4</ele>
        <time>2019-08-09T15:38:35Z</time>
      </trkpt>
      <trkpt lat="48.12328" lon="7.32063">
        <ele>195.4</ele>
        <time>2019-08-09T15:38:36Z</time>
      </trkpt>
      <trkpt lat="48.12329" lon="7.32058">
        <ele>195.5</ele>
        <time>2019-08-09T15:38:37Z</time>
      </trkpt>
      <trkpt lat="48.12331" lon="7.32054">
        <ele>195.5</ele>
        <time>2019-08-09T15:38:38Z</time>
      </trkpt>
      <trkpt lat="48.12332" lon="7.32048">
        <ele>195.5</ele>
        <time>2019-08-09T15:38:39Z</time>
      </trkpt>
      <trkpt lat="48.12333" lon="7.32043">
        <ele>195.6</ele>
        <time>2019-08-09T15:38:40Z</time>
      </trkpt>
      <trkpt lat="48.12334" lon="7.32038">
        <ele>195.6</ele>
        <time>2019-08-09T15:38:41Z</time>
      </trkpt>
      <trkpt lat="48.12335" lon="7.32033">
        <ele>195.6</ele>
        <time>2019-08-09T15:38:42Z</time>
      </trkpt>
      <trkpt lat="48.12336" lon="7.32028">
        <ele>195.7</ele>
        <time>2019-08-09T15:38:43Z</time>
      </trkpt>
      <trkpt lat="48.12337" lon="7.32023">
        <ele>195.7</ele>
        <time>2019-08-09T15:38:44Z</time>
      </trkpt>
      <trkpt lat="48.12338" lon="7.32018">
        <ele>195.7</ele>
        <time>2019-08-09T15:38:45Z</time>
      </trkpt>
      <trkpt lat="48.12339" lon="7.32012">
        <ele>195.8</ele>
        <time>2019-08-09T15:38:46Z</time>
      </trkpt>
      <trkpt lat="48.1234" lon="7.32007">
        <ele>195.8</ele>
        <time>2019-08-09T15:38:47Z</time>
      </trkpt>
      <trkpt lat="48.12341" lon="7.32002">
        <ele>195.8</ele>
        <time>2019-08-09T15:38:48Z</time>
      </trkpt>
      <trkpt lat="48.12341" lon="7.31996">
        <ele>195.9</ele>
        <time>2019-08-09T15:38:49Z</time>
      </trkpt>
      <trkpt lat="48.12343" lon="7.31991">
        <ele>195.9</ele>
        <time>2019-08-09T15:38:50Z</time>
      </trkpt>
      <trkpt lat="48.12344" lon="7.31986">
        <ele>196</ele>
        <time>2019-08-09T15:38:51Z</time>
      </trkpt>
      <trkpt lat="48.12345" lon="7.3198">
        <ele>196</ele>
        <time>2019-08-09T15:38:52Z</time>
      </trkpt>
      <trkpt lat="48.12347" lon="7.31975">
        <ele>196</ele>
        <time>2019-08-09T15:38:53Z</time>
      </trkpt>
      <trkpt lat="48.12349" lon="7.31969">
        <ele>196.1</ele>
        <time>2019-08-09T15:38:54Z</time>
      </trkpt>
      <trkpt lat="48.1235" lon="7.31963">
        <ele>196.1</ele>
        <time>2019-08-09T15:38:55Z</time>
      </trkpt>
      <trkpt lat="48.1235" lon="7.31956">
        <ele>196.1</ele>
        <time>2019-08-09T15:38:56Z</time>
      </trkpt>
      <trkpt lat="48.12351" lon="7.31951">
        <ele>196.2</ele>
        <time>2019-08-09T15:38:57Z</time>
      </trkpt>
      <trkpt lat="48.12353" lon="7.31945">
        <ele>196.2</ele>
        <time>2019-08-09T15:38:58Z</time>
      </trkpt>
      <trkpt lat="48.12354" lon="7.31939">
        <ele>196.3</ele>
        <time>2019-08-09T15:38:59Z</time>
      </trkpt>
      <trkpt lat="48.12355" lon="7.31933">
        <ele>196.5</ele>
        <time>2019-08-09T15:39:00Z</time>
      </trkpt>
      <trkpt lat="48.12356" lon="7.31926">
        <ele>196.5</ele>
        <time>2019-08-09T15:39:01Z</time>
      </trkpt>
      <trkpt lat="48.12357" lon="7.31919">
        <ele>196.6</ele>
        <time>2019-08-09T15:39:02Z</time>
      </trkpt>
      <trkpt lat="48.12357" lon="7.31915">
        <ele>196.6</ele>
        <time>2019-08-09T15:39:03Z</time>
      </trkpt>
      <trkpt lat="48.12358" lon="7.31908">
        <ele>196.7</ele>
        <time>2019-08-09T15:39:04Z</time>
      </trkpt>
      <trkpt lat="48.1236" lon="7.31902">
        <ele>196.7</ele>
        <time>2019-08-09T15:39:05Z</time>
      </trkpt>
      <trkpt lat="48.12362" lon="7.31896">
        <ele>196.8</ele>
        <time>2019-08-09T15:39:06Z</time>
      </trkpt>
      <trkpt lat="48.12364" lon="7.3189">
        <ele>196.8</ele>
        <time>2019-08-09T15:39:07Z</time>
      </trkpt>
      <trkpt lat="48.12365" lon="7.31883">
        <ele>196.9</ele>
        <time>2019-08-09T15:39:08Z</time>
      </trkpt>
      <trkpt lat="48.12366" lon="7.31876">
        <ele>196.9</ele>
        <time>2019-08-09T15:39:09Z</time>
      </trkpt>
      <trkpt lat="48.12367" lon="7.3187">
        <ele>197</ele>
        <time>2019-08-09T15:39:10Z</time>
      </trkpt>
      <trkpt lat="48.12368" lon="7.31864">
        <ele>197</ele>
        <time>2019-08-09T15:39:11Z</time>
      </trkpt>
      <trkpt lat="48.12369" lon="7.31858">
        <ele>197.1</ele>
        <time>2019-08-09T15:39:12Z</time>
      </trkpt>
      <trkpt lat="48.12371" lon="7.31853">
        <ele>197.2</ele>
        <time>2019-08-09T15:39:13Z</time>
      </trkpt>
      <trkpt lat="48.12372" lon="7.31848">
        <ele>197.2</ele>
        <time>2019-08-09T15:39:14Z</time>
      </trkpt>
      <trkpt lat="48.12373" lon="7.31841">
        <ele>197.3</ele>
        <time>2019-08-09T15:39:15Z</time>
      </trkpt>
      <trkpt lat="48.12374" lon="7.31837">
        <ele>197.4</ele>
        <time>2019-08-09T15:39:16Z</time>
      </trkpt>
      <trkpt lat="48.12375" lon="7.31831">
        <ele>197.5</ele>
        <time>2019-08-09T15:39:17Z</time>
      </trkpt>
      <trkpt lat="48.12376" lon="7.31826">
        <ele>197.6</ele>
        <time>2019-08-09T15:39:18Z</time>
      </trkpt>
      <trkpt lat="48.12378" lon="7.31818">
        <ele>197.7</ele>
        <time>2019-08-09T15:39:19Z</time>
      </trkpt>
      <trkpt lat="48.12379" lon="7.31813">
        <ele>197.7</ele>
        <time>2019-08-09T15:39:20Z</time>
      </trkpt>
      <trkpt lat="48.1238" lon="7.31808">
        <ele>197.8</ele>
        <time>2019-08-09T15:39:21Z</time>
      </trkpt>
      <trkpt lat="48.12381" lon="7.31801">
        <ele>197.8</ele>
        <time>2019-08-09T15:39:22Z</time>
      </trkpt>
      <trkpt lat="48.12381" lon="7.31795">
        <ele>197.8</ele>
        <time>2019-08-09T15:39:23Z</time>
      </trkpt>
      <trkpt lat="48.12382" lon="7.31789">
        <ele>197.9</ele>
        <time>2019-08-09T15:39:24Z</time>
      </trkpt>
      <trkpt lat="48.12384" lon="7.31782">
        <ele>197.9</ele>
        <time>2019-08-09T15:39:25Z</time>
      </trkpt>
      <trkpt lat="48.12385" lon="7.31776">
        <ele>197.9</ele>
        <time>2019-08-09T15:39:26Z</time>
      </trkpt>
      <trkpt lat="48.12386" lon="7.31771">
        <ele>197.9</ele>
        <time>2019-08-09T15:39:27Z</time>
      </trkpt>
      <trkpt lat="48.12386" lon="7.31765">
        <ele>197.9</ele>
        <time>2019-08-09T15:39:28Z</time>
      </trkpt>
      <trkpt lat="48.12387" lon="7.31759">
        <ele>197.9</ele>
        <time>2019-08-09T15:39:29Z</time>
      </trkpt>
      <trkpt lat="48.12389" lon="7.31755">
        <ele>198</ele>
        <time>2019-08-09T15:39:30Z</time>
      </trkpt>
      <trkpt lat="48.1239" lon="7.31749">
        <ele>198</ele>
        <time>2019-08-09T15:39:31Z</time>
      </trkpt>
      <trkpt lat="48.12392" lon="7.31744">
        <ele>198</ele>
        <time>2019-08-09T15:39:32Z</time>
      </trkpt>
      <trkpt lat="48.12393" lon="7.31738">
        <ele>198</ele>
        <time>2019-08-09T15:39:33Z</time>
      </trkpt>
      <trkpt lat="48.12393" lon="7.31732">
        <ele>198</ele>
        <time>2019-08-09T15:39:34Z</time>
      </trkpt>
      <trkpt lat="48.12394" lon="7.31727">
        <ele>198</ele>
        <time>2019-08-09T15:39:35Z</time>
      </trkpt>
      <trkpt lat="48.12395" lon="7.31722">
        <ele>198.1</ele>
        <time>2019-08-09T15:39:36Z</time>
      </trkpt>
      <trkpt lat="48.12396" lon="7.31717">
        <ele>198.1</ele>
        <time>2019-08-09T15:39:37Z</time>
      </trkpt>
      <trkpt lat="48.12397" lon="7.31711">
        <ele>198.2</ele>
        <time>2019-08-09T15:39:38Z</time>
      </trkpt>
      <trkpt lat="48.12398" lon="7.31706">
        <ele>198.3</ele>
        <time>2019-08-09T15:39:39Z</time>
      </trkpt>
      <trkpt lat="48.12399" lon="7.31702">
        <ele>198.3</ele>
        <time>2019-08-09T15:39:40Z</time>
      </trkpt>
      <trkpt lat="48.12399" lon="7.31696">
        <ele>198.5</ele>
        <time>2019-08-09T15:39:42Z</time>
      </trkpt>
      <trkpt lat="48.12397" lon="7.31693">
        <ele>198.5</ele>
        <time>2019-08-09T15:39:44Z</time>
      </trkpt>
      <trkpt lat="48.12391" lon="7.31693">
        <ele>198.6</ele>
        <time>2019-08-09T15:39:46Z</time>
      </trkpt>
      <trkpt lat="48.12389" lon="7.31692">
        <ele>198.7</ele>
        <time>2019-08-09T15:39:47Z</time>
      </trkpt>
      <trkpt lat="48.12386" lon="7.31691">
        <ele>198.7</ele>
        <time>2019-08-09T15:39:48Z</time>
      </trkpt>
      <trkpt lat="48.12383" lon="7.31689">
        <ele>198.7</ele>
        <time>2019-08-09T15:39:49Z</time>
      </trkpt>
      <trkpt lat="48.12379" lon="7.31688">
        <ele>198.7</ele>
        <time>2019-08-09T15:39:50Z</time>
      </trkpt>
      <trkpt lat="48.12375" lon="7.31687">
        <ele>198.6</ele>
        <time>2019-08-09T15:39:51Z</time>
      </trkpt>
      <trkpt lat="48.12371" lon="7.31687">
        <ele>198.6</ele>
        <time>2019-08-09T15:39:52Z</time>
      </trkpt>
      <trkpt lat="48.12367" lon="7.31687">
        <ele>198.6</ele>
        <time>2019-08-09T15:39:53Z</time>
      </trkpt>
      <trkpt lat="48.12364" lon="7.31687">
        <ele>198.5</ele>
        <time>2019-08-09T15:39:54Z</time>
      </trkpt>
      <trkpt lat="48.12361" lon="7.31686">
        <ele>198.5</ele>
        <time>2019-08-09T15:39:55Z</time>
      </trkpt>
      <trkpt lat="48.12357" lon="7.31685">
        <ele>198.5</ele>
        <time>2019-08-09T15:39:56Z</time>
      </trkpt>
      <trkpt lat="48.12354" lon="7.31684">
        <ele>198.4</ele>
        <time>2019-08-09T15:39:57Z</time>
      </trkpt>
      <trkpt lat="48.12351" lon="7.31683">
        <ele>198.4</ele>
        <time>2019-08-09T15:39:58Z</time>
      </trkpt>
      <trkpt lat="48.12346" lon="7.31681">
        <ele>198.4</ele>
        <time>2019-08-09T15:39:59Z</time>
      </trkpt>
      <trkpt lat="48.12343" lon="7.31679">
        <ele>198.3</ele>
        <time>2019-08-09T15:40:00Z</time>
      </trkpt>
      <trkpt lat="48.12339" lon="7.31678">
        <ele>198.3</ele>
        <time>2019-08-09T15:40:01Z</time>
      </trkpt>
      <trkpt lat="48.12335" lon="7.31675">
        <ele>198.3</ele>
        <time>2019-08-09T15:40:02Z</time>
      </trkpt>
      <trkpt lat="48.12332" lon="7.31674">
        <ele>198.2</ele>
        <time>2019-08-09T15:40:03Z</time>
      </trkpt>
      <trkpt lat="48.12327" lon="7.31673">
        <ele>198.2</ele>
        <time>2019-08-09T15:40:04Z</time>
      </trkpt>
      <trkpt lat="48.12323" lon="7.31671">
        <ele>198.1</ele>
        <time>2019-08-09T15:40:05Z</time>
      </trkpt>
      <trkpt lat="48.1232" lon="7.3167">
        <ele>198.1</ele>
        <time>2019-08-09T15:40:06Z</time>
      </trkpt>
      <trkpt lat="48.12316" lon="7.31669">
        <ele>198.1</ele>
        <time>2019-08-09T15:40:07Z</time>
      </trkpt>
      <trkpt lat="48.12313" lon="7.31669">
        <ele>198</ele>
        <time>2019-08-09T15:40:08Z</time>
      </trkpt>
      <trkpt lat="48.12309" lon="7.31667">
        <ele>198</ele>
        <time>2019-08-09T15:40:09Z</time>
      </trkpt>
      <trkpt lat="48.12305" lon="7.31665">
        <ele>197.9</ele>
        <time>2019-08-09T15:40:10Z</time>
      </trkpt>
      <trkpt lat="48.12301" lon="7.31662">
        <ele>197.9</ele>
        <time>2019-08-09T15:40:11Z</time>
      </trkpt>
      <trkpt lat="48.12297" lon="7.31661">
        <ele>197.9</ele>
        <time>2019-08-09T15:40:12Z</time>
      </trkpt>
      <trkpt lat="48.12293" lon="7.31659">
        <ele>197.8</ele>
        <time>2019-08-09T15:40:13Z</time>
      </trkpt>
      <trkpt lat="48.12288" lon="7.31657">
        <ele>197.8</ele>
        <time>2019-08-09T15:40:14Z</time>
      </trkpt>
      <trkpt lat="48.12286" lon="7.31654">
        <ele>197.8</ele>
        <time>2019-08-09T15:40:15Z</time>
      </trkpt>
      <trkpt lat="48.12282" lon="7.31653">
        <ele>197.7</ele>
        <time>2019-08-09T15:40:16Z</time>
      </trkpt>
      <trkpt lat="48.12278" lon="7.31652">
        <ele>197.7</ele>
        <time>2019-08-09T15:40:17Z</time>
      </trkpt>
      <trkpt lat="48.12275" lon="7.3165">
        <ele>197.7</ele>
        <time>2019-08-09T15:40:18Z</time>
      </trkpt>
      <trkpt lat="48.12271" lon="7.31648">
        <ele>197.7</ele>
        <time>2019-08-09T15:40:19Z</time>
      </trkpt>
      <trkpt lat="48.12268" lon="7.31648">
        <ele>197.6</ele>
        <time>2019-08-09T15:40:20Z</time>
      </trkpt>
      <trkpt lat="48.12264" lon="7.31648">
        <ele>197.6</ele>
        <time>2019-08-09T15:40:21Z</time>
      </trkpt>
      <trkpt lat="48.12261" lon="7.31647">
        <ele>197.6</ele>
        <time>2019-08-09T15:40:22Z</time>
      </trkpt>
      <trkpt lat="48.12257" lon="7.31645">
        <ele>197.5</ele>
        <time>2019-08-09T15:40:23Z</time>
      </trkpt>
      <trkpt lat="48.12253" lon="7.31644">
        <ele>197.5</ele>
        <time>2019-08-09T15:40:24Z</time>
      </trkpt>
      <trkpt lat="48.12249" lon="7.31642">
        <ele>197.5</ele>
        <time>2019-08-09T15:40:25Z</time>
      </trkpt>
      <trkpt lat="48.12245" lon="7.3164">
        <ele>197.4</ele>
        <time>2019-08-09T15:40:26Z</time>
      </trkpt>
      <trkpt lat="48.12241" lon="7.31638">
        <ele>197.4</ele>
        <time>2019-08-09T15:40:27Z</time>
      </trkpt>
      <trkpt lat="48.12237" lon="7.31636">
        <ele>197.4</ele>
        <time>2019-08-09T15:40:28Z</time>
      </trkpt>
      <trkpt lat="48.12233" lon="7.31635">
        <ele>197.5</ele>
        <time>2019-08-09T15:40:29Z</time>
      </trkpt>
      <trkpt lat="48.12229" lon="7.31634">
        <ele>197.5</ele>
        <time>2019-08-09T15:40:30Z</time>
      </trkpt>
      <trkpt lat="48.12224" lon="7.31632">
        <ele>197.5</ele>
        <time>2019-08-09T15:40:31Z</time>
      </trkpt>
      <trkpt lat="48.1222" lon="7.31631">
        <ele>197.5</ele>
        <time>2019-08-09T15:40:32Z</time>
      </trkpt>
      <trkpt lat="48.12216" lon="7.3163">
        <ele>197.6</ele>
        <time>2019-08-09T15:40:33Z</time>
      </trkpt>
      <trkpt lat="48.12211" lon="7.31629">
        <ele>197.6</ele>
        <time>2019-08-09T15:40:34Z</time>
      </trkpt>
      <trkpt lat="48.12207" lon="7.31626">
        <ele>197.6</ele>
        <time>2019-08-09T15:40:35Z</time>
      </trkpt>
      <trkpt lat="48.12203" lon="7.31624">
        <ele>197.6</ele>
        <time>2019-08-09T15:40:36Z</time>
      </trkpt>
      <trkpt lat="48.12199" lon="7.31622">
        <ele>197.6</ele>
        <time>2019-08-09T15:40:37Z</time>
      </trkpt>
      <trkpt lat="48.12195" lon="7.3162">
        <ele>197.6</ele>
        <time>2019-08-09T15:40:38Z</time>
      </trkpt>
      <trkpt lat="48.1219" lon="7.3162">
        <ele>197.6</ele>
        <time>2019-08-09T15:40:39Z</time>
      </trkpt>
      <trkpt lat="48.12185" lon="7.31618">
        <ele>197.7</ele>
        <time>2019-08-09T15:40:40Z</time>
      </trkpt>
      <trkpt lat="48.12182" lon="7.31617">
        <ele>197.7</ele>
        <time>2019-08-09T15:40:41Z</time>
      </trkpt>
      <trkpt lat="48.12177" lon="7.31615">
        <ele>197.7</ele>
        <time>2019-08-09T15:40:42Z</time>
      </trkpt>
      <trkpt lat="48.12174" lon="7.31613">
        <ele>197.7</ele>
        <time>2019-08-09T15:40:43Z</time>
      </trkpt>
      <trkpt lat="48.1217" lon="7.31611">
        <ele>197.8</ele>
        <time>2019-08-09T15:40:44Z</time>
      </trkpt>
      <trkpt lat="48.12166" lon="7.3161">
        <ele>197.8</ele>
        <time>2019-08-09T15:40:45Z</time>
      </trkpt>
      <trkpt lat="48.12162" lon="7.31609">
        <ele>197.8</ele>
        <time>2019-08-09T15:40:46Z</time>
      </trkpt>
      <trkpt lat="48.12158" lon="7.31607">
        <ele>197.8</ele>
        <time>2019-08-09T15:40:47Z</time>
      </trkpt>
      <trkpt lat="48.12155" lon="7.31606">
        <ele>197.9</ele>
        <time>2019-08-09T15:40:48Z</time>
      </trkpt>
      <trkpt lat="48.12152" lon="7.31604">
        <ele>197.9</ele>
        <time>2019-08-09T15:40:49Z</time>
      </trkpt>
      <trkpt lat="48.12148" lon="7.31602">
        <ele>197.9</ele>
        <time>2019-08-09T15:40:50Z</time>
      </trkpt>
      <trkpt lat="48.12145" lon="7.316">
        <ele>197.9</ele>
        <time>2019-08-09T15:40:51Z</time>
      </trkpt>
      <trkpt lat="48.12141" lon="7.31599">
        <ele>197.8</ele>
        <time>2019-08-09T15:40:52Z</time>
      </trkpt>
      <trkpt lat="48.12136" lon="7.31598">
        <ele>197.8</ele>
        <time>2019-08-09T15:40:53Z</time>
      </trkpt>
      <trkpt lat="48.12132" lon="7.31597">
        <ele>197.8</ele>
        <time>2019-08-09T15:40:54Z</time>
      </trkpt>
      <trkpt lat="48.12129" lon="7.31595">
        <ele>197.8</ele>
        <time>2019-08-09T15:40:55Z</time>
      </trkpt>
      <trkpt lat="48.12126" lon="7.31594">
        <ele>197.7</ele>
        <time>2019-08-09T15:40:56Z</time>
      </trkpt>
      <trkpt lat="48.12122" lon="7.31593">
        <ele>197.7</ele>
        <time>2019-08-09T15:40:57Z</time>
      </trkpt>
      <trkpt lat="48.12118" lon="7.31591">
        <ele>197.7</ele>
        <time>2019-08-09T15:40:58Z</time>
      </trkpt>
      <trkpt lat="48.12114" lon="7.3159">
        <ele>197.7</ele>
        <time>2019-08-09T15:40:59Z</time>
      </trkpt>
      <trkpt lat="48.12109" lon="7.31588">
        <ele>197.7</ele>
        <time>2019-08-09T15:41:00Z</time>
      </trkpt>
      <trkpt lat="48.12105" lon="7.31587">
        <ele>197.7</ele>
        <time>2019-08-09T15:41:01Z</time>
      </trkpt>
      <trkpt lat="48.121" lon="7.31585">
        <ele>197.7</ele>
        <time>2019-08-09T15:41:02Z</time>
      </trkpt>
      <trkpt lat="48.12096" lon="7.31584">
        <ele>197.7</ele>
        <time>2019-08-09T15:41:03Z</time>
      </trkpt>
      <trkpt lat="48.12093" lon="7.31582">
        <ele>197.7</ele>
        <time>2019-08-09T15:41:04Z</time>
      </trkpt>
      <trkpt lat="48.12088" lon="7.3158">
        <ele>197.8</ele>
        <time>2019-08-09T15:41:05Z</time>
      </trkpt>
      <trkpt lat="48.12084" lon="7.31579">
        <ele>197.8</ele>
        <time>2019-08-09T15:41:06Z</time>
      </trkpt>
      <trkpt lat="48.1208" lon="7.31579">
        <ele>197.8</ele>
        <time>2019-08-09T15:41:07Z</time>
      </trkpt>
      <trkpt lat="48.12076" lon="7.31577">
        <ele>197.8</ele>
        <time>2019-08-09T15:41:08Z</time>
      </trkpt>
      <trkpt lat="48.12072" lon="7.31577">
        <ele>197.8</ele>
        <time>2019-08-09T15:41:09Z</time>
      </trkpt>
      <trkpt lat="48.12068" lon="7.31575">
        <ele>197.8</ele>
        <time>2019-08-09T15:41:10Z</time>
      </trkpt>
      <trkpt lat="48.12064" lon="7.31574">
        <ele>197.8</ele>
        <time>2019-08-09T15:41:11Z</time>
      </trkpt>
      <trkpt lat="48.1206" lon="7.31573">
        <ele>197.8</ele>
        <time>2019-08-09T15:41:12Z</time>
      </trkpt>
      <trkpt lat="48.12056" lon="7.31573">
        <ele>197.8</ele>
        <time>2019-08-09T15:41:13Z</time>
      </trkpt>
      <trkpt lat="48.12052" lon="7.31572">
        <ele>197.8</ele>
        <time>2019-08-09T15:41:14Z</time>
      </trkpt>
      <trkpt lat="48.12047" lon="7.3157">
        <ele>197.8</ele>
        <time>2019-08-09T15:41:15Z</time>
      </trkpt>
      <trkpt lat="48.12044" lon="7.31568">
        <ele>197.8</ele>
        <time>2019-08-09T15:41:16Z</time>
      </trkpt>
      <trkpt lat="48.12039" lon="7.31566">
        <ele>197.7</ele>
        <time>2019-08-09T15:41:17Z</time>
      </trkpt>
      <trkpt lat="48.12035" lon="7.31564">
        <ele>197.7</ele>
        <time>2019-08-09T15:41:18Z</time>
      </trkpt>
      <trkpt lat="48.12031" lon="7.31563">
        <ele>197.7</ele>
        <time>2019-08-09T15:41:19Z</time>
      </trkpt>
      <trkpt lat="48.12028" lon="7.31562">
        <ele>197.7</ele>
        <time>2019-08-09T15:41:20Z</time>
      </trkpt>
      <trkpt lat="48.12025" lon="7.31561">
        <ele>197.7</ele>
        <time>2019-08-09T15:41:21Z</time>
      </trkpt>
      <trkpt lat="48.12021" lon="7.3156">
        <ele>197.7</ele>
        <time>2019-08-09T15:41:22Z</time>
      </trkpt>
      <trkpt lat="48.12018" lon="7.3156">
        <ele>197.7</ele>
        <time>2019-08-09T15:41:23Z</time>
      </trkpt>
      <trkpt lat="48.12014" lon="7.31558">
        <ele>197.7</ele>
        <time>2019-08-09T15:41:24Z</time>
      </trkpt>
      <trkpt lat="48.1201" lon="7.31556">
        <ele>197.7</ele>
        <time>2019-08-09T15:41:25Z</time>
      </trkpt>
      <trkpt lat="48.12007" lon="7.3155">
        <ele>197.8</ele>
        <time>2019-08-09T15:41:26Z</time>
      </trkpt>
      <trkpt lat="48.12005" lon="7.31542">
        <ele>197.9</ele>
        <time>2019-08-09T15:41:27Z</time>
      </trkpt>
      <trkpt lat="48.12006" lon="7.31535">
        <ele>198</ele>
        <time>2019-08-09T15:41:28Z</time>
      </trkpt>
      <trkpt lat="48.12006" lon="7.31529">
        <ele>198.1</ele>
        <time>2019-08-09T15:41:29Z</time>
      </trkpt>
      <trkpt lat="48.12005" lon="7.31524">
        <ele>198.1</ele>
        <time>2019-08-09T15:41:30Z</time>
      </trkpt>
      <trkpt lat="48.12002" lon="7.31521">
        <ele>198.1</ele>
        <time>2019-08-09T15:41:31Z</time>
      </trkpt>
      <trkpt lat="48.11999" lon="7.31519">
        <ele>198.1</ele>
        <time>2019-08-09T15:41:32Z</time>
      </trkpt>
      <trkpt lat="48.11994" lon="7.31517">
        <ele>198</ele>
        <time>2019-08-09T15:41:33Z</time>
      </trkpt>
      <trkpt lat="48.1199" lon="7.31516">
        <ele>198</ele>
        <time>2019-08-09T15:41:34Z</time>
      </trkpt>
      <trkpt lat="48.11987" lon="7.31515">
        <ele>197.9</ele>
        <time>2019-08-09T15:41:35Z</time>
      </trkpt>
      <trkpt lat="48.11983" lon="7.31515">
        <ele>197.9</ele>
        <time>2019-08-09T15:41:36Z</time>
      </trkpt>
      <trkpt lat="48.1198" lon="7.31513">
        <ele>197.9</ele>
        <time>2019-08-09T15:41:37Z</time>
      </trkpt>
      <trkpt lat="48.11976" lon="7.31512">
        <ele>197.8</ele>
        <time>2019-08-09T15:41:38Z</time>
      </trkpt>
      <trkpt lat="48.11973" lon="7.3151">
        <ele>197.7</ele>
        <time>2019-08-09T15:41:39Z</time>
      </trkpt>
      <trkpt lat="48.11969" lon="7.3151">
        <ele>197.7</ele>
        <time>2019-08-09T15:41:40Z</time>
      </trkpt>
      <trkpt lat="48.11966" lon="7.31508">
        <ele>197.6</ele>
        <time>2019-08-09T15:41:41Z</time>
      </trkpt>
      <trkpt lat="48.11961" lon="7.3151">
        <ele>197.6</ele>
        <time>2019-08-09T15:41:42Z</time>
      </trkpt>
      <trkpt lat="48.11958" lon="7.31507">
        <ele>197.5</ele>
        <time>2019-08-09T15:41:43Z</time>
      </trkpt>
      <trkpt lat="48.11955" lon="7.31506">
        <ele>197.5</ele>
        <time>2019-08-09T15:41:44Z</time>
      </trkpt>
      <trkpt lat="48.1195" lon="7.31506">
        <ele>197.5</ele>
        <time>2019-08-09T15:41:45Z</time>
      </trkpt>
      <trkpt lat="48.11946" lon="7.31505">
        <ele>197.5</ele>
        <time>2019-08-09T15:41:46Z</time>
      </trkpt>
      <trkpt lat="48.11942" lon="7.31503">
        <ele>197.6</ele>
        <time>2019-08-09T15:41:47Z</time>
      </trkpt>
      <trkpt lat="48.11939" lon="7.31501">
        <ele>197.6</ele>
        <time>2019-08-09T15:41:48Z</time>
      </trkpt>
      <trkpt lat="48.11935" lon="7.31498">
        <ele>197.6</ele>
        <time>2019-08-09T15:41:49Z</time>
      </trkpt>
      <trkpt lat="48.11931" lon="7.31497">
        <ele>197.7</ele>
        <time>2019-08-09T15:41:50Z</time>
      </trkpt>
      <trkpt lat="48.11927" lon="7.31494">
        <ele>197.7</ele>
        <time>2019-08-09T15:41:51Z</time>
      </trkpt>
      <trkpt lat="48.11923" lon="7.31492">
        <ele>197.7</ele>
        <time>2019-08-09T15:41:52Z</time>
      </trkpt>
      <trkpt lat="48.1192" lon="7.3149">
        <ele>197.7</ele>
        <time>2019-08-09T15:41:53Z</time>
      </trkpt>
      <trkpt lat="48.11916" lon="7.31489">
        <ele>197.8</ele>
        <time>2019-08-09T15:41:54Z</time>
      </trkpt>
      <trkpt lat="48.11913" lon="7.31487">
        <ele>197.8</ele>
        <time>2019-08-09T15:41:55Z</time>
      </trkpt>
      <trkpt lat="48.1191" lon="7.31486">
        <ele>197.8</ele>
        <time>2019-08-09T15:41:56Z</time>
      </trkpt>
      <trkpt lat="48.11907" lon="7.31483">
        <ele>197.8</ele>
        <time>2019-08-09T15:41:57Z</time>
      </trkpt>
      <trkpt lat="48.11904" lon="7.31481">
        <ele>197.8</ele>
        <time>2019-08-09T15:41:58Z</time>
      </trkpt>
      <trkpt lat="48.11899" lon="7.31478">
        <ele>197.8</ele>
        <time>2019-08-09T15:41:59Z</time>
      </trkpt>
      <trkpt lat="48.11895" lon="7.31476">
        <ele>197.8</ele>
        <time>2019-08-09T15:42:00Z</time>
      </trkpt>
      <trkpt lat="48.11891" lon="7.31475">
        <ele>197.8</ele>
        <time>2019-08-09T15:42:01Z</time>
      </trkpt>
      <trkpt lat="48.11887" lon="7.31473">
        <ele>197.8</ele>
        <time>2019-08-09T15:42:02Z</time>
      </trkpt>
      <trkpt lat="48.11883" lon="7.3147">
        <ele>197.8</ele>
        <time>2019-08-09T15:42:03Z</time>
      </trkpt>
      <trkpt lat="48.11879" lon="7.31468">
        <ele>197.7</ele>
        <time>2019-08-09T15:42:04Z</time>
      </trkpt>
      <trkpt lat="48.11876" lon="7.31466">
        <ele>197.7</ele>
        <time>2019-08-09T15:42:05Z</time>
      </trkpt>
      <trkpt lat="48.11873" lon="7.31464">
        <ele>197.7</ele>
        <time>2019-08-09T15:42:06Z</time>
      </trkpt>
      <trkpt lat="48.11869" lon="7.31462">
        <ele>197.7</ele>
        <time>2019-08-09T15:42:07Z</time>
      </trkpt>
      <trkpt lat="48.11865" lon="7.31459">
        <ele>197.6</ele>
        <time>2019-08-09T15:42:08Z</time>
      </trkpt>
      <trkpt lat="48.11861" lon="7.31458">
        <ele>197.6</ele>
        <time>2019-08-09T15:42:09Z</time>
      </trkpt>
      <trkpt lat="48.11857" lon="7.31457">
        <ele>197.5</ele>
        <time>2019-08-09T15:42:10Z</time>
      </trkpt>
      <trkpt lat="48.11854" lon="7.31455">
        <ele>197.5</ele>
        <time>2019-08-09T15:42:11Z</time>
      </trkpt>
      <trkpt lat="48.1185" lon="7.31452">
        <ele>197.5</ele>
        <time>2019-08-09T15:42:12Z</time>
      </trkpt>
      <trkpt lat="48.11846" lon="7.3145">
        <ele>197.4</ele>
        <time>2019-08-09T15:42:13Z</time>
      </trkpt>
      <trkpt lat="48.11843" lon="7.31448">
        <ele>197.4</ele>
        <time>2019-08-09T15:42:14Z</time>
      </trkpt>
      <trkpt lat="48.11839" lon="7.31446">
        <ele>197.4</ele>
        <time>2019-08-09T15:42:15Z</time>
      </trkpt>
      <trkpt lat="48.11835" lon="7.31444">
        <ele>197.5</ele>
        <time>2019-08-09T15:42:16Z</time>
      </trkpt>
      <trkpt lat="48.11831" lon="7.31442">
        <ele>197.5</ele>
        <time>2019-08-09T15:42:17Z</time>
      </trkpt>
      <trkpt lat="48.11827" lon="7.3144">
        <ele>197.5</ele>
        <time>2019-08-09T15:42:18Z</time>
      </trkpt>
      <trkpt lat="48.11823" lon="7.31437">
        <ele>197.6</ele>
        <time>2019-08-09T15:42:19Z</time>
      </trkpt>
      <trkpt lat="48.11818" lon="7.31435">
        <ele>197.6</ele>
        <time>2019-08-09T15:42:20Z</time>
      </trkpt>
      <trkpt lat="48.11814" lon="7.31433">
        <ele>197.7</ele>
        <time>2019-08-09T15:42:21Z</time>
      </trkpt>
      <trkpt lat="48.1181" lon="7.3143">
        <ele>197.7</ele>
        <time>2019-08-09T15:42:22Z</time>
      </trkpt>
      <trkpt lat="48.11806" lon="7.31427">
        <ele>197.7</ele>
        <time>2019-08-09T15:42:23Z</time>
      </trkpt>
      <trkpt lat="48.11802" lon="7.31424">
        <ele>197.7</ele>
        <time>2019-08-09T15:42:24Z</time>
      </trkpt>
      <trkpt lat="48.11798" lon="7.31423">
        <ele>197.7</ele>
        <time>2019-08-09T15:42:25Z</time>
      </trkpt>
      <trkpt lat="48.11795" lon="7.31421">
        <ele>197.7</ele>
        <time>2019-08-09T15:42:26Z</time>
      </trkpt>
      <trkpt lat="48.11791" lon="7.31419">
        <ele>197.7</ele>
        <time>2019-08-09T15:42:27Z</time>
      </trkpt>
      <trkpt lat="48.11787" lon="7.31418">
        <ele>197.7</ele>
        <time>2019-08-09T15:42:28Z</time>
      </trkpt>
      <trkpt lat="48.11784" lon="7.31416">
        <ele>197.7</ele>
        <time>2019-08-09T15:42:29Z</time>
      </trkpt>
      <trkpt lat="48.11781" lon="7.31415">
        <ele>197.7</ele>
        <time>2019-08-09T15:42:30Z</time>
      </trkpt>
      <trkpt lat="48.11778" lon="7.31414">
        <ele>197.7</ele>
        <time>2019-08-09T15:42:31Z</time>
      </trkpt>
      <trkpt lat="48.11774" lon="7.31412">
        <ele>197.7</ele>
        <time>2019-08-09T15:42:32Z</time>
      </trkpt>
      <trkpt lat="48.1177" lon="7.31411">
        <ele>197.7</ele>
        <time>2019-08-09T15:42:33Z</time>
      </trkpt>
      <trkpt lat="48.11767" lon="7.31411">
        <ele>197.7</ele>
        <time>2019-08-09T15:42:34Z</time>
      </trkpt>
      <trkpt lat="48.11763" lon="7.3141">
        <ele>197.6</ele>
        <time>2019-08-09T15:42:35Z</time>
      </trkpt>
      <trkpt lat="48.11759" lon="7.31408">
        <ele>197.6</ele>
        <time>2019-08-09T15:42:36Z</time>
      </trkpt>
      <trkpt lat="48.11755" lon="7.31406">
        <ele>197.6</ele>
        <time>2019-08-09T15:42:37Z</time>
      </trkpt>
      <trkpt lat="48.11752" lon="7.31405">
        <ele>197.6</ele>
        <time>2019-08-09T15:42:38Z</time>
      </trkpt>
      <trkpt lat="48.11748" lon="7.31403">
        <ele>197.7</ele>
        <time>2019-08-09T15:42:39Z</time>
      </trkpt>
      <trkpt lat="48.11744" lon="7.31401">
        <ele>197.7</ele>
        <time>2019-08-09T15:42:40Z</time>
      </trkpt>
      <trkpt lat="48.1174" lon="7.314">
        <ele>197.8</ele>
        <time>2019-08-09T15:42:41Z</time>
      </trkpt>
      <trkpt lat="48.11736" lon="7.31399">
        <ele>197.8</ele>
        <time>2019-08-09T15:42:42Z</time>
      </trkpt>
      <trkpt lat="48.11732" lon="7.31397">
        <ele>197.9</ele>
        <time>2019-08-09T15:42:43Z</time>
      </trkpt>
      <trkpt lat="48.11729" lon="7.31395">
        <ele>197.9</ele>
        <time>2019-08-09T15:42:44Z</time>
      </trkpt>
      <trkpt lat="48.11725" lon="7.31393">
        <ele>198</ele>
        <time>2019-08-09T15:42:45Z</time>
      </trkpt>
      <trkpt lat="48.11721" lon="7.3139">
        <ele>198</ele>
        <time>2019-08-09T15:42:46Z</time>
      </trkpt>
      <trkpt lat="48.11717" lon="7.31387">
        <ele>198.1</ele>
        <time>2019-08-09T15:42:47Z</time>
      </trkpt>
      <trkpt lat="48.11714" lon="7.31385">
        <ele>198.1</ele>
        <time>2019-08-09T15:42:48Z</time>
      </trkpt>
      <trkpt lat="48.11709" lon="7.31381">
        <ele>198.1</ele>
        <time>2019-08-09T15:42:49Z</time>
      </trkpt>
      <trkpt lat="48.11707" lon="7.31379">
        <ele>198.2</ele>
        <time>2019-08-09T15:42:50Z</time>
      </trkpt>
      <trkpt lat="48.11703" lon="7.31376">
        <ele>198.2</ele>
        <time>2019-08-09T15:42:51Z</time>
      </trkpt>
      <trkpt lat="48.11699" lon="7.31374">
        <ele>198.2</ele>
        <time>2019-08-09T15:42:52Z</time>
      </trkpt>
      <trkpt lat="48.11695" lon="7.31372">
        <ele>198.2</ele>
        <time>2019-08-09T15:42:53Z</time>
      </trkpt>
      <trkpt lat="48.11691" lon="7.31371">
        <ele>198.2</ele>
        <time>2019-08-09T15:42:54Z</time>
      </trkpt>
      <trkpt lat="48.11688" lon="7.31368">
        <ele>198.2</ele>
        <time>2019-08-09T15:42:55Z</time>
      </trkpt>
      <trkpt lat="48.11685" lon="7.31366">
        <ele>198.1</ele>
        <time>2019-08-09T15:42:56Z</time>
      </trkpt>
      <trkpt lat="48.11681" lon="7.31363">
        <ele>198</ele>
        <time>2019-08-09T15:42:57Z</time>
      </trkpt>
      <trkpt lat="48.11677" lon="7.31362">
        <ele>198</ele>
        <time>2019-08-09T15:42:58Z</time>
      </trkpt>
      <trkpt lat="48.11675" lon="7.3136">
        <ele>197.9</ele>
        <time>2019-08-09T15:42:59Z</time>
      </trkpt>
      <trkpt lat="48.11671" lon="7.31358">
        <ele>197.8</ele>
        <time>2019-08-09T15:43:00Z</time>
      </trkpt>
      <trkpt lat="48.11667" lon="7.31355">
        <ele>197.7</ele>
        <time>2019-08-09T15:43:01Z</time>
      </trkpt>
      <trkpt lat="48.11664" lon="7.31351">
        <ele>197.7</ele>
        <time>2019-08-09T15:43:02Z</time>
      </trkpt>
      <trkpt lat="48.11661" lon="7.31348">
        <ele>197.6</ele>
        <time>2019-08-09T15:43:03Z</time>
      </trkpt>
      <trkpt lat="48.11657" lon="7.31346">
        <ele>197.5</ele>
        <time>2019-08-09T15:43:04Z</time>
      </trkpt>
      <trkpt lat="48.11653" lon="7.31344">
        <ele>197.5</ele>
        <time>2019-08-09T15:43:05Z</time>
      </trkpt>
      <trkpt lat="48.1165" lon="7.31341">
        <ele>197.4</ele>
        <time>2019-08-09T15:43:06Z</time>
      </trkpt>
      <trkpt lat="48.11646" lon="7.31337">
        <ele>197.4</ele>
        <time>2019-08-09T15:43:07Z</time>
      </trkpt>
      <trkpt lat="48.11642" lon="7.31334">
        <ele>197.3</ele>
        <time>2019-08-09T15:43:08Z</time>
      </trkpt>
      <trkpt lat="48.11638" lon="7.31331">
        <ele>197.3</ele>
        <time>2019-08-09T15:43:09Z</time>
      </trkpt>
      <trkpt lat="48.11635" lon="7.31328">
        <ele>197.3</ele>
        <time>2019-08-09T15:43:10Z</time>
      </trkpt>
      <trkpt lat="48.11631" lon="7.31326">
        <ele>197.4</ele>
        <time>2019-08-09T15:43:11Z</time>
      </trkpt>
      <trkpt lat="48.11625" lon="7.31321">
        <ele>197.4</ele>
        <time>2019-08-09T15:43:13Z</time>
      </trkpt>
      <trkpt lat="48.11621" lon="7.31319">
        <ele>197.5</ele>
        <time>2019-08-09T15:43:14Z</time>
      </trkpt>
      <trkpt lat="48.11617" lon="7.31317">
        <ele>197.5</ele>
        <time>2019-08-09T15:43:15Z</time>
      </trkpt>
      <trkpt lat="48.11613" lon="7.31314">
        <ele>197.5</ele>
        <time>2019-08-09T15:43:16Z</time>
      </trkpt>
      <trkpt lat="48.11611" lon="7.31311">
        <ele>197.5</ele>
        <time>2019-08-09T15:43:17Z</time>
      </trkpt>
      <trkpt lat="48.11608" lon="7.31309">
        <ele>197.4</ele>
        <time>2019-08-09T15:43:18Z</time>
      </trkpt>
      <trkpt lat="48.11604" lon="7.31308">
        <ele>197.4</ele>
        <time>2019-08-09T15:43:19Z</time>
      </trkpt>
      <trkpt lat="48.116" lon="7.31306">
        <ele>197.3</ele>
        <time>2019-08-09T15:43:20Z</time>
      </trkpt>
      <trkpt lat="48.11596" lon="7.31305">
        <ele>197.3</ele>
        <time>2019-08-09T15:43:21Z</time>
      </trkpt>
      <trkpt lat="48.11592" lon="7.31302">
        <ele>197.3</ele>
        <time>2019-08-09T15:43:22Z</time>
      </trkpt>
      <trkpt lat="48.11587" lon="7.31301">
        <ele>197.3</ele>
        <time>2019-08-09T15:43:23Z</time>
      </trkpt>
      <trkpt lat="48.11582" lon="7.31299">
        <ele>197.3</ele>
        <time>2019-08-09T15:43:24Z</time>
      </trkpt>
      <trkpt lat="48.11578" lon="7.31299">
        <ele>197.3</ele>
        <time>2019-08-09T15:43:25Z</time>
      </trkpt>
      <trkpt lat="48.11573" lon="7.31296">
        <ele>197.3</ele>
        <time>2019-08-09T15:43:26Z</time>
      </trkpt>
      <trkpt lat="48.1157" lon="7.31293">
        <ele>197.3</ele>
        <time>2019-08-09T15:43:27Z</time>
      </trkpt>
      <trkpt lat="48.11566" lon="7.31291">
        <ele>197.3</ele>
        <time>2019-08-09T15:43:28Z</time>
      </trkpt>
      <trkpt lat="48.11562" lon="7.31289">
        <ele>197.3</ele>
        <time>2019-08-09T15:43:29Z</time>
      </trkpt>
      <trkpt lat="48.11558" lon="7.31286">
        <ele>197.3</ele>
        <time>2019-08-09T15:43:30Z</time>
      </trkpt>
      <trkpt lat="48.11554" lon="7.31284">
        <ele>197.3</ele>
        <time>2019-08-09T15:43:31Z</time>
      </trkpt>
      <trkpt lat="48.1155" lon="7.31281">
        <ele>197.3</ele>
        <time>2019-08-09T15:43:32Z</time>
      </trkpt>
      <trkpt lat="48.11546" lon="7.31279">
        <ele>197.3</ele>
        <time>2019-08-09T15:43:33Z</time>
      </trkpt>
      <trkpt lat="48.11543" lon="7.31278">
        <ele>197.4</ele>
        <time>2019-08-09T15:43:34Z</time>
      </trkpt>
      <trkpt lat="48.11539" lon="7.31275">
        <ele>197.4</ele>
        <time>2019-08-09T15:43:35Z</time>
      </trkpt>
      <trkpt lat="48.11536" lon="7.31273">
        <ele>197.4</ele>
        <time>2019-08-09T15:43:36Z</time>
      </trkpt>
      <trkpt lat="48.11533" lon="7.31271">
        <ele>197.4</ele>
        <time>2019-08-09T15:43:37Z</time>
      </trkpt>
      <trkpt lat="48.11529" lon="7.31269">
        <ele>197.4</ele>
        <time>2019-08-09T15:43:38Z</time>
      </trkpt>
      <trkpt lat="48.11525" lon="7.31266">
        <ele>197.4</ele>
        <time>2019-08-09T15:43:39Z</time>
      </trkpt>
      <trkpt lat="48.11521" lon="7.31264">
        <ele>197.5</ele>
        <time>2019-08-09T15:43:40Z</time>
      </trkpt>
      <trkpt lat="48.11517" lon="7.31262">
        <ele>197.5</ele>
        <time>2019-08-09T15:43:41Z</time>
      </trkpt>
      <trkpt lat="48.11513" lon="7.3126">
        <ele>197.5</ele>
        <time>2019-08-09T15:43:42Z</time>
      </trkpt>
      <trkpt lat="48.11509" lon="7.31258">
        <ele>197.6</ele>
        <time>2019-08-09T15:43:43Z</time>
      </trkpt>
      <trkpt lat="48.11505" lon="7.31257">
        <ele>197.6</ele>
        <time>2019-08-09T15:43:44Z</time>
      </trkpt>
      <trkpt lat="48.11501" lon="7.31256">
        <ele>197.6</ele>
        <time>2019-08-09T15:43:45Z</time>
      </trkpt>
      <trkpt lat="48.11495" lon="7.31254">
        <ele>197.7</ele>
        <time>2019-08-09T15:43:47Z</time>
      </trkpt>
      <trkpt lat="48.11491" lon="7.31252">
        <ele>197.7</ele>
        <time>2019-08-09T15:43:48Z</time>
      </trkpt>
      <trkpt lat="48.11488" lon="7.3125">
        <ele>197.8</ele>
        <time>2019-08-09T15:43:49Z</time>
      </trkpt>
      <trkpt lat="48.11484" lon="7.31247">
        <ele>197.8</ele>
        <time>2019-08-09T15:43:50Z</time>
      </trkpt>
      <trkpt lat="48.1148" lon="7.31245">
        <ele>197.8</ele>
        <time>2019-08-09T15:43:51Z</time>
      </trkpt>
      <trkpt lat="48.11476" lon="7.31243">
        <ele>197.9</ele>
        <time>2019-08-09T15:43:52Z</time>
      </trkpt>
      <trkpt lat="48.11473" lon="7.31241">
        <ele>197.9</ele>
        <time>2019-08-09T15:43:53Z</time>
      </trkpt>
      <trkpt lat="48.1147" lon="7.31239">
        <ele>198</ele>
        <time>2019-08-09T15:43:54Z</time>
      </trkpt>
      <trkpt lat="48.11465" lon="7.31235">
        <ele>198</ele>
        <time>2019-08-09T15:43:55Z</time>
      </trkpt>
      <trkpt lat="48.11461" lon="7.31232">
        <ele>198.1</ele>
        <time>2019-08-09T15:43:56Z</time>
      </trkpt>
      <trkpt lat="48.11457" lon="7.31228">
        <ele>198.1</ele>
        <time>2019-08-09T15:43:57Z</time>
      </trkpt>
      <trkpt lat="48.11453" lon="7.31227">
        <ele>198.2</ele>
        <time>2019-08-09T15:43:58Z</time>
      </trkpt>
      <trkpt lat="48.11448" lon="7.31225">
        <ele>198.3</ele>
        <time>2019-08-09T15:43:59Z</time>
      </trkpt>
      <trkpt lat="48.11444" lon="7.31225">
        <ele>198.3</ele>
        <time>2019-08-09T15:44:00Z</time>
      </trkpt>
      <trkpt lat="48.1144" lon="7.31223">
        <ele>198.4</ele>
        <time>2019-08-09T15:44:01Z</time>
      </trkpt>
      <trkpt lat="48.11436" lon="7.3122">
        <ele>198.6</ele>
        <time>2019-08-09T15:44:02Z</time>
      </trkpt>
      <trkpt lat="48.11433" lon="7.31219">
        <ele>198.6</ele>
        <time>2019-08-09T15:44:03Z</time>
      </trkpt>
      <trkpt lat="48.11428" lon="7.31218">
        <ele>198.7</ele>
        <time>2019-08-09T15:44:04Z</time>
      </trkpt>
      <trkpt lat="48.11425" lon="7.31216">
        <ele>198.8</ele>
        <time>2019-08-09T15:44:05Z</time>
      </trkpt>
      <trkpt lat="48.11421" lon="7.31215">
        <ele>198.9</ele>
        <time>2019-08-09T15:44:06Z</time>
      </trkpt>
      <trkpt lat="48.11418" lon="7.31213">
        <ele>198.9</ele>
        <time>2019-08-09T15:44:07Z</time>
      </trkpt>
      <trkpt lat="48.11415" lon="7.3121">
        <ele>199</ele>
        <time>2019-08-09T15:44:08Z</time>
      </trkpt>
      <trkpt lat="48.11411" lon="7.31207">
        <ele>199</ele>
        <time>2019-08-09T15:44:09Z</time>
      </trkpt>
      <trkpt lat="48.11408" lon="7.31205">
        <ele>199.1</ele>
        <time>2019-08-09T15:44:10Z</time>
      </trkpt>
      <trkpt lat="48.11404" lon="7.31203">
        <ele>199.1</ele>
        <time>2019-08-09T15:44:11Z</time>
      </trkpt>
      <trkpt lat="48.11401" lon="7.312">
        <ele>199.2</ele>
        <time>2019-08-09T15:44:12Z</time>
      </trkpt>
      <trkpt lat="48.11397" lon="7.31198">
        <ele>199.2</ele>
        <time>2019-08-09T15:44:13Z</time>
      </trkpt>
      <trkpt lat="48.11395" lon="7.31197">
        <ele>199.3</ele>
        <time>2019-08-09T15:44:14Z</time>
      </trkpt>
      <trkpt lat="48.1139" lon="7.31197">
        <ele>199.3</ele>
        <time>2019-08-09T15:44:15Z</time>
      </trkpt>
      <trkpt lat="48.11386" lon="7.31195">
        <ele>199.4</ele>
        <time>2019-08-09T15:44:16Z</time>
      </trkpt>
      <trkpt lat="48.11383" lon="7.31192">
        <ele>199.4</ele>
        <time>2019-08-09T15:44:17Z</time>
      </trkpt>
      <trkpt lat="48.1138" lon="7.3119">
        <ele>199.5</ele>
        <time>2019-08-09T15:44:18Z</time>
      </trkpt>
      <trkpt lat="48.11376" lon="7.31188">
        <ele>199.5</ele>
        <time>2019-08-09T15:44:19Z</time>
      </trkpt>
      <trkpt lat="48.11373" lon="7.31186">
        <ele>199.6</ele>
        <time>2019-08-09T15:44:20Z</time>
      </trkpt>
      <trkpt lat="48.1137" lon="7.31184">
        <ele>199.6</ele>
        <time>2019-08-09T15:44:21Z</time>
      </trkpt>
      <trkpt lat="48.11365" lon="7.3118">
        <ele>199.6</ele>
        <time>2019-08-09T15:44:23Z</time>
      </trkpt>
      <trkpt lat="48.11361" lon="7.3118">
        <ele>199.7</ele>
        <time>2019-08-09T15:44:24Z</time>
      </trkpt>
      <trkpt lat="48.11358" lon="7.31176">
        <ele>199.7</ele>
        <time>2019-08-09T15:44:25Z</time>
      </trkpt>
      <trkpt lat="48.11354" lon="7.31174">
        <ele>199.7</ele>
        <time>2019-08-09T15:44:26Z</time>
      </trkpt>
      <trkpt lat="48.1135" lon="7.31172">
        <ele>199.7</ele>
        <time>2019-08-09T15:44:27Z</time>
      </trkpt>
      <trkpt lat="48.11345" lon="7.31171">
        <ele>199.8</ele>
        <time>2019-08-09T15:44:28Z</time>
      </trkpt>
      <trkpt lat="48.1134" lon="7.31171">
        <ele>199.8</ele>
        <time>2019-08-09T15:44:29Z</time>
      </trkpt>
      <trkpt lat="48.11336" lon="7.3117">
        <ele>199.9</ele>
        <time>2019-08-09T15:44:30Z</time>
      </trkpt>
      <trkpt lat="48.11332" lon="7.31169">
        <ele>199.9</ele>
        <time>2019-08-09T15:44:31Z</time>
      </trkpt>
      <trkpt lat="48.11328" lon="7.31169">
        <ele>199.9</ele>
        <time>2019-08-09T15:44:32Z</time>
      </trkpt>
      <trkpt lat="48.11323" lon="7.31169">
        <ele>199.9</ele>
        <time>2019-08-09T15:44:33Z</time>
      </trkpt>
      <trkpt lat="48.11317" lon="7.31168">
        <ele>199.9</ele>
        <time>2019-08-09T15:44:34Z</time>
      </trkpt>
      <trkpt lat="48.11313" lon="7.31167">
        <ele>199.9</ele>
        <time>2019-08-09T15:44:35Z</time>
      </trkpt>
      <trkpt lat="48.11308" lon="7.31166">
        <ele>199.9</ele>
        <time>2019-08-09T15:44:36Z</time>
      </trkpt>
      <trkpt lat="48.11304" lon="7.31166">
        <ele>199.9</ele>
        <time>2019-08-09T15:44:37Z</time>
      </trkpt>
      <trkpt lat="48.113" lon="7.31164">
        <ele>199.9</ele>
        <time>2019-08-09T15:44:38Z</time>
      </trkpt>
      <trkpt lat="48.11295" lon="7.31162">
        <ele>199.9</ele>
        <time>2019-08-09T15:44:39Z</time>
      </trkpt>
      <trkpt lat="48.11291" lon="7.31161">
        <ele>199.9</ele>
        <time>2019-08-09T15:44:40Z</time>
      </trkpt>
      <trkpt lat="48.11287" lon="7.3116">
        <ele>199.9</ele>
        <time>2019-08-09T15:44:41Z</time>
      </trkpt>
      <trkpt lat="48.11283" lon="7.31159">
        <ele>199.9</ele>
        <time>2019-08-09T15:44:42Z</time>
      </trkpt>
      <trkpt lat="48.11279" lon="7.31158">
        <ele>199.9</ele>
        <time>2019-08-09T15:44:43Z</time>
      </trkpt>
      <trkpt lat="48.11275" lon="7.31158">
        <ele>199.9</ele>
        <time>2019-08-09T15:44:44Z</time>
      </trkpt>
      <trkpt lat="48.11271" lon="7.31158">
        <ele>199.9</ele>
        <time>2019-08-09T15:44:45Z</time>
      </trkpt>
      <trkpt lat="48.11267" lon="7.31157">
        <ele>199.9</ele>
        <time>2019-08-09T15:44:46Z</time>
      </trkpt>
      <trkpt lat="48.11264" lon="7.31156">
        <ele>199.9</ele>
        <time>2019-08-09T15:44:47Z</time>
      </trkpt>
      <trkpt lat="48.11261" lon="7.31155">
        <ele>200</ele>
        <time>2019-08-09T15:44:48Z</time>
      </trkpt>
      <trkpt lat="48.11257" lon="7.31154">
        <ele>200</ele>
        <time>2019-08-09T15:44:49Z</time>
      </trkpt>
      <trkpt lat="48.11253" lon="7.31154">
        <ele>200</ele>
        <time>2019-08-09T15:44:50Z</time>
      </trkpt>
      <trkpt lat="48.11249" lon="7.31154">
        <ele>200</ele>
        <time>2019-08-09T15:44:51Z</time>
      </trkpt>
      <trkpt lat="48.11244" lon="7.31153">
        <ele>200</ele>
        <time>2019-08-09T15:44:52Z</time>
      </trkpt>
      <trkpt lat="48.1124" lon="7.31152">
        <ele>200</ele>
        <time>2019-08-09T15:44:53Z</time>
      </trkpt>
      <trkpt lat="48.11235" lon="7.31151">
        <ele>200</ele>
        <time>2019-08-09T15:44:54Z</time>
      </trkpt>
      <trkpt lat="48.1123" lon="7.3115">
        <ele>199.9</ele>
        <time>2019-08-09T15:44:55Z</time>
      </trkpt>
      <trkpt lat="48.11226" lon="7.31148">
        <ele>199.9</ele>
        <time>2019-08-09T15:44:56Z</time>
      </trkpt>
      <trkpt lat="48.11221" lon="7.31148">
        <ele>199.9</ele>
        <time>2019-08-09T15:44:57Z</time>
      </trkpt>
      <trkpt lat="48.11217" lon="7.31147">
        <ele>199.8</ele>
        <time>2019-08-09T15:44:58Z</time>
      </trkpt>
      <trkpt lat="48.11212" lon="7.31146">
        <ele>199.8</ele>
        <time>2019-08-09T15:44:59Z</time>
      </trkpt>
      <trkpt lat="48.11208" lon="7.31146">
        <ele>199.8</ele>
        <time>2019-08-09T15:45:00Z</time>
      </trkpt>
      <trkpt lat="48.11204" lon="7.31145">
        <ele>199.7</ele>
        <time>2019-08-09T15:45:01Z</time>
      </trkpt>
      <trkpt lat="48.11199" lon="7.31144">
        <ele>199.7</ele>
        <time>2019-08-09T15:45:02Z</time>
      </trkpt>
      <trkpt lat="48.11196" lon="7.31142">
        <ele>199.7</ele>
        <time>2019-08-09T15:45:03Z</time>
      </trkpt>
      <trkpt lat="48.11191" lon="7.31141">
        <ele>199.7</ele>
        <time>2019-08-09T15:45:04Z</time>
      </trkpt>
      <trkpt lat="48.11187" lon="7.3114">
        <ele>199.7</ele>
        <time>2019-08-09T15:45:05Z</time>
      </trkpt>
      <trkpt lat="48.11183" lon="7.31139">
        <ele>199.7</ele>
        <time>2019-08-09T15:45:06Z</time>
      </trkpt>
      <trkpt lat="48.11179" lon="7.31138">
        <ele>199.7</ele>
        <time>2019-08-09T15:45:07Z</time>
      </trkpt>
      <trkpt lat="48.11175" lon="7.31137">
        <ele>199.7</ele>
        <time>2019-08-09T15:45:08Z</time>
      </trkpt>
      <trkpt lat="48.1117" lon="7.31135">
        <ele>199.7</ele>
        <time>2019-08-09T15:45:09Z</time>
      </trkpt>
      <trkpt lat="48.11166" lon="7.31134">
        <ele>199.7</ele>
        <time>2019-08-09T15:45:10Z</time>
      </trkpt>
      <trkpt lat="48.11162" lon="7.31131">
        <ele>199.7</ele>
        <time>2019-08-09T15:45:11Z</time>
      </trkpt>
      <trkpt lat="48.11159" lon="7.3113">
        <ele>199.8</ele>
        <time>2019-08-09T15:45:12Z</time>
      </trkpt>
      <trkpt lat="48.11155" lon="7.31129">
        <ele>199.8</ele>
        <time>2019-08-09T15:45:13Z</time>
      </trkpt>
      <trkpt lat="48.11151" lon="7.31128">
        <ele>199.8</ele>
        <time>2019-08-09T15:45:14Z</time>
      </trkpt>
      <trkpt lat="48.11147" lon="7.31126">
        <ele>199.9</ele>
        <time>2019-08-09T15:45:15Z</time>
      </trkpt>
      <trkpt lat="48.11143" lon="7.31125">
        <ele>199.9</ele>
        <time>2019-08-09T15:45:16Z</time>
      </trkpt>
      <trkpt lat="48.11139" lon="7.31124">
        <ele>200</ele>
        <time>2019-08-09T15:45:17Z</time>
      </trkpt>
      <trkpt lat="48.11133" lon="7.31122">
        <ele>200.1</ele>
        <time>2019-08-09T15:45:18Z</time>
      </trkpt>
      <trkpt lat="48.11129" lon="7.31122">
        <ele>200.1</ele>
        <time>2019-08-09T15:45:19Z</time>
      </trkpt>
      <trkpt lat="48.11123" lon="7.31119">
        <ele>200.2</ele>
        <time>2019-08-09T15:45:20Z</time>
      </trkpt>
      <trkpt lat="48.11119" lon="7.31118">
        <ele>200.3</ele>
        <time>2019-08-09T15:45:21Z</time>
      </trkpt>
      <trkpt lat="48.11114" lon="7.31116">
        <ele>200.4</ele>
        <time>2019-08-09T15:45:22Z</time>
      </trkpt>
      <trkpt lat="48.11111" lon="7.31114">
        <ele>200.4</ele>
        <time>2019-08-09T15:45:23Z</time>
      </trkpt>
      <trkpt lat="48.11107" lon="7.31113">
        <ele>200.5</ele>
        <time>2019-08-09T15:45:24Z</time>
      </trkpt>
      <trkpt lat="48.11102" lon="7.31111">
        <ele>200.6</ele>
        <time>2019-08-09T15:45:25Z</time>
      </trkpt>
      <trkpt lat="48.11097" lon="7.3111">
        <ele>200.7</ele>
        <time>2019-08-09T15:45:26Z</time>
      </trkpt>
      <trkpt lat="48.11093" lon="7.31109">
        <ele>200.7</ele>
        <time>2019-08-09T15:45:27Z</time>
      </trkpt>
      <trkpt lat="48.11089" lon="7.3111">
        <ele>200.8</ele>
        <time>2019-08-09T15:45:28Z</time>
      </trkpt>
      <trkpt lat="48.11085" lon="7.31108">
        <ele>200.9</ele>
        <time>2019-08-09T15:45:29Z</time>
      </trkpt>
      <trkpt lat="48.11081" lon="7.31107">
        <ele>200.9</ele>
        <time>2019-08-09T15:45:30Z</time>
      </trkpt>
      <trkpt lat="48.11077" lon="7.31105">
        <ele>201</ele>
        <time>2019-08-09T15:45:31Z</time>
      </trkpt>
      <trkpt lat="48.11073" lon="7.31103">
        <ele>201.1</ele>
        <time>2019-08-09T15:45:32Z</time>
      </trkpt>
      <trkpt lat="48.1107" lon="7.31101">
        <ele>201.1</ele>
        <time>2019-08-09T15:45:33Z</time>
      </trkpt>
      <trkpt lat="48.11067" lon="7.31099">
        <ele>201.1</ele>
        <time>2019-08-09T15:45:34Z</time>
      </trkpt>
      <trkpt lat="48.11064" lon="7.31098">
        <ele>201.2</ele>
        <time>2019-08-09T15:45:35Z</time>
      </trkpt>
      <trkpt lat="48.11061" lon="7.31095">
        <ele>201.3</ele>
        <time>2019-08-09T15:45:36Z</time>
      </trkpt>
      <trkpt lat="48.11057" lon="7.31091">
        <ele>201.4</ele>
        <time>2019-08-09T15:45:37Z</time>
      </trkpt>
      <trkpt lat="48.11054" lon="7.31088">
        <ele>201.5</ele>
        <time>2019-08-09T15:45:38Z</time>
      </trkpt>
      <trkpt lat="48.1105" lon="7.31086">
        <ele>201.6</ele>
        <time>2019-08-09T15:45:39Z</time>
      </trkpt>
      <trkpt lat="48.11046" lon="7.31082">
        <ele>201.7</ele>
        <time>2019-08-09T15:45:40Z</time>
      </trkpt>
      <trkpt lat="48.11043" lon="7.31079">
        <ele>201.8</ele>
        <time>2019-08-09T15:45:41Z</time>
      </trkpt>
      <trkpt lat="48.1104" lon="7.31075">
        <ele>202</ele>
        <time>2019-08-09T15:45:42Z</time>
      </trkpt>
      <trkpt lat="48.11035" lon="7.31071">
        <ele>202.1</ele>
        <time>2019-08-09T15:45:43Z</time>
      </trkpt>
      <trkpt lat="48.11031" lon="7.31067">
        <ele>202.2</ele>
        <time>2019-08-09T15:45:44Z</time>
      </trkpt>
      <trkpt lat="48.11025" lon="7.31066">
        <ele>202.3</ele>
        <time>2019-08-09T15:45:45Z</time>
      </trkpt>
      <trkpt lat="48.1102" lon="7.31063">
        <ele>202.4</ele>
        <time>2019-08-09T15:45:46Z</time>
      </trkpt>
      <trkpt lat="48.11016" lon="7.31059">
        <ele>202.5</ele>
        <time>2019-08-09T15:45:47Z</time>
      </trkpt>
      <trkpt lat="48.11011" lon="7.31056">
        <ele>202.6</ele>
        <time>2019-08-09T15:45:48Z</time>
      </trkpt>
      <trkpt lat="48.11005" lon="7.31052">
        <ele>202.7</ele>
        <time>2019-08-09T15:45:49Z</time>
      </trkpt>
      <trkpt lat="48.11" lon="7.31049">
        <ele>202.7</ele>
        <time>2019-08-09T15:45:50Z</time>
      </trkpt>
      <trkpt lat="48.10996" lon="7.31047">
        <ele>202.8</ele>
        <time>2019-08-09T15:45:51Z</time>
      </trkpt>
      <trkpt lat="48.1099" lon="7.31043">
        <ele>202.8</ele>
        <time>2019-08-09T15:45:52Z</time>
      </trkpt>
      <trkpt lat="48.10984" lon="7.31041">
        <ele>202.9</ele>
        <time>2019-08-09T15:45:53Z</time>
      </trkpt>
      <trkpt lat="48.10979" lon="7.31038">
        <ele>202.9</ele>
        <time>2019-08-09T15:45:54Z</time>
      </trkpt>
      <trkpt lat="48.10974" lon="7.31035">
        <ele>202.8</ele>
        <time>2019-08-09T15:45:55Z</time>
      </trkpt>
      <trkpt lat="48.10969" lon="7.31032">
        <ele>202.8</ele>
        <time>2019-08-09T15:45:56Z</time>
      </trkpt>
      <trkpt lat="48.10964" lon="7.31028">
        <ele>202.8</ele>
        <time>2019-08-09T15:45:57Z</time>
      </trkpt>
      <trkpt lat="48.1096" lon="7.31025">
        <ele>202.8</ele>
        <time>2019-08-09T15:45:58Z</time>
      </trkpt>
      <trkpt lat="48.10957" lon="7.31021">
        <ele>202.8</ele>
        <time>2019-08-09T15:45:59Z</time>
      </trkpt>
      <trkpt lat="48.10953" lon="7.31018">
        <ele>202.8</ele>
        <time>2019-08-09T15:46:00Z</time>
      </trkpt>
      <trkpt lat="48.10949" lon="7.31015">
        <ele>202.7</ele>
        <time>2019-08-09T15:46:01Z</time>
      </trkpt>
      <trkpt lat="48.10945" lon="7.31012">
        <ele>202.7</ele>
        <time>2019-08-09T15:46:02Z</time>
      </trkpt>
      <trkpt lat="48.1094" lon="7.31009">
        <ele>202.6</ele>
        <time>2019-08-09T15:46:03Z</time>
      </trkpt>
      <trkpt lat="48.10935" lon="7.31006">
        <ele>202.5</ele>
        <time>2019-08-09T15:46:04Z</time>
      </trkpt>
      <trkpt lat="48.1093" lon="7.31003">
        <ele>202.5</ele>
        <time>2019-08-09T15:46:05Z</time>
      </trkpt>
      <trkpt lat="48.10926" lon="7.31">
        <ele>202.5</ele>
        <time>2019-08-09T15:46:06Z</time>
      </trkpt>
      <trkpt lat="48.10922" lon="7.30997">
        <ele>202.5</ele>
        <time>2019-08-09T15:46:07Z</time>
      </trkpt>
      <trkpt lat="48.10918" lon="7.30995">
        <ele>202.5</ele>
        <time>2019-08-09T15:46:08Z</time>
      </trkpt>
      <trkpt lat="48.10914" lon="7.30991">
        <ele>202.4</ele>
        <time>2019-08-09T15:46:09Z</time>
      </trkpt>
      <trkpt lat="48.1091" lon="7.30987">
        <ele>202.5</ele>
        <time>2019-08-09T15:46:10Z</time>
      </trkpt>
      <trkpt lat="48.10905" lon="7.30983">
        <ele>202.5</ele>
        <time>2019-08-09T15:46:11Z</time>
      </trkpt>
      <trkpt lat="48.10899" lon="7.3098">
        <ele>202.5</ele>
        <time>2019-08-09T15:46:12Z</time>
      </trkpt>
      <trkpt lat="48.10894" lon="7.30976">
        <ele>202.5</ele>
        <time>2019-08-09T15:46:13Z</time>
      </trkpt>
      <trkpt lat="48.1089" lon="7.30972">
        <ele>202.6</ele>
        <time>2019-08-09T15:46:14Z</time>
      </trkpt>
      <trkpt lat="48.10886" lon="7.30969">
        <ele>202.6</ele>
        <time>2019-08-09T15:46:15Z</time>
      </trkpt>
      <trkpt lat="48.10882" lon="7.30966">
        <ele>202.6</ele>
        <time>2019-08-09T15:46:16Z</time>
      </trkpt>
      <trkpt lat="48.10877" lon="7.30963">
        <ele>202.7</ele>
        <time>2019-08-09T15:46:17Z</time>
      </trkpt>
      <trkpt lat="48.10874" lon="7.30959">
        <ele>202.7</ele>
        <time>2019-08-09T15:46:18Z</time>
      </trkpt>
      <trkpt lat="48.10869" lon="7.30956">
        <ele>202.7</ele>
        <time>2019-08-09T15:46:19Z</time>
      </trkpt>
      <trkpt lat="48.10864" lon="7.30953">
        <ele>202.8</ele>
        <time>2019-08-09T15:46:20Z</time>
      </trkpt>
      <trkpt lat="48.1086" lon="7.30949">
        <ele>202.8</ele>
        <time>2019-08-09T15:46:21Z</time>
      </trkpt>
      <trkpt lat="48.10855" lon="7.30947">
        <ele>202.8</ele>
        <time>2019-08-09T15:46:22Z</time>
      </trkpt>
      <trkpt lat="48.10851" lon="7.30944">
        <ele>202.8</ele>
        <time>2019-08-09T15:46:23Z</time>
      </trkpt>
      <trkpt lat="48.10847" lon="7.30942">
        <ele>202.7</ele>
        <time>2019-08-09T15:46:24Z</time>
      </trkpt>
      <trkpt lat="48.10842" lon="7.30939">
        <ele>202.7</ele>
        <time>2019-08-09T15:46:25Z</time>
      </trkpt>
      <trkpt lat="48.10838" lon="7.30935">
        <ele>202.7</ele>
        <time>2019-08-09T15:46:26Z</time>
      </trkpt>
      <trkpt lat="48.10833" lon="7.30932">
        <ele>202.7</ele>
        <time>2019-08-09T15:46:27Z</time>
      </trkpt>
      <trkpt lat="48.10829" lon="7.30929">
        <ele>202.6</ele>
        <time>2019-08-09T15:46:28Z</time>
      </trkpt>
      <trkpt lat="48.10825" lon="7.30924">
        <ele>202.6</ele>
        <time>2019-08-09T15:46:29Z</time>
      </trkpt>
      <trkpt lat="48.10821" lon="7.3092">
        <ele>202.6</ele>
        <time>2019-08-09T15:46:30Z</time>
      </trkpt>
      <trkpt lat="48.10817" lon="7.30917">
        <ele>202.6</ele>
        <time>2019-08-09T15:46:31Z</time>
      </trkpt>
      <trkpt lat="48.10813" lon="7.30913">
        <ele>202.6</ele>
        <time>2019-08-09T15:46:32Z</time>
      </trkpt>
      <trkpt lat="48.10809" lon="7.3091">
        <ele>202.7</ele>
        <time>2019-08-09T15:46:33Z</time>
      </trkpt>
      <trkpt lat="48.10805" lon="7.30907">
        <ele>202.7</ele>
        <time>2019-08-09T15:46:34Z</time>
      </trkpt>
      <trkpt lat="48.10801" lon="7.30904">
        <ele>202.8</ele>
        <time>2019-08-09T15:46:35Z</time>
      </trkpt>
      <trkpt lat="48.10797" lon="7.30902">
        <ele>202.8</ele>
        <time>2019-08-09T15:46:36Z</time>
      </trkpt>
      <trkpt lat="48.10792" lon="7.30899">
        <ele>202.8</ele>
        <time>2019-08-09T15:46:37Z</time>
      </trkpt>
      <trkpt lat="48.10787" lon="7.30895">
        <ele>202.9</ele>
        <time>2019-08-09T15:46:38Z</time>
      </trkpt>
      <trkpt lat="48.10784" lon="7.30893">
        <ele>202.9</ele>
        <time>2019-08-09T15:46:39Z</time>
      </trkpt>
      <trkpt lat="48.1078" lon="7.3089">
        <ele>202.9</ele>
        <time>2019-08-09T15:46:40Z</time>
      </trkpt>
      <trkpt lat="48.10777" lon="7.30887">
        <ele>202.9</ele>
        <time>2019-08-09T15:46:41Z</time>
      </trkpt>
      <trkpt lat="48.10773" lon="7.30885">
        <ele>203</ele>
        <time>2019-08-09T15:46:42Z</time>
      </trkpt>
      <trkpt lat="48.1077" lon="7.30881">
        <ele>203</ele>
        <time>2019-08-09T15:46:43Z</time>
      </trkpt>
      <trkpt lat="48.10766" lon="7.30878">
        <ele>203</ele>
        <time>2019-08-09T15:46:44Z</time>
      </trkpt>
      <trkpt lat="48.10762" lon="7.30876">
        <ele>203</ele>
        <time>2019-08-09T15:46:45Z</time>
      </trkpt>
      <trkpt lat="48.10759" lon="7.30873">
        <ele>203.1</ele>
        <time>2019-08-09T15:46:46Z</time>
      </trkpt>
      <trkpt lat="48.10756" lon="7.30871">
        <ele>203.1</ele>
        <time>2019-08-09T15:46:47Z</time>
      </trkpt>
      <trkpt lat="48.10752" lon="7.3087">
        <ele>203.1</ele>
        <time>2019-08-09T15:46:48Z</time>
      </trkpt>
      <trkpt lat="48.10748" lon="7.30866">
        <ele>203.2</ele>
        <time>2019-08-09T15:46:50Z</time>
      </trkpt>
      <trkpt lat="48.10744" lon="7.30862">
        <ele>203.2</ele>
        <time>2019-08-09T15:46:52Z</time>
      </trkpt>
      <trkpt lat="48.10741" lon="7.3086">
        <ele>203.2</ele>
        <time>2019-08-09T15:46:53Z</time>
      </trkpt>
      <trkpt lat="48.10738" lon="7.30859">
        <ele>203.2</ele>
        <time>2019-08-09T15:46:54Z</time>
      </trkpt>
      <trkpt lat="48.10735" lon="7.30858">
        <ele>203.2</ele>
        <time>2019-08-09T15:46:55Z</time>
      </trkpt>
      <trkpt lat="48.10731" lon="7.30856">
        <ele>203.3</ele>
        <time>2019-08-09T15:46:56Z</time>
      </trkpt>
      <trkpt lat="48.10727" lon="7.30853">
        <ele>203.3</ele>
        <time>2019-08-09T15:46:57Z</time>
      </trkpt>
      <trkpt lat="48.10724" lon="7.30852">
        <ele>203.3</ele>
        <time>2019-08-09T15:46:58Z</time>
      </trkpt>
      <trkpt lat="48.10721" lon="7.3085">
        <ele>203.4</ele>
        <time>2019-08-09T15:46:59Z</time>
      </trkpt>
      <trkpt lat="48.10716" lon="7.30848">
        <ele>203.4</ele>
        <time>2019-08-09T15:47:01Z</time>
      </trkpt>
      <trkpt lat="48.10713" lon="7.30847">
        <ele>203.4</ele>
        <time>2019-08-09T15:47:02Z</time>
      </trkpt>
      <trkpt lat="48.10709" lon="7.30847">
        <ele>203.5</ele>
        <time>2019-08-09T15:47:03Z</time>
      </trkpt>
      <trkpt lat="48.10705" lon="7.30846">
        <ele>203.5</ele>
        <time>2019-08-09T15:47:04Z</time>
      </trkpt>
      <trkpt lat="48.10701" lon="7.30845">
        <ele>203.5</ele>
        <time>2019-08-09T15:47:05Z</time>
      </trkpt>
      <trkpt lat="48.10697" lon="7.30844">
        <ele>203.6</ele>
        <time>2019-08-09T15:47:06Z</time>
      </trkpt>
      <trkpt lat="48.10693" lon="7.30842">
        <ele>203.6</ele>
        <time>2019-08-09T15:47:07Z</time>
      </trkpt>
      <trkpt lat="48.1069" lon="7.30841">
        <ele>203.6</ele>
        <time>2019-08-09T15:47:08Z</time>
      </trkpt>
      <trkpt lat="48.10686" lon="7.30839">
        <ele>203.7</ele>
        <time>2019-08-09T15:47:09Z</time>
      </trkpt>
      <trkpt lat="48.10682" lon="7.30837">
        <ele>203.7</ele>
        <time>2019-08-09T15:47:10Z</time>
      </trkpt>
      <trkpt lat="48.10679" lon="7.30835">
        <ele>203.7</ele>
        <time>2019-08-09T15:47:11Z</time>
      </trkpt>
      <trkpt lat="48.10675" lon="7.30833">
        <ele>203.8</ele>
        <time>2019-08-09T15:47:12Z</time>
      </trkpt>
      <trkpt lat="48.10671" lon="7.30831">
        <ele>203.8</ele>
        <time>2019-08-09T15:47:13Z</time>
      </trkpt>
      <trkpt lat="48.10668" lon="7.30828">
        <ele>203.8</ele>
        <time>2019-08-09T15:47:14Z</time>
      </trkpt>
      <trkpt lat="48.10665" lon="7.30825">
        <ele>203.8</ele>
        <time>2019-08-09T15:47:15Z</time>
      </trkpt>
      <trkpt lat="48.10661" lon="7.30821">
        <ele>203.9</ele>
        <time>2019-08-09T15:47:16Z</time>
      </trkpt>
      <trkpt lat="48.10658" lon="7.30818">
        <ele>203.9</ele>
        <time>2019-08-09T15:47:17Z</time>
      </trkpt>
      <trkpt lat="48.10654" lon="7.30815">
        <ele>203.9</ele>
        <time>2019-08-09T15:47:18Z</time>
      </trkpt>
      <trkpt lat="48.10649" lon="7.30811">
        <ele>204</ele>
        <time>2019-08-09T15:47:19Z</time>
      </trkpt>
      <trkpt lat="48.10645" lon="7.30809">
        <ele>204</ele>
        <time>2019-08-09T15:47:20Z</time>
      </trkpt>
      <trkpt lat="48.10641" lon="7.30807">
        <ele>204</ele>
        <time>2019-08-09T15:47:21Z</time>
      </trkpt>
      <trkpt lat="48.10636" lon="7.30803">
        <ele>204.1</ele>
        <time>2019-08-09T15:47:22Z</time>
      </trkpt>
      <trkpt lat="48.10631" lon="7.308">
        <ele>204.1</ele>
        <time>2019-08-09T15:47:23Z</time>
      </trkpt>
      <trkpt lat="48.10628" lon="7.30797">
        <ele>204.2</ele>
        <time>2019-08-09T15:47:24Z</time>
      </trkpt>
      <trkpt lat="48.10626" lon="7.30794">
        <ele>204.2</ele>
        <time>2019-08-09T15:47:25Z</time>
      </trkpt>
      <trkpt lat="48.10622" lon="7.30791">
        <ele>204.2</ele>
        <time>2019-08-09T15:47:26Z</time>
      </trkpt>
      <trkpt lat="48.1062" lon="7.30789">
        <ele>204.3</ele>
        <time>2019-08-09T15:47:27Z</time>
      </trkpt>
      <trkpt lat="48.10616" lon="7.30786">
        <ele>204.3</ele>
        <time>2019-08-09T15:47:28Z</time>
      </trkpt>
      <trkpt lat="48.10612" lon="7.30783">
        <ele>204.3</ele>
        <time>2019-08-09T15:47:29Z</time>
      </trkpt>
      <trkpt lat="48.10609" lon="7.30781">
        <ele>204.4</ele>
        <time>2019-08-09T15:47:30Z</time>
      </trkpt>
      <trkpt lat="48.10605" lon="7.3078">
        <ele>204.4</ele>
        <time>2019-08-09T15:47:31Z</time>
      </trkpt>
      <trkpt lat="48.10601" lon="7.30776">
        <ele>204.5</ele>
        <time>2019-08-09T15:47:32Z</time>
      </trkpt>
      <trkpt lat="48.10597" lon="7.30773">
        <ele>204.5</ele>
        <time>2019-08-09T15:47:33Z</time>
      </trkpt>
      <trkpt lat="48.10594" lon="7.3077">
        <ele>204.6</ele>
        <time>2019-08-09T15:47:34Z</time>
      </trkpt>
      <trkpt lat="48.10589" lon="7.30767">
        <ele>204.6</ele>
        <time>2019-08-09T15:47:35Z</time>
      </trkpt>
      <trkpt lat="48.10585" lon="7.30764">
        <ele>204.7</ele>
        <time>2019-08-09T15:47:36Z</time>
      </trkpt>
      <trkpt lat="48.10581" lon="7.30761">
        <ele>204.7</ele>
        <time>2019-08-09T15:47:37Z</time>
      </trkpt>
      <trkpt lat="48.10578" lon="7.30758">
        <ele>204.8</ele>
        <time>2019-08-09T15:47:38Z</time>
      </trkpt>
      <trkpt lat="48.10573" lon="7.30755">
        <ele>204.8</ele>
        <time>2019-08-09T15:47:39Z</time>
      </trkpt>
      <trkpt lat="48.1057" lon="7.30752">
        <ele>204.9</ele>
        <time>2019-08-09T15:47:40Z</time>
      </trkpt>
      <trkpt lat="48.10566" lon="7.3075">
        <ele>204.9</ele>
        <time>2019-08-09T15:47:41Z</time>
      </trkpt>
      <trkpt lat="48.10562" lon="7.30748">
        <ele>205</ele>
        <time>2019-08-09T15:47:42Z</time>
      </trkpt>
      <trkpt lat="48.10558" lon="7.30746">
        <ele>205</ele>
        <time>2019-08-09T15:47:43Z</time>
      </trkpt>
      <trkpt lat="48.10555" lon="7.30743">
        <ele>205</ele>
        <time>2019-08-09T15:47:44Z</time>
      </trkpt>
      <trkpt lat="48.10551" lon="7.3074">
        <ele>205.1</ele>
        <time>2019-08-09T15:47:45Z</time>
      </trkpt>
      <trkpt lat="48.10548" lon="7.30738">
        <ele>205.1</ele>
        <time>2019-08-09T15:47:46Z</time>
      </trkpt>
      <trkpt lat="48.10545" lon="7.30736">
        <ele>205.2</ele>
        <time>2019-08-09T15:47:47Z</time>
      </trkpt>
      <trkpt lat="48.10542" lon="7.30734">
        <ele>205.2</ele>
        <time>2019-08-09T15:47:48Z</time>
      </trkpt>
      <trkpt lat="48.10538" lon="7.30734">
        <ele>205.3</ele>
        <time>2019-08-09T15:47:49Z</time>
      </trkpt>
      <trkpt lat="48.10534" lon="7.30733">
        <ele>205.3</ele>
        <time>2019-08-09T15:47:50Z</time>
      </trkpt>
      <trkpt lat="48.10531" lon="7.30732">
        <ele>205.3</ele>
        <time>2019-08-09T15:47:51Z</time>
      </trkpt>
      <trkpt lat="48.10527" lon="7.30729">
        <ele>205.4</ele>
        <time>2019-08-09T15:47:52Z</time>
      </trkpt>
      <trkpt lat="48.10522" lon="7.30727">
        <ele>205.4</ele>
        <time>2019-08-09T15:47:53Z</time>
      </trkpt>
      <trkpt lat="48.10518" lon="7.30725">
        <ele>205.5</ele>
        <time>2019-08-09T15:47:54Z</time>
      </trkpt>
      <trkpt lat="48.10514" lon="7.30723">
        <ele>205.5</ele>
        <time>2019-08-09T15:47:55Z</time>
      </trkpt>
      <trkpt lat="48.1051" lon="7.3072">
        <ele>205.6</ele>
        <time>2019-08-09T15:47:56Z</time>
      </trkpt>
      <trkpt lat="48.10507" lon="7.30719">
        <ele>205.6</ele>
        <time>2019-08-09T15:47:57Z</time>
      </trkpt>
      <trkpt lat="48.10503" lon="7.30718">
        <ele>205.7</ele>
        <time>2019-08-09T15:47:58Z</time>
      </trkpt>
      <trkpt lat="48.10499" lon="7.30716">
        <ele>205.8</ele>
        <time>2019-08-09T15:47:59Z</time>
      </trkpt>
      <trkpt lat="48.10495" lon="7.30714">
        <ele>206</ele>
        <time>2019-08-09T15:48:00Z</time>
      </trkpt>
      <trkpt lat="48.10491" lon="7.30711">
        <ele>206.1</ele>
        <time>2019-08-09T15:48:01Z</time>
      </trkpt>
      <trkpt lat="48.10488" lon="7.3071">
        <ele>206.3</ele>
        <time>2019-08-09T15:48:02Z</time>
      </trkpt>
      <trkpt lat="48.10483" lon="7.30707">
        <ele>206.5</ele>
        <time>2019-08-09T15:48:03Z</time>
      </trkpt>
      <trkpt lat="48.1048" lon="7.30705">
        <ele>206.7</ele>
        <time>2019-08-09T15:48:04Z</time>
      </trkpt>
      <trkpt lat="48.10477" lon="7.30704">
        <ele>206.8</ele>
        <time>2019-08-09T15:48:05Z</time>
      </trkpt>
      <trkpt lat="48.10474" lon="7.30702">
        <ele>206.9</ele>
        <time>2019-08-09T15:48:06Z</time>
      </trkpt>
      <trkpt lat="48.1047" lon="7.30701">
        <ele>207.1</ele>
        <time>2019-08-09T15:48:07Z</time>
      </trkpt>
      <trkpt lat="48.10466" lon="7.30698">
        <ele>207.2</ele>
        <time>2019-08-09T15:48:08Z</time>
      </trkpt>
      <trkpt lat="48.10461" lon="7.30695">
        <ele>207.3</ele>
        <time>2019-08-09T15:48:09Z</time>
      </trkpt>
      <trkpt lat="48.10457" lon="7.30693">
        <ele>207.4</ele>
        <time>2019-08-09T15:48:10Z</time>
      </trkpt>
      <trkpt lat="48.10453" lon="7.30691">
        <ele>207.4</ele>
        <time>2019-08-09T15:48:11Z</time>
      </trkpt>
      <trkpt lat="48.10449" lon="7.30689">
        <ele>207.4</ele>
        <time>2019-08-09T15:48:12Z</time>
      </trkpt>
      <trkpt lat="48.10445" lon="7.30687">
        <ele>207.4</ele>
        <time>2019-08-09T15:48:13Z</time>
      </trkpt>
      <trkpt lat="48.10441" lon="7.30685">
        <ele>207.5</ele>
        <time>2019-08-09T15:48:14Z</time>
      </trkpt>
      <trkpt lat="48.10438" lon="7.30683">
        <ele>207.5</ele>
        <time>2019-08-09T15:48:15Z</time>
      </trkpt>
      <trkpt lat="48.10432" lon="7.30681">
        <ele>207.5</ele>
        <time>2019-08-09T15:48:17Z</time>
      </trkpt>
      <trkpt lat="48.10429" lon="7.30679">
        <ele>207.5</ele>
        <time>2019-08-09T15:48:18Z</time>
      </trkpt>
      <trkpt lat="48.10424" lon="7.30676">
        <ele>207.5</ele>
        <time>2019-08-09T15:48:20Z</time>
      </trkpt>
      <trkpt lat="48.10423" lon="7.30672">
        <ele>207.5</ele>
        <time>2019-08-09T15:48:23Z</time>
      </trkpt>
      <trkpt lat="48.10419" lon="7.30675">
        <ele>207.5</ele>
        <time>2019-08-09T15:55:48Z</time>
      </trkpt>
      <trkpt lat="48.10414" lon="7.30677">
        <ele>207.5</ele>
        <time>2019-08-09T15:55:50Z</time>
      </trkpt>
      <trkpt lat="48.10411" lon="7.30677">
        <ele>207.5</ele>
        <time>2019-08-09T15:55:51Z</time>
      </trkpt>
      <trkpt lat="48.10407" lon="7.30679">
        <ele>207.5</ele>
        <time>2019-08-09T15:55:52Z</time>
      </trkpt>
      <trkpt lat="48.10405" lon="7.30682">
        <ele>207.5</ele>
        <time>2019-08-09T15:55:53Z</time>
      </trkpt>
      <trkpt lat="48.10401" lon="7.30685">
        <ele>207.5</ele>
        <time>2019-08-09T15:55:54Z</time>
      </trkpt>
      <trkpt lat="48.10398" lon="7.30686">
        <ele>207.6</ele>
        <time>2019-08-09T15:55:55Z</time>
      </trkpt>
      <trkpt lat="48.10395" lon="7.30688">
        <ele>207.6</ele>
        <time>2019-08-09T15:55:56Z</time>
      </trkpt>
      <trkpt lat="48.10392" lon="7.3069">
        <ele>207.6</ele>
        <time>2019-08-09T15:55:57Z</time>
      </trkpt>
      <trkpt lat="48.10389" lon="7.30692">
        <ele>207.6</ele>
        <time>2019-08-09T15:55:58Z</time>
      </trkpt>
      <trkpt lat="48.10384" lon="7.30696">
        <ele>207.6</ele>
        <time>2019-08-09T15:56:00Z</time>
      </trkpt>
      <trkpt lat="48.1038" lon="7.30698">
        <ele>207.7</ele>
        <time>2019-08-09T15:56:02Z</time>
      </trkpt>
      <trkpt lat="48.10377" lon="7.30699">
        <ele>207.7</ele>
        <time>2019-08-09T15:56:04Z</time>
      </trkpt>
      <trkpt lat="48.10374" lon="7.30704">
        <ele>207.7</ele>
        <time>2019-08-09T15:56:06Z</time>
      </trkpt>
      <trkpt lat="48.10371" lon="7.30711">
        <ele>207.7</ele>
        <time>2019-08-09T15:56:08Z</time>
      </trkpt>
      <trkpt lat="48.10369" lon="7.30715">
        <ele>207.6</ele>
        <time>2019-08-09T15:56:09Z</time>
      </trkpt>
      <trkpt lat="48.10368" lon="7.3072">
        <ele>207.6</ele>
        <time>2019-08-09T15:56:10Z</time>
      </trkpt>
      <trkpt lat="48.10367" lon="7.30724">
        <ele>207.6</ele>
        <time>2019-08-09T15:56:11Z</time>
      </trkpt>
      <trkpt lat="48.10365" lon="7.30727">
        <ele>207.6</ele>
        <time>2019-08-09T15:56:12Z</time>
      </trkpt>
      <trkpt lat="48.10363" lon="7.30732">
        <ele>207.6</ele>
        <time>2019-08-09T15:56:13Z</time>
      </trkpt>
      <trkpt lat="48.10361" lon="7.30736">
        <ele>207.6</ele>
        <time>2019-08-09T15:56:14Z</time>
      </trkpt>
      <trkpt lat="48.10359" lon="7.3074">
        <ele>207.5</ele>
        <time>2019-08-09T15:56:15Z</time>
      </trkpt>
      <trkpt lat="48.10357" lon="7.30745">
        <ele>207.5</ele>
        <time>2019-08-09T15:56:16Z</time>
      </trkpt>
      <trkpt lat="48.10355" lon="7.3075">
        <ele>207.5</ele>
        <time>2019-08-09T15:56:17Z</time>
      </trkpt>
      <trkpt lat="48.10353" lon="7.30756">
        <ele>207.5</ele>
        <time>2019-08-09T15:56:18Z</time>
      </trkpt>
      <trkpt lat="48.10351" lon="7.30761">
        <ele>207.5</ele>
        <time>2019-08-09T15:56:19Z</time>
      </trkpt>
      <trkpt lat="48.1035" lon="7.30765">
        <ele>207.4</ele>
        <time>2019-08-09T15:56:20Z</time>
      </trkpt>
      <trkpt lat="48.10349" lon="7.30771">
        <ele>207.4</ele>
        <time>2019-08-09T15:56:21Z</time>
      </trkpt>
      <trkpt lat="48.10348" lon="7.30776">
        <ele>207.4</ele>
        <time>2019-08-09T15:56:22Z</time>
      </trkpt>
      <trkpt lat="48.10346" lon="7.30779">
        <ele>207.4</ele>
        <time>2019-08-09T15:56:23Z</time>
      </trkpt>
      <trkpt lat="48.10344" lon="7.30784">
        <ele>207.4</ele>
        <time>2019-08-09T15:56:24Z</time>
      </trkpt>
      <trkpt lat="48.10343" lon="7.30789">
        <ele>207.3</ele>
        <time>2019-08-09T15:56:25Z</time>
      </trkpt>
      <trkpt lat="48.10341" lon="7.30793">
        <ele>207.3</ele>
        <time>2019-08-09T15:56:26Z</time>
      </trkpt>
      <trkpt lat="48.10339" lon="7.30798">
        <ele>207.3</ele>
        <time>2019-08-09T15:56:27Z</time>
      </trkpt>
      <trkpt lat="48.10339" lon="7.30805">
        <ele>207.2</ele>
        <time>2019-08-09T15:56:28Z</time>
      </trkpt>
      <trkpt lat="48.10338" lon="7.30812">
        <ele>207.1</ele>
        <time>2019-08-09T15:56:29Z</time>
      </trkpt>
      <trkpt lat="48.10337" lon="7.30817">
        <ele>207.1</ele>
        <time>2019-08-09T15:56:30Z</time>
      </trkpt>
      <trkpt lat="48.10336" lon="7.30823">
        <ele>207.1</ele>
        <time>2019-08-09T15:56:31Z</time>
      </trkpt>
      <trkpt lat="48.10335" lon="7.30829">
        <ele>207</ele>
        <time>2019-08-09T15:56:32Z</time>
      </trkpt>
      <trkpt lat="48.10333" lon="7.30835">
        <ele>206.9</ele>
        <time>2019-08-09T15:56:33Z</time>
      </trkpt>
      <trkpt lat="48.10333" lon="7.30842">
        <ele>206.9</ele>
        <time>2019-08-09T15:56:34Z</time>
      </trkpt>
      <trkpt lat="48.10331" lon="7.3085">
        <ele>206.9</ele>
        <time>2019-08-09T15:56:35Z</time>
      </trkpt>
      <trkpt lat="48.1033" lon="7.30857">
        <ele>206.8</ele>
        <time>2019-08-09T15:56:36Z</time>
      </trkpt>
      <trkpt lat="48.1033" lon="7.30863">
        <ele>206.8</ele>
        <time>2019-08-09T15:56:37Z</time>
      </trkpt>
      <trkpt lat="48.10328" lon="7.30868">
        <ele>206.8</ele>
        <time>2019-08-09T15:56:38Z</time>
      </trkpt>
      <trkpt lat="48.10328" lon="7.30874">
        <ele>206.8</ele>
        <time>2019-08-09T15:56:39Z</time>
      </trkpt>
      <trkpt lat="48.10327" lon="7.3088">
        <ele>206.8</ele>
        <time>2019-08-09T15:56:40Z</time>
      </trkpt>
      <trkpt lat="48.10327" lon="7.30886">
        <ele>206.8</ele>
        <time>2019-08-09T15:56:41Z</time>
      </trkpt>
      <trkpt lat="48.10326" lon="7.30892">
        <ele>206.8</ele>
        <time>2019-08-09T15:56:42Z</time>
      </trkpt>
      <trkpt lat="48.10324" lon="7.30898">
        <ele>206.8</ele>
        <time>2019-08-09T15:56:43Z</time>
      </trkpt>
      <trkpt lat="48.10322" lon="7.30904">
        <ele>206.8</ele>
        <time>2019-08-09T15:56:44Z</time>
      </trkpt>
      <trkpt lat="48.10322" lon="7.3091">
        <ele>206.8</ele>
        <time>2019-08-09T15:56:45Z</time>
      </trkpt>
      <trkpt lat="48.1032" lon="7.30915">
        <ele>206.8</ele>
        <time>2019-08-09T15:56:46Z</time>
      </trkpt>
      <trkpt lat="48.10318" lon="7.30921">
        <ele>206.8</ele>
        <time>2019-08-09T15:56:47Z</time>
      </trkpt>
      <trkpt lat="48.10317" lon="7.30927">
        <ele>206.8</ele>
        <time>2019-08-09T15:56:48Z</time>
      </trkpt>
      <trkpt lat="48.10316" lon="7.30933">
        <ele>206.8</ele>
        <time>2019-08-09T15:56:49Z</time>
      </trkpt>
      <trkpt lat="48.10315" lon="7.30938">
        <ele>206.8</ele>
        <time>2019-08-09T15:56:50Z</time>
      </trkpt>
      <trkpt lat="48.10314" lon="7.30945">
        <ele>206.9</ele>
        <time>2019-08-09T15:56:51Z</time>
      </trkpt>
      <trkpt lat="48.10312" lon="7.3095">
        <ele>206.9</ele>
        <time>2019-08-09T15:56:52Z</time>
      </trkpt>
      <trkpt lat="48.10311" lon="7.30957">
        <ele>206.9</ele>
        <time>2019-08-09T15:56:53Z</time>
      </trkpt>
      <trkpt lat="48.10309" lon="7.30964">
        <ele>206.9</ele>
        <time>2019-08-09T15:56:54Z</time>
      </trkpt>
      <trkpt lat="48.10307" lon="7.30969">
        <ele>206.9</ele>
        <time>2019-08-09T15:56:55Z</time>
      </trkpt>
      <trkpt lat="48.10305" lon="7.30975">
        <ele>206.9</ele>
        <time>2019-08-09T15:56:56Z</time>
      </trkpt>
      <trkpt lat="48.10304" lon="7.3098">
        <ele>206.9</ele>
        <time>2019-08-09T15:56:57Z</time>
      </trkpt>
      <trkpt lat="48.10303" lon="7.30986">
        <ele>206.9</ele>
        <time>2019-08-09T15:56:58Z</time>
      </trkpt>
      <trkpt lat="48.10301" lon="7.30992">
        <ele>206.9</ele>
        <time>2019-08-09T15:56:59Z</time>
      </trkpt>
      <trkpt lat="48.10299" lon="7.30999">
        <ele>206.9</ele>
        <time>2019-08-09T15:57:00Z</time>
      </trkpt>
      <trkpt lat="48.10297" lon="7.31006">
        <ele>206.9</ele>
        <time>2019-08-09T15:57:01Z</time>
      </trkpt>
      <trkpt lat="48.10295" lon="7.31012">
        <ele>206.9</ele>
        <time>2019-08-09T15:57:02Z</time>
      </trkpt>
      <trkpt lat="48.10293" lon="7.31018">
        <ele>206.9</ele>
        <time>2019-08-09T15:57:03Z</time>
      </trkpt>
      <trkpt lat="48.10291" lon="7.31023">
        <ele>206.9</ele>
        <time>2019-08-09T15:57:04Z</time>
      </trkpt>
      <trkpt lat="48.10289" lon="7.31028">
        <ele>206.9</ele>
        <time>2019-08-09T15:57:05Z</time>
      </trkpt>
      <trkpt lat="48.10288" lon="7.31035">
        <ele>206.9</ele>
        <time>2019-08-09T15:57:06Z</time>
      </trkpt>
      <trkpt lat="48.10286" lon="7.31041">
        <ele>206.9</ele>
        <time>2019-08-09T15:57:07Z</time>
      </trkpt>
      <trkpt lat="48.10285" lon="7.31047">
        <ele>207</ele>
        <time>2019-08-09T15:57:08Z</time>
      </trkpt>
      <trkpt lat="48.10283" lon="7.31053">
        <ele>207</ele>
        <time>2019-08-09T15:57:09Z</time>
      </trkpt>
      <trkpt lat="48.10281" lon="7.31058">
        <ele>207.1</ele>
        <time>2019-08-09T15:57:10Z</time>
      </trkpt>
      <trkpt lat="48.1028" lon="7.31063">
        <ele>207.2</ele>
        <time>2019-08-09T15:57:11Z</time>
      </trkpt>
      <trkpt lat="48.10279" lon="7.31069">
        <ele>207.4</ele>
        <time>2019-08-09T15:57:12Z</time>
      </trkpt>
      <trkpt lat="48.10276" lon="7.31074">
        <ele>207.6</ele>
        <time>2019-08-09T15:57:13Z</time>
      </trkpt>
      <trkpt lat="48.10275" lon="7.31078">
        <ele>207.7</ele>
        <time>2019-08-09T15:57:14Z</time>
      </trkpt>
      <trkpt lat="48.10274" lon="7.31084">
        <ele>207.9</ele>
        <time>2019-08-09T15:57:15Z</time>
      </trkpt>
      <trkpt lat="48.1027" lon="7.31087">
        <ele>207.8</ele>
        <time>2019-08-09T15:57:16Z</time>
      </trkpt>
      <trkpt lat="48.10269" lon="7.31093">
        <ele>207.7</ele>
        <time>2019-08-09T15:57:17Z</time>
      </trkpt>
      <trkpt lat="48.10267" lon="7.311">
        <ele>207.6</ele>
        <time>2019-08-09T15:57:18Z</time>
      </trkpt>
      <trkpt lat="48.10265" lon="7.31107">
        <ele>207.5</ele>
        <time>2019-08-09T15:57:19Z</time>
      </trkpt>
      <trkpt lat="48.10263" lon="7.31112">
        <ele>207.4</ele>
        <time>2019-08-09T15:57:20Z</time>
      </trkpt>
      <trkpt lat="48.10263" lon="7.3112">
        <ele>207.4</ele>
        <time>2019-08-09T15:57:21Z</time>
      </trkpt>
      <trkpt lat="48.10261" lon="7.31126">
        <ele>207.3</ele>
        <time>2019-08-09T15:57:22Z</time>
      </trkpt>
      <trkpt lat="48.10259" lon="7.31131">
        <ele>207.3</ele>
        <time>2019-08-09T15:57:23Z</time>
      </trkpt>
      <trkpt lat="48.10259" lon="7.31138">
        <ele>207.2</ele>
        <time>2019-08-09T15:57:24Z</time>
      </trkpt>
      <trkpt lat="48.10257" lon="7.31143">
        <ele>207.2</ele>
        <time>2019-08-09T15:57:25Z</time>
      </trkpt>
      <trkpt lat="48.10256" lon="7.3115">
        <ele>207.1</ele>
        <time>2019-08-09T15:57:26Z</time>
      </trkpt>
      <trkpt lat="48.10254" lon="7.31155">
        <ele>207.1</ele>
        <time>2019-08-09T15:57:27Z</time>
      </trkpt>
      <trkpt lat="48.10253" lon="7.31161">
        <ele>207.1</ele>
        <time>2019-08-09T15:57:28Z</time>
      </trkpt>
      <trkpt lat="48.10252" lon="7.31166">
        <ele>207.1</ele>
        <time>2019-08-09T15:57:29Z</time>
      </trkpt>
      <trkpt lat="48.10252" lon="7.31172">
        <ele>207.1</ele>
        <time>2019-08-09T15:57:30Z</time>
      </trkpt>
      <trkpt lat="48.1025" lon="7.31177">
        <ele>207.1</ele>
        <time>2019-08-09T15:57:31Z</time>
      </trkpt>
      <trkpt lat="48.10249" lon="7.31182">
        <ele>207.1</ele>
        <time>2019-08-09T15:57:32Z</time>
      </trkpt>
      <trkpt lat="48.10247" lon="7.31187">
        <ele>207</ele>
        <time>2019-08-09T15:57:33Z</time>
      </trkpt>
      <trkpt lat="48.10246" lon="7.31194">
        <ele>206.9</ele>
        <time>2019-08-09T15:57:34Z</time>
      </trkpt>
      <trkpt lat="48.10245" lon="7.31199">
        <ele>206.8</ele>
        <time>2019-08-09T15:57:35Z</time>
      </trkpt>
      <trkpt lat="48.10243" lon="7.31203">
        <ele>206.7</ele>
        <time>2019-08-09T15:57:36Z</time>
      </trkpt>
      <trkpt lat="48.10241" lon="7.31207">
        <ele>206.7</ele>
        <time>2019-08-09T15:57:37Z</time>
      </trkpt>
      <trkpt lat="48.10239" lon="7.3121">
        <ele>206.7</ele>
        <time>2019-08-09T15:57:38Z</time>
      </trkpt>
      <trkpt lat="48.10236" lon="7.31213">
        <ele>206.7</ele>
        <time>2019-08-09T15:57:39Z</time>
      </trkpt>
      <trkpt lat="48.10233" lon="7.31217">
        <ele>206.7</ele>
        <time>2019-08-09T15:57:40Z</time>
      </trkpt>
      <trkpt lat="48.10231" lon="7.31221">
        <ele>206.7</ele>
        <time>2019-08-09T15:57:41Z</time>
      </trkpt>
      <trkpt lat="48.10228" lon="7.31225">
        <ele>206.8</ele>
        <time>2019-08-09T15:57:42Z</time>
      </trkpt>
      <trkpt lat="48.10225" lon="7.31229">
        <ele>206.8</ele>
        <time>2019-08-09T15:57:43Z</time>
      </trkpt>
      <trkpt lat="48.10222" lon="7.31233">
        <ele>206.9</ele>
        <time>2019-08-09T15:57:44Z</time>
      </trkpt>
      <trkpt lat="48.10219" lon="7.31237">
        <ele>206.9</ele>
        <time>2019-08-09T15:57:45Z</time>
      </trkpt>
      <trkpt lat="48.10217" lon="7.31242">
        <ele>207</ele>
        <time>2019-08-09T15:57:46Z</time>
      </trkpt>
      <trkpt lat="48.10213" lon="7.31244">
        <ele>207</ele>
        <time>2019-08-09T15:57:47Z</time>
      </trkpt>
      <trkpt lat="48.1021" lon="7.31248">
        <ele>207.1</ele>
        <time>2019-08-09T15:57:48Z</time>
      </trkpt>
      <trkpt lat="48.10208" lon="7.31253">
        <ele>207.2</ele>
        <time>2019-08-09T15:57:49Z</time>
      </trkpt>
      <trkpt lat="48.10205" lon="7.31257">
        <ele>207.2</ele>
        <time>2019-08-09T15:57:50Z</time>
      </trkpt>
      <trkpt lat="48.10202" lon="7.31262">
        <ele>207.3</ele>
        <time>2019-08-09T15:57:51Z</time>
      </trkpt>
      <trkpt lat="48.10199" lon="7.31267">
        <ele>207.4</ele>
        <time>2019-08-09T15:57:52Z</time>
      </trkpt>
      <trkpt lat="48.10196" lon="7.31271">
        <ele>207.4</ele>
        <time>2019-08-09T15:57:53Z</time>
      </trkpt>
      <trkpt lat="48.10194" lon="7.31276">
        <ele>207.5</ele>
        <time>2019-08-09T15:57:54Z</time>
      </trkpt>
      <trkpt lat="48.10191" lon="7.31281">
        <ele>207.6</ele>
        <time>2019-08-09T15:57:55Z</time>
      </trkpt>
      <trkpt lat="48.10188" lon="7.31286">
        <ele>207.6</ele>
        <time>2019-08-09T15:57:56Z</time>
      </trkpt>
      <trkpt lat="48.10186" lon="7.3129">
        <ele>207.6</ele>
        <time>2019-08-09T15:57:57Z</time>
      </trkpt>
      <trkpt lat="48.10184" lon="7.31295">
        <ele>207.6</ele>
        <time>2019-08-09T15:57:58Z</time>
      </trkpt>
      <trkpt lat="48.10182" lon="7.31299">
        <ele>207.6</ele>
        <time>2019-08-09T15:57:59Z</time>
      </trkpt>
      <trkpt lat="48.1018" lon="7.31303">
        <ele>207.6</ele>
        <time>2019-08-09T15:58:00Z</time>
      </trkpt>
      <trkpt lat="48.10177" lon="7.31306">
        <ele>207.6</ele>
        <time>2019-08-09T15:58:01Z</time>
      </trkpt>
      <trkpt lat="48.10174" lon="7.31311">
        <ele>207.5</ele>
        <time>2019-08-09T15:58:02Z</time>
      </trkpt>
      <trkpt lat="48.10171" lon="7.31314">
        <ele>207.5</ele>
        <time>2019-08-09T15:58:03Z</time>
      </trkpt>
      <trkpt lat="48.10168" lon="7.31318">
        <ele>207.5</ele>
        <time>2019-08-09T15:58:04Z</time>
      </trkpt>
      <trkpt lat="48.10165" lon="7.31322">
        <ele>207.5</ele>
        <time>2019-08-09T15:58:05Z</time>
      </trkpt>
      <trkpt lat="48.10162" lon="7.31326">
        <ele>207.6</ele>
        <time>2019-08-09T15:58:06Z</time>
      </trkpt>
      <trkpt lat="48.1016" lon="7.31329">
        <ele>207.6</ele>
        <time>2019-08-09T15:58:07Z</time>
      </trkpt>
      <trkpt lat="48.10157" lon="7.31332">
        <ele>207.6</ele>
        <time>2019-08-09T15:58:08Z</time>
      </trkpt>
      <trkpt lat="48.10153" lon="7.31338">
        <ele>207.7</ele>
        <time>2019-08-09T15:58:09Z</time>
      </trkpt>
      <trkpt lat="48.10151" lon="7.31341">
        <ele>207.8</ele>
        <time>2019-08-09T15:58:10Z</time>
      </trkpt>
      <trkpt lat="48.10148" lon="7.31344">
        <ele>208.1</ele>
        <time>2019-08-09T15:58:11Z</time>
      </trkpt>
      <trkpt lat="48.10145" lon="7.31346">
        <ele>208.1</ele>
        <time>2019-08-09T15:58:12Z</time>
      </trkpt>
      <trkpt lat="48.10142" lon="7.31344">
        <ele>208.2</ele>
        <time>2019-08-09T15:58:14Z</time>
      </trkpt>
      <trkpt lat="48.10139" lon="7.3134">
        <ele>208.3</ele>
        <time>2019-08-09T15:58:16Z</time>
      </trkpt>
      <trkpt lat="48.10134" lon="7.31336">
        <ele>208.5</ele>
        <time>2019-08-09T15:58:18Z</time>
      </trkpt>
      <trkpt lat="48.10132" lon="7.31333">
        <ele>208.5</ele>
        <time>2019-08-09T15:58:19Z</time>
      </trkpt>
      <trkpt lat="48.10129" lon="7.3133">
        <ele>208.6</ele>
        <time>2019-08-09T15:58:20Z</time>
      </trkpt>
      <trkpt lat="48.10127" lon="7.31328">
        <ele>208.7</ele>
        <time>2019-08-09T15:58:21Z</time>
      </trkpt>
      <trkpt lat="48.10124" lon="7.31325">
        <ele>208.8</ele>
        <time>2019-08-09T15:58:22Z</time>
      </trkpt>
      <trkpt lat="48.10121" lon="7.31322">
        <ele>208.9</ele>
        <time>2019-08-09T15:58:23Z</time>
      </trkpt>
      <trkpt lat="48.10117" lon="7.31319">
        <ele>209</ele>
        <time>2019-08-09T15:58:24Z</time>
      </trkpt>
      <trkpt lat="48.10114" lon="7.31316">
        <ele>209.1</ele>
        <time>2019-08-09T15:58:25Z</time>
      </trkpt>
      <trkpt lat="48.1011" lon="7.31313">
        <ele>209.1</ele>
        <time>2019-08-09T15:58:26Z</time>
      </trkpt>
      <trkpt lat="48.10108" lon="7.31309">
        <ele>209.2</ele>
        <time>2019-08-09T15:58:27Z</time>
      </trkpt>
      <trkpt lat="48.10105" lon="7.31306">
        <ele>209.3</ele>
        <time>2019-08-09T15:58:29Z</time>
      </trkpt>
      <trkpt lat="48.10102" lon="7.31306">
        <ele>209.2</ele>
        <time>2019-08-09T15:58:32Z</time>
      </trkpt>
      <trkpt lat="48.10098" lon="7.31309">
        <ele>209</ele>
        <time>2019-08-09T15:58:37Z</time>
      </trkpt>
      <trkpt lat="48.10096" lon="7.31315">
        <ele>208.9</ele>
        <time>2019-08-09T15:58:40Z</time>
      </trkpt>
      <trkpt lat="48.10095" lon="7.31322">
        <ele>208.7</ele>
        <time>2019-08-09T15:58:42Z</time>
      </trkpt>
      <trkpt lat="48.10093" lon="7.31326">
        <ele>208.6</ele>
        <time>2019-08-09T15:58:43Z</time>
      </trkpt>
      <trkpt lat="48.10092" lon="7.3133">
        <ele>208.6</ele>
        <time>2019-08-09T15:58:44Z</time>
      </trkpt>
      <trkpt lat="48.1009" lon="7.31334">
        <ele>208.4</ele>
        <time>2019-08-09T15:58:45Z</time>
      </trkpt>
      <trkpt lat="48.10089" lon="7.3134">
        <ele>208.3</ele>
        <time>2019-08-09T15:58:46Z</time>
      </trkpt>
      <trkpt lat="48.10088" lon="7.31345">
        <ele>208.2</ele>
        <time>2019-08-09T15:58:47Z</time>
      </trkpt>
      <trkpt lat="48.10085" lon="7.31349">
        <ele>208.1</ele>
        <time>2019-08-09T15:58:48Z</time>
      </trkpt>
      <trkpt lat="48.10084" lon="7.31354">
        <ele>207.9</ele>
        <time>2019-08-09T15:58:49Z</time>
      </trkpt>
      <trkpt lat="48.10083" lon="7.31359">
        <ele>207.8</ele>
        <time>2019-08-09T15:58:50Z</time>
      </trkpt>
      <trkpt lat="48.10081" lon="7.31365">
        <ele>207.7</ele>
        <time>2019-08-09T15:58:51Z</time>
      </trkpt>
      <trkpt lat="48.1008" lon="7.3137">
        <ele>207.5</ele>
        <time>2019-08-09T15:58:52Z</time>
      </trkpt>
      <trkpt lat="48.10079" lon="7.31377">
        <ele>207.3</ele>
        <time>2019-08-09T15:58:53Z</time>
      </trkpt>
      <trkpt lat="48.10079" lon="7.31384">
        <ele>207.2</ele>
        <time>2019-08-09T15:58:54Z</time>
      </trkpt>
      <trkpt lat="48.10077" lon="7.3139">
        <ele>206.9</ele>
        <time>2019-08-09T15:58:55Z</time>
      </trkpt>
      <trkpt lat="48.10076" lon="7.31396">
        <ele>206.7</ele>
        <time>2019-08-09T15:58:56Z</time>
      </trkpt>
      <trkpt lat="48.10076" lon="7.31401">
        <ele>206.7</ele>
        <time>2019-08-09T15:58:57Z</time>
      </trkpt>
      <trkpt lat="48.10076" lon="7.31405">
        <ele>206.7</ele>
        <time>2019-08-09T15:58:58Z</time>
      </trkpt>
      <trkpt lat="48.10076" lon="7.3141">
        <ele>206.7</ele>
        <time>2019-08-09T15:58:59Z</time>
      </trkpt>
      <trkpt lat="48.10074" lon="7.31414">
        <ele>206.7</ele>
        <time>2019-08-09T15:59:00Z</time>
      </trkpt>
      <trkpt lat="48.1007" lon="7.3142">
        <ele>206.7</ele>
        <time>2019-08-09T15:59:02Z</time>
      </trkpt>
      <trkpt lat="48.10068" lon="7.31428">
        <ele>206.8</ele>
        <time>2019-08-09T15:59:04Z</time>
      </trkpt>
      <trkpt lat="48.10067" lon="7.31431">
        <ele>206.8</ele>
        <time>2019-08-09T15:59:05Z</time>
      </trkpt>
      <trkpt lat="48.10067" lon="7.31436">
        <ele>206.8</ele>
        <time>2019-08-09T15:59:06Z</time>
      </trkpt>
      <trkpt lat="48.10066" lon="7.3144">
        <ele>206.9</ele>
        <time>2019-08-09T15:59:07Z</time>
      </trkpt>
      <trkpt lat="48.10064" lon="7.31446">
        <ele>207</ele>
        <time>2019-08-09T15:59:09Z</time>
      </trkpt>
      <trkpt lat="48.10063" lon="7.31449">
        <ele>207.1</ele>
        <time>2019-08-09T15:59:10Z</time>
      </trkpt>
      <trkpt lat="48.10061" lon="7.31455">
        <ele>207.3</ele>
        <time>2019-08-09T15:59:12Z</time>
      </trkpt>
      <trkpt lat="48.1006" lon="7.31459">
        <ele>207.4</ele>
        <time>2019-08-09T15:59:13Z</time>
      </trkpt>
      <trkpt lat="48.10057" lon="7.31465">
        <ele>207.7</ele>
        <time>2019-08-09T15:59:15Z</time>
      </trkpt>
      <trkpt lat="48.10055" lon="7.31471">
        <ele>208.1</ele>
        <time>2019-08-09T15:59:17Z</time>
      </trkpt>
      <trkpt lat="48.10054" lon="7.31474">
        <ele>208.3</ele>
        <time>2019-08-09T15:59:18Z</time>
      </trkpt>
      <trkpt lat="48.10052" lon="7.31479">
        <ele>208.6</ele>
        <time>2019-08-09T15:59:19Z</time>
      </trkpt>
      <trkpt lat="48.10051" lon="7.31484">
        <ele>208.9</ele>
        <time>2019-08-09T15:59:20Z</time>
      </trkpt>
      <trkpt lat="48.1005" lon="7.31488">
        <ele>208.9</ele>
        <time>2019-08-09T15:59:21Z</time>
      </trkpt>
      <trkpt lat="48.1005" lon="7.31493">
        <ele>208.9</ele>
        <time>2019-08-09T15:59:22Z</time>
      </trkpt>
      <trkpt lat="48.10048" lon="7.31498">
        <ele>208.9</ele>
        <time>2019-08-09T15:59:23Z</time>
      </trkpt>
      <trkpt lat="48.10047" lon="7.31503">
        <ele>209.1</ele>
        <time>2019-08-09T15:59:24Z</time>
      </trkpt>
      <trkpt lat="48.10045" lon="7.31507">
        <ele>209.1</ele>
        <time>2019-08-09T15:59:25Z</time>
      </trkpt>
      <trkpt lat="48.10043" lon="7.31512">
        <ele>209.2</ele>
        <time>2019-08-09T15:59:26Z</time>
      </trkpt>
      <trkpt lat="48.10041" lon="7.31516">
        <ele>209.3</ele>
        <time>2019-08-09T15:59:27Z</time>
      </trkpt>
      <trkpt lat="48.10038" lon="7.31523">
        <ele>209.3</ele>
        <time>2019-08-09T15:59:29Z</time>
      </trkpt>
      <trkpt lat="48.10036" lon="7.31527">
        <ele>209.4</ele>
        <time>2019-08-09T15:59:30Z</time>
      </trkpt>
      <trkpt lat="48.10034" lon="7.31532">
        <ele>209.5</ele>
        <time>2019-08-09T15:59:31Z</time>
      </trkpt>
      <trkpt lat="48.10032" lon="7.31536">
        <ele>209.5</ele>
        <time>2019-08-09T15:59:32Z</time>
      </trkpt>
      <trkpt lat="48.10031" lon="7.31542">
        <ele>209.5</ele>
        <time>2019-08-09T15:59:33Z</time>
      </trkpt>
      <trkpt lat="48.10029" lon="7.31547">
        <ele>209.5</ele>
        <time>2019-08-09T15:59:34Z</time>
      </trkpt>
      <trkpt lat="48.10027" lon="7.31552">
        <ele>209.5</ele>
        <time>2019-08-09T15:59:35Z</time>
      </trkpt>
      <trkpt lat="48.10025" lon="7.31557">
        <ele>209.6</ele>
        <time>2019-08-09T15:59:36Z</time>
      </trkpt>
      <trkpt lat="48.10022" lon="7.31564">
        <ele>209.6</ele>
        <time>2019-08-09T15:59:37Z</time>
      </trkpt>
      <trkpt lat="48.10019" lon="7.31571">
        <ele>209.6</ele>
        <time>2019-08-09T15:59:38Z</time>
      </trkpt>
      <trkpt lat="48.10019" lon="7.31578">
        <ele>209.6</ele>
        <time>2019-08-09T15:59:39Z</time>
      </trkpt>
      <trkpt lat="48.10018" lon="7.31586">
        <ele>209.6</ele>
        <time>2019-08-09T15:59:40Z</time>
      </trkpt>
      <trkpt lat="48.10017" lon="7.31593">
        <ele>209.6</ele>
        <time>2019-08-09T15:59:41Z</time>
      </trkpt>
      <trkpt lat="48.10015" lon="7.31602">
        <ele>209.5</ele>
        <time>2019-08-09T15:59:42Z</time>
      </trkpt>
      <trkpt lat="48.10014" lon="7.31611">
        <ele>209.4</ele>
        <time>2019-08-09T15:59:43Z</time>
      </trkpt>
      <trkpt lat="48.10012" lon="7.3162">
        <ele>209.2</ele>
        <time>2019-08-09T15:59:44Z</time>
      </trkpt>
      <trkpt lat="48.1001" lon="7.31629">
        <ele>209.1</ele>
        <time>2019-08-09T15:59:45Z</time>
      </trkpt>
      <trkpt lat="48.10008" lon="7.31639">
        <ele>209</ele>
        <time>2019-08-09T15:59:46Z</time>
      </trkpt>
      <trkpt lat="48.10006" lon="7.31648">
        <ele>209</ele>
        <time>2019-08-09T15:59:47Z</time>
      </trkpt>
      <trkpt lat="48.10004" lon="7.31657">
        <ele>209</ele>
        <time>2019-08-09T15:59:48Z</time>
      </trkpt>
      <trkpt lat="48.10002" lon="7.31666">
        <ele>208.9</ele>
        <time>2019-08-09T15:59:49Z</time>
      </trkpt>
      <trkpt lat="48.09999" lon="7.31674">
        <ele>208.9</ele>
        <time>2019-08-09T15:59:50Z</time>
      </trkpt>
      <trkpt lat="48.09997" lon="7.31683">
        <ele>208.8</ele>
        <time>2019-08-09T15:59:51Z</time>
      </trkpt>
      <trkpt lat="48.09995" lon="7.3169">
        <ele>208.7</ele>
        <time>2019-08-09T15:59:52Z</time>
      </trkpt>
      <trkpt lat="48.09994" lon="7.31694">
        <ele>208.7</ele>
        <time>2019-08-09T15:59:53Z</time>
      </trkpt>
      <trkpt lat="48.09991" lon="7.31697">
        <ele>208.7</ele>
        <time>2019-08-09T15:59:55Z</time>
      </trkpt>
      <trkpt lat="48.09988" lon="7.317">
        <ele>209.2</ele>
        <time>2019-08-09T15:59:57Z</time>
      </trkpt>
      <trkpt lat="48.09982" lon="7.31697">
        <ele>209.4</ele>
        <time>2019-08-09T16:00:49Z</time>
      </trkpt>
      <trkpt lat="48.09978" lon="7.31692">
        <ele>209.5</ele>
        <time>2019-08-09T16:00:51Z</time>
      </trkpt>
      <trkpt lat="48.09976" lon="7.31689">
        <ele>209.6</ele>
        <time>2019-08-09T16:00:52Z</time>
      </trkpt>
      <trkpt lat="48.09974" lon="7.31685">
        <ele>209.6</ele>
        <time>2019-08-09T16:00:53Z</time>
      </trkpt>
      <trkpt lat="48.0997" lon="7.31681">
        <ele>209.7</ele>
        <time>2019-08-09T16:00:55Z</time>
      </trkpt>
      <trkpt lat="48.09966" lon="7.31676">
        <ele>209.8</ele>
        <time>2019-08-09T16:00:57Z</time>
      </trkpt>
      <trkpt lat="48.09963" lon="7.31673">
        <ele>209.9</ele>
        <time>2019-08-09T16:00:58Z</time>
      </trkpt>
      <trkpt lat="48.0996" lon="7.3167">
        <ele>210</ele>
        <time>2019-08-09T16:00:59Z</time>
      </trkpt>
      <trkpt lat="48.09958" lon="7.31667">
        <ele>210</ele>
        <time>2019-08-09T16:01:00Z</time>
      </trkpt>
      <trkpt lat="48.09956" lon="7.31665">
        <ele>210.1</ele>
        <time>2019-08-09T16:01:01Z</time>
      </trkpt>
      <trkpt lat="48.09953" lon="7.31661">
        <ele>210.1</ele>
        <time>2019-08-09T16:01:02Z</time>
      </trkpt>
      <trkpt lat="48.09951" lon="7.31658">
        <ele>210.2</ele>
        <time>2019-08-09T16:01:03Z</time>
      </trkpt>
      <trkpt lat="48.09948" lon="7.31654">
        <ele>210.3</ele>
        <time>2019-08-09T16:01:04Z</time>
      </trkpt>
      <trkpt lat="48.09947" lon="7.3165">
        <ele>210.3</ele>
        <time>2019-08-09T16:01:05Z</time>
      </trkpt>
      <trkpt lat="48.09945" lon="7.31646">
        <ele>210.4</ele>
        <time>2019-08-09T16:01:06Z</time>
      </trkpt>
      <trkpt lat="48.09943" lon="7.31641">
        <ele>210.4</ele>
        <time>2019-08-09T16:01:07Z</time>
      </trkpt>
      <trkpt lat="48.09941" lon="7.31638">
        <ele>210.5</ele>
        <time>2019-08-09T16:01:08Z</time>
      </trkpt>
      <trkpt lat="48.09938" lon="7.31635">
        <ele>210.5</ele>
        <time>2019-08-09T16:01:09Z</time>
      </trkpt>
      <trkpt lat="48.09936" lon="7.31632">
        <ele>210.5</ele>
        <time>2019-08-09T16:01:10Z</time>
      </trkpt>
      <trkpt lat="48.09935" lon="7.31628">
        <ele>210.5</ele>
        <time>2019-08-09T16:01:11Z</time>
      </trkpt>
      <trkpt lat="48.09933" lon="7.31624">
        <ele>210.5</ele>
        <time>2019-08-09T16:01:12Z</time>
      </trkpt>
      <trkpt lat="48.09929" lon="7.31617">
        <ele>210.6</ele>
        <time>2019-08-09T16:01:14Z</time>
      </trkpt>
      <trkpt lat="48.09927" lon="7.31612">
        <ele>210.6</ele>
        <time>2019-08-09T16:01:15Z</time>
      </trkpt>
      <trkpt lat="48.09925" lon="7.31608">
        <ele>210.6</ele>
        <time>2019-08-09T16:01:16Z</time>
      </trkpt>
      <trkpt lat="48.09924" lon="7.31604">
        <ele>210.6</ele>
        <time>2019-08-09T16:01:17Z</time>
      </trkpt>
      <trkpt lat="48.09922" lon="7.31601">
        <ele>210.6</ele>
        <time>2019-08-09T16:01:18Z</time>
      </trkpt>
      <trkpt lat="48.09921" lon="7.31596">
        <ele>210.6</ele>
        <time>2019-08-09T16:01:19Z</time>
      </trkpt>
      <trkpt lat="48.09919" lon="7.31592">
        <ele>210.6</ele>
        <time>2019-08-09T16:01:20Z</time>
      </trkpt>
      <trkpt lat="48.09917" lon="7.31588">
        <ele>210.6</ele>
        <time>2019-08-09T16:01:21Z</time>
      </trkpt>
      <trkpt lat="48.09916" lon="7.31583">
        <ele>210.6</ele>
        <time>2019-08-09T16:01:22Z</time>
      </trkpt>
      <trkpt lat="48.09914" lon="7.31579">
        <ele>210.6</ele>
        <time>2019-08-09T16:01:23Z</time>
      </trkpt>
      <trkpt lat="48.09912" lon="7.31575">
        <ele>210.6</ele>
        <time>2019-08-09T16:01:24Z</time>
      </trkpt>
      <trkpt lat="48.09911" lon="7.31571">
        <ele>210.6</ele>
        <time>2019-08-09T16:01:25Z</time>
      </trkpt>
      <trkpt lat="48.09909" lon="7.31567">
        <ele>210.6</ele>
        <time>2019-08-09T16:01:26Z</time>
      </trkpt>
      <trkpt lat="48.09907" lon="7.31562">
        <ele>210.6</ele>
        <time>2019-08-09T16:01:27Z</time>
      </trkpt>
      <trkpt lat="48.09905" lon="7.31558">
        <ele>210.6</ele>
        <time>2019-08-09T16:01:28Z</time>
      </trkpt>
      <trkpt lat="48.09904" lon="7.31555">
        <ele>210.6</ele>
        <time>2019-08-09T16:01:29Z</time>
      </trkpt>
      <trkpt lat="48.09902" lon="7.31551">
        <ele>210.6</ele>
        <time>2019-08-09T16:01:30Z</time>
      </trkpt>
      <trkpt lat="48.09901" lon="7.31546">
        <ele>210.6</ele>
        <time>2019-08-09T16:01:31Z</time>
      </trkpt>
      <trkpt lat="48.09899" lon="7.31542">
        <ele>210.7</ele>
        <time>2019-08-09T16:01:32Z</time>
      </trkpt>
      <trkpt lat="48.09897" lon="7.31537">
        <ele>210.7</ele>
        <time>2019-08-09T16:01:33Z</time>
      </trkpt>
      <trkpt lat="48.09895" lon="7.31532">
        <ele>210.8</ele>
        <time>2019-08-09T16:01:34Z</time>
      </trkpt>
      <trkpt lat="48.09893" lon="7.31528">
        <ele>210.8</ele>
        <time>2019-08-09T16:01:35Z</time>
      </trkpt>
      <trkpt lat="48.09892" lon="7.31525">
        <ele>210.9</ele>
        <time>2019-08-09T16:01:36Z</time>
      </trkpt>
      <trkpt lat="48.09891" lon="7.3152">
        <ele>210.9</ele>
        <time>2019-08-09T16:01:37Z</time>
      </trkpt>
      <trkpt lat="48.09889" lon="7.31516">
        <ele>211</ele>
        <time>2019-08-09T16:01:38Z</time>
      </trkpt>
      <trkpt lat="48.09887" lon="7.31511">
        <ele>211.1</ele>
        <time>2019-08-09T16:01:39Z</time>
      </trkpt>
      <trkpt lat="48.09886" lon="7.31507">
        <ele>211.2</ele>
        <time>2019-08-09T16:01:40Z</time>
      </trkpt>
      <trkpt lat="48.09884" lon="7.31502">
        <ele>211.2</ele>
        <time>2019-08-09T16:01:41Z</time>
      </trkpt>
      <trkpt lat="48.09883" lon="7.31498">
        <ele>211.3</ele>
        <time>2019-08-09T16:01:42Z</time>
      </trkpt>
      <trkpt lat="48.0988" lon="7.31494">
        <ele>211.4</ele>
        <time>2019-08-09T16:01:43Z</time>
      </trkpt>
      <trkpt lat="48.09878" lon="7.3149">
        <ele>211.4</ele>
        <time>2019-08-09T16:01:44Z</time>
      </trkpt>
      <trkpt lat="48.09877" lon="7.31487">
        <ele>211.5</ele>
        <time>2019-08-09T16:01:45Z</time>
      </trkpt>
      <trkpt lat="48.09875" lon="7.31482">
        <ele>211.5</ele>
        <time>2019-08-09T16:01:46Z</time>
      </trkpt>
      <trkpt lat="48.09873" lon="7.31477">
        <ele>211.6</ele>
        <time>2019-08-09T16:01:47Z</time>
      </trkpt>
      <trkpt lat="48.09871" lon="7.31473">
        <ele>211.6</ele>
        <time>2019-08-09T16:01:48Z</time>
      </trkpt>
      <trkpt lat="48.09869" lon="7.31469">
        <ele>211.6</ele>
        <time>2019-08-09T16:01:49Z</time>
      </trkpt>
      <trkpt lat="48.09868" lon="7.31464">
        <ele>211.6</ele>
        <time>2019-08-09T16:01:50Z</time>
      </trkpt>
      <trkpt lat="48.09866" lon="7.3146">
        <ele>211.6</ele>
        <time>2019-08-09T16:01:51Z</time>
      </trkpt>
      <trkpt lat="48.09864" lon="7.31456">
        <ele>211.6</ele>
        <time>2019-08-09T16:01:52Z</time>
      </trkpt>
      <trkpt lat="48.09862" lon="7.31452">
        <ele>211.6</ele>
        <time>2019-08-09T16:01:53Z</time>
      </trkpt>
      <trkpt lat="48.0986" lon="7.31447">
        <ele>211.6</ele>
        <time>2019-08-09T16:01:54Z</time>
      </trkpt>
      <trkpt lat="48.09858" lon="7.31443">
        <ele>211.6</ele>
        <time>2019-08-09T16:01:55Z</time>
      </trkpt>
      <trkpt lat="48.09855" lon="7.31439">
        <ele>211.6</ele>
        <time>2019-08-09T16:01:56Z</time>
      </trkpt>
      <trkpt lat="48.09853" lon="7.31435">
        <ele>211.6</ele>
        <time>2019-08-09T16:01:57Z</time>
      </trkpt>
      <trkpt lat="48.09851" lon="7.3143">
        <ele>211.6</ele>
        <time>2019-08-09T16:01:58Z</time>
      </trkpt>
      <trkpt lat="48.09849" lon="7.31426">
        <ele>211.6</ele>
        <time>2019-08-09T16:01:59Z</time>
      </trkpt>
      <trkpt lat="48.09847" lon="7.31422">
        <ele>211.6</ele>
        <time>2019-08-09T16:02:00Z</time>
      </trkpt>
      <trkpt lat="48.09845" lon="7.31418">
        <ele>211.6</ele>
        <time>2019-08-09T16:02:01Z</time>
      </trkpt>
      <trkpt lat="48.09843" lon="7.31415">
        <ele>211.6</ele>
        <time>2019-08-09T16:02:02Z</time>
      </trkpt>
      <trkpt lat="48.09841" lon="7.3141">
        <ele>211.6</ele>
        <time>2019-08-09T16:02:03Z</time>
      </trkpt>
      <trkpt lat="48.09839" lon="7.31406">
        <ele>211.6</ele>
        <time>2019-08-09T16:02:04Z</time>
      </trkpt>
      <trkpt lat="48.09837" lon="7.31402">
        <ele>211.6</ele>
        <time>2019-08-09T16:02:05Z</time>
      </trkpt>
      <trkpt lat="48.09836" lon="7.31398">
        <ele>211.6</ele>
        <time>2019-08-09T16:02:06Z</time>
      </trkpt>
      <trkpt lat="48.09834" lon="7.31394">
        <ele>211.6</ele>
        <time>2019-08-09T16:02:07Z</time>
      </trkpt>
      <trkpt lat="48.09832" lon="7.3139">
        <ele>211.6</ele>
        <time>2019-08-09T16:02:08Z</time>
      </trkpt>
      <trkpt lat="48.09829" lon="7.31385">
        <ele>211.6</ele>
        <time>2019-08-09T16:02:09Z</time>
      </trkpt>
      <trkpt lat="48.09827" lon="7.31381">
        <ele>211.6</ele>
        <time>2019-08-09T16:02:10Z</time>
      </trkpt>
      <trkpt lat="48.09824" lon="7.31377">
        <ele>211.6</ele>
        <time>2019-08-09T16:02:11Z</time>
      </trkpt>
      <trkpt lat="48.09822" lon="7.31373">
        <ele>211.6</ele>
        <time>2019-08-09T16:02:12Z</time>
      </trkpt>
      <trkpt lat="48.09819" lon="7.31369">
        <ele>211.6</ele>
        <time>2019-08-09T16:02:13Z</time>
      </trkpt>
      <trkpt lat="48.09817" lon="7.31365">
        <ele>211.6</ele>
        <time>2019-08-09T16:02:14Z</time>
      </trkpt>
      <trkpt lat="48.09815" lon="7.3136">
        <ele>211.6</ele>
        <time>2019-08-09T16:02:15Z</time>
      </trkpt>
      <trkpt lat="48.09812" lon="7.31356">
        <ele>211.6</ele>
        <time>2019-08-09T16:02:16Z</time>
      </trkpt>
      <trkpt lat="48.0981" lon="7.31351">
        <ele>211.6</ele>
        <time>2019-08-09T16:02:17Z</time>
      </trkpt>
      <trkpt lat="48.09808" lon="7.31347">
        <ele>211.6</ele>
        <time>2019-08-09T16:02:18Z</time>
      </trkpt>
      <trkpt lat="48.09805" lon="7.31342">
        <ele>211.6</ele>
        <time>2019-08-09T16:02:19Z</time>
      </trkpt>
      <trkpt lat="48.09803" lon="7.31338">
        <ele>211.6</ele>
        <time>2019-08-09T16:02:20Z</time>
      </trkpt>
      <trkpt lat="48.09801" lon="7.31334">
        <ele>211.6</ele>
        <time>2019-08-09T16:02:21Z</time>
      </trkpt>
      <trkpt lat="48.09799" lon="7.3133">
        <ele>211.6</ele>
        <time>2019-08-09T16:02:22Z</time>
      </trkpt>
      <trkpt lat="48.09797" lon="7.31326">
        <ele>211.6</ele>
        <time>2019-08-09T16:02:23Z</time>
      </trkpt>
      <trkpt lat="48.09795" lon="7.31323">
        <ele>211.6</ele>
        <time>2019-08-09T16:02:24Z</time>
      </trkpt>
      <trkpt lat="48.09793" lon="7.31319">
        <ele>211.6</ele>
        <time>2019-08-09T16:02:25Z</time>
      </trkpt>
      <trkpt lat="48.0979" lon="7.31316">
        <ele>211.6</ele>
        <time>2019-08-09T16:02:26Z</time>
      </trkpt>
      <trkpt lat="48.09787" lon="7.31313">
        <ele>211.6</ele>
        <time>2019-08-09T16:02:27Z</time>
      </trkpt>
      <trkpt lat="48.09784" lon="7.3131">
        <ele>211.6</ele>
        <time>2019-08-09T16:02:28Z</time>
      </trkpt>
      <trkpt lat="48.09782" lon="7.31308">
        <ele>211.6</ele>
        <time>2019-08-09T16:02:29Z</time>
      </trkpt>
      <trkpt lat="48.09779" lon="7.31306">
        <ele>211.6</ele>
        <time>2019-08-09T16:02:30Z</time>
      </trkpt>
      <trkpt lat="48.09774" lon="7.31302">
        <ele>211.6</ele>
        <time>2019-08-09T16:02:32Z</time>
      </trkpt>
      <trkpt lat="48.09772" lon="7.31301">
        <ele>211.6</ele>
        <time>2019-08-09T16:02:33Z</time>
      </trkpt>
      <trkpt lat="48.09769" lon="7.31298">
        <ele>211.5</ele>
        <time>2019-08-09T16:02:34Z</time>
      </trkpt>
      <trkpt lat="48.09767" lon="7.31294">
        <ele>211.5</ele>
        <time>2019-08-09T16:02:35Z</time>
      </trkpt>
      <trkpt lat="48.09765" lon="7.31285">
        <ele>211.4</ele>
        <time>2019-08-09T16:02:37Z</time>
      </trkpt>
      <trkpt lat="48.09764" lon="7.31278">
        <ele>211.4</ele>
        <time>2019-08-09T16:02:38Z</time>
      </trkpt>
      <trkpt lat="48.09762" lon="7.31272">
        <ele>211.3</ele>
        <time>2019-08-09T16:02:39Z</time>
      </trkpt>
      <trkpt lat="48.0976" lon="7.31265">
        <ele>211.3</ele>
        <time>2019-08-09T16:02:40Z</time>
      </trkpt>
      <trkpt lat="48.09754" lon="7.31253">
        <ele>211.3</ele>
        <time>2019-08-09T16:02:42Z</time>
      </trkpt>
      <trkpt lat="48.09751" lon="7.31247">
        <ele>211.4</ele>
        <time>2019-08-09T16:02:43Z</time>
      </trkpt>
      <trkpt lat="48.09749" lon="7.31241">
        <ele>211.4</ele>
        <time>2019-08-09T16:02:44Z</time>
      </trkpt>
      <trkpt lat="48.09748" lon="7.31235">
        <ele>211.4</ele>
        <time>2019-08-09T16:02:45Z</time>
      </trkpt>
      <trkpt lat="48.09745" lon="7.31228">
        <ele>211.5</ele>
        <time>2019-08-09T16:02:46Z</time>
      </trkpt>
      <trkpt lat="48.09741" lon="7.31224">
        <ele>211.7</ele>
        <time>2019-08-09T16:02:47Z</time>
      </trkpt>
      <trkpt lat="48.09739" lon="7.31219">
        <ele>211.8</ele>
        <time>2019-08-09T16:02:48Z</time>
      </trkpt>
      <trkpt lat="48.09738" lon="7.31214">
        <ele>211.9</ele>
        <time>2019-08-09T16:02:49Z</time>
      </trkpt>
      <trkpt lat="48.09736" lon="7.31206">
        <ele>212.1</ele>
        <time>2019-08-09T16:02:51Z</time>
      </trkpt>
      <trkpt lat="48.09734" lon="7.31202">
        <ele>212.1</ele>
        <time>2019-08-09T16:02:52Z</time>
      </trkpt>
      <trkpt lat="48.09731" lon="7.31197">
        <ele>212.2</ele>
        <time>2019-08-09T16:02:54Z</time>
      </trkpt>
      <trkpt lat="48.09728" lon="7.31191">
        <ele>212.3</ele>
        <time>2019-08-09T16:02:56Z</time>
      </trkpt>
      <trkpt lat="48.09726" lon="7.31188">
        <ele>212.3</ele>
        <time>2019-08-09T16:02:57Z</time>
      </trkpt>
      <trkpt lat="48.09724" lon="7.31185">
        <ele>212.3</ele>
        <time>2019-08-09T16:02:58Z</time>
      </trkpt>
      <trkpt lat="48.09722" lon="7.31179">
        <ele>212.3</ele>
        <time>2019-08-09T16:03:00Z</time>
      </trkpt>
      <trkpt lat="48.09721" lon="7.31171">
        <ele>212.3</ele>
        <time>2019-08-09T16:03:02Z</time>
      </trkpt>
      <trkpt lat="48.09722" lon="7.31165">
        <ele>212.3</ele>
        <time>2019-08-09T16:03:04Z</time>
      </trkpt>
      <trkpt lat="48.09725" lon="7.31161">
        <ele>212.3</ele>
        <time>2019-08-09T16:03:05Z</time>
      </trkpt>
      <trkpt lat="48.09727" lon="7.31158">
        <ele>212.3</ele>
        <time>2019-08-09T16:03:06Z</time>
      </trkpt>
      <trkpt lat="48.0973" lon="7.31154">
        <ele>212.3</ele>
        <time>2019-08-09T16:03:07Z</time>
      </trkpt>
      <trkpt lat="48.09733" lon="7.3115">
        <ele>212.3</ele>
        <time>2019-08-09T16:03:08Z</time>
      </trkpt>
      <trkpt lat="48.09736" lon="7.31147">
        <ele>212.3</ele>
        <time>2019-08-09T16:03:09Z</time>
      </trkpt>
      <trkpt lat="48.09739" lon="7.31143">
        <ele>212.4</ele>
        <time>2019-08-09T16:03:10Z</time>
      </trkpt>
      <trkpt lat="48.09742" lon="7.31139">
        <ele>212.4</ele>
        <time>2019-08-09T16:03:11Z</time>
      </trkpt>
      <trkpt lat="48.09745" lon="7.31136">
        <ele>212.4</ele>
        <time>2019-08-09T16:03:12Z</time>
      </trkpt>
      <trkpt lat="48.09748" lon="7.31132">
        <ele>212.4</ele>
        <time>2019-08-09T16:03:13Z</time>
      </trkpt>
      <trkpt lat="48.0975" lon="7.31128">
        <ele>212.4</ele>
        <time>2019-08-09T16:03:14Z</time>
      </trkpt>
      <trkpt lat="48.09752" lon="7.31124">
        <ele>212.3</ele>
        <time>2019-08-09T16:03:15Z</time>
      </trkpt>
      <trkpt lat="48.09754" lon="7.3112">
        <ele>212.3</ele>
        <time>2019-08-09T16:03:16Z</time>
      </trkpt>
      <trkpt lat="48.09757" lon="7.31118">
        <ele>212.3</ele>
        <time>2019-08-09T16:03:17Z</time>
      </trkpt>
      <trkpt lat="48.09759" lon="7.31115">
        <ele>212.3</ele>
        <time>2019-08-09T16:03:18Z</time>
      </trkpt>
      <trkpt lat="48.09762" lon="7.31108">
        <ele>212.2</ele>
        <time>2019-08-09T16:03:20Z</time>
      </trkpt>
      <trkpt lat="48.09763" lon="7.31103">
        <ele>212.2</ele>
        <time>2019-08-09T16:03:21Z</time>
      </trkpt>
      <trkpt lat="48.09763" lon="7.31099">
        <ele>212.2</ele>
        <time>2019-08-09T16:03:22Z</time>
      </trkpt>
      <trkpt lat="48.0976" lon="7.31096">
        <ele>212.2</ele>
        <time>2019-08-09T16:03:23Z</time>
      </trkpt>
      <trkpt lat="48.09758" lon="7.31093">
        <ele>212.2</ele>
        <time>2019-08-09T16:03:24Z</time>
      </trkpt>
      <trkpt lat="48.09757" lon="7.31089">
        <ele>212.2</ele>
        <time>2019-08-09T16:03:25Z</time>
      </trkpt>
      <trkpt lat="48.09755" lon="7.31086">
        <ele>212.2</ele>
        <time>2019-08-09T16:03:26Z</time>
      </trkpt>
      <trkpt lat="48.09753" lon="7.31083">
        <ele>212.2</ele>
        <time>2019-08-09T16:03:27Z</time>
      </trkpt>
      <trkpt lat="48.0975" lon="7.31081">
        <ele>212.3</ele>
        <time>2019-08-09T16:03:28Z</time>
      </trkpt>
      <trkpt lat="48.09748" lon="7.31076">
        <ele>212.3</ele>
        <time>2019-08-09T16:03:29Z</time>
      </trkpt>
      <trkpt lat="48.09744" lon="7.31069">
        <ele>212.3</ele>
        <time>2019-08-09T16:03:31Z</time>
      </trkpt>
      <trkpt lat="48.09742" lon="7.31064">
        <ele>212.4</ele>
        <time>2019-08-09T16:03:32Z</time>
      </trkpt>
      <trkpt lat="48.0974" lon="7.31059">
        <ele>212.5</ele>
        <time>2019-08-09T16:03:33Z</time>
      </trkpt>
      <trkpt lat="48.09737" lon="7.31057">
        <ele>212.5</ele>
        <time>2019-08-09T16:03:34Z</time>
      </trkpt>
      <trkpt lat="48.09734" lon="7.31052">
        <ele>212.6</ele>
        <time>2019-08-09T16:03:35Z</time>
      </trkpt>
      <trkpt lat="48.09732" lon="7.31048">
        <ele>212.8</ele>
        <time>2019-08-09T16:03:36Z</time>
      </trkpt>
      <trkpt lat="48.0973" lon="7.31044">
        <ele>212.9</ele>
        <time>2019-08-09T16:03:37Z</time>
      </trkpt>
      <trkpt lat="48.09728" lon="7.31039">
        <ele>213</ele>
        <time>2019-08-09T16:03:38Z</time>
      </trkpt>
      <trkpt lat="48.09726" lon="7.31035">
        <ele>213.1</ele>
        <time>2019-08-09T16:03:39Z</time>
      </trkpt>
      <trkpt lat="48.09724" lon="7.31032">
        <ele>213.2</ele>
        <time>2019-08-09T16:03:40Z</time>
      </trkpt>
      <trkpt lat="48.09722" lon="7.31028">
        <ele>213.3</ele>
        <time>2019-08-09T16:03:41Z</time>
      </trkpt>
      <trkpt lat="48.0972" lon="7.31024">
        <ele>213.4</ele>
        <time>2019-08-09T16:03:42Z</time>
      </trkpt>
      <trkpt lat="48.09717" lon="7.31019">
        <ele>213.6</ele>
        <time>2019-08-09T16:03:43Z</time>
      </trkpt>
      <trkpt lat="48.09715" lon="7.31016">
        <ele>213.6</ele>
        <time>2019-08-09T16:03:44Z</time>
      </trkpt>
      <trkpt lat="48.09712" lon="7.31012">
        <ele>213.7</ele>
        <time>2019-08-09T16:03:45Z</time>
      </trkpt>
      <trkpt lat="48.0971" lon="7.31008">
        <ele>213.8</ele>
        <time>2019-08-09T16:03:46Z</time>
      </trkpt>
      <trkpt lat="48.09708" lon="7.31004">
        <ele>213.8</ele>
        <time>2019-08-09T16:03:47Z</time>
      </trkpt>
      <trkpt lat="48.09705" lon="7.30999">
        <ele>213.8</ele>
        <time>2019-08-09T16:03:48Z</time>
      </trkpt>
      <trkpt lat="48.09702" lon="7.30995">
        <ele>213.8</ele>
        <time>2019-08-09T16:03:49Z</time>
      </trkpt>
      <trkpt lat="48.09699" lon="7.3099">
        <ele>213.9</ele>
        <time>2019-08-09T16:03:50Z</time>
      </trkpt>
      <trkpt lat="48.09698" lon="7.30987">
        <ele>213.9</ele>
        <time>2019-08-09T16:03:51Z</time>
      </trkpt>
      <trkpt lat="48.09695" lon="7.30981">
        <ele>213.9</ele>
        <time>2019-08-09T16:03:52Z</time>
      </trkpt>
      <trkpt lat="48.09692" lon="7.30976">
        <ele>213.9</ele>
        <time>2019-08-09T16:03:53Z</time>
      </trkpt>
      <trkpt lat="48.0969" lon="7.30972">
        <ele>213.9</ele>
        <time>2019-08-09T16:03:54Z</time>
      </trkpt>
      <trkpt lat="48.09688" lon="7.30967">
        <ele>213.9</ele>
        <time>2019-08-09T16:03:55Z</time>
      </trkpt>
      <trkpt lat="48.09686" lon="7.30963">
        <ele>213.9</ele>
        <time>2019-08-09T16:03:56Z</time>
      </trkpt>
      <trkpt lat="48.09683" lon="7.3096">
        <ele>213.9</ele>
        <time>2019-08-09T16:03:57Z</time>
      </trkpt>
      <trkpt lat="48.0968" lon="7.30955">
        <ele>213.9</ele>
        <time>2019-08-09T16:03:58Z</time>
      </trkpt>
      <trkpt lat="48.09677" lon="7.3095">
        <ele>213.9</ele>
        <time>2019-08-09T16:03:59Z</time>
      </trkpt>
      <trkpt lat="48.09675" lon="7.30945">
        <ele>213.9</ele>
        <time>2019-08-09T16:04:00Z</time>
      </trkpt>
      <trkpt lat="48.09672" lon="7.30942">
        <ele>213.9</ele>
        <time>2019-08-09T16:04:01Z</time>
      </trkpt>
      <trkpt lat="48.0967" lon="7.30937">
        <ele>213.9</ele>
        <time>2019-08-09T16:04:02Z</time>
      </trkpt>
      <trkpt lat="48.09668" lon="7.30933">
        <ele>213.9</ele>
        <time>2019-08-09T16:04:03Z</time>
      </trkpt>
      <trkpt lat="48.09665" lon="7.30929">
        <ele>213.9</ele>
        <time>2019-08-09T16:04:04Z</time>
      </trkpt>
      <trkpt lat="48.09662" lon="7.30925">
        <ele>214</ele>
        <time>2019-08-09T16:04:05Z</time>
      </trkpt>
      <trkpt lat="48.09659" lon="7.3092">
        <ele>214</ele>
        <time>2019-08-09T16:04:06Z</time>
      </trkpt>
      <trkpt lat="48.09657" lon="7.30917">
        <ele>214</ele>
        <time>2019-08-09T16:04:07Z</time>
      </trkpt>
      <trkpt lat="48.09655" lon="7.30913">
        <ele>214</ele>
        <time>2019-08-09T16:04:08Z</time>
      </trkpt>
      <trkpt lat="48.09653" lon="7.30909">
        <ele>214</ele>
        <time>2019-08-09T16:04:09Z</time>
      </trkpt>
      <trkpt lat="48.09649" lon="7.30904">
        <ele>214</ele>
        <time>2019-08-09T16:04:11Z</time>
      </trkpt>
      <trkpt lat="48.09648" lon="7.309">
        <ele>214</ele>
        <time>2019-08-09T16:04:12Z</time>
      </trkpt>
      <trkpt lat="48.09647" lon="7.30897">
        <ele>214</ele>
        <time>2019-08-09T16:04:13Z</time>
      </trkpt>
      <trkpt lat="48.09646" lon="7.30892">
        <ele>214</ele>
        <time>2019-08-09T16:04:15Z</time>
      </trkpt>
      <trkpt lat="48.0965" lon="7.30889">
        <ele>214</ele>
        <time>2019-08-09T16:04:18Z</time>
      </trkpt>
      <trkpt lat="48.09654" lon="7.30884">
        <ele>214</ele>
        <time>2019-08-09T16:04:20Z</time>
      </trkpt>
      <trkpt lat="48.09656" lon="7.30881">
        <ele>214.1</ele>
        <time>2019-08-09T16:04:21Z</time>
      </trkpt>
      <trkpt lat="48.09658" lon="7.30878">
        <ele>214.1</ele>
        <time>2019-08-09T16:04:22Z</time>
      </trkpt>
      <trkpt lat="48.09661" lon="7.30873">
        <ele>214.1</ele>
        <time>2019-08-09T16:04:24Z</time>
      </trkpt>
      <trkpt lat="48.09663" lon="7.30869">
        <ele>214.1</ele>
        <time>2019-08-09T16:04:26Z</time>
      </trkpt>
      <trkpt lat="48.09666" lon="7.30865">
        <ele>214.1</ele>
        <time>2019-08-09T16:04:28Z</time>
      </trkpt>
      <trkpt lat="48.09667" lon="7.30859">
        <ele>214.1</ele>
        <time>2019-08-09T16:04:30Z</time>
      </trkpt>
      <trkpt lat="48.09666" lon="7.30855">
        <ele>214.1</ele>
        <time>2019-08-09T16:04:32Z</time>
      </trkpt>
      <trkpt lat="48.09665" lon="7.30851">
        <ele>214.1</ele>
        <time>2019-08-09T16:04:33Z</time>
      </trkpt>
      <trkpt lat="48.09663" lon="7.30846">
        <ele>214.1</ele>
        <time>2019-08-09T16:04:34Z</time>
      </trkpt>
      <trkpt lat="48.09661" lon="7.30841">
        <ele>214.1</ele>
        <time>2019-08-09T16:04:35Z</time>
      </trkpt>
      <trkpt lat="48.09658" lon="7.30837">
        <ele>214.1</ele>
        <time>2019-08-09T16:04:36Z</time>
      </trkpt>
      <trkpt lat="48.09656" lon="7.30832">
        <ele>214.1</ele>
        <time>2019-08-09T16:04:37Z</time>
      </trkpt>
      <trkpt lat="48.09653" lon="7.30829">
        <ele>214.1</ele>
        <time>2019-08-09T16:04:38Z</time>
      </trkpt>
      <trkpt lat="48.0965" lon="7.30826">
        <ele>214.2</ele>
        <time>2019-08-09T16:04:39Z</time>
      </trkpt>
      <trkpt lat="48.09648" lon="7.30822">
        <ele>214.2</ele>
        <time>2019-08-09T16:04:40Z</time>
      </trkpt>
      <trkpt lat="48.09647" lon="7.30816">
        <ele>214.2</ele>
        <time>2019-08-09T16:04:41Z</time>
      </trkpt>
      <trkpt lat="48.09645" lon="7.30811">
        <ele>214.2</ele>
        <time>2019-08-09T16:04:42Z</time>
      </trkpt>
      <trkpt lat="48.09642" lon="7.30805">
        <ele>214.3</ele>
        <time>2019-08-09T16:04:43Z</time>
      </trkpt>
      <trkpt lat="48.0964" lon="7.308">
        <ele>214.3</ele>
        <time>2019-08-09T16:04:44Z</time>
      </trkpt>
      <trkpt lat="48.09637" lon="7.30795">
        <ele>214.3</ele>
        <time>2019-08-09T16:04:45Z</time>
      </trkpt>
      <trkpt lat="48.09635" lon="7.3079">
        <ele>214.4</ele>
        <time>2019-08-09T16:04:46Z</time>
      </trkpt>
      <trkpt lat="48.09633" lon="7.30786">
        <ele>214.4</ele>
        <time>2019-08-09T16:04:47Z</time>
      </trkpt>
      <trkpt lat="48.0963" lon="7.30783">
        <ele>214.4</ele>
        <time>2019-08-09T16:04:48Z</time>
      </trkpt>
      <trkpt lat="48.09629" lon="7.30779">
        <ele>214.4</ele>
        <time>2019-08-09T16:04:49Z</time>
      </trkpt>
      <trkpt lat="48.09627" lon="7.30776">
        <ele>214.5</ele>
        <time>2019-08-09T16:04:50Z</time>
      </trkpt>
      <trkpt lat="48.09624" lon="7.30771">
        <ele>214.5</ele>
        <time>2019-08-09T16:04:51Z</time>
      </trkpt>
      <trkpt lat="48.09621" lon="7.30767">
        <ele>214.5</ele>
        <time>2019-08-09T16:04:52Z</time>
      </trkpt>
      <trkpt lat="48.09619" lon="7.30763">
        <ele>214.6</ele>
        <time>2019-08-09T16:04:53Z</time>
      </trkpt>
      <trkpt lat="48.09617" lon="7.3076">
        <ele>214.6</ele>
        <time>2019-08-09T16:04:54Z</time>
      </trkpt>
      <trkpt lat="48.09614" lon="7.30758">
        <ele>214.6</ele>
        <time>2019-08-09T16:04:55Z</time>
      </trkpt>
      <trkpt lat="48.09612" lon="7.30755">
        <ele>214.6</ele>
        <time>2019-08-09T16:04:56Z</time>
      </trkpt>
      <trkpt lat="48.09609" lon="7.30751">
        <ele>214.7</ele>
        <time>2019-08-09T16:04:57Z</time>
      </trkpt>
      <trkpt lat="48.09607" lon="7.30748">
        <ele>214.7</ele>
        <time>2019-08-09T16:04:58Z</time>
      </trkpt>
      <trkpt lat="48.09603" lon="7.30741">
        <ele>214.8</ele>
        <time>2019-08-09T16:05:00Z</time>
      </trkpt>
      <trkpt lat="48.09601" lon="7.30737">
        <ele>214.8</ele>
        <time>2019-08-09T16:05:01Z</time>
      </trkpt>
      <trkpt lat="48.096" lon="7.30733">
        <ele>214.9</ele>
        <time>2019-08-09T16:05:02Z</time>
      </trkpt>
      <trkpt lat="48.09597" lon="7.30728">
        <ele>214.9</ele>
        <time>2019-08-09T16:05:03Z</time>
      </trkpt>
      <trkpt lat="48.09595" lon="7.30724">
        <ele>215</ele>
        <time>2019-08-09T16:05:04Z</time>
      </trkpt>
      <trkpt lat="48.09592" lon="7.30718">
        <ele>215</ele>
        <time>2019-08-09T16:05:05Z</time>
      </trkpt>
      <trkpt lat="48.0959" lon="7.30713">
        <ele>215.2</ele>
        <time>2019-08-09T16:05:06Z</time>
      </trkpt>
      <trkpt lat="48.09587" lon="7.30707">
        <ele>215.2</ele>
        <time>2019-08-09T16:05:08Z</time>
      </trkpt>
      <trkpt lat="48.09584" lon="7.30703">
        <ele>215.1</ele>
        <time>2019-08-09T16:05:09Z</time>
      </trkpt>
      <trkpt lat="48.09582" lon="7.307">
        <ele>215.1</ele>
        <time>2019-08-09T16:05:10Z</time>
      </trkpt>
      <trkpt lat="48.0958" lon="7.30695">
        <ele>215.2</ele>
        <time>2019-08-09T16:05:11Z</time>
      </trkpt>
      <trkpt lat="48.09577" lon="7.30691">
        <ele>215.3</ele>
        <time>2019-08-09T16:05:12Z</time>
      </trkpt>
      <trkpt lat="48.09572" lon="7.30686">
        <ele>215.3</ele>
        <time>2019-08-09T16:05:13Z</time>
      </trkpt>
      <trkpt lat="48.09569" lon="7.30681">
        <ele>215.4</ele>
        <time>2019-08-09T16:05:14Z</time>
      </trkpt>
      <trkpt lat="48.09566" lon="7.30675">
        <ele>215.4</ele>
        <time>2019-08-09T16:05:15Z</time>
      </trkpt>
      <trkpt lat="48.09562" lon="7.30669">
        <ele>215.5</ele>
        <time>2019-08-09T16:05:16Z</time>
      </trkpt>
      <trkpt lat="48.09559" lon="7.30664">
        <ele>215.5</ele>
        <time>2019-08-09T16:05:17Z</time>
      </trkpt>
      <trkpt lat="48.09556" lon="7.30659">
        <ele>215.6</ele>
        <time>2019-08-09T16:05:18Z</time>
      </trkpt>
      <trkpt lat="48.09553" lon="7.30654">
        <ele>215.6</ele>
        <time>2019-08-09T16:05:19Z</time>
      </trkpt>
      <trkpt lat="48.09551" lon="7.30649">
        <ele>215.6</ele>
        <time>2019-08-09T16:05:20Z</time>
      </trkpt>
      <trkpt lat="48.09549" lon="7.30645">
        <ele>215.6</ele>
        <time>2019-08-09T16:05:21Z</time>
      </trkpt>
      <trkpt lat="48.09547" lon="7.30639">
        <ele>215.7</ele>
        <time>2019-08-09T16:05:22Z</time>
      </trkpt>
      <trkpt lat="48.09544" lon="7.30635">
        <ele>215.7</ele>
        <time>2019-08-09T16:05:23Z</time>
      </trkpt>
      <trkpt lat="48.09543" lon="7.30631">
        <ele>215.7</ele>
        <time>2019-08-09T16:05:24Z</time>
      </trkpt>
      <trkpt lat="48.0954" lon="7.30627">
        <ele>215.7</ele>
        <time>2019-08-09T16:05:25Z</time>
      </trkpt>
      <trkpt lat="48.09538" lon="7.30622">
        <ele>215.8</ele>
        <time>2019-08-09T16:05:26Z</time>
      </trkpt>
      <trkpt lat="48.09535" lon="7.30617">
        <ele>215.8</ele>
        <time>2019-08-09T16:05:27Z</time>
      </trkpt>
      <trkpt lat="48.09533" lon="7.30612">
        <ele>216.1</ele>
        <time>2019-08-09T16:05:28Z</time>
      </trkpt>
      <trkpt lat="48.09531" lon="7.30608">
        <ele>216.2</ele>
        <time>2019-08-09T16:05:29Z</time>
      </trkpt>
      <trkpt lat="48.09528" lon="7.30604">
        <ele>216.4</ele>
        <time>2019-08-09T16:05:30Z</time>
      </trkpt>
      <trkpt lat="48.09525" lon="7.30601">
        <ele>216.6</ele>
        <time>2019-08-09T16:05:31Z</time>
      </trkpt>
      <trkpt lat="48.09523" lon="7.30596">
        <ele>216.8</ele>
        <time>2019-08-09T16:05:32Z</time>
      </trkpt>
      <trkpt lat="48.0952" lon="7.30591">
        <ele>217</ele>
        <time>2019-08-09T16:05:33Z</time>
      </trkpt>
      <trkpt lat="48.09518" lon="7.30586">
        <ele>217.2</ele>
        <time>2019-08-09T16:05:34Z</time>
      </trkpt>
      <trkpt lat="48.09516" lon="7.30581">
        <ele>217.3</ele>
        <time>2019-08-09T16:05:35Z</time>
      </trkpt>
      <trkpt lat="48.09514" lon="7.30576">
        <ele>217.5</ele>
        <time>2019-08-09T16:05:36Z</time>
      </trkpt>
      <trkpt lat="48.09512" lon="7.30569">
        <ele>217.6</ele>
        <time>2019-08-09T16:05:37Z</time>
      </trkpt>
      <trkpt lat="48.09509" lon="7.30563">
        <ele>217.8</ele>
        <time>2019-08-09T16:05:38Z</time>
      </trkpt>
      <trkpt lat="48.09507" lon="7.30557">
        <ele>218</ele>
        <time>2019-08-09T16:05:39Z</time>
      </trkpt>
      <trkpt lat="48.09504" lon="7.30551">
        <ele>218.3</ele>
        <time>2019-08-09T16:05:40Z</time>
      </trkpt>
      <trkpt lat="48.09503" lon="7.30547">
        <ele>218.4</ele>
        <time>2019-08-09T16:05:41Z</time>
      </trkpt>
      <trkpt lat="48.09502" lon="7.30542">
        <ele>218.4</ele>
        <time>2019-08-09T16:05:47Z</time>
      </trkpt>
      <trkpt lat="48.09501" lon="7.30537">
        <ele>218.5</ele>
        <time>2019-08-09T16:05:49Z</time>
      </trkpt>
      <trkpt lat="48.09499" lon="7.3053">
        <ele>218.8</ele>
        <time>2019-08-09T16:05:51Z</time>
      </trkpt>
      <trkpt lat="48.09498" lon="7.30522">
        <ele>218.9</ele>
        <time>2019-08-09T16:05:53Z</time>
      </trkpt>
      <trkpt lat="48.09495" lon="7.30519">
        <ele>218.9</ele>
        <time>2019-08-09T16:05:54Z</time>
      </trkpt>
      <trkpt lat="48.09493" lon="7.30514">
        <ele>219</ele>
        <time>2019-08-09T16:05:55Z</time>
      </trkpt>
      <trkpt lat="48.09491" lon="7.30511">
        <ele>219.1</ele>
        <time>2019-08-09T16:05:56Z</time>
      </trkpt>
      <trkpt lat="48.09489" lon="7.30506">
        <ele>219.1</ele>
        <time>2019-08-09T16:05:57Z</time>
      </trkpt>
      <trkpt lat="48.09486" lon="7.30501">
        <ele>219.2</ele>
        <time>2019-08-09T16:05:58Z</time>
      </trkpt>
      <trkpt lat="48.09484" lon="7.30497">
        <ele>219.2</ele>
        <time>2019-08-09T16:05:59Z</time>
      </trkpt>
      <trkpt lat="48.09482" lon="7.30493">
        <ele>219.3</ele>
        <time>2019-08-09T16:06:00Z</time>
      </trkpt>
      <trkpt lat="48.0948" lon="7.30489">
        <ele>219.4</ele>
        <time>2019-08-09T16:06:01Z</time>
      </trkpt>
      <trkpt lat="48.09478" lon="7.30485">
        <ele>219.4</ele>
        <time>2019-08-09T16:06:02Z</time>
      </trkpt>
      <trkpt lat="48.09477" lon="7.30481">
        <ele>219.4</ele>
        <time>2019-08-09T16:06:03Z</time>
      </trkpt>
      <trkpt lat="48.09475" lon="7.30477">
        <ele>219.5</ele>
        <time>2019-08-09T16:06:04Z</time>
      </trkpt>
      <trkpt lat="48.09473" lon="7.30471">
        <ele>219.5</ele>
        <time>2019-08-09T16:06:05Z</time>
      </trkpt>
      <trkpt lat="48.0947" lon="7.30465">
        <ele>219.6</ele>
        <time>2019-08-09T16:06:06Z</time>
      </trkpt>
      <trkpt lat="48.09468" lon="7.3046">
        <ele>219.6</ele>
        <time>2019-08-09T16:06:07Z</time>
      </trkpt>
      <trkpt lat="48.09464" lon="7.30456">
        <ele>219.7</ele>
        <time>2019-08-09T16:06:08Z</time>
      </trkpt>
      <trkpt lat="48.09461" lon="7.3045">
        <ele>219.8</ele>
        <time>2019-08-09T16:06:09Z</time>
      </trkpt>
      <trkpt lat="48.09459" lon="7.30444">
        <ele>219.8</ele>
        <time>2019-08-09T16:06:10Z</time>
      </trkpt>
      <trkpt lat="48.09457" lon="7.30438">
        <ele>219.8</ele>
        <time>2019-08-09T16:06:11Z</time>
      </trkpt>
      <trkpt lat="48.09455" lon="7.30433">
        <ele>219.9</ele>
        <time>2019-08-09T16:06:12Z</time>
      </trkpt>
      <trkpt lat="48.09452" lon="7.30427">
        <ele>219.9</ele>
        <time>2019-08-09T16:06:13Z</time>
      </trkpt>
      <trkpt lat="48.09449" lon="7.30421">
        <ele>220</ele>
        <time>2019-08-09T16:06:14Z</time>
      </trkpt>
      <trkpt lat="48.09447" lon="7.30416">
        <ele>220</ele>
        <time>2019-08-09T16:06:15Z</time>
      </trkpt>
      <trkpt lat="48.09444" lon="7.30409">
        <ele>220.1</ele>
        <time>2019-08-09T16:06:16Z</time>
      </trkpt>
      <trkpt lat="48.0944" lon="7.30404">
        <ele>220.1</ele>
        <time>2019-08-09T16:06:17Z</time>
      </trkpt>
      <trkpt lat="48.09438" lon="7.304">
        <ele>220.1</ele>
        <time>2019-08-09T16:06:18Z</time>
      </trkpt>
      <trkpt lat="48.09436" lon="7.30395">
        <ele>220.1</ele>
        <time>2019-08-09T16:06:19Z</time>
      </trkpt>
      <trkpt lat="48.09434" lon="7.3039">
        <ele>220.2</ele>
        <time>2019-08-09T16:06:20Z</time>
      </trkpt>
      <trkpt lat="48.09432" lon="7.30384">
        <ele>220.2</ele>
        <time>2019-08-09T16:06:21Z</time>
      </trkpt>
      <trkpt lat="48.0943" lon="7.30379">
        <ele>220.2</ele>
        <time>2019-08-09T16:06:22Z</time>
      </trkpt>
      <trkpt lat="48.09427" lon="7.30373">
        <ele>220.2</ele>
        <time>2019-08-09T16:06:23Z</time>
      </trkpt>
      <trkpt lat="48.09425" lon="7.30367">
        <ele>220.2</ele>
        <time>2019-08-09T16:06:24Z</time>
      </trkpt>
      <trkpt lat="48.09421" lon="7.30359">
        <ele>220.2</ele>
        <time>2019-08-09T16:06:25Z</time>
      </trkpt>
      <trkpt lat="48.09419" lon="7.30354">
        <ele>220.2</ele>
        <time>2019-08-09T16:06:26Z</time>
      </trkpt>
      <trkpt lat="48.09416" lon="7.30349">
        <ele>220.2</ele>
        <time>2019-08-09T16:06:27Z</time>
      </trkpt>
      <trkpt lat="48.09412" lon="7.30341">
        <ele>220.2</ele>
        <time>2019-08-09T16:06:28Z</time>
      </trkpt>
      <trkpt lat="48.0941" lon="7.30335">
        <ele>220.2</ele>
        <time>2019-08-09T16:06:29Z</time>
      </trkpt>
      <trkpt lat="48.09408" lon="7.30329">
        <ele>220.2</ele>
        <time>2019-08-09T16:06:30Z</time>
      </trkpt>
      <trkpt lat="48.09406" lon="7.30323">
        <ele>220.2</ele>
        <time>2019-08-09T16:06:31Z</time>
      </trkpt>
      <trkpt lat="48.09404" lon="7.30316">
        <ele>220.2</ele>
        <time>2019-08-09T16:06:32Z</time>
      </trkpt>
      <trkpt lat="48.09402" lon="7.30311">
        <ele>220.2</ele>
        <time>2019-08-09T16:06:33Z</time>
      </trkpt>
      <trkpt lat="48.094" lon="7.30304">
        <ele>220.2</ele>
        <time>2019-08-09T16:06:34Z</time>
      </trkpt>
      <trkpt lat="48.09398" lon="7.30298">
        <ele>220.2</ele>
        <time>2019-08-09T16:06:35Z</time>
      </trkpt>
      <trkpt lat="48.09395" lon="7.30292">
        <ele>220.2</ele>
        <time>2019-08-09T16:06:36Z</time>
      </trkpt>
      <trkpt lat="48.09394" lon="7.30287">
        <ele>220.2</ele>
        <time>2019-08-09T16:06:37Z</time>
      </trkpt>
      <trkpt lat="48.09393" lon="7.30282">
        <ele>220.2</ele>
        <time>2019-08-09T16:06:38Z</time>
      </trkpt>
      <trkpt lat="48.09391" lon="7.30278">
        <ele>220.2</ele>
        <time>2019-08-09T16:06:39Z</time>
      </trkpt>
      <trkpt lat="48.0939" lon="7.30274">
        <ele>220.2</ele>
        <time>2019-08-09T16:06:40Z</time>
      </trkpt>
      <trkpt lat="48.09388" lon="7.3027">
        <ele>220.2</ele>
        <time>2019-08-09T16:06:41Z</time>
      </trkpt>
      <trkpt lat="48.09386" lon="7.30265">
        <ele>220.2</ele>
        <time>2019-08-09T16:06:42Z</time>
      </trkpt>
      <trkpt lat="48.09383" lon="7.30259">
        <ele>220.2</ele>
        <time>2019-08-09T16:06:43Z</time>
      </trkpt>
      <trkpt lat="48.09381" lon="7.30253">
        <ele>220.3</ele>
        <time>2019-08-09T16:06:44Z</time>
      </trkpt>
      <trkpt lat="48.09379" lon="7.30248">
        <ele>220.3</ele>
        <time>2019-08-09T16:06:45Z</time>
      </trkpt>
      <trkpt lat="48.09377" lon="7.30243">
        <ele>220.3</ele>
        <time>2019-08-09T16:06:46Z</time>
      </trkpt>
      <trkpt lat="48.09376" lon="7.30239">
        <ele>220.3</ele>
        <time>2019-08-09T16:06:47Z</time>
      </trkpt>
      <trkpt lat="48.09375" lon="7.30231">
        <ele>220.3</ele>
        <time>2019-08-09T16:06:48Z</time>
      </trkpt>
      <trkpt lat="48.09373" lon="7.30224">
        <ele>220.3</ele>
        <time>2019-08-09T16:06:49Z</time>
      </trkpt>
      <trkpt lat="48.09371" lon="7.30219">
        <ele>220.3</ele>
        <time>2019-08-09T16:06:50Z</time>
      </trkpt>
      <trkpt lat="48.09368" lon="7.30213">
        <ele>220.3</ele>
        <time>2019-08-09T16:06:51Z</time>
      </trkpt>
      <trkpt lat="48.09366" lon="7.30209">
        <ele>220.4</ele>
        <time>2019-08-09T16:06:52Z</time>
      </trkpt>
      <trkpt lat="48.09364" lon="7.30204">
        <ele>220.4</ele>
        <time>2019-08-09T16:06:53Z</time>
      </trkpt>
      <trkpt lat="48.09362" lon="7.30199">
        <ele>220.4</ele>
        <time>2019-08-09T16:06:54Z</time>
      </trkpt>
      <trkpt lat="48.09361" lon="7.30194">
        <ele>220.4</ele>
        <time>2019-08-09T16:06:55Z</time>
      </trkpt>
      <trkpt lat="48.09359" lon="7.30189">
        <ele>220.4</ele>
        <time>2019-08-09T16:06:56Z</time>
      </trkpt>
      <trkpt lat="48.09357" lon="7.30183">
        <ele>220.4</ele>
        <time>2019-08-09T16:06:57Z</time>
      </trkpt>
      <trkpt lat="48.09355" lon="7.30177">
        <ele>220.4</ele>
        <time>2019-08-09T16:06:58Z</time>
      </trkpt>
      <trkpt lat="48.09354" lon="7.30172">
        <ele>220.4</ele>
        <time>2019-08-09T16:06:59Z</time>
      </trkpt>
      <trkpt lat="48.09352" lon="7.30167">
        <ele>220.5</ele>
        <time>2019-08-09T16:07:00Z</time>
      </trkpt>
      <trkpt lat="48.0935" lon="7.30162">
        <ele>220.5</ele>
        <time>2019-08-09T16:07:01Z</time>
      </trkpt>
      <trkpt lat="48.09348" lon="7.30155">
        <ele>220.5</ele>
        <time>2019-08-09T16:07:02Z</time>
      </trkpt>
      <trkpt lat="48.09347" lon="7.30149">
        <ele>220.5</ele>
        <time>2019-08-09T16:07:03Z</time>
      </trkpt>
      <trkpt lat="48.09345" lon="7.30144">
        <ele>220.5</ele>
        <time>2019-08-09T16:07:04Z</time>
      </trkpt>
      <trkpt lat="48.09343" lon="7.30139">
        <ele>220.6</ele>
        <time>2019-08-09T16:07:05Z</time>
      </trkpt>
      <trkpt lat="48.09342" lon="7.30133">
        <ele>220.6</ele>
        <time>2019-08-09T16:07:06Z</time>
      </trkpt>
      <trkpt lat="48.0934" lon="7.30127">
        <ele>220.6</ele>
        <time>2019-08-09T16:07:07Z</time>
      </trkpt>
      <trkpt lat="48.09338" lon="7.30121">
        <ele>220.7</ele>
        <time>2019-08-09T16:07:08Z</time>
      </trkpt>
      <trkpt lat="48.09335" lon="7.30115">
        <ele>220.7</ele>
        <time>2019-08-09T16:07:09Z</time>
      </trkpt>
      <trkpt lat="48.09333" lon="7.3011">
        <ele>220.8</ele>
        <time>2019-08-09T16:07:10Z</time>
      </trkpt>
      <trkpt lat="48.09331" lon="7.30104">
        <ele>220.8</ele>
        <time>2019-08-09T16:07:11Z</time>
      </trkpt>
      <trkpt lat="48.09327" lon="7.30098">
        <ele>220.9</ele>
        <time>2019-08-09T16:07:12Z</time>
      </trkpt>
      <trkpt lat="48.09325" lon="7.30093">
        <ele>220.9</ele>
        <time>2019-08-09T16:07:13Z</time>
      </trkpt>
      <trkpt lat="48.09321" lon="7.30088">
        <ele>221</ele>
        <time>2019-08-09T16:07:14Z</time>
      </trkpt>
      <trkpt lat="48.09319" lon="7.30083">
        <ele>221</ele>
        <time>2019-08-09T16:07:15Z</time>
      </trkpt>
      <trkpt lat="48.09316" lon="7.30077">
        <ele>221.1</ele>
        <time>2019-08-09T16:07:16Z</time>
      </trkpt>
      <trkpt lat="48.09314" lon="7.30072">
        <ele>221.1</ele>
        <time>2019-08-09T16:07:17Z</time>
      </trkpt>
      <trkpt lat="48.09312" lon="7.30067">
        <ele>221.2</ele>
        <time>2019-08-09T16:07:18Z</time>
      </trkpt>
      <trkpt lat="48.09311" lon="7.30062">
        <ele>221.2</ele>
        <time>2019-08-09T16:07:19Z</time>
      </trkpt>
      <trkpt lat="48.0931" lon="7.30057">
        <ele>221.3</ele>
        <time>2019-08-09T16:07:20Z</time>
      </trkpt>
      <trkpt lat="48.09308" lon="7.3005">
        <ele>221.4</ele>
        <time>2019-08-09T16:07:21Z</time>
      </trkpt>
      <trkpt lat="48.09306" lon="7.30044">
        <ele>221.4</ele>
        <time>2019-08-09T16:07:22Z</time>
      </trkpt>
      <trkpt lat="48.09304" lon="7.30038">
        <ele>221.5</ele>
        <time>2019-08-09T16:07:23Z</time>
      </trkpt>
      <trkpt lat="48.09302" lon="7.30033">
        <ele>221.6</ele>
        <time>2019-08-09T16:07:24Z</time>
      </trkpt>
      <trkpt lat="48.093" lon="7.30027">
        <ele>221.6</ele>
        <time>2019-08-09T16:07:25Z</time>
      </trkpt>
      <trkpt lat="48.09298" lon="7.30021">
        <ele>221.7</ele>
        <time>2019-08-09T16:07:26Z</time>
      </trkpt>
      <trkpt lat="48.09296" lon="7.30017">
        <ele>221.8</ele>
        <time>2019-08-09T16:07:27Z</time>
      </trkpt>
      <trkpt lat="48.09293" lon="7.30013">
        <ele>221.8</ele>
        <time>2019-08-09T16:07:28Z</time>
      </trkpt>
      <trkpt lat="48.09291" lon="7.30009">
        <ele>221.9</ele>
        <time>2019-08-09T16:07:29Z</time>
      </trkpt>
      <trkpt lat="48.09289" lon="7.30006">
        <ele>222</ele>
        <time>2019-08-09T16:07:30Z</time>
      </trkpt>
      <trkpt lat="48.09287" lon="7.30002">
        <ele>222</ele>
        <time>2019-08-09T16:07:31Z</time>
      </trkpt>
      <trkpt lat="48.09285" lon="7.29998">
        <ele>222.1</ele>
        <time>2019-08-09T16:07:32Z</time>
      </trkpt>
      <trkpt lat="48.09283" lon="7.29992">
        <ele>222.2</ele>
        <time>2019-08-09T16:07:33Z</time>
      </trkpt>
      <trkpt lat="48.09281" lon="7.29984">
        <ele>222.3</ele>
        <time>2019-08-09T16:07:35Z</time>
      </trkpt>
      <trkpt lat="48.09279" lon="7.29979">
        <ele>222.4</ele>
        <time>2019-08-09T16:07:36Z</time>
      </trkpt>
      <trkpt lat="48.09278" lon="7.29975">
        <ele>222.4</ele>
        <time>2019-08-09T16:07:37Z</time>
      </trkpt>
      <trkpt lat="48.09277" lon="7.2997">
        <ele>222.5</ele>
        <time>2019-08-09T16:07:38Z</time>
      </trkpt>
      <trkpt lat="48.09275" lon="7.29965">
        <ele>222.6</ele>
        <time>2019-08-09T16:07:39Z</time>
      </trkpt>
      <trkpt lat="48.09274" lon="7.29961">
        <ele>222.7</ele>
        <time>2019-08-09T16:07:40Z</time>
      </trkpt>
      <trkpt lat="48.09272" lon="7.29956">
        <ele>222.8</ele>
        <time>2019-08-09T16:07:41Z</time>
      </trkpt>
      <trkpt lat="48.09271" lon="7.29952">
        <ele>222.8</ele>
        <time>2019-08-09T16:07:42Z</time>
      </trkpt>
      <trkpt lat="48.09266" lon="7.29946">
        <ele>223</ele>
        <time>2019-08-09T16:07:44Z</time>
      </trkpt>
      <trkpt lat="48.09264" lon="7.29943">
        <ele>223.1</ele>
        <time>2019-08-09T16:07:45Z</time>
      </trkpt>
      <trkpt lat="48.09261" lon="7.29941">
        <ele>223.1</ele>
        <time>2019-08-09T16:07:46Z</time>
      </trkpt>
      <trkpt lat="48.09257" lon="7.29939">
        <ele>223.3</ele>
        <time>2019-08-09T16:07:48Z</time>
      </trkpt>
      <trkpt lat="48.09255" lon="7.29936">
        <ele>223.3</ele>
        <time>2019-08-09T16:07:50Z</time>
      </trkpt>
      <trkpt lat="48.09252" lon="7.29936">
        <ele>223.4</ele>
        <time>2019-08-09T16:07:52Z</time>
      </trkpt>
      <trkpt lat="48.09248" lon="7.29936">
        <ele>223.5</ele>
        <time>2019-08-09T16:07:59Z</time>
      </trkpt>
      <trkpt lat="48.09245" lon="7.29936">
        <ele>223.6</ele>
        <time>2019-08-09T16:08:01Z</time>
      </trkpt>
      <trkpt lat="48.09242" lon="7.29924">
        <ele>224.1</ele>
        <time>2019-08-09T16:08:37Z</time>
      </trkpt>
      <trkpt lat="48.09241" lon="7.29919">
        <ele>224.1</ele>
        <time>2019-08-09T16:08:40Z</time>
      </trkpt>
      <trkpt lat="48.0924" lon="7.29915">
        <ele>224.2</ele>
        <time>2019-08-09T16:08:44Z</time>
      </trkpt>
      <trkpt lat="48.09241" lon="7.2991">
        <ele>224.2</ele>
        <time>2019-08-09T16:08:49Z</time>
      </trkpt>
      <trkpt lat="48.0924" lon="7.29914">
        <ele>224.2</ele>
        <time>2019-08-09T16:09:01Z</time>
      </trkpt>
      <trkpt lat="48.0924" lon="7.29919">
        <ele>224.3</ele>
        <time>2019-08-09T16:09:04Z</time>
      </trkpt>
      <trkpt lat="48.0924" lon="7.29926">
        <ele>224.3</ele>
        <time>2019-08-09T16:09:08Z</time>
      </trkpt>
      <trkpt lat="48.09243" lon="7.29928">
        <ele>224.3</ele>
        <time>2019-08-09T16:09:52Z</time>
      </trkpt>
      <trkpt lat="48.09243" lon="7.29923">
        <ele>224.4</ele>
        <time>2019-08-09T16:09:55Z</time>
      </trkpt>
      <trkpt lat="48.09241" lon="7.29919">
        <ele>224.4</ele>
        <time>2019-08-09T16:09:58Z</time>
      </trkpt>
      <trkpt lat="48.09241" lon="7.29915">
        <ele>224.4</ele>
        <time>2019-08-09T16:10:04Z</time>
      </trkpt>
      <trkpt lat="48.09243" lon="7.29912">
        <ele>224.5</ele>
        <time>2019-08-09T16:10:08Z</time>
      </trkpt>
      <trkpt lat="48.09245" lon="7.29909">
        <ele>224.9</ele>
        <time>2019-08-09T16:10:10Z</time>
      </trkpt>
      <trkpt lat="48.09248" lon="7.29907">
        <ele>225.1</ele>
        <time>2019-08-09T16:10:13Z</time>
      </trkpt>
      <trkpt lat="48.09251" lon="7.29907">
        <ele>225.2</ele>
        <time>2019-08-09T16:10:15Z</time>
      </trkpt>
      <trkpt lat="48.09254" lon="7.29903">
        <ele>225.5</ele>
        <time>2019-08-09T16:10:19Z</time>
      </trkpt>
      <trkpt lat="48.09257" lon="7.29901">
        <ele>225.6</ele>
        <time>2019-08-09T16:10:22Z</time>
      </trkpt>
      <trkpt lat="48.09259" lon="7.29897">
        <ele>225.8</ele>
        <time>2019-08-09T16:10:25Z</time>
      </trkpt>
      <trkpt lat="48.09262" lon="7.29895">
        <ele>226</ele>
        <time>2019-08-09T16:10:28Z</time>
      </trkpt>
      <trkpt lat="48.09265" lon="7.29893">
        <ele>226.2</ele>
        <time>2019-08-09T16:10:31Z</time>
      </trkpt>
      <trkpt lat="48.09268" lon="7.29891">
        <ele>226.4</ele>
        <time>2019-08-09T16:10:34Z</time>
      </trkpt>
      <trkpt lat="48.09272" lon="7.29891">
        <ele>226.7</ele>
        <time>2019-08-09T16:10:37Z</time>
      </trkpt>
      <trkpt lat="48.09275" lon="7.29891">
        <ele>226.8</ele>
        <time>2019-08-09T16:10:39Z</time>
      </trkpt>
      <trkpt lat="48.09277" lon="7.29893">
        <ele>226.9</ele>
        <time>2019-08-09T16:10:42Z</time>
      </trkpt>
      <trkpt lat="48.0928" lon="7.29894">
        <ele>226.9</ele>
        <time>2019-08-09T16:10:46Z</time>
      </trkpt>
      <trkpt lat="48.09283" lon="7.29899">
        <ele>227.1</ele>
        <time>2019-08-09T16:10:51Z</time>
      </trkpt>
      <trkpt lat="48.09285" lon="7.29904">
        <ele>227.2</ele>
        <time>2019-08-09T16:10:53Z</time>
      </trkpt>
      <trkpt lat="48.09288" lon="7.29909">
        <ele>227.3</ele>
        <time>2019-08-09T16:10:55Z</time>
      </trkpt>
      <trkpt lat="48.09292" lon="7.29914">
        <ele>227.4</ele>
        <time>2019-08-09T16:10:57Z</time>
      </trkpt>
      <trkpt lat="48.09294" lon="7.29917">
        <ele>227.5</ele>
        <time>2019-08-09T16:10:58Z</time>
      </trkpt>
      <trkpt lat="48.09296" lon="7.29924">
        <ele>228</ele>
        <time>2019-08-09T16:11:00Z</time>
      </trkpt>
      <trkpt lat="48.09299" lon="7.29928">
        <ele>228.4</ele>
        <time>2019-08-09T16:11:02Z</time>
      </trkpt>
      <trkpt lat="48.09302" lon="7.29932">
        <ele>228.8</ele>
        <time>2019-08-09T16:11:17Z</time>
      </trkpt>
      <trkpt lat="48.09304" lon="7.29931">
        <ele>229.1</ele>
        <time>2019-08-09T16:11:22Z</time>
      </trkpt>
      <trkpt lat="48.09307" lon="7.29928">
        <ele>229.4</ele>
        <time>2019-08-09T16:11:28Z</time>
      </trkpt>
      <trkpt lat="48.09309" lon="7.29924">
        <ele>229.7</ele>
        <time>2019-08-09T16:11:42Z</time>
      </trkpt>
      <trkpt lat="48.0931" lon="7.29919">
        <ele>230.1</ele>
        <time>2019-08-09T16:11:44Z</time>
      </trkpt>
      <trkpt lat="48.09308" lon="7.29912">
        <ele>230.5</ele>
        <time>2019-08-09T16:11:46Z</time>
      </trkpt>
      <trkpt lat="48.09306" lon="7.29906">
        <ele>230.5</ele>
        <time>2019-08-09T16:11:48Z</time>
      </trkpt>
      <trkpt lat="48.09305" lon="7.299">
        <ele>230.5</ele>
        <time>2019-08-09T16:11:50Z</time>
      </trkpt>
      <trkpt lat="48.09303" lon="7.29894">
        <ele>230.6</ele>
        <time>2019-08-09T16:11:52Z</time>
      </trkpt>
      <trkpt lat="48.09302" lon="7.29889">
        <ele>230.6</ele>
        <time>2019-08-09T16:11:53Z</time>
      </trkpt>
      <trkpt lat="48.09301" lon="7.29882">
        <ele>230.6</ele>
        <time>2019-08-09T16:11:55Z</time>
      </trkpt>
      <trkpt lat="48.09299" lon="7.29875">
        <ele>230.7</ele>
        <time>2019-08-09T16:11:57Z</time>
      </trkpt>
      <trkpt lat="48.09297" lon="7.29871">
        <ele>230.7</ele>
        <time>2019-08-09T16:11:58Z</time>
      </trkpt>
      <trkpt lat="48.09295" lon="7.29867">
        <ele>230.8</ele>
        <time>2019-08-09T16:11:59Z</time>
      </trkpt>
      <trkpt lat="48.09292" lon="7.29864">
        <ele>230.9</ele>
        <time>2019-08-09T16:12:00Z</time>
      </trkpt>
      <trkpt lat="48.0929" lon="7.29861">
        <ele>230.9</ele>
        <time>2019-08-09T16:12:01Z</time>
      </trkpt>
      <trkpt lat="48.09287" lon="7.29857">
        <ele>231</ele>
        <time>2019-08-09T16:12:02Z</time>
      </trkpt>
      <trkpt lat="48.09285" lon="7.29853">
        <ele>231.1</ele>
        <time>2019-08-09T16:12:03Z</time>
      </trkpt>
      <trkpt lat="48.09283" lon="7.29849">
        <ele>231.2</ele>
        <time>2019-08-09T16:12:04Z</time>
      </trkpt>
      <trkpt lat="48.09281" lon="7.29845">
        <ele>231.2</ele>
        <time>2019-08-09T16:12:05Z</time>
      </trkpt>
      <trkpt lat="48.09277" lon="7.29838">
        <ele>231.3</ele>
        <time>2019-08-09T16:12:07Z</time>
      </trkpt>
      <trkpt lat="48.09276" lon="7.29834">
        <ele>231.4</ele>
        <time>2019-08-09T16:12:08Z</time>
      </trkpt>
      <trkpt lat="48.09274" lon="7.29829">
        <ele>231.4</ele>
        <time>2019-08-09T16:12:09Z</time>
      </trkpt>
      <trkpt lat="48.09271" lon="7.29822">
        <ele>231.5</ele>
        <time>2019-08-09T16:12:11Z</time>
      </trkpt>
      <trkpt lat="48.09268" lon="7.29817">
        <ele>231.5</ele>
        <time>2019-08-09T16:12:12Z</time>
      </trkpt>
      <trkpt lat="48.09263" lon="7.29811">
        <ele>231.6</ele>
        <time>2019-08-09T16:12:14Z</time>
      </trkpt>
      <trkpt lat="48.09261" lon="7.29807">
        <ele>231.6</ele>
        <time>2019-08-09T16:12:15Z</time>
      </trkpt>
      <trkpt lat="48.09259" lon="7.29802">
        <ele>231.7</ele>
        <time>2019-08-09T16:12:16Z</time>
      </trkpt>
      <trkpt lat="48.09256" lon="7.29799">
        <ele>231.7</ele>
        <time>2019-08-09T16:12:17Z</time>
      </trkpt>
      <trkpt lat="48.09254" lon="7.29795">
        <ele>231.8</ele>
        <time>2019-08-09T16:12:18Z</time>
      </trkpt>
      <trkpt lat="48.09249" lon="7.2979">
        <ele>231.9</ele>
        <time>2019-08-09T16:12:20Z</time>
      </trkpt>
      <trkpt lat="48.09246" lon="7.29786">
        <ele>232</ele>
        <time>2019-08-09T16:12:21Z</time>
      </trkpt>
      <trkpt lat="48.09243" lon="7.29782">
        <ele>232.1</ele>
        <time>2019-08-09T16:12:22Z</time>
      </trkpt>
      <trkpt lat="48.0924" lon="7.29778">
        <ele>232.2</ele>
        <time>2019-08-09T16:12:23Z</time>
      </trkpt>
      <trkpt lat="48.09237" lon="7.29775">
        <ele>232.3</ele>
        <time>2019-08-09T16:12:24Z</time>
      </trkpt>
      <trkpt lat="48.09234" lon="7.29771">
        <ele>232.4</ele>
        <time>2019-08-09T16:12:25Z</time>
      </trkpt>
      <trkpt lat="48.09231" lon="7.29767">
        <ele>232.5</ele>
        <time>2019-08-09T16:12:26Z</time>
      </trkpt>
      <trkpt lat="48.09229" lon="7.29763">
        <ele>232.6</ele>
        <time>2019-08-09T16:12:27Z</time>
      </trkpt>
      <trkpt lat="48.09227" lon="7.2976">
        <ele>232.6</ele>
        <time>2019-08-09T16:12:28Z</time>
      </trkpt>
      <trkpt lat="48.09224" lon="7.29756">
        <ele>232.7</ele>
        <time>2019-08-09T16:12:29Z</time>
      </trkpt>
      <trkpt lat="48.09222" lon="7.29751">
        <ele>232.8</ele>
        <time>2019-08-09T16:12:30Z</time>
      </trkpt>
      <trkpt lat="48.09219" lon="7.29746">
        <ele>232.9</ele>
        <time>2019-08-09T16:12:31Z</time>
      </trkpt>
      <trkpt lat="48.09217" lon="7.29741">
        <ele>232.9</ele>
        <time>2019-08-09T16:12:32Z</time>
      </trkpt>
      <trkpt lat="48.09213" lon="7.29733">
        <ele>233.1</ele>
        <time>2019-08-09T16:12:34Z</time>
      </trkpt>
      <trkpt lat="48.09211" lon="7.29727">
        <ele>233.2</ele>
        <time>2019-08-09T16:12:35Z</time>
      </trkpt>
      <trkpt lat="48.09209" lon="7.29723">
        <ele>233.3</ele>
        <time>2019-08-09T16:12:36Z</time>
      </trkpt>
      <trkpt lat="48.09207" lon="7.29717">
        <ele>233.4</ele>
        <time>2019-08-09T16:12:37Z</time>
      </trkpt>
      <trkpt lat="48.09205" lon="7.29711">
        <ele>233.4</ele>
        <time>2019-08-09T16:12:38Z</time>
      </trkpt>
      <trkpt lat="48.09203" lon="7.29706">
        <ele>233.5</ele>
        <time>2019-08-09T16:12:39Z</time>
      </trkpt>
      <trkpt lat="48.09201" lon="7.29701">
        <ele>233.6</ele>
        <time>2019-08-09T16:12:40Z</time>
      </trkpt>
      <trkpt lat="48.09198" lon="7.29693">
        <ele>233.7</ele>
        <time>2019-08-09T16:12:42Z</time>
      </trkpt>
      <trkpt lat="48.09196" lon="7.29689">
        <ele>233.8</ele>
        <time>2019-08-09T16:12:43Z</time>
      </trkpt>
      <trkpt lat="48.09194" lon="7.29683">
        <ele>233.8</ele>
        <time>2019-08-09T16:12:44Z</time>
      </trkpt>
      <trkpt lat="48.09193" lon="7.29677">
        <ele>233.9</ele>
        <time>2019-08-09T16:12:45Z</time>
      </trkpt>
      <trkpt lat="48.09192" lon="7.29673">
        <ele>233.9</ele>
        <time>2019-08-09T16:12:46Z</time>
      </trkpt>
      <trkpt lat="48.0919" lon="7.29668">
        <ele>234</ele>
        <time>2019-08-09T16:12:47Z</time>
      </trkpt>
      <trkpt lat="48.09188" lon="7.29662">
        <ele>234</ele>
        <time>2019-08-09T16:12:48Z</time>
      </trkpt>
      <trkpt lat="48.09186" lon="7.29657">
        <ele>234.1</ele>
        <time>2019-08-09T16:12:49Z</time>
      </trkpt>
      <trkpt lat="48.09184" lon="7.29653">
        <ele>234.2</ele>
        <time>2019-08-09T16:12:50Z</time>
      </trkpt>
      <trkpt lat="48.09182" lon="7.29648">
        <ele>234.3</ele>
        <time>2019-08-09T16:12:51Z</time>
      </trkpt>
      <trkpt lat="48.0918" lon="7.29643">
        <ele>234.3</ele>
        <time>2019-08-09T16:12:52Z</time>
      </trkpt>
      <trkpt lat="48.09177" lon="7.29638">
        <ele>234.4</ele>
        <time>2019-08-09T16:12:53Z</time>
      </trkpt>
      <trkpt lat="48.09174" lon="7.29634">
        <ele>234.5</ele>
        <time>2019-08-09T16:12:54Z</time>
      </trkpt>
      <trkpt lat="48.09172" lon="7.29629">
        <ele>234.5</ele>
        <time>2019-08-09T16:12:55Z</time>
      </trkpt>
      <trkpt lat="48.0917" lon="7.29623">
        <ele>234.5</ele>
        <time>2019-08-09T16:12:56Z</time>
      </trkpt>
      <trkpt lat="48.09168" lon="7.29618">
        <ele>234.5</ele>
        <time>2019-08-09T16:12:57Z</time>
      </trkpt>
      <trkpt lat="48.09167" lon="7.29612">
        <ele>234.5</ele>
        <time>2019-08-09T16:12:58Z</time>
      </trkpt>
      <trkpt lat="48.09165" lon="7.29608">
        <ele>234.4</ele>
        <time>2019-08-09T16:12:59Z</time>
      </trkpt>
      <trkpt lat="48.09163" lon="7.29603">
        <ele>234.3</ele>
        <time>2019-08-09T16:13:00Z</time>
      </trkpt>
      <trkpt lat="48.0916" lon="7.29599">
        <ele>234.2</ele>
        <time>2019-08-09T16:13:01Z</time>
      </trkpt>
      <trkpt lat="48.09159" lon="7.29594">
        <ele>234.1</ele>
        <time>2019-08-09T16:13:02Z</time>
      </trkpt>
      <trkpt lat="48.09156" lon="7.29589">
        <ele>233.9</ele>
        <time>2019-08-09T16:13:03Z</time>
      </trkpt>
      <trkpt lat="48.09153" lon="7.29583">
        <ele>233.7</ele>
        <time>2019-08-09T16:13:04Z</time>
      </trkpt>
      <trkpt lat="48.09151" lon="7.29577">
        <ele>233.5</ele>
        <time>2019-08-09T16:13:05Z</time>
      </trkpt>
      <trkpt lat="48.09149" lon="7.29571">
        <ele>233.4</ele>
        <time>2019-08-09T16:13:06Z</time>
      </trkpt>
      <trkpt lat="48.09147" lon="7.29565">
        <ele>233.2</ele>
        <time>2019-08-09T16:13:07Z</time>
      </trkpt>
      <trkpt lat="48.09145" lon="7.29559">
        <ele>233</ele>
        <time>2019-08-09T16:13:08Z</time>
      </trkpt>
      <trkpt lat="48.09144" lon="7.29553">
        <ele>232.8</ele>
        <time>2019-08-09T16:13:09Z</time>
      </trkpt>
      <trkpt lat="48.09142" lon="7.29546">
        <ele>232.7</ele>
        <time>2019-08-09T16:13:10Z</time>
      </trkpt>
      <trkpt lat="48.09141" lon="7.2954">
        <ele>232.5</ele>
        <time>2019-08-09T16:13:11Z</time>
      </trkpt>
      <trkpt lat="48.0914" lon="7.29535">
        <ele>232.5</ele>
        <time>2019-08-09T16:13:12Z</time>
      </trkpt>
      <trkpt lat="48.09139" lon="7.29529">
        <ele>232.4</ele>
        <time>2019-08-09T16:13:13Z</time>
      </trkpt>
      <trkpt lat="48.09137" lon="7.29525">
        <ele>232.3</ele>
        <time>2019-08-09T16:13:14Z</time>
      </trkpt>
      <trkpt lat="48.09136" lon="7.29519">
        <ele>232.1</ele>
        <time>2019-08-09T16:13:15Z</time>
      </trkpt>
      <trkpt lat="48.09134" lon="7.29514">
        <ele>232</ele>
        <time>2019-08-09T16:13:16Z</time>
      </trkpt>
      <trkpt lat="48.09133" lon="7.2951">
        <ele>231.9</ele>
        <time>2019-08-09T16:13:17Z</time>
      </trkpt>
      <trkpt lat="48.09131" lon="7.29505">
        <ele>231.9</ele>
        <time>2019-08-09T16:13:18Z</time>
      </trkpt>
      <trkpt lat="48.0913" lon="7.29501">
        <ele>231.8</ele>
        <time>2019-08-09T16:13:19Z</time>
      </trkpt>
      <trkpt lat="48.09128" lon="7.29498">
        <ele>231.8</ele>
        <time>2019-08-09T16:13:20Z</time>
      </trkpt>
      <trkpt lat="48.09126" lon="7.29493">
        <ele>231.7</ele>
        <time>2019-08-09T16:13:22Z</time>
      </trkpt>
      <trkpt lat="48.09123" lon="7.29487">
        <ele>231.6</ele>
        <time>2019-08-09T16:13:24Z</time>
      </trkpt>
      <trkpt lat="48.0912" lon="7.29482">
        <ele>231.5</ele>
        <time>2019-08-09T16:13:26Z</time>
      </trkpt>
      <trkpt lat="48.09118" lon="7.29478">
        <ele>231.4</ele>
        <time>2019-08-09T16:13:27Z</time>
      </trkpt>
      <trkpt lat="48.09117" lon="7.29474">
        <ele>231.3</ele>
        <time>2019-08-09T16:13:28Z</time>
      </trkpt>
      <trkpt lat="48.09115" lon="7.29469">
        <ele>231.3</ele>
        <time>2019-08-09T16:13:29Z</time>
      </trkpt>
      <trkpt lat="48.09113" lon="7.29464">
        <ele>231.2</ele>
        <time>2019-08-09T16:13:30Z</time>
      </trkpt>
      <trkpt lat="48.09112" lon="7.2946">
        <ele>231.1</ele>
        <time>2019-08-09T16:13:31Z</time>
      </trkpt>
      <trkpt lat="48.09111" lon="7.29456">
        <ele>231</ele>
        <time>2019-08-09T16:13:32Z</time>
      </trkpt>
      <trkpt lat="48.0911" lon="7.29452">
        <ele>230.9</ele>
        <time>2019-08-09T16:13:33Z</time>
      </trkpt>
      <trkpt lat="48.09109" lon="7.29447">
        <ele>230.9</ele>
        <time>2019-08-09T16:13:34Z</time>
      </trkpt>
      <trkpt lat="48.09108" lon="7.29443">
        <ele>230.8</ele>
        <time>2019-08-09T16:13:35Z</time>
      </trkpt>
      <trkpt lat="48.09105" lon="7.29438">
        <ele>230.7</ele>
        <time>2019-08-09T16:13:37Z</time>
      </trkpt>
      <trkpt lat="48.09101" lon="7.29438">
        <ele>230.6</ele>
        <time>2019-08-09T16:13:39Z</time>
      </trkpt>
      <trkpt lat="48.09099" lon="7.29433">
        <ele>230.5</ele>
        <time>2019-08-09T16:13:41Z</time>
      </trkpt>
      <trkpt lat="48.09099" lon="7.29428">
        <ele>230.4</ele>
        <time>2019-08-09T16:13:43Z</time>
      </trkpt>
      <trkpt lat="48.09098" lon="7.29424">
        <ele>230.3</ele>
        <time>2019-08-09T16:13:45Z</time>
      </trkpt>
      <trkpt lat="48.09096" lon="7.29419">
        <ele>230.2</ele>
        <time>2019-08-09T16:13:48Z</time>
      </trkpt>
      <trkpt lat="48.09094" lon="7.29414">
        <ele>230.1</ele>
        <time>2019-08-09T16:13:50Z</time>
      </trkpt>
      <trkpt lat="48.09089" lon="7.2941">
        <ele>230</ele>
        <time>2019-08-09T16:13:52Z</time>
      </trkpt>
      <trkpt lat="48.09087" lon="7.29405">
        <ele>229.9</ele>
        <time>2019-08-09T16:13:54Z</time>
      </trkpt>
      <trkpt lat="48.09086" lon="7.29398">
        <ele>229.8</ele>
        <time>2019-08-09T16:13:56Z</time>
      </trkpt>
      <trkpt lat="48.09084" lon="7.29392">
        <ele>229.7</ele>
        <time>2019-08-09T16:13:58Z</time>
      </trkpt>
      <trkpt lat="48.09082" lon="7.29385">
        <ele>229.6</ele>
        <time>2019-08-09T16:14:00Z</time>
      </trkpt>
      <trkpt lat="48.09079" lon="7.2938">
        <ele>229.5</ele>
        <time>2019-08-09T16:14:01Z</time>
      </trkpt>
      <trkpt lat="48.09079" lon="7.29375">
        <ele>229.5</ele>
        <time>2019-08-09T16:14:02Z</time>
      </trkpt>
      <trkpt lat="48.09077" lon="7.29371">
        <ele>229.4</ele>
        <time>2019-08-09T16:14:03Z</time>
      </trkpt>
      <trkpt lat="48.09077" lon="7.29366">
        <ele>229.4</ele>
        <time>2019-08-09T16:14:04Z</time>
      </trkpt>
      <trkpt lat="48.09076" lon="7.2936">
        <ele>229.3</ele>
        <time>2019-08-09T16:14:05Z</time>
      </trkpt>
      <trkpt lat="48.09075" lon="7.29355">
        <ele>229.3</ele>
        <time>2019-08-09T16:14:06Z</time>
      </trkpt>
      <trkpt lat="48.09073" lon="7.2935">
        <ele>229.2</ele>
        <time>2019-08-09T16:14:07Z</time>
      </trkpt>
      <trkpt lat="48.09072" lon="7.29346">
        <ele>229.2</ele>
        <time>2019-08-09T16:14:08Z</time>
      </trkpt>
      <trkpt lat="48.0907" lon="7.29341">
        <ele>229.1</ele>
        <time>2019-08-09T16:14:09Z</time>
      </trkpt>
      <trkpt lat="48.09069" lon="7.29336">
        <ele>229.1</ele>
        <time>2019-08-09T16:14:10Z</time>
      </trkpt>
      <trkpt lat="48.09068" lon="7.29331">
        <ele>229.1</ele>
        <time>2019-08-09T16:14:11Z</time>
      </trkpt>
      <trkpt lat="48.09066" lon="7.29326">
        <ele>229.1</ele>
        <time>2019-08-09T16:14:12Z</time>
      </trkpt>
      <trkpt lat="48.09064" lon="7.2932">
        <ele>229</ele>
        <time>2019-08-09T16:14:13Z</time>
      </trkpt>
      <trkpt lat="48.09063" lon="7.29315">
        <ele>229</ele>
        <time>2019-08-09T16:14:14Z</time>
      </trkpt>
      <trkpt lat="48.09061" lon="7.2931">
        <ele>229</ele>
        <time>2019-08-09T16:14:15Z</time>
      </trkpt>
      <trkpt lat="48.0906" lon="7.29304">
        <ele>229</ele>
        <time>2019-08-09T16:14:16Z</time>
      </trkpt>
      <trkpt lat="48.09058" lon="7.29299">
        <ele>229</ele>
        <time>2019-08-09T16:14:17Z</time>
      </trkpt>
      <trkpt lat="48.09057" lon="7.29293">
        <ele>229</ele>
        <time>2019-08-09T16:14:18Z</time>
      </trkpt>
      <trkpt lat="48.09056" lon="7.29289">
        <ele>229</ele>
        <time>2019-08-09T16:14:19Z</time>
      </trkpt>
      <trkpt lat="48.09054" lon="7.29285">
        <ele>229</ele>
        <time>2019-08-09T16:14:20Z</time>
      </trkpt>
      <trkpt lat="48.09053" lon="7.29279">
        <ele>229</ele>
        <time>2019-08-09T16:14:21Z</time>
      </trkpt>
      <trkpt lat="48.09052" lon="7.29274">
        <ele>229.1</ele>
        <time>2019-08-09T16:14:22Z</time>
      </trkpt>
      <trkpt lat="48.0905" lon="7.29269">
        <ele>229.1</ele>
        <time>2019-08-09T16:14:23Z</time>
      </trkpt>
      <trkpt lat="48.09049" lon="7.29264">
        <ele>229.1</ele>
        <time>2019-08-09T16:14:24Z</time>
      </trkpt>
      <trkpt lat="48.09047" lon="7.2926">
        <ele>229.1</ele>
        <time>2019-08-09T16:14:25Z</time>
      </trkpt>
      <trkpt lat="48.09046" lon="7.29255">
        <ele>229.1</ele>
        <time>2019-08-09T16:14:26Z</time>
      </trkpt>
      <trkpt lat="48.09044" lon="7.2925">
        <ele>229.1</ele>
        <time>2019-08-09T16:14:27Z</time>
      </trkpt>
      <trkpt lat="48.09043" lon="7.29245">
        <ele>229.1</ele>
        <time>2019-08-09T16:14:28Z</time>
      </trkpt>
      <trkpt lat="48.09041" lon="7.2924">
        <ele>229.1</ele>
        <time>2019-08-09T16:14:29Z</time>
      </trkpt>
      <trkpt lat="48.0904" lon="7.29235">
        <ele>229.1</ele>
        <time>2019-08-09T16:14:30Z</time>
      </trkpt>
      <trkpt lat="48.09038" lon="7.29229">
        <ele>229.1</ele>
        <time>2019-08-09T16:14:31Z</time>
      </trkpt>
      <trkpt lat="48.09036" lon="7.29224">
        <ele>229.1</ele>
        <time>2019-08-09T16:14:32Z</time>
      </trkpt>
      <trkpt lat="48.09035" lon="7.29219">
        <ele>229.1</ele>
        <time>2019-08-09T16:14:33Z</time>
      </trkpt>
      <trkpt lat="48.09033" lon="7.29214">
        <ele>229</ele>
        <time>2019-08-09T16:14:34Z</time>
      </trkpt>
      <trkpt lat="48.09032" lon="7.2921">
        <ele>229</ele>
        <time>2019-08-09T16:14:35Z</time>
      </trkpt>
      <trkpt lat="48.09031" lon="7.29205">
        <ele>229</ele>
        <time>2019-08-09T16:14:36Z</time>
      </trkpt>
      <trkpt lat="48.09029" lon="7.292">
        <ele>229</ele>
        <time>2019-08-09T16:14:37Z</time>
      </trkpt>
      <trkpt lat="48.09028" lon="7.29195">
        <ele>228.9</ele>
        <time>2019-08-09T16:14:38Z</time>
      </trkpt>
      <trkpt lat="48.09026" lon="7.2919">
        <ele>228.9</ele>
        <time>2019-08-09T16:14:39Z</time>
      </trkpt>
      <trkpt lat="48.09024" lon="7.29185">
        <ele>228.9</ele>
        <time>2019-08-09T16:14:40Z</time>
      </trkpt>
      <trkpt lat="48.09022" lon="7.2918">
        <ele>228.8</ele>
        <time>2019-08-09T16:14:41Z</time>
      </trkpt>
      <trkpt lat="48.09019" lon="7.29175">
        <ele>228.7</ele>
        <time>2019-08-09T16:14:42Z</time>
      </trkpt>
      <trkpt lat="48.09016" lon="7.29166">
        <ele>228.6</ele>
        <time>2019-08-09T16:14:44Z</time>
      </trkpt>
      <trkpt lat="48.09015" lon="7.29161">
        <ele>228.6</ele>
        <time>2019-08-09T16:14:45Z</time>
      </trkpt>
      <trkpt lat="48.09014" lon="7.29156">
        <ele>228.5</ele>
        <time>2019-08-09T16:14:46Z</time>
      </trkpt>
      <trkpt lat="48.09013" lon="7.29151">
        <ele>228.4</ele>
        <time>2019-08-09T16:14:47Z</time>
      </trkpt>
      <trkpt lat="48.09011" lon="7.29146">
        <ele>228.4</ele>
        <time>2019-08-09T16:14:48Z</time>
      </trkpt>
      <trkpt lat="48.0901" lon="7.2914">
        <ele>228.4</ele>
        <time>2019-08-09T16:14:49Z</time>
      </trkpt>
      <trkpt lat="48.09008" lon="7.29134">
        <ele>228.3</ele>
        <time>2019-08-09T16:14:50Z</time>
      </trkpt>
      <trkpt lat="48.09006" lon="7.29129">
        <ele>228.3</ele>
        <time>2019-08-09T16:14:51Z</time>
      </trkpt>
      <trkpt lat="48.09004" lon="7.29124">
        <ele>228.2</ele>
        <time>2019-08-09T16:14:52Z</time>
      </trkpt>
      <trkpt lat="48.09001" lon="7.2912">
        <ele>228.2</ele>
        <time>2019-08-09T16:14:53Z</time>
      </trkpt>
      <trkpt lat="48.08999" lon="7.29115">
        <ele>228.1</ele>
        <time>2019-08-09T16:14:54Z</time>
      </trkpt>
      <trkpt lat="48.08996" lon="7.29111">
        <ele>228.1</ele>
        <time>2019-08-09T16:14:55Z</time>
      </trkpt>
      <trkpt lat="48.08994" lon="7.29107">
        <ele>228.2</ele>
        <time>2019-08-09T16:14:56Z</time>
      </trkpt>
      <trkpt lat="48.08993" lon="7.29103">
        <ele>228.2</ele>
        <time>2019-08-09T16:14:57Z</time>
      </trkpt>
      <trkpt lat="48.0899" lon="7.29098">
        <ele>228.2</ele>
        <time>2019-08-09T16:14:58Z</time>
      </trkpt>
      <trkpt lat="48.08988" lon="7.29093">
        <ele>228.2</ele>
        <time>2019-08-09T16:14:59Z</time>
      </trkpt>
      <trkpt lat="48.08986" lon="7.29088">
        <ele>228.2</ele>
        <time>2019-08-09T16:15:00Z</time>
      </trkpt>
      <trkpt lat="48.08983" lon="7.29082">
        <ele>228.2</ele>
        <time>2019-08-09T16:15:01Z</time>
      </trkpt>
      <trkpt lat="48.08982" lon="7.29078">
        <ele>228.2</ele>
        <time>2019-08-09T16:15:02Z</time>
      </trkpt>
      <trkpt lat="48.0898" lon="7.29073">
        <ele>228.2</ele>
        <time>2019-08-09T16:15:03Z</time>
      </trkpt>
      <trkpt lat="48.08978" lon="7.29067">
        <ele>228.2</ele>
        <time>2019-08-09T16:15:04Z</time>
      </trkpt>
      <trkpt lat="48.08976" lon="7.29063">
        <ele>228.1</ele>
        <time>2019-08-09T16:15:05Z</time>
      </trkpt>
      <trkpt lat="48.08974" lon="7.29058">
        <ele>228.1</ele>
        <time>2019-08-09T16:15:06Z</time>
      </trkpt>
      <trkpt lat="48.0897" lon="7.2905">
        <ele>228</ele>
        <time>2019-08-09T16:15:08Z</time>
      </trkpt>
      <trkpt lat="48.08968" lon="7.29046">
        <ele>227.9</ele>
        <time>2019-08-09T16:15:09Z</time>
      </trkpt>
      <trkpt lat="48.08966" lon="7.29041">
        <ele>227.9</ele>
        <time>2019-08-09T16:15:10Z</time>
      </trkpt>
      <trkpt lat="48.08964" lon="7.29036">
        <ele>227.8</ele>
        <time>2019-08-09T16:15:11Z</time>
      </trkpt>
      <trkpt lat="48.08962" lon="7.2903">
        <ele>227.7</ele>
        <time>2019-08-09T16:15:12Z</time>
      </trkpt>
      <trkpt lat="48.08961" lon="7.29024">
        <ele>227.6</ele>
        <time>2019-08-09T16:15:13Z</time>
      </trkpt>
      <trkpt lat="48.08959" lon="7.29019">
        <ele>227.6</ele>
        <time>2019-08-09T16:15:14Z</time>
      </trkpt>
      <trkpt lat="48.08956" lon="7.29014">
        <ele>227.5</ele>
        <time>2019-08-09T16:15:15Z</time>
      </trkpt>
      <trkpt lat="48.08953" lon="7.29009">
        <ele>227.5</ele>
        <time>2019-08-09T16:15:16Z</time>
      </trkpt>
      <trkpt lat="48.08951" lon="7.29005">
        <ele>227.4</ele>
        <time>2019-08-09T16:15:17Z</time>
      </trkpt>
      <trkpt lat="48.08949" lon="7.29">
        <ele>227.4</ele>
        <time>2019-08-09T16:15:18Z</time>
      </trkpt>
      <trkpt lat="48.08947" lon="7.28996">
        <ele>227.4</ele>
        <time>2019-08-09T16:15:19Z</time>
      </trkpt>
      <trkpt lat="48.08946" lon="7.28991">
        <ele>227.3</ele>
        <time>2019-08-09T16:15:20Z</time>
      </trkpt>
      <trkpt lat="48.08943" lon="7.28987">
        <ele>227.3</ele>
        <time>2019-08-09T16:15:21Z</time>
      </trkpt>
      <trkpt lat="48.08942" lon="7.28983">
        <ele>227.2</ele>
        <time>2019-08-09T16:15:22Z</time>
      </trkpt>
      <trkpt lat="48.0894" lon="7.28979">
        <ele>227.1</ele>
        <time>2019-08-09T16:15:23Z</time>
      </trkpt>
      <trkpt lat="48.08938" lon="7.28974">
        <ele>227.1</ele>
        <time>2019-08-09T16:15:24Z</time>
      </trkpt>
      <trkpt lat="48.08937" lon="7.28971">
        <ele>227</ele>
        <time>2019-08-09T16:15:25Z</time>
      </trkpt>
      <trkpt lat="48.08935" lon="7.28967">
        <ele>227</ele>
        <time>2019-08-09T16:15:26Z</time>
      </trkpt>
      <trkpt lat="48.08933" lon="7.28961">
        <ele>226.9</ele>
        <time>2019-08-09T16:15:27Z</time>
      </trkpt>
      <trkpt lat="48.08932" lon="7.28957">
        <ele>226.8</ele>
        <time>2019-08-09T16:15:28Z</time>
      </trkpt>
      <trkpt lat="48.0893" lon="7.28953">
        <ele>226.8</ele>
        <time>2019-08-09T16:15:29Z</time>
      </trkpt>
      <trkpt lat="48.08929" lon="7.28947">
        <ele>226.7</ele>
        <time>2019-08-09T16:15:30Z</time>
      </trkpt>
      <trkpt lat="48.08928" lon="7.28942">
        <ele>226.7</ele>
        <time>2019-08-09T16:15:31Z</time>
      </trkpt>
      <trkpt lat="48.08926" lon="7.28937">
        <ele>226.7</ele>
        <time>2019-08-09T16:15:32Z</time>
      </trkpt>
      <trkpt lat="48.08925" lon="7.28932">
        <ele>226.7</ele>
        <time>2019-08-09T16:15:33Z</time>
      </trkpt>
      <trkpt lat="48.08923" lon="7.28928">
        <ele>226.8</ele>
        <time>2019-08-09T16:15:34Z</time>
      </trkpt>
      <trkpt lat="48.08921" lon="7.28923">
        <ele>226.9</ele>
        <time>2019-08-09T16:15:35Z</time>
      </trkpt>
      <trkpt lat="48.08919" lon="7.28918">
        <ele>227</ele>
        <time>2019-08-09T16:15:36Z</time>
      </trkpt>
      <trkpt lat="48.08917" lon="7.28914">
        <ele>227.1</ele>
        <time>2019-08-09T16:15:37Z</time>
      </trkpt>
      <trkpt lat="48.08915" lon="7.2891">
        <ele>227.2</ele>
        <time>2019-08-09T16:15:38Z</time>
      </trkpt>
      <trkpt lat="48.08913" lon="7.28906">
        <ele>227.3</ele>
        <time>2019-08-09T16:15:39Z</time>
      </trkpt>
      <trkpt lat="48.08911" lon="7.289">
        <ele>227.4</ele>
        <time>2019-08-09T16:15:40Z</time>
      </trkpt>
      <trkpt lat="48.08909" lon="7.28895">
        <ele>227.5</ele>
        <time>2019-08-09T16:15:41Z</time>
      </trkpt>
      <trkpt lat="48.08908" lon="7.28891">
        <ele>227.6</ele>
        <time>2019-08-09T16:15:42Z</time>
      </trkpt>
      <trkpt lat="48.08906" lon="7.28887">
        <ele>227.7</ele>
        <time>2019-08-09T16:15:43Z</time>
      </trkpt>
      <trkpt lat="48.08904" lon="7.28882">
        <ele>227.7</ele>
        <time>2019-08-09T16:15:44Z</time>
      </trkpt>
      <trkpt lat="48.08902" lon="7.28876">
        <ele>227.8</ele>
        <time>2019-08-09T16:15:45Z</time>
      </trkpt>
      <trkpt lat="48.08901" lon="7.28872">
        <ele>227.9</ele>
        <time>2019-08-09T16:15:46Z</time>
      </trkpt>
      <trkpt lat="48.08899" lon="7.28866">
        <ele>227.9</ele>
        <time>2019-08-09T16:15:47Z</time>
      </trkpt>
      <trkpt lat="48.08898" lon="7.28861">
        <ele>228</ele>
        <time>2019-08-09T16:15:48Z</time>
      </trkpt>
      <trkpt lat="48.08896" lon="7.28853">
        <ele>228.1</ele>
        <time>2019-08-09T16:15:50Z</time>
      </trkpt>
      <trkpt lat="48.08895" lon="7.28847">
        <ele>228.1</ele>
        <time>2019-08-09T16:15:51Z</time>
      </trkpt>
      <trkpt lat="48.08894" lon="7.28841">
        <ele>228.1</ele>
        <time>2019-08-09T16:15:52Z</time>
      </trkpt>
      <trkpt lat="48.08894" lon="7.28836">
        <ele>228.1</ele>
        <time>2019-08-09T16:15:53Z</time>
      </trkpt>
      <trkpt lat="48.08893" lon="7.28831">
        <ele>228.1</ele>
        <time>2019-08-09T16:15:54Z</time>
      </trkpt>
      <trkpt lat="48.08892" lon="7.28827">
        <ele>228.1</ele>
        <time>2019-08-09T16:15:55Z</time>
      </trkpt>
      <trkpt lat="48.08892" lon="7.28822">
        <ele>228.1</ele>
        <time>2019-08-09T16:15:56Z</time>
      </trkpt>
      <trkpt lat="48.08891" lon="7.28817">
        <ele>228.1</ele>
        <time>2019-08-09T16:15:57Z</time>
      </trkpt>
      <trkpt lat="48.08891" lon="7.28812">
        <ele>228.1</ele>
        <time>2019-08-09T16:15:58Z</time>
      </trkpt>
      <trkpt lat="48.0889" lon="7.28805">
        <ele>228.1</ele>
        <time>2019-08-09T16:15:59Z</time>
      </trkpt>
      <trkpt lat="48.08889" lon="7.288">
        <ele>228</ele>
        <time>2019-08-09T16:16:00Z</time>
      </trkpt>
      <trkpt lat="48.08889" lon="7.28795">
        <ele>228</ele>
        <time>2019-08-09T16:16:01Z</time>
      </trkpt>
      <trkpt lat="48.08888" lon="7.28788">
        <ele>228</ele>
        <time>2019-08-09T16:16:02Z</time>
      </trkpt>
      <trkpt lat="48.08888" lon="7.28784">
        <ele>227.9</ele>
        <time>2019-08-09T16:16:03Z</time>
      </trkpt>
      <trkpt lat="48.08888" lon="7.28779">
        <ele>227.9</ele>
        <time>2019-08-09T16:16:04Z</time>
      </trkpt>
      <trkpt lat="48.08887" lon="7.28774">
        <ele>227.9</ele>
        <time>2019-08-09T16:16:05Z</time>
      </trkpt>
      <trkpt lat="48.08887" lon="7.28766">
        <ele>227.9</ele>
        <time>2019-08-09T16:16:07Z</time>
      </trkpt>
      <trkpt lat="48.08886" lon="7.28761">
        <ele>227.9</ele>
        <time>2019-08-09T16:16:08Z</time>
      </trkpt>
      <trkpt lat="48.08885" lon="7.28757">
        <ele>228</ele>
        <time>2019-08-09T16:16:09Z</time>
      </trkpt>
      <trkpt lat="48.08885" lon="7.28752">
        <ele>228</ele>
        <time>2019-08-09T16:16:10Z</time>
      </trkpt>
      <trkpt lat="48.08883" lon="7.28748">
        <ele>228</ele>
        <time>2019-08-09T16:16:11Z</time>
      </trkpt>
      <trkpt lat="48.08881" lon="7.28745">
        <ele>228.1</ele>
        <time>2019-08-09T16:16:12Z</time>
      </trkpt>
      <trkpt lat="48.08877" lon="7.28745">
        <ele>228.1</ele>
        <time>2019-08-09T16:16:13Z</time>
      </trkpt>
      <trkpt lat="48.08873" lon="7.28743">
        <ele>228.2</ele>
        <time>2019-08-09T16:16:14Z</time>
      </trkpt>
      <trkpt lat="48.08869" lon="7.28741">
        <ele>228.2</ele>
        <time>2019-08-09T16:16:15Z</time>
      </trkpt>
      <trkpt lat="48.08866" lon="7.28739">
        <ele>228.3</ele>
        <time>2019-08-09T16:16:16Z</time>
      </trkpt>
      <trkpt lat="48.08863" lon="7.28736">
        <ele>228.3</ele>
        <time>2019-08-09T16:16:17Z</time>
      </trkpt>
      <trkpt lat="48.08859" lon="7.28733">
        <ele>228.3</ele>
        <time>2019-08-09T16:16:18Z</time>
      </trkpt>
      <trkpt lat="48.08856" lon="7.2873">
        <ele>228.4</ele>
        <time>2019-08-09T16:16:19Z</time>
      </trkpt>
      <trkpt lat="48.08854" lon="7.28727">
        <ele>228.4</ele>
        <time>2019-08-09T16:16:20Z</time>
      </trkpt>
      <trkpt lat="48.0885" lon="7.28723">
        <ele>228.4</ele>
        <time>2019-08-09T16:16:21Z</time>
      </trkpt>
      <trkpt lat="48.08849" lon="7.28719">
        <ele>228.4</ele>
        <time>2019-08-09T16:16:22Z</time>
      </trkpt>
      <trkpt lat="48.08848" lon="7.28714">
        <ele>228.4</ele>
        <time>2019-08-09T16:16:23Z</time>
      </trkpt>
      <trkpt lat="48.08846" lon="7.2871">
        <ele>228.5</ele>
        <time>2019-08-09T16:16:24Z</time>
      </trkpt>
      <trkpt lat="48.08844" lon="7.28703">
        <ele>228.5</ele>
        <time>2019-08-09T16:16:26Z</time>
      </trkpt>
      <trkpt lat="48.08842" lon="7.28699">
        <ele>228.5</ele>
        <time>2019-08-09T16:16:27Z</time>
      </trkpt>
      <trkpt lat="48.0884" lon="7.28695">
        <ele>228.6</ele>
        <time>2019-08-09T16:16:29Z</time>
      </trkpt>
      <trkpt lat="48.08837" lon="7.28687">
        <ele>228.7</ele>
        <time>2019-08-09T16:16:31Z</time>
      </trkpt>
      <trkpt lat="48.08836" lon="7.28683">
        <ele>228.7</ele>
        <time>2019-08-09T16:16:32Z</time>
      </trkpt>
      <trkpt lat="48.08835" lon="7.28679">
        <ele>228.7</ele>
        <time>2019-08-09T16:16:33Z</time>
      </trkpt>
      <trkpt lat="48.08834" lon="7.28675">
        <ele>228.8</ele>
        <time>2019-08-09T16:16:34Z</time>
      </trkpt>
      <trkpt lat="48.08833" lon="7.28671">
        <ele>228.8</ele>
        <time>2019-08-09T16:16:35Z</time>
      </trkpt>
      <trkpt lat="48.08831" lon="7.28664">
        <ele>228.9</ele>
        <time>2019-08-09T16:16:37Z</time>
      </trkpt>
      <trkpt lat="48.08829" lon="7.28661">
        <ele>228.9</ele>
        <time>2019-08-09T16:16:38Z</time>
      </trkpt>
      <trkpt lat="48.08828" lon="7.28657">
        <ele>228.9</ele>
        <time>2019-08-09T16:16:39Z</time>
      </trkpt>
      <trkpt lat="48.08826" lon="7.28652">
        <ele>229</ele>
        <time>2019-08-09T16:16:40Z</time>
      </trkpt>
      <trkpt lat="48.08824" lon="7.28649">
        <ele>229</ele>
        <time>2019-08-09T16:16:41Z</time>
      </trkpt>
      <trkpt lat="48.08821" lon="7.28641">
        <ele>229.1</ele>
        <time>2019-08-09T16:16:43Z</time>
      </trkpt>
      <trkpt lat="48.08819" lon="7.28638">
        <ele>229.1</ele>
        <time>2019-08-09T16:16:44Z</time>
      </trkpt>
      <trkpt lat="48.08818" lon="7.28633">
        <ele>229.2</ele>
        <time>2019-08-09T16:16:45Z</time>
      </trkpt>
      <trkpt lat="48.08816" lon="7.28628">
        <ele>229.3</ele>
        <time>2019-08-09T16:16:46Z</time>
      </trkpt>
      <trkpt lat="48.08814" lon="7.28624">
        <ele>229.3</ele>
        <time>2019-08-09T16:16:47Z</time>
      </trkpt>
      <trkpt lat="48.08811" lon="7.2862">
        <ele>229.4</ele>
        <time>2019-08-09T16:16:48Z</time>
      </trkpt>
      <trkpt lat="48.08808" lon="7.28613">
        <ele>229.5</ele>
        <time>2019-08-09T16:16:49Z</time>
      </trkpt>
      <trkpt lat="48.08806" lon="7.28609">
        <ele>229.6</ele>
        <time>2019-08-09T16:16:50Z</time>
      </trkpt>
      <trkpt lat="48.08804" lon="7.28604">
        <ele>229.6</ele>
        <time>2019-08-09T16:16:51Z</time>
      </trkpt>
      <trkpt lat="48.08804" lon="7.28599">
        <ele>229.7</ele>
        <time>2019-08-09T16:16:52Z</time>
      </trkpt>
      <trkpt lat="48.08802" lon="7.28593">
        <ele>229.7</ele>
        <time>2019-08-09T16:16:53Z</time>
      </trkpt>
      <trkpt lat="48.088" lon="7.28588">
        <ele>229.7</ele>
        <time>2019-08-09T16:16:54Z</time>
      </trkpt>
      <trkpt lat="48.08799" lon="7.28583">
        <ele>229.7</ele>
        <time>2019-08-09T16:16:55Z</time>
      </trkpt>
      <trkpt lat="48.08797" lon="7.28578">
        <ele>229.7</ele>
        <time>2019-08-09T16:16:56Z</time>
      </trkpt>
      <trkpt lat="48.08796" lon="7.28573">
        <ele>229.7</ele>
        <time>2019-08-09T16:16:57Z</time>
      </trkpt>
      <trkpt lat="48.08794" lon="7.28568">
        <ele>229.7</ele>
        <time>2019-08-09T16:16:58Z</time>
      </trkpt>
      <trkpt lat="48.08791" lon="7.28562">
        <ele>229.7</ele>
        <time>2019-08-09T16:16:59Z</time>
      </trkpt>
      <trkpt lat="48.08789" lon="7.28557">
        <ele>229.7</ele>
        <time>2019-08-09T16:17:00Z</time>
      </trkpt>
      <trkpt lat="48.08785" lon="7.2855">
        <ele>229.7</ele>
        <time>2019-08-09T16:17:02Z</time>
      </trkpt>
      <trkpt lat="48.08782" lon="7.28545">
        <ele>229.7</ele>
        <time>2019-08-09T16:17:03Z</time>
      </trkpt>
      <trkpt lat="48.0878" lon="7.2854">
        <ele>229.7</ele>
        <time>2019-08-09T16:17:04Z</time>
      </trkpt>
      <trkpt lat="48.08778" lon="7.28534">
        <ele>229.8</ele>
        <time>2019-08-09T16:17:05Z</time>
      </trkpt>
      <trkpt lat="48.08776" lon="7.28528">
        <ele>229.8</ele>
        <time>2019-08-09T16:17:06Z</time>
      </trkpt>
      <trkpt lat="48.08772" lon="7.28518">
        <ele>229.9</ele>
        <time>2019-08-09T16:17:08Z</time>
      </trkpt>
      <trkpt lat="48.0877" lon="7.28513">
        <ele>230</ele>
        <time>2019-08-09T16:17:09Z</time>
      </trkpt>
      <trkpt lat="48.08768" lon="7.28508">
        <ele>230.1</ele>
        <time>2019-08-09T16:17:10Z</time>
      </trkpt>
      <trkpt lat="48.08767" lon="7.28502">
        <ele>230.1</ele>
        <time>2019-08-09T16:17:11Z</time>
      </trkpt>
      <trkpt lat="48.08765" lon="7.28497">
        <ele>230.2</ele>
        <time>2019-08-09T16:17:12Z</time>
      </trkpt>
      <trkpt lat="48.08764" lon="7.28492">
        <ele>230.3</ele>
        <time>2019-08-09T16:17:13Z</time>
      </trkpt>
      <trkpt lat="48.08763" lon="7.28486">
        <ele>230.3</ele>
        <time>2019-08-09T16:17:14Z</time>
      </trkpt>
      <trkpt lat="48.08762" lon="7.28481">
        <ele>230.4</ele>
        <time>2019-08-09T16:17:15Z</time>
      </trkpt>
      <trkpt lat="48.08761" lon="7.28475">
        <ele>230.5</ele>
        <time>2019-08-09T16:17:16Z</time>
      </trkpt>
      <trkpt lat="48.08761" lon="7.28469">
        <ele>230.5</ele>
        <time>2019-08-09T16:17:17Z</time>
      </trkpt>
      <trkpt lat="48.0876" lon="7.28463">
        <ele>230.5</ele>
        <time>2019-08-09T16:17:18Z</time>
      </trkpt>
      <trkpt lat="48.08759" lon="7.28457">
        <ele>230.5</ele>
        <time>2019-08-09T16:17:19Z</time>
      </trkpt>
      <trkpt lat="48.08757" lon="7.28452">
        <ele>230.6</ele>
        <time>2019-08-09T16:17:20Z</time>
      </trkpt>
      <trkpt lat="48.08757" lon="7.28446">
        <ele>230.6</ele>
        <time>2019-08-09T16:17:21Z</time>
      </trkpt>
      <trkpt lat="48.08755" lon="7.28441">
        <ele>230.6</ele>
        <time>2019-08-09T16:17:22Z</time>
      </trkpt>
      <trkpt lat="48.08754" lon="7.28436">
        <ele>230.6</ele>
        <time>2019-08-09T16:17:23Z</time>
      </trkpt>
      <trkpt lat="48.08754" lon="7.28431">
        <ele>230.6</ele>
        <time>2019-08-09T16:17:24Z</time>
      </trkpt>
      <trkpt lat="48.08752" lon="7.28425">
        <ele>230.7</ele>
        <time>2019-08-09T16:17:25Z</time>
      </trkpt>
      <trkpt lat="48.0875" lon="7.28419">
        <ele>230.8</ele>
        <time>2019-08-09T16:17:26Z</time>
      </trkpt>
      <trkpt lat="48.08748" lon="7.28413">
        <ele>230.8</ele>
        <time>2019-08-09T16:17:27Z</time>
      </trkpt>
      <trkpt lat="48.08747" lon="7.28409">
        <ele>230.9</ele>
        <time>2019-08-09T16:17:28Z</time>
      </trkpt>
      <trkpt lat="48.08745" lon="7.28404">
        <ele>231</ele>
        <time>2019-08-09T16:17:29Z</time>
      </trkpt>
      <trkpt lat="48.08744" lon="7.28397">
        <ele>231.1</ele>
        <time>2019-08-09T16:17:30Z</time>
      </trkpt>
      <trkpt lat="48.08742" lon="7.28391">
        <ele>231.2</ele>
        <time>2019-08-09T16:17:31Z</time>
      </trkpt>
      <trkpt lat="48.08741" lon="7.28386">
        <ele>231.3</ele>
        <time>2019-08-09T16:17:32Z</time>
      </trkpt>
      <trkpt lat="48.0874" lon="7.28382">
        <ele>231.4</ele>
        <time>2019-08-09T16:17:33Z</time>
      </trkpt>
      <trkpt lat="48.08739" lon="7.28376">
        <ele>231.4</ele>
        <time>2019-08-09T16:17:34Z</time>
      </trkpt>
      <trkpt lat="48.08738" lon="7.28371">
        <ele>231.4</ele>
        <time>2019-08-09T16:17:35Z</time>
      </trkpt>
      <trkpt lat="48.08736" lon="7.28365">
        <ele>231.4</ele>
        <time>2019-08-09T16:17:36Z</time>
      </trkpt>
      <trkpt lat="48.08734" lon="7.28359">
        <ele>231.4</ele>
        <time>2019-08-09T16:17:37Z</time>
      </trkpt>
      <trkpt lat="48.08733" lon="7.28354">
        <ele>231.4</ele>
        <time>2019-08-09T16:17:38Z</time>
      </trkpt>
      <trkpt lat="48.08732" lon="7.2835">
        <ele>231.5</ele>
        <time>2019-08-09T16:17:39Z</time>
      </trkpt>
      <trkpt lat="48.0873" lon="7.28345">
        <ele>231.5</ele>
        <time>2019-08-09T16:17:40Z</time>
      </trkpt>
      <trkpt lat="48.08729" lon="7.28341">
        <ele>231.5</ele>
        <time>2019-08-09T16:17:41Z</time>
      </trkpt>
      <trkpt lat="48.08727" lon="7.28337">
        <ele>231.5</ele>
        <time>2019-08-09T16:17:42Z</time>
      </trkpt>
      <trkpt lat="48.08725" lon="7.28332">
        <ele>231.5</ele>
        <time>2019-08-09T16:17:43Z</time>
      </trkpt>
      <trkpt lat="48.08724" lon="7.28327">
        <ele>231.6</ele>
        <time>2019-08-09T16:17:44Z</time>
      </trkpt>
      <trkpt lat="48.08722" lon="7.28321">
        <ele>231.6</ele>
        <time>2019-08-09T16:17:45Z</time>
      </trkpt>
      <trkpt lat="48.08721" lon="7.28317">
        <ele>231.6</ele>
        <time>2019-08-09T16:17:46Z</time>
      </trkpt>
      <trkpt lat="48.08718" lon="7.2831">
        <ele>231.7</ele>
        <time>2019-08-09T16:17:47Z</time>
      </trkpt>
      <trkpt lat="48.08716" lon="7.28305">
        <ele>231.7</ele>
        <time>2019-08-09T16:17:48Z</time>
      </trkpt>
      <trkpt lat="48.08714" lon="7.283">
        <ele>231.7</ele>
        <time>2019-08-09T16:17:49Z</time>
      </trkpt>
      <trkpt lat="48.08711" lon="7.28295">
        <ele>231.7</ele>
        <time>2019-08-09T16:17:50Z</time>
      </trkpt>
      <trkpt lat="48.08709" lon="7.28289">
        <ele>231.8</ele>
        <time>2019-08-09T16:17:51Z</time>
      </trkpt>
      <trkpt lat="48.08706" lon="7.28282">
        <ele>231.8</ele>
        <time>2019-08-09T16:17:53Z</time>
      </trkpt>
      <trkpt lat="48.08704" lon="7.28276">
        <ele>231.8</ele>
        <time>2019-08-09T16:17:54Z</time>
      </trkpt>
      <trkpt lat="48.08703" lon="7.28273">
        <ele>231.8</ele>
        <time>2019-08-09T16:17:55Z</time>
      </trkpt>
      <trkpt lat="48.08701" lon="7.28269">
        <ele>231.9</ele>
        <time>2019-08-09T16:17:56Z</time>
      </trkpt>
      <trkpt lat="48.08698" lon="7.28263">
        <ele>231.9</ele>
        <time>2019-08-09T16:17:57Z</time>
      </trkpt>
      <trkpt lat="48.08695" lon="7.28255">
        <ele>231.9</ele>
        <time>2019-08-09T16:17:59Z</time>
      </trkpt>
      <trkpt lat="48.08694" lon="7.28249">
        <ele>231.9</ele>
        <time>2019-08-09T16:18:00Z</time>
      </trkpt>
      <trkpt lat="48.08692" lon="7.28244">
        <ele>232</ele>
        <time>2019-08-09T16:18:01Z</time>
      </trkpt>
      <trkpt lat="48.08691" lon="7.28239">
        <ele>232</ele>
        <time>2019-08-09T16:18:02Z</time>
      </trkpt>
      <trkpt lat="48.0869" lon="7.28233">
        <ele>232</ele>
        <time>2019-08-09T16:18:03Z</time>
      </trkpt>
      <trkpt lat="48.08688" lon="7.28228">
        <ele>232.1</ele>
        <time>2019-08-09T16:18:04Z</time>
      </trkpt>
      <trkpt lat="48.08686" lon="7.28223">
        <ele>232.1</ele>
        <time>2019-08-09T16:18:05Z</time>
      </trkpt>
      <trkpt lat="48.08685" lon="7.28218">
        <ele>232.1</ele>
        <time>2019-08-09T16:18:06Z</time>
      </trkpt>
      <trkpt lat="48.08684" lon="7.28214">
        <ele>232.2</ele>
        <time>2019-08-09T16:18:07Z</time>
      </trkpt>
      <trkpt lat="48.08682" lon="7.28209">
        <ele>232.2</ele>
        <time>2019-08-09T16:18:08Z</time>
      </trkpt>
      <trkpt lat="48.08681" lon="7.28204">
        <ele>232.3</ele>
        <time>2019-08-09T16:18:09Z</time>
      </trkpt>
      <trkpt lat="48.08679" lon="7.28198">
        <ele>232.3</ele>
        <time>2019-08-09T16:18:10Z</time>
      </trkpt>
      <trkpt lat="48.08679" lon="7.28194">
        <ele>232.4</ele>
        <time>2019-08-09T16:18:11Z</time>
      </trkpt>
      <trkpt lat="48.08678" lon="7.28189">
        <ele>232.4</ele>
        <time>2019-08-09T16:18:12Z</time>
      </trkpt>
      <trkpt lat="48.08676" lon="7.28185">
        <ele>232.5</ele>
        <time>2019-08-09T16:18:13Z</time>
      </trkpt>
      <trkpt lat="48.08675" lon="7.2818">
        <ele>232.5</ele>
        <time>2019-08-09T16:18:14Z</time>
      </trkpt>
      <trkpt lat="48.08674" lon="7.28175">
        <ele>232.6</ele>
        <time>2019-08-09T16:18:15Z</time>
      </trkpt>
      <trkpt lat="48.08673" lon="7.2817">
        <ele>232.7</ele>
        <time>2019-08-09T16:18:16Z</time>
      </trkpt>
      <trkpt lat="48.08672" lon="7.28164">
        <ele>232.8</ele>
        <time>2019-08-09T16:18:17Z</time>
      </trkpt>
      <trkpt lat="48.0867" lon="7.28159">
        <ele>232.8</ele>
        <time>2019-08-09T16:18:18Z</time>
      </trkpt>
      <trkpt lat="48.08669" lon="7.28154">
        <ele>233</ele>
        <time>2019-08-09T16:18:19Z</time>
      </trkpt>
      <trkpt lat="48.08667" lon="7.28149">
        <ele>233.1</ele>
        <time>2019-08-09T16:18:20Z</time>
      </trkpt>
      <trkpt lat="48.08666" lon="7.28145">
        <ele>233.2</ele>
        <time>2019-08-09T16:18:21Z</time>
      </trkpt>
      <trkpt lat="48.08665" lon="7.2814">
        <ele>233.3</ele>
        <time>2019-08-09T16:18:22Z</time>
      </trkpt>
      <trkpt lat="48.08663" lon="7.28135">
        <ele>233.4</ele>
        <time>2019-08-09T16:18:23Z</time>
      </trkpt>
      <trkpt lat="48.08662" lon="7.2813">
        <ele>233.5</ele>
        <time>2019-08-09T16:18:24Z</time>
      </trkpt>
      <trkpt lat="48.08661" lon="7.28125">
        <ele>233.6</ele>
        <time>2019-08-09T16:18:25Z</time>
      </trkpt>
      <trkpt lat="48.0866" lon="7.28121">
        <ele>233.7</ele>
        <time>2019-08-09T16:18:26Z</time>
      </trkpt>
      <trkpt lat="48.08658" lon="7.28118">
        <ele>233.8</ele>
        <time>2019-08-09T16:18:27Z</time>
      </trkpt>
      <trkpt lat="48.08657" lon="7.28113">
        <ele>233.9</ele>
        <time>2019-08-09T16:18:28Z</time>
      </trkpt>
      <trkpt lat="48.08654" lon="7.28105">
        <ele>234.1</ele>
        <time>2019-08-09T16:18:30Z</time>
      </trkpt>
      <trkpt lat="48.08652" lon="7.28098">
        <ele>234.2</ele>
        <time>2019-08-09T16:18:31Z</time>
      </trkpt>
      <trkpt lat="48.0865" lon="7.28093">
        <ele>234.3</ele>
        <time>2019-08-09T16:18:32Z</time>
      </trkpt>
      <trkpt lat="48.08649" lon="7.28088">
        <ele>234.3</ele>
        <time>2019-08-09T16:18:33Z</time>
      </trkpt>
      <trkpt lat="48.08647" lon="7.28083">
        <ele>234.4</ele>
        <time>2019-08-09T16:18:34Z</time>
      </trkpt>
      <trkpt lat="48.08646" lon="7.28079">
        <ele>234.5</ele>
        <time>2019-08-09T16:18:35Z</time>
      </trkpt>
      <trkpt lat="48.08645" lon="7.28074">
        <ele>234.5</ele>
        <time>2019-08-09T16:18:36Z</time>
      </trkpt>
      <trkpt lat="48.08642" lon="7.28066">
        <ele>234.6</ele>
        <time>2019-08-09T16:18:38Z</time>
      </trkpt>
      <trkpt lat="48.08641" lon="7.2806">
        <ele>234.6</ele>
        <time>2019-08-09T16:18:39Z</time>
      </trkpt>
      <trkpt lat="48.0864" lon="7.28054">
        <ele>234.7</ele>
        <time>2019-08-09T16:18:41Z</time>
      </trkpt>
      <trkpt lat="48.08637" lon="7.28047">
        <ele>234.8</ele>
        <time>2019-08-09T16:18:43Z</time>
      </trkpt>
      <trkpt lat="48.08636" lon="7.28043">
        <ele>234.9</ele>
        <time>2019-08-09T16:18:45Z</time>
      </trkpt>
      <trkpt lat="48.08635" lon="7.28039">
        <ele>234.9</ele>
        <time>2019-08-09T16:18:48Z</time>
      </trkpt>
      <trkpt lat="48.08634" lon="7.28034">
        <ele>235</ele>
        <time>2019-08-09T16:18:51Z</time>
      </trkpt>
      <trkpt lat="48.08634" lon="7.28029">
        <ele>235</ele>
        <time>2019-08-09T16:18:53Z</time>
      </trkpt>
      <trkpt lat="48.08634" lon="7.28025">
        <ele>235.1</ele>
        <time>2019-08-09T16:18:55Z</time>
      </trkpt>
      <trkpt lat="48.08633" lon="7.28019">
        <ele>235.1</ele>
        <time>2019-08-09T16:18:57Z</time>
      </trkpt>
      <trkpt lat="48.08633" lon="7.28012">
        <ele>235.2</ele>
        <time>2019-08-09T16:18:59Z</time>
      </trkpt>
      <trkpt lat="48.08632" lon="7.28004">
        <ele>235.3</ele>
        <time>2019-08-09T16:19:01Z</time>
      </trkpt>
      <trkpt lat="48.08632" lon="7.27998">
        <ele>235.3</ele>
        <time>2019-08-09T16:19:03Z</time>
      </trkpt>
      <trkpt lat="48.08629" lon="7.27993">
        <ele>235.3</ele>
        <time>2019-08-09T16:19:05Z</time>
      </trkpt>
      <trkpt lat="48.08628" lon="7.27986">
        <ele>235.4</ele>
        <time>2019-08-09T16:19:07Z</time>
      </trkpt>
      <trkpt lat="48.08627" lon="7.27982">
        <ele>235.4</ele>
        <time>2019-08-09T16:19:08Z</time>
      </trkpt>
      <trkpt lat="48.08626" lon="7.27975">
        <ele>235.4</ele>
        <time>2019-08-09T16:19:10Z</time>
      </trkpt>
      <trkpt lat="48.08624" lon="7.2797">
        <ele>235.4</ele>
        <time>2019-08-09T16:19:13Z</time>
      </trkpt>
      <trkpt lat="48.08622" lon="7.27963">
        <ele>235.5</ele>
        <time>2019-08-09T16:19:56Z</time>
      </trkpt>
      <trkpt lat="48.0862" lon="7.27966">
        <ele>235.5</ele>
        <time>2019-08-09T16:19:59Z</time>
      </trkpt>
      <trkpt lat="48.08615" lon="7.27971">
        <ele>235.4</ele>
        <time>2019-08-09T16:20:01Z</time>
      </trkpt>
      <trkpt lat="48.08612" lon="7.27976">
        <ele>235.2</ele>
        <time>2019-08-09T16:20:02Z</time>
      </trkpt>
      <trkpt lat="48.0861" lon="7.27981">
        <ele>235.1</ele>
        <time>2019-08-09T16:20:03Z</time>
      </trkpt>
      <trkpt lat="48.08607" lon="7.27987">
        <ele>234.9</ele>
        <time>2019-08-09T16:20:04Z</time>
      </trkpt>
      <trkpt lat="48.08604" lon="7.2799">
        <ele>234.8</ele>
        <time>2019-08-09T16:20:05Z</time>
      </trkpt>
      <trkpt lat="48.08602" lon="7.27994">
        <ele>234.7</ele>
        <time>2019-08-09T16:20:06Z</time>
      </trkpt>
      <trkpt lat="48.086" lon="7.27997">
        <ele>234.6</ele>
        <time>2019-08-09T16:20:07Z</time>
      </trkpt>
      <trkpt lat="48.08598" lon="7.28">
        <ele>234.5</ele>
        <time>2019-08-09T16:20:08Z</time>
      </trkpt>
      <trkpt lat="48.08596" lon="7.28003">
        <ele>234.3</ele>
        <time>2019-08-09T16:20:09Z</time>
      </trkpt>
      <trkpt lat="48.08593" lon="7.28008">
        <ele>234.3</ele>
        <time>2019-08-09T16:20:11Z</time>
      </trkpt>
      <trkpt lat="48.08593" lon="7.28013">
        <ele>234.3</ele>
        <time>2019-08-09T16:20:16Z</time>
      </trkpt>
      <trkpt lat="48.08595" lon="7.28009">
        <ele>234.3</ele>
        <time>2019-08-09T16:20:37Z</time>
      </trkpt>
      <trkpt lat="48.08591" lon="7.28009">
        <ele>234.3</ele>
        <time>2019-08-09T16:21:20Z</time>
      </trkpt>
      <trkpt lat="48.08588" lon="7.28004">
        <ele>234.3</ele>
        <time>2019-08-09T16:21:22Z</time>
      </trkpt>
      <trkpt lat="48.08586" lon="7.27999">
        <ele>234.3</ele>
        <time>2019-08-09T16:21:24Z</time>
      </trkpt>
      <trkpt lat="48.08581" lon="7.28002">
        <ele>234.2</ele>
        <time>2019-08-09T16:21:26Z</time>
      </trkpt>
      <trkpt lat="48.08579" lon="7.28006">
        <ele>234.2</ele>
        <time>2019-08-09T16:21:27Z</time>
      </trkpt>
      <trkpt lat="48.08576" lon="7.2801">
        <ele>234.2</ele>
        <time>2019-08-09T16:21:28Z</time>
      </trkpt>
      <trkpt lat="48.08573" lon="7.28013">
        <ele>234.2</ele>
        <time>2019-08-09T16:21:29Z</time>
      </trkpt>
      <trkpt lat="48.08571" lon="7.28017">
        <ele>234.1</ele>
        <time>2019-08-09T16:21:30Z</time>
      </trkpt>
      <trkpt lat="48.08568" lon="7.2802">
        <ele>234.1</ele>
        <time>2019-08-09T16:21:31Z</time>
      </trkpt>
      <trkpt lat="48.08566" lon="7.28024">
        <ele>234.1</ele>
        <time>2019-08-09T16:21:32Z</time>
      </trkpt>
      <trkpt lat="48.08563" lon="7.28027">
        <ele>234.2</ele>
        <time>2019-08-09T16:21:33Z</time>
      </trkpt>
      <trkpt lat="48.08561" lon="7.28029">
        <ele>234.2</ele>
        <time>2019-08-09T16:21:34Z</time>
      </trkpt>
      <trkpt lat="48.08558" lon="7.28035">
        <ele>234.2</ele>
        <time>2019-08-09T16:21:36Z</time>
      </trkpt>
      <trkpt lat="48.08552" lon="7.28037">
        <ele>234.2</ele>
        <time>2019-08-09T16:21:38Z</time>
      </trkpt>
      <trkpt lat="48.0855" lon="7.2804">
        <ele>234.2</ele>
        <time>2019-08-09T16:21:39Z</time>
      </trkpt>
      <trkpt lat="48.08548" lon="7.28044">
        <ele>234.2</ele>
        <time>2019-08-09T16:21:40Z</time>
      </trkpt>
      <trkpt lat="48.08545" lon="7.28049">
        <ele>234.2</ele>
        <time>2019-08-09T16:21:42Z</time>
      </trkpt>
      <trkpt lat="48.08543" lon="7.28053">
        <ele>234.2</ele>
        <time>2019-08-09T16:21:44Z</time>
      </trkpt>
      <trkpt lat="48.08541" lon="7.28061">
        <ele>234.2</ele>
        <time>2019-08-09T16:21:46Z</time>
      </trkpt>
      <trkpt lat="48.08539" lon="7.28065">
        <ele>234.2</ele>
        <time>2019-08-09T16:21:47Z</time>
      </trkpt>
      <trkpt lat="48.08537" lon="7.28068">
        <ele>234.2</ele>
        <time>2019-08-09T16:21:48Z</time>
      </trkpt>
      <trkpt lat="48.08534" lon="7.28072">
        <ele>234.1</ele>
        <time>2019-08-09T16:21:49Z</time>
      </trkpt>
      <trkpt lat="48.08532" lon="7.28075">
        <ele>234.1</ele>
        <time>2019-08-09T16:21:50Z</time>
      </trkpt>
      <trkpt lat="48.0853" lon="7.2808">
        <ele>234.1</ele>
        <time>2019-08-09T16:21:51Z</time>
      </trkpt>
      <trkpt lat="48.08528" lon="7.28086">
        <ele>234</ele>
        <time>2019-08-09T16:21:52Z</time>
      </trkpt>
      <trkpt lat="48.08526" lon="7.28092">
        <ele>234</ele>
        <time>2019-08-09T16:21:53Z</time>
      </trkpt>
      <trkpt lat="48.08524" lon="7.28098">
        <ele>233.9</ele>
        <time>2019-08-09T16:21:54Z</time>
      </trkpt>
      <trkpt lat="48.08523" lon="7.28103">
        <ele>233.8</ele>
        <time>2019-08-09T16:21:55Z</time>
      </trkpt>
      <trkpt lat="48.08522" lon="7.28109">
        <ele>233.8</ele>
        <time>2019-08-09T16:21:56Z</time>
      </trkpt>
      <trkpt lat="48.0852" lon="7.28114">
        <ele>233.8</ele>
        <time>2019-08-09T16:21:57Z</time>
      </trkpt>
      <trkpt lat="48.08519" lon="7.28119">
        <ele>233.8</ele>
        <time>2019-08-09T16:21:58Z</time>
      </trkpt>
      <trkpt lat="48.08518" lon="7.28124">
        <ele>233.8</ele>
        <time>2019-08-09T16:21:59Z</time>
      </trkpt>
      <trkpt lat="48.08515" lon="7.28128">
        <ele>233.8</ele>
        <time>2019-08-09T16:22:00Z</time>
      </trkpt>
      <trkpt lat="48.08513" lon="7.2813">
        <ele>233.8</ele>
        <time>2019-08-09T16:22:01Z</time>
      </trkpt>
      <trkpt lat="48.08509" lon="7.28131">
        <ele>233.8</ele>
        <time>2019-08-09T16:22:02Z</time>
      </trkpt>
      <trkpt lat="48.08506" lon="7.28132">
        <ele>233.8</ele>
        <time>2019-08-09T16:22:03Z</time>
      </trkpt>
      <trkpt lat="48.08503" lon="7.28133">
        <ele>233.8</ele>
        <time>2019-08-09T16:22:04Z</time>
      </trkpt>
      <trkpt lat="48.085" lon="7.28134">
        <ele>233.8</ele>
        <time>2019-08-09T16:22:05Z</time>
      </trkpt>
      <trkpt lat="48.08497" lon="7.28134">
        <ele>233.8</ele>
        <time>2019-08-09T16:22:06Z</time>
      </trkpt>
      <trkpt lat="48.08494" lon="7.28135">
        <ele>233.8</ele>
        <time>2019-08-09T16:22:07Z</time>
      </trkpt>
      <trkpt lat="48.0849" lon="7.28135">
        <ele>233.8</ele>
        <time>2019-08-09T16:22:09Z</time>
      </trkpt>
      <trkpt lat="48.08485" lon="7.28137">
        <ele>233.8</ele>
        <time>2019-08-09T16:22:11Z</time>
      </trkpt>
      <trkpt lat="48.08482" lon="7.28138">
        <ele>233.8</ele>
        <time>2019-08-09T16:22:12Z</time>
      </trkpt>
      <trkpt lat="48.08479" lon="7.28139">
        <ele>233.8</ele>
        <time>2019-08-09T16:22:13Z</time>
      </trkpt>
      <trkpt lat="48.08476" lon="7.2814">
        <ele>233.8</ele>
        <time>2019-08-09T16:22:14Z</time>
      </trkpt>
      <trkpt lat="48.08473" lon="7.28141">
        <ele>233.8</ele>
        <time>2019-08-09T16:22:15Z</time>
      </trkpt>
      <trkpt lat="48.08469" lon="7.28141">
        <ele>233.8</ele>
        <time>2019-08-09T16:22:16Z</time>
      </trkpt>
      <trkpt lat="48.08466" lon="7.28142">
        <ele>233.9</ele>
        <time>2019-08-09T16:22:17Z</time>
      </trkpt>
      <trkpt lat="48.08461" lon="7.28142">
        <ele>233.9</ele>
        <time>2019-08-09T16:22:18Z</time>
      </trkpt>
      <trkpt lat="48.08458" lon="7.28142">
        <ele>233.9</ele>
        <time>2019-08-09T16:22:19Z</time>
      </trkpt>
      <trkpt lat="48.08455" lon="7.28143">
        <ele>233.9</ele>
        <time>2019-08-09T16:22:20Z</time>
      </trkpt>
      <trkpt lat="48.08451" lon="7.28144">
        <ele>233.9</ele>
        <time>2019-08-09T16:22:21Z</time>
      </trkpt>
      <trkpt lat="48.08448" lon="7.28144">
        <ele>234</ele>
        <time>2019-08-09T16:22:22Z</time>
      </trkpt>
      <trkpt lat="48.08443" lon="7.28146">
        <ele>234</ele>
        <time>2019-08-09T16:22:24Z</time>
      </trkpt>
      <trkpt lat="48.08438" lon="7.28149">
        <ele>234</ele>
        <time>2019-08-09T16:22:26Z</time>
      </trkpt>
      <trkpt lat="48.08434" lon="7.28149">
        <ele>234.1</ele>
        <time>2019-08-09T16:22:27Z</time>
      </trkpt>
      <trkpt lat="48.08431" lon="7.2815">
        <ele>234.1</ele>
        <time>2019-08-09T16:22:28Z</time>
      </trkpt>
      <trkpt lat="48.08427" lon="7.28151">
        <ele>234.2</ele>
        <time>2019-08-09T16:22:29Z</time>
      </trkpt>
      <trkpt lat="48.08424" lon="7.28152">
        <ele>234.2</ele>
        <time>2019-08-09T16:22:30Z</time>
      </trkpt>
      <trkpt lat="48.08421" lon="7.28152">
        <ele>234.3</ele>
        <time>2019-08-09T16:22:31Z</time>
      </trkpt>
      <trkpt lat="48.08418" lon="7.28153">
        <ele>234.3</ele>
        <time>2019-08-09T16:22:32Z</time>
      </trkpt>
      <trkpt lat="48.08415" lon="7.28155">
        <ele>234.4</ele>
        <time>2019-08-09T16:22:33Z</time>
      </trkpt>
      <trkpt lat="48.08412" lon="7.28157">
        <ele>234.5</ele>
        <time>2019-08-09T16:22:34Z</time>
      </trkpt>
      <trkpt lat="48.08408" lon="7.28157">
        <ele>234.6</ele>
        <time>2019-08-09T16:22:35Z</time>
      </trkpt>
      <trkpt lat="48.08403" lon="7.28158">
        <ele>234.8</ele>
        <time>2019-08-09T16:22:36Z</time>
      </trkpt>
      <trkpt lat="48.08399" lon="7.28159">
        <ele>234.9</ele>
        <time>2019-08-09T16:22:37Z</time>
      </trkpt>
      <trkpt lat="48.08395" lon="7.2816">
        <ele>235.1</ele>
        <time>2019-08-09T16:22:38Z</time>
      </trkpt>
      <trkpt lat="48.08391" lon="7.2816">
        <ele>235.2</ele>
        <time>2019-08-09T16:22:39Z</time>
      </trkpt>
      <trkpt lat="48.08387" lon="7.28161">
        <ele>235.3</ele>
        <time>2019-08-09T16:22:40Z</time>
      </trkpt>
      <trkpt lat="48.08383" lon="7.28161">
        <ele>235.4</ele>
        <time>2019-08-09T16:22:41Z</time>
      </trkpt>
      <trkpt lat="48.0838" lon="7.28161">
        <ele>235.5</ele>
        <time>2019-08-09T16:22:42Z</time>
      </trkpt>
      <trkpt lat="48.08377" lon="7.28161">
        <ele>235.6</ele>
        <time>2019-08-09T16:22:43Z</time>
      </trkpt>
      <trkpt lat="48.08373" lon="7.28162">
        <ele>235.7</ele>
        <time>2019-08-09T16:22:45Z</time>
      </trkpt>
      <trkpt lat="48.0837" lon="7.28163">
        <ele>235.8</ele>
        <time>2019-08-09T16:22:47Z</time>
      </trkpt>
      <trkpt lat="48.08366" lon="7.28164">
        <ele>235.9</ele>
        <time>2019-08-09T16:22:49Z</time>
      </trkpt>
      <trkpt lat="48.08363" lon="7.28166">
        <ele>235.9</ele>
        <time>2019-08-09T16:22:50Z</time>
      </trkpt>
      <trkpt lat="48.08361" lon="7.28168">
        <ele>236</ele>
        <time>2019-08-09T16:22:51Z</time>
      </trkpt>
      <trkpt lat="48.08357" lon="7.2817">
        <ele>236</ele>
        <time>2019-08-09T16:22:52Z</time>
      </trkpt>
      <trkpt lat="48.08354" lon="7.28172">
        <ele>236</ele>
        <time>2019-08-09T16:22:53Z</time>
      </trkpt>
      <trkpt lat="48.0835" lon="7.28172">
        <ele>236.1</ele>
        <time>2019-08-09T16:22:54Z</time>
      </trkpt>
      <trkpt lat="48.08347" lon="7.28171">
        <ele>236.1</ele>
        <time>2019-08-09T16:22:55Z</time>
      </trkpt>
      <trkpt lat="48.08344" lon="7.28171">
        <ele>236.2</ele>
        <time>2019-08-09T16:22:56Z</time>
      </trkpt>
      <trkpt lat="48.0834" lon="7.28171">
        <ele>236.2</ele>
        <time>2019-08-09T16:22:58Z</time>
      </trkpt>
      <trkpt lat="48.0834" lon="7.28177">
        <ele>236.2</ele>
        <time>2019-08-09T16:23:05Z</time>
      </trkpt>
      <trkpt lat="48.0834" lon="7.28184">
        <ele>236.2</ele>
        <time>2019-08-09T16:23:07Z</time>
      </trkpt>
      <trkpt lat="48.0834" lon="7.28188">
        <ele>236.1</ele>
        <time>2019-08-09T16:23:08Z</time>
      </trkpt>
      <trkpt lat="48.0834" lon="7.28194">
        <ele>236.1</ele>
        <time>2019-08-09T16:23:09Z</time>
      </trkpt>
      <trkpt lat="48.0834" lon="7.28201">
        <ele>236</ele>
        <time>2019-08-09T16:23:10Z</time>
      </trkpt>
      <trkpt lat="48.08338" lon="7.28208">
        <ele>235.9</ele>
        <time>2019-08-09T16:23:11Z</time>
      </trkpt>
      <trkpt lat="48.08337" lon="7.28214">
        <ele>235.9</ele>
        <time>2019-08-09T16:23:12Z</time>
      </trkpt>
      <trkpt lat="48.08335" lon="7.28219">
        <ele>235.8</ele>
        <time>2019-08-09T16:23:13Z</time>
      </trkpt>
      <trkpt lat="48.08334" lon="7.28226">
        <ele>235.7</ele>
        <time>2019-08-09T16:23:14Z</time>
      </trkpt>
      <trkpt lat="48.08333" lon="7.28232">
        <ele>235.6</ele>
        <time>2019-08-09T16:23:15Z</time>
      </trkpt>
      <trkpt lat="48.08332" lon="7.28238">
        <ele>235.5</ele>
        <time>2019-08-09T16:23:16Z</time>
      </trkpt>
      <trkpt lat="48.0833" lon="7.28244">
        <ele>235.4</ele>
        <time>2019-08-09T16:23:17Z</time>
      </trkpt>
      <trkpt lat="48.08328" lon="7.28251">
        <ele>235.2</ele>
        <time>2019-08-09T16:23:18Z</time>
      </trkpt>
      <trkpt lat="48.08326" lon="7.28257">
        <ele>235.1</ele>
        <time>2019-08-09T16:23:19Z</time>
      </trkpt>
      <trkpt lat="48.08325" lon="7.28264">
        <ele>235</ele>
        <time>2019-08-09T16:23:20Z</time>
      </trkpt>
      <trkpt lat="48.08324" lon="7.28272">
        <ele>234.9</ele>
        <time>2019-08-09T16:23:21Z</time>
      </trkpt>
      <trkpt lat="48.08322" lon="7.28279">
        <ele>234.9</ele>
        <time>2019-08-09T16:23:22Z</time>
      </trkpt>
      <trkpt lat="48.08319" lon="7.28286">
        <ele>234.7</ele>
        <time>2019-08-09T16:23:23Z</time>
      </trkpt>
      <trkpt lat="48.08318" lon="7.28292">
        <ele>234.6</ele>
        <time>2019-08-09T16:23:24Z</time>
      </trkpt>
      <trkpt lat="48.08316" lon="7.28299">
        <ele>234.6</ele>
        <time>2019-08-09T16:23:25Z</time>
      </trkpt>
      <trkpt lat="48.08315" lon="7.28306">
        <ele>234.5</ele>
        <time>2019-08-09T16:23:26Z</time>
      </trkpt>
      <trkpt lat="48.08314" lon="7.28315">
        <ele>234.4</ele>
        <time>2019-08-09T16:23:27Z</time>
      </trkpt>
      <trkpt lat="48.08312" lon="7.28322">
        <ele>234.4</ele>
        <time>2019-08-09T16:23:28Z</time>
      </trkpt>
      <trkpt lat="48.08311" lon="7.28329">
        <ele>234.4</ele>
        <time>2019-08-09T16:23:29Z</time>
      </trkpt>
      <trkpt lat="48.0831" lon="7.28337">
        <ele>234.3</ele>
        <time>2019-08-09T16:23:30Z</time>
      </trkpt>
      <trkpt lat="48.08309" lon="7.28344">
        <ele>234.3</ele>
        <time>2019-08-09T16:23:31Z</time>
      </trkpt>
      <trkpt lat="48.08308" lon="7.28349">
        <ele>234.2</ele>
        <time>2019-08-09T16:23:32Z</time>
      </trkpt>
      <trkpt lat="48.08306" lon="7.28354">
        <ele>234.3</ele>
        <time>2019-08-09T16:23:33Z</time>
      </trkpt>
      <trkpt lat="48.08304" lon="7.28358">
        <ele>234.3</ele>
        <time>2019-08-09T16:23:34Z</time>
      </trkpt>
      <trkpt lat="48.083" lon="7.28362">
        <ele>234.3</ele>
        <time>2019-08-09T16:23:36Z</time>
      </trkpt>
      <trkpt lat="48.08297" lon="7.28366">
        <ele>234.4</ele>
        <time>2019-08-09T16:23:37Z</time>
      </trkpt>
      <trkpt lat="48.08293" lon="7.2837">
        <ele>234.4</ele>
        <time>2019-08-09T16:23:38Z</time>
      </trkpt>
      <trkpt lat="48.0829" lon="7.28374">
        <ele>234.5</ele>
        <time>2019-08-09T16:23:39Z</time>
      </trkpt>
      <trkpt lat="48.08286" lon="7.28377">
        <ele>234.5</ele>
        <time>2019-08-09T16:23:40Z</time>
      </trkpt>
      <trkpt lat="48.08282" lon="7.28381">
        <ele>234.6</ele>
        <time>2019-08-09T16:23:41Z</time>
      </trkpt>
      <trkpt lat="48.08277" lon="7.28384">
        <ele>234.6</ele>
        <time>2019-08-09T16:23:42Z</time>
      </trkpt>
      <trkpt lat="48.08273" lon="7.28387">
        <ele>234.6</ele>
        <time>2019-08-09T16:23:43Z</time>
      </trkpt>
      <trkpt lat="48.0827" lon="7.28389">
        <ele>234.6</ele>
        <time>2019-08-09T16:23:44Z</time>
      </trkpt>
      <trkpt lat="48.08266" lon="7.28391">
        <ele>234.7</ele>
        <time>2019-08-09T16:23:45Z</time>
      </trkpt>
      <trkpt lat="48.08263" lon="7.28394">
        <ele>234.7</ele>
        <time>2019-08-09T16:23:46Z</time>
      </trkpt>
      <trkpt lat="48.08259" lon="7.28397">
        <ele>234.7</ele>
        <time>2019-08-09T16:23:47Z</time>
      </trkpt>
      <trkpt lat="48.08256" lon="7.284">
        <ele>234.8</ele>
        <time>2019-08-09T16:23:48Z</time>
      </trkpt>
      <trkpt lat="48.08252" lon="7.28403">
        <ele>234.9</ele>
        <time>2019-08-09T16:23:49Z</time>
      </trkpt>
      <trkpt lat="48.08249" lon="7.28405">
        <ele>235.1</ele>
        <time>2019-08-09T16:23:50Z</time>
      </trkpt>
      <trkpt lat="48.08246" lon="7.28409">
        <ele>235.1</ele>
        <time>2019-08-09T16:23:51Z</time>
      </trkpt>
      <trkpt lat="48.08243" lon="7.28414">
        <ele>235.1</ele>
        <time>2019-08-09T16:23:52Z</time>
      </trkpt>
      <trkpt lat="48.08239" lon="7.28419">
        <ele>235.2</ele>
        <time>2019-08-09T16:23:53Z</time>
      </trkpt>
      <trkpt lat="48.08236" lon="7.28424">
        <ele>235.2</ele>
        <time>2019-08-09T16:23:54Z</time>
      </trkpt>
      <trkpt lat="48.08233" lon="7.28429">
        <ele>235.1</ele>
        <time>2019-08-09T16:23:55Z</time>
      </trkpt>
      <trkpt lat="48.08229" lon="7.28435">
        <ele>235.1</ele>
        <time>2019-08-09T16:23:56Z</time>
      </trkpt>
      <trkpt lat="48.08226" lon="7.2844">
        <ele>235</ele>
        <time>2019-08-09T16:23:57Z</time>
      </trkpt>
      <trkpt lat="48.08223" lon="7.28445">
        <ele>234.9</ele>
        <time>2019-08-09T16:23:58Z</time>
      </trkpt>
      <trkpt lat="48.0822" lon="7.28451">
        <ele>234.7</ele>
        <time>2019-08-09T16:23:59Z</time>
      </trkpt>
      <trkpt lat="48.08217" lon="7.28455">
        <ele>234.7</ele>
        <time>2019-08-09T16:24:00Z</time>
      </trkpt>
      <trkpt lat="48.08214" lon="7.28461">
        <ele>234.6</ele>
        <time>2019-08-09T16:24:01Z</time>
      </trkpt>
      <trkpt lat="48.08211" lon="7.28466">
        <ele>234.5</ele>
        <time>2019-08-09T16:24:02Z</time>
      </trkpt>
      <trkpt lat="48.08208" lon="7.28471">
        <ele>234.4</ele>
        <time>2019-08-09T16:24:03Z</time>
      </trkpt>
      <trkpt lat="48.08206" lon="7.28477">
        <ele>234.4</ele>
        <time>2019-08-09T16:24:04Z</time>
      </trkpt>
      <trkpt lat="48.08205" lon="7.28483">
        <ele>234.3</ele>
        <time>2019-08-09T16:24:05Z</time>
      </trkpt>
      <trkpt lat="48.08204" lon="7.28489">
        <ele>234.2</ele>
        <time>2019-08-09T16:24:06Z</time>
      </trkpt>
      <trkpt lat="48.08202" lon="7.28495">
        <ele>234.1</ele>
        <time>2019-08-09T16:24:07Z</time>
      </trkpt>
      <trkpt lat="48.082" lon="7.285">
        <ele>234.1</ele>
        <time>2019-08-09T16:24:08Z</time>
      </trkpt>
      <trkpt lat="48.08197" lon="7.28506">
        <ele>234</ele>
        <time>2019-08-09T16:24:09Z</time>
      </trkpt>
      <trkpt lat="48.08195" lon="7.28512">
        <ele>233.9</ele>
        <time>2019-08-09T16:24:10Z</time>
      </trkpt>
      <trkpt lat="48.08194" lon="7.28519">
        <ele>233.9</ele>
        <time>2019-08-09T16:24:11Z</time>
      </trkpt>
      <trkpt lat="48.08192" lon="7.28525">
        <ele>233.8</ele>
        <time>2019-08-09T16:24:12Z</time>
      </trkpt>
      <trkpt lat="48.08189" lon="7.28533">
        <ele>233.7</ele>
        <time>2019-08-09T16:24:13Z</time>
      </trkpt>
      <trkpt lat="48.08187" lon="7.28538">
        <ele>233.7</ele>
        <time>2019-08-09T16:24:14Z</time>
      </trkpt>
      <trkpt lat="48.08184" lon="7.28543">
        <ele>233.7</ele>
        <time>2019-08-09T16:24:15Z</time>
      </trkpt>
      <trkpt lat="48.08181" lon="7.28548">
        <ele>233.6</ele>
        <time>2019-08-09T16:24:16Z</time>
      </trkpt>
      <trkpt lat="48.0818" lon="7.28554">
        <ele>233.6</ele>
        <time>2019-08-09T16:24:17Z</time>
      </trkpt>
      <trkpt lat="48.08179" lon="7.28561">
        <ele>233.6</ele>
        <time>2019-08-09T16:24:18Z</time>
      </trkpt>
      <trkpt lat="48.08176" lon="7.28566">
        <ele>233.5</ele>
        <time>2019-08-09T16:24:19Z</time>
      </trkpt>
      <trkpt lat="48.08174" lon="7.28573">
        <ele>233.4</ele>
        <time>2019-08-09T16:24:20Z</time>
      </trkpt>
      <trkpt lat="48.08172" lon="7.28579">
        <ele>233.3</ele>
        <time>2019-08-09T16:24:21Z</time>
      </trkpt>
      <trkpt lat="48.0817" lon="7.28585">
        <ele>233.2</ele>
        <time>2019-08-09T16:24:22Z</time>
      </trkpt>
      <trkpt lat="48.08169" lon="7.28591">
        <ele>233.1</ele>
        <time>2019-08-09T16:24:23Z</time>
      </trkpt>
      <trkpt lat="48.08167" lon="7.28596">
        <ele>233</ele>
        <time>2019-08-09T16:24:24Z</time>
      </trkpt>
      <trkpt lat="48.08166" lon="7.28601">
        <ele>232.9</ele>
        <time>2019-08-09T16:24:25Z</time>
      </trkpt>
      <trkpt lat="48.08164" lon="7.28607">
        <ele>232.8</ele>
        <time>2019-08-09T16:24:26Z</time>
      </trkpt>
      <trkpt lat="48.08162" lon="7.28612">
        <ele>232.7</ele>
        <time>2019-08-09T16:24:27Z</time>
      </trkpt>
      <trkpt lat="48.0816" lon="7.28617">
        <ele>232.7</ele>
        <time>2019-08-09T16:24:28Z</time>
      </trkpt>
      <trkpt lat="48.08157" lon="7.28623">
        <ele>232.6</ele>
        <time>2019-08-09T16:24:29Z</time>
      </trkpt>
      <trkpt lat="48.08154" lon="7.28628">
        <ele>232.6</ele>
        <time>2019-08-09T16:24:30Z</time>
      </trkpt>
      <trkpt lat="48.08151" lon="7.28633">
        <ele>232.5</ele>
        <time>2019-08-09T16:24:31Z</time>
      </trkpt>
      <trkpt lat="48.08148" lon="7.28638">
        <ele>232.5</ele>
        <time>2019-08-09T16:24:32Z</time>
      </trkpt>
      <trkpt lat="48.08144" lon="7.28642">
        <ele>232.4</ele>
        <time>2019-08-09T16:24:33Z</time>
      </trkpt>
      <trkpt lat="48.0814" lon="7.28646">
        <ele>232.4</ele>
        <time>2019-08-09T16:24:34Z</time>
      </trkpt>
      <trkpt lat="48.08137" lon="7.28649">
        <ele>232.3</ele>
        <time>2019-08-09T16:24:35Z</time>
      </trkpt>
      <trkpt lat="48.08134" lon="7.28651">
        <ele>232.3</ele>
        <time>2019-08-09T16:24:36Z</time>
      </trkpt>
      <trkpt lat="48.08132" lon="7.28654">
        <ele>232.3</ele>
        <time>2019-08-09T16:24:37Z</time>
      </trkpt>
      <trkpt lat="48.08128" lon="7.28659">
        <ele>232.2</ele>
        <time>2019-08-09T16:24:38Z</time>
      </trkpt>
      <trkpt lat="48.08125" lon="7.28662">
        <ele>232.2</ele>
        <time>2019-08-09T16:24:39Z</time>
      </trkpt>
      <trkpt lat="48.08122" lon="7.28665">
        <ele>232.1</ele>
        <time>2019-08-09T16:24:40Z</time>
      </trkpt>
      <trkpt lat="48.08119" lon="7.28669">
        <ele>232.1</ele>
        <time>2019-08-09T16:24:41Z</time>
      </trkpt>
      <trkpt lat="48.08115" lon="7.28673">
        <ele>232</ele>
        <time>2019-08-09T16:24:42Z</time>
      </trkpt>
      <trkpt lat="48.08113" lon="7.28677">
        <ele>232</ele>
        <time>2019-08-09T16:24:43Z</time>
      </trkpt>
      <trkpt lat="48.0811" lon="7.2868">
        <ele>232</ele>
        <time>2019-08-09T16:24:44Z</time>
      </trkpt>
      <trkpt lat="48.08108" lon="7.28682">
        <ele>231.9</ele>
        <time>2019-08-09T16:24:45Z</time>
      </trkpt>
      <trkpt lat="48.08105" lon="7.28686">
        <ele>231.9</ele>
        <time>2019-08-09T16:24:46Z</time>
      </trkpt>
      <trkpt lat="48.08102" lon="7.28689">
        <ele>231.9</ele>
        <time>2019-08-09T16:24:47Z</time>
      </trkpt>
      <trkpt lat="48.08099" lon="7.28693">
        <ele>231.9</ele>
        <time>2019-08-09T16:24:48Z</time>
      </trkpt>
      <trkpt lat="48.08095" lon="7.28698">
        <ele>231.9</ele>
        <time>2019-08-09T16:24:49Z</time>
      </trkpt>
      <trkpt lat="48.08091" lon="7.28703">
        <ele>231.9</ele>
        <time>2019-08-09T16:24:50Z</time>
      </trkpt>
      <trkpt lat="48.08089" lon="7.28707">
        <ele>231.9</ele>
        <time>2019-08-09T16:24:51Z</time>
      </trkpt>
      <trkpt lat="48.08086" lon="7.28711">
        <ele>231.9</ele>
        <time>2019-08-09T16:24:52Z</time>
      </trkpt>
      <trkpt lat="48.08083" lon="7.28715">
        <ele>231.9</ele>
        <time>2019-08-09T16:24:53Z</time>
      </trkpt>
      <trkpt lat="48.0808" lon="7.28718">
        <ele>231.9</ele>
        <time>2019-08-09T16:24:54Z</time>
      </trkpt>
      <trkpt lat="48.08078" lon="7.28721">
        <ele>231.9</ele>
        <time>2019-08-09T16:24:55Z</time>
      </trkpt>
      <trkpt lat="48.08076" lon="7.28724">
        <ele>231.9</ele>
        <time>2019-08-09T16:24:56Z</time>
      </trkpt>
      <trkpt lat="48.08073" lon="7.28726">
        <ele>231.9</ele>
        <time>2019-08-09T16:24:57Z</time>
      </trkpt>
      <trkpt lat="48.08071" lon="7.2873">
        <ele>231.9</ele>
        <time>2019-08-09T16:24:58Z</time>
      </trkpt>
      <trkpt lat="48.0807" lon="7.28733">
        <ele>231.9</ele>
        <time>2019-08-09T16:24:59Z</time>
      </trkpt>
      <trkpt lat="48.08066" lon="7.28739">
        <ele>231.9</ele>
        <time>2019-08-09T16:25:01Z</time>
      </trkpt>
      <trkpt lat="48.08064" lon="7.28742">
        <ele>231.9</ele>
        <time>2019-08-09T16:25:02Z</time>
      </trkpt>
      <trkpt lat="48.08061" lon="7.28744">
        <ele>231.9</ele>
        <time>2019-08-09T16:25:03Z</time>
      </trkpt>
      <trkpt lat="48.08059" lon="7.28747">
        <ele>231.9</ele>
        <time>2019-08-09T16:25:04Z</time>
      </trkpt>
      <trkpt lat="48.08056" lon="7.28751">
        <ele>231.9</ele>
        <time>2019-08-09T16:25:05Z</time>
      </trkpt>
      <trkpt lat="48.08054" lon="7.28754">
        <ele>231.9</ele>
        <time>2019-08-09T16:25:06Z</time>
      </trkpt>
      <trkpt lat="48.08051" lon="7.28758">
        <ele>231.9</ele>
        <time>2019-08-09T16:25:07Z</time>
      </trkpt>
      <trkpt lat="48.08047" lon="7.28763">
        <ele>231.9</ele>
        <time>2019-08-09T16:25:08Z</time>
      </trkpt>
      <trkpt lat="48.08044" lon="7.28767">
        <ele>231.9</ele>
        <time>2019-08-09T16:25:09Z</time>
      </trkpt>
      <trkpt lat="48.08041" lon="7.28771">
        <ele>231.9</ele>
        <time>2019-08-09T16:25:10Z</time>
      </trkpt>
      <trkpt lat="48.08038" lon="7.28774">
        <ele>231.8</ele>
        <time>2019-08-09T16:25:11Z</time>
      </trkpt>
      <trkpt lat="48.08036" lon="7.28779">
        <ele>231.8</ele>
        <time>2019-08-09T16:25:12Z</time>
      </trkpt>
      <trkpt lat="48.08033" lon="7.28783">
        <ele>231.7</ele>
        <time>2019-08-09T16:25:13Z</time>
      </trkpt>
      <trkpt lat="48.08029" lon="7.28788">
        <ele>231.7</ele>
        <time>2019-08-09T16:25:14Z</time>
      </trkpt>
      <trkpt lat="48.08026" lon="7.28792">
        <ele>231.5</ele>
        <time>2019-08-09T16:25:15Z</time>
      </trkpt>
      <trkpt lat="48.08022" lon="7.28796">
        <ele>231.4</ele>
        <time>2019-08-09T16:25:16Z</time>
      </trkpt>
      <trkpt lat="48.08018" lon="7.28803">
        <ele>231.3</ele>
        <time>2019-08-09T16:25:17Z</time>
      </trkpt>
      <trkpt lat="48.08015" lon="7.28807">
        <ele>231.2</ele>
        <time>2019-08-09T16:25:18Z</time>
      </trkpt>
      <trkpt lat="48.08011" lon="7.28813">
        <ele>231.1</ele>
        <time>2019-08-09T16:25:19Z</time>
      </trkpt>
      <trkpt lat="48.08008" lon="7.28818">
        <ele>231</ele>
        <time>2019-08-09T16:25:20Z</time>
      </trkpt>
      <trkpt lat="48.08004" lon="7.28824">
        <ele>230.9</ele>
        <time>2019-08-09T16:25:21Z</time>
      </trkpt>
      <trkpt lat="48.08001" lon="7.28828">
        <ele>230.9</ele>
        <time>2019-08-09T16:25:22Z</time>
      </trkpt>
      <trkpt lat="48.07997" lon="7.28832">
        <ele>230.9</ele>
        <time>2019-08-09T16:25:23Z</time>
      </trkpt>
      <trkpt lat="48.07993" lon="7.28837">
        <ele>230.9</ele>
        <time>2019-08-09T16:25:24Z</time>
      </trkpt>
      <trkpt lat="48.0799" lon="7.28842">
        <ele>230.8</ele>
        <time>2019-08-09T16:25:25Z</time>
      </trkpt>
      <trkpt lat="48.07986" lon="7.28847">
        <ele>230.8</ele>
        <time>2019-08-09T16:25:26Z</time>
      </trkpt>
      <trkpt lat="48.07982" lon="7.28852">
        <ele>230.8</ele>
        <time>2019-08-09T16:25:27Z</time>
      </trkpt>
      <trkpt lat="48.07978" lon="7.28857">
        <ele>230.8</ele>
        <time>2019-08-09T16:25:28Z</time>
      </trkpt>
      <trkpt lat="48.07974" lon="7.28862">
        <ele>230.8</ele>
        <time>2019-08-09T16:25:29Z</time>
      </trkpt>
      <trkpt lat="48.07971" lon="7.28866">
        <ele>230.8</ele>
        <time>2019-08-09T16:25:30Z</time>
      </trkpt>
      <trkpt lat="48.07967" lon="7.2887">
        <ele>230.8</ele>
        <time>2019-08-09T16:25:31Z</time>
      </trkpt>
      <trkpt lat="48.07963" lon="7.28874">
        <ele>230.8</ele>
        <time>2019-08-09T16:25:32Z</time>
      </trkpt>
      <trkpt lat="48.07959" lon="7.28878">
        <ele>230.8</ele>
        <time>2019-08-09T16:25:33Z</time>
      </trkpt>
      <trkpt lat="48.07955" lon="7.28883">
        <ele>230.8</ele>
        <time>2019-08-09T16:25:34Z</time>
      </trkpt>
      <trkpt lat="48.0795" lon="7.28889">
        <ele>230.8</ele>
        <time>2019-08-09T16:25:35Z</time>
      </trkpt>
      <trkpt lat="48.07946" lon="7.28893">
        <ele>230.8</ele>
        <time>2019-08-09T16:25:36Z</time>
      </trkpt>
      <trkpt lat="48.07942" lon="7.28898">
        <ele>230.8</ele>
        <time>2019-08-09T16:25:37Z</time>
      </trkpt>
      <trkpt lat="48.07938" lon="7.28902">
        <ele>230.8</ele>
        <time>2019-08-09T16:25:38Z</time>
      </trkpt>
      <trkpt lat="48.07933" lon="7.28906">
        <ele>230.8</ele>
        <time>2019-08-09T16:25:39Z</time>
      </trkpt>
      <trkpt lat="48.07931" lon="7.28911">
        <ele>230.8</ele>
        <time>2019-08-09T16:25:40Z</time>
      </trkpt>
      <trkpt lat="48.07927" lon="7.28915">
        <ele>230.8</ele>
        <time>2019-08-09T16:25:41Z</time>
      </trkpt>
      <trkpt lat="48.07924" lon="7.28919">
        <ele>230.8</ele>
        <time>2019-08-09T16:25:42Z</time>
      </trkpt>
      <trkpt lat="48.0792" lon="7.28923">
        <ele>230.8</ele>
        <time>2019-08-09T16:25:43Z</time>
      </trkpt>
      <trkpt lat="48.07917" lon="7.28926">
        <ele>230.8</ele>
        <time>2019-08-09T16:25:44Z</time>
      </trkpt>
      <trkpt lat="48.07913" lon="7.2893">
        <ele>230.8</ele>
        <time>2019-08-09T16:25:45Z</time>
      </trkpt>
      <trkpt lat="48.07909" lon="7.28933">
        <ele>230.8</ele>
        <time>2019-08-09T16:25:46Z</time>
      </trkpt>
      <trkpt lat="48.07905" lon="7.28937">
        <ele>230.8</ele>
        <time>2019-08-09T16:25:47Z</time>
      </trkpt>
      <trkpt lat="48.07902" lon="7.28939">
        <ele>230.8</ele>
        <time>2019-08-09T16:25:48Z</time>
      </trkpt>
      <trkpt lat="48.07899" lon="7.28941">
        <ele>230.8</ele>
        <time>2019-08-09T16:25:49Z</time>
      </trkpt>
      <trkpt lat="48.07896" lon="7.28943">
        <ele>230.8</ele>
        <time>2019-08-09T16:25:50Z</time>
      </trkpt>
      <trkpt lat="48.07893" lon="7.28942">
        <ele>230.8</ele>
        <time>2019-08-09T16:25:52Z</time>
      </trkpt>
      <trkpt lat="48.07896" lon="7.28941">
        <ele>230.8</ele>
        <time>2019-08-09T16:26:00Z</time>
      </trkpt>
      <trkpt lat="48.07897" lon="7.28937">
        <ele>230.8</ele>
        <time>2019-08-09T16:26:47Z</time>
      </trkpt>
      <trkpt lat="48.07893" lon="7.28943">
        <ele>230.8</ele>
        <time>2019-08-09T16:28:52Z</time>
      </trkpt>
      <trkpt lat="48.07891" lon="7.28948">
        <ele>230.8</ele>
        <time>2019-08-09T16:28:55Z</time>
      </trkpt>
      <trkpt lat="48.07887" lon="7.28952">
        <ele>230.8</ele>
        <time>2019-08-09T16:28:57Z</time>
      </trkpt>
      <trkpt lat="48.07884" lon="7.28956">
        <ele>230.8</ele>
        <time>2019-08-09T16:28:58Z</time>
      </trkpt>
      <trkpt lat="48.07882" lon="7.28958">
        <ele>230.8</ele>
        <time>2019-08-09T16:28:59Z</time>
      </trkpt>
      <trkpt lat="48.07879" lon="7.28961">
        <ele>230.8</ele>
        <time>2019-08-09T16:29:00Z</time>
      </trkpt>
      <trkpt lat="48.07876" lon="7.28964">
        <ele>230.8</ele>
        <time>2019-08-09T16:29:01Z</time>
      </trkpt>
      <trkpt lat="48.07873" lon="7.28967">
        <ele>230.8</ele>
        <time>2019-08-09T16:29:02Z</time>
      </trkpt>
      <trkpt lat="48.0787" lon="7.2897">
        <ele>230.8</ele>
        <time>2019-08-09T16:29:03Z</time>
      </trkpt>
      <trkpt lat="48.07867" lon="7.28972">
        <ele>230.8</ele>
        <time>2019-08-09T16:29:04Z</time>
      </trkpt>
      <trkpt lat="48.07863" lon="7.28974">
        <ele>230.8</ele>
        <time>2019-08-09T16:29:05Z</time>
      </trkpt>
      <trkpt lat="48.0786" lon="7.28978">
        <ele>230.8</ele>
        <time>2019-08-09T16:29:06Z</time>
      </trkpt>
      <trkpt lat="48.07857" lon="7.28982">
        <ele>230.8</ele>
        <time>2019-08-09T16:29:07Z</time>
      </trkpt>
      <trkpt lat="48.07854" lon="7.28985">
        <ele>230.8</ele>
        <time>2019-08-09T16:29:08Z</time>
      </trkpt>
      <trkpt lat="48.0785" lon="7.28989">
        <ele>230.8</ele>
        <time>2019-08-09T16:29:09Z</time>
      </trkpt>
      <trkpt lat="48.07847" lon="7.28993">
        <ele>230.8</ele>
        <time>2019-08-09T16:29:10Z</time>
      </trkpt>
      <trkpt lat="48.07844" lon="7.28997">
        <ele>230.7</ele>
        <time>2019-08-09T16:29:11Z</time>
      </trkpt>
      <trkpt lat="48.0784" lon="7.29002">
        <ele>230.7</ele>
        <time>2019-08-09T16:29:12Z</time>
      </trkpt>
      <trkpt lat="48.07837" lon="7.29007">
        <ele>230.6</ele>
        <time>2019-08-09T16:29:13Z</time>
      </trkpt>
      <trkpt lat="48.07834" lon="7.29011">
        <ele>230.5</ele>
        <time>2019-08-09T16:29:14Z</time>
      </trkpt>
      <trkpt lat="48.07831" lon="7.29014">
        <ele>230.5</ele>
        <time>2019-08-09T16:29:15Z</time>
      </trkpt>
      <trkpt lat="48.07827" lon="7.29017">
        <ele>230.4</ele>
        <time>2019-08-09T16:29:16Z</time>
      </trkpt>
      <trkpt lat="48.07824" lon="7.2902">
        <ele>230.4</ele>
        <time>2019-08-09T16:29:17Z</time>
      </trkpt>
      <trkpt lat="48.07821" lon="7.29022">
        <ele>230.3</ele>
        <time>2019-08-09T16:29:18Z</time>
      </trkpt>
      <trkpt lat="48.07818" lon="7.29025">
        <ele>230.3</ele>
        <time>2019-08-09T16:29:19Z</time>
      </trkpt>
      <trkpt lat="48.07815" lon="7.2903">
        <ele>230.2</ele>
        <time>2019-08-09T16:29:20Z</time>
      </trkpt>
      <trkpt lat="48.07812" lon="7.29035">
        <ele>230.1</ele>
        <time>2019-08-09T16:29:21Z</time>
      </trkpt>
      <trkpt lat="48.07807" lon="7.29042">
        <ele>230</ele>
        <time>2019-08-09T16:29:22Z</time>
      </trkpt>
      <trkpt lat="48.07803" lon="7.29047">
        <ele>230</ele>
        <time>2019-08-09T16:29:23Z</time>
      </trkpt>
      <trkpt lat="48.07799" lon="7.29052">
        <ele>229.9</ele>
        <time>2019-08-09T16:29:24Z</time>
      </trkpt>
      <trkpt lat="48.07796" lon="7.29057">
        <ele>229.8</ele>
        <time>2019-08-09T16:29:25Z</time>
      </trkpt>
      <trkpt lat="48.07792" lon="7.29061">
        <ele>229.7</ele>
        <time>2019-08-09T16:29:26Z</time>
      </trkpt>
      <trkpt lat="48.07789" lon="7.29064">
        <ele>229.7</ele>
        <time>2019-08-09T16:29:27Z</time>
      </trkpt>
      <trkpt lat="48.07786" lon="7.29069">
        <ele>229.6</ele>
        <time>2019-08-09T16:29:28Z</time>
      </trkpt>
      <trkpt lat="48.07783" lon="7.29072">
        <ele>229.5</ele>
        <time>2019-08-09T16:29:29Z</time>
      </trkpt>
      <trkpt lat="48.0778" lon="7.29076">
        <ele>229.5</ele>
        <time>2019-08-09T16:29:30Z</time>
      </trkpt>
      <trkpt lat="48.07777" lon="7.2908">
        <ele>229.4</ele>
        <time>2019-08-09T16:29:31Z</time>
      </trkpt>
      <trkpt lat="48.07773" lon="7.29084">
        <ele>229.3</ele>
        <time>2019-08-09T16:29:32Z</time>
      </trkpt>
      <trkpt lat="48.07769" lon="7.29088">
        <ele>229.2</ele>
        <time>2019-08-09T16:29:33Z</time>
      </trkpt>
      <trkpt lat="48.07765" lon="7.29092">
        <ele>229.2</ele>
        <time>2019-08-09T16:29:34Z</time>
      </trkpt>
      <trkpt lat="48.07761" lon="7.29096">
        <ele>229.1</ele>
        <time>2019-08-09T16:29:35Z</time>
      </trkpt>
      <trkpt lat="48.07758" lon="7.291">
        <ele>229</ele>
        <time>2019-08-09T16:29:36Z</time>
      </trkpt>
      <trkpt lat="48.07755" lon="7.29103">
        <ele>229</ele>
        <time>2019-08-09T16:29:37Z</time>
      </trkpt>
      <trkpt lat="48.07751" lon="7.29107">
        <ele>228.9</ele>
        <time>2019-08-09T16:29:38Z</time>
      </trkpt>
      <trkpt lat="48.07748" lon="7.29111">
        <ele>228.9</ele>
        <time>2019-08-09T16:29:39Z</time>
      </trkpt>
      <trkpt lat="48.07744" lon="7.29114">
        <ele>228.8</ele>
        <time>2019-08-09T16:29:40Z</time>
      </trkpt>
      <trkpt lat="48.0774" lon="7.29119">
        <ele>228.8</ele>
        <time>2019-08-09T16:29:41Z</time>
      </trkpt>
      <trkpt lat="48.07736" lon="7.29122">
        <ele>228.7</ele>
        <time>2019-08-09T16:29:42Z</time>
      </trkpt>
      <trkpt lat="48.07733" lon="7.29127">
        <ele>228.7</ele>
        <time>2019-08-09T16:29:43Z</time>
      </trkpt>
      <trkpt lat="48.07729" lon="7.2913">
        <ele>228.7</ele>
        <time>2019-08-09T16:29:44Z</time>
      </trkpt>
      <trkpt lat="48.07726" lon="7.29134">
        <ele>228.6</ele>
        <time>2019-08-09T16:29:45Z</time>
      </trkpt>
      <trkpt lat="48.07722" lon="7.29139">
        <ele>228.6</ele>
        <time>2019-08-09T16:29:46Z</time>
      </trkpt>
      <trkpt lat="48.07718" lon="7.29142">
        <ele>228.6</ele>
        <time>2019-08-09T16:29:47Z</time>
      </trkpt>
      <trkpt lat="48.07714" lon="7.29146">
        <ele>228.5</ele>
        <time>2019-08-09T16:29:48Z</time>
      </trkpt>
      <trkpt lat="48.07709" lon="7.2915">
        <ele>228.5</ele>
        <time>2019-08-09T16:29:49Z</time>
      </trkpt>
      <trkpt lat="48.07705" lon="7.29155">
        <ele>228.5</ele>
        <time>2019-08-09T16:29:50Z</time>
      </trkpt>
      <trkpt lat="48.077" lon="7.29159">
        <ele>228.4</ele>
        <time>2019-08-09T16:29:51Z</time>
      </trkpt>
      <trkpt lat="48.07696" lon="7.29165">
        <ele>228.4</ele>
        <time>2019-08-09T16:29:52Z</time>
      </trkpt>
      <trkpt lat="48.07692" lon="7.29171">
        <ele>228.3</ele>
        <time>2019-08-09T16:29:53Z</time>
      </trkpt>
      <trkpt lat="48.07688" lon="7.29177">
        <ele>228.3</ele>
        <time>2019-08-09T16:29:54Z</time>
      </trkpt>
      <trkpt lat="48.07684" lon="7.29181">
        <ele>228.2</ele>
        <time>2019-08-09T16:29:55Z</time>
      </trkpt>
      <trkpt lat="48.07678" lon="7.29187">
        <ele>228.1</ele>
        <time>2019-08-09T16:29:56Z</time>
      </trkpt>
      <trkpt lat="48.07674" lon="7.29193">
        <ele>228</ele>
        <time>2019-08-09T16:29:57Z</time>
      </trkpt>
      <trkpt lat="48.0767" lon="7.29199">
        <ele>227.9</ele>
        <time>2019-08-09T16:29:58Z</time>
      </trkpt>
      <trkpt lat="48.07668" lon="7.29206">
        <ele>227.9</ele>
        <time>2019-08-09T16:29:59Z</time>
      </trkpt>
      <trkpt lat="48.07665" lon="7.29211">
        <ele>227.8</ele>
        <time>2019-08-09T16:30:00Z</time>
      </trkpt>
      <trkpt lat="48.07661" lon="7.29216">
        <ele>227.8</ele>
        <time>2019-08-09T16:30:01Z</time>
      </trkpt>
      <trkpt lat="48.07658" lon="7.29221">
        <ele>227.8</ele>
        <time>2019-08-09T16:30:02Z</time>
      </trkpt>
      <trkpt lat="48.07654" lon="7.29227">
        <ele>227.8</ele>
        <time>2019-08-09T16:30:03Z</time>
      </trkpt>
      <trkpt lat="48.07651" lon="7.29233">
        <ele>227.9</ele>
        <time>2019-08-09T16:30:04Z</time>
      </trkpt>
      <trkpt lat="48.07647" lon="7.29239">
        <ele>227.9</ele>
        <time>2019-08-09T16:30:05Z</time>
      </trkpt>
      <trkpt lat="48.07643" lon="7.29246">
        <ele>228</ele>
        <time>2019-08-09T16:30:06Z</time>
      </trkpt>
      <trkpt lat="48.07641" lon="7.29251">
        <ele>228</ele>
        <time>2019-08-09T16:30:07Z</time>
      </trkpt>
      <trkpt lat="48.07637" lon="7.29258">
        <ele>228.1</ele>
        <time>2019-08-09T16:30:08Z</time>
      </trkpt>
      <trkpt lat="48.07634" lon="7.29263">
        <ele>228.1</ele>
        <time>2019-08-09T16:30:09Z</time>
      </trkpt>
      <trkpt lat="48.07632" lon="7.29266">
        <ele>228.1</ele>
        <time>2019-08-09T16:30:10Z</time>
      </trkpt>
      <trkpt lat="48.07629" lon="7.29269">
        <ele>228.1</ele>
        <time>2019-08-09T16:30:11Z</time>
      </trkpt>
      <trkpt lat="48.07627" lon="7.29273">
        <ele>228.1</ele>
        <time>2019-08-09T16:30:12Z</time>
      </trkpt>
      <trkpt lat="48.07624" lon="7.29277">
        <ele>228.1</ele>
        <time>2019-08-09T16:30:13Z</time>
      </trkpt>
      <trkpt lat="48.07622" lon="7.29282">
        <ele>228.1</ele>
        <time>2019-08-09T16:30:14Z</time>
      </trkpt>
      <trkpt lat="48.07618" lon="7.29287">
        <ele>228.1</ele>
        <time>2019-08-09T16:30:15Z</time>
      </trkpt>
      <trkpt lat="48.07616" lon="7.29294">
        <ele>228</ele>
        <time>2019-08-09T16:30:16Z</time>
      </trkpt>
      <trkpt lat="48.07613" lon="7.293">
        <ele>228</ele>
        <time>2019-08-09T16:30:17Z</time>
      </trkpt>
      <trkpt lat="48.07612" lon="7.29304">
        <ele>227.9</ele>
        <time>2019-08-09T16:30:18Z</time>
      </trkpt>
      <trkpt lat="48.07608" lon="7.2931">
        <ele>227.8</ele>
        <time>2019-08-09T16:30:20Z</time>
      </trkpt>
      <trkpt lat="48.07606" lon="7.29313">
        <ele>227.8</ele>
        <time>2019-08-09T16:30:22Z</time>
      </trkpt>
      <trkpt lat="48.07603" lon="7.29313">
        <ele>227.8</ele>
        <time>2019-08-09T16:30:23Z</time>
      </trkpt>
      <trkpt lat="48.07601" lon="7.29312">
        <ele>227.8</ele>
        <time>2019-08-09T16:30:25Z</time>
      </trkpt>
      <trkpt lat="48.07599" lon="7.29308">
        <ele>227.8</ele>
        <time>2019-08-09T16:30:30Z</time>
      </trkpt>
      <trkpt lat="48.07597" lon="7.29306">
        <ele>227.8</ele>
        <time>2019-08-09T16:31:50Z</time>
      </trkpt>
      <trkpt lat="48.07596" lon="7.29302">
        <ele>227.8</ele>
        <time>2019-08-09T16:31:54Z</time>
      </trkpt>
      <trkpt lat="48.07593" lon="7.29306">
        <ele>227.8</ele>
        <time>2019-08-09T16:31:55Z</time>
      </trkpt>
      <trkpt lat="48.07591" lon="7.2931">
        <ele>227.8</ele>
        <time>2019-08-09T16:31:57Z</time>
      </trkpt>
      <trkpt lat="48.07592" lon="7.29317">
        <ele>227.8</ele>
        <time>2019-08-09T16:31:59Z</time>
      </trkpt>
      <trkpt lat="48.07591" lon="7.29325">
        <ele>227.7</ele>
        <time>2019-08-09T16:32:01Z</time>
      </trkpt>
      <trkpt lat="48.0759" lon="7.29333">
        <ele>227.7</ele>
        <time>2019-08-09T16:32:03Z</time>
      </trkpt>
      <trkpt lat="48.07589" lon="7.29337">
        <ele>227.7</ele>
        <time>2019-08-09T16:32:04Z</time>
      </trkpt>
      <trkpt lat="48.07587" lon="7.29341">
        <ele>227.6</ele>
        <time>2019-08-09T16:32:05Z</time>
      </trkpt>
      <trkpt lat="48.07585" lon="7.29344">
        <ele>227.6</ele>
        <time>2019-08-09T16:32:06Z</time>
      </trkpt>
      <trkpt lat="48.07582" lon="7.29349">
        <ele>227.5</ele>
        <time>2019-08-09T16:32:08Z</time>
      </trkpt>
      <trkpt lat="48.0758" lon="7.29354">
        <ele>227.4</ele>
        <time>2019-08-09T16:32:10Z</time>
      </trkpt>
      <trkpt lat="48.07578" lon="7.29359">
        <ele>227.3</ele>
        <time>2019-08-09T16:32:12Z</time>
      </trkpt>
      <trkpt lat="48.07577" lon="7.29363">
        <ele>227.3</ele>
        <time>2019-08-09T16:32:15Z</time>
      </trkpt>
      <trkpt lat="48.07576" lon="7.29372">
        <ele>227.2</ele>
        <time>2019-08-09T16:32:52Z</time>
      </trkpt>
      <trkpt lat="48.07575" lon="7.29376">
        <ele>227.2</ele>
        <time>2019-08-09T16:32:53Z</time>
      </trkpt>
      <trkpt lat="48.07572" lon="7.29379">
        <ele>227.1</ele>
        <time>2019-08-09T16:32:54Z</time>
      </trkpt>
      <trkpt lat="48.0757" lon="7.29381">
        <ele>227.1</ele>
        <time>2019-08-09T16:32:55Z</time>
      </trkpt>
      <trkpt lat="48.07568" lon="7.29384">
        <ele>227</ele>
        <time>2019-08-09T16:32:56Z</time>
      </trkpt>
      <trkpt lat="48.07566" lon="7.29388">
        <ele>226.9</ele>
        <time>2019-08-09T16:32:57Z</time>
      </trkpt>
      <trkpt lat="48.07563" lon="7.29392">
        <ele>226.8</ele>
        <time>2019-08-09T16:32:58Z</time>
      </trkpt>
      <trkpt lat="48.0756" lon="7.29395">
        <ele>226.7</ele>
        <time>2019-08-09T16:32:59Z</time>
      </trkpt>
      <trkpt lat="48.07557" lon="7.29398">
        <ele>226.6</ele>
        <time>2019-08-09T16:33:00Z</time>
      </trkpt>
      <trkpt lat="48.07555" lon="7.29403">
        <ele>226.5</ele>
        <time>2019-08-09T16:33:01Z</time>
      </trkpt>
      <trkpt lat="48.07551" lon="7.29407">
        <ele>226.4</ele>
        <time>2019-08-09T16:33:02Z</time>
      </trkpt>
      <trkpt lat="48.07546" lon="7.29411">
        <ele>226.3</ele>
        <time>2019-08-09T16:33:03Z</time>
      </trkpt>
      <trkpt lat="48.07543" lon="7.29414">
        <ele>226.2</ele>
        <time>2019-08-09T16:33:04Z</time>
      </trkpt>
      <trkpt lat="48.0754" lon="7.2942">
        <ele>226.1</ele>
        <time>2019-08-09T16:33:05Z</time>
      </trkpt>
      <trkpt lat="48.07537" lon="7.29424">
        <ele>226</ele>
        <time>2019-08-09T16:33:06Z</time>
      </trkpt>
      <trkpt lat="48.07532" lon="7.29428">
        <ele>225.9</ele>
        <time>2019-08-09T16:33:07Z</time>
      </trkpt>
      <trkpt lat="48.07527" lon="7.29433">
        <ele>225.9</ele>
        <time>2019-08-09T16:33:08Z</time>
      </trkpt>
      <trkpt lat="48.07523" lon="7.29437">
        <ele>225.8</ele>
        <time>2019-08-09T16:33:09Z</time>
      </trkpt>
      <trkpt lat="48.07519" lon="7.29442">
        <ele>225.8</ele>
        <time>2019-08-09T16:33:10Z</time>
      </trkpt>
      <trkpt lat="48.07514" lon="7.29445">
        <ele>225.8</ele>
        <time>2019-08-09T16:33:11Z</time>
      </trkpt>
      <trkpt lat="48.07509" lon="7.29448">
        <ele>225.8</ele>
        <time>2019-08-09T16:33:12Z</time>
      </trkpt>
      <trkpt lat="48.07505" lon="7.29451">
        <ele>225.8</ele>
        <time>2019-08-09T16:33:13Z</time>
      </trkpt>
      <trkpt lat="48.07501" lon="7.29455">
        <ele>225.8</ele>
        <time>2019-08-09T16:33:14Z</time>
      </trkpt>
      <trkpt lat="48.07497" lon="7.29458">
        <ele>225.8</ele>
        <time>2019-08-09T16:33:15Z</time>
      </trkpt>
      <trkpt lat="48.07492" lon="7.2946">
        <ele>225.7</ele>
        <time>2019-08-09T16:33:16Z</time>
      </trkpt>
      <trkpt lat="48.07487" lon="7.29461">
        <ele>225.7</ele>
        <time>2019-08-09T16:33:17Z</time>
      </trkpt>
      <trkpt lat="48.07482" lon="7.29463">
        <ele>225.7</ele>
        <time>2019-08-09T16:33:18Z</time>
      </trkpt>
      <trkpt lat="48.07477" lon="7.29466">
        <ele>225.7</ele>
        <time>2019-08-09T16:33:19Z</time>
      </trkpt>
      <trkpt lat="48.07473" lon="7.29467">
        <ele>225.7</ele>
        <time>2019-08-09T16:33:20Z</time>
      </trkpt>
      <trkpt lat="48.07468" lon="7.29469">
        <ele>225.7</ele>
        <time>2019-08-09T16:33:21Z</time>
      </trkpt>
      <trkpt lat="48.07464" lon="7.29471">
        <ele>225.6</ele>
        <time>2019-08-09T16:33:22Z</time>
      </trkpt>
      <trkpt lat="48.07461" lon="7.29472">
        <ele>225.6</ele>
        <time>2019-08-09T16:33:23Z</time>
      </trkpt>
      <trkpt lat="48.07458" lon="7.29475">
        <ele>225.6</ele>
        <time>2019-08-09T16:33:24Z</time>
      </trkpt>
      <trkpt lat="48.07453" lon="7.29476">
        <ele>225.6</ele>
        <time>2019-08-09T16:33:25Z</time>
      </trkpt>
      <trkpt lat="48.0745" lon="7.29476">
        <ele>225.5</ele>
        <time>2019-08-09T16:33:26Z</time>
      </trkpt>
      <trkpt lat="48.07446" lon="7.29477">
        <ele>225.5</ele>
        <time>2019-08-09T16:33:27Z</time>
      </trkpt>
      <trkpt lat="48.07442" lon="7.29479">
        <ele>225.4</ele>
        <time>2019-08-09T16:33:28Z</time>
      </trkpt>
      <trkpt lat="48.07439" lon="7.29479">
        <ele>225.4</ele>
        <time>2019-08-09T16:33:29Z</time>
      </trkpt>
      <trkpt lat="48.07436" lon="7.29481">
        <ele>225.3</ele>
        <time>2019-08-09T16:33:30Z</time>
      </trkpt>
      <trkpt lat="48.07431" lon="7.29484">
        <ele>225.3</ele>
        <time>2019-08-09T16:33:32Z</time>
      </trkpt>
      <trkpt lat="48.07427" lon="7.29486">
        <ele>225.3</ele>
        <time>2019-08-09T16:33:34Z</time>
      </trkpt>
      <trkpt lat="48.07423" lon="7.29487">
        <ele>225.4</ele>
        <time>2019-08-09T16:33:36Z</time>
      </trkpt>
      <trkpt lat="48.07418" lon="7.29488">
        <ele>225.4</ele>
        <time>2019-08-09T16:33:37Z</time>
      </trkpt>
      <trkpt lat="48.07415" lon="7.29489">
        <ele>225.3</ele>
        <time>2019-08-09T16:33:38Z</time>
      </trkpt>
      <trkpt lat="48.07412" lon="7.29493">
        <ele>225.3</ele>
        <time>2019-08-09T16:33:39Z</time>
      </trkpt>
      <trkpt lat="48.0741" lon="7.29499">
        <ele>225.1</ele>
        <time>2019-08-09T16:33:40Z</time>
      </trkpt>
      <trkpt lat="48.07409" lon="7.29505">
        <ele>225.1</ele>
        <time>2019-08-09T16:33:41Z</time>
      </trkpt>
      <trkpt lat="48.07406" lon="7.29509">
        <ele>225.1</ele>
        <time>2019-08-09T16:33:42Z</time>
      </trkpt>
      <trkpt lat="48.07402" lon="7.29513">
        <ele>225.2</ele>
        <time>2019-08-09T16:33:43Z</time>
      </trkpt>
      <trkpt lat="48.07398" lon="7.29515">
        <ele>225.2</ele>
        <time>2019-08-09T16:33:44Z</time>
      </trkpt>
      <trkpt lat="48.07395" lon="7.29517">
        <ele>225.2</ele>
        <time>2019-08-09T16:33:45Z</time>
      </trkpt>
      <trkpt lat="48.07392" lon="7.29518">
        <ele>225.2</ele>
        <time>2019-08-09T16:33:46Z</time>
      </trkpt>
      <trkpt lat="48.07388" lon="7.2952">
        <ele>225.2</ele>
        <time>2019-08-09T16:33:47Z</time>
      </trkpt>
      <trkpt lat="48.07385" lon="7.29523">
        <ele>225.2</ele>
        <time>2019-08-09T16:33:48Z</time>
      </trkpt>
      <trkpt lat="48.07381" lon="7.29525">
        <ele>225.2</ele>
        <time>2019-08-09T16:33:49Z</time>
      </trkpt>
      <trkpt lat="48.07377" lon="7.29527">
        <ele>225.2</ele>
        <time>2019-08-09T16:33:50Z</time>
      </trkpt>
      <trkpt lat="48.07373" lon="7.2953">
        <ele>225.2</ele>
        <time>2019-08-09T16:33:51Z</time>
      </trkpt>
      <trkpt lat="48.07368" lon="7.29533">
        <ele>225.2</ele>
        <time>2019-08-09T16:33:52Z</time>
      </trkpt>
      <trkpt lat="48.07364" lon="7.29535">
        <ele>225.2</ele>
        <time>2019-08-09T16:33:53Z</time>
      </trkpt>
      <trkpt lat="48.07361" lon="7.29539">
        <ele>225.2</ele>
        <time>2019-08-09T16:33:54Z</time>
      </trkpt>
      <trkpt lat="48.07357" lon="7.29544">
        <ele>225.2</ele>
        <time>2019-08-09T16:33:55Z</time>
      </trkpt>
      <trkpt lat="48.07353" lon="7.29548">
        <ele>225.2</ele>
        <time>2019-08-09T16:33:56Z</time>
      </trkpt>
      <trkpt lat="48.07349" lon="7.29551">
        <ele>225.2</ele>
        <time>2019-08-09T16:33:57Z</time>
      </trkpt>
      <trkpt lat="48.07345" lon="7.29555">
        <ele>225.1</ele>
        <time>2019-08-09T16:33:58Z</time>
      </trkpt>
      <trkpt lat="48.07341" lon="7.29558">
        <ele>225.1</ele>
        <time>2019-08-09T16:33:59Z</time>
      </trkpt>
      <trkpt lat="48.07337" lon="7.29561">
        <ele>225.1</ele>
        <time>2019-08-09T16:34:00Z</time>
      </trkpt>
      <trkpt lat="48.07335" lon="7.29564">
        <ele>225</ele>
        <time>2019-08-09T16:34:01Z</time>
      </trkpt>
      <trkpt lat="48.07331" lon="7.29566">
        <ele>225</ele>
        <time>2019-08-09T16:34:02Z</time>
      </trkpt>
      <trkpt lat="48.07325" lon="7.29569">
        <ele>224.9</ele>
        <time>2019-08-09T16:34:03Z</time>
      </trkpt>
      <trkpt lat="48.07321" lon="7.29573">
        <ele>224.9</ele>
        <time>2019-08-09T16:34:04Z</time>
      </trkpt>
      <trkpt lat="48.07319" lon="7.29576">
        <ele>224.8</ele>
        <time>2019-08-09T16:34:05Z</time>
      </trkpt>
      <trkpt lat="48.07316" lon="7.29579">
        <ele>224.8</ele>
        <time>2019-08-09T16:34:06Z</time>
      </trkpt>
      <trkpt lat="48.07314" lon="7.29583">
        <ele>224.7</ele>
        <time>2019-08-09T16:34:07Z</time>
      </trkpt>
      <trkpt lat="48.0731" lon="7.29586">
        <ele>224.6</ele>
        <time>2019-08-09T16:34:08Z</time>
      </trkpt>
      <trkpt lat="48.07306" lon="7.2959">
        <ele>224.6</ele>
        <time>2019-08-09T16:34:09Z</time>
      </trkpt>
      <trkpt lat="48.07303" lon="7.29592">
        <ele>224.5</ele>
        <time>2019-08-09T16:34:10Z</time>
      </trkpt>
      <trkpt lat="48.07299" lon="7.29595">
        <ele>224.5</ele>
        <time>2019-08-09T16:34:11Z</time>
      </trkpt>
      <trkpt lat="48.07296" lon="7.29597">
        <ele>224.4</ele>
        <time>2019-08-09T16:34:12Z</time>
      </trkpt>
      <trkpt lat="48.07292" lon="7.29601">
        <ele>224.3</ele>
        <time>2019-08-09T16:34:13Z</time>
      </trkpt>
      <trkpt lat="48.07287" lon="7.29604">
        <ele>224.2</ele>
        <time>2019-08-09T16:34:14Z</time>
      </trkpt>
      <trkpt lat="48.07284" lon="7.29609">
        <ele>224.1</ele>
        <time>2019-08-09T16:34:15Z</time>
      </trkpt>
      <trkpt lat="48.07279" lon="7.29613">
        <ele>224</ele>
        <time>2019-08-09T16:34:16Z</time>
      </trkpt>
      <trkpt lat="48.07274" lon="7.29617">
        <ele>223.9</ele>
        <time>2019-08-09T16:34:17Z</time>
      </trkpt>
      <trkpt lat="48.0727" lon="7.29621">
        <ele>223.8</ele>
        <time>2019-08-09T16:34:18Z</time>
      </trkpt>
      <trkpt lat="48.07267" lon="7.29625">
        <ele>223.7</ele>
        <time>2019-08-09T16:34:19Z</time>
      </trkpt>
      <trkpt lat="48.07263" lon="7.29629">
        <ele>223.6</ele>
        <time>2019-08-09T16:34:20Z</time>
      </trkpt>
      <trkpt lat="48.07258" lon="7.29634">
        <ele>223.5</ele>
        <time>2019-08-09T16:34:21Z</time>
      </trkpt>
      <trkpt lat="48.07254" lon="7.29637">
        <ele>223.5</ele>
        <time>2019-08-09T16:34:22Z</time>
      </trkpt>
      <trkpt lat="48.07249" lon="7.29642">
        <ele>223.4</ele>
        <time>2019-08-09T16:34:23Z</time>
      </trkpt>
      <trkpt lat="48.07245" lon="7.29648">
        <ele>223.3</ele>
        <time>2019-08-09T16:34:24Z</time>
      </trkpt>
      <trkpt lat="48.07241" lon="7.29654">
        <ele>223.3</ele>
        <time>2019-08-09T16:34:25Z</time>
      </trkpt>
      <trkpt lat="48.07239" lon="7.2966">
        <ele>223.2</ele>
        <time>2019-08-09T16:34:26Z</time>
      </trkpt>
      <trkpt lat="48.07238" lon="7.29665">
        <ele>223.1</ele>
        <time>2019-08-09T16:34:27Z</time>
      </trkpt>
      <trkpt lat="48.07235" lon="7.29669">
        <ele>223.1</ele>
        <time>2019-08-09T16:34:28Z</time>
      </trkpt>
      <trkpt lat="48.0723" lon="7.29671">
        <ele>223</ele>
        <time>2019-08-09T16:34:29Z</time>
      </trkpt>
      <trkpt lat="48.07225" lon="7.29674">
        <ele>222.9</ele>
        <time>2019-08-09T16:34:30Z</time>
      </trkpt>
      <trkpt lat="48.07221" lon="7.29677">
        <ele>222.9</ele>
        <time>2019-08-09T16:34:31Z</time>
      </trkpt>
      <trkpt lat="48.07217" lon="7.29681">
        <ele>222.8</ele>
        <time>2019-08-09T16:34:32Z</time>
      </trkpt>
      <trkpt lat="48.07213" lon="7.29684">
        <ele>222.8</ele>
        <time>2019-08-09T16:34:33Z</time>
      </trkpt>
      <trkpt lat="48.0721" lon="7.29686">
        <ele>222.7</ele>
        <time>2019-08-09T16:34:34Z</time>
      </trkpt>
      <trkpt lat="48.07206" lon="7.29689">
        <ele>222.7</ele>
        <time>2019-08-09T16:34:35Z</time>
      </trkpt>
      <trkpt lat="48.07201" lon="7.29692">
        <ele>222.6</ele>
        <time>2019-08-09T16:34:36Z</time>
      </trkpt>
      <trkpt lat="48.07197" lon="7.29698">
        <ele>222.5</ele>
        <time>2019-08-09T16:34:37Z</time>
      </trkpt>
      <trkpt lat="48.07192" lon="7.29701">
        <ele>222.4</ele>
        <time>2019-08-09T16:34:38Z</time>
      </trkpt>
      <trkpt lat="48.07187" lon="7.29704">
        <ele>222.4</ele>
        <time>2019-08-09T16:34:39Z</time>
      </trkpt>
      <trkpt lat="48.07181" lon="7.29711">
        <ele>222.3</ele>
        <time>2019-08-09T16:34:40Z</time>
      </trkpt>
      <trkpt lat="48.07176" lon="7.29715">
        <ele>222.3</ele>
        <time>2019-08-09T16:34:41Z</time>
      </trkpt>
      <trkpt lat="48.07171" lon="7.29719">
        <ele>222.2</ele>
        <time>2019-08-09T16:34:42Z</time>
      </trkpt>
      <trkpt lat="48.07168" lon="7.29722">
        <ele>222.2</ele>
        <time>2019-08-09T16:34:43Z</time>
      </trkpt>
      <trkpt lat="48.07164" lon="7.29726">
        <ele>222.2</ele>
        <time>2019-08-09T16:34:44Z</time>
      </trkpt>
      <trkpt lat="48.0716" lon="7.2973">
        <ele>222.2</ele>
        <time>2019-08-09T16:34:45Z</time>
      </trkpt>
      <trkpt lat="48.07157" lon="7.29733">
        <ele>222.2</ele>
        <time>2019-08-09T16:34:46Z</time>
      </trkpt>
      <trkpt lat="48.07154" lon="7.29735">
        <ele>222.2</ele>
        <time>2019-08-09T16:34:47Z</time>
      </trkpt>
      <trkpt lat="48.07151" lon="7.29738">
        <ele>222.2</ele>
        <time>2019-08-09T16:34:48Z</time>
      </trkpt>
      <trkpt lat="48.07148" lon="7.2974">
        <ele>222.2</ele>
        <time>2019-08-09T16:34:49Z</time>
      </trkpt>
      <trkpt lat="48.07144" lon="7.29746">
        <ele>222.2</ele>
        <time>2019-08-09T16:34:51Z</time>
      </trkpt>
      <trkpt lat="48.07143" lon="7.29751">
        <ele>222.2</ele>
        <time>2019-08-09T16:34:52Z</time>
      </trkpt>
      <trkpt lat="48.07143" lon="7.29756">
        <ele>222.2</ele>
        <time>2019-08-09T16:34:53Z</time>
      </trkpt>
      <trkpt lat="48.07146" lon="7.29762">
        <ele>222.1</ele>
        <time>2019-08-09T16:34:54Z</time>
      </trkpt>
      <trkpt lat="48.0715" lon="7.29765">
        <ele>222.1</ele>
        <time>2019-08-09T16:34:55Z</time>
      </trkpt>
      <trkpt lat="48.07153" lon="7.29767">
        <ele>222.1</ele>
        <time>2019-08-09T16:34:56Z</time>
      </trkpt>
      <trkpt lat="48.07157" lon="7.29767">
        <ele>222.1</ele>
        <time>2019-08-09T16:34:57Z</time>
      </trkpt>
      <trkpt lat="48.0716" lon="7.29764">
        <ele>222.1</ele>
        <time>2019-08-09T16:34:58Z</time>
      </trkpt>
      <trkpt lat="48.07162" lon="7.29759">
        <ele>222.2</ele>
        <time>2019-08-09T16:34:59Z</time>
      </trkpt>
      <trkpt lat="48.07163" lon="7.29754">
        <ele>222.2</ele>
        <time>2019-08-09T16:35:00Z</time>
      </trkpt>
      <trkpt lat="48.07164" lon="7.29749">
        <ele>222.2</ele>
        <time>2019-08-09T16:35:01Z</time>
      </trkpt>
      <trkpt lat="48.07162" lon="7.29745">
        <ele>222.2</ele>
        <time>2019-08-09T16:35:02Z</time>
      </trkpt>
      <trkpt lat="48.07158" lon="7.29743">
        <ele>222.2</ele>
        <time>2019-08-09T16:35:03Z</time>
      </trkpt>
      <trkpt lat="48.07154" lon="7.29742">
        <ele>222.2</ele>
        <time>2019-08-09T16:35:04Z</time>
      </trkpt>
      <trkpt lat="48.07149" lon="7.29739">
        <ele>222.2</ele>
        <time>2019-08-09T16:35:05Z</time>
      </trkpt>
      <trkpt lat="48.07143" lon="7.29736">
        <ele>222.2</ele>
        <time>2019-08-09T16:35:06Z</time>
      </trkpt>
      <trkpt lat="48.07138" lon="7.29734">
        <ele>222.3</ele>
        <time>2019-08-09T16:35:07Z</time>
      </trkpt>
      <trkpt lat="48.07134" lon="7.2973">
        <ele>222.3</ele>
        <time>2019-08-09T16:35:08Z</time>
      </trkpt>
      <trkpt lat="48.07129" lon="7.29728">
        <ele>222.3</ele>
        <time>2019-08-09T16:35:09Z</time>
      </trkpt>
      <trkpt lat="48.07124" lon="7.29725">
        <ele>222.8</ele>
        <time>2019-08-09T16:35:10Z</time>
      </trkpt>
      <trkpt lat="48.0712" lon="7.29722">
        <ele>223</ele>
        <time>2019-08-09T16:35:11Z</time>
      </trkpt>
      <trkpt lat="48.07116" lon="7.29719">
        <ele>223.2</ele>
        <time>2019-08-09T16:35:12Z</time>
      </trkpt>
      <trkpt lat="48.07112" lon="7.29717">
        <ele>223.3</ele>
        <time>2019-08-09T16:35:13Z</time>
      </trkpt>
      <trkpt lat="48.07108" lon="7.29715">
        <ele>223.3</ele>
        <time>2019-08-09T16:35:14Z</time>
      </trkpt>
      <trkpt lat="48.07105" lon="7.29712">
        <ele>223.3</ele>
        <time>2019-08-09T16:35:15Z</time>
      </trkpt>
      <trkpt lat="48.07102" lon="7.2971">
        <ele>223.3</ele>
        <time>2019-08-09T16:35:16Z</time>
      </trkpt>
      <trkpt lat="48.07097" lon="7.29708">
        <ele>223.3</ele>
        <time>2019-08-09T16:35:18Z</time>
      </trkpt>
      <trkpt lat="48.07093" lon="7.29703">
        <ele>223.3</ele>
        <time>2019-08-09T16:35:20Z</time>
      </trkpt>
      <trkpt lat="48.0709" lon="7.29699">
        <ele>223.3</ele>
        <time>2019-08-09T16:35:22Z</time>
      </trkpt>
      <trkpt lat="48.07088" lon="7.29696">
        <ele>223.4</ele>
        <time>2019-08-09T16:35:25Z</time>
      </trkpt>
      <trkpt lat="48.07088" lon="7.29691">
        <ele>223.4</ele>
        <time>2019-08-09T16:35:26Z</time>
      </trkpt>
      <trkpt lat="48.0709" lon="7.29683">
        <ele>223.5</ele>
        <time>2019-08-09T16:35:28Z</time>
      </trkpt>
      <trkpt lat="48.07087" lon="7.29679">
        <ele>223.5</ele>
        <time>2019-08-09T16:35:30Z</time>
      </trkpt>
      <trkpt lat="48.07085" lon="7.29679">
        <ele>223.5</ele>
        <time>2019-08-09T16:35:31Z</time>
      </trkpt>
      <trkpt lat="48.0708" lon="7.29679">
        <ele>223.6</ele>
        <time>2019-08-09T16:35:32Z</time>
      </trkpt>
      <trkpt lat="48.07076" lon="7.29679">
        <ele>223.6</ele>
        <time>2019-08-09T16:35:33Z</time>
      </trkpt>
      <trkpt lat="48.07072" lon="7.2968">
        <ele>223.6</ele>
        <time>2019-08-09T16:35:34Z</time>
      </trkpt>
      <trkpt lat="48.07068" lon="7.29678">
        <ele>223.7</ele>
        <time>2019-08-09T16:35:35Z</time>
      </trkpt>
      <trkpt lat="48.07065" lon="7.29674">
        <ele>223.7</ele>
        <time>2019-08-09T16:35:36Z</time>
      </trkpt>
      <trkpt lat="48.07061" lon="7.29671">
        <ele>223.7</ele>
        <time>2019-08-09T16:35:37Z</time>
      </trkpt>
      <trkpt lat="48.07057" lon="7.29668">
        <ele>223.8</ele>
        <time>2019-08-09T16:35:38Z</time>
      </trkpt>
      <trkpt lat="48.07052" lon="7.29664">
        <ele>223.8</ele>
        <time>2019-08-09T16:35:39Z</time>
      </trkpt>
      <trkpt lat="48.07047" lon="7.29663">
        <ele>223.8</ele>
        <time>2019-08-09T16:35:40Z</time>
      </trkpt>
      <trkpt lat="48.07043" lon="7.29662">
        <ele>223.8</ele>
        <time>2019-08-09T16:35:41Z</time>
      </trkpt>
      <trkpt lat="48.0704" lon="7.29661">
        <ele>223.7</ele>
        <time>2019-08-09T16:35:42Z</time>
      </trkpt>
      <trkpt lat="48.07035" lon="7.29658">
        <ele>223.7</ele>
        <time>2019-08-09T16:35:43Z</time>
      </trkpt>
      <trkpt lat="48.07031" lon="7.29656">
        <ele>223.7</ele>
        <time>2019-08-09T16:35:44Z</time>
      </trkpt>
      <trkpt lat="48.07026" lon="7.29653">
        <ele>223.7</ele>
        <time>2019-08-09T16:35:45Z</time>
      </trkpt>
      <trkpt lat="48.07021" lon="7.29648">
        <ele>223.6</ele>
        <time>2019-08-09T16:35:46Z</time>
      </trkpt>
      <trkpt lat="48.07017" lon="7.29647">
        <ele>223.6</ele>
        <time>2019-08-09T16:35:47Z</time>
      </trkpt>
      <trkpt lat="48.07013" lon="7.29645">
        <ele>223.6</ele>
        <time>2019-08-09T16:35:48Z</time>
      </trkpt>
      <trkpt lat="48.07009" lon="7.29643">
        <ele>223.6</ele>
        <time>2019-08-09T16:35:49Z</time>
      </trkpt>
      <trkpt lat="48.07005" lon="7.2964">
        <ele>223.6</ele>
        <time>2019-08-09T16:35:50Z</time>
      </trkpt>
      <trkpt lat="48.06999" lon="7.29639">
        <ele>223.5</ele>
        <time>2019-08-09T16:35:51Z</time>
      </trkpt>
      <trkpt lat="48.06996" lon="7.29636">
        <ele>223.5</ele>
        <time>2019-08-09T16:35:52Z</time>
      </trkpt>
      <trkpt lat="48.06992" lon="7.29635">
        <ele>223.4</ele>
        <time>2019-08-09T16:35:53Z</time>
      </trkpt>
      <trkpt lat="48.06988" lon="7.29633">
        <ele>223.4</ele>
        <time>2019-08-09T16:35:55Z</time>
      </trkpt>
      <trkpt lat="48.06985" lon="7.29634">
        <ele>223.4</ele>
        <time>2019-08-09T16:35:56Z</time>
      </trkpt>
      <trkpt lat="48.06981" lon="7.2964">
        <ele>223.3</ele>
        <time>2019-08-09T16:35:58Z</time>
      </trkpt>
      <trkpt lat="48.0698" lon="7.29645">
        <ele>223.1</ele>
        <time>2019-08-09T16:35:59Z</time>
      </trkpt>
      <trkpt lat="48.06977" lon="7.29649">
        <ele>223</ele>
        <time>2019-08-09T16:36:00Z</time>
      </trkpt>
      <trkpt lat="48.06974" lon="7.29656">
        <ele>222.9</ele>
        <time>2019-08-09T16:36:01Z</time>
      </trkpt>
      <trkpt lat="48.06972" lon="7.29664">
        <ele>222.8</ele>
        <time>2019-08-09T16:36:02Z</time>
      </trkpt>
      <trkpt lat="48.0697" lon="7.29672">
        <ele>222.7</ele>
        <time>2019-08-09T16:36:03Z</time>
      </trkpt>
      <trkpt lat="48.06967" lon="7.29679">
        <ele>222.6</ele>
        <time>2019-08-09T16:36:04Z</time>
      </trkpt>
      <trkpt lat="48.06965" lon="7.29686">
        <ele>222.5</ele>
        <time>2019-08-09T16:36:05Z</time>
      </trkpt>
      <trkpt lat="48.06964" lon="7.29693">
        <ele>222.5</ele>
        <time>2019-08-09T16:36:06Z</time>
      </trkpt>
      <trkpt lat="48.06961" lon="7.297">
        <ele>222.4</ele>
        <time>2019-08-09T16:36:07Z</time>
      </trkpt>
      <trkpt lat="48.06959" lon="7.29707">
        <ele>222.3</ele>
        <time>2019-08-09T16:36:08Z</time>
      </trkpt>
      <trkpt lat="48.06958" lon="7.29713">
        <ele>222.3</ele>
        <time>2019-08-09T16:36:09Z</time>
      </trkpt>
      <trkpt lat="48.06956" lon="7.2972">
        <ele>222.2</ele>
        <time>2019-08-09T16:36:10Z</time>
      </trkpt>
      <trkpt lat="48.06954" lon="7.29727">
        <ele>222.2</ele>
        <time>2019-08-09T16:36:11Z</time>
      </trkpt>
      <trkpt lat="48.06951" lon="7.29735">
        <ele>222.1</ele>
        <time>2019-08-09T16:36:12Z</time>
      </trkpt>
      <trkpt lat="48.06948" lon="7.29743">
        <ele>222.1</ele>
        <time>2019-08-09T16:36:13Z</time>
      </trkpt>
      <trkpt lat="48.06946" lon="7.2975">
        <ele>222</ele>
        <time>2019-08-09T16:36:14Z</time>
      </trkpt>
      <trkpt lat="48.06944" lon="7.29758">
        <ele>221.9</ele>
        <time>2019-08-09T16:36:15Z</time>
      </trkpt>
      <trkpt lat="48.06943" lon="7.29765">
        <ele>221.8</ele>
        <time>2019-08-09T16:36:16Z</time>
      </trkpt>
      <trkpt lat="48.06941" lon="7.29773">
        <ele>221.6</ele>
        <time>2019-08-09T16:36:17Z</time>
      </trkpt>
      <trkpt lat="48.06938" lon="7.29781">
        <ele>221.5</ele>
        <time>2019-08-09T16:36:18Z</time>
      </trkpt>
      <trkpt lat="48.06936" lon="7.29788">
        <ele>221.3</ele>
        <time>2019-08-09T16:36:19Z</time>
      </trkpt>
      <trkpt lat="48.06932" lon="7.29796">
        <ele>221.2</ele>
        <time>2019-08-09T16:36:20Z</time>
      </trkpt>
      <trkpt lat="48.0693" lon="7.29803">
        <ele>221.1</ele>
        <time>2019-08-09T16:36:21Z</time>
      </trkpt>
      <trkpt lat="48.06927" lon="7.29809">
        <ele>221.1</ele>
        <time>2019-08-09T16:36:22Z</time>
      </trkpt>
      <trkpt lat="48.06926" lon="7.29815">
        <ele>221</ele>
        <time>2019-08-09T16:36:23Z</time>
      </trkpt>
      <trkpt lat="48.06923" lon="7.29822">
        <ele>221</ele>
        <time>2019-08-09T16:36:24Z</time>
      </trkpt>
      <trkpt lat="48.0692" lon="7.29828">
        <ele>220.9</ele>
        <time>2019-08-09T16:36:25Z</time>
      </trkpt>
      <trkpt lat="48.06919" lon="7.29833">
        <ele>220.9</ele>
        <time>2019-08-09T16:36:26Z</time>
      </trkpt>
      <trkpt lat="48.06916" lon="7.29839">
        <ele>220.9</ele>
        <time>2019-08-09T16:36:27Z</time>
      </trkpt>
      <trkpt lat="48.06914" lon="7.29846">
        <ele>220.8</ele>
        <time>2019-08-09T16:36:28Z</time>
      </trkpt>
      <trkpt lat="48.06911" lon="7.29853">
        <ele>220.8</ele>
        <time>2019-08-09T16:36:29Z</time>
      </trkpt>
      <trkpt lat="48.06909" lon="7.2986">
        <ele>220.7</ele>
        <time>2019-08-09T16:36:30Z</time>
      </trkpt>
      <trkpt lat="48.06907" lon="7.29866">
        <ele>220.7</ele>
        <time>2019-08-09T16:36:31Z</time>
      </trkpt>
      <trkpt lat="48.06906" lon="7.29873">
        <ele>220.7</ele>
        <time>2019-08-09T16:36:32Z</time>
      </trkpt>
      <trkpt lat="48.06904" lon="7.29879">
        <ele>220.6</ele>
        <time>2019-08-09T16:36:33Z</time>
      </trkpt>
      <trkpt lat="48.06901" lon="7.29886">
        <ele>220.6</ele>
        <time>2019-08-09T16:36:34Z</time>
      </trkpt>
      <trkpt lat="48.06898" lon="7.29893">
        <ele>220.5</ele>
        <time>2019-08-09T16:36:35Z</time>
      </trkpt>
      <trkpt lat="48.06895" lon="7.299">
        <ele>220.5</ele>
        <time>2019-08-09T16:36:36Z</time>
      </trkpt>
      <trkpt lat="48.06893" lon="7.29907">
        <ele>220.4</ele>
        <time>2019-08-09T16:36:37Z</time>
      </trkpt>
      <trkpt lat="48.06891" lon="7.29911">
        <ele>220.4</ele>
        <time>2019-08-09T16:36:38Z</time>
      </trkpt>
      <trkpt lat="48.06889" lon="7.29916">
        <ele>220.4</ele>
        <time>2019-08-09T16:36:39Z</time>
      </trkpt>
      <trkpt lat="48.06887" lon="7.2992">
        <ele>220.3</ele>
        <time>2019-08-09T16:36:40Z</time>
      </trkpt>
      <trkpt lat="48.06885" lon="7.29927">
        <ele>220.3</ele>
        <time>2019-08-09T16:36:41Z</time>
      </trkpt>
      <trkpt lat="48.06883" lon="7.29932">
        <ele>220.2</ele>
        <time>2019-08-09T16:36:42Z</time>
      </trkpt>
      <trkpt lat="48.06881" lon="7.29939">
        <ele>220.2</ele>
        <time>2019-08-09T16:36:43Z</time>
      </trkpt>
      <trkpt lat="48.06881" lon="7.29944">
        <ele>220.2</ele>
        <time>2019-08-09T16:36:44Z</time>
      </trkpt>
      <trkpt lat="48.0688" lon="7.29952">
        <ele>220.1</ele>
        <time>2019-08-09T16:36:45Z</time>
      </trkpt>
      <trkpt lat="48.06877" lon="7.29956">
        <ele>220.1</ele>
        <time>2019-08-09T16:36:46Z</time>
      </trkpt>
      <trkpt lat="48.06876" lon="7.29961">
        <ele>220</ele>
        <time>2019-08-09T16:36:47Z</time>
      </trkpt>
      <trkpt lat="48.06874" lon="7.29965">
        <ele>220</ele>
        <time>2019-08-09T16:36:48Z</time>
      </trkpt>
      <trkpt lat="48.06872" lon="7.29971">
        <ele>220</ele>
        <time>2019-08-09T16:36:49Z</time>
      </trkpt>
      <trkpt lat="48.0687" lon="7.29977">
        <ele>219.9</ele>
        <time>2019-08-09T16:36:50Z</time>
      </trkpt>
      <trkpt lat="48.06868" lon="7.29982">
        <ele>219.9</ele>
        <time>2019-08-09T16:36:51Z</time>
      </trkpt>
      <trkpt lat="48.06866" lon="7.29987">
        <ele>219.8</ele>
        <time>2019-08-09T16:36:52Z</time>
      </trkpt>
      <trkpt lat="48.06865" lon="7.29991">
        <ele>219.8</ele>
        <time>2019-08-09T16:36:53Z</time>
      </trkpt>
      <trkpt lat="48.06864" lon="7.29996">
        <ele>219.7</ele>
        <time>2019-08-09T16:36:54Z</time>
      </trkpt>
      <trkpt lat="48.06863" lon="7.30001">
        <ele>219.7</ele>
        <time>2019-08-09T16:36:55Z</time>
      </trkpt>
      <trkpt lat="48.06862" lon="7.30006">
        <ele>219.6</ele>
        <time>2019-08-09T16:36:56Z</time>
      </trkpt>
      <trkpt lat="48.0686" lon="7.30009">
        <ele>219.6</ele>
        <time>2019-08-09T16:36:57Z</time>
      </trkpt>
      <trkpt lat="48.06857" lon="7.30015">
        <ele>219.5</ele>
        <time>2019-08-09T16:36:58Z</time>
      </trkpt>
      <trkpt lat="48.06856" lon="7.3002">
        <ele>219.5</ele>
        <time>2019-08-09T16:36:59Z</time>
      </trkpt>
      <trkpt lat="48.06854" lon="7.30026">
        <ele>219.4</ele>
        <time>2019-08-09T16:37:00Z</time>
      </trkpt>
      <trkpt lat="48.06852" lon="7.30033">
        <ele>219.3</ele>
        <time>2019-08-09T16:37:01Z</time>
      </trkpt>
      <trkpt lat="48.0685" lon="7.3004">
        <ele>219.3</ele>
        <time>2019-08-09T16:37:02Z</time>
      </trkpt>
      <trkpt lat="48.06849" lon="7.30046">
        <ele>219.2</ele>
        <time>2019-08-09T16:37:03Z</time>
      </trkpt>
      <trkpt lat="48.06848" lon="7.30053">
        <ele>219.2</ele>
        <time>2019-08-09T16:37:04Z</time>
      </trkpt>
      <trkpt lat="48.06848" lon="7.30059">
        <ele>219.2</ele>
        <time>2019-08-09T16:37:05Z</time>
      </trkpt>
      <trkpt lat="48.06846" lon="7.30067">
        <ele>219.1</ele>
        <time>2019-08-09T16:37:06Z</time>
      </trkpt>
      <trkpt lat="48.06845" lon="7.30072">
        <ele>219.1</ele>
        <time>2019-08-09T16:37:07Z</time>
      </trkpt>
      <trkpt lat="48.06844" lon="7.30076">
        <ele>219.1</ele>
        <time>2019-08-09T16:37:08Z</time>
      </trkpt>
      <trkpt lat="48.06843" lon="7.3008">
        <ele>219</ele>
        <time>2019-08-09T16:37:09Z</time>
      </trkpt>
      <trkpt lat="48.06842" lon="7.30085">
        <ele>219</ele>
        <time>2019-08-09T16:37:10Z</time>
      </trkpt>
      <trkpt lat="48.0684" lon="7.30088">
        <ele>219</ele>
        <time>2019-08-09T16:37:11Z</time>
      </trkpt>
      <trkpt lat="48.06835" lon="7.30092">
        <ele>219</ele>
        <time>2019-08-09T16:37:13Z</time>
      </trkpt>
      <trkpt lat="48.06833" lon="7.30094">
        <ele>219</ele>
        <time>2019-08-09T16:37:14Z</time>
      </trkpt>
      <trkpt lat="48.0683" lon="7.30096">
        <ele>219</ele>
        <time>2019-08-09T16:37:15Z</time>
      </trkpt>
      <trkpt lat="48.06828" lon="7.30098">
        <ele>219</ele>
        <time>2019-08-09T16:37:17Z</time>
      </trkpt>
      <trkpt lat="48.06826" lon="7.30102">
        <ele>219</ele>
        <time>2019-08-09T16:37:23Z</time>
      </trkpt>
      <trkpt lat="48.0682" lon="7.30108">
        <ele>219</ele>
        <time>2019-08-09T16:37:51Z</time>
      </trkpt>
      <trkpt lat="48.06817" lon="7.30109">
        <ele>219</ele>
        <time>2019-08-09T16:37:52Z</time>
      </trkpt>
      <trkpt lat="48.06813" lon="7.30111">
        <ele>219</ele>
        <time>2019-08-09T16:37:53Z</time>
      </trkpt>
      <trkpt lat="48.06809" lon="7.30112">
        <ele>218.9</ele>
        <time>2019-08-09T16:37:54Z</time>
      </trkpt>
      <trkpt lat="48.06805" lon="7.30114">
        <ele>218.9</ele>
        <time>2019-08-09T16:37:55Z</time>
      </trkpt>
      <trkpt lat="48.06802" lon="7.30117">
        <ele>218.9</ele>
        <time>2019-08-09T16:37:56Z</time>
      </trkpt>
      <trkpt lat="48.06799" lon="7.30119">
        <ele>218.9</ele>
        <time>2019-08-09T16:37:57Z</time>
      </trkpt>
      <trkpt lat="48.06796" lon="7.30121">
        <ele>218.9</ele>
        <time>2019-08-09T16:37:58Z</time>
      </trkpt>
      <trkpt lat="48.06793" lon="7.30124">
        <ele>218.8</ele>
        <time>2019-08-09T16:37:59Z</time>
      </trkpt>
      <trkpt lat="48.06789" lon="7.30126">
        <ele>218.8</ele>
        <time>2019-08-09T16:38:00Z</time>
      </trkpt>
      <trkpt lat="48.06785" lon="7.30128">
        <ele>218.8</ele>
        <time>2019-08-09T16:38:01Z</time>
      </trkpt>
      <trkpt lat="48.0678" lon="7.30133">
        <ele>218.8</ele>
        <time>2019-08-09T16:38:02Z</time>
      </trkpt>
      <trkpt lat="48.06777" lon="7.30138">
        <ele>218.7</ele>
        <time>2019-08-09T16:38:03Z</time>
      </trkpt>
      <trkpt lat="48.06773" lon="7.30142">
        <ele>218.6</ele>
        <time>2019-08-09T16:38:04Z</time>
      </trkpt>
      <trkpt lat="48.0677" lon="7.30144">
        <ele>218.5</ele>
        <time>2019-08-09T16:38:05Z</time>
      </trkpt>
      <trkpt lat="48.06766" lon="7.30147">
        <ele>218.5</ele>
        <time>2019-08-09T16:38:06Z</time>
      </trkpt>
      <trkpt lat="48.06762" lon="7.3015">
        <ele>218.4</ele>
        <time>2019-08-09T16:38:07Z</time>
      </trkpt>
      <trkpt lat="48.06758" lon="7.30153">
        <ele>218.4</ele>
        <time>2019-08-09T16:38:08Z</time>
      </trkpt>
      <trkpt lat="48.06754" lon="7.30156">
        <ele>218.3</ele>
        <time>2019-08-09T16:38:09Z</time>
      </trkpt>
      <trkpt lat="48.06749" lon="7.30159">
        <ele>218.3</ele>
        <time>2019-08-09T16:38:10Z</time>
      </trkpt>
      <trkpt lat="48.06744" lon="7.30161">
        <ele>218.2</ele>
        <time>2019-08-09T16:38:11Z</time>
      </trkpt>
      <trkpt lat="48.06741" lon="7.30162">
        <ele>218.2</ele>
        <time>2019-08-09T16:38:12Z</time>
      </trkpt>
      <trkpt lat="48.06738" lon="7.30165">
        <ele>218.2</ele>
        <time>2019-08-09T16:38:13Z</time>
      </trkpt>
      <trkpt lat="48.06735" lon="7.30167">
        <ele>218.2</ele>
        <time>2019-08-09T16:38:14Z</time>
      </trkpt>
      <trkpt lat="48.06731" lon="7.3017">
        <ele>218.1</ele>
        <time>2019-08-09T16:38:15Z</time>
      </trkpt>
      <trkpt lat="48.06727" lon="7.30172">
        <ele>218.1</ele>
        <time>2019-08-09T16:38:16Z</time>
      </trkpt>
      <trkpt lat="48.06724" lon="7.30173">
        <ele>218.1</ele>
        <time>2019-08-09T16:38:17Z</time>
      </trkpt>
      <trkpt lat="48.0672" lon="7.30174">
        <ele>218</ele>
        <time>2019-08-09T16:38:18Z</time>
      </trkpt>
      <trkpt lat="48.06716" lon="7.30175">
        <ele>218</ele>
        <time>2019-08-09T16:38:19Z</time>
      </trkpt>
      <trkpt lat="48.06714" lon="7.30178">
        <ele>217.9</ele>
        <time>2019-08-09T16:38:20Z</time>
      </trkpt>
      <trkpt lat="48.06711" lon="7.3018">
        <ele>217.8</ele>
        <time>2019-08-09T16:38:21Z</time>
      </trkpt>
      <trkpt lat="48.06707" lon="7.30183">
        <ele>217.7</ele>
        <time>2019-08-09T16:38:22Z</time>
      </trkpt>
      <trkpt lat="48.06703" lon="7.30185">
        <ele>217.6</ele>
        <time>2019-08-09T16:38:23Z</time>
      </trkpt>
      <trkpt lat="48.06699" lon="7.30189">
        <ele>217.4</ele>
        <time>2019-08-09T16:38:24Z</time>
      </trkpt>
      <trkpt lat="48.06695" lon="7.30192">
        <ele>217.3</ele>
        <time>2019-08-09T16:38:25Z</time>
      </trkpt>
      <trkpt lat="48.06691" lon="7.30195">
        <ele>217.1</ele>
        <time>2019-08-09T16:38:26Z</time>
      </trkpt>
      <trkpt lat="48.06686" lon="7.30198">
        <ele>217</ele>
        <time>2019-08-09T16:38:27Z</time>
      </trkpt>
      <trkpt lat="48.06681" lon="7.302">
        <ele>216.9</ele>
        <time>2019-08-09T16:38:28Z</time>
      </trkpt>
      <trkpt lat="48.06677" lon="7.30201">
        <ele>216.8</ele>
        <time>2019-08-09T16:38:29Z</time>
      </trkpt>
      <trkpt lat="48.06672" lon="7.30203">
        <ele>216.7</ele>
        <time>2019-08-09T16:38:30Z</time>
      </trkpt>
      <trkpt lat="48.06668" lon="7.30205">
        <ele>216.6</ele>
        <time>2019-08-09T16:38:31Z</time>
      </trkpt>
      <trkpt lat="48.06664" lon="7.30207">
        <ele>216.6</ele>
        <time>2019-08-09T16:38:32Z</time>
      </trkpt>
      <trkpt lat="48.0666" lon="7.3021">
        <ele>216.5</ele>
        <time>2019-08-09T16:38:33Z</time>
      </trkpt>
      <trkpt lat="48.06657" lon="7.30212">
        <ele>216.5</ele>
        <time>2019-08-09T16:38:34Z</time>
      </trkpt>
      <trkpt lat="48.06653" lon="7.30215">
        <ele>216.4</ele>
        <time>2019-08-09T16:38:35Z</time>
      </trkpt>
      <trkpt lat="48.06649" lon="7.30217">
        <ele>216.4</ele>
        <time>2019-08-09T16:38:36Z</time>
      </trkpt>
      <trkpt lat="48.06645" lon="7.30218">
        <ele>216.3</ele>
        <time>2019-08-09T16:38:37Z</time>
      </trkpt>
      <trkpt lat="48.06641" lon="7.30219">
        <ele>216.3</ele>
        <time>2019-08-09T16:38:38Z</time>
      </trkpt>
      <trkpt lat="48.06636" lon="7.3022">
        <ele>216.2</ele>
        <time>2019-08-09T16:38:39Z</time>
      </trkpt>
      <trkpt lat="48.06631" lon="7.30223">
        <ele>216.1</ele>
        <time>2019-08-09T16:38:40Z</time>
      </trkpt>
      <trkpt lat="48.06626" lon="7.30225">
        <ele>216.1</ele>
        <time>2019-08-09T16:38:41Z</time>
      </trkpt>
      <trkpt lat="48.06621" lon="7.30227">
        <ele>216</ele>
        <time>2019-08-09T16:38:42Z</time>
      </trkpt>
      <trkpt lat="48.06617" lon="7.30229">
        <ele>215.9</ele>
        <time>2019-08-09T16:38:43Z</time>
      </trkpt>
      <trkpt lat="48.06613" lon="7.30231">
        <ele>215.9</ele>
        <time>2019-08-09T16:38:44Z</time>
      </trkpt>
      <trkpt lat="48.06608" lon="7.30233">
        <ele>215.8</ele>
        <time>2019-08-09T16:38:45Z</time>
      </trkpt>
      <trkpt lat="48.06604" lon="7.30235">
        <ele>215.7</ele>
        <time>2019-08-09T16:38:46Z</time>
      </trkpt>
      <trkpt lat="48.06602" lon="7.30237">
        <ele>215.7</ele>
        <time>2019-08-09T16:38:47Z</time>
      </trkpt>
      <trkpt lat="48.06598" lon="7.30239">
        <ele>215.7</ele>
        <time>2019-08-09T16:38:48Z</time>
      </trkpt>
      <trkpt lat="48.06594" lon="7.30241">
        <ele>215.7</ele>
        <time>2019-08-09T16:38:49Z</time>
      </trkpt>
      <trkpt lat="48.06589" lon="7.30243">
        <ele>215.6</ele>
        <time>2019-08-09T16:38:50Z</time>
      </trkpt>
      <trkpt lat="48.06585" lon="7.30246">
        <ele>215.5</ele>
        <time>2019-08-09T16:38:51Z</time>
      </trkpt>
      <trkpt lat="48.06581" lon="7.30247">
        <ele>215.5</ele>
        <time>2019-08-09T16:38:52Z</time>
      </trkpt>
      <trkpt lat="48.06576" lon="7.30249">
        <ele>215.4</ele>
        <time>2019-08-09T16:38:53Z</time>
      </trkpt>
      <trkpt lat="48.06572" lon="7.30252">
        <ele>215.3</ele>
        <time>2019-08-09T16:38:54Z</time>
      </trkpt>
      <trkpt lat="48.06568" lon="7.30255">
        <ele>215.3</ele>
        <time>2019-08-09T16:38:55Z</time>
      </trkpt>
      <trkpt lat="48.06564" lon="7.30258">
        <ele>215.3</ele>
        <time>2019-08-09T16:38:56Z</time>
      </trkpt>
      <trkpt lat="48.06559" lon="7.3026">
        <ele>215.3</ele>
        <time>2019-08-09T16:38:57Z</time>
      </trkpt>
      <trkpt lat="48.06554" lon="7.30262">
        <ele>215.3</ele>
        <time>2019-08-09T16:38:58Z</time>
      </trkpt>
      <trkpt lat="48.06549" lon="7.30265">
        <ele>215.3</ele>
        <time>2019-08-09T16:38:59Z</time>
      </trkpt>
      <trkpt lat="48.06546" lon="7.30267">
        <ele>215.3</ele>
        <time>2019-08-09T16:39:00Z</time>
      </trkpt>
      <trkpt lat="48.0654" lon="7.30269">
        <ele>215.3</ele>
        <time>2019-08-09T16:39:01Z</time>
      </trkpt>
      <trkpt lat="48.06537" lon="7.3027">
        <ele>215.3</ele>
        <time>2019-08-09T16:39:02Z</time>
      </trkpt>
      <trkpt lat="48.06533" lon="7.30272">
        <ele>215.4</ele>
        <time>2019-08-09T16:39:03Z</time>
      </trkpt>
      <trkpt lat="48.06528" lon="7.30276">
        <ele>215.5</ele>
        <time>2019-08-09T16:39:04Z</time>
      </trkpt>
      <trkpt lat="48.06523" lon="7.30279">
        <ele>215.6</ele>
        <time>2019-08-09T16:39:05Z</time>
      </trkpt>
      <trkpt lat="48.0652" lon="7.30283">
        <ele>215.6</ele>
        <time>2019-08-09T16:39:06Z</time>
      </trkpt>
      <trkpt lat="48.06516" lon="7.30286">
        <ele>215.7</ele>
        <time>2019-08-09T16:39:07Z</time>
      </trkpt>
      <trkpt lat="48.06513" lon="7.3029">
        <ele>215.5</ele>
        <time>2019-08-09T16:39:08Z</time>
      </trkpt>
      <trkpt lat="48.06512" lon="7.30296">
        <ele>215.3</ele>
        <time>2019-08-09T16:39:09Z</time>
      </trkpt>
      <trkpt lat="48.06511" lon="7.30302">
        <ele>215.2</ele>
        <time>2019-08-09T16:39:10Z</time>
      </trkpt>
      <trkpt lat="48.06511" lon="7.30308">
        <ele>215</ele>
        <time>2019-08-09T16:39:11Z</time>
      </trkpt>
      <trkpt lat="48.0651" lon="7.30316">
        <ele>215</ele>
        <time>2019-08-09T16:39:12Z</time>
      </trkpt>
      <trkpt lat="48.06509" lon="7.30323">
        <ele>215</ele>
        <time>2019-08-09T16:39:13Z</time>
      </trkpt>
      <trkpt lat="48.06508" lon="7.30331">
        <ele>215</ele>
        <time>2019-08-09T16:39:14Z</time>
      </trkpt>
      <trkpt lat="48.06507" lon="7.3034">
        <ele>215</ele>
        <time>2019-08-09T16:39:15Z</time>
      </trkpt>
      <trkpt lat="48.06505" lon="7.30348">
        <ele>215</ele>
        <time>2019-08-09T16:39:16Z</time>
      </trkpt>
      <trkpt lat="48.06503" lon="7.30357">
        <ele>215</ele>
        <time>2019-08-09T16:39:17Z</time>
      </trkpt>
      <trkpt lat="48.065" lon="7.30365">
        <ele>215</ele>
        <time>2019-08-09T16:39:18Z</time>
      </trkpt>
      <trkpt lat="48.06498" lon="7.30372">
        <ele>214.9</ele>
        <time>2019-08-09T16:39:19Z</time>
      </trkpt>
      <trkpt lat="48.06496" lon="7.30378">
        <ele>214.9</ele>
        <time>2019-08-09T16:39:20Z</time>
      </trkpt>
      <trkpt lat="48.06494" lon="7.30385">
        <ele>214.8</ele>
        <time>2019-08-09T16:39:21Z</time>
      </trkpt>
      <trkpt lat="48.06492" lon="7.3039">
        <ele>214.7</ele>
        <time>2019-08-09T16:39:22Z</time>
      </trkpt>
      <trkpt lat="48.06489" lon="7.30398">
        <ele>214.6</ele>
        <time>2019-08-09T16:39:23Z</time>
      </trkpt>
      <trkpt lat="48.06487" lon="7.30404">
        <ele>214.4</ele>
        <time>2019-08-09T16:39:24Z</time>
      </trkpt>
      <trkpt lat="48.06484" lon="7.30407">
        <ele>214.3</ele>
        <time>2019-08-09T16:39:25Z</time>
      </trkpt>
      <trkpt lat="48.06481" lon="7.30414">
        <ele>214.1</ele>
        <time>2019-08-09T16:39:26Z</time>
      </trkpt>
      <trkpt lat="48.06478" lon="7.3042">
        <ele>214</ele>
        <time>2019-08-09T16:39:27Z</time>
      </trkpt>
      <trkpt lat="48.06475" lon="7.30426">
        <ele>213.8</ele>
        <time>2019-08-09T16:39:28Z</time>
      </trkpt>
      <trkpt lat="48.06472" lon="7.30432">
        <ele>213.6</ele>
        <time>2019-08-09T16:39:29Z</time>
      </trkpt>
      <trkpt lat="48.06469" lon="7.30437">
        <ele>213.4</ele>
        <time>2019-08-09T16:39:30Z</time>
      </trkpt>
      <trkpt lat="48.06465" lon="7.30441">
        <ele>213.2</ele>
        <time>2019-08-09T16:39:31Z</time>
      </trkpt>
      <trkpt lat="48.06462" lon="7.30446">
        <ele>212.9</ele>
        <time>2019-08-09T16:39:32Z</time>
      </trkpt>
      <trkpt lat="48.06458" lon="7.30449">
        <ele>212.8</ele>
        <time>2019-08-09T16:39:33Z</time>
      </trkpt>
      <trkpt lat="48.06455" lon="7.30455">
        <ele>212.8</ele>
        <time>2019-08-09T16:39:34Z</time>
      </trkpt>
      <trkpt lat="48.06452" lon="7.30459">
        <ele>212.8</ele>
        <time>2019-08-09T16:39:35Z</time>
      </trkpt>
      <trkpt lat="48.06449" lon="7.30464">
        <ele>212.8</ele>
        <time>2019-08-09T16:39:36Z</time>
      </trkpt>
      <trkpt lat="48.06446" lon="7.30469">
        <ele>212.8</ele>
        <time>2019-08-09T16:39:37Z</time>
      </trkpt>
      <trkpt lat="48.06442" lon="7.30474">
        <ele>212.8</ele>
        <time>2019-08-09T16:39:38Z</time>
      </trkpt>
      <trkpt lat="48.06438" lon="7.30479">
        <ele>212.7</ele>
        <time>2019-08-09T16:39:39Z</time>
      </trkpt>
      <trkpt lat="48.06435" lon="7.30483">
        <ele>212.7</ele>
        <time>2019-08-09T16:39:40Z</time>
      </trkpt>
      <trkpt lat="48.06432" lon="7.30487">
        <ele>212.7</ele>
        <time>2019-08-09T16:39:41Z</time>
      </trkpt>
      <trkpt lat="48.06428" lon="7.30492">
        <ele>212.7</ele>
        <time>2019-08-09T16:39:42Z</time>
      </trkpt>
      <trkpt lat="48.06425" lon="7.30496">
        <ele>212.7</ele>
        <time>2019-08-09T16:39:43Z</time>
      </trkpt>
      <trkpt lat="48.06423" lon="7.30501">
        <ele>212.7</ele>
        <time>2019-08-09T16:39:44Z</time>
      </trkpt>
      <trkpt lat="48.06419" lon="7.30504">
        <ele>212.7</ele>
        <time>2019-08-09T16:39:45Z</time>
      </trkpt>
      <trkpt lat="48.06417" lon="7.30507">
        <ele>212.6</ele>
        <time>2019-08-09T16:39:46Z</time>
      </trkpt>
      <trkpt lat="48.06413" lon="7.3051">
        <ele>212.6</ele>
        <time>2019-08-09T16:39:47Z</time>
      </trkpt>
      <trkpt lat="48.06409" lon="7.30514">
        <ele>212.6</ele>
        <time>2019-08-09T16:39:48Z</time>
      </trkpt>
      <trkpt lat="48.06406" lon="7.30518">
        <ele>212.6</ele>
        <time>2019-08-09T16:39:49Z</time>
      </trkpt>
      <trkpt lat="48.06403" lon="7.30522">
        <ele>212.5</ele>
        <time>2019-08-09T16:39:50Z</time>
      </trkpt>
      <trkpt lat="48.06399" lon="7.30526">
        <ele>212.5</ele>
        <time>2019-08-09T16:39:51Z</time>
      </trkpt>
      <trkpt lat="48.06395" lon="7.3053">
        <ele>212.4</ele>
        <time>2019-08-09T16:39:52Z</time>
      </trkpt>
      <trkpt lat="48.06392" lon="7.30531">
        <ele>212.4</ele>
        <time>2019-08-09T16:39:53Z</time>
      </trkpt>
      <trkpt lat="48.06388" lon="7.30533">
        <ele>212.4</ele>
        <time>2019-08-09T16:39:54Z</time>
      </trkpt>
      <trkpt lat="48.06383" lon="7.30536">
        <ele>212.4</ele>
        <time>2019-08-09T16:39:55Z</time>
      </trkpt>
      <trkpt lat="48.06378" lon="7.30539">
        <ele>212.4</ele>
        <time>2019-08-09T16:39:56Z</time>
      </trkpt>
      <trkpt lat="48.06374" lon="7.30544">
        <ele>212.3</ele>
        <time>2019-08-09T16:39:57Z</time>
      </trkpt>
      <trkpt lat="48.0637" lon="7.30548">
        <ele>212.3</ele>
        <time>2019-08-09T16:39:58Z</time>
      </trkpt>
      <trkpt lat="48.06366" lon="7.3055">
        <ele>212.3</ele>
        <time>2019-08-09T16:39:59Z</time>
      </trkpt>
      <trkpt lat="48.06361" lon="7.30552">
        <ele>212.3</ele>
        <time>2019-08-09T16:40:00Z</time>
      </trkpt>
      <trkpt lat="48.06357" lon="7.30555">
        <ele>212.3</ele>
        <time>2019-08-09T16:40:01Z</time>
      </trkpt>
      <trkpt lat="48.06353" lon="7.30558">
        <ele>212.3</ele>
        <time>2019-08-09T16:40:02Z</time>
      </trkpt>
      <trkpt lat="48.06349" lon="7.30561">
        <ele>212.3</ele>
        <time>2019-08-09T16:40:03Z</time>
      </trkpt>
      <trkpt lat="48.06345" lon="7.30563">
        <ele>212.2</ele>
        <time>2019-08-09T16:40:04Z</time>
      </trkpt>
      <trkpt lat="48.0634" lon="7.30565">
        <ele>212.2</ele>
        <time>2019-08-09T16:40:05Z</time>
      </trkpt>
      <trkpt lat="48.06336" lon="7.30567">
        <ele>212.1</ele>
        <time>2019-08-09T16:40:06Z</time>
      </trkpt>
      <trkpt lat="48.06332" lon="7.30569">
        <ele>212.1</ele>
        <time>2019-08-09T16:40:07Z</time>
      </trkpt>
      <trkpt lat="48.06329" lon="7.30571">
        <ele>212.1</ele>
        <time>2019-08-09T16:40:08Z</time>
      </trkpt>
      <trkpt lat="48.06325" lon="7.30574">
        <ele>212</ele>
        <time>2019-08-09T16:40:09Z</time>
      </trkpt>
      <trkpt lat="48.06321" lon="7.30574">
        <ele>212</ele>
        <time>2019-08-09T16:40:10Z</time>
      </trkpt>
      <trkpt lat="48.06317" lon="7.30575">
        <ele>212</ele>
        <time>2019-08-09T16:40:11Z</time>
      </trkpt>
      <trkpt lat="48.06312" lon="7.30579">
        <ele>211.9</ele>
        <time>2019-08-09T16:40:12Z</time>
      </trkpt>
      <trkpt lat="48.06308" lon="7.30581">
        <ele>211.9</ele>
        <time>2019-08-09T16:40:13Z</time>
      </trkpt>
      <trkpt lat="48.06303" lon="7.30584">
        <ele>211.8</ele>
        <time>2019-08-09T16:40:14Z</time>
      </trkpt>
      <trkpt lat="48.06301" lon="7.30586">
        <ele>211.8</ele>
        <time>2019-08-09T16:40:15Z</time>
      </trkpt>
      <trkpt lat="48.06297" lon="7.30588">
        <ele>211.8</ele>
        <time>2019-08-09T16:40:16Z</time>
      </trkpt>
      <trkpt lat="48.06292" lon="7.30589">
        <ele>211.8</ele>
        <time>2019-08-09T16:40:17Z</time>
      </trkpt>
      <trkpt lat="48.06287" lon="7.30591">
        <ele>211.8</ele>
        <time>2019-08-09T16:40:18Z</time>
      </trkpt>
      <trkpt lat="48.06284" lon="7.30593">
        <ele>211.7</ele>
        <time>2019-08-09T16:40:19Z</time>
      </trkpt>
      <trkpt lat="48.06279" lon="7.30595">
        <ele>211.7</ele>
        <time>2019-08-09T16:40:20Z</time>
      </trkpt>
      <trkpt lat="48.06276" lon="7.30598">
        <ele>211.7</ele>
        <time>2019-08-09T16:40:21Z</time>
      </trkpt>
      <trkpt lat="48.06272" lon="7.30602">
        <ele>211.7</ele>
        <time>2019-08-09T16:40:22Z</time>
      </trkpt>
      <trkpt lat="48.06268" lon="7.30607">
        <ele>211.7</ele>
        <time>2019-08-09T16:40:23Z</time>
      </trkpt>
      <trkpt lat="48.06264" lon="7.30612">
        <ele>211.7</ele>
        <time>2019-08-09T16:40:24Z</time>
      </trkpt>
      <trkpt lat="48.06261" lon="7.30618">
        <ele>211.6</ele>
        <time>2019-08-09T16:40:25Z</time>
      </trkpt>
      <trkpt lat="48.06258" lon="7.30624">
        <ele>211.6</ele>
        <time>2019-08-09T16:40:26Z</time>
      </trkpt>
      <trkpt lat="48.06256" lon="7.30631">
        <ele>211.5</ele>
        <time>2019-08-09T16:40:27Z</time>
      </trkpt>
      <trkpt lat="48.06253" lon="7.30637">
        <ele>211.5</ele>
        <time>2019-08-09T16:40:28Z</time>
      </trkpt>
      <trkpt lat="48.06251" lon="7.30642">
        <ele>211.4</ele>
        <time>2019-08-09T16:40:29Z</time>
      </trkpt>
      <trkpt lat="48.06249" lon="7.30648">
        <ele>211.3</ele>
        <time>2019-08-09T16:40:30Z</time>
      </trkpt>
      <trkpt lat="48.06247" lon="7.30654">
        <ele>211.3</ele>
        <time>2019-08-09T16:40:31Z</time>
      </trkpt>
      <trkpt lat="48.06245" lon="7.3066">
        <ele>211.2</ele>
        <time>2019-08-09T16:40:32Z</time>
      </trkpt>
      <trkpt lat="48.06243" lon="7.30666">
        <ele>211.1</ele>
        <time>2019-08-09T16:40:33Z</time>
      </trkpt>
      <trkpt lat="48.06242" lon="7.3067">
        <ele>211.1</ele>
        <time>2019-08-09T16:40:34Z</time>
      </trkpt>
      <trkpt lat="48.06241" lon="7.30674">
        <ele>211</ele>
        <time>2019-08-09T16:40:35Z</time>
      </trkpt>
      <trkpt lat="48.0624" lon="7.30679">
        <ele>210.9</ele>
        <time>2019-08-09T16:40:37Z</time>
      </trkpt>
      <trkpt lat="48.06238" lon="7.30683">
        <ele>210.9</ele>
        <time>2019-08-09T16:40:44Z</time>
      </trkpt>
      <trkpt lat="48.06235" lon="7.30683">
        <ele>210.9</ele>
        <time>2019-08-09T16:40:46Z</time>
      </trkpt>
      <trkpt lat="48.06232" lon="7.30678">
        <ele>210.9</ele>
        <time>2019-08-09T16:40:48Z</time>
      </trkpt>
      <trkpt lat="48.0623" lon="7.30675">
        <ele>210.9</ele>
        <time>2019-08-09T16:40:50Z</time>
      </trkpt>
      <trkpt lat="48.06227" lon="7.30672">
        <ele>210.9</ele>
        <time>2019-08-09T16:40:52Z</time>
      </trkpt>
      <trkpt lat="48.06223" lon="7.30669">
        <ele>210.9</ele>
        <time>2019-08-09T16:40:54Z</time>
      </trkpt>
      <trkpt lat="48.06218" lon="7.30666">
        <ele>210.9</ele>
        <time>2019-08-09T16:40:56Z</time>
      </trkpt>
      <trkpt lat="48.06211" lon="7.3066">
        <ele>210.9</ele>
        <time>2019-08-09T16:40:58Z</time>
      </trkpt>
      <trkpt lat="48.06208" lon="7.30659">
        <ele>211</ele>
        <time>2019-08-09T16:40:59Z</time>
      </trkpt>
      <trkpt lat="48.06205" lon="7.30655">
        <ele>211</ele>
        <time>2019-08-09T16:41:00Z</time>
      </trkpt>
      <trkpt lat="48.06202" lon="7.30654">
        <ele>211</ele>
        <time>2019-08-09T16:41:01Z</time>
      </trkpt>
      <trkpt lat="48.06199" lon="7.30651">
        <ele>211</ele>
        <time>2019-08-09T16:41:02Z</time>
      </trkpt>
      <trkpt lat="48.06193" lon="7.30646">
        <ele>211.1</ele>
        <time>2019-08-09T16:41:03Z</time>
      </trkpt>
      <trkpt lat="48.06187" lon="7.30642">
        <ele>211.2</ele>
        <time>2019-08-09T16:41:04Z</time>
      </trkpt>
      <trkpt lat="48.06182" lon="7.30637">
        <ele>211.3</ele>
        <time>2019-08-09T16:41:05Z</time>
      </trkpt>
      <trkpt lat="48.06178" lon="7.30634">
        <ele>211.3</ele>
        <time>2019-08-09T16:41:06Z</time>
      </trkpt>
      <trkpt lat="48.06175" lon="7.30631">
        <ele>211.4</ele>
        <time>2019-08-09T16:41:07Z</time>
      </trkpt>
      <trkpt lat="48.06171" lon="7.30627">
        <ele>211.4</ele>
        <time>2019-08-09T16:41:09Z</time>
      </trkpt>
      <trkpt lat="48.06168" lon="7.30623">
        <ele>211.4</ele>
        <time>2019-08-09T16:41:11Z</time>
      </trkpt>
      <trkpt lat="48.06165" lon="7.3062">
        <ele>211.5</ele>
        <time>2019-08-09T16:41:13Z</time>
      </trkpt>
      <trkpt lat="48.06161" lon="7.30621">
        <ele>211.5</ele>
        <time>2019-08-09T16:41:15Z</time>
      </trkpt>
      <trkpt lat="48.06156" lon="7.30623">
        <ele>211.4</ele>
        <time>2019-08-09T16:41:17Z</time>
      </trkpt>
      <trkpt lat="48.06153" lon="7.30623">
        <ele>211.4</ele>
        <time>2019-08-09T16:41:18Z</time>
      </trkpt>
      <trkpt lat="48.0615" lon="7.30624">
        <ele>211.4</ele>
        <time>2019-08-09T16:41:19Z</time>
      </trkpt>
      <trkpt lat="48.06145" lon="7.30621">
        <ele>211.4</ele>
        <time>2019-08-09T16:41:21Z</time>
      </trkpt>
      <trkpt lat="48.06142" lon="7.30621">
        <ele>211.3</ele>
        <time>2019-08-09T16:41:22Z</time>
      </trkpt>
      <trkpt lat="48.06139" lon="7.3062">
        <ele>211.3</ele>
        <time>2019-08-09T16:41:23Z</time>
      </trkpt>
      <trkpt lat="48.06135" lon="7.30619">
        <ele>211.3</ele>
        <time>2019-08-09T16:41:24Z</time>
      </trkpt>
      <trkpt lat="48.06131" lon="7.30617">
        <ele>211.3</ele>
        <time>2019-08-09T16:41:25Z</time>
      </trkpt>
      <trkpt lat="48.06128" lon="7.30617">
        <ele>211.2</ele>
        <time>2019-08-09T16:41:26Z</time>
      </trkpt>
      <trkpt lat="48.06124" lon="7.30617">
        <ele>211.2</ele>
        <time>2019-08-09T16:41:27Z</time>
      </trkpt>
      <trkpt lat="48.06119" lon="7.30615">
        <ele>211.2</ele>
        <time>2019-08-09T16:41:28Z</time>
      </trkpt>
      <trkpt lat="48.06114" lon="7.30613">
        <ele>211.1</ele>
        <time>2019-08-09T16:41:29Z</time>
      </trkpt>
      <trkpt lat="48.0611" lon="7.30612">
        <ele>211.1</ele>
        <time>2019-08-09T16:41:30Z</time>
      </trkpt>
      <trkpt lat="48.06104" lon="7.30611">
        <ele>211</ele>
        <time>2019-08-09T16:41:31Z</time>
      </trkpt>
      <trkpt lat="48.06099" lon="7.3061">
        <ele>210.9</ele>
        <time>2019-08-09T16:41:32Z</time>
      </trkpt>
      <trkpt lat="48.06095" lon="7.30611">
        <ele>210.8</ele>
        <time>2019-08-09T16:41:33Z</time>
      </trkpt>
      <trkpt lat="48.0609" lon="7.30611">
        <ele>210.6</ele>
        <time>2019-08-09T16:41:34Z</time>
      </trkpt>
      <trkpt lat="48.06086" lon="7.30612">
        <ele>210.5</ele>
        <time>2019-08-09T16:41:35Z</time>
      </trkpt>
      <trkpt lat="48.06083" lon="7.30609">
        <ele>210.3</ele>
        <time>2019-08-09T16:41:36Z</time>
      </trkpt>
      <trkpt lat="48.0608" lon="7.30608">
        <ele>210.2</ele>
        <time>2019-08-09T16:41:37Z</time>
      </trkpt>
      <trkpt lat="48.06075" lon="7.30608">
        <ele>210.1</ele>
        <time>2019-08-09T16:41:38Z</time>
      </trkpt>
      <trkpt lat="48.0607" lon="7.30605">
        <ele>209.9</ele>
        <time>2019-08-09T16:41:39Z</time>
      </trkpt>
      <trkpt lat="48.06065" lon="7.30603">
        <ele>209.8</ele>
        <time>2019-08-09T16:41:40Z</time>
      </trkpt>
      <trkpt lat="48.06061" lon="7.30603">
        <ele>209.7</ele>
        <time>2019-08-09T16:41:41Z</time>
      </trkpt>
      <trkpt lat="48.06056" lon="7.30604">
        <ele>209.6</ele>
        <time>2019-08-09T16:41:42Z</time>
      </trkpt>
      <trkpt lat="48.06052" lon="7.30605">
        <ele>209.6</ele>
        <time>2019-08-09T16:41:43Z</time>
      </trkpt>
      <trkpt lat="48.06048" lon="7.30605">
        <ele>209.5</ele>
        <time>2019-08-09T16:41:44Z</time>
      </trkpt>
      <trkpt lat="48.06043" lon="7.30604">
        <ele>209.4</ele>
        <time>2019-08-09T16:41:45Z</time>
      </trkpt>
      <trkpt lat="48.06038" lon="7.30604">
        <ele>209.4</ele>
        <time>2019-08-09T16:41:46Z</time>
      </trkpt>
      <trkpt lat="48.06034" lon="7.30604">
        <ele>209.4</ele>
        <time>2019-08-09T16:41:47Z</time>
      </trkpt>
      <trkpt lat="48.06029" lon="7.30604">
        <ele>209.3</ele>
        <time>2019-08-09T16:41:48Z</time>
      </trkpt>
      <trkpt lat="48.06026" lon="7.30603">
        <ele>209.3</ele>
        <time>2019-08-09T16:41:49Z</time>
      </trkpt>
      <trkpt lat="48.06021" lon="7.30602">
        <ele>209.3</ele>
        <time>2019-08-09T16:41:50Z</time>
      </trkpt>
      <trkpt lat="48.06017" lon="7.30602">
        <ele>209.3</ele>
        <time>2019-08-09T16:41:51Z</time>
      </trkpt>
      <trkpt lat="48.06012" lon="7.30601">
        <ele>209.3</ele>
        <time>2019-08-09T16:41:52Z</time>
      </trkpt>
      <trkpt lat="48.06008" lon="7.30601">
        <ele>209.2</ele>
        <time>2019-08-09T16:41:53Z</time>
      </trkpt>
      <trkpt lat="48.06004" lon="7.30601">
        <ele>209.2</ele>
        <time>2019-08-09T16:41:54Z</time>
      </trkpt>
      <trkpt lat="48.06" lon="7.30602">
        <ele>209.1</ele>
        <time>2019-08-09T16:41:55Z</time>
      </trkpt>
      <trkpt lat="48.05995" lon="7.30603">
        <ele>209.1</ele>
        <time>2019-08-09T16:41:56Z</time>
      </trkpt>
      <trkpt lat="48.0599" lon="7.30603">
        <ele>209</ele>
        <time>2019-08-09T16:41:57Z</time>
      </trkpt>
      <trkpt lat="48.05985" lon="7.30604">
        <ele>209</ele>
        <time>2019-08-09T16:41:58Z</time>
      </trkpt>
      <trkpt lat="48.0598" lon="7.30604">
        <ele>208.9</ele>
        <time>2019-08-09T16:41:59Z</time>
      </trkpt>
      <trkpt lat="48.05975" lon="7.30605">
        <ele>208.9</ele>
        <time>2019-08-09T16:42:00Z</time>
      </trkpt>
      <trkpt lat="48.0597" lon="7.30604">
        <ele>208.9</ele>
        <time>2019-08-09T16:42:01Z</time>
      </trkpt>
      <trkpt lat="48.05966" lon="7.30603">
        <ele>208.9</ele>
        <time>2019-08-09T16:42:02Z</time>
      </trkpt>
      <trkpt lat="48.05961" lon="7.30604">
        <ele>208.9</ele>
        <time>2019-08-09T16:42:03Z</time>
      </trkpt>
      <trkpt lat="48.05956" lon="7.30605">
        <ele>208.9</ele>
        <time>2019-08-09T16:42:04Z</time>
      </trkpt>
      <trkpt lat="48.05951" lon="7.30606">
        <ele>208.9</ele>
        <time>2019-08-09T16:42:05Z</time>
      </trkpt>
      <trkpt lat="48.05946" lon="7.30608">
        <ele>208.9</ele>
        <time>2019-08-09T16:42:06Z</time>
      </trkpt>
      <trkpt lat="48.05941" lon="7.30608">
        <ele>208.8</ele>
        <time>2019-08-09T16:42:07Z</time>
      </trkpt>
      <trkpt lat="48.05936" lon="7.30609">
        <ele>208.8</ele>
        <time>2019-08-09T16:42:08Z</time>
      </trkpt>
      <trkpt lat="48.0593" lon="7.30609">
        <ele>208.8</ele>
        <time>2019-08-09T16:42:09Z</time>
      </trkpt>
      <trkpt lat="48.05925" lon="7.3061">
        <ele>208.8</ele>
        <time>2019-08-09T16:42:10Z</time>
      </trkpt>
      <trkpt lat="48.05918" lon="7.30609">
        <ele>208.7</ele>
        <time>2019-08-09T16:42:11Z</time>
      </trkpt>
      <trkpt lat="48.05912" lon="7.30608">
        <ele>208.7</ele>
        <time>2019-08-09T16:42:12Z</time>
      </trkpt>
      <trkpt lat="48.05906" lon="7.30608">
        <ele>208.6</ele>
        <time>2019-08-09T16:42:13Z</time>
      </trkpt>
      <trkpt lat="48.059" lon="7.30608">
        <ele>208.6</ele>
        <time>2019-08-09T16:42:14Z</time>
      </trkpt>
      <trkpt lat="48.05894" lon="7.30608">
        <ele>208.5</ele>
        <time>2019-08-09T16:42:15Z</time>
      </trkpt>
      <trkpt lat="48.05889" lon="7.30607">
        <ele>208.4</ele>
        <time>2019-08-09T16:42:16Z</time>
      </trkpt>
      <trkpt lat="48.05884" lon="7.30607">
        <ele>208.4</ele>
        <time>2019-08-09T16:42:17Z</time>
      </trkpt>
      <trkpt lat="48.05878" lon="7.30607">
        <ele>208.3</ele>
        <time>2019-08-09T16:42:18Z</time>
      </trkpt>
      <trkpt lat="48.05873" lon="7.30606">
        <ele>208.2</ele>
        <time>2019-08-09T16:42:19Z</time>
      </trkpt>
      <trkpt lat="48.05867" lon="7.30607">
        <ele>208.2</ele>
        <time>2019-08-09T16:42:20Z</time>
      </trkpt>
      <trkpt lat="48.05862" lon="7.30606">
        <ele>208.1</ele>
        <time>2019-08-09T16:42:21Z</time>
      </trkpt>
      <trkpt lat="48.05856" lon="7.30606">
        <ele>208.1</ele>
        <time>2019-08-09T16:42:22Z</time>
      </trkpt>
      <trkpt lat="48.05851" lon="7.30607">
        <ele>208.1</ele>
        <time>2019-08-09T16:42:23Z</time>
      </trkpt>
      <trkpt lat="48.05846" lon="7.30607">
        <ele>208.1</ele>
        <time>2019-08-09T16:42:24Z</time>
      </trkpt>
      <trkpt lat="48.05841" lon="7.30607">
        <ele>208</ele>
        <time>2019-08-09T16:42:25Z</time>
      </trkpt>
      <trkpt lat="48.05836" lon="7.30605">
        <ele>207.9</ele>
        <time>2019-08-09T16:42:26Z</time>
      </trkpt>
      <trkpt lat="48.0583" lon="7.30604">
        <ele>207.7</ele>
        <time>2019-08-09T16:42:27Z</time>
      </trkpt>
      <trkpt lat="48.05825" lon="7.30604">
        <ele>207.4</ele>
        <time>2019-08-09T16:42:28Z</time>
      </trkpt>
      <trkpt lat="48.05818" lon="7.30604">
        <ele>207.1</ele>
        <time>2019-08-09T16:42:29Z</time>
      </trkpt>
      <trkpt lat="48.05812" lon="7.30605">
        <ele>206.8</ele>
        <time>2019-08-09T16:42:30Z</time>
      </trkpt>
      <trkpt lat="48.05807" lon="7.30604">
        <ele>206.6</ele>
        <time>2019-08-09T16:42:31Z</time>
      </trkpt>
      <trkpt lat="48.05803" lon="7.30605">
        <ele>206.4</ele>
        <time>2019-08-09T16:42:32Z</time>
      </trkpt>
      <trkpt lat="48.05797" lon="7.30605">
        <ele>206.3</ele>
        <time>2019-08-09T16:42:33Z</time>
      </trkpt>
      <trkpt lat="48.05793" lon="7.30605">
        <ele>206.2</ele>
        <time>2019-08-09T16:42:34Z</time>
      </trkpt>
      <trkpt lat="48.05788" lon="7.30605">
        <ele>206.2</ele>
        <time>2019-08-09T16:42:35Z</time>
      </trkpt>
      <trkpt lat="48.05783" lon="7.30605">
        <ele>206.2</ele>
        <time>2019-08-09T16:42:36Z</time>
      </trkpt>
      <trkpt lat="48.05778" lon="7.30605">
        <ele>206.1</ele>
        <time>2019-08-09T16:42:37Z</time>
      </trkpt>
      <trkpt lat="48.05773" lon="7.30606">
        <ele>206.1</ele>
        <time>2019-08-09T16:42:38Z</time>
      </trkpt>
      <trkpt lat="48.05768" lon="7.30607">
        <ele>206.1</ele>
        <time>2019-08-09T16:42:39Z</time>
      </trkpt>
      <trkpt lat="48.05763" lon="7.30607">
        <ele>206.1</ele>
        <time>2019-08-09T16:42:40Z</time>
      </trkpt>
      <trkpt lat="48.05758" lon="7.30607">
        <ele>206.1</ele>
        <time>2019-08-09T16:42:41Z</time>
      </trkpt>
      <trkpt lat="48.05753" lon="7.30605">
        <ele>206.1</ele>
        <time>2019-08-09T16:42:42Z</time>
      </trkpt>
      <trkpt lat="48.05746" lon="7.30604">
        <ele>206.1</ele>
        <time>2019-08-09T16:42:43Z</time>
      </trkpt>
      <trkpt lat="48.0574" lon="7.30604">
        <ele>206.1</ele>
        <time>2019-08-09T16:42:44Z</time>
      </trkpt>
      <trkpt lat="48.05735" lon="7.30604">
        <ele>206.1</ele>
        <time>2019-08-09T16:42:45Z</time>
      </trkpt>
      <trkpt lat="48.05731" lon="7.30603">
        <ele>206.1</ele>
        <time>2019-08-09T16:42:46Z</time>
      </trkpt>
      <trkpt lat="48.05726" lon="7.30601">
        <ele>206.1</ele>
        <time>2019-08-09T16:42:47Z</time>
      </trkpt>
      <trkpt lat="48.05719" lon="7.30601">
        <ele>206</ele>
        <time>2019-08-09T16:42:48Z</time>
      </trkpt>
      <trkpt lat="48.05715" lon="7.30599">
        <ele>205.9</ele>
        <time>2019-08-09T16:42:49Z</time>
      </trkpt>
      <trkpt lat="48.05711" lon="7.30597">
        <ele>205.9</ele>
        <time>2019-08-09T16:42:50Z</time>
      </trkpt>
      <trkpt lat="48.05707" lon="7.30595">
        <ele>205.7</ele>
        <time>2019-08-09T16:42:51Z</time>
      </trkpt>
      <trkpt lat="48.05703" lon="7.30593">
        <ele>205.7</ele>
        <time>2019-08-09T16:42:52Z</time>
      </trkpt>
      <trkpt lat="48.057" lon="7.30593">
        <ele>205.5</ele>
        <time>2019-08-09T16:42:53Z</time>
      </trkpt>
      <trkpt lat="48.05695" lon="7.30592">
        <ele>205.4</ele>
        <time>2019-08-09T16:42:54Z</time>
      </trkpt>
      <trkpt lat="48.05691" lon="7.30592">
        <ele>205.3</ele>
        <time>2019-08-09T16:42:55Z</time>
      </trkpt>
      <trkpt lat="48.05686" lon="7.30592">
        <ele>205.1</ele>
        <time>2019-08-09T16:42:56Z</time>
      </trkpt>
      <trkpt lat="48.05682" lon="7.30591">
        <ele>205</ele>
        <time>2019-08-09T16:42:57Z</time>
      </trkpt>
      <trkpt lat="48.05677" lon="7.30592">
        <ele>205</ele>
        <time>2019-08-09T16:42:58Z</time>
      </trkpt>
      <trkpt lat="48.05673" lon="7.30592">
        <ele>204.9</ele>
        <time>2019-08-09T16:42:59Z</time>
      </trkpt>
      <trkpt lat="48.05668" lon="7.30591">
        <ele>204.9</ele>
        <time>2019-08-09T16:43:00Z</time>
      </trkpt>
      <trkpt lat="48.05665" lon="7.3059">
        <ele>204.8</ele>
        <time>2019-08-09T16:43:01Z</time>
      </trkpt>
      <trkpt lat="48.0566" lon="7.30588">
        <ele>204.8</ele>
        <time>2019-08-09T16:43:02Z</time>
      </trkpt>
      <trkpt lat="48.05655" lon="7.30587">
        <ele>204.7</ele>
        <time>2019-08-09T16:43:03Z</time>
      </trkpt>
      <trkpt lat="48.05649" lon="7.30586">
        <ele>204.7</ele>
        <time>2019-08-09T16:43:04Z</time>
      </trkpt>
      <trkpt lat="48.05645" lon="7.30584">
        <ele>204.6</ele>
        <time>2019-08-09T16:43:05Z</time>
      </trkpt>
      <trkpt lat="48.0564" lon="7.30582">
        <ele>204.6</ele>
        <time>2019-08-09T16:43:06Z</time>
      </trkpt>
      <trkpt lat="48.05635" lon="7.30579">
        <ele>204.4</ele>
        <time>2019-08-09T16:43:07Z</time>
      </trkpt>
      <trkpt lat="48.0563" lon="7.30577">
        <ele>204.3</ele>
        <time>2019-08-09T16:43:08Z</time>
      </trkpt>
      <trkpt lat="48.05624" lon="7.30577">
        <ele>204.1</ele>
        <time>2019-08-09T16:43:09Z</time>
      </trkpt>
      <trkpt lat="48.05619" lon="7.30576">
        <ele>203.9</ele>
        <time>2019-08-09T16:43:10Z</time>
      </trkpt>
      <trkpt lat="48.05614" lon="7.30576">
        <ele>203.7</ele>
        <time>2019-08-09T16:43:11Z</time>
      </trkpt>
      <trkpt lat="48.05609" lon="7.30575">
        <ele>203.4</ele>
        <time>2019-08-09T16:43:12Z</time>
      </trkpt>
      <trkpt lat="48.05604" lon="7.30574">
        <ele>203.2</ele>
        <time>2019-08-09T16:43:13Z</time>
      </trkpt>
      <trkpt lat="48.05599" lon="7.30574">
        <ele>203</ele>
        <time>2019-08-09T16:43:14Z</time>
      </trkpt>
      <trkpt lat="48.05593" lon="7.30573">
        <ele>202.8</ele>
        <time>2019-08-09T16:43:15Z</time>
      </trkpt>
      <trkpt lat="48.05588" lon="7.30572">
        <ele>202.7</ele>
        <time>2019-08-09T16:43:16Z</time>
      </trkpt>
      <trkpt lat="48.05583" lon="7.30571">
        <ele>202.7</ele>
        <time>2019-08-09T16:43:17Z</time>
      </trkpt>
      <trkpt lat="48.05578" lon="7.3057">
        <ele>202.6</ele>
        <time>2019-08-09T16:43:18Z</time>
      </trkpt>
      <trkpt lat="48.05573" lon="7.30569">
        <ele>202.6</ele>
        <time>2019-08-09T16:43:19Z</time>
      </trkpt>
      <trkpt lat="48.05568" lon="7.30568">
        <ele>202.6</ele>
        <time>2019-08-09T16:43:20Z</time>
      </trkpt>
      <trkpt lat="48.05563" lon="7.30567">
        <ele>202.6</ele>
        <time>2019-08-09T16:43:21Z</time>
      </trkpt>
      <trkpt lat="48.05558" lon="7.30566">
        <ele>202.6</ele>
        <time>2019-08-09T16:43:22Z</time>
      </trkpt>
      <trkpt lat="48.05553" lon="7.30566">
        <ele>202.6</ele>
        <time>2019-08-09T16:43:23Z</time>
      </trkpt>
      <trkpt lat="48.05548" lon="7.30566">
        <ele>202.6</ele>
        <time>2019-08-09T16:43:24Z</time>
      </trkpt>
      <trkpt lat="48.05543" lon="7.30565">
        <ele>202.6</ele>
        <time>2019-08-09T16:43:25Z</time>
      </trkpt>
      <trkpt lat="48.05537" lon="7.30565">
        <ele>202.6</ele>
        <time>2019-08-09T16:43:26Z</time>
      </trkpt>
      <trkpt lat="48.05532" lon="7.30566">
        <ele>202.6</ele>
        <time>2019-08-09T16:43:27Z</time>
      </trkpt>
      <trkpt lat="48.05527" lon="7.30566">
        <ele>202.6</ele>
        <time>2019-08-09T16:43:28Z</time>
      </trkpt>
      <trkpt lat="48.05522" lon="7.30566">
        <ele>202.6</ele>
        <time>2019-08-09T16:43:29Z</time>
      </trkpt>
      <trkpt lat="48.05517" lon="7.30566">
        <ele>202.6</ele>
        <time>2019-08-09T16:43:30Z</time>
      </trkpt>
      <trkpt lat="48.05513" lon="7.30567">
        <ele>202.6</ele>
        <time>2019-08-09T16:43:31Z</time>
      </trkpt>
      <trkpt lat="48.05508" lon="7.30568">
        <ele>202.6</ele>
        <time>2019-08-09T16:43:32Z</time>
      </trkpt>
      <trkpt lat="48.05504" lon="7.30568">
        <ele>202.6</ele>
        <time>2019-08-09T16:43:33Z</time>
      </trkpt>
      <trkpt lat="48.05501" lon="7.30568">
        <ele>202.6</ele>
        <time>2019-08-09T16:43:34Z</time>
      </trkpt>
      <trkpt lat="48.05497" lon="7.30568">
        <ele>202.6</ele>
        <time>2019-08-09T16:43:35Z</time>
      </trkpt>
      <trkpt lat="48.05493" lon="7.30569">
        <ele>202.6</ele>
        <time>2019-08-09T16:43:36Z</time>
      </trkpt>
      <trkpt lat="48.0549" lon="7.30569">
        <ele>202.6</ele>
        <time>2019-08-09T16:43:37Z</time>
      </trkpt>
      <trkpt lat="48.05487" lon="7.3057">
        <ele>202.6</ele>
        <time>2019-08-09T16:43:38Z</time>
      </trkpt>
      <trkpt lat="48.05484" lon="7.30565">
        <ele>202.6</ele>
        <time>2019-08-09T16:43:40Z</time>
      </trkpt>
      <trkpt lat="48.05484" lon="7.3056">
        <ele>202.7</ele>
        <time>2019-08-09T16:43:41Z</time>
      </trkpt>
      <trkpt lat="48.05483" lon="7.30553">
        <ele>202.8</ele>
        <time>2019-08-09T16:43:42Z</time>
      </trkpt>
      <trkpt lat="48.05484" lon="7.30546">
        <ele>202.9</ele>
        <time>2019-08-09T16:43:43Z</time>
      </trkpt>
      <trkpt lat="48.05485" lon="7.30541">
        <ele>203</ele>
        <time>2019-08-09T16:43:44Z</time>
      </trkpt>
      <trkpt lat="48.05486" lon="7.30536">
        <ele>203.1</ele>
        <time>2019-08-09T16:43:45Z</time>
      </trkpt>
      <trkpt lat="48.05487" lon="7.30531">
        <ele>203.1</ele>
        <time>2019-08-09T16:43:46Z</time>
      </trkpt>
      <trkpt lat="48.05487" lon="7.30526">
        <ele>203.2</ele>
        <time>2019-08-09T16:43:47Z</time>
      </trkpt>
      <trkpt lat="48.05488" lon="7.3052">
        <ele>203.3</ele>
        <time>2019-08-09T16:43:48Z</time>
      </trkpt>
      <trkpt lat="48.05489" lon="7.30515">
        <ele>203.3</ele>
        <time>2019-08-09T16:43:49Z</time>
      </trkpt>
      <trkpt lat="48.0549" lon="7.3051">
        <ele>203.4</ele>
        <time>2019-08-09T16:43:50Z</time>
      </trkpt>
      <trkpt lat="48.05491" lon="7.30504">
        <ele>203.5</ele>
        <time>2019-08-09T16:43:51Z</time>
      </trkpt>
      <trkpt lat="48.05491" lon="7.30498">
        <ele>203.6</ele>
        <time>2019-08-09T16:43:52Z</time>
      </trkpt>
      <trkpt lat="48.0549" lon="7.30492">
        <ele>203.7</ele>
        <time>2019-08-09T16:43:53Z</time>
      </trkpt>
      <trkpt lat="48.05491" lon="7.30487">
        <ele>203.8</ele>
        <time>2019-08-09T16:43:54Z</time>
      </trkpt>
      <trkpt lat="48.0549" lon="7.30481">
        <ele>203.9</ele>
        <time>2019-08-09T16:43:55Z</time>
      </trkpt>
      <trkpt lat="48.0549" lon="7.30476">
        <ele>204.1</ele>
        <time>2019-08-09T16:43:56Z</time>
      </trkpt>
      <trkpt lat="48.05488" lon="7.30473">
        <ele>204.3</ele>
        <time>2019-08-09T16:43:57Z</time>
      </trkpt>
      <trkpt lat="48.05485" lon="7.30471">
        <ele>204.4</ele>
        <time>2019-08-09T16:43:58Z</time>
      </trkpt>
      <trkpt lat="48.05482" lon="7.30472">
        <ele>204.5</ele>
        <time>2019-08-09T16:43:59Z</time>
      </trkpt>
      <trkpt lat="48.05477" lon="7.30471">
        <ele>204.7</ele>
        <time>2019-08-09T16:44:00Z</time>
      </trkpt>
      <trkpt lat="48.05473" lon="7.3047">
        <ele>204.8</ele>
        <time>2019-08-09T16:44:01Z</time>
      </trkpt>
      <trkpt lat="48.05469" lon="7.30469">
        <ele>205</ele>
        <time>2019-08-09T16:44:02Z</time>
      </trkpt>
      <trkpt lat="48.05466" lon="7.30468">
        <ele>205.1</ele>
        <time>2019-08-09T16:44:03Z</time>
      </trkpt>
      <trkpt lat="48.05462" lon="7.30468">
        <ele>205.2</ele>
        <time>2019-08-09T16:44:04Z</time>
      </trkpt>
      <trkpt lat="48.05456" lon="7.30468">
        <ele>205.2</ele>
        <time>2019-08-09T16:44:05Z</time>
      </trkpt>
      <trkpt lat="48.05452" lon="7.30467">
        <ele>205.3</ele>
        <time>2019-08-09T16:44:06Z</time>
      </trkpt>
      <trkpt lat="48.05447" lon="7.30467">
        <ele>205.3</ele>
        <time>2019-08-09T16:44:07Z</time>
      </trkpt>
      <trkpt lat="48.05442" lon="7.30466">
        <ele>205.4</ele>
        <time>2019-08-09T16:44:08Z</time>
      </trkpt>
      <trkpt lat="48.05438" lon="7.30465">
        <ele>205.4</ele>
        <time>2019-08-09T16:44:09Z</time>
      </trkpt>
      <trkpt lat="48.05434" lon="7.30463">
        <ele>205.4</ele>
        <time>2019-08-09T16:44:10Z</time>
      </trkpt>
      <trkpt lat="48.05429" lon="7.30462">
        <ele>205.5</ele>
        <time>2019-08-09T16:44:11Z</time>
      </trkpt>
      <trkpt lat="48.05425" lon="7.30461">
        <ele>205.5</ele>
        <time>2019-08-09T16:44:12Z</time>
      </trkpt>
      <trkpt lat="48.05421" lon="7.30461">
        <ele>205.6</ele>
        <time>2019-08-09T16:44:13Z</time>
      </trkpt>
      <trkpt lat="48.05417" lon="7.3046">
        <ele>205.6</ele>
        <time>2019-08-09T16:44:14Z</time>
      </trkpt>
      <trkpt lat="48.05413" lon="7.3046">
        <ele>205.6</ele>
        <time>2019-08-09T16:44:15Z</time>
      </trkpt>
      <trkpt lat="48.05409" lon="7.30459">
        <ele>205.5</ele>
        <time>2019-08-09T16:44:16Z</time>
      </trkpt>
      <trkpt lat="48.05405" lon="7.30458">
        <ele>205.5</ele>
        <time>2019-08-09T16:44:17Z</time>
      </trkpt>
      <trkpt lat="48.054" lon="7.30457">
        <ele>205.5</ele>
        <time>2019-08-09T16:44:18Z</time>
      </trkpt>
      <trkpt lat="48.05396" lon="7.30456">
        <ele>205.5</ele>
        <time>2019-08-09T16:44:19Z</time>
      </trkpt>
      <trkpt lat="48.05392" lon="7.30456">
        <ele>205.5</ele>
        <time>2019-08-09T16:44:20Z</time>
      </trkpt>
      <trkpt lat="48.05388" lon="7.30455">
        <ele>205.4</ele>
        <time>2019-08-09T16:44:21Z</time>
      </trkpt>
      <trkpt lat="48.05383" lon="7.30454">
        <ele>205.4</ele>
        <time>2019-08-09T16:44:22Z</time>
      </trkpt>
      <trkpt lat="48.05379" lon="7.30453">
        <ele>205.4</ele>
        <time>2019-08-09T16:44:23Z</time>
      </trkpt>
      <trkpt lat="48.05376" lon="7.30453">
        <ele>205.4</ele>
        <time>2019-08-09T16:44:24Z</time>
      </trkpt>
      <trkpt lat="48.05371" lon="7.30452">
        <ele>205.3</ele>
        <time>2019-08-09T16:44:25Z</time>
      </trkpt>
      <trkpt lat="48.05367" lon="7.30451">
        <ele>205.3</ele>
        <time>2019-08-09T16:44:26Z</time>
      </trkpt>
      <trkpt lat="48.05363" lon="7.30451">
        <ele>205.2</ele>
        <time>2019-08-09T16:44:27Z</time>
      </trkpt>
      <trkpt lat="48.05359" lon="7.30453">
        <ele>205.1</ele>
        <time>2019-08-09T16:44:28Z</time>
      </trkpt>
      <trkpt lat="48.05354" lon="7.30453">
        <ele>205.1</ele>
        <time>2019-08-09T16:44:29Z</time>
      </trkpt>
      <trkpt lat="48.0535" lon="7.30453">
        <ele>205</ele>
        <time>2019-08-09T16:44:30Z</time>
      </trkpt>
      <trkpt lat="48.05346" lon="7.30453">
        <ele>205</ele>
        <time>2019-08-09T16:44:31Z</time>
      </trkpt>
      <trkpt lat="48.05342" lon="7.30452">
        <ele>204.9</ele>
        <time>2019-08-09T16:44:32Z</time>
      </trkpt>
      <trkpt lat="48.05338" lon="7.30451">
        <ele>204.9</ele>
        <time>2019-08-09T16:44:33Z</time>
      </trkpt>
      <trkpt lat="48.05333" lon="7.30451">
        <ele>205</ele>
        <time>2019-08-09T16:44:34Z</time>
      </trkpt>
      <trkpt lat="48.05329" lon="7.30451">
        <ele>205</ele>
        <time>2019-08-09T16:44:35Z</time>
      </trkpt>
      <trkpt lat="48.05325" lon="7.30451">
        <ele>205.1</ele>
        <time>2019-08-09T16:44:36Z</time>
      </trkpt>
      <trkpt lat="48.05321" lon="7.30451">
        <ele>205.2</ele>
        <time>2019-08-09T16:44:37Z</time>
      </trkpt>
      <trkpt lat="48.05319" lon="7.30454">
        <ele>205.2</ele>
        <time>2019-08-09T16:44:38Z</time>
      </trkpt>
      <trkpt lat="48.05316" lon="7.30456">
        <ele>205.2</ele>
        <time>2019-08-09T16:44:39Z</time>
      </trkpt>
      <trkpt lat="48.05313" lon="7.3046">
        <ele>205.3</ele>
        <time>2019-08-09T16:44:40Z</time>
      </trkpt>
      <trkpt lat="48.0531" lon="7.30464">
        <ele>205.3</ele>
        <time>2019-08-09T16:44:41Z</time>
      </trkpt>
      <trkpt lat="48.05308" lon="7.30468">
        <ele>205.3</ele>
        <time>2019-08-09T16:44:42Z</time>
      </trkpt>
      <trkpt lat="48.05305" lon="7.30474">
        <ele>205.3</ele>
        <time>2019-08-09T16:44:43Z</time>
      </trkpt>
      <trkpt lat="48.05302" lon="7.30479">
        <ele>205.4</ele>
        <time>2019-08-09T16:44:44Z</time>
      </trkpt>
      <trkpt lat="48.053" lon="7.30483">
        <ele>205.4</ele>
        <time>2019-08-09T16:44:45Z</time>
      </trkpt>
      <trkpt lat="48.05298" lon="7.30487">
        <ele>205.4</ele>
        <time>2019-08-09T16:44:46Z</time>
      </trkpt>
      <trkpt lat="48.05295" lon="7.30491">
        <ele>205.4</ele>
        <time>2019-08-09T16:44:47Z</time>
      </trkpt>
      <trkpt lat="48.05293" lon="7.30495">
        <ele>205.4</ele>
        <time>2019-08-09T16:44:48Z</time>
      </trkpt>
      <trkpt lat="48.05289" lon="7.305">
        <ele>205.5</ele>
        <time>2019-08-09T16:44:50Z</time>
      </trkpt>
      <trkpt lat="48.05288" lon="7.30504">
        <ele>205.5</ele>
        <time>2019-08-09T16:44:51Z</time>
      </trkpt>
      <trkpt lat="48.05284" lon="7.3051">
        <ele>205.5</ele>
        <time>2019-08-09T16:44:52Z</time>
      </trkpt>
      <trkpt lat="48.05283" lon="7.30513">
        <ele>205.5</ele>
        <time>2019-08-09T16:44:53Z</time>
      </trkpt>
      <trkpt lat="48.0528" lon="7.30517">
        <ele>205.6</ele>
        <time>2019-08-09T16:44:54Z</time>
      </trkpt>
      <trkpt lat="48.05277" lon="7.30523">
        <ele>205.6</ele>
        <time>2019-08-09T16:44:55Z</time>
      </trkpt>
      <trkpt lat="48.05274" lon="7.30528">
        <ele>205.6</ele>
        <time>2019-08-09T16:44:56Z</time>
      </trkpt>
      <trkpt lat="48.05271" lon="7.30533">
        <ele>205.7</ele>
        <time>2019-08-09T16:44:57Z</time>
      </trkpt>
      <trkpt lat="48.05266" lon="7.30538">
        <ele>205.7</ele>
        <time>2019-08-09T16:44:59Z</time>
      </trkpt>
      <trkpt lat="48.05263" lon="7.30541">
        <ele>205.7</ele>
        <time>2019-08-09T16:45:00Z</time>
      </trkpt>
      <trkpt lat="48.05261" lon="7.30544">
        <ele>205.8</ele>
        <time>2019-08-09T16:45:01Z</time>
      </trkpt>
      <trkpt lat="48.05258" lon="7.3055">
        <ele>205.8</ele>
        <time>2019-08-09T16:45:02Z</time>
      </trkpt>
      <trkpt lat="48.05257" lon="7.30555">
        <ele>205.8</ele>
        <time>2019-08-09T16:45:03Z</time>
      </trkpt>
      <trkpt lat="48.05254" lon="7.3056">
        <ele>205.9</ele>
        <time>2019-08-09T16:45:04Z</time>
      </trkpt>
      <trkpt lat="48.05252" lon="7.30565">
        <ele>205.9</ele>
        <time>2019-08-09T16:45:05Z</time>
      </trkpt>
      <trkpt lat="48.0525" lon="7.3057">
        <ele>205.9</ele>
        <time>2019-08-09T16:45:06Z</time>
      </trkpt>
      <trkpt lat="48.05248" lon="7.30576">
        <ele>206</ele>
        <time>2019-08-09T16:45:07Z</time>
      </trkpt>
      <trkpt lat="48.05246" lon="7.3058">
        <ele>206</ele>
        <time>2019-08-09T16:45:08Z</time>
      </trkpt>
      <trkpt lat="48.05244" lon="7.30585">
        <ele>206</ele>
        <time>2019-08-09T16:45:09Z</time>
      </trkpt>
      <trkpt lat="48.05243" lon="7.30589">
        <ele>206.1</ele>
        <time>2019-08-09T16:45:10Z</time>
      </trkpt>
      <trkpt lat="48.0524" lon="7.30596">
        <ele>206.1</ele>
        <time>2019-08-09T16:45:11Z</time>
      </trkpt>
      <trkpt lat="48.05238" lon="7.306">
        <ele>206.2</ele>
        <time>2019-08-09T16:45:12Z</time>
      </trkpt>
      <trkpt lat="48.05236" lon="7.30606">
        <ele>206.2</ele>
        <time>2019-08-09T16:45:13Z</time>
      </trkpt>
      <trkpt lat="48.05233" lon="7.30609">
        <ele>206.3</ele>
        <time>2019-08-09T16:45:14Z</time>
      </trkpt>
      <trkpt lat="48.0523" lon="7.30612">
        <ele>206.3</ele>
        <time>2019-08-09T16:45:15Z</time>
      </trkpt>
      <trkpt lat="48.05228" lon="7.30615">
        <ele>206.3</ele>
        <time>2019-08-09T16:45:16Z</time>
      </trkpt>
      <trkpt lat="48.05225" lon="7.30619">
        <ele>206.4</ele>
        <time>2019-08-09T16:45:17Z</time>
      </trkpt>
      <trkpt lat="48.05223" lon="7.30623">
        <ele>206.5</ele>
        <time>2019-08-09T16:45:18Z</time>
      </trkpt>
      <trkpt lat="48.05219" lon="7.30626">
        <ele>206.6</ele>
        <time>2019-08-09T16:45:19Z</time>
      </trkpt>
      <trkpt lat="48.05216" lon="7.30629">
        <ele>206.7</ele>
        <time>2019-08-09T16:45:20Z</time>
      </trkpt>
      <trkpt lat="48.05212" lon="7.30633">
        <ele>206.8</ele>
        <time>2019-08-09T16:45:21Z</time>
      </trkpt>
      <trkpt lat="48.05209" lon="7.30636">
        <ele>206.9</ele>
        <time>2019-08-09T16:45:22Z</time>
      </trkpt>
      <trkpt lat="48.05205" lon="7.3064">
        <ele>207</ele>
        <time>2019-08-09T16:45:23Z</time>
      </trkpt>
      <trkpt lat="48.05202" lon="7.30643">
        <ele>207.1</ele>
        <time>2019-08-09T16:45:24Z</time>
      </trkpt>
      <trkpt lat="48.05198" lon="7.30646">
        <ele>207.2</ele>
        <time>2019-08-09T16:45:25Z</time>
      </trkpt>
      <trkpt lat="48.05194" lon="7.3065">
        <ele>207.3</ele>
        <time>2019-08-09T16:45:26Z</time>
      </trkpt>
      <trkpt lat="48.05191" lon="7.30653">
        <ele>207.4</ele>
        <time>2019-08-09T16:45:27Z</time>
      </trkpt>
      <trkpt lat="48.05188" lon="7.30655">
        <ele>207.5</ele>
        <time>2019-08-09T16:45:28Z</time>
      </trkpt>
      <trkpt lat="48.05186" lon="7.30658">
        <ele>207.6</ele>
        <time>2019-08-09T16:45:29Z</time>
      </trkpt>
      <trkpt lat="48.05183" lon="7.3066">
        <ele>207.6</ele>
        <time>2019-08-09T16:45:30Z</time>
      </trkpt>
      <trkpt lat="48.0518" lon="7.30662">
        <ele>207.7</ele>
        <time>2019-08-09T16:45:31Z</time>
      </trkpt>
      <trkpt lat="48.05178" lon="7.30664">
        <ele>207.9</ele>
        <time>2019-08-09T16:45:32Z</time>
      </trkpt>
      <trkpt lat="48.05175" lon="7.30666">
        <ele>208</ele>
        <time>2019-08-09T16:45:33Z</time>
      </trkpt>
      <trkpt lat="48.05171" lon="7.30669">
        <ele>208.2</ele>
        <time>2019-08-09T16:45:35Z</time>
      </trkpt>
      <trkpt lat="48.05168" lon="7.30671">
        <ele>208.2</ele>
        <time>2019-08-09T16:45:36Z</time>
      </trkpt>
      <trkpt lat="48.05165" lon="7.30673">
        <ele>208.3</ele>
        <time>2019-08-09T16:45:37Z</time>
      </trkpt>
      <trkpt lat="48.05162" lon="7.30676">
        <ele>208.4</ele>
        <time>2019-08-09T16:45:38Z</time>
      </trkpt>
      <trkpt lat="48.0516" lon="7.30678">
        <ele>208.4</ele>
        <time>2019-08-09T16:45:39Z</time>
      </trkpt>
      <trkpt lat="48.05157" lon="7.30681">
        <ele>208.5</ele>
        <time>2019-08-09T16:45:40Z</time>
      </trkpt>
      <trkpt lat="48.05154" lon="7.30683">
        <ele>208.6</ele>
        <time>2019-08-09T16:45:41Z</time>
      </trkpt>
      <trkpt lat="48.05151" lon="7.30685">
        <ele>208.7</ele>
        <time>2019-08-09T16:45:42Z</time>
      </trkpt>
      <trkpt lat="48.05149" lon="7.30687">
        <ele>208.7</ele>
        <time>2019-08-09T16:45:43Z</time>
      </trkpt>
      <trkpt lat="48.05146" lon="7.30689">
        <ele>208.8</ele>
        <time>2019-08-09T16:45:44Z</time>
      </trkpt>
      <trkpt lat="48.05143" lon="7.30691">
        <ele>208.9</ele>
        <time>2019-08-09T16:45:45Z</time>
      </trkpt>
      <trkpt lat="48.0514" lon="7.30692">
        <ele>208.9</ele>
        <time>2019-08-09T16:45:46Z</time>
      </trkpt>
      <trkpt lat="48.05137" lon="7.30694">
        <ele>208.9</ele>
        <time>2019-08-09T16:45:47Z</time>
      </trkpt>
      <trkpt lat="48.05134" lon="7.30696">
        <ele>208.9</ele>
        <time>2019-08-09T16:45:48Z</time>
      </trkpt>
      <trkpt lat="48.05131" lon="7.30697">
        <ele>208.9</ele>
        <time>2019-08-09T16:45:49Z</time>
      </trkpt>
      <trkpt lat="48.05128" lon="7.30699">
        <ele>208.9</ele>
        <time>2019-08-09T16:45:50Z</time>
      </trkpt>
      <trkpt lat="48.05124" lon="7.30701">
        <ele>208.8</ele>
        <time>2019-08-09T16:45:51Z</time>
      </trkpt>
      <trkpt lat="48.0512" lon="7.30702">
        <ele>208.8</ele>
        <time>2019-08-09T16:45:52Z</time>
      </trkpt>
      <trkpt lat="48.05115" lon="7.30705">
        <ele>208.8</ele>
        <time>2019-08-09T16:45:53Z</time>
      </trkpt>
      <trkpt lat="48.0511" lon="7.30707">
        <ele>208.7</ele>
        <time>2019-08-09T16:45:54Z</time>
      </trkpt>
      <trkpt lat="48.05105" lon="7.30709">
        <ele>208.5</ele>
        <time>2019-08-09T16:45:55Z</time>
      </trkpt>
      <trkpt lat="48.05099" lon="7.3071">
        <ele>208.2</ele>
        <time>2019-08-09T16:45:56Z</time>
      </trkpt>
      <trkpt lat="48.05093" lon="7.30711">
        <ele>207.8</ele>
        <time>2019-08-09T16:45:57Z</time>
      </trkpt>
      <trkpt lat="48.05086" lon="7.30712">
        <ele>207.5</ele>
        <time>2019-08-09T16:45:58Z</time>
      </trkpt>
      <trkpt lat="48.05079" lon="7.30713">
        <ele>207.2</ele>
        <time>2019-08-09T16:45:59Z</time>
      </trkpt>
      <trkpt lat="48.05072" lon="7.30716">
        <ele>206.8</ele>
        <time>2019-08-09T16:46:00Z</time>
      </trkpt>
      <trkpt lat="48.05064" lon="7.30719">
        <ele>206.3</ele>
        <time>2019-08-09T16:46:01Z</time>
      </trkpt>
      <trkpt lat="48.05057" lon="7.3072">
        <ele>205.7</ele>
        <time>2019-08-09T16:46:02Z</time>
      </trkpt>
      <trkpt lat="48.05049" lon="7.30722">
        <ele>205.1</ele>
        <time>2019-08-09T16:46:03Z</time>
      </trkpt>
      <trkpt lat="48.0504" lon="7.30724">
        <ele>204.6</ele>
        <time>2019-08-09T16:46:04Z</time>
      </trkpt>
      <trkpt lat="48.05033" lon="7.30726">
        <ele>204.2</ele>
        <time>2019-08-09T16:46:05Z</time>
      </trkpt>
      <trkpt lat="48.05026" lon="7.30727">
        <ele>203.8</ele>
        <time>2019-08-09T16:46:06Z</time>
      </trkpt>
      <trkpt lat="48.0502" lon="7.30728">
        <ele>203.5</ele>
        <time>2019-08-09T16:46:07Z</time>
      </trkpt>
      <trkpt lat="48.05015" lon="7.30729">
        <ele>203.2</ele>
        <time>2019-08-09T16:46:08Z</time>
      </trkpt>
      <trkpt lat="48.05009" lon="7.3073">
        <ele>202.8</ele>
        <time>2019-08-09T16:46:09Z</time>
      </trkpt>
      <trkpt lat="48.05003" lon="7.30729">
        <ele>202.7</ele>
        <time>2019-08-09T16:46:10Z</time>
      </trkpt>
      <trkpt lat="48.04997" lon="7.30727">
        <ele>202.5</ele>
        <time>2019-08-09T16:46:11Z</time>
      </trkpt>
      <trkpt lat="48.04992" lon="7.30726">
        <ele>202.3</ele>
        <time>2019-08-09T16:46:12Z</time>
      </trkpt>
      <trkpt lat="48.04987" lon="7.30726">
        <ele>202.1</ele>
        <time>2019-08-09T16:46:13Z</time>
      </trkpt>
      <trkpt lat="48.0498" lon="7.30725">
        <ele>201.9</ele>
        <time>2019-08-09T16:46:14Z</time>
      </trkpt>
      <trkpt lat="48.04975" lon="7.30724">
        <ele>201.7</ele>
        <time>2019-08-09T16:46:15Z</time>
      </trkpt>
      <trkpt lat="48.0497" lon="7.30724">
        <ele>201.5</ele>
        <time>2019-08-09T16:46:16Z</time>
      </trkpt>
      <trkpt lat="48.04965" lon="7.30722">
        <ele>201.3</ele>
        <time>2019-08-09T16:46:17Z</time>
      </trkpt>
      <trkpt lat="48.04961" lon="7.3072">
        <ele>201.1</ele>
        <time>2019-08-09T16:46:18Z</time>
      </trkpt>
      <trkpt lat="48.04955" lon="7.30719">
        <ele>200.8</ele>
        <time>2019-08-09T16:46:19Z</time>
      </trkpt>
      <trkpt lat="48.0495" lon="7.30718">
        <ele>200.6</ele>
        <time>2019-08-09T16:46:20Z</time>
      </trkpt>
      <trkpt lat="48.04946" lon="7.30716">
        <ele>200.4</ele>
        <time>2019-08-09T16:46:21Z</time>
      </trkpt>
      <trkpt lat="48.04942" lon="7.30714">
        <ele>200.2</ele>
        <time>2019-08-09T16:46:22Z</time>
      </trkpt>
      <trkpt lat="48.04937" lon="7.30713">
        <ele>199.9</ele>
        <time>2019-08-09T16:46:23Z</time>
      </trkpt>
      <trkpt lat="48.04933" lon="7.30713">
        <ele>199.7</ele>
        <time>2019-08-09T16:46:24Z</time>
      </trkpt>
      <trkpt lat="48.04929" lon="7.30712">
        <ele>199.4</ele>
        <time>2019-08-09T16:46:25Z</time>
      </trkpt>
      <trkpt lat="48.04924" lon="7.30711">
        <ele>199.1</ele>
        <time>2019-08-09T16:46:26Z</time>
      </trkpt>
      <trkpt lat="48.0492" lon="7.30709">
        <ele>198.8</ele>
        <time>2019-08-09T16:46:27Z</time>
      </trkpt>
      <trkpt lat="48.04916" lon="7.30707">
        <ele>198.5</ele>
        <time>2019-08-09T16:46:28Z</time>
      </trkpt>
      <trkpt lat="48.04913" lon="7.30706">
        <ele>198.3</ele>
        <time>2019-08-09T16:46:29Z</time>
      </trkpt>
      <trkpt lat="48.04909" lon="7.30706">
        <ele>198</ele>
        <time>2019-08-09T16:46:30Z</time>
      </trkpt>
      <trkpt lat="48.04906" lon="7.30705">
        <ele>197.8</ele>
        <time>2019-08-09T16:46:31Z</time>
      </trkpt>
      <trkpt lat="48.04903" lon="7.30703">
        <ele>197.6</ele>
        <time>2019-08-09T16:46:32Z</time>
      </trkpt>
      <trkpt lat="48.049" lon="7.30701">
        <ele>197.3</ele>
        <time>2019-08-09T16:46:33Z</time>
      </trkpt>
      <trkpt lat="48.04896" lon="7.30699">
        <ele>197.1</ele>
        <time>2019-08-09T16:46:34Z</time>
      </trkpt>
      <trkpt lat="48.04891" lon="7.30697">
        <ele>197.1</ele>
        <time>2019-08-09T16:46:35Z</time>
      </trkpt>
      <trkpt lat="48.04886" lon="7.30695">
        <ele>197.1</ele>
        <time>2019-08-09T16:46:36Z</time>
      </trkpt>
      <trkpt lat="48.04883" lon="7.30694">
        <ele>197.1</ele>
        <time>2019-08-09T16:46:37Z</time>
      </trkpt>
      <trkpt lat="48.04878" lon="7.30693">
        <ele>197.1</ele>
        <time>2019-08-09T16:46:38Z</time>
      </trkpt>
      <trkpt lat="48.04874" lon="7.30692">
        <ele>197.1</ele>
        <time>2019-08-09T16:46:39Z</time>
      </trkpt>
      <trkpt lat="48.0487" lon="7.30693">
        <ele>197.1</ele>
        <time>2019-08-09T16:46:40Z</time>
      </trkpt>
      <trkpt lat="48.04866" lon="7.30692">
        <ele>197.1</ele>
        <time>2019-08-09T16:46:41Z</time>
      </trkpt>
      <trkpt lat="48.04861" lon="7.30692">
        <ele>197.1</ele>
        <time>2019-08-09T16:46:42Z</time>
      </trkpt>
      <trkpt lat="48.04857" lon="7.3069">
        <ele>197.1</ele>
        <time>2019-08-09T16:46:43Z</time>
      </trkpt>
      <trkpt lat="48.04853" lon="7.30689">
        <ele>197.2</ele>
        <time>2019-08-09T16:46:44Z</time>
      </trkpt>
      <trkpt lat="48.04849" lon="7.30688">
        <ele>197.2</ele>
        <time>2019-08-09T16:46:45Z</time>
      </trkpt>
      <trkpt lat="48.04844" lon="7.30688">
        <ele>197.2</ele>
        <time>2019-08-09T16:46:46Z</time>
      </trkpt>
      <trkpt lat="48.04839" lon="7.30688">
        <ele>197.2</ele>
        <time>2019-08-09T16:46:47Z</time>
      </trkpt>
      <trkpt lat="48.04835" lon="7.30688">
        <ele>197.3</ele>
        <time>2019-08-09T16:46:48Z</time>
      </trkpt>
      <trkpt lat="48.0483" lon="7.30688">
        <ele>197.3</ele>
        <time>2019-08-09T16:46:49Z</time>
      </trkpt>
      <trkpt lat="48.04826" lon="7.30688">
        <ele>197.4</ele>
        <time>2019-08-09T16:46:50Z</time>
      </trkpt>
      <trkpt lat="48.04821" lon="7.30687">
        <ele>197.4</ele>
        <time>2019-08-09T16:46:51Z</time>
      </trkpt>
      <trkpt lat="48.04816" lon="7.30687">
        <ele>197.5</ele>
        <time>2019-08-09T16:46:52Z</time>
      </trkpt>
      <trkpt lat="48.04812" lon="7.30687">
        <ele>197.5</ele>
        <time>2019-08-09T16:46:53Z</time>
      </trkpt>
      <trkpt lat="48.04808" lon="7.30688">
        <ele>197.6</ele>
        <time>2019-08-09T16:46:54Z</time>
      </trkpt>
      <trkpt lat="48.04803" lon="7.30689">
        <ele>197.6</ele>
        <time>2019-08-09T16:46:55Z</time>
      </trkpt>
      <trkpt lat="48.04799" lon="7.30689">
        <ele>197.6</ele>
        <time>2019-08-09T16:46:56Z</time>
      </trkpt>
      <trkpt lat="48.04795" lon="7.3069">
        <ele>197.7</ele>
        <time>2019-08-09T16:46:57Z</time>
      </trkpt>
      <trkpt lat="48.04791" lon="7.3069">
        <ele>197.7</ele>
        <time>2019-08-09T16:46:58Z</time>
      </trkpt>
      <trkpt lat="48.04787" lon="7.30691">
        <ele>197.7</ele>
        <time>2019-08-09T16:46:59Z</time>
      </trkpt>
      <trkpt lat="48.04783" lon="7.30692">
        <ele>198.1</ele>
        <time>2019-08-09T16:47:00Z</time>
      </trkpt>
      <trkpt lat="48.04778" lon="7.30693">
        <ele>198.3</ele>
        <time>2019-08-09T16:47:01Z</time>
      </trkpt>
      <trkpt lat="48.04775" lon="7.30695">
        <ele>198.4</ele>
        <time>2019-08-09T16:47:02Z</time>
      </trkpt>
      <trkpt lat="48.0477" lon="7.30696">
        <ele>198.6</ele>
        <time>2019-08-09T16:47:03Z</time>
      </trkpt>
      <trkpt lat="48.04767" lon="7.30697">
        <ele>198.7</ele>
        <time>2019-08-09T16:47:04Z</time>
      </trkpt>
      <trkpt lat="48.04764" lon="7.30698">
        <ele>198.8</ele>
        <time>2019-08-09T16:47:05Z</time>
      </trkpt>
      <trkpt lat="48.04761" lon="7.30699">
        <ele>199</ele>
        <time>2019-08-09T16:47:06Z</time>
      </trkpt>
      <trkpt lat="48.04756" lon="7.307">
        <ele>199.1</ele>
        <time>2019-08-09T16:47:07Z</time>
      </trkpt>
      <trkpt lat="48.04752" lon="7.30702">
        <ele>199.2</ele>
        <time>2019-08-09T16:47:08Z</time>
      </trkpt>
      <trkpt lat="48.04748" lon="7.30703">
        <ele>199.4</ele>
        <time>2019-08-09T16:47:09Z</time>
      </trkpt>
      <trkpt lat="48.04744" lon="7.30704">
        <ele>199.5</ele>
        <time>2019-08-09T16:47:10Z</time>
      </trkpt>
      <trkpt lat="48.0474" lon="7.30705">
        <ele>199.6</ele>
        <time>2019-08-09T16:47:11Z</time>
      </trkpt>
      <trkpt lat="48.04737" lon="7.30706">
        <ele>199.6</ele>
        <time>2019-08-09T16:47:12Z</time>
      </trkpt>
      <trkpt lat="48.04733" lon="7.30707">
        <ele>199.7</ele>
        <time>2019-08-09T16:47:13Z</time>
      </trkpt>
      <trkpt lat="48.04729" lon="7.30708">
        <ele>199.8</ele>
        <time>2019-08-09T16:47:14Z</time>
      </trkpt>
      <trkpt lat="48.04724" lon="7.30707">
        <ele>199.9</ele>
        <time>2019-08-09T16:47:15Z</time>
      </trkpt>
      <trkpt lat="48.0472" lon="7.30708">
        <ele>200</ele>
        <time>2019-08-09T16:47:16Z</time>
      </trkpt>
      <trkpt lat="48.04716" lon="7.30709">
        <ele>200.1</ele>
        <time>2019-08-09T16:47:17Z</time>
      </trkpt>
      <trkpt lat="48.04712" lon="7.30711">
        <ele>200.2</ele>
        <time>2019-08-09T16:47:18Z</time>
      </trkpt>
      <trkpt lat="48.04708" lon="7.30712">
        <ele>200.2</ele>
        <time>2019-08-09T16:47:19Z</time>
      </trkpt>
      <trkpt lat="48.04704" lon="7.30713">
        <ele>200.3</ele>
        <time>2019-08-09T16:47:20Z</time>
      </trkpt>
      <trkpt lat="48.04701" lon="7.30715">
        <ele>200.4</ele>
        <time>2019-08-09T16:47:21Z</time>
      </trkpt>
      <trkpt lat="48.04698" lon="7.30715">
        <ele>200.4</ele>
        <time>2019-08-09T16:47:22Z</time>
      </trkpt>
      <trkpt lat="48.04694" lon="7.30715">
        <ele>200.5</ele>
        <time>2019-08-09T16:47:23Z</time>
      </trkpt>
      <trkpt lat="48.0469" lon="7.30714">
        <ele>200.6</ele>
        <time>2019-08-09T16:47:24Z</time>
      </trkpt>
      <trkpt lat="48.04686" lon="7.30713">
        <ele>200.7</ele>
        <time>2019-08-09T16:47:25Z</time>
      </trkpt>
      <trkpt lat="48.04683" lon="7.30713">
        <ele>200.7</ele>
        <time>2019-08-09T16:47:26Z</time>
      </trkpt>
      <trkpt lat="48.0468" lon="7.30713">
        <ele>200.8</ele>
        <time>2019-08-09T16:47:27Z</time>
      </trkpt>
      <trkpt lat="48.04676" lon="7.30713">
        <ele>200.8</ele>
        <time>2019-08-09T16:47:28Z</time>
      </trkpt>
      <trkpt lat="48.04672" lon="7.30714">
        <ele>200.9</ele>
        <time>2019-08-09T16:47:29Z</time>
      </trkpt>
      <trkpt lat="48.04669" lon="7.30715">
        <ele>200.9</ele>
        <time>2019-08-09T16:47:30Z</time>
      </trkpt>
      <trkpt lat="48.04664" lon="7.30716">
        <ele>201</ele>
        <time>2019-08-09T16:47:31Z</time>
      </trkpt>
      <trkpt lat="48.04661" lon="7.30715">
        <ele>201.1</ele>
        <time>2019-08-09T16:47:32Z</time>
      </trkpt>
      <trkpt lat="48.04658" lon="7.30715">
        <ele>201.1</ele>
        <time>2019-08-09T16:47:33Z</time>
      </trkpt>
      <trkpt lat="48.04654" lon="7.30715">
        <ele>201.2</ele>
        <time>2019-08-09T16:47:34Z</time>
      </trkpt>
      <trkpt lat="48.0465" lon="7.30716">
        <ele>201.3</ele>
        <time>2019-08-09T16:47:35Z</time>
      </trkpt>
      <trkpt lat="48.04647" lon="7.30717">
        <ele>201.3</ele>
        <time>2019-08-09T16:47:36Z</time>
      </trkpt>
      <trkpt lat="48.04642" lon="7.30717">
        <ele>201.4</ele>
        <time>2019-08-09T16:47:37Z</time>
      </trkpt>
      <trkpt lat="48.04639" lon="7.30717">
        <ele>201.5</ele>
        <time>2019-08-09T16:47:38Z</time>
      </trkpt>
      <trkpt lat="48.04635" lon="7.30718">
        <ele>201.6</ele>
        <time>2019-08-09T16:47:39Z</time>
      </trkpt>
      <trkpt lat="48.04631" lon="7.30719">
        <ele>201.6</ele>
        <time>2019-08-09T16:47:40Z</time>
      </trkpt>
      <trkpt lat="48.04628" lon="7.30719">
        <ele>201.7</ele>
        <time>2019-08-09T16:47:41Z</time>
      </trkpt>
      <trkpt lat="48.04625" lon="7.30721">
        <ele>201.6</ele>
        <time>2019-08-09T16:47:43Z</time>
      </trkpt>
      <trkpt lat="48.04622" lon="7.30727">
        <ele>201.5</ele>
        <time>2019-08-09T16:47:45Z</time>
      </trkpt>
      <trkpt lat="48.04622" lon="7.30731">
        <ele>201.5</ele>
        <time>2019-08-09T16:47:46Z</time>
      </trkpt>
      <trkpt lat="48.04622" lon="7.30736">
        <ele>201.4</ele>
        <time>2019-08-09T16:47:47Z</time>
      </trkpt>
      <trkpt lat="48.04623" lon="7.30741">
        <ele>201.4</ele>
        <time>2019-08-09T16:47:48Z</time>
      </trkpt>
      <trkpt lat="48.04624" lon="7.30745">
        <ele>201.3</ele>
        <time>2019-08-09T16:47:49Z</time>
      </trkpt>
      <trkpt lat="48.04624" lon="7.30749">
        <ele>201.3</ele>
        <time>2019-08-09T16:47:50Z</time>
      </trkpt>
      <trkpt lat="48.04625" lon="7.30754">
        <ele>201.2</ele>
        <time>2019-08-09T16:47:51Z</time>
      </trkpt>
      <trkpt lat="48.04624" lon="7.3076">
        <ele>201.1</ele>
        <time>2019-08-09T16:47:52Z</time>
      </trkpt>
      <trkpt lat="48.04623" lon="7.30765">
        <ele>201.1</ele>
        <time>2019-08-09T16:47:53Z</time>
      </trkpt>
      <trkpt lat="48.04622" lon="7.30771">
        <ele>201</ele>
        <time>2019-08-09T16:47:54Z</time>
      </trkpt>
      <trkpt lat="48.04621" lon="7.30777">
        <ele>200.9</ele>
        <time>2019-08-09T16:47:55Z</time>
      </trkpt>
      <trkpt lat="48.0462" lon="7.30782">
        <ele>200.8</ele>
        <time>2019-08-09T16:47:56Z</time>
      </trkpt>
      <trkpt lat="48.04619" lon="7.30789">
        <ele>200.8</ele>
        <time>2019-08-09T16:47:57Z</time>
      </trkpt>
      <trkpt lat="48.04618" lon="7.30795">
        <ele>200.7</ele>
        <time>2019-08-09T16:47:58Z</time>
      </trkpt>
      <trkpt lat="48.04617" lon="7.30801">
        <ele>200.6</ele>
        <time>2019-08-09T16:47:59Z</time>
      </trkpt>
      <trkpt lat="48.04617" lon="7.30809">
        <ele>200.5</ele>
        <time>2019-08-09T16:48:00Z</time>
      </trkpt>
      <trkpt lat="48.04616" lon="7.30817">
        <ele>200.4</ele>
        <time>2019-08-09T16:48:01Z</time>
      </trkpt>
      <trkpt lat="48.04615" lon="7.30823">
        <ele>200.3</ele>
        <time>2019-08-09T16:48:02Z</time>
      </trkpt>
      <trkpt lat="48.04614" lon="7.30829">
        <ele>200.2</ele>
        <time>2019-08-09T16:48:03Z</time>
      </trkpt>
      <trkpt lat="48.04613" lon="7.30835">
        <ele>200.1</ele>
        <time>2019-08-09T16:48:04Z</time>
      </trkpt>
      <trkpt lat="48.04611" lon="7.30842">
        <ele>200</ele>
        <time>2019-08-09T16:48:05Z</time>
      </trkpt>
      <trkpt lat="48.0461" lon="7.30848">
        <ele>199.9</ele>
        <time>2019-08-09T16:48:06Z</time>
      </trkpt>
      <trkpt lat="48.04609" lon="7.30855">
        <ele>199.8</ele>
        <time>2019-08-09T16:48:07Z</time>
      </trkpt>
      <trkpt lat="48.04609" lon="7.30862">
        <ele>199.8</ele>
        <time>2019-08-09T16:48:08Z</time>
      </trkpt>
      <trkpt lat="48.04608" lon="7.30869">
        <ele>199.7</ele>
        <time>2019-08-09T16:48:09Z</time>
      </trkpt>
      <trkpt lat="48.04607" lon="7.30874">
        <ele>199.6</ele>
        <time>2019-08-09T16:48:10Z</time>
      </trkpt>
      <trkpt lat="48.04606" lon="7.30881">
        <ele>199.5</ele>
        <time>2019-08-09T16:48:11Z</time>
      </trkpt>
      <trkpt lat="48.04606" lon="7.30886">
        <ele>199.4</ele>
        <time>2019-08-09T16:48:12Z</time>
      </trkpt>
      <trkpt lat="48.04603" lon="7.30893">
        <ele>199.2</ele>
        <time>2019-08-09T16:48:13Z</time>
      </trkpt>
      <trkpt lat="48.04602" lon="7.30901">
        <ele>199.1</ele>
        <time>2019-08-09T16:48:14Z</time>
      </trkpt>
      <trkpt lat="48.04602" lon="7.30907">
        <ele>199</ele>
        <time>2019-08-09T16:48:15Z</time>
      </trkpt>
      <trkpt lat="48.046" lon="7.30915">
        <ele>198.8</ele>
        <time>2019-08-09T16:48:16Z</time>
      </trkpt>
      <trkpt lat="48.04598" lon="7.30921">
        <ele>198.7</ele>
        <time>2019-08-09T16:48:17Z</time>
      </trkpt>
      <trkpt lat="48.04599" lon="7.30928">
        <ele>198.6</ele>
        <time>2019-08-09T16:48:18Z</time>
      </trkpt>
      <trkpt lat="48.04598" lon="7.30934">
        <ele>198.5</ele>
        <time>2019-08-09T16:48:19Z</time>
      </trkpt>
      <trkpt lat="48.04597" lon="7.30939">
        <ele>198.4</ele>
        <time>2019-08-09T16:48:20Z</time>
      </trkpt>
      <trkpt lat="48.04596" lon="7.30945">
        <ele>198.2</ele>
        <time>2019-08-09T16:48:21Z</time>
      </trkpt>
      <trkpt lat="48.04595" lon="7.3095">
        <ele>198.1</ele>
        <time>2019-08-09T16:48:22Z</time>
      </trkpt>
      <trkpt lat="48.04593" lon="7.30956">
        <ele>198</ele>
        <time>2019-08-09T16:48:23Z</time>
      </trkpt>
      <trkpt lat="48.04592" lon="7.30961">
        <ele>197.9</ele>
        <time>2019-08-09T16:48:24Z</time>
      </trkpt>
      <trkpt lat="48.04591" lon="7.30967">
        <ele>197.8</ele>
        <time>2019-08-09T16:48:25Z</time>
      </trkpt>
      <trkpt lat="48.0459" lon="7.30971">
        <ele>197.8</ele>
        <time>2019-08-09T16:48:26Z</time>
      </trkpt>
      <trkpt lat="48.0459" lon="7.30977">
        <ele>197.7</ele>
        <time>2019-08-09T16:48:27Z</time>
      </trkpt>
      <trkpt lat="48.04589" lon="7.30986">
        <ele>197.6</ele>
        <time>2019-08-09T16:48:28Z</time>
      </trkpt>
      <trkpt lat="48.04588" lon="7.30992">
        <ele>197.5</ele>
        <time>2019-08-09T16:48:29Z</time>
      </trkpt>
      <trkpt lat="48.04589" lon="7.30998">
        <ele>197.5</ele>
        <time>2019-08-09T16:48:30Z</time>
      </trkpt>
      <trkpt lat="48.04588" lon="7.31003">
        <ele>197.5</ele>
        <time>2019-08-09T16:48:31Z</time>
      </trkpt>
      <trkpt lat="48.04588" lon="7.31009">
        <ele>197.4</ele>
        <time>2019-08-09T16:48:32Z</time>
      </trkpt>
      <trkpt lat="48.04587" lon="7.31013">
        <ele>197.4</ele>
        <time>2019-08-09T16:48:33Z</time>
      </trkpt>
      <trkpt lat="48.04585" lon="7.31016">
        <ele>197.3</ele>
        <time>2019-08-09T16:48:36Z</time>
      </trkpt>
      <trkpt lat="48.04586" lon="7.31022">
        <ele>197.3</ele>
        <time>2019-08-09T16:48:41Z</time>
      </trkpt>
      <trkpt lat="48.04581" lon="7.31029">
        <ele>197.2</ele>
        <time>2019-08-09T16:48:43Z</time>
      </trkpt>
      <trkpt lat="48.04579" lon="7.31031">
        <ele>197.2</ele>
        <time>2019-08-09T16:48:44Z</time>
      </trkpt>
      <trkpt lat="48.04577" lon="7.31034">
        <ele>197.2</ele>
        <time>2019-08-09T16:48:45Z</time>
      </trkpt>
      <trkpt lat="48.04574" lon="7.31036">
        <ele>197.2</ele>
        <time>2019-08-09T16:48:46Z</time>
      </trkpt>
      <trkpt lat="48.04569" lon="7.31039">
        <ele>197.2</ele>
        <time>2019-08-09T16:48:48Z</time>
      </trkpt>
      <trkpt lat="48.04566" lon="7.3104">
        <ele>197.2</ele>
        <time>2019-08-09T16:48:49Z</time>
      </trkpt>
      <trkpt lat="48.04562" lon="7.3104">
        <ele>197.2</ele>
        <time>2019-08-09T16:48:50Z</time>
      </trkpt>
      <trkpt lat="48.04559" lon="7.31041">
        <ele>197.3</ele>
        <time>2019-08-09T16:48:51Z</time>
      </trkpt>
      <trkpt lat="48.04556" lon="7.31042">
        <ele>197.3</ele>
        <time>2019-08-09T16:48:52Z</time>
      </trkpt>
      <trkpt lat="48.04553" lon="7.31044">
        <ele>197.3</ele>
        <time>2019-08-09T16:48:53Z</time>
      </trkpt>
      <trkpt lat="48.0455" lon="7.31046">
        <ele>197.3</ele>
        <time>2019-08-09T16:48:54Z</time>
      </trkpt>
      <trkpt lat="48.04546" lon="7.31047">
        <ele>197.3</ele>
        <time>2019-08-09T16:48:55Z</time>
      </trkpt>
      <trkpt lat="48.04542" lon="7.31048">
        <ele>197.4</ele>
        <time>2019-08-09T16:48:56Z</time>
      </trkpt>
      <trkpt lat="48.04538" lon="7.31051">
        <ele>197.4</ele>
        <time>2019-08-09T16:48:57Z</time>
      </trkpt>
      <trkpt lat="48.04534" lon="7.31053">
        <ele>197.4</ele>
        <time>2019-08-09T16:48:58Z</time>
      </trkpt>
      <trkpt lat="48.0453" lon="7.31054">
        <ele>197.4</ele>
        <time>2019-08-09T16:48:59Z</time>
      </trkpt>
      <trkpt lat="48.04526" lon="7.31054">
        <ele>197.5</ele>
        <time>2019-08-09T16:49:00Z</time>
      </trkpt>
      <trkpt lat="48.04521" lon="7.31056">
        <ele>197.5</ele>
        <time>2019-08-09T16:49:01Z</time>
      </trkpt>
      <trkpt lat="48.04518" lon="7.31056">
        <ele>197.5</ele>
        <time>2019-08-09T16:49:02Z</time>
      </trkpt>
      <trkpt lat="48.04514" lon="7.31057">
        <ele>197.5</ele>
        <time>2019-08-09T16:49:03Z</time>
      </trkpt>
      <trkpt lat="48.0451" lon="7.31058">
        <ele>197.6</ele>
        <time>2019-08-09T16:49:04Z</time>
      </trkpt>
      <trkpt lat="48.04506" lon="7.3106">
        <ele>197.6</ele>
        <time>2019-08-09T16:49:05Z</time>
      </trkpt>
      <trkpt lat="48.04501" lon="7.31062">
        <ele>197.6</ele>
        <time>2019-08-09T16:49:06Z</time>
      </trkpt>
      <trkpt lat="48.04498" lon="7.31065">
        <ele>197.6</ele>
        <time>2019-08-09T16:49:07Z</time>
      </trkpt>
      <trkpt lat="48.04494" lon="7.31068">
        <ele>197.7</ele>
        <time>2019-08-09T16:49:08Z</time>
      </trkpt>
      <trkpt lat="48.0449" lon="7.3107">
        <ele>197.7</ele>
        <time>2019-08-09T16:49:09Z</time>
      </trkpt>
      <trkpt lat="48.04486" lon="7.31072">
        <ele>197.7</ele>
        <time>2019-08-09T16:49:10Z</time>
      </trkpt>
      <trkpt lat="48.04482" lon="7.31074">
        <ele>197.7</ele>
        <time>2019-08-09T16:49:11Z</time>
      </trkpt>
      <trkpt lat="48.04478" lon="7.31076">
        <ele>197.8</ele>
        <time>2019-08-09T16:49:12Z</time>
      </trkpt>
      <trkpt lat="48.04475" lon="7.31078">
        <ele>197.8</ele>
        <time>2019-08-09T16:49:13Z</time>
      </trkpt>
      <trkpt lat="48.0447" lon="7.31081">
        <ele>197.8</ele>
        <time>2019-08-09T16:49:14Z</time>
      </trkpt>
      <trkpt lat="48.04466" lon="7.31084">
        <ele>197.8</ele>
        <time>2019-08-09T16:49:15Z</time>
      </trkpt>
      <trkpt lat="48.04462" lon="7.31089">
        <ele>197.8</ele>
        <time>2019-08-09T16:49:16Z</time>
      </trkpt>
      <trkpt lat="48.04457" lon="7.31093">
        <ele>197.9</ele>
        <time>2019-08-09T16:49:17Z</time>
      </trkpt>
      <trkpt lat="48.04453" lon="7.31096">
        <ele>197.7</ele>
        <time>2019-08-09T16:49:18Z</time>
      </trkpt>
      <trkpt lat="48.04449" lon="7.31099">
        <ele>197.6</ele>
        <time>2019-08-09T16:49:19Z</time>
      </trkpt>
      <trkpt lat="48.04444" lon="7.31102">
        <ele>197.5</ele>
        <time>2019-08-09T16:49:20Z</time>
      </trkpt>
      <trkpt lat="48.04441" lon="7.31104">
        <ele>197.4</ele>
        <time>2019-08-09T16:49:21Z</time>
      </trkpt>
      <trkpt lat="48.04438" lon="7.31109">
        <ele>197.3</ele>
        <time>2019-08-09T16:49:22Z</time>
      </trkpt>
      <trkpt lat="48.04435" lon="7.31113">
        <ele>197.2</ele>
        <time>2019-08-09T16:49:23Z</time>
      </trkpt>
      <trkpt lat="48.04432" lon="7.31117">
        <ele>197.1</ele>
        <time>2019-08-09T16:49:24Z</time>
      </trkpt>
      <trkpt lat="48.04428" lon="7.3112">
        <ele>197.1</ele>
        <time>2019-08-09T16:49:25Z</time>
      </trkpt>
      <trkpt lat="48.04425" lon="7.31121">
        <ele>197</ele>
        <time>2019-08-09T16:49:26Z</time>
      </trkpt>
      <trkpt lat="48.04421" lon="7.31124">
        <ele>197</ele>
        <time>2019-08-09T16:49:27Z</time>
      </trkpt>
      <trkpt lat="48.04418" lon="7.31127">
        <ele>197</ele>
        <time>2019-08-09T16:49:28Z</time>
      </trkpt>
      <trkpt lat="48.04415" lon="7.3113">
        <ele>196.9</ele>
        <time>2019-08-09T16:49:29Z</time>
      </trkpt>
      <trkpt lat="48.04411" lon="7.31134">
        <ele>196.9</ele>
        <time>2019-08-09T16:49:30Z</time>
      </trkpt>
      <trkpt lat="48.04407" lon="7.31138">
        <ele>196.9</ele>
        <time>2019-08-09T16:49:31Z</time>
      </trkpt>
      <trkpt lat="48.04404" lon="7.31142">
        <ele>196.8</ele>
        <time>2019-08-09T16:49:32Z</time>
      </trkpt>
      <trkpt lat="48.04399" lon="7.31144">
        <ele>196.8</ele>
        <time>2019-08-09T16:49:33Z</time>
      </trkpt>
      <trkpt lat="48.04395" lon="7.31148">
        <ele>196.7</ele>
        <time>2019-08-09T16:49:34Z</time>
      </trkpt>
      <trkpt lat="48.04391" lon="7.3115">
        <ele>196.7</ele>
        <time>2019-08-09T16:49:35Z</time>
      </trkpt>
      <trkpt lat="48.04388" lon="7.31152">
        <ele>196.7</ele>
        <time>2019-08-09T16:49:36Z</time>
      </trkpt>
      <trkpt lat="48.04385" lon="7.31156">
        <ele>196.7</ele>
        <time>2019-08-09T16:49:37Z</time>
      </trkpt>
      <trkpt lat="48.04382" lon="7.31159">
        <ele>196.7</ele>
        <time>2019-08-09T16:49:38Z</time>
      </trkpt>
      <trkpt lat="48.04378" lon="7.31162">
        <ele>196.8</ele>
        <time>2019-08-09T16:49:40Z</time>
      </trkpt>
      <trkpt lat="48.04374" lon="7.31169">
        <ele>197.1</ele>
        <time>2019-08-09T16:49:42Z</time>
      </trkpt>
      <trkpt lat="48.04373" lon="7.31173">
        <ele>197.1</ele>
        <time>2019-08-09T16:49:43Z</time>
      </trkpt>
      <trkpt lat="48.04369" lon="7.31176">
        <ele>197.1</ele>
        <time>2019-08-09T16:49:44Z</time>
      </trkpt>
      <trkpt lat="48.04366" lon="7.3118">
        <ele>197</ele>
        <time>2019-08-09T16:49:45Z</time>
      </trkpt>
      <trkpt lat="48.04363" lon="7.31183">
        <ele>197</ele>
        <time>2019-08-09T16:49:46Z</time>
      </trkpt>
      <trkpt lat="48.04359" lon="7.31187">
        <ele>197</ele>
        <time>2019-08-09T16:49:47Z</time>
      </trkpt>
      <trkpt lat="48.04356" lon="7.31188">
        <ele>197.2</ele>
        <time>2019-08-09T16:49:48Z</time>
      </trkpt>
      <trkpt lat="48.04352" lon="7.31189">
        <ele>197.2</ele>
        <time>2019-08-09T16:49:49Z</time>
      </trkpt>
      <trkpt lat="48.04348" lon="7.31187">
        <ele>197.3</ele>
        <time>2019-08-09T16:49:50Z</time>
      </trkpt>
      <trkpt lat="48.04344" lon="7.31187">
        <ele>197.4</ele>
        <time>2019-08-09T16:49:51Z</time>
      </trkpt>
      <trkpt lat="48.0434" lon="7.31187">
        <ele>197.5</ele>
        <time>2019-08-09T16:49:52Z</time>
      </trkpt>
      <trkpt lat="48.04335" lon="7.31186">
        <ele>197.6</ele>
        <time>2019-08-09T16:49:53Z</time>
      </trkpt>
      <trkpt lat="48.04331" lon="7.31186">
        <ele>197.6</ele>
        <time>2019-08-09T16:49:54Z</time>
      </trkpt>
      <trkpt lat="48.04327" lon="7.31186">
        <ele>197.7</ele>
        <time>2019-08-09T16:49:55Z</time>
      </trkpt>
      <trkpt lat="48.04323" lon="7.31185">
        <ele>197.8</ele>
        <time>2019-08-09T16:49:56Z</time>
      </trkpt>
      <trkpt lat="48.04319" lon="7.31184">
        <ele>197.8</ele>
        <time>2019-08-09T16:49:57Z</time>
      </trkpt>
      <trkpt lat="48.04314" lon="7.31183">
        <ele>197.9</ele>
        <time>2019-08-09T16:49:58Z</time>
      </trkpt>
      <trkpt lat="48.0431" lon="7.31182">
        <ele>197.9</ele>
        <time>2019-08-09T16:49:59Z</time>
      </trkpt>
      <trkpt lat="48.04307" lon="7.31179">
        <ele>198</ele>
        <time>2019-08-09T16:50:00Z</time>
      </trkpt>
      <trkpt lat="48.04303" lon="7.31178">
        <ele>198</ele>
        <time>2019-08-09T16:50:01Z</time>
      </trkpt>
      <trkpt lat="48.043" lon="7.31177">
        <ele>198</ele>
        <time>2019-08-09T16:50:02Z</time>
      </trkpt>
      <trkpt lat="48.04296" lon="7.31176">
        <ele>198.1</ele>
        <time>2019-08-09T16:50:03Z</time>
      </trkpt>
      <trkpt lat="48.04292" lon="7.31175">
        <ele>198.1</ele>
        <time>2019-08-09T16:50:04Z</time>
      </trkpt>
      <trkpt lat="48.04288" lon="7.31175">
        <ele>198.1</ele>
        <time>2019-08-09T16:50:05Z</time>
      </trkpt>
      <trkpt lat="48.04284" lon="7.31173">
        <ele>198.1</ele>
        <time>2019-08-09T16:50:06Z</time>
      </trkpt>
      <trkpt lat="48.04281" lon="7.31173">
        <ele>198.2</ele>
        <time>2019-08-09T16:50:07Z</time>
      </trkpt>
      <trkpt lat="48.04277" lon="7.31172">
        <ele>198.2</ele>
        <time>2019-08-09T16:50:08Z</time>
      </trkpt>
      <trkpt lat="48.04274" lon="7.3117">
        <ele>198.2</ele>
        <time>2019-08-09T16:50:09Z</time>
      </trkpt>
      <trkpt lat="48.0427" lon="7.31167">
        <ele>198.3</ele>
        <time>2019-08-09T16:50:10Z</time>
      </trkpt>
      <trkpt lat="48.04267" lon="7.31165">
        <ele>198.3</ele>
        <time>2019-08-09T16:50:11Z</time>
      </trkpt>
      <trkpt lat="48.04262" lon="7.31166">
        <ele>198.4</ele>
        <time>2019-08-09T16:50:12Z</time>
      </trkpt>
      <trkpt lat="48.04258" lon="7.31166">
        <ele>198.5</ele>
        <time>2019-08-09T16:50:13Z</time>
      </trkpt>
      <trkpt lat="48.04254" lon="7.31166">
        <ele>198.6</ele>
        <time>2019-08-09T16:50:14Z</time>
      </trkpt>
      <trkpt lat="48.04249" lon="7.31164">
        <ele>198.7</ele>
        <time>2019-08-09T16:50:15Z</time>
      </trkpt>
      <trkpt lat="48.04245" lon="7.31162">
        <ele>198.8</ele>
        <time>2019-08-09T16:50:16Z</time>
      </trkpt>
      <trkpt lat="48.04241" lon="7.31161">
        <ele>199</ele>
        <time>2019-08-09T16:50:17Z</time>
      </trkpt>
      <trkpt lat="48.04237" lon="7.31159">
        <ele>199.1</ele>
        <time>2019-08-09T16:50:18Z</time>
      </trkpt>
      <trkpt lat="48.04233" lon="7.31158">
        <ele>199.2</ele>
        <time>2019-08-09T16:50:19Z</time>
      </trkpt>
      <trkpt lat="48.04229" lon="7.31157">
        <ele>199.4</ele>
        <time>2019-08-09T16:50:20Z</time>
      </trkpt>
      <trkpt lat="48.04225" lon="7.31156">
        <ele>199.5</ele>
        <time>2019-08-09T16:50:21Z</time>
      </trkpt>
      <trkpt lat="48.04221" lon="7.31156">
        <ele>199.6</ele>
        <time>2019-08-09T16:50:22Z</time>
      </trkpt>
      <trkpt lat="48.04217" lon="7.31156">
        <ele>199.8</ele>
        <time>2019-08-09T16:50:23Z</time>
      </trkpt>
      <trkpt lat="48.04212" lon="7.31155">
        <ele>199.9</ele>
        <time>2019-08-09T16:50:24Z</time>
      </trkpt>
      <trkpt lat="48.04209" lon="7.31154">
        <ele>200</ele>
        <time>2019-08-09T16:50:25Z</time>
      </trkpt>
      <trkpt lat="48.04206" lon="7.31153">
        <ele>200.1</ele>
        <time>2019-08-09T16:50:26Z</time>
      </trkpt>
      <trkpt lat="48.04201" lon="7.31153">
        <ele>200.3</ele>
        <time>2019-08-09T16:50:27Z</time>
      </trkpt>
      <trkpt lat="48.04197" lon="7.31152">
        <ele>200.4</ele>
        <time>2019-08-09T16:50:28Z</time>
      </trkpt>
      <trkpt lat="48.04194" lon="7.31151">
        <ele>200.5</ele>
        <time>2019-08-09T16:50:29Z</time>
      </trkpt>
      <trkpt lat="48.0419" lon="7.31149">
        <ele>200.6</ele>
        <time>2019-08-09T16:50:30Z</time>
      </trkpt>
      <trkpt lat="48.04186" lon="7.31149">
        <ele>200.7</ele>
        <time>2019-08-09T16:50:31Z</time>
      </trkpt>
      <trkpt lat="48.04183" lon="7.31148">
        <ele>200.8</ele>
        <time>2019-08-09T16:50:32Z</time>
      </trkpt>
      <trkpt lat="48.0418" lon="7.31147">
        <ele>200.9</ele>
        <time>2019-08-09T16:50:33Z</time>
      </trkpt>
      <trkpt lat="48.04177" lon="7.31146">
        <ele>201</ele>
        <time>2019-08-09T16:50:34Z</time>
      </trkpt>
      <trkpt lat="48.04174" lon="7.31146">
        <ele>201.2</ele>
        <time>2019-08-09T16:50:35Z</time>
      </trkpt>
      <trkpt lat="48.04169" lon="7.31142">
        <ele>201.4</ele>
        <time>2019-08-09T16:50:37Z</time>
      </trkpt>
      <trkpt lat="48.04165" lon="7.3114">
        <ele>201.5</ele>
        <time>2019-08-09T16:50:39Z</time>
      </trkpt>
      <trkpt lat="48.04161" lon="7.31137">
        <ele>201.8</ele>
        <time>2019-08-09T16:50:41Z</time>
      </trkpt>
      <trkpt lat="48.04159" lon="7.31134">
        <ele>201.8</ele>
        <time>2019-08-09T16:50:42Z</time>
      </trkpt>
      <trkpt lat="48.04153" lon="7.31133">
        <ele>201.9</ele>
        <time>2019-08-09T16:50:44Z</time>
      </trkpt>
      <trkpt lat="48.04149" lon="7.31133">
        <ele>201.9</ele>
        <time>2019-08-09T16:50:46Z</time>
      </trkpt>
      <trkpt lat="48.04142" lon="7.3113">
        <ele>202</ele>
        <time>2019-08-09T16:50:48Z</time>
      </trkpt>
      <trkpt lat="48.04138" lon="7.3113">
        <ele>202</ele>
        <time>2019-08-09T16:50:49Z</time>
      </trkpt>
      <trkpt lat="48.04135" lon="7.3113">
        <ele>202</ele>
        <time>2019-08-09T16:50:50Z</time>
      </trkpt>
      <trkpt lat="48.04131" lon="7.31131">
        <ele>202</ele>
        <time>2019-08-09T16:50:51Z</time>
      </trkpt>
      <trkpt lat="48.04128" lon="7.31132">
        <ele>202</ele>
        <time>2019-08-09T16:50:52Z</time>
      </trkpt>
      <trkpt lat="48.04125" lon="7.31132">
        <ele>202.1</ele>
        <time>2019-08-09T16:50:53Z</time>
      </trkpt>
      <trkpt lat="48.04121" lon="7.31134">
        <ele>202.1</ele>
        <time>2019-08-09T16:50:54Z</time>
      </trkpt>
      <trkpt lat="48.04117" lon="7.31135">
        <ele>202.1</ele>
        <time>2019-08-09T16:50:55Z</time>
      </trkpt>
      <trkpt lat="48.04113" lon="7.31135">
        <ele>202.1</ele>
        <time>2019-08-09T16:50:56Z</time>
      </trkpt>
      <trkpt lat="48.0411" lon="7.31136">
        <ele>202.1</ele>
        <time>2019-08-09T16:50:57Z</time>
      </trkpt>
      <trkpt lat="48.04107" lon="7.31137">
        <ele>202.2</ele>
        <time>2019-08-09T16:50:58Z</time>
      </trkpt>
      <trkpt lat="48.04101" lon="7.31136">
        <ele>202.2</ele>
        <time>2019-08-09T16:51:00Z</time>
      </trkpt>
      <trkpt lat="48.04097" lon="7.31136">
        <ele>202.3</ele>
        <time>2019-08-09T16:51:01Z</time>
      </trkpt>
      <trkpt lat="48.04093" lon="7.31136">
        <ele>202.3</ele>
        <time>2019-08-09T16:51:02Z</time>
      </trkpt>
      <trkpt lat="48.04089" lon="7.31136">
        <ele>202.4</ele>
        <time>2019-08-09T16:51:03Z</time>
      </trkpt>
      <trkpt lat="48.04084" lon="7.31137">
        <ele>202.4</ele>
        <time>2019-08-09T16:51:04Z</time>
      </trkpt>
      <trkpt lat="48.0408" lon="7.31137">
        <ele>202.5</ele>
        <time>2019-08-09T16:51:05Z</time>
      </trkpt>
      <trkpt lat="48.04077" lon="7.31136">
        <ele>202.8</ele>
        <time>2019-08-09T16:51:06Z</time>
      </trkpt>
      <trkpt lat="48.04074" lon="7.31135">
        <ele>202.9</ele>
        <time>2019-08-09T16:51:07Z</time>
      </trkpt>
      <trkpt lat="48.04071" lon="7.31135">
        <ele>203.1</ele>
        <time>2019-08-09T16:51:08Z</time>
      </trkpt>
      <trkpt lat="48.04066" lon="7.31134">
        <ele>203.3</ele>
        <time>2019-08-09T16:51:09Z</time>
      </trkpt>
      <trkpt lat="48.04062" lon="7.31134">
        <ele>203.4</ele>
        <time>2019-08-09T16:51:10Z</time>
      </trkpt>
      <trkpt lat="48.04059" lon="7.31134">
        <ele>203.6</ele>
        <time>2019-08-09T16:51:11Z</time>
      </trkpt>
      <trkpt lat="48.04055" lon="7.31132">
        <ele>203.8</ele>
        <time>2019-08-09T16:51:12Z</time>
      </trkpt>
      <trkpt lat="48.0405" lon="7.3113">
        <ele>203.9</ele>
        <time>2019-08-09T16:51:13Z</time>
      </trkpt>
      <trkpt lat="48.04046" lon="7.31131">
        <ele>204.1</ele>
        <time>2019-08-09T16:51:14Z</time>
      </trkpt>
      <trkpt lat="48.04042" lon="7.31131">
        <ele>204.2</ele>
        <time>2019-08-09T16:51:15Z</time>
      </trkpt>
      <trkpt lat="48.04037" lon="7.31129">
        <ele>204.3</ele>
        <time>2019-08-09T16:51:16Z</time>
      </trkpt>
      <trkpt lat="48.04033" lon="7.31129">
        <ele>204.4</ele>
        <time>2019-08-09T16:51:17Z</time>
      </trkpt>
      <trkpt lat="48.0403" lon="7.31128">
        <ele>204.4</ele>
        <time>2019-08-09T16:51:18Z</time>
      </trkpt>
      <trkpt lat="48.04027" lon="7.31127">
        <ele>204.4</ele>
        <time>2019-08-09T16:51:19Z</time>
      </trkpt>
      <trkpt lat="48.04023" lon="7.31127">
        <ele>204.5</ele>
        <time>2019-08-09T16:51:20Z</time>
      </trkpt>
      <trkpt lat="48.04018" lon="7.31127">
        <ele>204.5</ele>
        <time>2019-08-09T16:51:21Z</time>
      </trkpt>
      <trkpt lat="48.04014" lon="7.31126">
        <ele>204.5</ele>
        <time>2019-08-09T16:51:22Z</time>
      </trkpt>
      <trkpt lat="48.04011" lon="7.31124">
        <ele>204.5</ele>
        <time>2019-08-09T16:51:23Z</time>
      </trkpt>
      <trkpt lat="48.04007" lon="7.31124">
        <ele>204.6</ele>
        <time>2019-08-09T16:51:24Z</time>
      </trkpt>
      <trkpt lat="48.04004" lon="7.31123">
        <ele>204.6</ele>
        <time>2019-08-09T16:51:25Z</time>
      </trkpt>
      <trkpt lat="48.04" lon="7.31123">
        <ele>204.6</ele>
        <time>2019-08-09T16:51:26Z</time>
      </trkpt>
      <trkpt lat="48.03997" lon="7.31122">
        <ele>204.6</ele>
        <time>2019-08-09T16:51:27Z</time>
      </trkpt>
      <trkpt lat="48.03993" lon="7.31121">
        <ele>204.6</ele>
        <time>2019-08-09T16:51:28Z</time>
      </trkpt>
      <trkpt lat="48.0399" lon="7.3112">
        <ele>204.6</ele>
        <time>2019-08-09T16:51:29Z</time>
      </trkpt>
      <trkpt lat="48.03987" lon="7.31119">
        <ele>204.6</ele>
        <time>2019-08-09T16:51:30Z</time>
      </trkpt>
      <trkpt lat="48.03982" lon="7.3112">
        <ele>204.7</ele>
        <time>2019-08-09T16:51:31Z</time>
      </trkpt>
      <trkpt lat="48.03979" lon="7.31118">
        <ele>204.7</ele>
        <time>2019-08-09T16:51:32Z</time>
      </trkpt>
      <trkpt lat="48.03976" lon="7.31118">
        <ele>204.8</ele>
        <time>2019-08-09T16:51:33Z</time>
      </trkpt>
      <trkpt lat="48.03973" lon="7.31119">
        <ele>204.8</ele>
        <time>2019-08-09T16:51:34Z</time>
      </trkpt>
      <trkpt lat="48.03967" lon="7.31118">
        <ele>204.9</ele>
        <time>2019-08-09T16:51:36Z</time>
      </trkpt>
      <trkpt lat="48.03964" lon="7.31118">
        <ele>205</ele>
        <time>2019-08-09T16:51:37Z</time>
      </trkpt>
      <trkpt lat="48.0396" lon="7.31118">
        <ele>205</ele>
        <time>2019-08-09T16:51:38Z</time>
      </trkpt>
      <trkpt lat="48.03957" lon="7.31117">
        <ele>205.1</ele>
        <time>2019-08-09T16:51:39Z</time>
      </trkpt>
      <trkpt lat="48.03954" lon="7.31117">
        <ele>205.2</ele>
        <time>2019-08-09T16:51:40Z</time>
      </trkpt>
      <trkpt lat="48.0395" lon="7.31117">
        <ele>205.2</ele>
        <time>2019-08-09T16:51:41Z</time>
      </trkpt>
      <trkpt lat="48.03947" lon="7.31115">
        <ele>205.3</ele>
        <time>2019-08-09T16:51:42Z</time>
      </trkpt>
      <trkpt lat="48.03943" lon="7.31115">
        <ele>205.4</ele>
        <time>2019-08-09T16:51:43Z</time>
      </trkpt>
      <trkpt lat="48.03939" lon="7.31114">
        <ele>205.4</ele>
        <time>2019-08-09T16:51:44Z</time>
      </trkpt>
      <trkpt lat="48.03935" lon="7.31115">
        <ele>205.5</ele>
        <time>2019-08-09T16:51:45Z</time>
      </trkpt>
      <trkpt lat="48.0393" lon="7.31114">
        <ele>205.5</ele>
        <time>2019-08-09T16:51:47Z</time>
      </trkpt>
      <trkpt lat="48.03926" lon="7.31115">
        <ele>205.5</ele>
        <time>2019-08-09T16:51:48Z</time>
      </trkpt>
      <trkpt lat="48.03923" lon="7.31116">
        <ele>205.6</ele>
        <time>2019-08-09T16:51:49Z</time>
      </trkpt>
      <trkpt lat="48.0392" lon="7.31116">
        <ele>205.6</ele>
        <time>2019-08-09T16:51:50Z</time>
      </trkpt>
      <trkpt lat="48.03916" lon="7.31117">
        <ele>205.6</ele>
        <time>2019-08-09T16:51:51Z</time>
      </trkpt>
      <trkpt lat="48.03913" lon="7.31118">
        <ele>205.6</ele>
        <time>2019-08-09T16:51:52Z</time>
      </trkpt>
      <trkpt lat="48.03909" lon="7.31118">
        <ele>205.7</ele>
        <time>2019-08-09T16:51:53Z</time>
      </trkpt>
      <trkpt lat="48.03905" lon="7.31118">
        <ele>205.8</ele>
        <time>2019-08-09T16:51:54Z</time>
      </trkpt>
      <trkpt lat="48.03901" lon="7.31117">
        <ele>205.8</ele>
        <time>2019-08-09T16:51:55Z</time>
      </trkpt>
      <trkpt lat="48.03897" lon="7.31117">
        <ele>205.9</ele>
        <time>2019-08-09T16:51:56Z</time>
      </trkpt>
      <trkpt lat="48.03893" lon="7.31117">
        <ele>206</ele>
        <time>2019-08-09T16:51:57Z</time>
      </trkpt>
      <trkpt lat="48.0389" lon="7.31118">
        <ele>206.1</ele>
        <time>2019-08-09T16:51:58Z</time>
      </trkpt>
      <trkpt lat="48.03885" lon="7.31117">
        <ele>206.2</ele>
        <time>2019-08-09T16:51:59Z</time>
      </trkpt>
      <trkpt lat="48.03882" lon="7.31117">
        <ele>206.3</ele>
        <time>2019-08-09T16:52:00Z</time>
      </trkpt>
      <trkpt lat="48.03878" lon="7.31117">
        <ele>206.4</ele>
        <time>2019-08-09T16:52:01Z</time>
      </trkpt>
      <trkpt lat="48.03874" lon="7.31117">
        <ele>206.5</ele>
        <time>2019-08-09T16:52:02Z</time>
      </trkpt>
      <trkpt lat="48.0387" lon="7.31116">
        <ele>206.5</ele>
        <time>2019-08-09T16:52:03Z</time>
      </trkpt>
      <trkpt lat="48.03865" lon="7.31116">
        <ele>206.6</ele>
        <time>2019-08-09T16:52:04Z</time>
      </trkpt>
      <trkpt lat="48.03861" lon="7.31115">
        <ele>206.6</ele>
        <time>2019-08-09T16:52:05Z</time>
      </trkpt>
      <trkpt lat="48.03858" lon="7.31115">
        <ele>206.7</ele>
        <time>2019-08-09T16:52:06Z</time>
      </trkpt>
      <trkpt lat="48.03855" lon="7.31115">
        <ele>206.7</ele>
        <time>2019-08-09T16:52:07Z</time>
      </trkpt>
      <trkpt lat="48.03852" lon="7.31114">
        <ele>206.7</ele>
        <time>2019-08-09T16:52:08Z</time>
      </trkpt>
      <trkpt lat="48.03848" lon="7.31113">
        <ele>206.7</ele>
        <time>2019-08-09T16:52:09Z</time>
      </trkpt>
      <trkpt lat="48.03845" lon="7.31112">
        <ele>206.7</ele>
        <time>2019-08-09T16:52:10Z</time>
      </trkpt>
      <trkpt lat="48.03841" lon="7.31112">
        <ele>206.7</ele>
        <time>2019-08-09T16:52:11Z</time>
      </trkpt>
      <trkpt lat="48.03838" lon="7.31112">
        <ele>206.7</ele>
        <time>2019-08-09T16:52:12Z</time>
      </trkpt>
      <trkpt lat="48.03835" lon="7.31112">
        <ele>206.7</ele>
        <time>2019-08-09T16:52:13Z</time>
      </trkpt>
      <trkpt lat="48.03831" lon="7.31112">
        <ele>206.7</ele>
        <time>2019-08-09T16:52:14Z</time>
      </trkpt>
      <trkpt lat="48.03827" lon="7.31112">
        <ele>206.7</ele>
        <time>2019-08-09T16:52:15Z</time>
      </trkpt>
      <trkpt lat="48.03823" lon="7.31112">
        <ele>206.5</ele>
        <time>2019-08-09T16:52:16Z</time>
      </trkpt>
      <trkpt lat="48.03819" lon="7.31113">
        <ele>206.4</ele>
        <time>2019-08-09T16:52:17Z</time>
      </trkpt>
      <trkpt lat="48.03815" lon="7.31114">
        <ele>206.2</ele>
        <time>2019-08-09T16:52:18Z</time>
      </trkpt>
      <trkpt lat="48.03811" lon="7.31114">
        <ele>206.1</ele>
        <time>2019-08-09T16:52:19Z</time>
      </trkpt>
      <trkpt lat="48.03807" lon="7.31114">
        <ele>206</ele>
        <time>2019-08-09T16:52:20Z</time>
      </trkpt>
      <trkpt lat="48.03803" lon="7.31115">
        <ele>205.8</ele>
        <time>2019-08-09T16:52:21Z</time>
      </trkpt>
      <trkpt lat="48.03799" lon="7.31116">
        <ele>205.7</ele>
        <time>2019-08-09T16:52:22Z</time>
      </trkpt>
      <trkpt lat="48.03795" lon="7.31116">
        <ele>205.7</ele>
        <time>2019-08-09T16:52:23Z</time>
      </trkpt>
      <trkpt lat="48.03792" lon="7.31117">
        <ele>205.6</ele>
        <time>2019-08-09T16:52:24Z</time>
      </trkpt>
      <trkpt lat="48.03787" lon="7.31118">
        <ele>205.6</ele>
        <time>2019-08-09T16:52:25Z</time>
      </trkpt>
      <trkpt lat="48.03783" lon="7.31119">
        <ele>205.5</ele>
        <time>2019-08-09T16:52:26Z</time>
      </trkpt>
      <trkpt lat="48.03778" lon="7.3112">
        <ele>205.4</ele>
        <time>2019-08-09T16:52:27Z</time>
      </trkpt>
      <trkpt lat="48.03774" lon="7.31122">
        <ele>205.4</ele>
        <time>2019-08-09T16:52:28Z</time>
      </trkpt>
      <trkpt lat="48.03769" lon="7.31123">
        <ele>205.3</ele>
        <time>2019-08-09T16:52:29Z</time>
      </trkpt>
      <trkpt lat="48.03765" lon="7.31124">
        <ele>205.2</ele>
        <time>2019-08-09T16:52:30Z</time>
      </trkpt>
      <trkpt lat="48.0376" lon="7.31125">
        <ele>205.2</ele>
        <time>2019-08-09T16:52:31Z</time>
      </trkpt>
      <trkpt lat="48.03755" lon="7.31125">
        <ele>205</ele>
        <time>2019-08-09T16:52:32Z</time>
      </trkpt>
      <trkpt lat="48.0375" lon="7.31126">
        <ele>204.9</ele>
        <time>2019-08-09T16:52:33Z</time>
      </trkpt>
      <trkpt lat="48.03744" lon="7.31127">
        <ele>204.7</ele>
        <time>2019-08-09T16:52:34Z</time>
      </trkpt>
      <trkpt lat="48.03738" lon="7.31128">
        <ele>204.5</ele>
        <time>2019-08-09T16:52:35Z</time>
      </trkpt>
      <trkpt lat="48.03733" lon="7.31129">
        <ele>204.3</ele>
        <time>2019-08-09T16:52:36Z</time>
      </trkpt>
      <trkpt lat="48.03727" lon="7.3113">
        <ele>204</ele>
        <time>2019-08-09T16:52:37Z</time>
      </trkpt>
      <trkpt lat="48.03721" lon="7.31132">
        <ele>203.7</ele>
        <time>2019-08-09T16:52:38Z</time>
      </trkpt>
      <trkpt lat="48.03716" lon="7.31132">
        <ele>203.3</ele>
        <time>2019-08-09T16:52:39Z</time>
      </trkpt>
      <trkpt lat="48.0371" lon="7.31134">
        <ele>203</ele>
        <time>2019-08-09T16:52:40Z</time>
      </trkpt>
      <trkpt lat="48.03704" lon="7.31135">
        <ele>202.6</ele>
        <time>2019-08-09T16:52:41Z</time>
      </trkpt>
      <trkpt lat="48.03698" lon="7.31137">
        <ele>202.2</ele>
        <time>2019-08-09T16:52:42Z</time>
      </trkpt>
      <trkpt lat="48.03692" lon="7.31138">
        <ele>201.9</ele>
        <time>2019-08-09T16:52:43Z</time>
      </trkpt>
      <trkpt lat="48.03688" lon="7.31137">
        <ele>201.7</ele>
        <time>2019-08-09T16:52:44Z</time>
      </trkpt>
      <trkpt lat="48.03682" lon="7.31138">
        <ele>201.4</ele>
        <time>2019-08-09T16:52:45Z</time>
      </trkpt>
      <trkpt lat="48.03676" lon="7.31139">
        <ele>201.2</ele>
        <time>2019-08-09T16:52:46Z</time>
      </trkpt>
      <trkpt lat="48.0367" lon="7.3114">
        <ele>201</ele>
        <time>2019-08-09T16:52:47Z</time>
      </trkpt>
      <trkpt lat="48.03664" lon="7.3114">
        <ele>200.8</ele>
        <time>2019-08-09T16:52:48Z</time>
      </trkpt>
      <trkpt lat="48.03658" lon="7.31141">
        <ele>200.7</ele>
        <time>2019-08-09T16:52:49Z</time>
      </trkpt>
      <trkpt lat="48.03652" lon="7.31142">
        <ele>200.6</ele>
        <time>2019-08-09T16:52:50Z</time>
      </trkpt>
      <trkpt lat="48.03647" lon="7.31143">
        <ele>200.5</ele>
        <time>2019-08-09T16:52:51Z</time>
      </trkpt>
      <trkpt lat="48.03641" lon="7.31144">
        <ele>200.4</ele>
        <time>2019-08-09T16:52:52Z</time>
      </trkpt>
      <trkpt lat="48.03635" lon="7.31146">
        <ele>200.3</ele>
        <time>2019-08-09T16:52:53Z</time>
      </trkpt>
      <trkpt lat="48.0363" lon="7.31146">
        <ele>200.2</ele>
        <time>2019-08-09T16:52:54Z</time>
      </trkpt>
      <trkpt lat="48.03624" lon="7.31147">
        <ele>200.1</ele>
        <time>2019-08-09T16:52:55Z</time>
      </trkpt>
      <trkpt lat="48.03619" lon="7.31146">
        <ele>200.1</ele>
        <time>2019-08-09T16:52:56Z</time>
      </trkpt>
      <trkpt lat="48.03615" lon="7.31147">
        <ele>200</ele>
        <time>2019-08-09T16:52:57Z</time>
      </trkpt>
      <trkpt lat="48.0361" lon="7.31149">
        <ele>200</ele>
        <time>2019-08-09T16:52:58Z</time>
      </trkpt>
      <trkpt lat="48.03605" lon="7.3115">
        <ele>199.9</ele>
        <time>2019-08-09T16:52:59Z</time>
      </trkpt>
      <trkpt lat="48.036" lon="7.31151">
        <ele>199.8</ele>
        <time>2019-08-09T16:53:00Z</time>
      </trkpt>
      <trkpt lat="48.03595" lon="7.31152">
        <ele>199.8</ele>
        <time>2019-08-09T16:53:01Z</time>
      </trkpt>
      <trkpt lat="48.03591" lon="7.31152">
        <ele>199.8</ele>
        <time>2019-08-09T16:53:02Z</time>
      </trkpt>
      <trkpt lat="48.03588" lon="7.31152">
        <ele>199.7</ele>
        <time>2019-08-09T16:53:03Z</time>
      </trkpt>
      <trkpt lat="48.03584" lon="7.31153">
        <ele>199.7</ele>
        <time>2019-08-09T16:53:04Z</time>
      </trkpt>
      <trkpt lat="48.0358" lon="7.31154">
        <ele>199.7</ele>
        <time>2019-08-09T16:53:05Z</time>
      </trkpt>
      <trkpt lat="48.03576" lon="7.31155">
        <ele>199.7</ele>
        <time>2019-08-09T16:53:06Z</time>
      </trkpt>
      <trkpt lat="48.03572" lon="7.31156">
        <ele>199.6</ele>
        <time>2019-08-09T16:53:07Z</time>
      </trkpt>
      <trkpt lat="48.03568" lon="7.31156">
        <ele>199.6</ele>
        <time>2019-08-09T16:53:08Z</time>
      </trkpt>
      <trkpt lat="48.03564" lon="7.31156">
        <ele>199.5</ele>
        <time>2019-08-09T16:53:09Z</time>
      </trkpt>
      <trkpt lat="48.03559" lon="7.31157">
        <ele>199.5</ele>
        <time>2019-08-09T16:53:10Z</time>
      </trkpt>
      <trkpt lat="48.03556" lon="7.31158">
        <ele>199.5</ele>
        <time>2019-08-09T16:53:11Z</time>
      </trkpt>
      <trkpt lat="48.03553" lon="7.31158">
        <ele>199.5</ele>
        <time>2019-08-09T16:53:12Z</time>
      </trkpt>
      <trkpt lat="48.0355" lon="7.31158">
        <ele>199.5</ele>
        <time>2019-08-09T16:53:13Z</time>
      </trkpt>
      <trkpt lat="48.03547" lon="7.31158">
        <ele>199.5</ele>
        <time>2019-08-09T16:53:14Z</time>
      </trkpt>
      <trkpt lat="48.03544" lon="7.31159">
        <ele>199.5</ele>
        <time>2019-08-09T16:53:15Z</time>
      </trkpt>
      <trkpt lat="48.03537" lon="7.31161">
        <ele>199.5</ele>
        <time>2019-08-09T16:53:17Z</time>
      </trkpt>
      <trkpt lat="48.03533" lon="7.31161">
        <ele>199.5</ele>
        <time>2019-08-09T16:53:18Z</time>
      </trkpt>
      <trkpt lat="48.03529" lon="7.31163">
        <ele>199.5</ele>
        <time>2019-08-09T16:53:19Z</time>
      </trkpt>
      <trkpt lat="48.03524" lon="7.31164">
        <ele>199.5</ele>
        <time>2019-08-09T16:53:20Z</time>
      </trkpt>
      <trkpt lat="48.03521" lon="7.31165">
        <ele>199.4</ele>
        <time>2019-08-09T16:53:21Z</time>
      </trkpt>
      <trkpt lat="48.03515" lon="7.31164">
        <ele>199.4</ele>
        <time>2019-08-09T16:53:23Z</time>
      </trkpt>
      <trkpt lat="48.03513" lon="7.31164">
        <ele>199.4</ele>
        <time>2019-08-09T16:53:24Z</time>
      </trkpt>
      <trkpt lat="48.03509" lon="7.31165">
        <ele>199.4</ele>
        <time>2019-08-09T16:53:25Z</time>
      </trkpt>
      <trkpt lat="48.03506" lon="7.31166">
        <ele>199.4</ele>
        <time>2019-08-09T16:53:26Z</time>
      </trkpt>
      <trkpt lat="48.03502" lon="7.31166">
        <ele>199.4</ele>
        <time>2019-08-09T16:53:27Z</time>
      </trkpt>
      <trkpt lat="48.03497" lon="7.31165">
        <ele>199.3</ele>
        <time>2019-08-09T16:53:28Z</time>
      </trkpt>
      <trkpt lat="48.03494" lon="7.31166">
        <ele>199.3</ele>
        <time>2019-08-09T16:53:29Z</time>
      </trkpt>
      <trkpt lat="48.03491" lon="7.31166">
        <ele>199.3</ele>
        <time>2019-08-09T16:53:30Z</time>
      </trkpt>
      <trkpt lat="48.03488" lon="7.31168">
        <ele>199.3</ele>
        <time>2019-08-09T16:53:31Z</time>
      </trkpt>
      <trkpt lat="48.03485" lon="7.31169">
        <ele>199.3</ele>
        <time>2019-08-09T16:53:32Z</time>
      </trkpt>
      <trkpt lat="48.03481" lon="7.31169">
        <ele>199.3</ele>
        <time>2019-08-09T16:53:34Z</time>
      </trkpt>
      <trkpt lat="48.03484" lon="7.31169">
        <ele>199.3</ele>
        <time>2019-08-09T16:53:44Z</time>
      </trkpt>
      <trkpt lat="48.03482" lon="7.31166">
        <ele>199.3</ele>
        <time>2019-08-09T17:00:16Z</time>
      </trkpt>
      <trkpt lat="48.03477" lon="7.31169">
        <ele>199.3</ele>
        <time>2019-08-09T17:00:18Z</time>
      </trkpt>
      <trkpt lat="48.03472" lon="7.3117">
        <ele>199.2</ele>
        <time>2019-08-09T17:00:20Z</time>
      </trkpt>
      <trkpt lat="48.03469" lon="7.31171">
        <ele>199.2</ele>
        <time>2019-08-09T17:00:21Z</time>
      </trkpt>
      <trkpt lat="48.03466" lon="7.31171">
        <ele>199.2</ele>
        <time>2019-08-09T17:00:22Z</time>
      </trkpt>
      <trkpt lat="48.03463" lon="7.31172">
        <ele>199.2</ele>
        <time>2019-08-09T17:00:23Z</time>
      </trkpt>
      <trkpt lat="48.03459" lon="7.31173">
        <ele>199.1</ele>
        <time>2019-08-09T17:00:24Z</time>
      </trkpt>
      <trkpt lat="48.03455" lon="7.31174">
        <ele>199.1</ele>
        <time>2019-08-09T17:00:25Z</time>
      </trkpt>
      <trkpt lat="48.03452" lon="7.31175">
        <ele>199.1</ele>
        <time>2019-08-09T17:00:26Z</time>
      </trkpt>
      <trkpt lat="48.03448" lon="7.31177">
        <ele>199.1</ele>
        <time>2019-08-09T17:00:27Z</time>
      </trkpt>
      <trkpt lat="48.03444" lon="7.31177">
        <ele>199</ele>
        <time>2019-08-09T17:00:28Z</time>
      </trkpt>
      <trkpt lat="48.03441" lon="7.31178">
        <ele>199</ele>
        <time>2019-08-09T17:00:29Z</time>
      </trkpt>
      <trkpt lat="48.03436" lon="7.31179">
        <ele>199</ele>
        <time>2019-08-09T17:00:30Z</time>
      </trkpt>
      <trkpt lat="48.03431" lon="7.3118">
        <ele>198.9</ele>
        <time>2019-08-09T17:00:31Z</time>
      </trkpt>
      <trkpt lat="48.03427" lon="7.3118">
        <ele>198.9</ele>
        <time>2019-08-09T17:00:32Z</time>
      </trkpt>
      <trkpt lat="48.03422" lon="7.31181">
        <ele>198.8</ele>
        <time>2019-08-09T17:00:33Z</time>
      </trkpt>
      <trkpt lat="48.03417" lon="7.31182">
        <ele>198.8</ele>
        <time>2019-08-09T17:00:34Z</time>
      </trkpt>
      <trkpt lat="48.03411" lon="7.31183">
        <ele>198.8</ele>
        <time>2019-08-09T17:00:35Z</time>
      </trkpt>
      <trkpt lat="48.03406" lon="7.31184">
        <ele>198.8</ele>
        <time>2019-08-09T17:00:36Z</time>
      </trkpt>
      <trkpt lat="48.03402" lon="7.31184">
        <ele>198.7</ele>
        <time>2019-08-09T17:00:37Z</time>
      </trkpt>
      <trkpt lat="48.03397" lon="7.31184">
        <ele>198.7</ele>
        <time>2019-08-09T17:00:38Z</time>
      </trkpt>
      <trkpt lat="48.03393" lon="7.31185">
        <ele>198.7</ele>
        <time>2019-08-09T17:00:39Z</time>
      </trkpt>
      <trkpt lat="48.03389" lon="7.31185">
        <ele>198.7</ele>
        <time>2019-08-09T17:00:40Z</time>
      </trkpt>
      <trkpt lat="48.03384" lon="7.31185">
        <ele>198.7</ele>
        <time>2019-08-09T17:00:41Z</time>
      </trkpt>
      <trkpt lat="48.03379" lon="7.31185">
        <ele>198.7</ele>
        <time>2019-08-09T17:00:42Z</time>
      </trkpt>
      <trkpt lat="48.03374" lon="7.31185">
        <ele>198.6</ele>
        <time>2019-08-09T17:00:43Z</time>
      </trkpt>
      <trkpt lat="48.03369" lon="7.31187">
        <ele>198.6</ele>
        <time>2019-08-09T17:00:44Z</time>
      </trkpt>
      <trkpt lat="48.03364" lon="7.31187">
        <ele>198.5</ele>
        <time>2019-08-09T17:00:45Z</time>
      </trkpt>
      <trkpt lat="48.03359" lon="7.31187">
        <ele>198.5</ele>
        <time>2019-08-09T17:00:46Z</time>
      </trkpt>
      <trkpt lat="48.03354" lon="7.31187">
        <ele>198.4</ele>
        <time>2019-08-09T17:00:47Z</time>
      </trkpt>
      <trkpt lat="48.03349" lon="7.31187">
        <ele>198.4</ele>
        <time>2019-08-09T17:00:48Z</time>
      </trkpt>
      <trkpt lat="48.03345" lon="7.31187">
        <ele>198.4</ele>
        <time>2019-08-09T17:00:49Z</time>
      </trkpt>
      <trkpt lat="48.03341" lon="7.31186">
        <ele>198.3</ele>
        <time>2019-08-09T17:00:50Z</time>
      </trkpt>
      <trkpt lat="48.03336" lon="7.31185">
        <ele>198.3</ele>
        <time>2019-08-09T17:00:51Z</time>
      </trkpt>
      <trkpt lat="48.03332" lon="7.31185">
        <ele>198.2</ele>
        <time>2019-08-09T17:00:52Z</time>
      </trkpt>
      <trkpt lat="48.03328" lon="7.31184">
        <ele>198.2</ele>
        <time>2019-08-09T17:00:53Z</time>
      </trkpt>
      <trkpt lat="48.03324" lon="7.31183">
        <ele>198.2</ele>
        <time>2019-08-09T17:00:54Z</time>
      </trkpt>
      <trkpt lat="48.0332" lon="7.31182">
        <ele>198.1</ele>
        <time>2019-08-09T17:00:55Z</time>
      </trkpt>
      <trkpt lat="48.03317" lon="7.31182">
        <ele>198.1</ele>
        <time>2019-08-09T17:00:56Z</time>
      </trkpt>
      <trkpt lat="48.03313" lon="7.31181">
        <ele>198.1</ele>
        <time>2019-08-09T17:00:57Z</time>
      </trkpt>
      <trkpt lat="48.03308" lon="7.31181">
        <ele>198</ele>
        <time>2019-08-09T17:00:58Z</time>
      </trkpt>
      <trkpt lat="48.03304" lon="7.31181">
        <ele>198</ele>
        <time>2019-08-09T17:00:59Z</time>
      </trkpt>
      <trkpt lat="48.033" lon="7.31182">
        <ele>198.1</ele>
        <time>2019-08-09T17:01:00Z</time>
      </trkpt>
      <trkpt lat="48.03296" lon="7.31181">
        <ele>198.1</ele>
        <time>2019-08-09T17:01:01Z</time>
      </trkpt>
      <trkpt lat="48.03292" lon="7.31181">
        <ele>198.1</ele>
        <time>2019-08-09T17:01:02Z</time>
      </trkpt>
      <trkpt lat="48.03288" lon="7.3118">
        <ele>198.1</ele>
        <time>2019-08-09T17:01:03Z</time>
      </trkpt>
      <trkpt lat="48.03283" lon="7.31179">
        <ele>198.1</ele>
        <time>2019-08-09T17:01:04Z</time>
      </trkpt>
      <trkpt lat="48.03279" lon="7.31179">
        <ele>198.1</ele>
        <time>2019-08-09T17:01:05Z</time>
      </trkpt>
      <trkpt lat="48.03275" lon="7.31178">
        <ele>198.1</ele>
        <time>2019-08-09T17:01:06Z</time>
      </trkpt>
      <trkpt lat="48.0327" lon="7.31179">
        <ele>198.1</ele>
        <time>2019-08-09T17:01:07Z</time>
      </trkpt>
      <trkpt lat="48.03265" lon="7.31178">
        <ele>198.1</ele>
        <time>2019-08-09T17:01:08Z</time>
      </trkpt>
      <trkpt lat="48.03261" lon="7.31177">
        <ele>198.1</ele>
        <time>2019-08-09T17:01:09Z</time>
      </trkpt>
      <trkpt lat="48.03256" lon="7.31176">
        <ele>198.1</ele>
        <time>2019-08-09T17:01:10Z</time>
      </trkpt>
      <trkpt lat="48.03252" lon="7.31174">
        <ele>198.1</ele>
        <time>2019-08-09T17:01:11Z</time>
      </trkpt>
      <trkpt lat="48.03248" lon="7.31172">
        <ele>198.1</ele>
        <time>2019-08-09T17:01:12Z</time>
      </trkpt>
      <trkpt lat="48.03243" lon="7.3117">
        <ele>198.1</ele>
        <time>2019-08-09T17:01:13Z</time>
      </trkpt>
      <trkpt lat="48.03239" lon="7.31169">
        <ele>198.1</ele>
        <time>2019-08-09T17:01:14Z</time>
      </trkpt>
      <trkpt lat="48.03234" lon="7.31169">
        <ele>198.1</ele>
        <time>2019-08-09T17:01:15Z</time>
      </trkpt>
      <trkpt lat="48.0323" lon="7.31169">
        <ele>198.1</ele>
        <time>2019-08-09T17:01:16Z</time>
      </trkpt>
      <trkpt lat="48.03226" lon="7.31169">
        <ele>198.1</ele>
        <time>2019-08-09T17:01:17Z</time>
      </trkpt>
      <trkpt lat="48.03221" lon="7.31168">
        <ele>198</ele>
        <time>2019-08-09T17:01:18Z</time>
      </trkpt>
      <trkpt lat="48.03217" lon="7.31168">
        <ele>197.9</ele>
        <time>2019-08-09T17:01:19Z</time>
      </trkpt>
      <trkpt lat="48.03213" lon="7.31168">
        <ele>197.9</ele>
        <time>2019-08-09T17:01:20Z</time>
      </trkpt>
      <trkpt lat="48.03208" lon="7.3117">
        <ele>197.7</ele>
        <time>2019-08-09T17:01:21Z</time>
      </trkpt>
      <trkpt lat="48.03203" lon="7.31171">
        <ele>197.6</ele>
        <time>2019-08-09T17:01:22Z</time>
      </trkpt>
      <trkpt lat="48.03198" lon="7.31171">
        <ele>197.5</ele>
        <time>2019-08-09T17:01:23Z</time>
      </trkpt>
      <trkpt lat="48.03194" lon="7.31172">
        <ele>197.4</ele>
        <time>2019-08-09T17:01:24Z</time>
      </trkpt>
      <trkpt lat="48.03189" lon="7.31174">
        <ele>197.2</ele>
        <time>2019-08-09T17:01:25Z</time>
      </trkpt>
      <trkpt lat="48.03185" lon="7.31174">
        <ele>197.1</ele>
        <time>2019-08-09T17:01:26Z</time>
      </trkpt>
      <trkpt lat="48.03181" lon="7.31176">
        <ele>196.9</ele>
        <time>2019-08-09T17:01:27Z</time>
      </trkpt>
      <trkpt lat="48.03178" lon="7.31177">
        <ele>196.7</ele>
        <time>2019-08-09T17:01:28Z</time>
      </trkpt>
      <trkpt lat="48.03174" lon="7.31177">
        <ele>196.7</ele>
        <time>2019-08-09T17:01:29Z</time>
      </trkpt>
      <trkpt lat="48.0317" lon="7.31179">
        <ele>196.7</ele>
        <time>2019-08-09T17:01:30Z</time>
      </trkpt>
      <trkpt lat="48.03166" lon="7.3118">
        <ele>196.7</ele>
        <time>2019-08-09T17:01:31Z</time>
      </trkpt>
      <trkpt lat="48.03161" lon="7.31184">
        <ele>196.7</ele>
        <time>2019-08-09T17:01:32Z</time>
      </trkpt>
      <trkpt lat="48.03156" lon="7.31189">
        <ele>196.9</ele>
        <time>2019-08-09T17:01:33Z</time>
      </trkpt>
      <trkpt lat="48.03151" lon="7.31193">
        <ele>197.1</ele>
        <time>2019-08-09T17:01:34Z</time>
      </trkpt>
      <trkpt lat="48.03147" lon="7.31197">
        <ele>197.4</ele>
        <time>2019-08-09T17:01:35Z</time>
      </trkpt>
      <trkpt lat="48.03142" lon="7.31201">
        <ele>197.6</ele>
        <time>2019-08-09T17:01:36Z</time>
      </trkpt>
      <trkpt lat="48.03137" lon="7.31205">
        <ele>197.8</ele>
        <time>2019-08-09T17:01:37Z</time>
      </trkpt>
      <trkpt lat="48.03133" lon="7.31209">
        <ele>198</ele>
        <time>2019-08-09T17:01:38Z</time>
      </trkpt>
      <trkpt lat="48.03128" lon="7.31214">
        <ele>198.1</ele>
        <time>2019-08-09T17:01:39Z</time>
      </trkpt>
      <trkpt lat="48.03123" lon="7.3122">
        <ele>198</ele>
        <time>2019-08-09T17:01:40Z</time>
      </trkpt>
      <trkpt lat="48.03117" lon="7.31226">
        <ele>197.8</ele>
        <time>2019-08-09T17:01:41Z</time>
      </trkpt>
      <trkpt lat="48.03113" lon="7.31233">
        <ele>197.5</ele>
        <time>2019-08-09T17:01:42Z</time>
      </trkpt>
      <trkpt lat="48.03108" lon="7.31239">
        <ele>197.2</ele>
        <time>2019-08-09T17:01:43Z</time>
      </trkpt>
      <trkpt lat="48.03104" lon="7.31244">
        <ele>197</ele>
        <time>2019-08-09T17:01:44Z</time>
      </trkpt>
      <trkpt lat="48.031" lon="7.31251">
        <ele>196.8</ele>
        <time>2019-08-09T17:01:45Z</time>
      </trkpt>
      <trkpt lat="48.03096" lon="7.31257">
        <ele>196.6</ele>
        <time>2019-08-09T17:01:46Z</time>
      </trkpt>
      <trkpt lat="48.03092" lon="7.31262">
        <ele>196.4</ele>
        <time>2019-08-09T17:01:47Z</time>
      </trkpt>
      <trkpt lat="48.03088" lon="7.31268">
        <ele>196.2</ele>
        <time>2019-08-09T17:01:48Z</time>
      </trkpt>
      <trkpt lat="48.03084" lon="7.31273">
        <ele>196</ele>
        <time>2019-08-09T17:01:49Z</time>
      </trkpt>
      <trkpt lat="48.0308" lon="7.31279">
        <ele>195.8</ele>
        <time>2019-08-09T17:01:50Z</time>
      </trkpt>
      <trkpt lat="48.03076" lon="7.31284">
        <ele>195.6</ele>
        <time>2019-08-09T17:01:51Z</time>
      </trkpt>
      <trkpt lat="48.03072" lon="7.31289">
        <ele>195.5</ele>
        <time>2019-08-09T17:01:52Z</time>
      </trkpt>
      <trkpt lat="48.03068" lon="7.3129">
        <ele>195.3</ele>
        <time>2019-08-09T17:01:53Z</time>
      </trkpt>
      <trkpt lat="48.03063" lon="7.31288">
        <ele>195.7</ele>
        <time>2019-08-09T17:01:54Z</time>
      </trkpt>
      <trkpt lat="48.03058" lon="7.31284">
        <ele>195.6</ele>
        <time>2019-08-09T17:01:55Z</time>
      </trkpt>
      <trkpt lat="48.03055" lon="7.31284">
        <ele>195.5</ele>
        <time>2019-08-09T17:01:56Z</time>
      </trkpt>
      <trkpt lat="48.03051" lon="7.31286">
        <ele>195.4</ele>
        <time>2019-08-09T17:01:57Z</time>
      </trkpt>
      <trkpt lat="48.03049" lon="7.31289">
        <ele>195.4</ele>
        <time>2019-08-09T17:01:58Z</time>
      </trkpt>
      <trkpt lat="48.03047" lon="7.31294">
        <ele>195.3</ele>
        <time>2019-08-09T17:01:59Z</time>
      </trkpt>
      <trkpt lat="48.03046" lon="7.31299">
        <ele>195.2</ele>
        <time>2019-08-09T17:02:00Z</time>
      </trkpt>
      <trkpt lat="48.03045" lon="7.31304">
        <ele>195.2</ele>
        <time>2019-08-09T17:02:01Z</time>
      </trkpt>
      <trkpt lat="48.03043" lon="7.3131">
        <ele>195.1</ele>
        <time>2019-08-09T17:02:02Z</time>
      </trkpt>
      <trkpt lat="48.03041" lon="7.31315">
        <ele>195</ele>
        <time>2019-08-09T17:02:03Z</time>
      </trkpt>
      <trkpt lat="48.03039" lon="7.31319">
        <ele>195</ele>
        <time>2019-08-09T17:02:04Z</time>
      </trkpt>
      <trkpt lat="48.03036" lon="7.31322">
        <ele>194.9</ele>
        <time>2019-08-09T17:02:05Z</time>
      </trkpt>
      <trkpt lat="48.03032" lon="7.31326">
        <ele>194.9</ele>
        <time>2019-08-09T17:02:06Z</time>
      </trkpt>
      <trkpt lat="48.03029" lon="7.3133">
        <ele>194.8</ele>
        <time>2019-08-09T17:02:07Z</time>
      </trkpt>
      <trkpt lat="48.03025" lon="7.31333">
        <ele>194.8</ele>
        <time>2019-08-09T17:02:08Z</time>
      </trkpt>
      <trkpt lat="48.03022" lon="7.31336">
        <ele>194.8</ele>
        <time>2019-08-09T17:02:09Z</time>
      </trkpt>
      <trkpt lat="48.0302" lon="7.31339">
        <ele>194.8</ele>
        <time>2019-08-09T17:02:10Z</time>
      </trkpt>
      <trkpt lat="48.03016" lon="7.3134">
        <ele>194.8</ele>
        <time>2019-08-09T17:02:11Z</time>
      </trkpt>
      <trkpt lat="48.03011" lon="7.31339">
        <ele>194.8</ele>
        <time>2019-08-09T17:02:12Z</time>
      </trkpt>
      <trkpt lat="48.03007" lon="7.31336">
        <ele>194.8</ele>
        <time>2019-08-09T17:02:13Z</time>
      </trkpt>
      <trkpt lat="48.03003" lon="7.31333">
        <ele>194.8</ele>
        <time>2019-08-09T17:02:14Z</time>
      </trkpt>
      <trkpt lat="48.02999" lon="7.31329">
        <ele>194.8</ele>
        <time>2019-08-09T17:02:15Z</time>
      </trkpt>
      <trkpt lat="48.02995" lon="7.31325">
        <ele>194.9</ele>
        <time>2019-08-09T17:02:16Z</time>
      </trkpt>
      <trkpt lat="48.02991" lon="7.31321">
        <ele>194.9</ele>
        <time>2019-08-09T17:02:17Z</time>
      </trkpt>
      <trkpt lat="48.02987" lon="7.31317">
        <ele>195</ele>
        <time>2019-08-09T17:02:18Z</time>
      </trkpt>
      <trkpt lat="48.02983" lon="7.31311">
        <ele>195</ele>
        <time>2019-08-09T17:02:19Z</time>
      </trkpt>
      <trkpt lat="48.0298" lon="7.31307">
        <ele>195.1</ele>
        <time>2019-08-09T17:02:20Z</time>
      </trkpt>
      <trkpt lat="48.02978" lon="7.31303">
        <ele>195.1</ele>
        <time>2019-08-09T17:02:21Z</time>
      </trkpt>
      <trkpt lat="48.02976" lon="7.31299">
        <ele>195.1</ele>
        <time>2019-08-09T17:02:22Z</time>
      </trkpt>
      <trkpt lat="48.02973" lon="7.31295">
        <ele>195.2</ele>
        <time>2019-08-09T17:02:23Z</time>
      </trkpt>
      <trkpt lat="48.0297" lon="7.31292">
        <ele>195.2</ele>
        <time>2019-08-09T17:02:24Z</time>
      </trkpt>
      <trkpt lat="48.02966" lon="7.3129">
        <ele>195.2</ele>
        <time>2019-08-09T17:02:25Z</time>
      </trkpt>
      <trkpt lat="48.02962" lon="7.31288">
        <ele>195.3</ele>
        <time>2019-08-09T17:02:26Z</time>
      </trkpt>
      <trkpt lat="48.02958" lon="7.31287">
        <ele>195.3</ele>
        <time>2019-08-09T17:02:27Z</time>
      </trkpt>
      <trkpt lat="48.02954" lon="7.31286">
        <ele>195.4</ele>
        <time>2019-08-09T17:02:28Z</time>
      </trkpt>
      <trkpt lat="48.0295" lon="7.31285">
        <ele>195.4</ele>
        <time>2019-08-09T17:02:29Z</time>
      </trkpt>
      <trkpt lat="48.02947" lon="7.31284">
        <ele>195.4</ele>
        <time>2019-08-09T17:02:30Z</time>
      </trkpt>
      <trkpt lat="48.02942" lon="7.31284">
        <ele>195.5</ele>
        <time>2019-08-09T17:02:31Z</time>
      </trkpt>
      <trkpt lat="48.02938" lon="7.31284">
        <ele>195.5</ele>
        <time>2019-08-09T17:02:32Z</time>
      </trkpt>
      <trkpt lat="48.02933" lon="7.31283">
        <ele>195.5</ele>
        <time>2019-08-09T17:02:33Z</time>
      </trkpt>
      <trkpt lat="48.02929" lon="7.31285">
        <ele>195.5</ele>
        <time>2019-08-09T17:02:34Z</time>
      </trkpt>
      <trkpt lat="48.02924" lon="7.31285">
        <ele>195.5</ele>
        <time>2019-08-09T17:02:35Z</time>
      </trkpt>
      <trkpt lat="48.0292" lon="7.31285">
        <ele>195.4</ele>
        <time>2019-08-09T17:02:36Z</time>
      </trkpt>
      <trkpt lat="48.02915" lon="7.31285">
        <ele>195.4</ele>
        <time>2019-08-09T17:02:37Z</time>
      </trkpt>
      <trkpt lat="48.02911" lon="7.31286">
        <ele>195.4</ele>
        <time>2019-08-09T17:02:38Z</time>
      </trkpt>
      <trkpt lat="48.02907" lon="7.31286">
        <ele>195.4</ele>
        <time>2019-08-09T17:02:39Z</time>
      </trkpt>
      <trkpt lat="48.02903" lon="7.31286">
        <ele>195.3</ele>
        <time>2019-08-09T17:02:40Z</time>
      </trkpt>
      <trkpt lat="48.02898" lon="7.31287">
        <ele>195.3</ele>
        <time>2019-08-09T17:02:41Z</time>
      </trkpt>
      <trkpt lat="48.02894" lon="7.31288">
        <ele>195.3</ele>
        <time>2019-08-09T17:02:42Z</time>
      </trkpt>
      <trkpt lat="48.02889" lon="7.3129">
        <ele>195.3</ele>
        <time>2019-08-09T17:02:43Z</time>
      </trkpt>
      <trkpt lat="48.02884" lon="7.31293">
        <ele>195.3</ele>
        <time>2019-08-09T17:02:44Z</time>
      </trkpt>
      <trkpt lat="48.0288" lon="7.31296">
        <ele>195.3</ele>
        <time>2019-08-09T17:02:45Z</time>
      </trkpt>
      <trkpt lat="48.02877" lon="7.31301">
        <ele>195.3</ele>
        <time>2019-08-09T17:02:46Z</time>
      </trkpt>
      <trkpt lat="48.02873" lon="7.31306">
        <ele>195.3</ele>
        <time>2019-08-09T17:02:47Z</time>
      </trkpt>
      <trkpt lat="48.02871" lon="7.3131">
        <ele>195.4</ele>
        <time>2019-08-09T17:02:48Z</time>
      </trkpt>
      <trkpt lat="48.02868" lon="7.31314">
        <ele>195.4</ele>
        <time>2019-08-09T17:02:49Z</time>
      </trkpt>
      <trkpt lat="48.02865" lon="7.31319">
        <ele>195.4</ele>
        <time>2019-08-09T17:02:50Z</time>
      </trkpt>
      <trkpt lat="48.02862" lon="7.31323">
        <ele>195.5</ele>
        <time>2019-08-09T17:02:51Z</time>
      </trkpt>
      <trkpt lat="48.02858" lon="7.31326">
        <ele>195.5</ele>
        <time>2019-08-09T17:02:52Z</time>
      </trkpt>
      <trkpt lat="48.02855" lon="7.31329">
        <ele>195.6</ele>
        <time>2019-08-09T17:02:53Z</time>
      </trkpt>
      <trkpt lat="48.02853" lon="7.31332">
        <ele>195.6</ele>
        <time>2019-08-09T17:02:54Z</time>
      </trkpt>
      <trkpt lat="48.02848" lon="7.31336">
        <ele>195.7</ele>
        <time>2019-08-09T17:02:55Z</time>
      </trkpt>
      <trkpt lat="48.02844" lon="7.31337">
        <ele>195.7</ele>
        <time>2019-08-09T17:02:56Z</time>
      </trkpt>
      <trkpt lat="48.0284" lon="7.31338">
        <ele>195.8</ele>
        <time>2019-08-09T17:02:57Z</time>
      </trkpt>
      <trkpt lat="48.02835" lon="7.31337">
        <ele>195.9</ele>
        <time>2019-08-09T17:02:58Z</time>
      </trkpt>
      <trkpt lat="48.02831" lon="7.31336">
        <ele>195.9</ele>
        <time>2019-08-09T17:02:59Z</time>
      </trkpt>
      <trkpt lat="48.02827" lon="7.31334">
        <ele>196</ele>
        <time>2019-08-09T17:03:00Z</time>
      </trkpt>
      <trkpt lat="48.02824" lon="7.31331">
        <ele>196</ele>
        <time>2019-08-09T17:03:01Z</time>
      </trkpt>
      <trkpt lat="48.0282" lon="7.31329">
        <ele>196.1</ele>
        <time>2019-08-09T17:03:02Z</time>
      </trkpt>
      <trkpt lat="48.02817" lon="7.31326">
        <ele>196.2</ele>
        <time>2019-08-09T17:03:03Z</time>
      </trkpt>
      <trkpt lat="48.02814" lon="7.31323">
        <ele>196.3</ele>
        <time>2019-08-09T17:03:04Z</time>
      </trkpt>
      <trkpt lat="48.02811" lon="7.31321">
        <ele>196.4</ele>
        <time>2019-08-09T17:03:05Z</time>
      </trkpt>
      <trkpt lat="48.02808" lon="7.31319">
        <ele>196.4</ele>
        <time>2019-08-09T17:03:06Z</time>
      </trkpt>
      <trkpt lat="48.02806" lon="7.31317">
        <ele>196.5</ele>
        <time>2019-08-09T17:03:07Z</time>
      </trkpt>
      <trkpt lat="48.02803" lon="7.31316">
        <ele>196.6</ele>
        <time>2019-08-09T17:03:08Z</time>
      </trkpt>
      <trkpt lat="48.02799" lon="7.31314">
        <ele>196.7</ele>
        <time>2019-08-09T17:03:09Z</time>
      </trkpt>
      <trkpt lat="48.02796" lon="7.31312">
        <ele>196.8</ele>
        <time>2019-08-09T17:03:10Z</time>
      </trkpt>
      <trkpt lat="48.02793" lon="7.3131">
        <ele>196.9</ele>
        <time>2019-08-09T17:03:11Z</time>
      </trkpt>
      <trkpt lat="48.02788" lon="7.31308">
        <ele>197.1</ele>
        <time>2019-08-09T17:03:13Z</time>
      </trkpt>
      <trkpt lat="48.02783" lon="7.31306">
        <ele>197.3</ele>
        <time>2019-08-09T17:03:15Z</time>
      </trkpt>
      <trkpt lat="48.02781" lon="7.31305">
        <ele>197.4</ele>
        <time>2019-08-09T17:03:16Z</time>
      </trkpt>
      <trkpt lat="48.02776" lon="7.31302">
        <ele>197.6</ele>
        <time>2019-08-09T17:03:18Z</time>
      </trkpt>
      <trkpt lat="48.02773" lon="7.31301">
        <ele>197.7</ele>
        <time>2019-08-09T17:03:19Z</time>
      </trkpt>
      <trkpt lat="48.0277" lon="7.31301">
        <ele>197.8</ele>
        <time>2019-08-09T17:03:20Z</time>
      </trkpt>
      <trkpt lat="48.02766" lon="7.313">
        <ele>198</ele>
        <time>2019-08-09T17:03:22Z</time>
      </trkpt>
      <trkpt lat="48.02761" lon="7.31298">
        <ele>198.1</ele>
        <time>2019-08-09T17:03:24Z</time>
      </trkpt>
      <trkpt lat="48.02759" lon="7.31297">
        <ele>198.2</ele>
        <time>2019-08-09T17:03:25Z</time>
      </trkpt>
      <trkpt lat="48.02753" lon="7.31295">
        <ele>198.4</ele>
        <time>2019-08-09T17:03:27Z</time>
      </trkpt>
      <trkpt lat="48.02748" lon="7.31291">
        <ele>198.6</ele>
        <time>2019-08-09T17:03:29Z</time>
      </trkpt>
      <trkpt lat="48.02745" lon="7.31291">
        <ele>198.7</ele>
        <time>2019-08-09T17:03:30Z</time>
      </trkpt>
      <trkpt lat="48.02741" lon="7.31288">
        <ele>198.9</ele>
        <time>2019-08-09T17:03:32Z</time>
      </trkpt>
      <trkpt lat="48.02736" lon="7.31284">
        <ele>199.1</ele>
        <time>2019-08-09T17:03:34Z</time>
      </trkpt>
      <trkpt lat="48.02733" lon="7.31284">
        <ele>199.2</ele>
        <time>2019-08-09T17:03:35Z</time>
      </trkpt>
      <trkpt lat="48.0273" lon="7.31283">
        <ele>199.3</ele>
        <time>2019-08-09T17:03:36Z</time>
      </trkpt>
      <trkpt lat="48.02725" lon="7.31281">
        <ele>199.5</ele>
        <time>2019-08-09T17:03:38Z</time>
      </trkpt>
      <trkpt lat="48.02721" lon="7.31278">
        <ele>199.7</ele>
        <time>2019-08-09T17:03:40Z</time>
      </trkpt>
      <trkpt lat="48.02717" lon="7.31273">
        <ele>199.9</ele>
        <time>2019-08-09T17:03:42Z</time>
      </trkpt>
      <trkpt lat="48.02713" lon="7.3127">
        <ele>200.1</ele>
        <time>2019-08-09T17:03:43Z</time>
      </trkpt>
      <trkpt lat="48.02711" lon="7.31267">
        <ele>200.2</ele>
        <time>2019-08-09T17:03:44Z</time>
      </trkpt>
      <trkpt lat="48.02707" lon="7.31264">
        <ele>200.3</ele>
        <time>2019-08-09T17:03:45Z</time>
      </trkpt>
      <trkpt lat="48.02704" lon="7.31262">
        <ele>200.4</ele>
        <time>2019-08-09T17:03:46Z</time>
      </trkpt>
      <trkpt lat="48.027" lon="7.31257">
        <ele>200.6</ele>
        <time>2019-08-09T17:03:48Z</time>
      </trkpt>
      <trkpt lat="48.02698" lon="7.31254">
        <ele>200.7</ele>
        <time>2019-08-09T17:03:50Z</time>
      </trkpt>
      <trkpt lat="48.02695" lon="7.3125">
        <ele>200.9</ele>
        <time>2019-08-09T17:03:52Z</time>
      </trkpt>
      <trkpt lat="48.02693" lon="7.31247">
        <ele>201.2</ele>
        <time>2019-08-09T17:03:53Z</time>
      </trkpt>
      <trkpt lat="48.02689" lon="7.31242">
        <ele>201.4</ele>
        <time>2019-08-09T17:03:55Z</time>
      </trkpt>
      <trkpt lat="48.02686" lon="7.31238">
        <ele>201.6</ele>
        <time>2019-08-09T17:03:58Z</time>
      </trkpt>
      <trkpt lat="48.02683" lon="7.31235">
        <ele>201.8</ele>
        <time>2019-08-09T17:04:00Z</time>
      </trkpt>
      <trkpt lat="48.0268" lon="7.31232">
        <ele>201.9</ele>
        <time>2019-08-09T17:04:02Z</time>
      </trkpt>
      <trkpt lat="48.02677" lon="7.31229">
        <ele>202.1</ele>
        <time>2019-08-09T17:04:03Z</time>
      </trkpt>
      <trkpt lat="48.02675" lon="7.31227">
        <ele>202.2</ele>
        <time>2019-08-09T17:04:04Z</time>
      </trkpt>
      <trkpt lat="48.02671" lon="7.31222">
        <ele>202.5</ele>
        <time>2019-08-09T17:04:06Z</time>
      </trkpt>
      <trkpt lat="48.02667" lon="7.3122">
        <ele>202.7</ele>
        <time>2019-08-09T17:04:08Z</time>
      </trkpt>
      <trkpt lat="48.02663" lon="7.31217">
        <ele>202.9</ele>
        <time>2019-08-09T17:04:10Z</time>
      </trkpt>
      <trkpt lat="48.0266" lon="7.31213">
        <ele>203.2</ele>
        <time>2019-08-09T17:04:12Z</time>
      </trkpt>
      <trkpt lat="48.02658" lon="7.31209">
        <ele>203.4</ele>
        <time>2019-08-09T17:04:14Z</time>
      </trkpt>
      <trkpt lat="48.02655" lon="7.31206">
        <ele>203.6</ele>
        <time>2019-08-09T17:04:16Z</time>
      </trkpt>
      <trkpt lat="48.02652" lon="7.31203">
        <ele>203.8</ele>
        <time>2019-08-09T17:04:18Z</time>
      </trkpt>
      <trkpt lat="48.02649" lon="7.31201">
        <ele>204</ele>
        <time>2019-08-09T17:04:20Z</time>
      </trkpt>
      <trkpt lat="48.02645" lon="7.31197">
        <ele>204.2</ele>
        <time>2019-08-09T17:04:22Z</time>
      </trkpt>
      <trkpt lat="48.02642" lon="7.31195">
        <ele>204.4</ele>
        <time>2019-08-09T17:04:24Z</time>
      </trkpt>
      <trkpt lat="48.02639" lon="7.31193">
        <ele>204.6</ele>
        <time>2019-08-09T17:04:26Z</time>
      </trkpt>
      <trkpt lat="48.02636" lon="7.3119">
        <ele>204.7</ele>
        <time>2019-08-09T17:04:28Z</time>
      </trkpt>
      <trkpt lat="48.02633" lon="7.31187">
        <ele>204.8</ele>
        <time>2019-08-09T17:04:29Z</time>
      </trkpt>
      <trkpt lat="48.0263" lon="7.31183">
        <ele>205</ele>
        <time>2019-08-09T17:04:31Z</time>
      </trkpt>
      <trkpt lat="48.02628" lon="7.31179">
        <ele>205.1</ele>
        <time>2019-08-09T17:04:33Z</time>
      </trkpt>
      <trkpt lat="48.02625" lon="7.31177">
        <ele>205.2</ele>
        <time>2019-08-09T17:04:35Z</time>
      </trkpt>
      <trkpt lat="48.02622" lon="7.31173">
        <ele>205.3</ele>
        <time>2019-08-09T17:04:37Z</time>
      </trkpt>
      <trkpt lat="48.02619" lon="7.31171">
        <ele>205.4</ele>
        <time>2019-08-09T17:04:39Z</time>
      </trkpt>
      <trkpt lat="48.02615" lon="7.31169">
        <ele>205.6</ele>
        <time>2019-08-09T17:04:41Z</time>
      </trkpt>
      <trkpt lat="48.02612" lon="7.31167">
        <ele>205.7</ele>
        <time>2019-08-09T17:04:42Z</time>
      </trkpt>
      <trkpt lat="48.0261" lon="7.31165">
        <ele>205.8</ele>
        <time>2019-08-09T17:04:44Z</time>
      </trkpt>
      <trkpt lat="48.02606" lon="7.31161">
        <ele>206</ele>
        <time>2019-08-09T17:04:45Z</time>
      </trkpt>
      <trkpt lat="48.02601" lon="7.3116">
        <ele>206.1</ele>
        <time>2019-08-09T17:04:47Z</time>
      </trkpt>
      <trkpt lat="48.02597" lon="7.31159">
        <ele>206.3</ele>
        <time>2019-08-09T17:04:49Z</time>
      </trkpt>
      <trkpt lat="48.02592" lon="7.31155">
        <ele>206.5</ele>
        <time>2019-08-09T17:04:52Z</time>
      </trkpt>
      <trkpt lat="48.02588" lon="7.31153">
        <ele>206.6</ele>
        <time>2019-08-09T17:04:54Z</time>
      </trkpt>
      <trkpt lat="48.02583" lon="7.31152">
        <ele>206.8</ele>
        <time>2019-08-09T17:04:56Z</time>
      </trkpt>
      <trkpt lat="48.02579" lon="7.3115">
        <ele>207.2</ele>
        <time>2019-08-09T17:04:58Z</time>
      </trkpt>
      <trkpt lat="48.02576" lon="7.31149">
        <ele>207.4</ele>
        <time>2019-08-09T17:05:02Z</time>
      </trkpt>
      <trkpt lat="48.02573" lon="7.31146">
        <ele>207.7</ele>
        <time>2019-08-09T17:05:05Z</time>
      </trkpt>
      <trkpt lat="48.02569" lon="7.31144">
        <ele>208</ele>
        <time>2019-08-09T17:05:07Z</time>
      </trkpt>
      <trkpt lat="48.02565" lon="7.31143">
        <ele>208.2</ele>
        <time>2019-08-09T17:05:09Z</time>
      </trkpt>
      <trkpt lat="48.02561" lon="7.31145">
        <ele>208.6</ele>
        <time>2019-08-09T17:05:11Z</time>
      </trkpt>
      <trkpt lat="48.02558" lon="7.31145">
        <ele>208.9</ele>
        <time>2019-08-09T17:05:13Z</time>
      </trkpt>
      <trkpt lat="48.02555" lon="7.31146">
        <ele>209.2</ele>
        <time>2019-08-09T17:05:15Z</time>
      </trkpt>
      <trkpt lat="48.02551" lon="7.31146">
        <ele>209.5</ele>
        <time>2019-08-09T17:05:17Z</time>
      </trkpt>
      <trkpt lat="48.02548" lon="7.31146">
        <ele>209.8</ele>
        <time>2019-08-09T17:05:18Z</time>
      </trkpt>
      <trkpt lat="48.02545" lon="7.31146">
        <ele>210.2</ele>
        <time>2019-08-09T17:05:19Z</time>
      </trkpt>
      <trkpt lat="48.02541" lon="7.31145">
        <ele>210.8</ele>
        <time>2019-08-09T17:05:21Z</time>
      </trkpt>
      <trkpt lat="48.02538" lon="7.31143">
        <ele>211.1</ele>
        <time>2019-08-09T17:05:23Z</time>
      </trkpt>
      <trkpt lat="48.02534" lon="7.31141">
        <ele>211.4</ele>
        <time>2019-08-09T17:05:25Z</time>
      </trkpt>
      <trkpt lat="48.02531" lon="7.3114">
        <ele>211.7</ele>
        <time>2019-08-09T17:05:26Z</time>
      </trkpt>
      <trkpt lat="48.02528" lon="7.31141">
        <ele>212</ele>
        <time>2019-08-09T17:05:27Z</time>
      </trkpt>
      <trkpt lat="48.02524" lon="7.31141">
        <ele>212.3</ele>
        <time>2019-08-09T17:05:29Z</time>
      </trkpt>
      <trkpt lat="48.0252" lon="7.31141">
        <ele>212.6</ele>
        <time>2019-08-09T17:05:31Z</time>
      </trkpt>
      <trkpt lat="48.02513" lon="7.31144">
        <ele>213.1</ele>
        <time>2019-08-09T17:05:33Z</time>
      </trkpt>
      <trkpt lat="48.0251" lon="7.31144">
        <ele>213.3</ele>
        <time>2019-08-09T17:05:35Z</time>
      </trkpt>
      <trkpt lat="48.02505" lon="7.31144">
        <ele>213.6</ele>
        <time>2019-08-09T17:05:37Z</time>
      </trkpt>
      <trkpt lat="48.02502" lon="7.31144">
        <ele>213.8</ele>
        <time>2019-08-09T17:05:38Z</time>
      </trkpt>
      <trkpt lat="48.02499" lon="7.31145">
        <ele>214</ele>
        <time>2019-08-09T17:05:39Z</time>
      </trkpt>
      <trkpt lat="48.02496" lon="7.31146">
        <ele>214.2</ele>
        <time>2019-08-09T17:05:40Z</time>
      </trkpt>
      <trkpt lat="48.02493" lon="7.31147">
        <ele>214.4</ele>
        <time>2019-08-09T17:05:41Z</time>
      </trkpt>
      <trkpt lat="48.0249" lon="7.31147">
        <ele>214.6</ele>
        <time>2019-08-09T17:05:42Z</time>
      </trkpt>
      <trkpt lat="48.02488" lon="7.31148">
        <ele>214.7</ele>
        <time>2019-08-09T17:05:43Z</time>
      </trkpt>
      <trkpt lat="48.02484" lon="7.31149">
        <ele>214.9</ele>
        <time>2019-08-09T17:05:44Z</time>
      </trkpt>
      <trkpt lat="48.0248" lon="7.3115">
        <ele>215.1</ele>
        <time>2019-08-09T17:05:46Z</time>
      </trkpt>
      <trkpt lat="48.02477" lon="7.31151">
        <ele>215.3</ele>
        <time>2019-08-09T17:05:48Z</time>
      </trkpt>
      <trkpt lat="48.02473" lon="7.31152">
        <ele>215.5</ele>
        <time>2019-08-09T17:05:50Z</time>
      </trkpt>
      <trkpt lat="48.0247" lon="7.31153">
        <ele>215.7</ele>
        <time>2019-08-09T17:05:52Z</time>
      </trkpt>
      <trkpt lat="48.02467" lon="7.31154">
        <ele>215.9</ele>
        <time>2019-08-09T17:05:54Z</time>
      </trkpt>
      <trkpt lat="48.02464" lon="7.31156">
        <ele>216.1</ele>
        <time>2019-08-09T17:05:56Z</time>
      </trkpt>
      <trkpt lat="48.02461" lon="7.31158">
        <ele>216.2</ele>
        <time>2019-08-09T17:05:57Z</time>
      </trkpt>
      <trkpt lat="48.02456" lon="7.3116">
        <ele>216.5</ele>
        <time>2019-08-09T17:05:59Z</time>
      </trkpt>
      <trkpt lat="48.02451" lon="7.31161">
        <ele>216.8</ele>
        <time>2019-08-09T17:06:01Z</time>
      </trkpt>
      <trkpt lat="48.02448" lon="7.31162">
        <ele>217</ele>
        <time>2019-08-09T17:06:02Z</time>
      </trkpt>
      <trkpt lat="48.02442" lon="7.31163">
        <ele>217.4</ele>
        <time>2019-08-09T17:06:04Z</time>
      </trkpt>
      <trkpt lat="48.02439" lon="7.31164">
        <ele>217.5</ele>
        <time>2019-08-09T17:06:05Z</time>
      </trkpt>
      <trkpt lat="48.02436" lon="7.31165">
        <ele>217.7</ele>
        <time>2019-08-09T17:06:06Z</time>
      </trkpt>
      <trkpt lat="48.02434" lon="7.31166">
        <ele>217.9</ele>
        <time>2019-08-09T17:06:07Z</time>
      </trkpt>
      <trkpt lat="48.02429" lon="7.31167">
        <ele>218.2</ele>
        <time>2019-08-09T17:06:09Z</time>
      </trkpt>
      <trkpt lat="48.02425" lon="7.31169">
        <ele>218.5</ele>
        <time>2019-08-09T17:06:11Z</time>
      </trkpt>
      <trkpt lat="48.0242" lon="7.31171">
        <ele>218.8</ele>
        <time>2019-08-09T17:06:14Z</time>
      </trkpt>
      <trkpt lat="48.02416" lon="7.31173">
        <ele>218.9</ele>
        <time>2019-08-09T17:06:16Z</time>
      </trkpt>
      <trkpt lat="48.02413" lon="7.31175">
        <ele>219.1</ele>
        <time>2019-08-09T17:06:17Z</time>
      </trkpt>
      <trkpt lat="48.0241" lon="7.31176">
        <ele>219.2</ele>
        <time>2019-08-09T17:06:18Z</time>
      </trkpt>
      <trkpt lat="48.02405" lon="7.31177">
        <ele>219.4</ele>
        <time>2019-08-09T17:06:20Z</time>
      </trkpt>
      <trkpt lat="48.02402" lon="7.31176">
        <ele>219.6</ele>
        <time>2019-08-09T17:06:22Z</time>
      </trkpt>
      <trkpt lat="48.02398" lon="7.31178">
        <ele>219.8</ele>
        <time>2019-08-09T17:06:24Z</time>
      </trkpt>
      <trkpt lat="48.02395" lon="7.31178">
        <ele>219.9</ele>
        <time>2019-08-09T17:06:25Z</time>
      </trkpt>
      <trkpt lat="48.02391" lon="7.31178">
        <ele>220.1</ele>
        <time>2019-08-09T17:06:27Z</time>
      </trkpt>
      <trkpt lat="48.02388" lon="7.31178">
        <ele>220.3</ele>
        <time>2019-08-09T17:06:29Z</time>
      </trkpt>
      <trkpt lat="48.02385" lon="7.31179">
        <ele>220.4</ele>
        <time>2019-08-09T17:06:31Z</time>
      </trkpt>
      <trkpt lat="48.0238" lon="7.3118">
        <ele>220.7</ele>
        <time>2019-08-09T17:06:33Z</time>
      </trkpt>
      <trkpt lat="48.02375" lon="7.3118">
        <ele>221</ele>
        <time>2019-08-09T17:06:35Z</time>
      </trkpt>
      <trkpt lat="48.0237" lon="7.3118">
        <ele>221.2</ele>
        <time>2019-08-09T17:06:37Z</time>
      </trkpt>
      <trkpt lat="48.02366" lon="7.3118">
        <ele>221.5</ele>
        <time>2019-08-09T17:06:39Z</time>
      </trkpt>
      <trkpt lat="48.02363" lon="7.3118">
        <ele>221.6</ele>
        <time>2019-08-09T17:06:40Z</time>
      </trkpt>
      <trkpt lat="48.02358" lon="7.31179">
        <ele>221.8</ele>
        <time>2019-08-09T17:06:42Z</time>
      </trkpt>
      <trkpt lat="48.02353" lon="7.3118">
        <ele>222.1</ele>
        <time>2019-08-09T17:06:45Z</time>
      </trkpt>
      <trkpt lat="48.02349" lon="7.3118">
        <ele>222.3</ele>
        <time>2019-08-09T17:06:47Z</time>
      </trkpt>
      <trkpt lat="48.02346" lon="7.31181">
        <ele>222.4</ele>
        <time>2019-08-09T17:06:49Z</time>
      </trkpt>
      <trkpt lat="48.02342" lon="7.31181">
        <ele>222.6</ele>
        <time>2019-08-09T17:06:51Z</time>
      </trkpt>
      <trkpt lat="48.02337" lon="7.3118">
        <ele>222.8</ele>
        <time>2019-08-09T17:06:53Z</time>
      </trkpt>
      <trkpt lat="48.02332" lon="7.3118">
        <ele>223.1</ele>
        <time>2019-08-09T17:06:55Z</time>
      </trkpt>
      <trkpt lat="48.02329" lon="7.31181">
        <ele>223.2</ele>
        <time>2019-08-09T17:06:56Z</time>
      </trkpt>
      <trkpt lat="48.02325" lon="7.31181">
        <ele>223.4</ele>
        <time>2019-08-09T17:06:57Z</time>
      </trkpt>
      <trkpt lat="48.02322" lon="7.31181">
        <ele>223.6</ele>
        <time>2019-08-09T17:06:59Z</time>
      </trkpt>
      <trkpt lat="48.02318" lon="7.31181">
        <ele>223.7</ele>
        <time>2019-08-09T17:07:01Z</time>
      </trkpt>
      <trkpt lat="48.02315" lon="7.31181">
        <ele>223.9</ele>
        <time>2019-08-09T17:07:03Z</time>
      </trkpt>
      <trkpt lat="48.02311" lon="7.31182">
        <ele>224.1</ele>
        <time>2019-08-09T17:07:05Z</time>
      </trkpt>
      <trkpt lat="48.02307" lon="7.31183">
        <ele>224.3</ele>
        <time>2019-08-09T17:07:07Z</time>
      </trkpt>
      <trkpt lat="48.02302" lon="7.31182">
        <ele>224.6</ele>
        <time>2019-08-09T17:07:09Z</time>
      </trkpt>
      <trkpt lat="48.02299" lon="7.31182">
        <ele>224.8</ele>
        <time>2019-08-09T17:07:10Z</time>
      </trkpt>
      <trkpt lat="48.02294" lon="7.31182">
        <ele>225</ele>
        <time>2019-08-09T17:07:12Z</time>
      </trkpt>
      <trkpt lat="48.02289" lon="7.31182">
        <ele>225.3</ele>
        <time>2019-08-09T17:07:14Z</time>
      </trkpt>
      <trkpt lat="48.02284" lon="7.31182">
        <ele>225.6</ele>
        <time>2019-08-09T17:07:16Z</time>
      </trkpt>
      <trkpt lat="48.02279" lon="7.31183">
        <ele>225.9</ele>
        <time>2019-08-09T17:07:18Z</time>
      </trkpt>
      <trkpt lat="48.02275" lon="7.31184">
        <ele>226.1</ele>
        <time>2019-08-09T17:07:20Z</time>
      </trkpt>
      <trkpt lat="48.0227" lon="7.31184">
        <ele>226.3</ele>
        <time>2019-08-09T17:07:22Z</time>
      </trkpt>
      <trkpt lat="48.02266" lon="7.31183">
        <ele>226.5</ele>
        <time>2019-08-09T17:07:24Z</time>
      </trkpt>
      <trkpt lat="48.02262" lon="7.31182">
        <ele>226.7</ele>
        <time>2019-08-09T17:07:27Z</time>
      </trkpt>
      <trkpt lat="48.02258" lon="7.31181">
        <ele>226.9</ele>
        <time>2019-08-09T17:07:30Z</time>
      </trkpt>
      <trkpt lat="48.02254" lon="7.31182">
        <ele>227.1</ele>
        <time>2019-08-09T17:07:32Z</time>
      </trkpt>
      <trkpt lat="48.02251" lon="7.31181">
        <ele>227.3</ele>
        <time>2019-08-09T17:07:34Z</time>
      </trkpt>
      <trkpt lat="48.02248" lon="7.3118">
        <ele>227.5</ele>
        <time>2019-08-09T17:07:36Z</time>
      </trkpt>
      <trkpt lat="48.02244" lon="7.31178">
        <ele>227.8</ele>
        <time>2019-08-09T17:07:38Z</time>
      </trkpt>
      <trkpt lat="48.02239" lon="7.31177">
        <ele>228.1</ele>
        <time>2019-08-09T17:07:40Z</time>
      </trkpt>
      <trkpt lat="48.02236" lon="7.31178">
        <ele>228.4</ele>
        <time>2019-08-09T17:07:41Z</time>
      </trkpt>
      <trkpt lat="48.02233" lon="7.31178">
        <ele>228.6</ele>
        <time>2019-08-09T17:07:42Z</time>
      </trkpt>
      <trkpt lat="48.0223" lon="7.31179">
        <ele>228.8</ele>
        <time>2019-08-09T17:07:43Z</time>
      </trkpt>
      <trkpt lat="48.02225" lon="7.31178">
        <ele>229</ele>
        <time>2019-08-09T17:07:45Z</time>
      </trkpt>
      <trkpt lat="48.02221" lon="7.31178">
        <ele>229.2</ele>
        <time>2019-08-09T17:07:47Z</time>
      </trkpt>
      <trkpt lat="48.02217" lon="7.31177">
        <ele>229.4</ele>
        <time>2019-08-09T17:07:49Z</time>
      </trkpt>
      <trkpt lat="48.02214" lon="7.31178">
        <ele>229.5</ele>
        <time>2019-08-09T17:07:50Z</time>
      </trkpt>
      <trkpt lat="48.0221" lon="7.31178">
        <ele>229.7</ele>
        <time>2019-08-09T17:07:52Z</time>
      </trkpt>
      <trkpt lat="48.02207" lon="7.31177">
        <ele>229.8</ele>
        <time>2019-08-09T17:07:53Z</time>
      </trkpt>
      <trkpt lat="48.02202" lon="7.31175">
        <ele>230.1</ele>
        <time>2019-08-09T17:07:55Z</time>
      </trkpt>
      <trkpt lat="48.022" lon="7.31173">
        <ele>230.2</ele>
        <time>2019-08-09T17:07:56Z</time>
      </trkpt>
      <trkpt lat="48.02195" lon="7.31171">
        <ele>230.5</ele>
        <time>2019-08-09T17:07:58Z</time>
      </trkpt>
      <trkpt lat="48.02192" lon="7.3117">
        <ele>230.6</ele>
        <time>2019-08-09T17:07:59Z</time>
      </trkpt>
      <trkpt lat="48.02188" lon="7.31169">
        <ele>230.8</ele>
        <time>2019-08-09T17:08:01Z</time>
      </trkpt>
      <trkpt lat="48.02183" lon="7.31168">
        <ele>231.1</ele>
        <time>2019-08-09T17:08:03Z</time>
      </trkpt>
      <trkpt lat="48.02178" lon="7.31167">
        <ele>231.4</ele>
        <time>2019-08-09T17:08:05Z</time>
      </trkpt>
      <trkpt lat="48.02174" lon="7.31166">
        <ele>231.6</ele>
        <time>2019-08-09T17:08:07Z</time>
      </trkpt>
      <trkpt lat="48.0217" lon="7.31166">
        <ele>231.9</ele>
        <time>2019-08-09T17:08:09Z</time>
      </trkpt>
      <trkpt lat="48.02165" lon="7.31166">
        <ele>232.2</ele>
        <time>2019-08-09T17:08:11Z</time>
      </trkpt>
      <trkpt lat="48.02159" lon="7.31163">
        <ele>232.7</ele>
        <time>2019-08-09T17:08:13Z</time>
      </trkpt>
      <trkpt lat="48.02156" lon="7.31162">
        <ele>232.9</ele>
        <time>2019-08-09T17:08:14Z</time>
      </trkpt>
      <trkpt lat="48.02154" lon="7.31161">
        <ele>233.1</ele>
        <time>2019-08-09T17:08:15Z</time>
      </trkpt>
      <trkpt lat="48.0215" lon="7.3116">
        <ele>233.4</ele>
        <time>2019-08-09T17:08:17Z</time>
      </trkpt>
      <trkpt lat="48.02146" lon="7.31158">
        <ele>233.7</ele>
        <time>2019-08-09T17:08:19Z</time>
      </trkpt>
      <trkpt lat="48.02143" lon="7.31159">
        <ele>233.8</ele>
        <time>2019-08-09T17:08:21Z</time>
      </trkpt>
      <trkpt lat="48.0214" lon="7.31159">
        <ele>234</ele>
        <time>2019-08-09T17:08:24Z</time>
      </trkpt>
      <trkpt lat="48.02137" lon="7.31159">
        <ele>234.2</ele>
        <time>2019-08-09T17:08:58Z</time>
      </trkpt>
      <trkpt lat="48.02134" lon="7.31158">
        <ele>234.4</ele>
        <time>2019-08-09T17:09:00Z</time>
      </trkpt>
      <trkpt lat="48.0213" lon="7.31155">
        <ele>234.6</ele>
        <time>2019-08-09T17:09:02Z</time>
      </trkpt>
      <trkpt lat="48.02126" lon="7.31153">
        <ele>234.8</ele>
        <time>2019-08-09T17:09:04Z</time>
      </trkpt>
      <trkpt lat="48.02121" lon="7.31151">
        <ele>235.1</ele>
        <time>2019-08-09T17:09:06Z</time>
      </trkpt>
      <trkpt lat="48.02116" lon="7.3115">
        <ele>235.3</ele>
        <time>2019-08-09T17:09:08Z</time>
      </trkpt>
      <trkpt lat="48.02113" lon="7.31149">
        <ele>235.5</ele>
        <time>2019-08-09T17:09:09Z</time>
      </trkpt>
      <trkpt lat="48.02109" lon="7.31149">
        <ele>235.6</ele>
        <time>2019-08-09T17:09:10Z</time>
      </trkpt>
      <trkpt lat="48.02106" lon="7.31149">
        <ele>235.8</ele>
        <time>2019-08-09T17:09:11Z</time>
      </trkpt>
      <trkpt lat="48.02102" lon="7.31148">
        <ele>235.9</ele>
        <time>2019-08-09T17:09:12Z</time>
      </trkpt>
      <trkpt lat="48.02099" lon="7.31148">
        <ele>236.1</ele>
        <time>2019-08-09T17:09:13Z</time>
      </trkpt>
      <trkpt lat="48.02094" lon="7.31147">
        <ele>236.2</ele>
        <time>2019-08-09T17:09:14Z</time>
      </trkpt>
      <trkpt lat="48.02089" lon="7.31147">
        <ele>236.4</ele>
        <time>2019-08-09T17:09:15Z</time>
      </trkpt>
      <trkpt lat="48.02084" lon="7.31148">
        <ele>236.6</ele>
        <time>2019-08-09T17:09:16Z</time>
      </trkpt>
      <trkpt lat="48.02081" lon="7.31147">
        <ele>236.7</ele>
        <time>2019-08-09T17:09:17Z</time>
      </trkpt>
      <trkpt lat="48.02076" lon="7.31147">
        <ele>236.8</ele>
        <time>2019-08-09T17:09:18Z</time>
      </trkpt>
      <trkpt lat="48.02072" lon="7.31147">
        <ele>236.9</ele>
        <time>2019-08-09T17:09:19Z</time>
      </trkpt>
      <trkpt lat="48.02068" lon="7.31146">
        <ele>237.1</ele>
        <time>2019-08-09T17:09:20Z</time>
      </trkpt>
      <trkpt lat="48.02064" lon="7.31146">
        <ele>237.1</ele>
        <time>2019-08-09T17:09:21Z</time>
      </trkpt>
      <trkpt lat="48.02059" lon="7.31146">
        <ele>237</ele>
        <time>2019-08-09T17:09:22Z</time>
      </trkpt>
      <trkpt lat="48.02054" lon="7.31146">
        <ele>236</ele>
        <time>2019-08-09T17:09:23Z</time>
      </trkpt>
      <trkpt lat="48.02048" lon="7.31146">
        <ele>235.1</ele>
        <time>2019-08-09T17:09:24Z</time>
      </trkpt>
      <trkpt lat="48.02042" lon="7.31145">
        <ele>234.2</ele>
        <time>2019-08-09T17:09:25Z</time>
      </trkpt>
      <trkpt lat="48.02035" lon="7.31144">
        <ele>233</ele>
        <time>2019-08-09T17:09:26Z</time>
      </trkpt>
      <trkpt lat="48.02028" lon="7.31143">
        <ele>232</ele>
        <time>2019-08-09T17:09:27Z</time>
      </trkpt>
      <trkpt lat="48.02021" lon="7.31142">
        <ele>231.2</ele>
        <time>2019-08-09T17:09:28Z</time>
      </trkpt>
      <trkpt lat="48.02014" lon="7.3114">
        <ele>230.4</ele>
        <time>2019-08-09T17:09:29Z</time>
      </trkpt>
      <trkpt lat="48.02006" lon="7.31137">
        <ele>229.3</ele>
        <time>2019-08-09T17:09:30Z</time>
      </trkpt>
      <trkpt lat="48.01997" lon="7.31134">
        <ele>227.8</ele>
        <time>2019-08-09T17:09:31Z</time>
      </trkpt>
      <trkpt lat="48.01988" lon="7.31131">
        <ele>226.3</ele>
        <time>2019-08-09T17:09:32Z</time>
      </trkpt>
      <trkpt lat="48.01979" lon="7.31127">
        <ele>224.7</ele>
        <time>2019-08-09T17:09:33Z</time>
      </trkpt>
      <trkpt lat="48.0197" lon="7.31123">
        <ele>223.1</ele>
        <time>2019-08-09T17:09:34Z</time>
      </trkpt>
      <trkpt lat="48.01961" lon="7.31119">
        <ele>221.5</ele>
        <time>2019-08-09T17:09:35Z</time>
      </trkpt>
      <trkpt lat="48.01952" lon="7.31116">
        <ele>219.9</ele>
        <time>2019-08-09T17:09:36Z</time>
      </trkpt>
      <trkpt lat="48.01943" lon="7.31111">
        <ele>218.3</ele>
        <time>2019-08-09T17:09:37Z</time>
      </trkpt>
      <trkpt lat="48.01935" lon="7.31106">
        <ele>217</ele>
        <time>2019-08-09T17:09:38Z</time>
      </trkpt>
      <trkpt lat="48.01928" lon="7.311">
        <ele>217</ele>
        <time>2019-08-09T17:09:39Z</time>
      </trkpt>
      <trkpt lat="48.0192" lon="7.31092">
        <ele>217</ele>
        <time>2019-08-09T17:09:40Z</time>
      </trkpt>
      <trkpt lat="48.01913" lon="7.31084">
        <ele>217.1</ele>
        <time>2019-08-09T17:09:41Z</time>
      </trkpt>
      <trkpt lat="48.01906" lon="7.31076">
        <ele>217.1</ele>
        <time>2019-08-09T17:09:42Z</time>
      </trkpt>
      <trkpt lat="48.01899" lon="7.31068">
        <ele>217.2</ele>
        <time>2019-08-09T17:09:43Z</time>
      </trkpt>
      <trkpt lat="48.01892" lon="7.31062">
        <ele>217.3</ele>
        <time>2019-08-09T17:09:44Z</time>
      </trkpt>
      <trkpt lat="48.01885" lon="7.31055">
        <ele>217.4</ele>
        <time>2019-08-09T17:09:45Z</time>
      </trkpt>
      <trkpt lat="48.01878" lon="7.31048">
        <ele>217.5</ele>
        <time>2019-08-09T17:09:46Z</time>
      </trkpt>
      <trkpt lat="48.01872" lon="7.31041">
        <ele>217.6</ele>
        <time>2019-08-09T17:09:47Z</time>
      </trkpt>
      <trkpt lat="48.01865" lon="7.31035">
        <ele>217.7</ele>
        <time>2019-08-09T17:09:48Z</time>
      </trkpt>
      <trkpt lat="48.01859" lon="7.31028">
        <ele>217.8</ele>
        <time>2019-08-09T17:09:49Z</time>
      </trkpt>
      <trkpt lat="48.01853" lon="7.31022">
        <ele>217.9</ele>
        <time>2019-08-09T17:09:50Z</time>
      </trkpt>
      <trkpt lat="48.01846" lon="7.31016">
        <ele>218</ele>
        <time>2019-08-09T17:09:51Z</time>
      </trkpt>
      <trkpt lat="48.0184" lon="7.31011">
        <ele>218.1</ele>
        <time>2019-08-09T17:09:52Z</time>
      </trkpt>
      <trkpt lat="48.01834" lon="7.31005">
        <ele>218.2</ele>
        <time>2019-08-09T17:09:53Z</time>
      </trkpt>
      <trkpt lat="48.01829" lon="7.30999">
        <ele>218.3</ele>
        <time>2019-08-09T17:09:54Z</time>
      </trkpt>
      <trkpt lat="48.01823" lon="7.30994">
        <ele>218.5</ele>
        <time>2019-08-09T17:09:55Z</time>
      </trkpt>
      <trkpt lat="48.01817" lon="7.30988">
        <ele>218.6</ele>
        <time>2019-08-09T17:09:56Z</time>
      </trkpt>
      <trkpt lat="48.01812" lon="7.30983">
        <ele>218.7</ele>
        <time>2019-08-09T17:09:57Z</time>
      </trkpt>
      <trkpt lat="48.01806" lon="7.30978">
        <ele>218.8</ele>
        <time>2019-08-09T17:09:58Z</time>
      </trkpt>
      <trkpt lat="48.01801" lon="7.30973">
        <ele>218.9</ele>
        <time>2019-08-09T17:09:59Z</time>
      </trkpt>
      <trkpt lat="48.01796" lon="7.30967">
        <ele>219</ele>
        <time>2019-08-09T17:10:00Z</time>
      </trkpt>
      <trkpt lat="48.01791" lon="7.30962">
        <ele>219.1</ele>
        <time>2019-08-09T17:10:01Z</time>
      </trkpt>
      <trkpt lat="48.01786" lon="7.30957">
        <ele>219.3</ele>
        <time>2019-08-09T17:10:02Z</time>
      </trkpt>
      <trkpt lat="48.01781" lon="7.30952">
        <ele>219.3</ele>
        <time>2019-08-09T17:10:03Z</time>
      </trkpt>
      <trkpt lat="48.01777" lon="7.30947">
        <ele>219.4</ele>
        <time>2019-08-09T17:10:04Z</time>
      </trkpt>
      <trkpt lat="48.01772" lon="7.30942">
        <ele>219.5</ele>
        <time>2019-08-09T17:10:05Z</time>
      </trkpt>
      <trkpt lat="48.01768" lon="7.30938">
        <ele>219.6</ele>
        <time>2019-08-09T17:10:06Z</time>
      </trkpt>
      <trkpt lat="48.01764" lon="7.30933">
        <ele>219.5</ele>
        <time>2019-08-09T17:10:07Z</time>
      </trkpt>
      <trkpt lat="48.0176" lon="7.30929">
        <ele>219.3</ele>
        <time>2019-08-09T17:10:08Z</time>
      </trkpt>
      <trkpt lat="48.01755" lon="7.30925">
        <ele>219.1</ele>
        <time>2019-08-09T17:10:09Z</time>
      </trkpt>
      <trkpt lat="48.01751" lon="7.30921">
        <ele>218.9</ele>
        <time>2019-08-09T17:10:10Z</time>
      </trkpt>
      <trkpt lat="48.01747" lon="7.30917">
        <ele>218.8</ele>
        <time>2019-08-09T17:10:11Z</time>
      </trkpt>
      <trkpt lat="48.01743" lon="7.30913">
        <ele>218.6</ele>
        <time>2019-08-09T17:10:12Z</time>
      </trkpt>
      <trkpt lat="48.01739" lon="7.3091">
        <ele>218.5</ele>
        <time>2019-08-09T17:10:13Z</time>
      </trkpt>
      <trkpt lat="48.01735" lon="7.30906">
        <ele>218.3</ele>
        <time>2019-08-09T17:10:14Z</time>
      </trkpt>
      <trkpt lat="48.0173" lon="7.30902">
        <ele>218.2</ele>
        <time>2019-08-09T17:10:15Z</time>
      </trkpt>
      <trkpt lat="48.01726" lon="7.30897">
        <ele>218.1</ele>
        <time>2019-08-09T17:10:16Z</time>
      </trkpt>
      <trkpt lat="48.01722" lon="7.30893">
        <ele>218</ele>
        <time>2019-08-09T17:10:17Z</time>
      </trkpt>
      <trkpt lat="48.01719" lon="7.30888">
        <ele>217.9</ele>
        <time>2019-08-09T17:10:18Z</time>
      </trkpt>
      <trkpt lat="48.01715" lon="7.30884">
        <ele>217.8</ele>
        <time>2019-08-09T17:10:19Z</time>
      </trkpt>
      <trkpt lat="48.0171" lon="7.30881">
        <ele>217.7</ele>
        <time>2019-08-09T17:10:20Z</time>
      </trkpt>
      <trkpt lat="48.01706" lon="7.30877">
        <ele>217.6</ele>
        <time>2019-08-09T17:10:21Z</time>
      </trkpt>
      <trkpt lat="48.01702" lon="7.30874">
        <ele>217.5</ele>
        <time>2019-08-09T17:10:22Z</time>
      </trkpt>
      <trkpt lat="48.01699" lon="7.3087">
        <ele>217.4</ele>
        <time>2019-08-09T17:10:23Z</time>
      </trkpt>
      <trkpt lat="48.01695" lon="7.30867">
        <ele>217.3</ele>
        <time>2019-08-09T17:10:24Z</time>
      </trkpt>
      <trkpt lat="48.01692" lon="7.30863">
        <ele>217.2</ele>
        <time>2019-08-09T17:10:25Z</time>
      </trkpt>
      <trkpt lat="48.01689" lon="7.3086">
        <ele>217.1</ele>
        <time>2019-08-09T17:10:26Z</time>
      </trkpt>
      <trkpt lat="48.01686" lon="7.30857">
        <ele>217.1</ele>
        <time>2019-08-09T17:10:27Z</time>
      </trkpt>
      <trkpt lat="48.01682" lon="7.30854">
        <ele>217</ele>
        <time>2019-08-09T17:10:28Z</time>
      </trkpt>
      <trkpt lat="48.0168" lon="7.3085">
        <ele>217</ele>
        <time>2019-08-09T17:10:29Z</time>
      </trkpt>
      <trkpt lat="48.01677" lon="7.30847">
        <ele>216.9</ele>
        <time>2019-08-09T17:10:30Z</time>
      </trkpt>
      <trkpt lat="48.01674" lon="7.30846">
        <ele>216.9</ele>
        <time>2019-08-09T17:10:32Z</time>
      </trkpt>
      <trkpt lat="48.01672" lon="7.30849">
        <ele>216.9</ele>
        <time>2019-08-09T17:10:47Z</time>
      </trkpt>
      <trkpt lat="48.0167" lon="7.30846">
        <ele>216.9</ele>
        <time>2019-08-09T17:10:55Z</time>
      </trkpt>
      <trkpt lat="48.01666" lon="7.30845">
        <ele>217.1</ele>
        <time>2019-08-09T17:10:57Z</time>
      </trkpt>
      <trkpt lat="48.01663" lon="7.30843">
        <ele>217.3</ele>
        <time>2019-08-09T17:10:58Z</time>
      </trkpt>
      <trkpt lat="48.0166" lon="7.3084">
        <ele>217.4</ele>
        <time>2019-08-09T17:10:59Z</time>
      </trkpt>
      <trkpt lat="48.01656" lon="7.30837">
        <ele>217.6</ele>
        <time>2019-08-09T17:11:00Z</time>
      </trkpt>
      <trkpt lat="48.01652" lon="7.30833">
        <ele>217.7</ele>
        <time>2019-08-09T17:11:01Z</time>
      </trkpt>
      <trkpt lat="48.01648" lon="7.30829">
        <ele>217.8</ele>
        <time>2019-08-09T17:11:02Z</time>
      </trkpt>
      <trkpt lat="48.01644" lon="7.30826">
        <ele>217.8</ele>
        <time>2019-08-09T17:11:03Z</time>
      </trkpt>
      <trkpt lat="48.01641" lon="7.30822">
        <ele>217.8</ele>
        <time>2019-08-09T17:11:04Z</time>
      </trkpt>
      <trkpt lat="48.01637" lon="7.30817">
        <ele>217.9</ele>
        <time>2019-08-09T17:11:05Z</time>
      </trkpt>
      <trkpt lat="48.01633" lon="7.30813">
        <ele>217.9</ele>
        <time>2019-08-09T17:11:06Z</time>
      </trkpt>
      <trkpt lat="48.01629" lon="7.3081">
        <ele>217.9</ele>
        <time>2019-08-09T17:11:07Z</time>
      </trkpt>
      <trkpt lat="48.01625" lon="7.30807">
        <ele>217.9</ele>
        <time>2019-08-09T17:11:08Z</time>
      </trkpt>
      <trkpt lat="48.0162" lon="7.30804">
        <ele>217.9</ele>
        <time>2019-08-09T17:11:09Z</time>
      </trkpt>
      <trkpt lat="48.01616" lon="7.30801">
        <ele>217.9</ele>
        <time>2019-08-09T17:11:10Z</time>
      </trkpt>
      <trkpt lat="48.01612" lon="7.30799">
        <ele>217.9</ele>
        <time>2019-08-09T17:11:11Z</time>
      </trkpt>
      <trkpt lat="48.01606" lon="7.30797">
        <ele>217.9</ele>
        <time>2019-08-09T17:11:12Z</time>
      </trkpt>
      <trkpt lat="48.01603" lon="7.30796">
        <ele>217.9</ele>
        <time>2019-08-09T17:11:13Z</time>
      </trkpt>
      <trkpt lat="48.01598" lon="7.30794">
        <ele>217.8</ele>
        <time>2019-08-09T17:11:14Z</time>
      </trkpt>
      <trkpt lat="48.01593" lon="7.30792">
        <ele>217.8</ele>
        <time>2019-08-09T17:11:15Z</time>
      </trkpt>
      <trkpt lat="48.01587" lon="7.3079">
        <ele>217.8</ele>
        <time>2019-08-09T17:11:16Z</time>
      </trkpt>
      <trkpt lat="48.01583" lon="7.30789">
        <ele>217.7</ele>
        <time>2019-08-09T17:11:17Z</time>
      </trkpt>
      <trkpt lat="48.01578" lon="7.30787">
        <ele>217.6</ele>
        <time>2019-08-09T17:11:18Z</time>
      </trkpt>
      <trkpt lat="48.01572" lon="7.30786">
        <ele>217.5</ele>
        <time>2019-08-09T17:11:19Z</time>
      </trkpt>
      <trkpt lat="48.01565" lon="7.30784">
        <ele>217.3</ele>
        <time>2019-08-09T17:11:20Z</time>
      </trkpt>
      <trkpt lat="48.01559" lon="7.30783">
        <ele>217.2</ele>
        <time>2019-08-09T17:11:21Z</time>
      </trkpt>
      <trkpt lat="48.01554" lon="7.30782">
        <ele>217.1</ele>
        <time>2019-08-09T17:11:22Z</time>
      </trkpt>
      <trkpt lat="48.01549" lon="7.30781">
        <ele>217</ele>
        <time>2019-08-09T17:11:23Z</time>
      </trkpt>
      <trkpt lat="48.01543" lon="7.30779">
        <ele>216.9</ele>
        <time>2019-08-09T17:11:24Z</time>
      </trkpt>
      <trkpt lat="48.01538" lon="7.30778">
        <ele>216.9</ele>
        <time>2019-08-09T17:11:25Z</time>
      </trkpt>
      <trkpt lat="48.01534" lon="7.30777">
        <ele>216.8</ele>
        <time>2019-08-09T17:11:26Z</time>
      </trkpt>
      <trkpt lat="48.0153" lon="7.30775">
        <ele>216.8</ele>
        <time>2019-08-09T17:11:27Z</time>
      </trkpt>
      <trkpt lat="48.01527" lon="7.30774">
        <ele>216.7</ele>
        <time>2019-08-09T17:11:28Z</time>
      </trkpt>
      <trkpt lat="48.01522" lon="7.30773">
        <ele>216.6</ele>
        <time>2019-08-09T17:11:29Z</time>
      </trkpt>
      <trkpt lat="48.01518" lon="7.30772">
        <ele>216.5</ele>
        <time>2019-08-09T17:11:30Z</time>
      </trkpt>
      <trkpt lat="48.01514" lon="7.30771">
        <ele>216.3</ele>
        <time>2019-08-09T17:11:31Z</time>
      </trkpt>
      <trkpt lat="48.0151" lon="7.3077">
        <ele>216.1</ele>
        <time>2019-08-09T17:11:32Z</time>
      </trkpt>
      <trkpt lat="48.01506" lon="7.30769">
        <ele>216</ele>
        <time>2019-08-09T17:11:33Z</time>
      </trkpt>
      <trkpt lat="48.01501" lon="7.30768">
        <ele>215.7</ele>
        <time>2019-08-09T17:11:34Z</time>
      </trkpt>
      <trkpt lat="48.01496" lon="7.30767">
        <ele>215.5</ele>
        <time>2019-08-09T17:11:35Z</time>
      </trkpt>
      <trkpt lat="48.01492" lon="7.30766">
        <ele>215.3</ele>
        <time>2019-08-09T17:11:36Z</time>
      </trkpt>
      <trkpt lat="48.01489" lon="7.30765">
        <ele>215.2</ele>
        <time>2019-08-09T17:11:37Z</time>
      </trkpt>
      <trkpt lat="48.01486" lon="7.30765">
        <ele>215.1</ele>
        <time>2019-08-09T17:11:38Z</time>
      </trkpt>
      <trkpt lat="48.01482" lon="7.30764">
        <ele>215</ele>
        <time>2019-08-09T17:11:40Z</time>
      </trkpt>
      <trkpt lat="48.01479" lon="7.30762">
        <ele>214.9</ele>
        <time>2019-08-09T17:11:41Z</time>
      </trkpt>
      <trkpt lat="48.01475" lon="7.30761">
        <ele>214.9</ele>
        <time>2019-08-09T17:11:42Z</time>
      </trkpt>
      <trkpt lat="48.01472" lon="7.30759">
        <ele>214.8</ele>
        <time>2019-08-09T17:11:43Z</time>
      </trkpt>
      <trkpt lat="48.01469" lon="7.30758">
        <ele>214.8</ele>
        <time>2019-08-09T17:11:44Z</time>
      </trkpt>
      <trkpt lat="48.01463" lon="7.30755">
        <ele>214.7</ele>
        <time>2019-08-09T17:11:46Z</time>
      </trkpt>
      <trkpt lat="48.01459" lon="7.30753">
        <ele>214.7</ele>
        <time>2019-08-09T17:11:47Z</time>
      </trkpt>
      <trkpt lat="48.01456" lon="7.30752">
        <ele>214.6</ele>
        <time>2019-08-09T17:11:48Z</time>
      </trkpt>
      <trkpt lat="48.01453" lon="7.3075">
        <ele>214.5</ele>
        <time>2019-08-09T17:11:49Z</time>
      </trkpt>
      <trkpt lat="48.01449" lon="7.30749">
        <ele>214.4</ele>
        <time>2019-08-09T17:11:50Z</time>
      </trkpt>
      <trkpt lat="48.01445" lon="7.30747">
        <ele>214.3</ele>
        <time>2019-08-09T17:11:51Z</time>
      </trkpt>
      <trkpt lat="48.01442" lon="7.30745">
        <ele>214.2</ele>
        <time>2019-08-09T17:11:52Z</time>
      </trkpt>
      <trkpt lat="48.01438" lon="7.30744">
        <ele>214.1</ele>
        <time>2019-08-09T17:11:53Z</time>
      </trkpt>
      <trkpt lat="48.01434" lon="7.30741">
        <ele>213.9</ele>
        <time>2019-08-09T17:11:54Z</time>
      </trkpt>
      <trkpt lat="48.0143" lon="7.30739">
        <ele>213.8</ele>
        <time>2019-08-09T17:11:55Z</time>
      </trkpt>
      <trkpt lat="48.01427" lon="7.30737">
        <ele>213.6</ele>
        <time>2019-08-09T17:11:56Z</time>
      </trkpt>
      <trkpt lat="48.01423" lon="7.30734">
        <ele>213.5</ele>
        <time>2019-08-09T17:11:57Z</time>
      </trkpt>
      <trkpt lat="48.01419" lon="7.30733">
        <ele>213.3</ele>
        <time>2019-08-09T17:11:58Z</time>
      </trkpt>
      <trkpt lat="48.01415" lon="7.30731">
        <ele>213.1</ele>
        <time>2019-08-09T17:11:59Z</time>
      </trkpt>
      <trkpt lat="48.01411" lon="7.30729">
        <ele>212.9</ele>
        <time>2019-08-09T17:12:00Z</time>
      </trkpt>
      <trkpt lat="48.01406" lon="7.30727">
        <ele>212.6</ele>
        <time>2019-08-09T17:12:01Z</time>
      </trkpt>
      <trkpt lat="48.01401" lon="7.30725">
        <ele>212.4</ele>
        <time>2019-08-09T17:12:02Z</time>
      </trkpt>
      <trkpt lat="48.01396" lon="7.30723">
        <ele>212.1</ele>
        <time>2019-08-09T17:12:03Z</time>
      </trkpt>
      <trkpt lat="48.0139" lon="7.3072">
        <ele>211.9</ele>
        <time>2019-08-09T17:12:04Z</time>
      </trkpt>
      <trkpt lat="48.01385" lon="7.30718">
        <ele>211.9</ele>
        <time>2019-08-09T17:12:05Z</time>
      </trkpt>
      <trkpt lat="48.01379" lon="7.30716">
        <ele>211.8</ele>
        <time>2019-08-09T17:12:06Z</time>
      </trkpt>
      <trkpt lat="48.01374" lon="7.30713">
        <ele>211.7</ele>
        <time>2019-08-09T17:12:07Z</time>
      </trkpt>
      <trkpt lat="48.01368" lon="7.30711">
        <ele>211.6</ele>
        <time>2019-08-09T17:12:08Z</time>
      </trkpt>
      <trkpt lat="48.01363" lon="7.30709">
        <ele>211.5</ele>
        <time>2019-08-09T17:12:09Z</time>
      </trkpt>
      <trkpt lat="48.01358" lon="7.30705">
        <ele>211.4</ele>
        <time>2019-08-09T17:12:10Z</time>
      </trkpt>
      <trkpt lat="48.01352" lon="7.30702">
        <ele>211.3</ele>
        <time>2019-08-09T17:12:11Z</time>
      </trkpt>
      <trkpt lat="48.01347" lon="7.30699">
        <ele>211.2</ele>
        <time>2019-08-09T17:12:12Z</time>
      </trkpt>
      <trkpt lat="48.01342" lon="7.30697">
        <ele>211</ele>
        <time>2019-08-09T17:12:13Z</time>
      </trkpt>
      <trkpt lat="48.01337" lon="7.30694">
        <ele>210.9</ele>
        <time>2019-08-09T17:12:14Z</time>
      </trkpt>
      <trkpt lat="48.01332" lon="7.30691">
        <ele>210.8</ele>
        <time>2019-08-09T17:12:15Z</time>
      </trkpt>
      <trkpt lat="48.01326" lon="7.30688">
        <ele>210.7</ele>
        <time>2019-08-09T17:12:16Z</time>
      </trkpt>
      <trkpt lat="48.01321" lon="7.30685">
        <ele>210.6</ele>
        <time>2019-08-09T17:12:17Z</time>
      </trkpt>
      <trkpt lat="48.01315" lon="7.30681">
        <ele>210.5</ele>
        <time>2019-08-09T17:12:18Z</time>
      </trkpt>
      <trkpt lat="48.01309" lon="7.30677">
        <ele>210.3</ele>
        <time>2019-08-09T17:12:19Z</time>
      </trkpt>
      <trkpt lat="48.01304" lon="7.30673">
        <ele>210.2</ele>
        <time>2019-08-09T17:12:20Z</time>
      </trkpt>
      <trkpt lat="48.01299" lon="7.30669">
        <ele>210.1</ele>
        <time>2019-08-09T17:12:21Z</time>
      </trkpt>
      <trkpt lat="48.01293" lon="7.30665">
        <ele>210</ele>
        <time>2019-08-09T17:12:22Z</time>
      </trkpt>
      <trkpt lat="48.01288" lon="7.30662">
        <ele>209.9</ele>
        <time>2019-08-09T17:12:23Z</time>
      </trkpt>
      <trkpt lat="48.01284" lon="7.30659">
        <ele>209.9</ele>
        <time>2019-08-09T17:12:24Z</time>
      </trkpt>
      <trkpt lat="48.01279" lon="7.30656">
        <ele>209.8</ele>
        <time>2019-08-09T17:12:25Z</time>
      </trkpt>
      <trkpt lat="48.01275" lon="7.30652">
        <ele>209.7</ele>
        <time>2019-08-09T17:12:26Z</time>
      </trkpt>
      <trkpt lat="48.0127" lon="7.30649">
        <ele>209.5</ele>
        <time>2019-08-09T17:12:27Z</time>
      </trkpt>
      <trkpt lat="48.01265" lon="7.30644">
        <ele>209.3</ele>
        <time>2019-08-09T17:12:28Z</time>
      </trkpt>
      <trkpt lat="48.0126" lon="7.30638">
        <ele>209</ele>
        <time>2019-08-09T17:12:29Z</time>
      </trkpt>
      <trkpt lat="48.01256" lon="7.3063">
        <ele>208.8</ele>
        <time>2019-08-09T17:12:30Z</time>
      </trkpt>
      <trkpt lat="48.01252" lon="7.30622">
        <ele>208.6</ele>
        <time>2019-08-09T17:12:31Z</time>
      </trkpt>
      <trkpt lat="48.01249" lon="7.30614">
        <ele>208.4</ele>
        <time>2019-08-09T17:12:32Z</time>
      </trkpt>
      <trkpt lat="48.01246" lon="7.30606">
        <ele>208.2</ele>
        <time>2019-08-09T17:12:33Z</time>
      </trkpt>
      <trkpt lat="48.01243" lon="7.30598">
        <ele>208.1</ele>
        <time>2019-08-09T17:12:34Z</time>
      </trkpt>
      <trkpt lat="48.01241" lon="7.3059">
        <ele>207.9</ele>
        <time>2019-08-09T17:12:35Z</time>
      </trkpt>
      <trkpt lat="48.01238" lon="7.30581">
        <ele>207.7</ele>
        <time>2019-08-09T17:12:36Z</time>
      </trkpt>
      <trkpt lat="48.01236" lon="7.30573">
        <ele>207.5</ele>
        <time>2019-08-09T17:12:37Z</time>
      </trkpt>
      <trkpt lat="48.01233" lon="7.30564">
        <ele>207.3</ele>
        <time>2019-08-09T17:12:38Z</time>
      </trkpt>
      <trkpt lat="48.01231" lon="7.30556">
        <ele>207.1</ele>
        <time>2019-08-09T17:12:39Z</time>
      </trkpt>
      <trkpt lat="48.01229" lon="7.30548">
        <ele>206.9</ele>
        <time>2019-08-09T17:12:40Z</time>
      </trkpt>
      <trkpt lat="48.01226" lon="7.3054">
        <ele>206.7</ele>
        <time>2019-08-09T17:12:41Z</time>
      </trkpt>
      <trkpt lat="48.01224" lon="7.30532">
        <ele>206.5</ele>
        <time>2019-08-09T17:12:42Z</time>
      </trkpt>
      <trkpt lat="48.01221" lon="7.30523">
        <ele>206.3</ele>
        <time>2019-08-09T17:12:43Z</time>
      </trkpt>
      <trkpt lat="48.01218" lon="7.30515">
        <ele>206.1</ele>
        <time>2019-08-09T17:12:44Z</time>
      </trkpt>
      <trkpt lat="48.01215" lon="7.30506">
        <ele>205.8</ele>
        <time>2019-08-09T17:12:45Z</time>
      </trkpt>
      <trkpt lat="48.01212" lon="7.30498">
        <ele>205.6</ele>
        <time>2019-08-09T17:12:46Z</time>
      </trkpt>
      <trkpt lat="48.01209" lon="7.3049">
        <ele>205.3</ele>
        <time>2019-08-09T17:12:47Z</time>
      </trkpt>
      <trkpt lat="48.01206" lon="7.30482">
        <ele>205.2</ele>
        <time>2019-08-09T17:12:48Z</time>
      </trkpt>
      <trkpt lat="48.01203" lon="7.30474">
        <ele>205</ele>
        <time>2019-08-09T17:12:49Z</time>
      </trkpt>
      <trkpt lat="48.012" lon="7.30466">
        <ele>204.9</ele>
        <time>2019-08-09T17:12:50Z</time>
      </trkpt>
      <trkpt lat="48.01197" lon="7.30459">
        <ele>204.7</ele>
        <time>2019-08-09T17:12:51Z</time>
      </trkpt>
      <trkpt lat="48.01194" lon="7.30452">
        <ele>204.6</ele>
        <time>2019-08-09T17:12:52Z</time>
      </trkpt>
      <trkpt lat="48.01191" lon="7.30445">
        <ele>204.4</ele>
        <time>2019-08-09T17:12:53Z</time>
      </trkpt>
      <trkpt lat="48.01188" lon="7.30438">
        <ele>204.3</ele>
        <time>2019-08-09T17:12:54Z</time>
      </trkpt>
      <trkpt lat="48.01185" lon="7.3043">
        <ele>204.2</ele>
        <time>2019-08-09T17:12:55Z</time>
      </trkpt>
      <trkpt lat="48.01183" lon="7.30424">
        <ele>204</ele>
        <time>2019-08-09T17:12:56Z</time>
      </trkpt>
      <trkpt lat="48.0118" lon="7.30416">
        <ele>203.9</ele>
        <time>2019-08-09T17:12:57Z</time>
      </trkpt>
      <trkpt lat="48.01177" lon="7.30408">
        <ele>203.7</ele>
        <time>2019-08-09T17:12:58Z</time>
      </trkpt>
      <trkpt lat="48.01174" lon="7.304">
        <ele>203.6</ele>
        <time>2019-08-09T17:12:59Z</time>
      </trkpt>
      <trkpt lat="48.0117" lon="7.30393">
        <ele>203.4</ele>
        <time>2019-08-09T17:13:00Z</time>
      </trkpt>
      <trkpt lat="48.01168" lon="7.30386">
        <ele>203.2</ele>
        <time>2019-08-09T17:13:01Z</time>
      </trkpt>
      <trkpt lat="48.01165" lon="7.30381">
        <ele>203.1</ele>
        <time>2019-08-09T17:13:02Z</time>
      </trkpt>
      <trkpt lat="48.01164" lon="7.30375">
        <ele>202.8</ele>
        <time>2019-08-09T17:13:03Z</time>
      </trkpt>
      <trkpt lat="48.01162" lon="7.30368">
        <ele>202.7</ele>
        <time>2019-08-09T17:13:04Z</time>
      </trkpt>
      <trkpt lat="48.0116" lon="7.3036">
        <ele>202.6</ele>
        <time>2019-08-09T17:13:05Z</time>
      </trkpt>
      <trkpt lat="48.0116" lon="7.30352">
        <ele>202.6</ele>
        <time>2019-08-09T17:13:06Z</time>
      </trkpt>
      <trkpt lat="48.01158" lon="7.30343">
        <ele>202.6</ele>
        <time>2019-08-09T17:13:07Z</time>
      </trkpt>
      <trkpt lat="48.01157" lon="7.30335">
        <ele>202.5</ele>
        <time>2019-08-09T17:13:08Z</time>
      </trkpt>
      <trkpt lat="48.01155" lon="7.30328">
        <ele>202.5</ele>
        <time>2019-08-09T17:13:09Z</time>
      </trkpt>
      <trkpt lat="48.01154" lon="7.30319">
        <ele>202.5</ele>
        <time>2019-08-09T17:13:10Z</time>
      </trkpt>
      <trkpt lat="48.01153" lon="7.30309">
        <ele>202.5</ele>
        <time>2019-08-09T17:13:11Z</time>
      </trkpt>
      <trkpt lat="48.01152" lon="7.30299">
        <ele>202.4</ele>
        <time>2019-08-09T17:13:12Z</time>
      </trkpt>
      <trkpt lat="48.01151" lon="7.30291">
        <ele>202.4</ele>
        <time>2019-08-09T17:13:13Z</time>
      </trkpt>
      <trkpt lat="48.01149" lon="7.30283">
        <ele>202.4</ele>
        <time>2019-08-09T17:13:14Z</time>
      </trkpt>
      <trkpt lat="48.01148" lon="7.30276">
        <ele>202.4</ele>
        <time>2019-08-09T17:13:15Z</time>
      </trkpt>
      <trkpt lat="48.01146" lon="7.30269">
        <ele>202.4</ele>
        <time>2019-08-09T17:13:16Z</time>
      </trkpt>
      <trkpt lat="48.01145" lon="7.30261">
        <ele>202.4</ele>
        <time>2019-08-09T17:13:17Z</time>
      </trkpt>
      <trkpt lat="48.01144" lon="7.30253">
        <ele>202.4</ele>
        <time>2019-08-09T17:13:18Z</time>
      </trkpt>
      <trkpt lat="48.01143" lon="7.30243">
        <ele>202.4</ele>
        <time>2019-08-09T17:13:19Z</time>
      </trkpt>
      <trkpt lat="48.01143" lon="7.30235">
        <ele>202.4</ele>
        <time>2019-08-09T17:13:20Z</time>
      </trkpt>
      <trkpt lat="48.01143" lon="7.30227">
        <ele>202.4</ele>
        <time>2019-08-09T17:13:21Z</time>
      </trkpt>
      <trkpt lat="48.01144" lon="7.30221">
        <ele>202.4</ele>
        <time>2019-08-09T17:13:22Z</time>
      </trkpt>
      <trkpt lat="48.01144" lon="7.30211">
        <ele>202.4</ele>
        <time>2019-08-09T17:13:23Z</time>
      </trkpt>
      <trkpt lat="48.01144" lon="7.30203">
        <ele>202.4</ele>
        <time>2019-08-09T17:13:24Z</time>
      </trkpt>
      <trkpt lat="48.01145" lon="7.30195">
        <ele>202.4</ele>
        <time>2019-08-09T17:13:25Z</time>
      </trkpt>
      <trkpt lat="48.01144" lon="7.30188">
        <ele>202.3</ele>
        <time>2019-08-09T17:13:26Z</time>
      </trkpt>
      <trkpt lat="48.01143" lon="7.3018">
        <ele>202.3</ele>
        <time>2019-08-09T17:13:27Z</time>
      </trkpt>
      <trkpt lat="48.0114" lon="7.30173">
        <ele>202.2</ele>
        <time>2019-08-09T17:13:28Z</time>
      </trkpt>
      <trkpt lat="48.01138" lon="7.30165">
        <ele>202.2</ele>
        <time>2019-08-09T17:13:29Z</time>
      </trkpt>
      <trkpt lat="48.01136" lon="7.30156">
        <ele>202.1</ele>
        <time>2019-08-09T17:13:30Z</time>
      </trkpt>
      <trkpt lat="48.01135" lon="7.30147">
        <ele>202.1</ele>
        <time>2019-08-09T17:13:31Z</time>
      </trkpt>
      <trkpt lat="48.01133" lon="7.30139">
        <ele>202.2</ele>
        <time>2019-08-09T17:13:32Z</time>
      </trkpt>
      <trkpt lat="48.01132" lon="7.30131">
        <ele>202.3</ele>
        <time>2019-08-09T17:13:33Z</time>
      </trkpt>
      <trkpt lat="48.01131" lon="7.30123">
        <ele>202.3</ele>
        <time>2019-08-09T17:13:34Z</time>
      </trkpt>
      <trkpt lat="48.01131" lon="7.30115">
        <ele>202.4</ele>
        <time>2019-08-09T17:13:35Z</time>
      </trkpt>
      <trkpt lat="48.0113" lon="7.30107">
        <ele>202.4</ele>
        <time>2019-08-09T17:13:36Z</time>
      </trkpt>
      <trkpt lat="48.0113" lon="7.301">
        <ele>202.5</ele>
        <time>2019-08-09T17:13:37Z</time>
      </trkpt>
      <trkpt lat="48.01129" lon="7.30091">
        <ele>202.5</ele>
        <time>2019-08-09T17:13:38Z</time>
      </trkpt>
      <trkpt lat="48.01128" lon="7.30084">
        <ele>202.6</ele>
        <time>2019-08-09T17:13:39Z</time>
      </trkpt>
      <trkpt lat="48.01125" lon="7.30077">
        <ele>202.4</ele>
        <time>2019-08-09T17:13:40Z</time>
      </trkpt>
      <trkpt lat="48.01122" lon="7.30071">
        <ele>202.2</ele>
        <time>2019-08-09T17:13:41Z</time>
      </trkpt>
      <trkpt lat="48.01119" lon="7.30066">
        <ele>202</ele>
        <time>2019-08-09T17:13:42Z</time>
      </trkpt>
      <trkpt lat="48.01115" lon="7.30062">
        <ele>201.8</ele>
        <time>2019-08-09T17:13:43Z</time>
      </trkpt>
      <trkpt lat="48.01112" lon="7.30057">
        <ele>201.7</ele>
        <time>2019-08-09T17:13:44Z</time>
      </trkpt>
      <trkpt lat="48.01108" lon="7.30053">
        <ele>201.6</ele>
        <time>2019-08-09T17:13:45Z</time>
      </trkpt>
      <trkpt lat="48.01103" lon="7.30049">
        <ele>201.6</ele>
        <time>2019-08-09T17:13:46Z</time>
      </trkpt>
      <trkpt lat="48.01099" lon="7.30045">
        <ele>201.5</ele>
        <time>2019-08-09T17:13:47Z</time>
      </trkpt>
      <trkpt lat="48.01095" lon="7.3004">
        <ele>201.4</ele>
        <time>2019-08-09T17:13:48Z</time>
      </trkpt>
      <trkpt lat="48.01092" lon="7.30033">
        <ele>201.1</ele>
        <time>2019-08-09T17:13:49Z</time>
      </trkpt>
      <trkpt lat="48.01089" lon="7.30026">
        <ele>200.7</ele>
        <time>2019-08-09T17:13:50Z</time>
      </trkpt>
      <trkpt lat="48.01086" lon="7.30019">
        <ele>200.4</ele>
        <time>2019-08-09T17:13:51Z</time>
      </trkpt>
      <trkpt lat="48.01083" lon="7.30012">
        <ele>200</ele>
        <time>2019-08-09T17:13:52Z</time>
      </trkpt>
      <trkpt lat="48.01081" lon="7.30005">
        <ele>199.7</ele>
        <time>2019-08-09T17:13:53Z</time>
      </trkpt>
      <trkpt lat="48.01078" lon="7.29999">
        <ele>199.4</ele>
        <time>2019-08-09T17:13:54Z</time>
      </trkpt>
      <trkpt lat="48.01073" lon="7.29994">
        <ele>199.2</ele>
        <time>2019-08-09T17:13:55Z</time>
      </trkpt>
      <trkpt lat="48.01068" lon="7.29993">
        <ele>199</ele>
        <time>2019-08-09T17:13:56Z</time>
      </trkpt>
      <trkpt lat="48.01064" lon="7.29992">
        <ele>198.8</ele>
        <time>2019-08-09T17:13:57Z</time>
      </trkpt>
      <trkpt lat="48.0106" lon="7.29995">
        <ele>198.7</ele>
        <time>2019-08-09T17:13:58Z</time>
      </trkpt>
      <trkpt lat="48.01057" lon="7.29996">
        <ele>198.6</ele>
        <time>2019-08-09T17:13:59Z</time>
      </trkpt>
      <trkpt lat="48.01054" lon="7.29996">
        <ele>198.6</ele>
        <time>2019-08-09T17:14:00Z</time>
      </trkpt>
      <trkpt lat="48.0105" lon="7.29995">
        <ele>198.5</ele>
        <time>2019-08-09T17:14:01Z</time>
      </trkpt>
      <trkpt lat="48.01046" lon="7.29993">
        <ele>198.5</ele>
        <time>2019-08-09T17:14:02Z</time>
      </trkpt>
      <trkpt lat="48.01042" lon="7.29989">
        <ele>198.5</ele>
        <time>2019-08-09T17:14:03Z</time>
      </trkpt>
      <trkpt lat="48.01038" lon="7.29985">
        <ele>198.5</ele>
        <time>2019-08-09T17:14:04Z</time>
      </trkpt>
      <trkpt lat="48.01035" lon="7.29981">
        <ele>198.5</ele>
        <time>2019-08-09T17:14:05Z</time>
      </trkpt>
      <trkpt lat="48.01032" lon="7.29975">
        <ele>198.5</ele>
        <time>2019-08-09T17:14:06Z</time>
      </trkpt>
      <trkpt lat="48.01029" lon="7.29968">
        <ele>198.6</ele>
        <time>2019-08-09T17:14:07Z</time>
      </trkpt>
      <trkpt lat="48.01026" lon="7.29961">
        <ele>198.7</ele>
        <time>2019-08-09T17:14:08Z</time>
      </trkpt>
      <trkpt lat="48.01024" lon="7.29954">
        <ele>198.7</ele>
        <time>2019-08-09T17:14:09Z</time>
      </trkpt>
      <trkpt lat="48.01022" lon="7.29948">
        <ele>198.7</ele>
        <time>2019-08-09T17:14:10Z</time>
      </trkpt>
      <trkpt lat="48.0102" lon="7.29942">
        <ele>198.7</ele>
        <time>2019-08-09T17:14:11Z</time>
      </trkpt>
      <trkpt lat="48.01019" lon="7.29936">
        <ele>198.8</ele>
        <time>2019-08-09T17:14:12Z</time>
      </trkpt>
      <trkpt lat="48.01018" lon="7.29931">
        <ele>198.8</ele>
        <time>2019-08-09T17:14:13Z</time>
      </trkpt>
      <trkpt lat="48.01018" lon="7.29926">
        <ele>198.8</ele>
        <time>2019-08-09T17:14:14Z</time>
      </trkpt>
      <trkpt lat="48.01017" lon="7.2992">
        <ele>198.9</ele>
        <time>2019-08-09T17:14:15Z</time>
      </trkpt>
      <trkpt lat="48.01016" lon="7.29915">
        <ele>198.9</ele>
        <time>2019-08-09T17:14:16Z</time>
      </trkpt>
      <trkpt lat="48.01015" lon="7.29908">
        <ele>199</ele>
        <time>2019-08-09T17:14:17Z</time>
      </trkpt>
      <trkpt lat="48.01014" lon="7.29903">
        <ele>199</ele>
        <time>2019-08-09T17:14:18Z</time>
      </trkpt>
      <trkpt lat="48.01012" lon="7.29897">
        <ele>199.1</ele>
        <time>2019-08-09T17:14:19Z</time>
      </trkpt>
      <trkpt lat="48.01011" lon="7.29892">
        <ele>199.1</ele>
        <time>2019-08-09T17:14:20Z</time>
      </trkpt>
      <trkpt lat="48.0101" lon="7.29886">
        <ele>199.1</ele>
        <time>2019-08-09T17:14:21Z</time>
      </trkpt>
      <trkpt lat="48.01009" lon="7.2988">
        <ele>199.1</ele>
        <time>2019-08-09T17:14:22Z</time>
      </trkpt>
      <trkpt lat="48.01008" lon="7.29875">
        <ele>199.1</ele>
        <time>2019-08-09T17:14:23Z</time>
      </trkpt>
      <trkpt lat="48.01007" lon="7.29869">
        <ele>199.1</ele>
        <time>2019-08-09T17:14:24Z</time>
      </trkpt>
      <trkpt lat="48.01006" lon="7.29865">
        <ele>199</ele>
        <time>2019-08-09T17:14:25Z</time>
      </trkpt>
      <trkpt lat="48.01005" lon="7.29859">
        <ele>198.9</ele>
        <time>2019-08-09T17:14:26Z</time>
      </trkpt>
      <trkpt lat="48.01004" lon="7.29854">
        <ele>198.8</ele>
        <time>2019-08-09T17:14:27Z</time>
      </trkpt>
      <trkpt lat="48.01004" lon="7.29849">
        <ele>198.8</ele>
        <time>2019-08-09T17:14:28Z</time>
      </trkpt>
      <trkpt lat="48.01003" lon="7.29844">
        <ele>198.8</ele>
        <time>2019-08-09T17:14:29Z</time>
      </trkpt>
      <trkpt lat="48.01001" lon="7.29839">
        <ele>198.8</ele>
        <time>2019-08-09T17:14:30Z</time>
      </trkpt>
      <trkpt lat="48.01" lon="7.29834">
        <ele>198.7</ele>
        <time>2019-08-09T17:14:31Z</time>
      </trkpt>
      <trkpt lat="48.00999" lon="7.29829">
        <ele>198.7</ele>
        <time>2019-08-09T17:14:32Z</time>
      </trkpt>
      <trkpt lat="48.00999" lon="7.29824">
        <ele>198.7</ele>
        <time>2019-08-09T17:14:33Z</time>
      </trkpt>
      <trkpt lat="48.00997" lon="7.29819">
        <ele>198.6</ele>
        <time>2019-08-09T17:14:34Z</time>
      </trkpt>
      <trkpt lat="48.00996" lon="7.29814">
        <ele>198.6</ele>
        <time>2019-08-09T17:14:35Z</time>
      </trkpt>
      <trkpt lat="48.00995" lon="7.29808">
        <ele>198.6</ele>
        <time>2019-08-09T17:14:36Z</time>
      </trkpt>
      <trkpt lat="48.00994" lon="7.29802">
        <ele>198.5</ele>
        <time>2019-08-09T17:14:37Z</time>
      </trkpt>
      <trkpt lat="48.00992" lon="7.29796">
        <ele>198.5</ele>
        <time>2019-08-09T17:14:38Z</time>
      </trkpt>
      <trkpt lat="48.00991" lon="7.2979">
        <ele>198.5</ele>
        <time>2019-08-09T17:14:39Z</time>
      </trkpt>
      <trkpt lat="48.00989" lon="7.29784">
        <ele>198.5</ele>
        <time>2019-08-09T17:14:40Z</time>
      </trkpt>
      <trkpt lat="48.00988" lon="7.29779">
        <ele>198.5</ele>
        <time>2019-08-09T17:14:41Z</time>
      </trkpt>
      <trkpt lat="48.00986" lon="7.29773">
        <ele>198.5</ele>
        <time>2019-08-09T17:14:42Z</time>
      </trkpt>
      <trkpt lat="48.00985" lon="7.29768">
        <ele>198.5</ele>
        <time>2019-08-09T17:14:43Z</time>
      </trkpt>
      <trkpt lat="48.00984" lon="7.29762">
        <ele>198.5</ele>
        <time>2019-08-09T17:14:44Z</time>
      </trkpt>
      <trkpt lat="48.00982" lon="7.29757">
        <ele>198.5</ele>
        <time>2019-08-09T17:14:45Z</time>
      </trkpt>
      <trkpt lat="48.00981" lon="7.29752">
        <ele>198.5</ele>
        <time>2019-08-09T17:14:46Z</time>
      </trkpt>
      <trkpt lat="48.00979" lon="7.29747">
        <ele>198.6</ele>
        <time>2019-08-09T17:14:47Z</time>
      </trkpt>
      <trkpt lat="48.00978" lon="7.29741">
        <ele>198.6</ele>
        <time>2019-08-09T17:14:48Z</time>
      </trkpt>
      <trkpt lat="48.00977" lon="7.29736">
        <ele>198.6</ele>
        <time>2019-08-09T17:14:49Z</time>
      </trkpt>
      <trkpt lat="48.00976" lon="7.2973">
        <ele>198.7</ele>
        <time>2019-08-09T17:14:50Z</time>
      </trkpt>
      <trkpt lat="48.00975" lon="7.29726">
        <ele>198.7</ele>
        <time>2019-08-09T17:14:51Z</time>
      </trkpt>
      <trkpt lat="48.00974" lon="7.2972">
        <ele>198.7</ele>
        <time>2019-08-09T17:14:52Z</time>
      </trkpt>
      <trkpt lat="48.00972" lon="7.29715">
        <ele>198.7</ele>
        <time>2019-08-09T17:14:53Z</time>
      </trkpt>
      <trkpt lat="48.00971" lon="7.2971">
        <ele>198.8</ele>
        <time>2019-08-09T17:14:54Z</time>
      </trkpt>
      <trkpt lat="48.00969" lon="7.29705">
        <ele>198.8</ele>
        <time>2019-08-09T17:14:55Z</time>
      </trkpt>
      <trkpt lat="48.00968" lon="7.297">
        <ele>198.8</ele>
        <time>2019-08-09T17:14:56Z</time>
      </trkpt>
      <trkpt lat="48.00966" lon="7.29694">
        <ele>198.8</ele>
        <time>2019-08-09T17:14:57Z</time>
      </trkpt>
      <trkpt lat="48.00965" lon="7.29689">
        <ele>198.9</ele>
        <time>2019-08-09T17:14:58Z</time>
      </trkpt>
      <trkpt lat="48.00964" lon="7.29684">
        <ele>198.9</ele>
        <time>2019-08-09T17:14:59Z</time>
      </trkpt>
      <trkpt lat="48.00962" lon="7.29678">
        <ele>198.9</ele>
        <time>2019-08-09T17:15:00Z</time>
      </trkpt>
      <trkpt lat="48.0096" lon="7.29673">
        <ele>198.9</ele>
        <time>2019-08-09T17:15:01Z</time>
      </trkpt>
      <trkpt lat="48.00959" lon="7.29667">
        <ele>198.9</ele>
        <time>2019-08-09T17:15:02Z</time>
      </trkpt>
      <trkpt lat="48.00956" lon="7.29662">
        <ele>199</ele>
        <time>2019-08-09T17:15:03Z</time>
      </trkpt>
      <trkpt lat="48.00954" lon="7.29656">
        <ele>199</ele>
        <time>2019-08-09T17:15:04Z</time>
      </trkpt>
      <trkpt lat="48.00952" lon="7.29652">
        <ele>199</ele>
        <time>2019-08-09T17:15:05Z</time>
      </trkpt>
      <trkpt lat="48.0095" lon="7.29647">
        <ele>199</ele>
        <time>2019-08-09T17:15:06Z</time>
      </trkpt>
      <trkpt lat="48.00948" lon="7.29643">
        <ele>199</ele>
        <time>2019-08-09T17:15:07Z</time>
      </trkpt>
      <trkpt lat="48.00945" lon="7.29638">
        <ele>199</ele>
        <time>2019-08-09T17:15:08Z</time>
      </trkpt>
      <trkpt lat="48.00942" lon="7.29634">
        <ele>199</ele>
        <time>2019-08-09T17:15:09Z</time>
      </trkpt>
      <trkpt lat="48.0094" lon="7.29629">
        <ele>199</ele>
        <time>2019-08-09T17:15:10Z</time>
      </trkpt>
      <trkpt lat="48.00936" lon="7.29625">
        <ele>199</ele>
        <time>2019-08-09T17:15:11Z</time>
      </trkpt>
      <trkpt lat="48.00933" lon="7.29621">
        <ele>199</ele>
        <time>2019-08-09T17:15:12Z</time>
      </trkpt>
      <trkpt lat="48.00929" lon="7.29617">
        <ele>199</ele>
        <time>2019-08-09T17:15:13Z</time>
      </trkpt>
      <trkpt lat="48.00926" lon="7.29613">
        <ele>199</ele>
        <time>2019-08-09T17:15:14Z</time>
      </trkpt>
      <trkpt lat="48.00923" lon="7.29609">
        <ele>198.9</ele>
        <time>2019-08-09T17:15:15Z</time>
      </trkpt>
      <trkpt lat="48.0092" lon="7.29605">
        <ele>198.9</ele>
        <time>2019-08-09T17:15:16Z</time>
      </trkpt>
      <trkpt lat="48.00917" lon="7.29601">
        <ele>198.9</ele>
        <time>2019-08-09T17:15:17Z</time>
      </trkpt>
      <trkpt lat="48.00913" lon="7.29598">
        <ele>198.9</ele>
        <time>2019-08-09T17:15:18Z</time>
      </trkpt>
      <trkpt lat="48.0091" lon="7.29593">
        <ele>198.9</ele>
        <time>2019-08-09T17:15:19Z</time>
      </trkpt>
      <trkpt lat="48.00906" lon="7.29589">
        <ele>198.9</ele>
        <time>2019-08-09T17:15:20Z</time>
      </trkpt>
      <trkpt lat="48.00902" lon="7.29585">
        <ele>198.9</ele>
        <time>2019-08-09T17:15:21Z</time>
      </trkpt>
      <trkpt lat="48.00899" lon="7.29581">
        <ele>198.8</ele>
        <time>2019-08-09T17:15:22Z</time>
      </trkpt>
      <trkpt lat="48.00895" lon="7.29577">
        <ele>198.8</ele>
        <time>2019-08-09T17:15:23Z</time>
      </trkpt>
      <trkpt lat="48.00892" lon="7.29575">
        <ele>198.8</ele>
        <time>2019-08-09T17:15:24Z</time>
      </trkpt>
      <trkpt lat="48.00889" lon="7.29572">
        <ele>198.8</ele>
        <time>2019-08-09T17:15:25Z</time>
      </trkpt>
      <trkpt lat="48.00886" lon="7.29569">
        <ele>198.8</ele>
        <time>2019-08-09T17:15:26Z</time>
      </trkpt>
      <trkpt lat="48.00882" lon="7.29566">
        <ele>198.8</ele>
        <time>2019-08-09T17:15:27Z</time>
      </trkpt>
      <trkpt lat="48.00879" lon="7.29564">
        <ele>198.8</ele>
        <time>2019-08-09T17:15:28Z</time>
      </trkpt>
      <trkpt lat="48.00873" lon="7.29561">
        <ele>198.8</ele>
        <time>2019-08-09T17:15:30Z</time>
      </trkpt>
      <trkpt lat="48.0087" lon="7.29559">
        <ele>198.7</ele>
        <time>2019-08-09T17:15:31Z</time>
      </trkpt>
      <trkpt lat="48.00868" lon="7.29557">
        <ele>198.7</ele>
        <time>2019-08-09T17:15:32Z</time>
      </trkpt>
      <trkpt lat="48.00865" lon="7.29556">
        <ele>198.7</ele>
        <time>2019-08-09T17:15:33Z</time>
      </trkpt>
      <trkpt lat="48.0086" lon="7.29555">
        <ele>198.7</ele>
        <time>2019-08-09T17:15:34Z</time>
      </trkpt>
      <trkpt lat="48.00856" lon="7.29553">
        <ele>198.6</ele>
        <time>2019-08-09T17:15:35Z</time>
      </trkpt>
      <trkpt lat="48.00852" lon="7.29554">
        <ele>198.6</ele>
        <time>2019-08-09T17:15:36Z</time>
      </trkpt>
      <trkpt lat="48.00848" lon="7.29555">
        <ele>198.6</ele>
        <time>2019-08-09T17:15:37Z</time>
      </trkpt>
      <trkpt lat="48.00844" lon="7.29555">
        <ele>198.6</ele>
        <time>2019-08-09T17:15:38Z</time>
      </trkpt>
      <trkpt lat="48.0084" lon="7.29556">
        <ele>198.5</ele>
        <time>2019-08-09T17:15:39Z</time>
      </trkpt>
      <trkpt lat="48.00836" lon="7.29556">
        <ele>198.5</ele>
        <time>2019-08-09T17:15:40Z</time>
      </trkpt>
      <trkpt lat="48.00832" lon="7.29557">
        <ele>198.4</ele>
        <time>2019-08-09T17:15:41Z</time>
      </trkpt>
      <trkpt lat="48.00828" lon="7.29558">
        <ele>198.4</ele>
        <time>2019-08-09T17:15:42Z</time>
      </trkpt>
      <trkpt lat="48.00825" lon="7.29558">
        <ele>198.4</ele>
        <time>2019-08-09T17:15:43Z</time>
      </trkpt>
      <trkpt lat="48.0082" lon="7.29559">
        <ele>198.3</ele>
        <time>2019-08-09T17:15:44Z</time>
      </trkpt>
      <trkpt lat="48.00816" lon="7.2956">
        <ele>198.3</ele>
        <time>2019-08-09T17:15:45Z</time>
      </trkpt>
      <trkpt lat="48.00813" lon="7.29561">
        <ele>198.3</ele>
        <time>2019-08-09T17:15:46Z</time>
      </trkpt>
      <trkpt lat="48.00809" lon="7.29561">
        <ele>198.2</ele>
        <time>2019-08-09T17:15:47Z</time>
      </trkpt>
      <trkpt lat="48.00805" lon="7.29562">
        <ele>198.2</ele>
        <time>2019-08-09T17:15:48Z</time>
      </trkpt>
      <trkpt lat="48.008" lon="7.29563">
        <ele>198.1</ele>
        <time>2019-08-09T17:15:49Z</time>
      </trkpt>
      <trkpt lat="48.00796" lon="7.29564">
        <ele>198.1</ele>
        <time>2019-08-09T17:15:50Z</time>
      </trkpt>
      <trkpt lat="48.00792" lon="7.29566">
        <ele>198</ele>
        <time>2019-08-09T17:15:51Z</time>
      </trkpt>
      <trkpt lat="48.00786" lon="7.29567">
        <ele>198</ele>
        <time>2019-08-09T17:15:52Z</time>
      </trkpt>
      <trkpt lat="48.00782" lon="7.29569">
        <ele>197.9</ele>
        <time>2019-08-09T17:15:53Z</time>
      </trkpt>
      <trkpt lat="48.00777" lon="7.2957">
        <ele>197.9</ele>
        <time>2019-08-09T17:15:54Z</time>
      </trkpt>
      <trkpt lat="48.00773" lon="7.29571">
        <ele>197.9</ele>
        <time>2019-08-09T17:15:55Z</time>
      </trkpt>
      <trkpt lat="48.00768" lon="7.29573">
        <ele>197.8</ele>
        <time>2019-08-09T17:15:56Z</time>
      </trkpt>
      <trkpt lat="48.00764" lon="7.29574">
        <ele>197.8</ele>
        <time>2019-08-09T17:15:57Z</time>
      </trkpt>
      <trkpt lat="48.00761" lon="7.29574">
        <ele>197.8</ele>
        <time>2019-08-09T17:15:58Z</time>
      </trkpt>
      <trkpt lat="48.00758" lon="7.29575">
        <ele>197.7</ele>
        <time>2019-08-09T17:15:59Z</time>
      </trkpt>
      <trkpt lat="48.00755" lon="7.29575">
        <ele>197.7</ele>
        <time>2019-08-09T17:16:00Z</time>
      </trkpt>
      <trkpt lat="48.00751" lon="7.29575">
        <ele>197.7</ele>
        <time>2019-08-09T17:16:01Z</time>
      </trkpt>
      <trkpt lat="48.00747" lon="7.29576">
        <ele>197.7</ele>
        <time>2019-08-09T17:16:02Z</time>
      </trkpt>
      <trkpt lat="48.00743" lon="7.29577">
        <ele>197.7</ele>
        <time>2019-08-09T17:16:03Z</time>
      </trkpt>
      <trkpt lat="48.00739" lon="7.29578">
        <ele>197.7</ele>
        <time>2019-08-09T17:16:04Z</time>
      </trkpt>
      <trkpt lat="48.00736" lon="7.29578">
        <ele>197.6</ele>
        <time>2019-08-09T17:16:05Z</time>
      </trkpt>
      <trkpt lat="48.00733" lon="7.29578">
        <ele>197.6</ele>
        <time>2019-08-09T17:16:06Z</time>
      </trkpt>
      <trkpt lat="48.00729" lon="7.29579">
        <ele>197.6</ele>
        <time>2019-08-09T17:16:07Z</time>
      </trkpt>
      <trkpt lat="48.00725" lon="7.2958">
        <ele>197.6</ele>
        <time>2019-08-09T17:16:08Z</time>
      </trkpt>
      <trkpt lat="48.0072" lon="7.2958">
        <ele>197.6</ele>
        <time>2019-08-09T17:16:09Z</time>
      </trkpt>
      <trkpt lat="48.00716" lon="7.29581">
        <ele>197.6</ele>
        <time>2019-08-09T17:16:10Z</time>
      </trkpt>
      <trkpt lat="48.00712" lon="7.29583">
        <ele>197.5</ele>
        <time>2019-08-09T17:16:11Z</time>
      </trkpt>
      <trkpt lat="48.00707" lon="7.29584">
        <ele>197.5</ele>
        <time>2019-08-09T17:16:12Z</time>
      </trkpt>
      <trkpt lat="48.00703" lon="7.29585">
        <ele>197.5</ele>
        <time>2019-08-09T17:16:13Z</time>
      </trkpt>
      <trkpt lat="48.00698" lon="7.29586">
        <ele>197.5</ele>
        <time>2019-08-09T17:16:14Z</time>
      </trkpt>
      <trkpt lat="48.00693" lon="7.29587">
        <ele>197.5</ele>
        <time>2019-08-09T17:16:15Z</time>
      </trkpt>
      <trkpt lat="48.00689" lon="7.29588">
        <ele>197.5</ele>
        <time>2019-08-09T17:16:16Z</time>
      </trkpt>
      <trkpt lat="48.00685" lon="7.29589">
        <ele>197.4</ele>
        <time>2019-08-09T17:16:17Z</time>
      </trkpt>
      <trkpt lat="48.00681" lon="7.29589">
        <ele>197.4</ele>
        <time>2019-08-09T17:16:18Z</time>
      </trkpt>
      <trkpt lat="48.00678" lon="7.29589">
        <ele>197.4</ele>
        <time>2019-08-09T17:16:19Z</time>
      </trkpt>
      <trkpt lat="48.00674" lon="7.29589">
        <ele>197.4</ele>
        <time>2019-08-09T17:16:20Z</time>
      </trkpt>
      <trkpt lat="48.0067" lon="7.2959">
        <ele>197.4</ele>
        <time>2019-08-09T17:16:21Z</time>
      </trkpt>
      <trkpt lat="48.00665" lon="7.2959">
        <ele>197.4</ele>
        <time>2019-08-09T17:16:22Z</time>
      </trkpt>
      <trkpt lat="48.0066" lon="7.29592">
        <ele>197.4</ele>
        <time>2019-08-09T17:16:23Z</time>
      </trkpt>
      <trkpt lat="48.00655" lon="7.29593">
        <ele>197.4</ele>
        <time>2019-08-09T17:16:24Z</time>
      </trkpt>
      <trkpt lat="48.0065" lon="7.29595">
        <ele>197.4</ele>
        <time>2019-08-09T17:16:25Z</time>
      </trkpt>
      <trkpt lat="48.00645" lon="7.29596">
        <ele>197.4</ele>
        <time>2019-08-09T17:16:26Z</time>
      </trkpt>
      <trkpt lat="48.0064" lon="7.29597">
        <ele>197.4</ele>
        <time>2019-08-09T17:16:27Z</time>
      </trkpt>
      <trkpt lat="48.00636" lon="7.29597">
        <ele>197.4</ele>
        <time>2019-08-09T17:16:28Z</time>
      </trkpt>
      <trkpt lat="48.00632" lon="7.29598">
        <ele>197.4</ele>
        <time>2019-08-09T17:16:29Z</time>
      </trkpt>
      <trkpt lat="48.00629" lon="7.29598">
        <ele>197.4</ele>
        <time>2019-08-09T17:16:30Z</time>
      </trkpt>
      <trkpt lat="48.00626" lon="7.29599">
        <ele>197.4</ele>
        <time>2019-08-09T17:16:31Z</time>
      </trkpt>
      <trkpt lat="48.00623" lon="7.29599">
        <ele>197.4</ele>
        <time>2019-08-09T17:16:32Z</time>
      </trkpt>
      <trkpt lat="48.00618" lon="7.29601">
        <ele>197.4</ele>
        <time>2019-08-09T17:16:34Z</time>
      </trkpt>
      <trkpt lat="48.00615" lon="7.296">
        <ele>197.5</ele>
        <time>2019-08-09T17:16:35Z</time>
      </trkpt>
      <trkpt lat="48.00611" lon="7.29599">
        <ele>197.5</ele>
        <time>2019-08-09T17:16:36Z</time>
      </trkpt>
      <trkpt lat="48.00608" lon="7.29598">
        <ele>197.5</ele>
        <time>2019-08-09T17:16:37Z</time>
      </trkpt>
      <trkpt lat="48.00605" lon="7.29597">
        <ele>197.5</ele>
        <time>2019-08-09T17:16:38Z</time>
      </trkpt>
      <trkpt lat="48.00602" lon="7.29594">
        <ele>197.5</ele>
        <time>2019-08-09T17:16:39Z</time>
      </trkpt>
      <trkpt lat="48.00599" lon="7.29592">
        <ele>197.5</ele>
        <time>2019-08-09T17:16:40Z</time>
      </trkpt>
      <trkpt lat="48.00596" lon="7.29589">
        <ele>197.5</ele>
        <time>2019-08-09T17:16:41Z</time>
      </trkpt>
      <trkpt lat="48.00593" lon="7.29587">
        <ele>197.5</ele>
        <time>2019-08-09T17:16:42Z</time>
      </trkpt>
      <trkpt lat="48.0059" lon="7.29584">
        <ele>197.5</ele>
        <time>2019-08-09T17:16:43Z</time>
      </trkpt>
      <trkpt lat="48.00587" lon="7.29581">
        <ele>197.5</ele>
        <time>2019-08-09T17:16:44Z</time>
      </trkpt>
      <trkpt lat="48.00583" lon="7.29579">
        <ele>197.4</ele>
        <time>2019-08-09T17:16:45Z</time>
      </trkpt>
      <trkpt lat="48.00579" lon="7.29579">
        <ele>197.3</ele>
        <time>2019-08-09T17:16:46Z</time>
      </trkpt>
      <trkpt lat="48.00575" lon="7.2958">
        <ele>197.3</ele>
        <time>2019-08-09T17:16:47Z</time>
      </trkpt>
      <trkpt lat="48.00571" lon="7.29583">
        <ele>197.2</ele>
        <time>2019-08-09T17:16:48Z</time>
      </trkpt>
      <trkpt lat="48.00568" lon="7.29586">
        <ele>197.1</ele>
        <time>2019-08-09T17:16:49Z</time>
      </trkpt>
      <trkpt lat="48.00565" lon="7.2959">
        <ele>197</ele>
        <time>2019-08-09T17:16:50Z</time>
      </trkpt>
      <trkpt lat="48.00561" lon="7.29593">
        <ele>196.9</ele>
        <time>2019-08-09T17:16:51Z</time>
      </trkpt>
      <trkpt lat="48.00557" lon="7.29596">
        <ele>196.9</ele>
        <time>2019-08-09T17:16:52Z</time>
      </trkpt>
      <trkpt lat="48.00554" lon="7.29599">
        <ele>196.9</ele>
        <time>2019-08-09T17:16:53Z</time>
      </trkpt>
      <trkpt lat="48.0055" lon="7.29602">
        <ele>196.9</ele>
        <time>2019-08-09T17:16:54Z</time>
      </trkpt>
      <trkpt lat="48.00547" lon="7.29603">
        <ele>196.9</ele>
        <time>2019-08-09T17:16:55Z</time>
      </trkpt>
      <trkpt lat="48.00543" lon="7.29604">
        <ele>196.9</ele>
        <time>2019-08-09T17:16:56Z</time>
      </trkpt>
      <trkpt lat="48.00538" lon="7.29604">
        <ele>196.8</ele>
        <time>2019-08-09T17:16:57Z</time>
      </trkpt>
      <trkpt lat="48.00534" lon="7.29604">
        <ele>196.8</ele>
        <time>2019-08-09T17:16:58Z</time>
      </trkpt>
      <trkpt lat="48.0053" lon="7.29605">
        <ele>196.8</ele>
        <time>2019-08-09T17:16:59Z</time>
      </trkpt>
      <trkpt lat="48.00525" lon="7.29607">
        <ele>196.9</ele>
        <time>2019-08-09T17:17:00Z</time>
      </trkpt>
      <trkpt lat="48.0052" lon="7.29608">
        <ele>196.9</ele>
        <time>2019-08-09T17:17:01Z</time>
      </trkpt>
      <trkpt lat="48.00515" lon="7.29609">
        <ele>196.9</ele>
        <time>2019-08-09T17:17:02Z</time>
      </trkpt>
      <trkpt lat="48.00511" lon="7.29609">
        <ele>196.9</ele>
        <time>2019-08-09T17:17:03Z</time>
      </trkpt>
      <trkpt lat="48.00506" lon="7.2961">
        <ele>197</ele>
        <time>2019-08-09T17:17:04Z</time>
      </trkpt>
      <trkpt lat="48.00501" lon="7.2961">
        <ele>197</ele>
        <time>2019-08-09T17:17:05Z</time>
      </trkpt>
      <trkpt lat="48.00496" lon="7.2961">
        <ele>197</ele>
        <time>2019-08-09T17:17:06Z</time>
      </trkpt>
      <trkpt lat="48.00492" lon="7.29609">
        <ele>197.1</ele>
        <time>2019-08-09T17:17:07Z</time>
      </trkpt>
      <trkpt lat="48.00486" lon="7.29609">
        <ele>197.1</ele>
        <time>2019-08-09T17:17:08Z</time>
      </trkpt>
      <trkpt lat="48.00481" lon="7.29608">
        <ele>197.2</ele>
        <time>2019-08-09T17:17:09Z</time>
      </trkpt>
      <trkpt lat="48.00476" lon="7.29607">
        <ele>197.2</ele>
        <time>2019-08-09T17:17:10Z</time>
      </trkpt>
      <trkpt lat="48.00472" lon="7.29605">
        <ele>197.2</ele>
        <time>2019-08-09T17:17:11Z</time>
      </trkpt>
      <trkpt lat="48.00467" lon="7.29604">
        <ele>197.1</ele>
        <time>2019-08-09T17:17:12Z</time>
      </trkpt>
      <trkpt lat="48.00463" lon="7.29602">
        <ele>197.1</ele>
        <time>2019-08-09T17:17:13Z</time>
      </trkpt>
      <trkpt lat="48.00458" lon="7.296">
        <ele>197.1</ele>
        <time>2019-08-09T17:17:14Z</time>
      </trkpt>
      <trkpt lat="48.00454" lon="7.29599">
        <ele>197</ele>
        <time>2019-08-09T17:17:15Z</time>
      </trkpt>
      <trkpt lat="48.00449" lon="7.29596">
        <ele>196.9</ele>
        <time>2019-08-09T17:17:16Z</time>
      </trkpt>
      <trkpt lat="48.00445" lon="7.29594">
        <ele>196.8</ele>
        <time>2019-08-09T17:17:17Z</time>
      </trkpt>
      <trkpt lat="48.00441" lon="7.29592">
        <ele>196.7</ele>
        <time>2019-08-09T17:17:18Z</time>
      </trkpt>
      <trkpt lat="48.00437" lon="7.29591">
        <ele>196.6</ele>
        <time>2019-08-09T17:17:19Z</time>
      </trkpt>
      <trkpt lat="48.00432" lon="7.29588">
        <ele>196.5</ele>
        <time>2019-08-09T17:17:20Z</time>
      </trkpt>
      <trkpt lat="48.00429" lon="7.29587">
        <ele>196.3</ele>
        <time>2019-08-09T17:17:21Z</time>
      </trkpt>
      <trkpt lat="48.00425" lon="7.29585">
        <ele>196.1</ele>
        <time>2019-08-09T17:17:22Z</time>
      </trkpt>
      <trkpt lat="48.00422" lon="7.29583">
        <ele>195.9</ele>
        <time>2019-08-09T17:17:23Z</time>
      </trkpt>
      <trkpt lat="48.00418" lon="7.2958">
        <ele>195.7</ele>
        <time>2019-08-09T17:17:24Z</time>
      </trkpt>
      <trkpt lat="48.00414" lon="7.29578">
        <ele>195.6</ele>
        <time>2019-08-09T17:17:25Z</time>
      </trkpt>
      <trkpt lat="48.0041" lon="7.29576">
        <ele>195.4</ele>
        <time>2019-08-09T17:17:26Z</time>
      </trkpt>
      <trkpt lat="48.00407" lon="7.29575">
        <ele>195.5</ele>
        <time>2019-08-09T17:17:27Z</time>
      </trkpt>
      <trkpt lat="48.00403" lon="7.29572">
        <ele>195.6</ele>
        <time>2019-08-09T17:17:28Z</time>
      </trkpt>
      <trkpt lat="48.004" lon="7.29569">
        <ele>195.8</ele>
        <time>2019-08-09T17:17:29Z</time>
      </trkpt>
      <trkpt lat="48.00396" lon="7.29566">
        <ele>195.8</ele>
        <time>2019-08-09T17:17:30Z</time>
      </trkpt>
      <trkpt lat="48.00392" lon="7.29562">
        <ele>195.8</ele>
        <time>2019-08-09T17:17:31Z</time>
      </trkpt>
      <trkpt lat="48.00388" lon="7.29558">
        <ele>195.8</ele>
        <time>2019-08-09T17:17:32Z</time>
      </trkpt>
      <trkpt lat="48.00383" lon="7.29554">
        <ele>195.8</ele>
        <time>2019-08-09T17:17:33Z</time>
      </trkpt>
      <trkpt lat="48.00379" lon="7.29551">
        <ele>195.8</ele>
        <time>2019-08-09T17:17:34Z</time>
      </trkpt>
      <trkpt lat="48.00375" lon="7.29547">
        <ele>195.8</ele>
        <time>2019-08-09T17:17:35Z</time>
      </trkpt>
      <trkpt lat="48.00372" lon="7.29544">
        <ele>195.8</ele>
        <time>2019-08-09T17:17:36Z</time>
      </trkpt>
      <trkpt lat="48.00368" lon="7.29541">
        <ele>195.7</ele>
        <time>2019-08-09T17:17:37Z</time>
      </trkpt>
      <trkpt lat="48.00366" lon="7.29539">
        <ele>195.7</ele>
        <time>2019-08-09T17:17:38Z</time>
      </trkpt>
      <trkpt lat="48.00362" lon="7.29537">
        <ele>195.7</ele>
        <time>2019-08-09T17:17:39Z</time>
      </trkpt>
      <trkpt lat="48.00359" lon="7.29535">
        <ele>195.7</ele>
        <time>2019-08-09T17:17:40Z</time>
      </trkpt>
      <trkpt lat="48.00356" lon="7.29532">
        <ele>195.7</ele>
        <time>2019-08-09T17:17:42Z</time>
      </trkpt>
      <trkpt lat="48.00353" lon="7.2953">
        <ele>195.7</ele>
        <time>2019-08-09T17:17:43Z</time>
      </trkpt>
      <trkpt lat="48.00351" lon="7.29527">
        <ele>195.7</ele>
        <time>2019-08-09T17:17:44Z</time>
      </trkpt>
      <trkpt lat="48.00347" lon="7.29523">
        <ele>195.7</ele>
        <time>2019-08-09T17:17:45Z</time>
      </trkpt>
      <trkpt lat="48.00343" lon="7.29519">
        <ele>195.6</ele>
        <time>2019-08-09T17:17:46Z</time>
      </trkpt>
      <trkpt lat="48.0034" lon="7.29516">
        <ele>195.6</ele>
        <time>2019-08-09T17:17:47Z</time>
      </trkpt>
      <trkpt lat="48.00336" lon="7.29512">
        <ele>195.6</ele>
        <time>2019-08-09T17:17:48Z</time>
      </trkpt>
      <trkpt lat="48.00332" lon="7.29509">
        <ele>195.6</ele>
        <time>2019-08-09T17:17:49Z</time>
      </trkpt>
      <trkpt lat="48.00328" lon="7.29505">
        <ele>195.6</ele>
        <time>2019-08-09T17:17:50Z</time>
      </trkpt>
      <trkpt lat="48.00325" lon="7.29502">
        <ele>195.6</ele>
        <time>2019-08-09T17:17:51Z</time>
      </trkpt>
      <trkpt lat="48.00322" lon="7.295">
        <ele>195.6</ele>
        <time>2019-08-09T17:17:52Z</time>
      </trkpt>
      <trkpt lat="48.00318" lon="7.29497">
        <ele>195.5</ele>
        <time>2019-08-09T17:17:53Z</time>
      </trkpt>
      <trkpt lat="48.00314" lon="7.29494">
        <ele>195.5</ele>
        <time>2019-08-09T17:17:54Z</time>
      </trkpt>
      <trkpt lat="48.00311" lon="7.29492">
        <ele>195.5</ele>
        <time>2019-08-09T17:17:55Z</time>
      </trkpt>
      <trkpt lat="48.00308" lon="7.2949">
        <ele>195.5</ele>
        <time>2019-08-09T17:17:56Z</time>
      </trkpt>
      <trkpt lat="48.00305" lon="7.29488">
        <ele>195.5</ele>
        <time>2019-08-09T17:17:57Z</time>
      </trkpt>
      <trkpt lat="48.00301" lon="7.29485">
        <ele>195.5</ele>
        <time>2019-08-09T17:17:58Z</time>
      </trkpt>
      <trkpt lat="48.00297" lon="7.29483">
        <ele>195.5</ele>
        <time>2019-08-09T17:17:59Z</time>
      </trkpt>
      <trkpt lat="48.00294" lon="7.29481">
        <ele>195.4</ele>
        <time>2019-08-09T17:18:00Z</time>
      </trkpt>
      <trkpt lat="48.00291" lon="7.29479">
        <ele>195.4</ele>
        <time>2019-08-09T17:18:01Z</time>
      </trkpt>
      <trkpt lat="48.00287" lon="7.29476">
        <ele>195.4</ele>
        <time>2019-08-09T17:18:02Z</time>
      </trkpt>
      <trkpt lat="48.00283" lon="7.29475">
        <ele>195.4</ele>
        <time>2019-08-09T17:18:03Z</time>
      </trkpt>
      <trkpt lat="48.0028" lon="7.29473">
        <ele>195.4</ele>
        <time>2019-08-09T17:18:04Z</time>
      </trkpt>
      <trkpt lat="48.00276" lon="7.29471">
        <ele>195.4</ele>
        <time>2019-08-09T17:18:05Z</time>
      </trkpt>
      <trkpt lat="48.00273" lon="7.29469">
        <ele>195.3</ele>
        <time>2019-08-09T17:18:06Z</time>
      </trkpt>
      <trkpt lat="48.0027" lon="7.29468">
        <ele>195.3</ele>
        <time>2019-08-09T17:18:07Z</time>
      </trkpt>
      <trkpt lat="48.00266" lon="7.29466">
        <ele>195.3</ele>
        <time>2019-08-09T17:18:08Z</time>
      </trkpt>
      <trkpt lat="48.00263" lon="7.29464">
        <ele>195.3</ele>
        <time>2019-08-09T17:18:09Z</time>
      </trkpt>
      <trkpt lat="48.0026" lon="7.29462">
        <ele>195.3</ele>
        <time>2019-08-09T17:18:10Z</time>
      </trkpt>
      <trkpt lat="48.00257" lon="7.2946">
        <ele>195.3</ele>
        <time>2019-08-09T17:18:11Z</time>
      </trkpt>
      <trkpt lat="48.00253" lon="7.29458">
        <ele>195.3</ele>
        <time>2019-08-09T17:18:12Z</time>
      </trkpt>
      <trkpt lat="48.0025" lon="7.29456">
        <ele>195.3</ele>
        <time>2019-08-09T17:18:13Z</time>
      </trkpt>
      <trkpt lat="48.00246" lon="7.29454">
        <ele>195.3</ele>
        <time>2019-08-09T17:18:14Z</time>
      </trkpt>
      <trkpt lat="48.00243" lon="7.29452">
        <ele>195.3</ele>
        <time>2019-08-09T17:18:15Z</time>
      </trkpt>
      <trkpt lat="48.0024" lon="7.2945">
        <ele>195.3</ele>
        <time>2019-08-09T17:18:16Z</time>
      </trkpt>
      <trkpt lat="48.00237" lon="7.29448">
        <ele>195.3</ele>
        <time>2019-08-09T17:18:17Z</time>
      </trkpt>
      <trkpt lat="48.00234" lon="7.29447">
        <ele>195.3</ele>
        <time>2019-08-09T17:18:18Z</time>
      </trkpt>
      <trkpt lat="48.00231" lon="7.29445">
        <ele>195.3</ele>
        <time>2019-08-09T17:18:19Z</time>
      </trkpt>
      <trkpt lat="48.00226" lon="7.29444">
        <ele>195.3</ele>
        <time>2019-08-09T17:18:20Z</time>
      </trkpt>
      <trkpt lat="48.00223" lon="7.29443">
        <ele>195.3</ele>
        <time>2019-08-09T17:18:21Z</time>
      </trkpt>
      <trkpt lat="48.0022" lon="7.29442">
        <ele>195.3</ele>
        <time>2019-08-09T17:18:22Z</time>
      </trkpt>
      <trkpt lat="48.00216" lon="7.2944">
        <ele>195.3</ele>
        <time>2019-08-09T17:18:23Z</time>
      </trkpt>
      <trkpt lat="48.00212" lon="7.29439">
        <ele>195.3</ele>
        <time>2019-08-09T17:18:24Z</time>
      </trkpt>
      <trkpt lat="48.00207" lon="7.29437">
        <ele>195.2</ele>
        <time>2019-08-09T17:18:25Z</time>
      </trkpt>
      <trkpt lat="48.00203" lon="7.29435">
        <ele>195.2</ele>
        <time>2019-08-09T17:18:26Z</time>
      </trkpt>
      <trkpt lat="48.00199" lon="7.29433">
        <ele>195.2</ele>
        <time>2019-08-09T17:18:27Z</time>
      </trkpt>
      <trkpt lat="48.00195" lon="7.29432">
        <ele>195.1</ele>
        <time>2019-08-09T17:18:28Z</time>
      </trkpt>
      <trkpt lat="48.00189" lon="7.29431">
        <ele>195.1</ele>
        <time>2019-08-09T17:18:29Z</time>
      </trkpt>
      <trkpt lat="48.00184" lon="7.29431">
        <ele>195</ele>
        <time>2019-08-09T17:18:30Z</time>
      </trkpt>
      <trkpt lat="48.0018" lon="7.2943">
        <ele>195</ele>
        <time>2019-08-09T17:18:31Z</time>
      </trkpt>
      <trkpt lat="48.00177" lon="7.29429">
        <ele>195</ele>
        <time>2019-08-09T17:18:32Z</time>
      </trkpt>
      <trkpt lat="48.00171" lon="7.29429">
        <ele>194.9</ele>
        <time>2019-08-09T17:18:33Z</time>
      </trkpt>
      <trkpt lat="48.00166" lon="7.29429">
        <ele>194.8</ele>
        <time>2019-08-09T17:18:34Z</time>
      </trkpt>
      <trkpt lat="48.00162" lon="7.29429">
        <ele>194.7</ele>
        <time>2019-08-09T17:18:35Z</time>
      </trkpt>
      <trkpt lat="48.00157" lon="7.29428">
        <ele>194.7</ele>
        <time>2019-08-09T17:18:36Z</time>
      </trkpt>
      <trkpt lat="48.00153" lon="7.29428">
        <ele>194.6</ele>
        <time>2019-08-09T17:18:37Z</time>
      </trkpt>
      <trkpt lat="48.00148" lon="7.29427">
        <ele>194.5</ele>
        <time>2019-08-09T17:18:39Z</time>
      </trkpt>
      <trkpt lat="48.00144" lon="7.29427">
        <ele>194.5</ele>
        <time>2019-08-09T17:18:40Z</time>
      </trkpt>
      <trkpt lat="48.0014" lon="7.29427">
        <ele>194.4</ele>
        <time>2019-08-09T17:18:41Z</time>
      </trkpt>
      <trkpt lat="48.00136" lon="7.29427">
        <ele>194.3</ele>
        <time>2019-08-09T17:18:42Z</time>
      </trkpt>
      <trkpt lat="48.00131" lon="7.29427">
        <ele>194.3</ele>
        <time>2019-08-09T17:18:43Z</time>
      </trkpt>
      <trkpt lat="48.00127" lon="7.29427">
        <ele>194.2</ele>
        <time>2019-08-09T17:18:44Z</time>
      </trkpt>
      <trkpt lat="48.00122" lon="7.29427">
        <ele>194.1</ele>
        <time>2019-08-09T17:18:45Z</time>
      </trkpt>
      <trkpt lat="48.00118" lon="7.29428">
        <ele>194.1</ele>
        <time>2019-08-09T17:18:46Z</time>
      </trkpt>
      <trkpt lat="48.00114" lon="7.29428">
        <ele>194</ele>
        <time>2019-08-09T17:18:47Z</time>
      </trkpt>
      <trkpt lat="48.00109" lon="7.29428">
        <ele>194</ele>
        <time>2019-08-09T17:18:48Z</time>
      </trkpt>
      <trkpt lat="48.00106" lon="7.29428">
        <ele>194</ele>
        <time>2019-08-09T17:18:49Z</time>
      </trkpt>
      <trkpt lat="48.00101" lon="7.29428">
        <ele>194</ele>
        <time>2019-08-09T17:18:50Z</time>
      </trkpt>
      <trkpt lat="48.00098" lon="7.29428">
        <ele>194</ele>
        <time>2019-08-09T17:18:51Z</time>
      </trkpt>
      <trkpt lat="48.00095" lon="7.29428">
        <ele>194</ele>
        <time>2019-08-09T17:18:52Z</time>
      </trkpt>
      <trkpt lat="48.00091" lon="7.29428">
        <ele>194</ele>
        <time>2019-08-09T17:18:53Z</time>
      </trkpt>
      <trkpt lat="48.00087" lon="7.29428">
        <ele>194</ele>
        <time>2019-08-09T17:18:54Z</time>
      </trkpt>
      <trkpt lat="48.00083" lon="7.29428">
        <ele>194</ele>
        <time>2019-08-09T17:18:55Z</time>
      </trkpt>
      <trkpt lat="48.00078" lon="7.29428">
        <ele>194</ele>
        <time>2019-08-09T17:18:56Z</time>
      </trkpt>
      <trkpt lat="48.00074" lon="7.29428">
        <ele>194</ele>
        <time>2019-08-09T17:18:57Z</time>
      </trkpt>
      <trkpt lat="48.00069" lon="7.29428">
        <ele>194</ele>
        <time>2019-08-09T17:18:58Z</time>
      </trkpt>
      <trkpt lat="48.00064" lon="7.29428">
        <ele>194</ele>
        <time>2019-08-09T17:18:59Z</time>
      </trkpt>
      <trkpt lat="48.00059" lon="7.29428">
        <ele>194</ele>
        <time>2019-08-09T17:19:00Z</time>
      </trkpt>
      <trkpt lat="48.00055" lon="7.29428">
        <ele>194.1</ele>
        <time>2019-08-09T17:19:01Z</time>
      </trkpt>
      <trkpt lat="48.00049" lon="7.29428">
        <ele>194.1</ele>
        <time>2019-08-09T17:19:02Z</time>
      </trkpt>
      <trkpt lat="48.00045" lon="7.29428">
        <ele>194.1</ele>
        <time>2019-08-09T17:19:03Z</time>
      </trkpt>
      <trkpt lat="48.0004" lon="7.29428">
        <ele>194.1</ele>
        <time>2019-08-09T17:19:04Z</time>
      </trkpt>
      <trkpt lat="48.00034" lon="7.29428">
        <ele>194.2</ele>
        <time>2019-08-09T17:19:05Z</time>
      </trkpt>
      <trkpt lat="48.00029" lon="7.29427">
        <ele>194.2</ele>
        <time>2019-08-09T17:19:06Z</time>
      </trkpt>
      <trkpt lat="48.00026" lon="7.29427">
        <ele>194.2</ele>
        <time>2019-08-09T17:19:07Z</time>
      </trkpt>
      <trkpt lat="48.00023" lon="7.29427">
        <ele>194.2</ele>
        <time>2019-08-09T17:19:08Z</time>
      </trkpt>
      <trkpt lat="48.00019" lon="7.29426">
        <ele>194.2</ele>
        <time>2019-08-09T17:19:09Z</time>
      </trkpt>
      <trkpt lat="48.00015" lon="7.29426">
        <ele>194.2</ele>
        <time>2019-08-09T17:19:10Z</time>
      </trkpt>
      <trkpt lat="48.00011" lon="7.29426">
        <ele>194.3</ele>
        <time>2019-08-09T17:19:11Z</time>
      </trkpt>
      <trkpt lat="48.00007" lon="7.29426">
        <ele>194.3</ele>
        <time>2019-08-09T17:19:12Z</time>
      </trkpt>
      <trkpt lat="48.00003" lon="7.29426">
        <ele>194.3</ele>
        <time>2019-08-09T17:19:13Z</time>
      </trkpt>
      <trkpt lat="48" lon="7.29426">
        <ele>194.3</ele>
        <time>2019-08-09T17:19:14Z</time>
      </trkpt>
      <trkpt lat="47.99996" lon="7.29426">
        <ele>194.3</ele>
        <time>2019-08-09T17:19:15Z</time>
      </trkpt>
      <trkpt lat="47.99993" lon="7.29426">
        <ele>194.3</ele>
        <time>2019-08-09T17:19:16Z</time>
      </trkpt>
      <trkpt lat="47.99988" lon="7.29427">
        <ele>194.4</ele>
        <time>2019-08-09T17:19:17Z</time>
      </trkpt>
      <trkpt lat="47.99985" lon="7.29427">
        <ele>194.4</ele>
        <time>2019-08-09T17:19:18Z</time>
      </trkpt>
      <trkpt lat="47.99981" lon="7.29427">
        <ele>194.4</ele>
        <time>2019-08-09T17:19:19Z</time>
      </trkpt>
      <trkpt lat="47.99976" lon="7.29427">
        <ele>194.4</ele>
        <time>2019-08-09T17:19:20Z</time>
      </trkpt>
      <trkpt lat="47.99973" lon="7.29427">
        <ele>194.4</ele>
        <time>2019-08-09T17:19:21Z</time>
      </trkpt>
      <trkpt lat="47.99969" lon="7.29427">
        <ele>194.5</ele>
        <time>2019-08-09T17:19:22Z</time>
      </trkpt>
      <trkpt lat="47.99966" lon="7.29427">
        <ele>194.5</ele>
        <time>2019-08-09T17:19:23Z</time>
      </trkpt>
      <trkpt lat="47.99963" lon="7.29426">
        <ele>194.5</ele>
        <time>2019-08-09T17:19:24Z</time>
      </trkpt>
      <trkpt lat="47.99958" lon="7.29426">
        <ele>194.5</ele>
        <time>2019-08-09T17:19:25Z</time>
      </trkpt>
      <trkpt lat="47.99953" lon="7.29426">
        <ele>194.5</ele>
        <time>2019-08-09T17:19:26Z</time>
      </trkpt>
      <trkpt lat="47.99949" lon="7.29426">
        <ele>194.5</ele>
        <time>2019-08-09T17:19:27Z</time>
      </trkpt>
      <trkpt lat="47.99944" lon="7.29425">
        <ele>194.5</ele>
        <time>2019-08-09T17:19:28Z</time>
      </trkpt>
      <trkpt lat="47.99939" lon="7.29424">
        <ele>194.6</ele>
        <time>2019-08-09T17:19:29Z</time>
      </trkpt>
      <trkpt lat="47.99935" lon="7.29421">
        <ele>194.6</ele>
        <time>2019-08-09T17:19:30Z</time>
      </trkpt>
      <trkpt lat="47.99931" lon="7.29419">
        <ele>194.6</ele>
        <time>2019-08-09T17:19:31Z</time>
      </trkpt>
      <trkpt lat="47.99927" lon="7.29417">
        <ele>194.6</ele>
        <time>2019-08-09T17:19:32Z</time>
      </trkpt>
      <trkpt lat="47.99924" lon="7.29416">
        <ele>194.6</ele>
        <time>2019-08-09T17:19:33Z</time>
      </trkpt>
      <trkpt lat="47.99921" lon="7.29414">
        <ele>194.6</ele>
        <time>2019-08-09T17:19:34Z</time>
      </trkpt>
      <trkpt lat="47.99917" lon="7.29411">
        <ele>194.7</ele>
        <time>2019-08-09T17:19:36Z</time>
      </trkpt>
      <trkpt lat="47.99913" lon="7.29407">
        <ele>194.7</ele>
        <time>2019-08-09T17:19:38Z</time>
      </trkpt>
      <trkpt lat="47.99909" lon="7.29407">
        <ele>194.7</ele>
        <time>2019-08-09T17:19:40Z</time>
      </trkpt>
      <trkpt lat="47.99906" lon="7.2941">
        <ele>194.7</ele>
        <time>2019-08-09T17:19:41Z</time>
      </trkpt>
      <trkpt lat="47.99903" lon="7.29411">
        <ele>194.7</ele>
        <time>2019-08-09T17:19:42Z</time>
      </trkpt>
      <trkpt lat="47.999" lon="7.29412">
        <ele>194.7</ele>
        <time>2019-08-09T17:19:43Z</time>
      </trkpt>
      <trkpt lat="47.99895" lon="7.29414">
        <ele>194.6</ele>
        <time>2019-08-09T17:19:45Z</time>
      </trkpt>
      <trkpt lat="47.9989" lon="7.29414">
        <ele>194.6</ele>
        <time>2019-08-09T17:19:47Z</time>
      </trkpt>
      <trkpt lat="47.99886" lon="7.29415">
        <ele>194.6</ele>
        <time>2019-08-09T17:19:48Z</time>
      </trkpt>
      <trkpt lat="47.99882" lon="7.29415">
        <ele>194.6</ele>
        <time>2019-08-09T17:19:49Z</time>
      </trkpt>
      <trkpt lat="47.99879" lon="7.29415">
        <ele>194.6</ele>
        <time>2019-08-09T17:19:50Z</time>
      </trkpt>
      <trkpt lat="47.99875" lon="7.29414">
        <ele>194.6</ele>
        <time>2019-08-09T17:19:51Z</time>
      </trkpt>
      <trkpt lat="47.99872" lon="7.29414">
        <ele>194.6</ele>
        <time>2019-08-09T17:19:52Z</time>
      </trkpt>
      <trkpt lat="47.99869" lon="7.29414">
        <ele>194.6</ele>
        <time>2019-08-09T17:19:53Z</time>
      </trkpt>
      <trkpt lat="47.99866" lon="7.29414">
        <ele>194.6</ele>
        <time>2019-08-09T17:19:54Z</time>
      </trkpt>
      <trkpt lat="47.99863" lon="7.29412">
        <ele>194.5</ele>
        <time>2019-08-09T17:19:55Z</time>
      </trkpt>
      <trkpt lat="47.99858" lon="7.29412">
        <ele>194.5</ele>
        <time>2019-08-09T17:19:56Z</time>
      </trkpt>
      <trkpt lat="47.99854" lon="7.29411">
        <ele>194.5</ele>
        <time>2019-08-09T17:19:57Z</time>
      </trkpt>
      <trkpt lat="47.9985" lon="7.29411">
        <ele>194.5</ele>
        <time>2019-08-09T17:19:58Z</time>
      </trkpt>
      <trkpt lat="47.99846" lon="7.29412">
        <ele>194.5</ele>
        <time>2019-08-09T17:19:59Z</time>
      </trkpt>
      <trkpt lat="47.99841" lon="7.29413">
        <ele>194.5</ele>
        <time>2019-08-09T17:20:00Z</time>
      </trkpt>
      <trkpt lat="47.99836" lon="7.29413">
        <ele>194.5</ele>
        <time>2019-08-09T17:20:01Z</time>
      </trkpt>
      <trkpt lat="47.99831" lon="7.29411">
        <ele>194.5</ele>
        <time>2019-08-09T17:20:02Z</time>
      </trkpt>
      <trkpt lat="47.99827" lon="7.29409">
        <ele>194.5</ele>
        <time>2019-08-09T17:20:03Z</time>
      </trkpt>
      <trkpt lat="47.99823" lon="7.29407">
        <ele>194.5</ele>
        <time>2019-08-09T17:20:04Z</time>
      </trkpt>
      <trkpt lat="47.99819" lon="7.29406">
        <ele>194.5</ele>
        <time>2019-08-09T17:20:05Z</time>
      </trkpt>
      <trkpt lat="47.99814" lon="7.29406">
        <ele>194.5</ele>
        <time>2019-08-09T17:20:06Z</time>
      </trkpt>
      <trkpt lat="47.99811" lon="7.29405">
        <ele>194.5</ele>
        <time>2019-08-09T17:20:07Z</time>
      </trkpt>
      <trkpt lat="47.99807" lon="7.29403">
        <ele>194.6</ele>
        <time>2019-08-09T17:20:08Z</time>
      </trkpt>
      <trkpt lat="47.99804" lon="7.29402">
        <ele>194.6</ele>
        <time>2019-08-09T17:20:09Z</time>
      </trkpt>
      <trkpt lat="47.99801" lon="7.29401">
        <ele>194.6</ele>
        <time>2019-08-09T17:20:10Z</time>
      </trkpt>
      <trkpt lat="47.99797" lon="7.294">
        <ele>194.6</ele>
        <time>2019-08-09T17:20:11Z</time>
      </trkpt>
      <trkpt lat="47.99794" lon="7.29399">
        <ele>194.6</ele>
        <time>2019-08-09T17:20:12Z</time>
      </trkpt>
      <trkpt lat="47.9979" lon="7.29397">
        <ele>194.6</ele>
        <time>2019-08-09T17:20:13Z</time>
      </trkpt>
      <trkpt lat="47.99786" lon="7.29396">
        <ele>194.6</ele>
        <time>2019-08-09T17:20:14Z</time>
      </trkpt>
      <trkpt lat="47.99782" lon="7.29396">
        <ele>194.6</ele>
        <time>2019-08-09T17:20:15Z</time>
      </trkpt>
      <trkpt lat="47.99778" lon="7.29395">
        <ele>194.6</ele>
        <time>2019-08-09T17:20:16Z</time>
      </trkpt>
      <trkpt lat="47.99774" lon="7.29395">
        <ele>194.6</ele>
        <time>2019-08-09T17:20:17Z</time>
      </trkpt>
      <trkpt lat="47.9977" lon="7.29394">
        <ele>194.6</ele>
        <time>2019-08-09T17:20:18Z</time>
      </trkpt>
      <trkpt lat="47.99767" lon="7.29393">
        <ele>194.6</ele>
        <time>2019-08-09T17:20:19Z</time>
      </trkpt>
      <trkpt lat="47.99763" lon="7.29393">
        <ele>194.6</ele>
        <time>2019-08-09T17:20:20Z</time>
      </trkpt>
      <trkpt lat="47.99759" lon="7.29392">
        <ele>194.6</ele>
        <time>2019-08-09T17:20:21Z</time>
      </trkpt>
      <trkpt lat="47.99755" lon="7.29392">
        <ele>194.6</ele>
        <time>2019-08-09T17:20:22Z</time>
      </trkpt>
      <trkpt lat="47.99751" lon="7.29392">
        <ele>194.6</ele>
        <time>2019-08-09T17:20:23Z</time>
      </trkpt>
      <trkpt lat="47.99748" lon="7.29392">
        <ele>194.6</ele>
        <time>2019-08-09T17:20:24Z</time>
      </trkpt>
      <trkpt lat="47.99743" lon="7.29391">
        <ele>194.6</ele>
        <time>2019-08-09T17:20:25Z</time>
      </trkpt>
      <trkpt lat="47.99739" lon="7.2939">
        <ele>194.6</ele>
        <time>2019-08-09T17:20:26Z</time>
      </trkpt>
      <trkpt lat="47.99735" lon="7.2939">
        <ele>194.6</ele>
        <time>2019-08-09T17:20:27Z</time>
      </trkpt>
      <trkpt lat="47.99731" lon="7.29389">
        <ele>194.6</ele>
        <time>2019-08-09T17:20:28Z</time>
      </trkpt>
      <trkpt lat="47.99727" lon="7.29388">
        <ele>194.6</ele>
        <time>2019-08-09T17:20:29Z</time>
      </trkpt>
      <trkpt lat="47.99723" lon="7.29387">
        <ele>194.6</ele>
        <time>2019-08-09T17:20:30Z</time>
      </trkpt>
      <trkpt lat="47.99718" lon="7.29387">
        <ele>194.6</ele>
        <time>2019-08-09T17:20:31Z</time>
      </trkpt>
      <trkpt lat="47.99715" lon="7.29386">
        <ele>194.6</ele>
        <time>2019-08-09T17:20:32Z</time>
      </trkpt>
      <trkpt lat="47.99711" lon="7.29385">
        <ele>194.6</ele>
        <time>2019-08-09T17:20:33Z</time>
      </trkpt>
      <trkpt lat="47.99707" lon="7.29385">
        <ele>194.6</ele>
        <time>2019-08-09T17:20:34Z</time>
      </trkpt>
      <trkpt lat="47.99703" lon="7.29384">
        <ele>194.6</ele>
        <time>2019-08-09T17:20:35Z</time>
      </trkpt>
      <trkpt lat="47.99699" lon="7.29383">
        <ele>194.6</ele>
        <time>2019-08-09T17:20:36Z</time>
      </trkpt>
      <trkpt lat="47.99695" lon="7.29383">
        <ele>194.6</ele>
        <time>2019-08-09T17:20:37Z</time>
      </trkpt>
      <trkpt lat="47.99691" lon="7.29382">
        <ele>194.6</ele>
        <time>2019-08-09T17:20:38Z</time>
      </trkpt>
      <trkpt lat="47.99687" lon="7.29382">
        <ele>194.6</ele>
        <time>2019-08-09T17:20:39Z</time>
      </trkpt>
      <trkpt lat="47.99683" lon="7.29381">
        <ele>194.6</ele>
        <time>2019-08-09T17:20:40Z</time>
      </trkpt>
      <trkpt lat="47.99679" lon="7.2938">
        <ele>194.6</ele>
        <time>2019-08-09T17:20:41Z</time>
      </trkpt>
      <trkpt lat="47.99675" lon="7.29379">
        <ele>194.6</ele>
        <time>2019-08-09T17:20:42Z</time>
      </trkpt>
      <trkpt lat="47.99671" lon="7.29378">
        <ele>194.6</ele>
        <time>2019-08-09T17:20:43Z</time>
      </trkpt>
      <trkpt lat="47.99667" lon="7.29377">
        <ele>194.6</ele>
        <time>2019-08-09T17:20:44Z</time>
      </trkpt>
      <trkpt lat="47.99663" lon="7.29376">
        <ele>194.6</ele>
        <time>2019-08-09T17:20:45Z</time>
      </trkpt>
      <trkpt lat="47.9966" lon="7.29376">
        <ele>194.6</ele>
        <time>2019-08-09T17:20:46Z</time>
      </trkpt>
      <trkpt lat="47.99656" lon="7.29375">
        <ele>194.6</ele>
        <time>2019-08-09T17:20:47Z</time>
      </trkpt>
      <trkpt lat="47.99653" lon="7.29375">
        <ele>194.6</ele>
        <time>2019-08-09T17:20:48Z</time>
      </trkpt>
      <trkpt lat="47.9965" lon="7.29374">
        <ele>194.7</ele>
        <time>2019-08-09T17:20:49Z</time>
      </trkpt>
      <trkpt lat="47.99646" lon="7.29374">
        <ele>194.7</ele>
        <time>2019-08-09T17:20:50Z</time>
      </trkpt>
      <trkpt lat="47.99643" lon="7.29373">
        <ele>194.7</ele>
        <time>2019-08-09T17:20:51Z</time>
      </trkpt>
      <trkpt lat="47.9964" lon="7.29373">
        <ele>194.7</ele>
        <time>2019-08-09T17:20:52Z</time>
      </trkpt>
      <trkpt lat="47.99636" lon="7.29372">
        <ele>194.7</ele>
        <time>2019-08-09T17:20:53Z</time>
      </trkpt>
      <trkpt lat="47.99632" lon="7.29371">
        <ele>194.7</ele>
        <time>2019-08-09T17:20:54Z</time>
      </trkpt>
      <trkpt lat="47.99629" lon="7.29371">
        <ele>194.7</ele>
        <time>2019-08-09T17:20:55Z</time>
      </trkpt>
      <trkpt lat="47.99625" lon="7.2937">
        <ele>194.8</ele>
        <time>2019-08-09T17:20:56Z</time>
      </trkpt>
      <trkpt lat="47.99621" lon="7.29369">
        <ele>194.8</ele>
        <time>2019-08-09T17:20:57Z</time>
      </trkpt>
      <trkpt lat="47.99617" lon="7.29368">
        <ele>194.8</ele>
        <time>2019-08-09T17:20:58Z</time>
      </trkpt>
      <trkpt lat="47.99613" lon="7.29367">
        <ele>194.8</ele>
        <time>2019-08-09T17:20:59Z</time>
      </trkpt>
      <trkpt lat="47.99609" lon="7.29367">
        <ele>194.8</ele>
        <time>2019-08-09T17:21:00Z</time>
      </trkpt>
      <trkpt lat="47.99605" lon="7.29366">
        <ele>194.9</ele>
        <time>2019-08-09T17:21:01Z</time>
      </trkpt>
      <trkpt lat="47.99601" lon="7.29365">
        <ele>194.9</ele>
        <time>2019-08-09T17:21:02Z</time>
      </trkpt>
      <trkpt lat="47.99596" lon="7.29364">
        <ele>194.9</ele>
        <time>2019-08-09T17:21:03Z</time>
      </trkpt>
      <trkpt lat="47.99592" lon="7.29364">
        <ele>195</ele>
        <time>2019-08-09T17:21:04Z</time>
      </trkpt>
      <trkpt lat="47.99589" lon="7.29364">
        <ele>195</ele>
        <time>2019-08-09T17:21:05Z</time>
      </trkpt>
      <trkpt lat="47.99585" lon="7.29363">
        <ele>195</ele>
        <time>2019-08-09T17:21:06Z</time>
      </trkpt>
      <trkpt lat="47.99581" lon="7.29363">
        <ele>195.1</ele>
        <time>2019-08-09T17:21:07Z</time>
      </trkpt>
      <trkpt lat="47.99577" lon="7.29362">
        <ele>195.1</ele>
        <time>2019-08-09T17:21:08Z</time>
      </trkpt>
      <trkpt lat="47.99574" lon="7.29362">
        <ele>195.1</ele>
        <time>2019-08-09T17:21:09Z</time>
      </trkpt>
      <trkpt lat="47.9957" lon="7.29361">
        <ele>195.1</ele>
        <time>2019-08-09T17:21:10Z</time>
      </trkpt>
      <trkpt lat="47.99566" lon="7.29361">
        <ele>195.2</ele>
        <time>2019-08-09T17:21:11Z</time>
      </trkpt>
      <trkpt lat="47.99562" lon="7.2936">
        <ele>195.2</ele>
        <time>2019-08-09T17:21:12Z</time>
      </trkpt>
      <trkpt lat="47.99558" lon="7.2936">
        <ele>195.2</ele>
        <time>2019-08-09T17:21:13Z</time>
      </trkpt>
      <trkpt lat="47.99554" lon="7.29359">
        <ele>195.2</ele>
        <time>2019-08-09T17:21:14Z</time>
      </trkpt>
      <trkpt lat="47.9955" lon="7.29359">
        <ele>195.3</ele>
        <time>2019-08-09T17:21:15Z</time>
      </trkpt>
      <trkpt lat="47.99546" lon="7.29358">
        <ele>195.3</ele>
        <time>2019-08-09T17:21:16Z</time>
      </trkpt>
      <trkpt lat="47.99542" lon="7.29357">
        <ele>195.3</ele>
        <time>2019-08-09T17:21:17Z</time>
      </trkpt>
      <trkpt lat="47.99538" lon="7.29357">
        <ele>195.3</ele>
        <time>2019-08-09T17:21:18Z</time>
      </trkpt>
      <trkpt lat="47.99534" lon="7.29356">
        <ele>195.4</ele>
        <time>2019-08-09T17:21:19Z</time>
      </trkpt>
      <trkpt lat="47.9953" lon="7.29355">
        <ele>195.4</ele>
        <time>2019-08-09T17:21:20Z</time>
      </trkpt>
      <trkpt lat="47.99526" lon="7.29354">
        <ele>195.4</ele>
        <time>2019-08-09T17:21:21Z</time>
      </trkpt>
      <trkpt lat="47.99523" lon="7.29354">
        <ele>195.5</ele>
        <time>2019-08-09T17:21:22Z</time>
      </trkpt>
      <trkpt lat="47.99519" lon="7.29353">
        <ele>195.5</ele>
        <time>2019-08-09T17:21:23Z</time>
      </trkpt>
      <trkpt lat="47.99515" lon="7.29352">
        <ele>195.5</ele>
        <time>2019-08-09T17:21:24Z</time>
      </trkpt>
      <trkpt lat="47.9951" lon="7.29352">
        <ele>195.6</ele>
        <time>2019-08-09T17:21:25Z</time>
      </trkpt>
      <trkpt lat="47.99506" lon="7.29352">
        <ele>195.6</ele>
        <time>2019-08-09T17:21:26Z</time>
      </trkpt>
      <trkpt lat="47.99502" lon="7.29351">
        <ele>195.7</ele>
        <time>2019-08-09T17:21:27Z</time>
      </trkpt>
      <trkpt lat="47.99498" lon="7.29351">
        <ele>195.7</ele>
        <time>2019-08-09T17:21:28Z</time>
      </trkpt>
      <trkpt lat="47.99495" lon="7.29349">
        <ele>195.7</ele>
        <time>2019-08-09T17:21:29Z</time>
      </trkpt>
      <trkpt lat="47.99491" lon="7.29348">
        <ele>195.8</ele>
        <time>2019-08-09T17:21:30Z</time>
      </trkpt>
      <trkpt lat="47.99486" lon="7.29348">
        <ele>195.8</ele>
        <time>2019-08-09T17:21:31Z</time>
      </trkpt>
      <trkpt lat="47.99482" lon="7.29347">
        <ele>195.9</ele>
        <time>2019-08-09T17:21:32Z</time>
      </trkpt>
      <trkpt lat="47.99479" lon="7.29346">
        <ele>195.9</ele>
        <time>2019-08-09T17:21:33Z</time>
      </trkpt>
      <trkpt lat="47.99475" lon="7.29345">
        <ele>196</ele>
        <time>2019-08-09T17:21:34Z</time>
      </trkpt>
      <trkpt lat="47.9947" lon="7.29345">
        <ele>196</ele>
        <time>2019-08-09T17:21:35Z</time>
      </trkpt>
      <trkpt lat="47.99466" lon="7.29344">
        <ele>196</ele>
        <time>2019-08-09T17:21:36Z</time>
      </trkpt>
      <trkpt lat="47.99462" lon="7.29344">
        <ele>196.1</ele>
        <time>2019-08-09T17:21:37Z</time>
      </trkpt>
      <trkpt lat="47.99458" lon="7.29343">
        <ele>196.2</ele>
        <time>2019-08-09T17:21:38Z</time>
      </trkpt>
      <trkpt lat="47.99454" lon="7.29342">
        <ele>196.2</ele>
        <time>2019-08-09T17:21:39Z</time>
      </trkpt>
      <trkpt lat="47.9945" lon="7.29342">
        <ele>196.2</ele>
        <time>2019-08-09T17:21:40Z</time>
      </trkpt>
      <trkpt lat="47.99445" lon="7.29342">
        <ele>196.3</ele>
        <time>2019-08-09T17:21:41Z</time>
      </trkpt>
      <trkpt lat="47.99441" lon="7.29341">
        <ele>196.4</ele>
        <time>2019-08-09T17:21:42Z</time>
      </trkpt>
      <trkpt lat="47.99436" lon="7.29341">
        <ele>196.4</ele>
        <time>2019-08-09T17:21:43Z</time>
      </trkpt>
      <trkpt lat="47.99432" lon="7.29341">
        <ele>196.5</ele>
        <time>2019-08-09T17:21:44Z</time>
      </trkpt>
      <trkpt lat="47.99427" lon="7.29341">
        <ele>196.6</ele>
        <time>2019-08-09T17:21:45Z</time>
      </trkpt>
      <trkpt lat="47.99423" lon="7.29341">
        <ele>196.8</ele>
        <time>2019-08-09T17:21:46Z</time>
      </trkpt>
      <trkpt lat="47.99418" lon="7.29342">
        <ele>196.9</ele>
        <time>2019-08-09T17:21:47Z</time>
      </trkpt>
      <trkpt lat="47.99414" lon="7.29342">
        <ele>197</ele>
        <time>2019-08-09T17:21:48Z</time>
      </trkpt>
      <trkpt lat="47.99409" lon="7.29343">
        <ele>197.2</ele>
        <time>2019-08-09T17:21:49Z</time>
      </trkpt>
      <trkpt lat="47.99405" lon="7.29343">
        <ele>197.3</ele>
        <time>2019-08-09T17:21:50Z</time>
      </trkpt>
      <trkpt lat="47.994" lon="7.29343">
        <ele>197.4</ele>
        <time>2019-08-09T17:21:51Z</time>
      </trkpt>
      <trkpt lat="47.99396" lon="7.29343">
        <ele>197.5</ele>
        <time>2019-08-09T17:21:52Z</time>
      </trkpt>
      <trkpt lat="47.99391" lon="7.29343">
        <ele>197.7</ele>
        <time>2019-08-09T17:21:53Z</time>
      </trkpt>
      <trkpt lat="47.99387" lon="7.29343">
        <ele>197.8</ele>
        <time>2019-08-09T17:21:54Z</time>
      </trkpt>
      <trkpt lat="47.99382" lon="7.29343">
        <ele>197.8</ele>
        <time>2019-08-09T17:21:55Z</time>
      </trkpt>
      <trkpt lat="47.99378" lon="7.29343">
        <ele>197.9</ele>
        <time>2019-08-09T17:21:56Z</time>
      </trkpt>
      <trkpt lat="47.99374" lon="7.29343">
        <ele>197.9</ele>
        <time>2019-08-09T17:21:57Z</time>
      </trkpt>
      <trkpt lat="47.99371" lon="7.29343">
        <ele>198</ele>
        <time>2019-08-09T17:21:58Z</time>
      </trkpt>
      <trkpt lat="47.99367" lon="7.29343">
        <ele>198</ele>
        <time>2019-08-09T17:21:59Z</time>
      </trkpt>
      <trkpt lat="47.99363" lon="7.29343">
        <ele>198</ele>
        <time>2019-08-09T17:22:00Z</time>
      </trkpt>
      <trkpt lat="47.99359" lon="7.29344">
        <ele>198</ele>
        <time>2019-08-09T17:22:01Z</time>
      </trkpt>
      <trkpt lat="47.99355" lon="7.29344">
        <ele>198</ele>
        <time>2019-08-09T17:22:02Z</time>
      </trkpt>
      <trkpt lat="47.9935" lon="7.29344">
        <ele>198.1</ele>
        <time>2019-08-09T17:22:03Z</time>
      </trkpt>
      <trkpt lat="47.99346" lon="7.29344">
        <ele>198.1</ele>
        <time>2019-08-09T17:22:04Z</time>
      </trkpt>
      <trkpt lat="47.99341" lon="7.29344">
        <ele>198.1</ele>
        <time>2019-08-09T17:22:05Z</time>
      </trkpt>
      <trkpt lat="47.99338" lon="7.29344">
        <ele>198.1</ele>
        <time>2019-08-09T17:22:06Z</time>
      </trkpt>
      <trkpt lat="47.99334" lon="7.29344">
        <ele>198.1</ele>
        <time>2019-08-09T17:22:07Z</time>
      </trkpt>
      <trkpt lat="47.9933" lon="7.29345">
        <ele>198.1</ele>
        <time>2019-08-09T17:22:08Z</time>
      </trkpt>
      <trkpt lat="47.99326" lon="7.29344">
        <ele>198.1</ele>
        <time>2019-08-09T17:22:09Z</time>
      </trkpt>
      <trkpt lat="47.99321" lon="7.29344">
        <ele>198.1</ele>
        <time>2019-08-09T17:22:10Z</time>
      </trkpt>
      <trkpt lat="47.99317" lon="7.29344">
        <ele>198.1</ele>
        <time>2019-08-09T17:22:11Z</time>
      </trkpt>
      <trkpt lat="47.99313" lon="7.29344">
        <ele>198</ele>
        <time>2019-08-09T17:22:12Z</time>
      </trkpt>
      <trkpt lat="47.99309" lon="7.29344">
        <ele>198</ele>
        <time>2019-08-09T17:22:13Z</time>
      </trkpt>
      <trkpt lat="47.99305" lon="7.29345">
        <ele>198</ele>
        <time>2019-08-09T17:22:14Z</time>
      </trkpt>
      <trkpt lat="47.99302" lon="7.29344">
        <ele>198</ele>
        <time>2019-08-09T17:22:15Z</time>
      </trkpt>
      <trkpt lat="47.99298" lon="7.29344">
        <ele>198</ele>
        <time>2019-08-09T17:22:16Z</time>
      </trkpt>
      <trkpt lat="47.99294" lon="7.29344">
        <ele>198</ele>
        <time>2019-08-09T17:22:17Z</time>
      </trkpt>
      <trkpt lat="47.99291" lon="7.29344">
        <ele>198</ele>
        <time>2019-08-09T17:22:18Z</time>
      </trkpt>
      <trkpt lat="47.99288" lon="7.29344">
        <ele>198</ele>
        <time>2019-08-09T17:22:19Z</time>
      </trkpt>
      <trkpt lat="47.99284" lon="7.29345">
        <ele>198</ele>
        <time>2019-08-09T17:22:20Z</time>
      </trkpt>
      <trkpt lat="47.9928" lon="7.29346">
        <ele>198</ele>
        <time>2019-08-09T17:22:21Z</time>
      </trkpt>
      <trkpt lat="47.99277" lon="7.29347">
        <ele>198.1</ele>
        <time>2019-08-09T17:22:22Z</time>
      </trkpt>
      <trkpt lat="47.99273" lon="7.29348">
        <ele>198.1</ele>
        <time>2019-08-09T17:22:23Z</time>
      </trkpt>
      <trkpt lat="47.99269" lon="7.29349">
        <ele>198.2</ele>
        <time>2019-08-09T17:22:24Z</time>
      </trkpt>
      <trkpt lat="47.99265" lon="7.2935">
        <ele>198.2</ele>
        <time>2019-08-09T17:22:25Z</time>
      </trkpt>
      <trkpt lat="47.99261" lon="7.2935">
        <ele>198.3</ele>
        <time>2019-08-09T17:22:26Z</time>
      </trkpt>
      <trkpt lat="47.99257" lon="7.29351">
        <ele>198.3</ele>
        <time>2019-08-09T17:22:27Z</time>
      </trkpt>
      <trkpt lat="47.99254" lon="7.29351">
        <ele>198.4</ele>
        <time>2019-08-09T17:22:28Z</time>
      </trkpt>
      <trkpt lat="47.9925" lon="7.29351">
        <ele>198.4</ele>
        <time>2019-08-09T17:22:29Z</time>
      </trkpt>
      <trkpt lat="47.99246" lon="7.29352">
        <ele>198.5</ele>
        <time>2019-08-09T17:22:30Z</time>
      </trkpt>
      <trkpt lat="47.99243" lon="7.29352">
        <ele>198.6</ele>
        <time>2019-08-09T17:22:31Z</time>
      </trkpt>
      <trkpt lat="47.99239" lon="7.29353">
        <ele>198.7</ele>
        <time>2019-08-09T17:22:32Z</time>
      </trkpt>
      <trkpt lat="47.99235" lon="7.29353">
        <ele>198.7</ele>
        <time>2019-08-09T17:22:33Z</time>
      </trkpt>
      <trkpt lat="47.99231" lon="7.29352">
        <ele>198.8</ele>
        <time>2019-08-09T17:22:34Z</time>
      </trkpt>
      <trkpt lat="47.99227" lon="7.29352">
        <ele>198.9</ele>
        <time>2019-08-09T17:22:35Z</time>
      </trkpt>
      <trkpt lat="47.99223" lon="7.29352">
        <ele>199</ele>
        <time>2019-08-09T17:22:36Z</time>
      </trkpt>
      <trkpt lat="47.9922" lon="7.29352">
        <ele>199</ele>
        <time>2019-08-09T17:22:37Z</time>
      </trkpt>
      <trkpt lat="47.99216" lon="7.29352">
        <ele>199.1</ele>
        <time>2019-08-09T17:22:38Z</time>
      </trkpt>
      <trkpt lat="47.99213" lon="7.29352">
        <ele>199.2</ele>
        <time>2019-08-09T17:22:39Z</time>
      </trkpt>
      <trkpt lat="47.99209" lon="7.29352">
        <ele>199.2</ele>
        <time>2019-08-09T17:22:40Z</time>
      </trkpt>
      <trkpt lat="47.99205" lon="7.29352">
        <ele>199.3</ele>
        <time>2019-08-09T17:22:41Z</time>
      </trkpt>
      <trkpt lat="47.99202" lon="7.29352">
        <ele>199.4</ele>
        <time>2019-08-09T17:22:42Z</time>
      </trkpt>
      <trkpt lat="47.99198" lon="7.29351">
        <ele>199.4</ele>
        <time>2019-08-09T17:22:43Z</time>
      </trkpt>
      <trkpt lat="47.99194" lon="7.29351">
        <ele>199.5</ele>
        <time>2019-08-09T17:22:44Z</time>
      </trkpt>
      <trkpt lat="47.99191" lon="7.29351">
        <ele>199.5</ele>
        <time>2019-08-09T17:22:45Z</time>
      </trkpt>
      <trkpt lat="47.99188" lon="7.29351">
        <ele>199.6</ele>
        <time>2019-08-09T17:22:46Z</time>
      </trkpt>
      <trkpt lat="47.99184" lon="7.29351">
        <ele>199.6</ele>
        <time>2019-08-09T17:22:47Z</time>
      </trkpt>
      <trkpt lat="47.99181" lon="7.29352">
        <ele>199.6</ele>
        <time>2019-08-09T17:22:48Z</time>
      </trkpt>
      <trkpt lat="47.99177" lon="7.29352">
        <ele>199.7</ele>
        <time>2019-08-09T17:22:49Z</time>
      </trkpt>
      <trkpt lat="47.99173" lon="7.29353">
        <ele>199.9</ele>
        <time>2019-08-09T17:22:50Z</time>
      </trkpt>
      <trkpt lat="47.99169" lon="7.29353">
        <ele>200</ele>
        <time>2019-08-09T17:22:51Z</time>
      </trkpt>
      <trkpt lat="47.99165" lon="7.29353">
        <ele>200.2</ele>
        <time>2019-08-09T17:22:52Z</time>
      </trkpt>
      <trkpt lat="47.99161" lon="7.29353">
        <ele>200.3</ele>
        <time>2019-08-09T17:22:53Z</time>
      </trkpt>
      <trkpt lat="47.99158" lon="7.29353">
        <ele>200.5</ele>
        <time>2019-08-09T17:22:54Z</time>
      </trkpt>
      <trkpt lat="47.99154" lon="7.29353">
        <ele>200.6</ele>
        <time>2019-08-09T17:22:55Z</time>
      </trkpt>
      <trkpt lat="47.9915" lon="7.29353">
        <ele>200.7</ele>
        <time>2019-08-09T17:22:56Z</time>
      </trkpt>
      <trkpt lat="47.99145" lon="7.29354">
        <ele>200.8</ele>
        <time>2019-08-09T17:22:57Z</time>
      </trkpt>
      <trkpt lat="47.99141" lon="7.29354">
        <ele>200.9</ele>
        <time>2019-08-09T17:22:58Z</time>
      </trkpt>
      <trkpt lat="47.99137" lon="7.29354">
        <ele>201</ele>
        <time>2019-08-09T17:22:59Z</time>
      </trkpt>
      <trkpt lat="47.99133" lon="7.29354">
        <ele>201.1</ele>
        <time>2019-08-09T17:23:00Z</time>
      </trkpt>
      <trkpt lat="47.99129" lon="7.29354">
        <ele>201.1</ele>
        <time>2019-08-09T17:23:01Z</time>
      </trkpt>
      <trkpt lat="47.99125" lon="7.29354">
        <ele>201.2</ele>
        <time>2019-08-09T17:23:02Z</time>
      </trkpt>
      <trkpt lat="47.99121" lon="7.29354">
        <ele>201.3</ele>
        <time>2019-08-09T17:23:03Z</time>
      </trkpt>
      <trkpt lat="47.99117" lon="7.29354">
        <ele>201.4</ele>
        <time>2019-08-09T17:23:04Z</time>
      </trkpt>
      <trkpt lat="47.99113" lon="7.29354">
        <ele>201.5</ele>
        <time>2019-08-09T17:23:05Z</time>
      </trkpt>
      <trkpt lat="47.99109" lon="7.29354">
        <ele>201.5</ele>
        <time>2019-08-09T17:23:06Z</time>
      </trkpt>
      <trkpt lat="47.99105" lon="7.29354">
        <ele>201.6</ele>
        <time>2019-08-09T17:23:07Z</time>
      </trkpt>
      <trkpt lat="47.99101" lon="7.29354">
        <ele>201.7</ele>
        <time>2019-08-09T17:23:08Z</time>
      </trkpt>
      <trkpt lat="47.99097" lon="7.29354">
        <ele>201.8</ele>
        <time>2019-08-09T17:23:09Z</time>
      </trkpt>
      <trkpt lat="47.99093" lon="7.29353">
        <ele>201.8</ele>
        <time>2019-08-09T17:23:10Z</time>
      </trkpt>
      <trkpt lat="47.99089" lon="7.29352">
        <ele>201.9</ele>
        <time>2019-08-09T17:23:11Z</time>
      </trkpt>
      <trkpt lat="47.99084" lon="7.29352">
        <ele>202</ele>
        <time>2019-08-09T17:23:12Z</time>
      </trkpt>
      <trkpt lat="47.9908" lon="7.29352">
        <ele>202.1</ele>
        <time>2019-08-09T17:23:13Z</time>
      </trkpt>
      <trkpt lat="47.99076" lon="7.29352">
        <ele>202.2</ele>
        <time>2019-08-09T17:23:14Z</time>
      </trkpt>
      <trkpt lat="47.99072" lon="7.29352">
        <ele>202.3</ele>
        <time>2019-08-09T17:23:15Z</time>
      </trkpt>
      <trkpt lat="47.99068" lon="7.29352">
        <ele>202.4</ele>
        <time>2019-08-09T17:23:16Z</time>
      </trkpt>
      <trkpt lat="47.99064" lon="7.29352">
        <ele>202.5</ele>
        <time>2019-08-09T17:23:17Z</time>
      </trkpt>
      <trkpt lat="47.99059" lon="7.29352">
        <ele>202.6</ele>
        <time>2019-08-09T17:23:18Z</time>
      </trkpt>
      <trkpt lat="47.99055" lon="7.29352">
        <ele>202.8</ele>
        <time>2019-08-09T17:23:19Z</time>
      </trkpt>
      <trkpt lat="47.99051" lon="7.29352">
        <ele>202.9</ele>
        <time>2019-08-09T17:23:20Z</time>
      </trkpt>
      <trkpt lat="47.99047" lon="7.29352">
        <ele>203</ele>
        <time>2019-08-09T17:23:21Z</time>
      </trkpt>
      <trkpt lat="47.99043" lon="7.29352">
        <ele>203.2</ele>
        <time>2019-08-09T17:23:22Z</time>
      </trkpt>
      <trkpt lat="47.99039" lon="7.29352">
        <ele>203.3</ele>
        <time>2019-08-09T17:23:23Z</time>
      </trkpt>
      <trkpt lat="47.99035" lon="7.29352">
        <ele>203.4</ele>
        <time>2019-08-09T17:23:24Z</time>
      </trkpt>
      <trkpt lat="47.9903" lon="7.29351">
        <ele>203.6</ele>
        <time>2019-08-09T17:23:25Z</time>
      </trkpt>
      <trkpt lat="47.99026" lon="7.29351">
        <ele>203.7</ele>
        <time>2019-08-09T17:23:26Z</time>
      </trkpt>
      <trkpt lat="47.99022" lon="7.29351">
        <ele>203.9</ele>
        <time>2019-08-09T17:23:27Z</time>
      </trkpt>
      <trkpt lat="47.99018" lon="7.29351">
        <ele>204</ele>
        <time>2019-08-09T17:23:28Z</time>
      </trkpt>
      <trkpt lat="47.99014" lon="7.29351">
        <ele>204.2</ele>
        <time>2019-08-09T17:23:29Z</time>
      </trkpt>
      <trkpt lat="47.9901" lon="7.2935">
        <ele>204.4</ele>
        <time>2019-08-09T17:23:30Z</time>
      </trkpt>
      <trkpt lat="47.99006" lon="7.2935">
        <ele>204.5</ele>
        <time>2019-08-09T17:23:31Z</time>
      </trkpt>
      <trkpt lat="47.99002" lon="7.2935">
        <ele>204.7</ele>
        <time>2019-08-09T17:23:32Z</time>
      </trkpt>
      <trkpt lat="47.98999" lon="7.29351">
        <ele>204.8</ele>
        <time>2019-08-09T17:23:33Z</time>
      </trkpt>
      <trkpt lat="47.98996" lon="7.29351">
        <ele>204.9</ele>
        <time>2019-08-09T17:23:34Z</time>
      </trkpt>
      <trkpt lat="47.98992" lon="7.29351">
        <ele>205</ele>
        <time>2019-08-09T17:23:35Z</time>
      </trkpt>
      <trkpt lat="47.98989" lon="7.2935">
        <ele>205.1</ele>
        <time>2019-08-09T17:23:36Z</time>
      </trkpt>
      <trkpt lat="47.98986" lon="7.29349">
        <ele>205.2</ele>
        <time>2019-08-09T17:23:37Z</time>
      </trkpt>
      <trkpt lat="47.98982" lon="7.29348">
        <ele>205.3</ele>
        <time>2019-08-09T17:23:38Z</time>
      </trkpt>
      <trkpt lat="47.98978" lon="7.29348">
        <ele>205.3</ele>
        <time>2019-08-09T17:23:39Z</time>
      </trkpt>
      <trkpt lat="47.98974" lon="7.29346">
        <ele>205.4</ele>
        <time>2019-08-09T17:23:40Z</time>
      </trkpt>
      <trkpt lat="47.98969" lon="7.29345">
        <ele>205.4</ele>
        <time>2019-08-09T17:23:41Z</time>
      </trkpt>
      <trkpt lat="47.98964" lon="7.29344">
        <ele>205.4</ele>
        <time>2019-08-09T17:23:42Z</time>
      </trkpt>
      <trkpt lat="47.9896" lon="7.29343">
        <ele>205.4</ele>
        <time>2019-08-09T17:23:43Z</time>
      </trkpt>
      <trkpt lat="47.98955" lon="7.29343">
        <ele>205.3</ele>
        <time>2019-08-09T17:23:44Z</time>
      </trkpt>
      <trkpt lat="47.9895" lon="7.29342">
        <ele>205.3</ele>
        <time>2019-08-09T17:23:45Z</time>
      </trkpt>
      <trkpt lat="47.98945" lon="7.29342">
        <ele>205.3</ele>
        <time>2019-08-09T17:23:46Z</time>
      </trkpt>
      <trkpt lat="47.9894" lon="7.29342">
        <ele>205.2</ele>
        <time>2019-08-09T17:23:47Z</time>
      </trkpt>
      <trkpt lat="47.98936" lon="7.29341">
        <ele>205.2</ele>
        <time>2019-08-09T17:23:48Z</time>
      </trkpt>
      <trkpt lat="47.98932" lon="7.29338">
        <ele>205.2</ele>
        <time>2019-08-09T17:23:49Z</time>
      </trkpt>
      <trkpt lat="47.98927" lon="7.29337">
        <ele>205.2</ele>
        <time>2019-08-09T17:23:50Z</time>
      </trkpt>
      <trkpt lat="47.98923" lon="7.29336">
        <ele>205.2</ele>
        <time>2019-08-09T17:23:51Z</time>
      </trkpt>
      <trkpt lat="47.98918" lon="7.29334">
        <ele>205.2</ele>
        <time>2019-08-09T17:23:52Z</time>
      </trkpt>
      <trkpt lat="47.98915" lon="7.29332">
        <ele>205.3</ele>
        <time>2019-08-09T17:23:53Z</time>
      </trkpt>
      <trkpt lat="47.98911" lon="7.2933">
        <ele>205.3</ele>
        <time>2019-08-09T17:23:54Z</time>
      </trkpt>
      <trkpt lat="47.98906" lon="7.2933">
        <ele>205.4</ele>
        <time>2019-08-09T17:23:55Z</time>
      </trkpt>
      <trkpt lat="47.98902" lon="7.29328">
        <ele>205.4</ele>
        <time>2019-08-09T17:23:56Z</time>
      </trkpt>
      <trkpt lat="47.98898" lon="7.29327">
        <ele>205.5</ele>
        <time>2019-08-09T17:23:57Z</time>
      </trkpt>
      <trkpt lat="47.98894" lon="7.29325">
        <ele>205.6</ele>
        <time>2019-08-09T17:23:58Z</time>
      </trkpt>
      <trkpt lat="47.98891" lon="7.29323">
        <ele>205.7</ele>
        <time>2019-08-09T17:23:59Z</time>
      </trkpt>
      <trkpt lat="47.98889" lon="7.29321">
        <ele>205.8</ele>
        <time>2019-08-09T17:24:00Z</time>
      </trkpt>
      <trkpt lat="47.98887" lon="7.29318">
        <ele>205.9</ele>
        <time>2019-08-09T17:24:01Z</time>
      </trkpt>
      <trkpt lat="47.98883" lon="7.29312">
        <ele>206</ele>
        <time>2019-08-09T17:24:03Z</time>
      </trkpt>
      <trkpt lat="47.9888" lon="7.29307">
        <ele>206.1</ele>
        <time>2019-08-09T17:24:05Z</time>
      </trkpt>
      <trkpt lat="47.98877" lon="7.29301">
        <ele>206.1</ele>
        <time>2019-08-09T17:24:07Z</time>
      </trkpt>
      <trkpt lat="47.98876" lon="7.29296">
        <ele>206.1</ele>
        <time>2019-08-09T17:24:09Z</time>
      </trkpt>
      <trkpt lat="47.98878" lon="7.29299">
        <ele>206.1</ele>
        <time>2019-08-09T17:24:14Z</time>
      </trkpt>
      <trkpt lat="47.98884" lon="7.29296">
        <ele>206.2</ele>
        <time>2019-08-09T17:30:30Z</time>
      </trkpt>
      <trkpt lat="47.98882" lon="7.2929">
        <ele>206.2</ele>
        <time>2019-08-09T17:30:32Z</time>
      </trkpt>
      <trkpt lat="47.98881" lon="7.29282">
        <ele>206.2</ele>
        <time>2019-08-09T17:30:34Z</time>
      </trkpt>
      <trkpt lat="47.9888" lon="7.29278">
        <ele>206.2</ele>
        <time>2019-08-09T17:30:35Z</time>
      </trkpt>
      <trkpt lat="47.98879" lon="7.29274">
        <ele>206.3</ele>
        <time>2019-08-09T17:30:36Z</time>
      </trkpt>
      <trkpt lat="47.98877" lon="7.29268">
        <ele>206.3</ele>
        <time>2019-08-09T17:30:38Z</time>
      </trkpt>
      <trkpt lat="47.98876" lon="7.29261">
        <ele>206.3</ele>
        <time>2019-08-09T17:30:40Z</time>
      </trkpt>
      <trkpt lat="47.98874" lon="7.29256">
        <ele>206.3</ele>
        <time>2019-08-09T17:30:41Z</time>
      </trkpt>
      <trkpt lat="47.98873" lon="7.29251">
        <ele>206.3</ele>
        <time>2019-08-09T17:30:42Z</time>
      </trkpt>
      <trkpt lat="47.98873" lon="7.29246">
        <ele>206.4</ele>
        <time>2019-08-09T17:30:43Z</time>
      </trkpt>
      <trkpt lat="47.98871" lon="7.29241">
        <ele>206.4</ele>
        <time>2019-08-09T17:30:44Z</time>
      </trkpt>
      <trkpt lat="47.9887" lon="7.29237">
        <ele>206.4</ele>
        <time>2019-08-09T17:30:45Z</time>
      </trkpt>
      <trkpt lat="47.98869" lon="7.29231">
        <ele>206.4</ele>
        <time>2019-08-09T17:30:46Z</time>
      </trkpt>
      <trkpt lat="47.98866" lon="7.29225">
        <ele>206.5</ele>
        <time>2019-08-09T17:30:48Z</time>
      </trkpt>
      <trkpt lat="47.98864" lon="7.2922">
        <ele>206.5</ele>
        <time>2019-08-09T17:30:49Z</time>
      </trkpt>
      <trkpt lat="47.98863" lon="7.29216">
        <ele>206.6</ele>
        <time>2019-08-09T17:30:50Z</time>
      </trkpt>
      <trkpt lat="47.98862" lon="7.29207">
        <ele>206.6</ele>
        <time>2019-08-09T17:30:52Z</time>
      </trkpt>
      <trkpt lat="47.98861" lon="7.29203">
        <ele>206.7</ele>
        <time>2019-08-09T17:30:53Z</time>
      </trkpt>
      <trkpt lat="47.98861" lon="7.29199">
        <ele>206.7</ele>
        <time>2019-08-09T17:30:54Z</time>
      </trkpt>
      <trkpt lat="47.98859" lon="7.29195">
        <ele>206.8</ele>
        <time>2019-08-09T17:30:55Z</time>
      </trkpt>
      <trkpt lat="47.98858" lon="7.29188">
        <ele>206.9</ele>
        <time>2019-08-09T17:30:57Z</time>
      </trkpt>
      <trkpt lat="47.98857" lon="7.29184">
        <ele>206.9</ele>
        <time>2019-08-09T17:30:58Z</time>
      </trkpt>
      <trkpt lat="47.98856" lon="7.29179">
        <ele>207</ele>
        <time>2019-08-09T17:30:59Z</time>
      </trkpt>
      <trkpt lat="47.98855" lon="7.29175">
        <ele>207</ele>
        <time>2019-08-09T17:31:00Z</time>
      </trkpt>
      <trkpt lat="47.98853" lon="7.29171">
        <ele>207.1</ele>
        <time>2019-08-09T17:31:01Z</time>
      </trkpt>
      <trkpt lat="47.98851" lon="7.29167">
        <ele>207.3</ele>
        <time>2019-08-09T17:31:02Z</time>
      </trkpt>
      <trkpt lat="47.98849" lon="7.29163">
        <ele>207.4</ele>
        <time>2019-08-09T17:31:03Z</time>
      </trkpt>
      <trkpt lat="47.98848" lon="7.29159">
        <ele>207.5</ele>
        <time>2019-08-09T17:31:04Z</time>
      </trkpt>
      <trkpt lat="47.98847" lon="7.29154">
        <ele>207.7</ele>
        <time>2019-08-09T17:31:05Z</time>
      </trkpt>
      <trkpt lat="47.98845" lon="7.29147">
        <ele>207.9</ele>
        <time>2019-08-09T17:31:07Z</time>
      </trkpt>
      <trkpt lat="47.98844" lon="7.29143">
        <ele>208.1</ele>
        <time>2019-08-09T17:31:08Z</time>
      </trkpt>
      <trkpt lat="47.98843" lon="7.29138">
        <ele>208.2</ele>
        <time>2019-08-09T17:31:09Z</time>
      </trkpt>
      <trkpt lat="47.98841" lon="7.29134">
        <ele>208.4</ele>
        <time>2019-08-09T17:31:10Z</time>
      </trkpt>
      <trkpt lat="47.98839" lon="7.29131">
        <ele>208.5</ele>
        <time>2019-08-09T17:31:11Z</time>
      </trkpt>
      <trkpt lat="47.98837" lon="7.29124">
        <ele>208.7</ele>
        <time>2019-08-09T17:31:13Z</time>
      </trkpt>
      <trkpt lat="47.98836" lon="7.29117">
        <ele>208.9</ele>
        <time>2019-08-09T17:31:15Z</time>
      </trkpt>
      <trkpt lat="47.98834" lon="7.2911">
        <ele>209.2</ele>
        <time>2019-08-09T17:31:17Z</time>
      </trkpt>
      <trkpt lat="47.98832" lon="7.29104">
        <ele>209.3</ele>
        <time>2019-08-09T17:31:19Z</time>
      </trkpt>
      <trkpt lat="47.98829" lon="7.29104">
        <ele>209.4</ele>
        <time>2019-08-09T17:31:20Z</time>
      </trkpt>
      <trkpt lat="47.98824" lon="7.29102">
        <ele>209.9</ele>
        <time>2019-08-09T17:31:22Z</time>
      </trkpt>
      <trkpt lat="47.9882" lon="7.291">
        <ele>210</ele>
        <time>2019-08-09T17:31:24Z</time>
      </trkpt>
      <trkpt lat="47.98816" lon="7.29099">
        <ele>210.1</ele>
        <time>2019-08-09T17:31:26Z</time>
      </trkpt>
      <trkpt lat="47.98811" lon="7.29103">
        <ele>210.2</ele>
        <time>2019-08-09T17:31:28Z</time>
      </trkpt>
      <trkpt lat="47.98807" lon="7.29106">
        <ele>210.3</ele>
        <time>2019-08-09T17:31:30Z</time>
      </trkpt>
      <trkpt lat="47.98804" lon="7.29107">
        <ele>210.3</ele>
        <time>2019-08-09T17:31:32Z</time>
      </trkpt>
      <trkpt lat="47.98799" lon="7.2911">
        <ele>210.5</ele>
        <time>2019-08-09T17:31:34Z</time>
      </trkpt>
      <trkpt lat="47.98796" lon="7.29112">
        <ele>210.6</ele>
        <time>2019-08-09T17:31:35Z</time>
      </trkpt>
      <trkpt lat="47.98791" lon="7.29114">
        <ele>210.8</ele>
        <time>2019-08-09T17:31:37Z</time>
      </trkpt>
      <trkpt lat="47.98788" lon="7.29113">
        <ele>210.9</ele>
        <time>2019-08-09T17:31:39Z</time>
      </trkpt>
      <trkpt lat="47.98783" lon="7.29112">
        <ele>211.1</ele>
        <time>2019-08-09T17:31:41Z</time>
      </trkpt>
      <trkpt lat="47.98779" lon="7.29113">
        <ele>211.2</ele>
        <time>2019-08-09T17:31:43Z</time>
      </trkpt>
      <trkpt lat="47.98776" lon="7.29114">
        <ele>211.3</ele>
        <time>2019-08-09T17:31:45Z</time>
      </trkpt>
      <trkpt lat="47.98772" lon="7.29114">
        <ele>211.4</ele>
        <time>2019-08-09T17:31:47Z</time>
      </trkpt>
      <trkpt lat="47.98769" lon="7.29113">
        <ele>211.6</ele>
        <time>2019-08-09T17:31:49Z</time>
      </trkpt>
      <trkpt lat="47.98765" lon="7.29114">
        <ele>211.7</ele>
        <time>2019-08-09T17:31:51Z</time>
      </trkpt>
      <trkpt lat="47.9876" lon="7.29115">
        <ele>211.9</ele>
        <time>2019-08-09T17:31:53Z</time>
      </trkpt>
      <trkpt lat="47.98757" lon="7.29115">
        <ele>211.9</ele>
        <time>2019-08-09T17:31:54Z</time>
      </trkpt>
      <trkpt lat="47.98752" lon="7.29114">
        <ele>212</ele>
        <time>2019-08-09T17:31:56Z</time>
      </trkpt>
      <trkpt lat="47.98747" lon="7.29114">
        <ele>212.1</ele>
        <time>2019-08-09T17:31:58Z</time>
      </trkpt>
      <trkpt lat="47.98744" lon="7.29114">
        <ele>212.2</ele>
        <time>2019-08-09T17:31:59Z</time>
      </trkpt>
      <trkpt lat="47.98741" lon="7.29113">
        <ele>212.2</ele>
        <time>2019-08-09T17:32:00Z</time>
      </trkpt>
      <trkpt lat="47.98739" lon="7.29114">
        <ele>212.2</ele>
        <time>2019-08-09T17:32:01Z</time>
      </trkpt>
      <trkpt lat="47.98735" lon="7.29115">
        <ele>212.3</ele>
        <time>2019-08-09T17:32:02Z</time>
      </trkpt>
      <trkpt lat="47.98732" lon="7.29117">
        <ele>212.4</ele>
        <time>2019-08-09T17:32:03Z</time>
      </trkpt>
      <trkpt lat="47.98728" lon="7.29116">
        <ele>212.4</ele>
        <time>2019-08-09T17:32:04Z</time>
      </trkpt>
      <trkpt lat="47.98724" lon="7.29116">
        <ele>212.5</ele>
        <time>2019-08-09T17:32:06Z</time>
      </trkpt>
      <trkpt lat="47.98719" lon="7.29116">
        <ele>212.7</ele>
        <time>2019-08-09T17:32:08Z</time>
      </trkpt>
      <trkpt lat="47.98714" lon="7.29117">
        <ele>212.8</ele>
        <time>2019-08-09T17:32:10Z</time>
      </trkpt>
      <trkpt lat="47.9871" lon="7.29117">
        <ele>213</ele>
        <time>2019-08-09T17:32:11Z</time>
      </trkpt>
      <trkpt lat="47.98705" lon="7.29117">
        <ele>213.2</ele>
        <time>2019-08-09T17:32:13Z</time>
      </trkpt>
      <trkpt lat="47.98702" lon="7.29118">
        <ele>213.3</ele>
        <time>2019-08-09T17:32:14Z</time>
      </trkpt>
      <trkpt lat="47.98699" lon="7.29118">
        <ele>213.5</ele>
        <time>2019-08-09T17:32:15Z</time>
      </trkpt>
      <trkpt lat="47.98696" lon="7.29118">
        <ele>213.6</ele>
        <time>2019-08-09T17:32:16Z</time>
      </trkpt>
      <trkpt lat="47.9869" lon="7.2912">
        <ele>213.9</ele>
        <time>2019-08-09T17:32:18Z</time>
      </trkpt>
      <trkpt lat="47.98687" lon="7.2912">
        <ele>214</ele>
        <time>2019-08-09T17:32:19Z</time>
      </trkpt>
      <trkpt lat="47.98682" lon="7.29121">
        <ele>214.2</ele>
        <time>2019-08-09T17:32:21Z</time>
      </trkpt>
      <trkpt lat="47.98677" lon="7.29123">
        <ele>214.3</ele>
        <time>2019-08-09T17:32:23Z</time>
      </trkpt>
      <trkpt lat="47.98673" lon="7.29123">
        <ele>214.4</ele>
        <time>2019-08-09T17:32:25Z</time>
      </trkpt>
      <trkpt lat="47.98669" lon="7.29125">
        <ele>214.5</ele>
        <time>2019-08-09T17:32:27Z</time>
      </trkpt>
      <trkpt lat="47.98664" lon="7.29127">
        <ele>214.6</ele>
        <time>2019-08-09T17:32:29Z</time>
      </trkpt>
      <trkpt lat="47.9866" lon="7.29127">
        <ele>214.8</ele>
        <time>2019-08-09T17:32:31Z</time>
      </trkpt>
      <trkpt lat="47.98656" lon="7.29127">
        <ele>214.9</ele>
        <time>2019-08-09T17:32:33Z</time>
      </trkpt>
      <trkpt lat="47.98653" lon="7.29127">
        <ele>215.1</ele>
        <time>2019-08-09T17:32:35Z</time>
      </trkpt>
      <trkpt lat="47.9865" lon="7.29126">
        <ele>215.2</ele>
        <time>2019-08-09T17:32:37Z</time>
      </trkpt>
      <trkpt lat="47.98646" lon="7.29124">
        <ele>215.3</ele>
        <time>2019-08-09T17:32:39Z</time>
      </trkpt>
      <trkpt lat="47.98642" lon="7.29124">
        <ele>215.5</ele>
        <time>2019-08-09T17:32:41Z</time>
      </trkpt>
      <trkpt lat="47.98637" lon="7.29124">
        <ele>215.7</ele>
        <time>2019-08-09T17:32:43Z</time>
      </trkpt>
      <trkpt lat="47.98632" lon="7.29124">
        <ele>216</ele>
        <time>2019-08-09T17:32:45Z</time>
      </trkpt>
      <trkpt lat="47.98629" lon="7.29125">
        <ele>216.2</ele>
        <time>2019-08-09T17:32:46Z</time>
      </trkpt>
      <trkpt lat="47.98624" lon="7.29124">
        <ele>216.4</ele>
        <time>2019-08-09T17:32:48Z</time>
      </trkpt>
      <trkpt lat="47.98621" lon="7.29124">
        <ele>216.6</ele>
        <time>2019-08-09T17:32:49Z</time>
      </trkpt>
      <trkpt lat="47.98618" lon="7.29123">
        <ele>216.7</ele>
        <time>2019-08-09T17:32:50Z</time>
      </trkpt>
      <trkpt lat="47.98615" lon="7.29124">
        <ele>216.9</ele>
        <time>2019-08-09T17:32:51Z</time>
      </trkpt>
      <trkpt lat="47.98612" lon="7.29124">
        <ele>217</ele>
        <time>2019-08-09T17:32:52Z</time>
      </trkpt>
      <trkpt lat="47.98607" lon="7.29123">
        <ele>217.3</ele>
        <time>2019-08-09T17:32:54Z</time>
      </trkpt>
      <trkpt lat="47.98604" lon="7.29123">
        <ele>217.4</ele>
        <time>2019-08-09T17:32:55Z</time>
      </trkpt>
      <trkpt lat="47.98602" lon="7.29122">
        <ele>217.5</ele>
        <time>2019-08-09T17:32:56Z</time>
      </trkpt>
      <trkpt lat="47.98597" lon="7.2912">
        <ele>217.6</ele>
        <time>2019-08-09T17:32:58Z</time>
      </trkpt>
      <trkpt lat="47.98593" lon="7.29121">
        <ele>217.8</ele>
        <time>2019-08-09T17:33:00Z</time>
      </trkpt>
      <trkpt lat="47.98587" lon="7.29121">
        <ele>217.8</ele>
        <time>2019-08-09T17:33:02Z</time>
      </trkpt>
      <trkpt lat="47.98583" lon="7.29122">
        <ele>217.9</ele>
        <time>2019-08-09T17:33:04Z</time>
      </trkpt>
      <trkpt lat="47.98577" lon="7.29122">
        <ele>217.9</ele>
        <time>2019-08-09T17:33:06Z</time>
      </trkpt>
      <trkpt lat="47.98572" lon="7.29122">
        <ele>218</ele>
        <time>2019-08-09T17:33:08Z</time>
      </trkpt>
      <trkpt lat="47.98567" lon="7.29122">
        <ele>218</ele>
        <time>2019-08-09T17:33:10Z</time>
      </trkpt>
      <trkpt lat="47.98563" lon="7.29122">
        <ele>218.1</ele>
        <time>2019-08-09T17:33:12Z</time>
      </trkpt>
      <trkpt lat="47.98559" lon="7.29121">
        <ele>218.1</ele>
        <time>2019-08-09T17:33:14Z</time>
      </trkpt>
      <trkpt lat="47.98555" lon="7.2912">
        <ele>218.2</ele>
        <time>2019-08-09T17:33:16Z</time>
      </trkpt>
      <trkpt lat="47.98551" lon="7.29122">
        <ele>218.5</ele>
        <time>2019-08-09T17:33:18Z</time>
      </trkpt>
      <trkpt lat="47.98546" lon="7.29122">
        <ele>218.8</ele>
        <time>2019-08-09T17:33:20Z</time>
      </trkpt>
      <trkpt lat="47.98541" lon="7.29121">
        <ele>219.1</ele>
        <time>2019-08-09T17:33:22Z</time>
      </trkpt>
      <trkpt lat="47.98538" lon="7.29121">
        <ele>219.2</ele>
        <time>2019-08-09T17:33:24Z</time>
      </trkpt>
      <trkpt lat="47.98534" lon="7.29122">
        <ele>219.4</ele>
        <time>2019-08-09T17:33:26Z</time>
      </trkpt>
      <trkpt lat="47.9853" lon="7.29123">
        <ele>219.6</ele>
        <time>2019-08-09T17:33:27Z</time>
      </trkpt>
      <trkpt lat="47.98527" lon="7.29124">
        <ele>219.7</ele>
        <time>2019-08-09T17:33:28Z</time>
      </trkpt>
      <trkpt lat="47.98524" lon="7.29125">
        <ele>219.9</ele>
        <time>2019-08-09T17:33:29Z</time>
      </trkpt>
      <trkpt lat="47.98521" lon="7.29125">
        <ele>220</ele>
        <time>2019-08-09T17:33:30Z</time>
      </trkpt>
      <trkpt lat="47.98517" lon="7.29126">
        <ele>220.1</ele>
        <time>2019-08-09T17:33:31Z</time>
      </trkpt>
      <trkpt lat="47.98514" lon="7.29127">
        <ele>220.1</ele>
        <time>2019-08-09T17:33:32Z</time>
      </trkpt>
      <trkpt lat="47.98511" lon="7.29127">
        <ele>220.2</ele>
        <time>2019-08-09T17:33:33Z</time>
      </trkpt>
      <trkpt lat="47.98507" lon="7.29127">
        <ele>220.2</ele>
        <time>2019-08-09T17:33:34Z</time>
      </trkpt>
      <trkpt lat="47.98503" lon="7.29127">
        <ele>220.3</ele>
        <time>2019-08-09T17:33:35Z</time>
      </trkpt>
      <trkpt lat="47.985" lon="7.29127">
        <ele>220.3</ele>
        <time>2019-08-09T17:33:36Z</time>
      </trkpt>
      <trkpt lat="47.98496" lon="7.29127">
        <ele>220.4</ele>
        <time>2019-08-09T17:33:37Z</time>
      </trkpt>
      <trkpt lat="47.98493" lon="7.29126">
        <ele>220.5</ele>
        <time>2019-08-09T17:33:38Z</time>
      </trkpt>
      <trkpt lat="47.9849" lon="7.29126">
        <ele>220.5</ele>
        <time>2019-08-09T17:33:39Z</time>
      </trkpt>
      <trkpt lat="47.98486" lon="7.29126">
        <ele>220.6</ele>
        <time>2019-08-09T17:33:40Z</time>
      </trkpt>
      <trkpt lat="47.98482" lon="7.29128">
        <ele>220.7</ele>
        <time>2019-08-09T17:33:41Z</time>
      </trkpt>
      <trkpt lat="47.98479" lon="7.29128">
        <ele>220.7</ele>
        <time>2019-08-09T17:33:42Z</time>
      </trkpt>
      <trkpt lat="47.98476" lon="7.29127">
        <ele>220.8</ele>
        <time>2019-08-09T17:33:43Z</time>
      </trkpt>
      <trkpt lat="47.98471" lon="7.29126">
        <ele>221.1</ele>
        <time>2019-08-09T17:33:45Z</time>
      </trkpt>
      <trkpt lat="47.98468" lon="7.29124">
        <ele>221.1</ele>
        <time>2019-08-09T17:33:46Z</time>
      </trkpt>
      <trkpt lat="47.98464" lon="7.29122">
        <ele>221.2</ele>
        <time>2019-08-09T17:33:47Z</time>
      </trkpt>
      <trkpt lat="47.98461" lon="7.2912">
        <ele>221.3</ele>
        <time>2019-08-09T17:33:48Z</time>
      </trkpt>
      <trkpt lat="47.98458" lon="7.29119">
        <ele>221.3</ele>
        <time>2019-08-09T17:33:49Z</time>
      </trkpt>
      <trkpt lat="47.98455" lon="7.29117">
        <ele>221.4</ele>
        <time>2019-08-09T17:33:50Z</time>
      </trkpt>
      <trkpt lat="47.98452" lon="7.29116">
        <ele>221.4</ele>
        <time>2019-08-09T17:33:51Z</time>
      </trkpt>
      <trkpt lat="47.98449" lon="7.29114">
        <ele>221.5</ele>
        <time>2019-08-09T17:33:52Z</time>
      </trkpt>
      <trkpt lat="47.98446" lon="7.29113">
        <ele>221.5</ele>
        <time>2019-08-09T17:33:53Z</time>
      </trkpt>
      <trkpt lat="47.98443" lon="7.29111">
        <ele>221.6</ele>
        <time>2019-08-09T17:33:54Z</time>
      </trkpt>
      <trkpt lat="47.9844" lon="7.2911">
        <ele>221.6</ele>
        <time>2019-08-09T17:33:55Z</time>
      </trkpt>
      <trkpt lat="47.98437" lon="7.29108">
        <ele>221.7</ele>
        <time>2019-08-09T17:33:56Z</time>
      </trkpt>
      <trkpt lat="47.98434" lon="7.29107">
        <ele>221.7</ele>
        <time>2019-08-09T17:33:57Z</time>
      </trkpt>
      <trkpt lat="47.9843" lon="7.29106">
        <ele>221.7</ele>
        <time>2019-08-09T17:33:58Z</time>
      </trkpt>
      <trkpt lat="47.98426" lon="7.29104">
        <ele>221.8</ele>
        <time>2019-08-09T17:33:59Z</time>
      </trkpt>
      <trkpt lat="47.98423" lon="7.29103">
        <ele>221.8</ele>
        <time>2019-08-09T17:34:00Z</time>
      </trkpt>
      <trkpt lat="47.9842" lon="7.29101">
        <ele>221.8</ele>
        <time>2019-08-09T17:34:01Z</time>
      </trkpt>
      <trkpt lat="47.98416" lon="7.29099">
        <ele>221.8</ele>
        <time>2019-08-09T17:34:02Z</time>
      </trkpt>
      <trkpt lat="47.98412" lon="7.29097">
        <ele>221.8</ele>
        <time>2019-08-09T17:34:03Z</time>
      </trkpt>
      <trkpt lat="47.98409" lon="7.29094">
        <ele>221.9</ele>
        <time>2019-08-09T17:34:04Z</time>
      </trkpt>
      <trkpt lat="47.98406" lon="7.29091">
        <ele>221.9</ele>
        <time>2019-08-09T17:34:05Z</time>
      </trkpt>
      <trkpt lat="47.98403" lon="7.29089">
        <ele>221.9</ele>
        <time>2019-08-09T17:34:06Z</time>
      </trkpt>
      <trkpt lat="47.98401" lon="7.29087">
        <ele>221.9</ele>
        <time>2019-08-09T17:34:07Z</time>
      </trkpt>
      <trkpt lat="47.98398" lon="7.29085">
        <ele>221.8</ele>
        <time>2019-08-09T17:34:08Z</time>
      </trkpt>
      <trkpt lat="47.98395" lon="7.29083">
        <ele>221.8</ele>
        <time>2019-08-09T17:34:09Z</time>
      </trkpt>
      <trkpt lat="47.98392" lon="7.29082">
        <ele>221.8</ele>
        <time>2019-08-09T17:34:10Z</time>
      </trkpt>
      <trkpt lat="47.98389" lon="7.29081">
        <ele>221.8</ele>
        <time>2019-08-09T17:34:11Z</time>
      </trkpt>
      <trkpt lat="47.98386" lon="7.2908">
        <ele>221.8</ele>
        <time>2019-08-09T17:34:12Z</time>
      </trkpt>
      <trkpt lat="47.98383" lon="7.29079">
        <ele>221.7</ele>
        <time>2019-08-09T17:34:13Z</time>
      </trkpt>
      <trkpt lat="47.9838" lon="7.29079">
        <ele>221.7</ele>
        <time>2019-08-09T17:34:14Z</time>
      </trkpt>
      <trkpt lat="47.98377" lon="7.29078">
        <ele>221.7</ele>
        <time>2019-08-09T17:34:15Z</time>
      </trkpt>
      <trkpt lat="47.98374" lon="7.29078">
        <ele>221.7</ele>
        <time>2019-08-09T17:34:16Z</time>
      </trkpt>
      <trkpt lat="47.98371" lon="7.29077">
        <ele>221.7</ele>
        <time>2019-08-09T17:34:20Z</time>
      </trkpt>
      <trkpt lat="47.98368" lon="7.29077">
        <ele>221.7</ele>
        <time>2019-08-09T17:34:43Z</time>
      </trkpt>
      <trkpt lat="47.98365" lon="7.29077">
        <ele>221.6</ele>
        <time>2019-08-09T17:34:44Z</time>
      </trkpt>
      <trkpt lat="47.98361" lon="7.29077">
        <ele>221.6</ele>
        <time>2019-08-09T17:34:45Z</time>
      </trkpt>
      <trkpt lat="47.98357" lon="7.29078">
        <ele>221.6</ele>
        <time>2019-08-09T17:34:46Z</time>
      </trkpt>
      <trkpt lat="47.98353" lon="7.29077">
        <ele>221.6</ele>
        <time>2019-08-09T17:34:47Z</time>
      </trkpt>
      <trkpt lat="47.98348" lon="7.29077">
        <ele>221.6</ele>
        <time>2019-08-09T17:34:48Z</time>
      </trkpt>
      <trkpt lat="47.98344" lon="7.29077">
        <ele>221.5</ele>
        <time>2019-08-09T17:34:49Z</time>
      </trkpt>
      <trkpt lat="47.98341" lon="7.29076">
        <ele>221.4</ele>
        <time>2019-08-09T17:34:50Z</time>
      </trkpt>
      <trkpt lat="47.98337" lon="7.29074">
        <ele>221.4</ele>
        <time>2019-08-09T17:34:51Z</time>
      </trkpt>
      <trkpt lat="47.98333" lon="7.29073">
        <ele>221.3</ele>
        <time>2019-08-09T17:34:52Z</time>
      </trkpt>
      <trkpt lat="47.9833" lon="7.29072">
        <ele>221.2</ele>
        <time>2019-08-09T17:34:53Z</time>
      </trkpt>
      <trkpt lat="47.98325" lon="7.29072">
        <ele>221.1</ele>
        <time>2019-08-09T17:34:54Z</time>
      </trkpt>
      <trkpt lat="47.9832" lon="7.29072">
        <ele>221</ele>
        <time>2019-08-09T17:34:55Z</time>
      </trkpt>
      <trkpt lat="47.98315" lon="7.29071">
        <ele>220.8</ele>
        <time>2019-08-09T17:34:56Z</time>
      </trkpt>
      <trkpt lat="47.9831" lon="7.2907">
        <ele>220.6</ele>
        <time>2019-08-09T17:34:57Z</time>
      </trkpt>
      <trkpt lat="47.98306" lon="7.29071">
        <ele>220.5</ele>
        <time>2019-08-09T17:34:58Z</time>
      </trkpt>
      <trkpt lat="47.98302" lon="7.29071">
        <ele>220.4</ele>
        <time>2019-08-09T17:34:59Z</time>
      </trkpt>
      <trkpt lat="47.98298" lon="7.29071">
        <ele>220.3</ele>
        <time>2019-08-09T17:35:00Z</time>
      </trkpt>
      <trkpt lat="47.98294" lon="7.29069">
        <ele>220.2</ele>
        <time>2019-08-09T17:35:01Z</time>
      </trkpt>
      <trkpt lat="47.98289" lon="7.29068">
        <ele>220.1</ele>
        <time>2019-08-09T17:35:02Z</time>
      </trkpt>
      <trkpt lat="47.98284" lon="7.29068">
        <ele>220</ele>
        <time>2019-08-09T17:35:03Z</time>
      </trkpt>
      <trkpt lat="47.9828" lon="7.29067">
        <ele>219.9</ele>
        <time>2019-08-09T17:35:04Z</time>
      </trkpt>
      <trkpt lat="47.98275" lon="7.29066">
        <ele>219.6</ele>
        <time>2019-08-09T17:35:05Z</time>
      </trkpt>
      <trkpt lat="47.98269" lon="7.29066">
        <ele>219.4</ele>
        <time>2019-08-09T17:35:06Z</time>
      </trkpt>
      <trkpt lat="47.98264" lon="7.29065">
        <ele>219.1</ele>
        <time>2019-08-09T17:35:07Z</time>
      </trkpt>
      <trkpt lat="47.98259" lon="7.29065">
        <ele>218.8</ele>
        <time>2019-08-09T17:35:08Z</time>
      </trkpt>
      <trkpt lat="47.98255" lon="7.29065">
        <ele>218.6</ele>
        <time>2019-08-09T17:35:09Z</time>
      </trkpt>
      <trkpt lat="47.98251" lon="7.29065">
        <ele>218.5</ele>
        <time>2019-08-09T17:35:10Z</time>
      </trkpt>
      <trkpt lat="47.98247" lon="7.29064">
        <ele>218.4</ele>
        <time>2019-08-09T17:35:11Z</time>
      </trkpt>
      <trkpt lat="47.98244" lon="7.29064">
        <ele>218.3</ele>
        <time>2019-08-09T17:35:12Z</time>
      </trkpt>
      <trkpt lat="47.98241" lon="7.29064">
        <ele>218.2</ele>
        <time>2019-08-09T17:35:15Z</time>
      </trkpt>
      <trkpt lat="47.98239" lon="7.29068">
        <ele>218.1</ele>
        <time>2019-08-09T17:35:16Z</time>
      </trkpt>
      <trkpt lat="47.98236" lon="7.29071">
        <ele>218.1</ele>
        <time>2019-08-09T17:35:17Z</time>
      </trkpt>
      <trkpt lat="47.98233" lon="7.29076">
        <ele>218.1</ele>
        <time>2019-08-09T17:35:18Z</time>
      </trkpt>
      <trkpt lat="47.98231" lon="7.29082">
        <ele>218.1</ele>
        <time>2019-08-09T17:35:19Z</time>
      </trkpt>
      <trkpt lat="47.98231" lon="7.29088">
        <ele>218.1</ele>
        <time>2019-08-09T17:35:20Z</time>
      </trkpt>
      <trkpt lat="47.9823" lon="7.29094">
        <ele>218.1</ele>
        <time>2019-08-09T17:35:21Z</time>
      </trkpt>
      <trkpt lat="47.9823" lon="7.291">
        <ele>218.1</ele>
        <time>2019-08-09T17:35:22Z</time>
      </trkpt>
      <trkpt lat="47.9823" lon="7.29106">
        <ele>218.1</ele>
        <time>2019-08-09T17:35:23Z</time>
      </trkpt>
      <trkpt lat="47.9823" lon="7.29112">
        <ele>218.1</ele>
        <time>2019-08-09T17:35:24Z</time>
      </trkpt>
      <trkpt lat="47.98229" lon="7.29118">
        <ele>218</ele>
        <time>2019-08-09T17:35:25Z</time>
      </trkpt>
      <trkpt lat="47.98228" lon="7.29124">
        <ele>218</ele>
        <time>2019-08-09T17:35:26Z</time>
      </trkpt>
      <trkpt lat="47.98227" lon="7.29129">
        <ele>218</ele>
        <time>2019-08-09T17:35:27Z</time>
      </trkpt>
      <trkpt lat="47.98225" lon="7.29134">
        <ele>217.8</ele>
        <time>2019-08-09T17:35:28Z</time>
      </trkpt>
      <trkpt lat="47.98221" lon="7.29134">
        <ele>217.7</ele>
        <time>2019-08-09T17:35:29Z</time>
      </trkpt>
      <trkpt lat="47.98217" lon="7.29135">
        <ele>217.6</ele>
        <time>2019-08-09T17:35:30Z</time>
      </trkpt>
      <trkpt lat="47.98211" lon="7.29135">
        <ele>217.5</ele>
        <time>2019-08-09T17:35:31Z</time>
      </trkpt>
      <trkpt lat="47.98205" lon="7.29136">
        <ele>217.3</ele>
        <time>2019-08-09T17:35:32Z</time>
      </trkpt>
      <trkpt lat="47.98199" lon="7.29137">
        <ele>217.1</ele>
        <time>2019-08-09T17:35:33Z</time>
      </trkpt>
      <trkpt lat="47.98193" lon="7.29139">
        <ele>216.9</ele>
        <time>2019-08-09T17:35:34Z</time>
      </trkpt>
      <trkpt lat="47.98186" lon="7.29139">
        <ele>216.8</ele>
        <time>2019-08-09T17:35:35Z</time>
      </trkpt>
      <trkpt lat="47.9818" lon="7.29139">
        <ele>216.7</ele>
        <time>2019-08-09T17:35:36Z</time>
      </trkpt>
      <trkpt lat="47.98174" lon="7.29142">
        <ele>216.4</ele>
        <time>2019-08-09T17:35:37Z</time>
      </trkpt>
      <trkpt lat="47.98167" lon="7.29144">
        <ele>216.2</ele>
        <time>2019-08-09T17:35:38Z</time>
      </trkpt>
      <trkpt lat="47.98161" lon="7.29147">
        <ele>216</ele>
        <time>2019-08-09T17:35:39Z</time>
      </trkpt>
      <trkpt lat="47.98154" lon="7.29149">
        <ele>215.7</ele>
        <time>2019-08-09T17:35:40Z</time>
      </trkpt>
      <trkpt lat="47.98147" lon="7.29152">
        <ele>215.5</ele>
        <time>2019-08-09T17:35:41Z</time>
      </trkpt>
      <trkpt lat="47.98141" lon="7.29155">
        <ele>215.3</ele>
        <time>2019-08-09T17:35:42Z</time>
      </trkpt>
      <trkpt lat="47.98135" lon="7.29156">
        <ele>215.1</ele>
        <time>2019-08-09T17:35:43Z</time>
      </trkpt>
      <trkpt lat="47.98129" lon="7.29159">
        <ele>214.9</ele>
        <time>2019-08-09T17:35:44Z</time>
      </trkpt>
      <trkpt lat="47.98123" lon="7.29161">
        <ele>214.6</ele>
        <time>2019-08-09T17:35:45Z</time>
      </trkpt>
      <trkpt lat="47.98117" lon="7.29163">
        <ele>214.3</ele>
        <time>2019-08-09T17:35:46Z</time>
      </trkpt>
      <trkpt lat="47.98113" lon="7.29164">
        <ele>214.1</ele>
        <time>2019-08-09T17:35:47Z</time>
      </trkpt>
      <trkpt lat="47.98108" lon="7.29165">
        <ele>213.8</ele>
        <time>2019-08-09T17:35:48Z</time>
      </trkpt>
      <trkpt lat="47.98103" lon="7.29165">
        <ele>213.5</ele>
        <time>2019-08-09T17:35:49Z</time>
      </trkpt>
      <trkpt lat="47.98098" lon="7.29165">
        <ele>213.3</ele>
        <time>2019-08-09T17:35:50Z</time>
      </trkpt>
      <trkpt lat="47.98091" lon="7.29164">
        <ele>213.1</ele>
        <time>2019-08-09T17:35:51Z</time>
      </trkpt>
      <trkpt lat="47.98084" lon="7.29163">
        <ele>212.9</ele>
        <time>2019-08-09T17:35:52Z</time>
      </trkpt>
      <trkpt lat="47.98078" lon="7.2916">
        <ele>212.7</ele>
        <time>2019-08-09T17:35:53Z</time>
      </trkpt>
      <trkpt lat="47.98071" lon="7.29156">
        <ele>212.5</ele>
        <time>2019-08-09T17:35:54Z</time>
      </trkpt>
      <trkpt lat="47.98065" lon="7.29151">
        <ele>212.3</ele>
        <time>2019-08-09T17:35:55Z</time>
      </trkpt>
      <trkpt lat="47.9806" lon="7.29146">
        <ele>212.1</ele>
        <time>2019-08-09T17:35:56Z</time>
      </trkpt>
      <trkpt lat="47.98054" lon="7.29145">
        <ele>212</ele>
        <time>2019-08-09T17:35:57Z</time>
      </trkpt>
      <trkpt lat="47.98048" lon="7.2915">
        <ele>212</ele>
        <time>2019-08-09T17:35:58Z</time>
      </trkpt>
      <trkpt lat="47.98042" lon="7.29153">
        <ele>211.9</ele>
        <time>2019-08-09T17:35:59Z</time>
      </trkpt>
      <trkpt lat="47.98036" lon="7.29156">
        <ele>211.8</ele>
        <time>2019-08-09T17:36:00Z</time>
      </trkpt>
      <trkpt lat="47.9803" lon="7.29156">
        <ele>211.8</ele>
        <time>2019-08-09T17:36:01Z</time>
      </trkpt>
      <trkpt lat="47.98024" lon="7.29154">
        <ele>211.7</ele>
        <time>2019-08-09T17:36:02Z</time>
      </trkpt>
      <trkpt lat="47.98017" lon="7.29153">
        <ele>211.6</ele>
        <time>2019-08-09T17:36:03Z</time>
      </trkpt>
      <trkpt lat="47.98011" lon="7.29152">
        <ele>211.5</ele>
        <time>2019-08-09T17:36:04Z</time>
      </trkpt>
      <trkpt lat="47.98006" lon="7.2915">
        <ele>211.4</ele>
        <time>2019-08-09T17:36:05Z</time>
      </trkpt>
      <trkpt lat="47.98" lon="7.29149">
        <ele>211.3</ele>
        <time>2019-08-09T17:36:06Z</time>
      </trkpt>
      <trkpt lat="47.97995" lon="7.29147">
        <ele>211.3</ele>
        <time>2019-08-09T17:36:07Z</time>
      </trkpt>
      <trkpt lat="47.9799" lon="7.29145">
        <ele>211.2</ele>
        <time>2019-08-09T17:36:08Z</time>
      </trkpt>
      <trkpt lat="47.97985" lon="7.29142">
        <ele>211.2</ele>
        <time>2019-08-09T17:36:09Z</time>
      </trkpt>
      <trkpt lat="47.97981" lon="7.29138">
        <ele>211.2</ele>
        <time>2019-08-09T17:36:10Z</time>
      </trkpt>
      <trkpt lat="47.97977" lon="7.29136">
        <ele>211.2</ele>
        <time>2019-08-09T17:36:11Z</time>
      </trkpt>
      <trkpt lat="47.97973" lon="7.29135">
        <ele>211.2</ele>
        <time>2019-08-09T17:36:12Z</time>
      </trkpt>
      <trkpt lat="47.97969" lon="7.29134">
        <ele>211.2</ele>
        <time>2019-08-09T17:36:13Z</time>
      </trkpt>
      <trkpt lat="47.97965" lon="7.29133">
        <ele>211.2</ele>
        <time>2019-08-09T17:36:14Z</time>
      </trkpt>
      <trkpt lat="47.9796" lon="7.29132">
        <ele>211.2</ele>
        <time>2019-08-09T17:36:15Z</time>
      </trkpt>
      <trkpt lat="47.97954" lon="7.29133">
        <ele>211.1</ele>
        <time>2019-08-09T17:36:16Z</time>
      </trkpt>
      <trkpt lat="47.97949" lon="7.29131">
        <ele>211.1</ele>
        <time>2019-08-09T17:36:17Z</time>
      </trkpt>
      <trkpt lat="47.97945" lon="7.2913">
        <ele>211</ele>
        <time>2019-08-09T17:36:18Z</time>
      </trkpt>
      <trkpt lat="47.9794" lon="7.29129">
        <ele>210.9</ele>
        <time>2019-08-09T17:36:19Z</time>
      </trkpt>
      <trkpt lat="47.97935" lon="7.29128">
        <ele>210.8</ele>
        <time>2019-08-09T17:36:20Z</time>
      </trkpt>
      <trkpt lat="47.97929" lon="7.29127">
        <ele>210.7</ele>
        <time>2019-08-09T17:36:21Z</time>
      </trkpt>
      <trkpt lat="47.97924" lon="7.29125">
        <ele>210.6</ele>
        <time>2019-08-09T17:36:22Z</time>
      </trkpt>
      <trkpt lat="47.97918" lon="7.29122">
        <ele>210.4</ele>
        <time>2019-08-09T17:36:23Z</time>
      </trkpt>
      <trkpt lat="47.97912" lon="7.29121">
        <ele>210.3</ele>
        <time>2019-08-09T17:36:24Z</time>
      </trkpt>
      <trkpt lat="47.97907" lon="7.2912">
        <ele>210.2</ele>
        <time>2019-08-09T17:36:25Z</time>
      </trkpt>
      <trkpt lat="47.979" lon="7.29119">
        <ele>210.1</ele>
        <time>2019-08-09T17:36:26Z</time>
      </trkpt>
      <trkpt lat="47.97894" lon="7.2912">
        <ele>210</ele>
        <time>2019-08-09T17:36:27Z</time>
      </trkpt>
      <trkpt lat="47.97888" lon="7.2912">
        <ele>209.8</ele>
        <time>2019-08-09T17:36:28Z</time>
      </trkpt>
      <trkpt lat="47.97882" lon="7.29123">
        <ele>209.6</ele>
        <time>2019-08-09T17:36:29Z</time>
      </trkpt>
      <trkpt lat="47.97877" lon="7.29124">
        <ele>209.3</ele>
        <time>2019-08-09T17:36:30Z</time>
      </trkpt>
      <trkpt lat="47.97871" lon="7.29126">
        <ele>208.9</ele>
        <time>2019-08-09T17:36:31Z</time>
      </trkpt>
      <trkpt lat="47.97866" lon="7.29128">
        <ele>208.5</ele>
        <time>2019-08-09T17:36:32Z</time>
      </trkpt>
      <trkpt lat="47.9786" lon="7.29129">
        <ele>208</ele>
        <time>2019-08-09T17:36:33Z</time>
      </trkpt>
      <trkpt lat="47.97854" lon="7.2913">
        <ele>207.6</ele>
        <time>2019-08-09T17:36:34Z</time>
      </trkpt>
      <trkpt lat="47.97849" lon="7.29131">
        <ele>207.2</ele>
        <time>2019-08-09T17:36:35Z</time>
      </trkpt>
      <trkpt lat="47.97845" lon="7.29131">
        <ele>206.9</ele>
        <time>2019-08-09T17:36:36Z</time>
      </trkpt>
      <trkpt lat="47.97839" lon="7.29132">
        <ele>206.7</ele>
        <time>2019-08-09T17:36:37Z</time>
      </trkpt>
      <trkpt lat="47.97835" lon="7.29132">
        <ele>206.5</ele>
        <time>2019-08-09T17:36:38Z</time>
      </trkpt>
      <trkpt lat="47.9783" lon="7.29132">
        <ele>206.2</ele>
        <time>2019-08-09T17:36:39Z</time>
      </trkpt>
      <trkpt lat="47.97826" lon="7.29133">
        <ele>206.2</ele>
        <time>2019-08-09T17:36:40Z</time>
      </trkpt>
      <trkpt lat="47.97821" lon="7.29134">
        <ele>206.2</ele>
        <time>2019-08-09T17:36:41Z</time>
      </trkpt>
      <trkpt lat="47.97818" lon="7.29135">
        <ele>206.1</ele>
        <time>2019-08-09T17:36:42Z</time>
      </trkpt>
      <trkpt lat="47.97814" lon="7.29135">
        <ele>206.1</ele>
        <time>2019-08-09T17:36:43Z</time>
      </trkpt>
      <trkpt lat="47.97809" lon="7.29135">
        <ele>206.1</ele>
        <time>2019-08-09T17:36:44Z</time>
      </trkpt>
      <trkpt lat="47.97803" lon="7.29135">
        <ele>206.1</ele>
        <time>2019-08-09T17:36:45Z</time>
      </trkpt>
      <trkpt lat="47.97798" lon="7.29135">
        <ele>206.1</ele>
        <time>2019-08-09T17:36:46Z</time>
      </trkpt>
      <trkpt lat="47.97795" lon="7.29135">
        <ele>206.1</ele>
        <time>2019-08-09T17:36:47Z</time>
      </trkpt>
      <trkpt lat="47.9779" lon="7.29136">
        <ele>206.1</ele>
        <time>2019-08-09T17:36:48Z</time>
      </trkpt>
      <trkpt lat="47.97786" lon="7.29136">
        <ele>206.1</ele>
        <time>2019-08-09T17:36:49Z</time>
      </trkpt>
      <trkpt lat="47.97782" lon="7.29137">
        <ele>206.1</ele>
        <time>2019-08-09T17:36:50Z</time>
      </trkpt>
      <trkpt lat="47.97777" lon="7.29138">
        <ele>206.1</ele>
        <time>2019-08-09T17:36:51Z</time>
      </trkpt>
      <trkpt lat="47.97772" lon="7.29138">
        <ele>206.1</ele>
        <time>2019-08-09T17:36:52Z</time>
      </trkpt>
      <trkpt lat="47.97768" lon="7.29139">
        <ele>206.1</ele>
        <time>2019-08-09T17:36:53Z</time>
      </trkpt>
      <trkpt lat="47.97764" lon="7.29139">
        <ele>206.2</ele>
        <time>2019-08-09T17:36:54Z</time>
      </trkpt>
      <trkpt lat="47.9776" lon="7.29139">
        <ele>206.2</ele>
        <time>2019-08-09T17:36:55Z</time>
      </trkpt>
      <trkpt lat="47.97757" lon="7.2914">
        <ele>206.2</ele>
        <time>2019-08-09T17:36:56Z</time>
      </trkpt>
      <trkpt lat="47.97753" lon="7.2914">
        <ele>206.2</ele>
        <time>2019-08-09T17:36:57Z</time>
      </trkpt>
      <trkpt lat="47.97749" lon="7.29139">
        <ele>206.3</ele>
        <time>2019-08-09T17:36:58Z</time>
      </trkpt>
      <trkpt lat="47.97745" lon="7.2914">
        <ele>206.3</ele>
        <time>2019-08-09T17:36:59Z</time>
      </trkpt>
      <trkpt lat="47.97741" lon="7.2914">
        <ele>206.3</ele>
        <time>2019-08-09T17:37:00Z</time>
      </trkpt>
      <trkpt lat="47.97737" lon="7.2914">
        <ele>206.4</ele>
        <time>2019-08-09T17:37:01Z</time>
      </trkpt>
      <trkpt lat="47.97732" lon="7.29141">
        <ele>206.4</ele>
        <time>2019-08-09T17:37:02Z</time>
      </trkpt>
      <trkpt lat="47.97728" lon="7.29141">
        <ele>206.4</ele>
        <time>2019-08-09T17:37:03Z</time>
      </trkpt>
      <trkpt lat="47.97724" lon="7.29142">
        <ele>206.5</ele>
        <time>2019-08-09T17:37:04Z</time>
      </trkpt>
      <trkpt lat="47.97721" lon="7.29142">
        <ele>206.5</ele>
        <time>2019-08-09T17:37:05Z</time>
      </trkpt>
      <trkpt lat="47.97718" lon="7.29143">
        <ele>206.6</ele>
        <time>2019-08-09T17:37:06Z</time>
      </trkpt>
      <trkpt lat="47.97714" lon="7.29143">
        <ele>206.6</ele>
        <time>2019-08-09T17:37:07Z</time>
      </trkpt>
      <trkpt lat="47.9771" lon="7.29143">
        <ele>206.6</ele>
        <time>2019-08-09T17:37:08Z</time>
      </trkpt>
      <trkpt lat="47.97707" lon="7.29144">
        <ele>206.7</ele>
        <time>2019-08-09T17:37:09Z</time>
      </trkpt>
      <trkpt lat="47.97704" lon="7.29144">
        <ele>206.7</ele>
        <time>2019-08-09T17:37:10Z</time>
      </trkpt>
      <trkpt lat="47.977" lon="7.29145">
        <ele>206.8</ele>
        <time>2019-08-09T17:37:11Z</time>
      </trkpt>
      <trkpt lat="47.97696" lon="7.29146">
        <ele>206.8</ele>
        <time>2019-08-09T17:37:12Z</time>
      </trkpt>
      <trkpt lat="47.97693" lon="7.29146">
        <ele>206.8</ele>
        <time>2019-08-09T17:37:13Z</time>
      </trkpt>
      <trkpt lat="47.9769" lon="7.29147">
        <ele>206.9</ele>
        <time>2019-08-09T17:37:14Z</time>
      </trkpt>
      <trkpt lat="47.97686" lon="7.29147">
        <ele>206.9</ele>
        <time>2019-08-09T17:37:15Z</time>
      </trkpt>
      <trkpt lat="47.97683" lon="7.29147">
        <ele>207</ele>
        <time>2019-08-09T17:37:16Z</time>
      </trkpt>
      <trkpt lat="47.9768" lon="7.29148">
        <ele>207</ele>
        <time>2019-08-09T17:37:17Z</time>
      </trkpt>
      <trkpt lat="47.97677" lon="7.29148">
        <ele>207</ele>
        <time>2019-08-09T17:37:18Z</time>
      </trkpt>
      <trkpt lat="47.97674" lon="7.29149">
        <ele>207.1</ele>
        <time>2019-08-09T17:37:19Z</time>
      </trkpt>
      <trkpt lat="47.9767" lon="7.29149">
        <ele>207.1</ele>
        <time>2019-08-09T17:37:20Z</time>
      </trkpt>
      <trkpt lat="47.97667" lon="7.29149">
        <ele>207.1</ele>
        <time>2019-08-09T17:37:21Z</time>
      </trkpt>
      <trkpt lat="47.97663" lon="7.2915">
        <ele>207.2</ele>
        <time>2019-08-09T17:37:22Z</time>
      </trkpt>
      <trkpt lat="47.9766" lon="7.2915">
        <ele>207.2</ele>
        <time>2019-08-09T17:37:23Z</time>
      </trkpt>
      <trkpt lat="47.97657" lon="7.2915">
        <ele>207.3</ele>
        <time>2019-08-09T17:37:24Z</time>
      </trkpt>
      <trkpt lat="47.97653" lon="7.29151">
        <ele>207.3</ele>
        <time>2019-08-09T17:37:25Z</time>
      </trkpt>
      <trkpt lat="47.97649" lon="7.29151">
        <ele>207.4</ele>
        <time>2019-08-09T17:37:26Z</time>
      </trkpt>
      <trkpt lat="47.97646" lon="7.29151">
        <ele>207.4</ele>
        <time>2019-08-09T17:37:27Z</time>
      </trkpt>
      <trkpt lat="47.97642" lon="7.29152">
        <ele>207.5</ele>
        <time>2019-08-09T17:37:28Z</time>
      </trkpt>
      <trkpt lat="47.97638" lon="7.29152">
        <ele>207.5</ele>
        <time>2019-08-09T17:37:29Z</time>
      </trkpt>
      <trkpt lat="47.97634" lon="7.29152">
        <ele>207.7</ele>
        <time>2019-08-09T17:37:30Z</time>
      </trkpt>
      <trkpt lat="47.9763" lon="7.29152">
        <ele>207.7</ele>
        <time>2019-08-09T17:37:31Z</time>
      </trkpt>
      <trkpt lat="47.97626" lon="7.29153">
        <ele>207.8</ele>
        <time>2019-08-09T17:37:32Z</time>
      </trkpt>
      <trkpt lat="47.97622" lon="7.29153">
        <ele>207.9</ele>
        <time>2019-08-09T17:37:33Z</time>
      </trkpt>
      <trkpt lat="47.97618" lon="7.29154">
        <ele>207.9</ele>
        <time>2019-08-09T17:37:34Z</time>
      </trkpt>
      <trkpt lat="47.97615" lon="7.29154">
        <ele>208</ele>
        <time>2019-08-09T17:37:35Z</time>
      </trkpt>
      <trkpt lat="47.97612" lon="7.29155">
        <ele>208</ele>
        <time>2019-08-09T17:37:36Z</time>
      </trkpt>
      <trkpt lat="47.97608" lon="7.29155">
        <ele>208.1</ele>
        <time>2019-08-09T17:37:37Z</time>
      </trkpt>
      <trkpt lat="47.97605" lon="7.29156">
        <ele>208.1</ele>
        <time>2019-08-09T17:37:38Z</time>
      </trkpt>
      <trkpt lat="47.97602" lon="7.29156">
        <ele>208.2</ele>
        <time>2019-08-09T17:37:39Z</time>
      </trkpt>
      <trkpt lat="47.97598" lon="7.29156">
        <ele>208.3</ele>
        <time>2019-08-09T17:37:40Z</time>
      </trkpt>
      <trkpt lat="47.97595" lon="7.29156">
        <ele>208.3</ele>
        <time>2019-08-09T17:37:41Z</time>
      </trkpt>
      <trkpt lat="47.97591" lon="7.29157">
        <ele>208.4</ele>
        <time>2019-08-09T17:37:42Z</time>
      </trkpt>
      <trkpt lat="47.97588" lon="7.29158">
        <ele>208.4</ele>
        <time>2019-08-09T17:37:43Z</time>
      </trkpt>
      <trkpt lat="47.97585" lon="7.29159">
        <ele>208.5</ele>
        <time>2019-08-09T17:37:44Z</time>
      </trkpt>
      <trkpt lat="47.97582" lon="7.29159">
        <ele>208.5</ele>
        <time>2019-08-09T17:37:45Z</time>
      </trkpt>
      <trkpt lat="47.97579" lon="7.29159">
        <ele>208.6</ele>
        <time>2019-08-09T17:37:46Z</time>
      </trkpt>
      <trkpt lat="47.97576" lon="7.29159">
        <ele>208.6</ele>
        <time>2019-08-09T17:37:47Z</time>
      </trkpt>
      <trkpt lat="47.97571" lon="7.2916">
        <ele>208.8</ele>
        <time>2019-08-09T17:37:49Z</time>
      </trkpt>
      <trkpt lat="47.97567" lon="7.2916">
        <ele>208.9</ele>
        <time>2019-08-09T17:37:51Z</time>
      </trkpt>
      <trkpt lat="47.97565" lon="7.29164">
        <ele>208.7</ele>
        <time>2019-08-09T17:38:02Z</time>
      </trkpt>
      <trkpt lat="47.97563" lon="7.2917">
        <ele>208.5</ele>
        <time>2019-08-09T17:38:04Z</time>
      </trkpt>
      <trkpt lat="47.97562" lon="7.29174">
        <ele>208.4</ele>
        <time>2019-08-09T17:38:05Z</time>
      </trkpt>
      <trkpt lat="47.97562" lon="7.29183">
        <ele>208.1</ele>
        <time>2019-08-09T17:38:07Z</time>
      </trkpt>
      <trkpt lat="47.97562" lon="7.29188">
        <ele>208</ele>
        <time>2019-08-09T17:38:08Z</time>
      </trkpt>
      <trkpt lat="47.97562" lon="7.29192">
        <ele>207.8</ele>
        <time>2019-08-09T17:38:09Z</time>
      </trkpt>
      <trkpt lat="47.97562" lon="7.292">
        <ele>207.6</ele>
        <time>2019-08-09T17:38:10Z</time>
      </trkpt>
      <trkpt lat="47.97562" lon="7.29207">
        <ele>207.5</ele>
        <time>2019-08-09T17:38:11Z</time>
      </trkpt>
      <trkpt lat="47.97562" lon="7.29213">
        <ele>207.3</ele>
        <time>2019-08-09T17:38:12Z</time>
      </trkpt>
      <trkpt lat="47.97562" lon="7.2922">
        <ele>207.2</ele>
        <time>2019-08-09T17:38:13Z</time>
      </trkpt>
      <trkpt lat="47.97561" lon="7.29227">
        <ele>207</ele>
        <time>2019-08-09T17:38:14Z</time>
      </trkpt>
      <trkpt lat="47.97561" lon="7.29234">
        <ele>206.9</ele>
        <time>2019-08-09T17:38:15Z</time>
      </trkpt>
      <trkpt lat="47.97561" lon="7.29241">
        <ele>206.7</ele>
        <time>2019-08-09T17:38:16Z</time>
      </trkpt>
      <trkpt lat="47.97561" lon="7.2925">
        <ele>206.5</ele>
        <time>2019-08-09T17:38:17Z</time>
      </trkpt>
      <trkpt lat="47.97561" lon="7.29258">
        <ele>206.3</ele>
        <time>2019-08-09T17:38:18Z</time>
      </trkpt>
      <trkpt lat="47.97561" lon="7.29267">
        <ele>206</ele>
        <time>2019-08-09T17:38:19Z</time>
      </trkpt>
      <trkpt lat="47.9756" lon="7.29278">
        <ele>205.7</ele>
        <time>2019-08-09T17:38:20Z</time>
      </trkpt>
      <trkpt lat="47.97559" lon="7.29288">
        <ele>205.6</ele>
        <time>2019-08-09T17:38:21Z</time>
      </trkpt>
      <trkpt lat="47.97559" lon="7.29297">
        <ele>205.4</ele>
        <time>2019-08-09T17:38:22Z</time>
      </trkpt>
      <trkpt lat="47.97558" lon="7.29305">
        <ele>205.2</ele>
        <time>2019-08-09T17:38:23Z</time>
      </trkpt>
      <trkpt lat="47.97558" lon="7.29313">
        <ele>205</ele>
        <time>2019-08-09T17:38:24Z</time>
      </trkpt>
      <trkpt lat="47.97558" lon="7.29322">
        <ele>204.8</ele>
        <time>2019-08-09T17:38:25Z</time>
      </trkpt>
      <trkpt lat="47.97558" lon="7.29328">
        <ele>204.7</ele>
        <time>2019-08-09T17:38:26Z</time>
      </trkpt>
      <trkpt lat="47.97557" lon="7.29336">
        <ele>204.6</ele>
        <time>2019-08-09T17:38:27Z</time>
      </trkpt>
      <trkpt lat="47.97557" lon="7.29341">
        <ele>204.5</ele>
        <time>2019-08-09T17:38:28Z</time>
      </trkpt>
      <trkpt lat="47.97557" lon="7.29346">
        <ele>204.4</ele>
        <time>2019-08-09T17:38:29Z</time>
      </trkpt>
      <trkpt lat="47.97557" lon="7.2935">
        <ele>204.4</ele>
        <time>2019-08-09T17:38:31Z</time>
      </trkpt>
      <trkpt lat="47.97557" lon="7.29356">
        <ele>204.4</ele>
        <time>2019-08-09T17:38:34Z</time>
      </trkpt>
      <trkpt lat="47.97559" lon="7.2936">
        <ele>204.3</ele>
        <time>2019-08-09T17:38:36Z</time>
      </trkpt>
      <trkpt lat="47.97561" lon="7.29366">
        <ele>204.2</ele>
        <time>2019-08-09T17:38:38Z</time>
      </trkpt>
      <trkpt lat="47.97562" lon="7.29371">
        <ele>204.2</ele>
        <time>2019-08-09T17:38:39Z</time>
      </trkpt>
      <trkpt lat="47.97564" lon="7.29379">
        <ele>204.1</ele>
        <time>2019-08-09T17:38:40Z</time>
      </trkpt>
      <trkpt lat="47.97565" lon="7.29387">
        <ele>204.1</ele>
        <time>2019-08-09T17:38:41Z</time>
      </trkpt>
      <trkpt lat="47.97566" lon="7.29393">
        <ele>204</ele>
        <time>2019-08-09T17:38:42Z</time>
      </trkpt>
      <trkpt lat="47.97568" lon="7.29402">
        <ele>204</ele>
        <time>2019-08-09T17:38:43Z</time>
      </trkpt>
      <trkpt lat="47.9757" lon="7.29411">
        <ele>203.9</ele>
        <time>2019-08-09T17:38:44Z</time>
      </trkpt>
      <trkpt lat="47.97572" lon="7.2942">
        <ele>203.7</ele>
        <time>2019-08-09T17:38:45Z</time>
      </trkpt>
      <trkpt lat="47.97575" lon="7.29431">
        <ele>203.7</ele>
        <time>2019-08-09T17:38:46Z</time>
      </trkpt>
      <trkpt lat="47.97577" lon="7.29441">
        <ele>203.7</ele>
        <time>2019-08-09T17:38:47Z</time>
      </trkpt>
      <trkpt lat="47.97578" lon="7.29449">
        <ele>203.7</ele>
        <time>2019-08-09T17:38:48Z</time>
      </trkpt>
      <trkpt lat="47.9758" lon="7.29458">
        <ele>203.6</ele>
        <time>2019-08-09T17:38:49Z</time>
      </trkpt>
      <trkpt lat="47.97582" lon="7.29467">
        <ele>203.5</ele>
        <time>2019-08-09T17:38:50Z</time>
      </trkpt>
      <trkpt lat="47.97583" lon="7.29477">
        <ele>203.4</ele>
        <time>2019-08-09T17:38:51Z</time>
      </trkpt>
      <trkpt lat="47.97585" lon="7.29487">
        <ele>203.2</ele>
        <time>2019-08-09T17:38:52Z</time>
      </trkpt>
      <trkpt lat="47.97587" lon="7.29495">
        <ele>203.1</ele>
        <time>2019-08-09T17:38:53Z</time>
      </trkpt>
      <trkpt lat="47.97587" lon="7.29502">
        <ele>202.9</ele>
        <time>2019-08-09T17:38:54Z</time>
      </trkpt>
      <trkpt lat="47.97588" lon="7.29509">
        <ele>202.7</ele>
        <time>2019-08-09T17:38:55Z</time>
      </trkpt>
      <trkpt lat="47.97589" lon="7.29516">
        <ele>202.6</ele>
        <time>2019-08-09T17:38:56Z</time>
      </trkpt>
      <trkpt lat="47.97589" lon="7.29521">
        <ele>202.4</ele>
        <time>2019-08-09T17:38:57Z</time>
      </trkpt>
      <trkpt lat="47.97588" lon="7.29528">
        <ele>202.3</ele>
        <time>2019-08-09T17:38:58Z</time>
      </trkpt>
      <trkpt lat="47.97585" lon="7.29531">
        <ele>202.2</ele>
        <time>2019-08-09T17:38:59Z</time>
      </trkpt>
      <trkpt lat="47.97582" lon="7.29535">
        <ele>202.1</ele>
        <time>2019-08-09T17:39:00Z</time>
      </trkpt>
      <trkpt lat="47.97578" lon="7.29537">
        <ele>202.1</ele>
        <time>2019-08-09T17:39:01Z</time>
      </trkpt>
      <trkpt lat="47.97574" lon="7.29541">
        <ele>202</ele>
        <time>2019-08-09T17:39:02Z</time>
      </trkpt>
      <trkpt lat="47.9757" lon="7.29544">
        <ele>201.9</ele>
        <time>2019-08-09T17:39:03Z</time>
      </trkpt>
      <trkpt lat="47.97565" lon="7.29548">
        <ele>201.7</ele>
        <time>2019-08-09T17:39:04Z</time>
      </trkpt>
      <trkpt lat="47.97561" lon="7.29549">
        <ele>201.6</ele>
        <time>2019-08-09T17:39:05Z</time>
      </trkpt>
      <trkpt lat="47.97556" lon="7.29552">
        <ele>201.5</ele>
        <time>2019-08-09T17:39:06Z</time>
      </trkpt>
      <trkpt lat="47.97551" lon="7.29557">
        <ele>201.4</ele>
        <time>2019-08-09T17:39:07Z</time>
      </trkpt>
      <trkpt lat="47.97546" lon="7.29561">
        <ele>201.3</ele>
        <time>2019-08-09T17:39:08Z</time>
      </trkpt>
      <trkpt lat="47.97539" lon="7.29567">
        <ele>201.1</ele>
        <time>2019-08-09T17:39:09Z</time>
      </trkpt>
      <trkpt lat="47.97535" lon="7.2957">
        <ele>201</ele>
        <time>2019-08-09T17:39:10Z</time>
      </trkpt>
      <trkpt lat="47.97529" lon="7.29575">
        <ele>200.8</ele>
        <time>2019-08-09T17:39:11Z</time>
      </trkpt>
      <trkpt lat="47.97524" lon="7.2958">
        <ele>200.7</ele>
        <time>2019-08-09T17:39:12Z</time>
      </trkpt>
      <trkpt lat="47.9752" lon="7.29584">
        <ele>200.6</ele>
        <time>2019-08-09T17:39:13Z</time>
      </trkpt>
      <trkpt lat="47.97516" lon="7.29588">
        <ele>200.5</ele>
        <time>2019-08-09T17:39:14Z</time>
      </trkpt>
      <trkpt lat="47.97511" lon="7.29592">
        <ele>200.3</ele>
        <time>2019-08-09T17:39:15Z</time>
      </trkpt>
      <trkpt lat="47.97507" lon="7.29596">
        <ele>200.2</ele>
        <time>2019-08-09T17:39:16Z</time>
      </trkpt>
      <trkpt lat="47.97503" lon="7.29601">
        <ele>200.1</ele>
        <time>2019-08-09T17:39:17Z</time>
      </trkpt>
      <trkpt lat="47.975" lon="7.29604">
        <ele>200</ele>
        <time>2019-08-09T17:39:18Z</time>
      </trkpt>
      <trkpt lat="47.97495" lon="7.29609">
        <ele>199.9</ele>
        <time>2019-08-09T17:39:19Z</time>
      </trkpt>
      <trkpt lat="47.97491" lon="7.29614">
        <ele>199.8</ele>
        <time>2019-08-09T17:39:20Z</time>
      </trkpt>
      <trkpt lat="47.97486" lon="7.29619">
        <ele>199.7</ele>
        <time>2019-08-09T17:39:21Z</time>
      </trkpt>
      <trkpt lat="47.97481" lon="7.29625">
        <ele>199.6</ele>
        <time>2019-08-09T17:39:22Z</time>
      </trkpt>
      <trkpt lat="47.97477" lon="7.29629">
        <ele>199.5</ele>
        <time>2019-08-09T17:39:23Z</time>
      </trkpt>
      <trkpt lat="47.97472" lon="7.29635">
        <ele>199.4</ele>
        <time>2019-08-09T17:39:24Z</time>
      </trkpt>
      <trkpt lat="47.97467" lon="7.2964">
        <ele>199.3</ele>
        <time>2019-08-09T17:39:25Z</time>
      </trkpt>
      <trkpt lat="47.97462" lon="7.29646">
        <ele>199.2</ele>
        <time>2019-08-09T17:39:26Z</time>
      </trkpt>
      <trkpt lat="47.97457" lon="7.29651">
        <ele>199.1</ele>
        <time>2019-08-09T17:39:27Z</time>
      </trkpt>
      <trkpt lat="47.97451" lon="7.29657">
        <ele>199</ele>
        <time>2019-08-09T17:39:28Z</time>
      </trkpt>
      <trkpt lat="47.97446" lon="7.29663">
        <ele>198.9</ele>
        <time>2019-08-09T17:39:29Z</time>
      </trkpt>
      <trkpt lat="47.97441" lon="7.2967">
        <ele>198.8</ele>
        <time>2019-08-09T17:39:30Z</time>
      </trkpt>
      <trkpt lat="47.97436" lon="7.29676">
        <ele>198.7</ele>
        <time>2019-08-09T17:39:31Z</time>
      </trkpt>
      <trkpt lat="47.97431" lon="7.29681">
        <ele>198.6</ele>
        <time>2019-08-09T17:39:32Z</time>
      </trkpt>
      <trkpt lat="47.97427" lon="7.29687">
        <ele>198.5</ele>
        <time>2019-08-09T17:39:33Z</time>
      </trkpt>
      <trkpt lat="47.97421" lon="7.29693">
        <ele>198.4</ele>
        <time>2019-08-09T17:39:34Z</time>
      </trkpt>
      <trkpt lat="47.97418" lon="7.29698">
        <ele>198.3</ele>
        <time>2019-08-09T17:39:35Z</time>
      </trkpt>
      <trkpt lat="47.97415" lon="7.29703">
        <ele>198.3</ele>
        <time>2019-08-09T17:39:36Z</time>
      </trkpt>
      <trkpt lat="47.97412" lon="7.29708">
        <ele>198.3</ele>
        <time>2019-08-09T17:39:37Z</time>
      </trkpt>
      <trkpt lat="47.97408" lon="7.29713">
        <ele>198.2</ele>
        <time>2019-08-09T17:39:38Z</time>
      </trkpt>
      <trkpt lat="47.97404" lon="7.29717">
        <ele>198.2</ele>
        <time>2019-08-09T17:39:39Z</time>
      </trkpt>
      <trkpt lat="47.97399" lon="7.29723">
        <ele>198.1</ele>
        <time>2019-08-09T17:39:40Z</time>
      </trkpt>
      <trkpt lat="47.97395" lon="7.29728">
        <ele>198.1</ele>
        <time>2019-08-09T17:39:41Z</time>
      </trkpt>
      <trkpt lat="47.9739" lon="7.29733">
        <ele>198.1</ele>
        <time>2019-08-09T17:39:42Z</time>
      </trkpt>
      <trkpt lat="47.97386" lon="7.29738">
        <ele>198</ele>
        <time>2019-08-09T17:39:43Z</time>
      </trkpt>
      <trkpt lat="47.97382" lon="7.29744">
        <ele>198</ele>
        <time>2019-08-09T17:39:44Z</time>
      </trkpt>
      <trkpt lat="47.97378" lon="7.29749">
        <ele>198</ele>
        <time>2019-08-09T17:39:45Z</time>
      </trkpt>
      <trkpt lat="47.97374" lon="7.29754">
        <ele>198</ele>
        <time>2019-08-09T17:39:46Z</time>
      </trkpt>
      <trkpt lat="47.97369" lon="7.29759">
        <ele>197.9</ele>
        <time>2019-08-09T17:39:47Z</time>
      </trkpt>
      <trkpt lat="47.97365" lon="7.29764">
        <ele>197.9</ele>
        <time>2019-08-09T17:39:48Z</time>
      </trkpt>
      <trkpt lat="47.97361" lon="7.29769">
        <ele>197.9</ele>
        <time>2019-08-09T17:39:49Z</time>
      </trkpt>
      <trkpt lat="47.97357" lon="7.29774">
        <ele>197.9</ele>
        <time>2019-08-09T17:39:50Z</time>
      </trkpt>
      <trkpt lat="47.97353" lon="7.2978">
        <ele>197.8</ele>
        <time>2019-08-09T17:39:51Z</time>
      </trkpt>
      <trkpt lat="47.97349" lon="7.29785">
        <ele>197.8</ele>
        <time>2019-08-09T17:39:52Z</time>
      </trkpt>
      <trkpt lat="47.97345" lon="7.2979">
        <ele>197.8</ele>
        <time>2019-08-09T17:39:53Z</time>
      </trkpt>
      <trkpt lat="47.97342" lon="7.29796">
        <ele>197.8</ele>
        <time>2019-08-09T17:39:54Z</time>
      </trkpt>
      <trkpt lat="47.97338" lon="7.29801">
        <ele>197.8</ele>
        <time>2019-08-09T17:39:55Z</time>
      </trkpt>
      <trkpt lat="47.97334" lon="7.29805">
        <ele>197.8</ele>
        <time>2019-08-09T17:39:56Z</time>
      </trkpt>
      <trkpt lat="47.9733" lon="7.2981">
        <ele>197.8</ele>
        <time>2019-08-09T17:39:57Z</time>
      </trkpt>
      <trkpt lat="47.97325" lon="7.29814">
        <ele>197.8</ele>
        <time>2019-08-09T17:39:58Z</time>
      </trkpt>
      <trkpt lat="47.9732" lon="7.29817">
        <ele>197.9</ele>
        <time>2019-08-09T17:39:59Z</time>
      </trkpt>
      <trkpt lat="47.97315" lon="7.2982">
        <ele>197.9</ele>
        <time>2019-08-09T17:40:00Z</time>
      </trkpt>
      <trkpt lat="47.97311" lon="7.29823">
        <ele>197.9</ele>
        <time>2019-08-09T17:40:01Z</time>
      </trkpt>
      <trkpt lat="47.97307" lon="7.29828">
        <ele>197.9</ele>
        <time>2019-08-09T17:40:02Z</time>
      </trkpt>
      <trkpt lat="47.97302" lon="7.29833">
        <ele>198</ele>
        <time>2019-08-09T17:40:03Z</time>
      </trkpt>
      <trkpt lat="47.97298" lon="7.29837">
        <ele>198</ele>
        <time>2019-08-09T17:40:04Z</time>
      </trkpt>
      <trkpt lat="47.97293" lon="7.29842">
        <ele>198</ele>
        <time>2019-08-09T17:40:05Z</time>
      </trkpt>
      <trkpt lat="47.97288" lon="7.29846">
        <ele>198.1</ele>
        <time>2019-08-09T17:40:06Z</time>
      </trkpt>
      <trkpt lat="47.97284" lon="7.29851">
        <ele>198.1</ele>
        <time>2019-08-09T17:40:07Z</time>
      </trkpt>
      <trkpt lat="47.97279" lon="7.29856">
        <ele>198.1</ele>
        <time>2019-08-09T17:40:08Z</time>
      </trkpt>
      <trkpt lat="47.97275" lon="7.29861">
        <ele>198.2</ele>
        <time>2019-08-09T17:40:09Z</time>
      </trkpt>
      <trkpt lat="47.9727" lon="7.29866">
        <ele>198.2</ele>
        <time>2019-08-09T17:40:10Z</time>
      </trkpt>
      <trkpt lat="47.97266" lon="7.29871">
        <ele>198.2</ele>
        <time>2019-08-09T17:40:11Z</time>
      </trkpt>
      <trkpt lat="47.97262" lon="7.29875">
        <ele>198.3</ele>
        <time>2019-08-09T17:40:12Z</time>
      </trkpt>
      <trkpt lat="47.97257" lon="7.2988">
        <ele>198.3</ele>
        <time>2019-08-09T17:40:13Z</time>
      </trkpt>
      <trkpt lat="47.97252" lon="7.29885">
        <ele>198.4</ele>
        <time>2019-08-09T17:40:14Z</time>
      </trkpt>
      <trkpt lat="47.97247" lon="7.2989">
        <ele>198.4</ele>
        <time>2019-08-09T17:40:15Z</time>
      </trkpt>
      <trkpt lat="47.97242" lon="7.29895">
        <ele>198.5</ele>
        <time>2019-08-09T17:40:16Z</time>
      </trkpt>
      <trkpt lat="47.97237" lon="7.299">
        <ele>198.5</ele>
        <time>2019-08-09T17:40:17Z</time>
      </trkpt>
      <trkpt lat="47.97233" lon="7.29905">
        <ele>198.5</ele>
        <time>2019-08-09T17:40:18Z</time>
      </trkpt>
      <trkpt lat="47.97228" lon="7.2991">
        <ele>198.6</ele>
        <time>2019-08-09T17:40:19Z</time>
      </trkpt>
      <trkpt lat="47.97223" lon="7.29915">
        <ele>198.6</ele>
        <time>2019-08-09T17:40:20Z</time>
      </trkpt>
      <trkpt lat="47.97219" lon="7.2992">
        <ele>198.7</ele>
        <time>2019-08-09T17:40:21Z</time>
      </trkpt>
      <trkpt lat="47.97214" lon="7.29924">
        <ele>198.7</ele>
        <time>2019-08-09T17:40:22Z</time>
      </trkpt>
      <trkpt lat="47.9721" lon="7.29928">
        <ele>198.8</ele>
        <time>2019-08-09T17:40:23Z</time>
      </trkpt>
      <trkpt lat="47.97205" lon="7.29934">
        <ele>198.8</ele>
        <time>2019-08-09T17:40:24Z</time>
      </trkpt>
      <trkpt lat="47.972" lon="7.29939">
        <ele>198.9</ele>
        <time>2019-08-09T17:40:25Z</time>
      </trkpt>
      <trkpt lat="47.97195" lon="7.29944">
        <ele>198.9</ele>
        <time>2019-08-09T17:40:26Z</time>
      </trkpt>
      <trkpt lat="47.9719" lon="7.29948">
        <ele>199</ele>
        <time>2019-08-09T17:40:27Z</time>
      </trkpt>
      <trkpt lat="47.97186" lon="7.29953">
        <ele>199</ele>
        <time>2019-08-09T17:40:28Z</time>
      </trkpt>
      <trkpt lat="47.97181" lon="7.29958">
        <ele>199.1</ele>
        <time>2019-08-09T17:40:29Z</time>
      </trkpt>
      <trkpt lat="47.97177" lon="7.29962">
        <ele>199.1</ele>
        <time>2019-08-09T17:40:30Z</time>
      </trkpt>
      <trkpt lat="47.97172" lon="7.29966">
        <ele>199.2</ele>
        <time>2019-08-09T17:40:31Z</time>
      </trkpt>
      <trkpt lat="47.97167" lon="7.29971">
        <ele>199.3</ele>
        <time>2019-08-09T17:40:32Z</time>
      </trkpt>
      <trkpt lat="47.97162" lon="7.29975">
        <ele>199.1</ele>
        <time>2019-08-09T17:40:33Z</time>
      </trkpt>
      <trkpt lat="47.97158" lon="7.2998">
        <ele>199</ele>
        <time>2019-08-09T17:40:34Z</time>
      </trkpt>
      <trkpt lat="47.97153" lon="7.29984">
        <ele>198.9</ele>
        <time>2019-08-09T17:40:35Z</time>
      </trkpt>
      <trkpt lat="47.97148" lon="7.29988">
        <ele>198.7</ele>
        <time>2019-08-09T17:40:36Z</time>
      </trkpt>
      <trkpt lat="47.97143" lon="7.29993">
        <ele>198.6</ele>
        <time>2019-08-09T17:40:37Z</time>
      </trkpt>
      <trkpt lat="47.97138" lon="7.29998">
        <ele>198.6</ele>
        <time>2019-08-09T17:40:38Z</time>
      </trkpt>
      <trkpt lat="47.97133" lon="7.30003">
        <ele>198.5</ele>
        <time>2019-08-09T17:40:39Z</time>
      </trkpt>
      <trkpt lat="47.97128" lon="7.30009">
        <ele>198.4</ele>
        <time>2019-08-09T17:40:40Z</time>
      </trkpt>
      <trkpt lat="47.97123" lon="7.30014">
        <ele>198.3</ele>
        <time>2019-08-09T17:40:41Z</time>
      </trkpt>
      <trkpt lat="47.97118" lon="7.30018">
        <ele>198.3</ele>
        <time>2019-08-09T17:40:42Z</time>
      </trkpt>
      <trkpt lat="47.97114" lon="7.30023">
        <ele>198.3</ele>
        <time>2019-08-09T17:40:43Z</time>
      </trkpt>
      <trkpt lat="47.9711" lon="7.30027">
        <ele>198.3</ele>
        <time>2019-08-09T17:40:44Z</time>
      </trkpt>
      <trkpt lat="47.97106" lon="7.30031">
        <ele>198.2</ele>
        <time>2019-08-09T17:40:45Z</time>
      </trkpt>
      <trkpt lat="47.97102" lon="7.30035">
        <ele>198.2</ele>
        <time>2019-08-09T17:40:46Z</time>
      </trkpt>
      <trkpt lat="47.97099" lon="7.30039">
        <ele>198.2</ele>
        <time>2019-08-09T17:40:47Z</time>
      </trkpt>
      <trkpt lat="47.97095" lon="7.30042">
        <ele>198.2</ele>
        <time>2019-08-09T17:40:48Z</time>
      </trkpt>
      <trkpt lat="47.97091" lon="7.30046">
        <ele>198.2</ele>
        <time>2019-08-09T17:40:49Z</time>
      </trkpt>
      <trkpt lat="47.97088" lon="7.3005">
        <ele>198.2</ele>
        <time>2019-08-09T17:40:50Z</time>
      </trkpt>
      <trkpt lat="47.97085" lon="7.30053">
        <ele>198.2</ele>
        <time>2019-08-09T17:40:51Z</time>
      </trkpt>
      <trkpt lat="47.97081" lon="7.30056">
        <ele>198.2</ele>
        <time>2019-08-09T17:40:52Z</time>
      </trkpt>
      <trkpt lat="47.97078" lon="7.3006">
        <ele>198.2</ele>
        <time>2019-08-09T17:40:53Z</time>
      </trkpt>
      <trkpt lat="47.97076" lon="7.30063">
        <ele>198.2</ele>
        <time>2019-08-09T17:40:54Z</time>
      </trkpt>
      <trkpt lat="47.97073" lon="7.30067">
        <ele>198.2</ele>
        <time>2019-08-09T17:40:55Z</time>
      </trkpt>
      <trkpt lat="47.9707" lon="7.3007">
        <ele>198.3</ele>
        <time>2019-08-09T17:40:56Z</time>
      </trkpt>
      <trkpt lat="47.97067" lon="7.30071">
        <ele>198.3</ele>
        <time>2019-08-09T17:40:59Z</time>
      </trkpt>
      <trkpt lat="47.97063" lon="7.30073">
        <ele>198.3</ele>
        <time>2019-08-09T17:41:21Z</time>
      </trkpt>
      <trkpt lat="47.9706" lon="7.30077">
        <ele>198.3</ele>
        <time>2019-08-09T17:41:23Z</time>
      </trkpt>
      <trkpt lat="47.97057" lon="7.3008">
        <ele>198.3</ele>
        <time>2019-08-09T17:41:24Z</time>
      </trkpt>
      <trkpt lat="47.97054" lon="7.30083">
        <ele>198.4</ele>
        <time>2019-08-09T17:41:25Z</time>
      </trkpt>
      <trkpt lat="47.97051" lon="7.30086">
        <ele>198.4</ele>
        <time>2019-08-09T17:41:26Z</time>
      </trkpt>
      <trkpt lat="47.97048" lon="7.3009">
        <ele>198.5</ele>
        <time>2019-08-09T17:41:27Z</time>
      </trkpt>
      <trkpt lat="47.97045" lon="7.30094">
        <ele>198.5</ele>
        <time>2019-08-09T17:41:28Z</time>
      </trkpt>
      <trkpt lat="47.97042" lon="7.30097">
        <ele>198.6</ele>
        <time>2019-08-09T17:41:29Z</time>
      </trkpt>
      <trkpt lat="47.97039" lon="7.30102">
        <ele>198.6</ele>
        <time>2019-08-09T17:41:30Z</time>
      </trkpt>
      <trkpt lat="47.97035" lon="7.30106">
        <ele>198.7</ele>
        <time>2019-08-09T17:41:31Z</time>
      </trkpt>
      <trkpt lat="47.97032" lon="7.3011">
        <ele>198.8</ele>
        <time>2019-08-09T17:41:32Z</time>
      </trkpt>
      <trkpt lat="47.97028" lon="7.30113">
        <ele>198.8</ele>
        <time>2019-08-09T17:41:33Z</time>
      </trkpt>
      <trkpt lat="47.97025" lon="7.30116">
        <ele>198.9</ele>
        <time>2019-08-09T17:41:34Z</time>
      </trkpt>
      <trkpt lat="47.97022" lon="7.30119">
        <ele>199</ele>
        <time>2019-08-09T17:41:35Z</time>
      </trkpt>
      <trkpt lat="47.97019" lon="7.30123">
        <ele>199.1</ele>
        <time>2019-08-09T17:41:36Z</time>
      </trkpt>
      <trkpt lat="47.97016" lon="7.30126">
        <ele>199.2</ele>
        <time>2019-08-09T17:41:37Z</time>
      </trkpt>
      <trkpt lat="47.97012" lon="7.30129">
        <ele>199.3</ele>
        <time>2019-08-09T17:41:38Z</time>
      </trkpt>
      <trkpt lat="47.97009" lon="7.30133">
        <ele>199.3</ele>
        <time>2019-08-09T17:41:39Z</time>
      </trkpt>
      <trkpt lat="47.97006" lon="7.30136">
        <ele>199.4</ele>
        <time>2019-08-09T17:41:40Z</time>
      </trkpt>
      <trkpt lat="47.97002" lon="7.30139">
        <ele>199.5</ele>
        <time>2019-08-09T17:41:41Z</time>
      </trkpt>
      <trkpt lat="47.96998" lon="7.30142">
        <ele>199.6</ele>
        <time>2019-08-09T17:41:42Z</time>
      </trkpt>
      <trkpt lat="47.96995" lon="7.30145">
        <ele>199.7</ele>
        <time>2019-08-09T17:41:43Z</time>
      </trkpt>
      <trkpt lat="47.96991" lon="7.30147">
        <ele>199.8</ele>
        <time>2019-08-09T17:41:44Z</time>
      </trkpt>
      <trkpt lat="47.96987" lon="7.30149">
        <ele>199.9</ele>
        <time>2019-08-09T17:41:45Z</time>
      </trkpt>
      <trkpt lat="47.96983" lon="7.30152">
        <ele>200</ele>
        <time>2019-08-09T17:41:46Z</time>
      </trkpt>
      <trkpt lat="47.9698" lon="7.30154">
        <ele>200.1</ele>
        <time>2019-08-09T17:41:47Z</time>
      </trkpt>
      <trkpt lat="47.96976" lon="7.30155">
        <ele>200.2</ele>
        <time>2019-08-09T17:41:48Z</time>
      </trkpt>
      <trkpt lat="47.96972" lon="7.30156">
        <ele>200.3</ele>
        <time>2019-08-09T17:41:49Z</time>
      </trkpt>
      <trkpt lat="47.96968" lon="7.30157">
        <ele>200.4</ele>
        <time>2019-08-09T17:41:50Z</time>
      </trkpt>
      <trkpt lat="47.96964" lon="7.30158">
        <ele>200.5</ele>
        <time>2019-08-09T17:41:51Z</time>
      </trkpt>
      <trkpt lat="47.96959" lon="7.30158">
        <ele>200.5</ele>
        <time>2019-08-09T17:41:52Z</time>
      </trkpt>
      <trkpt lat="47.96954" lon="7.30159">
        <ele>200.5</ele>
        <time>2019-08-09T17:41:53Z</time>
      </trkpt>
      <trkpt lat="47.96949" lon="7.30159">
        <ele>200.5</ele>
        <time>2019-08-09T17:41:54Z</time>
      </trkpt>
      <trkpt lat="47.96944" lon="7.30159">
        <ele>200.5</ele>
        <time>2019-08-09T17:41:55Z</time>
      </trkpt>
      <trkpt lat="47.96939" lon="7.30162">
        <ele>200.5</ele>
        <time>2019-08-09T17:41:56Z</time>
      </trkpt>
      <trkpt lat="47.96933" lon="7.30164">
        <ele>200.4</ele>
        <time>2019-08-09T17:41:57Z</time>
      </trkpt>
      <trkpt lat="47.96928" lon="7.30166">
        <ele>200.3</ele>
        <time>2019-08-09T17:41:58Z</time>
      </trkpt>
      <trkpt lat="47.96924" lon="7.30168">
        <ele>200.3</ele>
        <time>2019-08-09T17:41:59Z</time>
      </trkpt>
      <trkpt lat="47.96919" lon="7.30171">
        <ele>200.2</ele>
        <time>2019-08-09T17:42:00Z</time>
      </trkpt>
      <trkpt lat="47.96915" lon="7.30173">
        <ele>200.3</ele>
        <time>2019-08-09T17:42:01Z</time>
      </trkpt>
      <trkpt lat="47.9691" lon="7.30177">
        <ele>200.4</ele>
        <time>2019-08-09T17:42:02Z</time>
      </trkpt>
      <trkpt lat="47.96904" lon="7.30181">
        <ele>200.5</ele>
        <time>2019-08-09T17:42:03Z</time>
      </trkpt>
      <trkpt lat="47.96899" lon="7.30184">
        <ele>200.5</ele>
        <time>2019-08-09T17:42:04Z</time>
      </trkpt>
      <trkpt lat="47.96894" lon="7.30186">
        <ele>200.6</ele>
        <time>2019-08-09T17:42:05Z</time>
      </trkpt>
      <trkpt lat="47.9689" lon="7.3019">
        <ele>200.6</ele>
        <time>2019-08-09T17:42:06Z</time>
      </trkpt>
      <trkpt lat="47.96884" lon="7.30193">
        <ele>200.7</ele>
        <time>2019-08-09T17:42:07Z</time>
      </trkpt>
      <trkpt lat="47.96879" lon="7.30195">
        <ele>200.7</ele>
        <time>2019-08-09T17:42:08Z</time>
      </trkpt>
      <trkpt lat="47.96873" lon="7.30199">
        <ele>200.8</ele>
        <time>2019-08-09T17:42:09Z</time>
      </trkpt>
      <trkpt lat="47.96869" lon="7.30201">
        <ele>200.8</ele>
        <time>2019-08-09T17:42:10Z</time>
      </trkpt>
      <trkpt lat="47.96864" lon="7.30203">
        <ele>200.8</ele>
        <time>2019-08-09T17:42:11Z</time>
      </trkpt>
      <trkpt lat="47.96859" lon="7.30205">
        <ele>200.9</ele>
        <time>2019-08-09T17:42:12Z</time>
      </trkpt>
      <trkpt lat="47.96855" lon="7.30207">
        <ele>201</ele>
        <time>2019-08-09T17:42:13Z</time>
      </trkpt>
      <trkpt lat="47.9685" lon="7.30208">
        <ele>201</ele>
        <time>2019-08-09T17:42:14Z</time>
      </trkpt>
      <trkpt lat="47.96845" lon="7.3021">
        <ele>201.1</ele>
        <time>2019-08-09T17:42:15Z</time>
      </trkpt>
      <trkpt lat="47.96839" lon="7.30209">
        <ele>201.2</ele>
        <time>2019-08-09T17:42:16Z</time>
      </trkpt>
      <trkpt lat="47.96834" lon="7.3021">
        <ele>201.2</ele>
        <time>2019-08-09T17:42:17Z</time>
      </trkpt>
      <trkpt lat="47.96829" lon="7.3021">
        <ele>201.3</ele>
        <time>2019-08-09T17:42:18Z</time>
      </trkpt>
      <trkpt lat="47.96824" lon="7.30211">
        <ele>201.4</ele>
        <time>2019-08-09T17:42:19Z</time>
      </trkpt>
      <trkpt lat="47.96818" lon="7.30211">
        <ele>201.4</ele>
        <time>2019-08-09T17:42:20Z</time>
      </trkpt>
      <trkpt lat="47.96813" lon="7.30213">
        <ele>201.5</ele>
        <time>2019-08-09T17:42:21Z</time>
      </trkpt>
      <trkpt lat="47.96808" lon="7.30214">
        <ele>201.6</ele>
        <time>2019-08-09T17:42:22Z</time>
      </trkpt>
      <trkpt lat="47.96802" lon="7.30214">
        <ele>201.6</ele>
        <time>2019-08-09T17:42:23Z</time>
      </trkpt>
      <trkpt lat="47.96796" lon="7.30213">
        <ele>201.7</ele>
        <time>2019-08-09T17:42:24Z</time>
      </trkpt>
      <trkpt lat="47.96791" lon="7.30214">
        <ele>201.8</ele>
        <time>2019-08-09T17:42:25Z</time>
      </trkpt>
      <trkpt lat="47.96786" lon="7.30215">
        <ele>201.9</ele>
        <time>2019-08-09T17:42:26Z</time>
      </trkpt>
      <trkpt lat="47.9678" lon="7.30215">
        <ele>202</ele>
        <time>2019-08-09T17:42:27Z</time>
      </trkpt>
      <trkpt lat="47.96776" lon="7.30214">
        <ele>202</ele>
        <time>2019-08-09T17:42:28Z</time>
      </trkpt>
      <trkpt lat="47.9677" lon="7.30214">
        <ele>202.1</ele>
        <time>2019-08-09T17:42:29Z</time>
      </trkpt>
      <trkpt lat="47.96766" lon="7.30213">
        <ele>202.2</ele>
        <time>2019-08-09T17:42:30Z</time>
      </trkpt>
      <trkpt lat="47.96761" lon="7.3021">
        <ele>202.3</ele>
        <time>2019-08-09T17:42:31Z</time>
      </trkpt>
      <trkpt lat="47.96755" lon="7.30207">
        <ele>202.4</ele>
        <time>2019-08-09T17:42:32Z</time>
      </trkpt>
      <trkpt lat="47.9675" lon="7.30205">
        <ele>202.5</ele>
        <time>2019-08-09T17:42:33Z</time>
      </trkpt>
      <trkpt lat="47.96744" lon="7.30202">
        <ele>202.6</ele>
        <time>2019-08-09T17:42:34Z</time>
      </trkpt>
      <trkpt lat="47.96739" lon="7.30199">
        <ele>202.7</ele>
        <time>2019-08-09T17:42:35Z</time>
      </trkpt>
      <trkpt lat="47.96734" lon="7.30196">
        <ele>202.9</ele>
        <time>2019-08-09T17:42:36Z</time>
      </trkpt>
      <trkpt lat="47.9673" lon="7.30197">
        <ele>203</ele>
        <time>2019-08-09T17:42:37Z</time>
      </trkpt>
      <trkpt lat="47.96726" lon="7.30195">
        <ele>203</ele>
        <time>2019-08-09T17:42:38Z</time>
      </trkpt>
      <trkpt lat="47.96723" lon="7.30193">
        <ele>203</ele>
        <time>2019-08-09T17:42:39Z</time>
      </trkpt>
      <trkpt lat="47.9672" lon="7.3019">
        <ele>203</ele>
        <time>2019-08-09T17:42:42Z</time>
      </trkpt>
      <trkpt lat="47.96717" lon="7.30191">
        <ele>202.9</ele>
        <time>2019-08-09T17:42:44Z</time>
      </trkpt>
      <trkpt lat="47.96715" lon="7.30195">
        <ele>202.9</ele>
        <time>2019-08-09T17:42:46Z</time>
      </trkpt>
      <trkpt lat="47.96714" lon="7.302">
        <ele>202.9</ele>
        <time>2019-08-09T17:42:49Z</time>
      </trkpt>
      <trkpt lat="47.96712" lon="7.30204">
        <ele>201.6</ele>
        <time>2019-08-09T17:42:52Z</time>
      </trkpt>
      <trkpt lat="47.96708" lon="7.30199">
        <ele>201.6</ele>
        <time>2019-08-09T17:42:55Z</time>
      </trkpt>
      <trkpt lat="47.96706" lon="7.30196">
        <ele>201.7</ele>
        <time>2019-08-09T17:42:56Z</time>
      </trkpt>
      <trkpt lat="47.96703" lon="7.30194">
        <ele>201.7</ele>
        <time>2019-08-09T17:42:57Z</time>
      </trkpt>
      <trkpt lat="47.967" lon="7.30191">
        <ele>201.7</ele>
        <time>2019-08-09T17:42:58Z</time>
      </trkpt>
      <trkpt lat="47.96697" lon="7.30186">
        <ele>201.7</ele>
        <time>2019-08-09T17:42:59Z</time>
      </trkpt>
      <trkpt lat="47.96694" lon="7.30182">
        <ele>201.8</ele>
        <time>2019-08-09T17:43:00Z</time>
      </trkpt>
      <trkpt lat="47.9669" lon="7.3018">
        <ele>201.8</ele>
        <time>2019-08-09T17:43:01Z</time>
      </trkpt>
      <trkpt lat="47.96686" lon="7.30176">
        <ele>201.8</ele>
        <time>2019-08-09T17:43:02Z</time>
      </trkpt>
      <trkpt lat="47.96682" lon="7.30173">
        <ele>201.8</ele>
        <time>2019-08-09T17:43:03Z</time>
      </trkpt>
      <trkpt lat="47.96678" lon="7.3017">
        <ele>201.8</ele>
        <time>2019-08-09T17:43:04Z</time>
      </trkpt>
      <trkpt lat="47.96674" lon="7.30167">
        <ele>201.9</ele>
        <time>2019-08-09T17:43:05Z</time>
      </trkpt>
      <trkpt lat="47.9667" lon="7.30165">
        <ele>201.9</ele>
        <time>2019-08-09T17:43:06Z</time>
      </trkpt>
      <trkpt lat="47.96665" lon="7.30162">
        <ele>201.9</ele>
        <time>2019-08-09T17:43:07Z</time>
      </trkpt>
      <trkpt lat="47.96661" lon="7.30159">
        <ele>201.9</ele>
        <time>2019-08-09T17:43:08Z</time>
      </trkpt>
      <trkpt lat="47.96657" lon="7.30156">
        <ele>201.9</ele>
        <time>2019-08-09T17:43:09Z</time>
      </trkpt>
      <trkpt lat="47.96654" lon="7.30153">
        <ele>202</ele>
        <time>2019-08-09T17:43:10Z</time>
      </trkpt>
      <trkpt lat="47.9665" lon="7.3015">
        <ele>202</ele>
        <time>2019-08-09T17:43:11Z</time>
      </trkpt>
      <trkpt lat="47.96646" lon="7.30147">
        <ele>202</ele>
        <time>2019-08-09T17:43:12Z</time>
      </trkpt>
      <trkpt lat="47.96642" lon="7.30144">
        <ele>202</ele>
        <time>2019-08-09T17:43:13Z</time>
      </trkpt>
      <trkpt lat="47.96639" lon="7.30141">
        <ele>202</ele>
        <time>2019-08-09T17:43:14Z</time>
      </trkpt>
      <trkpt lat="47.96636" lon="7.30138">
        <ele>202.1</ele>
        <time>2019-08-09T17:43:15Z</time>
      </trkpt>
      <trkpt lat="47.96633" lon="7.30136">
        <ele>202.1</ele>
        <time>2019-08-09T17:43:16Z</time>
      </trkpt>
      <trkpt lat="47.96629" lon="7.30134">
        <ele>202.1</ele>
        <time>2019-08-09T17:43:17Z</time>
      </trkpt>
      <trkpt lat="47.96625" lon="7.30131">
        <ele>202.1</ele>
        <time>2019-08-09T17:43:18Z</time>
      </trkpt>
      <trkpt lat="47.96621" lon="7.3013">
        <ele>202.1</ele>
        <time>2019-08-09T17:43:19Z</time>
      </trkpt>
      <trkpt lat="47.96616" lon="7.30129">
        <ele>202.1</ele>
        <time>2019-08-09T17:43:20Z</time>
      </trkpt>
      <trkpt lat="47.96612" lon="7.30131">
        <ele>202.2</ele>
        <time>2019-08-09T17:43:21Z</time>
      </trkpt>
      <trkpt lat="47.96608" lon="7.30133">
        <ele>202.2</ele>
        <time>2019-08-09T17:43:22Z</time>
      </trkpt>
      <trkpt lat="47.96604" lon="7.30132">
        <ele>202.2</ele>
        <time>2019-08-09T17:43:23Z</time>
      </trkpt>
      <trkpt lat="47.96601" lon="7.3013">
        <ele>202.2</ele>
        <time>2019-08-09T17:43:24Z</time>
      </trkpt>
      <trkpt lat="47.96598" lon="7.30127">
        <ele>202.2</ele>
        <time>2019-08-09T17:43:25Z</time>
      </trkpt>
      <trkpt lat="47.96594" lon="7.30125">
        <ele>202.2</ele>
        <time>2019-08-09T17:43:26Z</time>
      </trkpt>
      <trkpt lat="47.96591" lon="7.30122">
        <ele>202.2</ele>
        <time>2019-08-09T17:43:27Z</time>
      </trkpt>
      <trkpt lat="47.96588" lon="7.30119">
        <ele>202.3</ele>
        <time>2019-08-09T17:43:28Z</time>
      </trkpt>
      <trkpt lat="47.96585" lon="7.30115">
        <ele>202.3</ele>
        <time>2019-08-09T17:43:29Z</time>
      </trkpt>
      <trkpt lat="47.96581" lon="7.30113">
        <ele>202.3</ele>
        <time>2019-08-09T17:43:30Z</time>
      </trkpt>
      <trkpt lat="47.96579" lon="7.3011">
        <ele>202.3</ele>
        <time>2019-08-09T17:43:31Z</time>
      </trkpt>
      <trkpt lat="47.96577" lon="7.30106">
        <ele>202.3</ele>
        <time>2019-08-09T17:43:32Z</time>
      </trkpt>
      <trkpt lat="47.96573" lon="7.30103">
        <ele>202.3</ele>
        <time>2019-08-09T17:43:33Z</time>
      </trkpt>
      <trkpt lat="47.96569" lon="7.301">
        <ele>202.4</ele>
        <time>2019-08-09T17:43:34Z</time>
      </trkpt>
      <trkpt lat="47.96565" lon="7.30098">
        <ele>202.4</ele>
        <time>2019-08-09T17:43:35Z</time>
      </trkpt>
      <trkpt lat="47.96562" lon="7.30095">
        <ele>202.4</ele>
        <time>2019-08-09T17:43:36Z</time>
      </trkpt>
      <trkpt lat="47.96559" lon="7.30093">
        <ele>202.6</ele>
        <time>2019-08-09T17:43:37Z</time>
      </trkpt>
      <trkpt lat="47.96556" lon="7.30091">
        <ele>202.8</ele>
        <time>2019-08-09T17:43:38Z</time>
      </trkpt>
      <trkpt lat="47.96553" lon="7.30089">
        <ele>203</ele>
        <time>2019-08-09T17:43:39Z</time>
      </trkpt>
      <trkpt lat="47.9655" lon="7.30087">
        <ele>203.1</ele>
        <time>2019-08-09T17:43:40Z</time>
      </trkpt>
      <trkpt lat="47.96547" lon="7.30085">
        <ele>203.2</ele>
        <time>2019-08-09T17:43:41Z</time>
      </trkpt>
      <trkpt lat="47.96543" lon="7.30082">
        <ele>203.3</ele>
        <time>2019-08-09T17:43:42Z</time>
      </trkpt>
      <trkpt lat="47.9654" lon="7.3008">
        <ele>203.4</ele>
        <time>2019-08-09T17:43:43Z</time>
      </trkpt>
      <trkpt lat="47.96537" lon="7.30078">
        <ele>203.4</ele>
        <time>2019-08-09T17:43:44Z</time>
      </trkpt>
      <trkpt lat="47.96533" lon="7.30074">
        <ele>203.4</ele>
        <time>2019-08-09T17:43:45Z</time>
      </trkpt>
      <trkpt lat="47.9653" lon="7.3007">
        <ele>203.4</ele>
        <time>2019-08-09T17:43:46Z</time>
      </trkpt>
      <trkpt lat="47.96528" lon="7.30067">
        <ele>203.5</ele>
        <time>2019-08-09T17:43:47Z</time>
      </trkpt>
      <trkpt lat="47.96526" lon="7.30062">
        <ele>203.5</ele>
        <time>2019-08-09T17:43:48Z</time>
      </trkpt>
      <trkpt lat="47.96526" lon="7.30055">
        <ele>203.5</ele>
        <time>2019-08-09T17:43:49Z</time>
      </trkpt>
      <trkpt lat="47.96524" lon="7.30052">
        <ele>203.5</ele>
        <time>2019-08-09T17:43:50Z</time>
      </trkpt>
      <trkpt lat="47.96521" lon="7.30049">
        <ele>203.5</ele>
        <time>2019-08-09T17:43:51Z</time>
      </trkpt>
      <trkpt lat="47.96517" lon="7.30046">
        <ele>203.5</ele>
        <time>2019-08-09T17:43:52Z</time>
      </trkpt>
      <trkpt lat="47.96513" lon="7.30044">
        <ele>203.5</ele>
        <time>2019-08-09T17:43:53Z</time>
      </trkpt>
      <trkpt lat="47.96509" lon="7.30039">
        <ele>203.5</ele>
        <time>2019-08-09T17:43:54Z</time>
      </trkpt>
      <trkpt lat="47.96506" lon="7.30036">
        <ele>203.5</ele>
        <time>2019-08-09T17:43:55Z</time>
      </trkpt>
      <trkpt lat="47.96503" lon="7.30033">
        <ele>203.5</ele>
        <time>2019-08-09T17:43:56Z</time>
      </trkpt>
      <trkpt lat="47.965" lon="7.30031">
        <ele>203.5</ele>
        <time>2019-08-09T17:43:57Z</time>
      </trkpt>
      <trkpt lat="47.96497" lon="7.3003">
        <ele>203.5</ele>
        <time>2019-08-09T17:43:58Z</time>
      </trkpt>
      <trkpt lat="47.96495" lon="7.30029">
        <ele>203.5</ele>
        <time>2019-08-09T17:43:59Z</time>
      </trkpt>
      <trkpt lat="47.96492" lon="7.30026">
        <ele>203.3</ele>
        <time>2019-08-09T17:44:00Z</time>
      </trkpt>
      <trkpt lat="47.96489" lon="7.30025">
        <ele>203.2</ele>
        <time>2019-08-09T17:44:01Z</time>
      </trkpt>
      <trkpt lat="47.96485" lon="7.30023">
        <ele>203</ele>
        <time>2019-08-09T17:44:02Z</time>
      </trkpt>
      <trkpt lat="47.96482" lon="7.30022">
        <ele>202.8</ele>
        <time>2019-08-09T17:44:03Z</time>
      </trkpt>
      <trkpt lat="47.96478" lon="7.30019">
        <ele>202.6</ele>
        <time>2019-08-09T17:44:04Z</time>
      </trkpt>
      <trkpt lat="47.96474" lon="7.30016">
        <ele>202.5</ele>
        <time>2019-08-09T17:44:05Z</time>
      </trkpt>
      <trkpt lat="47.96471" lon="7.30013">
        <ele>202.4</ele>
        <time>2019-08-09T17:44:06Z</time>
      </trkpt>
      <trkpt lat="47.96468" lon="7.30011">
        <ele>202.3</ele>
        <time>2019-08-09T17:44:07Z</time>
      </trkpt>
      <trkpt lat="47.96465" lon="7.3001">
        <ele>202.2</ele>
        <time>2019-08-09T17:44:08Z</time>
      </trkpt>
      <trkpt lat="47.96461" lon="7.30008">
        <ele>202.1</ele>
        <time>2019-08-09T17:44:09Z</time>
      </trkpt>
      <trkpt lat="47.96458" lon="7.30005">
        <ele>202</ele>
        <time>2019-08-09T17:44:10Z</time>
      </trkpt>
      <trkpt lat="47.96455" lon="7.30002">
        <ele>201.9</ele>
        <time>2019-08-09T17:44:11Z</time>
      </trkpt>
      <trkpt lat="47.96451" lon="7.29999">
        <ele>201.7</ele>
        <time>2019-08-09T17:44:12Z</time>
      </trkpt>
      <trkpt lat="47.96447" lon="7.29997">
        <ele>201.7</ele>
        <time>2019-08-09T17:44:13Z</time>
      </trkpt>
      <trkpt lat="47.96444" lon="7.29994">
        <ele>201.6</ele>
        <time>2019-08-09T17:44:14Z</time>
      </trkpt>
      <trkpt lat="47.9644" lon="7.29992">
        <ele>201.6</ele>
        <time>2019-08-09T17:44:15Z</time>
      </trkpt>
      <trkpt lat="47.96438" lon="7.2999">
        <ele>201.6</ele>
        <time>2019-08-09T17:44:16Z</time>
      </trkpt>
      <trkpt lat="47.96435" lon="7.29988">
        <ele>201.6</ele>
        <time>2019-08-09T17:44:17Z</time>
      </trkpt>
      <trkpt lat="47.96432" lon="7.29985">
        <ele>201.6</ele>
        <time>2019-08-09T17:44:18Z</time>
      </trkpt>
      <trkpt lat="47.96429" lon="7.29984">
        <ele>201.7</ele>
        <time>2019-08-09T17:44:19Z</time>
      </trkpt>
      <trkpt lat="47.96424" lon="7.29981">
        <ele>201.7</ele>
        <time>2019-08-09T17:44:21Z</time>
      </trkpt>
      <trkpt lat="47.96421" lon="7.29978">
        <ele>201.8</ele>
        <time>2019-08-09T17:44:22Z</time>
      </trkpt>
      <trkpt lat="47.96418" lon="7.29976">
        <ele>201.8</ele>
        <time>2019-08-09T17:44:23Z</time>
      </trkpt>
      <trkpt lat="47.96415" lon="7.29973">
        <ele>201.9</ele>
        <time>2019-08-09T17:44:24Z</time>
      </trkpt>
      <trkpt lat="47.96412" lon="7.29971">
        <ele>201.9</ele>
        <time>2019-08-09T17:44:25Z</time>
      </trkpt>
      <trkpt lat="47.96409" lon="7.29969">
        <ele>202</ele>
        <time>2019-08-09T17:44:26Z</time>
      </trkpt>
      <trkpt lat="47.96406" lon="7.29966">
        <ele>202</ele>
        <time>2019-08-09T17:44:27Z</time>
      </trkpt>
      <trkpt lat="47.96403" lon="7.29964">
        <ele>202.1</ele>
        <time>2019-08-09T17:44:28Z</time>
      </trkpt>
      <trkpt lat="47.964" lon="7.29962">
        <ele>202.1</ele>
        <time>2019-08-09T17:44:29Z</time>
      </trkpt>
      <trkpt lat="47.96397" lon="7.29959">
        <ele>202.1</ele>
        <time>2019-08-09T17:44:30Z</time>
      </trkpt>
      <trkpt lat="47.96394" lon="7.29957">
        <ele>202.1</ele>
        <time>2019-08-09T17:44:31Z</time>
      </trkpt>
      <trkpt lat="47.96391" lon="7.29955">
        <ele>202.1</ele>
        <time>2019-08-09T17:44:32Z</time>
      </trkpt>
      <trkpt lat="47.96386" lon="7.29952">
        <ele>202.1</ele>
        <time>2019-08-09T17:44:34Z</time>
      </trkpt>
      <trkpt lat="47.96381" lon="7.29951">
        <ele>202.1</ele>
        <time>2019-08-09T17:44:36Z</time>
      </trkpt>
      <trkpt lat="47.96378" lon="7.29951">
        <ele>202.1</ele>
        <time>2019-08-09T17:44:37Z</time>
      </trkpt>
      <trkpt lat="47.96374" lon="7.29951">
        <ele>202.1</ele>
        <time>2019-08-09T17:44:38Z</time>
      </trkpt>
      <trkpt lat="47.9637" lon="7.29951">
        <ele>202.1</ele>
        <time>2019-08-09T17:44:39Z</time>
      </trkpt>
      <trkpt lat="47.96367" lon="7.29949">
        <ele>202</ele>
        <time>2019-08-09T17:44:40Z</time>
      </trkpt>
      <trkpt lat="47.96363" lon="7.29947">
        <ele>202</ele>
        <time>2019-08-09T17:44:41Z</time>
      </trkpt>
      <trkpt lat="47.96358" lon="7.29946">
        <ele>202</ele>
        <time>2019-08-09T17:44:42Z</time>
      </trkpt>
      <trkpt lat="47.96354" lon="7.29944">
        <ele>201.9</ele>
        <time>2019-08-09T17:44:43Z</time>
      </trkpt>
      <trkpt lat="47.9635" lon="7.29942">
        <ele>201.9</ele>
        <time>2019-08-09T17:44:44Z</time>
      </trkpt>
      <trkpt lat="47.96346" lon="7.2994">
        <ele>201.8</ele>
        <time>2019-08-09T17:44:45Z</time>
      </trkpt>
      <trkpt lat="47.96343" lon="7.29938">
        <ele>201.8</ele>
        <time>2019-08-09T17:44:46Z</time>
      </trkpt>
      <trkpt lat="47.96339" lon="7.29937">
        <ele>201.7</ele>
        <time>2019-08-09T17:44:47Z</time>
      </trkpt>
      <trkpt lat="47.96336" lon="7.29935">
        <ele>201.7</ele>
        <time>2019-08-09T17:44:48Z</time>
      </trkpt>
      <trkpt lat="47.96333" lon="7.29934">
        <ele>201.7</ele>
        <time>2019-08-09T17:44:49Z</time>
      </trkpt>
      <trkpt lat="47.96329" lon="7.29932">
        <ele>201.6</ele>
        <time>2019-08-09T17:44:50Z</time>
      </trkpt>
      <trkpt lat="47.96326" lon="7.2993">
        <ele>201.6</ele>
        <time>2019-08-09T17:44:51Z</time>
      </trkpt>
      <trkpt lat="47.96323" lon="7.29929">
        <ele>201.5</ele>
        <time>2019-08-09T17:44:52Z</time>
      </trkpt>
      <trkpt lat="47.96319" lon="7.29928">
        <ele>201.5</ele>
        <time>2019-08-09T17:44:53Z</time>
      </trkpt>
      <trkpt lat="47.96315" lon="7.29927">
        <ele>201.4</ele>
        <time>2019-08-09T17:44:54Z</time>
      </trkpt>
      <trkpt lat="47.96311" lon="7.29924">
        <ele>201.4</ele>
        <time>2019-08-09T17:44:55Z</time>
      </trkpt>
      <trkpt lat="47.96307" lon="7.29922">
        <ele>201.4</ele>
        <time>2019-08-09T17:44:56Z</time>
      </trkpt>
      <trkpt lat="47.96303" lon="7.2992">
        <ele>201.3</ele>
        <time>2019-08-09T17:44:57Z</time>
      </trkpt>
      <trkpt lat="47.96298" lon="7.29918">
        <ele>201.3</ele>
        <time>2019-08-09T17:44:58Z</time>
      </trkpt>
      <trkpt lat="47.96294" lon="7.29916">
        <ele>201.3</ele>
        <time>2019-08-09T17:44:59Z</time>
      </trkpt>
      <trkpt lat="47.9629" lon="7.29915">
        <ele>201.3</ele>
        <time>2019-08-09T17:45:00Z</time>
      </trkpt>
      <trkpt lat="47.96287" lon="7.29913">
        <ele>201.3</ele>
        <time>2019-08-09T17:45:01Z</time>
      </trkpt>
      <trkpt lat="47.96283" lon="7.29913">
        <ele>201.3</ele>
        <time>2019-08-09T17:45:02Z</time>
      </trkpt>
      <trkpt lat="47.96279" lon="7.29912">
        <ele>201.3</ele>
        <time>2019-08-09T17:45:03Z</time>
      </trkpt>
      <trkpt lat="47.96275" lon="7.2991">
        <ele>201.3</ele>
        <time>2019-08-09T17:45:04Z</time>
      </trkpt>
      <trkpt lat="47.96272" lon="7.29907">
        <ele>201.3</ele>
        <time>2019-08-09T17:45:05Z</time>
      </trkpt>
      <trkpt lat="47.96268" lon="7.29904">
        <ele>201.3</ele>
        <time>2019-08-09T17:45:06Z</time>
      </trkpt>
      <trkpt lat="47.96265" lon="7.29902">
        <ele>201.3</ele>
        <time>2019-08-09T17:45:07Z</time>
      </trkpt>
      <trkpt lat="47.96262" lon="7.299">
        <ele>201.3</ele>
        <time>2019-08-09T17:45:08Z</time>
      </trkpt>
      <trkpt lat="47.96259" lon="7.29899">
        <ele>201.3</ele>
        <time>2019-08-09T17:45:09Z</time>
      </trkpt>
      <trkpt lat="47.96256" lon="7.29899">
        <ele>201.3</ele>
        <time>2019-08-09T17:45:10Z</time>
      </trkpt>
      <trkpt lat="47.96253" lon="7.29898">
        <ele>201.3</ele>
        <time>2019-08-09T17:45:11Z</time>
      </trkpt>
      <trkpt lat="47.9625" lon="7.29896">
        <ele>201.3</ele>
        <time>2019-08-09T17:45:12Z</time>
      </trkpt>
      <trkpt lat="47.96246" lon="7.29894">
        <ele>201.3</ele>
        <time>2019-08-09T17:45:13Z</time>
      </trkpt>
      <trkpt lat="47.96243" lon="7.29893">
        <ele>201.3</ele>
        <time>2019-08-09T17:45:14Z</time>
      </trkpt>
      <trkpt lat="47.96238" lon="7.2989">
        <ele>201.3</ele>
        <time>2019-08-09T17:45:15Z</time>
      </trkpt>
      <trkpt lat="47.96234" lon="7.29889">
        <ele>201.3</ele>
        <time>2019-08-09T17:45:16Z</time>
      </trkpt>
      <trkpt lat="47.96231" lon="7.29887">
        <ele>201.3</ele>
        <time>2019-08-09T17:45:17Z</time>
      </trkpt>
      <trkpt lat="47.96227" lon="7.29885">
        <ele>201.3</ele>
        <time>2019-08-09T17:45:18Z</time>
      </trkpt>
      <trkpt lat="47.96222" lon="7.29882">
        <ele>201.3</ele>
        <time>2019-08-09T17:45:19Z</time>
      </trkpt>
      <trkpt lat="47.96218" lon="7.29878">
        <ele>201.3</ele>
        <time>2019-08-09T17:45:20Z</time>
      </trkpt>
      <trkpt lat="47.96215" lon="7.29876">
        <ele>201.3</ele>
        <time>2019-08-09T17:45:21Z</time>
      </trkpt>
      <trkpt lat="47.96211" lon="7.29874">
        <ele>201.3</ele>
        <time>2019-08-09T17:45:22Z</time>
      </trkpt>
      <trkpt lat="47.96207" lon="7.29873">
        <ele>201.3</ele>
        <time>2019-08-09T17:45:23Z</time>
      </trkpt>
      <trkpt lat="47.96203" lon="7.29872">
        <ele>201.3</ele>
        <time>2019-08-09T17:45:24Z</time>
      </trkpt>
      <trkpt lat="47.96198" lon="7.29872">
        <ele>201.3</ele>
        <time>2019-08-09T17:45:26Z</time>
      </trkpt>
      <trkpt lat="47.96194" lon="7.29872">
        <ele>201.3</ele>
        <time>2019-08-09T17:45:28Z</time>
      </trkpt>
      <trkpt lat="47.96194" lon="7.29868">
        <ele>201.3</ele>
        <time>2019-08-09T17:45:32Z</time>
      </trkpt>
      <trkpt lat="47.96195" lon="7.2986">
        <ele>201.3</ele>
        <time>2019-08-09T17:45:34Z</time>
      </trkpt>
      <trkpt lat="47.96195" lon="7.29854">
        <ele>201.3</ele>
        <time>2019-08-09T17:45:35Z</time>
      </trkpt>
      <trkpt lat="47.96195" lon="7.2985">
        <ele>201.3</ele>
        <time>2019-08-09T17:45:36Z</time>
      </trkpt>
      <trkpt lat="47.96196" lon="7.29846">
        <ele>201.4</ele>
        <time>2019-08-09T17:45:38Z</time>
      </trkpt>
      <trkpt lat="47.96196" lon="7.2984">
        <ele>201.4</ele>
        <time>2019-08-09T17:45:44Z</time>
      </trkpt>
      <trkpt lat="47.96193" lon="7.29834">
        <ele>201.4</ele>
        <time>2019-08-09T17:45:46Z</time>
      </trkpt>
      <trkpt lat="47.9619" lon="7.29833">
        <ele>201.4</ele>
        <time>2019-08-09T17:45:47Z</time>
      </trkpt>
      <trkpt lat="47.96188" lon="7.29831">
        <ele>201.4</ele>
        <time>2019-08-09T17:45:48Z</time>
      </trkpt>
      <trkpt lat="47.96185" lon="7.29828">
        <ele>201.4</ele>
        <time>2019-08-09T17:45:49Z</time>
      </trkpt>
      <trkpt lat="47.96181" lon="7.29826">
        <ele>201.5</ele>
        <time>2019-08-09T17:45:50Z</time>
      </trkpt>
      <trkpt lat="47.96178" lon="7.29823">
        <ele>201.5</ele>
        <time>2019-08-09T17:45:51Z</time>
      </trkpt>
      <trkpt lat="47.96174" lon="7.29821">
        <ele>201.5</ele>
        <time>2019-08-09T17:45:52Z</time>
      </trkpt>
      <trkpt lat="47.9617" lon="7.29819">
        <ele>201.6</ele>
        <time>2019-08-09T17:45:53Z</time>
      </trkpt>
      <trkpt lat="47.96167" lon="7.29817">
        <ele>201.6</ele>
        <time>2019-08-09T17:45:54Z</time>
      </trkpt>
      <trkpt lat="47.96164" lon="7.29814">
        <ele>201.7</ele>
        <time>2019-08-09T17:45:56Z</time>
      </trkpt>
      <trkpt lat="47.96159" lon="7.29812">
        <ele>201.7</ele>
        <time>2019-08-09T17:45:58Z</time>
      </trkpt>
      <trkpt lat="47.96157" lon="7.29811">
        <ele>201.7</ele>
        <time>2019-08-09T17:45:59Z</time>
      </trkpt>
      <trkpt lat="47.96152" lon="7.29811">
        <ele>201.8</ele>
        <time>2019-08-09T17:46:00Z</time>
      </trkpt>
      <trkpt lat="47.96149" lon="7.29808">
        <ele>201.8</ele>
        <time>2019-08-09T17:46:01Z</time>
      </trkpt>
      <trkpt lat="47.96146" lon="7.29805">
        <ele>201.8</ele>
        <time>2019-08-09T17:46:02Z</time>
      </trkpt>
      <trkpt lat="47.96141" lon="7.29804">
        <ele>202.2</ele>
        <time>2019-08-09T17:46:04Z</time>
      </trkpt>
      <trkpt lat="47.96137" lon="7.29809">
        <ele>202.4</ele>
        <time>2019-08-09T17:46:06Z</time>
      </trkpt>
      <trkpt lat="47.96135" lon="7.29814">
        <ele>202.5</ele>
        <time>2019-08-09T17:46:07Z</time>
      </trkpt>
      <trkpt lat="47.96134" lon="7.29819">
        <ele>202.6</ele>
        <time>2019-08-09T17:46:08Z</time>
      </trkpt>
      <trkpt lat="47.96133" lon="7.29824">
        <ele>202.7</ele>
        <time>2019-08-09T17:46:09Z</time>
      </trkpt>
      <trkpt lat="47.96132" lon="7.29829">
        <ele>202.7</ele>
        <time>2019-08-09T17:46:10Z</time>
      </trkpt>
      <trkpt lat="47.96131" lon="7.29833">
        <ele>202.8</ele>
        <time>2019-08-09T17:46:11Z</time>
      </trkpt>
      <trkpt lat="47.9613" lon="7.29839">
        <ele>202.8</ele>
        <time>2019-08-09T17:46:12Z</time>
      </trkpt>
      <trkpt lat="47.96129" lon="7.29845">
        <ele>202.9</ele>
        <time>2019-08-09T17:46:13Z</time>
      </trkpt>
      <trkpt lat="47.96128" lon="7.29851">
        <ele>202.9</ele>
        <time>2019-08-09T17:46:14Z</time>
      </trkpt>
      <trkpt lat="47.96128" lon="7.29856">
        <ele>202.9</ele>
        <time>2019-08-09T17:46:15Z</time>
      </trkpt>
      <trkpt lat="47.96127" lon="7.29862">
        <ele>202.9</ele>
        <time>2019-08-09T17:46:16Z</time>
      </trkpt>
      <trkpt lat="47.96127" lon="7.29868">
        <ele>202.8</ele>
        <time>2019-08-09T17:46:17Z</time>
      </trkpt>
      <trkpt lat="47.96126" lon="7.29874">
        <ele>202.7</ele>
        <time>2019-08-09T17:46:18Z</time>
      </trkpt>
      <trkpt lat="47.96124" lon="7.29882">
        <ele>202.6</ele>
        <time>2019-08-09T17:46:19Z</time>
      </trkpt>
      <trkpt lat="47.96122" lon="7.29889">
        <ele>202.5</ele>
        <time>2019-08-09T17:46:20Z</time>
      </trkpt>
      <trkpt lat="47.9612" lon="7.29895">
        <ele>202.3</ele>
        <time>2019-08-09T17:46:21Z</time>
      </trkpt>
      <trkpt lat="47.96119" lon="7.29902">
        <ele>202.1</ele>
        <time>2019-08-09T17:46:22Z</time>
      </trkpt>
      <trkpt lat="47.96117" lon="7.29909">
        <ele>202</ele>
        <time>2019-08-09T17:46:23Z</time>
      </trkpt>
      <trkpt lat="47.96116" lon="7.29915">
        <ele>201.9</ele>
        <time>2019-08-09T17:46:24Z</time>
      </trkpt>
      <trkpt lat="47.96114" lon="7.29922">
        <ele>201.7</ele>
        <time>2019-08-09T17:46:25Z</time>
      </trkpt>
      <trkpt lat="47.96112" lon="7.2993">
        <ele>201.6</ele>
        <time>2019-08-09T17:46:26Z</time>
      </trkpt>
      <trkpt lat="47.9611" lon="7.29936">
        <ele>201.4</ele>
        <time>2019-08-09T17:46:27Z</time>
      </trkpt>
      <trkpt lat="47.96109" lon="7.29941">
        <ele>201.4</ele>
        <time>2019-08-09T17:46:28Z</time>
      </trkpt>
      <trkpt lat="47.96107" lon="7.29947">
        <ele>201.4</ele>
        <time>2019-08-09T17:46:29Z</time>
      </trkpt>
      <trkpt lat="47.96105" lon="7.29952">
        <ele>201.4</ele>
        <time>2019-08-09T17:46:30Z</time>
      </trkpt>
      <trkpt lat="47.96103" lon="7.29958">
        <ele>201.4</ele>
        <time>2019-08-09T17:46:31Z</time>
      </trkpt>
      <trkpt lat="47.96101" lon="7.29964">
        <ele>201.4</ele>
        <time>2019-08-09T17:46:32Z</time>
      </trkpt>
      <trkpt lat="47.96099" lon="7.29969">
        <ele>201.4</ele>
        <time>2019-08-09T17:46:33Z</time>
      </trkpt>
      <trkpt lat="47.96097" lon="7.29975">
        <ele>201.4</ele>
        <time>2019-08-09T17:46:34Z</time>
      </trkpt>
      <trkpt lat="47.96096" lon="7.29981">
        <ele>201.4</ele>
        <time>2019-08-09T17:46:35Z</time>
      </trkpt>
      <trkpt lat="47.96095" lon="7.29986">
        <ele>201.4</ele>
        <time>2019-08-09T17:46:36Z</time>
      </trkpt>
      <trkpt lat="47.96093" lon="7.29991">
        <ele>201.4</ele>
        <time>2019-08-09T17:46:37Z</time>
      </trkpt>
      <trkpt lat="47.9609" lon="7.29995">
        <ele>201.4</ele>
        <time>2019-08-09T17:46:38Z</time>
      </trkpt>
      <trkpt lat="47.96088" lon="7.3">
        <ele>201.4</ele>
        <time>2019-08-09T17:46:39Z</time>
      </trkpt>
      <trkpt lat="47.96087" lon="7.30004">
        <ele>201.4</ele>
        <time>2019-08-09T17:46:40Z</time>
      </trkpt>
      <trkpt lat="47.96084" lon="7.30009">
        <ele>201.4</ele>
        <time>2019-08-09T17:46:41Z</time>
      </trkpt>
      <trkpt lat="47.9608" lon="7.30012">
        <ele>201.4</ele>
        <time>2019-08-09T17:46:42Z</time>
      </trkpt>
      <trkpt lat="47.96077" lon="7.30016">
        <ele>201.5</ele>
        <time>2019-08-09T17:46:43Z</time>
      </trkpt>
      <trkpt lat="47.96074" lon="7.3002">
        <ele>201.5</ele>
        <time>2019-08-09T17:46:44Z</time>
      </trkpt>
      <trkpt lat="47.96072" lon="7.30024">
        <ele>201.5</ele>
        <time>2019-08-09T17:46:45Z</time>
      </trkpt>
      <trkpt lat="47.96069" lon="7.3003">
        <ele>201.5</ele>
        <time>2019-08-09T17:46:46Z</time>
      </trkpt>
      <trkpt lat="47.96066" lon="7.30036">
        <ele>201.5</ele>
        <time>2019-08-09T17:46:47Z</time>
      </trkpt>
      <trkpt lat="47.96063" lon="7.30041">
        <ele>201.5</ele>
        <time>2019-08-09T17:46:48Z</time>
      </trkpt>
      <trkpt lat="47.9606" lon="7.30046">
        <ele>201.6</ele>
        <time>2019-08-09T17:46:49Z</time>
      </trkpt>
      <trkpt lat="47.96056" lon="7.3005">
        <ele>201.6</ele>
        <time>2019-08-09T17:46:50Z</time>
      </trkpt>
      <trkpt lat="47.96053" lon="7.30055">
        <ele>201.6</ele>
        <time>2019-08-09T17:46:51Z</time>
      </trkpt>
      <trkpt lat="47.9605" lon="7.30059">
        <ele>201.6</ele>
        <time>2019-08-09T17:46:52Z</time>
      </trkpt>
      <trkpt lat="47.96046" lon="7.30064">
        <ele>201.6</ele>
        <time>2019-08-09T17:46:53Z</time>
      </trkpt>
      <trkpt lat="47.96042" lon="7.30068">
        <ele>201.7</ele>
        <time>2019-08-09T17:46:54Z</time>
      </trkpt>
      <trkpt lat="47.96039" lon="7.30073">
        <ele>201.7</ele>
        <time>2019-08-09T17:46:55Z</time>
      </trkpt>
      <trkpt lat="47.96037" lon="7.30077">
        <ele>201.7</ele>
        <time>2019-08-09T17:46:56Z</time>
      </trkpt>
      <trkpt lat="47.96034" lon="7.30081">
        <ele>201.7</ele>
        <time>2019-08-09T17:46:57Z</time>
      </trkpt>
      <trkpt lat="47.96032" lon="7.30085">
        <ele>201.7</ele>
        <time>2019-08-09T17:46:58Z</time>
      </trkpt>
      <trkpt lat="47.96028" lon="7.30088">
        <ele>201.7</ele>
        <time>2019-08-09T17:46:59Z</time>
      </trkpt>
      <trkpt lat="47.96024" lon="7.30091">
        <ele>201.7</ele>
        <time>2019-08-09T17:47:00Z</time>
      </trkpt>
      <trkpt lat="47.96019" lon="7.30094">
        <ele>201.7</ele>
        <time>2019-08-09T17:47:01Z</time>
      </trkpt>
      <trkpt lat="47.96015" lon="7.30094">
        <ele>201.8</ele>
        <time>2019-08-09T17:47:02Z</time>
      </trkpt>
      <trkpt lat="47.96011" lon="7.30098">
        <ele>201.8</ele>
        <time>2019-08-09T17:47:03Z</time>
      </trkpt>
      <trkpt lat="47.96007" lon="7.30101">
        <ele>201.8</ele>
        <time>2019-08-09T17:47:04Z</time>
      </trkpt>
      <trkpt lat="47.96004" lon="7.30103">
        <ele>201.8</ele>
        <time>2019-08-09T17:47:05Z</time>
      </trkpt>
      <trkpt lat="47.96001" lon="7.30106">
        <ele>201.8</ele>
        <time>2019-08-09T17:47:06Z</time>
      </trkpt>
      <trkpt lat="47.95997" lon="7.30109">
        <ele>201.9</ele>
        <time>2019-08-09T17:47:07Z</time>
      </trkpt>
      <trkpt lat="47.95992" lon="7.30112">
        <ele>201.9</ele>
        <time>2019-08-09T17:47:08Z</time>
      </trkpt>
      <trkpt lat="47.95988" lon="7.30115">
        <ele>202</ele>
        <time>2019-08-09T17:47:09Z</time>
      </trkpt>
      <trkpt lat="47.95984" lon="7.30118">
        <ele>202</ele>
        <time>2019-08-09T17:47:10Z</time>
      </trkpt>
      <trkpt lat="47.95979" lon="7.30121">
        <ele>202.1</ele>
        <time>2019-08-09T17:47:11Z</time>
      </trkpt>
      <trkpt lat="47.95975" lon="7.30123">
        <ele>202.2</ele>
        <time>2019-08-09T17:47:12Z</time>
      </trkpt>
      <trkpt lat="47.95972" lon="7.30124">
        <ele>202.2</ele>
        <time>2019-08-09T17:47:13Z</time>
      </trkpt>
      <trkpt lat="47.95968" lon="7.30126">
        <ele>202.2</ele>
        <time>2019-08-09T17:47:14Z</time>
      </trkpt>
      <trkpt lat="47.95965" lon="7.30127">
        <ele>202.3</ele>
        <time>2019-08-09T17:47:15Z</time>
      </trkpt>
      <trkpt lat="47.9596" lon="7.30129">
        <ele>202.3</ele>
        <time>2019-08-09T17:47:16Z</time>
      </trkpt>
      <trkpt lat="47.95957" lon="7.30131">
        <ele>202.4</ele>
        <time>2019-08-09T17:47:17Z</time>
      </trkpt>
      <trkpt lat="47.95953" lon="7.30133">
        <ele>202.4</ele>
        <time>2019-08-09T17:47:18Z</time>
      </trkpt>
      <trkpt lat="47.9595" lon="7.30136">
        <ele>202.4</ele>
        <time>2019-08-09T17:47:19Z</time>
      </trkpt>
      <trkpt lat="47.95946" lon="7.30139">
        <ele>202.5</ele>
        <time>2019-08-09T17:47:20Z</time>
      </trkpt>
      <trkpt lat="47.95942" lon="7.30142">
        <ele>202.5</ele>
        <time>2019-08-09T17:47:21Z</time>
      </trkpt>
      <trkpt lat="47.95937" lon="7.30145">
        <ele>202.6</ele>
        <time>2019-08-09T17:47:22Z</time>
      </trkpt>
      <trkpt lat="47.95933" lon="7.30146">
        <ele>202.6</ele>
        <time>2019-08-09T17:47:23Z</time>
      </trkpt>
      <trkpt lat="47.9593" lon="7.30147">
        <ele>202.6</ele>
        <time>2019-08-09T17:47:24Z</time>
      </trkpt>
      <trkpt lat="47.95925" lon="7.30149">
        <ele>202.7</ele>
        <time>2019-08-09T17:47:25Z</time>
      </trkpt>
      <trkpt lat="47.95921" lon="7.30151">
        <ele>202.7</ele>
        <time>2019-08-09T17:47:26Z</time>
      </trkpt>
      <trkpt lat="47.95915" lon="7.30154">
        <ele>202.8</ele>
        <time>2019-08-09T17:47:27Z</time>
      </trkpt>
      <trkpt lat="47.95912" lon="7.30155">
        <ele>202.8</ele>
        <time>2019-08-09T17:47:28Z</time>
      </trkpt>
      <trkpt lat="47.95907" lon="7.30159">
        <ele>202.9</ele>
        <time>2019-08-09T17:47:29Z</time>
      </trkpt>
      <trkpt lat="47.95903" lon="7.30161">
        <ele>202.9</ele>
        <time>2019-08-09T17:47:30Z</time>
      </trkpt>
      <trkpt lat="47.95899" lon="7.30163">
        <ele>203</ele>
        <time>2019-08-09T17:47:31Z</time>
      </trkpt>
      <trkpt lat="47.95894" lon="7.30165">
        <ele>203</ele>
        <time>2019-08-09T17:47:32Z</time>
      </trkpt>
      <trkpt lat="47.95891" lon="7.30167">
        <ele>203.1</ele>
        <time>2019-08-09T17:47:33Z</time>
      </trkpt>
      <trkpt lat="47.95887" lon="7.30168">
        <ele>203.1</ele>
        <time>2019-08-09T17:47:34Z</time>
      </trkpt>
      <trkpt lat="47.95883" lon="7.30169">
        <ele>203.2</ele>
        <time>2019-08-09T17:47:35Z</time>
      </trkpt>
      <trkpt lat="47.95879" lon="7.30171">
        <ele>203.2</ele>
        <time>2019-08-09T17:47:36Z</time>
      </trkpt>
      <trkpt lat="47.95876" lon="7.30173">
        <ele>203.2</ele>
        <time>2019-08-09T17:47:37Z</time>
      </trkpt>
      <trkpt lat="47.95872" lon="7.30174">
        <ele>203.2</ele>
        <time>2019-08-09T17:47:38Z</time>
      </trkpt>
      <trkpt lat="47.95868" lon="7.30176">
        <ele>203.1</ele>
        <time>2019-08-09T17:47:39Z</time>
      </trkpt>
      <trkpt lat="47.95865" lon="7.30178">
        <ele>203.1</ele>
        <time>2019-08-09T17:47:40Z</time>
      </trkpt>
      <trkpt lat="47.95862" lon="7.3018">
        <ele>203.1</ele>
        <time>2019-08-09T17:47:41Z</time>
      </trkpt>
      <trkpt lat="47.95858" lon="7.30182">
        <ele>203.1</ele>
        <time>2019-08-09T17:47:42Z</time>
      </trkpt>
      <trkpt lat="47.95854" lon="7.30184">
        <ele>203</ele>
        <time>2019-08-09T17:47:43Z</time>
      </trkpt>
      <trkpt lat="47.95851" lon="7.30185">
        <ele>203</ele>
        <time>2019-08-09T17:47:44Z</time>
      </trkpt>
      <trkpt lat="47.95847" lon="7.30187">
        <ele>202.9</ele>
        <time>2019-08-09T17:47:45Z</time>
      </trkpt>
      <trkpt lat="47.95843" lon="7.30188">
        <ele>202.8</ele>
        <time>2019-08-09T17:47:46Z</time>
      </trkpt>
      <trkpt lat="47.9584" lon="7.3019">
        <ele>202.8</ele>
        <time>2019-08-09T17:47:47Z</time>
      </trkpt>
      <trkpt lat="47.95836" lon="7.30191">
        <ele>202.7</ele>
        <time>2019-08-09T17:47:48Z</time>
      </trkpt>
      <trkpt lat="47.95833" lon="7.30192">
        <ele>202.6</ele>
        <time>2019-08-09T17:47:49Z</time>
      </trkpt>
      <trkpt lat="47.95828" lon="7.30193">
        <ele>202.5</ele>
        <time>2019-08-09T17:47:50Z</time>
      </trkpt>
      <trkpt lat="47.95824" lon="7.30195">
        <ele>202.5</ele>
        <time>2019-08-09T17:47:51Z</time>
      </trkpt>
      <trkpt lat="47.95818" lon="7.30198">
        <ele>202.4</ele>
        <time>2019-08-09T17:47:52Z</time>
      </trkpt>
      <trkpt lat="47.95814" lon="7.30201">
        <ele>202.4</ele>
        <time>2019-08-09T17:47:53Z</time>
      </trkpt>
      <trkpt lat="47.95809" lon="7.30202">
        <ele>202.5</ele>
        <time>2019-08-09T17:47:54Z</time>
      </trkpt>
      <trkpt lat="47.95806" lon="7.30204">
        <ele>202.5</ele>
        <time>2019-08-09T17:47:55Z</time>
      </trkpt>
      <trkpt lat="47.95803" lon="7.30206">
        <ele>202.6</ele>
        <time>2019-08-09T17:47:56Z</time>
      </trkpt>
      <trkpt lat="47.95799" lon="7.30208">
        <ele>202.7</ele>
        <time>2019-08-09T17:47:57Z</time>
      </trkpt>
      <trkpt lat="47.95796" lon="7.3021">
        <ele>202.8</ele>
        <time>2019-08-09T17:47:58Z</time>
      </trkpt>
      <trkpt lat="47.95793" lon="7.30213">
        <ele>203</ele>
        <time>2019-08-09T17:47:59Z</time>
      </trkpt>
      <trkpt lat="47.9579" lon="7.30214">
        <ele>203.1</ele>
        <time>2019-08-09T17:48:00Z</time>
      </trkpt>
      <trkpt lat="47.95787" lon="7.30215">
        <ele>203.2</ele>
        <time>2019-08-09T17:48:01Z</time>
      </trkpt>
      <trkpt lat="47.95784" lon="7.30216">
        <ele>203.4</ele>
        <time>2019-08-09T17:48:02Z</time>
      </trkpt>
      <trkpt lat="47.9578" lon="7.30218">
        <ele>203.6</ele>
        <time>2019-08-09T17:48:03Z</time>
      </trkpt>
      <trkpt lat="47.95776" lon="7.3022">
        <ele>203.8</ele>
        <time>2019-08-09T17:48:04Z</time>
      </trkpt>
      <trkpt lat="47.95773" lon="7.30221">
        <ele>203.9</ele>
        <time>2019-08-09T17:48:05Z</time>
      </trkpt>
      <trkpt lat="47.9577" lon="7.30223">
        <ele>204</ele>
        <time>2019-08-09T17:48:06Z</time>
      </trkpt>
      <trkpt lat="47.95767" lon="7.30225">
        <ele>204.1</ele>
        <time>2019-08-09T17:48:07Z</time>
      </trkpt>
      <trkpt lat="47.95762" lon="7.30226">
        <ele>204.2</ele>
        <time>2019-08-09T17:48:09Z</time>
      </trkpt>
      <trkpt lat="47.95759" lon="7.30226">
        <ele>204.3</ele>
        <time>2019-08-09T17:48:10Z</time>
      </trkpt>
      <trkpt lat="47.95757" lon="7.30222">
        <ele>204.4</ele>
        <time>2019-08-09T17:48:11Z</time>
      </trkpt>
      <trkpt lat="47.95754" lon="7.30219">
        <ele>204.4</ele>
        <time>2019-08-09T17:48:12Z</time>
      </trkpt>
      <trkpt lat="47.95752" lon="7.30215">
        <ele>204.4</ele>
        <time>2019-08-09T17:48:13Z</time>
      </trkpt>
      <trkpt lat="47.95751" lon="7.3021">
        <ele>204.5</ele>
        <time>2019-08-09T17:48:14Z</time>
      </trkpt>
      <trkpt lat="47.95749" lon="7.30204">
        <ele>204.5</ele>
        <time>2019-08-09T17:48:15Z</time>
      </trkpt>
      <trkpt lat="47.95748" lon="7.30199">
        <ele>204.5</ele>
        <time>2019-08-09T17:48:16Z</time>
      </trkpt>
      <trkpt lat="47.95747" lon="7.30194">
        <ele>204.6</ele>
        <time>2019-08-09T17:48:17Z</time>
      </trkpt>
      <trkpt lat="47.95745" lon="7.30189">
        <ele>204.6</ele>
        <time>2019-08-09T17:48:18Z</time>
      </trkpt>
      <trkpt lat="47.95743" lon="7.30185">
        <ele>204.7</ele>
        <time>2019-08-09T17:48:19Z</time>
      </trkpt>
      <trkpt lat="47.95742" lon="7.3018">
        <ele>204.7</ele>
        <time>2019-08-09T17:48:20Z</time>
      </trkpt>
      <trkpt lat="47.95741" lon="7.30175">
        <ele>204.6</ele>
        <time>2019-08-09T17:48:21Z</time>
      </trkpt>
      <trkpt lat="47.95739" lon="7.30169">
        <ele>204.6</ele>
        <time>2019-08-09T17:48:22Z</time>
      </trkpt>
      <trkpt lat="47.95737" lon="7.30163">
        <ele>204.6</ele>
        <time>2019-08-09T17:48:23Z</time>
      </trkpt>
      <trkpt lat="47.95735" lon="7.30157">
        <ele>204.6</ele>
        <time>2019-08-09T17:48:24Z</time>
      </trkpt>
      <trkpt lat="47.95734" lon="7.30152">
        <ele>204.6</ele>
        <time>2019-08-09T17:48:25Z</time>
      </trkpt>
      <trkpt lat="47.95732" lon="7.30146">
        <ele>204.6</ele>
        <time>2019-08-09T17:48:26Z</time>
      </trkpt>
      <trkpt lat="47.9573" lon="7.30141">
        <ele>204.5</ele>
        <time>2019-08-09T17:48:27Z</time>
      </trkpt>
      <trkpt lat="47.95729" lon="7.30136">
        <ele>204.5</ele>
        <time>2019-08-09T17:48:28Z</time>
      </trkpt>
      <trkpt lat="47.95728" lon="7.30131">
        <ele>204.5</ele>
        <time>2019-08-09T17:48:29Z</time>
      </trkpt>
      <trkpt lat="47.95727" lon="7.30126">
        <ele>204.4</ele>
        <time>2019-08-09T17:48:30Z</time>
      </trkpt>
      <trkpt lat="47.95726" lon="7.3012">
        <ele>204.4</ele>
        <time>2019-08-09T17:48:31Z</time>
      </trkpt>
      <trkpt lat="47.95726" lon="7.30114">
        <ele>204.3</ele>
        <time>2019-08-09T17:48:32Z</time>
      </trkpt>
      <trkpt lat="47.95725" lon="7.30106">
        <ele>204.3</ele>
        <time>2019-08-09T17:48:34Z</time>
      </trkpt>
      <trkpt lat="47.95725" lon="7.30101">
        <ele>204.3</ele>
        <time>2019-08-09T17:48:35Z</time>
      </trkpt>
      <trkpt lat="47.95725" lon="7.30096">
        <ele>204.3</ele>
        <time>2019-08-09T17:48:36Z</time>
      </trkpt>
      <trkpt lat="47.95725" lon="7.3009">
        <ele>204.3</ele>
        <time>2019-08-09T17:48:37Z</time>
      </trkpt>
      <trkpt lat="47.95725" lon="7.30084">
        <ele>204.3</ele>
        <time>2019-08-09T17:48:38Z</time>
      </trkpt>
      <trkpt lat="47.95725" lon="7.30078">
        <ele>204.3</ele>
        <time>2019-08-09T17:48:39Z</time>
      </trkpt>
      <trkpt lat="47.95725" lon="7.30072">
        <ele>204.2</ele>
        <time>2019-08-09T17:48:40Z</time>
      </trkpt>
      <trkpt lat="47.95726" lon="7.30066">
        <ele>204.2</ele>
        <time>2019-08-09T17:48:41Z</time>
      </trkpt>
      <trkpt lat="47.95726" lon="7.30059">
        <ele>204.2</ele>
        <time>2019-08-09T17:48:42Z</time>
      </trkpt>
      <trkpt lat="47.95726" lon="7.30053">
        <ele>204.2</ele>
        <time>2019-08-09T17:48:43Z</time>
      </trkpt>
      <trkpt lat="47.95727" lon="7.30047">
        <ele>204.3</ele>
        <time>2019-08-09T17:48:44Z</time>
      </trkpt>
      <trkpt lat="47.95728" lon="7.30041">
        <ele>204.3</ele>
        <time>2019-08-09T17:48:45Z</time>
      </trkpt>
      <trkpt lat="47.95728" lon="7.30035">
        <ele>204.3</ele>
        <time>2019-08-09T17:48:46Z</time>
      </trkpt>
      <trkpt lat="47.95729" lon="7.30029">
        <ele>204.3</ele>
        <time>2019-08-09T17:48:47Z</time>
      </trkpt>
      <trkpt lat="47.95729" lon="7.30023">
        <ele>204.4</ele>
        <time>2019-08-09T17:48:48Z</time>
      </trkpt>
      <trkpt lat="47.9573" lon="7.30016">
        <ele>204.4</ele>
        <time>2019-08-09T17:48:49Z</time>
      </trkpt>
      <trkpt lat="47.95731" lon="7.3001">
        <ele>204.5</ele>
        <time>2019-08-09T17:48:50Z</time>
      </trkpt>
      <trkpt lat="47.95732" lon="7.30004">
        <ele>204.5</ele>
        <time>2019-08-09T17:48:51Z</time>
      </trkpt>
      <trkpt lat="47.95733" lon="7.29997">
        <ele>204.6</ele>
        <time>2019-08-09T17:48:52Z</time>
      </trkpt>
      <trkpt lat="47.95734" lon="7.29992">
        <ele>204.6</ele>
        <time>2019-08-09T17:48:53Z</time>
      </trkpt>
      <trkpt lat="47.95736" lon="7.29986">
        <ele>204.7</ele>
        <time>2019-08-09T17:48:54Z</time>
      </trkpt>
      <trkpt lat="47.95737" lon="7.2998">
        <ele>204.8</ele>
        <time>2019-08-09T17:48:55Z</time>
      </trkpt>
      <trkpt lat="47.95738" lon="7.29974">
        <ele>204.8</ele>
        <time>2019-08-09T17:48:56Z</time>
      </trkpt>
      <trkpt lat="47.9574" lon="7.29968">
        <ele>204.9</ele>
        <time>2019-08-09T17:48:57Z</time>
      </trkpt>
      <trkpt lat="47.95741" lon="7.29962">
        <ele>204.9</ele>
        <time>2019-08-09T17:48:58Z</time>
      </trkpt>
      <trkpt lat="47.95742" lon="7.29957">
        <ele>205</ele>
        <time>2019-08-09T17:48:59Z</time>
      </trkpt>
      <trkpt lat="47.95743" lon="7.29952">
        <ele>205.1</ele>
        <time>2019-08-09T17:49:00Z</time>
      </trkpt>
      <trkpt lat="47.95744" lon="7.29947">
        <ele>205.1</ele>
        <time>2019-08-09T17:49:01Z</time>
      </trkpt>
      <trkpt lat="47.95744" lon="7.2994">
        <ele>205.2</ele>
        <time>2019-08-09T17:49:02Z</time>
      </trkpt>
      <trkpt lat="47.95745" lon="7.29933">
        <ele>205.3</ele>
        <time>2019-08-09T17:49:03Z</time>
      </trkpt>
      <trkpt lat="47.95744" lon="7.29927">
        <ele>205.4</ele>
        <time>2019-08-09T17:49:04Z</time>
      </trkpt>
      <trkpt lat="47.95744" lon="7.29921">
        <ele>205.4</ele>
        <time>2019-08-09T17:49:05Z</time>
      </trkpt>
      <trkpt lat="47.95743" lon="7.29914">
        <ele>205.5</ele>
        <time>2019-08-09T17:49:06Z</time>
      </trkpt>
      <trkpt lat="47.95743" lon="7.29907">
        <ele>205.6</ele>
        <time>2019-08-09T17:49:07Z</time>
      </trkpt>
      <trkpt lat="47.95741" lon="7.299">
        <ele>205.7</ele>
        <time>2019-08-09T17:49:08Z</time>
      </trkpt>
      <trkpt lat="47.95741" lon="7.29894">
        <ele>205.7</ele>
        <time>2019-08-09T17:49:09Z</time>
      </trkpt>
      <trkpt lat="47.9574" lon="7.29887">
        <ele>205.7</ele>
        <time>2019-08-09T17:49:10Z</time>
      </trkpt>
      <trkpt lat="47.95739" lon="7.29882">
        <ele>205.8</ele>
        <time>2019-08-09T17:49:11Z</time>
      </trkpt>
      <trkpt lat="47.95737" lon="7.29876">
        <ele>205.8</ele>
        <time>2019-08-09T17:49:12Z</time>
      </trkpt>
      <trkpt lat="47.95736" lon="7.29869">
        <ele>205.8</ele>
        <time>2019-08-09T17:49:13Z</time>
      </trkpt>
      <trkpt lat="47.95735" lon="7.29863">
        <ele>205.9</ele>
        <time>2019-08-09T17:49:14Z</time>
      </trkpt>
      <trkpt lat="47.95734" lon="7.29857">
        <ele>205.9</ele>
        <time>2019-08-09T17:49:15Z</time>
      </trkpt>
      <trkpt lat="47.95734" lon="7.29851">
        <ele>205.9</ele>
        <time>2019-08-09T17:49:16Z</time>
      </trkpt>
      <trkpt lat="47.95735" lon="7.29845">
        <ele>206</ele>
        <time>2019-08-09T17:49:17Z</time>
      </trkpt>
      <trkpt lat="47.95735" lon="7.2984">
        <ele>206</ele>
        <time>2019-08-09T17:49:18Z</time>
      </trkpt>
      <trkpt lat="47.95736" lon="7.29834">
        <ele>206</ele>
        <time>2019-08-09T17:49:19Z</time>
      </trkpt>
      <trkpt lat="47.95737" lon="7.29828">
        <ele>206</ele>
        <time>2019-08-09T17:49:20Z</time>
      </trkpt>
      <trkpt lat="47.95738" lon="7.29823">
        <ele>206</ele>
        <time>2019-08-09T17:49:21Z</time>
      </trkpt>
      <trkpt lat="47.9574" lon="7.29818">
        <ele>206</ele>
        <time>2019-08-09T17:49:22Z</time>
      </trkpt>
      <trkpt lat="47.95742" lon="7.29813">
        <ele>206</ele>
        <time>2019-08-09T17:49:23Z</time>
      </trkpt>
      <trkpt lat="47.95744" lon="7.29807">
        <ele>206</ele>
        <time>2019-08-09T17:49:24Z</time>
      </trkpt>
      <trkpt lat="47.95745" lon="7.29802">
        <ele>206</ele>
        <time>2019-08-09T17:49:25Z</time>
      </trkpt>
      <trkpt lat="47.95747" lon="7.29796">
        <ele>206</ele>
        <time>2019-08-09T17:49:26Z</time>
      </trkpt>
      <trkpt lat="47.9575" lon="7.2979">
        <ele>206</ele>
        <time>2019-08-09T17:49:27Z</time>
      </trkpt>
      <trkpt lat="47.95752" lon="7.29784">
        <ele>206</ele>
        <time>2019-08-09T17:49:28Z</time>
      </trkpt>
      <trkpt lat="47.95753" lon="7.29778">
        <ele>206</ele>
        <time>2019-08-09T17:49:29Z</time>
      </trkpt>
      <trkpt lat="47.95755" lon="7.29772">
        <ele>206</ele>
        <time>2019-08-09T17:49:30Z</time>
      </trkpt>
      <trkpt lat="47.95756" lon="7.29766">
        <ele>206</ele>
        <time>2019-08-09T17:49:31Z</time>
      </trkpt>
      <trkpt lat="47.95757" lon="7.29761">
        <ele>206</ele>
        <time>2019-08-09T17:49:32Z</time>
      </trkpt>
      <trkpt lat="47.95758" lon="7.29755">
        <ele>206</ele>
        <time>2019-08-09T17:49:33Z</time>
      </trkpt>
      <trkpt lat="47.9576" lon="7.2975">
        <ele>206</ele>
        <time>2019-08-09T17:49:34Z</time>
      </trkpt>
      <trkpt lat="47.95761" lon="7.29743">
        <ele>206</ele>
        <time>2019-08-09T17:49:35Z</time>
      </trkpt>
      <trkpt lat="47.95762" lon="7.29737">
        <ele>206.1</ele>
        <time>2019-08-09T17:49:36Z</time>
      </trkpt>
      <trkpt lat="47.95763" lon="7.29731">
        <ele>206.1</ele>
        <time>2019-08-09T17:49:37Z</time>
      </trkpt>
      <trkpt lat="47.95764" lon="7.29725">
        <ele>206.1</ele>
        <time>2019-08-09T17:49:38Z</time>
      </trkpt>
      <trkpt lat="47.95765" lon="7.2972">
        <ele>206.1</ele>
        <time>2019-08-09T17:49:39Z</time>
      </trkpt>
      <trkpt lat="47.95766" lon="7.29714">
        <ele>206.1</ele>
        <time>2019-08-09T17:49:40Z</time>
      </trkpt>
      <trkpt lat="47.95766" lon="7.29709">
        <ele>206.1</ele>
        <time>2019-08-09T17:49:41Z</time>
      </trkpt>
      <trkpt lat="47.95767" lon="7.29704">
        <ele>206.1</ele>
        <time>2019-08-09T17:49:42Z</time>
      </trkpt>
      <trkpt lat="47.95767" lon="7.29699">
        <ele>206.2</ele>
        <time>2019-08-09T17:49:43Z</time>
      </trkpt>
      <trkpt lat="47.95768" lon="7.29695">
        <ele>206.2</ele>
        <time>2019-08-09T17:49:44Z</time>
      </trkpt>
      <trkpt lat="47.95769" lon="7.29691">
        <ele>206.2</ele>
        <time>2019-08-09T17:49:45Z</time>
      </trkpt>
      <trkpt lat="47.9577" lon="7.29684">
        <ele>206.2</ele>
        <time>2019-08-09T17:49:47Z</time>
      </trkpt>
      <trkpt lat="47.95772" lon="7.29679">
        <ele>206.3</ele>
        <time>2019-08-09T17:49:49Z</time>
      </trkpt>
      <trkpt lat="47.95774" lon="7.29672">
        <ele>206.2</ele>
        <time>2019-08-09T17:49:51Z</time>
      </trkpt>
      <trkpt lat="47.95775" lon="7.29668">
        <ele>206.2</ele>
        <time>2019-08-09T17:49:52Z</time>
      </trkpt>
      <trkpt lat="47.95777" lon="7.2966">
        <ele>206.2</ele>
        <time>2019-08-09T17:49:54Z</time>
      </trkpt>
      <trkpt lat="47.95777" lon="7.29656">
        <ele>206.2</ele>
        <time>2019-08-09T17:49:55Z</time>
      </trkpt>
      <trkpt lat="47.95778" lon="7.29651">
        <ele>206.1</ele>
        <time>2019-08-09T17:49:56Z</time>
      </trkpt>
      <trkpt lat="47.95779" lon="7.29646">
        <ele>206.1</ele>
        <time>2019-08-09T17:49:57Z</time>
      </trkpt>
      <trkpt lat="47.9578" lon="7.29641">
        <ele>206.1</ele>
        <time>2019-08-09T17:49:58Z</time>
      </trkpt>
      <trkpt lat="47.95781" lon="7.29636">
        <ele>206.1</ele>
        <time>2019-08-09T17:49:59Z</time>
      </trkpt>
      <trkpt lat="47.95782" lon="7.29632">
        <ele>206.1</ele>
        <time>2019-08-09T17:50:00Z</time>
      </trkpt>
      <trkpt lat="47.95783" lon="7.29627">
        <ele>206.1</ele>
        <time>2019-08-09T17:50:01Z</time>
      </trkpt>
      <trkpt lat="47.95784" lon="7.29622">
        <ele>206.1</ele>
        <time>2019-08-09T17:50:02Z</time>
      </trkpt>
      <trkpt lat="47.95785" lon="7.29618">
        <ele>206.2</ele>
        <time>2019-08-09T17:50:03Z</time>
      </trkpt>
      <trkpt lat="47.95787" lon="7.29614">
        <ele>206.2</ele>
        <time>2019-08-09T17:50:04Z</time>
      </trkpt>
      <trkpt lat="47.95788" lon="7.2961">
        <ele>206.2</ele>
        <time>2019-08-09T17:50:05Z</time>
      </trkpt>
      <trkpt lat="47.95789" lon="7.29605">
        <ele>206.2</ele>
        <time>2019-08-09T17:50:06Z</time>
      </trkpt>
      <trkpt lat="47.95791" lon="7.29601">
        <ele>206.2</ele>
        <time>2019-08-09T17:50:07Z</time>
      </trkpt>
      <trkpt lat="47.95793" lon="7.29597">
        <ele>206.2</ele>
        <time>2019-08-09T17:50:08Z</time>
      </trkpt>
      <trkpt lat="47.95794" lon="7.29594">
        <ele>206.2</ele>
        <time>2019-08-09T17:50:09Z</time>
      </trkpt>
      <trkpt lat="47.95795" lon="7.29587">
        <ele>206.2</ele>
        <time>2019-08-09T17:50:11Z</time>
      </trkpt>
      <trkpt lat="47.95796" lon="7.29583">
        <ele>206.3</ele>
        <time>2019-08-09T17:50:12Z</time>
      </trkpt>
      <trkpt lat="47.95794" lon="7.29579">
        <ele>206.3</ele>
        <time>2019-08-09T17:50:14Z</time>
      </trkpt>
      <trkpt lat="47.95791" lon="7.29576">
        <ele>206.3</ele>
        <time>2019-08-09T17:50:15Z</time>
      </trkpt>
      <trkpt lat="47.95788" lon="7.29573">
        <ele>206.4</ele>
        <time>2019-08-09T17:50:16Z</time>
      </trkpt>
      <trkpt lat="47.95784" lon="7.29572">
        <ele>206.4</ele>
        <time>2019-08-09T17:50:17Z</time>
      </trkpt>
      <trkpt lat="47.95781" lon="7.2957">
        <ele>206.4</ele>
        <time>2019-08-09T17:50:18Z</time>
      </trkpt>
      <trkpt lat="47.95778" lon="7.29568">
        <ele>206.5</ele>
        <time>2019-08-09T17:50:19Z</time>
      </trkpt>
      <trkpt lat="47.95775" lon="7.29567">
        <ele>206.5</ele>
        <time>2019-08-09T17:50:20Z</time>
      </trkpt>
      <trkpt lat="47.95771" lon="7.29565">
        <ele>206.5</ele>
        <time>2019-08-09T17:50:21Z</time>
      </trkpt>
      <trkpt lat="47.95768" lon="7.29563">
        <ele>206.5</ele>
        <time>2019-08-09T17:50:22Z</time>
      </trkpt>
      <trkpt lat="47.95765" lon="7.29559">
        <ele>206.5</ele>
        <time>2019-08-09T17:50:23Z</time>
      </trkpt>
      <trkpt lat="47.95762" lon="7.29553">
        <ele>206.6</ele>
        <time>2019-08-09T17:50:24Z</time>
      </trkpt>
      <trkpt lat="47.95759" lon="7.29549">
        <ele>206.6</ele>
        <time>2019-08-09T17:50:25Z</time>
      </trkpt>
      <trkpt lat="47.95755" lon="7.29545">
        <ele>206.6</ele>
        <time>2019-08-09T17:50:26Z</time>
      </trkpt>
      <trkpt lat="47.95751" lon="7.29542">
        <ele>206.7</ele>
        <time>2019-08-09T17:50:27Z</time>
      </trkpt>
      <trkpt lat="47.95748" lon="7.29539">
        <ele>206.7</ele>
        <time>2019-08-09T17:50:28Z</time>
      </trkpt>
      <trkpt lat="47.95745" lon="7.29536">
        <ele>206.6</ele>
        <time>2019-08-09T17:50:29Z</time>
      </trkpt>
      <trkpt lat="47.95742" lon="7.29534">
        <ele>206.6</ele>
        <time>2019-08-09T17:50:30Z</time>
      </trkpt>
      <trkpt lat="47.95738" lon="7.29531">
        <ele>206.6</ele>
        <time>2019-08-09T17:50:31Z</time>
      </trkpt>
      <trkpt lat="47.95735" lon="7.29529">
        <ele>206.6</ele>
        <time>2019-08-09T17:50:32Z</time>
      </trkpt>
      <trkpt lat="47.95731" lon="7.29527">
        <ele>206.6</ele>
        <time>2019-08-09T17:50:33Z</time>
      </trkpt>
      <trkpt lat="47.95728" lon="7.29524">
        <ele>206.6</ele>
        <time>2019-08-09T17:50:34Z</time>
      </trkpt>
      <trkpt lat="47.95726" lon="7.29522">
        <ele>206.6</ele>
        <time>2019-08-09T17:50:35Z</time>
      </trkpt>
      <trkpt lat="47.95723" lon="7.2952">
        <ele>206.5</ele>
        <time>2019-08-09T17:50:36Z</time>
      </trkpt>
      <trkpt lat="47.95719" lon="7.29517">
        <ele>206.5</ele>
        <time>2019-08-09T17:50:37Z</time>
      </trkpt>
      <trkpt lat="47.95716" lon="7.29514">
        <ele>206.4</ele>
        <time>2019-08-09T17:50:38Z</time>
      </trkpt>
      <trkpt lat="47.95711" lon="7.29509">
        <ele>206.3</ele>
        <time>2019-08-09T17:50:39Z</time>
      </trkpt>
      <trkpt lat="47.95708" lon="7.29506">
        <ele>206.3</ele>
        <time>2019-08-09T17:50:40Z</time>
      </trkpt>
      <trkpt lat="47.95705" lon="7.295">
        <ele>206.2</ele>
        <time>2019-08-09T17:50:41Z</time>
      </trkpt>
      <trkpt lat="47.95701" lon="7.29496">
        <ele>206.1</ele>
        <time>2019-08-09T17:50:42Z</time>
      </trkpt>
      <trkpt lat="47.95697" lon="7.29492">
        <ele>206.1</ele>
        <time>2019-08-09T17:50:43Z</time>
      </trkpt>
      <trkpt lat="47.95694" lon="7.29488">
        <ele>206</ele>
        <time>2019-08-09T17:50:44Z</time>
      </trkpt>
      <trkpt lat="47.95691" lon="7.29485">
        <ele>205.9</ele>
        <time>2019-08-09T17:50:45Z</time>
      </trkpt>
      <trkpt lat="47.95687" lon="7.29481">
        <ele>205.8</ele>
        <time>2019-08-09T17:50:46Z</time>
      </trkpt>
      <trkpt lat="47.95685" lon="7.29478">
        <ele>205.8</ele>
        <time>2019-08-09T17:50:47Z</time>
      </trkpt>
      <trkpt lat="47.95682" lon="7.29474">
        <ele>205.7</ele>
        <time>2019-08-09T17:50:48Z</time>
      </trkpt>
      <trkpt lat="47.95679" lon="7.29471">
        <ele>205.7</ele>
        <time>2019-08-09T17:50:49Z</time>
      </trkpt>
      <trkpt lat="47.95676" lon="7.29468">
        <ele>205.6</ele>
        <time>2019-08-09T17:50:50Z</time>
      </trkpt>
      <trkpt lat="47.95673" lon="7.29465">
        <ele>205.6</ele>
        <time>2019-08-09T17:50:51Z</time>
      </trkpt>
      <trkpt lat="47.9567" lon="7.29462">
        <ele>205.5</ele>
        <time>2019-08-09T17:50:52Z</time>
      </trkpt>
      <trkpt lat="47.95667" lon="7.29458">
        <ele>205.5</ele>
        <time>2019-08-09T17:50:53Z</time>
      </trkpt>
      <trkpt lat="47.95665" lon="7.29455">
        <ele>205.4</ele>
        <time>2019-08-09T17:50:54Z</time>
      </trkpt>
      <trkpt lat="47.95662" lon="7.29452">
        <ele>205.3</ele>
        <time>2019-08-09T17:50:55Z</time>
      </trkpt>
      <trkpt lat="47.9566" lon="7.2945">
        <ele>205.3</ele>
        <time>2019-08-09T17:50:56Z</time>
      </trkpt>
      <trkpt lat="47.95657" lon="7.29447">
        <ele>205.3</ele>
        <time>2019-08-09T17:50:57Z</time>
      </trkpt>
      <trkpt lat="47.95653" lon="7.29445">
        <ele>205.2</ele>
        <time>2019-08-09T17:50:58Z</time>
      </trkpt>
      <trkpt lat="47.9565" lon="7.29442">
        <ele>205.2</ele>
        <time>2019-08-09T17:50:59Z</time>
      </trkpt>
      <trkpt lat="47.95647" lon="7.29439">
        <ele>205.1</ele>
        <time>2019-08-09T17:51:00Z</time>
      </trkpt>
      <trkpt lat="47.95643" lon="7.29436">
        <ele>205.1</ele>
        <time>2019-08-09T17:51:01Z</time>
      </trkpt>
      <trkpt lat="47.95639" lon="7.29433">
        <ele>205.1</ele>
        <time>2019-08-09T17:51:02Z</time>
      </trkpt>
      <trkpt lat="47.95636" lon="7.29431">
        <ele>205.1</ele>
        <time>2019-08-09T17:51:03Z</time>
      </trkpt>
      <trkpt lat="47.95632" lon="7.29428">
        <ele>205.1</ele>
        <time>2019-08-09T17:51:04Z</time>
      </trkpt>
      <trkpt lat="47.95629" lon="7.29425">
        <ele>205.1</ele>
        <time>2019-08-09T17:51:05Z</time>
      </trkpt>
      <trkpt lat="47.95625" lon="7.29423">
        <ele>205</ele>
        <time>2019-08-09T17:51:06Z</time>
      </trkpt>
      <trkpt lat="47.95621" lon="7.2942">
        <ele>205</ele>
        <time>2019-08-09T17:51:07Z</time>
      </trkpt>
      <trkpt lat="47.95617" lon="7.29417">
        <ele>205</ele>
        <time>2019-08-09T17:51:08Z</time>
      </trkpt>
      <trkpt lat="47.95613" lon="7.29415">
        <ele>205</ele>
        <time>2019-08-09T17:51:09Z</time>
      </trkpt>
      <trkpt lat="47.95609" lon="7.29412">
        <ele>205</ele>
        <time>2019-08-09T17:51:10Z</time>
      </trkpt>
      <trkpt lat="47.95605" lon="7.2941">
        <ele>205</ele>
        <time>2019-08-09T17:51:11Z</time>
      </trkpt>
      <trkpt lat="47.95601" lon="7.29407">
        <ele>205</ele>
        <time>2019-08-09T17:51:12Z</time>
      </trkpt>
      <trkpt lat="47.95597" lon="7.29405">
        <ele>205</ele>
        <time>2019-08-09T17:51:13Z</time>
      </trkpt>
      <trkpt lat="47.95594" lon="7.29403">
        <ele>205</ele>
        <time>2019-08-09T17:51:14Z</time>
      </trkpt>
      <trkpt lat="47.95591" lon="7.29401">
        <ele>205</ele>
        <time>2019-08-09T17:51:15Z</time>
      </trkpt>
      <trkpt lat="47.95588" lon="7.29399">
        <ele>205</ele>
        <time>2019-08-09T17:51:16Z</time>
      </trkpt>
      <trkpt lat="47.95585" lon="7.29397">
        <ele>205</ele>
        <time>2019-08-09T17:51:17Z</time>
      </trkpt>
      <trkpt lat="47.95582" lon="7.29395">
        <ele>205</ele>
        <time>2019-08-09T17:51:18Z</time>
      </trkpt>
      <trkpt lat="47.95579" lon="7.29392">
        <ele>205</ele>
        <time>2019-08-09T17:51:19Z</time>
      </trkpt>
      <trkpt lat="47.95576" lon="7.29387">
        <ele>205</ele>
        <time>2019-08-09T17:51:21Z</time>
      </trkpt>
      <trkpt lat="47.95577" lon="7.2938">
        <ele>205</ele>
        <time>2019-08-09T17:51:23Z</time>
      </trkpt>
      <trkpt lat="47.95579" lon="7.29374">
        <ele>204.9</ele>
        <time>2019-08-09T17:51:25Z</time>
      </trkpt>
      <trkpt lat="47.9558" lon="7.29368">
        <ele>204.9</ele>
        <time>2019-08-09T17:51:27Z</time>
      </trkpt>
      <trkpt lat="47.95582" lon="7.29362">
        <ele>204.9</ele>
        <time>2019-08-09T17:51:29Z</time>
      </trkpt>
      <trkpt lat="47.95584" lon="7.29356">
        <ele>204.8</ele>
        <time>2019-08-09T17:51:31Z</time>
      </trkpt>
      <trkpt lat="47.95585" lon="7.2935">
        <ele>204.8</ele>
        <time>2019-08-09T17:51:33Z</time>
      </trkpt>
      <trkpt lat="47.95587" lon="7.29343">
        <ele>204.8</ele>
        <time>2019-08-09T17:51:35Z</time>
      </trkpt>
      <trkpt lat="47.95588" lon="7.29339">
        <ele>204.8</ele>
        <time>2019-08-09T17:51:36Z</time>
      </trkpt>
      <trkpt lat="47.95589" lon="7.29334">
        <ele>204.8</ele>
        <time>2019-08-09T17:51:37Z</time>
      </trkpt>
      <trkpt lat="47.95591" lon="7.29329">
        <ele>204.8</ele>
        <time>2019-08-09T17:51:38Z</time>
      </trkpt>
      <trkpt lat="47.95593" lon="7.29323">
        <ele>204.8</ele>
        <time>2019-08-09T17:51:39Z</time>
      </trkpt>
      <trkpt lat="47.95594" lon="7.29317">
        <ele>204.8</ele>
        <time>2019-08-09T17:51:40Z</time>
      </trkpt>
      <trkpt lat="47.95596" lon="7.29311">
        <ele>204.8</ele>
        <time>2019-08-09T17:51:41Z</time>
      </trkpt>
      <trkpt lat="47.95598" lon="7.29306">
        <ele>204.8</ele>
        <time>2019-08-09T17:51:42Z</time>
      </trkpt>
      <trkpt lat="47.956" lon="7.293">
        <ele>204.9</ele>
        <time>2019-08-09T17:51:43Z</time>
      </trkpt>
      <trkpt lat="47.95602" lon="7.29295">
        <ele>204.9</ele>
        <time>2019-08-09T17:51:44Z</time>
      </trkpt>
      <trkpt lat="47.95605" lon="7.29289">
        <ele>204.9</ele>
        <time>2019-08-09T17:51:45Z</time>
      </trkpt>
      <trkpt lat="47.95607" lon="7.29283">
        <ele>204.9</ele>
        <time>2019-08-09T17:51:46Z</time>
      </trkpt>
      <trkpt lat="47.95609" lon="7.29278">
        <ele>204.9</ele>
        <time>2019-08-09T17:51:47Z</time>
      </trkpt>
      <trkpt lat="47.95612" lon="7.29274">
        <ele>204.9</ele>
        <time>2019-08-09T17:51:48Z</time>
      </trkpt>
      <trkpt lat="47.95615" lon="7.29269">
        <ele>204.9</ele>
        <time>2019-08-09T17:51:49Z</time>
      </trkpt>
      <trkpt lat="47.95618" lon="7.29264">
        <ele>204.9</ele>
        <time>2019-08-09T17:51:50Z</time>
      </trkpt>
      <trkpt lat="47.9562" lon="7.29259">
        <ele>205</ele>
        <time>2019-08-09T17:51:51Z</time>
      </trkpt>
      <trkpt lat="47.95623" lon="7.29254">
        <ele>205</ele>
        <time>2019-08-09T17:51:52Z</time>
      </trkpt>
      <trkpt lat="47.95625" lon="7.2925">
        <ele>205</ele>
        <time>2019-08-09T17:51:53Z</time>
      </trkpt>
      <trkpt lat="47.95628" lon="7.29245">
        <ele>205.1</ele>
        <time>2019-08-09T17:51:54Z</time>
      </trkpt>
      <trkpt lat="47.9563" lon="7.29241">
        <ele>205.1</ele>
        <time>2019-08-09T17:51:55Z</time>
      </trkpt>
      <trkpt lat="47.95632" lon="7.29236">
        <ele>205.2</ele>
        <time>2019-08-09T17:51:56Z</time>
      </trkpt>
      <trkpt lat="47.95635" lon="7.29231">
        <ele>205.2</ele>
        <time>2019-08-09T17:51:57Z</time>
      </trkpt>
      <trkpt lat="47.95637" lon="7.29227">
        <ele>205.3</ele>
        <time>2019-08-09T17:51:58Z</time>
      </trkpt>
      <trkpt lat="47.95639" lon="7.29222">
        <ele>205.4</ele>
        <time>2019-08-09T17:51:59Z</time>
      </trkpt>
      <trkpt lat="47.95641" lon="7.29217">
        <ele>205.5</ele>
        <time>2019-08-09T17:52:00Z</time>
      </trkpt>
      <trkpt lat="47.95643" lon="7.29213">
        <ele>205.6</ele>
        <time>2019-08-09T17:52:01Z</time>
      </trkpt>
      <trkpt lat="47.95645" lon="7.29207">
        <ele>205.7</ele>
        <time>2019-08-09T17:52:02Z</time>
      </trkpt>
      <trkpt lat="47.95647" lon="7.29201">
        <ele>205.9</ele>
        <time>2019-08-09T17:52:03Z</time>
      </trkpt>
      <trkpt lat="47.95649" lon="7.29195">
        <ele>206</ele>
        <time>2019-08-09T17:52:04Z</time>
      </trkpt>
      <trkpt lat="47.95651" lon="7.2919">
        <ele>206.1</ele>
        <time>2019-08-09T17:52:05Z</time>
      </trkpt>
      <trkpt lat="47.95652" lon="7.29183">
        <ele>206.3</ele>
        <time>2019-08-09T17:52:06Z</time>
      </trkpt>
      <trkpt lat="47.95654" lon="7.29177">
        <ele>206.5</ele>
        <time>2019-08-09T17:52:07Z</time>
      </trkpt>
      <trkpt lat="47.95654" lon="7.29173">
        <ele>206.6</ele>
        <time>2019-08-09T17:52:08Z</time>
      </trkpt>
      <trkpt lat="47.95655" lon="7.29167">
        <ele>206.7</ele>
        <time>2019-08-09T17:52:09Z</time>
      </trkpt>
      <trkpt lat="47.95656" lon="7.29162">
        <ele>206.8</ele>
        <time>2019-08-09T17:52:10Z</time>
      </trkpt>
      <trkpt lat="47.95656" lon="7.29153">
        <ele>207</ele>
        <time>2019-08-09T17:52:12Z</time>
      </trkpt>
      <trkpt lat="47.95655" lon="7.29147">
        <ele>207.1</ele>
        <time>2019-08-09T17:52:13Z</time>
      </trkpt>
      <trkpt lat="47.95654" lon="7.29143">
        <ele>207.1</ele>
        <time>2019-08-09T17:52:14Z</time>
      </trkpt>
      <trkpt lat="47.95652" lon="7.29138">
        <ele>207.2</ele>
        <time>2019-08-09T17:52:15Z</time>
      </trkpt>
      <trkpt lat="47.95651" lon="7.29132">
        <ele>207.3</ele>
        <time>2019-08-09T17:52:16Z</time>
      </trkpt>
      <trkpt lat="47.9565" lon="7.29126">
        <ele>207.4</ele>
        <time>2019-08-09T17:52:17Z</time>
      </trkpt>
      <trkpt lat="47.9565" lon="7.2912">
        <ele>207.4</ele>
        <time>2019-08-09T17:52:18Z</time>
      </trkpt>
      <trkpt lat="47.95648" lon="7.29116">
        <ele>207.5</ele>
        <time>2019-08-09T17:52:19Z</time>
      </trkpt>
      <trkpt lat="47.95647" lon="7.29112">
        <ele>207.5</ele>
        <time>2019-08-09T17:52:20Z</time>
      </trkpt>
      <trkpt lat="47.95645" lon="7.29108">
        <ele>207.6</ele>
        <time>2019-08-09T17:52:21Z</time>
      </trkpt>
      <trkpt lat="47.95642" lon="7.29106">
        <ele>207.6</ele>
        <time>2019-08-09T17:52:22Z</time>
      </trkpt>
      <trkpt lat="47.9564" lon="7.29103">
        <ele>207.7</ele>
        <time>2019-08-09T17:52:23Z</time>
      </trkpt>
      <trkpt lat="47.95637" lon="7.29097">
        <ele>207.7</ele>
        <time>2019-08-09T17:52:25Z</time>
      </trkpt>
      <trkpt lat="47.95636" lon="7.29093">
        <ele>207.7</ele>
        <time>2019-08-09T17:52:26Z</time>
      </trkpt>
      <trkpt lat="47.95634" lon="7.29089">
        <ele>207.8</ele>
        <time>2019-08-09T17:52:27Z</time>
      </trkpt>
      <trkpt lat="47.95632" lon="7.29086">
        <ele>207.8</ele>
        <time>2019-08-09T17:52:28Z</time>
      </trkpt>
      <trkpt lat="47.95629" lon="7.29083">
        <ele>207.8</ele>
        <time>2019-08-09T17:52:29Z</time>
      </trkpt>
      <trkpt lat="47.95626" lon="7.29082">
        <ele>207.9</ele>
        <time>2019-08-09T17:52:30Z</time>
      </trkpt>
      <trkpt lat="47.95624" lon="7.29078">
        <ele>207.9</ele>
        <time>2019-08-09T17:52:31Z</time>
      </trkpt>
      <trkpt lat="47.95621" lon="7.29074">
        <ele>207.9</ele>
        <time>2019-08-09T17:52:33Z</time>
      </trkpt>
      <trkpt lat="47.95619" lon="7.29072">
        <ele>207.9</ele>
        <time>2019-08-09T17:52:34Z</time>
      </trkpt>
      <trkpt lat="47.95614" lon="7.29068">
        <ele>208</ele>
        <time>2019-08-09T17:52:36Z</time>
      </trkpt>
      <trkpt lat="47.95612" lon="7.29064">
        <ele>208</ele>
        <time>2019-08-09T17:52:37Z</time>
      </trkpt>
      <trkpt lat="47.9561" lon="7.2906">
        <ele>208.1</ele>
        <time>2019-08-09T17:52:38Z</time>
      </trkpt>
      <trkpt lat="47.95608" lon="7.29057">
        <ele>208.1</ele>
        <time>2019-08-09T17:52:39Z</time>
      </trkpt>
      <trkpt lat="47.95606" lon="7.29053">
        <ele>208.1</ele>
        <time>2019-08-09T17:52:40Z</time>
      </trkpt>
      <trkpt lat="47.95604" lon="7.29049">
        <ele>208.2</ele>
        <time>2019-08-09T17:52:41Z</time>
      </trkpt>
      <trkpt lat="47.95601" lon="7.29045">
        <ele>208.4</ele>
        <time>2019-08-09T17:52:42Z</time>
      </trkpt>
      <trkpt lat="47.95599" lon="7.29041">
        <ele>208.5</ele>
        <time>2019-08-09T17:52:43Z</time>
      </trkpt>
      <trkpt lat="47.95596" lon="7.29038">
        <ele>208.6</ele>
        <time>2019-08-09T17:52:44Z</time>
      </trkpt>
      <trkpt lat="47.95593" lon="7.29037">
        <ele>208.8</ele>
        <time>2019-08-09T17:52:45Z</time>
      </trkpt>
      <trkpt lat="47.95591" lon="7.29034">
        <ele>208.9</ele>
        <time>2019-08-09T17:52:46Z</time>
      </trkpt>
      <trkpt lat="47.95588" lon="7.29031">
        <ele>209</ele>
        <time>2019-08-09T17:52:47Z</time>
      </trkpt>
      <trkpt lat="47.95586" lon="7.29028">
        <ele>209.1</ele>
        <time>2019-08-09T17:52:48Z</time>
      </trkpt>
      <trkpt lat="47.95583" lon="7.29025">
        <ele>209.3</ele>
        <time>2019-08-09T17:52:49Z</time>
      </trkpt>
      <trkpt lat="47.9558" lon="7.2902">
        <ele>209.4</ele>
        <time>2019-08-09T17:52:50Z</time>
      </trkpt>
      <trkpt lat="47.95578" lon="7.29016">
        <ele>209.6</ele>
        <time>2019-08-09T17:52:51Z</time>
      </trkpt>
      <trkpt lat="47.95576" lon="7.29011">
        <ele>209.8</ele>
        <time>2019-08-09T17:52:52Z</time>
      </trkpt>
      <trkpt lat="47.95573" lon="7.29007">
        <ele>210</ele>
        <time>2019-08-09T17:52:53Z</time>
      </trkpt>
      <trkpt lat="47.95571" lon="7.29004">
        <ele>210.2</ele>
        <time>2019-08-09T17:52:54Z</time>
      </trkpt>
      <trkpt lat="47.95569" lon="7.29">
        <ele>210.3</ele>
        <time>2019-08-09T17:52:55Z</time>
      </trkpt>
      <trkpt lat="47.95567" lon="7.28996">
        <ele>210.5</ele>
        <time>2019-08-09T17:52:56Z</time>
      </trkpt>
      <trkpt lat="47.95565" lon="7.28993">
        <ele>210.6</ele>
        <time>2019-08-09T17:52:57Z</time>
      </trkpt>
      <trkpt lat="47.9556" lon="7.28988">
        <ele>210.9</ele>
        <time>2019-08-09T17:52:59Z</time>
      </trkpt>
      <trkpt lat="47.95558" lon="7.28984">
        <ele>211</ele>
        <time>2019-08-09T17:53:00Z</time>
      </trkpt>
      <trkpt lat="47.95556" lon="7.28981">
        <ele>211.1</ele>
        <time>2019-08-09T17:53:01Z</time>
      </trkpt>
      <trkpt lat="47.95554" lon="7.28978">
        <ele>211.3</ele>
        <time>2019-08-09T17:53:02Z</time>
      </trkpt>
      <trkpt lat="47.95552" lon="7.28974">
        <ele>211.4</ele>
        <time>2019-08-09T17:53:03Z</time>
      </trkpt>
      <trkpt lat="47.9555" lon="7.2897">
        <ele>211.5</ele>
        <time>2019-08-09T17:53:04Z</time>
      </trkpt>
      <trkpt lat="47.95548" lon="7.28966">
        <ele>211.7</ele>
        <time>2019-08-09T17:53:05Z</time>
      </trkpt>
      <trkpt lat="47.95546" lon="7.28963">
        <ele>211.8</ele>
        <time>2019-08-09T17:53:06Z</time>
      </trkpt>
      <trkpt lat="47.95544" lon="7.2896">
        <ele>212</ele>
        <time>2019-08-09T17:53:07Z</time>
      </trkpt>
      <trkpt lat="47.95542" lon="7.28957">
        <ele>212.2</ele>
        <time>2019-08-09T17:53:08Z</time>
      </trkpt>
      <trkpt lat="47.9554" lon="7.28954">
        <ele>212.4</ele>
        <time>2019-08-09T17:53:09Z</time>
      </trkpt>
      <trkpt lat="47.95538" lon="7.2895">
        <ele>212.6</ele>
        <time>2019-08-09T17:53:10Z</time>
      </trkpt>
      <trkpt lat="47.95534" lon="7.28944">
        <ele>213</ele>
        <time>2019-08-09T17:53:12Z</time>
      </trkpt>
      <trkpt lat="47.95533" lon="7.2894">
        <ele>213.2</ele>
        <time>2019-08-09T17:53:13Z</time>
      </trkpt>
      <trkpt lat="47.9553" lon="7.28936">
        <ele>213.5</ele>
        <time>2019-08-09T17:53:15Z</time>
      </trkpt>
      <trkpt lat="47.95528" lon="7.28932">
        <ele>213.7</ele>
        <time>2019-08-09T17:53:17Z</time>
      </trkpt>
      <trkpt lat="47.95527" lon="7.28927">
        <ele>213.9</ele>
        <time>2019-08-09T17:53:19Z</time>
      </trkpt>
      <trkpt lat="47.95525" lon="7.2892">
        <ele>214.2</ele>
        <time>2019-08-09T17:53:21Z</time>
      </trkpt>
      <trkpt lat="47.95523" lon="7.28915">
        <ele>214.4</ele>
        <time>2019-08-09T17:53:23Z</time>
      </trkpt>
      <trkpt lat="47.95521" lon="7.2891">
        <ele>214.7</ele>
        <time>2019-08-09T17:53:25Z</time>
      </trkpt>
      <trkpt lat="47.95519" lon="7.28904">
        <ele>214.9</ele>
        <time>2019-08-09T17:53:27Z</time>
      </trkpt>
      <trkpt lat="47.95516" lon="7.289">
        <ele>215.2</ele>
        <time>2019-08-09T17:53:29Z</time>
      </trkpt>
      <trkpt lat="47.95514" lon="7.28895">
        <ele>215.5</ele>
        <time>2019-08-09T17:53:31Z</time>
      </trkpt>
      <trkpt lat="47.95513" lon="7.28891">
        <ele>215.6</ele>
        <time>2019-08-09T17:53:33Z</time>
      </trkpt>
      <trkpt lat="47.95512" lon="7.28886">
        <ele>215.7</ele>
        <time>2019-08-09T17:53:35Z</time>
      </trkpt>
      <trkpt lat="47.95508" lon="7.2888">
        <ele>215.9</ele>
        <time>2019-08-09T17:53:37Z</time>
      </trkpt>
      <trkpt lat="47.95506" lon="7.28877">
        <ele>216</ele>
        <time>2019-08-09T17:53:38Z</time>
      </trkpt>
      <trkpt lat="47.95504" lon="7.28873">
        <ele>216.2</ele>
        <time>2019-08-09T17:53:39Z</time>
      </trkpt>
      <trkpt lat="47.95503" lon="7.28869">
        <ele>216.3</ele>
        <time>2019-08-09T17:53:40Z</time>
      </trkpt>
      <trkpt lat="47.95501" lon="7.28864">
        <ele>216.5</ele>
        <time>2019-08-09T17:53:42Z</time>
      </trkpt>
      <trkpt lat="47.95499" lon="7.28859">
        <ele>216.7</ele>
        <time>2019-08-09T17:53:44Z</time>
      </trkpt>
      <trkpt lat="47.95497" lon="7.28854">
        <ele>216.9</ele>
        <time>2019-08-09T17:53:46Z</time>
      </trkpt>
      <trkpt lat="47.95494" lon="7.2885">
        <ele>217.1</ele>
        <time>2019-08-09T17:53:48Z</time>
      </trkpt>
      <trkpt lat="47.95491" lon="7.28846">
        <ele>217.3</ele>
        <time>2019-08-09T17:53:50Z</time>
      </trkpt>
      <trkpt lat="47.95489" lon="7.28841">
        <ele>217.6</ele>
        <time>2019-08-09T17:53:52Z</time>
      </trkpt>
      <trkpt lat="47.95488" lon="7.28837">
        <ele>217.8</ele>
        <time>2019-08-09T17:53:53Z</time>
      </trkpt>
      <trkpt lat="47.95484" lon="7.28833">
        <ele>218.1</ele>
        <time>2019-08-09T17:53:55Z</time>
      </trkpt>
      <trkpt lat="47.95483" lon="7.28829">
        <ele>218.3</ele>
        <time>2019-08-09T17:53:56Z</time>
      </trkpt>
      <trkpt lat="47.95481" lon="7.28821">
        <ele>218.5</ele>
        <time>2019-08-09T17:53:58Z</time>
      </trkpt>
      <trkpt lat="47.95478" lon="7.28814">
        <ele>218.8</ele>
        <time>2019-08-09T17:54:00Z</time>
      </trkpt>
      <trkpt lat="47.95475" lon="7.28809">
        <ele>219</ele>
        <time>2019-08-09T17:54:02Z</time>
      </trkpt>
      <trkpt lat="47.95473" lon="7.28804">
        <ele>219.3</ele>
        <time>2019-08-09T17:54:04Z</time>
      </trkpt>
      <trkpt lat="47.95471" lon="7.28798">
        <ele>219.6</ele>
        <time>2019-08-09T17:54:06Z</time>
      </trkpt>
      <trkpt lat="47.95469" lon="7.28791">
        <ele>219.9</ele>
        <time>2019-08-09T17:54:08Z</time>
      </trkpt>
      <trkpt lat="47.95467" lon="7.28784">
        <ele>220.2</ele>
        <time>2019-08-09T17:54:10Z</time>
      </trkpt>
      <trkpt lat="47.95465" lon="7.28781">
        <ele>220.4</ele>
        <time>2019-08-09T17:54:11Z</time>
      </trkpt>
      <trkpt lat="47.95462" lon="7.28776">
        <ele>220.8</ele>
        <time>2019-08-09T17:54:13Z</time>
      </trkpt>
      <trkpt lat="47.9546" lon="7.28775">
        <ele>221</ele>
        <time>2019-08-09T17:54:14Z</time>
      </trkpt>
      <trkpt lat="47.95458" lon="7.28769">
        <ele>221.4</ele>
        <time>2019-08-09T17:54:16Z</time>
      </trkpt>
      <trkpt lat="47.95455" lon="7.28766">
        <ele>221.5</ele>
        <time>2019-08-09T17:54:18Z</time>
      </trkpt>
      <trkpt lat="47.95453" lon="7.28762">
        <ele>221.6</ele>
        <time>2019-08-09T17:54:20Z</time>
      </trkpt>
      <trkpt lat="47.95449" lon="7.28757">
        <ele>221.7</ele>
        <time>2019-08-09T17:54:22Z</time>
      </trkpt>
      <trkpt lat="47.95446" lon="7.28756">
        <ele>221.7</ele>
        <time>2019-08-09T17:54:23Z</time>
      </trkpt>
      <trkpt lat="47.95443" lon="7.28754">
        <ele>221.8</ele>
        <time>2019-08-09T17:54:25Z</time>
      </trkpt>
      <trkpt lat="47.95438" lon="7.28751">
        <ele>221.9</ele>
        <time>2019-08-09T17:54:27Z</time>
      </trkpt>
      <trkpt lat="47.95434" lon="7.28747">
        <ele>222</ele>
        <time>2019-08-09T17:54:29Z</time>
      </trkpt>
      <trkpt lat="47.95429" lon="7.28746">
        <ele>222.1</ele>
        <time>2019-08-09T17:54:31Z</time>
      </trkpt>
      <trkpt lat="47.95425" lon="7.28743">
        <ele>222.1</ele>
        <time>2019-08-09T17:54:33Z</time>
      </trkpt>
      <trkpt lat="47.95423" lon="7.2874">
        <ele>222.2</ele>
        <time>2019-08-09T17:54:34Z</time>
      </trkpt>
      <trkpt lat="47.95418" lon="7.28737">
        <ele>222.3</ele>
        <time>2019-08-09T17:54:36Z</time>
      </trkpt>
      <trkpt lat="47.95414" lon="7.28734">
        <ele>222.3</ele>
        <time>2019-08-09T17:54:38Z</time>
      </trkpt>
      <trkpt lat="47.95412" lon="7.28732">
        <ele>222.4</ele>
        <time>2019-08-09T17:54:39Z</time>
      </trkpt>
      <trkpt lat="47.95408" lon="7.28729">
        <ele>222.4</ele>
        <time>2019-08-09T17:54:41Z</time>
      </trkpt>
      <trkpt lat="47.95404" lon="7.28727">
        <ele>222.5</ele>
        <time>2019-08-09T17:54:43Z</time>
      </trkpt>
      <trkpt lat="47.95399" lon="7.28722">
        <ele>222.6</ele>
        <time>2019-08-09T17:54:45Z</time>
      </trkpt>
      <trkpt lat="47.95397" lon="7.2872">
        <ele>222.6</ele>
        <time>2019-08-09T17:54:46Z</time>
      </trkpt>
      <trkpt lat="47.95394" lon="7.28717">
        <ele>222.6</ele>
        <time>2019-08-09T17:54:47Z</time>
      </trkpt>
      <trkpt lat="47.95391" lon="7.28715">
        <ele>222.7</ele>
        <time>2019-08-09T17:54:48Z</time>
      </trkpt>
      <trkpt lat="47.95387" lon="7.28711">
        <ele>222.7</ele>
        <time>2019-08-09T17:54:50Z</time>
      </trkpt>
      <trkpt lat="47.95384" lon="7.28708">
        <ele>222.8</ele>
        <time>2019-08-09T17:54:51Z</time>
      </trkpt>
      <trkpt lat="47.95382" lon="7.28705">
        <ele>222.8</ele>
        <time>2019-08-09T17:54:52Z</time>
      </trkpt>
      <trkpt lat="47.95379" lon="7.28703">
        <ele>222.8</ele>
        <time>2019-08-09T17:54:53Z</time>
      </trkpt>
      <trkpt lat="47.95376" lon="7.28701">
        <ele>222.9</ele>
        <time>2019-08-09T17:54:54Z</time>
      </trkpt>
      <trkpt lat="47.95373" lon="7.28698">
        <ele>222.9</ele>
        <time>2019-08-09T17:54:56Z</time>
      </trkpt>
      <trkpt lat="47.95369" lon="7.28697">
        <ele>223</ele>
        <time>2019-08-09T17:54:58Z</time>
      </trkpt>
      <trkpt lat="47.95366" lon="7.28693">
        <ele>223</ele>
        <time>2019-08-09T17:55:00Z</time>
      </trkpt>
      <trkpt lat="47.95365" lon="7.28689">
        <ele>223</ele>
        <time>2019-08-09T17:55:01Z</time>
      </trkpt>
      <trkpt lat="47.9536" lon="7.28685">
        <ele>223.1</ele>
        <time>2019-08-09T17:55:03Z</time>
      </trkpt>
      <trkpt lat="47.95357" lon="7.28683">
        <ele>223.2</ele>
        <time>2019-08-09T17:55:04Z</time>
      </trkpt>
      <trkpt lat="47.95355" lon="7.28681">
        <ele>223.2</ele>
        <time>2019-08-09T17:55:05Z</time>
      </trkpt>
      <trkpt lat="47.95353" lon="7.28678">
        <ele>223.2</ele>
        <time>2019-08-09T17:55:06Z</time>
      </trkpt>
      <trkpt lat="47.9535" lon="7.28675">
        <ele>223.3</ele>
        <time>2019-08-09T17:55:07Z</time>
      </trkpt>
      <trkpt lat="47.95346" lon="7.28671">
        <ele>223.3</ele>
        <time>2019-08-09T17:55:09Z</time>
      </trkpt>
      <trkpt lat="47.95343" lon="7.2867">
        <ele>223.4</ele>
        <time>2019-08-09T17:55:10Z</time>
      </trkpt>
      <trkpt lat="47.95341" lon="7.28667">
        <ele>223.4</ele>
        <time>2019-08-09T17:55:11Z</time>
      </trkpt>
      <trkpt lat="47.95337" lon="7.28663">
        <ele>223.5</ele>
        <time>2019-08-09T17:55:13Z</time>
      </trkpt>
      <trkpt lat="47.95333" lon="7.28657">
        <ele>223.5</ele>
        <time>2019-08-09T17:55:15Z</time>
      </trkpt>
      <trkpt lat="47.95331" lon="7.28655">
        <ele>223.5</ele>
        <time>2019-08-09T17:55:16Z</time>
      </trkpt>
      <trkpt lat="47.95326" lon="7.28652">
        <ele>223.6</ele>
        <time>2019-08-09T17:55:18Z</time>
      </trkpt>
      <trkpt lat="47.95323" lon="7.28649">
        <ele>223.6</ele>
        <time>2019-08-09T17:55:19Z</time>
      </trkpt>
      <trkpt lat="47.9532" lon="7.28645">
        <ele>223.6</ele>
        <time>2019-08-09T17:55:20Z</time>
      </trkpt>
      <trkpt lat="47.95317" lon="7.28643">
        <ele>223.7</ele>
        <time>2019-08-09T17:55:21Z</time>
      </trkpt>
      <trkpt lat="47.95315" lon="7.28641">
        <ele>223.7</ele>
        <time>2019-08-09T17:55:22Z</time>
      </trkpt>
      <trkpt lat="47.9531" lon="7.28639">
        <ele>223.7</ele>
        <time>2019-08-09T17:55:24Z</time>
      </trkpt>
      <trkpt lat="47.95306" lon="7.28637">
        <ele>223.7</ele>
        <time>2019-08-09T17:55:26Z</time>
      </trkpt>
      <trkpt lat="47.95303" lon="7.28635">
        <ele>223.7</ele>
        <time>2019-08-09T17:55:27Z</time>
      </trkpt>
      <trkpt lat="47.95301" lon="7.28631">
        <ele>223.7</ele>
        <time>2019-08-09T17:55:28Z</time>
      </trkpt>
      <trkpt lat="47.95298" lon="7.28625">
        <ele>223.8</ele>
        <time>2019-08-09T17:55:30Z</time>
      </trkpt>
      <trkpt lat="47.95296" lon="7.28623">
        <ele>223.8</ele>
        <time>2019-08-09T17:55:31Z</time>
      </trkpt>
      <trkpt lat="47.95291" lon="7.28618">
        <ele>223.8</ele>
        <time>2019-08-09T17:55:33Z</time>
      </trkpt>
      <trkpt lat="47.95287" lon="7.28615">
        <ele>223.8</ele>
        <time>2019-08-09T17:55:35Z</time>
      </trkpt>
      <trkpt lat="47.95284" lon="7.28613">
        <ele>223.8</ele>
        <time>2019-08-09T17:55:36Z</time>
      </trkpt>
      <trkpt lat="47.95281" lon="7.28611">
        <ele>223.8</ele>
        <time>2019-08-09T17:55:37Z</time>
      </trkpt>
      <trkpt lat="47.95279" lon="7.28609">
        <ele>223.8</ele>
        <time>2019-08-09T17:55:38Z</time>
      </trkpt>
      <trkpt lat="47.95277" lon="7.28605">
        <ele>223.8</ele>
        <time>2019-08-09T17:55:39Z</time>
      </trkpt>
      <trkpt lat="47.95275" lon="7.28601">
        <ele>223.8</ele>
        <time>2019-08-09T17:55:40Z</time>
      </trkpt>
      <trkpt lat="47.95272" lon="7.28598">
        <ele>223.8</ele>
        <time>2019-08-09T17:55:41Z</time>
      </trkpt>
      <trkpt lat="47.9527" lon="7.28597">
        <ele>223.8</ele>
        <time>2019-08-09T17:55:42Z</time>
      </trkpt>
      <trkpt lat="47.95267" lon="7.28594">
        <ele>223.8</ele>
        <time>2019-08-09T17:55:43Z</time>
      </trkpt>
      <trkpt lat="47.95263" lon="7.28591">
        <ele>223.9</ele>
        <time>2019-08-09T17:55:45Z</time>
      </trkpt>
      <trkpt lat="47.9526" lon="7.28587">
        <ele>223.9</ele>
        <time>2019-08-09T17:55:47Z</time>
      </trkpt>
      <trkpt lat="47.95256" lon="7.28585">
        <ele>223.9</ele>
        <time>2019-08-09T17:55:49Z</time>
      </trkpt>
      <trkpt lat="47.95253" lon="7.28579">
        <ele>223.9</ele>
        <time>2019-08-09T17:55:51Z</time>
      </trkpt>
      <trkpt lat="47.95251" lon="7.28576">
        <ele>224</ele>
        <time>2019-08-09T17:55:52Z</time>
      </trkpt>
      <trkpt lat="47.95248" lon="7.28573">
        <ele>224</ele>
        <time>2019-08-09T17:55:53Z</time>
      </trkpt>
      <trkpt lat="47.95245" lon="7.2857">
        <ele>224</ele>
        <time>2019-08-09T17:55:54Z</time>
      </trkpt>
      <trkpt lat="47.95243" lon="7.28566">
        <ele>224</ele>
        <time>2019-08-09T17:55:55Z</time>
      </trkpt>
      <trkpt lat="47.9524" lon="7.28562">
        <ele>224.1</ele>
        <time>2019-08-09T17:55:56Z</time>
      </trkpt>
      <trkpt lat="47.95238" lon="7.28559">
        <ele>224.1</ele>
        <time>2019-08-09T17:55:57Z</time>
      </trkpt>
      <trkpt lat="47.95234" lon="7.28553">
        <ele>224.2</ele>
        <time>2019-08-09T17:55:59Z</time>
      </trkpt>
      <trkpt lat="47.95232" lon="7.2855">
        <ele>224.2</ele>
        <time>2019-08-09T17:56:00Z</time>
      </trkpt>
      <trkpt lat="47.95229" lon="7.28547">
        <ele>224.3</ele>
        <time>2019-08-09T17:56:01Z</time>
      </trkpt>
      <trkpt lat="47.95227" lon="7.28544">
        <ele>224.3</ele>
        <time>2019-08-09T17:56:02Z</time>
      </trkpt>
      <trkpt lat="47.95224" lon="7.28541">
        <ele>224.4</ele>
        <time>2019-08-09T17:56:03Z</time>
      </trkpt>
      <trkpt lat="47.95222" lon="7.28539">
        <ele>224.4</ele>
        <time>2019-08-09T17:56:04Z</time>
      </trkpt>
      <trkpt lat="47.95219" lon="7.28535">
        <ele>224.5</ele>
        <time>2019-08-09T17:56:05Z</time>
      </trkpt>
      <trkpt lat="47.95216" lon="7.2853">
        <ele>224.5</ele>
        <time>2019-08-09T17:56:06Z</time>
      </trkpt>
      <trkpt lat="47.95213" lon="7.28527">
        <ele>224.7</ele>
        <time>2019-08-09T17:56:07Z</time>
      </trkpt>
      <trkpt lat="47.95211" lon="7.28523">
        <ele>224.7</ele>
        <time>2019-08-09T17:56:08Z</time>
      </trkpt>
      <trkpt lat="47.95208" lon="7.2852">
        <ele>224.8</ele>
        <time>2019-08-09T17:56:09Z</time>
      </trkpt>
      <trkpt lat="47.95207" lon="7.28516">
        <ele>224.8</ele>
        <time>2019-08-09T17:56:10Z</time>
      </trkpt>
      <trkpt lat="47.95205" lon="7.28513">
        <ele>224.8</ele>
        <time>2019-08-09T17:56:11Z</time>
      </trkpt>
      <trkpt lat="47.95203" lon="7.28509">
        <ele>224.9</ele>
        <time>2019-08-09T17:56:12Z</time>
      </trkpt>
      <trkpt lat="47.95201" lon="7.28505">
        <ele>225</ele>
        <time>2019-08-09T17:56:13Z</time>
      </trkpt>
      <trkpt lat="47.95198" lon="7.28501">
        <ele>225</ele>
        <time>2019-08-09T17:56:14Z</time>
      </trkpt>
      <trkpt lat="47.95196" lon="7.28496">
        <ele>225.1</ele>
        <time>2019-08-09T17:56:15Z</time>
      </trkpt>
      <trkpt lat="47.95193" lon="7.28492">
        <ele>225.1</ele>
        <time>2019-08-09T17:56:16Z</time>
      </trkpt>
      <trkpt lat="47.95189" lon="7.28489">
        <ele>225.2</ele>
        <time>2019-08-09T17:56:17Z</time>
      </trkpt>
      <trkpt lat="47.95186" lon="7.28486">
        <ele>225.2</ele>
        <time>2019-08-09T17:56:18Z</time>
      </trkpt>
      <trkpt lat="47.95183" lon="7.28483">
        <ele>225.3</ele>
        <time>2019-08-09T17:56:19Z</time>
      </trkpt>
      <trkpt lat="47.9518" lon="7.28479">
        <ele>225.3</ele>
        <time>2019-08-09T17:56:20Z</time>
      </trkpt>
      <trkpt lat="47.95177" lon="7.28475">
        <ele>225.3</ele>
        <time>2019-08-09T17:56:21Z</time>
      </trkpt>
      <trkpt lat="47.95174" lon="7.28471">
        <ele>225.4</ele>
        <time>2019-08-09T17:56:22Z</time>
      </trkpt>
      <trkpt lat="47.95171" lon="7.28468">
        <ele>225.4</ele>
        <time>2019-08-09T17:56:23Z</time>
      </trkpt>
      <trkpt lat="47.95168" lon="7.28463">
        <ele>225.4</ele>
        <time>2019-08-09T17:56:24Z</time>
      </trkpt>
      <trkpt lat="47.95165" lon="7.28459">
        <ele>225.4</ele>
        <time>2019-08-09T17:56:25Z</time>
      </trkpt>
      <trkpt lat="47.95163" lon="7.28456">
        <ele>225.4</ele>
        <time>2019-08-09T17:56:26Z</time>
      </trkpt>
      <trkpt lat="47.9516" lon="7.28452">
        <ele>225.4</ele>
        <time>2019-08-09T17:56:27Z</time>
      </trkpt>
      <trkpt lat="47.95157" lon="7.28449">
        <ele>225.4</ele>
        <time>2019-08-09T17:56:28Z</time>
      </trkpt>
      <trkpt lat="47.95154" lon="7.28445">
        <ele>225.4</ele>
        <time>2019-08-09T17:56:29Z</time>
      </trkpt>
      <trkpt lat="47.95152" lon="7.28442">
        <ele>225.4</ele>
        <time>2019-08-09T17:56:30Z</time>
      </trkpt>
      <trkpt lat="47.95149" lon="7.28437">
        <ele>225.4</ele>
        <time>2019-08-09T17:56:31Z</time>
      </trkpt>
      <trkpt lat="47.95146" lon="7.28433">
        <ele>225.4</ele>
        <time>2019-08-09T17:56:32Z</time>
      </trkpt>
      <trkpt lat="47.95143" lon="7.2843">
        <ele>225.4</ele>
        <time>2019-08-09T17:56:33Z</time>
      </trkpt>
      <trkpt lat="47.9514" lon="7.28426">
        <ele>225.4</ele>
        <time>2019-08-09T17:56:34Z</time>
      </trkpt>
      <trkpt lat="47.95136" lon="7.28424">
        <ele>225.4</ele>
        <time>2019-08-09T17:56:35Z</time>
      </trkpt>
      <trkpt lat="47.95133" lon="7.28421">
        <ele>225.4</ele>
        <time>2019-08-09T17:56:36Z</time>
      </trkpt>
      <trkpt lat="47.95131" lon="7.28418">
        <ele>225.4</ele>
        <time>2019-08-09T17:56:37Z</time>
      </trkpt>
      <trkpt lat="47.95128" lon="7.28415">
        <ele>225.4</ele>
        <time>2019-08-09T17:56:38Z</time>
      </trkpt>
      <trkpt lat="47.95126" lon="7.28412">
        <ele>225.4</ele>
        <time>2019-08-09T17:56:39Z</time>
      </trkpt>
      <trkpt lat="47.95123" lon="7.28409">
        <ele>225.3</ele>
        <time>2019-08-09T17:56:40Z</time>
      </trkpt>
      <trkpt lat="47.9512" lon="7.28406">
        <ele>225.3</ele>
        <time>2019-08-09T17:56:41Z</time>
      </trkpt>
      <trkpt lat="47.95117" lon="7.28403">
        <ele>225.2</ele>
        <time>2019-08-09T17:56:42Z</time>
      </trkpt>
      <trkpt lat="47.95114" lon="7.284">
        <ele>225.2</ele>
        <time>2019-08-09T17:56:43Z</time>
      </trkpt>
      <trkpt lat="47.95111" lon="7.28397">
        <ele>225.1</ele>
        <time>2019-08-09T17:56:44Z</time>
      </trkpt>
      <trkpt lat="47.95108" lon="7.28395">
        <ele>225.1</ele>
        <time>2019-08-09T17:56:45Z</time>
      </trkpt>
      <trkpt lat="47.95105" lon="7.28393">
        <ele>225</ele>
        <time>2019-08-09T17:56:46Z</time>
      </trkpt>
      <trkpt lat="47.95102" lon="7.2839">
        <ele>224.9</ele>
        <time>2019-08-09T17:56:47Z</time>
      </trkpt>
      <trkpt lat="47.95098" lon="7.28387">
        <ele>224.8</ele>
        <time>2019-08-09T17:56:48Z</time>
      </trkpt>
      <trkpt lat="47.95095" lon="7.28384">
        <ele>224.7</ele>
        <time>2019-08-09T17:56:49Z</time>
      </trkpt>
      <trkpt lat="47.95091" lon="7.2838">
        <ele>224.7</ele>
        <time>2019-08-09T17:56:50Z</time>
      </trkpt>
      <trkpt lat="47.95088" lon="7.28376">
        <ele>224.6</ele>
        <time>2019-08-09T17:56:51Z</time>
      </trkpt>
      <trkpt lat="47.95085" lon="7.28372">
        <ele>224.5</ele>
        <time>2019-08-09T17:56:52Z</time>
      </trkpt>
      <trkpt lat="47.95082" lon="7.28369">
        <ele>224.4</ele>
        <time>2019-08-09T17:56:53Z</time>
      </trkpt>
      <trkpt lat="47.95079" lon="7.28365">
        <ele>224.3</ele>
        <time>2019-08-09T17:56:54Z</time>
      </trkpt>
      <trkpt lat="47.95076" lon="7.28362">
        <ele>224.2</ele>
        <time>2019-08-09T17:56:55Z</time>
      </trkpt>
      <trkpt lat="47.95072" lon="7.28359">
        <ele>224.3</ele>
        <time>2019-08-09T17:56:56Z</time>
      </trkpt>
      <trkpt lat="47.9507" lon="7.28356">
        <ele>223.9</ele>
        <time>2019-08-09T17:56:57Z</time>
      </trkpt>
      <trkpt lat="47.95067" lon="7.28353">
        <ele>223.9</ele>
        <time>2019-08-09T17:56:58Z</time>
      </trkpt>
      <trkpt lat="47.95064" lon="7.2835">
        <ele>223.8</ele>
        <time>2019-08-09T17:56:59Z</time>
      </trkpt>
      <trkpt lat="47.95061" lon="7.28348">
        <ele>223.7</ele>
        <time>2019-08-09T17:57:00Z</time>
      </trkpt>
      <trkpt lat="47.95058" lon="7.28345">
        <ele>223.6</ele>
        <time>2019-08-09T17:57:01Z</time>
      </trkpt>
      <trkpt lat="47.95054" lon="7.28341">
        <ele>223.4</ele>
        <time>2019-08-09T17:57:02Z</time>
      </trkpt>
      <trkpt lat="47.95051" lon="7.28337">
        <ele>223.3</ele>
        <time>2019-08-09T17:57:03Z</time>
      </trkpt>
      <trkpt lat="47.95048" lon="7.28334">
        <ele>223.2</ele>
        <time>2019-08-09T17:57:04Z</time>
      </trkpt>
      <trkpt lat="47.95045" lon="7.28331">
        <ele>223</ele>
        <time>2019-08-09T17:57:05Z</time>
      </trkpt>
      <trkpt lat="47.95042" lon="7.28328">
        <ele>222.9</ele>
        <time>2019-08-09T17:57:06Z</time>
      </trkpt>
      <trkpt lat="47.95038" lon="7.28326">
        <ele>222.8</ele>
        <time>2019-08-09T17:57:07Z</time>
      </trkpt>
      <trkpt lat="47.95035" lon="7.28323">
        <ele>222.7</ele>
        <time>2019-08-09T17:57:08Z</time>
      </trkpt>
      <trkpt lat="47.95032" lon="7.2832">
        <ele>222.5</ele>
        <time>2019-08-09T17:57:09Z</time>
      </trkpt>
      <trkpt lat="47.95029" lon="7.28316">
        <ele>222.4</ele>
        <time>2019-08-09T17:57:10Z</time>
      </trkpt>
      <trkpt lat="47.95026" lon="7.28312">
        <ele>222.2</ele>
        <time>2019-08-09T17:57:11Z</time>
      </trkpt>
      <trkpt lat="47.95023" lon="7.28307">
        <ele>222.1</ele>
        <time>2019-08-09T17:57:12Z</time>
      </trkpt>
      <trkpt lat="47.9502" lon="7.28303">
        <ele>221.9</ele>
        <time>2019-08-09T17:57:13Z</time>
      </trkpt>
      <trkpt lat="47.95017" lon="7.28298">
        <ele>221.8</ele>
        <time>2019-08-09T17:57:14Z</time>
      </trkpt>
      <trkpt lat="47.95013" lon="7.28295">
        <ele>221.6</ele>
        <time>2019-08-09T17:57:15Z</time>
      </trkpt>
      <trkpt lat="47.95008" lon="7.28291">
        <ele>221.5</ele>
        <time>2019-08-09T17:57:16Z</time>
      </trkpt>
      <trkpt lat="47.95004" lon="7.28287">
        <ele>221.3</ele>
        <time>2019-08-09T17:57:17Z</time>
      </trkpt>
      <trkpt lat="47.94999" lon="7.28282">
        <ele>221.1</ele>
        <time>2019-08-09T17:57:18Z</time>
      </trkpt>
      <trkpt lat="47.94994" lon="7.28278">
        <ele>220.9</ele>
        <time>2019-08-09T17:57:19Z</time>
      </trkpt>
      <trkpt lat="47.9499" lon="7.28274">
        <ele>220.7</ele>
        <time>2019-08-09T17:57:20Z</time>
      </trkpt>
      <trkpt lat="47.94986" lon="7.28269">
        <ele>220.5</ele>
        <time>2019-08-09T17:57:21Z</time>
      </trkpt>
      <trkpt lat="47.94981" lon="7.28265">
        <ele>220.2</ele>
        <time>2019-08-09T17:57:22Z</time>
      </trkpt>
      <trkpt lat="47.94976" lon="7.2826">
        <ele>220</ele>
        <time>2019-08-09T17:57:23Z</time>
      </trkpt>
      <trkpt lat="47.94972" lon="7.28255">
        <ele>219.8</ele>
        <time>2019-08-09T17:57:24Z</time>
      </trkpt>
      <trkpt lat="47.94967" lon="7.2825">
        <ele>219.6</ele>
        <time>2019-08-09T17:57:25Z</time>
      </trkpt>
      <trkpt lat="47.94961" lon="7.28245">
        <ele>219.4</ele>
        <time>2019-08-09T17:57:26Z</time>
      </trkpt>
      <trkpt lat="47.94956" lon="7.28241">
        <ele>219.2</ele>
        <time>2019-08-09T17:57:27Z</time>
      </trkpt>
      <trkpt lat="47.94951" lon="7.28237">
        <ele>219</ele>
        <time>2019-08-09T17:57:28Z</time>
      </trkpt>
      <trkpt lat="47.94946" lon="7.28232">
        <ele>218.8</ele>
        <time>2019-08-09T17:57:29Z</time>
      </trkpt>
      <trkpt lat="47.94941" lon="7.28226">
        <ele>218.5</ele>
        <time>2019-08-09T17:57:30Z</time>
      </trkpt>
      <trkpt lat="47.94935" lon="7.28221">
        <ele>218.3</ele>
        <time>2019-08-09T17:57:31Z</time>
      </trkpt>
      <trkpt lat="47.9493" lon="7.28215">
        <ele>218.1</ele>
        <time>2019-08-09T17:57:32Z</time>
      </trkpt>
      <trkpt lat="47.94925" lon="7.28208">
        <ele>217.8</ele>
        <time>2019-08-09T17:57:33Z</time>
      </trkpt>
      <trkpt lat="47.94919" lon="7.28202">
        <ele>217.6</ele>
        <time>2019-08-09T17:57:34Z</time>
      </trkpt>
      <trkpt lat="47.94913" lon="7.28195">
        <ele>217.3</ele>
        <time>2019-08-09T17:57:35Z</time>
      </trkpt>
      <trkpt lat="47.94908" lon="7.28189">
        <ele>217.1</ele>
        <time>2019-08-09T17:57:36Z</time>
      </trkpt>
      <trkpt lat="47.94903" lon="7.28183">
        <ele>216.9</ele>
        <time>2019-08-09T17:57:37Z</time>
      </trkpt>
      <trkpt lat="47.94897" lon="7.28177">
        <ele>216.7</ele>
        <time>2019-08-09T17:57:38Z</time>
      </trkpt>
      <trkpt lat="47.94892" lon="7.28172">
        <ele>216.5</ele>
        <time>2019-08-09T17:57:39Z</time>
      </trkpt>
      <trkpt lat="47.94886" lon="7.28166">
        <ele>216.2</ele>
        <time>2019-08-09T17:57:40Z</time>
      </trkpt>
      <trkpt lat="47.9488" lon="7.2816">
        <ele>216</ele>
        <time>2019-08-09T17:57:41Z</time>
      </trkpt>
      <trkpt lat="47.94875" lon="7.28154">
        <ele>215.7</ele>
        <time>2019-08-09T17:57:42Z</time>
      </trkpt>
      <trkpt lat="47.9487" lon="7.28147">
        <ele>215.4</ele>
        <time>2019-08-09T17:57:43Z</time>
      </trkpt>
      <trkpt lat="47.94865" lon="7.2814">
        <ele>215.2</ele>
        <time>2019-08-09T17:57:44Z</time>
      </trkpt>
      <trkpt lat="47.94859" lon="7.28133">
        <ele>215</ele>
        <time>2019-08-09T17:57:45Z</time>
      </trkpt>
      <trkpt lat="47.94855" lon="7.28126">
        <ele>214.9</ele>
        <time>2019-08-09T17:57:46Z</time>
      </trkpt>
      <trkpt lat="47.9485" lon="7.28119">
        <ele>214.8</ele>
        <time>2019-08-09T17:57:47Z</time>
      </trkpt>
      <trkpt lat="47.94846" lon="7.28111">
        <ele>214.7</ele>
        <time>2019-08-09T17:57:48Z</time>
      </trkpt>
      <trkpt lat="47.94842" lon="7.28105">
        <ele>214.6</ele>
        <time>2019-08-09T17:57:49Z</time>
      </trkpt>
      <trkpt lat="47.94839" lon="7.28098">
        <ele>214.6</ele>
        <time>2019-08-09T17:57:50Z</time>
      </trkpt>
      <trkpt lat="47.94836" lon="7.2809">
        <ele>214.5</ele>
        <time>2019-08-09T17:57:51Z</time>
      </trkpt>
      <trkpt lat="47.94833" lon="7.28082">
        <ele>214.5</ele>
        <time>2019-08-09T17:57:52Z</time>
      </trkpt>
      <trkpt lat="47.94831" lon="7.28075">
        <ele>214.4</ele>
        <time>2019-08-09T17:57:53Z</time>
      </trkpt>
      <trkpt lat="47.94828" lon="7.28067">
        <ele>214.4</ele>
        <time>2019-08-09T17:57:54Z</time>
      </trkpt>
      <trkpt lat="47.94827" lon="7.28058">
        <ele>214.3</ele>
        <time>2019-08-09T17:57:55Z</time>
      </trkpt>
      <trkpt lat="47.94826" lon="7.2805">
        <ele>214.2</ele>
        <time>2019-08-09T17:57:56Z</time>
      </trkpt>
      <trkpt lat="47.94825" lon="7.28041">
        <ele>214.2</ele>
        <time>2019-08-09T17:57:57Z</time>
      </trkpt>
      <trkpt lat="47.94824" lon="7.28033">
        <ele>214.2</ele>
        <time>2019-08-09T17:57:58Z</time>
      </trkpt>
      <trkpt lat="47.94822" lon="7.28026">
        <ele>214.2</ele>
        <time>2019-08-09T17:57:59Z</time>
      </trkpt>
      <trkpt lat="47.94821" lon="7.28019">
        <ele>214.2</ele>
        <time>2019-08-09T17:58:00Z</time>
      </trkpt>
      <trkpt lat="47.94821" lon="7.28012">
        <ele>214.3</ele>
        <time>2019-08-09T17:58:01Z</time>
      </trkpt>
      <trkpt lat="47.94821" lon="7.28005">
        <ele>214.3</ele>
        <time>2019-08-09T17:58:02Z</time>
      </trkpt>
      <trkpt lat="47.94821" lon="7.27998">
        <ele>214.4</ele>
        <time>2019-08-09T17:58:03Z</time>
      </trkpt>
      <trkpt lat="47.94822" lon="7.27992">
        <ele>214.4</ele>
        <time>2019-08-09T17:58:04Z</time>
      </trkpt>
      <trkpt lat="47.94823" lon="7.27987">
        <ele>214.5</ele>
        <time>2019-08-09T17:58:05Z</time>
      </trkpt>
      <trkpt lat="47.94824" lon="7.27981">
        <ele>214.6</ele>
        <time>2019-08-09T17:58:06Z</time>
      </trkpt>
      <trkpt lat="47.94826" lon="7.27975">
        <ele>214.7</ele>
        <time>2019-08-09T17:58:07Z</time>
      </trkpt>
      <trkpt lat="47.94826" lon="7.27969">
        <ele>214.8</ele>
        <time>2019-08-09T17:58:08Z</time>
      </trkpt>
      <trkpt lat="47.94827" lon="7.27963">
        <ele>214.9</ele>
        <time>2019-08-09T17:58:09Z</time>
      </trkpt>
      <trkpt lat="47.94828" lon="7.27957">
        <ele>215</ele>
        <time>2019-08-09T17:58:10Z</time>
      </trkpt>
      <trkpt lat="47.94828" lon="7.27951">
        <ele>215.1</ele>
        <time>2019-08-09T17:58:11Z</time>
      </trkpt>
      <trkpt lat="47.9483" lon="7.27945">
        <ele>215.2</ele>
        <time>2019-08-09T17:58:12Z</time>
      </trkpt>
      <trkpt lat="47.94831" lon="7.2794">
        <ele>215.3</ele>
        <time>2019-08-09T17:58:13Z</time>
      </trkpt>
      <trkpt lat="47.94833" lon="7.27935">
        <ele>215.4</ele>
        <time>2019-08-09T17:58:14Z</time>
      </trkpt>
      <trkpt lat="47.94834" lon="7.27929">
        <ele>215.5</ele>
        <time>2019-08-09T17:58:15Z</time>
      </trkpt>
      <trkpt lat="47.94835" lon="7.27924">
        <ele>215.6</ele>
        <time>2019-08-09T17:58:16Z</time>
      </trkpt>
      <trkpt lat="47.94836" lon="7.27919">
        <ele>215.9</ele>
        <time>2019-08-09T17:58:17Z</time>
      </trkpt>
      <trkpt lat="47.94836" lon="7.27913">
        <ele>216.2</ele>
        <time>2019-08-09T17:58:18Z</time>
      </trkpt>
      <trkpt lat="47.94837" lon="7.27908">
        <ele>216.5</ele>
        <time>2019-08-09T17:58:19Z</time>
      </trkpt>
      <trkpt lat="47.94837" lon="7.27903">
        <ele>216.7</ele>
        <time>2019-08-09T17:58:20Z</time>
      </trkpt>
      <trkpt lat="47.94837" lon="7.27897">
        <ele>217</ele>
        <time>2019-08-09T17:58:21Z</time>
      </trkpt>
      <trkpt lat="47.94838" lon="7.27892">
        <ele>217.3</ele>
        <time>2019-08-09T17:58:22Z</time>
      </trkpt>
      <trkpt lat="47.94838" lon="7.27886">
        <ele>217.6</ele>
        <time>2019-08-09T17:58:23Z</time>
      </trkpt>
      <trkpt lat="47.94839" lon="7.27881">
        <ele>217.8</ele>
        <time>2019-08-09T17:58:24Z</time>
      </trkpt>
      <trkpt lat="47.9484" lon="7.27876">
        <ele>218</ele>
        <time>2019-08-09T17:58:25Z</time>
      </trkpt>
      <trkpt lat="47.94842" lon="7.2787">
        <ele>218.3</ele>
        <time>2019-08-09T17:58:26Z</time>
      </trkpt>
      <trkpt lat="47.94843" lon="7.27864">
        <ele>218.5</ele>
        <time>2019-08-09T17:58:27Z</time>
      </trkpt>
      <trkpt lat="47.94843" lon="7.27858">
        <ele>218.8</ele>
        <time>2019-08-09T17:58:28Z</time>
      </trkpt>
      <trkpt lat="47.94844" lon="7.27852">
        <ele>219</ele>
        <time>2019-08-09T17:58:29Z</time>
      </trkpt>
      <trkpt lat="47.94845" lon="7.27846">
        <ele>219.2</ele>
        <time>2019-08-09T17:58:30Z</time>
      </trkpt>
      <trkpt lat="47.94847" lon="7.2784">
        <ele>219.4</ele>
        <time>2019-08-09T17:58:31Z</time>
      </trkpt>
      <trkpt lat="47.94848" lon="7.27834">
        <ele>219.6</ele>
        <time>2019-08-09T17:58:32Z</time>
      </trkpt>
      <trkpt lat="47.94849" lon="7.27829">
        <ele>219.7</ele>
        <time>2019-08-09T17:58:33Z</time>
      </trkpt>
      <trkpt lat="47.94851" lon="7.27824">
        <ele>219.9</ele>
        <time>2019-08-09T17:58:34Z</time>
      </trkpt>
      <trkpt lat="47.94852" lon="7.27818">
        <ele>220.1</ele>
        <time>2019-08-09T17:58:35Z</time>
      </trkpt>
      <trkpt lat="47.94854" lon="7.27812">
        <ele>220.3</ele>
        <time>2019-08-09T17:58:36Z</time>
      </trkpt>
      <trkpt lat="47.94855" lon="7.27807">
        <ele>220.4</ele>
        <time>2019-08-09T17:58:37Z</time>
      </trkpt>
      <trkpt lat="47.94857" lon="7.27801">
        <ele>220.6</ele>
        <time>2019-08-09T17:58:38Z</time>
      </trkpt>
      <trkpt lat="47.94858" lon="7.27795">
        <ele>220.8</ele>
        <time>2019-08-09T17:58:39Z</time>
      </trkpt>
      <trkpt lat="47.94859" lon="7.2779">
        <ele>221</ele>
        <time>2019-08-09T17:58:40Z</time>
      </trkpt>
      <trkpt lat="47.9486" lon="7.27785">
        <ele>221.2</ele>
        <time>2019-08-09T17:58:41Z</time>
      </trkpt>
      <trkpt lat="47.94862" lon="7.2778">
        <ele>221.4</ele>
        <time>2019-08-09T17:58:42Z</time>
      </trkpt>
      <trkpt lat="47.94863" lon="7.27774">
        <ele>221.6</ele>
        <time>2019-08-09T17:58:43Z</time>
      </trkpt>
      <trkpt lat="47.94864" lon="7.27769">
        <ele>221.9</ele>
        <time>2019-08-09T17:58:44Z</time>
      </trkpt>
      <trkpt lat="47.94865" lon="7.27763">
        <ele>222.1</ele>
        <time>2019-08-09T17:58:45Z</time>
      </trkpt>
      <trkpt lat="47.94867" lon="7.27758">
        <ele>222.3</ele>
        <time>2019-08-09T17:58:46Z</time>
      </trkpt>
      <trkpt lat="47.94869" lon="7.27753">
        <ele>222.5</ele>
        <time>2019-08-09T17:58:47Z</time>
      </trkpt>
      <trkpt lat="47.9487" lon="7.27747">
        <ele>222.7</ele>
        <time>2019-08-09T17:58:48Z</time>
      </trkpt>
      <trkpt lat="47.94871" lon="7.27741">
        <ele>222.9</ele>
        <time>2019-08-09T17:58:49Z</time>
      </trkpt>
      <trkpt lat="47.94873" lon="7.27735">
        <ele>223.1</ele>
        <time>2019-08-09T17:58:50Z</time>
      </trkpt>
      <trkpt lat="47.94874" lon="7.2773">
        <ele>223.2</ele>
        <time>2019-08-09T17:58:51Z</time>
      </trkpt>
      <trkpt lat="47.94876" lon="7.27724">
        <ele>223.4</ele>
        <time>2019-08-09T17:58:52Z</time>
      </trkpt>
      <trkpt lat="47.94878" lon="7.27719">
        <ele>223.6</ele>
        <time>2019-08-09T17:58:53Z</time>
      </trkpt>
      <trkpt lat="47.9488" lon="7.27713">
        <ele>223.7</ele>
        <time>2019-08-09T17:58:54Z</time>
      </trkpt>
      <trkpt lat="47.94882" lon="7.27708">
        <ele>223.8</ele>
        <time>2019-08-09T17:58:55Z</time>
      </trkpt>
      <trkpt lat="47.94884" lon="7.27702">
        <ele>224</ele>
        <time>2019-08-09T17:58:56Z</time>
      </trkpt>
      <trkpt lat="47.94885" lon="7.27697">
        <ele>224.1</ele>
        <time>2019-08-09T17:58:57Z</time>
      </trkpt>
      <trkpt lat="47.94887" lon="7.27691">
        <ele>224.3</ele>
        <time>2019-08-09T17:58:58Z</time>
      </trkpt>
      <trkpt lat="47.94889" lon="7.27686">
        <ele>224.3</ele>
        <time>2019-08-09T17:58:59Z</time>
      </trkpt>
      <trkpt lat="47.94892" lon="7.27682">
        <ele>224.3</ele>
        <time>2019-08-09T17:59:00Z</time>
      </trkpt>
      <trkpt lat="47.94894" lon="7.27676">
        <ele>224.4</ele>
        <time>2019-08-09T17:59:01Z</time>
      </trkpt>
      <trkpt lat="47.94896" lon="7.2767">
        <ele>224.4</ele>
        <time>2019-08-09T17:59:02Z</time>
      </trkpt>
      <trkpt lat="47.94899" lon="7.27665">
        <ele>224.4</ele>
        <time>2019-08-09T17:59:03Z</time>
      </trkpt>
      <trkpt lat="47.94901" lon="7.2766">
        <ele>224.4</ele>
        <time>2019-08-09T17:59:04Z</time>
      </trkpt>
      <trkpt lat="47.94902" lon="7.27654">
        <ele>224.4</ele>
        <time>2019-08-09T17:59:05Z</time>
      </trkpt>
      <trkpt lat="47.94904" lon="7.27649">
        <ele>224.4</ele>
        <time>2019-08-09T17:59:06Z</time>
      </trkpt>
      <trkpt lat="47.94906" lon="7.27644">
        <ele>224.4</ele>
        <time>2019-08-09T17:59:07Z</time>
      </trkpt>
      <trkpt lat="47.94907" lon="7.27638">
        <ele>224.5</ele>
        <time>2019-08-09T17:59:08Z</time>
      </trkpt>
      <trkpt lat="47.94909" lon="7.27634">
        <ele>224.5</ele>
        <time>2019-08-09T17:59:09Z</time>
      </trkpt>
      <trkpt lat="47.9491" lon="7.27628">
        <ele>224.5</ele>
        <time>2019-08-09T17:59:10Z</time>
      </trkpt>
      <trkpt lat="47.94911" lon="7.27623">
        <ele>224.5</ele>
        <time>2019-08-09T17:59:11Z</time>
      </trkpt>
      <trkpt lat="47.94912" lon="7.27618">
        <ele>224.5</ele>
        <time>2019-08-09T17:59:12Z</time>
      </trkpt>
      <trkpt lat="47.94913" lon="7.27612">
        <ele>224.5</ele>
        <time>2019-08-09T17:59:13Z</time>
      </trkpt>
      <trkpt lat="47.94914" lon="7.27607">
        <ele>224.5</ele>
        <time>2019-08-09T17:59:14Z</time>
      </trkpt>
      <trkpt lat="47.94915" lon="7.27601">
        <ele>224.6</ele>
        <time>2019-08-09T17:59:15Z</time>
      </trkpt>
      <trkpt lat="47.94917" lon="7.27596">
        <ele>224.6</ele>
        <time>2019-08-09T17:59:16Z</time>
      </trkpt>
      <trkpt lat="47.94918" lon="7.27591">
        <ele>224.6</ele>
        <time>2019-08-09T17:59:17Z</time>
      </trkpt>
      <trkpt lat="47.9492" lon="7.27585">
        <ele>224.6</ele>
        <time>2019-08-09T17:59:18Z</time>
      </trkpt>
      <trkpt lat="47.94922" lon="7.2758">
        <ele>224.6</ele>
        <time>2019-08-09T17:59:19Z</time>
      </trkpt>
      <trkpt lat="47.94923" lon="7.27574">
        <ele>224.7</ele>
        <time>2019-08-09T17:59:20Z</time>
      </trkpt>
      <trkpt lat="47.94925" lon="7.27568">
        <ele>224.7</ele>
        <time>2019-08-09T17:59:21Z</time>
      </trkpt>
      <trkpt lat="47.94926" lon="7.27562">
        <ele>224.8</ele>
        <time>2019-08-09T17:59:22Z</time>
      </trkpt>
      <trkpt lat="47.94928" lon="7.27557">
        <ele>224.8</ele>
        <time>2019-08-09T17:59:23Z</time>
      </trkpt>
      <trkpt lat="47.9493" lon="7.27552">
        <ele>224.9</ele>
        <time>2019-08-09T17:59:24Z</time>
      </trkpt>
      <trkpt lat="47.94931" lon="7.27547">
        <ele>224.9</ele>
        <time>2019-08-09T17:59:25Z</time>
      </trkpt>
      <trkpt lat="47.94932" lon="7.27541">
        <ele>225</ele>
        <time>2019-08-09T17:59:26Z</time>
      </trkpt>
      <trkpt lat="47.94934" lon="7.27536">
        <ele>225.1</ele>
        <time>2019-08-09T17:59:27Z</time>
      </trkpt>
      <trkpt lat="47.94935" lon="7.2753">
        <ele>225.1</ele>
        <time>2019-08-09T17:59:28Z</time>
      </trkpt>
      <trkpt lat="47.94937" lon="7.27525">
        <ele>225.2</ele>
        <time>2019-08-09T17:59:29Z</time>
      </trkpt>
      <trkpt lat="47.94938" lon="7.2752">
        <ele>225.2</ele>
        <time>2019-08-09T17:59:30Z</time>
      </trkpt>
      <trkpt lat="47.94939" lon="7.27514">
        <ele>225.3</ele>
        <time>2019-08-09T17:59:31Z</time>
      </trkpt>
      <trkpt lat="47.9494" lon="7.27508">
        <ele>225.3</ele>
        <time>2019-08-09T17:59:32Z</time>
      </trkpt>
      <trkpt lat="47.94941" lon="7.27502">
        <ele>225.4</ele>
        <time>2019-08-09T17:59:33Z</time>
      </trkpt>
      <trkpt lat="47.94941" lon="7.27496">
        <ele>225.4</ele>
        <time>2019-08-09T17:59:34Z</time>
      </trkpt>
      <trkpt lat="47.94942" lon="7.2749">
        <ele>225.5</ele>
        <time>2019-08-09T17:59:35Z</time>
      </trkpt>
      <trkpt lat="47.94944" lon="7.27485">
        <ele>225.5</ele>
        <time>2019-08-09T17:59:36Z</time>
      </trkpt>
      <trkpt lat="47.94946" lon="7.2748">
        <ele>225.5</ele>
        <time>2019-08-09T17:59:37Z</time>
      </trkpt>
      <trkpt lat="47.94948" lon="7.27474">
        <ele>225.6</ele>
        <time>2019-08-09T17:59:38Z</time>
      </trkpt>
      <trkpt lat="47.9495" lon="7.27469">
        <ele>225.6</ele>
        <time>2019-08-09T17:59:39Z</time>
      </trkpt>
      <trkpt lat="47.94951" lon="7.27463">
        <ele>225.6</ele>
        <time>2019-08-09T17:59:40Z</time>
      </trkpt>
      <trkpt lat="47.94953" lon="7.27458">
        <ele>225.6</ele>
        <time>2019-08-09T17:59:41Z</time>
      </trkpt>
      <trkpt lat="47.94955" lon="7.27453">
        <ele>225.7</ele>
        <time>2019-08-09T17:59:42Z</time>
      </trkpt>
      <trkpt lat="47.94958" lon="7.27449">
        <ele>225.7</ele>
        <time>2019-08-09T17:59:43Z</time>
      </trkpt>
      <trkpt lat="47.9496" lon="7.27444">
        <ele>225.7</ele>
        <time>2019-08-09T17:59:44Z</time>
      </trkpt>
      <trkpt lat="47.94962" lon="7.27439">
        <ele>225.7</ele>
        <time>2019-08-09T17:59:45Z</time>
      </trkpt>
      <trkpt lat="47.94964" lon="7.27434">
        <ele>225.7</ele>
        <time>2019-08-09T17:59:46Z</time>
      </trkpt>
      <trkpt lat="47.94967" lon="7.2743">
        <ele>225.7</ele>
        <time>2019-08-09T17:59:47Z</time>
      </trkpt>
      <trkpt lat="47.9497" lon="7.27425">
        <ele>225.8</ele>
        <time>2019-08-09T17:59:48Z</time>
      </trkpt>
      <trkpt lat="47.94972" lon="7.27421">
        <ele>225.8</ele>
        <time>2019-08-09T17:59:49Z</time>
      </trkpt>
      <trkpt lat="47.94975" lon="7.27417">
        <ele>225.8</ele>
        <time>2019-08-09T17:59:50Z</time>
      </trkpt>
      <trkpt lat="47.94978" lon="7.27414">
        <ele>225.8</ele>
        <time>2019-08-09T17:59:51Z</time>
      </trkpt>
      <trkpt lat="47.9498" lon="7.27409">
        <ele>225.8</ele>
        <time>2019-08-09T17:59:52Z</time>
      </trkpt>
      <trkpt lat="47.94982" lon="7.27404">
        <ele>225.9</ele>
        <time>2019-08-09T17:59:53Z</time>
      </trkpt>
      <trkpt lat="47.94983" lon="7.27399">
        <ele>225.9</ele>
        <time>2019-08-09T17:59:54Z</time>
      </trkpt>
      <trkpt lat="47.94986" lon="7.27396">
        <ele>225.9</ele>
        <time>2019-08-09T17:59:55Z</time>
      </trkpt>
      <trkpt lat="47.94988" lon="7.27392">
        <ele>225.9</ele>
        <time>2019-08-09T17:59:56Z</time>
      </trkpt>
      <trkpt lat="47.9499" lon="7.27389">
        <ele>226</ele>
        <time>2019-08-09T17:59:57Z</time>
      </trkpt>
      <trkpt lat="47.94992" lon="7.27387">
        <ele>226</ele>
        <time>2019-08-09T17:59:58Z</time>
      </trkpt>
      <trkpt lat="47.94995" lon="7.27384">
        <ele>226</ele>
        <time>2019-08-09T17:59:59Z</time>
      </trkpt>
      <trkpt lat="47.94997" lon="7.2738">
        <ele>226</ele>
        <time>2019-08-09T18:00:00Z</time>
      </trkpt>
      <trkpt lat="47.94999" lon="7.27377">
        <ele>226</ele>
        <time>2019-08-09T18:00:01Z</time>
      </trkpt>
      <trkpt lat="47.95002" lon="7.27375">
        <ele>226.1</ele>
        <time>2019-08-09T18:00:02Z</time>
      </trkpt>
      <trkpt lat="47.95004" lon="7.27372">
        <ele>226.1</ele>
        <time>2019-08-09T18:00:03Z</time>
      </trkpt>
      <trkpt lat="47.95006" lon="7.27368">
        <ele>226.1</ele>
        <time>2019-08-09T18:00:04Z</time>
      </trkpt>
      <trkpt lat="47.95008" lon="7.27365">
        <ele>226.2</ele>
        <time>2019-08-09T18:00:05Z</time>
      </trkpt>
      <trkpt lat="47.95013" lon="7.2736">
        <ele>226.3</ele>
        <time>2019-08-09T18:00:07Z</time>
      </trkpt>
      <trkpt lat="47.95016" lon="7.27357">
        <ele>226.4</ele>
        <time>2019-08-09T18:00:08Z</time>
      </trkpt>
      <trkpt lat="47.95018" lon="7.27355">
        <ele>226.4</ele>
        <time>2019-08-09T18:00:09Z</time>
      </trkpt>
      <trkpt lat="47.95021" lon="7.27352">
        <ele>226.5</ele>
        <time>2019-08-09T18:00:10Z</time>
      </trkpt>
      <trkpt lat="47.95024" lon="7.27349">
        <ele>226.6</ele>
        <time>2019-08-09T18:00:11Z</time>
      </trkpt>
      <trkpt lat="47.95026" lon="7.27346">
        <ele>226.7</ele>
        <time>2019-08-09T18:00:12Z</time>
      </trkpt>
      <trkpt lat="47.95027" lon="7.27343">
        <ele>226.8</ele>
        <time>2019-08-09T18:00:13Z</time>
      </trkpt>
      <trkpt lat="47.95032" lon="7.27337">
        <ele>227</ele>
        <time>2019-08-09T18:00:15Z</time>
      </trkpt>
      <trkpt lat="47.95035" lon="7.27335">
        <ele>227.2</ele>
        <time>2019-08-09T18:00:16Z</time>
      </trkpt>
      <trkpt lat="47.95038" lon="7.27333">
        <ele>227.3</ele>
        <time>2019-08-09T18:00:17Z</time>
      </trkpt>
      <trkpt lat="47.9504" lon="7.27331">
        <ele>227.4</ele>
        <time>2019-08-09T18:00:19Z</time>
      </trkpt>
      <trkpt lat="47.95043" lon="7.27325">
        <ele>227.6</ele>
        <time>2019-08-09T18:00:20Z</time>
      </trkpt>
      <trkpt lat="47.95046" lon="7.27323">
        <ele>227.8</ele>
        <time>2019-08-09T18:00:21Z</time>
      </trkpt>
      <trkpt lat="47.95049" lon="7.27319">
        <ele>228</ele>
        <time>2019-08-09T18:00:23Z</time>
      </trkpt>
      <trkpt lat="47.95052" lon="7.27315">
        <ele>228.1</ele>
        <time>2019-08-09T18:00:25Z</time>
      </trkpt>
      <trkpt lat="47.95056" lon="7.27311">
        <ele>228.3</ele>
        <time>2019-08-09T18:00:27Z</time>
      </trkpt>
      <trkpt lat="47.95058" lon="7.27307">
        <ele>228.4</ele>
        <time>2019-08-09T18:00:28Z</time>
      </trkpt>
      <trkpt lat="47.95061" lon="7.27302">
        <ele>228.8</ele>
        <time>2019-08-09T18:00:30Z</time>
      </trkpt>
      <trkpt lat="47.95064" lon="7.27295">
        <ele>228.9</ele>
        <time>2019-08-09T18:00:32Z</time>
      </trkpt>
      <trkpt lat="47.95067" lon="7.2729">
        <ele>229</ele>
        <time>2019-08-09T18:00:33Z</time>
      </trkpt>
      <trkpt lat="47.95069" lon="7.27287">
        <ele>229</ele>
        <time>2019-08-09T18:00:34Z</time>
      </trkpt>
      <trkpt lat="47.95072" lon="7.27281">
        <ele>229.2</ele>
        <time>2019-08-09T18:00:36Z</time>
      </trkpt>
      <trkpt lat="47.95075" lon="7.27276">
        <ele>229.3</ele>
        <time>2019-08-09T18:00:37Z</time>
      </trkpt>
      <trkpt lat="47.95077" lon="7.27272">
        <ele>229.3</ele>
        <time>2019-08-09T18:00:38Z</time>
      </trkpt>
      <trkpt lat="47.95078" lon="7.27267">
        <ele>229.4</ele>
        <time>2019-08-09T18:00:39Z</time>
      </trkpt>
      <trkpt lat="47.9508" lon="7.27263">
        <ele>229.5</ele>
        <time>2019-08-09T18:00:40Z</time>
      </trkpt>
      <trkpt lat="47.95081" lon="7.27259">
        <ele>229.5</ele>
        <time>2019-08-09T18:00:41Z</time>
      </trkpt>
      <trkpt lat="47.95083" lon="7.27254">
        <ele>229.6</ele>
        <time>2019-08-09T18:00:42Z</time>
      </trkpt>
      <trkpt lat="47.95084" lon="7.2725">
        <ele>229.7</ele>
        <time>2019-08-09T18:00:43Z</time>
      </trkpt>
      <trkpt lat="47.95085" lon="7.27246">
        <ele>229.7</ele>
        <time>2019-08-09T18:00:44Z</time>
      </trkpt>
      <trkpt lat="47.95086" lon="7.27242">
        <ele>229.6</ele>
        <time>2019-08-09T18:00:45Z</time>
      </trkpt>
      <trkpt lat="47.95088" lon="7.27238">
        <ele>229.6</ele>
        <time>2019-08-09T18:00:46Z</time>
      </trkpt>
      <trkpt lat="47.95089" lon="7.27234">
        <ele>229.6</ele>
        <time>2019-08-09T18:00:47Z</time>
      </trkpt>
      <trkpt lat="47.9509" lon="7.2723">
        <ele>229.5</ele>
        <time>2019-08-09T18:00:48Z</time>
      </trkpt>
      <trkpt lat="47.95091" lon="7.27225">
        <ele>229.5</ele>
        <time>2019-08-09T18:00:49Z</time>
      </trkpt>
      <trkpt lat="47.95092" lon="7.27217">
        <ele>229.4</ele>
        <time>2019-08-09T18:00:51Z</time>
      </trkpt>
      <trkpt lat="47.95093" lon="7.27212">
        <ele>229.4</ele>
        <time>2019-08-09T18:00:52Z</time>
      </trkpt>
      <trkpt lat="47.95094" lon="7.27207">
        <ele>229.3</ele>
        <time>2019-08-09T18:00:53Z</time>
      </trkpt>
      <trkpt lat="47.95096" lon="7.27201">
        <ele>229.3</ele>
        <time>2019-08-09T18:00:54Z</time>
      </trkpt>
      <trkpt lat="47.95097" lon="7.27195">
        <ele>229.3</ele>
        <time>2019-08-09T18:00:55Z</time>
      </trkpt>
      <trkpt lat="47.95098" lon="7.27187">
        <ele>229.3</ele>
        <time>2019-08-09T18:00:57Z</time>
      </trkpt>
      <trkpt lat="47.951" lon="7.27181">
        <ele>229.3</ele>
        <time>2019-08-09T18:00:58Z</time>
      </trkpt>
      <trkpt lat="47.95101" lon="7.27175">
        <ele>229.3</ele>
        <time>2019-08-09T18:00:59Z</time>
      </trkpt>
      <trkpt lat="47.95102" lon="7.27169">
        <ele>229.3</ele>
        <time>2019-08-09T18:01:00Z</time>
      </trkpt>
      <trkpt lat="47.95103" lon="7.27164">
        <ele>229.3</ele>
        <time>2019-08-09T18:01:01Z</time>
      </trkpt>
      <trkpt lat="47.95105" lon="7.27158">
        <ele>229.3</ele>
        <time>2019-08-09T18:01:02Z</time>
      </trkpt>
      <trkpt lat="47.95106" lon="7.27154">
        <ele>229.3</ele>
        <time>2019-08-09T18:01:03Z</time>
      </trkpt>
      <trkpt lat="47.95108" lon="7.27149">
        <ele>229.3</ele>
        <time>2019-08-09T18:01:04Z</time>
      </trkpt>
      <trkpt lat="47.95109" lon="7.27143">
        <ele>229.3</ele>
        <time>2019-08-09T18:01:06Z</time>
      </trkpt>
      <trkpt lat="47.9511" lon="7.27139">
        <ele>229.4</ele>
        <time>2019-08-09T18:01:08Z</time>
      </trkpt>
      <trkpt lat="47.95112" lon="7.27134">
        <ele>229.4</ele>
        <time>2019-08-09T18:01:09Z</time>
      </trkpt>
      <trkpt lat="47.95112" lon="7.27128">
        <ele>229.4</ele>
        <time>2019-08-09T18:01:11Z</time>
      </trkpt>
      <trkpt lat="47.95115" lon="7.27123">
        <ele>229.5</ele>
        <time>2019-08-09T18:01:13Z</time>
      </trkpt>
      <trkpt lat="47.95116" lon="7.27118">
        <ele>229.5</ele>
        <time>2019-08-09T18:01:15Z</time>
      </trkpt>
      <trkpt lat="47.95117" lon="7.27114">
        <ele>229.5</ele>
        <time>2019-08-09T18:01:16Z</time>
      </trkpt>
      <trkpt lat="47.95119" lon="7.27106">
        <ele>229.6</ele>
        <time>2019-08-09T18:01:18Z</time>
      </trkpt>
      <trkpt lat="47.95122" lon="7.27099">
        <ele>229.7</ele>
        <time>2019-08-09T18:01:20Z</time>
      </trkpt>
      <trkpt lat="47.95122" lon="7.27094">
        <ele>229.8</ele>
        <time>2019-08-09T18:01:21Z</time>
      </trkpt>
      <trkpt lat="47.95123" lon="7.2709">
        <ele>229.8</ele>
        <time>2019-08-09T18:01:22Z</time>
      </trkpt>
      <trkpt lat="47.95124" lon="7.27085">
        <ele>229.9</ele>
        <time>2019-08-09T18:01:23Z</time>
      </trkpt>
      <trkpt lat="47.95124" lon="7.2708">
        <ele>229.9</ele>
        <time>2019-08-09T18:01:24Z</time>
      </trkpt>
      <trkpt lat="47.95125" lon="7.27076">
        <ele>230</ele>
        <time>2019-08-09T18:01:25Z</time>
      </trkpt>
      <trkpt lat="47.95126" lon="7.27069">
        <ele>230.1</ele>
        <time>2019-08-09T18:01:26Z</time>
      </trkpt>
      <trkpt lat="47.95127" lon="7.27065">
        <ele>230.1</ele>
        <time>2019-08-09T18:01:27Z</time>
      </trkpt>
      <trkpt lat="47.95128" lon="7.2706">
        <ele>230.2</ele>
        <time>2019-08-09T18:01:28Z</time>
      </trkpt>
      <trkpt lat="47.9513" lon="7.27055">
        <ele>230.2</ele>
        <time>2019-08-09T18:01:29Z</time>
      </trkpt>
      <trkpt lat="47.95131" lon="7.27049">
        <ele>230.3</ele>
        <time>2019-08-09T18:01:30Z</time>
      </trkpt>
      <trkpt lat="47.95132" lon="7.27045">
        <ele>230.3</ele>
        <time>2019-08-09T18:01:31Z</time>
      </trkpt>
      <trkpt lat="47.95134" lon="7.2704">
        <ele>230.3</ele>
        <time>2019-08-09T18:01:32Z</time>
      </trkpt>
      <trkpt lat="47.95136" lon="7.27034">
        <ele>230.4</ele>
        <time>2019-08-09T18:01:33Z</time>
      </trkpt>
      <trkpt lat="47.95138" lon="7.27029">
        <ele>230.4</ele>
        <time>2019-08-09T18:01:34Z</time>
      </trkpt>
      <trkpt lat="47.95139" lon="7.27024">
        <ele>230.4</ele>
        <time>2019-08-09T18:01:35Z</time>
      </trkpt>
      <trkpt lat="47.95141" lon="7.27014">
        <ele>230.5</ele>
        <time>2019-08-09T18:01:37Z</time>
      </trkpt>
      <trkpt lat="47.95142" lon="7.27009">
        <ele>230.6</ele>
        <time>2019-08-09T18:01:38Z</time>
      </trkpt>
      <trkpt lat="47.95144" lon="7.27002">
        <ele>230.7</ele>
        <time>2019-08-09T18:01:39Z</time>
      </trkpt>
      <trkpt lat="47.95145" lon="7.26996">
        <ele>230.8</ele>
        <time>2019-08-09T18:01:40Z</time>
      </trkpt>
      <trkpt lat="47.95147" lon="7.2699">
        <ele>230.9</ele>
        <time>2019-08-09T18:01:41Z</time>
      </trkpt>
      <trkpt lat="47.95148" lon="7.26984">
        <ele>231</ele>
        <time>2019-08-09T18:01:42Z</time>
      </trkpt>
      <trkpt lat="47.95149" lon="7.26977">
        <ele>231</ele>
        <time>2019-08-09T18:01:43Z</time>
      </trkpt>
      <trkpt lat="47.9515" lon="7.26972">
        <ele>231.1</ele>
        <time>2019-08-09T18:01:44Z</time>
      </trkpt>
      <trkpt lat="47.9515" lon="7.26967">
        <ele>231.1</ele>
        <time>2019-08-09T18:01:45Z</time>
      </trkpt>
      <trkpt lat="47.95151" lon="7.26962">
        <ele>231.1</ele>
        <time>2019-08-09T18:01:46Z</time>
      </trkpt>
      <trkpt lat="47.95153" lon="7.26959">
        <ele>231.2</ele>
        <time>2019-08-09T18:01:47Z</time>
      </trkpt>
      <trkpt lat="47.95154" lon="7.26955">
        <ele>231.2</ele>
        <time>2019-08-09T18:01:48Z</time>
      </trkpt>
      <trkpt lat="47.95155" lon="7.2695">
        <ele>231.2</ele>
        <time>2019-08-09T18:01:49Z</time>
      </trkpt>
      <trkpt lat="47.95157" lon="7.26946">
        <ele>231.2</ele>
        <time>2019-08-09T18:01:50Z</time>
      </trkpt>
      <trkpt lat="47.95158" lon="7.26941">
        <ele>231.2</ele>
        <time>2019-08-09T18:01:51Z</time>
      </trkpt>
      <trkpt lat="47.95159" lon="7.26936">
        <ele>231.2</ele>
        <time>2019-08-09T18:01:52Z</time>
      </trkpt>
      <trkpt lat="47.95161" lon="7.2693">
        <ele>231.1</ele>
        <time>2019-08-09T18:01:53Z</time>
      </trkpt>
      <trkpt lat="47.95162" lon="7.26923">
        <ele>231.1</ele>
        <time>2019-08-09T18:01:54Z</time>
      </trkpt>
      <trkpt lat="47.95164" lon="7.26917">
        <ele>231</ele>
        <time>2019-08-09T18:01:55Z</time>
      </trkpt>
      <trkpt lat="47.95165" lon="7.26911">
        <ele>231</ele>
        <time>2019-08-09T18:01:56Z</time>
      </trkpt>
      <trkpt lat="47.95166" lon="7.26904">
        <ele>230.9</ele>
        <time>2019-08-09T18:01:57Z</time>
      </trkpt>
      <trkpt lat="47.95168" lon="7.26898">
        <ele>230.9</ele>
        <time>2019-08-09T18:01:58Z</time>
      </trkpt>
      <trkpt lat="47.95169" lon="7.26892">
        <ele>230.8</ele>
        <time>2019-08-09T18:01:59Z</time>
      </trkpt>
      <trkpt lat="47.9517" lon="7.26886">
        <ele>230.8</ele>
        <time>2019-08-09T18:02:00Z</time>
      </trkpt>
      <trkpt lat="47.9517" lon="7.2688">
        <ele>230.7</ele>
        <time>2019-08-09T18:02:01Z</time>
      </trkpt>
      <trkpt lat="47.95172" lon="7.26873">
        <ele>230.7</ele>
        <time>2019-08-09T18:02:02Z</time>
      </trkpt>
      <trkpt lat="47.95174" lon="7.26867">
        <ele>230.6</ele>
        <time>2019-08-09T18:02:03Z</time>
      </trkpt>
      <trkpt lat="47.95176" lon="7.26861">
        <ele>230.6</ele>
        <time>2019-08-09T18:02:04Z</time>
      </trkpt>
      <trkpt lat="47.95177" lon="7.26856">
        <ele>230.6</ele>
        <time>2019-08-09T18:02:05Z</time>
      </trkpt>
      <trkpt lat="47.95178" lon="7.26851">
        <ele>230.5</ele>
        <time>2019-08-09T18:02:06Z</time>
      </trkpt>
      <trkpt lat="47.95179" lon="7.26847">
        <ele>230.5</ele>
        <time>2019-08-09T18:02:07Z</time>
      </trkpt>
      <trkpt lat="47.9518" lon="7.26841">
        <ele>230.5</ele>
        <time>2019-08-09T18:02:08Z</time>
      </trkpt>
      <trkpt lat="47.95181" lon="7.26835">
        <ele>230.5</ele>
        <time>2019-08-09T18:02:09Z</time>
      </trkpt>
      <trkpt lat="47.95183" lon="7.2683">
        <ele>230.5</ele>
        <time>2019-08-09T18:02:10Z</time>
      </trkpt>
      <trkpt lat="47.95184" lon="7.26824">
        <ele>230.4</ele>
        <time>2019-08-09T18:02:11Z</time>
      </trkpt>
      <trkpt lat="47.95185" lon="7.26818">
        <ele>230.4</ele>
        <time>2019-08-09T18:02:12Z</time>
      </trkpt>
      <trkpt lat="47.95186" lon="7.26814">
        <ele>230.4</ele>
        <time>2019-08-09T18:02:13Z</time>
      </trkpt>
      <trkpt lat="47.95188" lon="7.26807">
        <ele>230.4</ele>
        <time>2019-08-09T18:02:14Z</time>
      </trkpt>
      <trkpt lat="47.95189" lon="7.26803">
        <ele>230.4</ele>
        <time>2019-08-09T18:02:15Z</time>
      </trkpt>
      <trkpt lat="47.9519" lon="7.26798">
        <ele>230.4</ele>
        <time>2019-08-09T18:02:16Z</time>
      </trkpt>
      <trkpt lat="47.9519" lon="7.26793">
        <ele>230.4</ele>
        <time>2019-08-09T18:02:17Z</time>
      </trkpt>
      <trkpt lat="47.95191" lon="7.26788">
        <ele>230.4</ele>
        <time>2019-08-09T18:02:18Z</time>
      </trkpt>
      <trkpt lat="47.95192" lon="7.26781">
        <ele>230.3</ele>
        <time>2019-08-09T18:02:19Z</time>
      </trkpt>
      <trkpt lat="47.95193" lon="7.26775">
        <ele>230.3</ele>
        <time>2019-08-09T18:02:20Z</time>
      </trkpt>
      <trkpt lat="47.95194" lon="7.2677">
        <ele>230.3</ele>
        <time>2019-08-09T18:02:21Z</time>
      </trkpt>
      <trkpt lat="47.95195" lon="7.26764">
        <ele>230.2</ele>
        <time>2019-08-09T18:02:22Z</time>
      </trkpt>
      <trkpt lat="47.95196" lon="7.26757">
        <ele>230.1</ele>
        <time>2019-08-09T18:02:23Z</time>
      </trkpt>
      <trkpt lat="47.95197" lon="7.2675">
        <ele>230</ele>
        <time>2019-08-09T18:02:24Z</time>
      </trkpt>
      <trkpt lat="47.95198" lon="7.26744">
        <ele>229.9</ele>
        <time>2019-08-09T18:02:25Z</time>
      </trkpt>
      <trkpt lat="47.95199" lon="7.26738">
        <ele>229.9</ele>
        <time>2019-08-09T18:02:26Z</time>
      </trkpt>
      <trkpt lat="47.952" lon="7.26731">
        <ele>229.8</ele>
        <time>2019-08-09T18:02:27Z</time>
      </trkpt>
      <trkpt lat="47.95201" lon="7.26726">
        <ele>229.7</ele>
        <time>2019-08-09T18:02:28Z</time>
      </trkpt>
      <trkpt lat="47.95202" lon="7.26721">
        <ele>229.7</ele>
        <time>2019-08-09T18:02:29Z</time>
      </trkpt>
      <trkpt lat="47.95203" lon="7.26715">
        <ele>229.6</ele>
        <time>2019-08-09T18:02:30Z</time>
      </trkpt>
      <trkpt lat="47.95204" lon="7.2671">
        <ele>229.6</ele>
        <time>2019-08-09T18:02:31Z</time>
      </trkpt>
      <trkpt lat="47.95205" lon="7.26706">
        <ele>229.5</ele>
        <time>2019-08-09T18:02:32Z</time>
      </trkpt>
      <trkpt lat="47.95205" lon="7.26699">
        <ele>229.5</ele>
        <time>2019-08-09T18:02:34Z</time>
      </trkpt>
      <trkpt lat="47.95205" lon="7.26695">
        <ele>229.3</ele>
        <time>2019-08-09T18:02:35Z</time>
      </trkpt>
      <trkpt lat="47.95202" lon="7.26686">
        <ele>229.3</ele>
        <time>2019-08-09T18:04:40Z</time>
      </trkpt>
      <trkpt lat="47.95204" lon="7.26682">
        <ele>229.3</ele>
        <time>2019-08-09T18:04:42Z</time>
      </trkpt>
      <trkpt lat="47.95207" lon="7.26677">
        <ele>229.4</ele>
        <time>2019-08-09T18:04:44Z</time>
      </trkpt>
      <trkpt lat="47.95211" lon="7.26671">
        <ele>229.4</ele>
        <time>2019-08-09T18:04:46Z</time>
      </trkpt>
      <trkpt lat="47.95213" lon="7.26668">
        <ele>229.4</ele>
        <time>2019-08-09T18:04:47Z</time>
      </trkpt>
      <trkpt lat="47.95216" lon="7.26663">
        <ele>229.4</ele>
        <time>2019-08-09T18:04:49Z</time>
      </trkpt>
      <trkpt lat="47.95219" lon="7.2666">
        <ele>229.4</ele>
        <time>2019-08-09T18:04:50Z</time>
      </trkpt>
      <trkpt lat="47.95221" lon="7.26658">
        <ele>229.4</ele>
        <time>2019-08-09T18:04:51Z</time>
      </trkpt>
      <trkpt lat="47.95223" lon="7.26656">
        <ele>229.4</ele>
        <time>2019-08-09T18:04:52Z</time>
      </trkpt>
      <trkpt lat="47.95226" lon="7.26654">
        <ele>229.5</ele>
        <time>2019-08-09T18:04:53Z</time>
      </trkpt>
      <trkpt lat="47.95229" lon="7.26651">
        <ele>229.5</ele>
        <time>2019-08-09T18:04:54Z</time>
      </trkpt>
      <trkpt lat="47.95231" lon="7.26647">
        <ele>229.5</ele>
        <time>2019-08-09T18:04:55Z</time>
      </trkpt>
      <trkpt lat="47.95233" lon="7.26644">
        <ele>229.6</ele>
        <time>2019-08-09T18:04:56Z</time>
      </trkpt>
      <trkpt lat="47.95235" lon="7.2664">
        <ele>229.6</ele>
        <time>2019-08-09T18:04:57Z</time>
      </trkpt>
      <trkpt lat="47.95237" lon="7.26637">
        <ele>229.7</ele>
        <time>2019-08-09T18:04:58Z</time>
      </trkpt>
      <trkpt lat="47.9524" lon="7.26634">
        <ele>229.7</ele>
        <time>2019-08-09T18:04:59Z</time>
      </trkpt>
      <trkpt lat="47.95242" lon="7.2663">
        <ele>229.8</ele>
        <time>2019-08-09T18:05:00Z</time>
      </trkpt>
      <trkpt lat="47.95246" lon="7.26625">
        <ele>229.9</ele>
        <time>2019-08-09T18:05:01Z</time>
      </trkpt>
      <trkpt lat="47.95249" lon="7.2662">
        <ele>230.1</ele>
        <time>2019-08-09T18:05:02Z</time>
      </trkpt>
      <trkpt lat="47.95252" lon="7.26616">
        <ele>230.2</ele>
        <time>2019-08-09T18:05:03Z</time>
      </trkpt>
      <trkpt lat="47.95258" lon="7.26611">
        <ele>230.5</ele>
        <time>2019-08-09T18:05:05Z</time>
      </trkpt>
      <trkpt lat="47.9526" lon="7.26607">
        <ele>230.7</ele>
        <time>2019-08-09T18:05:06Z</time>
      </trkpt>
      <trkpt lat="47.95264" lon="7.26603">
        <ele>230.9</ele>
        <time>2019-08-09T18:05:07Z</time>
      </trkpt>
      <trkpt lat="47.95266" lon="7.26599">
        <ele>231.1</ele>
        <time>2019-08-09T18:05:08Z</time>
      </trkpt>
      <trkpt lat="47.95269" lon="7.26596">
        <ele>231.2</ele>
        <time>2019-08-09T18:05:09Z</time>
      </trkpt>
      <trkpt lat="47.95271" lon="7.26594">
        <ele>231.3</ele>
        <time>2019-08-09T18:05:10Z</time>
      </trkpt>
      <trkpt lat="47.95275" lon="7.26588">
        <ele>231.6</ele>
        <time>2019-08-09T18:05:12Z</time>
      </trkpt>
      <trkpt lat="47.95278" lon="7.26582">
        <ele>231.7</ele>
        <time>2019-08-09T18:05:13Z</time>
      </trkpt>
      <trkpt lat="47.95281" lon="7.26578">
        <ele>231.9</ele>
        <time>2019-08-09T18:05:14Z</time>
      </trkpt>
      <trkpt lat="47.95284" lon="7.26574">
        <ele>232</ele>
        <time>2019-08-09T18:05:15Z</time>
      </trkpt>
      <trkpt lat="47.95286" lon="7.26571">
        <ele>232.1</ele>
        <time>2019-08-09T18:05:16Z</time>
      </trkpt>
      <trkpt lat="47.95289" lon="7.26567">
        <ele>232.3</ele>
        <time>2019-08-09T18:05:17Z</time>
      </trkpt>
      <trkpt lat="47.95292" lon="7.26563">
        <ele>232.4</ele>
        <time>2019-08-09T18:05:18Z</time>
      </trkpt>
      <trkpt lat="47.95296" lon="7.2656">
        <ele>232.6</ele>
        <time>2019-08-09T18:05:19Z</time>
      </trkpt>
      <trkpt lat="47.95298" lon="7.26554">
        <ele>232.7</ele>
        <time>2019-08-09T18:05:20Z</time>
      </trkpt>
      <trkpt lat="47.95301" lon="7.26549">
        <ele>232.9</ele>
        <time>2019-08-09T18:05:21Z</time>
      </trkpt>
      <trkpt lat="47.95304" lon="7.26544">
        <ele>233</ele>
        <time>2019-08-09T18:05:22Z</time>
      </trkpt>
      <trkpt lat="47.95306" lon="7.2654">
        <ele>233.2</ele>
        <time>2019-08-09T18:05:23Z</time>
      </trkpt>
      <trkpt lat="47.95309" lon="7.26534">
        <ele>233.3</ele>
        <time>2019-08-09T18:05:24Z</time>
      </trkpt>
      <trkpt lat="47.95312" lon="7.2653">
        <ele>233.4</ele>
        <time>2019-08-09T18:05:25Z</time>
      </trkpt>
      <trkpt lat="47.95314" lon="7.26525">
        <ele>233.5</ele>
        <time>2019-08-09T18:05:26Z</time>
      </trkpt>
      <trkpt lat="47.95316" lon="7.26522">
        <ele>233.5</ele>
        <time>2019-08-09T18:05:27Z</time>
      </trkpt>
      <trkpt lat="47.95318" lon="7.26518">
        <ele>233.6</ele>
        <time>2019-08-09T18:05:28Z</time>
      </trkpt>
      <trkpt lat="47.95321" lon="7.26515">
        <ele>233.7</ele>
        <time>2019-08-09T18:05:29Z</time>
      </trkpt>
      <trkpt lat="47.95323" lon="7.26512">
        <ele>233.7</ele>
        <time>2019-08-09T18:05:30Z</time>
      </trkpt>
      <trkpt lat="47.95325" lon="7.26507">
        <ele>233.8</ele>
        <time>2019-08-09T18:05:31Z</time>
      </trkpt>
      <trkpt lat="47.95326" lon="7.26504">
        <ele>233.8</ele>
        <time>2019-08-09T18:05:32Z</time>
      </trkpt>
      <trkpt lat="47.95329" lon="7.26499">
        <ele>233.9</ele>
        <time>2019-08-09T18:05:34Z</time>
      </trkpt>
      <trkpt lat="47.95331" lon="7.26496">
        <ele>233.9</ele>
        <time>2019-08-09T18:05:35Z</time>
      </trkpt>
      <trkpt lat="47.95333" lon="7.26493">
        <ele>234</ele>
        <time>2019-08-09T18:05:36Z</time>
      </trkpt>
      <trkpt lat="47.95335" lon="7.26488">
        <ele>234</ele>
        <time>2019-08-09T18:05:37Z</time>
      </trkpt>
      <trkpt lat="47.95337" lon="7.26484">
        <ele>234</ele>
        <time>2019-08-09T18:05:38Z</time>
      </trkpt>
      <trkpt lat="47.95339" lon="7.2648">
        <ele>234.1</ele>
        <time>2019-08-09T18:05:39Z</time>
      </trkpt>
      <trkpt lat="47.95342" lon="7.26476">
        <ele>234.1</ele>
        <time>2019-08-09T18:05:40Z</time>
      </trkpt>
      <trkpt lat="47.95343" lon="7.26472">
        <ele>234.1</ele>
        <time>2019-08-09T18:05:41Z</time>
      </trkpt>
      <trkpt lat="47.95345" lon="7.26468">
        <ele>234.2</ele>
        <time>2019-08-09T18:05:42Z</time>
      </trkpt>
      <trkpt lat="47.95348" lon="7.26466">
        <ele>234.2</ele>
        <time>2019-08-09T18:05:43Z</time>
      </trkpt>
      <trkpt lat="47.9535" lon="7.26463">
        <ele>234.2</ele>
        <time>2019-08-09T18:05:44Z</time>
      </trkpt>
      <trkpt lat="47.95352" lon="7.2646">
        <ele>234.2</ele>
        <time>2019-08-09T18:05:45Z</time>
      </trkpt>
      <trkpt lat="47.95355" lon="7.26457">
        <ele>234.2</ele>
        <time>2019-08-09T18:05:46Z</time>
      </trkpt>
      <trkpt lat="47.95357" lon="7.26452">
        <ele>234.3</ele>
        <time>2019-08-09T18:05:47Z</time>
      </trkpt>
      <trkpt lat="47.9536" lon="7.26449">
        <ele>234.3</ele>
        <time>2019-08-09T18:05:48Z</time>
      </trkpt>
      <trkpt lat="47.95363" lon="7.26446">
        <ele>234.3</ele>
        <time>2019-08-09T18:05:49Z</time>
      </trkpt>
      <trkpt lat="47.95365" lon="7.26442">
        <ele>234.3</ele>
        <time>2019-08-09T18:05:50Z</time>
      </trkpt>
      <trkpt lat="47.95368" lon="7.26439">
        <ele>234.4</ele>
        <time>2019-08-09T18:05:51Z</time>
      </trkpt>
      <trkpt lat="47.95371" lon="7.26435">
        <ele>234.4</ele>
        <time>2019-08-09T18:05:52Z</time>
      </trkpt>
      <trkpt lat="47.95374" lon="7.26432">
        <ele>234.4</ele>
        <time>2019-08-09T18:05:53Z</time>
      </trkpt>
      <trkpt lat="47.95379" lon="7.26427">
        <ele>234.4</ele>
        <time>2019-08-09T18:05:55Z</time>
      </trkpt>
      <trkpt lat="47.95385" lon="7.26421">
        <ele>234.5</ele>
        <time>2019-08-09T18:05:57Z</time>
      </trkpt>
      <trkpt lat="47.95387" lon="7.26419">
        <ele>234.5</ele>
        <time>2019-08-09T18:05:58Z</time>
      </trkpt>
      <trkpt lat="47.9539" lon="7.26415">
        <ele>234.5</ele>
        <time>2019-08-09T18:05:59Z</time>
      </trkpt>
      <trkpt lat="47.95393" lon="7.26412">
        <ele>234.5</ele>
        <time>2019-08-09T18:06:00Z</time>
      </trkpt>
      <trkpt lat="47.95396" lon="7.26408">
        <ele>234.6</ele>
        <time>2019-08-09T18:06:01Z</time>
      </trkpt>
      <trkpt lat="47.95399" lon="7.26405">
        <ele>234.6</ele>
        <time>2019-08-09T18:06:02Z</time>
      </trkpt>
      <trkpt lat="47.95402" lon="7.26403">
        <ele>234.6</ele>
        <time>2019-08-09T18:06:03Z</time>
      </trkpt>
      <trkpt lat="47.95406" lon="7.26397">
        <ele>234.6</ele>
        <time>2019-08-09T18:06:05Z</time>
      </trkpt>
      <trkpt lat="47.95409" lon="7.26392">
        <ele>234.7</ele>
        <time>2019-08-09T18:06:06Z</time>
      </trkpt>
      <trkpt lat="47.9541" lon="7.26388">
        <ele>234.7</ele>
        <time>2019-08-09T18:06:07Z</time>
      </trkpt>
      <trkpt lat="47.95412" lon="7.26386">
        <ele>234.7</ele>
        <time>2019-08-09T18:06:09Z</time>
      </trkpt>
      <trkpt lat="47.95416" lon="7.26387">
        <ele>234.7</ele>
        <time>2019-08-09T18:06:24Z</time>
      </trkpt>
      <trkpt lat="47.95418" lon="7.26382">
        <ele>234.8</ele>
        <time>2019-08-09T18:06:29Z</time>
      </trkpt>
      <trkpt lat="47.9542" lon="7.26385">
        <ele>234.8</ele>
        <time>2019-08-09T18:06:45Z</time>
      </trkpt>
      <trkpt lat="47.95419" lon="7.26392">
        <ele>234.8</ele>
        <time>2019-08-09T18:07:30Z</time>
      </trkpt>
      <trkpt lat="47.9542" lon="7.26396">
        <ele>234.8</ele>
        <time>2019-08-09T18:07:32Z</time>
      </trkpt>
      <trkpt lat="47.95421" lon="7.2639">
        <ele>234.9</ele>
        <time>2019-08-09T18:08:12Z</time>
      </trkpt>
      <trkpt lat="47.95418" lon="7.26387">
        <ele>234.9</ele>
        <time>2019-08-09T18:08:43Z</time>
      </trkpt>
      <trkpt lat="47.95416" lon="7.26382">
        <ele>234.9</ele>
        <time>2019-08-09T18:08:46Z</time>
      </trkpt>
      <trkpt lat="47.95412" lon="7.2638">
        <ele>234.9</ele>
        <time>2019-08-09T18:11:25Z</time>
      </trkpt>
      <trkpt lat="47.95415" lon="7.26377">
        <ele>235</ele>
        <time>2019-08-09T18:15:40Z</time>
      </trkpt>
      <trkpt lat="47.95418" lon="7.26371">
        <ele>235</ele>
        <time>2019-08-09T18:15:42Z</time>
      </trkpt>
      <trkpt lat="47.95422" lon="7.26364">
        <ele>235.1</ele>
        <time>2019-08-09T18:15:44Z</time>
      </trkpt>
      <trkpt lat="47.95423" lon="7.26361">
        <ele>235.1</ele>
        <time>2019-08-09T18:15:45Z</time>
      </trkpt>
      <trkpt lat="47.95426" lon="7.26357">
        <ele>235.1</ele>
        <time>2019-08-09T18:15:46Z</time>
      </trkpt>
      <trkpt lat="47.95428" lon="7.26354">
        <ele>235.1</ele>
        <time>2019-08-09T18:15:47Z</time>
      </trkpt>
      <trkpt lat="47.95431" lon="7.2635">
        <ele>235.2</ele>
        <time>2019-08-09T18:15:48Z</time>
      </trkpt>
      <trkpt lat="47.95433" lon="7.26346">
        <ele>235.2</ele>
        <time>2019-08-09T18:15:49Z</time>
      </trkpt>
      <trkpt lat="47.95435" lon="7.26342">
        <ele>235.2</ele>
        <time>2019-08-09T18:15:50Z</time>
      </trkpt>
      <trkpt lat="47.95437" lon="7.26338">
        <ele>235.2</ele>
        <time>2019-08-09T18:15:51Z</time>
      </trkpt>
      <trkpt lat="47.95439" lon="7.26334">
        <ele>235.3</ele>
        <time>2019-08-09T18:15:52Z</time>
      </trkpt>
      <trkpt lat="47.95442" lon="7.26328">
        <ele>235.3</ele>
        <time>2019-08-09T18:15:54Z</time>
      </trkpt>
      <trkpt lat="47.95444" lon="7.26325">
        <ele>235.3</ele>
        <time>2019-08-09T18:15:55Z</time>
      </trkpt>
      <trkpt lat="47.95446" lon="7.26322">
        <ele>235.4</ele>
        <time>2019-08-09T18:15:56Z</time>
      </trkpt>
      <trkpt lat="47.9545" lon="7.26317">
        <ele>235.4</ele>
        <time>2019-08-09T18:15:58Z</time>
      </trkpt>
      <trkpt lat="47.95452" lon="7.26313">
        <ele>235.4</ele>
        <time>2019-08-09T18:15:59Z</time>
      </trkpt>
      <trkpt lat="47.95454" lon="7.2631">
        <ele>235.5</ele>
        <time>2019-08-09T18:16:00Z</time>
      </trkpt>
      <trkpt lat="47.95456" lon="7.26307">
        <ele>235.5</ele>
        <time>2019-08-09T18:16:01Z</time>
      </trkpt>
      <trkpt lat="47.95458" lon="7.26303">
        <ele>235.5</ele>
        <time>2019-08-09T18:16:02Z</time>
      </trkpt>
      <trkpt lat="47.9546" lon="7.263">
        <ele>235.6</ele>
        <time>2019-08-09T18:16:03Z</time>
      </trkpt>
      <trkpt lat="47.95462" lon="7.26297">
        <ele>235.6</ele>
        <time>2019-08-09T18:16:04Z</time>
      </trkpt>
      <trkpt lat="47.95464" lon="7.26293">
        <ele>235.6</ele>
        <time>2019-08-09T18:16:05Z</time>
      </trkpt>
      <trkpt lat="47.95466" lon="7.2629">
        <ele>235.6</ele>
        <time>2019-08-09T18:16:06Z</time>
      </trkpt>
      <trkpt lat="47.95468" lon="7.26287">
        <ele>235.7</ele>
        <time>2019-08-09T18:16:07Z</time>
      </trkpt>
      <trkpt lat="47.9547" lon="7.26283">
        <ele>235.7</ele>
        <time>2019-08-09T18:16:08Z</time>
      </trkpt>
      <trkpt lat="47.95472" lon="7.26279">
        <ele>235.7</ele>
        <time>2019-08-09T18:16:09Z</time>
      </trkpt>
      <trkpt lat="47.95474" lon="7.26276">
        <ele>235.6</ele>
        <time>2019-08-09T18:16:10Z</time>
      </trkpt>
      <trkpt lat="47.95476" lon="7.26273">
        <ele>235.6</ele>
        <time>2019-08-09T18:16:11Z</time>
      </trkpt>
      <trkpt lat="47.95478" lon="7.2627">
        <ele>235.5</ele>
        <time>2019-08-09T18:16:12Z</time>
      </trkpt>
      <trkpt lat="47.9548" lon="7.26266">
        <ele>235.5</ele>
        <time>2019-08-09T18:16:13Z</time>
      </trkpt>
      <trkpt lat="47.95481" lon="7.26263">
        <ele>235.5</ele>
        <time>2019-08-09T18:16:14Z</time>
      </trkpt>
      <trkpt lat="47.95483" lon="7.26259">
        <ele>235.4</ele>
        <time>2019-08-09T18:16:15Z</time>
      </trkpt>
      <trkpt lat="47.95485" lon="7.26256">
        <ele>235.4</ele>
        <time>2019-08-09T18:16:16Z</time>
      </trkpt>
      <trkpt lat="47.95488" lon="7.26253">
        <ele>235.4</ele>
        <time>2019-08-09T18:16:17Z</time>
      </trkpt>
      <trkpt lat="47.9549" lon="7.2625">
        <ele>235.4</ele>
        <time>2019-08-09T18:16:18Z</time>
      </trkpt>
      <trkpt lat="47.95492" lon="7.26246">
        <ele>235.4</ele>
        <time>2019-08-09T18:16:19Z</time>
      </trkpt>
      <trkpt lat="47.95494" lon="7.26243">
        <ele>235.4</ele>
        <time>2019-08-09T18:16:20Z</time>
      </trkpt>
      <trkpt lat="47.95496" lon="7.2624">
        <ele>235.5</ele>
        <time>2019-08-09T18:16:21Z</time>
      </trkpt>
      <trkpt lat="47.955" lon="7.26234">
        <ele>235.5</ele>
        <time>2019-08-09T18:16:23Z</time>
      </trkpt>
      <trkpt lat="47.95502" lon="7.26231">
        <ele>235.5</ele>
        <time>2019-08-09T18:16:24Z</time>
      </trkpt>
      <trkpt lat="47.95504" lon="7.26228">
        <ele>235.6</ele>
        <time>2019-08-09T18:16:25Z</time>
      </trkpt>
      <trkpt lat="47.95506" lon="7.26225">
        <ele>235.6</ele>
        <time>2019-08-09T18:16:26Z</time>
      </trkpt>
      <trkpt lat="47.95508" lon="7.26222">
        <ele>235.6</ele>
        <time>2019-08-09T18:16:27Z</time>
      </trkpt>
      <trkpt lat="47.95511" lon="7.26219">
        <ele>235.7</ele>
        <time>2019-08-09T18:16:28Z</time>
      </trkpt>
      <trkpt lat="47.95513" lon="7.26216">
        <ele>235.7</ele>
        <time>2019-08-09T18:16:29Z</time>
      </trkpt>
      <trkpt lat="47.95516" lon="7.26213">
        <ele>235.7</ele>
        <time>2019-08-09T18:16:30Z</time>
      </trkpt>
      <trkpt lat="47.95518" lon="7.26211">
        <ele>235.8</ele>
        <time>2019-08-09T18:16:31Z</time>
      </trkpt>
      <trkpt lat="47.95521" lon="7.26208">
        <ele>235.8</ele>
        <time>2019-08-09T18:16:32Z</time>
      </trkpt>
      <trkpt lat="47.95523" lon="7.26205">
        <ele>235.8</ele>
        <time>2019-08-09T18:16:33Z</time>
      </trkpt>
      <trkpt lat="47.95526" lon="7.26202">
        <ele>235.9</ele>
        <time>2019-08-09T18:16:34Z</time>
      </trkpt>
      <trkpt lat="47.95528" lon="7.26199">
        <ele>235.9</ele>
        <time>2019-08-09T18:16:35Z</time>
      </trkpt>
      <trkpt lat="47.9553" lon="7.26196">
        <ele>235.9</ele>
        <time>2019-08-09T18:16:36Z</time>
      </trkpt>
      <trkpt lat="47.95533" lon="7.26194">
        <ele>235.9</ele>
        <time>2019-08-09T18:16:37Z</time>
      </trkpt>
      <trkpt lat="47.95535" lon="7.26191">
        <ele>235.9</ele>
        <time>2019-08-09T18:16:38Z</time>
      </trkpt>
      <trkpt lat="47.95538" lon="7.26188">
        <ele>236</ele>
        <time>2019-08-09T18:16:39Z</time>
      </trkpt>
      <trkpt lat="47.95541" lon="7.26185">
        <ele>236</ele>
        <time>2019-08-09T18:16:40Z</time>
      </trkpt>
      <trkpt lat="47.95543" lon="7.26182">
        <ele>236</ele>
        <time>2019-08-09T18:16:41Z</time>
      </trkpt>
      <trkpt lat="47.95546" lon="7.26179">
        <ele>236</ele>
        <time>2019-08-09T18:16:42Z</time>
      </trkpt>
      <trkpt lat="47.95549" lon="7.26176">
        <ele>236</ele>
        <time>2019-08-09T18:16:43Z</time>
      </trkpt>
      <trkpt lat="47.95552" lon="7.26173">
        <ele>236</ele>
        <time>2019-08-09T18:16:44Z</time>
      </trkpt>
      <trkpt lat="47.95555" lon="7.26171">
        <ele>236</ele>
        <time>2019-08-09T18:16:45Z</time>
      </trkpt>
      <trkpt lat="47.95559" lon="7.26169">
        <ele>236</ele>
        <time>2019-08-09T18:16:46Z</time>
      </trkpt>
      <trkpt lat="47.95562" lon="7.26166">
        <ele>236</ele>
        <time>2019-08-09T18:16:47Z</time>
      </trkpt>
      <trkpt lat="47.95565" lon="7.26164">
        <ele>236</ele>
        <time>2019-08-09T18:16:48Z</time>
      </trkpt>
      <trkpt lat="47.95569" lon="7.26162">
        <ele>236</ele>
        <time>2019-08-09T18:16:49Z</time>
      </trkpt>
      <trkpt lat="47.95572" lon="7.26159">
        <ele>236.1</ele>
        <time>2019-08-09T18:16:50Z</time>
      </trkpt>
      <trkpt lat="47.95575" lon="7.26157">
        <ele>236.1</ele>
        <time>2019-08-09T18:16:51Z</time>
      </trkpt>
      <trkpt lat="47.95578" lon="7.26155">
        <ele>236.2</ele>
        <time>2019-08-09T18:16:52Z</time>
      </trkpt>
      <trkpt lat="47.95581" lon="7.26153">
        <ele>236.3</ele>
        <time>2019-08-09T18:16:53Z</time>
      </trkpt>
      <trkpt lat="47.95584" lon="7.2615">
        <ele>236.3</ele>
        <time>2019-08-09T18:16:54Z</time>
      </trkpt>
      <trkpt lat="47.95587" lon="7.26148">
        <ele>236.4</ele>
        <time>2019-08-09T18:16:55Z</time>
      </trkpt>
      <trkpt lat="47.9559" lon="7.26145">
        <ele>236.5</ele>
        <time>2019-08-09T18:16:56Z</time>
      </trkpt>
      <trkpt lat="47.95593" lon="7.26142">
        <ele>236.6</ele>
        <time>2019-08-09T18:16:57Z</time>
      </trkpt>
      <trkpt lat="47.95595" lon="7.2614">
        <ele>236.7</ele>
        <time>2019-08-09T18:16:58Z</time>
      </trkpt>
      <trkpt lat="47.95598" lon="7.26138">
        <ele>236.7</ele>
        <time>2019-08-09T18:16:59Z</time>
      </trkpt>
      <trkpt lat="47.95601" lon="7.26136">
        <ele>236.8</ele>
        <time>2019-08-09T18:17:00Z</time>
      </trkpt>
      <trkpt lat="47.95604" lon="7.26134">
        <ele>236.8</ele>
        <time>2019-08-09T18:17:01Z</time>
      </trkpt>
      <trkpt lat="47.95607" lon="7.26132">
        <ele>236.9</ele>
        <time>2019-08-09T18:17:02Z</time>
      </trkpt>
      <trkpt lat="47.9561" lon="7.2613">
        <ele>236.9</ele>
        <time>2019-08-09T18:17:03Z</time>
      </trkpt>
      <trkpt lat="47.95613" lon="7.26128">
        <ele>236.9</ele>
        <time>2019-08-09T18:17:04Z</time>
      </trkpt>
      <trkpt lat="47.95615" lon="7.26125">
        <ele>236.9</ele>
        <time>2019-08-09T18:17:05Z</time>
      </trkpt>
      <trkpt lat="47.95618" lon="7.26122">
        <ele>236.9</ele>
        <time>2019-08-09T18:17:06Z</time>
      </trkpt>
      <trkpt lat="47.95621" lon="7.26118">
        <ele>236.9</ele>
        <time>2019-08-09T18:17:07Z</time>
      </trkpt>
      <trkpt lat="47.95624" lon="7.26115">
        <ele>236.9</ele>
        <time>2019-08-09T18:17:08Z</time>
      </trkpt>
      <trkpt lat="47.95627" lon="7.26111">
        <ele>236.9</ele>
        <time>2019-08-09T18:17:09Z</time>
      </trkpt>
      <trkpt lat="47.95629" lon="7.26107">
        <ele>236.9</ele>
        <time>2019-08-09T18:17:10Z</time>
      </trkpt>
      <trkpt lat="47.95632" lon="7.26103">
        <ele>236.9</ele>
        <time>2019-08-09T18:17:11Z</time>
      </trkpt>
      <trkpt lat="47.95635" lon="7.26098">
        <ele>236.9</ele>
        <time>2019-08-09T18:17:12Z</time>
      </trkpt>
      <trkpt lat="47.95637" lon="7.26094">
        <ele>236.9</ele>
        <time>2019-08-09T18:17:13Z</time>
      </trkpt>
      <trkpt lat="47.9564" lon="7.26089">
        <ele>236.9</ele>
        <time>2019-08-09T18:17:14Z</time>
      </trkpt>
      <trkpt lat="47.95642" lon="7.26086">
        <ele>236.9</ele>
        <time>2019-08-09T18:17:15Z</time>
      </trkpt>
      <trkpt lat="47.95644" lon="7.26081">
        <ele>236.9</ele>
        <time>2019-08-09T18:17:16Z</time>
      </trkpt>
      <trkpt lat="47.95647" lon="7.26077">
        <ele>236.9</ele>
        <time>2019-08-09T18:17:17Z</time>
      </trkpt>
      <trkpt lat="47.95649" lon="7.26073">
        <ele>236.8</ele>
        <time>2019-08-09T18:17:18Z</time>
      </trkpt>
      <trkpt lat="47.95652" lon="7.26069">
        <ele>236.8</ele>
        <time>2019-08-09T18:17:19Z</time>
      </trkpt>
      <trkpt lat="47.95654" lon="7.26065">
        <ele>236.8</ele>
        <time>2019-08-09T18:17:20Z</time>
      </trkpt>
      <trkpt lat="47.95656" lon="7.26062">
        <ele>236.8</ele>
        <time>2019-08-09T18:17:21Z</time>
      </trkpt>
      <trkpt lat="47.95658" lon="7.26059">
        <ele>236.8</ele>
        <time>2019-08-09T18:17:22Z</time>
      </trkpt>
      <trkpt lat="47.95661" lon="7.26056">
        <ele>236.8</ele>
        <time>2019-08-09T18:17:23Z</time>
      </trkpt>
      <trkpt lat="47.95663" lon="7.2605">
        <ele>236.8</ele>
        <time>2019-08-09T18:17:25Z</time>
      </trkpt>
      <trkpt lat="47.95665" lon="7.26046">
        <ele>236.8</ele>
        <time>2019-08-09T18:17:26Z</time>
      </trkpt>
      <trkpt lat="47.95667" lon="7.26043">
        <ele>236.9</ele>
        <time>2019-08-09T18:17:27Z</time>
      </trkpt>
      <trkpt lat="47.95669" lon="7.26039">
        <ele>236.9</ele>
        <time>2019-08-09T18:17:28Z</time>
      </trkpt>
      <trkpt lat="47.9567" lon="7.26035">
        <ele>236.9</ele>
        <time>2019-08-09T18:17:29Z</time>
      </trkpt>
      <trkpt lat="47.95673" lon="7.26031">
        <ele>236.9</ele>
        <time>2019-08-09T18:17:30Z</time>
      </trkpt>
      <trkpt lat="47.95674" lon="7.26027">
        <ele>236.9</ele>
        <time>2019-08-09T18:17:31Z</time>
      </trkpt>
      <trkpt lat="47.95677" lon="7.26023">
        <ele>237</ele>
        <time>2019-08-09T18:17:32Z</time>
      </trkpt>
      <trkpt lat="47.9568" lon="7.2602">
        <ele>237.1</ele>
        <time>2019-08-09T18:17:33Z</time>
      </trkpt>
      <trkpt lat="47.95683" lon="7.26016">
        <ele>237.2</ele>
        <time>2019-08-09T18:17:34Z</time>
      </trkpt>
      <trkpt lat="47.95685" lon="7.26013">
        <ele>237.3</ele>
        <time>2019-08-09T18:17:35Z</time>
      </trkpt>
      <trkpt lat="47.95688" lon="7.2601">
        <ele>237.4</ele>
        <time>2019-08-09T18:17:36Z</time>
      </trkpt>
      <trkpt lat="47.95691" lon="7.26008">
        <ele>237.5</ele>
        <time>2019-08-09T18:17:37Z</time>
      </trkpt>
      <trkpt lat="47.95694" lon="7.26005">
        <ele>237.7</ele>
        <time>2019-08-09T18:17:38Z</time>
      </trkpt>
      <trkpt lat="47.95697" lon="7.26002">
        <ele>237.8</ele>
        <time>2019-08-09T18:17:39Z</time>
      </trkpt>
      <trkpt lat="47.95701" lon="7.25997">
        <ele>238</ele>
        <time>2019-08-09T18:17:41Z</time>
      </trkpt>
      <trkpt lat="47.95704" lon="7.25994">
        <ele>238.2</ele>
        <time>2019-08-09T18:17:42Z</time>
      </trkpt>
      <trkpt lat="47.95706" lon="7.2599">
        <ele>238.3</ele>
        <time>2019-08-09T18:17:43Z</time>
      </trkpt>
      <trkpt lat="47.95708" lon="7.25986">
        <ele>238.4</ele>
        <time>2019-08-09T18:17:44Z</time>
      </trkpt>
      <trkpt lat="47.95711" lon="7.25982">
        <ele>238.5</ele>
        <time>2019-08-09T18:17:45Z</time>
      </trkpt>
      <trkpt lat="47.95713" lon="7.25979">
        <ele>238.6</ele>
        <time>2019-08-09T18:17:46Z</time>
      </trkpt>
      <trkpt lat="47.95716" lon="7.25976">
        <ele>238.6</ele>
        <time>2019-08-09T18:17:47Z</time>
      </trkpt>
      <trkpt lat="47.95718" lon="7.25973">
        <ele>238.7</ele>
        <time>2019-08-09T18:17:48Z</time>
      </trkpt>
      <trkpt lat="47.95721" lon="7.2597">
        <ele>238.7</ele>
        <time>2019-08-09T18:17:49Z</time>
      </trkpt>
      <trkpt lat="47.95723" lon="7.25967">
        <ele>238.8</ele>
        <time>2019-08-09T18:17:50Z</time>
      </trkpt>
      <trkpt lat="47.95725" lon="7.25965">
        <ele>238.8</ele>
        <time>2019-08-09T18:17:51Z</time>
      </trkpt>
      <trkpt lat="47.95727" lon="7.25961">
        <ele>238.8</ele>
        <time>2019-08-09T18:17:52Z</time>
      </trkpt>
      <trkpt lat="47.95729" lon="7.25958">
        <ele>238.9</ele>
        <time>2019-08-09T18:17:53Z</time>
      </trkpt>
      <trkpt lat="47.95731" lon="7.25954">
        <ele>238.9</ele>
        <time>2019-08-09T18:17:54Z</time>
      </trkpt>
      <trkpt lat="47.95734" lon="7.25951">
        <ele>239</ele>
        <time>2019-08-09T18:17:55Z</time>
      </trkpt>
      <trkpt lat="47.95736" lon="7.25949">
        <ele>239</ele>
        <time>2019-08-09T18:17:56Z</time>
      </trkpt>
      <trkpt lat="47.95738" lon="7.25946">
        <ele>239.1</ele>
        <time>2019-08-09T18:17:57Z</time>
      </trkpt>
      <trkpt lat="47.95741" lon="7.25943">
        <ele>239.2</ele>
        <time>2019-08-09T18:17:58Z</time>
      </trkpt>
      <trkpt lat="47.95744" lon="7.25939">
        <ele>239.3</ele>
        <time>2019-08-09T18:17:59Z</time>
      </trkpt>
      <trkpt lat="47.95747" lon="7.25937">
        <ele>239.4</ele>
        <time>2019-08-09T18:18:00Z</time>
      </trkpt>
      <trkpt lat="47.9575" lon="7.25934">
        <ele>239.5</ele>
        <time>2019-08-09T18:18:01Z</time>
      </trkpt>
      <trkpt lat="47.95753" lon="7.25931">
        <ele>239.6</ele>
        <time>2019-08-09T18:18:02Z</time>
      </trkpt>
      <trkpt lat="47.95755" lon="7.25929">
        <ele>239.8</ele>
        <time>2019-08-09T18:18:03Z</time>
      </trkpt>
      <trkpt lat="47.95758" lon="7.25926">
        <ele>240</ele>
        <time>2019-08-09T18:18:04Z</time>
      </trkpt>
      <trkpt lat="47.9576" lon="7.25923">
        <ele>240.1</ele>
        <time>2019-08-09T18:18:05Z</time>
      </trkpt>
      <trkpt lat="47.95763" lon="7.25921">
        <ele>240.2</ele>
        <time>2019-08-09T18:18:06Z</time>
      </trkpt>
      <trkpt lat="47.95767" lon="7.25917">
        <ele>240.4</ele>
        <time>2019-08-09T18:18:08Z</time>
      </trkpt>
      <trkpt lat="47.9577" lon="7.25913">
        <ele>240.5</ele>
        <time>2019-08-09T18:18:10Z</time>
      </trkpt>
      <trkpt lat="47.95771" lon="7.25909">
        <ele>240.6</ele>
        <time>2019-08-09T18:18:12Z</time>
      </trkpt>
      <trkpt lat="47.95775" lon="7.25902">
        <ele>240.8</ele>
        <time>2019-08-09T18:18:14Z</time>
      </trkpt>
      <trkpt lat="47.95777" lon="7.25896">
        <ele>241</ele>
        <time>2019-08-09T18:18:16Z</time>
      </trkpt>
      <trkpt lat="47.95779" lon="7.25892">
        <ele>241.2</ele>
        <time>2019-08-09T18:18:17Z</time>
      </trkpt>
      <trkpt lat="47.95781" lon="7.25888">
        <ele>241.4</ele>
        <time>2019-08-09T18:18:18Z</time>
      </trkpt>
      <trkpt lat="47.95783" lon="7.25884">
        <ele>241.5</ele>
        <time>2019-08-09T18:18:19Z</time>
      </trkpt>
      <trkpt lat="47.95785" lon="7.25879">
        <ele>241.6</ele>
        <time>2019-08-09T18:18:20Z</time>
      </trkpt>
      <trkpt lat="47.95786" lon="7.25875">
        <ele>241.8</ele>
        <time>2019-08-09T18:18:21Z</time>
      </trkpt>
      <trkpt lat="47.95786" lon="7.2587">
        <ele>241.9</ele>
        <time>2019-08-09T18:18:22Z</time>
      </trkpt>
      <trkpt lat="47.95786" lon="7.25866">
        <ele>242.1</ele>
        <time>2019-08-09T18:18:23Z</time>
      </trkpt>
      <trkpt lat="47.95786" lon="7.25861">
        <ele>242.2</ele>
        <time>2019-08-09T18:18:24Z</time>
      </trkpt>
      <trkpt lat="47.95785" lon="7.25857">
        <ele>242.3</ele>
        <time>2019-08-09T18:18:25Z</time>
      </trkpt>
      <trkpt lat="47.95784" lon="7.25853">
        <ele>242.5</ele>
        <time>2019-08-09T18:18:26Z</time>
      </trkpt>
      <trkpt lat="47.95783" lon="7.25848">
        <ele>242.6</ele>
        <time>2019-08-09T18:18:27Z</time>
      </trkpt>
      <trkpt lat="47.95782" lon="7.25844">
        <ele>242.7</ele>
        <time>2019-08-09T18:18:28Z</time>
      </trkpt>
      <trkpt lat="47.95782" lon="7.25839">
        <ele>242.9</ele>
        <time>2019-08-09T18:18:29Z</time>
      </trkpt>
      <trkpt lat="47.9578" lon="7.25834">
        <ele>243</ele>
        <time>2019-08-09T18:18:30Z</time>
      </trkpt>
      <trkpt lat="47.95779" lon="7.2583">
        <ele>243.1</ele>
        <time>2019-08-09T18:18:31Z</time>
      </trkpt>
      <trkpt lat="47.95778" lon="7.25825">
        <ele>243.3</ele>
        <time>2019-08-09T18:18:32Z</time>
      </trkpt>
      <trkpt lat="47.95776" lon="7.25821">
        <ele>243.4</ele>
        <time>2019-08-09T18:18:33Z</time>
      </trkpt>
      <trkpt lat="47.95775" lon="7.25817">
        <ele>243.6</ele>
        <time>2019-08-09T18:18:34Z</time>
      </trkpt>
      <trkpt lat="47.95773" lon="7.25813">
        <ele>243.5</ele>
        <time>2019-08-09T18:18:35Z</time>
      </trkpt>
      <trkpt lat="47.95773" lon="7.25808">
        <ele>243.3</ele>
        <time>2019-08-09T18:18:36Z</time>
      </trkpt>
      <trkpt lat="47.95772" lon="7.25804">
        <ele>243.2</ele>
        <time>2019-08-09T18:18:37Z</time>
      </trkpt>
      <trkpt lat="47.95769" lon="7.25798">
        <ele>243</ele>
        <time>2019-08-09T18:18:39Z</time>
      </trkpt>
      <trkpt lat="47.95766" lon="7.25792">
        <ele>242.7</ele>
        <time>2019-08-09T18:18:41Z</time>
      </trkpt>
      <trkpt lat="47.95764" lon="7.25789">
        <ele>242.6</ele>
        <time>2019-08-09T18:18:42Z</time>
      </trkpt>
      <trkpt lat="47.95762" lon="7.25785">
        <ele>242.4</ele>
        <time>2019-08-09T18:18:43Z</time>
      </trkpt>
      <trkpt lat="47.9576" lon="7.2578">
        <ele>242.2</ele>
        <time>2019-08-09T18:18:44Z</time>
      </trkpt>
      <trkpt lat="47.95757" lon="7.25776">
        <ele>242</ele>
        <time>2019-08-09T18:18:45Z</time>
      </trkpt>
      <trkpt lat="47.95754" lon="7.25772">
        <ele>241.8</ele>
        <time>2019-08-09T18:18:46Z</time>
      </trkpt>
      <trkpt lat="47.9575" lon="7.25768">
        <ele>241.6</ele>
        <time>2019-08-09T18:18:47Z</time>
      </trkpt>
      <trkpt lat="47.95747" lon="7.25763">
        <ele>241.4</ele>
        <time>2019-08-09T18:18:48Z</time>
      </trkpt>
      <trkpt lat="47.95743" lon="7.25758">
        <ele>241.2</ele>
        <time>2019-08-09T18:18:49Z</time>
      </trkpt>
      <trkpt lat="47.9574" lon="7.25753">
        <ele>241</ele>
        <time>2019-08-09T18:18:50Z</time>
      </trkpt>
      <trkpt lat="47.95737" lon="7.25748">
        <ele>240.8</ele>
        <time>2019-08-09T18:18:51Z</time>
      </trkpt>
      <trkpt lat="47.95734" lon="7.25742">
        <ele>240.5</ele>
        <time>2019-08-09T18:18:52Z</time>
      </trkpt>
      <trkpt lat="47.95731" lon="7.25737">
        <ele>240.3</ele>
        <time>2019-08-09T18:18:53Z</time>
      </trkpt>
      <trkpt lat="47.95728" lon="7.2573">
        <ele>240</ele>
        <time>2019-08-09T18:18:54Z</time>
      </trkpt>
      <trkpt lat="47.95725" lon="7.25723">
        <ele>239.8</ele>
        <time>2019-08-09T18:18:55Z</time>
      </trkpt>
      <trkpt lat="47.95722" lon="7.25717">
        <ele>239.7</ele>
        <time>2019-08-09T18:18:56Z</time>
      </trkpt>
      <trkpt lat="47.95719" lon="7.25709">
        <ele>239.5</ele>
        <time>2019-08-09T18:18:57Z</time>
      </trkpt>
      <trkpt lat="47.95717" lon="7.25702">
        <ele>239.4</ele>
        <time>2019-08-09T18:18:58Z</time>
      </trkpt>
      <trkpt lat="47.95714" lon="7.25695">
        <ele>239.4</ele>
        <time>2019-08-09T18:18:59Z</time>
      </trkpt>
      <trkpt lat="47.95713" lon="7.25687">
        <ele>239.3</ele>
        <time>2019-08-09T18:19:00Z</time>
      </trkpt>
      <trkpt lat="47.95711" lon="7.25679">
        <ele>239.4</ele>
        <time>2019-08-09T18:19:01Z</time>
      </trkpt>
      <trkpt lat="47.9571" lon="7.25671">
        <ele>239.4</ele>
        <time>2019-08-09T18:19:02Z</time>
      </trkpt>
      <trkpt lat="47.9571" lon="7.25664">
        <ele>239.4</ele>
        <time>2019-08-09T18:19:03Z</time>
      </trkpt>
      <trkpt lat="47.9571" lon="7.25657">
        <ele>239.5</ele>
        <time>2019-08-09T18:19:04Z</time>
      </trkpt>
      <trkpt lat="47.9571" lon="7.25651">
        <ele>239.6</ele>
        <time>2019-08-09T18:19:05Z</time>
      </trkpt>
      <trkpt lat="47.95709" lon="7.25644">
        <ele>239.6</ele>
        <time>2019-08-09T18:19:06Z</time>
      </trkpt>
      <trkpt lat="47.95709" lon="7.25638">
        <ele>239.7</ele>
        <time>2019-08-09T18:19:07Z</time>
      </trkpt>
      <trkpt lat="47.95708" lon="7.25631">
        <ele>239.8</ele>
        <time>2019-08-09T18:19:08Z</time>
      </trkpt>
      <trkpt lat="47.95708" lon="7.25625">
        <ele>240</ele>
        <time>2019-08-09T18:19:09Z</time>
      </trkpt>
      <trkpt lat="47.95707" lon="7.25619">
        <ele>240.1</ele>
        <time>2019-08-09T18:19:10Z</time>
      </trkpt>
      <trkpt lat="47.95707" lon="7.25613">
        <ele>240.3</ele>
        <time>2019-08-09T18:19:11Z</time>
      </trkpt>
      <trkpt lat="47.95707" lon="7.25607">
        <ele>240.5</ele>
        <time>2019-08-09T18:19:12Z</time>
      </trkpt>
      <trkpt lat="47.95706" lon="7.25601">
        <ele>240.8</ele>
        <time>2019-08-09T18:19:13Z</time>
      </trkpt>
      <trkpt lat="47.95706" lon="7.25596">
        <ele>241</ele>
        <time>2019-08-09T18:19:14Z</time>
      </trkpt>
      <trkpt lat="47.95705" lon="7.25591">
        <ele>241.4</ele>
        <time>2019-08-09T18:19:15Z</time>
      </trkpt>
      <trkpt lat="47.95703" lon="7.25586">
        <ele>241.7</ele>
        <time>2019-08-09T18:19:16Z</time>
      </trkpt>
      <trkpt lat="47.95702" lon="7.25581">
        <ele>242.1</ele>
        <time>2019-08-09T18:19:17Z</time>
      </trkpt>
      <trkpt lat="47.95702" lon="7.25576">
        <ele>242.6</ele>
        <time>2019-08-09T18:19:18Z</time>
      </trkpt>
      <trkpt lat="47.95701" lon="7.2557">
        <ele>243</ele>
        <time>2019-08-09T18:19:19Z</time>
      </trkpt>
      <trkpt lat="47.95699" lon="7.25565">
        <ele>243.5</ele>
        <time>2019-08-09T18:19:20Z</time>
      </trkpt>
      <trkpt lat="47.95698" lon="7.2556">
        <ele>243.9</ele>
        <time>2019-08-09T18:19:21Z</time>
      </trkpt>
      <trkpt lat="47.95697" lon="7.25554">
        <ele>244.3</ele>
        <time>2019-08-09T18:19:22Z</time>
      </trkpt>
      <trkpt lat="47.95696" lon="7.25548">
        <ele>244.6</ele>
        <time>2019-08-09T18:19:23Z</time>
      </trkpt>
      <trkpt lat="47.95695" lon="7.25542">
        <ele>244.9</ele>
        <time>2019-08-09T18:19:24Z</time>
      </trkpt>
      <trkpt lat="47.95695" lon="7.25537">
        <ele>245.1</ele>
        <time>2019-08-09T18:19:25Z</time>
      </trkpt>
      <trkpt lat="47.95694" lon="7.25531">
        <ele>245.3</ele>
        <time>2019-08-09T18:19:26Z</time>
      </trkpt>
      <trkpt lat="47.95693" lon="7.25525">
        <ele>245.4</ele>
        <time>2019-08-09T18:19:27Z</time>
      </trkpt>
      <trkpt lat="47.95693" lon="7.2552">
        <ele>245.5</ele>
        <time>2019-08-09T18:19:28Z</time>
      </trkpt>
      <trkpt lat="47.95692" lon="7.25514">
        <ele>245.6</ele>
        <time>2019-08-09T18:19:29Z</time>
      </trkpt>
      <trkpt lat="47.95692" lon="7.25509">
        <ele>245.6</ele>
        <time>2019-08-09T18:19:30Z</time>
      </trkpt>
      <trkpt lat="47.95691" lon="7.25503">
        <ele>245.7</ele>
        <time>2019-08-09T18:19:31Z</time>
      </trkpt>
      <trkpt lat="47.95691" lon="7.25498">
        <ele>245.7</ele>
        <time>2019-08-09T18:19:32Z</time>
      </trkpt>
      <trkpt lat="47.95691" lon="7.25492">
        <ele>245.8</ele>
        <time>2019-08-09T18:19:33Z</time>
      </trkpt>
      <trkpt lat="47.95691" lon="7.25487">
        <ele>245.8</ele>
        <time>2019-08-09T18:19:34Z</time>
      </trkpt>
      <trkpt lat="47.95691" lon="7.25482">
        <ele>245.8</ele>
        <time>2019-08-09T18:19:35Z</time>
      </trkpt>
      <trkpt lat="47.95692" lon="7.25477">
        <ele>245.9</ele>
        <time>2019-08-09T18:19:36Z</time>
      </trkpt>
      <trkpt lat="47.95692" lon="7.25472">
        <ele>245.9</ele>
        <time>2019-08-09T18:19:37Z</time>
      </trkpt>
      <trkpt lat="47.95693" lon="7.25467">
        <ele>246</ele>
        <time>2019-08-09T18:19:38Z</time>
      </trkpt>
      <trkpt lat="47.95693" lon="7.25461">
        <ele>246</ele>
        <time>2019-08-09T18:19:39Z</time>
      </trkpt>
      <trkpt lat="47.95694" lon="7.25456">
        <ele>246.1</ele>
        <time>2019-08-09T18:19:40Z</time>
      </trkpt>
      <trkpt lat="47.95695" lon="7.2545">
        <ele>246.1</ele>
        <time>2019-08-09T18:19:41Z</time>
      </trkpt>
      <trkpt lat="47.95696" lon="7.25445">
        <ele>246.2</ele>
        <time>2019-08-09T18:19:42Z</time>
      </trkpt>
      <trkpt lat="47.95697" lon="7.2544">
        <ele>246.3</ele>
        <time>2019-08-09T18:19:43Z</time>
      </trkpt>
      <trkpt lat="47.95697" lon="7.25434">
        <ele>246.3</ele>
        <time>2019-08-09T18:19:44Z</time>
      </trkpt>
      <trkpt lat="47.95698" lon="7.25429">
        <ele>246.4</ele>
        <time>2019-08-09T18:19:45Z</time>
      </trkpt>
      <trkpt lat="47.95699" lon="7.25424">
        <ele>246.5</ele>
        <time>2019-08-09T18:19:46Z</time>
      </trkpt>
      <trkpt lat="47.957" lon="7.25419">
        <ele>246.6</ele>
        <time>2019-08-09T18:19:47Z</time>
      </trkpt>
      <trkpt lat="47.95702" lon="7.25414">
        <ele>246.7</ele>
        <time>2019-08-09T18:19:48Z</time>
      </trkpt>
      <trkpt lat="47.95704" lon="7.25409">
        <ele>246.7</ele>
        <time>2019-08-09T18:19:49Z</time>
      </trkpt>
      <trkpt lat="47.95705" lon="7.25404">
        <ele>246.8</ele>
        <time>2019-08-09T18:19:50Z</time>
      </trkpt>
      <trkpt lat="47.95707" lon="7.25399">
        <ele>246.9</ele>
        <time>2019-08-09T18:19:51Z</time>
      </trkpt>
      <trkpt lat="47.95708" lon="7.25394">
        <ele>247</ele>
        <time>2019-08-09T18:19:52Z</time>
      </trkpt>
      <trkpt lat="47.95708" lon="7.25389">
        <ele>247</ele>
        <time>2019-08-09T18:19:53Z</time>
      </trkpt>
      <trkpt lat="47.95709" lon="7.25383">
        <ele>247.1</ele>
        <time>2019-08-09T18:19:54Z</time>
      </trkpt>
      <trkpt lat="47.9571" lon="7.25377">
        <ele>247.2</ele>
        <time>2019-08-09T18:19:55Z</time>
      </trkpt>
      <trkpt lat="47.95711" lon="7.25372">
        <ele>247.3</ele>
        <time>2019-08-09T18:19:56Z</time>
      </trkpt>
      <trkpt lat="47.95712" lon="7.25367">
        <ele>247.4</ele>
        <time>2019-08-09T18:19:57Z</time>
      </trkpt>
      <trkpt lat="47.95712" lon="7.25361">
        <ele>247.4</ele>
        <time>2019-08-09T18:19:58Z</time>
      </trkpt>
      <trkpt lat="47.95713" lon="7.25355">
        <ele>247.5</ele>
        <time>2019-08-09T18:19:59Z</time>
      </trkpt>
      <trkpt lat="47.95714" lon="7.2535">
        <ele>247.6</ele>
        <time>2019-08-09T18:20:00Z</time>
      </trkpt>
      <trkpt lat="47.95715" lon="7.25344">
        <ele>247.7</ele>
        <time>2019-08-09T18:20:01Z</time>
      </trkpt>
      <trkpt lat="47.95716" lon="7.25339">
        <ele>247.7</ele>
        <time>2019-08-09T18:20:02Z</time>
      </trkpt>
      <trkpt lat="47.95717" lon="7.25334">
        <ele>247.8</ele>
        <time>2019-08-09T18:20:03Z</time>
      </trkpt>
      <trkpt lat="47.95717" lon="7.25328">
        <ele>247.9</ele>
        <time>2019-08-09T18:20:04Z</time>
      </trkpt>
      <trkpt lat="47.95717" lon="7.25322">
        <ele>248</ele>
        <time>2019-08-09T18:20:05Z</time>
      </trkpt>
      <trkpt lat="47.95716" lon="7.25317">
        <ele>248.1</ele>
        <time>2019-08-09T18:20:06Z</time>
      </trkpt>
      <trkpt lat="47.95715" lon="7.25311">
        <ele>248.2</ele>
        <time>2019-08-09T18:20:07Z</time>
      </trkpt>
      <trkpt lat="47.95714" lon="7.25305">
        <ele>247.8</ele>
        <time>2019-08-09T18:20:08Z</time>
      </trkpt>
      <trkpt lat="47.95714" lon="7.253">
        <ele>247.4</ele>
        <time>2019-08-09T18:20:09Z</time>
      </trkpt>
      <trkpt lat="47.95714" lon="7.25294">
        <ele>247.2</ele>
        <time>2019-08-09T18:20:10Z</time>
      </trkpt>
      <trkpt lat="47.95714" lon="7.25289">
        <ele>247.1</ele>
        <time>2019-08-09T18:20:11Z</time>
      </trkpt>
      <trkpt lat="47.95714" lon="7.25283">
        <ele>247</ele>
        <time>2019-08-09T18:20:12Z</time>
      </trkpt>
      <trkpt lat="47.95713" lon="7.25277">
        <ele>246.8</ele>
        <time>2019-08-09T18:20:13Z</time>
      </trkpt>
      <trkpt lat="47.95713" lon="7.25272">
        <ele>246.7</ele>
        <time>2019-08-09T18:20:14Z</time>
      </trkpt>
      <trkpt lat="47.95713" lon="7.25267">
        <ele>246.6</ele>
        <time>2019-08-09T18:20:15Z</time>
      </trkpt>
      <trkpt lat="47.95713" lon="7.2526">
        <ele>246.5</ele>
        <time>2019-08-09T18:20:16Z</time>
      </trkpt>
      <trkpt lat="47.95713" lon="7.25254">
        <ele>246.3</ele>
        <time>2019-08-09T18:20:17Z</time>
      </trkpt>
      <trkpt lat="47.95713" lon="7.25248">
        <ele>246.2</ele>
        <time>2019-08-09T18:20:18Z</time>
      </trkpt>
      <trkpt lat="47.95713" lon="7.25242">
        <ele>246.1</ele>
        <time>2019-08-09T18:20:19Z</time>
      </trkpt>
      <trkpt lat="47.95713" lon="7.25236">
        <ele>246</ele>
        <time>2019-08-09T18:20:20Z</time>
      </trkpt>
      <trkpt lat="47.95713" lon="7.25231">
        <ele>245.9</ele>
        <time>2019-08-09T18:20:21Z</time>
      </trkpt>
      <trkpt lat="47.95713" lon="7.25225">
        <ele>245.7</ele>
        <time>2019-08-09T18:20:22Z</time>
      </trkpt>
      <trkpt lat="47.95714" lon="7.2522">
        <ele>245.6</ele>
        <time>2019-08-09T18:20:23Z</time>
      </trkpt>
      <trkpt lat="47.95714" lon="7.25215">
        <ele>245.5</ele>
        <time>2019-08-09T18:20:24Z</time>
      </trkpt>
      <trkpt lat="47.95715" lon="7.25209">
        <ele>245.4</ele>
        <time>2019-08-09T18:20:25Z</time>
      </trkpt>
      <trkpt lat="47.95715" lon="7.25204">
        <ele>245.3</ele>
        <time>2019-08-09T18:20:26Z</time>
      </trkpt>
      <trkpt lat="47.95716" lon="7.25198">
        <ele>245.2</ele>
        <time>2019-08-09T18:20:27Z</time>
      </trkpt>
      <trkpt lat="47.95717" lon="7.25193">
        <ele>245.1</ele>
        <time>2019-08-09T18:20:28Z</time>
      </trkpt>
      <trkpt lat="47.95718" lon="7.25188">
        <ele>245</ele>
        <time>2019-08-09T18:20:29Z</time>
      </trkpt>
      <trkpt lat="47.95719" lon="7.25182">
        <ele>244.9</ele>
        <time>2019-08-09T18:20:30Z</time>
      </trkpt>
      <trkpt lat="47.95719" lon="7.25177">
        <ele>244.8</ele>
        <time>2019-08-09T18:20:31Z</time>
      </trkpt>
      <trkpt lat="47.95721" lon="7.25173">
        <ele>244.7</ele>
        <time>2019-08-09T18:20:32Z</time>
      </trkpt>
      <trkpt lat="47.95722" lon="7.25169">
        <ele>244.6</ele>
        <time>2019-08-09T18:20:33Z</time>
      </trkpt>
      <trkpt lat="47.95724" lon="7.25165">
        <ele>244.6</ele>
        <time>2019-08-09T18:20:34Z</time>
      </trkpt>
      <trkpt lat="47.95725" lon="7.2516">
        <ele>244.5</ele>
        <time>2019-08-09T18:20:35Z</time>
      </trkpt>
      <trkpt lat="47.95727" lon="7.25155">
        <ele>244.3</ele>
        <time>2019-08-09T18:20:36Z</time>
      </trkpt>
      <trkpt lat="47.95729" lon="7.2515">
        <ele>244.2</ele>
        <time>2019-08-09T18:20:37Z</time>
      </trkpt>
      <trkpt lat="47.95731" lon="7.25145">
        <ele>244.1</ele>
        <time>2019-08-09T18:20:38Z</time>
      </trkpt>
      <trkpt lat="47.95732" lon="7.25141">
        <ele>244</ele>
        <time>2019-08-09T18:20:39Z</time>
      </trkpt>
      <trkpt lat="47.95734" lon="7.25137">
        <ele>243.9</ele>
        <time>2019-08-09T18:20:40Z</time>
      </trkpt>
      <trkpt lat="47.95735" lon="7.25132">
        <ele>243.8</ele>
        <time>2019-08-09T18:20:41Z</time>
      </trkpt>
      <trkpt lat="47.95737" lon="7.25127">
        <ele>243.7</ele>
        <time>2019-08-09T18:20:42Z</time>
      </trkpt>
      <trkpt lat="47.95738" lon="7.25122">
        <ele>243.7</ele>
        <time>2019-08-09T18:20:43Z</time>
      </trkpt>
      <trkpt lat="47.9574" lon="7.25117">
        <ele>243.5</ele>
        <time>2019-08-09T18:20:44Z</time>
      </trkpt>
      <trkpt lat="47.95741" lon="7.25112">
        <ele>243.4</ele>
        <time>2019-08-09T18:20:45Z</time>
      </trkpt>
      <trkpt lat="47.95742" lon="7.25107">
        <ele>243.3</ele>
        <time>2019-08-09T18:20:46Z</time>
      </trkpt>
      <trkpt lat="47.95743" lon="7.251">
        <ele>243.2</ele>
        <time>2019-08-09T18:20:47Z</time>
      </trkpt>
      <trkpt lat="47.95744" lon="7.25094">
        <ele>243.1</ele>
        <time>2019-08-09T18:20:48Z</time>
      </trkpt>
      <trkpt lat="47.95744" lon="7.25089">
        <ele>243</ele>
        <time>2019-08-09T18:20:49Z</time>
      </trkpt>
      <trkpt lat="47.95744" lon="7.25083">
        <ele>242.9</ele>
        <time>2019-08-09T18:20:50Z</time>
      </trkpt>
      <trkpt lat="47.95744" lon="7.25077">
        <ele>242.8</ele>
        <time>2019-08-09T18:20:51Z</time>
      </trkpt>
      <trkpt lat="47.95743" lon="7.25072">
        <ele>242.7</ele>
        <time>2019-08-09T18:20:52Z</time>
      </trkpt>
      <trkpt lat="47.95742" lon="7.25066">
        <ele>242.6</ele>
        <time>2019-08-09T18:20:53Z</time>
      </trkpt>
      <trkpt lat="47.9574" lon="7.25061">
        <ele>242.5</ele>
        <time>2019-08-09T18:20:54Z</time>
      </trkpt>
      <trkpt lat="47.95738" lon="7.25056">
        <ele>242.3</ele>
        <time>2019-08-09T18:20:55Z</time>
      </trkpt>
      <trkpt lat="47.95735" lon="7.25051">
        <ele>242.1</ele>
        <time>2019-08-09T18:20:56Z</time>
      </trkpt>
      <trkpt lat="47.95732" lon="7.25047">
        <ele>242</ele>
        <time>2019-08-09T18:20:57Z</time>
      </trkpt>
      <trkpt lat="47.95729" lon="7.25043">
        <ele>241.9</ele>
        <time>2019-08-09T18:20:58Z</time>
      </trkpt>
      <trkpt lat="47.95726" lon="7.25039">
        <ele>241.7</ele>
        <time>2019-08-09T18:20:59Z</time>
      </trkpt>
      <trkpt lat="47.95722" lon="7.25035">
        <ele>241.5</ele>
        <time>2019-08-09T18:21:00Z</time>
      </trkpt>
      <trkpt lat="47.95719" lon="7.25032">
        <ele>241.2</ele>
        <time>2019-08-09T18:21:01Z</time>
      </trkpt>
      <trkpt lat="47.95716" lon="7.25028">
        <ele>240.9</ele>
        <time>2019-08-09T18:21:02Z</time>
      </trkpt>
      <trkpt lat="47.95713" lon="7.25024">
        <ele>240.6</ele>
        <time>2019-08-09T18:21:03Z</time>
      </trkpt>
      <trkpt lat="47.95709" lon="7.25021">
        <ele>240.4</ele>
        <time>2019-08-09T18:21:04Z</time>
      </trkpt>
      <trkpt lat="47.95706" lon="7.25017">
        <ele>240.1</ele>
        <time>2019-08-09T18:21:05Z</time>
      </trkpt>
      <trkpt lat="47.95703" lon="7.25014">
        <ele>239.8</ele>
        <time>2019-08-09T18:21:06Z</time>
      </trkpt>
      <trkpt lat="47.957" lon="7.2501">
        <ele>239.5</ele>
        <time>2019-08-09T18:21:07Z</time>
      </trkpt>
      <trkpt lat="47.95697" lon="7.25006">
        <ele>239.2</ele>
        <time>2019-08-09T18:21:08Z</time>
      </trkpt>
      <trkpt lat="47.95693" lon="7.25003">
        <ele>238.9</ele>
        <time>2019-08-09T18:21:09Z</time>
      </trkpt>
      <trkpt lat="47.9569" lon="7.24999">
        <ele>238.9</ele>
        <time>2019-08-09T18:21:10Z</time>
      </trkpt>
      <trkpt lat="47.95688" lon="7.24994">
        <ele>238.8</ele>
        <time>2019-08-09T18:21:11Z</time>
      </trkpt>
      <trkpt lat="47.95686" lon="7.2499">
        <ele>238.8</ele>
        <time>2019-08-09T18:21:12Z</time>
      </trkpt>
      <trkpt lat="47.95685" lon="7.24986">
        <ele>238.8</ele>
        <time>2019-08-09T18:21:13Z</time>
      </trkpt>
      <trkpt lat="47.95684" lon="7.24982">
        <ele>238.8</ele>
        <time>2019-08-09T18:21:14Z</time>
      </trkpt>
      <trkpt lat="47.95683" lon="7.24978">
        <ele>238.8</ele>
        <time>2019-08-09T18:21:15Z</time>
      </trkpt>
      <trkpt lat="47.95681" lon="7.24974">
        <ele>238.8</ele>
        <time>2019-08-09T18:21:16Z</time>
      </trkpt>
      <trkpt lat="47.9568" lon="7.24968">
        <ele>238.8</ele>
        <time>2019-08-09T18:21:18Z</time>
      </trkpt>
      <trkpt lat="47.95679" lon="7.24962">
        <ele>238.9</ele>
        <time>2019-08-09T18:21:20Z</time>
      </trkpt>
      <trkpt lat="47.9568" lon="7.24957">
        <ele>239.1</ele>
        <time>2019-08-09T18:21:22Z</time>
      </trkpt>
      <trkpt lat="47.95682" lon="7.24952">
        <ele>239.2</ele>
        <time>2019-08-09T18:21:24Z</time>
      </trkpt>
      <trkpt lat="47.95683" lon="7.24947">
        <ele>239.4</ele>
        <time>2019-08-09T18:21:27Z</time>
      </trkpt>
      <trkpt lat="47.95684" lon="7.24942">
        <ele>239.5</ele>
        <time>2019-08-09T18:21:29Z</time>
      </trkpt>
      <trkpt lat="47.95685" lon="7.24936">
        <ele>239.7</ele>
        <time>2019-08-09T18:21:31Z</time>
      </trkpt>
      <trkpt lat="47.95686" lon="7.24929">
        <ele>239.9</ele>
        <time>2019-08-09T18:21:33Z</time>
      </trkpt>
      <trkpt lat="47.95687" lon="7.24924">
        <ele>240</ele>
        <time>2019-08-09T18:21:35Z</time>
      </trkpt>
      <trkpt lat="47.95688" lon="7.24919">
        <ele>240.1</ele>
        <time>2019-08-09T18:21:37Z</time>
      </trkpt>
      <trkpt lat="47.95689" lon="7.24914">
        <ele>240.3</ele>
        <time>2019-08-09T18:21:39Z</time>
      </trkpt>
      <trkpt lat="47.95689" lon="7.24908">
        <ele>240.4</ele>
        <time>2019-08-09T18:21:41Z</time>
      </trkpt>
      <trkpt lat="47.95689" lon="7.24901">
        <ele>240.6</ele>
        <time>2019-08-09T18:21:43Z</time>
      </trkpt>
      <trkpt lat="47.9569" lon="7.24893">
        <ele>240.7</ele>
        <time>2019-08-09T18:21:45Z</time>
      </trkpt>
      <trkpt lat="47.9569" lon="7.24888">
        <ele>240.8</ele>
        <time>2019-08-09T18:21:46Z</time>
      </trkpt>
      <trkpt lat="47.9569" lon="7.24883">
        <ele>240.9</ele>
        <time>2019-08-09T18:21:47Z</time>
      </trkpt>
      <trkpt lat="47.9569" lon="7.24879">
        <ele>241</ele>
        <time>2019-08-09T18:21:48Z</time>
      </trkpt>
      <trkpt lat="47.9569" lon="7.24874">
        <ele>241</ele>
        <time>2019-08-09T18:21:49Z</time>
      </trkpt>
      <trkpt lat="47.95691" lon="7.24868">
        <ele>241.1</ele>
        <time>2019-08-09T18:21:50Z</time>
      </trkpt>
      <trkpt lat="47.95691" lon="7.24863">
        <ele>241.2</ele>
        <time>2019-08-09T18:21:51Z</time>
      </trkpt>
      <trkpt lat="47.95691" lon="7.24857">
        <ele>241.2</ele>
        <time>2019-08-09T18:21:52Z</time>
      </trkpt>
      <trkpt lat="47.95691" lon="7.24852">
        <ele>241.2</ele>
        <time>2019-08-09T18:21:53Z</time>
      </trkpt>
      <trkpt lat="47.95691" lon="7.24846">
        <ele>241.2</ele>
        <time>2019-08-09T18:21:54Z</time>
      </trkpt>
      <trkpt lat="47.95692" lon="7.24841">
        <ele>241.2</ele>
        <time>2019-08-09T18:21:55Z</time>
      </trkpt>
      <trkpt lat="47.95692" lon="7.24835">
        <ele>241.2</ele>
        <time>2019-08-09T18:21:56Z</time>
      </trkpt>
      <trkpt lat="47.95692" lon="7.2483">
        <ele>241.1</ele>
        <time>2019-08-09T18:21:57Z</time>
      </trkpt>
      <trkpt lat="47.95693" lon="7.24824">
        <ele>241.2</ele>
        <time>2019-08-09T18:21:58Z</time>
      </trkpt>
      <trkpt lat="47.95693" lon="7.24819">
        <ele>241.2</ele>
        <time>2019-08-09T18:21:59Z</time>
      </trkpt>
      <trkpt lat="47.95693" lon="7.24813">
        <ele>241.3</ele>
        <time>2019-08-09T18:22:00Z</time>
      </trkpt>
      <trkpt lat="47.95694" lon="7.24807">
        <ele>241.3</ele>
        <time>2019-08-09T18:22:01Z</time>
      </trkpt>
      <trkpt lat="47.95694" lon="7.24801">
        <ele>241.4</ele>
        <time>2019-08-09T18:22:02Z</time>
      </trkpt>
      <trkpt lat="47.95695" lon="7.24796">
        <ele>241.4</ele>
        <time>2019-08-09T18:22:03Z</time>
      </trkpt>
      <trkpt lat="47.95695" lon="7.2479">
        <ele>241.4</ele>
        <time>2019-08-09T18:22:04Z</time>
      </trkpt>
      <trkpt lat="47.95696" lon="7.24784">
        <ele>241.4</ele>
        <time>2019-08-09T18:22:05Z</time>
      </trkpt>
      <trkpt lat="47.95696" lon="7.24777">
        <ele>241.4</ele>
        <time>2019-08-09T18:22:06Z</time>
      </trkpt>
      <trkpt lat="47.95697" lon="7.24771">
        <ele>241.5</ele>
        <time>2019-08-09T18:22:07Z</time>
      </trkpt>
      <trkpt lat="47.95697" lon="7.24765">
        <ele>241.5</ele>
        <time>2019-08-09T18:22:08Z</time>
      </trkpt>
      <trkpt lat="47.95698" lon="7.24758">
        <ele>241.5</ele>
        <time>2019-08-09T18:22:09Z</time>
      </trkpt>
      <trkpt lat="47.95698" lon="7.24752">
        <ele>241.5</ele>
        <time>2019-08-09T18:22:10Z</time>
      </trkpt>
      <trkpt lat="47.95699" lon="7.24746">
        <ele>241.5</ele>
        <time>2019-08-09T18:22:11Z</time>
      </trkpt>
      <trkpt lat="47.95698" lon="7.24739">
        <ele>241.5</ele>
        <time>2019-08-09T18:22:12Z</time>
      </trkpt>
      <trkpt lat="47.95699" lon="7.24733">
        <ele>241.4</ele>
        <time>2019-08-09T18:22:13Z</time>
      </trkpt>
      <trkpt lat="47.95699" lon="7.24726">
        <ele>241.4</ele>
        <time>2019-08-09T18:22:14Z</time>
      </trkpt>
      <trkpt lat="47.957" lon="7.2472">
        <ele>241.4</ele>
        <time>2019-08-09T18:22:15Z</time>
      </trkpt>
      <trkpt lat="47.95701" lon="7.24713">
        <ele>241.4</ele>
        <time>2019-08-09T18:22:16Z</time>
      </trkpt>
      <trkpt lat="47.95702" lon="7.24707">
        <ele>241.3</ele>
        <time>2019-08-09T18:22:17Z</time>
      </trkpt>
      <trkpt lat="47.95702" lon="7.24701">
        <ele>241.3</ele>
        <time>2019-08-09T18:22:18Z</time>
      </trkpt>
      <trkpt lat="47.95702" lon="7.24694">
        <ele>241.3</ele>
        <time>2019-08-09T18:22:19Z</time>
      </trkpt>
      <trkpt lat="47.95703" lon="7.24688">
        <ele>241.2</ele>
        <time>2019-08-09T18:22:20Z</time>
      </trkpt>
      <trkpt lat="47.95704" lon="7.24681">
        <ele>241.2</ele>
        <time>2019-08-09T18:22:21Z</time>
      </trkpt>
      <trkpt lat="47.95704" lon="7.24675">
        <ele>241.2</ele>
        <time>2019-08-09T18:22:22Z</time>
      </trkpt>
      <trkpt lat="47.95705" lon="7.24669">
        <ele>241.2</ele>
        <time>2019-08-09T18:22:23Z</time>
      </trkpt>
      <trkpt lat="47.95706" lon="7.24663">
        <ele>241.1</ele>
        <time>2019-08-09T18:22:24Z</time>
      </trkpt>
      <trkpt lat="47.95706" lon="7.24658">
        <ele>241.1</ele>
        <time>2019-08-09T18:22:25Z</time>
      </trkpt>
      <trkpt lat="47.95707" lon="7.24652">
        <ele>241.1</ele>
        <time>2019-08-09T18:22:26Z</time>
      </trkpt>
      <trkpt lat="47.95708" lon="7.24646">
        <ele>241.1</ele>
        <time>2019-08-09T18:22:27Z</time>
      </trkpt>
      <trkpt lat="47.9571" lon="7.24641">
        <ele>241.1</ele>
        <time>2019-08-09T18:22:28Z</time>
      </trkpt>
      <trkpt lat="47.95711" lon="7.24635">
        <ele>241</ele>
        <time>2019-08-09T18:22:29Z</time>
      </trkpt>
      <trkpt lat="47.95712" lon="7.24629">
        <ele>241</ele>
        <time>2019-08-09T18:22:30Z</time>
      </trkpt>
      <trkpt lat="47.95713" lon="7.24622">
        <ele>240.9</ele>
        <time>2019-08-09T18:22:31Z</time>
      </trkpt>
      <trkpt lat="47.95715" lon="7.24617">
        <ele>241</ele>
        <time>2019-08-09T18:22:32Z</time>
      </trkpt>
      <trkpt lat="47.95716" lon="7.24611">
        <ele>241</ele>
        <time>2019-08-09T18:22:33Z</time>
      </trkpt>
      <trkpt lat="47.95718" lon="7.24606">
        <ele>241.1</ele>
        <time>2019-08-09T18:22:34Z</time>
      </trkpt>
      <trkpt lat="47.9572" lon="7.246">
        <ele>241.1</ele>
        <time>2019-08-09T18:22:35Z</time>
      </trkpt>
      <trkpt lat="47.95722" lon="7.24594">
        <ele>241.2</ele>
        <time>2019-08-09T18:22:36Z</time>
      </trkpt>
      <trkpt lat="47.95724" lon="7.24589">
        <ele>241.2</ele>
        <time>2019-08-09T18:22:37Z</time>
      </trkpt>
      <trkpt lat="47.95726" lon="7.24584">
        <ele>241.3</ele>
        <time>2019-08-09T18:22:38Z</time>
      </trkpt>
      <trkpt lat="47.95728" lon="7.2458">
        <ele>241.3</ele>
        <time>2019-08-09T18:22:39Z</time>
      </trkpt>
      <trkpt lat="47.9573" lon="7.24574">
        <ele>241.4</ele>
        <time>2019-08-09T18:22:40Z</time>
      </trkpt>
      <trkpt lat="47.95733" lon="7.24569">
        <ele>241.5</ele>
        <time>2019-08-09T18:22:41Z</time>
      </trkpt>
      <trkpt lat="47.95736" lon="7.24564">
        <ele>241.6</ele>
        <time>2019-08-09T18:22:42Z</time>
      </trkpt>
      <trkpt lat="47.95738" lon="7.24559">
        <ele>241.7</ele>
        <time>2019-08-09T18:22:43Z</time>
      </trkpt>
      <trkpt lat="47.9574" lon="7.24554">
        <ele>241.8</ele>
        <time>2019-08-09T18:22:44Z</time>
      </trkpt>
      <trkpt lat="47.95743" lon="7.24549">
        <ele>242</ele>
        <time>2019-08-09T18:22:45Z</time>
      </trkpt>
      <trkpt lat="47.95745" lon="7.24544">
        <ele>242.1</ele>
        <time>2019-08-09T18:22:46Z</time>
      </trkpt>
      <trkpt lat="47.95748" lon="7.2454">
        <ele>242.2</ele>
        <time>2019-08-09T18:22:47Z</time>
      </trkpt>
      <trkpt lat="47.95751" lon="7.24535">
        <ele>242.3</ele>
        <time>2019-08-09T18:22:48Z</time>
      </trkpt>
      <trkpt lat="47.95753" lon="7.24531">
        <ele>242.4</ele>
        <time>2019-08-09T18:22:49Z</time>
      </trkpt>
      <trkpt lat="47.95756" lon="7.24526">
        <ele>242.6</ele>
        <time>2019-08-09T18:22:50Z</time>
      </trkpt>
      <trkpt lat="47.95759" lon="7.24521">
        <ele>242.7</ele>
        <time>2019-08-09T18:22:51Z</time>
      </trkpt>
      <trkpt lat="47.95762" lon="7.24516">
        <ele>242.8</ele>
        <time>2019-08-09T18:22:52Z</time>
      </trkpt>
      <trkpt lat="47.95765" lon="7.24511">
        <ele>243</ele>
        <time>2019-08-09T18:22:53Z</time>
      </trkpt>
      <trkpt lat="47.95767" lon="7.24506">
        <ele>243.1</ele>
        <time>2019-08-09T18:22:54Z</time>
      </trkpt>
      <trkpt lat="47.9577" lon="7.24502">
        <ele>243.2</ele>
        <time>2019-08-09T18:22:55Z</time>
      </trkpt>
      <trkpt lat="47.95773" lon="7.24498">
        <ele>243.3</ele>
        <time>2019-08-09T18:22:56Z</time>
      </trkpt>
      <trkpt lat="47.95775" lon="7.24494">
        <ele>243.5</ele>
        <time>2019-08-09T18:22:57Z</time>
      </trkpt>
      <trkpt lat="47.95777" lon="7.24489">
        <ele>243.7</ele>
        <time>2019-08-09T18:22:58Z</time>
      </trkpt>
      <trkpt lat="47.95779" lon="7.24486">
        <ele>243.8</ele>
        <time>2019-08-09T18:22:59Z</time>
      </trkpt>
      <trkpt lat="47.95781" lon="7.24482">
        <ele>244</ele>
        <time>2019-08-09T18:23:00Z</time>
      </trkpt>
      <trkpt lat="47.95783" lon="7.24478">
        <ele>244.1</ele>
        <time>2019-08-09T18:23:01Z</time>
      </trkpt>
      <trkpt lat="47.95785" lon="7.24474">
        <ele>244.3</ele>
        <time>2019-08-09T18:23:02Z</time>
      </trkpt>
      <trkpt lat="47.95788" lon="7.24469">
        <ele>244.5</ele>
        <time>2019-08-09T18:23:03Z</time>
      </trkpt>
      <trkpt lat="47.9579" lon="7.24465">
        <ele>244.6</ele>
        <time>2019-08-09T18:23:04Z</time>
      </trkpt>
      <trkpt lat="47.95793" lon="7.24461">
        <ele>244.7</ele>
        <time>2019-08-09T18:23:05Z</time>
      </trkpt>
      <trkpt lat="47.95795" lon="7.24457">
        <ele>244.8</ele>
        <time>2019-08-09T18:23:06Z</time>
      </trkpt>
      <trkpt lat="47.95797" lon="7.24454">
        <ele>244.8</ele>
        <time>2019-08-09T18:23:07Z</time>
      </trkpt>
      <trkpt lat="47.958" lon="7.2445">
        <ele>244.9</ele>
        <time>2019-08-09T18:23:08Z</time>
      </trkpt>
      <trkpt lat="47.95803" lon="7.24446">
        <ele>244.9</ele>
        <time>2019-08-09T18:23:09Z</time>
      </trkpt>
      <trkpt lat="47.95806" lon="7.24443">
        <ele>244.9</ele>
        <time>2019-08-09T18:23:10Z</time>
      </trkpt>
      <trkpt lat="47.95809" lon="7.24439">
        <ele>245</ele>
        <time>2019-08-09T18:23:11Z</time>
      </trkpt>
      <trkpt lat="47.95812" lon="7.24436">
        <ele>245.1</ele>
        <time>2019-08-09T18:23:12Z</time>
      </trkpt>
      <trkpt lat="47.95816" lon="7.24433">
        <ele>245.2</ele>
        <time>2019-08-09T18:23:13Z</time>
      </trkpt>
      <trkpt lat="47.95819" lon="7.2443">
        <ele>245.3</ele>
        <time>2019-08-09T18:23:14Z</time>
      </trkpt>
      <trkpt lat="47.95822" lon="7.24426">
        <ele>245.4</ele>
        <time>2019-08-09T18:23:15Z</time>
      </trkpt>
      <trkpt lat="47.95824" lon="7.24424">
        <ele>245.5</ele>
        <time>2019-08-09T18:23:16Z</time>
      </trkpt>
      <trkpt lat="47.95827" lon="7.24421">
        <ele>245.6</ele>
        <time>2019-08-09T18:23:17Z</time>
      </trkpt>
      <trkpt lat="47.9583" lon="7.24418">
        <ele>245.7</ele>
        <time>2019-08-09T18:23:18Z</time>
      </trkpt>
      <trkpt lat="47.95834" lon="7.24415">
        <ele>245.9</ele>
        <time>2019-08-09T18:23:19Z</time>
      </trkpt>
      <trkpt lat="47.95837" lon="7.24412">
        <ele>246</ele>
        <time>2019-08-09T18:23:20Z</time>
      </trkpt>
      <trkpt lat="47.9584" lon="7.24409">
        <ele>246.1</ele>
        <time>2019-08-09T18:23:21Z</time>
      </trkpt>
      <trkpt lat="47.95844" lon="7.24406">
        <ele>246.3</ele>
        <time>2019-08-09T18:23:22Z</time>
      </trkpt>
      <trkpt lat="47.95847" lon="7.24403">
        <ele>246.4</ele>
        <time>2019-08-09T18:23:23Z</time>
      </trkpt>
      <trkpt lat="47.9585" lon="7.244">
        <ele>246.5</ele>
        <time>2019-08-09T18:23:24Z</time>
      </trkpt>
      <trkpt lat="47.95853" lon="7.24397">
        <ele>246.7</ele>
        <time>2019-08-09T18:23:25Z</time>
      </trkpt>
      <trkpt lat="47.95857" lon="7.24393">
        <ele>246.9</ele>
        <time>2019-08-09T18:23:26Z</time>
      </trkpt>
      <trkpt lat="47.9586" lon="7.24391">
        <ele>247</ele>
        <time>2019-08-09T18:23:27Z</time>
      </trkpt>
      <trkpt lat="47.95863" lon="7.24387">
        <ele>247.2</ele>
        <time>2019-08-09T18:23:28Z</time>
      </trkpt>
      <trkpt lat="47.95866" lon="7.24384">
        <ele>247.3</ele>
        <time>2019-08-09T18:23:29Z</time>
      </trkpt>
      <trkpt lat="47.9587" lon="7.24379">
        <ele>247.5</ele>
        <time>2019-08-09T18:23:30Z</time>
      </trkpt>
      <trkpt lat="47.95873" lon="7.24376">
        <ele>247.6</ele>
        <time>2019-08-09T18:23:31Z</time>
      </trkpt>
      <trkpt lat="47.95876" lon="7.24371">
        <ele>247.7</ele>
        <time>2019-08-09T18:23:32Z</time>
      </trkpt>
      <trkpt lat="47.95878" lon="7.24367">
        <ele>247.9</ele>
        <time>2019-08-09T18:23:33Z</time>
      </trkpt>
      <trkpt lat="47.9588" lon="7.24363">
        <ele>248</ele>
        <time>2019-08-09T18:23:34Z</time>
      </trkpt>
      <trkpt lat="47.95883" lon="7.24359">
        <ele>248.2</ele>
        <time>2019-08-09T18:23:35Z</time>
      </trkpt>
      <trkpt lat="47.95886" lon="7.24354">
        <ele>248.3</ele>
        <time>2019-08-09T18:23:36Z</time>
      </trkpt>
      <trkpt lat="47.95888" lon="7.2435">
        <ele>248.4</ele>
        <time>2019-08-09T18:23:37Z</time>
      </trkpt>
      <trkpt lat="47.9589" lon="7.24346">
        <ele>248.5</ele>
        <time>2019-08-09T18:23:38Z</time>
      </trkpt>
      <trkpt lat="47.95892" lon="7.24341">
        <ele>248.6</ele>
        <time>2019-08-09T18:23:39Z</time>
      </trkpt>
      <trkpt lat="47.95894" lon="7.24336">
        <ele>248.6</ele>
        <time>2019-08-09T18:23:40Z</time>
      </trkpt>
      <trkpt lat="47.95896" lon="7.24331">
        <ele>248.6</ele>
        <time>2019-08-09T18:23:41Z</time>
      </trkpt>
      <trkpt lat="47.95898" lon="7.24327">
        <ele>248.6</ele>
        <time>2019-08-09T18:23:42Z</time>
      </trkpt>
      <trkpt lat="47.95899" lon="7.24323">
        <ele>248.6</ele>
        <time>2019-08-09T18:23:43Z</time>
      </trkpt>
      <trkpt lat="47.95901" lon="7.24318">
        <ele>248.6</ele>
        <time>2019-08-09T18:23:44Z</time>
      </trkpt>
      <trkpt lat="47.95903" lon="7.24313">
        <ele>248.6</ele>
        <time>2019-08-09T18:23:45Z</time>
      </trkpt>
      <trkpt lat="47.95905" lon="7.24308">
        <ele>248.5</ele>
        <time>2019-08-09T18:23:46Z</time>
      </trkpt>
      <trkpt lat="47.95907" lon="7.24303">
        <ele>248.5</ele>
        <time>2019-08-09T18:23:47Z</time>
      </trkpt>
      <trkpt lat="47.95908" lon="7.24298">
        <ele>248.4</ele>
        <time>2019-08-09T18:23:48Z</time>
      </trkpt>
      <trkpt lat="47.9591" lon="7.24294">
        <ele>248.4</ele>
        <time>2019-08-09T18:23:49Z</time>
      </trkpt>
      <trkpt lat="47.95912" lon="7.24289">
        <ele>248.4</ele>
        <time>2019-08-09T18:23:50Z</time>
      </trkpt>
      <trkpt lat="47.95913" lon="7.24284">
        <ele>248.4</ele>
        <time>2019-08-09T18:23:51Z</time>
      </trkpt>
      <trkpt lat="47.95914" lon="7.24279">
        <ele>248.4</ele>
        <time>2019-08-09T18:23:52Z</time>
      </trkpt>
      <trkpt lat="47.95916" lon="7.24275">
        <ele>248.4</ele>
        <time>2019-08-09T18:23:53Z</time>
      </trkpt>
      <trkpt lat="47.95917" lon="7.24268">
        <ele>248.4</ele>
        <time>2019-08-09T18:23:55Z</time>
      </trkpt>
      <trkpt lat="47.95914" lon="7.24265">
        <ele>248.6</ele>
        <time>2019-08-09T18:23:57Z</time>
      </trkpt>
      <trkpt lat="47.95914" lon="7.24261">
        <ele>248.6</ele>
        <time>2019-08-09T18:24:01Z</time>
      </trkpt>
      <trkpt lat="47.95915" lon="7.24257">
        <ele>248.6</ele>
        <time>2019-08-09T18:24:07Z</time>
      </trkpt>
      <trkpt lat="47.95912" lon="7.24254">
        <ele>248.7</ele>
        <time>2019-08-09T18:24:34Z</time>
      </trkpt>
      <trkpt lat="47.95909" lon="7.24251">
        <ele>248.7</ele>
        <time>2019-08-09T18:24:36Z</time>
      </trkpt>
      <trkpt lat="47.95905" lon="7.24246">
        <ele>248.8</ele>
        <time>2019-08-09T18:24:38Z</time>
      </trkpt>
      <trkpt lat="47.95902" lon="7.24242">
        <ele>248.9</ele>
        <time>2019-08-09T18:24:40Z</time>
      </trkpt>
      <trkpt lat="47.95897" lon="7.24236">
        <ele>249</ele>
        <time>2019-08-09T18:24:42Z</time>
      </trkpt>
      <trkpt lat="47.95895" lon="7.24233">
        <ele>249.1</ele>
        <time>2019-08-09T18:24:43Z</time>
      </trkpt>
      <trkpt lat="47.95892" lon="7.2423">
        <ele>249.2</ele>
        <time>2019-08-09T18:24:44Z</time>
      </trkpt>
      <trkpt lat="47.9589" lon="7.24227">
        <ele>249.3</ele>
        <time>2019-08-09T18:24:45Z</time>
      </trkpt>
      <trkpt lat="47.95887" lon="7.24225">
        <ele>249.4</ele>
        <time>2019-08-09T18:24:46Z</time>
      </trkpt>
      <trkpt lat="47.95883" lon="7.24222">
        <ele>249.6</ele>
        <time>2019-08-09T18:24:47Z</time>
      </trkpt>
      <trkpt lat="47.9588" lon="7.2422">
        <ele>249.7</ele>
        <time>2019-08-09T18:24:48Z</time>
      </trkpt>
      <trkpt lat="47.95877" lon="7.24218">
        <ele>250</ele>
        <time>2019-08-09T18:24:49Z</time>
      </trkpt>
      <trkpt lat="47.95874" lon="7.24215">
        <ele>250.2</ele>
        <time>2019-08-09T18:24:50Z</time>
      </trkpt>
      <trkpt lat="47.95871" lon="7.24213">
        <ele>250.4</ele>
        <time>2019-08-09T18:24:51Z</time>
      </trkpt>
      <trkpt lat="47.95869" lon="7.2421">
        <ele>250.6</ele>
        <time>2019-08-09T18:24:52Z</time>
      </trkpt>
      <trkpt lat="47.95867" lon="7.24207">
        <ele>250.8</ele>
        <time>2019-08-09T18:24:53Z</time>
      </trkpt>
      <trkpt lat="47.95865" lon="7.24205">
        <ele>251</ele>
        <time>2019-08-09T18:24:54Z</time>
      </trkpt>
      <trkpt lat="47.95861" lon="7.242">
        <ele>251.3</ele>
        <time>2019-08-09T18:24:56Z</time>
      </trkpt>
      <trkpt lat="47.95857" lon="7.24196">
        <ele>251.5</ele>
        <time>2019-08-09T18:24:58Z</time>
      </trkpt>
      <trkpt lat="47.95854" lon="7.24193">
        <ele>251.6</ele>
        <time>2019-08-09T18:25:00Z</time>
      </trkpt>
      <trkpt lat="47.9585" lon="7.24188">
        <ele>251.8</ele>
        <time>2019-08-09T18:25:02Z</time>
      </trkpt>
      <trkpt lat="47.95846" lon="7.24184">
        <ele>252</ele>
        <time>2019-08-09T18:25:04Z</time>
      </trkpt>
      <trkpt lat="47.95843" lon="7.24182">
        <ele>252.1</ele>
        <time>2019-08-09T18:25:05Z</time>
      </trkpt>
      <trkpt lat="47.95841" lon="7.24179">
        <ele>252.2</ele>
        <time>2019-08-09T18:25:06Z</time>
      </trkpt>
      <trkpt lat="47.95838" lon="7.24176">
        <ele>252.3</ele>
        <time>2019-08-09T18:25:07Z</time>
      </trkpt>
      <trkpt lat="47.95836" lon="7.24174">
        <ele>252.5</ele>
        <time>2019-08-09T18:25:08Z</time>
      </trkpt>
      <trkpt lat="47.95832" lon="7.24169">
        <ele>252.8</ele>
        <time>2019-08-09T18:25:10Z</time>
      </trkpt>
      <trkpt lat="47.95829" lon="7.24167">
        <ele>252.9</ele>
        <time>2019-08-09T18:25:11Z</time>
      </trkpt>
      <trkpt lat="47.95825" lon="7.24161">
        <ele>253.2</ele>
        <time>2019-08-09T18:25:13Z</time>
      </trkpt>
      <trkpt lat="47.95823" lon="7.24159">
        <ele>253.4</ele>
        <time>2019-08-09T18:25:14Z</time>
      </trkpt>
      <trkpt lat="47.9582" lon="7.24157">
        <ele>253.5</ele>
        <time>2019-08-09T18:25:15Z</time>
      </trkpt>
      <trkpt lat="47.95817" lon="7.24155">
        <ele>253.7</ele>
        <time>2019-08-09T18:25:16Z</time>
      </trkpt>
      <trkpt lat="47.95814" lon="7.24153">
        <ele>253.8</ele>
        <time>2019-08-09T18:25:17Z</time>
      </trkpt>
      <trkpt lat="47.95812" lon="7.24151">
        <ele>254</ele>
        <time>2019-08-09T18:25:18Z</time>
      </trkpt>
      <trkpt lat="47.95807" lon="7.24146">
        <ele>254.2</ele>
        <time>2019-08-09T18:25:20Z</time>
      </trkpt>
      <trkpt lat="47.95805" lon="7.24143">
        <ele>254.2</ele>
        <time>2019-08-09T18:25:21Z</time>
      </trkpt>
      <trkpt lat="47.95803" lon="7.24141">
        <ele>254.3</ele>
        <time>2019-08-09T18:25:22Z</time>
      </trkpt>
      <trkpt lat="47.958" lon="7.24139">
        <ele>254.4</ele>
        <time>2019-08-09T18:25:23Z</time>
      </trkpt>
      <trkpt lat="47.95798" lon="7.24136">
        <ele>254.4</ele>
        <time>2019-08-09T18:25:24Z</time>
      </trkpt>
      <trkpt lat="47.95795" lon="7.24134">
        <ele>254.5</ele>
        <time>2019-08-09T18:25:25Z</time>
      </trkpt>
      <trkpt lat="47.95791" lon="7.2413">
        <ele>254.6</ele>
        <time>2019-08-09T18:25:27Z</time>
      </trkpt>
      <trkpt lat="47.95789" lon="7.24127">
        <ele>254.6</ele>
        <time>2019-08-09T18:25:28Z</time>
      </trkpt>
      <trkpt lat="47.95786" lon="7.24122">
        <ele>254.7</ele>
        <time>2019-08-09T18:25:30Z</time>
      </trkpt>
      <trkpt lat="47.95782" lon="7.24118">
        <ele>254.8</ele>
        <time>2019-08-09T18:25:32Z</time>
      </trkpt>
      <trkpt lat="47.95778" lon="7.24117">
        <ele>254.6</ele>
        <time>2019-08-09T18:25:34Z</time>
      </trkpt>
      <trkpt lat="47.95773" lon="7.24116">
        <ele>254.4</ele>
        <time>2019-08-09T18:25:36Z</time>
      </trkpt>
      <trkpt lat="47.9577" lon="7.24117">
        <ele>254.3</ele>
        <time>2019-08-09T18:25:37Z</time>
      </trkpt>
      <trkpt lat="47.95765" lon="7.24117">
        <ele>254.1</ele>
        <time>2019-08-09T18:25:39Z</time>
      </trkpt>
      <trkpt lat="47.9576" lon="7.24117">
        <ele>253.9</ele>
        <time>2019-08-09T18:25:41Z</time>
      </trkpt>
      <trkpt lat="47.95756" lon="7.24117">
        <ele>253.8</ele>
        <time>2019-08-09T18:25:42Z</time>
      </trkpt>
      <trkpt lat="47.95751" lon="7.24117">
        <ele>253.6</ele>
        <time>2019-08-09T18:25:44Z</time>
      </trkpt>
      <trkpt lat="47.95747" lon="7.24118">
        <ele>253.5</ele>
        <time>2019-08-09T18:25:45Z</time>
      </trkpt>
      <trkpt lat="47.95743" lon="7.2412">
        <ele>253.5</ele>
        <time>2019-08-09T18:25:46Z</time>
      </trkpt>
      <trkpt lat="47.9574" lon="7.24122">
        <ele>253.5</ele>
        <time>2019-08-09T18:25:47Z</time>
      </trkpt>
      <trkpt lat="47.95736" lon="7.24125">
        <ele>253.5</ele>
        <time>2019-08-09T18:25:48Z</time>
      </trkpt>
      <trkpt lat="47.95733" lon="7.24127">
        <ele>253.5</ele>
        <time>2019-08-09T18:25:49Z</time>
      </trkpt>
      <trkpt lat="47.9573" lon="7.24129">
        <ele>253.5</ele>
        <time>2019-08-09T18:25:50Z</time>
      </trkpt>
      <trkpt lat="47.95727" lon="7.24131">
        <ele>253.5</ele>
        <time>2019-08-09T18:25:51Z</time>
      </trkpt>
      <trkpt lat="47.95724" lon="7.24133">
        <ele>253.5</ele>
        <time>2019-08-09T18:25:52Z</time>
      </trkpt>
      <trkpt lat="47.9572" lon="7.24136">
        <ele>253.5</ele>
        <time>2019-08-09T18:25:53Z</time>
      </trkpt>
      <trkpt lat="47.95717" lon="7.24138">
        <ele>253.6</ele>
        <time>2019-08-09T18:25:54Z</time>
      </trkpt>
      <trkpt lat="47.95713" lon="7.24139">
        <ele>253.6</ele>
        <time>2019-08-09T18:25:55Z</time>
      </trkpt>
      <trkpt lat="47.95709" lon="7.2414">
        <ele>253.6</ele>
        <time>2019-08-09T18:25:56Z</time>
      </trkpt>
      <trkpt lat="47.95706" lon="7.24141">
        <ele>253.7</ele>
        <time>2019-08-09T18:25:57Z</time>
      </trkpt>
      <trkpt lat="47.95703" lon="7.24142">
        <ele>253.7</ele>
        <time>2019-08-09T18:25:58Z</time>
      </trkpt>
      <trkpt lat="47.95699" lon="7.24143">
        <ele>253.7</ele>
        <time>2019-08-09T18:25:59Z</time>
      </trkpt>
      <trkpt lat="47.95696" lon="7.24144">
        <ele>253.8</ele>
        <time>2019-08-09T18:26:00Z</time>
      </trkpt>
      <trkpt lat="47.95691" lon="7.24144">
        <ele>253.9</ele>
        <time>2019-08-09T18:26:01Z</time>
      </trkpt>
      <trkpt lat="47.95688" lon="7.24144">
        <ele>254</ele>
        <time>2019-08-09T18:26:02Z</time>
      </trkpt>
      <trkpt lat="47.95684" lon="7.24145">
        <ele>254</ele>
        <time>2019-08-09T18:26:03Z</time>
      </trkpt>
      <trkpt lat="47.95681" lon="7.24145">
        <ele>254.1</ele>
        <time>2019-08-09T18:26:04Z</time>
      </trkpt>
      <trkpt lat="47.95678" lon="7.24146">
        <ele>254.1</ele>
        <time>2019-08-09T18:26:05Z</time>
      </trkpt>
      <trkpt lat="47.95675" lon="7.24147">
        <ele>254.2</ele>
        <time>2019-08-09T18:26:06Z</time>
      </trkpt>
      <trkpt lat="47.95672" lon="7.24148">
        <ele>254.3</ele>
        <time>2019-08-09T18:26:07Z</time>
      </trkpt>
      <trkpt lat="47.95668" lon="7.24149">
        <ele>254.3</ele>
        <time>2019-08-09T18:26:08Z</time>
      </trkpt>
      <trkpt lat="47.95665" lon="7.2415">
        <ele>254.4</ele>
        <time>2019-08-09T18:26:09Z</time>
      </trkpt>
      <trkpt lat="47.95661" lon="7.24151">
        <ele>254.4</ele>
        <time>2019-08-09T18:26:10Z</time>
      </trkpt>
      <trkpt lat="47.95658" lon="7.24152">
        <ele>254.4</ele>
        <time>2019-08-09T18:26:11Z</time>
      </trkpt>
      <trkpt lat="47.95655" lon="7.24153">
        <ele>254.5</ele>
        <time>2019-08-09T18:26:12Z</time>
      </trkpt>
      <trkpt lat="47.95651" lon="7.24154">
        <ele>254.5</ele>
        <time>2019-08-09T18:26:13Z</time>
      </trkpt>
      <trkpt lat="47.95647" lon="7.24155">
        <ele>254.5</ele>
        <time>2019-08-09T18:26:14Z</time>
      </trkpt>
      <trkpt lat="47.95644" lon="7.24156">
        <ele>254.6</ele>
        <time>2019-08-09T18:26:15Z</time>
      </trkpt>
      <trkpt lat="47.9564" lon="7.24156">
        <ele>254.6</ele>
        <time>2019-08-09T18:26:16Z</time>
      </trkpt>
      <trkpt lat="47.95637" lon="7.24157">
        <ele>254.7</ele>
        <time>2019-08-09T18:26:17Z</time>
      </trkpt>
      <trkpt lat="47.95633" lon="7.24158">
        <ele>254.8</ele>
        <time>2019-08-09T18:26:18Z</time>
      </trkpt>
      <trkpt lat="47.9563" lon="7.24159">
        <ele>254.9</ele>
        <time>2019-08-09T18:26:19Z</time>
      </trkpt>
      <trkpt lat="47.95627" lon="7.24159">
        <ele>255</ele>
        <time>2019-08-09T18:26:20Z</time>
      </trkpt>
      <trkpt lat="47.95624" lon="7.2416">
        <ele>255.1</ele>
        <time>2019-08-09T18:26:21Z</time>
      </trkpt>
      <trkpt lat="47.95621" lon="7.2416">
        <ele>255.3</ele>
        <time>2019-08-09T18:26:22Z</time>
      </trkpt>
      <trkpt lat="47.95618" lon="7.2416">
        <ele>255.4</ele>
        <time>2019-08-09T18:26:23Z</time>
      </trkpt>
      <trkpt lat="47.95613" lon="7.24157">
        <ele>255.8</ele>
        <time>2019-08-09T18:26:25Z</time>
      </trkpt>
      <trkpt lat="47.95611" lon="7.24151">
        <ele>256.3</ele>
        <time>2019-08-09T18:26:27Z</time>
      </trkpt>
      <trkpt lat="47.95609" lon="7.24144">
        <ele>256.8</ele>
        <time>2019-08-09T18:26:29Z</time>
      </trkpt>
      <trkpt lat="47.95607" lon="7.24137">
        <ele>257.4</ele>
        <time>2019-08-09T18:26:31Z</time>
      </trkpt>
      <trkpt lat="47.95605" lon="7.2413">
        <ele>258</ele>
        <time>2019-08-09T18:26:33Z</time>
      </trkpt>
      <trkpt lat="47.95602" lon="7.24123">
        <ele>258.5</ele>
        <time>2019-08-09T18:26:35Z</time>
      </trkpt>
      <trkpt lat="47.956" lon="7.24116">
        <ele>258.9</ele>
        <time>2019-08-09T18:26:37Z</time>
      </trkpt>
      <trkpt lat="47.95598" lon="7.2411">
        <ele>259.3</ele>
        <time>2019-08-09T18:26:39Z</time>
      </trkpt>
      <trkpt lat="47.95595" lon="7.24104">
        <ele>259.7</ele>
        <time>2019-08-09T18:26:41Z</time>
      </trkpt>
      <trkpt lat="47.95591" lon="7.24099">
        <ele>260.2</ele>
        <time>2019-08-09T18:26:43Z</time>
      </trkpt>
      <trkpt lat="47.95588" lon="7.24095">
        <ele>260.6</ele>
        <time>2019-08-09T18:26:45Z</time>
      </trkpt>
      <trkpt lat="47.95586" lon="7.24092">
        <ele>260.9</ele>
        <time>2019-08-09T18:26:46Z</time>
      </trkpt>
      <trkpt lat="47.95582" lon="7.24088">
        <ele>261.4</ele>
        <time>2019-08-09T18:26:48Z</time>
      </trkpt>
      <trkpt lat="47.95577" lon="7.24085">
        <ele>261.9</ele>
        <time>2019-08-09T18:26:50Z</time>
      </trkpt>
      <trkpt lat="47.95573" lon="7.24083">
        <ele>262.4</ele>
        <time>2019-08-09T18:26:52Z</time>
      </trkpt>
      <trkpt lat="47.95569" lon="7.24081">
        <ele>262.8</ele>
        <time>2019-08-09T18:26:54Z</time>
      </trkpt>
      <trkpt lat="47.95566" lon="7.2408">
        <ele>263.1</ele>
        <time>2019-08-09T18:26:55Z</time>
      </trkpt>
      <trkpt lat="47.95563" lon="7.24079">
        <ele>263.4</ele>
        <time>2019-08-09T18:26:56Z</time>
      </trkpt>
      <trkpt lat="47.95558" lon="7.24078">
        <ele>263.9</ele>
        <time>2019-08-09T18:26:58Z</time>
      </trkpt>
      <trkpt lat="47.95553" lon="7.24077">
        <ele>264.3</ele>
        <time>2019-08-09T18:27:00Z</time>
      </trkpt>
      <trkpt lat="47.95548" lon="7.24075">
        <ele>264.8</ele>
        <time>2019-08-09T18:27:02Z</time>
      </trkpt>
      <trkpt lat="47.95543" lon="7.24074">
        <ele>265.1</ele>
        <time>2019-08-09T18:27:04Z</time>
      </trkpt>
      <trkpt lat="47.9554" lon="7.24072">
        <ele>265.3</ele>
        <time>2019-08-09T18:27:06Z</time>
      </trkpt>
      <trkpt lat="47.95537" lon="7.2407">
        <ele>265.5</ele>
        <time>2019-08-09T18:27:08Z</time>
      </trkpt>
      <trkpt lat="47.95534" lon="7.24066">
        <ele>265.8</ele>
        <time>2019-08-09T18:27:10Z</time>
      </trkpt>
      <trkpt lat="47.95531" lon="7.24061">
        <ele>266</ele>
        <time>2019-08-09T18:27:12Z</time>
      </trkpt>
      <trkpt lat="47.95531" lon="7.24056">
        <ele>266.5</ele>
        <time>2019-08-09T18:27:14Z</time>
      </trkpt>
      <trkpt lat="47.9553" lon="7.24049">
        <ele>267.3</ele>
        <time>2019-08-09T18:27:16Z</time>
      </trkpt>
      <trkpt lat="47.95529" lon="7.24043">
        <ele>268</ele>
        <time>2019-08-09T18:27:18Z</time>
      </trkpt>
      <trkpt lat="47.95529" lon="7.24037">
        <ele>268.5</ele>
        <time>2019-08-09T18:27:20Z</time>
      </trkpt>
      <trkpt lat="47.95529" lon="7.24032">
        <ele>268.9</ele>
        <time>2019-08-09T18:27:22Z</time>
      </trkpt>
      <trkpt lat="47.95529" lon="7.24026">
        <ele>269.3</ele>
        <time>2019-08-09T18:27:24Z</time>
      </trkpt>
      <trkpt lat="47.95529" lon="7.2402">
        <ele>269.7</ele>
        <time>2019-08-09T18:27:26Z</time>
      </trkpt>
      <trkpt lat="47.95529" lon="7.24014">
        <ele>270.1</ele>
        <time>2019-08-09T18:27:28Z</time>
      </trkpt>
      <trkpt lat="47.9553" lon="7.24009">
        <ele>270.6</ele>
        <time>2019-08-09T18:27:30Z</time>
      </trkpt>
      <trkpt lat="47.95531" lon="7.24004">
        <ele>271</ele>
        <time>2019-08-09T18:27:32Z</time>
      </trkpt>
      <trkpt lat="47.95532" lon="7.23998">
        <ele>271.4</ele>
        <time>2019-08-09T18:27:34Z</time>
      </trkpt>
      <trkpt lat="47.95532" lon="7.23992">
        <ele>271.9</ele>
        <time>2019-08-09T18:27:36Z</time>
      </trkpt>
      <trkpt lat="47.95534" lon="7.23986">
        <ele>272.3</ele>
        <time>2019-08-09T18:27:38Z</time>
      </trkpt>
      <trkpt lat="47.95535" lon="7.2398">
        <ele>272.8</ele>
        <time>2019-08-09T18:27:40Z</time>
      </trkpt>
      <trkpt lat="47.95536" lon="7.23973">
        <ele>273.4</ele>
        <time>2019-08-09T18:27:42Z</time>
      </trkpt>
      <trkpt lat="47.95538" lon="7.23966">
        <ele>273.9</ele>
        <time>2019-08-09T18:27:44Z</time>
      </trkpt>
      <trkpt lat="47.95539" lon="7.2396">
        <ele>274.2</ele>
        <time>2019-08-09T18:27:46Z</time>
      </trkpt>
      <trkpt lat="47.95541" lon="7.23955">
        <ele>274.5</ele>
        <time>2019-08-09T18:27:48Z</time>
      </trkpt>
      <trkpt lat="47.95542" lon="7.2395">
        <ele>274.8</ele>
        <time>2019-08-09T18:27:50Z</time>
      </trkpt>
      <trkpt lat="47.95544" lon="7.23947">
        <ele>275</ele>
        <time>2019-08-09T18:27:52Z</time>
      </trkpt>
      <trkpt lat="47.95548" lon="7.2394">
        <ele>275.4</ele>
        <time>2019-08-09T18:27:54Z</time>
      </trkpt>
      <trkpt lat="47.9555" lon="7.23938">
        <ele>275.6</ele>
        <time>2019-08-09T18:27:55Z</time>
      </trkpt>
      <trkpt lat="47.95552" lon="7.23932">
        <ele>275.9</ele>
        <time>2019-08-09T18:27:57Z</time>
      </trkpt>
      <trkpt lat="47.95552" lon="7.23927">
        <ele>276.2</ele>
        <time>2019-08-09T18:27:59Z</time>
      </trkpt>
      <trkpt lat="47.95554" lon="7.23922">
        <ele>276.5</ele>
        <time>2019-08-09T18:28:01Z</time>
      </trkpt>
      <trkpt lat="47.95556" lon="7.23916">
        <ele>276.8</ele>
        <time>2019-08-09T18:28:03Z</time>
      </trkpt>
      <trkpt lat="47.95557" lon="7.23911">
        <ele>277</ele>
        <time>2019-08-09T18:28:05Z</time>
      </trkpt>
      <trkpt lat="47.95558" lon="7.23906">
        <ele>277.3</ele>
        <time>2019-08-09T18:28:07Z</time>
      </trkpt>
      <trkpt lat="47.95559" lon="7.23901">
        <ele>277.5</ele>
        <time>2019-08-09T18:28:09Z</time>
      </trkpt>
      <trkpt lat="47.9556" lon="7.23896">
        <ele>277.9</ele>
        <time>2019-08-09T18:28:11Z</time>
      </trkpt>
      <trkpt lat="47.9556" lon="7.2389">
        <ele>278.2</ele>
        <time>2019-08-09T18:28:13Z</time>
      </trkpt>
      <trkpt lat="47.95561" lon="7.23884">
        <ele>278.5</ele>
        <time>2019-08-09T18:28:15Z</time>
      </trkpt>
      <trkpt lat="47.95558" lon="7.23884">
        <ele>278.6</ele>
        <time>2019-08-09T18:28:19Z</time>
      </trkpt>
      <trkpt lat="47.95554" lon="7.23884">
        <ele>278.9</ele>
        <time>2019-08-09T18:28:21Z</time>
      </trkpt>
      <trkpt lat="47.95549" lon="7.23887">
        <ele>278.9</ele>
        <time>2019-08-09T18:28:23Z</time>
      </trkpt>
      <trkpt lat="47.95545" lon="7.23888">
        <ele>279</ele>
        <time>2019-08-09T18:28:25Z</time>
      </trkpt>
      <trkpt lat="47.95541" lon="7.2389">
        <ele>279.1</ele>
        <time>2019-08-09T18:28:27Z</time>
      </trkpt>
      <trkpt lat="47.95537" lon="7.2389">
        <ele>279.2</ele>
        <time>2019-08-09T18:28:29Z</time>
      </trkpt>
      <trkpt lat="47.95532" lon="7.23891">
        <ele>279.3</ele>
        <time>2019-08-09T18:28:31Z</time>
      </trkpt>
      <trkpt lat="47.95527" lon="7.23891">
        <ele>279.4</ele>
        <time>2019-08-09T18:28:33Z</time>
      </trkpt>
      <trkpt lat="47.95522" lon="7.23891">
        <ele>279.4</ele>
        <time>2019-08-09T18:28:35Z</time>
      </trkpt>
      <trkpt lat="47.95519" lon="7.23892">
        <ele>279.5</ele>
        <time>2019-08-09T18:28:37Z</time>
      </trkpt>
      <trkpt lat="47.95515" lon="7.23893">
        <ele>279.5</ele>
        <time>2019-08-09T18:28:39Z</time>
      </trkpt>
      <trkpt lat="47.95514" lon="7.23897">
        <ele>279.6</ele>
        <time>2019-08-09T18:28:41Z</time>
      </trkpt>
      <trkpt lat="47.95511" lon="7.23898">
        <ele>279.6</ele>
        <time>2019-08-09T18:28:43Z</time>
      </trkpt>
      <trkpt lat="47.95506" lon="7.23898">
        <ele>279.7</ele>
        <time>2019-08-09T18:28:45Z</time>
      </trkpt>
      <trkpt lat="47.95503" lon="7.239">
        <ele>279.7</ele>
        <time>2019-08-09T18:28:47Z</time>
      </trkpt>
      <trkpt lat="47.95499" lon="7.23901">
        <ele>279.8</ele>
        <time>2019-08-09T18:28:49Z</time>
      </trkpt>
      <trkpt lat="47.95495" lon="7.239">
        <ele>279.9</ele>
        <time>2019-08-09T18:28:51Z</time>
      </trkpt>
      <trkpt lat="47.95491" lon="7.239">
        <ele>280</ele>
        <time>2019-08-09T18:28:53Z</time>
      </trkpt>
      <trkpt lat="47.95487" lon="7.23901">
        <ele>280.1</ele>
        <time>2019-08-09T18:28:55Z</time>
      </trkpt>
      <trkpt lat="47.95482" lon="7.239">
        <ele>280.2</ele>
        <time>2019-08-09T18:28:57Z</time>
      </trkpt>
      <trkpt lat="47.95479" lon="7.239">
        <ele>280.2</ele>
        <time>2019-08-09T18:28:59Z</time>
      </trkpt>
      <trkpt lat="47.95476" lon="7.239">
        <ele>280.3</ele>
        <time>2019-08-09T18:29:01Z</time>
      </trkpt>
      <trkpt lat="47.95473" lon="7.239">
        <ele>280.5</ele>
        <time>2019-08-09T18:29:03Z</time>
      </trkpt>
      <trkpt lat="47.95469" lon="7.239">
        <ele>280.6</ele>
        <time>2019-08-09T18:29:05Z</time>
      </trkpt>
      <trkpt lat="47.95465" lon="7.23901">
        <ele>280.7</ele>
        <time>2019-08-09T18:29:07Z</time>
      </trkpt>
      <trkpt lat="47.95462" lon="7.23902">
        <ele>280.8</ele>
        <time>2019-08-09T18:29:09Z</time>
      </trkpt>
      <trkpt lat="47.95457" lon="7.23903">
        <ele>280.9</ele>
        <time>2019-08-09T18:29:11Z</time>
      </trkpt>
      <trkpt lat="47.95454" lon="7.23903">
        <ele>281</ele>
        <time>2019-08-09T18:29:12Z</time>
      </trkpt>
      <trkpt lat="47.9545" lon="7.23903">
        <ele>281.1</ele>
        <time>2019-08-09T18:29:14Z</time>
      </trkpt>
      <trkpt lat="47.95446" lon="7.23904">
        <ele>281.2</ele>
        <time>2019-08-09T18:29:16Z</time>
      </trkpt>
      <trkpt lat="47.95442" lon="7.23903">
        <ele>281.3</ele>
        <time>2019-08-09T18:29:18Z</time>
      </trkpt>
      <trkpt lat="47.95439" lon="7.23902">
        <ele>281.4</ele>
        <time>2019-08-09T18:29:20Z</time>
      </trkpt>
      <trkpt lat="47.95435" lon="7.239">
        <ele>281.5</ele>
        <time>2019-08-09T18:29:22Z</time>
      </trkpt>
      <trkpt lat="47.95431" lon="7.23899">
        <ele>281.6</ele>
        <time>2019-08-09T18:29:24Z</time>
      </trkpt>
      <trkpt lat="47.95426" lon="7.23898">
        <ele>281.7</ele>
        <time>2019-08-09T18:29:26Z</time>
      </trkpt>
      <trkpt lat="47.95422" lon="7.23899">
        <ele>281.9</ele>
        <time>2019-08-09T18:29:28Z</time>
      </trkpt>
      <trkpt lat="47.95418" lon="7.23899">
        <ele>282</ele>
        <time>2019-08-09T18:29:30Z</time>
      </trkpt>
      <trkpt lat="47.95415" lon="7.23898">
        <ele>282</ele>
        <time>2019-08-09T18:29:31Z</time>
      </trkpt>
      <trkpt lat="47.95409" lon="7.23897">
        <ele>282.2</ele>
        <time>2019-08-09T18:29:33Z</time>
      </trkpt>
      <trkpt lat="47.95406" lon="7.23896">
        <ele>282.3</ele>
        <time>2019-08-09T18:29:34Z</time>
      </trkpt>
      <trkpt lat="47.95403" lon="7.23896">
        <ele>282.4</ele>
        <time>2019-08-09T18:29:35Z</time>
      </trkpt>
      <trkpt lat="47.95398" lon="7.23896">
        <ele>282.7</ele>
        <time>2019-08-09T18:29:37Z</time>
      </trkpt>
      <trkpt lat="47.95393" lon="7.23896">
        <ele>283</ele>
        <time>2019-08-09T18:29:39Z</time>
      </trkpt>
      <trkpt lat="47.95387" lon="7.23895">
        <ele>283.4</ele>
        <time>2019-08-09T18:29:41Z</time>
      </trkpt>
      <trkpt lat="47.95383" lon="7.23896">
        <ele>283.6</ele>
        <time>2019-08-09T18:29:43Z</time>
      </trkpt>
      <trkpt lat="47.95378" lon="7.23897">
        <ele>283.9</ele>
        <time>2019-08-09T18:29:45Z</time>
      </trkpt>
      <trkpt lat="47.95373" lon="7.23896">
        <ele>284.1</ele>
        <time>2019-08-09T18:29:47Z</time>
      </trkpt>
      <trkpt lat="47.9537" lon="7.23896">
        <ele>284.3</ele>
        <time>2019-08-09T18:29:48Z</time>
      </trkpt>
      <trkpt lat="47.95366" lon="7.23894">
        <ele>284.4</ele>
        <time>2019-08-09T18:29:50Z</time>
      </trkpt>
      <trkpt lat="47.95362" lon="7.23891">
        <ele>284.7</ele>
        <time>2019-08-09T18:29:52Z</time>
      </trkpt>
      <trkpt lat="47.95357" lon="7.23888">
        <ele>285</ele>
        <time>2019-08-09T18:29:54Z</time>
      </trkpt>
      <trkpt lat="47.95352" lon="7.23886">
        <ele>285.4</ele>
        <time>2019-08-09T18:29:56Z</time>
      </trkpt>
      <trkpt lat="47.95348" lon="7.23884">
        <ele>285.6</ele>
        <time>2019-08-09T18:29:58Z</time>
      </trkpt>
      <trkpt lat="47.95344" lon="7.23882">
        <ele>285.9</ele>
        <time>2019-08-09T18:30:00Z</time>
      </trkpt>
      <trkpt lat="47.9534" lon="7.23879">
        <ele>286.1</ele>
        <time>2019-08-09T18:30:02Z</time>
      </trkpt>
      <trkpt lat="47.95336" lon="7.23876">
        <ele>286.4</ele>
        <time>2019-08-09T18:30:04Z</time>
      </trkpt>
      <trkpt lat="47.95333" lon="7.23875">
        <ele>286.7</ele>
        <time>2019-08-09T18:30:06Z</time>
      </trkpt>
      <trkpt lat="47.95329" lon="7.23872">
        <ele>287.1</ele>
        <time>2019-08-09T18:30:08Z</time>
      </trkpt>
      <trkpt lat="47.95325" lon="7.23871">
        <ele>287.4</ele>
        <time>2019-08-09T18:30:10Z</time>
      </trkpt>
      <trkpt lat="47.95321" lon="7.2387">
        <ele>287.8</ele>
        <time>2019-08-09T18:30:12Z</time>
      </trkpt>
      <trkpt lat="47.95315" lon="7.23869">
        <ele>288.3</ele>
        <time>2019-08-09T18:30:14Z</time>
      </trkpt>
      <trkpt lat="47.95312" lon="7.23869">
        <ele>288.6</ele>
        <time>2019-08-09T18:30:15Z</time>
      </trkpt>
      <trkpt lat="47.95308" lon="7.23869">
        <ele>289</ele>
        <time>2019-08-09T18:30:17Z</time>
      </trkpt>
      <trkpt lat="47.95303" lon="7.2387">
        <ele>289.4</ele>
        <time>2019-08-09T18:30:19Z</time>
      </trkpt>
      <trkpt lat="47.95299" lon="7.23871">
        <ele>289.8</ele>
        <time>2019-08-09T18:30:21Z</time>
      </trkpt>
      <trkpt lat="47.95294" lon="7.23871">
        <ele>290.1</ele>
        <time>2019-08-09T18:30:23Z</time>
      </trkpt>
      <trkpt lat="47.95289" lon="7.23872">
        <ele>290.5</ele>
        <time>2019-08-09T18:30:25Z</time>
      </trkpt>
      <trkpt lat="47.95285" lon="7.23873">
        <ele>290.8</ele>
        <time>2019-08-09T18:30:27Z</time>
      </trkpt>
      <trkpt lat="47.95281" lon="7.23874">
        <ele>291</ele>
        <time>2019-08-09T18:30:30Z</time>
      </trkpt>
      <trkpt lat="47.95277" lon="7.23877">
        <ele>291.4</ele>
        <time>2019-08-09T18:30:32Z</time>
      </trkpt>
      <trkpt lat="47.95272" lon="7.23878">
        <ele>291.7</ele>
        <time>2019-08-09T18:30:34Z</time>
      </trkpt>
      <trkpt lat="47.95269" lon="7.23878">
        <ele>291.9</ele>
        <time>2019-08-09T18:30:35Z</time>
      </trkpt>
      <trkpt lat="47.95266" lon="7.23881">
        <ele>292</ele>
        <time>2019-08-09T18:30:37Z</time>
      </trkpt>
      <trkpt lat="47.95264" lon="7.23884">
        <ele>292.1</ele>
        <time>2019-08-09T18:30:41Z</time>
      </trkpt>
      <trkpt lat="47.95263" lon="7.2389">
        <ele>292.3</ele>
        <time>2019-08-09T18:30:43Z</time>
      </trkpt>
      <trkpt lat="47.95261" lon="7.23887">
        <ele>292.4</ele>
        <time>2019-08-09T18:30:54Z</time>
      </trkpt>
      <trkpt lat="47.95259" lon="7.23884">
        <ele>292.5</ele>
        <time>2019-08-09T18:30:57Z</time>
      </trkpt>
      <trkpt lat="47.95258" lon="7.23879">
        <ele>292.6</ele>
        <time>2019-08-09T18:31:01Z</time>
      </trkpt>
      <trkpt lat="47.95261" lon="7.2388">
        <ele>292.7</ele>
        <time>2019-08-09T18:31:06Z</time>
      </trkpt>
      <trkpt lat="47.95259" lon="7.23884">
        <ele>292.8</ele>
        <time>2019-08-09T18:31:49Z</time>
      </trkpt>
      <trkpt lat="47.95261" lon="7.23881">
        <ele>293</ele>
        <time>2019-08-09T18:31:53Z</time>
      </trkpt>
      <trkpt lat="47.95263" lon="7.23883">
        <ele>293.1</ele>
        <time>2019-08-09T18:32:11Z</time>
      </trkpt>
      <trkpt lat="47.95265" lon="7.23886">
        <ele>293.2</ele>
        <time>2019-08-09T18:32:24Z</time>
      </trkpt>
      <trkpt lat="47.95262" lon="7.23886">
        <ele>293.4</ele>
        <time>2019-08-09T18:32:34Z</time>
      </trkpt>
      <trkpt lat="47.95258" lon="7.23889">
        <ele>293.6</ele>
        <time>2019-08-09T18:32:36Z</time>
      </trkpt>
      <trkpt lat="47.95255" lon="7.23891">
        <ele>293.7</ele>
        <time>2019-08-09T18:32:38Z</time>
      </trkpt>
      <trkpt lat="47.95253" lon="7.23893">
        <ele>293.8</ele>
        <time>2019-08-09T18:32:40Z</time>
      </trkpt>
      <trkpt lat="47.9525" lon="7.23896">
        <ele>293.8</ele>
        <time>2019-08-09T18:32:42Z</time>
      </trkpt>
      <trkpt lat="47.95245" lon="7.23899">
        <ele>293.9</ele>
        <time>2019-08-09T18:32:44Z</time>
      </trkpt>
      <trkpt lat="47.95242" lon="7.23901">
        <ele>294</ele>
        <time>2019-08-09T18:32:45Z</time>
      </trkpt>
      <trkpt lat="47.9524" lon="7.23903">
        <ele>294.1</ele>
        <time>2019-08-09T18:32:46Z</time>
      </trkpt>
      <trkpt lat="47.95237" lon="7.23905">
        <ele>294.1</ele>
        <time>2019-08-09T18:32:47Z</time>
      </trkpt>
      <trkpt lat="47.95233" lon="7.23907">
        <ele>294.1</ele>
        <time>2019-08-09T18:32:48Z</time>
      </trkpt>
      <trkpt lat="47.9523" lon="7.23909">
        <ele>294.2</ele>
        <time>2019-08-09T18:32:49Z</time>
      </trkpt>
      <trkpt lat="47.95226" lon="7.23912">
        <ele>294.2</ele>
        <time>2019-08-09T18:32:50Z</time>
      </trkpt>
      <trkpt lat="47.95222" lon="7.23915">
        <ele>294.2</ele>
        <time>2019-08-09T18:32:51Z</time>
      </trkpt>
      <trkpt lat="47.95219" lon="7.23919">
        <ele>294.2</ele>
        <time>2019-08-09T18:32:52Z</time>
      </trkpt>
      <trkpt lat="47.95215" lon="7.23923">
        <ele>294.3</ele>
        <time>2019-08-09T18:32:53Z</time>
      </trkpt>
      <trkpt lat="47.95211" lon="7.23926">
        <ele>294.3</ele>
        <time>2019-08-09T18:32:54Z</time>
      </trkpt>
      <trkpt lat="47.95206" lon="7.23929">
        <ele>294.2</ele>
        <time>2019-08-09T18:32:55Z</time>
      </trkpt>
      <trkpt lat="47.95201" lon="7.23931">
        <ele>294.2</ele>
        <time>2019-08-09T18:32:56Z</time>
      </trkpt>
      <trkpt lat="47.95196" lon="7.23933">
        <ele>294.2</ele>
        <time>2019-08-09T18:32:57Z</time>
      </trkpt>
      <trkpt lat="47.95191" lon="7.23935">
        <ele>294.1</ele>
        <time>2019-08-09T18:32:58Z</time>
      </trkpt>
      <trkpt lat="47.95186" lon="7.23938">
        <ele>294</ele>
        <time>2019-08-09T18:32:59Z</time>
      </trkpt>
      <trkpt lat="47.95181" lon="7.23941">
        <ele>294</ele>
        <time>2019-08-09T18:33:00Z</time>
      </trkpt>
      <trkpt lat="47.95176" lon="7.23944">
        <ele>293.9</ele>
        <time>2019-08-09T18:33:01Z</time>
      </trkpt>
      <trkpt lat="47.9517" lon="7.23948">
        <ele>293.9</ele>
        <time>2019-08-09T18:33:02Z</time>
      </trkpt>
      <trkpt lat="47.95165" lon="7.23951">
        <ele>293.7</ele>
        <time>2019-08-09T18:33:03Z</time>
      </trkpt>
      <trkpt lat="47.9516" lon="7.23955">
        <ele>293.4</ele>
        <time>2019-08-09T18:33:04Z</time>
      </trkpt>
      <trkpt lat="47.95155" lon="7.23957">
        <ele>293.2</ele>
        <time>2019-08-09T18:33:05Z</time>
      </trkpt>
      <trkpt lat="47.9515" lon="7.23959">
        <ele>292.9</ele>
        <time>2019-08-09T18:33:06Z</time>
      </trkpt>
      <trkpt lat="47.95144" lon="7.23961">
        <ele>292.7</ele>
        <time>2019-08-09T18:33:07Z</time>
      </trkpt>
      <trkpt lat="47.95137" lon="7.23963">
        <ele>292.4</ele>
        <time>2019-08-09T18:33:08Z</time>
      </trkpt>
      <trkpt lat="47.95131" lon="7.23965">
        <ele>292.3</ele>
        <time>2019-08-09T18:33:09Z</time>
      </trkpt>
      <trkpt lat="47.95125" lon="7.23966">
        <ele>292.2</ele>
        <time>2019-08-09T18:33:10Z</time>
      </trkpt>
      <trkpt lat="47.95118" lon="7.23968">
        <ele>292.2</ele>
        <time>2019-08-09T18:33:11Z</time>
      </trkpt>
      <trkpt lat="47.95113" lon="7.23968">
        <ele>292.3</ele>
        <time>2019-08-09T18:33:12Z</time>
      </trkpt>
      <trkpt lat="47.95108" lon="7.23966">
        <ele>292.5</ele>
        <time>2019-08-09T18:33:13Z</time>
      </trkpt>
      <trkpt lat="47.95103" lon="7.23965">
        <ele>292.6</ele>
        <time>2019-08-09T18:33:14Z</time>
      </trkpt>
      <trkpt lat="47.95097" lon="7.23965">
        <ele>292.9</ele>
        <time>2019-08-09T18:33:15Z</time>
      </trkpt>
      <trkpt lat="47.95092" lon="7.23967">
        <ele>293.1</ele>
        <time>2019-08-09T18:33:16Z</time>
      </trkpt>
      <trkpt lat="47.95089" lon="7.2397">
        <ele>293.2</ele>
        <time>2019-08-09T18:33:17Z</time>
      </trkpt>
      <trkpt lat="47.95084" lon="7.23974">
        <ele>293.5</ele>
        <time>2019-08-09T18:33:18Z</time>
      </trkpt>
      <trkpt lat="47.9508" lon="7.23977">
        <ele>293.7</ele>
        <time>2019-08-09T18:33:19Z</time>
      </trkpt>
      <trkpt lat="47.95077" lon="7.2398">
        <ele>293.8</ele>
        <time>2019-08-09T18:33:20Z</time>
      </trkpt>
      <trkpt lat="47.95074" lon="7.23984">
        <ele>294</ele>
        <time>2019-08-09T18:33:21Z</time>
      </trkpt>
      <trkpt lat="47.9507" lon="7.23987">
        <ele>294.1</ele>
        <time>2019-08-09T18:33:22Z</time>
      </trkpt>
      <trkpt lat="47.95067" lon="7.23989">
        <ele>294.2</ele>
        <time>2019-08-09T18:33:23Z</time>
      </trkpt>
      <trkpt lat="47.95064" lon="7.23992">
        <ele>294.4</ele>
        <time>2019-08-09T18:33:24Z</time>
      </trkpt>
      <trkpt lat="47.9506" lon="7.23995">
        <ele>294.5</ele>
        <time>2019-08-09T18:33:25Z</time>
      </trkpt>
      <trkpt lat="47.95057" lon="7.23998">
        <ele>294.7</ele>
        <time>2019-08-09T18:33:26Z</time>
      </trkpt>
      <trkpt lat="47.95053" lon="7.24">
        <ele>294.9</ele>
        <time>2019-08-09T18:33:27Z</time>
      </trkpt>
      <trkpt lat="47.9505" lon="7.24002">
        <ele>295</ele>
        <time>2019-08-09T18:33:28Z</time>
      </trkpt>
      <trkpt lat="47.95046" lon="7.24004">
        <ele>295.2</ele>
        <time>2019-08-09T18:33:29Z</time>
      </trkpt>
      <trkpt lat="47.95042" lon="7.24005">
        <ele>295.4</ele>
        <time>2019-08-09T18:33:30Z</time>
      </trkpt>
      <trkpt lat="47.95038" lon="7.24007">
        <ele>295.6</ele>
        <time>2019-08-09T18:33:31Z</time>
      </trkpt>
      <trkpt lat="47.95035" lon="7.24008">
        <ele>295.8</ele>
        <time>2019-08-09T18:33:32Z</time>
      </trkpt>
      <trkpt lat="47.95032" lon="7.24008">
        <ele>296</ele>
        <time>2019-08-09T18:33:33Z</time>
      </trkpt>
      <trkpt lat="47.95027" lon="7.24008">
        <ele>296.3</ele>
        <time>2019-08-09T18:33:35Z</time>
      </trkpt>
      <trkpt lat="47.95022" lon="7.24009">
        <ele>296.6</ele>
        <time>2019-08-09T18:33:37Z</time>
      </trkpt>
      <trkpt lat="47.95017" lon="7.2401">
        <ele>296.9</ele>
        <time>2019-08-09T18:33:39Z</time>
      </trkpt>
      <trkpt lat="47.95012" lon="7.2401">
        <ele>297.3</ele>
        <time>2019-08-09T18:33:41Z</time>
      </trkpt>
      <trkpt lat="47.95009" lon="7.2401">
        <ele>297.5</ele>
        <time>2019-08-09T18:33:42Z</time>
      </trkpt>
      <trkpt lat="47.95004" lon="7.2401">
        <ele>297.9</ele>
        <time>2019-08-09T18:33:44Z</time>
      </trkpt>
      <trkpt lat="47.95002" lon="7.24011">
        <ele>298.1</ele>
        <time>2019-08-09T18:33:45Z</time>
      </trkpt>
      <trkpt lat="47.94997" lon="7.2401">
        <ele>298.4</ele>
        <time>2019-08-09T18:33:47Z</time>
      </trkpt>
      <trkpt lat="47.94992" lon="7.24009">
        <ele>298.7</ele>
        <time>2019-08-09T18:33:49Z</time>
      </trkpt>
      <trkpt lat="47.94989" lon="7.24009">
        <ele>298.9</ele>
        <time>2019-08-09T18:33:50Z</time>
      </trkpt>
      <trkpt lat="47.94986" lon="7.24009">
        <ele>299</ele>
        <time>2019-08-09T18:33:51Z</time>
      </trkpt>
      <trkpt lat="47.94983" lon="7.24009">
        <ele>299.2</ele>
        <time>2019-08-09T18:33:52Z</time>
      </trkpt>
      <trkpt lat="47.94981" lon="7.24009">
        <ele>299.3</ele>
        <time>2019-08-09T18:33:53Z</time>
      </trkpt>
      <trkpt lat="47.94978" lon="7.24008">
        <ele>299.5</ele>
        <time>2019-08-09T18:33:54Z</time>
      </trkpt>
      <trkpt lat="47.94974" lon="7.24005">
        <ele>299.7</ele>
        <time>2019-08-09T18:33:56Z</time>
      </trkpt>
      <trkpt lat="47.9497" lon="7.24002">
        <ele>300</ele>
        <time>2019-08-09T18:33:58Z</time>
      </trkpt>
      <trkpt lat="47.94965" lon="7.24">
        <ele>300.3</ele>
        <time>2019-08-09T18:34:00Z</time>
      </trkpt>
      <trkpt lat="47.94962" lon="7.23998">
        <ele>300.5</ele>
        <time>2019-08-09T18:34:01Z</time>
      </trkpt>
      <trkpt lat="47.94959" lon="7.23995">
        <ele>300.7</ele>
        <time>2019-08-09T18:34:02Z</time>
      </trkpt>
      <trkpt lat="47.94954" lon="7.23992">
        <ele>300.9</ele>
        <time>2019-08-09T18:34:04Z</time>
      </trkpt>
      <trkpt lat="47.94951" lon="7.2399">
        <ele>301.1</ele>
        <time>2019-08-09T18:34:05Z</time>
      </trkpt>
      <trkpt lat="47.94948" lon="7.23988">
        <ele>301.2</ele>
        <time>2019-08-09T18:34:06Z</time>
      </trkpt>
      <trkpt lat="47.94946" lon="7.23987">
        <ele>301.3</ele>
        <time>2019-08-09T18:34:07Z</time>
      </trkpt>
      <trkpt lat="47.94942" lon="7.23985">
        <ele>301.5</ele>
        <time>2019-08-09T18:34:09Z</time>
      </trkpt>
      <trkpt lat="47.9494" lon="7.23982">
        <ele>301.6</ele>
        <time>2019-08-09T18:34:10Z</time>
      </trkpt>
      <trkpt lat="47.94935" lon="7.23979">
        <ele>301.8</ele>
        <time>2019-08-09T18:34:12Z</time>
      </trkpt>
      <trkpt lat="47.94931" lon="7.23977">
        <ele>301.9</ele>
        <time>2019-08-09T18:34:14Z</time>
      </trkpt>
      <trkpt lat="47.94926" lon="7.23976">
        <ele>302</ele>
        <time>2019-08-09T18:34:16Z</time>
      </trkpt>
      <trkpt lat="47.94923" lon="7.23975">
        <ele>302</ele>
        <time>2019-08-09T18:34:17Z</time>
      </trkpt>
      <trkpt lat="47.94917" lon="7.23972">
        <ele>302.1</ele>
        <time>2019-08-09T18:34:19Z</time>
      </trkpt>
      <trkpt lat="47.94914" lon="7.2397">
        <ele>302.1</ele>
        <time>2019-08-09T18:34:20Z</time>
      </trkpt>
      <trkpt lat="47.94911" lon="7.23969">
        <ele>302.2</ele>
        <time>2019-08-09T18:34:21Z</time>
      </trkpt>
      <trkpt lat="47.94908" lon="7.23968">
        <ele>302.2</ele>
        <time>2019-08-09T18:34:22Z</time>
      </trkpt>
      <trkpt lat="47.94903" lon="7.23966">
        <ele>302.3</ele>
        <time>2019-08-09T18:34:24Z</time>
      </trkpt>
      <trkpt lat="47.94901" lon="7.23965">
        <ele>302.4</ele>
        <time>2019-08-09T18:34:25Z</time>
      </trkpt>
      <trkpt lat="47.94898" lon="7.23963">
        <ele>302.4</ele>
        <time>2019-08-09T18:34:26Z</time>
      </trkpt>
      <trkpt lat="47.94895" lon="7.23962">
        <ele>302.5</ele>
        <time>2019-08-09T18:34:27Z</time>
      </trkpt>
      <trkpt lat="47.94892" lon="7.23961">
        <ele>302.6</ele>
        <time>2019-08-09T18:34:28Z</time>
      </trkpt>
      <trkpt lat="47.94887" lon="7.23961">
        <ele>302.7</ele>
        <time>2019-08-09T18:34:30Z</time>
      </trkpt>
      <trkpt lat="47.94883" lon="7.2396">
        <ele>302.8</ele>
        <time>2019-08-09T18:34:32Z</time>
      </trkpt>
      <trkpt lat="47.94879" lon="7.2396">
        <ele>302.9</ele>
        <time>2019-08-09T18:34:34Z</time>
      </trkpt>
      <trkpt lat="47.94874" lon="7.23958">
        <ele>302.9</ele>
        <time>2019-08-09T18:34:36Z</time>
      </trkpt>
      <trkpt lat="47.94871" lon="7.23955">
        <ele>303</ele>
        <time>2019-08-09T18:34:38Z</time>
      </trkpt>
      <trkpt lat="47.94868" lon="7.23951">
        <ele>303.1</ele>
        <time>2019-08-09T18:34:41Z</time>
      </trkpt>
      <trkpt lat="47.94864" lon="7.2395">
        <ele>303.3</ele>
        <time>2019-08-09T18:34:43Z</time>
      </trkpt>
      <trkpt lat="47.94861" lon="7.23948">
        <ele>303.4</ele>
        <time>2019-08-09T18:34:45Z</time>
      </trkpt>
      <trkpt lat="47.94858" lon="7.23946">
        <ele>303.6</ele>
        <time>2019-08-09T18:34:47Z</time>
      </trkpt>
      <trkpt lat="47.94855" lon="7.23943">
        <ele>303.7</ele>
        <time>2019-08-09T18:34:49Z</time>
      </trkpt>
      <trkpt lat="47.94852" lon="7.23941">
        <ele>303.8</ele>
        <time>2019-08-09T18:34:51Z</time>
      </trkpt>
      <trkpt lat="47.94848" lon="7.23938">
        <ele>303.9</ele>
        <time>2019-08-09T18:34:53Z</time>
      </trkpt>
      <trkpt lat="47.94845" lon="7.23933">
        <ele>304.1</ele>
        <time>2019-08-09T18:34:55Z</time>
      </trkpt>
      <trkpt lat="47.94842" lon="7.23932">
        <ele>304.2</ele>
        <time>2019-08-09T18:34:57Z</time>
      </trkpt>
      <trkpt lat="47.94839" lon="7.23929">
        <ele>304.3</ele>
        <time>2019-08-09T18:34:59Z</time>
      </trkpt>
      <trkpt lat="47.94836" lon="7.23926">
        <ele>304.3</ele>
        <time>2019-08-09T18:35:01Z</time>
      </trkpt>
      <trkpt lat="47.94834" lon="7.23924">
        <ele>304.2</ele>
        <time>2019-08-09T18:35:19Z</time>
      </trkpt>
      <trkpt lat="47.94827" lon="7.23924">
        <ele>304.2</ele>
        <time>2019-08-09T18:35:21Z</time>
      </trkpt>
      <trkpt lat="47.94824" lon="7.23922">
        <ele>304.1</ele>
        <time>2019-08-09T18:35:22Z</time>
      </trkpt>
      <trkpt lat="47.94819" lon="7.23921">
        <ele>304.1</ele>
        <time>2019-08-09T18:35:23Z</time>
      </trkpt>
      <trkpt lat="47.94815" lon="7.23921">
        <ele>304</ele>
        <time>2019-08-09T18:35:24Z</time>
      </trkpt>
      <trkpt lat="47.94811" lon="7.23921">
        <ele>303.9</ele>
        <time>2019-08-09T18:35:25Z</time>
      </trkpt>
      <trkpt lat="47.94807" lon="7.23921">
        <ele>303.7</ele>
        <time>2019-08-09T18:35:26Z</time>
      </trkpt>
      <trkpt lat="47.94803" lon="7.2392">
        <ele>303.5</ele>
        <time>2019-08-09T18:35:27Z</time>
      </trkpt>
      <trkpt lat="47.94798" lon="7.23918">
        <ele>303.2</ele>
        <time>2019-08-09T18:35:28Z</time>
      </trkpt>
      <trkpt lat="47.94794" lon="7.23916">
        <ele>302.9</ele>
        <time>2019-08-09T18:35:29Z</time>
      </trkpt>
      <trkpt lat="47.94789" lon="7.23913">
        <ele>302.5</ele>
        <time>2019-08-09T18:35:30Z</time>
      </trkpt>
      <trkpt lat="47.94784" lon="7.2391">
        <ele>302.1</ele>
        <time>2019-08-09T18:35:31Z</time>
      </trkpt>
      <trkpt lat="47.94779" lon="7.23909">
        <ele>301.7</ele>
        <time>2019-08-09T18:35:32Z</time>
      </trkpt>
      <trkpt lat="47.94775" lon="7.23906">
        <ele>301.3</ele>
        <time>2019-08-09T18:35:33Z</time>
      </trkpt>
      <trkpt lat="47.9477" lon="7.23903">
        <ele>301</ele>
        <time>2019-08-09T18:35:34Z</time>
      </trkpt>
      <trkpt lat="47.94766" lon="7.239">
        <ele>300.7</ele>
        <time>2019-08-09T18:35:35Z</time>
      </trkpt>
      <trkpt lat="47.94762" lon="7.23897">
        <ele>300.4</ele>
        <time>2019-08-09T18:35:36Z</time>
      </trkpt>
      <trkpt lat="47.94757" lon="7.23895">
        <ele>300.1</ele>
        <time>2019-08-09T18:35:37Z</time>
      </trkpt>
      <trkpt lat="47.94752" lon="7.23892">
        <ele>299.8</ele>
        <time>2019-08-09T18:35:38Z</time>
      </trkpt>
      <trkpt lat="47.94748" lon="7.2389">
        <ele>299.6</ele>
        <time>2019-08-09T18:35:39Z</time>
      </trkpt>
      <trkpt lat="47.94743" lon="7.23888">
        <ele>299.5</ele>
        <time>2019-08-09T18:35:40Z</time>
      </trkpt>
      <trkpt lat="47.94738" lon="7.23886">
        <ele>299.3</ele>
        <time>2019-08-09T18:35:41Z</time>
      </trkpt>
      <trkpt lat="47.94734" lon="7.23882">
        <ele>299.1</ele>
        <time>2019-08-09T18:35:42Z</time>
      </trkpt>
      <trkpt lat="47.9473" lon="7.23878">
        <ele>299</ele>
        <time>2019-08-09T18:35:43Z</time>
      </trkpt>
      <trkpt lat="47.94726" lon="7.23873">
        <ele>298.9</ele>
        <time>2019-08-09T18:35:44Z</time>
      </trkpt>
      <trkpt lat="47.94723" lon="7.23869">
        <ele>298.8</ele>
        <time>2019-08-09T18:35:45Z</time>
      </trkpt>
      <trkpt lat="47.94719" lon="7.23866">
        <ele>298.6</ele>
        <time>2019-08-09T18:35:46Z</time>
      </trkpt>
      <trkpt lat="47.94715" lon="7.23862">
        <ele>298.5</ele>
        <time>2019-08-09T18:35:47Z</time>
      </trkpt>
      <trkpt lat="47.94712" lon="7.23859">
        <ele>298.5</ele>
        <time>2019-08-09T18:35:48Z</time>
      </trkpt>
      <trkpt lat="47.94709" lon="7.23856">
        <ele>298.4</ele>
        <time>2019-08-09T18:35:49Z</time>
      </trkpt>
      <trkpt lat="47.94706" lon="7.23853">
        <ele>298.3</ele>
        <time>2019-08-09T18:35:50Z</time>
      </trkpt>
      <trkpt lat="47.94703" lon="7.2385">
        <ele>298.2</ele>
        <time>2019-08-09T18:35:51Z</time>
      </trkpt>
      <trkpt lat="47.947" lon="7.23847">
        <ele>298.2</ele>
        <time>2019-08-09T18:35:52Z</time>
      </trkpt>
      <trkpt lat="47.94697" lon="7.23844">
        <ele>298.1</ele>
        <time>2019-08-09T18:35:53Z</time>
      </trkpt>
      <trkpt lat="47.94695" lon="7.23841">
        <ele>298.1</ele>
        <time>2019-08-09T18:35:54Z</time>
      </trkpt>
      <trkpt lat="47.94692" lon="7.23839">
        <ele>298</ele>
        <time>2019-08-09T18:35:55Z</time>
      </trkpt>
      <trkpt lat="47.94689" lon="7.23835">
        <ele>298</ele>
        <time>2019-08-09T18:35:57Z</time>
      </trkpt>
      <trkpt lat="47.94687" lon="7.23832">
        <ele>298</ele>
        <time>2019-08-09T18:35:58Z</time>
      </trkpt>
      <trkpt lat="47.94684" lon="7.23829">
        <ele>297.9</ele>
        <time>2019-08-09T18:35:59Z</time>
      </trkpt>
      <trkpt lat="47.94682" lon="7.23827">
        <ele>297.9</ele>
        <time>2019-08-09T18:36:00Z</time>
      </trkpt>
      <trkpt lat="47.94679" lon="7.23825">
        <ele>297.9</ele>
        <time>2019-08-09T18:36:01Z</time>
      </trkpt>
      <trkpt lat="47.94675" lon="7.23823">
        <ele>297.9</ele>
        <time>2019-08-09T18:36:02Z</time>
      </trkpt>
      <trkpt lat="47.9467" lon="7.23819">
        <ele>297.8</ele>
        <time>2019-08-09T18:36:03Z</time>
      </trkpt>
      <trkpt lat="47.94667" lon="7.23816">
        <ele>297.8</ele>
        <time>2019-08-09T18:36:04Z</time>
      </trkpt>
      <trkpt lat="47.94663" lon="7.23813">
        <ele>297.7</ele>
        <time>2019-08-09T18:36:05Z</time>
      </trkpt>
      <trkpt lat="47.94659" lon="7.2381">
        <ele>297.7</ele>
        <time>2019-08-09T18:36:06Z</time>
      </trkpt>
      <trkpt lat="47.94655" lon="7.23807">
        <ele>297.6</ele>
        <time>2019-08-09T18:36:07Z</time>
      </trkpt>
      <trkpt lat="47.94652" lon="7.23804">
        <ele>297.6</ele>
        <time>2019-08-09T18:36:08Z</time>
      </trkpt>
      <trkpt lat="47.94647" lon="7.23801">
        <ele>297.5</ele>
        <time>2019-08-09T18:36:09Z</time>
      </trkpt>
      <trkpt lat="47.94644" lon="7.23797">
        <ele>297.4</ele>
        <time>2019-08-09T18:36:10Z</time>
      </trkpt>
      <trkpt lat="47.9464" lon="7.23794">
        <ele>297.3</ele>
        <time>2019-08-09T18:36:11Z</time>
      </trkpt>
      <trkpt lat="47.94636" lon="7.23792">
        <ele>297.2</ele>
        <time>2019-08-09T18:36:12Z</time>
      </trkpt>
      <trkpt lat="47.94631" lon="7.2379">
        <ele>297.1</ele>
        <time>2019-08-09T18:36:13Z</time>
      </trkpt>
      <trkpt lat="47.94627" lon="7.23787">
        <ele>296.9</ele>
        <time>2019-08-09T18:36:14Z</time>
      </trkpt>
      <trkpt lat="47.94623" lon="7.23784">
        <ele>296.8</ele>
        <time>2019-08-09T18:36:15Z</time>
      </trkpt>
      <trkpt lat="47.94618" lon="7.23781">
        <ele>296.6</ele>
        <time>2019-08-09T18:36:16Z</time>
      </trkpt>
      <trkpt lat="47.94613" lon="7.23778">
        <ele>296.5</ele>
        <time>2019-08-09T18:36:17Z</time>
      </trkpt>
      <trkpt lat="47.94608" lon="7.23774">
        <ele>296.4</ele>
        <time>2019-08-09T18:36:18Z</time>
      </trkpt>
      <trkpt lat="47.94603" lon="7.23771">
        <ele>296.3</ele>
        <time>2019-08-09T18:36:19Z</time>
      </trkpt>
      <trkpt lat="47.94598" lon="7.23767">
        <ele>296.2</ele>
        <time>2019-08-09T18:36:20Z</time>
      </trkpt>
      <trkpt lat="47.94594" lon="7.23764">
        <ele>296.2</ele>
        <time>2019-08-09T18:36:21Z</time>
      </trkpt>
      <trkpt lat="47.94589" lon="7.23761">
        <ele>296.2</ele>
        <time>2019-08-09T18:36:22Z</time>
      </trkpt>
      <trkpt lat="47.94584" lon="7.23756">
        <ele>296.2</ele>
        <time>2019-08-09T18:36:23Z</time>
      </trkpt>
      <trkpt lat="47.94579" lon="7.23751">
        <ele>296.2</ele>
        <time>2019-08-09T18:36:24Z</time>
      </trkpt>
      <trkpt lat="47.94575" lon="7.23747">
        <ele>296.2</ele>
        <time>2019-08-09T18:36:25Z</time>
      </trkpt>
      <trkpt lat="47.9457" lon="7.23742">
        <ele>296.2</ele>
        <time>2019-08-09T18:36:26Z</time>
      </trkpt>
      <trkpt lat="47.94566" lon="7.23738">
        <ele>296.2</ele>
        <time>2019-08-09T18:36:27Z</time>
      </trkpt>
      <trkpt lat="47.94562" lon="7.23732">
        <ele>296.2</ele>
        <time>2019-08-09T18:36:28Z</time>
      </trkpt>
      <trkpt lat="47.94558" lon="7.23728">
        <ele>296.1</ele>
        <time>2019-08-09T18:36:29Z</time>
      </trkpt>
      <trkpt lat="47.94553" lon="7.23723">
        <ele>296.1</ele>
        <time>2019-08-09T18:36:30Z</time>
      </trkpt>
      <trkpt lat="47.9455" lon="7.23719">
        <ele>296.1</ele>
        <time>2019-08-09T18:36:31Z</time>
      </trkpt>
      <trkpt lat="47.94546" lon="7.23714">
        <ele>296.1</ele>
        <time>2019-08-09T18:36:32Z</time>
      </trkpt>
      <trkpt lat="47.94541" lon="7.2371">
        <ele>296.1</ele>
        <time>2019-08-09T18:36:33Z</time>
      </trkpt>
      <trkpt lat="47.94537" lon="7.23705">
        <ele>296.1</ele>
        <time>2019-08-09T18:36:34Z</time>
      </trkpt>
      <trkpt lat="47.94533" lon="7.23701">
        <ele>296.1</ele>
        <time>2019-08-09T18:36:35Z</time>
      </trkpt>
      <trkpt lat="47.94528" lon="7.23696">
        <ele>296.1</ele>
        <time>2019-08-09T18:36:36Z</time>
      </trkpt>
      <trkpt lat="47.94523" lon="7.23692">
        <ele>296.1</ele>
        <time>2019-08-09T18:36:37Z</time>
      </trkpt>
      <trkpt lat="47.94519" lon="7.23689">
        <ele>296</ele>
        <time>2019-08-09T18:36:38Z</time>
      </trkpt>
      <trkpt lat="47.94515" lon="7.23686">
        <ele>296</ele>
        <time>2019-08-09T18:36:39Z</time>
      </trkpt>
      <trkpt lat="47.94509" lon="7.23683">
        <ele>295.9</ele>
        <time>2019-08-09T18:36:40Z</time>
      </trkpt>
      <trkpt lat="47.94504" lon="7.23681">
        <ele>295.8</ele>
        <time>2019-08-09T18:36:41Z</time>
      </trkpt>
      <trkpt lat="47.94498" lon="7.23679">
        <ele>295.6</ele>
        <time>2019-08-09T18:36:42Z</time>
      </trkpt>
      <trkpt lat="47.94491" lon="7.23681">
        <ele>295.3</ele>
        <time>2019-08-09T18:36:43Z</time>
      </trkpt>
      <trkpt lat="47.94483" lon="7.23682">
        <ele>295.1</ele>
        <time>2019-08-09T18:36:44Z</time>
      </trkpt>
      <trkpt lat="47.94476" lon="7.23684">
        <ele>294.8</ele>
        <time>2019-08-09T18:36:45Z</time>
      </trkpt>
      <trkpt lat="47.94469" lon="7.23684">
        <ele>294.6</ele>
        <time>2019-08-09T18:36:46Z</time>
      </trkpt>
      <trkpt lat="47.94462" lon="7.23684">
        <ele>294.4</ele>
        <time>2019-08-09T18:36:47Z</time>
      </trkpt>
      <trkpt lat="47.94455" lon="7.23682">
        <ele>294.3</ele>
        <time>2019-08-09T18:36:48Z</time>
      </trkpt>
      <trkpt lat="47.94449" lon="7.23676">
        <ele>294.1</ele>
        <time>2019-08-09T18:36:49Z</time>
      </trkpt>
      <trkpt lat="47.94443" lon="7.23667">
        <ele>294</ele>
        <time>2019-08-09T18:36:50Z</time>
      </trkpt>
      <trkpt lat="47.94437" lon="7.23659">
        <ele>293.9</ele>
        <time>2019-08-09T18:36:51Z</time>
      </trkpt>
      <trkpt lat="47.9443" lon="7.23651">
        <ele>293.8</ele>
        <time>2019-08-09T18:36:52Z</time>
      </trkpt>
      <trkpt lat="47.94424" lon="7.23643">
        <ele>293.7</ele>
        <time>2019-08-09T18:36:53Z</time>
      </trkpt>
      <trkpt lat="47.94418" lon="7.23634">
        <ele>293.6</ele>
        <time>2019-08-09T18:36:54Z</time>
      </trkpt>
      <trkpt lat="47.94411" lon="7.23625">
        <ele>293.4</ele>
        <time>2019-08-09T18:36:55Z</time>
      </trkpt>
      <trkpt lat="47.94405" lon="7.23616">
        <ele>293.2</ele>
        <time>2019-08-09T18:36:56Z</time>
      </trkpt>
      <trkpt lat="47.94398" lon="7.23607">
        <ele>293</ele>
        <time>2019-08-09T18:36:57Z</time>
      </trkpt>
      <trkpt lat="47.94391" lon="7.23597">
        <ele>292.8</ele>
        <time>2019-08-09T18:36:58Z</time>
      </trkpt>
      <trkpt lat="47.94385" lon="7.23587">
        <ele>292.4</ele>
        <time>2019-08-09T18:36:59Z</time>
      </trkpt>
      <trkpt lat="47.94378" lon="7.23578">
        <ele>292</ele>
        <time>2019-08-09T18:37:00Z</time>
      </trkpt>
      <trkpt lat="47.94372" lon="7.23568">
        <ele>291.7</ele>
        <time>2019-08-09T18:37:01Z</time>
      </trkpt>
      <trkpt lat="47.94365" lon="7.2356">
        <ele>291.4</ele>
        <time>2019-08-09T18:37:02Z</time>
      </trkpt>
      <trkpt lat="47.94358" lon="7.23552">
        <ele>291.1</ele>
        <time>2019-08-09T18:37:03Z</time>
      </trkpt>
      <trkpt lat="47.94351" lon="7.23544">
        <ele>290.7</ele>
        <time>2019-08-09T18:37:04Z</time>
      </trkpt>
      <trkpt lat="47.94345" lon="7.23535">
        <ele>290.2</ele>
        <time>2019-08-09T18:37:05Z</time>
      </trkpt>
      <trkpt lat="47.94339" lon="7.23528">
        <ele>289.8</ele>
        <time>2019-08-09T18:37:06Z</time>
      </trkpt>
      <trkpt lat="47.94333" lon="7.2352">
        <ele>289.4</ele>
        <time>2019-08-09T18:37:07Z</time>
      </trkpt>
      <trkpt lat="47.94327" lon="7.23513">
        <ele>288.9</ele>
        <time>2019-08-09T18:37:08Z</time>
      </trkpt>
      <trkpt lat="47.94321" lon="7.23506">
        <ele>288.3</ele>
        <time>2019-08-09T18:37:09Z</time>
      </trkpt>
      <trkpt lat="47.94314" lon="7.23499">
        <ele>287.8</ele>
        <time>2019-08-09T18:37:10Z</time>
      </trkpt>
      <trkpt lat="47.94307" lon="7.23494">
        <ele>287</ele>
        <time>2019-08-09T18:37:11Z</time>
      </trkpt>
      <trkpt lat="47.94299" lon="7.2349">
        <ele>286.3</ele>
        <time>2019-08-09T18:37:12Z</time>
      </trkpt>
      <trkpt lat="47.94291" lon="7.23485">
        <ele>285.6</ele>
        <time>2019-08-09T18:37:13Z</time>
      </trkpt>
      <trkpt lat="47.94283" lon="7.2348">
        <ele>285</ele>
        <time>2019-08-09T18:37:14Z</time>
      </trkpt>
      <trkpt lat="47.94275" lon="7.23476">
        <ele>284.4</ele>
        <time>2019-08-09T18:37:15Z</time>
      </trkpt>
      <trkpt lat="47.94266" lon="7.23472">
        <ele>283.8</ele>
        <time>2019-08-09T18:37:16Z</time>
      </trkpt>
      <trkpt lat="47.94257" lon="7.23468">
        <ele>283.2</ele>
        <time>2019-08-09T18:37:17Z</time>
      </trkpt>
      <trkpt lat="47.94249" lon="7.23464">
        <ele>282.4</ele>
        <time>2019-08-09T18:37:18Z</time>
      </trkpt>
      <trkpt lat="47.94241" lon="7.23459">
        <ele>281.5</ele>
        <time>2019-08-09T18:37:19Z</time>
      </trkpt>
      <trkpt lat="47.94232" lon="7.23455">
        <ele>280.6</ele>
        <time>2019-08-09T18:37:20Z</time>
      </trkpt>
      <trkpt lat="47.94225" lon="7.2345">
        <ele>279.8</ele>
        <time>2019-08-09T18:37:21Z</time>
      </trkpt>
      <trkpt lat="47.94217" lon="7.23445">
        <ele>279.2</ele>
        <time>2019-08-09T18:37:22Z</time>
      </trkpt>
      <trkpt lat="47.94209" lon="7.2344">
        <ele>278.7</ele>
        <time>2019-08-09T18:37:23Z</time>
      </trkpt>
      <trkpt lat="47.94202" lon="7.23434">
        <ele>278.3</ele>
        <time>2019-08-09T18:37:24Z</time>
      </trkpt>
      <trkpt lat="47.94194" lon="7.23429">
        <ele>278</ele>
        <time>2019-08-09T18:37:25Z</time>
      </trkpt>
      <trkpt lat="47.94187" lon="7.23423">
        <ele>277.6</ele>
        <time>2019-08-09T18:37:26Z</time>
      </trkpt>
      <trkpt lat="47.94179" lon="7.23418">
        <ele>277.3</ele>
        <time>2019-08-09T18:37:27Z</time>
      </trkpt>
      <trkpt lat="47.94172" lon="7.23412">
        <ele>276.9</ele>
        <time>2019-08-09T18:37:28Z</time>
      </trkpt>
      <trkpt lat="47.94165" lon="7.23406">
        <ele>276.3</ele>
        <time>2019-08-09T18:37:29Z</time>
      </trkpt>
      <trkpt lat="47.94158" lon="7.23399">
        <ele>275.6</ele>
        <time>2019-08-09T18:37:30Z</time>
      </trkpt>
      <trkpt lat="47.9415" lon="7.23394">
        <ele>274.7</ele>
        <time>2019-08-09T18:37:31Z</time>
      </trkpt>
      <trkpt lat="47.94142" lon="7.23389">
        <ele>273.7</ele>
        <time>2019-08-09T18:37:32Z</time>
      </trkpt>
      <trkpt lat="47.94134" lon="7.23384">
        <ele>272.6</ele>
        <time>2019-08-09T18:37:33Z</time>
      </trkpt>
      <trkpt lat="47.94125" lon="7.2338">
        <ele>271.4</ele>
        <time>2019-08-09T18:37:34Z</time>
      </trkpt>
      <trkpt lat="47.94117" lon="7.23378">
        <ele>270.2</ele>
        <time>2019-08-09T18:37:35Z</time>
      </trkpt>
      <trkpt lat="47.94108" lon="7.23375">
        <ele>269.4</ele>
        <time>2019-08-09T18:37:36Z</time>
      </trkpt>
      <trkpt lat="47.941" lon="7.23373">
        <ele>268.6</ele>
        <time>2019-08-09T18:37:37Z</time>
      </trkpt>
      <trkpt lat="47.94092" lon="7.23371">
        <ele>268.1</ele>
        <time>2019-08-09T18:37:38Z</time>
      </trkpt>
      <trkpt lat="47.94084" lon="7.2337">
        <ele>267.5</ele>
        <time>2019-08-09T18:37:39Z</time>
      </trkpt>
      <trkpt lat="47.94077" lon="7.2337">
        <ele>266.7</ele>
        <time>2019-08-09T18:37:40Z</time>
      </trkpt>
      <trkpt lat="47.94069" lon="7.23371">
        <ele>265.9</ele>
        <time>2019-08-09T18:37:41Z</time>
      </trkpt>
      <trkpt lat="47.94061" lon="7.23371">
        <ele>265.9</ele>
        <time>2019-08-09T18:37:42Z</time>
      </trkpt>
      <trkpt lat="47.94053" lon="7.23369">
        <ele>266.2</ele>
        <time>2019-08-09T18:37:43Z</time>
      </trkpt>
      <trkpt lat="47.94046" lon="7.23364">
        <ele>266.5</ele>
        <time>2019-08-09T18:37:44Z</time>
      </trkpt>
      <trkpt lat="47.94039" lon="7.23357">
        <ele>266.8</ele>
        <time>2019-08-09T18:37:45Z</time>
      </trkpt>
      <trkpt lat="47.94032" lon="7.23349">
        <ele>267</ele>
        <time>2019-08-09T18:37:46Z</time>
      </trkpt>
      <trkpt lat="47.94024" lon="7.23342">
        <ele>267.3</ele>
        <time>2019-08-09T18:37:47Z</time>
      </trkpt>
      <trkpt lat="47.94018" lon="7.23336">
        <ele>267.5</ele>
        <time>2019-08-09T18:37:48Z</time>
      </trkpt>
      <trkpt lat="47.94011" lon="7.2333">
        <ele>268</ele>
        <time>2019-08-09T18:37:49Z</time>
      </trkpt>
      <trkpt lat="47.94005" lon="7.23325">
        <ele>267.1</ele>
        <time>2019-08-09T18:37:50Z</time>
      </trkpt>
      <trkpt lat="47.93999" lon="7.2332">
        <ele>266.3</ele>
        <time>2019-08-09T18:37:51Z</time>
      </trkpt>
      <trkpt lat="47.93993" lon="7.23316">
        <ele>265.6</ele>
        <time>2019-08-09T18:37:52Z</time>
      </trkpt>
      <trkpt lat="47.93989" lon="7.23312">
        <ele>265</ele>
        <time>2019-08-09T18:37:53Z</time>
      </trkpt>
      <trkpt lat="47.93984" lon="7.23308">
        <ele>264.6</ele>
        <time>2019-08-09T18:37:54Z</time>
      </trkpt>
      <trkpt lat="47.9398" lon="7.23305">
        <ele>264.2</ele>
        <time>2019-08-09T18:37:55Z</time>
      </trkpt>
      <trkpt lat="47.93976" lon="7.23303">
        <ele>263.9</ele>
        <time>2019-08-09T18:37:56Z</time>
      </trkpt>
      <trkpt lat="47.93974" lon="7.23298">
        <ele>263.6</ele>
        <time>2019-08-09T18:37:57Z</time>
      </trkpt>
      <trkpt lat="47.9397" lon="7.23296">
        <ele>263.3</ele>
        <time>2019-08-09T18:37:58Z</time>
      </trkpt>
      <trkpt lat="47.93966" lon="7.23294">
        <ele>263.1</ele>
        <time>2019-08-09T18:37:59Z</time>
      </trkpt>
      <trkpt lat="47.93962" lon="7.23292">
        <ele>262.9</ele>
        <time>2019-08-09T18:38:00Z</time>
      </trkpt>
      <trkpt lat="47.93958" lon="7.2329">
        <ele>262.8</ele>
        <time>2019-08-09T18:38:01Z</time>
      </trkpt>
      <trkpt lat="47.93953" lon="7.23286">
        <ele>262.6</ele>
        <time>2019-08-09T18:38:02Z</time>
      </trkpt>
      <trkpt lat="47.93949" lon="7.23282">
        <ele>262.4</ele>
        <time>2019-08-09T18:38:03Z</time>
      </trkpt>
      <trkpt lat="47.93945" lon="7.23279">
        <ele>262.2</ele>
        <time>2019-08-09T18:38:04Z</time>
      </trkpt>
      <trkpt lat="47.9394" lon="7.23276">
        <ele>262.1</ele>
        <time>2019-08-09T18:38:05Z</time>
      </trkpt>
      <trkpt lat="47.93936" lon="7.23273">
        <ele>261.9</ele>
        <time>2019-08-09T18:38:06Z</time>
      </trkpt>
      <trkpt lat="47.93932" lon="7.2327">
        <ele>261.6</ele>
        <time>2019-08-09T18:38:07Z</time>
      </trkpt>
      <trkpt lat="47.93928" lon="7.23268">
        <ele>261.2</ele>
        <time>2019-08-09T18:38:08Z</time>
      </trkpt>
      <trkpt lat="47.93924" lon="7.23264">
        <ele>261.1</ele>
        <time>2019-08-09T18:38:09Z</time>
      </trkpt>
      <trkpt lat="47.9392" lon="7.23262">
        <ele>260.9</ele>
        <time>2019-08-09T18:38:10Z</time>
      </trkpt>
      <trkpt lat="47.93916" lon="7.23259">
        <ele>260.6</ele>
        <time>2019-08-09T18:38:11Z</time>
      </trkpt>
      <trkpt lat="47.93911" lon="7.23257">
        <ele>260.3</ele>
        <time>2019-08-09T18:38:12Z</time>
      </trkpt>
      <trkpt lat="47.93907" lon="7.23254">
        <ele>260</ele>
        <time>2019-08-09T18:38:13Z</time>
      </trkpt>
      <trkpt lat="47.93902" lon="7.23251">
        <ele>259.9</ele>
        <time>2019-08-09T18:38:14Z</time>
      </trkpt>
      <trkpt lat="47.93897" lon="7.23248">
        <ele>259.8</ele>
        <time>2019-08-09T18:38:15Z</time>
      </trkpt>
      <trkpt lat="47.93892" lon="7.23245">
        <ele>259.7</ele>
        <time>2019-08-09T18:38:16Z</time>
      </trkpt>
      <trkpt lat="47.93887" lon="7.23242">
        <ele>259.6</ele>
        <time>2019-08-09T18:38:17Z</time>
      </trkpt>
      <trkpt lat="47.93881" lon="7.23239">
        <ele>259.5</ele>
        <time>2019-08-09T18:38:18Z</time>
      </trkpt>
      <trkpt lat="47.93876" lon="7.23237">
        <ele>259.4</ele>
        <time>2019-08-09T18:38:19Z</time>
      </trkpt>
      <trkpt lat="47.9387" lon="7.23233">
        <ele>259.4</ele>
        <time>2019-08-09T18:38:20Z</time>
      </trkpt>
      <trkpt lat="47.93865" lon="7.23231">
        <ele>259.4</ele>
        <time>2019-08-09T18:38:21Z</time>
      </trkpt>
      <trkpt lat="47.9386" lon="7.23227">
        <ele>259.4</ele>
        <time>2019-08-09T18:38:22Z</time>
      </trkpt>
      <trkpt lat="47.93855" lon="7.23224">
        <ele>259.6</ele>
        <time>2019-08-09T18:38:23Z</time>
      </trkpt>
      <trkpt lat="47.93851" lon="7.23218">
        <ele>259.7</ele>
        <time>2019-08-09T18:38:24Z</time>
      </trkpt>
      <trkpt lat="47.93846" lon="7.23215">
        <ele>259.8</ele>
        <time>2019-08-09T18:38:25Z</time>
      </trkpt>
      <trkpt lat="47.93842" lon="7.23213">
        <ele>260</ele>
        <time>2019-08-09T18:38:26Z</time>
      </trkpt>
      <trkpt lat="47.93837" lon="7.23211">
        <ele>260.2</ele>
        <time>2019-08-09T18:38:27Z</time>
      </trkpt>
      <trkpt lat="47.93833" lon="7.23208">
        <ele>260.4</ele>
        <time>2019-08-09T18:38:28Z</time>
      </trkpt>
      <trkpt lat="47.93829" lon="7.23205">
        <ele>260.6</ele>
        <time>2019-08-09T18:38:29Z</time>
      </trkpt>
      <trkpt lat="47.93825" lon="7.23203">
        <ele>260.7</ele>
        <time>2019-08-09T18:38:30Z</time>
      </trkpt>
      <trkpt lat="47.93821" lon="7.23201">
        <ele>260.9</ele>
        <time>2019-08-09T18:38:31Z</time>
      </trkpt>
      <trkpt lat="47.93817" lon="7.23199">
        <ele>261</ele>
        <time>2019-08-09T18:38:32Z</time>
      </trkpt>
      <trkpt lat="47.93813" lon="7.23197">
        <ele>261.1</ele>
        <time>2019-08-09T18:38:33Z</time>
      </trkpt>
      <trkpt lat="47.9381" lon="7.23195">
        <ele>261.2</ele>
        <time>2019-08-09T18:38:34Z</time>
      </trkpt>
      <trkpt lat="47.93807" lon="7.23194">
        <ele>261.3</ele>
        <time>2019-08-09T18:38:35Z</time>
      </trkpt>
      <trkpt lat="47.93804" lon="7.23194">
        <ele>261.4</ele>
        <time>2019-08-09T18:38:37Z</time>
      </trkpt>
      <trkpt lat="47.938" lon="7.23197">
        <ele>261.2</ele>
        <time>2019-08-09T18:38:40Z</time>
      </trkpt>
      <trkpt lat="47.93796" lon="7.23197">
        <ele>261.1</ele>
        <time>2019-08-09T18:38:41Z</time>
      </trkpt>
      <trkpt lat="47.93793" lon="7.23201">
        <ele>261</ele>
        <time>2019-08-09T18:38:42Z</time>
      </trkpt>
      <trkpt lat="47.9379" lon="7.23203">
        <ele>260.9</ele>
        <time>2019-08-09T18:38:43Z</time>
      </trkpt>
      <trkpt lat="47.93787" lon="7.23206">
        <ele>260.8</ele>
        <time>2019-08-09T18:38:44Z</time>
      </trkpt>
      <trkpt lat="47.93783" lon="7.23209">
        <ele>260.7</ele>
        <time>2019-08-09T18:38:45Z</time>
      </trkpt>
      <trkpt lat="47.9378" lon="7.23212">
        <ele>260.6</ele>
        <time>2019-08-09T18:38:46Z</time>
      </trkpt>
      <trkpt lat="47.93776" lon="7.23215">
        <ele>260.4</ele>
        <time>2019-08-09T18:38:47Z</time>
      </trkpt>
      <trkpt lat="47.93772" lon="7.2322">
        <ele>260.3</ele>
        <time>2019-08-09T18:38:48Z</time>
      </trkpt>
      <trkpt lat="47.93768" lon="7.23223">
        <ele>260.1</ele>
        <time>2019-08-09T18:38:49Z</time>
      </trkpt>
      <trkpt lat="47.93763" lon="7.23227">
        <ele>260</ele>
        <time>2019-08-09T18:38:50Z</time>
      </trkpt>
      <trkpt lat="47.93759" lon="7.2323">
        <ele>259.8</ele>
        <time>2019-08-09T18:38:51Z</time>
      </trkpt>
      <trkpt lat="47.93755" lon="7.23233">
        <ele>259.6</ele>
        <time>2019-08-09T18:38:52Z</time>
      </trkpt>
      <trkpt lat="47.93752" lon="7.23235">
        <ele>259.5</ele>
        <time>2019-08-09T18:38:53Z</time>
      </trkpt>
      <trkpt lat="47.93749" lon="7.23237">
        <ele>259.4</ele>
        <time>2019-08-09T18:38:54Z</time>
      </trkpt>
      <trkpt lat="47.93746" lon="7.23239">
        <ele>259.4</ele>
        <time>2019-08-09T18:38:55Z</time>
      </trkpt>
      <trkpt lat="47.93742" lon="7.23241">
        <ele>259.5</ele>
        <time>2019-08-09T18:38:56Z</time>
      </trkpt>
      <trkpt lat="47.93739" lon="7.23243">
        <ele>259.5</ele>
        <time>2019-08-09T18:38:57Z</time>
      </trkpt>
      <trkpt lat="47.93735" lon="7.23244">
        <ele>259.6</ele>
        <time>2019-08-09T18:38:58Z</time>
      </trkpt>
      <trkpt lat="47.93731" lon="7.23247">
        <ele>259.6</ele>
        <time>2019-08-09T18:38:59Z</time>
      </trkpt>
      <trkpt lat="47.93727" lon="7.23249">
        <ele>259.7</ele>
        <time>2019-08-09T18:39:00Z</time>
      </trkpt>
      <trkpt lat="47.93723" lon="7.23252">
        <ele>259.7</ele>
        <time>2019-08-09T18:39:01Z</time>
      </trkpt>
      <trkpt lat="47.93719" lon="7.23252">
        <ele>259.8</ele>
        <time>2019-08-09T18:39:02Z</time>
      </trkpt>
      <trkpt lat="47.93715" lon="7.23255">
        <ele>259.9</ele>
        <time>2019-08-09T18:39:03Z</time>
      </trkpt>
      <trkpt lat="47.9371" lon="7.23258">
        <ele>259.9</ele>
        <time>2019-08-09T18:39:04Z</time>
      </trkpt>
      <trkpt lat="47.93706" lon="7.23261">
        <ele>259.9</ele>
        <time>2019-08-09T18:39:05Z</time>
      </trkpt>
      <trkpt lat="47.93702" lon="7.23264">
        <ele>259.9</ele>
        <time>2019-08-09T18:39:06Z</time>
      </trkpt>
      <trkpt lat="47.93697" lon="7.23266">
        <ele>259.9</ele>
        <time>2019-08-09T18:39:07Z</time>
      </trkpt>
      <trkpt lat="47.93693" lon="7.2327">
        <ele>259.9</ele>
        <time>2019-08-09T18:39:08Z</time>
      </trkpt>
      <trkpt lat="47.93689" lon="7.23275">
        <ele>259.9</ele>
        <time>2019-08-09T18:39:09Z</time>
      </trkpt>
      <trkpt lat="47.93686" lon="7.23279">
        <ele>259.9</ele>
        <time>2019-08-09T18:39:10Z</time>
      </trkpt>
      <trkpt lat="47.93683" lon="7.23285">
        <ele>259.9</ele>
        <time>2019-08-09T18:39:11Z</time>
      </trkpt>
      <trkpt lat="47.9368" lon="7.23292">
        <ele>259.9</ele>
        <time>2019-08-09T18:39:12Z</time>
      </trkpt>
      <trkpt lat="47.93676" lon="7.233">
        <ele>259.9</ele>
        <time>2019-08-09T18:39:13Z</time>
      </trkpt>
      <trkpt lat="47.93674" lon="7.23306">
        <ele>260</ele>
        <time>2019-08-09T18:39:14Z</time>
      </trkpt>
      <trkpt lat="47.9367" lon="7.23311">
        <ele>260</ele>
        <time>2019-08-09T18:39:15Z</time>
      </trkpt>
      <trkpt lat="47.93666" lon="7.23316">
        <ele>260.2</ele>
        <time>2019-08-09T18:39:16Z</time>
      </trkpt>
      <trkpt lat="47.93662" lon="7.23319">
        <ele>260.3</ele>
        <time>2019-08-09T18:39:17Z</time>
      </trkpt>
      <trkpt lat="47.93657" lon="7.2332">
        <ele>260.5</ele>
        <time>2019-08-09T18:39:18Z</time>
      </trkpt>
      <trkpt lat="47.93652" lon="7.23321">
        <ele>260.6</ele>
        <time>2019-08-09T18:39:19Z</time>
      </trkpt>
      <trkpt lat="47.93647" lon="7.23322">
        <ele>260.8</ele>
        <time>2019-08-09T18:39:20Z</time>
      </trkpt>
      <trkpt lat="47.93642" lon="7.23323">
        <ele>260.9</ele>
        <time>2019-08-09T18:39:21Z</time>
      </trkpt>
      <trkpt lat="47.93638" lon="7.23324">
        <ele>261</ele>
        <time>2019-08-09T18:39:22Z</time>
      </trkpt>
      <trkpt lat="47.93633" lon="7.23324">
        <ele>261.2</ele>
        <time>2019-08-09T18:39:23Z</time>
      </trkpt>
      <trkpt lat="47.93628" lon="7.23324">
        <ele>261.3</ele>
        <time>2019-08-09T18:39:24Z</time>
      </trkpt>
      <trkpt lat="47.93623" lon="7.23325">
        <ele>261.5</ele>
        <time>2019-08-09T18:39:25Z</time>
      </trkpt>
      <trkpt lat="47.93619" lon="7.23327">
        <ele>261.7</ele>
        <time>2019-08-09T18:39:26Z</time>
      </trkpt>
      <trkpt lat="47.93615" lon="7.23328">
        <ele>261.9</ele>
        <time>2019-08-09T18:39:27Z</time>
      </trkpt>
      <trkpt lat="47.93611" lon="7.23329">
        <ele>262.1</ele>
        <time>2019-08-09T18:39:28Z</time>
      </trkpt>
      <trkpt lat="47.93607" lon="7.2333">
        <ele>262.3</ele>
        <time>2019-08-09T18:39:29Z</time>
      </trkpt>
      <trkpt lat="47.93602" lon="7.23331">
        <ele>262.6</ele>
        <time>2019-08-09T18:39:30Z</time>
      </trkpt>
      <trkpt lat="47.93598" lon="7.23332">
        <ele>262.7</ele>
        <time>2019-08-09T18:39:31Z</time>
      </trkpt>
      <trkpt lat="47.93595" lon="7.23334">
        <ele>262.9</ele>
        <time>2019-08-09T18:39:32Z</time>
      </trkpt>
      <trkpt lat="47.93591" lon="7.23335">
        <ele>263</ele>
        <time>2019-08-09T18:39:33Z</time>
      </trkpt>
      <trkpt lat="47.93586" lon="7.23336">
        <ele>263.2</ele>
        <time>2019-08-09T18:39:35Z</time>
      </trkpt>
      <trkpt lat="47.93583" lon="7.23337">
        <ele>263.4</ele>
        <time>2019-08-09T18:39:36Z</time>
      </trkpt>
      <trkpt lat="47.93579" lon="7.23338">
        <ele>263.5</ele>
        <time>2019-08-09T18:39:37Z</time>
      </trkpt>
      <trkpt lat="47.93576" lon="7.23339">
        <ele>263.6</ele>
        <time>2019-08-09T18:39:38Z</time>
      </trkpt>
      <trkpt lat="47.93573" lon="7.2334">
        <ele>263.8</ele>
        <time>2019-08-09T18:39:39Z</time>
      </trkpt>
      <trkpt lat="47.9357" lon="7.23341">
        <ele>263.9</ele>
        <time>2019-08-09T18:39:40Z</time>
      </trkpt>
      <trkpt lat="47.93566" lon="7.23342">
        <ele>264.1</ele>
        <time>2019-08-09T18:39:41Z</time>
      </trkpt>
      <trkpt lat="47.93563" lon="7.23343">
        <ele>264.2</ele>
        <time>2019-08-09T18:39:42Z</time>
      </trkpt>
      <trkpt lat="47.93559" lon="7.23344">
        <ele>264.4</ele>
        <time>2019-08-09T18:39:43Z</time>
      </trkpt>
      <trkpt lat="47.93556" lon="7.23344">
        <ele>264.5</ele>
        <time>2019-08-09T18:39:44Z</time>
      </trkpt>
      <trkpt lat="47.93552" lon="7.23343">
        <ele>264.8</ele>
        <time>2019-08-09T18:39:46Z</time>
      </trkpt>
      <trkpt lat="47.93549" lon="7.23344">
        <ele>265.1</ele>
        <time>2019-08-09T18:39:47Z</time>
      </trkpt>
      <trkpt lat="47.93544" lon="7.23345">
        <ele>265.5</ele>
        <time>2019-08-09T18:39:48Z</time>
      </trkpt>
      <trkpt lat="47.9354" lon="7.23346">
        <ele>265.8</ele>
        <time>2019-08-09T18:39:49Z</time>
      </trkpt>
      <trkpt lat="47.93537" lon="7.23347">
        <ele>266.1</ele>
        <time>2019-08-09T18:39:50Z</time>
      </trkpt>
      <trkpt lat="47.93533" lon="7.23347">
        <ele>266.4</ele>
        <time>2019-08-09T18:39:51Z</time>
      </trkpt>
      <trkpt lat="47.9353" lon="7.23347">
        <ele>266.8</ele>
        <time>2019-08-09T18:39:52Z</time>
      </trkpt>
      <trkpt lat="47.93527" lon="7.23346">
        <ele>267.1</ele>
        <time>2019-08-09T18:39:53Z</time>
      </trkpt>
      <trkpt lat="47.93523" lon="7.23345">
        <ele>267.4</ele>
        <time>2019-08-09T18:39:54Z</time>
      </trkpt>
      <trkpt lat="47.93519" lon="7.23344">
        <ele>267.8</ele>
        <time>2019-08-09T18:39:55Z</time>
      </trkpt>
      <trkpt lat="47.93515" lon="7.23343">
        <ele>268.2</ele>
        <time>2019-08-09T18:39:56Z</time>
      </trkpt>
      <trkpt lat="47.93511" lon="7.2334">
        <ele>268.8</ele>
        <time>2019-08-09T18:39:58Z</time>
      </trkpt>
      <trkpt lat="47.93506" lon="7.23337">
        <ele>269.2</ele>
        <time>2019-08-09T18:39:59Z</time>
      </trkpt>
      <trkpt lat="47.93502" lon="7.23335">
        <ele>269.6</ele>
        <time>2019-08-09T18:40:00Z</time>
      </trkpt>
      <trkpt lat="47.93498" lon="7.23332">
        <ele>269.9</ele>
        <time>2019-08-09T18:40:01Z</time>
      </trkpt>
      <trkpt lat="47.93495" lon="7.2333">
        <ele>270.2</ele>
        <time>2019-08-09T18:40:02Z</time>
      </trkpt>
      <trkpt lat="47.93491" lon="7.23326">
        <ele>270.4</ele>
        <time>2019-08-09T18:40:03Z</time>
      </trkpt>
      <trkpt lat="47.93488" lon="7.23322">
        <ele>270.6</ele>
        <time>2019-08-09T18:40:04Z</time>
      </trkpt>
      <trkpt lat="47.93485" lon="7.23319">
        <ele>270.8</ele>
        <time>2019-08-09T18:40:05Z</time>
      </trkpt>
      <trkpt lat="47.93481" lon="7.23315">
        <ele>271</ele>
        <time>2019-08-09T18:40:06Z</time>
      </trkpt>
      <trkpt lat="47.93478" lon="7.23311">
        <ele>271.2</ele>
        <time>2019-08-09T18:40:07Z</time>
      </trkpt>
      <trkpt lat="47.93474" lon="7.23307">
        <ele>271.4</ele>
        <time>2019-08-09T18:40:08Z</time>
      </trkpt>
      <trkpt lat="47.93471" lon="7.23304">
        <ele>271.5</ele>
        <time>2019-08-09T18:40:09Z</time>
      </trkpt>
      <trkpt lat="47.93467" lon="7.233">
        <ele>271.7</ele>
        <time>2019-08-09T18:40:10Z</time>
      </trkpt>
      <trkpt lat="47.93463" lon="7.23296">
        <ele>271.8</ele>
        <time>2019-08-09T18:40:11Z</time>
      </trkpt>
      <trkpt lat="47.93459" lon="7.23293">
        <ele>271.9</ele>
        <time>2019-08-09T18:40:12Z</time>
      </trkpt>
      <trkpt lat="47.93456" lon="7.2329">
        <ele>272</ele>
        <time>2019-08-09T18:40:13Z</time>
      </trkpt>
      <trkpt lat="47.93452" lon="7.23287">
        <ele>272</ele>
        <time>2019-08-09T18:40:14Z</time>
      </trkpt>
      <trkpt lat="47.93448" lon="7.23284">
        <ele>272.1</ele>
        <time>2019-08-09T18:40:15Z</time>
      </trkpt>
      <trkpt lat="47.93445" lon="7.23281">
        <ele>272.1</ele>
        <time>2019-08-09T18:40:16Z</time>
      </trkpt>
      <trkpt lat="47.93442" lon="7.23278">
        <ele>272.1</ele>
        <time>2019-08-09T18:40:17Z</time>
      </trkpt>
      <trkpt lat="47.93438" lon="7.23275">
        <ele>272.1</ele>
        <time>2019-08-09T18:40:18Z</time>
      </trkpt>
      <trkpt lat="47.93435" lon="7.23272">
        <ele>272.1</ele>
        <time>2019-08-09T18:40:19Z</time>
      </trkpt>
      <trkpt lat="47.93431" lon="7.23269">
        <ele>272.1</ele>
        <time>2019-08-09T18:40:20Z</time>
      </trkpt>
      <trkpt lat="47.93428" lon="7.23266">
        <ele>272.1</ele>
        <time>2019-08-09T18:40:21Z</time>
      </trkpt>
      <trkpt lat="47.93424" lon="7.23264">
        <ele>272.1</ele>
        <time>2019-08-09T18:40:22Z</time>
      </trkpt>
      <trkpt lat="47.93421" lon="7.23262">
        <ele>272.2</ele>
        <time>2019-08-09T18:40:23Z</time>
      </trkpt>
      <trkpt lat="47.93418" lon="7.2326">
        <ele>272.2</ele>
        <time>2019-08-09T18:40:24Z</time>
      </trkpt>
      <trkpt lat="47.93415" lon="7.23258">
        <ele>272.2</ele>
        <time>2019-08-09T18:40:25Z</time>
      </trkpt>
      <trkpt lat="47.93412" lon="7.23257">
        <ele>272.2</ele>
        <time>2019-08-09T18:40:26Z</time>
      </trkpt>
      <trkpt lat="47.93408" lon="7.23257">
        <ele>272.2</ele>
        <time>2019-08-09T18:40:27Z</time>
      </trkpt>
      <trkpt lat="47.93405" lon="7.23256">
        <ele>272.2</ele>
        <time>2019-08-09T18:40:28Z</time>
      </trkpt>
      <trkpt lat="47.93402" lon="7.23254">
        <ele>272.2</ele>
        <time>2019-08-09T18:40:29Z</time>
      </trkpt>
      <trkpt lat="47.934" lon="7.23253">
        <ele>272.2</ele>
        <time>2019-08-09T18:40:30Z</time>
      </trkpt>
      <trkpt lat="47.93396" lon="7.23252">
        <ele>272.2</ele>
        <time>2019-08-09T18:40:31Z</time>
      </trkpt>
      <trkpt lat="47.93392" lon="7.23251">
        <ele>272.2</ele>
        <time>2019-08-09T18:40:32Z</time>
      </trkpt>
      <trkpt lat="47.93389" lon="7.23251">
        <ele>272.3</ele>
        <time>2019-08-09T18:40:33Z</time>
      </trkpt>
      <trkpt lat="47.93386" lon="7.2325">
        <ele>272.4</ele>
        <time>2019-08-09T18:40:34Z</time>
      </trkpt>
      <trkpt lat="47.93384" lon="7.23249">
        <ele>272.4</ele>
        <time>2019-08-09T18:40:35Z</time>
      </trkpt>
      <trkpt lat="47.93381" lon="7.23248">
        <ele>272.5</ele>
        <time>2019-08-09T18:40:36Z</time>
      </trkpt>
      <trkpt lat="47.93377" lon="7.23249">
        <ele>272.6</ele>
        <time>2019-08-09T18:40:37Z</time>
      </trkpt>
      <trkpt lat="47.93374" lon="7.23249">
        <ele>272.7</ele>
        <time>2019-08-09T18:40:38Z</time>
      </trkpt>
      <trkpt lat="47.9337" lon="7.2325">
        <ele>272.7</ele>
        <time>2019-08-09T18:40:39Z</time>
      </trkpt>
      <trkpt lat="47.93367" lon="7.2325">
        <ele>272.8</ele>
        <time>2019-08-09T18:40:40Z</time>
      </trkpt>
      <trkpt lat="47.93362" lon="7.23248">
        <ele>272.8</ele>
        <time>2019-08-09T18:40:42Z</time>
      </trkpt>
      <trkpt lat="47.93357" lon="7.23248">
        <ele>272.9</ele>
        <time>2019-08-09T18:40:44Z</time>
      </trkpt>
      <trkpt lat="47.93354" lon="7.23249">
        <ele>272.9</ele>
        <time>2019-08-09T18:40:45Z</time>
      </trkpt>
      <trkpt lat="47.9335" lon="7.23251">
        <ele>272.9</ele>
        <time>2019-08-09T18:40:46Z</time>
      </trkpt>
      <trkpt lat="47.93347" lon="7.23253">
        <ele>272.9</ele>
        <time>2019-08-09T18:40:47Z</time>
      </trkpt>
      <trkpt lat="47.93343" lon="7.23254">
        <ele>273</ele>
        <time>2019-08-09T18:40:48Z</time>
      </trkpt>
      <trkpt lat="47.9334" lon="7.23256">
        <ele>273</ele>
        <time>2019-08-09T18:40:49Z</time>
      </trkpt>
      <trkpt lat="47.93335" lon="7.23259">
        <ele>273</ele>
        <time>2019-08-09T18:40:50Z</time>
      </trkpt>
      <trkpt lat="47.93332" lon="7.23261">
        <ele>273</ele>
        <time>2019-08-09T18:40:51Z</time>
      </trkpt>
      <trkpt lat="47.93328" lon="7.23262">
        <ele>273</ele>
        <time>2019-08-09T18:40:52Z</time>
      </trkpt>
      <trkpt lat="47.93324" lon="7.23262">
        <ele>273</ele>
        <time>2019-08-09T18:40:53Z</time>
      </trkpt>
      <trkpt lat="47.9332" lon="7.23263">
        <ele>273</ele>
        <time>2019-08-09T18:40:54Z</time>
      </trkpt>
      <trkpt lat="47.93317" lon="7.23263">
        <ele>273</ele>
        <time>2019-08-09T18:40:55Z</time>
      </trkpt>
      <trkpt lat="47.93314" lon="7.23263">
        <ele>273</ele>
        <time>2019-08-09T18:40:56Z</time>
      </trkpt>
      <trkpt lat="47.93309" lon="7.23264">
        <ele>273</ele>
        <time>2019-08-09T18:40:58Z</time>
      </trkpt>
      <trkpt lat="47.93306" lon="7.23263">
        <ele>273</ele>
        <time>2019-08-09T18:40:59Z</time>
      </trkpt>
      <trkpt lat="47.93303" lon="7.23263">
        <ele>273</ele>
        <time>2019-08-09T18:41:00Z</time>
      </trkpt>
      <trkpt lat="47.933" lon="7.23262">
        <ele>273</ele>
        <time>2019-08-09T18:41:01Z</time>
      </trkpt>
      <trkpt lat="47.93296" lon="7.23262">
        <ele>273</ele>
        <time>2019-08-09T18:41:02Z</time>
      </trkpt>
      <trkpt lat="47.93293" lon="7.23261">
        <ele>273</ele>
        <time>2019-08-09T18:41:03Z</time>
      </trkpt>
      <trkpt lat="47.93288" lon="7.2326">
        <ele>273</ele>
        <time>2019-08-09T18:41:04Z</time>
      </trkpt>
      <trkpt lat="47.93283" lon="7.2326">
        <ele>273</ele>
        <time>2019-08-09T18:41:05Z</time>
      </trkpt>
      <trkpt lat="47.9328" lon="7.23259">
        <ele>273</ele>
        <time>2019-08-09T18:41:06Z</time>
      </trkpt>
      <trkpt lat="47.93275" lon="7.23257">
        <ele>272.9</ele>
        <time>2019-08-09T18:41:07Z</time>
      </trkpt>
      <trkpt lat="47.93272" lon="7.23255">
        <ele>272.9</ele>
        <time>2019-08-09T18:41:08Z</time>
      </trkpt>
      <trkpt lat="47.93266" lon="7.23254">
        <ele>272.8</ele>
        <time>2019-08-09T18:41:09Z</time>
      </trkpt>
      <trkpt lat="47.93261" lon="7.23253">
        <ele>272.8</ele>
        <time>2019-08-09T18:41:10Z</time>
      </trkpt>
      <trkpt lat="47.93257" lon="7.23252">
        <ele>272.7</ele>
        <time>2019-08-09T18:41:11Z</time>
      </trkpt>
      <trkpt lat="47.93252" lon="7.2325">
        <ele>272.5</ele>
        <time>2019-08-09T18:41:12Z</time>
      </trkpt>
      <trkpt lat="47.93248" lon="7.23248">
        <ele>272.3</ele>
        <time>2019-08-09T18:41:13Z</time>
      </trkpt>
      <trkpt lat="47.93244" lon="7.23247">
        <ele>272.2</ele>
        <time>2019-08-09T18:41:14Z</time>
      </trkpt>
      <trkpt lat="47.9324" lon="7.23244">
        <ele>271.9</ele>
        <time>2019-08-09T18:41:15Z</time>
      </trkpt>
      <trkpt lat="47.93236" lon="7.23242">
        <ele>271.7</ele>
        <time>2019-08-09T18:41:16Z</time>
      </trkpt>
      <trkpt lat="47.93232" lon="7.23241">
        <ele>271.4</ele>
        <time>2019-08-09T18:41:17Z</time>
      </trkpt>
      <trkpt lat="47.93227" lon="7.23239">
        <ele>271.2</ele>
        <time>2019-08-09T18:41:18Z</time>
      </trkpt>
      <trkpt lat="47.93223" lon="7.23238">
        <ele>271.1</ele>
        <time>2019-08-09T18:41:19Z</time>
      </trkpt>
      <trkpt lat="47.93219" lon="7.23237">
        <ele>271</ele>
        <time>2019-08-09T18:41:20Z</time>
      </trkpt>
      <trkpt lat="47.93213" lon="7.23236">
        <ele>270.8</ele>
        <time>2019-08-09T18:41:21Z</time>
      </trkpt>
      <trkpt lat="47.93207" lon="7.23235">
        <ele>270.7</ele>
        <time>2019-08-09T18:41:22Z</time>
      </trkpt>
      <trkpt lat="47.93202" lon="7.23235">
        <ele>270.4</ele>
        <time>2019-08-09T18:41:23Z</time>
      </trkpt>
      <trkpt lat="47.93197" lon="7.23235">
        <ele>270.1</ele>
        <time>2019-08-09T18:41:24Z</time>
      </trkpt>
      <trkpt lat="47.93193" lon="7.23236">
        <ele>269.9</ele>
        <time>2019-08-09T18:41:25Z</time>
      </trkpt>
      <trkpt lat="47.93188" lon="7.23237">
        <ele>269.6</ele>
        <time>2019-08-09T18:41:26Z</time>
      </trkpt>
      <trkpt lat="47.93182" lon="7.2324">
        <ele>269.3</ele>
        <time>2019-08-09T18:41:27Z</time>
      </trkpt>
      <trkpt lat="47.93177" lon="7.23243">
        <ele>269.1</ele>
        <time>2019-08-09T18:41:28Z</time>
      </trkpt>
      <trkpt lat="47.93172" lon="7.23248">
        <ele>268.9</ele>
        <time>2019-08-09T18:41:29Z</time>
      </trkpt>
      <trkpt lat="47.93167" lon="7.23253">
        <ele>268.8</ele>
        <time>2019-08-09T18:41:30Z</time>
      </trkpt>
      <trkpt lat="47.93163" lon="7.23257">
        <ele>268.7</ele>
        <time>2019-08-09T18:41:31Z</time>
      </trkpt>
      <trkpt lat="47.93159" lon="7.23261">
        <ele>268.5</ele>
        <time>2019-08-09T18:41:32Z</time>
      </trkpt>
      <trkpt lat="47.93155" lon="7.23264">
        <ele>268.3</ele>
        <time>2019-08-09T18:41:33Z</time>
      </trkpt>
      <trkpt lat="47.93151" lon="7.23267">
        <ele>268.2</ele>
        <time>2019-08-09T18:41:34Z</time>
      </trkpt>
      <trkpt lat="47.93147" lon="7.2327">
        <ele>268</ele>
        <time>2019-08-09T18:41:35Z</time>
      </trkpt>
      <trkpt lat="47.93144" lon="7.23273">
        <ele>267.8</ele>
        <time>2019-08-09T18:41:36Z</time>
      </trkpt>
      <trkpt lat="47.9314" lon="7.23275">
        <ele>267.6</ele>
        <time>2019-08-09T18:41:37Z</time>
      </trkpt>
      <trkpt lat="47.93137" lon="7.23278">
        <ele>267.4</ele>
        <time>2019-08-09T18:41:38Z</time>
      </trkpt>
      <trkpt lat="47.93133" lon="7.23279">
        <ele>267.3</ele>
        <time>2019-08-09T18:41:39Z</time>
      </trkpt>
      <trkpt lat="47.9313" lon="7.2328">
        <ele>267.1</ele>
        <time>2019-08-09T18:41:40Z</time>
      </trkpt>
      <trkpt lat="47.93126" lon="7.23283">
        <ele>266.9</ele>
        <time>2019-08-09T18:41:41Z</time>
      </trkpt>
      <trkpt lat="47.93123" lon="7.23284">
        <ele>266.7</ele>
        <time>2019-08-09T18:41:42Z</time>
      </trkpt>
      <trkpt lat="47.93119" lon="7.23286">
        <ele>266.2</ele>
        <time>2019-08-09T18:41:43Z</time>
      </trkpt>
      <trkpt lat="47.93116" lon="7.2329">
        <ele>266.1</ele>
        <time>2019-08-09T18:41:44Z</time>
      </trkpt>
      <trkpt lat="47.93112" lon="7.23294">
        <ele>265.9</ele>
        <time>2019-08-09T18:41:45Z</time>
      </trkpt>
      <trkpt lat="47.93107" lon="7.23299">
        <ele>265.7</ele>
        <time>2019-08-09T18:41:46Z</time>
      </trkpt>
      <trkpt lat="47.93103" lon="7.23304">
        <ele>265.5</ele>
        <time>2019-08-09T18:41:47Z</time>
      </trkpt>
      <trkpt lat="47.93098" lon="7.23309">
        <ele>265.3</ele>
        <time>2019-08-09T18:41:48Z</time>
      </trkpt>
      <trkpt lat="47.93094" lon="7.23314">
        <ele>265.1</ele>
        <time>2019-08-09T18:41:49Z</time>
      </trkpt>
      <trkpt lat="47.93089" lon="7.23318">
        <ele>264.9</ele>
        <time>2019-08-09T18:41:50Z</time>
      </trkpt>
      <trkpt lat="47.93084" lon="7.23322">
        <ele>264.7</ele>
        <time>2019-08-09T18:41:51Z</time>
      </trkpt>
      <trkpt lat="47.9308" lon="7.23325">
        <ele>264.6</ele>
        <time>2019-08-09T18:41:52Z</time>
      </trkpt>
      <trkpt lat="47.93074" lon="7.23328">
        <ele>264.5</ele>
        <time>2019-08-09T18:41:53Z</time>
      </trkpt>
      <trkpt lat="47.93069" lon="7.23332">
        <ele>264.5</ele>
        <time>2019-08-09T18:41:54Z</time>
      </trkpt>
      <trkpt lat="47.93063" lon="7.23335">
        <ele>264.4</ele>
        <time>2019-08-09T18:41:55Z</time>
      </trkpt>
      <trkpt lat="47.93057" lon="7.23338">
        <ele>264.3</ele>
        <time>2019-08-09T18:41:56Z</time>
      </trkpt>
      <trkpt lat="47.93052" lon="7.2334">
        <ele>264.2</ele>
        <time>2019-08-09T18:41:57Z</time>
      </trkpt>
      <trkpt lat="47.93046" lon="7.23343">
        <ele>264</ele>
        <time>2019-08-09T18:41:58Z</time>
      </trkpt>
      <trkpt lat="47.9304" lon="7.23346">
        <ele>263.8</ele>
        <time>2019-08-09T18:41:59Z</time>
      </trkpt>
      <trkpt lat="47.93034" lon="7.2335">
        <ele>263.5</ele>
        <time>2019-08-09T18:42:00Z</time>
      </trkpt>
      <trkpt lat="47.93028" lon="7.23353">
        <ele>263.1</ele>
        <time>2019-08-09T18:42:01Z</time>
      </trkpt>
      <trkpt lat="47.93022" lon="7.23355">
        <ele>262.7</ele>
        <time>2019-08-09T18:42:02Z</time>
      </trkpt>
      <trkpt lat="47.93016" lon="7.23358">
        <ele>262.4</ele>
        <time>2019-08-09T18:42:03Z</time>
      </trkpt>
      <trkpt lat="47.93011" lon="7.2336">
        <ele>262.2</ele>
        <time>2019-08-09T18:42:04Z</time>
      </trkpt>
      <trkpt lat="47.93005" lon="7.23365">
        <ele>262</ele>
        <time>2019-08-09T18:42:05Z</time>
      </trkpt>
      <trkpt lat="47.92999" lon="7.2337">
        <ele>261.8</ele>
        <time>2019-08-09T18:42:06Z</time>
      </trkpt>
      <trkpt lat="47.92995" lon="7.23375">
        <ele>261.7</ele>
        <time>2019-08-09T18:42:07Z</time>
      </trkpt>
      <trkpt lat="47.92991" lon="7.23381">
        <ele>261.6</ele>
        <time>2019-08-09T18:42:08Z</time>
      </trkpt>
      <trkpt lat="47.92987" lon="7.23387">
        <ele>261.5</ele>
        <time>2019-08-09T18:42:09Z</time>
      </trkpt>
      <trkpt lat="47.92983" lon="7.23391">
        <ele>261.5</ele>
        <time>2019-08-09T18:42:10Z</time>
      </trkpt>
      <trkpt lat="47.92978" lon="7.23396">
        <ele>261.6</ele>
        <time>2019-08-09T18:42:11Z</time>
      </trkpt>
      <trkpt lat="47.92973" lon="7.234">
        <ele>261.6</ele>
        <time>2019-08-09T18:42:12Z</time>
      </trkpt>
      <trkpt lat="47.92967" lon="7.23403">
        <ele>261.7</ele>
        <time>2019-08-09T18:42:13Z</time>
      </trkpt>
      <trkpt lat="47.92962" lon="7.23408">
        <ele>261.8</ele>
        <time>2019-08-09T18:42:14Z</time>
      </trkpt>
      <trkpt lat="47.92957" lon="7.23413">
        <ele>261.9</ele>
        <time>2019-08-09T18:42:15Z</time>
      </trkpt>
      <trkpt lat="47.92952" lon="7.23418">
        <ele>261.9</ele>
        <time>2019-08-09T18:42:16Z</time>
      </trkpt>
      <trkpt lat="47.92948" lon="7.23423">
        <ele>262</ele>
        <time>2019-08-09T18:42:17Z</time>
      </trkpt>
      <trkpt lat="47.92944" lon="7.23427">
        <ele>262.1</ele>
        <time>2019-08-09T18:42:18Z</time>
      </trkpt>
      <trkpt lat="47.92941" lon="7.2343">
        <ele>262.2</ele>
        <time>2019-08-09T18:42:19Z</time>
      </trkpt>
      <trkpt lat="47.92938" lon="7.23432">
        <ele>262.2</ele>
        <time>2019-08-09T18:42:20Z</time>
      </trkpt>
      <trkpt lat="47.92932" lon="7.23432">
        <ele>262.3</ele>
        <time>2019-08-09T18:42:22Z</time>
      </trkpt>
      <trkpt lat="47.92933" lon="7.23428">
        <ele>262.3</ele>
        <time>2019-08-09T18:42:27Z</time>
      </trkpt>
      <trkpt lat="47.92932" lon="7.23432">
        <ele>262.4</ele>
        <time>2019-08-09T18:42:29Z</time>
      </trkpt>
      <trkpt lat="47.92931" lon="7.23437">
        <ele>262.5</ele>
        <time>2019-08-09T18:42:30Z</time>
      </trkpt>
      <trkpt lat="47.9293" lon="7.23441">
        <ele>262.5</ele>
        <time>2019-08-09T18:42:31Z</time>
      </trkpt>
      <trkpt lat="47.92928" lon="7.23449">
        <ele>261.9</ele>
        <time>2019-08-09T18:42:33Z</time>
      </trkpt>
      <trkpt lat="47.92927" lon="7.23454">
        <ele>261.6</ele>
        <time>2019-08-09T18:42:34Z</time>
      </trkpt>
      <trkpt lat="47.92926" lon="7.23459">
        <ele>261.3</ele>
        <time>2019-08-09T18:42:35Z</time>
      </trkpt>
      <trkpt lat="47.92925" lon="7.23464">
        <ele>261</ele>
        <time>2019-08-09T18:42:36Z</time>
      </trkpt>
      <trkpt lat="47.92924" lon="7.2347">
        <ele>260.7</ele>
        <time>2019-08-09T18:42:37Z</time>
      </trkpt>
      <trkpt lat="47.92923" lon="7.23475">
        <ele>260.4</ele>
        <time>2019-08-09T18:42:38Z</time>
      </trkpt>
      <trkpt lat="47.92922" lon="7.2348">
        <ele>260.1</ele>
        <time>2019-08-09T18:42:39Z</time>
      </trkpt>
      <trkpt lat="47.92921" lon="7.23487">
        <ele>259.8</ele>
        <time>2019-08-09T18:42:40Z</time>
      </trkpt>
      <trkpt lat="47.9292" lon="7.23495">
        <ele>258.9</ele>
        <time>2019-08-09T18:42:41Z</time>
      </trkpt>
      <trkpt lat="47.92919" lon="7.23502">
        <ele>258.3</ele>
        <time>2019-08-09T18:42:42Z</time>
      </trkpt>
      <trkpt lat="47.92918" lon="7.2351">
        <ele>257.6</ele>
        <time>2019-08-09T18:42:43Z</time>
      </trkpt>
      <trkpt lat="47.92917" lon="7.23517">
        <ele>256.9</ele>
        <time>2019-08-09T18:42:44Z</time>
      </trkpt>
      <trkpt lat="47.92916" lon="7.23523">
        <ele>256.3</ele>
        <time>2019-08-09T18:42:45Z</time>
      </trkpt>
      <trkpt lat="47.92916" lon="7.2353">
        <ele>255.9</ele>
        <time>2019-08-09T18:42:47Z</time>
      </trkpt>
      <trkpt lat="47.92917" lon="7.23535">
        <ele>255.6</ele>
        <time>2019-08-09T18:43:22Z</time>
      </trkpt>
      <trkpt lat="47.92917" lon="7.23539">
        <ele>255.4</ele>
        <time>2019-08-09T18:43:25Z</time>
      </trkpt>
      <trkpt lat="47.92916" lon="7.2355">
        <ele>254.9</ele>
        <time>2019-08-09T18:44:26Z</time>
      </trkpt>
      <trkpt lat="47.92917" lon="7.23555">
        <ele>254.6</ele>
        <time>2019-08-09T18:44:30Z</time>
      </trkpt>
      <trkpt lat="47.92915" lon="7.23561">
        <ele>254.4</ele>
        <time>2019-08-09T18:44:32Z</time>
      </trkpt>
      <trkpt lat="47.92915" lon="7.23567">
        <ele>254.2</ele>
        <time>2019-08-09T18:44:34Z</time>
      </trkpt>
      <trkpt lat="47.92914" lon="7.23571">
        <ele>254</ele>
        <time>2019-08-09T18:44:35Z</time>
      </trkpt>
      <trkpt lat="47.92914" lon="7.23576">
        <ele>253.9</ele>
        <time>2019-08-09T18:44:36Z</time>
      </trkpt>
      <trkpt lat="47.92913" lon="7.23581">
        <ele>253.8</ele>
        <time>2019-08-09T18:44:37Z</time>
      </trkpt>
      <trkpt lat="47.92912" lon="7.23586">
        <ele>253.7</ele>
        <time>2019-08-09T18:44:38Z</time>
      </trkpt>
      <trkpt lat="47.92911" lon="7.2359">
        <ele>253.6</ele>
        <time>2019-08-09T18:44:39Z</time>
      </trkpt>
      <trkpt lat="47.92911" lon="7.23594">
        <ele>253.5</ele>
        <time>2019-08-09T18:44:40Z</time>
      </trkpt>
      <trkpt lat="47.9291" lon="7.23598">
        <ele>253.4</ele>
        <time>2019-08-09T18:44:41Z</time>
      </trkpt>
      <trkpt lat="47.92909" lon="7.23602">
        <ele>253.4</ele>
        <time>2019-08-09T18:44:42Z</time>
      </trkpt>
      <trkpt lat="47.92908" lon="7.23606">
        <ele>253.3</ele>
        <time>2019-08-09T18:44:43Z</time>
      </trkpt>
      <trkpt lat="47.92906" lon="7.2361">
        <ele>253.2</ele>
        <time>2019-08-09T18:44:44Z</time>
      </trkpt>
      <trkpt lat="47.92905" lon="7.23616">
        <ele>253.1</ele>
        <time>2019-08-09T18:44:46Z</time>
      </trkpt>
      <trkpt lat="47.92904" lon="7.2362">
        <ele>253</ele>
        <time>2019-08-09T18:44:47Z</time>
      </trkpt>
      <trkpt lat="47.92903" lon="7.23624">
        <ele>253</ele>
        <time>2019-08-09T18:44:48Z</time>
      </trkpt>
      <trkpt lat="47.92902" lon="7.23629">
        <ele>253</ele>
        <time>2019-08-09T18:44:49Z</time>
      </trkpt>
      <trkpt lat="47.929" lon="7.23634">
        <ele>252.9</ele>
        <time>2019-08-09T18:44:51Z</time>
      </trkpt>
      <trkpt lat="47.92899" lon="7.23642">
        <ele>252.9</ele>
        <time>2019-08-09T18:44:53Z</time>
      </trkpt>
      <trkpt lat="47.92897" lon="7.23646">
        <ele>252.9</ele>
        <time>2019-08-09T18:44:54Z</time>
      </trkpt>
      <trkpt lat="47.92896" lon="7.2365">
        <ele>252.8</ele>
        <time>2019-08-09T18:44:55Z</time>
      </trkpt>
      <trkpt lat="47.92895" lon="7.23655">
        <ele>252.8</ele>
        <time>2019-08-09T18:44:56Z</time>
      </trkpt>
      <trkpt lat="47.92893" lon="7.2366">
        <ele>252.8</ele>
        <time>2019-08-09T18:44:57Z</time>
      </trkpt>
      <trkpt lat="47.92891" lon="7.23665">
        <ele>252.8</ele>
        <time>2019-08-09T18:44:58Z</time>
      </trkpt>
      <trkpt lat="47.92889" lon="7.2367">
        <ele>252.7</ele>
        <time>2019-08-09T18:44:59Z</time>
      </trkpt>
      <trkpt lat="47.92887" lon="7.23674">
        <ele>252.7</ele>
        <time>2019-08-09T18:45:00Z</time>
      </trkpt>
      <trkpt lat="47.92885" lon="7.2368">
        <ele>252.7</ele>
        <time>2019-08-09T18:45:01Z</time>
      </trkpt>
      <trkpt lat="47.92882" lon="7.23685">
        <ele>252.7</ele>
        <time>2019-08-09T18:45:02Z</time>
      </trkpt>
      <trkpt lat="47.92879" lon="7.23691">
        <ele>252.7</ele>
        <time>2019-08-09T18:45:03Z</time>
      </trkpt>
      <trkpt lat="47.92877" lon="7.23696">
        <ele>252.6</ele>
        <time>2019-08-09T18:45:04Z</time>
      </trkpt>
      <trkpt lat="47.92875" lon="7.23701">
        <ele>252.6</ele>
        <time>2019-08-09T18:45:05Z</time>
      </trkpt>
      <trkpt lat="47.92873" lon="7.23707">
        <ele>252.6</ele>
        <time>2019-08-09T18:45:06Z</time>
      </trkpt>
      <trkpt lat="47.92871" lon="7.23712">
        <ele>252.6</ele>
        <time>2019-08-09T18:45:07Z</time>
      </trkpt>
      <trkpt lat="47.92868" lon="7.23718">
        <ele>252.6</ele>
        <time>2019-08-09T18:45:08Z</time>
      </trkpt>
      <trkpt lat="47.92867" lon="7.23723">
        <ele>252.6</ele>
        <time>2019-08-09T18:45:09Z</time>
      </trkpt>
      <trkpt lat="47.92865" lon="7.23727">
        <ele>252.6</ele>
        <time>2019-08-09T18:45:10Z</time>
      </trkpt>
      <trkpt lat="47.92863" lon="7.23731">
        <ele>252.6</ele>
        <time>2019-08-09T18:45:11Z</time>
      </trkpt>
      <trkpt lat="47.92862" lon="7.23735">
        <ele>252.6</ele>
        <time>2019-08-09T18:45:12Z</time>
      </trkpt>
      <trkpt lat="47.92859" lon="7.2374">
        <ele>252.6</ele>
        <time>2019-08-09T18:45:13Z</time>
      </trkpt>
      <trkpt lat="47.92856" lon="7.23745">
        <ele>252.5</ele>
        <time>2019-08-09T18:45:14Z</time>
      </trkpt>
      <trkpt lat="47.92853" lon="7.23751">
        <ele>252.4</ele>
        <time>2019-08-09T18:45:15Z</time>
      </trkpt>
      <trkpt lat="47.9285" lon="7.23755">
        <ele>252.2</ele>
        <time>2019-08-09T18:45:16Z</time>
      </trkpt>
      <trkpt lat="47.92848" lon="7.23759">
        <ele>252.2</ele>
        <time>2019-08-09T18:45:17Z</time>
      </trkpt>
      <trkpt lat="47.92845" lon="7.23764">
        <ele>252.1</ele>
        <time>2019-08-09T18:45:18Z</time>
      </trkpt>
      <trkpt lat="47.92842" lon="7.23769">
        <ele>252</ele>
        <time>2019-08-09T18:45:19Z</time>
      </trkpt>
      <trkpt lat="47.9284" lon="7.23773">
        <ele>251.9</ele>
        <time>2019-08-09T18:45:20Z</time>
      </trkpt>
      <trkpt lat="47.92837" lon="7.23776">
        <ele>251.8</ele>
        <time>2019-08-09T18:45:21Z</time>
      </trkpt>
      <trkpt lat="47.92834" lon="7.23779">
        <ele>251.7</ele>
        <time>2019-08-09T18:45:22Z</time>
      </trkpt>
      <trkpt lat="47.92832" lon="7.23781">
        <ele>251.7</ele>
        <time>2019-08-09T18:45:23Z</time>
      </trkpt>
      <trkpt lat="47.9283" lon="7.23785">
        <ele>251.6</ele>
        <time>2019-08-09T18:45:24Z</time>
      </trkpt>
      <trkpt lat="47.92827" lon="7.23788">
        <ele>251.6</ele>
        <time>2019-08-09T18:45:25Z</time>
      </trkpt>
      <trkpt lat="47.92825" lon="7.23792">
        <ele>251.5</ele>
        <time>2019-08-09T18:45:26Z</time>
      </trkpt>
      <trkpt lat="47.92821" lon="7.23794">
        <ele>251.4</ele>
        <time>2019-08-09T18:45:28Z</time>
      </trkpt>
      <trkpt lat="47.92822" lon="7.23799">
        <ele>251.4</ele>
        <time>2019-08-09T18:46:19Z</time>
      </trkpt>
      <trkpt lat="47.92819" lon="7.23805">
        <ele>251.3</ele>
        <time>2019-08-09T18:46:21Z</time>
      </trkpt>
      <trkpt lat="47.92817" lon="7.23808">
        <ele>251.3</ele>
        <time>2019-08-09T18:46:22Z</time>
      </trkpt>
      <trkpt lat="47.92814" lon="7.23811">
        <ele>251.2</ele>
        <time>2019-08-09T18:46:23Z</time>
      </trkpt>
      <trkpt lat="47.92812" lon="7.23815">
        <ele>251.2</ele>
        <time>2019-08-09T18:46:24Z</time>
      </trkpt>
      <trkpt lat="47.92809" lon="7.23818">
        <ele>251.1</ele>
        <time>2019-08-09T18:46:25Z</time>
      </trkpt>
      <trkpt lat="47.92806" lon="7.23821">
        <ele>251.1</ele>
        <time>2019-08-09T18:46:26Z</time>
      </trkpt>
      <trkpt lat="47.92803" lon="7.23825">
        <ele>251</ele>
        <time>2019-08-09T18:46:27Z</time>
      </trkpt>
      <trkpt lat="47.928" lon="7.23828">
        <ele>251</ele>
        <time>2019-08-09T18:46:28Z</time>
      </trkpt>
      <trkpt lat="47.92797" lon="7.23831">
        <ele>251</ele>
        <time>2019-08-09T18:46:29Z</time>
      </trkpt>
      <trkpt lat="47.92794" lon="7.23835">
        <ele>250.9</ele>
        <time>2019-08-09T18:46:30Z</time>
      </trkpt>
      <trkpt lat="47.92792" lon="7.23838">
        <ele>250.9</ele>
        <time>2019-08-09T18:46:31Z</time>
      </trkpt>
      <trkpt lat="47.92788" lon="7.23841">
        <ele>250.8</ele>
        <time>2019-08-09T18:46:32Z</time>
      </trkpt>
      <trkpt lat="47.92785" lon="7.23844">
        <ele>250.8</ele>
        <time>2019-08-09T18:46:33Z</time>
      </trkpt>
      <trkpt lat="47.92782" lon="7.23848">
        <ele>250.7</ele>
        <time>2019-08-09T18:46:34Z</time>
      </trkpt>
      <trkpt lat="47.92779" lon="7.23851">
        <ele>250.7</ele>
        <time>2019-08-09T18:46:35Z</time>
      </trkpt>
      <trkpt lat="47.92776" lon="7.23855">
        <ele>250.6</ele>
        <time>2019-08-09T18:46:36Z</time>
      </trkpt>
      <trkpt lat="47.92772" lon="7.23858">
        <ele>250.6</ele>
        <time>2019-08-09T18:46:37Z</time>
      </trkpt>
      <trkpt lat="47.92769" lon="7.23862">
        <ele>250.5</ele>
        <time>2019-08-09T18:46:38Z</time>
      </trkpt>
      <trkpt lat="47.92765" lon="7.23865">
        <ele>250.5</ele>
        <time>2019-08-09T18:46:39Z</time>
      </trkpt>
      <trkpt lat="47.92762" lon="7.23868">
        <ele>250.4</ele>
        <time>2019-08-09T18:46:40Z</time>
      </trkpt>
      <trkpt lat="47.92759" lon="7.23872">
        <ele>250.4</ele>
        <time>2019-08-09T18:46:41Z</time>
      </trkpt>
      <trkpt lat="47.92755" lon="7.23875">
        <ele>250.3</ele>
        <time>2019-08-09T18:46:42Z</time>
      </trkpt>
      <trkpt lat="47.92752" lon="7.23879">
        <ele>250.3</ele>
        <time>2019-08-09T18:46:43Z</time>
      </trkpt>
      <trkpt lat="47.92749" lon="7.23882">
        <ele>250.2</ele>
        <time>2019-08-09T18:46:44Z</time>
      </trkpt>
      <trkpt lat="47.92746" lon="7.23885">
        <ele>250.2</ele>
        <time>2019-08-09T18:46:45Z</time>
      </trkpt>
      <trkpt lat="47.92742" lon="7.23889">
        <ele>250.2</ele>
        <time>2019-08-09T18:46:46Z</time>
      </trkpt>
      <trkpt lat="47.92739" lon="7.23893">
        <ele>250.1</ele>
        <time>2019-08-09T18:46:47Z</time>
      </trkpt>
      <trkpt lat="47.92735" lon="7.23896">
        <ele>250.1</ele>
        <time>2019-08-09T18:46:48Z</time>
      </trkpt>
      <trkpt lat="47.92731" lon="7.239">
        <ele>250</ele>
        <time>2019-08-09T18:46:49Z</time>
      </trkpt>
      <trkpt lat="47.92728" lon="7.23904">
        <ele>250</ele>
        <time>2019-08-09T18:46:50Z</time>
      </trkpt>
      <trkpt lat="47.92724" lon="7.23908">
        <ele>250</ele>
        <time>2019-08-09T18:46:51Z</time>
      </trkpt>
      <trkpt lat="47.92721" lon="7.23912">
        <ele>249.9</ele>
        <time>2019-08-09T18:46:52Z</time>
      </trkpt>
      <trkpt lat="47.92717" lon="7.23916">
        <ele>249.9</ele>
        <time>2019-08-09T18:46:53Z</time>
      </trkpt>
      <trkpt lat="47.92714" lon="7.2392">
        <ele>249.8</ele>
        <time>2019-08-09T18:46:54Z</time>
      </trkpt>
      <trkpt lat="47.9271" lon="7.23924">
        <ele>249.8</ele>
        <time>2019-08-09T18:46:55Z</time>
      </trkpt>
      <trkpt lat="47.92706" lon="7.23928">
        <ele>249.7</ele>
        <time>2019-08-09T18:46:56Z</time>
      </trkpt>
      <trkpt lat="47.92703" lon="7.23932">
        <ele>249.7</ele>
        <time>2019-08-09T18:46:57Z</time>
      </trkpt>
      <trkpt lat="47.92699" lon="7.23935">
        <ele>249.6</ele>
        <time>2019-08-09T18:46:58Z</time>
      </trkpt>
      <trkpt lat="47.92695" lon="7.23939">
        <ele>249.6</ele>
        <time>2019-08-09T18:46:59Z</time>
      </trkpt>
      <trkpt lat="47.92692" lon="7.23943">
        <ele>249.5</ele>
        <time>2019-08-09T18:47:00Z</time>
      </trkpt>
      <trkpt lat="47.92688" lon="7.23946">
        <ele>250</ele>
        <time>2019-08-09T18:47:01Z</time>
      </trkpt>
      <trkpt lat="47.92684" lon="7.2395">
        <ele>250.3</ele>
        <time>2019-08-09T18:47:02Z</time>
      </trkpt>
      <trkpt lat="47.9268" lon="7.23953">
        <ele>250.6</ele>
        <time>2019-08-09T18:47:03Z</time>
      </trkpt>
      <trkpt lat="47.92677" lon="7.23957">
        <ele>250.9</ele>
        <time>2019-08-09T18:47:04Z</time>
      </trkpt>
      <trkpt lat="47.92673" lon="7.2396">
        <ele>251.2</ele>
        <time>2019-08-09T18:47:05Z</time>
      </trkpt>
      <trkpt lat="47.92669" lon="7.23963">
        <ele>251.4</ele>
        <time>2019-08-09T18:47:06Z</time>
      </trkpt>
      <trkpt lat="47.92666" lon="7.23965">
        <ele>251.4</ele>
        <time>2019-08-09T18:47:07Z</time>
      </trkpt>
      <trkpt lat="47.92662" lon="7.23967">
        <ele>251.4</ele>
        <time>2019-08-09T18:47:08Z</time>
      </trkpt>
      <trkpt lat="47.92658" lon="7.23969">
        <ele>251.4</ele>
        <time>2019-08-09T18:47:09Z</time>
      </trkpt>
      <trkpt lat="47.92655" lon="7.2397">
        <ele>251.4</ele>
        <time>2019-08-09T18:47:10Z</time>
      </trkpt>
      <trkpt lat="47.92651" lon="7.23972">
        <ele>251.4</ele>
        <time>2019-08-09T18:47:11Z</time>
      </trkpt>
      <trkpt lat="47.92647" lon="7.23973">
        <ele>251.4</ele>
        <time>2019-08-09T18:47:12Z</time>
      </trkpt>
      <trkpt lat="47.92643" lon="7.23975">
        <ele>251.4</ele>
        <time>2019-08-09T18:47:13Z</time>
      </trkpt>
      <trkpt lat="47.92639" lon="7.23976">
        <ele>251.4</ele>
        <time>2019-08-09T18:47:14Z</time>
      </trkpt>
      <trkpt lat="47.92635" lon="7.23977">
        <ele>251.5</ele>
        <time>2019-08-09T18:47:15Z</time>
      </trkpt>
      <trkpt lat="47.92632" lon="7.23978">
        <ele>251.5</ele>
        <time>2019-08-09T18:47:16Z</time>
      </trkpt>
      <trkpt lat="47.92628" lon="7.23978">
        <ele>251.5</ele>
        <time>2019-08-09T18:47:17Z</time>
      </trkpt>
      <trkpt lat="47.92624" lon="7.2398">
        <ele>251.5</ele>
        <time>2019-08-09T18:47:18Z</time>
      </trkpt>
      <trkpt lat="47.92621" lon="7.23981">
        <ele>251.5</ele>
        <time>2019-08-09T18:47:19Z</time>
      </trkpt>
      <trkpt lat="47.92617" lon="7.23982">
        <ele>251.5</ele>
        <time>2019-08-09T18:47:20Z</time>
      </trkpt>
      <trkpt lat="47.92614" lon="7.23983">
        <ele>251.6</ele>
        <time>2019-08-09T18:47:21Z</time>
      </trkpt>
      <trkpt lat="47.9261" lon="7.23984">
        <ele>251.6</ele>
        <time>2019-08-09T18:47:22Z</time>
      </trkpt>
      <trkpt lat="47.92607" lon="7.23985">
        <ele>251.7</ele>
        <time>2019-08-09T18:47:23Z</time>
      </trkpt>
      <trkpt lat="47.92603" lon="7.23986">
        <ele>251.7</ele>
        <time>2019-08-09T18:47:24Z</time>
      </trkpt>
      <trkpt lat="47.92599" lon="7.23987">
        <ele>251.8</ele>
        <time>2019-08-09T18:47:25Z</time>
      </trkpt>
      <trkpt lat="47.92596" lon="7.23988">
        <ele>251.9</ele>
        <time>2019-08-09T18:47:26Z</time>
      </trkpt>
      <trkpt lat="47.92592" lon="7.23989">
        <ele>252</ele>
        <time>2019-08-09T18:47:27Z</time>
      </trkpt>
      <trkpt lat="47.92588" lon="7.2399">
        <ele>252.1</ele>
        <time>2019-08-09T18:47:28Z</time>
      </trkpt>
      <trkpt lat="47.92585" lon="7.23991">
        <ele>252.2</ele>
        <time>2019-08-09T18:47:29Z</time>
      </trkpt>
      <trkpt lat="47.92581" lon="7.23992">
        <ele>252.3</ele>
        <time>2019-08-09T18:47:30Z</time>
      </trkpt>
      <trkpt lat="47.92578" lon="7.23993">
        <ele>252.3</ele>
        <time>2019-08-09T18:47:31Z</time>
      </trkpt>
      <trkpt lat="47.92574" lon="7.23995">
        <ele>252.4</ele>
        <time>2019-08-09T18:47:32Z</time>
      </trkpt>
      <trkpt lat="47.9257" lon="7.23996">
        <ele>252.4</ele>
        <time>2019-08-09T18:47:33Z</time>
      </trkpt>
      <trkpt lat="47.92567" lon="7.23998">
        <ele>252.4</ele>
        <time>2019-08-09T18:47:34Z</time>
      </trkpt>
      <trkpt lat="47.92563" lon="7.23999">
        <ele>252.4</ele>
        <time>2019-08-09T18:47:35Z</time>
      </trkpt>
      <trkpt lat="47.9256" lon="7.24001">
        <ele>252.4</ele>
        <time>2019-08-09T18:47:36Z</time>
      </trkpt>
      <trkpt lat="47.92556" lon="7.24003">
        <ele>252.4</ele>
        <time>2019-08-09T18:47:37Z</time>
      </trkpt>
      <trkpt lat="47.92552" lon="7.24005">
        <ele>252.4</ele>
        <time>2019-08-09T18:47:38Z</time>
      </trkpt>
      <trkpt lat="47.92548" lon="7.24007">
        <ele>252.4</ele>
        <time>2019-08-09T18:47:39Z</time>
      </trkpt>
      <trkpt lat="47.92544" lon="7.2401">
        <ele>252.4</ele>
        <time>2019-08-09T18:47:40Z</time>
      </trkpt>
      <trkpt lat="47.9254" lon="7.24013">
        <ele>252.4</ele>
        <time>2019-08-09T18:47:41Z</time>
      </trkpt>
      <trkpt lat="47.92536" lon="7.24016">
        <ele>252.4</ele>
        <time>2019-08-09T18:47:42Z</time>
      </trkpt>
      <trkpt lat="47.92531" lon="7.24019">
        <ele>252.5</ele>
        <time>2019-08-09T18:47:43Z</time>
      </trkpt>
      <trkpt lat="47.92526" lon="7.24022">
        <ele>252.5</ele>
        <time>2019-08-09T18:47:44Z</time>
      </trkpt>
      <trkpt lat="47.92522" lon="7.24026">
        <ele>252.5</ele>
        <time>2019-08-09T18:47:45Z</time>
      </trkpt>
      <trkpt lat="47.92517" lon="7.2403">
        <ele>252.5</ele>
        <time>2019-08-09T18:47:46Z</time>
      </trkpt>
      <trkpt lat="47.92512" lon="7.24034">
        <ele>252.5</ele>
        <time>2019-08-09T18:47:47Z</time>
      </trkpt>
      <trkpt lat="47.92508" lon="7.24038">
        <ele>252.5</ele>
        <time>2019-08-09T18:47:48Z</time>
      </trkpt>
      <trkpt lat="47.92502" lon="7.24042">
        <ele>252.5</ele>
        <time>2019-08-09T18:47:49Z</time>
      </trkpt>
      <trkpt lat="47.92497" lon="7.24046">
        <ele>252.5</ele>
        <time>2019-08-09T18:47:50Z</time>
      </trkpt>
      <trkpt lat="47.92492" lon="7.2405">
        <ele>252.4</ele>
        <time>2019-08-09T18:47:51Z</time>
      </trkpt>
      <trkpt lat="47.92487" lon="7.24053">
        <ele>252.4</ele>
        <time>2019-08-09T18:47:52Z</time>
      </trkpt>
      <trkpt lat="47.92481" lon="7.24057">
        <ele>252.4</ele>
        <time>2019-08-09T18:47:53Z</time>
      </trkpt>
      <trkpt lat="47.92476" lon="7.2406">
        <ele>252.3</ele>
        <time>2019-08-09T18:47:54Z</time>
      </trkpt>
      <trkpt lat="47.9247" lon="7.24064">
        <ele>252.3</ele>
        <time>2019-08-09T18:47:55Z</time>
      </trkpt>
      <trkpt lat="47.92465" lon="7.24068">
        <ele>252.1</ele>
        <time>2019-08-09T18:47:56Z</time>
      </trkpt>
      <trkpt lat="47.92459" lon="7.24072">
        <ele>251.9</ele>
        <time>2019-08-09T18:47:57Z</time>
      </trkpt>
      <trkpt lat="47.92452" lon="7.24075">
        <ele>251.6</ele>
        <time>2019-08-09T18:47:58Z</time>
      </trkpt>
      <trkpt lat="47.92446" lon="7.24079">
        <ele>251.4</ele>
        <time>2019-08-09T18:47:59Z</time>
      </trkpt>
      <trkpt lat="47.9244" lon="7.24082">
        <ele>251.1</ele>
        <time>2019-08-09T18:48:00Z</time>
      </trkpt>
      <trkpt lat="47.92435" lon="7.24085">
        <ele>250.9</ele>
        <time>2019-08-09T18:48:01Z</time>
      </trkpt>
      <trkpt lat="47.9243" lon="7.24089">
        <ele>250.7</ele>
        <time>2019-08-09T18:48:02Z</time>
      </trkpt>
      <trkpt lat="47.92425" lon="7.24093">
        <ele>250.6</ele>
        <time>2019-08-09T18:48:03Z</time>
      </trkpt>
      <trkpt lat="47.9242" lon="7.24097">
        <ele>250.5</ele>
        <time>2019-08-09T18:48:04Z</time>
      </trkpt>
      <trkpt lat="47.92415" lon="7.24101">
        <ele>250.4</ele>
        <time>2019-08-09T18:48:05Z</time>
      </trkpt>
      <trkpt lat="47.92409" lon="7.24105">
        <ele>250.4</ele>
        <time>2019-08-09T18:48:06Z</time>
      </trkpt>
      <trkpt lat="47.92404" lon="7.2411">
        <ele>250.3</ele>
        <time>2019-08-09T18:48:07Z</time>
      </trkpt>
      <trkpt lat="47.92399" lon="7.24115">
        <ele>250.2</ele>
        <time>2019-08-09T18:48:08Z</time>
      </trkpt>
      <trkpt lat="47.92394" lon="7.2412">
        <ele>250.1</ele>
        <time>2019-08-09T18:48:09Z</time>
      </trkpt>
      <trkpt lat="47.92388" lon="7.24126">
        <ele>249.9</ele>
        <time>2019-08-09T18:48:10Z</time>
      </trkpt>
      <trkpt lat="47.92382" lon="7.24131">
        <ele>249.7</ele>
        <time>2019-08-09T18:48:11Z</time>
      </trkpt>
      <trkpt lat="47.92377" lon="7.24137">
        <ele>249.5</ele>
        <time>2019-08-09T18:48:12Z</time>
      </trkpt>
      <trkpt lat="47.92371" lon="7.24144">
        <ele>249.3</ele>
        <time>2019-08-09T18:48:13Z</time>
      </trkpt>
      <trkpt lat="47.92365" lon="7.24149">
        <ele>249.1</ele>
        <time>2019-08-09T18:48:14Z</time>
      </trkpt>
      <trkpt lat="47.92359" lon="7.24155">
        <ele>248.8</ele>
        <time>2019-08-09T18:48:15Z</time>
      </trkpt>
      <trkpt lat="47.92354" lon="7.2416">
        <ele>248.6</ele>
        <time>2019-08-09T18:48:16Z</time>
      </trkpt>
      <trkpt lat="47.92348" lon="7.24165">
        <ele>248.4</ele>
        <time>2019-08-09T18:48:17Z</time>
      </trkpt>
      <trkpt lat="47.92343" lon="7.24171">
        <ele>248.1</ele>
        <time>2019-08-09T18:48:18Z</time>
      </trkpt>
      <trkpt lat="47.92338" lon="7.24177">
        <ele>247.9</ele>
        <time>2019-08-09T18:48:19Z</time>
      </trkpt>
      <trkpt lat="47.92333" lon="7.24183">
        <ele>247.6</ele>
        <time>2019-08-09T18:48:20Z</time>
      </trkpt>
      <trkpt lat="47.92328" lon="7.24189">
        <ele>247.4</ele>
        <time>2019-08-09T18:48:21Z</time>
      </trkpt>
      <trkpt lat="47.92324" lon="7.24196">
        <ele>247.1</ele>
        <time>2019-08-09T18:48:22Z</time>
      </trkpt>
      <trkpt lat="47.92319" lon="7.24202">
        <ele>246.9</ele>
        <time>2019-08-09T18:48:23Z</time>
      </trkpt>
      <trkpt lat="47.92315" lon="7.24209">
        <ele>246.5</ele>
        <time>2019-08-09T18:48:24Z</time>
      </trkpt>
      <trkpt lat="47.9231" lon="7.24216">
        <ele>245.7</ele>
        <time>2019-08-09T18:48:25Z</time>
      </trkpt>
      <trkpt lat="47.92306" lon="7.24223">
        <ele>245.5</ele>
        <time>2019-08-09T18:48:26Z</time>
      </trkpt>
      <trkpt lat="47.92302" lon="7.2423">
        <ele>245.5</ele>
        <time>2019-08-09T18:48:27Z</time>
      </trkpt>
      <trkpt lat="47.92297" lon="7.24237">
        <ele>245.5</ele>
        <time>2019-08-09T18:48:28Z</time>
      </trkpt>
      <trkpt lat="47.92292" lon="7.24245">
        <ele>245.5</ele>
        <time>2019-08-09T18:48:29Z</time>
      </trkpt>
      <trkpt lat="47.92286" lon="7.24252">
        <ele>245.5</ele>
        <time>2019-08-09T18:48:30Z</time>
      </trkpt>
      <trkpt lat="47.9228" lon="7.24258">
        <ele>245.5</ele>
        <time>2019-08-09T18:48:31Z</time>
      </trkpt>
      <trkpt lat="47.92275" lon="7.24264">
        <ele>245.5</ele>
        <time>2019-08-09T18:48:32Z</time>
      </trkpt>
      <trkpt lat="47.92269" lon="7.2427">
        <ele>245.5</ele>
        <time>2019-08-09T18:48:33Z</time>
      </trkpt>
      <trkpt lat="47.92263" lon="7.24275">
        <ele>245.6</ele>
        <time>2019-08-09T18:48:34Z</time>
      </trkpt>
      <trkpt lat="47.92258" lon="7.2428">
        <ele>245.6</ele>
        <time>2019-08-09T18:48:35Z</time>
      </trkpt>
      <trkpt lat="47.92252" lon="7.24284">
        <ele>245.6</ele>
        <time>2019-08-09T18:48:36Z</time>
      </trkpt>
      <trkpt lat="47.92247" lon="7.24289">
        <ele>245.7</ele>
        <time>2019-08-09T18:48:37Z</time>
      </trkpt>
      <trkpt lat="47.92241" lon="7.24293">
        <ele>245.7</ele>
        <time>2019-08-09T18:48:38Z</time>
      </trkpt>
      <trkpt lat="47.92236" lon="7.24297">
        <ele>245.8</ele>
        <time>2019-08-09T18:48:39Z</time>
      </trkpt>
      <trkpt lat="47.9223" lon="7.24302">
        <ele>245.8</ele>
        <time>2019-08-09T18:48:40Z</time>
      </trkpt>
      <trkpt lat="47.92224" lon="7.24306">
        <ele>245.8</ele>
        <time>2019-08-09T18:48:41Z</time>
      </trkpt>
      <trkpt lat="47.92219" lon="7.2431">
        <ele>245.9</ele>
        <time>2019-08-09T18:48:42Z</time>
      </trkpt>
      <trkpt lat="47.92213" lon="7.24314">
        <ele>245.9</ele>
        <time>2019-08-09T18:48:43Z</time>
      </trkpt>
      <trkpt lat="47.92208" lon="7.24318">
        <ele>246</ele>
        <time>2019-08-09T18:48:44Z</time>
      </trkpt>
      <trkpt lat="47.92204" lon="7.24321">
        <ele>246</ele>
        <time>2019-08-09T18:48:45Z</time>
      </trkpt>
      <trkpt lat="47.92199" lon="7.24324">
        <ele>246</ele>
        <time>2019-08-09T18:48:46Z</time>
      </trkpt>
      <trkpt lat="47.92194" lon="7.24327">
        <ele>246.1</ele>
        <time>2019-08-09T18:48:47Z</time>
      </trkpt>
      <trkpt lat="47.92188" lon="7.2433">
        <ele>246.1</ele>
        <time>2019-08-09T18:48:48Z</time>
      </trkpt>
      <trkpt lat="47.92183" lon="7.24333">
        <ele>246.2</ele>
        <time>2019-08-09T18:48:49Z</time>
      </trkpt>
      <trkpt lat="47.92178" lon="7.24336">
        <ele>246.2</ele>
        <time>2019-08-09T18:48:50Z</time>
      </trkpt>
      <trkpt lat="47.92173" lon="7.2434">
        <ele>246.3</ele>
        <time>2019-08-09T18:48:51Z</time>
      </trkpt>
      <trkpt lat="47.92168" lon="7.24343">
        <ele>246.3</ele>
        <time>2019-08-09T18:48:52Z</time>
      </trkpt>
      <trkpt lat="47.92162" lon="7.24346">
        <ele>246.2</ele>
        <time>2019-08-09T18:48:53Z</time>
      </trkpt>
      <trkpt lat="47.92157" lon="7.24349">
        <ele>246.1</ele>
        <time>2019-08-09T18:48:54Z</time>
      </trkpt>
      <trkpt lat="47.92152" lon="7.24352">
        <ele>245.9</ele>
        <time>2019-08-09T18:48:55Z</time>
      </trkpt>
      <trkpt lat="47.92146" lon="7.24355">
        <ele>245.7</ele>
        <time>2019-08-09T18:48:56Z</time>
      </trkpt>
      <trkpt lat="47.9214" lon="7.24358">
        <ele>245.6</ele>
        <time>2019-08-09T18:48:57Z</time>
      </trkpt>
      <trkpt lat="47.92134" lon="7.24361">
        <ele>245.4</ele>
        <time>2019-08-09T18:48:58Z</time>
      </trkpt>
      <trkpt lat="47.92128" lon="7.24364">
        <ele>245.3</ele>
        <time>2019-08-09T18:48:59Z</time>
      </trkpt>
      <trkpt lat="47.92122" lon="7.24368">
        <ele>245.1</ele>
        <time>2019-08-09T18:49:00Z</time>
      </trkpt>
      <trkpt lat="47.92117" lon="7.24371">
        <ele>245</ele>
        <time>2019-08-09T18:49:01Z</time>
      </trkpt>
      <trkpt lat="47.92111" lon="7.24374">
        <ele>244.9</ele>
        <time>2019-08-09T18:49:02Z</time>
      </trkpt>
      <trkpt lat="47.92105" lon="7.24377">
        <ele>244.8</ele>
        <time>2019-08-09T18:49:03Z</time>
      </trkpt>
      <trkpt lat="47.92099" lon="7.2438">
        <ele>244.7</ele>
        <time>2019-08-09T18:49:04Z</time>
      </trkpt>
      <trkpt lat="47.92094" lon="7.24383">
        <ele>244.7</ele>
        <time>2019-08-09T18:49:05Z</time>
      </trkpt>
      <trkpt lat="47.92088" lon="7.24386">
        <ele>244.7</ele>
        <time>2019-08-09T18:49:06Z</time>
      </trkpt>
      <trkpt lat="47.92082" lon="7.24389">
        <ele>244.7</ele>
        <time>2019-08-09T18:49:07Z</time>
      </trkpt>
      <trkpt lat="47.92076" lon="7.24391">
        <ele>244.7</ele>
        <time>2019-08-09T18:49:08Z</time>
      </trkpt>
      <trkpt lat="47.9207" lon="7.24393">
        <ele>244.6</ele>
        <time>2019-08-09T18:49:09Z</time>
      </trkpt>
      <trkpt lat="47.92064" lon="7.24394">
        <ele>244.6</ele>
        <time>2019-08-09T18:49:10Z</time>
      </trkpt>
      <trkpt lat="47.92058" lon="7.24393">
        <ele>244.5</ele>
        <time>2019-08-09T18:49:11Z</time>
      </trkpt>
      <trkpt lat="47.92052" lon="7.24392">
        <ele>244.5</ele>
        <time>2019-08-09T18:49:12Z</time>
      </trkpt>
      <trkpt lat="47.92046" lon="7.2439">
        <ele>244.4</ele>
        <time>2019-08-09T18:49:13Z</time>
      </trkpt>
      <trkpt lat="47.9204" lon="7.24387">
        <ele>244.4</ele>
        <time>2019-08-09T18:49:14Z</time>
      </trkpt>
      <trkpt lat="47.92034" lon="7.24383">
        <ele>244.4</ele>
        <time>2019-08-09T18:49:15Z</time>
      </trkpt>
      <trkpt lat="47.92029" lon="7.2438">
        <ele>244.3</ele>
        <time>2019-08-09T18:49:16Z</time>
      </trkpt>
      <trkpt lat="47.92024" lon="7.24376">
        <ele>244.3</ele>
        <time>2019-08-09T18:49:17Z</time>
      </trkpt>
      <trkpt lat="47.92019" lon="7.24373">
        <ele>244.3</ele>
        <time>2019-08-09T18:49:18Z</time>
      </trkpt>
      <trkpt lat="47.92014" lon="7.2437">
        <ele>244.3</ele>
        <time>2019-08-09T18:49:19Z</time>
      </trkpt>
      <trkpt lat="47.9201" lon="7.24367">
        <ele>244.3</ele>
        <time>2019-08-09T18:49:20Z</time>
      </trkpt>
      <trkpt lat="47.92005" lon="7.24364">
        <ele>244.3</ele>
        <time>2019-08-09T18:49:21Z</time>
      </trkpt>
      <trkpt lat="47.92001" lon="7.24362">
        <ele>244.3</ele>
        <time>2019-08-09T18:49:22Z</time>
      </trkpt>
      <trkpt lat="47.91997" lon="7.24361">
        <ele>244.3</ele>
        <time>2019-08-09T18:49:23Z</time>
      </trkpt>
      <trkpt lat="47.91993" lon="7.24359">
        <ele>244.3</ele>
        <time>2019-08-09T18:49:24Z</time>
      </trkpt>
      <trkpt lat="47.91988" lon="7.24357">
        <ele>244.3</ele>
        <time>2019-08-09T18:49:25Z</time>
      </trkpt>
      <trkpt lat="47.91984" lon="7.24356">
        <ele>244.3</ele>
        <time>2019-08-09T18:49:26Z</time>
      </trkpt>
      <trkpt lat="47.9198" lon="7.24356">
        <ele>244.3</ele>
        <time>2019-08-09T18:49:27Z</time>
      </trkpt>
      <trkpt lat="47.91976" lon="7.24357">
        <ele>244.3</ele>
        <time>2019-08-09T18:49:28Z</time>
      </trkpt>
      <trkpt lat="47.91972" lon="7.2436">
        <ele>244.1</ele>
        <time>2019-08-09T18:49:29Z</time>
      </trkpt>
      <trkpt lat="47.91967" lon="7.24365">
        <ele>244</ele>
        <time>2019-08-09T18:49:30Z</time>
      </trkpt>
      <trkpt lat="47.91963" lon="7.24372">
        <ele>243.8</ele>
        <time>2019-08-09T18:49:31Z</time>
      </trkpt>
      <trkpt lat="47.9196" lon="7.24378">
        <ele>243.7</ele>
        <time>2019-08-09T18:49:32Z</time>
      </trkpt>
      <trkpt lat="47.91957" lon="7.24384">
        <ele>243.5</ele>
        <time>2019-08-09T18:49:33Z</time>
      </trkpt>
      <trkpt lat="47.91953" lon="7.24392">
        <ele>243.3</ele>
        <time>2019-08-09T18:49:34Z</time>
      </trkpt>
      <trkpt lat="47.9195" lon="7.24399">
        <ele>243.1</ele>
        <time>2019-08-09T18:49:35Z</time>
      </trkpt>
      <trkpt lat="47.91947" lon="7.24408">
        <ele>242.9</ele>
        <time>2019-08-09T18:49:36Z</time>
      </trkpt>
      <trkpt lat="47.91943" lon="7.24418">
        <ele>242.8</ele>
        <time>2019-08-09T18:49:37Z</time>
      </trkpt>
      <trkpt lat="47.9194" lon="7.24427">
        <ele>242.6</ele>
        <time>2019-08-09T18:49:38Z</time>
      </trkpt>
      <trkpt lat="47.91937" lon="7.24435">
        <ele>242.5</ele>
        <time>2019-08-09T18:49:39Z</time>
      </trkpt>
      <trkpt lat="47.91934" lon="7.24445">
        <ele>242.3</ele>
        <time>2019-08-09T18:49:40Z</time>
      </trkpt>
      <trkpt lat="47.91932" lon="7.24453">
        <ele>242.2</ele>
        <time>2019-08-09T18:49:41Z</time>
      </trkpt>
      <trkpt lat="47.91929" lon="7.24462">
        <ele>242.1</ele>
        <time>2019-08-09T18:49:42Z</time>
      </trkpt>
      <trkpt lat="47.91927" lon="7.24471">
        <ele>242</ele>
        <time>2019-08-09T18:49:43Z</time>
      </trkpt>
      <trkpt lat="47.91925" lon="7.2448">
        <ele>241.9</ele>
        <time>2019-08-09T18:49:44Z</time>
      </trkpt>
      <trkpt lat="47.91922" lon="7.2449">
        <ele>241.8</ele>
        <time>2019-08-09T18:49:45Z</time>
      </trkpt>
      <trkpt lat="47.91919" lon="7.24499">
        <ele>241.7</ele>
        <time>2019-08-09T18:49:46Z</time>
      </trkpt>
      <trkpt lat="47.91916" lon="7.24507">
        <ele>241.5</ele>
        <time>2019-08-09T18:49:47Z</time>
      </trkpt>
      <trkpt lat="47.91913" lon="7.24515">
        <ele>241.3</ele>
        <time>2019-08-09T18:49:48Z</time>
      </trkpt>
      <trkpt lat="47.91911" lon="7.24523">
        <ele>241.1</ele>
        <time>2019-08-09T18:49:49Z</time>
      </trkpt>
      <trkpt lat="47.91908" lon="7.24532">
        <ele>241.2</ele>
        <time>2019-08-09T18:49:50Z</time>
      </trkpt>
      <trkpt lat="47.91906" lon="7.2454">
        <ele>241.2</ele>
        <time>2019-08-09T18:49:51Z</time>
      </trkpt>
      <trkpt lat="47.91904" lon="7.24548">
        <ele>241.2</ele>
        <time>2019-08-09T18:49:52Z</time>
      </trkpt>
      <trkpt lat="47.91901" lon="7.24554">
        <ele>241.2</ele>
        <time>2019-08-09T18:49:53Z</time>
      </trkpt>
      <trkpt lat="47.91899" lon="7.24561">
        <ele>241.2</ele>
        <time>2019-08-09T18:49:54Z</time>
      </trkpt>
      <trkpt lat="47.91896" lon="7.24568">
        <ele>241.2</ele>
        <time>2019-08-09T18:49:55Z</time>
      </trkpt>
      <trkpt lat="47.91894" lon="7.24576">
        <ele>241.1</ele>
        <time>2019-08-09T18:49:56Z</time>
      </trkpt>
      <trkpt lat="47.91892" lon="7.24584">
        <ele>241.1</ele>
        <time>2019-08-09T18:49:57Z</time>
      </trkpt>
      <trkpt lat="47.91889" lon="7.24592">
        <ele>241</ele>
        <time>2019-08-09T18:49:58Z</time>
      </trkpt>
      <trkpt lat="47.91886" lon="7.24599">
        <ele>241</ele>
        <time>2019-08-09T18:49:59Z</time>
      </trkpt>
      <trkpt lat="47.91882" lon="7.24605">
        <ele>241</ele>
        <time>2019-08-09T18:50:00Z</time>
      </trkpt>
      <trkpt lat="47.91878" lon="7.2461">
        <ele>241</ele>
        <time>2019-08-09T18:50:01Z</time>
      </trkpt>
      <trkpt lat="47.91875" lon="7.24616">
        <ele>241</ele>
        <time>2019-08-09T18:50:02Z</time>
      </trkpt>
      <trkpt lat="47.9187" lon="7.24621">
        <ele>241</ele>
        <time>2019-08-09T18:50:03Z</time>
      </trkpt>
      <trkpt lat="47.91866" lon="7.24627">
        <ele>241</ele>
        <time>2019-08-09T18:50:04Z</time>
      </trkpt>
      <trkpt lat="47.91862" lon="7.24631">
        <ele>241</ele>
        <time>2019-08-09T18:50:05Z</time>
      </trkpt>
      <trkpt lat="47.91857" lon="7.24636">
        <ele>241</ele>
        <time>2019-08-09T18:50:06Z</time>
      </trkpt>
      <trkpt lat="47.91852" lon="7.24641">
        <ele>241</ele>
        <time>2019-08-09T18:50:07Z</time>
      </trkpt>
      <trkpt lat="47.91849" lon="7.24645">
        <ele>241</ele>
        <time>2019-08-09T18:50:08Z</time>
      </trkpt>
      <trkpt lat="47.91845" lon="7.24649">
        <ele>241</ele>
        <time>2019-08-09T18:50:09Z</time>
      </trkpt>
      <trkpt lat="47.91841" lon="7.24654">
        <ele>241</ele>
        <time>2019-08-09T18:50:10Z</time>
      </trkpt>
      <trkpt lat="47.91838" lon="7.24657">
        <ele>241</ele>
        <time>2019-08-09T18:50:11Z</time>
      </trkpt>
      <trkpt lat="47.91835" lon="7.2466">
        <ele>241</ele>
        <time>2019-08-09T18:50:12Z</time>
      </trkpt>
      <trkpt lat="47.91832" lon="7.24665">
        <ele>241</ele>
        <time>2019-08-09T18:50:13Z</time>
      </trkpt>
      <trkpt lat="47.91829" lon="7.24669">
        <ele>241</ele>
        <time>2019-08-09T18:50:14Z</time>
      </trkpt>
      <trkpt lat="47.91826" lon="7.24674">
        <ele>241</ele>
        <time>2019-08-09T18:50:15Z</time>
      </trkpt>
      <trkpt lat="47.91823" lon="7.24679">
        <ele>241</ele>
        <time>2019-08-09T18:50:16Z</time>
      </trkpt>
      <trkpt lat="47.91819" lon="7.24684">
        <ele>240.9</ele>
        <time>2019-08-09T18:50:17Z</time>
      </trkpt>
      <trkpt lat="47.91817" lon="7.2469">
        <ele>240.8</ele>
        <time>2019-08-09T18:50:18Z</time>
      </trkpt>
      <trkpt lat="47.91814" lon="7.24696">
        <ele>240.8</ele>
        <time>2019-08-09T18:50:19Z</time>
      </trkpt>
      <trkpt lat="47.91811" lon="7.24701">
        <ele>240.7</ele>
        <time>2019-08-09T18:50:20Z</time>
      </trkpt>
      <trkpt lat="47.91808" lon="7.24707">
        <ele>240.6</ele>
        <time>2019-08-09T18:50:21Z</time>
      </trkpt>
      <trkpt lat="47.91805" lon="7.24712">
        <ele>240.6</ele>
        <time>2019-08-09T18:50:22Z</time>
      </trkpt>
      <trkpt lat="47.91802" lon="7.24717">
        <ele>240.6</ele>
        <time>2019-08-09T18:50:23Z</time>
      </trkpt>
      <trkpt lat="47.91797" lon="7.24724">
        <ele>240.5</ele>
        <time>2019-08-09T18:50:24Z</time>
      </trkpt>
      <trkpt lat="47.91794" lon="7.24729">
        <ele>240.5</ele>
        <time>2019-08-09T18:50:25Z</time>
      </trkpt>
      <trkpt lat="47.91791" lon="7.24734">
        <ele>240.5</ele>
        <time>2019-08-09T18:50:26Z</time>
      </trkpt>
      <trkpt lat="47.91787" lon="7.24739">
        <ele>240.5</ele>
        <time>2019-08-09T18:50:27Z</time>
      </trkpt>
      <trkpt lat="47.91784" lon="7.24743">
        <ele>240.5</ele>
        <time>2019-08-09T18:50:28Z</time>
      </trkpt>
      <trkpt lat="47.91781" lon="7.24748">
        <ele>240.6</ele>
        <time>2019-08-09T18:50:29Z</time>
      </trkpt>
      <trkpt lat="47.91777" lon="7.24753">
        <ele>240.6</ele>
        <time>2019-08-09T18:50:30Z</time>
      </trkpt>
      <trkpt lat="47.91774" lon="7.24758">
        <ele>240.6</ele>
        <time>2019-08-09T18:50:31Z</time>
      </trkpt>
      <trkpt lat="47.91771" lon="7.24763">
        <ele>240.7</ele>
        <time>2019-08-09T18:50:32Z</time>
      </trkpt>
      <trkpt lat="47.91768" lon="7.24768">
        <ele>240.7</ele>
        <time>2019-08-09T18:50:33Z</time>
      </trkpt>
      <trkpt lat="47.91765" lon="7.24772">
        <ele>240.8</ele>
        <time>2019-08-09T18:50:34Z</time>
      </trkpt>
      <trkpt lat="47.91762" lon="7.24777">
        <ele>240.9</ele>
        <time>2019-08-09T18:50:35Z</time>
      </trkpt>
      <trkpt lat="47.91759" lon="7.24781">
        <ele>240.9</ele>
        <time>2019-08-09T18:50:36Z</time>
      </trkpt>
      <trkpt lat="47.91757" lon="7.24786">
        <ele>241</ele>
        <time>2019-08-09T18:50:37Z</time>
      </trkpt>
      <trkpt lat="47.91754" lon="7.24791">
        <ele>241.1</ele>
        <time>2019-08-09T18:50:38Z</time>
      </trkpt>
      <trkpt lat="47.91751" lon="7.24796">
        <ele>241.2</ele>
        <time>2019-08-09T18:50:39Z</time>
      </trkpt>
      <trkpt lat="47.91748" lon="7.248">
        <ele>241.2</ele>
        <time>2019-08-09T18:50:40Z</time>
      </trkpt>
      <trkpt lat="47.91744" lon="7.24806">
        <ele>241.2</ele>
        <time>2019-08-09T18:50:41Z</time>
      </trkpt>
      <trkpt lat="47.9174" lon="7.24811">
        <ele>241.1</ele>
        <time>2019-08-09T18:50:42Z</time>
      </trkpt>
      <trkpt lat="47.91736" lon="7.24816">
        <ele>241</ele>
        <time>2019-08-09T18:50:43Z</time>
      </trkpt>
      <trkpt lat="47.91733" lon="7.24822">
        <ele>240.9</ele>
        <time>2019-08-09T18:50:44Z</time>
      </trkpt>
      <trkpt lat="47.91729" lon="7.24826">
        <ele>240.8</ele>
        <time>2019-08-09T18:50:45Z</time>
      </trkpt>
      <trkpt lat="47.91726" lon="7.24831">
        <ele>240.7</ele>
        <time>2019-08-09T18:50:46Z</time>
      </trkpt>
      <trkpt lat="47.91722" lon="7.24836">
        <ele>240.6</ele>
        <time>2019-08-09T18:50:47Z</time>
      </trkpt>
      <trkpt lat="47.91719" lon="7.24841">
        <ele>240.5</ele>
        <time>2019-08-09T18:50:48Z</time>
      </trkpt>
      <trkpt lat="47.91715" lon="7.24846">
        <ele>240.5</ele>
        <time>2019-08-09T18:50:49Z</time>
      </trkpt>
      <trkpt lat="47.91712" lon="7.24851">
        <ele>240.5</ele>
        <time>2019-08-09T18:50:50Z</time>
      </trkpt>
      <trkpt lat="47.91709" lon="7.24855">
        <ele>240.4</ele>
        <time>2019-08-09T18:50:51Z</time>
      </trkpt>
      <trkpt lat="47.91705" lon="7.2486">
        <ele>240.4</ele>
        <time>2019-08-09T18:50:52Z</time>
      </trkpt>
      <trkpt lat="47.91702" lon="7.24864">
        <ele>240.5</ele>
        <time>2019-08-09T18:50:53Z</time>
      </trkpt>
      <trkpt lat="47.91699" lon="7.24867">
        <ele>240.5</ele>
        <time>2019-08-09T18:50:54Z</time>
      </trkpt>
      <trkpt lat="47.91696" lon="7.2487">
        <ele>240.5</ele>
        <time>2019-08-09T18:50:55Z</time>
      </trkpt>
      <trkpt lat="47.91694" lon="7.24872">
        <ele>240.5</ele>
        <time>2019-08-09T18:50:56Z</time>
      </trkpt>
      <trkpt lat="47.9169" lon="7.24872">
        <ele>240.6</ele>
        <time>2019-08-09T18:50:58Z</time>
      </trkpt>
      <trkpt lat="47.91687" lon="7.24868">
        <ele>240.6</ele>
        <time>2019-08-09T18:51:00Z</time>
      </trkpt>
      <trkpt lat="47.91684" lon="7.24861">
        <ele>240.7</ele>
        <time>2019-08-09T18:51:02Z</time>
      </trkpt>
      <trkpt lat="47.9168" lon="7.24856">
        <ele>240.8</ele>
        <time>2019-08-09T18:51:04Z</time>
      </trkpt>
      <trkpt lat="47.91677" lon="7.24853">
        <ele>240.8</ele>
        <time>2019-08-09T18:51:05Z</time>
      </trkpt>
      <trkpt lat="47.91675" lon="7.24851">
        <ele>240.8</ele>
        <time>2019-08-09T18:51:06Z</time>
      </trkpt>
      <trkpt lat="47.91673" lon="7.24848">
        <ele>240.9</ele>
        <time>2019-08-09T18:51:07Z</time>
      </trkpt>
      <trkpt lat="47.91671" lon="7.24845">
        <ele>240.9</ele>
        <time>2019-08-09T18:51:08Z</time>
      </trkpt>
      <trkpt lat="47.91668" lon="7.24842">
        <ele>241</ele>
        <time>2019-08-09T18:51:09Z</time>
      </trkpt>
      <trkpt lat="47.91665" lon="7.24839">
        <ele>241</ele>
        <time>2019-08-09T18:51:10Z</time>
      </trkpt>
      <trkpt lat="47.91663" lon="7.24836">
        <ele>241</ele>
        <time>2019-08-09T18:51:11Z</time>
      </trkpt>
      <trkpt lat="47.9166" lon="7.24833">
        <ele>241.1</ele>
        <time>2019-08-09T18:51:12Z</time>
      </trkpt>
      <trkpt lat="47.91657" lon="7.2483">
        <ele>241.1</ele>
        <time>2019-08-09T18:51:13Z</time>
      </trkpt>
      <trkpt lat="47.91655" lon="7.24827">
        <ele>241.2</ele>
        <time>2019-08-09T18:51:14Z</time>
      </trkpt>
      <trkpt lat="47.91653" lon="7.24824">
        <ele>241.2</ele>
        <time>2019-08-09T18:51:15Z</time>
      </trkpt>
      <trkpt lat="47.9165" lon="7.24821">
        <ele>241.3</ele>
        <time>2019-08-09T18:51:16Z</time>
      </trkpt>
      <trkpt lat="47.91648" lon="7.24818">
        <ele>241.4</ele>
        <time>2019-08-09T18:51:17Z</time>
      </trkpt>
      <trkpt lat="47.91646" lon="7.24815">
        <ele>241.5</ele>
        <time>2019-08-09T18:51:18Z</time>
      </trkpt>
      <trkpt lat="47.91644" lon="7.24812">
        <ele>241.7</ele>
        <time>2019-08-09T18:51:19Z</time>
      </trkpt>
      <trkpt lat="47.91642" lon="7.24809">
        <ele>241.8</ele>
        <time>2019-08-09T18:51:20Z</time>
      </trkpt>
      <trkpt lat="47.91639" lon="7.24806">
        <ele>242.1</ele>
        <time>2019-08-09T18:51:21Z</time>
      </trkpt>
      <trkpt lat="47.91637" lon="7.24803">
        <ele>242.3</ele>
        <time>2019-08-09T18:51:22Z</time>
      </trkpt>
      <trkpt lat="47.91635" lon="7.248">
        <ele>242.4</ele>
        <time>2019-08-09T18:51:23Z</time>
      </trkpt>
      <trkpt lat="47.91631" lon="7.24795">
        <ele>242.8</ele>
        <time>2019-08-09T18:51:25Z</time>
      </trkpt>
      <trkpt lat="47.91628" lon="7.24793">
        <ele>242.9</ele>
        <time>2019-08-09T18:51:26Z</time>
      </trkpt>
      <trkpt lat="47.91626" lon="7.2479">
        <ele>242.9</ele>
        <time>2019-08-09T18:51:27Z</time>
      </trkpt>
      <trkpt lat="47.91624" lon="7.24787">
        <ele>242.9</ele>
        <time>2019-08-09T18:51:28Z</time>
      </trkpt>
      <trkpt lat="47.91621" lon="7.24784">
        <ele>243</ele>
        <time>2019-08-09T18:51:29Z</time>
      </trkpt>
      <trkpt lat="47.91618" lon="7.24781">
        <ele>243.1</ele>
        <time>2019-08-09T18:51:30Z</time>
      </trkpt>
      <trkpt lat="47.91615" lon="7.24778">
        <ele>243.2</ele>
        <time>2019-08-09T18:51:31Z</time>
      </trkpt>
      <trkpt lat="47.91612" lon="7.24775">
        <ele>243.3</ele>
        <time>2019-08-09T18:51:32Z</time>
      </trkpt>
      <trkpt lat="47.91609" lon="7.24772">
        <ele>243.4</ele>
        <time>2019-08-09T18:51:33Z</time>
      </trkpt>
      <trkpt lat="47.91606" lon="7.24769">
        <ele>243.5</ele>
        <time>2019-08-09T18:51:34Z</time>
      </trkpt>
      <trkpt lat="47.91603" lon="7.24766">
        <ele>243.6</ele>
        <time>2019-08-09T18:51:35Z</time>
      </trkpt>
      <trkpt lat="47.91601" lon="7.24762">
        <ele>243.7</ele>
        <time>2019-08-09T18:51:36Z</time>
      </trkpt>
      <trkpt lat="47.91598" lon="7.24759">
        <ele>243.8</ele>
        <time>2019-08-09T18:51:37Z</time>
      </trkpt>
      <trkpt lat="47.91595" lon="7.24756">
        <ele>243.9</ele>
        <time>2019-08-09T18:51:38Z</time>
      </trkpt>
      <trkpt lat="47.91592" lon="7.24753">
        <ele>244.1</ele>
        <time>2019-08-09T18:51:39Z</time>
      </trkpt>
      <trkpt lat="47.91589" lon="7.2475">
        <ele>244.2</ele>
        <time>2019-08-09T18:51:40Z</time>
      </trkpt>
      <trkpt lat="47.91586" lon="7.24747">
        <ele>244.3</ele>
        <time>2019-08-09T18:51:41Z</time>
      </trkpt>
      <trkpt lat="47.91583" lon="7.24744">
        <ele>244.4</ele>
        <time>2019-08-09T18:51:42Z</time>
      </trkpt>
      <trkpt lat="47.9158" lon="7.2474">
        <ele>244.5</ele>
        <time>2019-08-09T18:51:43Z</time>
      </trkpt>
      <trkpt lat="47.91577" lon="7.24737">
        <ele>244.6</ele>
        <time>2019-08-09T18:51:44Z</time>
      </trkpt>
      <trkpt lat="47.91575" lon="7.24733">
        <ele>244.7</ele>
        <time>2019-08-09T18:51:45Z</time>
      </trkpt>
      <trkpt lat="47.91571" lon="7.2473">
        <ele>244.7</ele>
        <time>2019-08-09T18:51:46Z</time>
      </trkpt>
      <trkpt lat="47.91568" lon="7.24726">
        <ele>244.8</ele>
        <time>2019-08-09T18:51:47Z</time>
      </trkpt>
      <trkpt lat="47.91565" lon="7.24723">
        <ele>244.9</ele>
        <time>2019-08-09T18:51:48Z</time>
      </trkpt>
      <trkpt lat="47.91562" lon="7.24719">
        <ele>244.9</ele>
        <time>2019-08-09T18:51:49Z</time>
      </trkpt>
      <trkpt lat="47.91559" lon="7.24716">
        <ele>245</ele>
        <time>2019-08-09T18:51:50Z</time>
      </trkpt>
      <trkpt lat="47.91556" lon="7.24713">
        <ele>245.1</ele>
        <time>2019-08-09T18:51:51Z</time>
      </trkpt>
      <trkpt lat="47.91554" lon="7.24711">
        <ele>245.2</ele>
        <time>2019-08-09T18:51:52Z</time>
      </trkpt>
      <trkpt lat="47.91551" lon="7.24708">
        <ele>245.2</ele>
        <time>2019-08-09T18:51:53Z</time>
      </trkpt>
      <trkpt lat="47.91548" lon="7.24705">
        <ele>245.3</ele>
        <time>2019-08-09T18:51:54Z</time>
      </trkpt>
      <trkpt lat="47.91544" lon="7.24702">
        <ele>245.4</ele>
        <time>2019-08-09T18:51:56Z</time>
      </trkpt>
      <trkpt lat="47.9154" lon="7.24698">
        <ele>245.5</ele>
        <time>2019-08-09T18:51:58Z</time>
      </trkpt>
      <trkpt lat="47.91535" lon="7.24695">
        <ele>245.6</ele>
        <time>2019-08-09T18:52:00Z</time>
      </trkpt>
      <trkpt lat="47.91532" lon="7.24694">
        <ele>245.7</ele>
        <time>2019-08-09T18:52:01Z</time>
      </trkpt>
      <trkpt lat="47.91529" lon="7.24692">
        <ele>245.7</ele>
        <time>2019-08-09T18:52:02Z</time>
      </trkpt>
      <trkpt lat="47.91526" lon="7.24691">
        <ele>245.8</ele>
        <time>2019-08-09T18:52:03Z</time>
      </trkpt>
      <trkpt lat="47.91523" lon="7.24689">
        <ele>245.8</ele>
        <time>2019-08-09T18:52:04Z</time>
      </trkpt>
      <trkpt lat="47.9152" lon="7.24688">
        <ele>245.9</ele>
        <time>2019-08-09T18:52:05Z</time>
      </trkpt>
      <trkpt lat="47.91517" lon="7.24687">
        <ele>246</ele>
        <time>2019-08-09T18:52:06Z</time>
      </trkpt>
      <trkpt lat="47.91514" lon="7.24685">
        <ele>246</ele>
        <time>2019-08-09T18:52:07Z</time>
      </trkpt>
      <trkpt lat="47.91509" lon="7.24682">
        <ele>246.1</ele>
        <time>2019-08-09T18:52:09Z</time>
      </trkpt>
      <trkpt lat="47.91506" lon="7.24681">
        <ele>246.1</ele>
        <time>2019-08-09T18:52:10Z</time>
      </trkpt>
      <trkpt lat="47.91503" lon="7.24679">
        <ele>246.2</ele>
        <time>2019-08-09T18:52:11Z</time>
      </trkpt>
      <trkpt lat="47.915" lon="7.24677">
        <ele>246.2</ele>
        <time>2019-08-09T18:52:12Z</time>
      </trkpt>
      <trkpt lat="47.91497" lon="7.24675">
        <ele>246.3</ele>
        <time>2019-08-09T18:52:13Z</time>
      </trkpt>
      <trkpt lat="47.91493" lon="7.24673">
        <ele>246.3</ele>
        <time>2019-08-09T18:52:14Z</time>
      </trkpt>
      <trkpt lat="47.9149" lon="7.24671">
        <ele>246.4</ele>
        <time>2019-08-09T18:52:15Z</time>
      </trkpt>
      <trkpt lat="47.91486" lon="7.24669">
        <ele>246.4</ele>
        <time>2019-08-09T18:52:16Z</time>
      </trkpt>
      <trkpt lat="47.91483" lon="7.24667">
        <ele>246.5</ele>
        <time>2019-08-09T18:52:17Z</time>
      </trkpt>
      <trkpt lat="47.91479" lon="7.24664">
        <ele>246.6</ele>
        <time>2019-08-09T18:52:18Z</time>
      </trkpt>
      <trkpt lat="47.91476" lon="7.24662">
        <ele>246.6</ele>
        <time>2019-08-09T18:52:19Z</time>
      </trkpt>
      <trkpt lat="47.91473" lon="7.24659">
        <ele>246.7</ele>
        <time>2019-08-09T18:52:20Z</time>
      </trkpt>
      <trkpt lat="47.91469" lon="7.24657">
        <ele>246.7</ele>
        <time>2019-08-09T18:52:21Z</time>
      </trkpt>
      <trkpt lat="47.91466" lon="7.24654">
        <ele>246.8</ele>
        <time>2019-08-09T18:52:22Z</time>
      </trkpt>
      <trkpt lat="47.91463" lon="7.24652">
        <ele>246.9</ele>
        <time>2019-08-09T18:52:23Z</time>
      </trkpt>
      <trkpt lat="47.91459" lon="7.24647">
        <ele>246.9</ele>
        <time>2019-08-09T18:52:25Z</time>
      </trkpt>
      <trkpt lat="47.91456" lon="7.24644">
        <ele>247</ele>
        <time>2019-08-09T18:52:26Z</time>
      </trkpt>
      <trkpt lat="47.91453" lon="7.2464">
        <ele>247</ele>
        <time>2019-08-09T18:52:27Z</time>
      </trkpt>
      <trkpt lat="47.9145" lon="7.24637">
        <ele>247.1</ele>
        <time>2019-08-09T18:52:28Z</time>
      </trkpt>
      <trkpt lat="47.91447" lon="7.24634">
        <ele>247.1</ele>
        <time>2019-08-09T18:52:29Z</time>
      </trkpt>
      <trkpt lat="47.91444" lon="7.2463">
        <ele>247.1</ele>
        <time>2019-08-09T18:52:30Z</time>
      </trkpt>
      <trkpt lat="47.91441" lon="7.24627">
        <ele>247.2</ele>
        <time>2019-08-09T18:52:31Z</time>
      </trkpt>
      <trkpt lat="47.91438" lon="7.24624">
        <ele>247.2</ele>
        <time>2019-08-09T18:52:32Z</time>
      </trkpt>
      <trkpt lat="47.91435" lon="7.2462">
        <ele>247.3</ele>
        <time>2019-08-09T18:52:33Z</time>
      </trkpt>
      <trkpt lat="47.91431" lon="7.24616">
        <ele>247.3</ele>
        <time>2019-08-09T18:52:34Z</time>
      </trkpt>
      <trkpt lat="47.91428" lon="7.24613">
        <ele>247.4</ele>
        <time>2019-08-09T18:52:35Z</time>
      </trkpt>
      <trkpt lat="47.91425" lon="7.24609">
        <ele>247.4</ele>
        <time>2019-08-09T18:52:36Z</time>
      </trkpt>
      <trkpt lat="47.91422" lon="7.24605">
        <ele>247.5</ele>
        <time>2019-08-09T18:52:37Z</time>
      </trkpt>
      <trkpt lat="47.9142" lon="7.24601">
        <ele>247.5</ele>
        <time>2019-08-09T18:52:38Z</time>
      </trkpt>
      <trkpt lat="47.91417" lon="7.24599">
        <ele>247.6</ele>
        <time>2019-08-09T18:52:39Z</time>
      </trkpt>
      <trkpt lat="47.91413" lon="7.24594">
        <ele>247.7</ele>
        <time>2019-08-09T18:52:41Z</time>
      </trkpt>
      <trkpt lat="47.91409" lon="7.24591">
        <ele>247.8</ele>
        <time>2019-08-09T18:52:43Z</time>
      </trkpt>
      <trkpt lat="47.91406" lon="7.24591">
        <ele>247.8</ele>
        <time>2019-08-09T18:52:44Z</time>
      </trkpt>
      <trkpt lat="47.91403" lon="7.24592">
        <ele>247.8</ele>
        <time>2019-08-09T18:52:45Z</time>
      </trkpt>
      <trkpt lat="47.914" lon="7.24595">
        <ele>247.8</ele>
        <time>2019-08-09T18:52:46Z</time>
      </trkpt>
      <trkpt lat="47.91397" lon="7.24598">
        <ele>247.8</ele>
        <time>2019-08-09T18:52:47Z</time>
      </trkpt>
      <trkpt lat="47.91394" lon="7.24601">
        <ele>247.8</ele>
        <time>2019-08-09T18:52:48Z</time>
      </trkpt>
      <trkpt lat="47.91391" lon="7.24605">
        <ele>247.8</ele>
        <time>2019-08-09T18:52:49Z</time>
      </trkpt>
      <trkpt lat="47.91388" lon="7.24608">
        <ele>247.8</ele>
        <time>2019-08-09T18:52:50Z</time>
      </trkpt>
      <trkpt lat="47.91385" lon="7.24612">
        <ele>247.8</ele>
        <time>2019-08-09T18:52:51Z</time>
      </trkpt>
      <trkpt lat="47.91382" lon="7.24615">
        <ele>247.8</ele>
        <time>2019-08-09T18:52:52Z</time>
      </trkpt>
      <trkpt lat="47.91377" lon="7.24621">
        <ele>247.9</ele>
        <time>2019-08-09T18:52:54Z</time>
      </trkpt>
      <trkpt lat="47.91374" lon="7.24624">
        <ele>247.9</ele>
        <time>2019-08-09T18:52:55Z</time>
      </trkpt>
      <trkpt lat="47.91372" lon="7.24627">
        <ele>247.9</ele>
        <time>2019-08-09T18:52:56Z</time>
      </trkpt>
      <trkpt lat="47.91369" lon="7.24631">
        <ele>247.9</ele>
        <time>2019-08-09T18:52:57Z</time>
      </trkpt>
      <trkpt lat="47.91367" lon="7.24634">
        <ele>247.9</ele>
        <time>2019-08-09T18:52:58Z</time>
      </trkpt>
      <trkpt lat="47.91364" lon="7.24638">
        <ele>247.9</ele>
        <time>2019-08-09T18:52:59Z</time>
      </trkpt>
      <trkpt lat="47.91362" lon="7.2464">
        <ele>247.8</ele>
        <time>2019-08-09T18:53:00Z</time>
      </trkpt>
      <trkpt lat="47.9136" lon="7.24643">
        <ele>247.8</ele>
        <time>2019-08-09T18:53:01Z</time>
      </trkpt>
      <trkpt lat="47.91356" lon="7.24647">
        <ele>247.8</ele>
        <time>2019-08-09T18:53:02Z</time>
      </trkpt>
      <trkpt lat="47.91353" lon="7.2465">
        <ele>247.8</ele>
        <time>2019-08-09T18:53:03Z</time>
      </trkpt>
      <trkpt lat="47.9135" lon="7.24654">
        <ele>247.8</ele>
        <time>2019-08-09T18:53:04Z</time>
      </trkpt>
      <trkpt lat="47.91346" lon="7.24657">
        <ele>247.9</ele>
        <time>2019-08-09T18:53:06Z</time>
      </trkpt>
      <trkpt lat="47.91343" lon="7.2466">
        <ele>247.9</ele>
        <time>2019-08-09T18:53:07Z</time>
      </trkpt>
      <trkpt lat="47.9134" lon="7.24663">
        <ele>248</ele>
        <time>2019-08-09T18:53:08Z</time>
      </trkpt>
      <trkpt lat="47.91337" lon="7.24665">
        <ele>248</ele>
        <time>2019-08-09T18:53:09Z</time>
      </trkpt>
      <trkpt lat="47.91334" lon="7.24668">
        <ele>248.1</ele>
        <time>2019-08-09T18:53:10Z</time>
      </trkpt>
      <trkpt lat="47.91331" lon="7.2467">
        <ele>248.2</ele>
        <time>2019-08-09T18:53:11Z</time>
      </trkpt>
      <trkpt lat="47.91328" lon="7.24672">
        <ele>248.4</ele>
        <time>2019-08-09T18:53:12Z</time>
      </trkpt>
      <trkpt lat="47.91325" lon="7.24673">
        <ele>248.5</ele>
        <time>2019-08-09T18:53:13Z</time>
      </trkpt>
      <trkpt lat="47.91322" lon="7.24675">
        <ele>248.6</ele>
        <time>2019-08-09T18:53:14Z</time>
      </trkpt>
      <trkpt lat="47.91319" lon="7.24677">
        <ele>248.7</ele>
        <time>2019-08-09T18:53:15Z</time>
      </trkpt>
      <trkpt lat="47.91317" lon="7.24678">
        <ele>248.8</ele>
        <time>2019-08-09T18:53:16Z</time>
      </trkpt>
      <trkpt lat="47.91313" lon="7.2468">
        <ele>248.9</ele>
        <time>2019-08-09T18:53:18Z</time>
      </trkpt>
      <trkpt lat="47.9131" lon="7.24682">
        <ele>248.9</ele>
        <time>2019-08-09T18:53:20Z</time>
      </trkpt>
      <trkpt lat="47.91307" lon="7.24683">
        <ele>249</ele>
        <time>2019-08-09T18:53:21Z</time>
      </trkpt>
      <trkpt lat="47.91304" lon="7.24684">
        <ele>249</ele>
        <time>2019-08-09T18:53:22Z</time>
      </trkpt>
      <trkpt lat="47.91301" lon="7.24687">
        <ele>249.1</ele>
        <time>2019-08-09T18:53:23Z</time>
      </trkpt>
      <trkpt lat="47.91298" lon="7.24689">
        <ele>249.2</ele>
        <time>2019-08-09T18:53:24Z</time>
      </trkpt>
      <trkpt lat="47.91295" lon="7.24692">
        <ele>249.2</ele>
        <time>2019-08-09T18:53:25Z</time>
      </trkpt>
      <trkpt lat="47.91292" lon="7.24694">
        <ele>249.3</ele>
        <time>2019-08-09T18:53:26Z</time>
      </trkpt>
      <trkpt lat="47.91288" lon="7.24697">
        <ele>249.4</ele>
        <time>2019-08-09T18:53:27Z</time>
      </trkpt>
      <trkpt lat="47.91285" lon="7.24699">
        <ele>249.4</ele>
        <time>2019-08-09T18:53:28Z</time>
      </trkpt>
      <trkpt lat="47.91282" lon="7.24702">
        <ele>249.5</ele>
        <time>2019-08-09T18:53:29Z</time>
      </trkpt>
      <trkpt lat="47.91279" lon="7.24704">
        <ele>249.5</ele>
        <time>2019-08-09T18:53:30Z</time>
      </trkpt>
      <trkpt lat="47.91275" lon="7.24706">
        <ele>249.6</ele>
        <time>2019-08-09T18:53:31Z</time>
      </trkpt>
      <trkpt lat="47.91272" lon="7.24709">
        <ele>249.6</ele>
        <time>2019-08-09T18:53:32Z</time>
      </trkpt>
      <trkpt lat="47.91268" lon="7.24712">
        <ele>249.6</ele>
        <time>2019-08-09T18:53:33Z</time>
      </trkpt>
      <trkpt lat="47.91265" lon="7.24714">
        <ele>249.7</ele>
        <time>2019-08-09T18:53:34Z</time>
      </trkpt>
      <trkpt lat="47.91261" lon="7.24716">
        <ele>249.7</ele>
        <time>2019-08-09T18:53:35Z</time>
      </trkpt>
      <trkpt lat="47.91258" lon="7.24718">
        <ele>249.8</ele>
        <time>2019-08-09T18:53:36Z</time>
      </trkpt>
      <trkpt lat="47.91255" lon="7.24719">
        <ele>249.8</ele>
        <time>2019-08-09T18:53:37Z</time>
      </trkpt>
      <trkpt lat="47.91251" lon="7.24721">
        <ele>249.9</ele>
        <time>2019-08-09T18:53:38Z</time>
      </trkpt>
      <trkpt lat="47.91247" lon="7.24723">
        <ele>250</ele>
        <time>2019-08-09T18:53:39Z</time>
      </trkpt>
      <trkpt lat="47.91244" lon="7.24725">
        <ele>250.1</ele>
        <time>2019-08-09T18:53:40Z</time>
      </trkpt>
      <trkpt lat="47.91239" lon="7.24728">
        <ele>250.3</ele>
        <time>2019-08-09T18:53:41Z</time>
      </trkpt>
      <trkpt lat="47.91235" lon="7.2473">
        <ele>250.4</ele>
        <time>2019-08-09T18:53:42Z</time>
      </trkpt>
      <trkpt lat="47.91231" lon="7.24732">
        <ele>250.6</ele>
        <time>2019-08-09T18:53:43Z</time>
      </trkpt>
      <trkpt lat="47.91228" lon="7.24734">
        <ele>250.7</ele>
        <time>2019-08-09T18:53:44Z</time>
      </trkpt>
      <trkpt lat="47.91224" lon="7.24736">
        <ele>250.8</ele>
        <time>2019-08-09T18:53:45Z</time>
      </trkpt>
      <trkpt lat="47.9122" lon="7.24738">
        <ele>250.9</ele>
        <time>2019-08-09T18:53:46Z</time>
      </trkpt>
      <trkpt lat="47.91216" lon="7.24741">
        <ele>251</ele>
        <time>2019-08-09T18:53:47Z</time>
      </trkpt>
      <trkpt lat="47.91213" lon="7.24742">
        <ele>251</ele>
        <time>2019-08-09T18:53:48Z</time>
      </trkpt>
      <trkpt lat="47.91209" lon="7.24744">
        <ele>251</ele>
        <time>2019-08-09T18:53:49Z</time>
      </trkpt>
      <trkpt lat="47.91206" lon="7.24746">
        <ele>250.9</ele>
        <time>2019-08-09T18:53:50Z</time>
      </trkpt>
      <trkpt lat="47.91202" lon="7.24748">
        <ele>250.9</ele>
        <time>2019-08-09T18:53:51Z</time>
      </trkpt>
      <trkpt lat="47.91198" lon="7.24749">
        <ele>250.8</ele>
        <time>2019-08-09T18:53:52Z</time>
      </trkpt>
      <trkpt lat="47.91194" lon="7.24752">
        <ele>250.7</ele>
        <time>2019-08-09T18:53:53Z</time>
      </trkpt>
      <trkpt lat="47.9119" lon="7.24754">
        <ele>250.6</ele>
        <time>2019-08-09T18:53:54Z</time>
      </trkpt>
      <trkpt lat="47.91186" lon="7.24756">
        <ele>250.6</ele>
        <time>2019-08-09T18:53:55Z</time>
      </trkpt>
      <trkpt lat="47.91182" lon="7.24758">
        <ele>250.5</ele>
        <time>2019-08-09T18:53:56Z</time>
      </trkpt>
      <trkpt lat="47.91178" lon="7.2476">
        <ele>250.5</ele>
        <time>2019-08-09T18:53:57Z</time>
      </trkpt>
      <trkpt lat="47.91175" lon="7.24762">
        <ele>250.5</ele>
        <time>2019-08-09T18:53:58Z</time>
      </trkpt>
      <trkpt lat="47.91171" lon="7.24764">
        <ele>250.5</ele>
        <time>2019-08-09T18:53:59Z</time>
      </trkpt>
      <trkpt lat="47.91166" lon="7.24767">
        <ele>250.5</ele>
        <time>2019-08-09T18:54:00Z</time>
      </trkpt>
      <trkpt lat="47.91162" lon="7.2477">
        <ele>250.5</ele>
        <time>2019-08-09T18:54:01Z</time>
      </trkpt>
      <trkpt lat="47.91158" lon="7.24772">
        <ele>250.5</ele>
        <time>2019-08-09T18:54:02Z</time>
      </trkpt>
      <trkpt lat="47.91153" lon="7.24774">
        <ele>250.6</ele>
        <time>2019-08-09T18:54:03Z</time>
      </trkpt>
      <trkpt lat="47.91149" lon="7.24776">
        <ele>250.6</ele>
        <time>2019-08-09T18:54:04Z</time>
      </trkpt>
      <trkpt lat="47.91146" lon="7.24777">
        <ele>250.6</ele>
        <time>2019-08-09T18:54:05Z</time>
      </trkpt>
      <trkpt lat="47.91142" lon="7.24779">
        <ele>250.6</ele>
        <time>2019-08-09T18:54:06Z</time>
      </trkpt>
      <trkpt lat="47.91138" lon="7.24781">
        <ele>250.6</ele>
        <time>2019-08-09T18:54:07Z</time>
      </trkpt>
      <trkpt lat="47.91134" lon="7.24783">
        <ele>250.7</ele>
        <time>2019-08-09T18:54:08Z</time>
      </trkpt>
      <trkpt lat="47.9113" lon="7.24785">
        <ele>250.7</ele>
        <time>2019-08-09T18:54:09Z</time>
      </trkpt>
      <trkpt lat="47.91127" lon="7.24787">
        <ele>250.7</ele>
        <time>2019-08-09T18:54:10Z</time>
      </trkpt>
      <trkpt lat="47.91123" lon="7.2479">
        <ele>250.8</ele>
        <time>2019-08-09T18:54:11Z</time>
      </trkpt>
      <trkpt lat="47.91118" lon="7.24792">
        <ele>250.8</ele>
        <time>2019-08-09T18:54:12Z</time>
      </trkpt>
      <trkpt lat="47.91114" lon="7.24795">
        <ele>250.8</ele>
        <time>2019-08-09T18:54:13Z</time>
      </trkpt>
      <trkpt lat="47.9111" lon="7.24797">
        <ele>250.9</ele>
        <time>2019-08-09T18:54:14Z</time>
      </trkpt>
      <trkpt lat="47.91106" lon="7.24799">
        <ele>250.9</ele>
        <time>2019-08-09T18:54:15Z</time>
      </trkpt>
      <trkpt lat="47.91102" lon="7.24802">
        <ele>251</ele>
        <time>2019-08-09T18:54:16Z</time>
      </trkpt>
      <trkpt lat="47.91097" lon="7.24804">
        <ele>251</ele>
        <time>2019-08-09T18:54:17Z</time>
      </trkpt>
      <trkpt lat="47.91092" lon="7.24806">
        <ele>251</ele>
        <time>2019-08-09T18:54:18Z</time>
      </trkpt>
      <trkpt lat="47.91088" lon="7.24808">
        <ele>251.1</ele>
        <time>2019-08-09T18:54:19Z</time>
      </trkpt>
      <trkpt lat="47.91085" lon="7.24809">
        <ele>251.2</ele>
        <time>2019-08-09T18:54:20Z</time>
      </trkpt>
      <trkpt lat="47.9108" lon="7.24811">
        <ele>251.2</ele>
        <time>2019-08-09T18:54:21Z</time>
      </trkpt>
      <trkpt lat="47.91075" lon="7.24813">
        <ele>251.3</ele>
        <time>2019-08-09T18:54:22Z</time>
      </trkpt>
      <trkpt lat="47.91071" lon="7.24814">
        <ele>251.4</ele>
        <time>2019-08-09T18:54:23Z</time>
      </trkpt>
      <trkpt lat="47.91066" lon="7.24816">
        <ele>251.5</ele>
        <time>2019-08-09T18:54:24Z</time>
      </trkpt>
      <trkpt lat="47.9106" lon="7.24817">
        <ele>251.5</ele>
        <time>2019-08-09T18:54:26Z</time>
      </trkpt>
      <trkpt lat="47.91056" lon="7.24819">
        <ele>251.6</ele>
        <time>2019-08-09T18:54:27Z</time>
      </trkpt>
      <trkpt lat="47.91051" lon="7.2482">
        <ele>251.7</ele>
        <time>2019-08-09T18:54:28Z</time>
      </trkpt>
      <trkpt lat="47.91046" lon="7.24822">
        <ele>251.7</ele>
        <time>2019-08-09T18:54:29Z</time>
      </trkpt>
      <trkpt lat="47.91043" lon="7.24824">
        <ele>251.8</ele>
        <time>2019-08-09T18:54:30Z</time>
      </trkpt>
      <trkpt lat="47.91039" lon="7.24826">
        <ele>251.9</ele>
        <time>2019-08-09T18:54:31Z</time>
      </trkpt>
      <trkpt lat="47.91036" lon="7.24828">
        <ele>252</ele>
        <time>2019-08-09T18:54:32Z</time>
      </trkpt>
      <trkpt lat="47.91032" lon="7.24831">
        <ele>252.2</ele>
        <time>2019-08-09T18:54:33Z</time>
      </trkpt>
      <trkpt lat="47.91027" lon="7.24833">
        <ele>252.4</ele>
        <time>2019-08-09T18:54:34Z</time>
      </trkpt>
      <trkpt lat="47.91024" lon="7.24835">
        <ele>252.5</ele>
        <time>2019-08-09T18:54:35Z</time>
      </trkpt>
      <trkpt lat="47.9102" lon="7.24837">
        <ele>252.7</ele>
        <time>2019-08-09T18:54:36Z</time>
      </trkpt>
      <trkpt lat="47.91017" lon="7.24839">
        <ele>252.8</ele>
        <time>2019-08-09T18:54:37Z</time>
      </trkpt>
      <trkpt lat="47.91013" lon="7.2484">
        <ele>252.9</ele>
        <time>2019-08-09T18:54:38Z</time>
      </trkpt>
      <trkpt lat="47.91009" lon="7.24842">
        <ele>253</ele>
        <time>2019-08-09T18:54:39Z</time>
      </trkpt>
      <trkpt lat="47.91006" lon="7.24844">
        <ele>253.1</ele>
        <time>2019-08-09T18:54:40Z</time>
      </trkpt>
      <trkpt lat="47.91001" lon="7.24846">
        <ele>253.2</ele>
        <time>2019-08-09T18:54:41Z</time>
      </trkpt>
      <trkpt lat="47.90996" lon="7.24849">
        <ele>253.2</ele>
        <time>2019-08-09T18:54:42Z</time>
      </trkpt>
      <trkpt lat="47.90992" lon="7.24851">
        <ele>253.2</ele>
        <time>2019-08-09T18:54:43Z</time>
      </trkpt>
      <trkpt lat="47.90988" lon="7.24852">
        <ele>253.2</ele>
        <time>2019-08-09T18:54:44Z</time>
      </trkpt>
      <trkpt lat="47.90984" lon="7.24854">
        <ele>253.1</ele>
        <time>2019-08-09T18:54:45Z</time>
      </trkpt>
      <trkpt lat="47.9098" lon="7.24855">
        <ele>253.1</ele>
        <time>2019-08-09T18:54:46Z</time>
      </trkpt>
      <trkpt lat="47.90975" lon="7.24856">
        <ele>253</ele>
        <time>2019-08-09T18:54:47Z</time>
      </trkpt>
      <trkpt lat="47.9097" lon="7.24857">
        <ele>252.9</ele>
        <time>2019-08-09T18:54:48Z</time>
      </trkpt>
      <trkpt lat="47.90966" lon="7.24859">
        <ele>252.7</ele>
        <time>2019-08-09T18:54:49Z</time>
      </trkpt>
      <trkpt lat="47.90961" lon="7.2486">
        <ele>252.6</ele>
        <time>2019-08-09T18:54:50Z</time>
      </trkpt>
      <trkpt lat="47.90957" lon="7.24861">
        <ele>252.4</ele>
        <time>2019-08-09T18:54:51Z</time>
      </trkpt>
      <trkpt lat="47.90952" lon="7.24862">
        <ele>252.2</ele>
        <time>2019-08-09T18:54:52Z</time>
      </trkpt>
      <trkpt lat="47.90948" lon="7.24863">
        <ele>252</ele>
        <time>2019-08-09T18:54:53Z</time>
      </trkpt>
      <trkpt lat="47.90943" lon="7.24865">
        <ele>251.7</ele>
        <time>2019-08-09T18:54:54Z</time>
      </trkpt>
      <trkpt lat="47.90938" lon="7.24866">
        <ele>251.4</ele>
        <time>2019-08-09T18:54:55Z</time>
      </trkpt>
      <trkpt lat="47.90933" lon="7.24867">
        <ele>251.1</ele>
        <time>2019-08-09T18:54:56Z</time>
      </trkpt>
      <trkpt lat="47.90928" lon="7.24869">
        <ele>250.8</ele>
        <time>2019-08-09T18:54:57Z</time>
      </trkpt>
      <trkpt lat="47.90923" lon="7.2487">
        <ele>250.6</ele>
        <time>2019-08-09T18:54:58Z</time>
      </trkpt>
      <trkpt lat="47.90919" lon="7.24871">
        <ele>250.4</ele>
        <time>2019-08-09T18:54:59Z</time>
      </trkpt>
      <trkpt lat="47.90914" lon="7.24873">
        <ele>250.3</ele>
        <time>2019-08-09T18:55:00Z</time>
      </trkpt>
      <trkpt lat="47.90909" lon="7.24873">
        <ele>250.2</ele>
        <time>2019-08-09T18:55:01Z</time>
      </trkpt>
      <trkpt lat="47.90905" lon="7.24874">
        <ele>250.1</ele>
        <time>2019-08-09T18:55:02Z</time>
      </trkpt>
      <trkpt lat="47.90901" lon="7.24875">
        <ele>250</ele>
        <time>2019-08-09T18:55:03Z</time>
      </trkpt>
      <trkpt lat="47.90896" lon="7.24876">
        <ele>249.9</ele>
        <time>2019-08-09T18:55:04Z</time>
      </trkpt>
      <trkpt lat="47.90893" lon="7.24877">
        <ele>249.8</ele>
        <time>2019-08-09T18:55:05Z</time>
      </trkpt>
      <trkpt lat="47.90889" lon="7.24879">
        <ele>249.8</ele>
        <time>2019-08-09T18:55:06Z</time>
      </trkpt>
      <trkpt lat="47.90885" lon="7.2488">
        <ele>249.7</ele>
        <time>2019-08-09T18:55:07Z</time>
      </trkpt>
      <trkpt lat="47.90882" lon="7.24881">
        <ele>249.6</ele>
        <time>2019-08-09T18:55:08Z</time>
      </trkpt>
      <trkpt lat="47.90879" lon="7.24882">
        <ele>249.6</ele>
        <time>2019-08-09T18:55:09Z</time>
      </trkpt>
      <trkpt lat="47.90876" lon="7.24883">
        <ele>249.6</ele>
        <time>2019-08-09T18:55:10Z</time>
      </trkpt>
      <trkpt lat="47.90872" lon="7.24885">
        <ele>249.5</ele>
        <time>2019-08-09T18:55:11Z</time>
      </trkpt>
      <trkpt lat="47.90868" lon="7.24886">
        <ele>249.5</ele>
        <time>2019-08-09T18:55:12Z</time>
      </trkpt>
      <trkpt lat="47.90864" lon="7.24887">
        <ele>249.4</ele>
        <time>2019-08-09T18:55:13Z</time>
      </trkpt>
      <trkpt lat="47.90859" lon="7.24889">
        <ele>249.3</ele>
        <time>2019-08-09T18:55:14Z</time>
      </trkpt>
      <trkpt lat="47.90854" lon="7.2489">
        <ele>249.1</ele>
        <time>2019-08-09T18:55:15Z</time>
      </trkpt>
      <trkpt lat="47.9085" lon="7.24891">
        <ele>248.8</ele>
        <time>2019-08-09T18:55:16Z</time>
      </trkpt>
      <trkpt lat="47.90846" lon="7.24892">
        <ele>248.6</ele>
        <time>2019-08-09T18:55:17Z</time>
      </trkpt>
      <trkpt lat="47.90843" lon="7.24893">
        <ele>248.4</ele>
        <time>2019-08-09T18:55:18Z</time>
      </trkpt>
      <trkpt lat="47.9084" lon="7.24895">
        <ele>248.2</ele>
        <time>2019-08-09T18:55:19Z</time>
      </trkpt>
      <trkpt lat="47.90835" lon="7.24896">
        <ele>248.4</ele>
        <time>2019-08-09T18:55:20Z</time>
      </trkpt>
      <trkpt lat="47.90831" lon="7.24896">
        <ele>248.6</ele>
        <time>2019-08-09T18:55:21Z</time>
      </trkpt>
      <trkpt lat="47.90826" lon="7.24897">
        <ele>248.7</ele>
        <time>2019-08-09T18:55:22Z</time>
      </trkpt>
      <trkpt lat="47.90821" lon="7.24898">
        <ele>248.8</ele>
        <time>2019-08-09T18:55:23Z</time>
      </trkpt>
      <trkpt lat="47.90816" lon="7.24899">
        <ele>248.9</ele>
        <time>2019-08-09T18:55:24Z</time>
      </trkpt>
      <trkpt lat="47.90812" lon="7.249">
        <ele>248.9</ele>
        <time>2019-08-09T18:55:25Z</time>
      </trkpt>
      <trkpt lat="47.90807" lon="7.24902">
        <ele>248.9</ele>
        <time>2019-08-09T18:55:26Z</time>
      </trkpt>
      <trkpt lat="47.90803" lon="7.24903">
        <ele>248.9</ele>
        <time>2019-08-09T18:55:27Z</time>
      </trkpt>
      <trkpt lat="47.90799" lon="7.24904">
        <ele>249</ele>
        <time>2019-08-09T18:55:28Z</time>
      </trkpt>
      <trkpt lat="47.90795" lon="7.24905">
        <ele>249</ele>
        <time>2019-08-09T18:55:29Z</time>
      </trkpt>
      <trkpt lat="47.90791" lon="7.24906">
        <ele>249.1</ele>
        <time>2019-08-09T18:55:30Z</time>
      </trkpt>
      <trkpt lat="47.90786" lon="7.24907">
        <ele>249.1</ele>
        <time>2019-08-09T18:55:31Z</time>
      </trkpt>
      <trkpt lat="47.90782" lon="7.24909">
        <ele>249.2</ele>
        <time>2019-08-09T18:55:32Z</time>
      </trkpt>
      <trkpt lat="47.90778" lon="7.2491">
        <ele>249.3</ele>
        <time>2019-08-09T18:55:33Z</time>
      </trkpt>
      <trkpt lat="47.90774" lon="7.24911">
        <ele>249.4</ele>
        <time>2019-08-09T18:55:34Z</time>
      </trkpt>
      <trkpt lat="47.9077" lon="7.24912">
        <ele>249.5</ele>
        <time>2019-08-09T18:55:35Z</time>
      </trkpt>
      <trkpt lat="47.90766" lon="7.24912">
        <ele>249.6</ele>
        <time>2019-08-09T18:55:36Z</time>
      </trkpt>
      <trkpt lat="47.90762" lon="7.24913">
        <ele>249.7</ele>
        <time>2019-08-09T18:55:37Z</time>
      </trkpt>
      <trkpt lat="47.90757" lon="7.24914">
        <ele>249.9</ele>
        <time>2019-08-09T18:55:38Z</time>
      </trkpt>
      <trkpt lat="47.90753" lon="7.24915">
        <ele>250</ele>
        <time>2019-08-09T18:55:39Z</time>
      </trkpt>
      <trkpt lat="47.90748" lon="7.24915">
        <ele>250.1</ele>
        <time>2019-08-09T18:55:40Z</time>
      </trkpt>
      <trkpt lat="47.90744" lon="7.24916">
        <ele>250.2</ele>
        <time>2019-08-09T18:55:41Z</time>
      </trkpt>
      <trkpt lat="47.90741" lon="7.24916">
        <ele>250.3</ele>
        <time>2019-08-09T18:55:42Z</time>
      </trkpt>
      <trkpt lat="47.90737" lon="7.24914">
        <ele>250.5</ele>
        <time>2019-08-09T18:55:44Z</time>
      </trkpt>
      <trkpt lat="47.90734" lon="7.24913">
        <ele>250.6</ele>
        <time>2019-08-09T18:55:46Z</time>
      </trkpt>
      <trkpt lat="47.9073" lon="7.24914">
        <ele>250.7</ele>
        <time>2019-08-09T18:55:48Z</time>
      </trkpt>
      <trkpt lat="47.90728" lon="7.24913">
        <ele>250.7</ele>
        <time>2019-08-09T18:55:56Z</time>
      </trkpt>
      <trkpt lat="47.90724" lon="7.24913">
        <ele>250.7</ele>
        <time>2019-08-09T18:55:58Z</time>
      </trkpt>
      <trkpt lat="47.9072" lon="7.24913">
        <ele>250.7</ele>
        <time>2019-08-09T18:56:00Z</time>
      </trkpt>
      <trkpt lat="47.90714" lon="7.24914">
        <ele>250.7</ele>
        <time>2019-08-09T18:56:02Z</time>
      </trkpt>
      <trkpt lat="47.90711" lon="7.24915">
        <ele>250.6</ele>
        <time>2019-08-09T18:56:03Z</time>
      </trkpt>
      <trkpt lat="47.90707" lon="7.24915">
        <ele>250.6</ele>
        <time>2019-08-09T18:56:04Z</time>
      </trkpt>
      <trkpt lat="47.90703" lon="7.24917">
        <ele>250.6</ele>
        <time>2019-08-09T18:56:05Z</time>
      </trkpt>
      <trkpt lat="47.90699" lon="7.24917">
        <ele>250.6</ele>
        <time>2019-08-09T18:56:06Z</time>
      </trkpt>
      <trkpt lat="47.90694" lon="7.24919">
        <ele>250.6</ele>
        <time>2019-08-09T18:56:07Z</time>
      </trkpt>
      <trkpt lat="47.90689" lon="7.2492">
        <ele>250.6</ele>
        <time>2019-08-09T18:56:08Z</time>
      </trkpt>
      <trkpt lat="47.90684" lon="7.24923">
        <ele>250.6</ele>
        <time>2019-08-09T18:56:09Z</time>
      </trkpt>
      <trkpt lat="47.9068" lon="7.24924">
        <ele>250.6</ele>
        <time>2019-08-09T18:56:10Z</time>
      </trkpt>
      <trkpt lat="47.90676" lon="7.24924">
        <ele>250.6</ele>
        <time>2019-08-09T18:56:11Z</time>
      </trkpt>
      <trkpt lat="47.90672" lon="7.24925">
        <ele>250.6</ele>
        <time>2019-08-09T18:56:12Z</time>
      </trkpt>
      <trkpt lat="47.90667" lon="7.24926">
        <ele>250.7</ele>
        <time>2019-08-09T18:56:13Z</time>
      </trkpt>
      <trkpt lat="47.90663" lon="7.24927">
        <ele>250.7</ele>
        <time>2019-08-09T18:56:14Z</time>
      </trkpt>
      <trkpt lat="47.90659" lon="7.24928">
        <ele>250.7</ele>
        <time>2019-08-09T18:56:15Z</time>
      </trkpt>
      <trkpt lat="47.90654" lon="7.2493">
        <ele>250.7</ele>
        <time>2019-08-09T18:56:16Z</time>
      </trkpt>
      <trkpt lat="47.9065" lon="7.24931">
        <ele>250.8</ele>
        <time>2019-08-09T18:56:17Z</time>
      </trkpt>
      <trkpt lat="47.90646" lon="7.24934">
        <ele>250.8</ele>
        <time>2019-08-09T18:56:18Z</time>
      </trkpt>
      <trkpt lat="47.90642" lon="7.24936">
        <ele>250.8</ele>
        <time>2019-08-09T18:56:19Z</time>
      </trkpt>
      <trkpt lat="47.90638" lon="7.24936">
        <ele>250.9</ele>
        <time>2019-08-09T18:56:20Z</time>
      </trkpt>
      <trkpt lat="47.90635" lon="7.24937">
        <ele>250.9</ele>
        <time>2019-08-09T18:56:21Z</time>
      </trkpt>
      <trkpt lat="47.90631" lon="7.24939">
        <ele>251</ele>
        <time>2019-08-09T18:56:22Z</time>
      </trkpt>
      <trkpt lat="47.90627" lon="7.24941">
        <ele>251</ele>
        <time>2019-08-09T18:56:23Z</time>
      </trkpt>
      <trkpt lat="47.90623" lon="7.24943">
        <ele>251.1</ele>
        <time>2019-08-09T18:56:24Z</time>
      </trkpt>
      <trkpt lat="47.90618" lon="7.24944">
        <ele>251.1</ele>
        <time>2019-08-09T18:56:25Z</time>
      </trkpt>
      <trkpt lat="47.90614" lon="7.24945">
        <ele>251.2</ele>
        <time>2019-08-09T18:56:26Z</time>
      </trkpt>
      <trkpt lat="47.9061" lon="7.24946">
        <ele>251.2</ele>
        <time>2019-08-09T18:56:27Z</time>
      </trkpt>
      <trkpt lat="47.90605" lon="7.24947">
        <ele>251.3</ele>
        <time>2019-08-09T18:56:28Z</time>
      </trkpt>
      <trkpt lat="47.90601" lon="7.24948">
        <ele>251.5</ele>
        <time>2019-08-09T18:56:29Z</time>
      </trkpt>
      <trkpt lat="47.90597" lon="7.24948">
        <ele>251.6</ele>
        <time>2019-08-09T18:56:30Z</time>
      </trkpt>
      <trkpt lat="47.90594" lon="7.24949">
        <ele>251.8</ele>
        <time>2019-08-09T18:56:31Z</time>
      </trkpt>
      <trkpt lat="47.90589" lon="7.2495">
        <ele>251.9</ele>
        <time>2019-08-09T18:56:32Z</time>
      </trkpt>
      <trkpt lat="47.90585" lon="7.24951">
        <ele>252</ele>
        <time>2019-08-09T18:56:33Z</time>
      </trkpt>
      <trkpt lat="47.9058" lon="7.24951">
        <ele>252</ele>
        <time>2019-08-09T18:56:34Z</time>
      </trkpt>
      <trkpt lat="47.90576" lon="7.24949">
        <ele>252.1</ele>
        <time>2019-08-09T18:56:35Z</time>
      </trkpt>
      <trkpt lat="47.90572" lon="7.24945">
        <ele>252.1</ele>
        <time>2019-08-09T18:56:36Z</time>
      </trkpt>
      <trkpt lat="47.90568" lon="7.24943">
        <ele>252.1</ele>
        <time>2019-08-09T18:56:37Z</time>
      </trkpt>
      <trkpt lat="47.90564" lon="7.24941">
        <ele>252.2</ele>
        <time>2019-08-09T18:56:38Z</time>
      </trkpt>
      <trkpt lat="47.9056" lon="7.24939">
        <ele>252.2</ele>
        <time>2019-08-09T18:56:39Z</time>
      </trkpt>
      <trkpt lat="47.90556" lon="7.24938">
        <ele>252.2</ele>
        <time>2019-08-09T18:56:40Z</time>
      </trkpt>
      <trkpt lat="47.90551" lon="7.24937">
        <ele>252.2</ele>
        <time>2019-08-09T18:56:41Z</time>
      </trkpt>
      <trkpt lat="47.90547" lon="7.24936">
        <ele>252.3</ele>
        <time>2019-08-09T18:56:42Z</time>
      </trkpt>
      <trkpt lat="47.90543" lon="7.24936">
        <ele>252.3</ele>
        <time>2019-08-09T18:56:43Z</time>
      </trkpt>
      <trkpt lat="47.90539" lon="7.24937">
        <ele>252.3</ele>
        <time>2019-08-09T18:56:44Z</time>
      </trkpt>
      <trkpt lat="47.90535" lon="7.24937">
        <ele>252.3</ele>
        <time>2019-08-09T18:56:45Z</time>
      </trkpt>
      <trkpt lat="47.90531" lon="7.24937">
        <ele>252.3</ele>
        <time>2019-08-09T18:56:46Z</time>
      </trkpt>
      <trkpt lat="47.90527" lon="7.24937">
        <ele>252.3</ele>
        <time>2019-08-09T18:56:47Z</time>
      </trkpt>
      <trkpt lat="47.90523" lon="7.24938">
        <ele>252.3</ele>
        <time>2019-08-09T18:56:48Z</time>
      </trkpt>
      <trkpt lat="47.90519" lon="7.24938">
        <ele>252.3</ele>
        <time>2019-08-09T18:56:49Z</time>
      </trkpt>
      <trkpt lat="47.90515" lon="7.24939">
        <ele>252.3</ele>
        <time>2019-08-09T18:56:50Z</time>
      </trkpt>
      <trkpt lat="47.90511" lon="7.2494">
        <ele>252.3</ele>
        <time>2019-08-09T18:56:51Z</time>
      </trkpt>
      <trkpt lat="47.90506" lon="7.24941">
        <ele>252.3</ele>
        <time>2019-08-09T18:56:52Z</time>
      </trkpt>
      <trkpt lat="47.90502" lon="7.24943">
        <ele>252.3</ele>
        <time>2019-08-09T18:56:53Z</time>
      </trkpt>
      <trkpt lat="47.90497" lon="7.24944">
        <ele>252.3</ele>
        <time>2019-08-09T18:56:54Z</time>
      </trkpt>
      <trkpt lat="47.90492" lon="7.24946">
        <ele>252.3</ele>
        <time>2019-08-09T18:56:55Z</time>
      </trkpt>
      <trkpt lat="47.90488" lon="7.24948">
        <ele>252.3</ele>
        <time>2019-08-09T18:56:56Z</time>
      </trkpt>
      <trkpt lat="47.90484" lon="7.2495">
        <ele>252.3</ele>
        <time>2019-08-09T18:56:57Z</time>
      </trkpt>
      <trkpt lat="47.9048" lon="7.24952">
        <ele>252.2</ele>
        <time>2019-08-09T18:56:58Z</time>
      </trkpt>
      <trkpt lat="47.90475" lon="7.24954">
        <ele>252.2</ele>
        <time>2019-08-09T18:56:59Z</time>
      </trkpt>
      <trkpt lat="47.90471" lon="7.24956">
        <ele>252.1</ele>
        <time>2019-08-09T18:57:00Z</time>
      </trkpt>
      <trkpt lat="47.90467" lon="7.24958">
        <ele>252.1</ele>
        <time>2019-08-09T18:57:01Z</time>
      </trkpt>
      <trkpt lat="47.90463" lon="7.24961">
        <ele>252</ele>
        <time>2019-08-09T18:57:02Z</time>
      </trkpt>
      <trkpt lat="47.90459" lon="7.24962">
        <ele>251.9</ele>
        <time>2019-08-09T18:57:03Z</time>
      </trkpt>
      <trkpt lat="47.90455" lon="7.24964">
        <ele>251.9</ele>
        <time>2019-08-09T18:57:04Z</time>
      </trkpt>
      <trkpt lat="47.90451" lon="7.24966">
        <ele>251.8</ele>
        <time>2019-08-09T18:57:05Z</time>
      </trkpt>
      <trkpt lat="47.90447" lon="7.24967">
        <ele>251.8</ele>
        <time>2019-08-09T18:57:06Z</time>
      </trkpt>
      <trkpt lat="47.90444" lon="7.24968">
        <ele>251.7</ele>
        <time>2019-08-09T18:57:07Z</time>
      </trkpt>
      <trkpt lat="47.9044" lon="7.24968">
        <ele>251.7</ele>
        <time>2019-08-09T18:57:08Z</time>
      </trkpt>
      <trkpt lat="47.90435" lon="7.24968">
        <ele>251.6</ele>
        <time>2019-08-09T18:57:09Z</time>
      </trkpt>
      <trkpt lat="47.90431" lon="7.24969">
        <ele>251.5</ele>
        <time>2019-08-09T18:57:10Z</time>
      </trkpt>
      <trkpt lat="47.90426" lon="7.24969">
        <ele>251.5</ele>
        <time>2019-08-09T18:57:11Z</time>
      </trkpt>
      <trkpt lat="47.90421" lon="7.24969">
        <ele>251.4</ele>
        <time>2019-08-09T18:57:12Z</time>
      </trkpt>
      <trkpt lat="47.90416" lon="7.24969">
        <ele>251.3</ele>
        <time>2019-08-09T18:57:13Z</time>
      </trkpt>
      <trkpt lat="47.90412" lon="7.2497">
        <ele>251.3</ele>
        <time>2019-08-09T18:57:14Z</time>
      </trkpt>
      <trkpt lat="47.90406" lon="7.24973">
        <ele>251.2</ele>
        <time>2019-08-09T18:57:15Z</time>
      </trkpt>
      <trkpt lat="47.90402" lon="7.24978">
        <ele>251.2</ele>
        <time>2019-08-09T18:57:16Z</time>
      </trkpt>
      <trkpt lat="47.90398" lon="7.24984">
        <ele>251.1</ele>
        <time>2019-08-09T18:57:17Z</time>
      </trkpt>
      <trkpt lat="47.90395" lon="7.2499">
        <ele>251</ele>
        <time>2019-08-09T18:57:18Z</time>
      </trkpt>
      <trkpt lat="47.90392" lon="7.24995">
        <ele>250.9</ele>
        <time>2019-08-09T18:57:19Z</time>
      </trkpt>
      <trkpt lat="47.9039" lon="7.25001">
        <ele>250.8</ele>
        <time>2019-08-09T18:57:20Z</time>
      </trkpt>
      <trkpt lat="47.90389" lon="7.25007">
        <ele>250.7</ele>
        <time>2019-08-09T18:57:21Z</time>
      </trkpt>
      <trkpt lat="47.90387" lon="7.25011">
        <ele>250.7</ele>
        <time>2019-08-09T18:57:22Z</time>
      </trkpt>
      <trkpt lat="47.90386" lon="7.25016">
        <ele>250.6</ele>
        <time>2019-08-09T18:57:23Z</time>
      </trkpt>
      <trkpt lat="47.90384" lon="7.2502">
        <ele>250.5</ele>
        <time>2019-08-09T18:57:24Z</time>
      </trkpt>
      <trkpt lat="47.9038" lon="7.25023">
        <ele>250.4</ele>
        <time>2019-08-09T18:57:26Z</time>
      </trkpt>
      <trkpt lat="47.90377" lon="7.25023">
        <ele>250.4</ele>
        <time>2019-08-09T18:57:27Z</time>
      </trkpt>
      <trkpt lat="47.90374" lon="7.25023">
        <ele>250.3</ele>
        <time>2019-08-09T18:57:28Z</time>
      </trkpt>
      <trkpt lat="47.90371" lon="7.25023">
        <ele>250.2</ele>
        <time>2019-08-09T18:57:29Z</time>
      </trkpt>
      <trkpt lat="47.90369" lon="7.25022">
        <ele>250.2</ele>
        <time>2019-08-09T18:57:30Z</time>
      </trkpt>
      <trkpt lat="47.90365" lon="7.25022">
        <ele>250.1</ele>
        <time>2019-08-09T18:57:31Z</time>
      </trkpt>
      <trkpt lat="47.90362" lon="7.25021">
        <ele>250</ele>
        <time>2019-08-09T18:57:32Z</time>
      </trkpt>
      <trkpt lat="47.90359" lon="7.2502">
        <ele>250</ele>
        <time>2019-08-09T18:57:33Z</time>
      </trkpt>
      <trkpt lat="47.90356" lon="7.25019">
        <ele>250</ele>
        <time>2019-08-09T18:57:34Z</time>
      </trkpt>
      <trkpt lat="47.90352" lon="7.25018">
        <ele>249.8</ele>
        <time>2019-08-09T18:57:35Z</time>
      </trkpt>
      <trkpt lat="47.90348" lon="7.25017">
        <ele>249.8</ele>
        <time>2019-08-09T18:57:36Z</time>
      </trkpt>
      <trkpt lat="47.90344" lon="7.25015">
        <ele>249.8</ele>
        <time>2019-08-09T18:57:37Z</time>
      </trkpt>
      <trkpt lat="47.90341" lon="7.25014">
        <ele>249.8</ele>
        <time>2019-08-09T18:57:38Z</time>
      </trkpt>
      <trkpt lat="47.90337" lon="7.25014">
        <ele>249.8</ele>
        <time>2019-08-09T18:57:39Z</time>
      </trkpt>
      <trkpt lat="47.90333" lon="7.25013">
        <ele>249.8</ele>
        <time>2019-08-09T18:57:40Z</time>
      </trkpt>
      <trkpt lat="47.90329" lon="7.25012">
        <ele>249.8</ele>
        <time>2019-08-09T18:57:41Z</time>
      </trkpt>
      <trkpt lat="47.90326" lon="7.25011">
        <ele>249.8</ele>
        <time>2019-08-09T18:57:42Z</time>
      </trkpt>
      <trkpt lat="47.90321" lon="7.25011">
        <ele>249.8</ele>
        <time>2019-08-09T18:57:43Z</time>
      </trkpt>
      <trkpt lat="47.90318" lon="7.2501">
        <ele>249.8</ele>
        <time>2019-08-09T18:57:44Z</time>
      </trkpt>
      <trkpt lat="47.90315" lon="7.25009">
        <ele>249.8</ele>
        <time>2019-08-09T18:57:45Z</time>
      </trkpt>
      <trkpt lat="47.90311" lon="7.25009">
        <ele>249.8</ele>
        <time>2019-08-09T18:57:46Z</time>
      </trkpt>
      <trkpt lat="47.90307" lon="7.25008">
        <ele>249.9</ele>
        <time>2019-08-09T18:57:47Z</time>
      </trkpt>
      <trkpt lat="47.90304" lon="7.25007">
        <ele>249.9</ele>
        <time>2019-08-09T18:57:48Z</time>
      </trkpt>
      <trkpt lat="47.903" lon="7.25007">
        <ele>249.9</ele>
        <time>2019-08-09T18:57:49Z</time>
      </trkpt>
      <trkpt lat="47.90296" lon="7.25006">
        <ele>249.9</ele>
        <time>2019-08-09T18:57:50Z</time>
      </trkpt>
      <trkpt lat="47.90293" lon="7.25005">
        <ele>249.9</ele>
        <time>2019-08-09T18:57:51Z</time>
      </trkpt>
      <trkpt lat="47.90289" lon="7.25005">
        <ele>249.8</ele>
        <time>2019-08-09T18:57:52Z</time>
      </trkpt>
      <trkpt lat="47.90285" lon="7.25005">
        <ele>249.8</ele>
        <time>2019-08-09T18:57:53Z</time>
      </trkpt>
      <trkpt lat="47.90281" lon="7.25006">
        <ele>249.8</ele>
        <time>2019-08-09T18:57:54Z</time>
      </trkpt>
      <trkpt lat="47.90277" lon="7.25006">
        <ele>249.8</ele>
        <time>2019-08-09T18:57:55Z</time>
      </trkpt>
      <trkpt lat="47.90274" lon="7.25006">
        <ele>249.8</ele>
        <time>2019-08-09T18:57:56Z</time>
      </trkpt>
      <trkpt lat="47.9027" lon="7.25006">
        <ele>249.8</ele>
        <time>2019-08-09T18:57:57Z</time>
      </trkpt>
      <trkpt lat="47.90265" lon="7.25006">
        <ele>250</ele>
        <time>2019-08-09T18:57:59Z</time>
      </trkpt>
      <trkpt lat="47.90261" lon="7.25006">
        <ele>250.1</ele>
        <time>2019-08-09T18:58:00Z</time>
      </trkpt>
      <trkpt lat="47.90258" lon="7.25006">
        <ele>250.3</ele>
        <time>2019-08-09T18:58:01Z</time>
      </trkpt>
      <trkpt lat="47.90254" lon="7.25007">
        <ele>250.5</ele>
        <time>2019-08-09T18:58:02Z</time>
      </trkpt>
      <trkpt lat="47.90251" lon="7.25008">
        <ele>250.6</ele>
        <time>2019-08-09T18:58:03Z</time>
      </trkpt>
      <trkpt lat="47.90248" lon="7.25008">
        <ele>250.8</ele>
        <time>2019-08-09T18:58:04Z</time>
      </trkpt>
      <trkpt lat="47.90245" lon="7.25008">
        <ele>250.9</ele>
        <time>2019-08-09T18:58:05Z</time>
      </trkpt>
      <trkpt lat="47.90241" lon="7.25008">
        <ele>251.2</ele>
        <time>2019-08-09T18:58:07Z</time>
      </trkpt>
      <trkpt lat="47.9024" lon="7.25002">
        <ele>251.8</ele>
        <time>2019-08-09T18:58:10Z</time>
      </trkpt>
      <trkpt lat="47.90239" lon="7.24997">
        <ele>251.9</ele>
        <time>2019-08-09T18:58:11Z</time>
      </trkpt>
      <trkpt lat="47.90239" lon="7.24993">
        <ele>252</ele>
        <time>2019-08-09T18:58:12Z</time>
      </trkpt>
      <trkpt lat="47.9024" lon="7.24985">
        <ele>252.1</ele>
        <time>2019-08-09T18:58:14Z</time>
      </trkpt>
      <trkpt lat="47.90239" lon="7.2498">
        <ele>252.2</ele>
        <time>2019-08-09T18:58:15Z</time>
      </trkpt>
      <trkpt lat="47.90239" lon="7.24974">
        <ele>252.3</ele>
        <time>2019-08-09T18:58:16Z</time>
      </trkpt>
      <trkpt lat="47.90239" lon="7.24968">
        <ele>252.4</ele>
        <time>2019-08-09T18:58:17Z</time>
      </trkpt>
      <trkpt lat="47.90239" lon="7.24962">
        <ele>252.5</ele>
        <time>2019-08-09T18:58:18Z</time>
      </trkpt>
      <trkpt lat="47.90239" lon="7.24955">
        <ele>252.5</ele>
        <time>2019-08-09T18:58:19Z</time>
      </trkpt>
      <trkpt lat="47.90239" lon="7.24949">
        <ele>252.6</ele>
        <time>2019-08-09T18:58:20Z</time>
      </trkpt>
      <trkpt lat="47.90239" lon="7.24943">
        <ele>252.7</ele>
        <time>2019-08-09T18:58:21Z</time>
      </trkpt>
      <trkpt lat="47.90238" lon="7.24936">
        <ele>252.8</ele>
        <time>2019-08-09T18:58:22Z</time>
      </trkpt>
      <trkpt lat="47.90238" lon="7.24931">
        <ele>252.8</ele>
        <time>2019-08-09T18:58:23Z</time>
      </trkpt>
      <trkpt lat="47.90238" lon="7.24925">
        <ele>252.8</ele>
        <time>2019-08-09T18:58:24Z</time>
      </trkpt>
      <trkpt lat="47.90237" lon="7.24919">
        <ele>252.8</ele>
        <time>2019-08-09T18:58:25Z</time>
      </trkpt>
      <trkpt lat="47.90237" lon="7.24913">
        <ele>252.9</ele>
        <time>2019-08-09T18:58:26Z</time>
      </trkpt>
      <trkpt lat="47.90236" lon="7.24908">
        <ele>252.9</ele>
        <time>2019-08-09T18:58:27Z</time>
      </trkpt>
      <trkpt lat="47.90235" lon="7.24902">
        <ele>252.9</ele>
        <time>2019-08-09T18:58:28Z</time>
      </trkpt>
      <trkpt lat="47.90235" lon="7.24896">
        <ele>252.9</ele>
        <time>2019-08-09T18:58:29Z</time>
      </trkpt>
      <trkpt lat="47.90235" lon="7.2489">
        <ele>252.9</ele>
        <time>2019-08-09T18:58:30Z</time>
      </trkpt>
      <trkpt lat="47.90234" lon="7.24884">
        <ele>253</ele>
        <time>2019-08-09T18:58:31Z</time>
      </trkpt>
      <trkpt lat="47.90234" lon="7.24879">
        <ele>253</ele>
        <time>2019-08-09T18:58:32Z</time>
      </trkpt>
      <trkpt lat="47.90234" lon="7.24873">
        <ele>253</ele>
        <time>2019-08-09T18:58:33Z</time>
      </trkpt>
      <trkpt lat="47.90234" lon="7.24868">
        <ele>253</ele>
        <time>2019-08-09T18:58:34Z</time>
      </trkpt>
      <trkpt lat="47.90234" lon="7.24862">
        <ele>252.9</ele>
        <time>2019-08-09T18:58:35Z</time>
      </trkpt>
      <trkpt lat="47.90233" lon="7.24856">
        <ele>252.9</ele>
        <time>2019-08-09T18:58:36Z</time>
      </trkpt>
      <trkpt lat="47.90233" lon="7.24851">
        <ele>252.9</ele>
        <time>2019-08-09T18:58:37Z</time>
      </trkpt>
      <trkpt lat="47.90233" lon="7.24845">
        <ele>252.8</ele>
        <time>2019-08-09T18:58:38Z</time>
      </trkpt>
      <trkpt lat="47.90233" lon="7.24839">
        <ele>252.8</ele>
        <time>2019-08-09T18:58:39Z</time>
      </trkpt>
      <trkpt lat="47.90233" lon="7.24833">
        <ele>252.8</ele>
        <time>2019-08-09T18:58:40Z</time>
      </trkpt>
      <trkpt lat="47.90232" lon="7.24828">
        <ele>252.7</ele>
        <time>2019-08-09T18:58:41Z</time>
      </trkpt>
      <trkpt lat="47.90232" lon="7.24822">
        <ele>252.7</ele>
        <time>2019-08-09T18:58:42Z</time>
      </trkpt>
      <trkpt lat="47.90232" lon="7.24816">
        <ele>252.7</ele>
        <time>2019-08-09T18:58:43Z</time>
      </trkpt>
      <trkpt lat="47.90232" lon="7.2481">
        <ele>252.6</ele>
        <time>2019-08-09T18:58:44Z</time>
      </trkpt>
      <trkpt lat="47.90231" lon="7.24804">
        <ele>252.6</ele>
        <time>2019-08-09T18:58:45Z</time>
      </trkpt>
      <trkpt lat="47.90231" lon="7.24798">
        <ele>252.6</ele>
        <time>2019-08-09T18:58:46Z</time>
      </trkpt>
      <trkpt lat="47.90231" lon="7.24792">
        <ele>252.6</ele>
        <time>2019-08-09T18:58:47Z</time>
      </trkpt>
      <trkpt lat="47.9023" lon="7.24786">
        <ele>252.5</ele>
        <time>2019-08-09T18:58:48Z</time>
      </trkpt>
      <trkpt lat="47.9023" lon="7.2478">
        <ele>252.3</ele>
        <time>2019-08-09T18:58:49Z</time>
      </trkpt>
      <trkpt lat="47.90229" lon="7.24773">
        <ele>252.2</ele>
        <time>2019-08-09T18:58:50Z</time>
      </trkpt>
      <trkpt lat="47.90229" lon="7.24767">
        <ele>252.1</ele>
        <time>2019-08-09T18:58:51Z</time>
      </trkpt>
      <trkpt lat="47.90228" lon="7.24761">
        <ele>252</ele>
        <time>2019-08-09T18:58:52Z</time>
      </trkpt>
      <trkpt lat="47.90228" lon="7.24754">
        <ele>252</ele>
        <time>2019-08-09T18:58:53Z</time>
      </trkpt>
      <trkpt lat="47.90227" lon="7.24747">
        <ele>252</ele>
        <time>2019-08-09T18:58:54Z</time>
      </trkpt>
      <trkpt lat="47.90227" lon="7.24741">
        <ele>252.1</ele>
        <time>2019-08-09T18:58:55Z</time>
      </trkpt>
      <trkpt lat="47.90226" lon="7.24734">
        <ele>252.2</ele>
        <time>2019-08-09T18:58:56Z</time>
      </trkpt>
      <trkpt lat="47.90226" lon="7.24728">
        <ele>252.3</ele>
        <time>2019-08-09T18:58:57Z</time>
      </trkpt>
      <trkpt lat="47.90225" lon="7.24721">
        <ele>252.4</ele>
        <time>2019-08-09T18:58:58Z</time>
      </trkpt>
      <trkpt lat="47.90224" lon="7.24715">
        <ele>252.4</ele>
        <time>2019-08-09T18:58:59Z</time>
      </trkpt>
      <trkpt lat="47.90224" lon="7.24708">
        <ele>252.4</ele>
        <time>2019-08-09T18:59:00Z</time>
      </trkpt>
      <trkpt lat="47.90224" lon="7.24702">
        <ele>252.5</ele>
        <time>2019-08-09T18:59:01Z</time>
      </trkpt>
      <trkpt lat="47.90223" lon="7.24696">
        <ele>252.5</ele>
        <time>2019-08-09T18:59:02Z</time>
      </trkpt>
      <trkpt lat="47.90223" lon="7.2469">
        <ele>252.5</ele>
        <time>2019-08-09T18:59:03Z</time>
      </trkpt>
      <trkpt lat="47.90223" lon="7.24683">
        <ele>252.5</ele>
        <time>2019-08-09T18:59:04Z</time>
      </trkpt>
      <trkpt lat="47.90222" lon="7.24677">
        <ele>252.6</ele>
        <time>2019-08-09T18:59:05Z</time>
      </trkpt>
      <trkpt lat="47.90222" lon="7.24671">
        <ele>252.6</ele>
        <time>2019-08-09T18:59:06Z</time>
      </trkpt>
      <trkpt lat="47.90222" lon="7.24665">
        <ele>252.7</ele>
        <time>2019-08-09T18:59:07Z</time>
      </trkpt>
      <trkpt lat="47.90221" lon="7.24659">
        <ele>252.7</ele>
        <time>2019-08-09T18:59:08Z</time>
      </trkpt>
      <trkpt lat="47.90221" lon="7.24653">
        <ele>252.8</ele>
        <time>2019-08-09T18:59:09Z</time>
      </trkpt>
      <trkpt lat="47.90221" lon="7.24647">
        <ele>252.8</ele>
        <time>2019-08-09T18:59:10Z</time>
      </trkpt>
      <trkpt lat="47.90221" lon="7.24641">
        <ele>252.9</ele>
        <time>2019-08-09T18:59:11Z</time>
      </trkpt>
      <trkpt lat="47.90221" lon="7.24635">
        <ele>253</ele>
        <time>2019-08-09T18:59:12Z</time>
      </trkpt>
      <trkpt lat="47.90221" lon="7.2463">
        <ele>253</ele>
        <time>2019-08-09T18:59:13Z</time>
      </trkpt>
      <trkpt lat="47.90221" lon="7.24625">
        <ele>253.1</ele>
        <time>2019-08-09T18:59:14Z</time>
      </trkpt>
      <trkpt lat="47.90222" lon="7.2462">
        <ele>253.1</ele>
        <time>2019-08-09T18:59:15Z</time>
      </trkpt>
      <trkpt lat="47.90223" lon="7.24616">
        <ele>253.2</ele>
        <time>2019-08-09T18:59:16Z</time>
      </trkpt>
      <trkpt lat="47.90224" lon="7.24611">
        <ele>253.2</ele>
        <time>2019-08-09T18:59:17Z</time>
      </trkpt>
      <trkpt lat="47.90224" lon="7.24606">
        <ele>253.3</ele>
        <time>2019-08-09T18:59:18Z</time>
      </trkpt>
      <trkpt lat="47.90225" lon="7.24601">
        <ele>253.4</ele>
        <time>2019-08-09T18:59:19Z</time>
      </trkpt>
      <trkpt lat="47.90224" lon="7.24596">
        <ele>253.4</ele>
        <time>2019-08-09T18:59:20Z</time>
      </trkpt>
      <trkpt lat="47.90223" lon="7.2459">
        <ele>253.5</ele>
        <time>2019-08-09T18:59:21Z</time>
      </trkpt>
      <trkpt lat="47.90223" lon="7.24585">
        <ele>253.6</ele>
        <time>2019-08-09T18:59:22Z</time>
      </trkpt>
      <trkpt lat="47.90222" lon="7.24579">
        <ele>253.7</ele>
        <time>2019-08-09T18:59:23Z</time>
      </trkpt>
      <trkpt lat="47.90221" lon="7.24574">
        <ele>253.8</ele>
        <time>2019-08-09T18:59:24Z</time>
      </trkpt>
      <trkpt lat="47.9022" lon="7.24568">
        <ele>253.9</ele>
        <time>2019-08-09T18:59:25Z</time>
      </trkpt>
      <trkpt lat="47.90219" lon="7.24563">
        <ele>254</ele>
        <time>2019-08-09T18:59:26Z</time>
      </trkpt>
      <trkpt lat="47.90219" lon="7.24557">
        <ele>254.1</ele>
        <time>2019-08-09T18:59:27Z</time>
      </trkpt>
      <trkpt lat="47.90218" lon="7.24552">
        <ele>254.2</ele>
        <time>2019-08-09T18:59:28Z</time>
      </trkpt>
      <trkpt lat="47.90218" lon="7.24546">
        <ele>254.3</ele>
        <time>2019-08-09T18:59:29Z</time>
      </trkpt>
      <trkpt lat="47.90217" lon="7.24541">
        <ele>254.3</ele>
        <time>2019-08-09T18:59:30Z</time>
      </trkpt>
      <trkpt lat="47.90216" lon="7.24536">
        <ele>254.4</ele>
        <time>2019-08-09T18:59:31Z</time>
      </trkpt>
      <trkpt lat="47.90215" lon="7.24531">
        <ele>254.5</ele>
        <time>2019-08-09T18:59:32Z</time>
      </trkpt>
      <trkpt lat="47.90215" lon="7.24526">
        <ele>254.5</ele>
        <time>2019-08-09T18:59:33Z</time>
      </trkpt>
      <trkpt lat="47.90214" lon="7.24521">
        <ele>254.6</ele>
        <time>2019-08-09T18:59:34Z</time>
      </trkpt>
      <trkpt lat="47.90214" lon="7.24515">
        <ele>254.6</ele>
        <time>2019-08-09T18:59:35Z</time>
      </trkpt>
      <trkpt lat="47.90213" lon="7.2451">
        <ele>254.7</ele>
        <time>2019-08-09T18:59:36Z</time>
      </trkpt>
      <trkpt lat="47.90213" lon="7.24505">
        <ele>254.8</ele>
        <time>2019-08-09T18:59:37Z</time>
      </trkpt>
      <trkpt lat="47.90212" lon="7.245">
        <ele>254.8</ele>
        <time>2019-08-09T18:59:38Z</time>
      </trkpt>
      <trkpt lat="47.90212" lon="7.24495">
        <ele>254.9</ele>
        <time>2019-08-09T18:59:39Z</time>
      </trkpt>
      <trkpt lat="47.90212" lon="7.2449">
        <ele>255</ele>
        <time>2019-08-09T18:59:40Z</time>
      </trkpt>
      <trkpt lat="47.90212" lon="7.24485">
        <ele>255</ele>
        <time>2019-08-09T18:59:41Z</time>
      </trkpt>
      <trkpt lat="47.90212" lon="7.2448">
        <ele>255.1</ele>
        <time>2019-08-09T18:59:42Z</time>
      </trkpt>
      <trkpt lat="47.90211" lon="7.24475">
        <ele>255.1</ele>
        <time>2019-08-09T18:59:43Z</time>
      </trkpt>
      <trkpt lat="47.90211" lon="7.2447">
        <ele>255.2</ele>
        <time>2019-08-09T18:59:44Z</time>
      </trkpt>
      <trkpt lat="47.90211" lon="7.24465">
        <ele>255.2</ele>
        <time>2019-08-09T18:59:45Z</time>
      </trkpt>
      <trkpt lat="47.90211" lon="7.2446">
        <ele>255.3</ele>
        <time>2019-08-09T18:59:46Z</time>
      </trkpt>
      <trkpt lat="47.90211" lon="7.24455">
        <ele>255.3</ele>
        <time>2019-08-09T18:59:47Z</time>
      </trkpt>
      <trkpt lat="47.9021" lon="7.24449">
        <ele>255.4</ele>
        <time>2019-08-09T18:59:48Z</time>
      </trkpt>
      <trkpt lat="47.9021" lon="7.24444">
        <ele>255.4</ele>
        <time>2019-08-09T18:59:49Z</time>
      </trkpt>
      <trkpt lat="47.90209" lon="7.24439">
        <ele>255.5</ele>
        <time>2019-08-09T18:59:50Z</time>
      </trkpt>
      <trkpt lat="47.90209" lon="7.24435">
        <ele>255.5</ele>
        <time>2019-08-09T18:59:51Z</time>
      </trkpt>
      <trkpt lat="47.90208" lon="7.24431">
        <ele>255.6</ele>
        <time>2019-08-09T18:59:52Z</time>
      </trkpt>
      <trkpt lat="47.90208" lon="7.24426">
        <ele>255.8</ele>
        <time>2019-08-09T18:59:53Z</time>
      </trkpt>
      <trkpt lat="47.90207" lon="7.24421">
        <ele>255.9</ele>
        <time>2019-08-09T18:59:54Z</time>
      </trkpt>
      <trkpt lat="47.90207" lon="7.24416">
        <ele>256</ele>
        <time>2019-08-09T18:59:55Z</time>
      </trkpt>
      <trkpt lat="47.90207" lon="7.24411">
        <ele>256.1</ele>
        <time>2019-08-09T18:59:56Z</time>
      </trkpt>
      <trkpt lat="47.90207" lon="7.24407">
        <ele>256.2</ele>
        <time>2019-08-09T18:59:57Z</time>
      </trkpt>
      <trkpt lat="47.90206" lon="7.24401">
        <ele>256.3</ele>
        <time>2019-08-09T18:59:58Z</time>
      </trkpt>
      <trkpt lat="47.90206" lon="7.24395">
        <ele>256.5</ele>
        <time>2019-08-09T18:59:59Z</time>
      </trkpt>
      <trkpt lat="47.90205" lon="7.24389">
        <ele>256.6</ele>
        <time>2019-08-09T19:00:00Z</time>
      </trkpt>
      <trkpt lat="47.90205" lon="7.24384">
        <ele>256.7</ele>
        <time>2019-08-09T19:00:01Z</time>
      </trkpt>
      <trkpt lat="47.90205" lon="7.24378">
        <ele>256.8</ele>
        <time>2019-08-09T19:00:02Z</time>
      </trkpt>
      <trkpt lat="47.90204" lon="7.24373">
        <ele>256.9</ele>
        <time>2019-08-09T19:00:03Z</time>
      </trkpt>
      <trkpt lat="47.90204" lon="7.24368">
        <ele>257</ele>
        <time>2019-08-09T19:00:04Z</time>
      </trkpt>
      <trkpt lat="47.90203" lon="7.24362">
        <ele>257.1</ele>
        <time>2019-08-09T19:00:05Z</time>
      </trkpt>
      <trkpt lat="47.90203" lon="7.24357">
        <ele>257.2</ele>
        <time>2019-08-09T19:00:06Z</time>
      </trkpt>
      <trkpt lat="47.90203" lon="7.24352">
        <ele>257.3</ele>
        <time>2019-08-09T19:00:07Z</time>
      </trkpt>
      <trkpt lat="47.90202" lon="7.24348">
        <ele>257.4</ele>
        <time>2019-08-09T19:00:08Z</time>
      </trkpt>
      <trkpt lat="47.90202" lon="7.24343">
        <ele>257.5</ele>
        <time>2019-08-09T19:00:09Z</time>
      </trkpt>
      <trkpt lat="47.90203" lon="7.24338">
        <ele>257.5</ele>
        <time>2019-08-09T19:00:10Z</time>
      </trkpt>
      <trkpt lat="47.90203" lon="7.24333">
        <ele>257.7</ele>
        <time>2019-08-09T19:00:11Z</time>
      </trkpt>
      <trkpt lat="47.90202" lon="7.24328">
        <ele>257.8</ele>
        <time>2019-08-09T19:00:12Z</time>
      </trkpt>
      <trkpt lat="47.90202" lon="7.24322">
        <ele>257.8</ele>
        <time>2019-08-09T19:00:13Z</time>
      </trkpt>
      <trkpt lat="47.90201" lon="7.24316">
        <ele>257.9</ele>
        <time>2019-08-09T19:00:14Z</time>
      </trkpt>
      <trkpt lat="47.90201" lon="7.24311">
        <ele>258</ele>
        <time>2019-08-09T19:00:15Z</time>
      </trkpt>
      <trkpt lat="47.902" lon="7.24307">
        <ele>258</ele>
        <time>2019-08-09T19:00:16Z</time>
      </trkpt>
      <trkpt lat="47.90199" lon="7.24302">
        <ele>258</ele>
        <time>2019-08-09T19:00:17Z</time>
      </trkpt>
      <trkpt lat="47.90199" lon="7.24297">
        <ele>258.1</ele>
        <time>2019-08-09T19:00:18Z</time>
      </trkpt>
      <trkpt lat="47.90198" lon="7.24292">
        <ele>258.1</ele>
        <time>2019-08-09T19:00:19Z</time>
      </trkpt>
      <trkpt lat="47.90198" lon="7.24286">
        <ele>258.1</ele>
        <time>2019-08-09T19:00:20Z</time>
      </trkpt>
      <trkpt lat="47.90197" lon="7.24281">
        <ele>258.1</ele>
        <time>2019-08-09T19:00:21Z</time>
      </trkpt>
      <trkpt lat="47.90197" lon="7.24277">
        <ele>258.2</ele>
        <time>2019-08-09T19:00:22Z</time>
      </trkpt>
      <trkpt lat="47.90197" lon="7.24272">
        <ele>258.2</ele>
        <time>2019-08-09T19:00:23Z</time>
      </trkpt>
      <trkpt lat="47.90198" lon="7.24267">
        <ele>258.3</ele>
        <time>2019-08-09T19:00:24Z</time>
      </trkpt>
      <trkpt lat="47.902" lon="7.24263">
        <ele>258.3</ele>
        <time>2019-08-09T19:00:25Z</time>
      </trkpt>
      <trkpt lat="47.90201" lon="7.24258">
        <ele>258.4</ele>
        <time>2019-08-09T19:00:26Z</time>
      </trkpt>
      <trkpt lat="47.90203" lon="7.24252">
        <ele>258.4</ele>
        <time>2019-08-09T19:00:27Z</time>
      </trkpt>
      <trkpt lat="47.90204" lon="7.24247">
        <ele>258.5</ele>
        <time>2019-08-09T19:00:28Z</time>
      </trkpt>
      <trkpt lat="47.90205" lon="7.24242">
        <ele>258.5</ele>
        <time>2019-08-09T19:00:29Z</time>
      </trkpt>
      <trkpt lat="47.90207" lon="7.24238">
        <ele>258.6</ele>
        <time>2019-08-09T19:00:30Z</time>
      </trkpt>
      <trkpt lat="47.90208" lon="7.24234">
        <ele>258.6</ele>
        <time>2019-08-09T19:00:31Z</time>
      </trkpt>
      <trkpt lat="47.9021" lon="7.2423">
        <ele>258.6</ele>
        <time>2019-08-09T19:00:32Z</time>
      </trkpt>
      <trkpt lat="47.90211" lon="7.24225">
        <ele>258.6</ele>
        <time>2019-08-09T19:00:33Z</time>
      </trkpt>
      <trkpt lat="47.90212" lon="7.24222">
        <ele>258.6</ele>
        <time>2019-08-09T19:00:34Z</time>
      </trkpt>
      <trkpt lat="47.90213" lon="7.24216">
        <ele>258.6</ele>
        <time>2019-08-09T19:00:35Z</time>
      </trkpt>
      <trkpt lat="47.90214" lon="7.24211">
        <ele>258.6</ele>
        <time>2019-08-09T19:00:36Z</time>
      </trkpt>
      <trkpt lat="47.90213" lon="7.24207">
        <ele>258.6</ele>
        <time>2019-08-09T19:00:37Z</time>
      </trkpt>
      <trkpt lat="47.90211" lon="7.24202">
        <ele>258.7</ele>
        <time>2019-08-09T19:00:38Z</time>
      </trkpt>
      <trkpt lat="47.90211" lon="7.24197">
        <ele>258.8</ele>
        <time>2019-08-09T19:00:39Z</time>
      </trkpt>
      <trkpt lat="47.9021" lon="7.24191">
        <ele>258.8</ele>
        <time>2019-08-09T19:00:40Z</time>
      </trkpt>
      <trkpt lat="47.9021" lon="7.24186">
        <ele>258.8</ele>
        <time>2019-08-09T19:00:41Z</time>
      </trkpt>
      <trkpt lat="47.90209" lon="7.2418">
        <ele>258.9</ele>
        <time>2019-08-09T19:00:42Z</time>
      </trkpt>
      <trkpt lat="47.90209" lon="7.24174">
        <ele>258.9</ele>
        <time>2019-08-09T19:00:43Z</time>
      </trkpt>
      <trkpt lat="47.90208" lon="7.24168">
        <ele>258.9</ele>
        <time>2019-08-09T19:00:44Z</time>
      </trkpt>
      <trkpt lat="47.90208" lon="7.24162">
        <ele>259</ele>
        <time>2019-08-09T19:00:45Z</time>
      </trkpt>
      <trkpt lat="47.90208" lon="7.24157">
        <ele>259</ele>
        <time>2019-08-09T19:00:46Z</time>
      </trkpt>
      <trkpt lat="47.90209" lon="7.24152">
        <ele>259</ele>
        <time>2019-08-09T19:00:47Z</time>
      </trkpt>
      <trkpt lat="47.90209" lon="7.24145">
        <ele>259.1</ele>
        <time>2019-08-09T19:00:48Z</time>
      </trkpt>
      <trkpt lat="47.90209" lon="7.24139">
        <ele>259.1</ele>
        <time>2019-08-09T19:00:49Z</time>
      </trkpt>
      <trkpt lat="47.90211" lon="7.24135">
        <ele>259.2</ele>
        <time>2019-08-09T19:00:50Z</time>
      </trkpt>
      <trkpt lat="47.90212" lon="7.24129">
        <ele>259.2</ele>
        <time>2019-08-09T19:00:51Z</time>
      </trkpt>
      <trkpt lat="47.90213" lon="7.24123">
        <ele>259.3</ele>
        <time>2019-08-09T19:00:52Z</time>
      </trkpt>
      <trkpt lat="47.90213" lon="7.24118">
        <ele>259.3</ele>
        <time>2019-08-09T19:00:53Z</time>
      </trkpt>
      <trkpt lat="47.90213" lon="7.24113">
        <ele>259.4</ele>
        <time>2019-08-09T19:00:54Z</time>
      </trkpt>
      <trkpt lat="47.90214" lon="7.24107">
        <ele>259.5</ele>
        <time>2019-08-09T19:00:55Z</time>
      </trkpt>
      <trkpt lat="47.90215" lon="7.24103">
        <ele>259.5</ele>
        <time>2019-08-09T19:00:56Z</time>
      </trkpt>
      <trkpt lat="47.90215" lon="7.24098">
        <ele>259.6</ele>
        <time>2019-08-09T19:00:57Z</time>
      </trkpt>
      <trkpt lat="47.90215" lon="7.24093">
        <ele>259.6</ele>
        <time>2019-08-09T19:00:58Z</time>
      </trkpt>
      <trkpt lat="47.90215" lon="7.24087">
        <ele>259.7</ele>
        <time>2019-08-09T19:00:59Z</time>
      </trkpt>
      <trkpt lat="47.90215" lon="7.24081">
        <ele>259.7</ele>
        <time>2019-08-09T19:01:00Z</time>
      </trkpt>
      <trkpt lat="47.90216" lon="7.24075">
        <ele>259.8</ele>
        <time>2019-08-09T19:01:01Z</time>
      </trkpt>
      <trkpt lat="47.90216" lon="7.2407">
        <ele>259.8</ele>
        <time>2019-08-09T19:01:02Z</time>
      </trkpt>
      <trkpt lat="47.90217" lon="7.24064">
        <ele>259.8</ele>
        <time>2019-08-09T19:01:03Z</time>
      </trkpt>
      <trkpt lat="47.90218" lon="7.24059">
        <ele>259.9</ele>
        <time>2019-08-09T19:01:04Z</time>
      </trkpt>
      <trkpt lat="47.90219" lon="7.24053">
        <ele>259.9</ele>
        <time>2019-08-09T19:01:05Z</time>
      </trkpt>
      <trkpt lat="47.90219" lon="7.24048">
        <ele>259.9</ele>
        <time>2019-08-09T19:01:06Z</time>
      </trkpt>
      <trkpt lat="47.90219" lon="7.24042">
        <ele>259.9</ele>
        <time>2019-08-09T19:01:07Z</time>
      </trkpt>
      <trkpt lat="47.90219" lon="7.24036">
        <ele>259.9</ele>
        <time>2019-08-09T19:01:08Z</time>
      </trkpt>
      <trkpt lat="47.90219" lon="7.2403">
        <ele>260</ele>
        <time>2019-08-09T19:01:09Z</time>
      </trkpt>
      <trkpt lat="47.90219" lon="7.24025">
        <ele>260</ele>
        <time>2019-08-09T19:01:10Z</time>
      </trkpt>
      <trkpt lat="47.90219" lon="7.2402">
        <ele>260</ele>
        <time>2019-08-09T19:01:11Z</time>
      </trkpt>
      <trkpt lat="47.90219" lon="7.24015">
        <ele>260</ele>
        <time>2019-08-09T19:01:12Z</time>
      </trkpt>
      <trkpt lat="47.90219" lon="7.2401">
        <ele>260</ele>
        <time>2019-08-09T19:01:13Z</time>
      </trkpt>
      <trkpt lat="47.90219" lon="7.24005">
        <ele>260.1</ele>
        <time>2019-08-09T19:01:14Z</time>
      </trkpt>
      <trkpt lat="47.90219" lon="7.24">
        <ele>260.1</ele>
        <time>2019-08-09T19:01:15Z</time>
      </trkpt>
      <trkpt lat="47.90219" lon="7.23994">
        <ele>260.1</ele>
        <time>2019-08-09T19:01:16Z</time>
      </trkpt>
      <trkpt lat="47.90218" lon="7.23988">
        <ele>260</ele>
        <time>2019-08-09T19:01:17Z</time>
      </trkpt>
      <trkpt lat="47.90219" lon="7.23983">
        <ele>260</ele>
        <time>2019-08-09T19:01:18Z</time>
      </trkpt>
      <trkpt lat="47.9022" lon="7.23978">
        <ele>260</ele>
        <time>2019-08-09T19:01:19Z</time>
      </trkpt>
      <trkpt lat="47.90221" lon="7.23973">
        <ele>259.9</ele>
        <time>2019-08-09T19:01:20Z</time>
      </trkpt>
      <trkpt lat="47.90222" lon="7.23968">
        <ele>259.9</ele>
        <time>2019-08-09T19:01:21Z</time>
      </trkpt>
      <trkpt lat="47.90222" lon="7.23963">
        <ele>259.9</ele>
        <time>2019-08-09T19:01:22Z</time>
      </trkpt>
      <trkpt lat="47.90222" lon="7.23957">
        <ele>259.8</ele>
        <time>2019-08-09T19:01:23Z</time>
      </trkpt>
      <trkpt lat="47.90223" lon="7.23953">
        <ele>259.8</ele>
        <time>2019-08-09T19:01:24Z</time>
      </trkpt>
      <trkpt lat="47.90223" lon="7.23948">
        <ele>259.8</ele>
        <time>2019-08-09T19:01:25Z</time>
      </trkpt>
      <trkpt lat="47.90224" lon="7.23943">
        <ele>259.8</ele>
        <time>2019-08-09T19:01:26Z</time>
      </trkpt>
      <trkpt lat="47.90224" lon="7.23938">
        <ele>259.8</ele>
        <time>2019-08-09T19:01:27Z</time>
      </trkpt>
      <trkpt lat="47.90223" lon="7.23934">
        <ele>259.8</ele>
        <time>2019-08-09T19:01:28Z</time>
      </trkpt>
      <trkpt lat="47.90223" lon="7.23928">
        <ele>259.8</ele>
        <time>2019-08-09T19:01:29Z</time>
      </trkpt>
      <trkpt lat="47.90223" lon="7.23923">
        <ele>259.8</ele>
        <time>2019-08-09T19:01:30Z</time>
      </trkpt>
      <trkpt lat="47.90223" lon="7.23918">
        <ele>259.8</ele>
        <time>2019-08-09T19:01:31Z</time>
      </trkpt>
      <trkpt lat="47.90223" lon="7.23912">
        <ele>259.8</ele>
        <time>2019-08-09T19:01:32Z</time>
      </trkpt>
      <trkpt lat="47.90223" lon="7.23907">
        <ele>259.8</ele>
        <time>2019-08-09T19:01:33Z</time>
      </trkpt>
      <trkpt lat="47.90223" lon="7.23902">
        <ele>259.8</ele>
        <time>2019-08-09T19:01:34Z</time>
      </trkpt>
      <trkpt lat="47.90223" lon="7.23896">
        <ele>259.8</ele>
        <time>2019-08-09T19:01:35Z</time>
      </trkpt>
      <trkpt lat="47.90223" lon="7.23891">
        <ele>259.8</ele>
        <time>2019-08-09T19:01:36Z</time>
      </trkpt>
      <trkpt lat="47.90223" lon="7.23886">
        <ele>259.8</ele>
        <time>2019-08-09T19:01:37Z</time>
      </trkpt>
      <trkpt lat="47.90223" lon="7.23881">
        <ele>259.8</ele>
        <time>2019-08-09T19:01:38Z</time>
      </trkpt>
      <trkpt lat="47.90223" lon="7.23876">
        <ele>259.8</ele>
        <time>2019-08-09T19:01:39Z</time>
      </trkpt>
      <trkpt lat="47.90223" lon="7.23871">
        <ele>259.8</ele>
        <time>2019-08-09T19:01:40Z</time>
      </trkpt>
      <trkpt lat="47.90222" lon="7.23866">
        <ele>259.8</ele>
        <time>2019-08-09T19:01:41Z</time>
      </trkpt>
      <trkpt lat="47.90222" lon="7.23861">
        <ele>259.8</ele>
        <time>2019-08-09T19:01:42Z</time>
      </trkpt>
      <trkpt lat="47.90221" lon="7.23857">
        <ele>259.8</ele>
        <time>2019-08-09T19:01:43Z</time>
      </trkpt>
      <trkpt lat="47.9022" lon="7.23852">
        <ele>259.8</ele>
        <time>2019-08-09T19:01:44Z</time>
      </trkpt>
      <trkpt lat="47.90219" lon="7.23848">
        <ele>259.8</ele>
        <time>2019-08-09T19:01:45Z</time>
      </trkpt>
      <trkpt lat="47.90218" lon="7.23839">
        <ele>259.8</ele>
        <time>2019-08-09T19:01:47Z</time>
      </trkpt>
      <trkpt lat="47.90217" lon="7.23834">
        <ele>259.9</ele>
        <time>2019-08-09T19:01:48Z</time>
      </trkpt>
      <trkpt lat="47.90216" lon="7.23829">
        <ele>259.9</ele>
        <time>2019-08-09T19:01:49Z</time>
      </trkpt>
      <trkpt lat="47.90215" lon="7.23823">
        <ele>259.9</ele>
        <time>2019-08-09T19:01:50Z</time>
      </trkpt>
      <trkpt lat="47.90214" lon="7.23818">
        <ele>259.9</ele>
        <time>2019-08-09T19:01:51Z</time>
      </trkpt>
      <trkpt lat="47.90214" lon="7.23813">
        <ele>259.9</ele>
        <time>2019-08-09T19:01:52Z</time>
      </trkpt>
      <trkpt lat="47.90214" lon="7.23808">
        <ele>259.9</ele>
        <time>2019-08-09T19:01:53Z</time>
      </trkpt>
      <trkpt lat="47.90213" lon="7.23804">
        <ele>259.9</ele>
        <time>2019-08-09T19:01:54Z</time>
      </trkpt>
      <trkpt lat="47.90213" lon="7.23799">
        <ele>260</ele>
        <time>2019-08-09T19:01:55Z</time>
      </trkpt>
      <trkpt lat="47.90212" lon="7.23794">
        <ele>260</ele>
        <time>2019-08-09T19:01:56Z</time>
      </trkpt>
      <trkpt lat="47.90212" lon="7.23789">
        <ele>260</ele>
        <time>2019-08-09T19:01:57Z</time>
      </trkpt>
      <trkpt lat="47.90211" lon="7.23784">
        <ele>260</ele>
        <time>2019-08-09T19:01:58Z</time>
      </trkpt>
      <trkpt lat="47.9021" lon="7.23779">
        <ele>260</ele>
        <time>2019-08-09T19:01:59Z</time>
      </trkpt>
      <trkpt lat="47.9021" lon="7.23774">
        <ele>260</ele>
        <time>2019-08-09T19:02:00Z</time>
      </trkpt>
      <trkpt lat="47.90209" lon="7.23768">
        <ele>260</ele>
        <time>2019-08-09T19:02:01Z</time>
      </trkpt>
      <trkpt lat="47.90208" lon="7.23763">
        <ele>260.1</ele>
        <time>2019-08-09T19:02:02Z</time>
      </trkpt>
      <trkpt lat="47.90208" lon="7.23759">
        <ele>260.1</ele>
        <time>2019-08-09T19:02:03Z</time>
      </trkpt>
      <trkpt lat="47.90207" lon="7.23753">
        <ele>260.2</ele>
        <time>2019-08-09T19:02:04Z</time>
      </trkpt>
      <trkpt lat="47.90206" lon="7.23747">
        <ele>260.3</ele>
        <time>2019-08-09T19:02:05Z</time>
      </trkpt>
      <trkpt lat="47.90206" lon="7.23742">
        <ele>260.4</ele>
        <time>2019-08-09T19:02:06Z</time>
      </trkpt>
      <trkpt lat="47.90205" lon="7.23736">
        <ele>260.6</ele>
        <time>2019-08-09T19:02:07Z</time>
      </trkpt>
      <trkpt lat="47.90204" lon="7.2373">
        <ele>260.8</ele>
        <time>2019-08-09T19:02:08Z</time>
      </trkpt>
      <trkpt lat="47.90203" lon="7.23724">
        <ele>260.9</ele>
        <time>2019-08-09T19:02:09Z</time>
      </trkpt>
      <trkpt lat="47.90203" lon="7.2372">
        <ele>261.1</ele>
        <time>2019-08-09T19:02:10Z</time>
      </trkpt>
      <trkpt lat="47.90202" lon="7.23715">
        <ele>261.2</ele>
        <time>2019-08-09T19:02:11Z</time>
      </trkpt>
      <trkpt lat="47.90202" lon="7.2371">
        <ele>261.4</ele>
        <time>2019-08-09T19:02:12Z</time>
      </trkpt>
      <trkpt lat="47.90202" lon="7.23705">
        <ele>261.5</ele>
        <time>2019-08-09T19:02:13Z</time>
      </trkpt>
      <trkpt lat="47.90201" lon="7.23699">
        <ele>261.7</ele>
        <time>2019-08-09T19:02:15Z</time>
      </trkpt>
      <trkpt lat="47.90198" lon="7.23702">
        <ele>261.9</ele>
        <time>2019-08-09T19:02:18Z</time>
      </trkpt>
      <trkpt lat="47.90195" lon="7.23706">
        <ele>261.9</ele>
        <time>2019-08-09T19:02:20Z</time>
      </trkpt>
      <trkpt lat="47.90191" lon="7.23705">
        <ele>262</ele>
        <time>2019-08-09T19:02:21Z</time>
      </trkpt>
      <trkpt lat="47.90186" lon="7.23705">
        <ele>262.1</ele>
        <time>2019-08-09T19:02:23Z</time>
      </trkpt>
      <trkpt lat="47.90182" lon="7.23704">
        <ele>262.1</ele>
        <time>2019-08-09T19:02:24Z</time>
      </trkpt>
      <trkpt lat="47.90179" lon="7.23704">
        <ele>262.2</ele>
        <time>2019-08-09T19:02:25Z</time>
      </trkpt>
      <trkpt lat="47.90175" lon="7.23704">
        <ele>262.2</ele>
        <time>2019-08-09T19:02:27Z</time>
      </trkpt>
      <trkpt lat="47.9017" lon="7.23702">
        <ele>262.3</ele>
        <time>2019-08-09T19:02:29Z</time>
      </trkpt>
      <trkpt lat="47.90166" lon="7.23701">
        <ele>262.4</ele>
        <time>2019-08-09T19:02:31Z</time>
      </trkpt>
      <trkpt lat="47.90164" lon="7.23696">
        <ele>262.4</ele>
        <time>2019-08-09T19:02:33Z</time>
      </trkpt>
      <trkpt lat="47.90161" lon="7.23697">
        <ele>262.5</ele>
        <time>2019-08-09T19:02:34Z</time>
      </trkpt>
      <trkpt lat="47.90156" lon="7.23698">
        <ele>262.5</ele>
        <time>2019-08-09T19:02:36Z</time>
      </trkpt>
      <trkpt lat="47.90151" lon="7.23698">
        <ele>263</ele>
        <time>2019-08-09T19:02:38Z</time>
      </trkpt>
      <trkpt lat="47.90147" lon="7.23697">
        <ele>263.2</ele>
        <time>2019-08-09T19:02:40Z</time>
      </trkpt>
      <trkpt lat="47.90143" lon="7.23693">
        <ele>263.4</ele>
        <time>2019-08-09T19:02:42Z</time>
      </trkpt>
      <trkpt lat="47.90138" lon="7.23691">
        <ele>263.7</ele>
        <time>2019-08-09T19:02:44Z</time>
      </trkpt>
      <trkpt lat="47.90134" lon="7.23687">
        <ele>263.9</ele>
        <time>2019-08-09T19:02:46Z</time>
      </trkpt>
      <trkpt lat="47.90131" lon="7.23686">
        <ele>264</ele>
        <time>2019-08-09T19:02:47Z</time>
      </trkpt>
      <trkpt lat="47.90128" lon="7.23685">
        <ele>264.1</ele>
        <time>2019-08-09T19:02:48Z</time>
      </trkpt>
      <trkpt lat="47.90124" lon="7.23684">
        <ele>264.2</ele>
        <time>2019-08-09T19:02:49Z</time>
      </trkpt>
      <trkpt lat="47.90121" lon="7.23684">
        <ele>264.3</ele>
        <time>2019-08-09T19:02:50Z</time>
      </trkpt>
      <trkpt lat="47.90118" lon="7.23683">
        <ele>264.4</ele>
        <time>2019-08-09T19:02:51Z</time>
      </trkpt>
      <trkpt lat="47.90115" lon="7.23682">
        <ele>264.4</ele>
        <time>2019-08-09T19:02:52Z</time>
      </trkpt>
      <trkpt lat="47.9011" lon="7.23682">
        <ele>264.5</ele>
        <time>2019-08-09T19:02:54Z</time>
      </trkpt>
      <trkpt lat="47.90105" lon="7.23682">
        <ele>264.6</ele>
        <time>2019-08-09T19:02:56Z</time>
      </trkpt>
      <trkpt lat="47.90099" lon="7.23681">
        <ele>264.8</ele>
        <time>2019-08-09T19:02:58Z</time>
      </trkpt>
      <trkpt lat="47.90096" lon="7.2368">
        <ele>264.9</ele>
        <time>2019-08-09T19:02:59Z</time>
      </trkpt>
      <trkpt lat="47.90093" lon="7.2368">
        <ele>264.9</ele>
        <time>2019-08-09T19:03:00Z</time>
      </trkpt>
      <trkpt lat="47.90089" lon="7.2368">
        <ele>265</ele>
        <time>2019-08-09T19:03:01Z</time>
      </trkpt>
      <trkpt lat="47.90086" lon="7.23679">
        <ele>265.1</ele>
        <time>2019-08-09T19:03:02Z</time>
      </trkpt>
      <trkpt lat="47.90083" lon="7.23678">
        <ele>265.2</ele>
        <time>2019-08-09T19:03:03Z</time>
      </trkpt>
      <trkpt lat="47.90081" lon="7.23677">
        <ele>265.2</ele>
        <time>2019-08-09T19:03:04Z</time>
      </trkpt>
      <trkpt lat="47.90077" lon="7.23675">
        <ele>265.3</ele>
        <time>2019-08-09T19:03:06Z</time>
      </trkpt>
      <trkpt lat="47.90072" lon="7.23673">
        <ele>265.5</ele>
        <time>2019-08-09T19:03:08Z</time>
      </trkpt>
      <trkpt lat="47.90067" lon="7.23672">
        <ele>265.6</ele>
        <time>2019-08-09T19:03:10Z</time>
      </trkpt>
      <trkpt lat="47.90064" lon="7.23672">
        <ele>265.7</ele>
        <time>2019-08-09T19:03:11Z</time>
      </trkpt>
      <trkpt lat="47.90061" lon="7.23672">
        <ele>265.7</ele>
        <time>2019-08-09T19:03:12Z</time>
      </trkpt>
      <trkpt lat="47.90057" lon="7.23673">
        <ele>265.8</ele>
        <time>2019-08-09T19:03:13Z</time>
      </trkpt>
      <trkpt lat="47.90052" lon="7.23677">
        <ele>265.9</ele>
        <time>2019-08-09T19:03:14Z</time>
      </trkpt>
      <trkpt lat="47.90048" lon="7.23679">
        <ele>266</ele>
        <time>2019-08-09T19:03:15Z</time>
      </trkpt>
      <trkpt lat="47.90044" lon="7.2368">
        <ele>266.1</ele>
        <time>2019-08-09T19:03:16Z</time>
      </trkpt>
      <trkpt lat="47.90041" lon="7.23682">
        <ele>266.2</ele>
        <time>2019-08-09T19:03:17Z</time>
      </trkpt>
      <trkpt lat="47.90038" lon="7.23685">
        <ele>266.3</ele>
        <time>2019-08-09T19:03:18Z</time>
      </trkpt>
      <trkpt lat="47.90034" lon="7.23688">
        <ele>266.5</ele>
        <time>2019-08-09T19:03:20Z</time>
      </trkpt>
      <trkpt lat="47.90031" lon="7.23689">
        <ele>266.6</ele>
        <time>2019-08-09T19:03:21Z</time>
      </trkpt>
      <trkpt lat="47.90028" lon="7.23689">
        <ele>266.6</ele>
        <time>2019-08-09T19:03:22Z</time>
      </trkpt>
      <trkpt lat="47.90025" lon="7.2369">
        <ele>266.7</ele>
        <time>2019-08-09T19:03:23Z</time>
      </trkpt>
      <trkpt lat="47.90022" lon="7.23692">
        <ele>266.8</ele>
        <time>2019-08-09T19:03:24Z</time>
      </trkpt>
      <trkpt lat="47.90018" lon="7.23694">
        <ele>266.9</ele>
        <time>2019-08-09T19:03:25Z</time>
      </trkpt>
      <trkpt lat="47.90015" lon="7.23695">
        <ele>267</ele>
        <time>2019-08-09T19:03:26Z</time>
      </trkpt>
      <trkpt lat="47.90014" lon="7.23691">
        <ele>267.1</ele>
        <time>2019-08-09T19:03:28Z</time>
      </trkpt>
      <trkpt lat="47.90013" lon="7.23687">
        <ele>267</ele>
        <time>2019-08-09T19:03:31Z</time>
      </trkpt>
      <trkpt lat="47.90012" lon="7.23682">
        <ele>267</ele>
        <time>2019-08-09T19:03:34Z</time>
      </trkpt>
      <trkpt lat="47.90011" lon="7.23677">
        <ele>267</ele>
        <time>2019-08-09T19:03:36Z</time>
      </trkpt>
      <trkpt lat="47.90009" lon="7.23673">
        <ele>267</ele>
        <time>2019-08-09T19:03:39Z</time>
      </trkpt>
      <trkpt lat="47.90009" lon="7.23667">
        <ele>267</ele>
        <time>2019-08-09T19:03:43Z</time>
      </trkpt>
      <trkpt lat="47.9001" lon="7.23663">
        <ele>267</ele>
        <time>2019-08-09T19:04:54Z</time>
      </trkpt>
      <trkpt lat="47.90009" lon="7.23658">
        <ele>267</ele>
        <time>2019-08-09T19:04:56Z</time>
      </trkpt>
      <trkpt lat="47.90008" lon="7.23653">
        <ele>267</ele>
        <time>2019-08-09T19:04:58Z</time>
      </trkpt>
      <trkpt lat="47.90007" lon="7.23646">
        <ele>267</ele>
        <time>2019-08-09T19:05:00Z</time>
      </trkpt>
      <trkpt lat="47.90006" lon="7.23642">
        <ele>267</ele>
        <time>2019-08-09T19:05:01Z</time>
      </trkpt>
      <trkpt lat="47.90006" lon="7.23637">
        <ele>267</ele>
        <time>2019-08-09T19:05:02Z</time>
      </trkpt>
      <trkpt lat="47.90006" lon="7.23632">
        <ele>267</ele>
        <time>2019-08-09T19:05:03Z</time>
      </trkpt>
      <trkpt lat="47.90007" lon="7.23624">
        <ele>267</ele>
        <time>2019-08-09T19:05:05Z</time>
      </trkpt>
      <trkpt lat="47.90006" lon="7.2362">
        <ele>267</ele>
        <time>2019-08-09T19:05:06Z</time>
      </trkpt>
      <trkpt lat="47.90006" lon="7.23615">
        <ele>267</ele>
        <time>2019-08-09T19:05:07Z</time>
      </trkpt>
      <trkpt lat="47.90005" lon="7.23608">
        <ele>267.1</ele>
        <time>2019-08-09T19:05:09Z</time>
      </trkpt>
      <trkpt lat="47.90005" lon="7.23604">
        <ele>267.1</ele>
        <time>2019-08-09T19:05:10Z</time>
      </trkpt>
      <trkpt lat="47.90005" lon="7.23599">
        <ele>267.1</ele>
        <time>2019-08-09T19:05:11Z</time>
      </trkpt>
      <trkpt lat="47.90004" lon="7.23595">
        <ele>267.2</ele>
        <time>2019-08-09T19:05:12Z</time>
      </trkpt>
      <trkpt lat="47.90004" lon="7.2359">
        <ele>267.2</ele>
        <time>2019-08-09T19:05:13Z</time>
      </trkpt>
      <trkpt lat="47.90005" lon="7.23583">
        <ele>267.3</ele>
        <time>2019-08-09T19:05:15Z</time>
      </trkpt>
      <trkpt lat="47.90004" lon="7.23578">
        <ele>267.3</ele>
        <time>2019-08-09T19:05:16Z</time>
      </trkpt>
      <trkpt lat="47.90004" lon="7.23573">
        <ele>267.4</ele>
        <time>2019-08-09T19:05:17Z</time>
      </trkpt>
      <trkpt lat="47.90003" lon="7.23568">
        <ele>267.4</ele>
        <time>2019-08-09T19:05:18Z</time>
      </trkpt>
      <trkpt lat="47.90002" lon="7.23561">
        <ele>267.4</ele>
        <time>2019-08-09T19:05:20Z</time>
      </trkpt>
      <trkpt lat="47.90002" lon="7.23556">
        <ele>267.5</ele>
        <time>2019-08-09T19:05:21Z</time>
      </trkpt>
      <trkpt lat="47.90002" lon="7.23551">
        <ele>267.5</ele>
        <time>2019-08-09T19:05:22Z</time>
      </trkpt>
      <trkpt lat="47.90002" lon="7.23546">
        <ele>267.5</ele>
        <time>2019-08-09T19:05:23Z</time>
      </trkpt>
      <trkpt lat="47.90001" lon="7.23542">
        <ele>267.5</ele>
        <time>2019-08-09T19:05:24Z</time>
      </trkpt>
      <trkpt lat="47.90001" lon="7.23538">
        <ele>267.5</ele>
        <time>2019-08-09T19:05:25Z</time>
      </trkpt>
      <trkpt lat="47.90001" lon="7.23529">
        <ele>267.4</ele>
        <time>2019-08-09T19:05:27Z</time>
      </trkpt>
      <trkpt lat="47.9" lon="7.23524">
        <ele>267.4</ele>
        <time>2019-08-09T19:05:28Z</time>
      </trkpt>
      <trkpt lat="47.89999" lon="7.23519">
        <ele>267.4</ele>
        <time>2019-08-09T19:05:29Z</time>
      </trkpt>
      <trkpt lat="47.89999" lon="7.23515">
        <ele>267.3</ele>
        <time>2019-08-09T19:05:30Z</time>
      </trkpt>
      <trkpt lat="47.89999" lon="7.2351">
        <ele>267.3</ele>
        <time>2019-08-09T19:05:31Z</time>
      </trkpt>
      <trkpt lat="47.89998" lon="7.23506">
        <ele>267.2</ele>
        <time>2019-08-09T19:05:32Z</time>
      </trkpt>
      <trkpt lat="47.89998" lon="7.23501">
        <ele>267.2</ele>
        <time>2019-08-09T19:05:33Z</time>
      </trkpt>
      <trkpt lat="47.89997" lon="7.23496">
        <ele>267.1</ele>
        <time>2019-08-09T19:05:34Z</time>
      </trkpt>
      <trkpt lat="47.89996" lon="7.23491">
        <ele>267.1</ele>
        <time>2019-08-09T19:05:35Z</time>
      </trkpt>
      <trkpt lat="47.89996" lon="7.23485">
        <ele>267</ele>
        <time>2019-08-09T19:05:36Z</time>
      </trkpt>
      <trkpt lat="47.89996" lon="7.23479">
        <ele>267</ele>
        <time>2019-08-09T19:05:37Z</time>
      </trkpt>
      <trkpt lat="47.89996" lon="7.23474">
        <ele>267</ele>
        <time>2019-08-09T19:05:38Z</time>
      </trkpt>
      <trkpt lat="47.89995" lon="7.23468">
        <ele>266.9</ele>
        <time>2019-08-09T19:05:39Z</time>
      </trkpt>
      <trkpt lat="47.89994" lon="7.23462">
        <ele>266.9</ele>
        <time>2019-08-09T19:05:40Z</time>
      </trkpt>
      <trkpt lat="47.89993" lon="7.23457">
        <ele>266.9</ele>
        <time>2019-08-09T19:05:41Z</time>
      </trkpt>
      <trkpt lat="47.89992" lon="7.23452">
        <ele>266.9</ele>
        <time>2019-08-09T19:05:42Z</time>
      </trkpt>
      <trkpt lat="47.89992" lon="7.23447">
        <ele>266.9</ele>
        <time>2019-08-09T19:05:43Z</time>
      </trkpt>
      <trkpt lat="47.89991" lon="7.23442">
        <ele>266.9</ele>
        <time>2019-08-09T19:05:44Z</time>
      </trkpt>
      <trkpt lat="47.89991" lon="7.23436">
        <ele>267</ele>
        <time>2019-08-09T19:05:45Z</time>
      </trkpt>
      <trkpt lat="47.89991" lon="7.23431">
        <ele>267</ele>
        <time>2019-08-09T19:05:46Z</time>
      </trkpt>
      <trkpt lat="47.89991" lon="7.23426">
        <ele>267</ele>
        <time>2019-08-09T19:05:47Z</time>
      </trkpt>
      <trkpt lat="47.8999" lon="7.23418">
        <ele>267.1</ele>
        <time>2019-08-09T19:05:49Z</time>
      </trkpt>
      <trkpt lat="47.89989" lon="7.23414">
        <ele>267.1</ele>
        <time>2019-08-09T19:05:50Z</time>
      </trkpt>
      <trkpt lat="47.89989" lon="7.23409">
        <ele>267.2</ele>
        <time>2019-08-09T19:05:51Z</time>
      </trkpt>
      <trkpt lat="47.89988" lon="7.23404">
        <ele>267.2</ele>
        <time>2019-08-09T19:05:52Z</time>
      </trkpt>
      <trkpt lat="47.89987" lon="7.23399">
        <ele>267.3</ele>
        <time>2019-08-09T19:05:53Z</time>
      </trkpt>
      <trkpt lat="47.89986" lon="7.23395">
        <ele>267.3</ele>
        <time>2019-08-09T19:05:54Z</time>
      </trkpt>
      <trkpt lat="47.89985" lon="7.2339">
        <ele>267.4</ele>
        <time>2019-08-09T19:05:55Z</time>
      </trkpt>
      <trkpt lat="47.89984" lon="7.23386">
        <ele>267.4</ele>
        <time>2019-08-09T19:05:56Z</time>
      </trkpt>
      <trkpt lat="47.89982" lon="7.23382">
        <ele>267.5</ele>
        <time>2019-08-09T19:05:57Z</time>
      </trkpt>
      <trkpt lat="47.8998" lon="7.23377">
        <ele>267.5</ele>
        <time>2019-08-09T19:05:58Z</time>
      </trkpt>
      <trkpt lat="47.89979" lon="7.23373">
        <ele>267.5</ele>
        <time>2019-08-09T19:05:59Z</time>
      </trkpt>
      <trkpt lat="47.89978" lon="7.23368">
        <ele>267.6</ele>
        <time>2019-08-09T19:06:00Z</time>
      </trkpt>
      <trkpt lat="47.89978" lon="7.23363">
        <ele>267.6</ele>
        <time>2019-08-09T19:06:01Z</time>
      </trkpt>
      <trkpt lat="47.89977" lon="7.23359">
        <ele>267.6</ele>
        <time>2019-08-09T19:06:02Z</time>
      </trkpt>
      <trkpt lat="47.89977" lon="7.23355">
        <ele>267.6</ele>
        <time>2019-08-09T19:06:03Z</time>
      </trkpt>
      <trkpt lat="47.89976" lon="7.2335">
        <ele>267.6</ele>
        <time>2019-08-09T19:06:04Z</time>
      </trkpt>
      <trkpt lat="47.89975" lon="7.23345">
        <ele>267.6</ele>
        <time>2019-08-09T19:06:06Z</time>
      </trkpt>
      <trkpt lat="47.89974" lon="7.2334">
        <ele>267.6</ele>
        <time>2019-08-09T19:06:10Z</time>
      </trkpt>
      <trkpt lat="47.89973" lon="7.23335">
        <ele>267.6</ele>
        <time>2019-08-09T19:06:19Z</time>
      </trkpt>
      <trkpt lat="47.89972" lon="7.23331">
        <ele>267.5</ele>
        <time>2019-08-09T19:06:21Z</time>
      </trkpt>
      <trkpt lat="47.89968" lon="7.23328">
        <ele>267.5</ele>
        <time>2019-08-09T19:06:23Z</time>
      </trkpt>
      <trkpt lat="47.89964" lon="7.23328">
        <ele>267.5</ele>
        <time>2019-08-09T19:06:25Z</time>
      </trkpt>
      <trkpt lat="47.89962" lon="7.23327">
        <ele>267.5</ele>
        <time>2019-08-09T19:06:26Z</time>
      </trkpt>
      <trkpt lat="47.89959" lon="7.23326">
        <ele>267.5</ele>
        <time>2019-08-09T19:06:27Z</time>
      </trkpt>
      <trkpt lat="47.89956" lon="7.23324">
        <ele>267.4</ele>
        <time>2019-08-09T19:06:28Z</time>
      </trkpt>
      <trkpt lat="47.89953" lon="7.23323">
        <ele>267.4</ele>
        <time>2019-08-09T19:06:29Z</time>
      </trkpt>
      <trkpt lat="47.8995" lon="7.2332">
        <ele>267.4</ele>
        <time>2019-08-09T19:06:30Z</time>
      </trkpt>
      <trkpt lat="47.89947" lon="7.23316">
        <ele>267.4</ele>
        <time>2019-08-09T19:06:31Z</time>
      </trkpt>
      <trkpt lat="47.89943" lon="7.23314">
        <ele>267.4</ele>
        <time>2019-08-09T19:06:32Z</time>
      </trkpt>
      <trkpt lat="47.89939" lon="7.23313">
        <ele>267.4</ele>
        <time>2019-08-09T19:06:33Z</time>
      </trkpt>
      <trkpt lat="47.89936" lon="7.23311">
        <ele>267.4</ele>
        <time>2019-08-09T19:06:34Z</time>
      </trkpt>
      <trkpt lat="47.89932" lon="7.23309">
        <ele>267.4</ele>
        <time>2019-08-09T19:06:35Z</time>
      </trkpt>
      <trkpt lat="47.89929" lon="7.23306">
        <ele>267.4</ele>
        <time>2019-08-09T19:06:36Z</time>
      </trkpt>
      <trkpt lat="47.89927" lon="7.23304">
        <ele>267.4</ele>
        <time>2019-08-09T19:06:37Z</time>
      </trkpt>
      <trkpt lat="47.89923" lon="7.23301">
        <ele>267.4</ele>
        <time>2019-08-09T19:06:38Z</time>
      </trkpt>
      <trkpt lat="47.89921" lon="7.23298">
        <ele>267.4</ele>
        <time>2019-08-09T19:06:39Z</time>
      </trkpt>
      <trkpt lat="47.89918" lon="7.23296">
        <ele>267.4</ele>
        <time>2019-08-09T19:06:40Z</time>
      </trkpt>
      <trkpt lat="47.89915" lon="7.23293">
        <ele>267.5</ele>
        <time>2019-08-09T19:06:41Z</time>
      </trkpt>
      <trkpt lat="47.89912" lon="7.23291">
        <ele>267.5</ele>
        <time>2019-08-09T19:06:42Z</time>
      </trkpt>
      <trkpt lat="47.89909" lon="7.23289">
        <ele>267.5</ele>
        <time>2019-08-09T19:06:43Z</time>
      </trkpt>
      <trkpt lat="47.89906" lon="7.23287">
        <ele>267.6</ele>
        <time>2019-08-09T19:06:44Z</time>
      </trkpt>
      <trkpt lat="47.89902" lon="7.23282">
        <ele>267.6</ele>
        <time>2019-08-09T19:06:46Z</time>
      </trkpt>
      <trkpt lat="47.89899" lon="7.23278">
        <ele>267.7</ele>
        <time>2019-08-09T19:06:48Z</time>
      </trkpt>
      <trkpt lat="47.89899" lon="7.23272">
        <ele>267.7</ele>
        <time>2019-08-09T19:06:56Z</time>
      </trkpt>
      <trkpt lat="47.89901" lon="7.23266">
        <ele>267.7</ele>
        <time>2019-08-09T19:06:58Z</time>
      </trkpt>
      <trkpt lat="47.89901" lon="7.2326">
        <ele>267.6</ele>
        <time>2019-08-09T19:07:00Z</time>
      </trkpt>
      <trkpt lat="47.89902" lon="7.23256">
        <ele>267.6</ele>
        <time>2019-08-09T19:07:01Z</time>
      </trkpt>
      <trkpt lat="47.89904" lon="7.23249">
        <ele>267.7</ele>
        <time>2019-08-09T19:07:03Z</time>
      </trkpt>
      <trkpt lat="47.89907" lon="7.23243">
        <ele>267.8</ele>
        <time>2019-08-09T19:07:05Z</time>
      </trkpt>
      <trkpt lat="47.8991" lon="7.23236">
        <ele>267.9</ele>
        <time>2019-08-09T19:07:07Z</time>
      </trkpt>
      <trkpt lat="47.89912" lon="7.23233">
        <ele>267.9</ele>
        <time>2019-08-09T19:07:08Z</time>
      </trkpt>
      <trkpt lat="47.89914" lon="7.23229">
        <ele>268</ele>
        <time>2019-08-09T19:07:09Z</time>
      </trkpt>
      <trkpt lat="47.89915" lon="7.23224">
        <ele>268</ele>
        <time>2019-08-09T19:07:10Z</time>
      </trkpt>
      <trkpt lat="47.89916" lon="7.2322">
        <ele>268.1</ele>
        <time>2019-08-09T19:07:13Z</time>
      </trkpt>
      <trkpt lat="47.89911" lon="7.2322">
        <ele>268.2</ele>
        <time>2019-08-09T19:07:32Z</time>
      </trkpt>
      <trkpt lat="47.89908" lon="7.2323">
        <ele>268.3</ele>
        <time>2019-08-09T19:07:34Z</time>
      </trkpt>
      <trkpt lat="47.89906" lon="7.23235">
        <ele>268.4</ele>
        <time>2019-08-09T19:07:35Z</time>
      </trkpt>
      <trkpt lat="47.89905" lon="7.23238">
        <ele>268.4</ele>
        <time>2019-08-09T19:07:36Z</time>
      </trkpt>
      <trkpt lat="47.89903" lon="7.23242">
        <ele>268.5</ele>
        <time>2019-08-09T19:07:38Z</time>
      </trkpt>
      <trkpt lat="47.89901" lon="7.23246">
        <ele>268.5</ele>
        <time>2019-08-09T19:07:40Z</time>
      </trkpt>
      <trkpt lat="47.89904" lon="7.23245">
        <ele>268.5</ele>
        <time>2019-08-09T19:08:52Z</time>
      </trkpt>
      <trkpt lat="47.89906" lon="7.23241">
        <ele>268.6</ele>
        <time>2019-08-09T19:08:54Z</time>
      </trkpt>
      <trkpt lat="47.89909" lon="7.23234">
        <ele>268.7</ele>
        <time>2019-08-09T19:08:56Z</time>
      </trkpt>
      <trkpt lat="47.8991" lon="7.23231">
        <ele>268.7</ele>
        <time>2019-08-09T19:08:57Z</time>
      </trkpt>
      <trkpt lat="47.89912" lon="7.23227">
        <ele>268.7</ele>
        <time>2019-08-09T19:08:58Z</time>
      </trkpt>
      <trkpt lat="47.89914" lon="7.23223">
        <ele>268.8</ele>
        <time>2019-08-09T19:08:59Z</time>
      </trkpt>
      <trkpt lat="47.89916" lon="7.23219">
        <ele>268.8</ele>
        <time>2019-08-09T19:09:00Z</time>
      </trkpt>
      <trkpt lat="47.89918" lon="7.23214">
        <ele>268.8</ele>
        <time>2019-08-09T19:09:01Z</time>
      </trkpt>
      <trkpt lat="47.8992" lon="7.23208">
        <ele>268.8</ele>
        <time>2019-08-09T19:09:02Z</time>
      </trkpt>
      <trkpt lat="47.89922" lon="7.23202">
        <ele>268.8</ele>
        <time>2019-08-09T19:09:03Z</time>
      </trkpt>
      <trkpt lat="47.89923" lon="7.23196">
        <ele>268.8</ele>
        <time>2019-08-09T19:09:04Z</time>
      </trkpt>
      <trkpt lat="47.89925" lon="7.23191">
        <ele>268.8</ele>
        <time>2019-08-09T19:09:05Z</time>
      </trkpt>
      <trkpt lat="47.89927" lon="7.23186">
        <ele>268.8</ele>
        <time>2019-08-09T19:09:06Z</time>
      </trkpt>
      <trkpt lat="47.89929" lon="7.2318">
        <ele>268.9</ele>
        <time>2019-08-09T19:09:07Z</time>
      </trkpt>
      <trkpt lat="47.89931" lon="7.23175">
        <ele>268.9</ele>
        <time>2019-08-09T19:09:08Z</time>
      </trkpt>
      <trkpt lat="47.89932" lon="7.23171">
        <ele>268.9</ele>
        <time>2019-08-09T19:09:09Z</time>
      </trkpt>
      <trkpt lat="47.89934" lon="7.23166">
        <ele>268.9</ele>
        <time>2019-08-09T19:09:10Z</time>
      </trkpt>
      <trkpt lat="47.89936" lon="7.23162">
        <ele>268.9</ele>
        <time>2019-08-09T19:09:11Z</time>
      </trkpt>
      <trkpt lat="47.89937" lon="7.23158">
        <ele>269</ele>
        <time>2019-08-09T19:09:12Z</time>
      </trkpt>
      <trkpt lat="47.8994" lon="7.23151">
        <ele>269</ele>
        <time>2019-08-09T19:09:14Z</time>
      </trkpt>
      <trkpt lat="47.89941" lon="7.23148">
        <ele>269</ele>
        <time>2019-08-09T19:09:15Z</time>
      </trkpt>
      <trkpt lat="47.89945" lon="7.23139">
        <ele>269</ele>
        <time>2019-08-09T19:09:17Z</time>
      </trkpt>
      <trkpt lat="47.89946" lon="7.23135">
        <ele>269.1</ele>
        <time>2019-08-09T19:09:18Z</time>
      </trkpt>
      <trkpt lat="47.89947" lon="7.23132">
        <ele>269.1</ele>
        <time>2019-08-09T19:09:19Z</time>
      </trkpt>
      <trkpt lat="47.89948" lon="7.23128">
        <ele>269.1</ele>
        <time>2019-08-09T19:09:20Z</time>
      </trkpt>
      <trkpt lat="47.8995" lon="7.23125">
        <ele>269.1</ele>
        <time>2019-08-09T19:09:21Z</time>
      </trkpt>
      <trkpt lat="47.89951" lon="7.2312">
        <ele>269.1</ele>
        <time>2019-08-09T19:09:23Z</time>
      </trkpt>
      <trkpt lat="47.89954" lon="7.23114">
        <ele>269.1</ele>
        <time>2019-08-09T19:09:25Z</time>
      </trkpt>
      <trkpt lat="47.89956" lon="7.23107">
        <ele>269.1</ele>
        <time>2019-08-09T19:09:27Z</time>
      </trkpt>
      <trkpt lat="47.89957" lon="7.23104">
        <ele>269.1</ele>
        <time>2019-08-09T19:09:28Z</time>
      </trkpt>
      <trkpt lat="47.89958" lon="7.23098">
        <ele>269.1</ele>
        <time>2019-08-09T19:09:30Z</time>
      </trkpt>
      <trkpt lat="47.89963" lon="7.23096">
        <ele>269.2</ele>
        <time>2019-08-09T19:09:33Z</time>
      </trkpt>
      <trkpt lat="47.89966" lon="7.23093">
        <ele>269.3</ele>
        <time>2019-08-09T19:09:34Z</time>
      </trkpt>
      <trkpt lat="47.89968" lon="7.23089">
        <ele>269.4</ele>
        <time>2019-08-09T19:09:35Z</time>
      </trkpt>
      <trkpt lat="47.89969" lon="7.23084">
        <ele>269.4</ele>
        <time>2019-08-09T19:09:36Z</time>
      </trkpt>
      <trkpt lat="47.89971" lon="7.2308">
        <ele>269.4</ele>
        <time>2019-08-09T19:09:37Z</time>
      </trkpt>
      <trkpt lat="47.89972" lon="7.23076">
        <ele>269.4</ele>
        <time>2019-08-09T19:09:38Z</time>
      </trkpt>
      <trkpt lat="47.89974" lon="7.23071">
        <ele>269.4</ele>
        <time>2019-08-09T19:09:39Z</time>
      </trkpt>
      <trkpt lat="47.89975" lon="7.23066">
        <ele>269.4</ele>
        <time>2019-08-09T19:09:40Z</time>
      </trkpt>
      <trkpt lat="47.89976" lon="7.23063">
        <ele>269.4</ele>
        <time>2019-08-09T19:09:41Z</time>
      </trkpt>
      <trkpt lat="47.89979" lon="7.23057">
        <ele>269.4</ele>
        <time>2019-08-09T19:09:43Z</time>
      </trkpt>
      <trkpt lat="47.8998" lon="7.2305">
        <ele>269.5</ele>
        <time>2019-08-09T19:09:45Z</time>
      </trkpt>
      <trkpt lat="47.89981" lon="7.23046">
        <ele>269.5</ele>
        <time>2019-08-09T19:09:46Z</time>
      </trkpt>
      <trkpt lat="47.89983" lon="7.23042">
        <ele>269.5</ele>
        <time>2019-08-09T19:09:47Z</time>
      </trkpt>
      <trkpt lat="47.89983" lon="7.23038">
        <ele>269.5</ele>
        <time>2019-08-09T19:09:48Z</time>
      </trkpt>
      <trkpt lat="47.89984" lon="7.23032">
        <ele>269.5</ele>
        <time>2019-08-09T19:09:49Z</time>
      </trkpt>
      <trkpt lat="47.89985" lon="7.23028">
        <ele>269.5</ele>
        <time>2019-08-09T19:09:50Z</time>
      </trkpt>
      <trkpt lat="47.89986" lon="7.23023">
        <ele>269.5</ele>
        <time>2019-08-09T19:09:51Z</time>
      </trkpt>
      <trkpt lat="47.89987" lon="7.23018">
        <ele>269.5</ele>
        <time>2019-08-09T19:09:52Z</time>
      </trkpt>
      <trkpt lat="47.89989" lon="7.23014">
        <ele>269.6</ele>
        <time>2019-08-09T19:09:53Z</time>
      </trkpt>
      <trkpt lat="47.89991" lon="7.23009">
        <ele>269.6</ele>
        <time>2019-08-09T19:09:54Z</time>
      </trkpt>
      <trkpt lat="47.89992" lon="7.23005">
        <ele>269.6</ele>
        <time>2019-08-09T19:09:55Z</time>
      </trkpt>
      <trkpt lat="47.89993" lon="7.23001">
        <ele>269.6</ele>
        <time>2019-08-09T19:09:56Z</time>
      </trkpt>
      <trkpt lat="47.89996" lon="7.22997">
        <ele>269.6</ele>
        <time>2019-08-09T19:09:57Z</time>
      </trkpt>
      <trkpt lat="47.89997" lon="7.22992">
        <ele>269.7</ele>
        <time>2019-08-09T19:09:58Z</time>
      </trkpt>
      <trkpt lat="47.89998" lon="7.22988">
        <ele>269.7</ele>
        <time>2019-08-09T19:09:59Z</time>
      </trkpt>
      <trkpt lat="47.90001" lon="7.22981">
        <ele>269.7</ele>
        <time>2019-08-09T19:10:01Z</time>
      </trkpt>
      <trkpt lat="47.90002" lon="7.22977">
        <ele>269.7</ele>
        <time>2019-08-09T19:10:02Z</time>
      </trkpt>
      <trkpt lat="47.90003" lon="7.22972">
        <ele>269.7</ele>
        <time>2019-08-09T19:10:03Z</time>
      </trkpt>
      <trkpt lat="47.90003" lon="7.22967">
        <ele>269.7</ele>
        <time>2019-08-09T19:10:04Z</time>
      </trkpt>
      <trkpt lat="47.90003" lon="7.22961">
        <ele>269.7</ele>
        <time>2019-08-09T19:10:05Z</time>
      </trkpt>
      <trkpt lat="47.90006" lon="7.22956">
        <ele>269.7</ele>
        <time>2019-08-09T19:10:06Z</time>
      </trkpt>
      <trkpt lat="47.90007" lon="7.2295">
        <ele>269.7</ele>
        <time>2019-08-09T19:10:07Z</time>
      </trkpt>
      <trkpt lat="47.90009" lon="7.22946">
        <ele>269.6</ele>
        <time>2019-08-09T19:10:08Z</time>
      </trkpt>
      <trkpt lat="47.90011" lon="7.22941">
        <ele>269.6</ele>
        <time>2019-08-09T19:10:09Z</time>
      </trkpt>
      <trkpt lat="47.90012" lon="7.22936">
        <ele>269.6</ele>
        <time>2019-08-09T19:10:10Z</time>
      </trkpt>
      <trkpt lat="47.90015" lon="7.22931">
        <ele>269.6</ele>
        <time>2019-08-09T19:10:11Z</time>
      </trkpt>
      <trkpt lat="47.90016" lon="7.22925">
        <ele>269.6</ele>
        <time>2019-08-09T19:10:12Z</time>
      </trkpt>
      <trkpt lat="47.90018" lon="7.2292">
        <ele>269.6</ele>
        <time>2019-08-09T19:10:13Z</time>
      </trkpt>
      <trkpt lat="47.90019" lon="7.22916">
        <ele>269.6</ele>
        <time>2019-08-09T19:10:14Z</time>
      </trkpt>
      <trkpt lat="47.90021" lon="7.22911">
        <ele>269.6</ele>
        <time>2019-08-09T19:10:15Z</time>
      </trkpt>
      <trkpt lat="47.90022" lon="7.22906">
        <ele>269.6</ele>
        <time>2019-08-09T19:10:16Z</time>
      </trkpt>
      <trkpt lat="47.90023" lon="7.22901">
        <ele>269.7</ele>
        <time>2019-08-09T19:10:17Z</time>
      </trkpt>
      <trkpt lat="47.90025" lon="7.22896">
        <ele>269.7</ele>
        <time>2019-08-09T19:10:18Z</time>
      </trkpt>
      <trkpt lat="47.90026" lon="7.22891">
        <ele>269.7</ele>
        <time>2019-08-09T19:10:19Z</time>
      </trkpt>
      <trkpt lat="47.90027" lon="7.22886">
        <ele>269.8</ele>
        <time>2019-08-09T19:10:20Z</time>
      </trkpt>
      <trkpt lat="47.90029" lon="7.22883">
        <ele>269.8</ele>
        <time>2019-08-09T19:10:21Z</time>
      </trkpt>
      <trkpt lat="47.90031" lon="7.22879">
        <ele>269.8</ele>
        <time>2019-08-09T19:10:22Z</time>
      </trkpt>
      <trkpt lat="47.90033" lon="7.22875">
        <ele>269.9</ele>
        <time>2019-08-09T19:10:23Z</time>
      </trkpt>
      <trkpt lat="47.90034" lon="7.22871">
        <ele>269.9</ele>
        <time>2019-08-09T19:10:24Z</time>
      </trkpt>
      <trkpt lat="47.90035" lon="7.22867">
        <ele>269.9</ele>
        <time>2019-08-09T19:10:25Z</time>
      </trkpt>
      <trkpt lat="47.90036" lon="7.22863">
        <ele>269.9</ele>
        <time>2019-08-09T19:10:26Z</time>
      </trkpt>
      <trkpt lat="47.90037" lon="7.22858">
        <ele>270</ele>
        <time>2019-08-09T19:10:27Z</time>
      </trkpt>
      <trkpt lat="47.90037" lon="7.22853">
        <ele>270</ele>
        <time>2019-08-09T19:10:28Z</time>
      </trkpt>
      <trkpt lat="47.90039" lon="7.22849">
        <ele>270</ele>
        <time>2019-08-09T19:10:29Z</time>
      </trkpt>
      <trkpt lat="47.90039" lon="7.22844">
        <ele>270.2</ele>
        <time>2019-08-09T19:10:30Z</time>
      </trkpt>
      <trkpt lat="47.9004" lon="7.22838">
        <ele>270.3</ele>
        <time>2019-08-09T19:10:31Z</time>
      </trkpt>
      <trkpt lat="47.90041" lon="7.22833">
        <ele>270.4</ele>
        <time>2019-08-09T19:10:32Z</time>
      </trkpt>
      <trkpt lat="47.90042" lon="7.22829">
        <ele>270.5</ele>
        <time>2019-08-09T19:10:33Z</time>
      </trkpt>
      <trkpt lat="47.90042" lon="7.22824">
        <ele>270.6</ele>
        <time>2019-08-09T19:10:34Z</time>
      </trkpt>
      <trkpt lat="47.90043" lon="7.2282">
        <ele>270.6</ele>
        <time>2019-08-09T19:10:35Z</time>
      </trkpt>
      <trkpt lat="47.90043" lon="7.22813">
        <ele>270.8</ele>
        <time>2019-08-09T19:10:37Z</time>
      </trkpt>
      <trkpt lat="47.90044" lon="7.22809">
        <ele>270.8</ele>
        <time>2019-08-09T19:10:38Z</time>
      </trkpt>
      <trkpt lat="47.90043" lon="7.22803">
        <ele>270.9</ele>
        <time>2019-08-09T19:10:39Z</time>
      </trkpt>
      <trkpt lat="47.90044" lon="7.22799">
        <ele>271</ele>
        <time>2019-08-09T19:10:40Z</time>
      </trkpt>
      <trkpt lat="47.90045" lon="7.22795">
        <ele>271.1</ele>
        <time>2019-08-09T19:10:41Z</time>
      </trkpt>
      <trkpt lat="47.90046" lon="7.22791">
        <ele>271.1</ele>
        <time>2019-08-09T19:10:42Z</time>
      </trkpt>
      <trkpt lat="47.90047" lon="7.22787">
        <ele>271.2</ele>
        <time>2019-08-09T19:10:43Z</time>
      </trkpt>
      <trkpt lat="47.90048" lon="7.22782">
        <ele>271.3</ele>
        <time>2019-08-09T19:10:44Z</time>
      </trkpt>
      <trkpt lat="47.90049" lon="7.22777">
        <ele>271.3</ele>
        <time>2019-08-09T19:10:45Z</time>
      </trkpt>
      <trkpt lat="47.90051" lon="7.22772">
        <ele>271.4</ele>
        <time>2019-08-09T19:10:46Z</time>
      </trkpt>
      <trkpt lat="47.90053" lon="7.22768">
        <ele>271.5</ele>
        <time>2019-08-09T19:10:47Z</time>
      </trkpt>
      <trkpt lat="47.90054" lon="7.22764">
        <ele>271.6</ele>
        <time>2019-08-09T19:10:48Z</time>
      </trkpt>
      <trkpt lat="47.90056" lon="7.22758">
        <ele>271.7</ele>
        <time>2019-08-09T19:10:50Z</time>
      </trkpt>
      <trkpt lat="47.9006" lon="7.22754">
        <ele>271.7</ele>
        <time>2019-08-09T19:10:52Z</time>
      </trkpt>
      <trkpt lat="47.90063" lon="7.2275">
        <ele>271.8</ele>
        <time>2019-08-09T19:10:54Z</time>
      </trkpt>
      <trkpt lat="47.90063" lon="7.22746">
        <ele>271.9</ele>
        <time>2019-08-09T19:10:55Z</time>
      </trkpt>
      <trkpt lat="47.90059" lon="7.22752">
        <ele>272</ele>
        <time>2019-08-09T19:10:58Z</time>
      </trkpt>
      <trkpt lat="47.90057" lon="7.22756">
        <ele>272.1</ele>
        <time>2019-08-09T19:10:59Z</time>
      </trkpt>
      <trkpt lat="47.90056" lon="7.22761">
        <ele>272</ele>
        <time>2019-08-09T19:11:00Z</time>
      </trkpt>
      <trkpt lat="47.90053" lon="7.22767">
        <ele>271.9</ele>
        <time>2019-08-09T19:11:01Z</time>
      </trkpt>
      <trkpt lat="47.90051" lon="7.22771">
        <ele>271.8</ele>
        <time>2019-08-09T19:11:02Z</time>
      </trkpt>
      <trkpt lat="47.90049" lon="7.22778">
        <ele>271.6</ele>
        <time>2019-08-09T19:11:03Z</time>
      </trkpt>
      <trkpt lat="47.90047" lon="7.22784">
        <ele>271.5</ele>
        <time>2019-08-09T19:11:04Z</time>
      </trkpt>
      <trkpt lat="47.90044" lon="7.22789">
        <ele>271.4</ele>
        <time>2019-08-09T19:11:05Z</time>
      </trkpt>
      <trkpt lat="47.90043" lon="7.22794">
        <ele>271.3</ele>
        <time>2019-08-09T19:11:06Z</time>
      </trkpt>
      <trkpt lat="47.90041" lon="7.228">
        <ele>271.2</ele>
        <time>2019-08-09T19:11:07Z</time>
      </trkpt>
      <trkpt lat="47.90039" lon="7.22806">
        <ele>271</ele>
        <time>2019-08-09T19:11:08Z</time>
      </trkpt>
      <trkpt lat="47.90037" lon="7.22813">
        <ele>270.9</ele>
        <time>2019-08-09T19:11:09Z</time>
      </trkpt>
      <trkpt lat="47.90036" lon="7.2282">
        <ele>270.7</ele>
        <time>2019-08-09T19:11:10Z</time>
      </trkpt>
      <trkpt lat="47.90035" lon="7.22827">
        <ele>270.6</ele>
        <time>2019-08-09T19:11:11Z</time>
      </trkpt>
      <trkpt lat="47.90036" lon="7.22834">
        <ele>270.4</ele>
        <time>2019-08-09T19:11:12Z</time>
      </trkpt>
      <trkpt lat="47.90035" lon="7.22841">
        <ele>270.2</ele>
        <time>2019-08-09T19:11:13Z</time>
      </trkpt>
      <trkpt lat="47.90034" lon="7.22847">
        <ele>270</ele>
        <time>2019-08-09T19:11:14Z</time>
      </trkpt>
      <trkpt lat="47.90033" lon="7.22854">
        <ele>270</ele>
        <time>2019-08-09T19:11:15Z</time>
      </trkpt>
      <trkpt lat="47.90031" lon="7.22859">
        <ele>270</ele>
        <time>2019-08-09T19:11:16Z</time>
      </trkpt>
      <trkpt lat="47.9003" lon="7.22863">
        <ele>269.9</ele>
        <time>2019-08-09T19:11:18Z</time>
      </trkpt>
      <trkpt lat="47.90033" lon="7.22861">
        <ele>269.9</ele>
        <time>2019-08-09T19:11:21Z</time>
      </trkpt>
      <trkpt lat="47.90032" lon="7.22855">
        <ele>269.9</ele>
        <time>2019-08-09T19:13:25Z</time>
      </trkpt>
      <trkpt lat="47.9003" lon="7.22861">
        <ele>269.8</ele>
        <time>2019-08-09T19:13:29Z</time>
      </trkpt>
      <trkpt lat="47.90029" lon="7.22865">
        <ele>269.8</ele>
        <time>2019-08-09T19:13:30Z</time>
      </trkpt>
      <trkpt lat="47.90027" lon="7.2287">
        <ele>269.8</ele>
        <time>2019-08-09T19:13:31Z</time>
      </trkpt>
      <trkpt lat="47.90024" lon="7.22875">
        <ele>269.7</ele>
        <time>2019-08-09T19:13:32Z</time>
      </trkpt>
      <trkpt lat="47.90023" lon="7.2288">
        <ele>269.7</ele>
        <time>2019-08-09T19:13:33Z</time>
      </trkpt>
      <trkpt lat="47.90021" lon="7.22885">
        <ele>269.7</ele>
        <time>2019-08-09T19:13:34Z</time>
      </trkpt>
      <trkpt lat="47.90019" lon="7.2289">
        <ele>269.6</ele>
        <time>2019-08-09T19:13:35Z</time>
      </trkpt>
      <trkpt lat="47.90018" lon="7.22897">
        <ele>269.6</ele>
        <time>2019-08-09T19:13:36Z</time>
      </trkpt>
      <trkpt lat="47.90015" lon="7.22903">
        <ele>269.6</ele>
        <time>2019-08-09T19:13:37Z</time>
      </trkpt>
      <trkpt lat="47.90013" lon="7.2291">
        <ele>269.6</ele>
        <time>2019-08-09T19:13:38Z</time>
      </trkpt>
      <trkpt lat="47.9001" lon="7.22915">
        <ele>269.6</ele>
        <time>2019-08-09T19:13:39Z</time>
      </trkpt>
      <trkpt lat="47.90007" lon="7.22921">
        <ele>269.6</ele>
        <time>2019-08-09T19:13:40Z</time>
      </trkpt>
      <trkpt lat="47.90004" lon="7.22928">
        <ele>269.6</ele>
        <time>2019-08-09T19:13:41Z</time>
      </trkpt>
      <trkpt lat="47.90002" lon="7.22935">
        <ele>269.7</ele>
        <time>2019-08-09T19:13:42Z</time>
      </trkpt>
      <trkpt lat="47.9" lon="7.22941">
        <ele>269.7</ele>
        <time>2019-08-09T19:13:43Z</time>
      </trkpt>
      <trkpt lat="47.89999" lon="7.22948">
        <ele>269.7</ele>
        <time>2019-08-09T19:13:44Z</time>
      </trkpt>
      <trkpt lat="47.89997" lon="7.22956">
        <ele>269.7</ele>
        <time>2019-08-09T19:13:45Z</time>
      </trkpt>
      <trkpt lat="47.89995" lon="7.22963">
        <ele>269.7</ele>
        <time>2019-08-09T19:13:46Z</time>
      </trkpt>
      <trkpt lat="47.89993" lon="7.22971">
        <ele>269.7</ele>
        <time>2019-08-09T19:13:47Z</time>
      </trkpt>
      <trkpt lat="47.89991" lon="7.22979">
        <ele>269.7</ele>
        <time>2019-08-09T19:13:48Z</time>
      </trkpt>
      <trkpt lat="47.8999" lon="7.22986">
        <ele>269.6</ele>
        <time>2019-08-09T19:13:49Z</time>
      </trkpt>
      <trkpt lat="47.89989" lon="7.22993">
        <ele>269.6</ele>
        <time>2019-08-09T19:13:50Z</time>
      </trkpt>
      <trkpt lat="47.89988" lon="7.22999">
        <ele>269.6</ele>
        <time>2019-08-09T19:13:51Z</time>
      </trkpt>
      <trkpt lat="47.89987" lon="7.23006">
        <ele>269.6</ele>
        <time>2019-08-09T19:13:52Z</time>
      </trkpt>
      <trkpt lat="47.89986" lon="7.23015">
        <ele>269.5</ele>
        <time>2019-08-09T19:13:53Z</time>
      </trkpt>
      <trkpt lat="47.89985" lon="7.23024">
        <ele>269.5</ele>
        <time>2019-08-09T19:13:54Z</time>
      </trkpt>
      <trkpt lat="47.89984" lon="7.23033">
        <ele>269.5</ele>
        <time>2019-08-09T19:13:55Z</time>
      </trkpt>
      <trkpt lat="47.89982" lon="7.23041">
        <ele>269.5</ele>
        <time>2019-08-09T19:13:56Z</time>
      </trkpt>
      <trkpt lat="47.89979" lon="7.2305">
        <ele>269.5</ele>
        <time>2019-08-09T19:13:57Z</time>
      </trkpt>
      <trkpt lat="47.89976" lon="7.23058">
        <ele>269.4</ele>
        <time>2019-08-09T19:13:58Z</time>
      </trkpt>
      <trkpt lat="47.89973" lon="7.23064">
        <ele>269.4</ele>
        <time>2019-08-09T19:13:59Z</time>
      </trkpt>
      <trkpt lat="47.89971" lon="7.2307">
        <ele>269.4</ele>
        <time>2019-08-09T19:14:00Z</time>
      </trkpt>
      <trkpt lat="47.89969" lon="7.23076">
        <ele>269.5</ele>
        <time>2019-08-09T19:14:01Z</time>
      </trkpt>
      <trkpt lat="47.89968" lon="7.23081">
        <ele>269.4</ele>
        <time>2019-08-09T19:14:02Z</time>
      </trkpt>
      <trkpt lat="47.89968" lon="7.23085">
        <ele>269.4</ele>
        <time>2019-08-09T19:14:03Z</time>
      </trkpt>
      <trkpt lat="47.89966" lon="7.23089">
        <ele>269.4</ele>
        <time>2019-08-09T19:14:05Z</time>
      </trkpt>
      <trkpt lat="47.89969" lon="7.23085">
        <ele>269.4</ele>
        <time>2019-08-09T19:14:09Z</time>
      </trkpt>
      <trkpt lat="47.89971" lon="7.2309">
        <ele>269.4</ele>
        <time>2019-08-09T19:14:14Z</time>
      </trkpt>
      <trkpt lat="47.89973" lon="7.23095">
        <ele>269.4</ele>
        <time>2019-08-09T19:14:15Z</time>
      </trkpt>
      <trkpt lat="47.89976" lon="7.231">
        <ele>269.4</ele>
        <time>2019-08-09T19:14:16Z</time>
      </trkpt>
      <trkpt lat="47.89979" lon="7.23105">
        <ele>269.4</ele>
        <time>2019-08-09T19:14:17Z</time>
      </trkpt>
      <trkpt lat="47.89983" lon="7.23108">
        <ele>269.4</ele>
        <time>2019-08-09T19:14:18Z</time>
      </trkpt>
      <trkpt lat="47.89988" lon="7.23113">
        <ele>269.4</ele>
        <time>2019-08-09T19:14:20Z</time>
      </trkpt>
      <trkpt lat="47.89991" lon="7.23113">
        <ele>269.4</ele>
        <time>2019-08-09T19:14:21Z</time>
      </trkpt>
      <trkpt lat="47.89994" lon="7.23113">
        <ele>269.4</ele>
        <time>2019-08-09T19:14:22Z</time>
      </trkpt>
      <trkpt lat="47.89997" lon="7.23113">
        <ele>269.4</ele>
        <time>2019-08-09T19:14:23Z</time>
      </trkpt>
      <trkpt lat="47.9" lon="7.23113">
        <ele>269.4</ele>
        <time>2019-08-09T19:14:24Z</time>
      </trkpt>
      <trkpt lat="47.90003" lon="7.23108">
        <ele>269.4</ele>
        <time>2019-08-09T19:14:26Z</time>
      </trkpt>
      <trkpt lat="47.90003" lon="7.23103">
        <ele>269.2</ele>
        <time>2019-08-09T19:14:27Z</time>
      </trkpt>
      <trkpt lat="47.90002" lon="7.23097">
        <ele>269.1</ele>
        <time>2019-08-09T19:14:28Z</time>
      </trkpt>
      <trkpt lat="47.90002" lon="7.23092">
        <ele>268.9</ele>
        <time>2019-08-09T19:14:29Z</time>
      </trkpt>
      <trkpt lat="47.90003" lon="7.23087">
        <ele>268.8</ele>
        <time>2019-08-09T19:14:30Z</time>
      </trkpt>
      <trkpt lat="47.90003" lon="7.23081">
        <ele>268.7</ele>
        <time>2019-08-09T19:14:31Z</time>
      </trkpt>
      <trkpt lat="47.90004" lon="7.23075">
        <ele>268.6</ele>
        <time>2019-08-09T19:14:32Z</time>
      </trkpt>
      <trkpt lat="47.90004" lon="7.23069">
        <ele>268.5</ele>
        <time>2019-08-09T19:14:33Z</time>
      </trkpt>
      <trkpt lat="47.90005" lon="7.23064">
        <ele>268.5</ele>
        <time>2019-08-09T19:14:34Z</time>
      </trkpt>
      <trkpt lat="47.90005" lon="7.23058">
        <ele>268.4</ele>
        <time>2019-08-09T19:14:35Z</time>
      </trkpt>
      <trkpt lat="47.90005" lon="7.23052">
        <ele>268.3</ele>
        <time>2019-08-09T19:14:36Z</time>
      </trkpt>
      <trkpt lat="47.90006" lon="7.23048">
        <ele>268.3</ele>
        <time>2019-08-09T19:14:37Z</time>
      </trkpt>
      <trkpt lat="47.90006" lon="7.23042">
        <ele>268.2</ele>
        <time>2019-08-09T19:14:38Z</time>
      </trkpt>
      <trkpt lat="47.90006" lon="7.23035">
        <ele>268.1</ele>
        <time>2019-08-09T19:14:39Z</time>
      </trkpt>
      <trkpt lat="47.90007" lon="7.23029">
        <ele>268</ele>
        <time>2019-08-09T19:14:40Z</time>
      </trkpt>
      <trkpt lat="47.90009" lon="7.23025">
        <ele>267.9</ele>
        <time>2019-08-09T19:14:41Z</time>
      </trkpt>
      <trkpt lat="47.90011" lon="7.23019">
        <ele>267.9</ele>
        <time>2019-08-09T19:14:42Z</time>
      </trkpt>
      <trkpt lat="47.90012" lon="7.23014">
        <ele>267.9</ele>
        <time>2019-08-09T19:14:43Z</time>
      </trkpt>
      <trkpt lat="47.90014" lon="7.2301">
        <ele>267.9</ele>
        <time>2019-08-09T19:14:44Z</time>
      </trkpt>
      <trkpt lat="47.90015" lon="7.23003">
        <ele>267.9</ele>
        <time>2019-08-09T19:14:45Z</time>
      </trkpt>
      <trkpt lat="47.90017" lon="7.22998">
        <ele>267.9</ele>
        <time>2019-08-09T19:14:46Z</time>
      </trkpt>
      <trkpt lat="47.90019" lon="7.22994">
        <ele>267.9</ele>
        <time>2019-08-09T19:14:47Z</time>
      </trkpt>
      <trkpt lat="47.90021" lon="7.22989">
        <ele>268</ele>
        <time>2019-08-09T19:14:48Z</time>
      </trkpt>
      <trkpt lat="47.90022" lon="7.22982">
        <ele>268.1</ele>
        <time>2019-08-09T19:14:49Z</time>
      </trkpt>
      <trkpt lat="47.90023" lon="7.22978">
        <ele>268.2</ele>
        <time>2019-08-09T19:14:50Z</time>
      </trkpt>
      <trkpt lat="47.90025" lon="7.22974">
        <ele>268.2</ele>
        <time>2019-08-09T19:14:51Z</time>
      </trkpt>
      <trkpt lat="47.90027" lon="7.22969">
        <ele>268.4</ele>
        <time>2019-08-09T19:14:52Z</time>
      </trkpt>
      <trkpt lat="47.90028" lon="7.22964">
        <ele>268.5</ele>
        <time>2019-08-09T19:14:53Z</time>
      </trkpt>
      <trkpt lat="47.9003" lon="7.22959">
        <ele>268.7</ele>
        <time>2019-08-09T19:14:54Z</time>
      </trkpt>
      <trkpt lat="47.90032" lon="7.22954">
        <ele>268.9</ele>
        <time>2019-08-09T19:14:55Z</time>
      </trkpt>
      <trkpt lat="47.90034" lon="7.22949">
        <ele>269.1</ele>
        <time>2019-08-09T19:14:56Z</time>
      </trkpt>
      <trkpt lat="47.90036" lon="7.22942">
        <ele>269.3</ele>
        <time>2019-08-09T19:14:57Z</time>
      </trkpt>
      <trkpt lat="47.90038" lon="7.22935">
        <ele>269.4</ele>
        <time>2019-08-09T19:14:58Z</time>
      </trkpt>
      <trkpt lat="47.9004" lon="7.22928">
        <ele>269.6</ele>
        <time>2019-08-09T19:14:59Z</time>
      </trkpt>
      <trkpt lat="47.90042" lon="7.22924">
        <ele>269.7</ele>
        <time>2019-08-09T19:15:00Z</time>
      </trkpt>
      <trkpt lat="47.90043" lon="7.22919">
        <ele>269.8</ele>
        <time>2019-08-09T19:15:01Z</time>
      </trkpt>
      <trkpt lat="47.90045" lon="7.22915">
        <ele>269.9</ele>
        <time>2019-08-09T19:15:02Z</time>
      </trkpt>
      <trkpt lat="47.90047" lon="7.2291">
        <ele>270</ele>
        <time>2019-08-09T19:15:03Z</time>
      </trkpt>
      <trkpt lat="47.90049" lon="7.22905">
        <ele>270.1</ele>
        <time>2019-08-09T19:15:04Z</time>
      </trkpt>
      <trkpt lat="47.9005" lon="7.22901">
        <ele>270.2</ele>
        <time>2019-08-09T19:15:05Z</time>
      </trkpt>
      <trkpt lat="47.90051" lon="7.22896">
        <ele>270.3</ele>
        <time>2019-08-09T19:15:06Z</time>
      </trkpt>
      <trkpt lat="47.90053" lon="7.22892">
        <ele>270.3</ele>
        <time>2019-08-09T19:15:07Z</time>
      </trkpt>
      <trkpt lat="47.90055" lon="7.22889">
        <ele>270.4</ele>
        <time>2019-08-09T19:15:08Z</time>
      </trkpt>
      <trkpt lat="47.90057" lon="7.22886">
        <ele>270.5</ele>
        <time>2019-08-09T19:15:09Z</time>
      </trkpt>
      <trkpt lat="47.90059" lon="7.22883">
        <ele>270.5</ele>
        <time>2019-08-09T19:15:10Z</time>
      </trkpt>
      <trkpt lat="47.90063" lon="7.22878">
        <ele>270.6</ele>
        <time>2019-08-09T19:15:12Z</time>
      </trkpt>
      <trkpt lat="47.90065" lon="7.22873">
        <ele>270.7</ele>
        <time>2019-08-09T19:15:14Z</time>
      </trkpt>
      <trkpt lat="47.90067" lon="7.22869">
        <ele>270.8</ele>
        <time>2019-08-09T19:15:17Z</time>
      </trkpt>
      <trkpt lat="47.90069" lon="7.22863">
        <ele>270.8</ele>
        <time>2019-08-09T19:15:21Z</time>
      </trkpt>
      <trkpt lat="47.9007" lon="7.22856">
        <ele>270.9</ele>
        <time>2019-08-09T19:15:23Z</time>
      </trkpt>
      <trkpt lat="47.90073" lon="7.22852">
        <ele>270.9</ele>
        <time>2019-08-09T19:15:25Z</time>
      </trkpt>
      <trkpt lat="47.90074" lon="7.22847">
        <ele>271</ele>
        <time>2019-08-09T19:15:27Z</time>
      </trkpt>
      <trkpt lat="47.90075" lon="7.2284">
        <ele>271.1</ele>
        <time>2019-08-09T19:15:29Z</time>
      </trkpt>
      <trkpt lat="47.90077" lon="7.22835">
        <ele>271.2</ele>
        <time>2019-08-09T19:15:31Z</time>
      </trkpt>
      <trkpt lat="47.90078" lon="7.22831">
        <ele>271.3</ele>
        <time>2019-08-09T19:15:32Z</time>
      </trkpt>
      <trkpt lat="47.90079" lon="7.22826">
        <ele>271.3</ele>
        <time>2019-08-09T19:15:33Z</time>
      </trkpt>
      <trkpt lat="47.90081" lon="7.2282">
        <ele>271.4</ele>
        <time>2019-08-09T19:15:34Z</time>
      </trkpt>
      <trkpt lat="47.90082" lon="7.22816">
        <ele>271.5</ele>
        <time>2019-08-09T19:15:35Z</time>
      </trkpt>
      <trkpt lat="47.90083" lon="7.22812">
        <ele>271.5</ele>
        <time>2019-08-09T19:15:36Z</time>
      </trkpt>
      <trkpt lat="47.90085" lon="7.22804">
        <ele>271.6</ele>
        <time>2019-08-09T19:15:38Z</time>
      </trkpt>
      <trkpt lat="47.90086" lon="7.22799">
        <ele>271.7</ele>
        <time>2019-08-09T19:15:39Z</time>
      </trkpt>
      <trkpt lat="47.90086" lon="7.22794">
        <ele>271.8</ele>
        <time>2019-08-09T19:15:40Z</time>
      </trkpt>
      <trkpt lat="47.90087" lon="7.22789">
        <ele>271.8</ele>
        <time>2019-08-09T19:15:41Z</time>
      </trkpt>
      <trkpt lat="47.90088" lon="7.22784">
        <ele>271.8</ele>
        <time>2019-08-09T19:15:42Z</time>
      </trkpt>
      <trkpt lat="47.90089" lon="7.22779">
        <ele>271.9</ele>
        <time>2019-08-09T19:15:43Z</time>
      </trkpt>
      <trkpt lat="47.90089" lon="7.22773">
        <ele>272</ele>
        <time>2019-08-09T19:15:44Z</time>
      </trkpt>
      <trkpt lat="47.9009" lon="7.22767">
        <ele>272</ele>
        <time>2019-08-09T19:15:45Z</time>
      </trkpt>
      <trkpt lat="47.90091" lon="7.22762">
        <ele>272.1</ele>
        <time>2019-08-09T19:15:46Z</time>
      </trkpt>
      <trkpt lat="47.90092" lon="7.22756">
        <ele>272.1</ele>
        <time>2019-08-09T19:15:47Z</time>
      </trkpt>
      <trkpt lat="47.90093" lon="7.2275">
        <ele>272.1</ele>
        <time>2019-08-09T19:15:48Z</time>
      </trkpt>
      <trkpt lat="47.90094" lon="7.22745">
        <ele>272.2</ele>
        <time>2019-08-09T19:15:49Z</time>
      </trkpt>
      <trkpt lat="47.90096" lon="7.2274">
        <ele>272.2</ele>
        <time>2019-08-09T19:15:50Z</time>
      </trkpt>
      <trkpt lat="47.90097" lon="7.22735">
        <ele>272.3</ele>
        <time>2019-08-09T19:15:51Z</time>
      </trkpt>
      <trkpt lat="47.90099" lon="7.2273">
        <ele>272.3</ele>
        <time>2019-08-09T19:15:52Z</time>
      </trkpt>
      <trkpt lat="47.901" lon="7.22725">
        <ele>272.3</ele>
        <time>2019-08-09T19:15:53Z</time>
      </trkpt>
      <trkpt lat="47.90101" lon="7.2272">
        <ele>272.3</ele>
        <time>2019-08-09T19:15:54Z</time>
      </trkpt>
      <trkpt lat="47.90102" lon="7.22715">
        <ele>272.3</ele>
        <time>2019-08-09T19:15:55Z</time>
      </trkpt>
      <trkpt lat="47.90103" lon="7.22711">
        <ele>272.3</ele>
        <time>2019-08-09T19:15:56Z</time>
      </trkpt>
      <trkpt lat="47.90105" lon="7.22704">
        <ele>272.4</ele>
        <time>2019-08-09T19:15:58Z</time>
      </trkpt>
      <trkpt lat="47.90107" lon="7.22699">
        <ele>272.4</ele>
        <time>2019-08-09T19:15:59Z</time>
      </trkpt>
      <trkpt lat="47.90106" lon="7.22693">
        <ele>272.4</ele>
        <time>2019-08-09T19:16:00Z</time>
      </trkpt>
      <trkpt lat="47.90106" lon="7.22686">
        <ele>272.4</ele>
        <time>2019-08-09T19:16:01Z</time>
      </trkpt>
      <trkpt lat="47.90106" lon="7.22679">
        <ele>272.4</ele>
        <time>2019-08-09T19:16:03Z</time>
      </trkpt>
      <trkpt lat="47.90106" lon="7.22675">
        <ele>272.4</ele>
        <time>2019-08-09T19:16:04Z</time>
      </trkpt>
      <trkpt lat="47.90107" lon="7.22667">
        <ele>272.4</ele>
        <time>2019-08-09T19:16:06Z</time>
      </trkpt>
      <trkpt lat="47.90108" lon="7.22661">
        <ele>272.4</ele>
        <time>2019-08-09T19:16:07Z</time>
      </trkpt>
      <trkpt lat="47.90109" lon="7.22656">
        <ele>272.3</ele>
        <time>2019-08-09T19:16:08Z</time>
      </trkpt>
      <trkpt lat="47.9011" lon="7.22651">
        <ele>272.3</ele>
        <time>2019-08-09T19:16:09Z</time>
      </trkpt>
      <trkpt lat="47.90111" lon="7.22647">
        <ele>272.3</ele>
        <time>2019-08-09T19:16:10Z</time>
      </trkpt>
      <trkpt lat="47.90111" lon="7.22642">
        <ele>272.3</ele>
        <time>2019-08-09T19:16:12Z</time>
      </trkpt>
      <trkpt lat="47.90113" lon="7.22637">
        <ele>272.3</ele>
        <time>2019-08-09T19:16:15Z</time>
      </trkpt>
      <trkpt lat="47.90116" lon="7.22634">
        <ele>272.3</ele>
        <time>2019-08-09T19:16:22Z</time>
      </trkpt>
      <trkpt lat="47.90117" lon="7.22629">
        <ele>272.2</ele>
        <time>2019-08-09T19:16:26Z</time>
      </trkpt>
      <trkpt lat="47.90118" lon="7.22622">
        <ele>272.2</ele>
        <time>2019-08-09T19:16:28Z</time>
      </trkpt>
      <trkpt lat="47.90117" lon="7.22617">
        <ele>272.2</ele>
        <time>2019-08-09T19:16:29Z</time>
      </trkpt>
      <trkpt lat="47.90112" lon="7.22615">
        <ele>272.1</ele>
        <time>2019-08-09T19:16:31Z</time>
      </trkpt>
      <trkpt lat="47.90108" lon="7.22615">
        <ele>272.1</ele>
        <time>2019-08-09T19:16:32Z</time>
      </trkpt>
      <trkpt lat="47.90104" lon="7.22614">
        <ele>272.1</ele>
        <time>2019-08-09T19:16:33Z</time>
      </trkpt>
      <trkpt lat="47.901" lon="7.22613">
        <ele>272.1</ele>
        <time>2019-08-09T19:16:34Z</time>
      </trkpt>
      <trkpt lat="47.90096" lon="7.22611">
        <ele>271.9</ele>
        <time>2019-08-09T19:16:35Z</time>
      </trkpt>
      <trkpt lat="47.90093" lon="7.2261">
        <ele>271.8</ele>
        <time>2019-08-09T19:16:36Z</time>
      </trkpt>
      <trkpt lat="47.90089" lon="7.22609">
        <ele>271.7</ele>
        <time>2019-08-09T19:16:37Z</time>
      </trkpt>
      <trkpt lat="47.90086" lon="7.22609">
        <ele>271.5</ele>
        <time>2019-08-09T19:16:38Z</time>
      </trkpt>
      <trkpt lat="47.90079" lon="7.22609">
        <ele>271.1</ele>
        <time>2019-08-09T19:16:40Z</time>
      </trkpt>
      <trkpt lat="47.90075" lon="7.22607">
        <ele>271</ele>
        <time>2019-08-09T19:16:41Z</time>
      </trkpt>
      <trkpt lat="47.90072" lon="7.22603">
        <ele>270.8</ele>
        <time>2019-08-09T19:16:43Z</time>
      </trkpt>
      <trkpt lat="47.9007" lon="7.22602">
        <ele>270.7</ele>
        <time>2019-08-09T19:16:57Z</time>
      </trkpt>
      <trkpt lat="47.90071" lon="7.22597">
        <ele>270.6</ele>
        <time>2019-08-09T19:19:13Z</time>
      </trkpt>
      <trkpt lat="47.90073" lon="7.2259">
        <ele>270.6</ele>
        <time>2019-08-09T19:19:15Z</time>
      </trkpt>
      <trkpt lat="47.90074" lon="7.22586">
        <ele>270.6</ele>
        <time>2019-08-09T19:19:16Z</time>
      </trkpt>
      <trkpt lat="47.90076" lon="7.22578">
        <ele>270.6</ele>
        <time>2019-08-09T19:19:18Z</time>
      </trkpt>
      <trkpt lat="47.90078" lon="7.22571">
        <ele>270.6</ele>
        <time>2019-08-09T19:19:20Z</time>
      </trkpt>
      <trkpt lat="47.90079" lon="7.22567">
        <ele>270.6</ele>
        <time>2019-08-09T19:19:21Z</time>
      </trkpt>
      <trkpt lat="47.9008" lon="7.22563">
        <ele>270.6</ele>
        <time>2019-08-09T19:19:22Z</time>
      </trkpt>
      <trkpt lat="47.90081" lon="7.22558">
        <ele>270.6</ele>
        <time>2019-08-09T19:19:23Z</time>
      </trkpt>
      <trkpt lat="47.90082" lon="7.22553">
        <ele>270.6</ele>
        <time>2019-08-09T19:19:24Z</time>
      </trkpt>
      <trkpt lat="47.90084" lon="7.22548">
        <ele>270.7</ele>
        <time>2019-08-09T19:19:25Z</time>
      </trkpt>
      <trkpt lat="47.90085" lon="7.22543">
        <ele>270.7</ele>
        <time>2019-08-09T19:19:26Z</time>
      </trkpt>
      <trkpt lat="47.90086" lon="7.22538">
        <ele>270.8</ele>
        <time>2019-08-09T19:19:27Z</time>
      </trkpt>
      <trkpt lat="47.90087" lon="7.22533">
        <ele>270.9</ele>
        <time>2019-08-09T19:19:28Z</time>
      </trkpt>
      <trkpt lat="47.90088" lon="7.22527">
        <ele>271.1</ele>
        <time>2019-08-09T19:19:29Z</time>
      </trkpt>
      <trkpt lat="47.9009" lon="7.22522">
        <ele>271.3</ele>
        <time>2019-08-09T19:19:30Z</time>
      </trkpt>
      <trkpt lat="47.90092" lon="7.22515">
        <ele>271.5</ele>
        <time>2019-08-09T19:19:31Z</time>
      </trkpt>
      <trkpt lat="47.90094" lon="7.22509">
        <ele>271.7</ele>
        <time>2019-08-09T19:19:32Z</time>
      </trkpt>
      <trkpt lat="47.90095" lon="7.22505">
        <ele>271.8</ele>
        <time>2019-08-09T19:19:33Z</time>
      </trkpt>
      <trkpt lat="47.90097" lon="7.225">
        <ele>272</ele>
        <time>2019-08-09T19:19:34Z</time>
      </trkpt>
      <trkpt lat="47.90099" lon="7.22496">
        <ele>272.1</ele>
        <time>2019-08-09T19:19:35Z</time>
      </trkpt>
      <trkpt lat="47.901" lon="7.22491">
        <ele>272.1</ele>
        <time>2019-08-09T19:19:36Z</time>
      </trkpt>
      <trkpt lat="47.90102" lon="7.22486">
        <ele>272.2</ele>
        <time>2019-08-09T19:19:37Z</time>
      </trkpt>
      <trkpt lat="47.90104" lon="7.22481">
        <ele>272.2</ele>
        <time>2019-08-09T19:19:38Z</time>
      </trkpt>
      <trkpt lat="47.90106" lon="7.22476">
        <ele>272.3</ele>
        <time>2019-08-09T19:19:39Z</time>
      </trkpt>
      <trkpt lat="47.90108" lon="7.2247">
        <ele>272.3</ele>
        <time>2019-08-09T19:19:40Z</time>
      </trkpt>
      <trkpt lat="47.90111" lon="7.22464">
        <ele>272.6</ele>
        <time>2019-08-09T19:19:41Z</time>
      </trkpt>
      <trkpt lat="47.90112" lon="7.22459">
        <ele>272.7</ele>
        <time>2019-08-09T19:19:42Z</time>
      </trkpt>
      <trkpt lat="47.90114" lon="7.22454">
        <ele>272.8</ele>
        <time>2019-08-09T19:19:43Z</time>
      </trkpt>
      <trkpt lat="47.90115" lon="7.22449">
        <ele>273</ele>
        <time>2019-08-09T19:19:44Z</time>
      </trkpt>
      <trkpt lat="47.90117" lon="7.22444">
        <ele>273.1</ele>
        <time>2019-08-09T19:19:45Z</time>
      </trkpt>
      <trkpt lat="47.90118" lon="7.22438">
        <ele>273.3</ele>
        <time>2019-08-09T19:19:46Z</time>
      </trkpt>
      <trkpt lat="47.9012" lon="7.22433">
        <ele>273.5</ele>
        <time>2019-08-09T19:19:47Z</time>
      </trkpt>
      <trkpt lat="47.90122" lon="7.22428">
        <ele>273.6</ele>
        <time>2019-08-09T19:19:48Z</time>
      </trkpt>
      <trkpt lat="47.90124" lon="7.22424">
        <ele>273.7</ele>
        <time>2019-08-09T19:19:49Z</time>
      </trkpt>
      <trkpt lat="47.90126" lon="7.2242">
        <ele>273.9</ele>
        <time>2019-08-09T19:19:50Z</time>
      </trkpt>
      <trkpt lat="47.90127" lon="7.22415">
        <ele>274</ele>
        <time>2019-08-09T19:19:51Z</time>
      </trkpt>
      <trkpt lat="47.90129" lon="7.22411">
        <ele>274.1</ele>
        <time>2019-08-09T19:19:52Z</time>
      </trkpt>
      <trkpt lat="47.9013" lon="7.22407">
        <ele>274.2</ele>
        <time>2019-08-09T19:19:53Z</time>
      </trkpt>
      <trkpt lat="47.90132" lon="7.22402">
        <ele>274.3</ele>
        <time>2019-08-09T19:19:54Z</time>
      </trkpt>
      <trkpt lat="47.90133" lon="7.22398">
        <ele>274.4</ele>
        <time>2019-08-09T19:19:55Z</time>
      </trkpt>
      <trkpt lat="47.90136" lon="7.22389">
        <ele>274.6</ele>
        <time>2019-08-09T19:19:57Z</time>
      </trkpt>
      <trkpt lat="47.90138" lon="7.22386">
        <ele>274.7</ele>
        <time>2019-08-09T19:19:58Z</time>
      </trkpt>
      <trkpt lat="47.90139" lon="7.22381">
        <ele>274.8</ele>
        <time>2019-08-09T19:19:59Z</time>
      </trkpt>
      <trkpt lat="47.90139" lon="7.22377">
        <ele>274.9</ele>
        <time>2019-08-09T19:20:01Z</time>
      </trkpt>
      <trkpt lat="47.90141" lon="7.22372">
        <ele>274.9</ele>
        <time>2019-08-09T19:20:03Z</time>
      </trkpt>
      <trkpt lat="47.90139" lon="7.22371">
        <ele>275</ele>
        <time>2019-08-09T19:20:07Z</time>
      </trkpt>
      <trkpt lat="47.90136" lon="7.22368">
        <ele>275</ele>
        <time>2019-08-09T19:20:17Z</time>
      </trkpt>
      <trkpt lat="47.90135" lon="7.22363">
        <ele>275.1</ele>
        <time>2019-08-09T19:20:28Z</time>
      </trkpt>
      <trkpt lat="47.90134" lon="7.2236">
        <ele>275.1</ele>
        <time>2019-08-09T19:20:30Z</time>
      </trkpt>
      <trkpt lat="47.90132" lon="7.22355">
        <ele>275.2</ele>
        <time>2019-08-09T19:20:32Z</time>
      </trkpt>
      <trkpt lat="47.9013" lon="7.2235">
        <ele>275.2</ele>
        <time>2019-08-09T19:20:34Z</time>
      </trkpt>
      <trkpt lat="47.90128" lon="7.22345">
        <ele>275.3</ele>
        <time>2019-08-09T19:20:36Z</time>
      </trkpt>
      <trkpt lat="47.90128" lon="7.22341">
        <ele>275.4</ele>
        <time>2019-08-09T19:20:38Z</time>
      </trkpt>
      <trkpt lat="47.90126" lon="7.22337">
        <ele>275.6</ele>
        <time>2019-08-09T19:20:40Z</time>
      </trkpt>
      <trkpt lat="47.90123" lon="7.22334">
        <ele>275.6</ele>
        <time>2019-08-09T19:20:43Z</time>
      </trkpt>
      <trkpt lat="47.90127" lon="7.22332">
        <ele>275.7</ele>
        <time>2019-08-09T19:20:52Z</time>
      </trkpt>
      <trkpt lat="47.90131" lon="7.22328">
        <ele>275.8</ele>
        <time>2019-08-09T19:20:54Z</time>
      </trkpt>
      <trkpt lat="47.90136" lon="7.22324">
        <ele>275.9</ele>
        <time>2019-08-09T19:20:56Z</time>
      </trkpt>
      <trkpt lat="47.9014" lon="7.22319">
        <ele>276</ele>
        <time>2019-08-09T19:20:58Z</time>
      </trkpt>
      <trkpt lat="47.90142" lon="7.22316">
        <ele>276</ele>
        <time>2019-08-09T19:20:59Z</time>
      </trkpt>
      <trkpt lat="47.90146" lon="7.22314">
        <ele>276.1</ele>
        <time>2019-08-09T19:21:00Z</time>
      </trkpt>
      <trkpt lat="47.90149" lon="7.22311">
        <ele>276.1</ele>
        <time>2019-08-09T19:21:01Z</time>
      </trkpt>
      <trkpt lat="47.90151" lon="7.22308">
        <ele>276.1</ele>
        <time>2019-08-09T19:21:02Z</time>
      </trkpt>
      <trkpt lat="47.90154" lon="7.22305">
        <ele>276.1</ele>
        <time>2019-08-09T19:21:03Z</time>
      </trkpt>
      <trkpt lat="47.90158" lon="7.223">
        <ele>276.2</ele>
        <time>2019-08-09T19:21:05Z</time>
      </trkpt>
      <trkpt lat="47.90161" lon="7.22297">
        <ele>276.3</ele>
        <time>2019-08-09T19:21:06Z</time>
      </trkpt>
      <trkpt lat="47.90164" lon="7.22294">
        <ele>276.4</ele>
        <time>2019-08-09T19:21:07Z</time>
      </trkpt>
      <trkpt lat="47.90167" lon="7.22291">
        <ele>276.5</ele>
        <time>2019-08-09T19:21:09Z</time>
      </trkpt>
      <trkpt lat="47.9017" lon="7.22288">
        <ele>276.6</ele>
        <time>2019-08-09T19:21:11Z</time>
      </trkpt>
      <trkpt lat="47.90173" lon="7.22286">
        <ele>276.7</ele>
        <time>2019-08-09T19:21:12Z</time>
      </trkpt>
      <trkpt lat="47.90175" lon="7.22282">
        <ele>276.8</ele>
        <time>2019-08-09T19:21:13Z</time>
      </trkpt>
      <trkpt lat="47.90179" lon="7.22279">
        <ele>276.8</ele>
        <time>2019-08-09T19:21:15Z</time>
      </trkpt>
      <trkpt lat="47.90184" lon="7.22279">
        <ele>277.1</ele>
        <time>2019-08-09T19:21:17Z</time>
      </trkpt>
      <trkpt lat="47.90187" lon="7.22276">
        <ele>277.1</ele>
        <time>2019-08-09T19:21:19Z</time>
      </trkpt>
      <trkpt lat="47.90188" lon="7.22269">
        <ele>277.1</ele>
        <time>2019-08-09T19:21:21Z</time>
      </trkpt>
      <trkpt lat="47.90188" lon="7.22263">
        <ele>277.1</ele>
        <time>2019-08-09T19:21:22Z</time>
      </trkpt>
      <trkpt lat="47.90188" lon="7.22257">
        <ele>277.1</ele>
        <time>2019-08-09T19:21:24Z</time>
      </trkpt>
      <trkpt lat="47.90188" lon="7.22251">
        <ele>277.1</ele>
        <time>2019-08-09T19:21:26Z</time>
      </trkpt>
      <trkpt lat="47.90189" lon="7.22245">
        <ele>277.1</ele>
        <time>2019-08-09T19:21:28Z</time>
      </trkpt>
      <trkpt lat="47.90187" lon="7.22242">
        <ele>276.9</ele>
        <time>2019-08-09T19:21:30Z</time>
      </trkpt>
      <trkpt lat="47.90183" lon="7.22242">
        <ele>276.9</ele>
        <time>2019-08-09T19:21:32Z</time>
      </trkpt>
      <trkpt lat="47.90181" lon="7.22244">
        <ele>276.9</ele>
        <time>2019-08-09T19:21:37Z</time>
      </trkpt>
      <trkpt lat="47.90178" lon="7.22241">
        <ele>276.9</ele>
        <time>2019-08-09T19:22:38Z</time>
      </trkpt>
      <trkpt lat="47.9018" lon="7.22237">
        <ele>277.2</ele>
        <time>2019-08-09T19:22:40Z</time>
      </trkpt>
      <trkpt lat="47.90183" lon="7.22231">
        <ele>277.3</ele>
        <time>2019-08-09T19:22:42Z</time>
      </trkpt>
      <trkpt lat="47.90185" lon="7.22226">
        <ele>277.4</ele>
        <time>2019-08-09T19:22:43Z</time>
      </trkpt>
      <trkpt lat="47.90187" lon="7.22221">
        <ele>277.6</ele>
        <time>2019-08-09T19:22:44Z</time>
      </trkpt>
      <trkpt lat="47.90188" lon="7.22216">
        <ele>277.7</ele>
        <time>2019-08-09T19:22:45Z</time>
      </trkpt>
      <trkpt lat="47.90189" lon="7.22212">
        <ele>277.7</ele>
        <time>2019-08-09T19:22:46Z</time>
      </trkpt>
      <trkpt lat="47.9019" lon="7.22207">
        <ele>277.8</ele>
        <time>2019-08-09T19:22:47Z</time>
      </trkpt>
      <trkpt lat="47.9019" lon="7.22203">
        <ele>277.9</ele>
        <time>2019-08-09T19:22:48Z</time>
      </trkpt>
      <trkpt lat="47.90191" lon="7.22199">
        <ele>278</ele>
        <time>2019-08-09T19:22:49Z</time>
      </trkpt>
      <trkpt lat="47.90192" lon="7.22194">
        <ele>278.1</ele>
        <time>2019-08-09T19:22:50Z</time>
      </trkpt>
      <trkpt lat="47.90192" lon="7.22189">
        <ele>278.2</ele>
        <time>2019-08-09T19:22:51Z</time>
      </trkpt>
      <trkpt lat="47.90193" lon="7.22185">
        <ele>278.3</ele>
        <time>2019-08-09T19:22:52Z</time>
      </trkpt>
      <trkpt lat="47.90195" lon="7.22179">
        <ele>278.4</ele>
        <time>2019-08-09T19:22:53Z</time>
      </trkpt>
      <trkpt lat="47.90196" lon="7.22174">
        <ele>278.5</ele>
        <time>2019-08-09T19:22:54Z</time>
      </trkpt>
      <trkpt lat="47.90197" lon="7.2217">
        <ele>278.6</ele>
        <time>2019-08-09T19:22:55Z</time>
      </trkpt>
      <trkpt lat="47.90198" lon="7.22165">
        <ele>278.7</ele>
        <time>2019-08-09T19:22:56Z</time>
      </trkpt>
      <trkpt lat="47.90198" lon="7.2216">
        <ele>278.8</ele>
        <time>2019-08-09T19:22:57Z</time>
      </trkpt>
      <trkpt lat="47.90198" lon="7.22156">
        <ele>278.9</ele>
        <time>2019-08-09T19:22:58Z</time>
      </trkpt>
      <trkpt lat="47.90199" lon="7.2215">
        <ele>279.1</ele>
        <time>2019-08-09T19:23:00Z</time>
      </trkpt>
      <trkpt lat="47.90201" lon="7.22144">
        <ele>279.2</ele>
        <time>2019-08-09T19:23:02Z</time>
      </trkpt>
      <trkpt lat="47.90203" lon="7.22138">
        <ele>279.4</ele>
        <time>2019-08-09T19:23:04Z</time>
      </trkpt>
      <trkpt lat="47.90204" lon="7.22131">
        <ele>279.5</ele>
        <time>2019-08-09T19:23:06Z</time>
      </trkpt>
      <trkpt lat="47.90206" lon="7.22126">
        <ele>279.7</ele>
        <time>2019-08-09T19:23:07Z</time>
      </trkpt>
      <trkpt lat="47.90207" lon="7.2212">
        <ele>279.8</ele>
        <time>2019-08-09T19:23:08Z</time>
      </trkpt>
      <trkpt lat="47.90208" lon="7.22115">
        <ele>279.9</ele>
        <time>2019-08-09T19:23:09Z</time>
      </trkpt>
      <trkpt lat="47.90209" lon="7.22109">
        <ele>280</ele>
        <time>2019-08-09T19:23:10Z</time>
      </trkpt>
      <trkpt lat="47.9021" lon="7.22104">
        <ele>280.1</ele>
        <time>2019-08-09T19:23:11Z</time>
      </trkpt>
      <trkpt lat="47.90211" lon="7.22097">
        <ele>280.2</ele>
        <time>2019-08-09T19:23:12Z</time>
      </trkpt>
      <trkpt lat="47.90212" lon="7.22091">
        <ele>280.3</ele>
        <time>2019-08-09T19:23:13Z</time>
      </trkpt>
      <trkpt lat="47.90213" lon="7.22087">
        <ele>280.4</ele>
        <time>2019-08-09T19:23:14Z</time>
      </trkpt>
      <trkpt lat="47.90214" lon="7.22082">
        <ele>280.4</ele>
        <time>2019-08-09T19:23:15Z</time>
      </trkpt>
      <trkpt lat="47.90215" lon="7.22078">
        <ele>280.5</ele>
        <time>2019-08-09T19:23:16Z</time>
      </trkpt>
      <trkpt lat="47.90216" lon="7.22073">
        <ele>280.6</ele>
        <time>2019-08-09T19:23:17Z</time>
      </trkpt>
      <trkpt lat="47.90218" lon="7.22068">
        <ele>280.6</ele>
        <time>2019-08-09T19:23:18Z</time>
      </trkpt>
      <trkpt lat="47.9022" lon="7.22064">
        <ele>280.7</ele>
        <time>2019-08-09T19:23:19Z</time>
      </trkpt>
      <trkpt lat="47.90222" lon="7.2206">
        <ele>280.7</ele>
        <time>2019-08-09T19:23:20Z</time>
      </trkpt>
      <trkpt lat="47.90227" lon="7.22054">
        <ele>280.8</ele>
        <time>2019-08-09T19:23:22Z</time>
      </trkpt>
      <trkpt lat="47.90229" lon="7.22051">
        <ele>280.9</ele>
        <time>2019-08-09T19:23:23Z</time>
      </trkpt>
      <trkpt lat="47.90231" lon="7.22047">
        <ele>280.9</ele>
        <time>2019-08-09T19:23:24Z</time>
      </trkpt>
      <trkpt lat="47.90233" lon="7.22043">
        <ele>280.9</ele>
        <time>2019-08-09T19:23:25Z</time>
      </trkpt>
      <trkpt lat="47.90235" lon="7.22039">
        <ele>281</ele>
        <time>2019-08-09T19:23:26Z</time>
      </trkpt>
      <trkpt lat="47.90238" lon="7.22035">
        <ele>281</ele>
        <time>2019-08-09T19:23:27Z</time>
      </trkpt>
      <trkpt lat="47.9024" lon="7.22032">
        <ele>281</ele>
        <time>2019-08-09T19:23:28Z</time>
      </trkpt>
      <trkpt lat="47.90243" lon="7.22027">
        <ele>281</ele>
        <time>2019-08-09T19:23:30Z</time>
      </trkpt>
      <trkpt lat="47.90245" lon="7.22024">
        <ele>281.1</ele>
        <time>2019-08-09T19:23:31Z</time>
      </trkpt>
      <trkpt lat="47.90247" lon="7.22021">
        <ele>281.1</ele>
        <time>2019-08-09T19:23:32Z</time>
      </trkpt>
      <trkpt lat="47.90248" lon="7.22015">
        <ele>281.1</ele>
        <time>2019-08-09T19:23:34Z</time>
      </trkpt>
      <trkpt lat="47.9025" lon="7.2201">
        <ele>281.1</ele>
        <time>2019-08-09T19:23:36Z</time>
      </trkpt>
      <trkpt lat="47.90252" lon="7.22006">
        <ele>281.1</ele>
        <time>2019-08-09T19:23:38Z</time>
      </trkpt>
      <trkpt lat="47.90253" lon="7.22001">
        <ele>281.2</ele>
        <time>2019-08-09T19:23:40Z</time>
      </trkpt>
      <trkpt lat="47.90257" lon="7.21998">
        <ele>281.2</ele>
        <time>2019-08-09T19:23:44Z</time>
      </trkpt>
      <trkpt lat="47.90261" lon="7.21995">
        <ele>281.3</ele>
        <time>2019-08-09T19:23:46Z</time>
      </trkpt>
      <trkpt lat="47.90265" lon="7.21991">
        <ele>281.4</ele>
        <time>2019-08-09T19:23:48Z</time>
      </trkpt>
      <trkpt lat="47.90268" lon="7.21987">
        <ele>281.5</ele>
        <time>2019-08-09T19:23:50Z</time>
      </trkpt>
      <trkpt lat="47.9027" lon="7.21984">
        <ele>281.6</ele>
        <time>2019-08-09T19:23:51Z</time>
      </trkpt>
      <trkpt lat="47.90272" lon="7.21981">
        <ele>281.7</ele>
        <time>2019-08-09T19:23:52Z</time>
      </trkpt>
      <trkpt lat="47.90274" lon="7.21977">
        <ele>281.8</ele>
        <time>2019-08-09T19:23:53Z</time>
      </trkpt>
      <trkpt lat="47.90275" lon="7.21973">
        <ele>281.8</ele>
        <time>2019-08-09T19:23:54Z</time>
      </trkpt>
      <trkpt lat="47.90277" lon="7.21969">
        <ele>281.9</ele>
        <time>2019-08-09T19:23:55Z</time>
      </trkpt>
      <trkpt lat="47.90279" lon="7.21965">
        <ele>282</ele>
        <time>2019-08-09T19:23:56Z</time>
      </trkpt>
      <trkpt lat="47.90281" lon="7.21961">
        <ele>282.1</ele>
        <time>2019-08-09T19:23:57Z</time>
      </trkpt>
      <trkpt lat="47.90283" lon="7.21957">
        <ele>282.2</ele>
        <time>2019-08-09T19:23:58Z</time>
      </trkpt>
      <trkpt lat="47.90286" lon="7.21953">
        <ele>282.3</ele>
        <time>2019-08-09T19:23:59Z</time>
      </trkpt>
      <trkpt lat="47.90288" lon="7.21949">
        <ele>282.4</ele>
        <time>2019-08-09T19:24:00Z</time>
      </trkpt>
      <trkpt lat="47.9029" lon="7.21944">
        <ele>282.4</ele>
        <time>2019-08-09T19:24:01Z</time>
      </trkpt>
      <trkpt lat="47.90292" lon="7.2194">
        <ele>282.5</ele>
        <time>2019-08-09T19:24:02Z</time>
      </trkpt>
      <trkpt lat="47.90294" lon="7.21936">
        <ele>282.5</ele>
        <time>2019-08-09T19:24:03Z</time>
      </trkpt>
      <trkpt lat="47.90296" lon="7.21933">
        <ele>282.6</ele>
        <time>2019-08-09T19:24:04Z</time>
      </trkpt>
      <trkpt lat="47.903" lon="7.21929">
        <ele>282.6</ele>
        <time>2019-08-09T19:24:05Z</time>
      </trkpt>
      <trkpt lat="47.90303" lon="7.21924">
        <ele>282.6</ele>
        <time>2019-08-09T19:24:06Z</time>
      </trkpt>
      <trkpt lat="47.90305" lon="7.21919">
        <ele>282.6</ele>
        <time>2019-08-09T19:24:07Z</time>
      </trkpt>
      <trkpt lat="47.90307" lon="7.21914">
        <ele>282.6</ele>
        <time>2019-08-09T19:24:08Z</time>
      </trkpt>
      <trkpt lat="47.90309" lon="7.21909">
        <ele>282.6</ele>
        <time>2019-08-09T19:24:09Z</time>
      </trkpt>
      <trkpt lat="47.90312" lon="7.21904">
        <ele>282.5</ele>
        <time>2019-08-09T19:24:10Z</time>
      </trkpt>
      <trkpt lat="47.90314" lon="7.21899">
        <ele>282.5</ele>
        <time>2019-08-09T19:24:11Z</time>
      </trkpt>
      <trkpt lat="47.90316" lon="7.21894">
        <ele>282.4</ele>
        <time>2019-08-09T19:24:12Z</time>
      </trkpt>
      <trkpt lat="47.90318" lon="7.21889">
        <ele>282.4</ele>
        <time>2019-08-09T19:24:13Z</time>
      </trkpt>
      <trkpt lat="47.9032" lon="7.21885">
        <ele>282.4</ele>
        <time>2019-08-09T19:24:14Z</time>
      </trkpt>
      <trkpt lat="47.90321" lon="7.2188">
        <ele>282.4</ele>
        <time>2019-08-09T19:24:15Z</time>
      </trkpt>
      <trkpt lat="47.90322" lon="7.21877">
        <ele>282.4</ele>
        <time>2019-08-09T19:24:16Z</time>
      </trkpt>
      <trkpt lat="47.90324" lon="7.21874">
        <ele>282.4</ele>
        <time>2019-08-09T19:24:17Z</time>
      </trkpt>
      <trkpt lat="47.90326" lon="7.21868">
        <ele>282.4</ele>
        <time>2019-08-09T19:24:19Z</time>
      </trkpt>
      <trkpt lat="47.90328" lon="7.21863">
        <ele>282.4</ele>
        <time>2019-08-09T19:24:21Z</time>
      </trkpt>
      <trkpt lat="47.90331" lon="7.21861">
        <ele>282.4</ele>
        <time>2019-08-09T19:24:23Z</time>
      </trkpt>
      <trkpt lat="47.90333" lon="7.21858">
        <ele>282.4</ele>
        <time>2019-08-09T19:24:25Z</time>
      </trkpt>
      <trkpt lat="47.90335" lon="7.21851">
        <ele>282.4</ele>
        <time>2019-08-09T19:24:27Z</time>
      </trkpt>
      <trkpt lat="47.90336" lon="7.21846">
        <ele>282.5</ele>
        <time>2019-08-09T19:24:28Z</time>
      </trkpt>
      <trkpt lat="47.90338" lon="7.21841">
        <ele>282.5</ele>
        <time>2019-08-09T19:24:29Z</time>
      </trkpt>
      <trkpt lat="47.90341" lon="7.21836">
        <ele>282.5</ele>
        <time>2019-08-09T19:24:30Z</time>
      </trkpt>
      <trkpt lat="47.90343" lon="7.21831">
        <ele>282.5</ele>
        <time>2019-08-09T19:24:31Z</time>
      </trkpt>
      <trkpt lat="47.90346" lon="7.21827">
        <ele>282.5</ele>
        <time>2019-08-09T19:24:32Z</time>
      </trkpt>
      <trkpt lat="47.90348" lon="7.21822">
        <ele>282.6</ele>
        <time>2019-08-09T19:24:33Z</time>
      </trkpt>
      <trkpt lat="47.90351" lon="7.21818">
        <ele>282.6</ele>
        <time>2019-08-09T19:24:34Z</time>
      </trkpt>
      <trkpt lat="47.90353" lon="7.21813">
        <ele>282.6</ele>
        <time>2019-08-09T19:24:35Z</time>
      </trkpt>
      <trkpt lat="47.90355" lon="7.21808">
        <ele>282.7</ele>
        <time>2019-08-09T19:24:36Z</time>
      </trkpt>
      <trkpt lat="47.90357" lon="7.21804">
        <ele>282.7</ele>
        <time>2019-08-09T19:24:37Z</time>
      </trkpt>
      <trkpt lat="47.90359" lon="7.218">
        <ele>282.8</ele>
        <time>2019-08-09T19:24:38Z</time>
      </trkpt>
      <trkpt lat="47.90362" lon="7.21797">
        <ele>282.8</ele>
        <time>2019-08-09T19:24:39Z</time>
      </trkpt>
      <trkpt lat="47.90364" lon="7.21794">
        <ele>282.9</ele>
        <time>2019-08-09T19:24:40Z</time>
      </trkpt>
      <trkpt lat="47.90367" lon="7.21791">
        <ele>283</ele>
        <time>2019-08-09T19:24:41Z</time>
      </trkpt>
      <trkpt lat="47.90371" lon="7.21786">
        <ele>283.1</ele>
        <time>2019-08-09T19:24:43Z</time>
      </trkpt>
      <trkpt lat="47.90372" lon="7.21783">
        <ele>283.2</ele>
        <time>2019-08-09T19:24:44Z</time>
      </trkpt>
      <trkpt lat="47.90375" lon="7.21776">
        <ele>283.4</ele>
        <time>2019-08-09T19:24:46Z</time>
      </trkpt>
      <trkpt lat="47.90377" lon="7.21772">
        <ele>283.6</ele>
        <time>2019-08-09T19:24:47Z</time>
      </trkpt>
      <trkpt lat="47.90377" lon="7.21767">
        <ele>283.7</ele>
        <time>2019-08-09T19:24:48Z</time>
      </trkpt>
      <trkpt lat="47.90375" lon="7.21761">
        <ele>283.6</ele>
        <time>2019-08-09T19:24:50Z</time>
      </trkpt>
      <trkpt lat="47.90372" lon="7.21755">
        <ele>283.6</ele>
        <time>2019-08-09T19:24:52Z</time>
      </trkpt>
      <trkpt lat="47.9037" lon="7.21751">
        <ele>283.6</ele>
        <time>2019-08-09T19:24:54Z</time>
      </trkpt>
      <trkpt lat="47.90368" lon="7.21747">
        <ele>283.6</ele>
        <time>2019-08-09T19:24:57Z</time>
      </trkpt>
      <trkpt lat="47.90367" lon="7.21744">
        <ele>283.6</ele>
        <time>2019-08-09T19:24:59Z</time>
      </trkpt>
      <trkpt lat="47.90362" lon="7.21742">
        <ele>283.6</ele>
        <time>2019-08-09T19:25:01Z</time>
      </trkpt>
      <trkpt lat="47.90359" lon="7.21742">
        <ele>283.5</ele>
        <time>2019-08-09T19:25:02Z</time>
      </trkpt>
      <trkpt lat="47.90355" lon="7.21743">
        <ele>283.4</ele>
        <time>2019-08-09T19:25:03Z</time>
      </trkpt>
      <trkpt lat="47.90352" lon="7.21744">
        <ele>283.4</ele>
        <time>2019-08-09T19:25:04Z</time>
      </trkpt>
      <trkpt lat="47.90348" lon="7.21743">
        <ele>283.3</ele>
        <time>2019-08-09T19:25:05Z</time>
      </trkpt>
      <trkpt lat="47.90345" lon="7.21744">
        <ele>283.3</ele>
        <time>2019-08-09T19:25:06Z</time>
      </trkpt>
      <trkpt lat="47.90342" lon="7.21745">
        <ele>283.3</ele>
        <time>2019-08-09T19:25:07Z</time>
      </trkpt>
      <trkpt lat="47.90339" lon="7.21746">
        <ele>283.2</ele>
        <time>2019-08-09T19:25:08Z</time>
      </trkpt>
      <trkpt lat="47.90335" lon="7.21748">
        <ele>283.2</ele>
        <time>2019-08-09T19:25:09Z</time>
      </trkpt>
      <trkpt lat="47.90331" lon="7.21749">
        <ele>283.1</ele>
        <time>2019-08-09T19:25:10Z</time>
      </trkpt>
      <trkpt lat="47.90326" lon="7.21751">
        <ele>283</ele>
        <time>2019-08-09T19:25:11Z</time>
      </trkpt>
      <trkpt lat="47.90322" lon="7.21753">
        <ele>283</ele>
        <time>2019-08-09T19:25:12Z</time>
      </trkpt>
      <trkpt lat="47.90317" lon="7.21756">
        <ele>282.9</ele>
        <time>2019-08-09T19:25:13Z</time>
      </trkpt>
      <trkpt lat="47.90311" lon="7.21759">
        <ele>282.8</ele>
        <time>2019-08-09T19:25:14Z</time>
      </trkpt>
      <trkpt lat="47.90305" lon="7.21759">
        <ele>282.7</ele>
        <time>2019-08-09T19:25:15Z</time>
      </trkpt>
      <trkpt lat="47.90299" lon="7.21763">
        <ele>282.7</ele>
        <time>2019-08-09T19:25:16Z</time>
      </trkpt>
      <trkpt lat="47.90293" lon="7.21765">
        <ele>282.6</ele>
        <time>2019-08-09T19:25:17Z</time>
      </trkpt>
      <trkpt lat="47.90288" lon="7.21768">
        <ele>282.6</ele>
        <time>2019-08-09T19:25:18Z</time>
      </trkpt>
      <trkpt lat="47.90283" lon="7.2177">
        <ele>282.6</ele>
        <time>2019-08-09T19:25:19Z</time>
      </trkpt>
      <trkpt lat="47.90278" lon="7.21771">
        <ele>282.5</ele>
        <time>2019-08-09T19:25:20Z</time>
      </trkpt>
      <trkpt lat="47.90273" lon="7.21772">
        <ele>282.5</ele>
        <time>2019-08-09T19:25:21Z</time>
      </trkpt>
      <trkpt lat="47.90269" lon="7.21774">
        <ele>282.5</ele>
        <time>2019-08-09T19:25:22Z</time>
      </trkpt>
      <trkpt lat="47.90264" lon="7.21774">
        <ele>282.6</ele>
        <time>2019-08-09T19:25:23Z</time>
      </trkpt>
      <trkpt lat="47.9026" lon="7.21776">
        <ele>282.7</ele>
        <time>2019-08-09T19:25:24Z</time>
      </trkpt>
      <trkpt lat="47.90255" lon="7.21778">
        <ele>282.7</ele>
        <time>2019-08-09T19:25:25Z</time>
      </trkpt>
      <trkpt lat="47.90251" lon="7.2178">
        <ele>282.8</ele>
        <time>2019-08-09T19:25:26Z</time>
      </trkpt>
      <trkpt lat="47.90245" lon="7.21782">
        <ele>282.9</ele>
        <time>2019-08-09T19:25:27Z</time>
      </trkpt>
      <trkpt lat="47.90241" lon="7.21784">
        <ele>283</ele>
        <time>2019-08-09T19:25:28Z</time>
      </trkpt>
      <trkpt lat="47.90236" lon="7.21787">
        <ele>283</ele>
        <time>2019-08-09T19:25:29Z</time>
      </trkpt>
      <trkpt lat="47.90231" lon="7.21789">
        <ele>283.1</ele>
        <time>2019-08-09T19:25:30Z</time>
      </trkpt>
      <trkpt lat="47.90227" lon="7.2179">
        <ele>283.2</ele>
        <time>2019-08-09T19:25:31Z</time>
      </trkpt>
      <trkpt lat="47.90222" lon="7.21793">
        <ele>283.3</ele>
        <time>2019-08-09T19:25:32Z</time>
      </trkpt>
      <trkpt lat="47.90218" lon="7.21795">
        <ele>283.3</ele>
        <time>2019-08-09T19:25:33Z</time>
      </trkpt>
      <trkpt lat="47.90214" lon="7.21797">
        <ele>283.4</ele>
        <time>2019-08-09T19:25:34Z</time>
      </trkpt>
      <trkpt lat="47.9021" lon="7.21799">
        <ele>283.5</ele>
        <time>2019-08-09T19:25:35Z</time>
      </trkpt>
      <trkpt lat="47.90206" lon="7.218">
        <ele>283.5</ele>
        <time>2019-08-09T19:25:36Z</time>
      </trkpt>
      <trkpt lat="47.90201" lon="7.21803">
        <ele>283.6</ele>
        <time>2019-08-09T19:25:37Z</time>
      </trkpt>
      <trkpt lat="47.90197" lon="7.21806">
        <ele>283.7</ele>
        <time>2019-08-09T19:25:38Z</time>
      </trkpt>
      <trkpt lat="47.90193" lon="7.21807">
        <ele>283.7</ele>
        <time>2019-08-09T19:25:39Z</time>
      </trkpt>
      <trkpt lat="47.90188" lon="7.21809">
        <ele>283.8</ele>
        <time>2019-08-09T19:25:40Z</time>
      </trkpt>
      <trkpt lat="47.90184" lon="7.21811">
        <ele>283.9</ele>
        <time>2019-08-09T19:25:41Z</time>
      </trkpt>
      <trkpt lat="47.9018" lon="7.21814">
        <ele>283.9</ele>
        <time>2019-08-09T19:25:42Z</time>
      </trkpt>
      <trkpt lat="47.90176" lon="7.21816">
        <ele>284</ele>
        <time>2019-08-09T19:25:43Z</time>
      </trkpt>
      <trkpt lat="47.90171" lon="7.21819">
        <ele>284.1</ele>
        <time>2019-08-09T19:25:44Z</time>
      </trkpt>
      <trkpt lat="47.90167" lon="7.21823">
        <ele>284.1</ele>
        <time>2019-08-09T19:25:45Z</time>
      </trkpt>
      <trkpt lat="47.90163" lon="7.21827">
        <ele>284.2</ele>
        <time>2019-08-09T19:25:46Z</time>
      </trkpt>
      <trkpt lat="47.9016" lon="7.21832">
        <ele>284.3</ele>
        <time>2019-08-09T19:25:47Z</time>
      </trkpt>
      <trkpt lat="47.90155" lon="7.21835">
        <ele>284.4</ele>
        <time>2019-08-09T19:25:48Z</time>
      </trkpt>
      <trkpt lat="47.90151" lon="7.21839">
        <ele>284.5</ele>
        <time>2019-08-09T19:25:49Z</time>
      </trkpt>
      <trkpt lat="47.90148" lon="7.21842">
        <ele>284.5</ele>
        <time>2019-08-09T19:25:50Z</time>
      </trkpt>
      <trkpt lat="47.90144" lon="7.21846">
        <ele>284.6</ele>
        <time>2019-08-09T19:25:51Z</time>
      </trkpt>
      <trkpt lat="47.90141" lon="7.21849">
        <ele>284.6</ele>
        <time>2019-08-09T19:25:52Z</time>
      </trkpt>
      <trkpt lat="47.90138" lon="7.21852">
        <ele>284.6</ele>
        <time>2019-08-09T19:25:53Z</time>
      </trkpt>
      <trkpt lat="47.90134" lon="7.21856">
        <ele>284.6</ele>
        <time>2019-08-09T19:25:54Z</time>
      </trkpt>
      <trkpt lat="47.90131" lon="7.21859">
        <ele>283.9</ele>
        <time>2019-08-09T19:25:55Z</time>
      </trkpt>
      <trkpt lat="47.90127" lon="7.21863">
        <ele>283.3</ele>
        <time>2019-08-09T19:25:56Z</time>
      </trkpt>
      <trkpt lat="47.90124" lon="7.21867">
        <ele>282.7</ele>
        <time>2019-08-09T19:25:57Z</time>
      </trkpt>
      <trkpt lat="47.90119" lon="7.21871">
        <ele>282.1</ele>
        <time>2019-08-09T19:25:58Z</time>
      </trkpt>
      <trkpt lat="47.90115" lon="7.21875">
        <ele>281.6</ele>
        <time>2019-08-09T19:25:59Z</time>
      </trkpt>
      <trkpt lat="47.9011" lon="7.21879">
        <ele>281.3</ele>
        <time>2019-08-09T19:26:00Z</time>
      </trkpt>
      <trkpt lat="47.90105" lon="7.21883">
        <ele>281</ele>
        <time>2019-08-09T19:26:01Z</time>
      </trkpt>
      <trkpt lat="47.901" lon="7.21887">
        <ele>280.8</ele>
        <time>2019-08-09T19:26:02Z</time>
      </trkpt>
      <trkpt lat="47.90095" lon="7.21891">
        <ele>280.6</ele>
        <time>2019-08-09T19:26:03Z</time>
      </trkpt>
      <trkpt lat="47.90091" lon="7.21894">
        <ele>280.5</ele>
        <time>2019-08-09T19:26:04Z</time>
      </trkpt>
      <trkpt lat="47.90087" lon="7.21898">
        <ele>280.3</ele>
        <time>2019-08-09T19:26:05Z</time>
      </trkpt>
      <trkpt lat="47.90083" lon="7.21901">
        <ele>280.2</ele>
        <time>2019-08-09T19:26:06Z</time>
      </trkpt>
      <trkpt lat="47.90079" lon="7.21905">
        <ele>280.1</ele>
        <time>2019-08-09T19:26:07Z</time>
      </trkpt>
      <trkpt lat="47.90074" lon="7.21911">
        <ele>279.3</ele>
        <time>2019-08-09T19:26:08Z</time>
      </trkpt>
      <trkpt lat="47.90069" lon="7.21916">
        <ele>278.6</ele>
        <time>2019-08-09T19:26:09Z</time>
      </trkpt>
      <trkpt lat="47.90063" lon="7.21921">
        <ele>278.3</ele>
        <time>2019-08-09T19:26:10Z</time>
      </trkpt>
      <trkpt lat="47.90058" lon="7.21926">
        <ele>278.1</ele>
        <time>2019-08-09T19:26:11Z</time>
      </trkpt>
      <trkpt lat="47.90053" lon="7.21931">
        <ele>277.9</ele>
        <time>2019-08-09T19:26:12Z</time>
      </trkpt>
      <trkpt lat="47.90048" lon="7.21936">
        <ele>277.8</ele>
        <time>2019-08-09T19:26:13Z</time>
      </trkpt>
      <trkpt lat="47.90043" lon="7.2194">
        <ele>277.7</ele>
        <time>2019-08-09T19:26:14Z</time>
      </trkpt>
      <trkpt lat="47.90038" lon="7.21945">
        <ele>277.7</ele>
        <time>2019-08-09T19:26:15Z</time>
      </trkpt>
      <trkpt lat="47.90033" lon="7.21949">
        <ele>277.6</ele>
        <time>2019-08-09T19:26:16Z</time>
      </trkpt>
      <trkpt lat="47.90028" lon="7.21954">
        <ele>277.6</ele>
        <time>2019-08-09T19:26:17Z</time>
      </trkpt>
      <trkpt lat="47.90022" lon="7.21958">
        <ele>277.6</ele>
        <time>2019-08-09T19:26:18Z</time>
      </trkpt>
      <trkpt lat="47.90018" lon="7.21962">
        <ele>277.7</ele>
        <time>2019-08-09T19:26:19Z</time>
      </trkpt>
      <trkpt lat="47.90013" lon="7.21967">
        <ele>277.7</ele>
        <time>2019-08-09T19:26:20Z</time>
      </trkpt>
      <trkpt lat="47.90008" lon="7.21971">
        <ele>277.7</ele>
        <time>2019-08-09T19:26:21Z</time>
      </trkpt>
      <trkpt lat="47.90003" lon="7.21976">
        <ele>277.7</ele>
        <time>2019-08-09T19:26:22Z</time>
      </trkpt>
      <trkpt lat="47.89999" lon="7.2198">
        <ele>277.7</ele>
        <time>2019-08-09T19:26:23Z</time>
      </trkpt>
      <trkpt lat="47.89995" lon="7.21986">
        <ele>277.7</ele>
        <time>2019-08-09T19:26:24Z</time>
      </trkpt>
      <trkpt lat="47.89991" lon="7.21991">
        <ele>277.8</ele>
        <time>2019-08-09T19:26:25Z</time>
      </trkpt>
      <trkpt lat="47.89986" lon="7.21994">
        <ele>277.8</ele>
        <time>2019-08-09T19:26:26Z</time>
      </trkpt>
      <trkpt lat="47.89981" lon="7.21999">
        <ele>277.8</ele>
        <time>2019-08-09T19:26:27Z</time>
      </trkpt>
      <trkpt lat="47.89975" lon="7.22001">
        <ele>277.8</ele>
        <time>2019-08-09T19:26:28Z</time>
      </trkpt>
      <trkpt lat="47.8997" lon="7.22004">
        <ele>277.7</ele>
        <time>2019-08-09T19:26:29Z</time>
      </trkpt>
      <trkpt lat="47.89965" lon="7.22006">
        <ele>277.7</ele>
        <time>2019-08-09T19:26:30Z</time>
      </trkpt>
      <trkpt lat="47.89962" lon="7.22006">
        <ele>277.6</ele>
        <time>2019-08-09T19:26:31Z</time>
      </trkpt>
      <trkpt lat="47.89958" lon="7.22003">
        <ele>277.6</ele>
        <time>2019-08-09T19:26:33Z</time>
      </trkpt>
      <trkpt lat="47.89956" lon="7.21999">
        <ele>277.6</ele>
        <time>2019-08-09T19:26:36Z</time>
      </trkpt>
      <trkpt lat="47.89954" lon="7.21995">
        <ele>277.6</ele>
        <time>2019-08-09T19:26:40Z</time>
      </trkpt>
      <trkpt lat="47.89949" lon="7.21996">
        <ele>277.5</ele>
        <time>2019-08-09T19:26:43Z</time>
      </trkpt>
      <trkpt lat="47.89946" lon="7.21997">
        <ele>277.5</ele>
        <time>2019-08-09T19:26:44Z</time>
      </trkpt>
      <trkpt lat="47.89943" lon="7.21998">
        <ele>277.5</ele>
        <time>2019-08-09T19:26:45Z</time>
      </trkpt>
      <trkpt lat="47.8994" lon="7.22">
        <ele>277.5</ele>
        <time>2019-08-09T19:26:46Z</time>
      </trkpt>
      <trkpt lat="47.89938" lon="7.22002">
        <ele>277.5</ele>
        <time>2019-08-09T19:26:47Z</time>
      </trkpt>
      <trkpt lat="47.89934" lon="7.22006">
        <ele>277.4</ele>
        <time>2019-08-09T19:26:49Z</time>
      </trkpt>
      <trkpt lat="47.89936" lon="7.22015">
        <ele>277.4</ele>
        <time>2019-08-09T19:30:39Z</time>
      </trkpt>
      <trkpt lat="47.89931" lon="7.22023">
        <ele>277.4</ele>
        <time>2019-08-09T19:30:41Z</time>
      </trkpt>
      <trkpt lat="47.89929" lon="7.22027">
        <ele>277.4</ele>
        <time>2019-08-09T19:30:42Z</time>
      </trkpt>
      <trkpt lat="47.89926" lon="7.22032">
        <ele>277.4</ele>
        <time>2019-08-09T19:30:43Z</time>
      </trkpt>
      <trkpt lat="47.89923" lon="7.22035">
        <ele>277.4</ele>
        <time>2019-08-09T19:30:44Z</time>
      </trkpt>
      <trkpt lat="47.8992" lon="7.2204">
        <ele>277.4</ele>
        <time>2019-08-09T19:30:45Z</time>
      </trkpt>
      <trkpt lat="47.89918" lon="7.22044">
        <ele>277.4</ele>
        <time>2019-08-09T19:30:46Z</time>
      </trkpt>
      <trkpt lat="47.89915" lon="7.22047">
        <ele>277.4</ele>
        <time>2019-08-09T19:30:47Z</time>
      </trkpt>
      <trkpt lat="47.89913" lon="7.22052">
        <ele>277.4</ele>
        <time>2019-08-09T19:30:48Z</time>
      </trkpt>
      <trkpt lat="47.8991" lon="7.22056">
        <ele>277.4</ele>
        <time>2019-08-09T19:30:49Z</time>
      </trkpt>
      <trkpt lat="47.89906" lon="7.22057">
        <ele>277.4</ele>
        <time>2019-08-09T19:30:50Z</time>
      </trkpt>
      <trkpt lat="47.89903" lon="7.2206">
        <ele>277.4</ele>
        <time>2019-08-09T19:30:51Z</time>
      </trkpt>
      <trkpt lat="47.89899" lon="7.22062">
        <ele>277.4</ele>
        <time>2019-08-09T19:30:52Z</time>
      </trkpt>
      <trkpt lat="47.89896" lon="7.22064">
        <ele>277.3</ele>
        <time>2019-08-09T19:30:53Z</time>
      </trkpt>
      <trkpt lat="47.89893" lon="7.22067">
        <ele>277.2</ele>
        <time>2019-08-09T19:30:54Z</time>
      </trkpt>
      <trkpt lat="47.89889" lon="7.2207">
        <ele>277.1</ele>
        <time>2019-08-09T19:30:55Z</time>
      </trkpt>
      <trkpt lat="47.89885" lon="7.22074">
        <ele>277</ele>
        <time>2019-08-09T19:30:56Z</time>
      </trkpt>
      <trkpt lat="47.89882" lon="7.22076">
        <ele>276.9</ele>
        <time>2019-08-09T19:30:57Z</time>
      </trkpt>
      <trkpt lat="47.89879" lon="7.22079">
        <ele>276.8</ele>
        <time>2019-08-09T19:30:58Z</time>
      </trkpt>
      <trkpt lat="47.89876" lon="7.22081">
        <ele>276.7</ele>
        <time>2019-08-09T19:30:59Z</time>
      </trkpt>
      <trkpt lat="47.89872" lon="7.22084">
        <ele>276.6</ele>
        <time>2019-08-09T19:31:00Z</time>
      </trkpt>
      <trkpt lat="47.89868" lon="7.22087">
        <ele>276.5</ele>
        <time>2019-08-09T19:31:01Z</time>
      </trkpt>
      <trkpt lat="47.89865" lon="7.2209">
        <ele>276.4</ele>
        <time>2019-08-09T19:31:02Z</time>
      </trkpt>
      <trkpt lat="47.89861" lon="7.22093">
        <ele>276.3</ele>
        <time>2019-08-09T19:31:03Z</time>
      </trkpt>
      <trkpt lat="47.89857" lon="7.22096">
        <ele>276.2</ele>
        <time>2019-08-09T19:31:04Z</time>
      </trkpt>
      <trkpt lat="47.89854" lon="7.221">
        <ele>276.1</ele>
        <time>2019-08-09T19:31:05Z</time>
      </trkpt>
      <trkpt lat="47.89849" lon="7.22105">
        <ele>275.9</ele>
        <time>2019-08-09T19:31:06Z</time>
      </trkpt>
      <trkpt lat="47.89843" lon="7.22109">
        <ele>275.8</ele>
        <time>2019-08-09T19:31:07Z</time>
      </trkpt>
      <trkpt lat="47.89839" lon="7.22113">
        <ele>275.7</ele>
        <time>2019-08-09T19:31:08Z</time>
      </trkpt>
      <trkpt lat="47.89834" lon="7.22118">
        <ele>275.6</ele>
        <time>2019-08-09T19:31:09Z</time>
      </trkpt>
      <trkpt lat="47.8983" lon="7.22121">
        <ele>275.5</ele>
        <time>2019-08-09T19:31:10Z</time>
      </trkpt>
      <trkpt lat="47.89826" lon="7.22126">
        <ele>275.3</ele>
        <time>2019-08-09T19:31:11Z</time>
      </trkpt>
      <trkpt lat="47.89823" lon="7.22129">
        <ele>275.2</ele>
        <time>2019-08-09T19:31:12Z</time>
      </trkpt>
      <trkpt lat="47.89819" lon="7.22133">
        <ele>275.1</ele>
        <time>2019-08-09T19:31:13Z</time>
      </trkpt>
      <trkpt lat="47.89815" lon="7.22138">
        <ele>275</ele>
        <time>2019-08-09T19:31:14Z</time>
      </trkpt>
      <trkpt lat="47.89811" lon="7.22143">
        <ele>274.9</ele>
        <time>2019-08-09T19:31:15Z</time>
      </trkpt>
      <trkpt lat="47.89806" lon="7.22147">
        <ele>274.8</ele>
        <time>2019-08-09T19:31:16Z</time>
      </trkpt>
      <trkpt lat="47.89802" lon="7.22151">
        <ele>274.7</ele>
        <time>2019-08-09T19:31:17Z</time>
      </trkpt>
      <trkpt lat="47.89797" lon="7.22155">
        <ele>274.7</ele>
        <time>2019-08-09T19:31:18Z</time>
      </trkpt>
      <trkpt lat="47.89792" lon="7.2216">
        <ele>274.6</ele>
        <time>2019-08-09T19:31:19Z</time>
      </trkpt>
      <trkpt lat="47.89787" lon="7.22164">
        <ele>274.5</ele>
        <time>2019-08-09T19:31:20Z</time>
      </trkpt>
      <trkpt lat="47.89782" lon="7.22168">
        <ele>274.5</ele>
        <time>2019-08-09T19:31:21Z</time>
      </trkpt>
      <trkpt lat="47.89778" lon="7.22171">
        <ele>274.4</ele>
        <time>2019-08-09T19:31:22Z</time>
      </trkpt>
      <trkpt lat="47.89774" lon="7.22174">
        <ele>274.3</ele>
        <time>2019-08-09T19:31:23Z</time>
      </trkpt>
      <trkpt lat="47.89769" lon="7.22177">
        <ele>274.2</ele>
        <time>2019-08-09T19:31:24Z</time>
      </trkpt>
      <trkpt lat="47.89765" lon="7.2218">
        <ele>274.2</ele>
        <time>2019-08-09T19:31:25Z</time>
      </trkpt>
      <trkpt lat="47.89761" lon="7.22183">
        <ele>274.1</ele>
        <time>2019-08-09T19:31:26Z</time>
      </trkpt>
      <trkpt lat="47.89757" lon="7.22187">
        <ele>274</ele>
        <time>2019-08-09T19:31:27Z</time>
      </trkpt>
      <trkpt lat="47.89753" lon="7.22191">
        <ele>273.9</ele>
        <time>2019-08-09T19:31:28Z</time>
      </trkpt>
      <trkpt lat="47.89749" lon="7.22194">
        <ele>273.8</ele>
        <time>2019-08-09T19:31:29Z</time>
      </trkpt>
      <trkpt lat="47.89744" lon="7.22197">
        <ele>273.8</ele>
        <time>2019-08-09T19:31:30Z</time>
      </trkpt>
      <trkpt lat="47.8974" lon="7.22201">
        <ele>273.7</ele>
        <time>2019-08-09T19:31:31Z</time>
      </trkpt>
      <trkpt lat="47.89736" lon="7.22205">
        <ele>273.6</ele>
        <time>2019-08-09T19:31:32Z</time>
      </trkpt>
      <trkpt lat="47.89733" lon="7.22209">
        <ele>273.6</ele>
        <time>2019-08-09T19:31:33Z</time>
      </trkpt>
      <trkpt lat="47.89728" lon="7.22213">
        <ele>273.5</ele>
        <time>2019-08-09T19:31:34Z</time>
      </trkpt>
      <trkpt lat="47.89723" lon="7.22216">
        <ele>273.4</ele>
        <time>2019-08-09T19:31:35Z</time>
      </trkpt>
      <trkpt lat="47.89718" lon="7.2222">
        <ele>273.3</ele>
        <time>2019-08-09T19:31:36Z</time>
      </trkpt>
      <trkpt lat="47.89713" lon="7.22224">
        <ele>273.2</ele>
        <time>2019-08-09T19:31:37Z</time>
      </trkpt>
      <trkpt lat="47.89709" lon="7.22227">
        <ele>273.1</ele>
        <time>2019-08-09T19:31:38Z</time>
      </trkpt>
      <trkpt lat="47.89705" lon="7.22232">
        <ele>273.1</ele>
        <time>2019-08-09T19:31:39Z</time>
      </trkpt>
      <trkpt lat="47.897" lon="7.22236">
        <ele>273</ele>
        <time>2019-08-09T19:31:40Z</time>
      </trkpt>
      <trkpt lat="47.89696" lon="7.22239">
        <ele>272.9</ele>
        <time>2019-08-09T19:31:41Z</time>
      </trkpt>
      <trkpt lat="47.89692" lon="7.22242">
        <ele>272.8</ele>
        <time>2019-08-09T19:31:42Z</time>
      </trkpt>
      <trkpt lat="47.89687" lon="7.22246">
        <ele>272.8</ele>
        <time>2019-08-09T19:31:43Z</time>
      </trkpt>
      <trkpt lat="47.89682" lon="7.22251">
        <ele>272.7</ele>
        <time>2019-08-09T19:31:44Z</time>
      </trkpt>
      <trkpt lat="47.89677" lon="7.22256">
        <ele>272.6</ele>
        <time>2019-08-09T19:31:45Z</time>
      </trkpt>
      <trkpt lat="47.89672" lon="7.22259">
        <ele>272.6</ele>
        <time>2019-08-09T19:31:46Z</time>
      </trkpt>
      <trkpt lat="47.89668" lon="7.22264">
        <ele>272.5</ele>
        <time>2019-08-09T19:31:47Z</time>
      </trkpt>
      <trkpt lat="47.89663" lon="7.22268">
        <ele>272.5</ele>
        <time>2019-08-09T19:31:48Z</time>
      </trkpt>
      <trkpt lat="47.89658" lon="7.2227">
        <ele>272.4</ele>
        <time>2019-08-09T19:31:49Z</time>
      </trkpt>
      <trkpt lat="47.89654" lon="7.22274">
        <ele>272.4</ele>
        <time>2019-08-09T19:31:50Z</time>
      </trkpt>
      <trkpt lat="47.89649" lon="7.22279">
        <ele>272.3</ele>
        <time>2019-08-09T19:31:51Z</time>
      </trkpt>
      <trkpt lat="47.89642" lon="7.22283">
        <ele>272.2</ele>
        <time>2019-08-09T19:31:52Z</time>
      </trkpt>
      <trkpt lat="47.89638" lon="7.22287">
        <ele>272.1</ele>
        <time>2019-08-09T19:31:53Z</time>
      </trkpt>
      <trkpt lat="47.89634" lon="7.2229">
        <ele>272</ele>
        <time>2019-08-09T19:31:54Z</time>
      </trkpt>
      <trkpt lat="47.89629" lon="7.22293">
        <ele>271.9</ele>
        <time>2019-08-09T19:31:55Z</time>
      </trkpt>
      <trkpt lat="47.89625" lon="7.22296">
        <ele>271.9</ele>
        <time>2019-08-09T19:31:56Z</time>
      </trkpt>
      <trkpt lat="47.89621" lon="7.22299">
        <ele>271.9</ele>
        <time>2019-08-09T19:31:57Z</time>
      </trkpt>
      <trkpt lat="47.89616" lon="7.22303">
        <ele>271.8</ele>
        <time>2019-08-09T19:31:58Z</time>
      </trkpt>
      <trkpt lat="47.89611" lon="7.22306">
        <ele>271.8</ele>
        <time>2019-08-09T19:31:59Z</time>
      </trkpt>
      <trkpt lat="47.89607" lon="7.22311">
        <ele>271.8</ele>
        <time>2019-08-09T19:32:00Z</time>
      </trkpt>
      <trkpt lat="47.89602" lon="7.22316">
        <ele>271.8</ele>
        <time>2019-08-09T19:32:01Z</time>
      </trkpt>
      <trkpt lat="47.89597" lon="7.22321">
        <ele>271.8</ele>
        <time>2019-08-09T19:32:02Z</time>
      </trkpt>
      <trkpt lat="47.89594" lon="7.22325">
        <ele>271.8</ele>
        <time>2019-08-09T19:32:03Z</time>
      </trkpt>
      <trkpt lat="47.89589" lon="7.2233">
        <ele>271.7</ele>
        <time>2019-08-09T19:32:04Z</time>
      </trkpt>
      <trkpt lat="47.89584" lon="7.22333">
        <ele>271.7</ele>
        <time>2019-08-09T19:32:05Z</time>
      </trkpt>
      <trkpt lat="47.89578" lon="7.22337">
        <ele>271.7</ele>
        <time>2019-08-09T19:32:06Z</time>
      </trkpt>
      <trkpt lat="47.89573" lon="7.2234">
        <ele>271.7</ele>
        <time>2019-08-09T19:32:07Z</time>
      </trkpt>
      <trkpt lat="47.89569" lon="7.22342">
        <ele>271.6</ele>
        <time>2019-08-09T19:32:08Z</time>
      </trkpt>
      <trkpt lat="47.89564" lon="7.22346">
        <ele>271.6</ele>
        <time>2019-08-09T19:32:09Z</time>
      </trkpt>
      <trkpt lat="47.89561" lon="7.22351">
        <ele>271.5</ele>
        <time>2019-08-09T19:32:10Z</time>
      </trkpt>
      <trkpt lat="47.89556" lon="7.22355">
        <ele>271.5</ele>
        <time>2019-08-09T19:32:11Z</time>
      </trkpt>
      <trkpt lat="47.89552" lon="7.2236">
        <ele>271.4</ele>
        <time>2019-08-09T19:32:12Z</time>
      </trkpt>
      <trkpt lat="47.89548" lon="7.22365">
        <ele>271.4</ele>
        <time>2019-08-09T19:32:13Z</time>
      </trkpt>
      <trkpt lat="47.89543" lon="7.22369">
        <ele>271.4</ele>
        <time>2019-08-09T19:32:14Z</time>
      </trkpt>
      <trkpt lat="47.89539" lon="7.22374">
        <ele>271.2</ele>
        <time>2019-08-09T19:32:15Z</time>
      </trkpt>
      <trkpt lat="47.89534" lon="7.22379">
        <ele>271.1</ele>
        <time>2019-08-09T19:32:16Z</time>
      </trkpt>
      <trkpt lat="47.8953" lon="7.22383">
        <ele>271</ele>
        <time>2019-08-09T19:32:17Z</time>
      </trkpt>
      <trkpt lat="47.89527" lon="7.22386">
        <ele>270.9</ele>
        <time>2019-08-09T19:32:18Z</time>
      </trkpt>
      <trkpt lat="47.89522" lon="7.2239">
        <ele>270.8</ele>
        <time>2019-08-09T19:32:19Z</time>
      </trkpt>
      <trkpt lat="47.89518" lon="7.22394">
        <ele>270.7</ele>
        <time>2019-08-09T19:32:20Z</time>
      </trkpt>
      <trkpt lat="47.89513" lon="7.22398">
        <ele>270.6</ele>
        <time>2019-08-09T19:32:21Z</time>
      </trkpt>
      <trkpt lat="47.89509" lon="7.22402">
        <ele>270.5</ele>
        <time>2019-08-09T19:32:22Z</time>
      </trkpt>
      <trkpt lat="47.89505" lon="7.22406">
        <ele>270.4</ele>
        <time>2019-08-09T19:32:23Z</time>
      </trkpt>
      <trkpt lat="47.895" lon="7.22409">
        <ele>270.2</ele>
        <time>2019-08-09T19:32:24Z</time>
      </trkpt>
      <trkpt lat="47.89495" lon="7.22413">
        <ele>270.1</ele>
        <time>2019-08-09T19:32:25Z</time>
      </trkpt>
      <trkpt lat="47.89491" lon="7.22419">
        <ele>270</ele>
        <time>2019-08-09T19:32:26Z</time>
      </trkpt>
      <trkpt lat="47.89486" lon="7.22423">
        <ele>269.8</ele>
        <time>2019-08-09T19:32:27Z</time>
      </trkpt>
      <trkpt lat="47.89481" lon="7.22427">
        <ele>269.7</ele>
        <time>2019-08-09T19:32:28Z</time>
      </trkpt>
      <trkpt lat="47.89477" lon="7.22432">
        <ele>269.6</ele>
        <time>2019-08-09T19:32:29Z</time>
      </trkpt>
      <trkpt lat="47.89472" lon="7.22436">
        <ele>269.5</ele>
        <time>2019-08-09T19:32:30Z</time>
      </trkpt>
      <trkpt lat="47.89467" lon="7.22439">
        <ele>269.3</ele>
        <time>2019-08-09T19:32:31Z</time>
      </trkpt>
      <trkpt lat="47.89462" lon="7.22443">
        <ele>269.2</ele>
        <time>2019-08-09T19:32:32Z</time>
      </trkpt>
      <trkpt lat="47.89458" lon="7.22447">
        <ele>269.1</ele>
        <time>2019-08-09T19:32:33Z</time>
      </trkpt>
      <trkpt lat="47.89454" lon="7.22451">
        <ele>269</ele>
        <time>2019-08-09T19:32:34Z</time>
      </trkpt>
      <trkpt lat="47.8945" lon="7.22455">
        <ele>268.9</ele>
        <time>2019-08-09T19:32:35Z</time>
      </trkpt>
      <trkpt lat="47.89447" lon="7.22459">
        <ele>268.8</ele>
        <time>2019-08-09T19:32:36Z</time>
      </trkpt>
      <trkpt lat="47.89442" lon="7.22464">
        <ele>268.7</ele>
        <time>2019-08-09T19:32:37Z</time>
      </trkpt>
      <trkpt lat="47.89438" lon="7.22467">
        <ele>268.6</ele>
        <time>2019-08-09T19:32:38Z</time>
      </trkpt>
      <trkpt lat="47.89433" lon="7.22471">
        <ele>268.5</ele>
        <time>2019-08-09T19:32:39Z</time>
      </trkpt>
      <trkpt lat="47.89429" lon="7.22474">
        <ele>268.4</ele>
        <time>2019-08-09T19:32:40Z</time>
      </trkpt>
      <trkpt lat="47.89424" lon="7.22477">
        <ele>268.3</ele>
        <time>2019-08-09T19:32:41Z</time>
      </trkpt>
      <trkpt lat="47.89419" lon="7.22482">
        <ele>268.2</ele>
        <time>2019-08-09T19:32:42Z</time>
      </trkpt>
      <trkpt lat="47.89414" lon="7.22486">
        <ele>268</ele>
        <time>2019-08-09T19:32:43Z</time>
      </trkpt>
      <trkpt lat="47.89409" lon="7.2249">
        <ele>267.8</ele>
        <time>2019-08-09T19:32:44Z</time>
      </trkpt>
      <trkpt lat="47.89405" lon="7.22495">
        <ele>267.7</ele>
        <time>2019-08-09T19:32:45Z</time>
      </trkpt>
      <trkpt lat="47.89401" lon="7.22499">
        <ele>267.5</ele>
        <time>2019-08-09T19:32:46Z</time>
      </trkpt>
      <trkpt lat="47.89398" lon="7.22503">
        <ele>267.4</ele>
        <time>2019-08-09T19:32:47Z</time>
      </trkpt>
      <trkpt lat="47.89394" lon="7.22507">
        <ele>267.2</ele>
        <time>2019-08-09T19:32:48Z</time>
      </trkpt>
      <trkpt lat="47.8939" lon="7.22512">
        <ele>267.1</ele>
        <time>2019-08-09T19:32:49Z</time>
      </trkpt>
      <trkpt lat="47.89387" lon="7.22515">
        <ele>267</ele>
        <time>2019-08-09T19:32:50Z</time>
      </trkpt>
      <trkpt lat="47.89383" lon="7.2252">
        <ele>266.8</ele>
        <time>2019-08-09T19:32:51Z</time>
      </trkpt>
      <trkpt lat="47.8938" lon="7.22523">
        <ele>266.7</ele>
        <time>2019-08-09T19:32:52Z</time>
      </trkpt>
      <trkpt lat="47.89377" lon="7.22526">
        <ele>266.7</ele>
        <time>2019-08-09T19:32:53Z</time>
      </trkpt>
      <trkpt lat="47.89374" lon="7.22528">
        <ele>266.6</ele>
        <time>2019-08-09T19:32:54Z</time>
      </trkpt>
      <trkpt lat="47.8937" lon="7.22531">
        <ele>266.5</ele>
        <time>2019-08-09T19:32:55Z</time>
      </trkpt>
      <trkpt lat="47.89365" lon="7.22534">
        <ele>266.5</ele>
        <time>2019-08-09T19:32:56Z</time>
      </trkpt>
      <trkpt lat="47.8936" lon="7.22537">
        <ele>266.4</ele>
        <time>2019-08-09T19:32:57Z</time>
      </trkpt>
      <trkpt lat="47.89356" lon="7.22542">
        <ele>266.4</ele>
        <time>2019-08-09T19:32:58Z</time>
      </trkpt>
      <trkpt lat="47.89352" lon="7.22546">
        <ele>266.4</ele>
        <time>2019-08-09T19:32:59Z</time>
      </trkpt>
      <trkpt lat="47.89347" lon="7.2255">
        <ele>266.4</ele>
        <time>2019-08-09T19:33:00Z</time>
      </trkpt>
      <trkpt lat="47.89342" lon="7.22554">
        <ele>266.4</ele>
        <time>2019-08-09T19:33:01Z</time>
      </trkpt>
      <trkpt lat="47.89336" lon="7.22556">
        <ele>266.5</ele>
        <time>2019-08-09T19:33:02Z</time>
      </trkpt>
      <trkpt lat="47.89332" lon="7.22559">
        <ele>266.5</ele>
        <time>2019-08-09T19:33:03Z</time>
      </trkpt>
      <trkpt lat="47.89327" lon="7.22563">
        <ele>266.6</ele>
        <time>2019-08-09T19:33:04Z</time>
      </trkpt>
      <trkpt lat="47.89323" lon="7.22567">
        <ele>266.7</ele>
        <time>2019-08-09T19:33:05Z</time>
      </trkpt>
      <trkpt lat="47.89319" lon="7.2257">
        <ele>266.8</ele>
        <time>2019-08-09T19:33:06Z</time>
      </trkpt>
      <trkpt lat="47.89314" lon="7.22573">
        <ele>266.9</ele>
        <time>2019-08-09T19:33:07Z</time>
      </trkpt>
      <trkpt lat="47.89309" lon="7.22576">
        <ele>267</ele>
        <time>2019-08-09T19:33:08Z</time>
      </trkpt>
      <trkpt lat="47.89304" lon="7.22581">
        <ele>267.1</ele>
        <time>2019-08-09T19:33:09Z</time>
      </trkpt>
      <trkpt lat="47.89299" lon="7.22585">
        <ele>267.3</ele>
        <time>2019-08-09T19:33:10Z</time>
      </trkpt>
      <trkpt lat="47.89295" lon="7.22587">
        <ele>267.3</ele>
        <time>2019-08-09T19:33:11Z</time>
      </trkpt>
      <trkpt lat="47.89291" lon="7.22589">
        <ele>267.4</ele>
        <time>2019-08-09T19:33:12Z</time>
      </trkpt>
      <trkpt lat="47.89286" lon="7.22592">
        <ele>267.5</ele>
        <time>2019-08-09T19:33:13Z</time>
      </trkpt>
      <trkpt lat="47.89283" lon="7.22594">
        <ele>267.5</ele>
        <time>2019-08-09T19:33:14Z</time>
      </trkpt>
      <trkpt lat="47.8928" lon="7.22594">
        <ele>267.4</ele>
        <time>2019-08-09T19:33:15Z</time>
      </trkpt>
      <trkpt lat="47.89276" lon="7.22595">
        <ele>267.4</ele>
        <time>2019-08-09T19:33:16Z</time>
      </trkpt>
      <trkpt lat="47.89271" lon="7.22596">
        <ele>267.4</ele>
        <time>2019-08-09T19:33:17Z</time>
      </trkpt>
      <trkpt lat="47.89267" lon="7.22596">
        <ele>267.3</ele>
        <time>2019-08-09T19:33:18Z</time>
      </trkpt>
      <trkpt lat="47.89264" lon="7.22597">
        <ele>267.3</ele>
        <time>2019-08-09T19:33:19Z</time>
      </trkpt>
      <trkpt lat="47.89261" lon="7.22597">
        <ele>267.3</ele>
        <time>2019-08-09T19:33:20Z</time>
      </trkpt>
      <trkpt lat="47.89258" lon="7.22599">
        <ele>267.2</ele>
        <time>2019-08-09T19:33:21Z</time>
      </trkpt>
      <trkpt lat="47.89255" lon="7.226">
        <ele>267.2</ele>
        <time>2019-08-09T19:33:22Z</time>
      </trkpt>
      <trkpt lat="47.89251" lon="7.226">
        <ele>267.2</ele>
        <time>2019-08-09T19:33:23Z</time>
      </trkpt>
      <trkpt lat="47.89247" lon="7.22601">
        <ele>267.1</ele>
        <time>2019-08-09T19:33:24Z</time>
      </trkpt>
      <trkpt lat="47.89243" lon="7.22602">
        <ele>267.1</ele>
        <time>2019-08-09T19:33:25Z</time>
      </trkpt>
      <trkpt lat="47.89238" lon="7.22601">
        <ele>267.1</ele>
        <time>2019-08-09T19:33:26Z</time>
      </trkpt>
      <trkpt lat="47.89234" lon="7.226">
        <ele>267.1</ele>
        <time>2019-08-09T19:33:27Z</time>
      </trkpt>
      <trkpt lat="47.89229" lon="7.22601">
        <ele>267.1</ele>
        <time>2019-08-09T19:33:28Z</time>
      </trkpt>
      <trkpt lat="47.89225" lon="7.22601">
        <ele>267.1</ele>
        <time>2019-08-09T19:33:29Z</time>
      </trkpt>
      <trkpt lat="47.89219" lon="7.22601">
        <ele>267.2</ele>
        <time>2019-08-09T19:33:31Z</time>
      </trkpt>
      <trkpt lat="47.89215" lon="7.226">
        <ele>267.3</ele>
        <time>2019-08-09T19:33:32Z</time>
      </trkpt>
      <trkpt lat="47.8921" lon="7.22599">
        <ele>267.3</ele>
        <time>2019-08-09T19:33:33Z</time>
      </trkpt>
      <trkpt lat="47.89205" lon="7.22598">
        <ele>267.4</ele>
        <time>2019-08-09T19:33:34Z</time>
      </trkpt>
      <trkpt lat="47.89201" lon="7.22596">
        <ele>267.4</ele>
        <time>2019-08-09T19:33:35Z</time>
      </trkpt>
      <trkpt lat="47.89196" lon="7.22594">
        <ele>267.5</ele>
        <time>2019-08-09T19:33:36Z</time>
      </trkpt>
      <trkpt lat="47.89191" lon="7.22592">
        <ele>267.5</ele>
        <time>2019-08-09T19:33:37Z</time>
      </trkpt>
      <trkpt lat="47.89188" lon="7.2259">
        <ele>267.5</ele>
        <time>2019-08-09T19:33:38Z</time>
      </trkpt>
      <trkpt lat="47.89184" lon="7.22589">
        <ele>267.6</ele>
        <time>2019-08-09T19:33:39Z</time>
      </trkpt>
      <trkpt lat="47.8918" lon="7.22587">
        <ele>267.6</ele>
        <time>2019-08-09T19:33:40Z</time>
      </trkpt>
      <trkpt lat="47.89177" lon="7.22586">
        <ele>267.6</ele>
        <time>2019-08-09T19:33:41Z</time>
      </trkpt>
      <trkpt lat="47.89172" lon="7.22586">
        <ele>267.6</ele>
        <time>2019-08-09T19:33:42Z</time>
      </trkpt>
      <trkpt lat="47.89168" lon="7.22587">
        <ele>267.7</ele>
        <time>2019-08-09T19:33:43Z</time>
      </trkpt>
      <trkpt lat="47.89163" lon="7.22588">
        <ele>267.7</ele>
        <time>2019-08-09T19:33:44Z</time>
      </trkpt>
      <trkpt lat="47.89159" lon="7.22588">
        <ele>267.8</ele>
        <time>2019-08-09T19:33:45Z</time>
      </trkpt>
      <trkpt lat="47.89156" lon="7.22587">
        <ele>267.8</ele>
        <time>2019-08-09T19:33:46Z</time>
      </trkpt>
      <trkpt lat="47.89152" lon="7.22588">
        <ele>267.8</ele>
        <time>2019-08-09T19:33:47Z</time>
      </trkpt>
      <trkpt lat="47.89148" lon="7.22588">
        <ele>267.9</ele>
        <time>2019-08-09T19:33:48Z</time>
      </trkpt>
      <trkpt lat="47.89144" lon="7.22587">
        <ele>268</ele>
        <time>2019-08-09T19:33:49Z</time>
      </trkpt>
      <trkpt lat="47.8914" lon="7.22587">
        <ele>268</ele>
        <time>2019-08-09T19:33:50Z</time>
      </trkpt>
      <trkpt lat="47.89136" lon="7.22588">
        <ele>268.1</ele>
        <time>2019-08-09T19:33:51Z</time>
      </trkpt>
      <trkpt lat="47.89133" lon="7.22588">
        <ele>268.2</ele>
        <time>2019-08-09T19:33:52Z</time>
      </trkpt>
      <trkpt lat="47.8913" lon="7.22587">
        <ele>268.3</ele>
        <time>2019-08-09T19:33:53Z</time>
      </trkpt>
      <trkpt lat="47.89126" lon="7.22587">
        <ele>268.4</ele>
        <time>2019-08-09T19:33:54Z</time>
      </trkpt>
      <trkpt lat="47.89122" lon="7.22586">
        <ele>268.5</ele>
        <time>2019-08-09T19:33:55Z</time>
      </trkpt>
      <trkpt lat="47.89118" lon="7.22587">
        <ele>268.7</ele>
        <time>2019-08-09T19:33:56Z</time>
      </trkpt>
      <trkpt lat="47.89113" lon="7.22589">
        <ele>268.8</ele>
        <time>2019-08-09T19:33:57Z</time>
      </trkpt>
      <trkpt lat="47.89109" lon="7.2259">
        <ele>269</ele>
        <time>2019-08-09T19:33:58Z</time>
      </trkpt>
      <trkpt lat="47.89104" lon="7.22591">
        <ele>269.2</ele>
        <time>2019-08-09T19:33:59Z</time>
      </trkpt>
      <trkpt lat="47.891" lon="7.2259">
        <ele>269.4</ele>
        <time>2019-08-09T19:34:00Z</time>
      </trkpt>
      <trkpt lat="47.89096" lon="7.22592">
        <ele>269.5</ele>
        <time>2019-08-09T19:34:01Z</time>
      </trkpt>
      <trkpt lat="47.89092" lon="7.22592">
        <ele>269.6</ele>
        <time>2019-08-09T19:34:02Z</time>
      </trkpt>
      <trkpt lat="47.89089" lon="7.22593">
        <ele>269.6</ele>
        <time>2019-08-09T19:34:03Z</time>
      </trkpt>
      <trkpt lat="47.89085" lon="7.22594">
        <ele>269.7</ele>
        <time>2019-08-09T19:34:04Z</time>
      </trkpt>
      <trkpt lat="47.89081" lon="7.22595">
        <ele>269.8</ele>
        <time>2019-08-09T19:34:05Z</time>
      </trkpt>
      <trkpt lat="47.89078" lon="7.22596">
        <ele>269.9</ele>
        <time>2019-08-09T19:34:06Z</time>
      </trkpt>
      <trkpt lat="47.89075" lon="7.22597">
        <ele>270</ele>
        <time>2019-08-09T19:34:07Z</time>
      </trkpt>
      <trkpt lat="47.89072" lon="7.22598">
        <ele>270</ele>
        <time>2019-08-09T19:34:08Z</time>
      </trkpt>
      <trkpt lat="47.89069" lon="7.22597">
        <ele>270.2</ele>
        <time>2019-08-09T19:34:09Z</time>
      </trkpt>
      <trkpt lat="47.89065" lon="7.22597">
        <ele>270.2</ele>
        <time>2019-08-09T19:34:10Z</time>
      </trkpt>
      <trkpt lat="47.89062" lon="7.22598">
        <ele>270.1</ele>
        <time>2019-08-09T19:34:11Z</time>
      </trkpt>
      <trkpt lat="47.89057" lon="7.22598">
        <ele>270.1</ele>
        <time>2019-08-09T19:34:12Z</time>
      </trkpt>
      <trkpt lat="47.89053" lon="7.22599">
        <ele>270.1</ele>
        <time>2019-08-09T19:34:13Z</time>
      </trkpt>
      <trkpt lat="47.89048" lon="7.22601">
        <ele>270</ele>
        <time>2019-08-09T19:34:14Z</time>
      </trkpt>
      <trkpt lat="47.89045" lon="7.22601">
        <ele>270</ele>
        <time>2019-08-09T19:34:15Z</time>
      </trkpt>
      <trkpt lat="47.8904" lon="7.22603">
        <ele>270</ele>
        <time>2019-08-09T19:34:16Z</time>
      </trkpt>
      <trkpt lat="47.89036" lon="7.22604">
        <ele>270</ele>
        <time>2019-08-09T19:34:17Z</time>
      </trkpt>
      <trkpt lat="47.89032" lon="7.22605">
        <ele>269.8</ele>
        <time>2019-08-09T19:34:18Z</time>
      </trkpt>
      <trkpt lat="47.89028" lon="7.22605">
        <ele>269.7</ele>
        <time>2019-08-09T19:34:19Z</time>
      </trkpt>
      <trkpt lat="47.89023" lon="7.22604">
        <ele>269.6</ele>
        <time>2019-08-09T19:34:20Z</time>
      </trkpt>
      <trkpt lat="47.89019" lon="7.22604">
        <ele>269.6</ele>
        <time>2019-08-09T19:34:21Z</time>
      </trkpt>
      <trkpt lat="47.89015" lon="7.22605">
        <ele>269.5</ele>
        <time>2019-08-09T19:34:22Z</time>
      </trkpt>
      <trkpt lat="47.89011" lon="7.22607">
        <ele>269.4</ele>
        <time>2019-08-09T19:34:23Z</time>
      </trkpt>
      <trkpt lat="47.89007" lon="7.22609">
        <ele>269.3</ele>
        <time>2019-08-09T19:34:24Z</time>
      </trkpt>
      <trkpt lat="47.89004" lon="7.22612">
        <ele>269.3</ele>
        <time>2019-08-09T19:34:25Z</time>
      </trkpt>
      <trkpt lat="47.89001" lon="7.22614">
        <ele>269.2</ele>
        <time>2019-08-09T19:34:26Z</time>
      </trkpt>
      <trkpt lat="47.88997" lon="7.22617">
        <ele>269.2</ele>
        <time>2019-08-09T19:34:27Z</time>
      </trkpt>
      <trkpt lat="47.88993" lon="7.22619">
        <ele>269.2</ele>
        <time>2019-08-09T19:34:28Z</time>
      </trkpt>
      <trkpt lat="47.88989" lon="7.22621">
        <ele>269.1</ele>
        <time>2019-08-09T19:34:29Z</time>
      </trkpt>
      <trkpt lat="47.88986" lon="7.22624">
        <ele>269</ele>
        <time>2019-08-09T19:34:30Z</time>
      </trkpt>
      <trkpt lat="47.88983" lon="7.22627">
        <ele>268.8</ele>
        <time>2019-08-09T19:34:31Z</time>
      </trkpt>
      <trkpt lat="47.88978" lon="7.2263">
        <ele>268.6</ele>
        <time>2019-08-09T19:34:32Z</time>
      </trkpt>
      <trkpt lat="47.88975" lon="7.22631">
        <ele>268.5</ele>
        <time>2019-08-09T19:34:33Z</time>
      </trkpt>
      <trkpt lat="47.88971" lon="7.22631">
        <ele>268.5</ele>
        <time>2019-08-09T19:34:34Z</time>
      </trkpt>
      <trkpt lat="47.88968" lon="7.22634">
        <ele>268.4</ele>
        <time>2019-08-09T19:34:35Z</time>
      </trkpt>
      <trkpt lat="47.88964" lon="7.22636">
        <ele>268.4</ele>
        <time>2019-08-09T19:34:36Z</time>
      </trkpt>
      <trkpt lat="47.88961" lon="7.2264">
        <ele>268.4</ele>
        <time>2019-08-09T19:34:37Z</time>
      </trkpt>
      <trkpt lat="47.88957" lon="7.22642">
        <ele>268.5</ele>
        <time>2019-08-09T19:34:38Z</time>
      </trkpt>
      <trkpt lat="47.88954" lon="7.22645">
        <ele>268.5</ele>
        <time>2019-08-09T19:34:39Z</time>
      </trkpt>
      <trkpt lat="47.88951" lon="7.22647">
        <ele>268.6</ele>
        <time>2019-08-09T19:34:40Z</time>
      </trkpt>
      <trkpt lat="47.88947" lon="7.22649">
        <ele>268.6</ele>
        <time>2019-08-09T19:34:41Z</time>
      </trkpt>
      <trkpt lat="47.88943" lon="7.22652">
        <ele>268.7</ele>
        <time>2019-08-09T19:34:42Z</time>
      </trkpt>
      <trkpt lat="47.8894" lon="7.22655">
        <ele>268.7</ele>
        <time>2019-08-09T19:34:43Z</time>
      </trkpt>
      <trkpt lat="47.88937" lon="7.22659">
        <ele>268.8</ele>
        <time>2019-08-09T19:34:44Z</time>
      </trkpt>
      <trkpt lat="47.88933" lon="7.22662">
        <ele>268.8</ele>
        <time>2019-08-09T19:34:45Z</time>
      </trkpt>
      <trkpt lat="47.8893" lon="7.22665">
        <ele>268.8</ele>
        <time>2019-08-09T19:34:46Z</time>
      </trkpt>
      <trkpt lat="47.88927" lon="7.22669">
        <ele>268.9</ele>
        <time>2019-08-09T19:34:47Z</time>
      </trkpt>
      <trkpt lat="47.88924" lon="7.22673">
        <ele>268.9</ele>
        <time>2019-08-09T19:34:48Z</time>
      </trkpt>
      <trkpt lat="47.8892" lon="7.22677">
        <ele>269</ele>
        <time>2019-08-09T19:34:50Z</time>
      </trkpt>
      <trkpt lat="47.88917" lon="7.2268">
        <ele>269</ele>
        <time>2019-08-09T19:34:51Z</time>
      </trkpt>
      <trkpt lat="47.88915" lon="7.22684">
        <ele>269.1</ele>
        <time>2019-08-09T19:34:52Z</time>
      </trkpt>
      <trkpt lat="47.88912" lon="7.22687">
        <ele>269.1</ele>
        <time>2019-08-09T19:34:53Z</time>
      </trkpt>
      <trkpt lat="47.8891" lon="7.2269">
        <ele>269.1</ele>
        <time>2019-08-09T19:34:54Z</time>
      </trkpt>
      <trkpt lat="47.88906" lon="7.22692">
        <ele>269.2</ele>
        <time>2019-08-09T19:34:56Z</time>
      </trkpt>
      <trkpt lat="47.88904" lon="7.22697">
        <ele>269.3</ele>
        <time>2019-08-09T19:35:00Z</time>
      </trkpt>
      <trkpt lat="47.88901" lon="7.227">
        <ele>269.4</ele>
        <time>2019-08-09T19:35:02Z</time>
      </trkpt>
      <trkpt lat="47.88897" lon="7.22702">
        <ele>269.5</ele>
        <time>2019-08-09T19:35:36Z</time>
      </trkpt>
      <trkpt lat="47.88895" lon="7.22706">
        <ele>269.6</ele>
        <time>2019-08-09T19:35:38Z</time>
      </trkpt>
      <trkpt lat="47.88893" lon="7.22708">
        <ele>269.6</ele>
        <time>2019-08-09T19:35:39Z</time>
      </trkpt>
      <trkpt lat="47.8889" lon="7.2271">
        <ele>269.7</ele>
        <time>2019-08-09T19:35:40Z</time>
      </trkpt>
      <trkpt lat="47.88887" lon="7.22712">
        <ele>269.8</ele>
        <time>2019-08-09T19:35:41Z</time>
      </trkpt>
      <trkpt lat="47.88882" lon="7.22711">
        <ele>270.1</ele>
        <time>2019-08-09T19:35:43Z</time>
      </trkpt>
      <trkpt lat="47.88879" lon="7.22707">
        <ele>270.1</ele>
        <time>2019-08-09T19:35:44Z</time>
      </trkpt>
      <trkpt lat="47.88878" lon="7.22702">
        <ele>270.1</ele>
        <time>2019-08-09T19:35:45Z</time>
      </trkpt>
      <trkpt lat="47.88876" lon="7.22697">
        <ele>270.1</ele>
        <time>2019-08-09T19:35:46Z</time>
      </trkpt>
      <trkpt lat="47.88875" lon="7.22692">
        <ele>270.1</ele>
        <time>2019-08-09T19:35:47Z</time>
      </trkpt>
      <trkpt lat="47.88874" lon="7.22687">
        <ele>270.2</ele>
        <time>2019-08-09T19:35:48Z</time>
      </trkpt>
      <trkpt lat="47.88874" lon="7.22682">
        <ele>270.2</ele>
        <time>2019-08-09T19:35:49Z</time>
      </trkpt>
      <trkpt lat="47.88873" lon="7.22678">
        <ele>270.2</ele>
        <time>2019-08-09T19:35:50Z</time>
      </trkpt>
      <trkpt lat="47.88871" lon="7.22674">
        <ele>270.2</ele>
        <time>2019-08-09T19:35:51Z</time>
      </trkpt>
      <trkpt lat="47.8887" lon="7.2267">
        <ele>270.3</ele>
        <time>2019-08-09T19:35:52Z</time>
      </trkpt>
      <trkpt lat="47.88869" lon="7.22665">
        <ele>270.3</ele>
        <time>2019-08-09T19:35:53Z</time>
      </trkpt>
      <trkpt lat="47.88867" lon="7.22658">
        <ele>270.4</ele>
        <time>2019-08-09T19:35:55Z</time>
      </trkpt>
      <trkpt lat="47.88866" lon="7.22653">
        <ele>270.5</ele>
        <time>2019-08-09T19:35:56Z</time>
      </trkpt>
      <trkpt lat="47.88865" lon="7.22643">
        <ele>270.6</ele>
        <time>2019-08-09T19:35:58Z</time>
      </trkpt>
      <trkpt lat="47.88864" lon="7.22638">
        <ele>270.7</ele>
        <time>2019-08-09T19:35:59Z</time>
      </trkpt>
      <trkpt lat="47.88861" lon="7.22636">
        <ele>270.7</ele>
        <time>2019-08-09T19:36:00Z</time>
      </trkpt>
      <trkpt lat="47.88856" lon="7.22637">
        <ele>270.8</ele>
        <time>2019-08-09T19:36:01Z</time>
      </trkpt>
      <trkpt lat="47.88851" lon="7.22637">
        <ele>270.8</ele>
        <time>2019-08-09T19:36:02Z</time>
      </trkpt>
      <trkpt lat="47.88847" lon="7.22639">
        <ele>270.9</ele>
        <time>2019-08-09T19:36:03Z</time>
      </trkpt>
      <trkpt lat="47.88843" lon="7.22641">
        <ele>270.9</ele>
        <time>2019-08-09T19:36:04Z</time>
      </trkpt>
      <trkpt lat="47.88839" lon="7.22643">
        <ele>271</ele>
        <time>2019-08-09T19:36:05Z</time>
      </trkpt>
      <trkpt lat="47.88835" lon="7.22644">
        <ele>271</ele>
        <time>2019-08-09T19:36:06Z</time>
      </trkpt>
      <trkpt lat="47.8883" lon="7.22645">
        <ele>271.1</ele>
        <time>2019-08-09T19:36:07Z</time>
      </trkpt>
      <trkpt lat="47.88827" lon="7.22649">
        <ele>271.1</ele>
        <time>2019-08-09T19:36:08Z</time>
      </trkpt>
      <trkpt lat="47.88824" lon="7.22651">
        <ele>271.2</ele>
        <time>2019-08-09T19:36:09Z</time>
      </trkpt>
      <trkpt lat="47.8882" lon="7.2265">
        <ele>271.2</ele>
        <time>2019-08-09T19:36:10Z</time>
      </trkpt>
      <trkpt lat="47.88816" lon="7.22649">
        <ele>271.2</ele>
        <time>2019-08-09T19:36:11Z</time>
      </trkpt>
      <trkpt lat="47.88813" lon="7.22651">
        <ele>271.3</ele>
        <time>2019-08-09T19:36:12Z</time>
      </trkpt>
      <trkpt lat="47.88809" lon="7.22653">
        <ele>271.3</ele>
        <time>2019-08-09T19:36:13Z</time>
      </trkpt>
      <trkpt lat="47.88805" lon="7.22654">
        <ele>271.3</ele>
        <time>2019-08-09T19:36:14Z</time>
      </trkpt>
      <trkpt lat="47.88802" lon="7.22655">
        <ele>271.4</ele>
        <time>2019-08-09T19:36:15Z</time>
      </trkpt>
      <trkpt lat="47.88798" lon="7.22656">
        <ele>271.4</ele>
        <time>2019-08-09T19:36:16Z</time>
      </trkpt>
      <trkpt lat="47.88795" lon="7.22656">
        <ele>271.4</ele>
        <time>2019-08-09T19:36:17Z</time>
      </trkpt>
      <trkpt lat="47.88791" lon="7.22656">
        <ele>271.4</ele>
        <time>2019-08-09T19:36:18Z</time>
      </trkpt>
      <trkpt lat="47.88787" lon="7.22656">
        <ele>271.5</ele>
        <time>2019-08-09T19:36:19Z</time>
      </trkpt>
      <trkpt lat="47.88784" lon="7.22658">
        <ele>271.5</ele>
        <time>2019-08-09T19:36:20Z</time>
      </trkpt>
      <trkpt lat="47.88781" lon="7.2266">
        <ele>271.5</ele>
        <time>2019-08-09T19:36:21Z</time>
      </trkpt>
      <trkpt lat="47.88778" lon="7.22663">
        <ele>271.6</ele>
        <time>2019-08-09T19:36:22Z</time>
      </trkpt>
      <trkpt lat="47.88773" lon="7.22664">
        <ele>271.6</ele>
        <time>2019-08-09T19:36:23Z</time>
      </trkpt>
      <trkpt lat="47.88769" lon="7.22665">
        <ele>271.7</ele>
        <time>2019-08-09T19:36:24Z</time>
      </trkpt>
      <trkpt lat="47.88766" lon="7.22666">
        <ele>271.7</ele>
        <time>2019-08-09T19:36:25Z</time>
      </trkpt>
      <trkpt lat="47.88763" lon="7.22668">
        <ele>271.8</ele>
        <time>2019-08-09T19:36:26Z</time>
      </trkpt>
      <trkpt lat="47.88759" lon="7.22669">
        <ele>271.8</ele>
        <time>2019-08-09T19:36:27Z</time>
      </trkpt>
      <trkpt lat="47.88756" lon="7.22671">
        <ele>271.8</ele>
        <time>2019-08-09T19:36:28Z</time>
      </trkpt>
      <trkpt lat="47.88753" lon="7.22672">
        <ele>271.9</ele>
        <time>2019-08-09T19:36:29Z</time>
      </trkpt>
      <trkpt lat="47.8875" lon="7.22674">
        <ele>271.9</ele>
        <time>2019-08-09T19:36:30Z</time>
      </trkpt>
      <trkpt lat="47.88747" lon="7.22672">
        <ele>272</ele>
        <time>2019-08-09T19:36:31Z</time>
      </trkpt>
      <trkpt lat="47.88744" lon="7.2267">
        <ele>272</ele>
        <time>2019-08-09T19:36:32Z</time>
      </trkpt>
      <trkpt lat="47.8874" lon="7.22666">
        <ele>272.1</ele>
        <time>2019-08-09T19:36:34Z</time>
      </trkpt>
      <trkpt lat="47.88737" lon="7.22665">
        <ele>272.1</ele>
        <time>2019-08-09T19:36:35Z</time>
      </trkpt>
      <trkpt lat="47.88734" lon="7.22663">
        <ele>272.1</ele>
        <time>2019-08-09T19:36:36Z</time>
      </trkpt>
      <trkpt lat="47.8873" lon="7.22662">
        <ele>272.1</ele>
        <time>2019-08-09T19:36:37Z</time>
      </trkpt>
      <trkpt lat="47.88726" lon="7.2266">
        <ele>272.1</ele>
        <time>2019-08-09T19:36:38Z</time>
      </trkpt>
      <trkpt lat="47.88721" lon="7.22658">
        <ele>272.1</ele>
        <time>2019-08-09T19:36:39Z</time>
      </trkpt>
      <trkpt lat="47.88716" lon="7.22657">
        <ele>272.1</ele>
        <time>2019-08-09T19:36:40Z</time>
      </trkpt>
      <trkpt lat="47.88712" lon="7.22657">
        <ele>272.1</ele>
        <time>2019-08-09T19:36:41Z</time>
      </trkpt>
      <trkpt lat="47.88707" lon="7.22656">
        <ele>272.1</ele>
        <time>2019-08-09T19:36:42Z</time>
      </trkpt>
      <trkpt lat="47.88703" lon="7.22655">
        <ele>272.1</ele>
        <time>2019-08-09T19:36:43Z</time>
      </trkpt>
      <trkpt lat="47.88699" lon="7.22653">
        <ele>272.1</ele>
        <time>2019-08-09T19:36:44Z</time>
      </trkpt>
      <trkpt lat="47.88694" lon="7.22653">
        <ele>272.2</ele>
        <time>2019-08-09T19:36:45Z</time>
      </trkpt>
      <trkpt lat="47.88689" lon="7.22654">
        <ele>272.2</ele>
        <time>2019-08-09T19:36:46Z</time>
      </trkpt>
      <trkpt lat="47.88685" lon="7.22656">
        <ele>272.2</ele>
        <time>2019-08-09T19:36:47Z</time>
      </trkpt>
      <trkpt lat="47.8868" lon="7.22657">
        <ele>272.3</ele>
        <time>2019-08-09T19:36:48Z</time>
      </trkpt>
      <trkpt lat="47.88675" lon="7.2266">
        <ele>272.3</ele>
        <time>2019-08-09T19:36:49Z</time>
      </trkpt>
      <trkpt lat="47.8867" lon="7.22662">
        <ele>272.4</ele>
        <time>2019-08-09T19:36:50Z</time>
      </trkpt>
      <trkpt lat="47.88666" lon="7.22665">
        <ele>272.4</ele>
        <time>2019-08-09T19:36:51Z</time>
      </trkpt>
      <trkpt lat="47.88663" lon="7.22667">
        <ele>272.5</ele>
        <time>2019-08-09T19:36:52Z</time>
      </trkpt>
      <trkpt lat="47.88659" lon="7.2267">
        <ele>272.5</ele>
        <time>2019-08-09T19:36:53Z</time>
      </trkpt>
      <trkpt lat="47.88655" lon="7.22672">
        <ele>272.6</ele>
        <time>2019-08-09T19:36:54Z</time>
      </trkpt>
      <trkpt lat="47.88651" lon="7.22674">
        <ele>272.6</ele>
        <time>2019-08-09T19:36:55Z</time>
      </trkpt>
      <trkpt lat="47.88648" lon="7.22677">
        <ele>272.7</ele>
        <time>2019-08-09T19:36:56Z</time>
      </trkpt>
      <trkpt lat="47.88644" lon="7.2268">
        <ele>272.7</ele>
        <time>2019-08-09T19:36:57Z</time>
      </trkpt>
      <trkpt lat="47.88641" lon="7.22683">
        <ele>272.7</ele>
        <time>2019-08-09T19:36:58Z</time>
      </trkpt>
      <trkpt lat="47.88638" lon="7.22685">
        <ele>272.8</ele>
        <time>2019-08-09T19:36:59Z</time>
      </trkpt>
      <trkpt lat="47.88634" lon="7.22687">
        <ele>272.8</ele>
        <time>2019-08-09T19:37:00Z</time>
      </trkpt>
      <trkpt lat="47.88631" lon="7.22689">
        <ele>272.9</ele>
        <time>2019-08-09T19:37:01Z</time>
      </trkpt>
      <trkpt lat="47.88628" lon="7.22692">
        <ele>272.9</ele>
        <time>2019-08-09T19:37:02Z</time>
      </trkpt>
      <trkpt lat="47.88625" lon="7.22694">
        <ele>273</ele>
        <time>2019-08-09T19:37:03Z</time>
      </trkpt>
      <trkpt lat="47.88622" lon="7.22696">
        <ele>273</ele>
        <time>2019-08-09T19:37:04Z</time>
      </trkpt>
      <trkpt lat="47.88617" lon="7.22699">
        <ele>273</ele>
        <time>2019-08-09T19:37:06Z</time>
      </trkpt>
      <trkpt lat="47.88614" lon="7.227">
        <ele>273.1</ele>
        <time>2019-08-09T19:37:07Z</time>
      </trkpt>
      <trkpt lat="47.88611" lon="7.22701">
        <ele>273.1</ele>
        <time>2019-08-09T19:37:08Z</time>
      </trkpt>
      <trkpt lat="47.88608" lon="7.22701">
        <ele>273.1</ele>
        <time>2019-08-09T19:37:09Z</time>
      </trkpt>
      <trkpt lat="47.88603" lon="7.22704">
        <ele>273.2</ele>
        <time>2019-08-09T19:37:11Z</time>
      </trkpt>
      <trkpt lat="47.886" lon="7.22705">
        <ele>273.2</ele>
        <time>2019-08-09T19:37:12Z</time>
      </trkpt>
      <trkpt lat="47.88597" lon="7.22706">
        <ele>273.3</ele>
        <time>2019-08-09T19:37:13Z</time>
      </trkpt>
      <trkpt lat="47.88594" lon="7.22706">
        <ele>273.4</ele>
        <time>2019-08-09T19:37:14Z</time>
      </trkpt>
      <trkpt lat="47.88589" lon="7.22706">
        <ele>273.5</ele>
        <time>2019-08-09T19:37:16Z</time>
      </trkpt>
      <trkpt lat="47.88586" lon="7.22704">
        <ele>273.5</ele>
        <time>2019-08-09T19:37:17Z</time>
      </trkpt>
      <trkpt lat="47.88584" lon="7.22702">
        <ele>273.6</ele>
        <time>2019-08-09T19:37:18Z</time>
      </trkpt>
      <trkpt lat="47.8858" lon="7.22703">
        <ele>273.7</ele>
        <time>2019-08-09T19:37:19Z</time>
      </trkpt>
      <trkpt lat="47.88577" lon="7.22702">
        <ele>273.8</ele>
        <time>2019-08-09T19:37:20Z</time>
      </trkpt>
      <trkpt lat="47.88574" lon="7.22702">
        <ele>273.9</ele>
        <time>2019-08-09T19:37:21Z</time>
      </trkpt>
      <trkpt lat="47.8857" lon="7.22701">
        <ele>274</ele>
        <time>2019-08-09T19:37:22Z</time>
      </trkpt>
      <trkpt lat="47.88567" lon="7.22699">
        <ele>274.1</ele>
        <time>2019-08-09T19:37:23Z</time>
      </trkpt>
      <trkpt lat="47.88564" lon="7.22698">
        <ele>274.1</ele>
        <time>2019-08-09T19:37:24Z</time>
      </trkpt>
      <trkpt lat="47.88561" lon="7.22696">
        <ele>274.2</ele>
        <time>2019-08-09T19:37:25Z</time>
      </trkpt>
      <trkpt lat="47.88559" lon="7.22693">
        <ele>274.3</ele>
        <time>2019-08-09T19:37:26Z</time>
      </trkpt>
      <trkpt lat="47.88555" lon="7.22692">
        <ele>274.4</ele>
        <time>2019-08-09T19:37:27Z</time>
      </trkpt>
      <trkpt lat="47.88552" lon="7.2269">
        <ele>274.5</ele>
        <time>2019-08-09T19:37:28Z</time>
      </trkpt>
      <trkpt lat="47.88548" lon="7.22689">
        <ele>274.7</ele>
        <time>2019-08-09T19:37:29Z</time>
      </trkpt>
      <trkpt lat="47.88545" lon="7.22687">
        <ele>274.8</ele>
        <time>2019-08-09T19:37:30Z</time>
      </trkpt>
      <trkpt lat="47.88542" lon="7.22686">
        <ele>274.9</ele>
        <time>2019-08-09T19:37:31Z</time>
      </trkpt>
      <trkpt lat="47.88539" lon="7.22684">
        <ele>275</ele>
        <time>2019-08-09T19:37:32Z</time>
      </trkpt>
      <trkpt lat="47.88535" lon="7.22682">
        <ele>275.1</ele>
        <time>2019-08-09T19:37:33Z</time>
      </trkpt>
      <trkpt lat="47.88532" lon="7.2268">
        <ele>275.2</ele>
        <time>2019-08-09T19:37:34Z</time>
      </trkpt>
      <trkpt lat="47.88529" lon="7.22678">
        <ele>275.3</ele>
        <time>2019-08-09T19:37:35Z</time>
      </trkpt>
      <trkpt lat="47.88526" lon="7.22675">
        <ele>275.4</ele>
        <time>2019-08-09T19:37:36Z</time>
      </trkpt>
      <trkpt lat="47.88523" lon="7.22671">
        <ele>275.5</ele>
        <time>2019-08-09T19:37:37Z</time>
      </trkpt>
      <trkpt lat="47.88519" lon="7.22669">
        <ele>275.6</ele>
        <time>2019-08-09T19:37:38Z</time>
      </trkpt>
      <trkpt lat="47.88516" lon="7.22666">
        <ele>275.7</ele>
        <time>2019-08-09T19:37:39Z</time>
      </trkpt>
      <trkpt lat="47.88513" lon="7.22661">
        <ele>275.7</ele>
        <time>2019-08-09T19:37:40Z</time>
      </trkpt>
      <trkpt lat="47.88511" lon="7.22659">
        <ele>275.7</ele>
        <time>2019-08-09T19:37:41Z</time>
      </trkpt>
      <trkpt lat="47.88508" lon="7.22656">
        <ele>275.7</ele>
        <time>2019-08-09T19:37:42Z</time>
      </trkpt>
      <trkpt lat="47.88506" lon="7.22652">
        <ele>275.7</ele>
        <time>2019-08-09T19:37:43Z</time>
      </trkpt>
      <trkpt lat="47.88503" lon="7.22648">
        <ele>275.7</ele>
        <time>2019-08-09T19:37:44Z</time>
      </trkpt>
      <trkpt lat="47.885" lon="7.22644">
        <ele>275.7</ele>
        <time>2019-08-09T19:37:45Z</time>
      </trkpt>
      <trkpt lat="47.88497" lon="7.22641">
        <ele>275.7</ele>
        <time>2019-08-09T19:37:46Z</time>
      </trkpt>
      <trkpt lat="47.88494" lon="7.22634">
        <ele>275.7</ele>
        <time>2019-08-09T19:37:48Z</time>
      </trkpt>
      <trkpt lat="47.88491" lon="7.2263">
        <ele>275.7</ele>
        <time>2019-08-09T19:37:50Z</time>
      </trkpt>
      <trkpt lat="47.88487" lon="7.22626">
        <ele>275.8</ele>
        <time>2019-08-09T19:37:52Z</time>
      </trkpt>
      <trkpt lat="47.88485" lon="7.22622">
        <ele>275.8</ele>
        <time>2019-08-09T19:37:53Z</time>
      </trkpt>
      <trkpt lat="47.88483" lon="7.22619">
        <ele>275.9</ele>
        <time>2019-08-09T19:37:54Z</time>
      </trkpt>
      <trkpt lat="47.88481" lon="7.22615">
        <ele>275.9</ele>
        <time>2019-08-09T19:37:55Z</time>
      </trkpt>
      <trkpt lat="47.88479" lon="7.22611">
        <ele>276</ele>
        <time>2019-08-09T19:37:56Z</time>
      </trkpt>
      <trkpt lat="47.88476" lon="7.22608">
        <ele>276.1</ele>
        <time>2019-08-09T19:37:57Z</time>
      </trkpt>
      <trkpt lat="47.88473" lon="7.22604">
        <ele>276.2</ele>
        <time>2019-08-09T19:37:58Z</time>
      </trkpt>
      <trkpt lat="47.88471" lon="7.226">
        <ele>276.3</ele>
        <time>2019-08-09T19:37:59Z</time>
      </trkpt>
      <trkpt lat="47.88467" lon="7.22594">
        <ele>276.5</ele>
        <time>2019-08-09T19:38:01Z</time>
      </trkpt>
      <trkpt lat="47.88465" lon="7.2259">
        <ele>276.7</ele>
        <time>2019-08-09T19:38:02Z</time>
      </trkpt>
      <trkpt lat="47.88463" lon="7.22585">
        <ele>276.8</ele>
        <time>2019-08-09T19:38:03Z</time>
      </trkpt>
      <trkpt lat="47.88461" lon="7.22582">
        <ele>276.9</ele>
        <time>2019-08-09T19:38:04Z</time>
      </trkpt>
      <trkpt lat="47.88458" lon="7.22578">
        <ele>276.9</ele>
        <time>2019-08-09T19:38:05Z</time>
      </trkpt>
      <trkpt lat="47.88456" lon="7.22575">
        <ele>277</ele>
        <time>2019-08-09T19:38:06Z</time>
      </trkpt>
      <trkpt lat="47.88454" lon="7.22571">
        <ele>277.1</ele>
        <time>2019-08-09T19:38:07Z</time>
      </trkpt>
      <trkpt lat="47.88452" lon="7.22567">
        <ele>277.2</ele>
        <time>2019-08-09T19:38:08Z</time>
      </trkpt>
      <trkpt lat="47.88449" lon="7.22563">
        <ele>277.2</ele>
        <time>2019-08-09T19:38:09Z</time>
      </trkpt>
      <trkpt lat="47.88447" lon="7.2256">
        <ele>277.3</ele>
        <time>2019-08-09T19:38:10Z</time>
      </trkpt>
      <trkpt lat="47.88444" lon="7.22557">
        <ele>277.4</ele>
        <time>2019-08-09T19:38:11Z</time>
      </trkpt>
      <trkpt lat="47.88441" lon="7.22555">
        <ele>277.5</ele>
        <time>2019-08-09T19:38:12Z</time>
      </trkpt>
      <trkpt lat="47.88439" lon="7.22552">
        <ele>277.5</ele>
        <time>2019-08-09T19:38:13Z</time>
      </trkpt>
      <trkpt lat="47.88436" lon="7.2255">
        <ele>277.6</ele>
        <time>2019-08-09T19:38:14Z</time>
      </trkpt>
      <trkpt lat="47.88434" lon="7.22547">
        <ele>277.6</ele>
        <time>2019-08-09T19:38:15Z</time>
      </trkpt>
      <trkpt lat="47.88431" lon="7.22544">
        <ele>277.7</ele>
        <time>2019-08-09T19:38:16Z</time>
      </trkpt>
      <trkpt lat="47.88428" lon="7.22542">
        <ele>277.7</ele>
        <time>2019-08-09T19:38:17Z</time>
      </trkpt>
      <trkpt lat="47.88426" lon="7.22538">
        <ele>277.8</ele>
        <time>2019-08-09T19:38:18Z</time>
      </trkpt>
      <trkpt lat="47.88422" lon="7.22534">
        <ele>277.9</ele>
        <time>2019-08-09T19:38:20Z</time>
      </trkpt>
      <trkpt lat="47.88417" lon="7.22534">
        <ele>278</ele>
        <time>2019-08-09T19:38:21Z</time>
      </trkpt>
      <trkpt lat="47.88414" lon="7.22534">
        <ele>278.3</ele>
        <time>2019-08-09T19:38:22Z</time>
      </trkpt>
      <trkpt lat="47.8841" lon="7.22533">
        <ele>278.1</ele>
        <time>2019-08-09T19:38:23Z</time>
      </trkpt>
      <trkpt lat="47.88406" lon="7.22533">
        <ele>278</ele>
        <time>2019-08-09T19:38:24Z</time>
      </trkpt>
      <trkpt lat="47.88402" lon="7.22532">
        <ele>277.7</ele>
        <time>2019-08-09T19:38:25Z</time>
      </trkpt>
      <trkpt lat="47.88399" lon="7.22531">
        <ele>277.6</ele>
        <time>2019-08-09T19:38:26Z</time>
      </trkpt>
      <trkpt lat="47.88394" lon="7.22532">
        <ele>277.4</ele>
        <time>2019-08-09T19:38:27Z</time>
      </trkpt>
      <trkpt lat="47.8839" lon="7.22532">
        <ele>277.2</ele>
        <time>2019-08-09T19:38:28Z</time>
      </trkpt>
      <trkpt lat="47.88387" lon="7.22533">
        <ele>277.1</ele>
        <time>2019-08-09T19:38:29Z</time>
      </trkpt>
      <trkpt lat="47.88384" lon="7.22533">
        <ele>277</ele>
        <time>2019-08-09T19:38:30Z</time>
      </trkpt>
      <trkpt lat="47.88381" lon="7.22533">
        <ele>276.9</ele>
        <time>2019-08-09T19:38:31Z</time>
      </trkpt>
      <trkpt lat="47.88377" lon="7.22532">
        <ele>276.9</ele>
        <time>2019-08-09T19:38:32Z</time>
      </trkpt>
      <trkpt lat="47.88374" lon="7.22531">
        <ele>276.9</ele>
        <time>2019-08-09T19:38:33Z</time>
      </trkpt>
      <trkpt lat="47.88371" lon="7.22531">
        <ele>276.8</ele>
        <time>2019-08-09T19:38:34Z</time>
      </trkpt>
      <trkpt lat="47.88368" lon="7.22531">
        <ele>276.8</ele>
        <time>2019-08-09T19:38:35Z</time>
      </trkpt>
      <trkpt lat="47.88364" lon="7.22533">
        <ele>276.7</ele>
        <time>2019-08-09T19:38:36Z</time>
      </trkpt>
      <trkpt lat="47.88361" lon="7.22534">
        <ele>276.6</ele>
        <time>2019-08-09T19:38:37Z</time>
      </trkpt>
      <trkpt lat="47.88357" lon="7.22533">
        <ele>276.5</ele>
        <time>2019-08-09T19:38:38Z</time>
      </trkpt>
      <trkpt lat="47.88354" lon="7.22532">
        <ele>276.4</ele>
        <time>2019-08-09T19:38:39Z</time>
      </trkpt>
      <trkpt lat="47.88351" lon="7.22531">
        <ele>276.3</ele>
        <time>2019-08-09T19:38:40Z</time>
      </trkpt>
      <trkpt lat="47.88347" lon="7.22531">
        <ele>276.2</ele>
        <time>2019-08-09T19:38:41Z</time>
      </trkpt>
      <trkpt lat="47.88344" lon="7.22531">
        <ele>276.2</ele>
        <time>2019-08-09T19:38:42Z</time>
      </trkpt>
      <trkpt lat="47.88341" lon="7.22531">
        <ele>276.1</ele>
        <time>2019-08-09T19:38:43Z</time>
      </trkpt>
      <trkpt lat="47.88336" lon="7.22533">
        <ele>275.9</ele>
        <time>2019-08-09T19:38:44Z</time>
      </trkpt>
      <trkpt lat="47.88333" lon="7.22533">
        <ele>275.8</ele>
        <time>2019-08-09T19:38:45Z</time>
      </trkpt>
      <trkpt lat="47.8833" lon="7.22534">
        <ele>275.8</ele>
        <time>2019-08-09T19:38:46Z</time>
      </trkpt>
      <trkpt lat="47.88328" lon="7.22534">
        <ele>275.8</ele>
        <time>2019-08-09T19:38:47Z</time>
      </trkpt>
      <trkpt lat="47.88325" lon="7.22534">
        <ele>275.8</ele>
        <time>2019-08-09T19:38:48Z</time>
      </trkpt>
      <trkpt lat="47.88321" lon="7.22533">
        <ele>275.8</ele>
        <time>2019-08-09T19:38:49Z</time>
      </trkpt>
      <trkpt lat="47.88318" lon="7.22532">
        <ele>275.8</ele>
        <time>2019-08-09T19:38:50Z</time>
      </trkpt>
      <trkpt lat="47.88314" lon="7.22531">
        <ele>275.8</ele>
        <time>2019-08-09T19:38:51Z</time>
      </trkpt>
      <trkpt lat="47.8831" lon="7.22531">
        <ele>275.8</ele>
        <time>2019-08-09T19:38:52Z</time>
      </trkpt>
      <trkpt lat="47.88307" lon="7.2253">
        <ele>275.8</ele>
        <time>2019-08-09T19:38:53Z</time>
      </trkpt>
      <trkpt lat="47.88303" lon="7.22532">
        <ele>275.9</ele>
        <time>2019-08-09T19:38:54Z</time>
      </trkpt>
      <trkpt lat="47.883" lon="7.22533">
        <ele>275.9</ele>
        <time>2019-08-09T19:38:55Z</time>
      </trkpt>
      <trkpt lat="47.88296" lon="7.22533">
        <ele>275.9</ele>
        <time>2019-08-09T19:38:56Z</time>
      </trkpt>
      <trkpt lat="47.88293" lon="7.22531">
        <ele>276</ele>
        <time>2019-08-09T19:38:57Z</time>
      </trkpt>
      <trkpt lat="47.88291" lon="7.22529">
        <ele>276</ele>
        <time>2019-08-09T19:38:58Z</time>
      </trkpt>
      <trkpt lat="47.88288" lon="7.22526">
        <ele>276.1</ele>
        <time>2019-08-09T19:38:59Z</time>
      </trkpt>
      <trkpt lat="47.88286" lon="7.22524">
        <ele>276.1</ele>
        <time>2019-08-09T19:39:00Z</time>
      </trkpt>
      <trkpt lat="47.88281" lon="7.2252">
        <ele>276.2</ele>
        <time>2019-08-09T19:39:02Z</time>
      </trkpt>
      <trkpt lat="47.88277" lon="7.22516">
        <ele>276.3</ele>
        <time>2019-08-09T19:39:04Z</time>
      </trkpt>
      <trkpt lat="47.88273" lon="7.22512">
        <ele>276.3</ele>
        <time>2019-08-09T19:39:06Z</time>
      </trkpt>
      <trkpt lat="47.8827" lon="7.2251">
        <ele>276.4</ele>
        <time>2019-08-09T19:39:07Z</time>
      </trkpt>
      <trkpt lat="47.88267" lon="7.22509">
        <ele>276.4</ele>
        <time>2019-08-09T19:39:08Z</time>
      </trkpt>
      <trkpt lat="47.88263" lon="7.22507">
        <ele>276.5</ele>
        <time>2019-08-09T19:39:09Z</time>
      </trkpt>
      <trkpt lat="47.88261" lon="7.22505">
        <ele>276.5</ele>
        <time>2019-08-09T19:39:10Z</time>
      </trkpt>
      <trkpt lat="47.88257" lon="7.22503">
        <ele>276.6</ele>
        <time>2019-08-09T19:39:11Z</time>
      </trkpt>
      <trkpt lat="47.88254" lon="7.22503">
        <ele>276.6</ele>
        <time>2019-08-09T19:39:12Z</time>
      </trkpt>
      <trkpt lat="47.88251" lon="7.22502">
        <ele>276.7</ele>
        <time>2019-08-09T19:39:13Z</time>
      </trkpt>
      <trkpt lat="47.88246" lon="7.22499">
        <ele>276.8</ele>
        <time>2019-08-09T19:39:15Z</time>
      </trkpt>
      <trkpt lat="47.88243" lon="7.22496">
        <ele>276.8</ele>
        <time>2019-08-09T19:39:17Z</time>
      </trkpt>
      <trkpt lat="47.88238" lon="7.22493">
        <ele>276.9</ele>
        <time>2019-08-09T19:39:19Z</time>
      </trkpt>
      <trkpt lat="47.88234" lon="7.2249">
        <ele>277</ele>
        <time>2019-08-09T19:39:21Z</time>
      </trkpt>
      <trkpt lat="47.8823" lon="7.22484">
        <ele>277</ele>
        <time>2019-08-09T19:39:23Z</time>
      </trkpt>
      <trkpt lat="47.88227" lon="7.22477">
        <ele>277.4</ele>
        <time>2019-08-09T19:39:25Z</time>
      </trkpt>
      <trkpt lat="47.88227" lon="7.2247">
        <ele>277.4</ele>
        <time>2019-08-09T19:39:27Z</time>
      </trkpt>
      <trkpt lat="47.88227" lon="7.22462">
        <ele>277.5</ele>
        <time>2019-08-09T19:39:29Z</time>
      </trkpt>
      <trkpt lat="47.88225" lon="7.22455">
        <ele>277.5</ele>
        <time>2019-08-09T19:39:31Z</time>
      </trkpt>
      <trkpt lat="47.88222" lon="7.22448">
        <ele>277.6</ele>
        <time>2019-08-09T19:39:33Z</time>
      </trkpt>
      <trkpt lat="47.8822" lon="7.22444">
        <ele>277.6</ele>
        <time>2019-08-09T19:39:34Z</time>
      </trkpt>
      <trkpt lat="47.88217" lon="7.2244">
        <ele>277.7</ele>
        <time>2019-08-09T19:39:35Z</time>
      </trkpt>
      <trkpt lat="47.88215" lon="7.22435">
        <ele>277.7</ele>
        <time>2019-08-09T19:39:36Z</time>
      </trkpt>
      <trkpt lat="47.88214" lon="7.22431">
        <ele>277.8</ele>
        <time>2019-08-09T19:39:37Z</time>
      </trkpt>
      <trkpt lat="47.88211" lon="7.22424">
        <ele>277.8</ele>
        <time>2019-08-09T19:39:39Z</time>
      </trkpt>
      <trkpt lat="47.8821" lon="7.2242">
        <ele>277.9</ele>
        <time>2019-08-09T19:39:40Z</time>
      </trkpt>
      <trkpt lat="47.88208" lon="7.22415">
        <ele>277.9</ele>
        <time>2019-08-09T19:39:41Z</time>
      </trkpt>
      <trkpt lat="47.88208" lon="7.2241">
        <ele>277.9</ele>
        <time>2019-08-09T19:39:42Z</time>
      </trkpt>
      <trkpt lat="47.88206" lon="7.22406">
        <ele>278</ele>
        <time>2019-08-09T19:39:43Z</time>
      </trkpt>
      <trkpt lat="47.88205" lon="7.22401">
        <ele>278</ele>
        <time>2019-08-09T19:39:44Z</time>
      </trkpt>
      <trkpt lat="47.88204" lon="7.22397">
        <ele>278</ele>
        <time>2019-08-09T19:39:45Z</time>
      </trkpt>
      <trkpt lat="47.88202" lon="7.22392">
        <ele>278</ele>
        <time>2019-08-09T19:39:46Z</time>
      </trkpt>
      <trkpt lat="47.88201" lon="7.22387">
        <ele>278.1</ele>
        <time>2019-08-09T19:39:47Z</time>
      </trkpt>
      <trkpt lat="47.88199" lon="7.22381">
        <ele>278.1</ele>
        <time>2019-08-09T19:39:48Z</time>
      </trkpt>
      <trkpt lat="47.88198" lon="7.22377">
        <ele>278.1</ele>
        <time>2019-08-09T19:39:49Z</time>
      </trkpt>
      <trkpt lat="47.88198" lon="7.22372">
        <ele>278.1</ele>
        <time>2019-08-09T19:39:50Z</time>
      </trkpt>
      <trkpt lat="47.88198" lon="7.22367">
        <ele>278.1</ele>
        <time>2019-08-09T19:39:51Z</time>
      </trkpt>
      <trkpt lat="47.88199" lon="7.22363">
        <ele>278.1</ele>
        <time>2019-08-09T19:39:52Z</time>
      </trkpt>
      <trkpt lat="47.88198" lon="7.22358">
        <ele>278.2</ele>
        <time>2019-08-09T19:39:53Z</time>
      </trkpt>
      <trkpt lat="47.88197" lon="7.22352">
        <ele>278.2</ele>
        <time>2019-08-09T19:39:54Z</time>
      </trkpt>
      <trkpt lat="47.88197" lon="7.22348">
        <ele>278.2</ele>
        <time>2019-08-09T19:39:55Z</time>
      </trkpt>
      <trkpt lat="47.88196" lon="7.22342">
        <ele>278.2</ele>
        <time>2019-08-09T19:39:56Z</time>
      </trkpt>
      <trkpt lat="47.88195" lon="7.22337">
        <ele>278.2</ele>
        <time>2019-08-09T19:39:57Z</time>
      </trkpt>
      <trkpt lat="47.88194" lon="7.22332">
        <ele>278.2</ele>
        <time>2019-08-09T19:39:58Z</time>
      </trkpt>
      <trkpt lat="47.88194" lon="7.22327">
        <ele>278.2</ele>
        <time>2019-08-09T19:39:59Z</time>
      </trkpt>
      <trkpt lat="47.88193" lon="7.22321">
        <ele>278.2</ele>
        <time>2019-08-09T19:40:00Z</time>
      </trkpt>
      <trkpt lat="47.88191" lon="7.22317">
        <ele>278.2</ele>
        <time>2019-08-09T19:40:01Z</time>
      </trkpt>
      <trkpt lat="47.88191" lon="7.22312">
        <ele>278.2</ele>
        <time>2019-08-09T19:40:02Z</time>
      </trkpt>
      <trkpt lat="47.88189" lon="7.22308">
        <ele>278.2</ele>
        <time>2019-08-09T19:40:03Z</time>
      </trkpt>
      <trkpt lat="47.88189" lon="7.22304">
        <ele>278.2</ele>
        <time>2019-08-09T19:40:04Z</time>
      </trkpt>
      <trkpt lat="47.88187" lon="7.22299">
        <ele>278.2</ele>
        <time>2019-08-09T19:40:05Z</time>
      </trkpt>
      <trkpt lat="47.88186" lon="7.22295">
        <ele>278.2</ele>
        <time>2019-08-09T19:40:06Z</time>
      </trkpt>
      <trkpt lat="47.88186" lon="7.22289">
        <ele>278.2</ele>
        <time>2019-08-09T19:40:07Z</time>
      </trkpt>
      <trkpt lat="47.88186" lon="7.22285">
        <ele>278.2</ele>
        <time>2019-08-09T19:40:08Z</time>
      </trkpt>
      <trkpt lat="47.88186" lon="7.2228">
        <ele>278.2</ele>
        <time>2019-08-09T19:40:09Z</time>
      </trkpt>
      <trkpt lat="47.88187" lon="7.22275">
        <ele>278.2</ele>
        <time>2019-08-09T19:40:10Z</time>
      </trkpt>
      <trkpt lat="47.88188" lon="7.22268">
        <ele>278.2</ele>
        <time>2019-08-09T19:40:12Z</time>
      </trkpt>
      <trkpt lat="47.88188" lon="7.2226">
        <ele>278.2</ele>
        <time>2019-08-09T19:40:14Z</time>
      </trkpt>
      <trkpt lat="47.88188" lon="7.22255">
        <ele>278.2</ele>
        <time>2019-08-09T19:40:15Z</time>
      </trkpt>
      <trkpt lat="47.88188" lon="7.2225">
        <ele>278.2</ele>
        <time>2019-08-09T19:40:16Z</time>
      </trkpt>
      <trkpt lat="47.88188" lon="7.22246">
        <ele>278.2</ele>
        <time>2019-08-09T19:40:17Z</time>
      </trkpt>
      <trkpt lat="47.88187" lon="7.22242">
        <ele>278.2</ele>
        <time>2019-08-09T19:40:18Z</time>
      </trkpt>
      <trkpt lat="47.88186" lon="7.22237">
        <ele>278.2</ele>
        <time>2019-08-09T19:40:19Z</time>
      </trkpt>
      <trkpt lat="47.88185" lon="7.22233">
        <ele>278.2</ele>
        <time>2019-08-09T19:40:20Z</time>
      </trkpt>
      <trkpt lat="47.88184" lon="7.22227">
        <ele>278.2</ele>
        <time>2019-08-09T19:40:21Z</time>
      </trkpt>
      <trkpt lat="47.88182" lon="7.22219">
        <ele>278.2</ele>
        <time>2019-08-09T19:40:23Z</time>
      </trkpt>
      <trkpt lat="47.88181" lon="7.22214">
        <ele>278.2</ele>
        <time>2019-08-09T19:40:24Z</time>
      </trkpt>
      <trkpt lat="47.88179" lon="7.2221">
        <ele>278.2</ele>
        <time>2019-08-09T19:40:25Z</time>
      </trkpt>
      <trkpt lat="47.88178" lon="7.22204">
        <ele>278.2</ele>
        <time>2019-08-09T19:40:26Z</time>
      </trkpt>
      <trkpt lat="47.88176" lon="7.22199">
        <ele>278.2</ele>
        <time>2019-08-09T19:40:27Z</time>
      </trkpt>
      <trkpt lat="47.88175" lon="7.22194">
        <ele>278.3</ele>
        <time>2019-08-09T19:40:28Z</time>
      </trkpt>
      <trkpt lat="47.88174" lon="7.22189">
        <ele>278.3</ele>
        <time>2019-08-09T19:40:29Z</time>
      </trkpt>
      <trkpt lat="47.88172" lon="7.22184">
        <ele>278.3</ele>
        <time>2019-08-09T19:40:30Z</time>
      </trkpt>
      <trkpt lat="47.88169" lon="7.2218">
        <ele>278.4</ele>
        <time>2019-08-09T19:40:31Z</time>
      </trkpt>
      <trkpt lat="47.88167" lon="7.22176">
        <ele>278.4</ele>
        <time>2019-08-09T19:40:32Z</time>
      </trkpt>
      <trkpt lat="47.88166" lon="7.22172">
        <ele>278.4</ele>
        <time>2019-08-09T19:40:33Z</time>
      </trkpt>
      <trkpt lat="47.88164" lon="7.22167">
        <ele>278.4</ele>
        <time>2019-08-09T19:40:34Z</time>
      </trkpt>
      <trkpt lat="47.88163" lon="7.22162">
        <ele>278.5</ele>
        <time>2019-08-09T19:40:35Z</time>
      </trkpt>
      <trkpt lat="47.88161" lon="7.22157">
        <ele>278.5</ele>
        <time>2019-08-09T19:40:36Z</time>
      </trkpt>
      <trkpt lat="47.88159" lon="7.22153">
        <ele>278.5</ele>
        <time>2019-08-09T19:40:37Z</time>
      </trkpt>
      <trkpt lat="47.88157" lon="7.22148">
        <ele>278.5</ele>
        <time>2019-08-09T19:40:38Z</time>
      </trkpt>
      <trkpt lat="47.88156" lon="7.22143">
        <ele>278.6</ele>
        <time>2019-08-09T19:40:39Z</time>
      </trkpt>
      <trkpt lat="47.88155" lon="7.22138">
        <ele>278.6</ele>
        <time>2019-08-09T19:40:40Z</time>
      </trkpt>
      <trkpt lat="47.88153" lon="7.22134">
        <ele>278.7</ele>
        <time>2019-08-09T19:40:41Z</time>
      </trkpt>
      <trkpt lat="47.88152" lon="7.22129">
        <ele>278.7</ele>
        <time>2019-08-09T19:40:42Z</time>
      </trkpt>
      <trkpt lat="47.88151" lon="7.22124">
        <ele>278.8</ele>
        <time>2019-08-09T19:40:43Z</time>
      </trkpt>
      <trkpt lat="47.8815" lon="7.22118">
        <ele>278.8</ele>
        <time>2019-08-09T19:40:45Z</time>
      </trkpt>
      <trkpt lat="47.88149" lon="7.22113">
        <ele>278.9</ele>
        <time>2019-08-09T19:40:46Z</time>
      </trkpt>
      <trkpt lat="47.88149" lon="7.22109">
        <ele>278.9</ele>
        <time>2019-08-09T19:40:47Z</time>
      </trkpt>
      <trkpt lat="47.88147" lon="7.22104">
        <ele>279</ele>
        <time>2019-08-09T19:40:48Z</time>
      </trkpt>
      <trkpt lat="47.88147" lon="7.221">
        <ele>279</ele>
        <time>2019-08-09T19:40:49Z</time>
      </trkpt>
      <trkpt lat="47.88145" lon="7.22095">
        <ele>279.1</ele>
        <time>2019-08-09T19:40:50Z</time>
      </trkpt>
      <trkpt lat="47.88144" lon="7.22091">
        <ele>279.1</ele>
        <time>2019-08-09T19:40:51Z</time>
      </trkpt>
      <trkpt lat="47.88143" lon="7.22087">
        <ele>279.3</ele>
        <time>2019-08-09T19:40:52Z</time>
      </trkpt>
      <trkpt lat="47.88142" lon="7.22082">
        <ele>279.5</ele>
        <time>2019-08-09T19:40:53Z</time>
      </trkpt>
      <trkpt lat="47.8814" lon="7.22075">
        <ele>279.8</ele>
        <time>2019-08-09T19:40:55Z</time>
      </trkpt>
      <trkpt lat="47.8814" lon="7.22071">
        <ele>280</ele>
        <time>2019-08-09T19:40:56Z</time>
      </trkpt>
      <trkpt lat="47.88139" lon="7.22067">
        <ele>280.2</ele>
        <time>2019-08-09T19:40:57Z</time>
      </trkpt>
      <trkpt lat="47.88139" lon="7.22062">
        <ele>280.4</ele>
        <time>2019-08-09T19:40:58Z</time>
      </trkpt>
      <trkpt lat="47.88138" lon="7.22057">
        <ele>280.6</ele>
        <time>2019-08-09T19:40:59Z</time>
      </trkpt>
      <trkpt lat="47.88138" lon="7.22052">
        <ele>280.7</ele>
        <time>2019-08-09T19:41:00Z</time>
      </trkpt>
      <trkpt lat="47.88138" lon="7.22048">
        <ele>280.7</ele>
        <time>2019-08-09T19:41:01Z</time>
      </trkpt>
      <trkpt lat="47.88138" lon="7.22044">
        <ele>280.8</ele>
        <time>2019-08-09T19:41:02Z</time>
      </trkpt>
      <trkpt lat="47.88137" lon="7.2204">
        <ele>280.9</ele>
        <time>2019-08-09T19:41:03Z</time>
      </trkpt>
      <trkpt lat="47.88136" lon="7.22036">
        <ele>281</ele>
        <time>2019-08-09T19:41:04Z</time>
      </trkpt>
      <trkpt lat="47.88135" lon="7.22027">
        <ele>281.2</ele>
        <time>2019-08-09T19:41:06Z</time>
      </trkpt>
      <trkpt lat="47.88135" lon="7.22022">
        <ele>281.2</ele>
        <time>2019-08-09T19:41:07Z</time>
      </trkpt>
      <trkpt lat="47.88133" lon="7.22018">
        <ele>281.3</ele>
        <time>2019-08-09T19:41:08Z</time>
      </trkpt>
      <trkpt lat="47.88132" lon="7.22013">
        <ele>281.4</ele>
        <time>2019-08-09T19:41:09Z</time>
      </trkpt>
      <trkpt lat="47.88131" lon="7.22009">
        <ele>281.5</ele>
        <time>2019-08-09T19:41:10Z</time>
      </trkpt>
      <trkpt lat="47.8813" lon="7.22005">
        <ele>282</ele>
        <time>2019-08-09T19:41:11Z</time>
      </trkpt>
      <trkpt lat="47.88128" lon="7.21997">
        <ele>282</ele>
        <time>2019-08-09T19:41:13Z</time>
      </trkpt>
      <trkpt lat="47.88126" lon="7.2199">
        <ele>282</ele>
        <time>2019-08-09T19:41:15Z</time>
      </trkpt>
      <trkpt lat="47.88125" lon="7.21984">
        <ele>282.1</ele>
        <time>2019-08-09T19:41:16Z</time>
      </trkpt>
      <trkpt lat="47.88123" lon="7.21977">
        <ele>282.1</ele>
        <time>2019-08-09T19:41:18Z</time>
      </trkpt>
      <trkpt lat="47.88121" lon="7.2197">
        <ele>282.2</ele>
        <time>2019-08-09T19:41:20Z</time>
      </trkpt>
      <trkpt lat="47.88119" lon="7.21966">
        <ele>282.2</ele>
        <time>2019-08-09T19:41:21Z</time>
      </trkpt>
      <trkpt lat="47.88118" lon="7.21961">
        <ele>282.2</ele>
        <time>2019-08-09T19:41:22Z</time>
      </trkpt>
      <trkpt lat="47.88117" lon="7.21954">
        <ele>282.3</ele>
        <time>2019-08-09T19:41:24Z</time>
      </trkpt>
      <trkpt lat="47.88116" lon="7.21945">
        <ele>282.4</ele>
        <time>2019-08-09T19:41:26Z</time>
      </trkpt>
      <trkpt lat="47.88114" lon="7.21938">
        <ele>282.5</ele>
        <time>2019-08-09T19:41:28Z</time>
      </trkpt>
      <trkpt lat="47.88113" lon="7.21934">
        <ele>282.5</ele>
        <time>2019-08-09T19:41:29Z</time>
      </trkpt>
      <trkpt lat="47.88112" lon="7.21929">
        <ele>282.6</ele>
        <time>2019-08-09T19:41:30Z</time>
      </trkpt>
      <trkpt lat="47.88112" lon="7.21924">
        <ele>282.6</ele>
        <time>2019-08-09T19:41:31Z</time>
      </trkpt>
      <trkpt lat="47.8811" lon="7.2192">
        <ele>282.7</ele>
        <time>2019-08-09T19:41:32Z</time>
      </trkpt>
      <trkpt lat="47.88109" lon="7.21913">
        <ele>282.8</ele>
        <time>2019-08-09T19:41:34Z</time>
      </trkpt>
      <trkpt lat="47.88108" lon="7.21909">
        <ele>282.9</ele>
        <time>2019-08-09T19:41:35Z</time>
      </trkpt>
      <trkpt lat="47.88106" lon="7.21901">
        <ele>283</ele>
        <time>2019-08-09T19:41:37Z</time>
      </trkpt>
      <trkpt lat="47.88105" lon="7.21897">
        <ele>283.1</ele>
        <time>2019-08-09T19:41:38Z</time>
      </trkpt>
      <trkpt lat="47.88104" lon="7.21892">
        <ele>283.1</ele>
        <time>2019-08-09T19:41:39Z</time>
      </trkpt>
      <trkpt lat="47.88103" lon="7.21888">
        <ele>283.2</ele>
        <time>2019-08-09T19:41:40Z</time>
      </trkpt>
      <trkpt lat="47.88102" lon="7.21882">
        <ele>283.3</ele>
        <time>2019-08-09T19:41:41Z</time>
      </trkpt>
      <trkpt lat="47.88102" lon="7.21878">
        <ele>283.4</ele>
        <time>2019-08-09T19:41:42Z</time>
      </trkpt>
      <trkpt lat="47.88101" lon="7.21873">
        <ele>283.4</ele>
        <time>2019-08-09T19:41:43Z</time>
      </trkpt>
      <trkpt lat="47.881" lon="7.21869">
        <ele>283.6</ele>
        <time>2019-08-09T19:41:44Z</time>
      </trkpt>
      <trkpt lat="47.88099" lon="7.21861">
        <ele>283.6</ele>
        <time>2019-08-09T19:41:46Z</time>
      </trkpt>
      <trkpt lat="47.88099" lon="7.21856">
        <ele>283.6</ele>
        <time>2019-08-09T19:41:47Z</time>
      </trkpt>
      <trkpt lat="47.88098" lon="7.21851">
        <ele>283.7</ele>
        <time>2019-08-09T19:41:48Z</time>
      </trkpt>
      <trkpt lat="47.88097" lon="7.21845">
        <ele>283.7</ele>
        <time>2019-08-09T19:41:49Z</time>
      </trkpt>
      <trkpt lat="47.88096" lon="7.21841">
        <ele>283.7</ele>
        <time>2019-08-09T19:41:50Z</time>
      </trkpt>
      <trkpt lat="47.88094" lon="7.21838">
        <ele>283.7</ele>
        <time>2019-08-09T19:41:51Z</time>
      </trkpt>
      <trkpt lat="47.88093" lon="7.21834">
        <ele>283.8</ele>
        <time>2019-08-09T19:41:52Z</time>
      </trkpt>
      <trkpt lat="47.88092" lon="7.21829">
        <ele>283.8</ele>
        <time>2019-08-09T19:41:53Z</time>
      </trkpt>
      <trkpt lat="47.88091" lon="7.21825">
        <ele>283.8</ele>
        <time>2019-08-09T19:41:54Z</time>
      </trkpt>
      <trkpt lat="47.88091" lon="7.2182">
        <ele>283.8</ele>
        <time>2019-08-09T19:41:55Z</time>
      </trkpt>
      <trkpt lat="47.8809" lon="7.21816">
        <ele>283.9</ele>
        <time>2019-08-09T19:41:56Z</time>
      </trkpt>
      <trkpt lat="47.88088" lon="7.21813">
        <ele>283.9</ele>
        <time>2019-08-09T19:41:57Z</time>
      </trkpt>
      <trkpt lat="47.88087" lon="7.21806">
        <ele>284</ele>
        <time>2019-08-09T19:41:59Z</time>
      </trkpt>
      <trkpt lat="47.88086" lon="7.21798">
        <ele>284</ele>
        <time>2019-08-09T19:42:01Z</time>
      </trkpt>
      <trkpt lat="47.88085" lon="7.21791">
        <ele>284</ele>
        <time>2019-08-09T19:42:03Z</time>
      </trkpt>
      <trkpt lat="47.88085" lon="7.21788">
        <ele>284.1</ele>
        <time>2019-08-09T19:42:04Z</time>
      </trkpt>
      <trkpt lat="47.88084" lon="7.21783">
        <ele>284.1</ele>
        <time>2019-08-09T19:42:05Z</time>
      </trkpt>
      <trkpt lat="47.88082" lon="7.21779">
        <ele>284.1</ele>
        <time>2019-08-09T19:42:06Z</time>
      </trkpt>
      <trkpt lat="47.88081" lon="7.21775">
        <ele>284.2</ele>
        <time>2019-08-09T19:42:07Z</time>
      </trkpt>
      <trkpt lat="47.88079" lon="7.2177">
        <ele>284.2</ele>
        <time>2019-08-09T19:42:08Z</time>
      </trkpt>
      <trkpt lat="47.88077" lon="7.21766">
        <ele>284.3</ele>
        <time>2019-08-09T19:42:09Z</time>
      </trkpt>
      <trkpt lat="47.88075" lon="7.21762">
        <ele>284.3</ele>
        <time>2019-08-09T19:42:10Z</time>
      </trkpt>
      <trkpt lat="47.88072" lon="7.2176">
        <ele>284.3</ele>
        <time>2019-08-09T19:42:11Z</time>
      </trkpt>
      <trkpt lat="47.88071" lon="7.21754">
        <ele>284.4</ele>
        <time>2019-08-09T19:42:12Z</time>
      </trkpt>
      <trkpt lat="47.8807" lon="7.21749">
        <ele>284.5</ele>
        <time>2019-08-09T19:42:13Z</time>
      </trkpt>
      <trkpt lat="47.8807" lon="7.21744">
        <ele>284.5</ele>
        <time>2019-08-09T19:42:14Z</time>
      </trkpt>
      <trkpt lat="47.88071" lon="7.2174">
        <ele>284.5</ele>
        <time>2019-08-09T19:42:15Z</time>
      </trkpt>
      <trkpt lat="47.88071" lon="7.21733">
        <ele>284.6</ele>
        <time>2019-08-09T19:42:17Z</time>
      </trkpt>
      <trkpt lat="47.88071" lon="7.21727">
        <ele>284.7</ele>
        <time>2019-08-09T19:42:18Z</time>
      </trkpt>
      <trkpt lat="47.88071" lon="7.21722">
        <ele>284.7</ele>
        <time>2019-08-09T19:42:19Z</time>
      </trkpt>
      <trkpt lat="47.88071" lon="7.21718">
        <ele>284.8</ele>
        <time>2019-08-09T19:42:20Z</time>
      </trkpt>
      <trkpt lat="47.88071" lon="7.21713">
        <ele>284.9</ele>
        <time>2019-08-09T19:42:21Z</time>
      </trkpt>
      <trkpt lat="47.8807" lon="7.21708">
        <ele>285</ele>
        <time>2019-08-09T19:42:22Z</time>
      </trkpt>
      <trkpt lat="47.88069" lon="7.21703">
        <ele>285.1</ele>
        <time>2019-08-09T19:42:23Z</time>
      </trkpt>
      <trkpt lat="47.88068" lon="7.21699">
        <ele>285.1</ele>
        <time>2019-08-09T19:42:24Z</time>
      </trkpt>
      <trkpt lat="47.88068" lon="7.21694">
        <ele>285.2</ele>
        <time>2019-08-09T19:42:25Z</time>
      </trkpt>
      <trkpt lat="47.88066" lon="7.21686">
        <ele>285.4</ele>
        <time>2019-08-09T19:42:27Z</time>
      </trkpt>
      <trkpt lat="47.88064" lon="7.21681">
        <ele>285.5</ele>
        <time>2019-08-09T19:42:29Z</time>
      </trkpt>
      <trkpt lat="47.88062" lon="7.21676">
        <ele>285.6</ele>
        <time>2019-08-09T19:42:30Z</time>
      </trkpt>
      <trkpt lat="47.88061" lon="7.21672">
        <ele>285.6</ele>
        <time>2019-08-09T19:42:31Z</time>
      </trkpt>
      <trkpt lat="47.88059" lon="7.21664">
        <ele>285.8</ele>
        <time>2019-08-09T19:42:33Z</time>
      </trkpt>
      <trkpt lat="47.88059" lon="7.21659">
        <ele>286</ele>
        <time>2019-08-09T19:42:34Z</time>
      </trkpt>
      <trkpt lat="47.88058" lon="7.21655">
        <ele>286.1</ele>
        <time>2019-08-09T19:42:35Z</time>
      </trkpt>
      <trkpt lat="47.88056" lon="7.2165">
        <ele>286.3</ele>
        <time>2019-08-09T19:42:36Z</time>
      </trkpt>
      <trkpt lat="47.88055" lon="7.21645">
        <ele>286.4</ele>
        <time>2019-08-09T19:42:37Z</time>
      </trkpt>
      <trkpt lat="47.88055" lon="7.21641">
        <ele>286.5</ele>
        <time>2019-08-09T19:42:38Z</time>
      </trkpt>
      <trkpt lat="47.88054" lon="7.21637">
        <ele>286.6</ele>
        <time>2019-08-09T19:42:39Z</time>
      </trkpt>
      <trkpt lat="47.88053" lon="7.21632">
        <ele>286.7</ele>
        <time>2019-08-09T19:42:40Z</time>
      </trkpt>
      <trkpt lat="47.88052" lon="7.21626">
        <ele>286.8</ele>
        <time>2019-08-09T19:42:41Z</time>
      </trkpt>
      <trkpt lat="47.88051" lon="7.21621">
        <ele>286.9</ele>
        <time>2019-08-09T19:42:42Z</time>
      </trkpt>
      <trkpt lat="47.8805" lon="7.21617">
        <ele>287</ele>
        <time>2019-08-09T19:42:43Z</time>
      </trkpt>
      <trkpt lat="47.8805" lon="7.21612">
        <ele>287.1</ele>
        <time>2019-08-09T19:42:44Z</time>
      </trkpt>
      <trkpt lat="47.88049" lon="7.21607">
        <ele>287.2</ele>
        <time>2019-08-09T19:42:45Z</time>
      </trkpt>
      <trkpt lat="47.88049" lon="7.21602">
        <ele>287.4</ele>
        <time>2019-08-09T19:42:46Z</time>
      </trkpt>
      <trkpt lat="47.88048" lon="7.21598">
        <ele>287.6</ele>
        <time>2019-08-09T19:42:47Z</time>
      </trkpt>
      <trkpt lat="47.88048" lon="7.21594">
        <ele>287.8</ele>
        <time>2019-08-09T19:42:48Z</time>
      </trkpt>
      <trkpt lat="47.88047" lon="7.2159">
        <ele>287.9</ele>
        <time>2019-08-09T19:42:49Z</time>
      </trkpt>
      <trkpt lat="47.88047" lon="7.21582">
        <ele>288.3</ele>
        <time>2019-08-09T19:42:51Z</time>
      </trkpt>
      <trkpt lat="47.88046" lon="7.21578">
        <ele>288.5</ele>
        <time>2019-08-09T19:42:52Z</time>
      </trkpt>
      <trkpt lat="47.88045" lon="7.21574">
        <ele>288.7</ele>
        <time>2019-08-09T19:42:53Z</time>
      </trkpt>
      <trkpt lat="47.88044" lon="7.2157">
        <ele>288.8</ele>
        <time>2019-08-09T19:42:54Z</time>
      </trkpt>
      <trkpt lat="47.88044" lon="7.21565">
        <ele>289</ele>
        <time>2019-08-09T19:42:55Z</time>
      </trkpt>
      <trkpt lat="47.88044" lon="7.21561">
        <ele>289.2</ele>
        <time>2019-08-09T19:42:56Z</time>
      </trkpt>
      <trkpt lat="47.88043" lon="7.21557">
        <ele>289.3</ele>
        <time>2019-08-09T19:42:57Z</time>
      </trkpt>
      <trkpt lat="47.88042" lon="7.2155">
        <ele>289.5</ele>
        <time>2019-08-09T19:42:59Z</time>
      </trkpt>
      <trkpt lat="47.88042" lon="7.21545">
        <ele>289.6</ele>
        <time>2019-08-09T19:43:00Z</time>
      </trkpt>
      <trkpt lat="47.88042" lon="7.21539">
        <ele>289.7</ele>
        <time>2019-08-09T19:43:02Z</time>
      </trkpt>
      <trkpt lat="47.88042" lon="7.2153">
        <ele>289.8</ele>
        <time>2019-08-09T19:43:04Z</time>
      </trkpt>
      <trkpt lat="47.88042" lon="7.21526">
        <ele>289.9</ele>
        <time>2019-08-09T19:43:05Z</time>
      </trkpt>
      <trkpt lat="47.8804" lon="7.21518">
        <ele>290</ele>
        <time>2019-08-09T19:43:07Z</time>
      </trkpt>
      <trkpt lat="47.88039" lon="7.21514">
        <ele>290</ele>
        <time>2019-08-09T19:43:08Z</time>
      </trkpt>
      <trkpt lat="47.88039" lon="7.2151">
        <ele>290.1</ele>
        <time>2019-08-09T19:43:09Z</time>
      </trkpt>
      <trkpt lat="47.8804" lon="7.21503">
        <ele>290.1</ele>
        <time>2019-08-09T19:43:10Z</time>
      </trkpt>
      <trkpt lat="47.8804" lon="7.21495">
        <ele>290.2</ele>
        <time>2019-08-09T19:43:12Z</time>
      </trkpt>
      <trkpt lat="47.88039" lon="7.21487">
        <ele>290.3</ele>
        <time>2019-08-09T19:43:14Z</time>
      </trkpt>
      <trkpt lat="47.88038" lon="7.21482">
        <ele>290.3</ele>
        <time>2019-08-09T19:43:15Z</time>
      </trkpt>
      <trkpt lat="47.88037" lon="7.21478">
        <ele>290.4</ele>
        <time>2019-08-09T19:43:16Z</time>
      </trkpt>
      <trkpt lat="47.88036" lon="7.21473">
        <ele>290.4</ele>
        <time>2019-08-09T19:43:17Z</time>
      </trkpt>
      <trkpt lat="47.88036" lon="7.21468">
        <ele>290.5</ele>
        <time>2019-08-09T19:43:18Z</time>
      </trkpt>
      <trkpt lat="47.88035" lon="7.21463">
        <ele>290.5</ele>
        <time>2019-08-09T19:43:19Z</time>
      </trkpt>
      <trkpt lat="47.88035" lon="7.21455">
        <ele>290.6</ele>
        <time>2019-08-09T19:43:21Z</time>
      </trkpt>
      <trkpt lat="47.88034" lon="7.21451">
        <ele>290.6</ele>
        <time>2019-08-09T19:43:22Z</time>
      </trkpt>
      <trkpt lat="47.88032" lon="7.21445">
        <ele>290.7</ele>
        <time>2019-08-09T19:43:24Z</time>
      </trkpt>
      <trkpt lat="47.88032" lon="7.21439">
        <ele>290.7</ele>
        <time>2019-08-09T19:43:26Z</time>
      </trkpt>
      <trkpt lat="47.88032" lon="7.21435">
        <ele>290.7</ele>
        <time>2019-08-09T19:43:28Z</time>
      </trkpt>
      <trkpt lat="47.88028" lon="7.21434">
        <ele>290.8</ele>
        <time>2019-08-09T19:43:32Z</time>
      </trkpt>
      <trkpt lat="47.88024" lon="7.21427">
        <ele>290.8</ele>
        <time>2019-08-09T19:45:29Z</time>
      </trkpt>
      <trkpt lat="47.88023" lon="7.21421">
        <ele>291</ele>
        <time>2019-08-09T19:45:31Z</time>
      </trkpt>
      <trkpt lat="47.88022" lon="7.21417">
        <ele>291.1</ele>
        <time>2019-08-09T19:45:32Z</time>
      </trkpt>
      <trkpt lat="47.88021" lon="7.21412">
        <ele>291.2</ele>
        <time>2019-08-09T19:45:33Z</time>
      </trkpt>
      <trkpt lat="47.8802" lon="7.21407">
        <ele>291.3</ele>
        <time>2019-08-09T19:45:34Z</time>
      </trkpt>
      <trkpt lat="47.88019" lon="7.21401">
        <ele>291.5</ele>
        <time>2019-08-09T19:45:35Z</time>
      </trkpt>
      <trkpt lat="47.88019" lon="7.21395">
        <ele>291.6</ele>
        <time>2019-08-09T19:45:36Z</time>
      </trkpt>
      <trkpt lat="47.88019" lon="7.21389">
        <ele>291.8</ele>
        <time>2019-08-09T19:45:37Z</time>
      </trkpt>
      <trkpt lat="47.88019" lon="7.21383">
        <ele>291.9</ele>
        <time>2019-08-09T19:45:38Z</time>
      </trkpt>
      <trkpt lat="47.88018" lon="7.21377">
        <ele>292</ele>
        <time>2019-08-09T19:45:39Z</time>
      </trkpt>
      <trkpt lat="47.88017" lon="7.2137">
        <ele>292.1</ele>
        <time>2019-08-09T19:45:40Z</time>
      </trkpt>
      <trkpt lat="47.88017" lon="7.21365">
        <ele>292.1</ele>
        <time>2019-08-09T19:45:41Z</time>
      </trkpt>
      <trkpt lat="47.88016" lon="7.21359">
        <ele>292.3</ele>
        <time>2019-08-09T19:45:42Z</time>
      </trkpt>
      <trkpt lat="47.88015" lon="7.21354">
        <ele>292.3</ele>
        <time>2019-08-09T19:45:43Z</time>
      </trkpt>
      <trkpt lat="47.88015" lon="7.21348">
        <ele>292.4</ele>
        <time>2019-08-09T19:45:44Z</time>
      </trkpt>
      <trkpt lat="47.88015" lon="7.21343">
        <ele>292.5</ele>
        <time>2019-08-09T19:45:45Z</time>
      </trkpt>
      <trkpt lat="47.88015" lon="7.21338">
        <ele>292.6</ele>
        <time>2019-08-09T19:45:46Z</time>
      </trkpt>
      <trkpt lat="47.88015" lon="7.21333">
        <ele>292.6</ele>
        <time>2019-08-09T19:45:47Z</time>
      </trkpt>
      <trkpt lat="47.88015" lon="7.21329">
        <ele>292.7</ele>
        <time>2019-08-09T19:45:48Z</time>
      </trkpt>
      <trkpt lat="47.88014" lon="7.21324">
        <ele>292.8</ele>
        <time>2019-08-09T19:45:49Z</time>
      </trkpt>
      <trkpt lat="47.88013" lon="7.2132">
        <ele>292.9</ele>
        <time>2019-08-09T19:45:50Z</time>
      </trkpt>
      <trkpt lat="47.88012" lon="7.21316">
        <ele>292.9</ele>
        <time>2019-08-09T19:45:51Z</time>
      </trkpt>
      <trkpt lat="47.88011" lon="7.21312">
        <ele>293</ele>
        <time>2019-08-09T19:45:52Z</time>
      </trkpt>
      <trkpt lat="47.8801" lon="7.21308">
        <ele>293.1</ele>
        <time>2019-08-09T19:45:53Z</time>
      </trkpt>
      <trkpt lat="47.88008" lon="7.21301">
        <ele>293.3</ele>
        <time>2019-08-09T19:45:55Z</time>
      </trkpt>
      <trkpt lat="47.88007" lon="7.21297">
        <ele>293.4</ele>
        <time>2019-08-09T19:45:56Z</time>
      </trkpt>
      <trkpt lat="47.88006" lon="7.21293">
        <ele>293.5</ele>
        <time>2019-08-09T19:45:57Z</time>
      </trkpt>
      <trkpt lat="47.88005" lon="7.21289">
        <ele>293.6</ele>
        <time>2019-08-09T19:45:58Z</time>
      </trkpt>
      <trkpt lat="47.88003" lon="7.21282">
        <ele>293.8</ele>
        <time>2019-08-09T19:46:00Z</time>
      </trkpt>
      <trkpt lat="47.88003" lon="7.21278">
        <ele>293.9</ele>
        <time>2019-08-09T19:46:01Z</time>
      </trkpt>
      <trkpt lat="47.88" lon="7.21271">
        <ele>294</ele>
        <time>2019-08-09T19:46:03Z</time>
      </trkpt>
      <trkpt lat="47.87998" lon="7.21263">
        <ele>294.2</ele>
        <time>2019-08-09T19:46:05Z</time>
      </trkpt>
      <trkpt lat="47.87996" lon="7.21259">
        <ele>294.2</ele>
        <time>2019-08-09T19:46:06Z</time>
      </trkpt>
      <trkpt lat="47.87994" lon="7.21255">
        <ele>294.3</ele>
        <time>2019-08-09T19:46:07Z</time>
      </trkpt>
      <trkpt lat="47.87993" lon="7.21251">
        <ele>294.4</ele>
        <time>2019-08-09T19:46:08Z</time>
      </trkpt>
      <trkpt lat="47.87992" lon="7.21248">
        <ele>294.5</ele>
        <time>2019-08-09T19:46:09Z</time>
      </trkpt>
      <trkpt lat="47.8799" lon="7.21241">
        <ele>294.6</ele>
        <time>2019-08-09T19:46:11Z</time>
      </trkpt>
      <trkpt lat="47.87988" lon="7.21233">
        <ele>294.7</ele>
        <time>2019-08-09T19:46:13Z</time>
      </trkpt>
      <trkpt lat="47.87987" lon="7.2123">
        <ele>294.8</ele>
        <time>2019-08-09T19:46:14Z</time>
      </trkpt>
      <trkpt lat="47.87985" lon="7.21226">
        <ele>294.8</ele>
        <time>2019-08-09T19:46:15Z</time>
      </trkpt>
      <trkpt lat="47.87984" lon="7.21218">
        <ele>294.9</ele>
        <time>2019-08-09T19:46:17Z</time>
      </trkpt>
      <trkpt lat="47.87982" lon="7.21212">
        <ele>295</ele>
        <time>2019-08-09T19:46:19Z</time>
      </trkpt>
      <trkpt lat="47.8798" lon="7.21205">
        <ele>295.1</ele>
        <time>2019-08-09T19:46:21Z</time>
      </trkpt>
      <trkpt lat="47.87979" lon="7.21201">
        <ele>295.2</ele>
        <time>2019-08-09T19:46:22Z</time>
      </trkpt>
      <trkpt lat="47.87978" lon="7.21197">
        <ele>295.3</ele>
        <time>2019-08-09T19:46:23Z</time>
      </trkpt>
      <trkpt lat="47.87976" lon="7.21194">
        <ele>295.4</ele>
        <time>2019-08-09T19:46:24Z</time>
      </trkpt>
      <trkpt lat="47.87975" lon="7.21188">
        <ele>295.5</ele>
        <time>2019-08-09T19:46:26Z</time>
      </trkpt>
      <trkpt lat="47.87975" lon="7.21182">
        <ele>295.6</ele>
        <time>2019-08-09T19:46:28Z</time>
      </trkpt>
      <trkpt lat="47.87975" lon="7.21176">
        <ele>295.7</ele>
        <time>2019-08-09T19:46:30Z</time>
      </trkpt>
      <trkpt lat="47.87975" lon="7.21172">
        <ele>295.8</ele>
        <time>2019-08-09T19:46:32Z</time>
      </trkpt>
      <trkpt lat="47.87974" lon="7.21167">
        <ele>296.1</ele>
        <time>2019-08-09T19:46:34Z</time>
      </trkpt>
      <trkpt lat="47.87974" lon="7.21163">
        <ele>296</ele>
        <time>2019-08-09T19:46:36Z</time>
      </trkpt>
      <trkpt lat="47.87973" lon="7.21157">
        <ele>296</ele>
        <time>2019-08-09T19:46:39Z</time>
      </trkpt>
      <trkpt lat="47.87971" lon="7.21162">
        <ele>296</ele>
        <time>2019-08-09T19:46:46Z</time>
      </trkpt>
      <trkpt lat="47.87973" lon="7.21167">
        <ele>296</ele>
        <time>2019-08-09T19:46:49Z</time>
      </trkpt>
      <trkpt lat="47.87973" lon="7.2117">
        <ele>296</ele>
        <time>2019-08-09T19:46:56Z</time>
      </trkpt>
      <trkpt lat="47.87976" lon="7.21173">
        <ele>295.9</ele>
        <time>2019-08-09T19:47:03Z</time>
      </trkpt>
      <trkpt lat="47.87981" lon="7.2118">
        <ele>295.9</ele>
        <time>2019-08-09T19:49:27Z</time>
      </trkpt>
      <trkpt lat="47.8798" lon="7.21184">
        <ele>295.8</ele>
        <time>2019-08-09T19:49:29Z</time>
      </trkpt>
      <trkpt lat="47.87976" lon="7.21189">
        <ele>295.8</ele>
        <time>2019-08-09T19:49:31Z</time>
      </trkpt>
      <trkpt lat="47.87974" lon="7.21196">
        <ele>295.8</ele>
        <time>2019-08-09T19:49:33Z</time>
      </trkpt>
      <trkpt lat="47.87974" lon="7.21201">
        <ele>295.7</ele>
        <time>2019-08-09T19:49:34Z</time>
      </trkpt>
      <trkpt lat="47.87974" lon="7.21209">
        <ele>295.7</ele>
        <time>2019-08-09T19:49:36Z</time>
      </trkpt>
      <trkpt lat="47.87975" lon="7.21214">
        <ele>295.7</ele>
        <time>2019-08-09T19:49:37Z</time>
      </trkpt>
      <trkpt lat="47.87976" lon="7.21219">
        <ele>295.6</ele>
        <time>2019-08-09T19:49:38Z</time>
      </trkpt>
      <trkpt lat="47.87978" lon="7.21224">
        <ele>295.6</ele>
        <time>2019-08-09T19:49:39Z</time>
      </trkpt>
      <trkpt lat="47.87979" lon="7.21229">
        <ele>295.6</ele>
        <time>2019-08-09T19:49:40Z</time>
      </trkpt>
      <trkpt lat="47.87981" lon="7.21234">
        <ele>295.5</ele>
        <time>2019-08-09T19:49:41Z</time>
      </trkpt>
      <trkpt lat="47.87982" lon="7.21239">
        <ele>295.5</ele>
        <time>2019-08-09T19:49:42Z</time>
      </trkpt>
      <trkpt lat="47.87984" lon="7.21242">
        <ele>295.4</ele>
        <time>2019-08-09T19:49:43Z</time>
      </trkpt>
      <trkpt lat="47.87985" lon="7.21246">
        <ele>295.4</ele>
        <time>2019-08-09T19:49:44Z</time>
      </trkpt>
      <trkpt lat="47.87986" lon="7.21251">
        <ele>295.3</ele>
        <time>2019-08-09T19:49:45Z</time>
      </trkpt>
      <trkpt lat="47.87988" lon="7.21255">
        <ele>295.3</ele>
        <time>2019-08-09T19:49:46Z</time>
      </trkpt>
      <trkpt lat="47.8799" lon="7.21264">
        <ele>295.1</ele>
        <time>2019-08-09T19:49:48Z</time>
      </trkpt>
      <trkpt lat="47.87992" lon="7.2127">
        <ele>295</ele>
        <time>2019-08-09T19:49:50Z</time>
      </trkpt>
      <trkpt lat="47.87993" lon="7.21275">
        <ele>294.9</ele>
        <time>2019-08-09T19:49:51Z</time>
      </trkpt>
      <trkpt lat="47.87994" lon="7.21279">
        <ele>294.9</ele>
        <time>2019-08-09T19:49:52Z</time>
      </trkpt>
      <trkpt lat="47.87996" lon="7.21284">
        <ele>294.7</ele>
        <time>2019-08-09T19:49:53Z</time>
      </trkpt>
      <trkpt lat="47.87997" lon="7.21289">
        <ele>294.6</ele>
        <time>2019-08-09T19:49:54Z</time>
      </trkpt>
      <trkpt lat="47.87997" lon="7.21294">
        <ele>294.5</ele>
        <time>2019-08-09T19:49:55Z</time>
      </trkpt>
      <trkpt lat="47.87998" lon="7.21298">
        <ele>294.4</ele>
        <time>2019-08-09T19:49:56Z</time>
      </trkpt>
      <trkpt lat="47.87999" lon="7.21303">
        <ele>294.3</ele>
        <time>2019-08-09T19:49:57Z</time>
      </trkpt>
      <trkpt lat="47.88" lon="7.2131">
        <ele>294.1</ele>
        <time>2019-08-09T19:49:58Z</time>
      </trkpt>
      <trkpt lat="47.88001" lon="7.21316">
        <ele>293.9</ele>
        <time>2019-08-09T19:49:59Z</time>
      </trkpt>
      <trkpt lat="47.88002" lon="7.21321">
        <ele>293.8</ele>
        <time>2019-08-09T19:50:00Z</time>
      </trkpt>
      <trkpt lat="47.88002" lon="7.21328">
        <ele>293.6</ele>
        <time>2019-08-09T19:50:01Z</time>
      </trkpt>
      <trkpt lat="47.88003" lon="7.21334">
        <ele>293.4</ele>
        <time>2019-08-09T19:50:02Z</time>
      </trkpt>
      <trkpt lat="47.88004" lon="7.21341">
        <ele>293.2</ele>
        <time>2019-08-09T19:50:03Z</time>
      </trkpt>
      <trkpt lat="47.88006" lon="7.21348">
        <ele>293</ele>
        <time>2019-08-09T19:50:04Z</time>
      </trkpt>
      <trkpt lat="47.88007" lon="7.21356">
        <ele>292.7</ele>
        <time>2019-08-09T19:50:05Z</time>
      </trkpt>
      <trkpt lat="47.88008" lon="7.21362">
        <ele>292.5</ele>
        <time>2019-08-09T19:50:06Z</time>
      </trkpt>
      <trkpt lat="47.88009" lon="7.21368">
        <ele>292.4</ele>
        <time>2019-08-09T19:50:07Z</time>
      </trkpt>
      <trkpt lat="47.88009" lon="7.21374">
        <ele>292.2</ele>
        <time>2019-08-09T19:50:08Z</time>
      </trkpt>
      <trkpt lat="47.8801" lon="7.21382">
        <ele>292</ele>
        <time>2019-08-09T19:50:09Z</time>
      </trkpt>
      <trkpt lat="47.88011" lon="7.21389">
        <ele>291.8</ele>
        <time>2019-08-09T19:50:10Z</time>
      </trkpt>
      <trkpt lat="47.88012" lon="7.21396">
        <ele>291.6</ele>
        <time>2019-08-09T19:50:11Z</time>
      </trkpt>
      <trkpt lat="47.88014" lon="7.21404">
        <ele>291.5</ele>
        <time>2019-08-09T19:50:12Z</time>
      </trkpt>
      <trkpt lat="47.88015" lon="7.21409">
        <ele>291.3</ele>
        <time>2019-08-09T19:50:13Z</time>
      </trkpt>
      <trkpt lat="47.88016" lon="7.21415">
        <ele>291.2</ele>
        <time>2019-08-09T19:50:14Z</time>
      </trkpt>
      <trkpt lat="47.88018" lon="7.21422">
        <ele>291.1</ele>
        <time>2019-08-09T19:50:16Z</time>
      </trkpt>
      <trkpt lat="47.88019" lon="7.21428">
        <ele>290.9</ele>
        <time>2019-08-09T19:50:18Z</time>
      </trkpt>
      <trkpt lat="47.88016" lon="7.21432">
        <ele>290.8</ele>
        <time>2019-08-09T19:50:20Z</time>
      </trkpt>
      <trkpt lat="47.88013" lon="7.21434">
        <ele>290.4</ele>
        <time>2019-08-09T19:50:22Z</time>
      </trkpt>
      <trkpt lat="47.88009" lon="7.21431">
        <ele>290.1</ele>
        <time>2019-08-09T19:50:24Z</time>
      </trkpt>
      <trkpt lat="47.88007" lon="7.21432">
        <ele>290</ele>
        <time>2019-08-09T19:50:26Z</time>
      </trkpt>
      <trkpt lat="47.88004" lon="7.21436">
        <ele>289.8</ele>
        <time>2019-08-09T19:50:29Z</time>
      </trkpt>
      <trkpt lat="47.88" lon="7.21437">
        <ele>289.7</ele>
        <time>2019-08-09T19:50:31Z</time>
      </trkpt>
      <trkpt lat="47.87997" lon="7.21439">
        <ele>289.6</ele>
        <time>2019-08-09T19:50:32Z</time>
      </trkpt>
      <trkpt lat="47.87993" lon="7.21441">
        <ele>289.5</ele>
        <time>2019-08-09T19:50:33Z</time>
      </trkpt>
      <trkpt lat="47.87991" lon="7.21442">
        <ele>289.5</ele>
        <time>2019-08-09T19:50:34Z</time>
      </trkpt>
      <trkpt lat="47.87988" lon="7.21444">
        <ele>289.5</ele>
        <time>2019-08-09T19:50:35Z</time>
      </trkpt>
      <trkpt lat="47.87985" lon="7.21446">
        <ele>289.5</ele>
        <time>2019-08-09T19:50:36Z</time>
      </trkpt>
      <trkpt lat="47.87982" lon="7.21448">
        <ele>289.6</ele>
        <time>2019-08-09T19:50:37Z</time>
      </trkpt>
      <trkpt lat="47.87978" lon="7.21449">
        <ele>289.8</ele>
        <time>2019-08-09T19:50:38Z</time>
      </trkpt>
      <trkpt lat="47.87974" lon="7.2145">
        <ele>290</ele>
        <time>2019-08-09T19:50:39Z</time>
      </trkpt>
      <trkpt lat="47.87971" lon="7.21451">
        <ele>290.2</ele>
        <time>2019-08-09T19:50:40Z</time>
      </trkpt>
      <trkpt lat="47.87968" lon="7.21452">
        <ele>290.5</ele>
        <time>2019-08-09T19:50:41Z</time>
      </trkpt>
      <trkpt lat="47.87965" lon="7.21452">
        <ele>290.6</ele>
        <time>2019-08-09T19:50:42Z</time>
      </trkpt>
      <trkpt lat="47.8796" lon="7.21454">
        <ele>290.6</ele>
        <time>2019-08-09T19:50:44Z</time>
      </trkpt>
      <trkpt lat="47.87957" lon="7.21455">
        <ele>290.6</ele>
        <time>2019-08-09T19:50:45Z</time>
      </trkpt>
      <trkpt lat="47.87955" lon="7.21456">
        <ele>290.6</ele>
        <time>2019-08-09T19:50:46Z</time>
      </trkpt>
      <trkpt lat="47.87949" lon="7.21457">
        <ele>290.7</ele>
        <time>2019-08-09T19:50:48Z</time>
      </trkpt>
      <trkpt lat="47.87946" lon="7.21457">
        <ele>290.7</ele>
        <time>2019-08-09T19:50:49Z</time>
      </trkpt>
      <trkpt lat="47.87943" lon="7.21456">
        <ele>290.7</ele>
        <time>2019-08-09T19:50:50Z</time>
      </trkpt>
      <trkpt lat="47.8794" lon="7.21458">
        <ele>290.7</ele>
        <time>2019-08-09T19:50:51Z</time>
      </trkpt>
      <trkpt lat="47.87936" lon="7.21459">
        <ele>290.7</ele>
        <time>2019-08-09T19:50:52Z</time>
      </trkpt>
      <trkpt lat="47.87933" lon="7.2146">
        <ele>290.7</ele>
        <time>2019-08-09T19:50:53Z</time>
      </trkpt>
      <trkpt lat="47.8793" lon="7.21461">
        <ele>290.7</ele>
        <time>2019-08-09T19:50:54Z</time>
      </trkpt>
      <trkpt lat="47.87927" lon="7.21463">
        <ele>290.7</ele>
        <time>2019-08-09T19:50:55Z</time>
      </trkpt>
      <trkpt lat="47.87922" lon="7.21467">
        <ele>290.7</ele>
        <time>2019-08-09T19:50:57Z</time>
      </trkpt>
      <trkpt lat="47.8792" lon="7.2147">
        <ele>290.7</ele>
        <time>2019-08-09T19:50:58Z</time>
      </trkpt>
      <trkpt lat="47.87917" lon="7.21471">
        <ele>290.7</ele>
        <time>2019-08-09T19:50:59Z</time>
      </trkpt>
      <trkpt lat="47.87913" lon="7.21472">
        <ele>290.7</ele>
        <time>2019-08-09T19:51:00Z</time>
      </trkpt>
      <trkpt lat="47.8791" lon="7.21475">
        <ele>290.6</ele>
        <time>2019-08-09T19:51:01Z</time>
      </trkpt>
      <trkpt lat="47.87907" lon="7.21477">
        <ele>290.6</ele>
        <time>2019-08-09T19:51:02Z</time>
      </trkpt>
      <trkpt lat="47.87904" lon="7.21479">
        <ele>290.6</ele>
        <time>2019-08-09T19:51:03Z</time>
      </trkpt>
      <trkpt lat="47.87901" lon="7.21481">
        <ele>290.6</ele>
        <time>2019-08-09T19:51:04Z</time>
      </trkpt>
      <trkpt lat="47.87897" lon="7.21483">
        <ele>290.6</ele>
        <time>2019-08-09T19:51:05Z</time>
      </trkpt>
      <trkpt lat="47.87894" lon="7.21484">
        <ele>290.6</ele>
        <time>2019-08-09T19:51:06Z</time>
      </trkpt>
      <trkpt lat="47.8789" lon="7.21484">
        <ele>290.5</ele>
        <time>2019-08-09T19:51:07Z</time>
      </trkpt>
      <trkpt lat="47.87887" lon="7.21485">
        <ele>290.5</ele>
        <time>2019-08-09T19:51:08Z</time>
      </trkpt>
      <trkpt lat="47.87883" lon="7.21485">
        <ele>290.5</ele>
        <time>2019-08-09T19:51:09Z</time>
      </trkpt>
      <trkpt lat="47.8788" lon="7.21487">
        <ele>290.5</ele>
        <time>2019-08-09T19:51:10Z</time>
      </trkpt>
      <trkpt lat="47.87877" lon="7.21489">
        <ele>290.4</ele>
        <time>2019-08-09T19:51:11Z</time>
      </trkpt>
      <trkpt lat="47.87875" lon="7.2149">
        <ele>290.4</ele>
        <time>2019-08-09T19:51:12Z</time>
      </trkpt>
      <trkpt lat="47.87872" lon="7.21491">
        <ele>290.4</ele>
        <time>2019-08-09T19:51:13Z</time>
      </trkpt>
      <trkpt lat="47.87869" lon="7.21493">
        <ele>290.4</ele>
        <time>2019-08-09T19:51:14Z</time>
      </trkpt>
      <trkpt lat="47.87865" lon="7.21495">
        <ele>290.3</ele>
        <time>2019-08-09T19:51:15Z</time>
      </trkpt>
      <trkpt lat="47.87862" lon="7.21496">
        <ele>290.3</ele>
        <time>2019-08-09T19:51:16Z</time>
      </trkpt>
      <trkpt lat="47.87858" lon="7.21496">
        <ele>290.3</ele>
        <time>2019-08-09T19:51:17Z</time>
      </trkpt>
      <trkpt lat="47.87855" lon="7.21497">
        <ele>290.3</ele>
        <time>2019-08-09T19:51:18Z</time>
      </trkpt>
      <trkpt lat="47.87851" lon="7.21497">
        <ele>290.2</ele>
        <time>2019-08-09T19:51:19Z</time>
      </trkpt>
      <trkpt lat="47.87847" lon="7.21497">
        <ele>290.2</ele>
        <time>2019-08-09T19:51:20Z</time>
      </trkpt>
      <trkpt lat="47.87843" lon="7.21498">
        <ele>290.2</ele>
        <time>2019-08-09T19:51:21Z</time>
      </trkpt>
      <trkpt lat="47.8784" lon="7.21499">
        <ele>290.2</ele>
        <time>2019-08-09T19:51:22Z</time>
      </trkpt>
      <trkpt lat="47.87837" lon="7.215">
        <ele>290.2</ele>
        <time>2019-08-09T19:51:23Z</time>
      </trkpt>
      <trkpt lat="47.87833" lon="7.21501">
        <ele>290.1</ele>
        <time>2019-08-09T19:51:24Z</time>
      </trkpt>
      <trkpt lat="47.8783" lon="7.21501">
        <ele>290.1</ele>
        <time>2019-08-09T19:51:25Z</time>
      </trkpt>
      <trkpt lat="47.87827" lon="7.21502">
        <ele>290.1</ele>
        <time>2019-08-09T19:51:26Z</time>
      </trkpt>
      <trkpt lat="47.87823" lon="7.21502">
        <ele>290.1</ele>
        <time>2019-08-09T19:51:27Z</time>
      </trkpt>
      <trkpt lat="47.87819" lon="7.21502">
        <ele>290.1</ele>
        <time>2019-08-09T19:51:28Z</time>
      </trkpt>
      <trkpt lat="47.87816" lon="7.21502">
        <ele>290</ele>
        <time>2019-08-09T19:51:29Z</time>
      </trkpt>
      <trkpt lat="47.87813" lon="7.21502">
        <ele>290</ele>
        <time>2019-08-09T19:51:30Z</time>
      </trkpt>
      <trkpt lat="47.87809" lon="7.21503">
        <ele>290</ele>
        <time>2019-08-09T19:51:31Z</time>
      </trkpt>
      <trkpt lat="47.87806" lon="7.21504">
        <ele>290</ele>
        <time>2019-08-09T19:51:32Z</time>
      </trkpt>
      <trkpt lat="47.87802" lon="7.21505">
        <ele>290</ele>
        <time>2019-08-09T19:51:33Z</time>
      </trkpt>
      <trkpt lat="47.87799" lon="7.21506">
        <ele>290</ele>
        <time>2019-08-09T19:51:34Z</time>
      </trkpt>
      <trkpt lat="47.87795" lon="7.21506">
        <ele>290</ele>
        <time>2019-08-09T19:51:35Z</time>
      </trkpt>
      <trkpt lat="47.87792" lon="7.21506">
        <ele>290</ele>
        <time>2019-08-09T19:51:36Z</time>
      </trkpt>
      <trkpt lat="47.87789" lon="7.21506">
        <ele>290</ele>
        <time>2019-08-09T19:51:37Z</time>
      </trkpt>
      <trkpt lat="47.87786" lon="7.21506">
        <ele>290</ele>
        <time>2019-08-09T19:51:38Z</time>
      </trkpt>
      <trkpt lat="47.87783" lon="7.21505">
        <ele>290</ele>
        <time>2019-08-09T19:51:39Z</time>
      </trkpt>
      <trkpt lat="47.8778" lon="7.21504">
        <ele>290</ele>
        <time>2019-08-09T19:51:40Z</time>
      </trkpt>
      <trkpt lat="47.87777" lon="7.21504">
        <ele>290</ele>
        <time>2019-08-09T19:51:41Z</time>
      </trkpt>
      <trkpt lat="47.87774" lon="7.21504">
        <ele>290</ele>
        <time>2019-08-09T19:51:42Z</time>
      </trkpt>
      <trkpt lat="47.8777" lon="7.21504">
        <ele>290</ele>
        <time>2019-08-09T19:51:43Z</time>
      </trkpt>
      <trkpt lat="47.87766" lon="7.21504">
        <ele>290.1</ele>
        <time>2019-08-09T19:51:44Z</time>
      </trkpt>
      <trkpt lat="47.87763" lon="7.21504">
        <ele>290.1</ele>
        <time>2019-08-09T19:51:45Z</time>
      </trkpt>
      <trkpt lat="47.8776" lon="7.21504">
        <ele>290.1</ele>
        <time>2019-08-09T19:51:46Z</time>
      </trkpt>
      <trkpt lat="47.87756" lon="7.21505">
        <ele>290.1</ele>
        <time>2019-08-09T19:51:47Z</time>
      </trkpt>
      <trkpt lat="47.87753" lon="7.21505">
        <ele>290.2</ele>
        <time>2019-08-09T19:51:48Z</time>
      </trkpt>
      <trkpt lat="47.87749" lon="7.21503">
        <ele>290.2</ele>
        <time>2019-08-09T19:51:49Z</time>
      </trkpt>
      <trkpt lat="47.87746" lon="7.21502">
        <ele>290.2</ele>
        <time>2019-08-09T19:51:50Z</time>
      </trkpt>
      <trkpt lat="47.87743" lon="7.21501">
        <ele>290.3</ele>
        <time>2019-08-09T19:51:51Z</time>
      </trkpt>
      <trkpt lat="47.87739" lon="7.21501">
        <ele>290.3</ele>
        <time>2019-08-09T19:51:52Z</time>
      </trkpt>
      <trkpt lat="47.87736" lon="7.215">
        <ele>290.4</ele>
        <time>2019-08-09T19:51:53Z</time>
      </trkpt>
      <trkpt lat="47.87733" lon="7.21498">
        <ele>290.4</ele>
        <time>2019-08-09T19:51:54Z</time>
      </trkpt>
      <trkpt lat="47.8773" lon="7.21495">
        <ele>290.4</ele>
        <time>2019-08-09T19:51:55Z</time>
      </trkpt>
      <trkpt lat="47.87727" lon="7.21494">
        <ele>290.5</ele>
        <time>2019-08-09T19:51:56Z</time>
      </trkpt>
      <trkpt lat="47.87724" lon="7.21494">
        <ele>290.5</ele>
        <time>2019-08-09T19:51:57Z</time>
      </trkpt>
      <trkpt lat="47.87721" lon="7.21493">
        <ele>290.6</ele>
        <time>2019-08-09T19:51:58Z</time>
      </trkpt>
      <trkpt lat="47.87718" lon="7.21492">
        <ele>290.7</ele>
        <time>2019-08-09T19:51:59Z</time>
      </trkpt>
      <trkpt lat="47.87715" lon="7.21492">
        <ele>290.7</ele>
        <time>2019-08-09T19:52:00Z</time>
      </trkpt>
      <trkpt lat="47.87712" lon="7.21492">
        <ele>290.8</ele>
        <time>2019-08-09T19:52:01Z</time>
      </trkpt>
      <trkpt lat="47.87709" lon="7.21492">
        <ele>290.9</ele>
        <time>2019-08-09T19:52:02Z</time>
      </trkpt>
      <trkpt lat="47.87706" lon="7.21492">
        <ele>290.9</ele>
        <time>2019-08-09T19:52:03Z</time>
      </trkpt>
      <trkpt lat="47.87703" lon="7.21492">
        <ele>291</ele>
        <time>2019-08-09T19:52:04Z</time>
      </trkpt>
      <trkpt lat="47.87697" lon="7.21492">
        <ele>291.2</ele>
        <time>2019-08-09T19:52:06Z</time>
      </trkpt>
      <trkpt lat="47.87693" lon="7.21491">
        <ele>291.3</ele>
        <time>2019-08-09T19:52:07Z</time>
      </trkpt>
      <trkpt lat="47.8769" lon="7.21491">
        <ele>291.4</ele>
        <time>2019-08-09T19:52:08Z</time>
      </trkpt>
      <trkpt lat="47.87687" lon="7.21492">
        <ele>291.5</ele>
        <time>2019-08-09T19:52:09Z</time>
      </trkpt>
      <trkpt lat="47.87684" lon="7.21492">
        <ele>291.6</ele>
        <time>2019-08-09T19:52:10Z</time>
      </trkpt>
      <trkpt lat="47.8768" lon="7.21493">
        <ele>291.7</ele>
        <time>2019-08-09T19:52:11Z</time>
      </trkpt>
      <trkpt lat="47.87676" lon="7.21494">
        <ele>291.8</ele>
        <time>2019-08-09T19:52:12Z</time>
      </trkpt>
      <trkpt lat="47.87672" lon="7.21495">
        <ele>291.9</ele>
        <time>2019-08-09T19:52:13Z</time>
      </trkpt>
      <trkpt lat="47.87667" lon="7.21497">
        <ele>292.1</ele>
        <time>2019-08-09T19:52:14Z</time>
      </trkpt>
      <trkpt lat="47.87663" lon="7.21498">
        <ele>292.2</ele>
        <time>2019-08-09T19:52:15Z</time>
      </trkpt>
      <trkpt lat="47.87659" lon="7.21502">
        <ele>292.3</ele>
        <time>2019-08-09T19:52:17Z</time>
      </trkpt>
      <trkpt lat="47.87656" lon="7.21504">
        <ele>292.4</ele>
        <time>2019-08-09T19:52:18Z</time>
      </trkpt>
      <trkpt lat="47.87653" lon="7.21506">
        <ele>292.5</ele>
        <time>2019-08-09T19:52:19Z</time>
      </trkpt>
      <trkpt lat="47.8765" lon="7.21508">
        <ele>292.5</ele>
        <time>2019-08-09T19:52:20Z</time>
      </trkpt>
      <trkpt lat="47.87648" lon="7.2151">
        <ele>292.6</ele>
        <time>2019-08-09T19:52:21Z</time>
      </trkpt>
      <trkpt lat="47.87645" lon="7.21512">
        <ele>292.6</ele>
        <time>2019-08-09T19:52:22Z</time>
      </trkpt>
      <trkpt lat="47.87641" lon="7.21515">
        <ele>292.7</ele>
        <time>2019-08-09T19:52:23Z</time>
      </trkpt>
      <trkpt lat="47.87638" lon="7.21519">
        <ele>292.8</ele>
        <time>2019-08-09T19:52:24Z</time>
      </trkpt>
      <trkpt lat="47.87635" lon="7.21523">
        <ele>292.9</ele>
        <time>2019-08-09T19:52:25Z</time>
      </trkpt>
      <trkpt lat="47.87631" lon="7.21526">
        <ele>292.9</ele>
        <time>2019-08-09T19:52:26Z</time>
      </trkpt>
      <trkpt lat="47.87627" lon="7.2153">
        <ele>293</ele>
        <time>2019-08-09T19:52:27Z</time>
      </trkpt>
      <trkpt lat="47.87623" lon="7.21533">
        <ele>293.1</ele>
        <time>2019-08-09T19:52:28Z</time>
      </trkpt>
      <trkpt lat="47.87619" lon="7.21537">
        <ele>293.2</ele>
        <time>2019-08-09T19:52:29Z</time>
      </trkpt>
      <trkpt lat="47.87615" lon="7.2154">
        <ele>293.2</ele>
        <time>2019-08-09T19:52:30Z</time>
      </trkpt>
      <trkpt lat="47.87612" lon="7.21543">
        <ele>293.3</ele>
        <time>2019-08-09T19:52:31Z</time>
      </trkpt>
      <trkpt lat="47.87609" lon="7.21546">
        <ele>293.3</ele>
        <time>2019-08-09T19:52:32Z</time>
      </trkpt>
      <trkpt lat="47.87605" lon="7.21549">
        <ele>293.4</ele>
        <time>2019-08-09T19:52:33Z</time>
      </trkpt>
      <trkpt lat="47.87602" lon="7.2155">
        <ele>293.4</ele>
        <time>2019-08-09T19:52:34Z</time>
      </trkpt>
      <trkpt lat="47.87598" lon="7.21552">
        <ele>293.4</ele>
        <time>2019-08-09T19:52:35Z</time>
      </trkpt>
      <trkpt lat="47.87594" lon="7.21554">
        <ele>293.5</ele>
        <time>2019-08-09T19:52:36Z</time>
      </trkpt>
      <trkpt lat="47.87591" lon="7.21555">
        <ele>293.5</ele>
        <time>2019-08-09T19:52:37Z</time>
      </trkpt>
      <trkpt lat="47.87587" lon="7.21556">
        <ele>293.5</ele>
        <time>2019-08-09T19:52:38Z</time>
      </trkpt>
      <trkpt lat="47.87583" lon="7.21557">
        <ele>293.6</ele>
        <time>2019-08-09T19:52:39Z</time>
      </trkpt>
      <trkpt lat="47.87579" lon="7.21559">
        <ele>293.6</ele>
        <time>2019-08-09T19:52:40Z</time>
      </trkpt>
      <trkpt lat="47.87576" lon="7.2156">
        <ele>293.7</ele>
        <time>2019-08-09T19:52:41Z</time>
      </trkpt>
      <trkpt lat="47.87572" lon="7.21561">
        <ele>293.7</ele>
        <time>2019-08-09T19:52:42Z</time>
      </trkpt>
      <trkpt lat="47.87568" lon="7.21561">
        <ele>293.8</ele>
        <time>2019-08-09T19:52:43Z</time>
      </trkpt>
      <trkpt lat="47.87565" lon="7.21557">
        <ele>293.9</ele>
        <time>2019-08-09T19:52:44Z</time>
      </trkpt>
      <trkpt lat="47.87561" lon="7.21555">
        <ele>294</ele>
        <time>2019-08-09T19:52:45Z</time>
      </trkpt>
      <trkpt lat="47.87558" lon="7.21556">
        <ele>294.1</ele>
        <time>2019-08-09T19:52:46Z</time>
      </trkpt>
      <trkpt lat="47.87554" lon="7.21556">
        <ele>294.2</ele>
        <time>2019-08-09T19:52:47Z</time>
      </trkpt>
      <trkpt lat="47.8755" lon="7.21555">
        <ele>294.3</ele>
        <time>2019-08-09T19:52:48Z</time>
      </trkpt>
      <trkpt lat="47.87547" lon="7.21555">
        <ele>294.4</ele>
        <time>2019-08-09T19:52:49Z</time>
      </trkpt>
      <trkpt lat="47.87543" lon="7.21555">
        <ele>294.5</ele>
        <time>2019-08-09T19:52:50Z</time>
      </trkpt>
      <trkpt lat="47.87539" lon="7.21555">
        <ele>294.6</ele>
        <time>2019-08-09T19:52:51Z</time>
      </trkpt>
      <trkpt lat="47.87536" lon="7.21555">
        <ele>294.6</ele>
        <time>2019-08-09T19:52:52Z</time>
      </trkpt>
      <trkpt lat="47.87532" lon="7.21556">
        <ele>294.7</ele>
        <time>2019-08-09T19:52:53Z</time>
      </trkpt>
      <trkpt lat="47.87528" lon="7.21555">
        <ele>294.8</ele>
        <time>2019-08-09T19:52:54Z</time>
      </trkpt>
      <trkpt lat="47.87523" lon="7.21555">
        <ele>294.8</ele>
        <time>2019-08-09T19:52:55Z</time>
      </trkpt>
      <trkpt lat="47.8752" lon="7.21554">
        <ele>294.8</ele>
        <time>2019-08-09T19:52:56Z</time>
      </trkpt>
      <trkpt lat="47.87517" lon="7.21554">
        <ele>294.8</ele>
        <time>2019-08-09T19:52:57Z</time>
      </trkpt>
      <trkpt lat="47.87513" lon="7.21553">
        <ele>294.9</ele>
        <time>2019-08-09T19:52:59Z</time>
      </trkpt>
      <trkpt lat="47.8751" lon="7.2155">
        <ele>294.9</ele>
        <time>2019-08-09T19:53:02Z</time>
      </trkpt>
      <trkpt lat="47.87507" lon="7.21552">
        <ele>294.9</ele>
        <time>2019-08-09T19:53:08Z</time>
      </trkpt>
      <trkpt lat="47.87506" lon="7.21557">
        <ele>294.8</ele>
        <time>2019-08-09T19:53:10Z</time>
      </trkpt>
      <trkpt lat="47.87505" lon="7.21563">
        <ele>294.6</ele>
        <time>2019-08-09T19:53:12Z</time>
      </trkpt>
      <trkpt lat="47.87503" lon="7.21568">
        <ele>294.5</ele>
        <time>2019-08-09T19:53:14Z</time>
      </trkpt>
      <trkpt lat="47.87502" lon="7.21576">
        <ele>294.3</ele>
        <time>2019-08-09T19:53:16Z</time>
      </trkpt>
      <trkpt lat="47.87501" lon="7.2158">
        <ele>294.2</ele>
        <time>2019-08-09T19:53:18Z</time>
      </trkpt>
      <trkpt lat="47.87499" lon="7.21584">
        <ele>294.1</ele>
        <time>2019-08-09T19:53:20Z</time>
      </trkpt>
      <trkpt lat="47.87498" lon="7.21587">
        <ele>294</ele>
        <time>2019-08-09T19:53:22Z</time>
      </trkpt>
      <trkpt lat="47.87493" lon="7.2159">
        <ele>293.8</ele>
        <time>2019-08-09T19:53:24Z</time>
      </trkpt>
      <trkpt lat="47.87488" lon="7.21591">
        <ele>293.7</ele>
        <time>2019-08-09T19:53:26Z</time>
      </trkpt>
      <trkpt lat="47.87483" lon="7.21591">
        <ele>293.4</ele>
        <time>2019-08-09T19:53:28Z</time>
      </trkpt>
      <trkpt lat="47.8748" lon="7.21592">
        <ele>293.4</ele>
        <time>2019-08-09T19:53:29Z</time>
      </trkpt>
      <trkpt lat="47.87474" lon="7.21592">
        <ele>293.4</ele>
        <time>2019-08-09T19:53:31Z</time>
      </trkpt>
      <trkpt lat="47.87471" lon="7.21591">
        <ele>293.4</ele>
        <time>2019-08-09T19:53:32Z</time>
      </trkpt>
      <trkpt lat="47.87468" lon="7.2159">
        <ele>293.4</ele>
        <time>2019-08-09T19:53:33Z</time>
      </trkpt>
      <trkpt lat="47.87465" lon="7.21589">
        <ele>293.4</ele>
        <time>2019-08-09T19:53:34Z</time>
      </trkpt>
      <trkpt lat="47.87462" lon="7.21587">
        <ele>293.4</ele>
        <time>2019-08-09T19:53:35Z</time>
      </trkpt>
      <trkpt lat="47.87458" lon="7.21587">
        <ele>293.4</ele>
        <time>2019-08-09T19:53:36Z</time>
      </trkpt>
      <trkpt lat="47.87455" lon="7.21587">
        <ele>293.4</ele>
        <time>2019-08-09T19:53:37Z</time>
      </trkpt>
      <trkpt lat="47.87452" lon="7.21587">
        <ele>293.4</ele>
        <time>2019-08-09T19:53:38Z</time>
      </trkpt>
      <trkpt lat="47.87446" lon="7.21586">
        <ele>293.5</ele>
        <time>2019-08-09T19:53:40Z</time>
      </trkpt>
      <trkpt lat="47.87441" lon="7.21586">
        <ele>293.5</ele>
        <time>2019-08-09T19:53:42Z</time>
      </trkpt>
      <trkpt lat="47.87436" lon="7.21585">
        <ele>293.5</ele>
        <time>2019-08-09T19:53:44Z</time>
      </trkpt>
      <trkpt lat="47.87433" lon="7.21585">
        <ele>293.5</ele>
        <time>2019-08-09T19:53:46Z</time>
      </trkpt>
      <trkpt lat="47.8743" lon="7.2159">
        <ele>293.6</ele>
        <time>2019-08-09T19:53:48Z</time>
      </trkpt>
      <trkpt lat="47.87426" lon="7.21596">
        <ele>293.6</ele>
        <time>2019-08-09T19:53:50Z</time>
      </trkpt>
      <trkpt lat="47.87424" lon="7.21599">
        <ele>293.6</ele>
        <time>2019-08-09T19:53:51Z</time>
      </trkpt>
      <trkpt lat="47.87422" lon="7.21602">
        <ele>293.6</ele>
        <time>2019-08-09T19:53:52Z</time>
      </trkpt>
      <trkpt lat="47.87419" lon="7.21604">
        <ele>293.6</ele>
        <time>2019-08-09T19:53:53Z</time>
      </trkpt>
      <trkpt lat="47.87417" lon="7.21607">
        <ele>293.6</ele>
        <time>2019-08-09T19:53:54Z</time>
      </trkpt>
      <trkpt lat="47.87414" lon="7.21614">
        <ele>293.6</ele>
        <time>2019-08-09T19:53:56Z</time>
      </trkpt>
      <trkpt lat="47.87411" lon="7.21618">
        <ele>293.6</ele>
        <time>2019-08-09T19:53:57Z</time>
      </trkpt>
      <trkpt lat="47.87408" lon="7.21623">
        <ele>293.6</ele>
        <time>2019-08-09T19:53:58Z</time>
      </trkpt>
      <trkpt lat="47.87405" lon="7.21627">
        <ele>293.6</ele>
        <time>2019-08-09T19:53:59Z</time>
      </trkpt>
      <trkpt lat="47.87401" lon="7.21633">
        <ele>293.6</ele>
        <time>2019-08-09T19:54:00Z</time>
      </trkpt>
      <trkpt lat="47.87398" lon="7.21635">
        <ele>293.6</ele>
        <time>2019-08-09T19:54:01Z</time>
      </trkpt>
      <trkpt lat="47.87395" lon="7.21642">
        <ele>293.6</ele>
        <time>2019-08-09T19:54:02Z</time>
      </trkpt>
      <trkpt lat="47.87391" lon="7.21646">
        <ele>293.6</ele>
        <time>2019-08-09T19:54:03Z</time>
      </trkpt>
      <trkpt lat="47.87388" lon="7.2165">
        <ele>293.5</ele>
        <time>2019-08-09T19:54:04Z</time>
      </trkpt>
      <trkpt lat="47.87385" lon="7.21655">
        <ele>293.5</ele>
        <time>2019-08-09T19:54:05Z</time>
      </trkpt>
      <trkpt lat="47.87382" lon="7.2166">
        <ele>293.5</ele>
        <time>2019-08-09T19:54:06Z</time>
      </trkpt>
      <trkpt lat="47.87378" lon="7.21661">
        <ele>293.5</ele>
        <time>2019-08-09T19:54:07Z</time>
      </trkpt>
      <trkpt lat="47.87375" lon="7.21665">
        <ele>293.5</ele>
        <time>2019-08-09T19:54:08Z</time>
      </trkpt>
      <trkpt lat="47.87372" lon="7.2167">
        <ele>293.4</ele>
        <time>2019-08-09T19:54:09Z</time>
      </trkpt>
      <trkpt lat="47.87369" lon="7.21675">
        <ele>293.4</ele>
        <time>2019-08-09T19:54:10Z</time>
      </trkpt>
      <trkpt lat="47.87366" lon="7.21679">
        <ele>293.4</ele>
        <time>2019-08-09T19:54:11Z</time>
      </trkpt>
      <trkpt lat="47.87363" lon="7.21683">
        <ele>293.4</ele>
        <time>2019-08-09T19:54:12Z</time>
      </trkpt>
      <trkpt lat="47.87359" lon="7.21687">
        <ele>293.4</ele>
        <time>2019-08-09T19:54:13Z</time>
      </trkpt>
      <trkpt lat="47.87356" lon="7.21691">
        <ele>293.4</ele>
        <time>2019-08-09T19:54:14Z</time>
      </trkpt>
      <trkpt lat="47.87353" lon="7.21695">
        <ele>293.4</ele>
        <time>2019-08-09T19:54:15Z</time>
      </trkpt>
      <trkpt lat="47.8735" lon="7.21699">
        <ele>293.4</ele>
        <time>2019-08-09T19:54:16Z</time>
      </trkpt>
      <trkpt lat="47.87347" lon="7.21702">
        <ele>293.4</ele>
        <time>2019-08-09T19:54:17Z</time>
      </trkpt>
      <trkpt lat="47.87344" lon="7.21706">
        <ele>293.4</ele>
        <time>2019-08-09T19:54:18Z</time>
      </trkpt>
      <trkpt lat="47.87341" lon="7.2171">
        <ele>293.4</ele>
        <time>2019-08-09T19:54:19Z</time>
      </trkpt>
      <trkpt lat="47.87337" lon="7.21711">
        <ele>293.4</ele>
        <time>2019-08-09T19:54:20Z</time>
      </trkpt>
      <trkpt lat="47.87333" lon="7.21714">
        <ele>293.5</ele>
        <time>2019-08-09T19:54:21Z</time>
      </trkpt>
      <trkpt lat="47.8733" lon="7.21716">
        <ele>293.5</ele>
        <time>2019-08-09T19:54:22Z</time>
      </trkpt>
      <trkpt lat="47.87326" lon="7.2172">
        <ele>293.5</ele>
        <time>2019-08-09T19:54:23Z</time>
      </trkpt>
      <trkpt lat="47.87323" lon="7.21723">
        <ele>293.5</ele>
        <time>2019-08-09T19:54:24Z</time>
      </trkpt>
      <trkpt lat="47.87319" lon="7.21726">
        <ele>293.5</ele>
        <time>2019-08-09T19:54:25Z</time>
      </trkpt>
      <trkpt lat="47.87315" lon="7.21728">
        <ele>293.5</ele>
        <time>2019-08-09T19:54:26Z</time>
      </trkpt>
      <trkpt lat="47.87312" lon="7.21728">
        <ele>293.4</ele>
        <time>2019-08-09T19:54:27Z</time>
      </trkpt>
      <trkpt lat="47.87308" lon="7.21729">
        <ele>293.4</ele>
        <time>2019-08-09T19:54:28Z</time>
      </trkpt>
      <trkpt lat="47.87303" lon="7.21732">
        <ele>293.4</ele>
        <time>2019-08-09T19:54:29Z</time>
      </trkpt>
      <trkpt lat="47.87299" lon="7.21735">
        <ele>293.4</ele>
        <time>2019-08-09T19:54:30Z</time>
      </trkpt>
      <trkpt lat="47.87294" lon="7.21737">
        <ele>293.3</ele>
        <time>2019-08-09T19:54:31Z</time>
      </trkpt>
      <trkpt lat="47.8729" lon="7.21739">
        <ele>293.2</ele>
        <time>2019-08-09T19:54:32Z</time>
      </trkpt>
      <trkpt lat="47.87287" lon="7.21741">
        <ele>293.2</ele>
        <time>2019-08-09T19:54:33Z</time>
      </trkpt>
      <trkpt lat="47.87283" lon="7.21744">
        <ele>293.1</ele>
        <time>2019-08-09T19:54:34Z</time>
      </trkpt>
      <trkpt lat="47.8728" lon="7.21746">
        <ele>293</ele>
        <time>2019-08-09T19:54:35Z</time>
      </trkpt>
      <trkpt lat="47.87276" lon="7.2175">
        <ele>292.9</ele>
        <time>2019-08-09T19:54:36Z</time>
      </trkpt>
      <trkpt lat="47.87271" lon="7.21752">
        <ele>292.7</ele>
        <time>2019-08-09T19:54:37Z</time>
      </trkpt>
      <trkpt lat="47.87267" lon="7.21756">
        <ele>292.5</ele>
        <time>2019-08-09T19:54:38Z</time>
      </trkpt>
      <trkpt lat="47.87263" lon="7.21759">
        <ele>292.3</ele>
        <time>2019-08-09T19:54:39Z</time>
      </trkpt>
      <trkpt lat="47.87259" lon="7.21759">
        <ele>292.1</ele>
        <time>2019-08-09T19:54:40Z</time>
      </trkpt>
      <trkpt lat="47.87255" lon="7.21762">
        <ele>291.9</ele>
        <time>2019-08-09T19:54:41Z</time>
      </trkpt>
      <trkpt lat="47.87251" lon="7.21763">
        <ele>291.8</ele>
        <time>2019-08-09T19:54:42Z</time>
      </trkpt>
      <trkpt lat="47.87247" lon="7.21764">
        <ele>291.6</ele>
        <time>2019-08-09T19:54:43Z</time>
      </trkpt>
      <trkpt lat="47.87244" lon="7.21767">
        <ele>291.5</ele>
        <time>2019-08-09T19:54:44Z</time>
      </trkpt>
      <trkpt lat="47.8724" lon="7.21768">
        <ele>291.4</ele>
        <time>2019-08-09T19:54:45Z</time>
      </trkpt>
      <trkpt lat="47.87236" lon="7.2177">
        <ele>291.2</ele>
        <time>2019-08-09T19:54:47Z</time>
      </trkpt>
      <trkpt lat="47.87232" lon="7.2177">
        <ele>291.1</ele>
        <time>2019-08-09T19:54:50Z</time>
      </trkpt>
      <trkpt lat="47.87226" lon="7.21773">
        <ele>290.9</ele>
        <time>2019-08-09T19:54:52Z</time>
      </trkpt>
      <trkpt lat="47.87223" lon="7.21774">
        <ele>290.9</ele>
        <time>2019-08-09T19:54:53Z</time>
      </trkpt>
      <trkpt lat="47.87219" lon="7.21774">
        <ele>290.8</ele>
        <time>2019-08-09T19:54:54Z</time>
      </trkpt>
      <trkpt lat="47.87214" lon="7.21775">
        <ele>290.7</ele>
        <time>2019-08-09T19:54:55Z</time>
      </trkpt>
      <trkpt lat="47.87208" lon="7.21775">
        <ele>290.5</ele>
        <time>2019-08-09T19:54:56Z</time>
      </trkpt>
      <trkpt lat="47.87203" lon="7.21775">
        <ele>290.3</ele>
        <time>2019-08-09T19:54:57Z</time>
      </trkpt>
      <trkpt lat="47.87197" lon="7.21775">
        <ele>290.1</ele>
        <time>2019-08-09T19:54:58Z</time>
      </trkpt>
      <trkpt lat="47.87191" lon="7.21775">
        <ele>289.9</ele>
        <time>2019-08-09T19:54:59Z</time>
      </trkpt>
      <trkpt lat="47.87185" lon="7.21775">
        <ele>289.7</ele>
        <time>2019-08-09T19:55:00Z</time>
      </trkpt>
      <trkpt lat="47.8718" lon="7.21774">
        <ele>289.5</ele>
        <time>2019-08-09T19:55:01Z</time>
      </trkpt>
      <trkpt lat="47.87173" lon="7.21773">
        <ele>289.2</ele>
        <time>2019-08-09T19:55:02Z</time>
      </trkpt>
      <trkpt lat="47.87167" lon="7.21772">
        <ele>288.9</ele>
        <time>2019-08-09T19:55:03Z</time>
      </trkpt>
      <trkpt lat="47.87162" lon="7.21771">
        <ele>288.7</ele>
        <time>2019-08-09T19:55:04Z</time>
      </trkpt>
      <trkpt lat="47.87157" lon="7.21771">
        <ele>288.4</ele>
        <time>2019-08-09T19:55:05Z</time>
      </trkpt>
      <trkpt lat="47.87152" lon="7.21772">
        <ele>288.2</ele>
        <time>2019-08-09T19:55:06Z</time>
      </trkpt>
      <trkpt lat="47.87146" lon="7.21773">
        <ele>287.9</ele>
        <time>2019-08-09T19:55:07Z</time>
      </trkpt>
      <trkpt lat="47.8714" lon="7.21773">
        <ele>287.6</ele>
        <time>2019-08-09T19:55:08Z</time>
      </trkpt>
      <trkpt lat="47.87134" lon="7.21773">
        <ele>287.3</ele>
        <time>2019-08-09T19:55:09Z</time>
      </trkpt>
      <trkpt lat="47.87128" lon="7.21772">
        <ele>286.9</ele>
        <time>2019-08-09T19:55:10Z</time>
      </trkpt>
      <trkpt lat="47.87121" lon="7.21772">
        <ele>286.6</ele>
        <time>2019-08-09T19:55:11Z</time>
      </trkpt>
      <trkpt lat="47.87115" lon="7.21772">
        <ele>286.2</ele>
        <time>2019-08-09T19:55:12Z</time>
      </trkpt>
      <trkpt lat="47.87108" lon="7.21773">
        <ele>285.8</ele>
        <time>2019-08-09T19:55:13Z</time>
      </trkpt>
      <trkpt lat="47.87101" lon="7.21773">
        <ele>285.4</ele>
        <time>2019-08-09T19:55:14Z</time>
      </trkpt>
      <trkpt lat="47.87094" lon="7.21773">
        <ele>285</ele>
        <time>2019-08-09T19:55:15Z</time>
      </trkpt>
      <trkpt lat="47.87088" lon="7.21772">
        <ele>284.6</ele>
        <time>2019-08-09T19:55:16Z</time>
      </trkpt>
      <trkpt lat="47.87082" lon="7.21771">
        <ele>284.2</ele>
        <time>2019-08-09T19:55:17Z</time>
      </trkpt>
      <trkpt lat="47.87075" lon="7.21768">
        <ele>283.8</ele>
        <time>2019-08-09T19:55:18Z</time>
      </trkpt>
      <trkpt lat="47.87069" lon="7.21765">
        <ele>283.3</ele>
        <time>2019-08-09T19:55:19Z</time>
      </trkpt>
      <trkpt lat="47.87064" lon="7.21761">
        <ele>282.9</ele>
        <time>2019-08-09T19:55:20Z</time>
      </trkpt>
      <trkpt lat="47.87058" lon="7.21757">
        <ele>282.6</ele>
        <time>2019-08-09T19:55:21Z</time>
      </trkpt>
      <trkpt lat="47.87053" lon="7.21754">
        <ele>282.2</ele>
        <time>2019-08-09T19:55:22Z</time>
      </trkpt>
      <trkpt lat="47.87049" lon="7.21749">
        <ele>281.8</ele>
        <time>2019-08-09T19:55:23Z</time>
      </trkpt>
      <trkpt lat="47.87044" lon="7.21746">
        <ele>281.5</ele>
        <time>2019-08-09T19:55:24Z</time>
      </trkpt>
      <trkpt lat="47.87039" lon="7.21741">
        <ele>281.1</ele>
        <time>2019-08-09T19:55:25Z</time>
      </trkpt>
      <trkpt lat="47.87034" lon="7.21737">
        <ele>280.4</ele>
        <time>2019-08-09T19:55:26Z</time>
      </trkpt>
      <trkpt lat="47.8703" lon="7.21733">
        <ele>280.2</ele>
        <time>2019-08-09T19:55:27Z</time>
      </trkpt>
      <trkpt lat="47.87025" lon="7.2173">
        <ele>279.9</ele>
        <time>2019-08-09T19:55:28Z</time>
      </trkpt>
      <trkpt lat="47.87018" lon="7.21727">
        <ele>279.5</ele>
        <time>2019-08-09T19:55:29Z</time>
      </trkpt>
      <trkpt lat="47.87012" lon="7.21724">
        <ele>279.2</ele>
        <time>2019-08-09T19:55:30Z</time>
      </trkpt>
      <trkpt lat="47.87005" lon="7.2172">
        <ele>278.8</ele>
        <time>2019-08-09T19:55:31Z</time>
      </trkpt>
      <trkpt lat="47.86998" lon="7.21717">
        <ele>278.4</ele>
        <time>2019-08-09T19:55:32Z</time>
      </trkpt>
      <trkpt lat="47.86991" lon="7.21715">
        <ele>278.1</ele>
        <time>2019-08-09T19:55:33Z</time>
      </trkpt>
      <trkpt lat="47.86983" lon="7.21712">
        <ele>277.7</ele>
        <time>2019-08-09T19:55:34Z</time>
      </trkpt>
      <trkpt lat="47.86977" lon="7.21709">
        <ele>277.3</ele>
        <time>2019-08-09T19:55:35Z</time>
      </trkpt>
      <trkpt lat="47.86971" lon="7.21706">
        <ele>277</ele>
        <time>2019-08-09T19:55:36Z</time>
      </trkpt>
      <trkpt lat="47.86965" lon="7.21702">
        <ele>276.7</ele>
        <time>2019-08-09T19:55:37Z</time>
      </trkpt>
      <trkpt lat="47.86959" lon="7.21699">
        <ele>276.4</ele>
        <time>2019-08-09T19:55:38Z</time>
      </trkpt>
      <trkpt lat="47.86954" lon="7.21697">
        <ele>276.1</ele>
        <time>2019-08-09T19:55:39Z</time>
      </trkpt>
      <trkpt lat="47.86949" lon="7.21693">
        <ele>275.9</ele>
        <time>2019-08-09T19:55:40Z</time>
      </trkpt>
      <trkpt lat="47.86945" lon="7.2169">
        <ele>275.6</ele>
        <time>2019-08-09T19:55:41Z</time>
      </trkpt>
      <trkpt lat="47.86942" lon="7.21688">
        <ele>275.4</ele>
        <time>2019-08-09T19:55:42Z</time>
      </trkpt>
      <trkpt lat="47.86939" lon="7.21686">
        <ele>275</ele>
        <time>2019-08-09T19:55:43Z</time>
      </trkpt>
      <trkpt lat="47.86935" lon="7.21681">
        <ele>274.6</ele>
        <time>2019-08-09T19:55:45Z</time>
      </trkpt>
      <trkpt lat="47.86933" lon="7.21678">
        <ele>274.4</ele>
        <time>2019-08-09T19:55:46Z</time>
      </trkpt>
      <trkpt lat="47.8693" lon="7.21674">
        <ele>274.2</ele>
        <time>2019-08-09T19:55:47Z</time>
      </trkpt>
      <trkpt lat="47.86927" lon="7.2167">
        <ele>273.9</ele>
        <time>2019-08-09T19:55:48Z</time>
      </trkpt>
      <trkpt lat="47.86924" lon="7.21665">
        <ele>273.6</ele>
        <time>2019-08-09T19:55:49Z</time>
      </trkpt>
      <trkpt lat="47.86921" lon="7.21661">
        <ele>273.4</ele>
        <time>2019-08-09T19:55:50Z</time>
      </trkpt>
      <trkpt lat="47.86918" lon="7.21656">
        <ele>272.9</ele>
        <time>2019-08-09T19:55:51Z</time>
      </trkpt>
      <trkpt lat="47.86914" lon="7.2165">
        <ele>272.4</ele>
        <time>2019-08-09T19:55:52Z</time>
      </trkpt>
      <trkpt lat="47.86909" lon="7.21645">
        <ele>271.9</ele>
        <time>2019-08-09T19:55:53Z</time>
      </trkpt>
      <trkpt lat="47.86904" lon="7.21639">
        <ele>271.4</ele>
        <time>2019-08-09T19:55:54Z</time>
      </trkpt>
      <trkpt lat="47.86898" lon="7.21633">
        <ele>270.9</ele>
        <time>2019-08-09T19:55:55Z</time>
      </trkpt>
      <trkpt lat="47.86891" lon="7.21629">
        <ele>270.4</ele>
        <time>2019-08-09T19:55:56Z</time>
      </trkpt>
      <trkpt lat="47.86885" lon="7.21623">
        <ele>269.9</ele>
        <time>2019-08-09T19:55:57Z</time>
      </trkpt>
      <trkpt lat="47.86878" lon="7.21618">
        <ele>269.3</ele>
        <time>2019-08-09T19:55:58Z</time>
      </trkpt>
      <trkpt lat="47.86872" lon="7.21613">
        <ele>268.7</ele>
        <time>2019-08-09T19:55:59Z</time>
      </trkpt>
      <trkpt lat="47.86866" lon="7.2161">
        <ele>268.2</ele>
        <time>2019-08-09T19:56:00Z</time>
      </trkpt>
      <trkpt lat="47.86859" lon="7.21607">
        <ele>267.7</ele>
        <time>2019-08-09T19:56:01Z</time>
      </trkpt>
      <trkpt lat="47.86853" lon="7.21605">
        <ele>267.1</ele>
        <time>2019-08-09T19:56:02Z</time>
      </trkpt>
      <trkpt lat="47.86846" lon="7.21603">
        <ele>266.6</ele>
        <time>2019-08-09T19:56:03Z</time>
      </trkpt>
      <trkpt lat="47.86839" lon="7.21603">
        <ele>266</ele>
        <time>2019-08-09T19:56:04Z</time>
      </trkpt>
      <trkpt lat="47.86832" lon="7.21603">
        <ele>265.2</ele>
        <time>2019-08-09T19:56:05Z</time>
      </trkpt>
      <trkpt lat="47.86825" lon="7.21604">
        <ele>264.4</ele>
        <time>2019-08-09T19:56:06Z</time>
      </trkpt>
      <trkpt lat="47.86818" lon="7.21604">
        <ele>263.9</ele>
        <time>2019-08-09T19:56:07Z</time>
      </trkpt>
      <trkpt lat="47.8681" lon="7.21604">
        <ele>263.4</ele>
        <time>2019-08-09T19:56:08Z</time>
      </trkpt>
      <trkpt lat="47.86803" lon="7.21604">
        <ele>262.9</ele>
        <time>2019-08-09T19:56:09Z</time>
      </trkpt>
      <trkpt lat="47.86795" lon="7.21604">
        <ele>262.3</ele>
        <time>2019-08-09T19:56:10Z</time>
      </trkpt>
      <trkpt lat="47.86788" lon="7.21604">
        <ele>261.7</ele>
        <time>2019-08-09T19:56:11Z</time>
      </trkpt>
      <trkpt lat="47.8678" lon="7.21604">
        <ele>261.2</ele>
        <time>2019-08-09T19:56:12Z</time>
      </trkpt>
      <trkpt lat="47.86772" lon="7.21604">
        <ele>260.8</ele>
        <time>2019-08-09T19:56:13Z</time>
      </trkpt>
      <trkpt lat="47.86764" lon="7.21604">
        <ele>260.3</ele>
        <time>2019-08-09T19:56:14Z</time>
      </trkpt>
      <trkpt lat="47.86757" lon="7.21605">
        <ele>259.9</ele>
        <time>2019-08-09T19:56:15Z</time>
      </trkpt>
      <trkpt lat="47.86749" lon="7.21605">
        <ele>259.3</ele>
        <time>2019-08-09T19:56:16Z</time>
      </trkpt>
      <trkpt lat="47.86741" lon="7.21604">
        <ele>258.8</ele>
        <time>2019-08-09T19:56:17Z</time>
      </trkpt>
      <trkpt lat="47.86733" lon="7.21604">
        <ele>258.1</ele>
        <time>2019-08-09T19:56:18Z</time>
      </trkpt>
      <trkpt lat="47.86726" lon="7.21604">
        <ele>257.5</ele>
        <time>2019-08-09T19:56:19Z</time>
      </trkpt>
      <trkpt lat="47.86719" lon="7.21603">
        <ele>256.9</ele>
        <time>2019-08-09T19:56:20Z</time>
      </trkpt>
      <trkpt lat="47.86712" lon="7.21602">
        <ele>256.3</ele>
        <time>2019-08-09T19:56:21Z</time>
      </trkpt>
      <trkpt lat="47.86705" lon="7.21601">
        <ele>255.7</ele>
        <time>2019-08-09T19:56:22Z</time>
      </trkpt>
      <trkpt lat="47.86698" lon="7.21601">
        <ele>255.1</ele>
        <time>2019-08-09T19:56:23Z</time>
      </trkpt>
      <trkpt lat="47.86692" lon="7.21601">
        <ele>254.7</ele>
        <time>2019-08-09T19:56:24Z</time>
      </trkpt>
      <trkpt lat="47.86685" lon="7.21601">
        <ele>254.4</ele>
        <time>2019-08-09T19:56:25Z</time>
      </trkpt>
      <trkpt lat="47.86679" lon="7.21601">
        <ele>254.2</ele>
        <time>2019-08-09T19:56:26Z</time>
      </trkpt>
      <trkpt lat="47.86672" lon="7.216">
        <ele>254</ele>
        <time>2019-08-09T19:56:27Z</time>
      </trkpt>
      <trkpt lat="47.86666" lon="7.216">
        <ele>253.8</ele>
        <time>2019-08-09T19:56:28Z</time>
      </trkpt>
      <trkpt lat="47.86659" lon="7.21599">
        <ele>253.6</ele>
        <time>2019-08-09T19:56:29Z</time>
      </trkpt>
      <trkpt lat="47.86652" lon="7.21598">
        <ele>253.5</ele>
        <time>2019-08-09T19:56:30Z</time>
      </trkpt>
      <trkpt lat="47.86645" lon="7.21597">
        <ele>253.3</ele>
        <time>2019-08-09T19:56:31Z</time>
      </trkpt>
      <trkpt lat="47.86639" lon="7.21596">
        <ele>253</ele>
        <time>2019-08-09T19:56:32Z</time>
      </trkpt>
      <trkpt lat="47.86632" lon="7.21595">
        <ele>252.8</ele>
        <time>2019-08-09T19:56:33Z</time>
      </trkpt>
      <trkpt lat="47.86626" lon="7.21594">
        <ele>252.7</ele>
        <time>2019-08-09T19:56:34Z</time>
      </trkpt>
      <trkpt lat="47.86619" lon="7.21593">
        <ele>252.6</ele>
        <time>2019-08-09T19:56:35Z</time>
      </trkpt>
      <trkpt lat="47.86613" lon="7.21592">
        <ele>252.5</ele>
        <time>2019-08-09T19:56:36Z</time>
      </trkpt>
      <trkpt lat="47.86606" lon="7.21591">
        <ele>252.4</ele>
        <time>2019-08-09T19:56:37Z</time>
      </trkpt>
      <trkpt lat="47.866" lon="7.21591">
        <ele>252.3</ele>
        <time>2019-08-09T19:56:38Z</time>
      </trkpt>
      <trkpt lat="47.86593" lon="7.2159">
        <ele>252.2</ele>
        <time>2019-08-09T19:56:39Z</time>
      </trkpt>
      <trkpt lat="47.86587" lon="7.21589">
        <ele>252.1</ele>
        <time>2019-08-09T19:56:40Z</time>
      </trkpt>
      <trkpt lat="47.86581" lon="7.21588">
        <ele>252</ele>
        <time>2019-08-09T19:56:41Z</time>
      </trkpt>
      <trkpt lat="47.86575" lon="7.21587">
        <ele>251.8</ele>
        <time>2019-08-09T19:56:42Z</time>
      </trkpt>
      <trkpt lat="47.86569" lon="7.21586">
        <ele>251.7</ele>
        <time>2019-08-09T19:56:43Z</time>
      </trkpt>
      <trkpt lat="47.86563" lon="7.21585">
        <ele>251.5</ele>
        <time>2019-08-09T19:56:44Z</time>
      </trkpt>
      <trkpt lat="47.86557" lon="7.21585">
        <ele>251.4</ele>
        <time>2019-08-09T19:56:45Z</time>
      </trkpt>
      <trkpt lat="47.86551" lon="7.21584">
        <ele>251.3</ele>
        <time>2019-08-09T19:56:46Z</time>
      </trkpt>
      <trkpt lat="47.86545" lon="7.21584">
        <ele>251.2</ele>
        <time>2019-08-09T19:56:47Z</time>
      </trkpt>
      <trkpt lat="47.86539" lon="7.21584">
        <ele>251.2</ele>
        <time>2019-08-09T19:56:48Z</time>
      </trkpt>
      <trkpt lat="47.86534" lon="7.21584">
        <ele>251.1</ele>
        <time>2019-08-09T19:56:49Z</time>
      </trkpt>
      <trkpt lat="47.86528" lon="7.21584">
        <ele>251</ele>
        <time>2019-08-09T19:56:50Z</time>
      </trkpt>
      <trkpt lat="47.86523" lon="7.21584">
        <ele>251</ele>
        <time>2019-08-09T19:56:51Z</time>
      </trkpt>
      <trkpt lat="47.86518" lon="7.21583">
        <ele>250.9</ele>
        <time>2019-08-09T19:56:52Z</time>
      </trkpt>
      <trkpt lat="47.86513" lon="7.21583">
        <ele>250.8</ele>
        <time>2019-08-09T19:56:53Z</time>
      </trkpt>
      <trkpt lat="47.86508" lon="7.21583">
        <ele>250.7</ele>
        <time>2019-08-09T19:56:54Z</time>
      </trkpt>
      <trkpt lat="47.86503" lon="7.21583">
        <ele>250.6</ele>
        <time>2019-08-09T19:56:55Z</time>
      </trkpt>
      <trkpt lat="47.86498" lon="7.21583">
        <ele>250.5</ele>
        <time>2019-08-09T19:56:56Z</time>
      </trkpt>
      <trkpt lat="47.86494" lon="7.21583">
        <ele>250.4</ele>
        <time>2019-08-09T19:56:57Z</time>
      </trkpt>
      <trkpt lat="47.8649" lon="7.21583">
        <ele>250.4</ele>
        <time>2019-08-09T19:56:58Z</time>
      </trkpt>
      <trkpt lat="47.86485" lon="7.21583">
        <ele>250.3</ele>
        <time>2019-08-09T19:56:59Z</time>
      </trkpt>
      <trkpt lat="47.86481" lon="7.21582">
        <ele>250.3</ele>
        <time>2019-08-09T19:57:00Z</time>
      </trkpt>
      <trkpt lat="47.86476" lon="7.21582">
        <ele>250.2</ele>
        <time>2019-08-09T19:57:01Z</time>
      </trkpt>
      <trkpt lat="47.86472" lon="7.21582">
        <ele>250.2</ele>
        <time>2019-08-09T19:57:02Z</time>
      </trkpt>
      <trkpt lat="47.86467" lon="7.21582">
        <ele>250.2</ele>
        <time>2019-08-09T19:57:03Z</time>
      </trkpt>
      <trkpt lat="47.86463" lon="7.21582">
        <ele>250.1</ele>
        <time>2019-08-09T19:57:04Z</time>
      </trkpt>
      <trkpt lat="47.86459" lon="7.21582">
        <ele>250.1</ele>
        <time>2019-08-09T19:57:05Z</time>
      </trkpt>
      <trkpt lat="47.86454" lon="7.21581">
        <ele>250.1</ele>
        <time>2019-08-09T19:57:06Z</time>
      </trkpt>
      <trkpt lat="47.8645" lon="7.2158">
        <ele>250.1</ele>
        <time>2019-08-09T19:57:07Z</time>
      </trkpt>
      <trkpt lat="47.86447" lon="7.21579">
        <ele>250.1</ele>
        <time>2019-08-09T19:57:08Z</time>
      </trkpt>
      <trkpt lat="47.86443" lon="7.21578">
        <ele>250.1</ele>
        <time>2019-08-09T19:57:09Z</time>
      </trkpt>
      <trkpt lat="47.86439" lon="7.21578">
        <ele>250.1</ele>
        <time>2019-08-09T19:57:10Z</time>
      </trkpt>
      <trkpt lat="47.86435" lon="7.21577">
        <ele>250.1</ele>
        <time>2019-08-09T19:57:11Z</time>
      </trkpt>
      <trkpt lat="47.86431" lon="7.21577">
        <ele>250.1</ele>
        <time>2019-08-09T19:57:12Z</time>
      </trkpt>
      <trkpt lat="47.86427" lon="7.21577">
        <ele>250.1</ele>
        <time>2019-08-09T19:57:13Z</time>
      </trkpt>
      <trkpt lat="47.86423" lon="7.21576">
        <ele>250.1</ele>
        <time>2019-08-09T19:57:14Z</time>
      </trkpt>
      <trkpt lat="47.86419" lon="7.21576">
        <ele>250.1</ele>
        <time>2019-08-09T19:57:15Z</time>
      </trkpt>
      <trkpt lat="47.86415" lon="7.21575">
        <ele>250.1</ele>
        <time>2019-08-09T19:57:16Z</time>
      </trkpt>
      <trkpt lat="47.86411" lon="7.21574">
        <ele>250.2</ele>
        <time>2019-08-09T19:57:17Z</time>
      </trkpt>
      <trkpt lat="47.86407" lon="7.21573">
        <ele>250.2</ele>
        <time>2019-08-09T19:57:18Z</time>
      </trkpt>
      <trkpt lat="47.86403" lon="7.21573">
        <ele>250.2</ele>
        <time>2019-08-09T19:57:19Z</time>
      </trkpt>
      <trkpt lat="47.86399" lon="7.21573">
        <ele>250.3</ele>
        <time>2019-08-09T19:57:20Z</time>
      </trkpt>
      <trkpt lat="47.86395" lon="7.21573">
        <ele>250.3</ele>
        <time>2019-08-09T19:57:21Z</time>
      </trkpt>
      <trkpt lat="47.86391" lon="7.21572">
        <ele>250.3</ele>
        <time>2019-08-09T19:57:22Z</time>
      </trkpt>
      <trkpt lat="47.86387" lon="7.21572">
        <ele>250.4</ele>
        <time>2019-08-09T19:57:23Z</time>
      </trkpt>
      <trkpt lat="47.86384" lon="7.21571">
        <ele>250.4</ele>
        <time>2019-08-09T19:57:24Z</time>
      </trkpt>
      <trkpt lat="47.86381" lon="7.21571">
        <ele>250.4</ele>
        <time>2019-08-09T19:57:25Z</time>
      </trkpt>
      <trkpt lat="47.86378" lon="7.2157">
        <ele>250.5</ele>
        <time>2019-08-09T19:57:26Z</time>
      </trkpt>
      <trkpt lat="47.86376" lon="7.21569">
        <ele>250.5</ele>
        <time>2019-08-09T19:57:27Z</time>
      </trkpt>
      <trkpt lat="47.86371" lon="7.21568">
        <ele>250.5</ele>
        <time>2019-08-09T19:57:29Z</time>
      </trkpt>
      <trkpt lat="47.86367" lon="7.21568">
        <ele>250.5</ele>
        <time>2019-08-09T19:57:31Z</time>
      </trkpt>
      <trkpt lat="47.86364" lon="7.21568">
        <ele>250.5</ele>
        <time>2019-08-09T19:57:34Z</time>
      </trkpt>
      <trkpt lat="47.86361" lon="7.21569">
        <ele>250.5</ele>
        <time>2019-08-09T19:57:37Z</time>
      </trkpt>
      <trkpt lat="47.86359" lon="7.21571">
        <ele>250.5</ele>
        <time>2019-08-09T19:57:48Z</time>
      </trkpt>
      <trkpt lat="47.86354" lon="7.21571">
        <ele>250.5</ele>
        <time>2019-08-09T19:57:51Z</time>
      </trkpt>
      <trkpt lat="47.86351" lon="7.21571">
        <ele>250.6</ele>
        <time>2019-08-09T19:57:52Z</time>
      </trkpt>
      <trkpt lat="47.86348" lon="7.21573">
        <ele>250.6</ele>
        <time>2019-08-09T19:57:53Z</time>
      </trkpt>
      <trkpt lat="47.86345" lon="7.21573">
        <ele>250.7</ele>
        <time>2019-08-09T19:57:54Z</time>
      </trkpt>
      <trkpt lat="47.86342" lon="7.21573">
        <ele>250.7</ele>
        <time>2019-08-09T19:57:55Z</time>
      </trkpt>
      <trkpt lat="47.86338" lon="7.21572">
        <ele>250.8</ele>
        <time>2019-08-09T19:57:56Z</time>
      </trkpt>
      <trkpt lat="47.86334" lon="7.21572">
        <ele>250.8</ele>
        <time>2019-08-09T19:57:57Z</time>
      </trkpt>
      <trkpt lat="47.8633" lon="7.21572">
        <ele>250.9</ele>
        <time>2019-08-09T19:57:58Z</time>
      </trkpt>
      <trkpt lat="47.86326" lon="7.21572">
        <ele>251</ele>
        <time>2019-08-09T19:57:59Z</time>
      </trkpt>
      <trkpt lat="47.86322" lon="7.21572">
        <ele>251.1</ele>
        <time>2019-08-09T19:58:00Z</time>
      </trkpt>
      <trkpt lat="47.86318" lon="7.21571">
        <ele>251.2</ele>
        <time>2019-08-09T19:58:01Z</time>
      </trkpt>
      <trkpt lat="47.86314" lon="7.21572">
        <ele>251.3</ele>
        <time>2019-08-09T19:58:02Z</time>
      </trkpt>
      <trkpt lat="47.8631" lon="7.21572">
        <ele>251.6</ele>
        <time>2019-08-09T19:58:03Z</time>
      </trkpt>
      <trkpt lat="47.86306" lon="7.21571">
        <ele>251.8</ele>
        <time>2019-08-09T19:58:04Z</time>
      </trkpt>
      <trkpt lat="47.86301" lon="7.21569">
        <ele>252</ele>
        <time>2019-08-09T19:58:05Z</time>
      </trkpt>
      <trkpt lat="47.86296" lon="7.21568">
        <ele>252.2</ele>
        <time>2019-08-09T19:58:06Z</time>
      </trkpt>
      <trkpt lat="47.86292" lon="7.21567">
        <ele>252.3</ele>
        <time>2019-08-09T19:58:07Z</time>
      </trkpt>
      <trkpt lat="47.86287" lon="7.21564">
        <ele>252.5</ele>
        <time>2019-08-09T19:58:08Z</time>
      </trkpt>
      <trkpt lat="47.86283" lon="7.21562">
        <ele>252.5</ele>
        <time>2019-08-09T19:58:09Z</time>
      </trkpt>
      <trkpt lat="47.86279" lon="7.21562">
        <ele>252.6</ele>
        <time>2019-08-09T19:58:10Z</time>
      </trkpt>
      <trkpt lat="47.86275" lon="7.21563">
        <ele>252.7</ele>
        <time>2019-08-09T19:58:11Z</time>
      </trkpt>
      <trkpt lat="47.86272" lon="7.21565">
        <ele>252.7</ele>
        <time>2019-08-09T19:58:12Z</time>
      </trkpt>
      <trkpt lat="47.86267" lon="7.21569">
        <ele>252.8</ele>
        <time>2019-08-09T19:58:13Z</time>
      </trkpt>
      <trkpt lat="47.86263" lon="7.21573">
        <ele>252.8</ele>
        <time>2019-08-09T19:58:14Z</time>
      </trkpt>
      <trkpt lat="47.8626" lon="7.21578">
        <ele>252.8</ele>
        <time>2019-08-09T19:58:15Z</time>
      </trkpt>
      <trkpt lat="47.86259" lon="7.21583">
        <ele>252.9</ele>
        <time>2019-08-09T19:58:16Z</time>
      </trkpt>
      <trkpt lat="47.86257" lon="7.21588">
        <ele>252.9</ele>
        <time>2019-08-09T19:58:17Z</time>
      </trkpt>
      <trkpt lat="47.86256" lon="7.21594">
        <ele>253</ele>
        <time>2019-08-09T19:58:18Z</time>
      </trkpt>
      <trkpt lat="47.86255" lon="7.21601">
        <ele>253</ele>
        <time>2019-08-09T19:58:19Z</time>
      </trkpt>
      <trkpt lat="47.86253" lon="7.21607">
        <ele>252.9</ele>
        <time>2019-08-09T19:58:20Z</time>
      </trkpt>
      <trkpt lat="47.86252" lon="7.21613">
        <ele>252.8</ele>
        <time>2019-08-09T19:58:21Z</time>
      </trkpt>
      <trkpt lat="47.86251" lon="7.21618">
        <ele>252.8</ele>
        <time>2019-08-09T19:58:22Z</time>
      </trkpt>
      <trkpt lat="47.86249" lon="7.21623">
        <ele>252.7</ele>
        <time>2019-08-09T19:58:23Z</time>
      </trkpt>
      <trkpt lat="47.86247" lon="7.21627">
        <ele>252.6</ele>
        <time>2019-08-09T19:58:24Z</time>
      </trkpt>
      <trkpt lat="47.86242" lon="7.21632">
        <ele>252.5</ele>
        <time>2019-08-09T19:58:25Z</time>
      </trkpt>
      <trkpt lat="47.86238" lon="7.21636">
        <ele>252.5</ele>
        <time>2019-08-09T19:58:26Z</time>
      </trkpt>
      <trkpt lat="47.86235" lon="7.2164">
        <ele>252.4</ele>
        <time>2019-08-09T19:58:27Z</time>
      </trkpt>
      <trkpt lat="47.86233" lon="7.21644">
        <ele>252.4</ele>
        <time>2019-08-09T19:58:28Z</time>
      </trkpt>
      <trkpt lat="47.86229" lon="7.21646">
        <ele>252.3</ele>
        <time>2019-08-09T19:58:29Z</time>
      </trkpt>
      <trkpt lat="47.86227" lon="7.21654">
        <ele>252.3</ele>
        <time>2019-08-09T19:58:30Z</time>
      </trkpt>
      <trkpt lat="47.86225" lon="7.2166">
        <ele>252.2</ele>
        <time>2019-08-09T19:58:31Z</time>
      </trkpt>
      <trkpt lat="47.86223" lon="7.21666">
        <ele>252.2</ele>
        <time>2019-08-09T19:58:32Z</time>
      </trkpt>
      <trkpt lat="47.8622" lon="7.21673">
        <ele>252.2</ele>
        <time>2019-08-09T19:58:33Z</time>
      </trkpt>
      <trkpt lat="47.86218" lon="7.21678">
        <ele>252.1</ele>
        <time>2019-08-09T19:58:34Z</time>
      </trkpt>
      <trkpt lat="47.86217" lon="7.21683">
        <ele>252.1</ele>
        <time>2019-08-09T19:58:35Z</time>
      </trkpt>
      <trkpt lat="47.86216" lon="7.21689">
        <ele>252</ele>
        <time>2019-08-09T19:58:36Z</time>
      </trkpt>
      <trkpt lat="47.86214" lon="7.21694">
        <ele>252</ele>
        <time>2019-08-09T19:58:37Z</time>
      </trkpt>
      <trkpt lat="47.86214" lon="7.21699">
        <ele>252</ele>
        <time>2019-08-09T19:58:38Z</time>
      </trkpt>
      <trkpt lat="47.86212" lon="7.21704">
        <ele>252</ele>
        <time>2019-08-09T19:58:39Z</time>
      </trkpt>
      <trkpt lat="47.8621" lon="7.21708">
        <ele>251.9</ele>
        <time>2019-08-09T19:58:40Z</time>
      </trkpt>
      <trkpt lat="47.86209" lon="7.21713">
        <ele>251.9</ele>
        <time>2019-08-09T19:58:41Z</time>
      </trkpt>
      <trkpt lat="47.86205" lon="7.21718">
        <ele>251.9</ele>
        <time>2019-08-09T19:58:42Z</time>
      </trkpt>
      <trkpt lat="47.86202" lon="7.21722">
        <ele>251.8</ele>
        <time>2019-08-09T19:58:43Z</time>
      </trkpt>
      <trkpt lat="47.86199" lon="7.21724">
        <ele>251.8</ele>
        <time>2019-08-09T19:58:44Z</time>
      </trkpt>
      <trkpt lat="47.86196" lon="7.21726">
        <ele>251.9</ele>
        <time>2019-08-09T19:58:45Z</time>
      </trkpt>
      <trkpt lat="47.86192" lon="7.21724">
        <ele>251.9</ele>
        <time>2019-08-09T19:58:46Z</time>
      </trkpt>
      <trkpt lat="47.86189" lon="7.21723">
        <ele>252</ele>
        <time>2019-08-09T19:58:47Z</time>
      </trkpt>
      <trkpt lat="47.86185" lon="7.21721">
        <ele>252.1</ele>
        <time>2019-08-09T19:58:48Z</time>
      </trkpt>
      <trkpt lat="47.86183" lon="7.21718">
        <ele>252.2</ele>
        <time>2019-08-09T19:58:49Z</time>
      </trkpt>
      <trkpt lat="47.8618" lon="7.21714">
        <ele>252.2</ele>
        <time>2019-08-09T19:58:50Z</time>
      </trkpt>
      <trkpt lat="47.86178" lon="7.2171">
        <ele>252.3</ele>
        <time>2019-08-09T19:58:51Z</time>
      </trkpt>
      <trkpt lat="47.86175" lon="7.21706">
        <ele>252.4</ele>
        <time>2019-08-09T19:58:52Z</time>
      </trkpt>
      <trkpt lat="47.86172" lon="7.21702">
        <ele>252.4</ele>
        <time>2019-08-09T19:58:53Z</time>
      </trkpt>
      <trkpt lat="47.86169" lon="7.21699">
        <ele>252.5</ele>
        <time>2019-08-09T19:58:54Z</time>
      </trkpt>
      <trkpt lat="47.86167" lon="7.21695">
        <ele>252.6</ele>
        <time>2019-08-09T19:58:55Z</time>
      </trkpt>
      <trkpt lat="47.86165" lon="7.21691">
        <ele>252.6</ele>
        <time>2019-08-09T19:58:56Z</time>
      </trkpt>
      <trkpt lat="47.86163" lon="7.21687">
        <ele>252.7</ele>
        <time>2019-08-09T19:58:57Z</time>
      </trkpt>
      <trkpt lat="47.8616" lon="7.21683">
        <ele>252.8</ele>
        <time>2019-08-09T19:58:58Z</time>
      </trkpt>
      <trkpt lat="47.86157" lon="7.21684">
        <ele>252.8</ele>
        <time>2019-08-09T19:58:59Z</time>
      </trkpt>
      <trkpt lat="47.86155" lon="7.2168">
        <ele>252.9</ele>
        <time>2019-08-09T19:59:00Z</time>
      </trkpt>
      <trkpt lat="47.86151" lon="7.21679">
        <ele>252.9</ele>
        <time>2019-08-09T19:59:01Z</time>
      </trkpt>
      <trkpt lat="47.86146" lon="7.21679">
        <ele>253</ele>
        <time>2019-08-09T19:59:02Z</time>
      </trkpt>
      <trkpt lat="47.86143" lon="7.21678">
        <ele>253.1</ele>
        <time>2019-08-09T19:59:03Z</time>
      </trkpt>
      <trkpt lat="47.86139" lon="7.21677">
        <ele>253.1</ele>
        <time>2019-08-09T19:59:04Z</time>
      </trkpt>
      <trkpt lat="47.86135" lon="7.21675">
        <ele>253.2</ele>
        <time>2019-08-09T19:59:05Z</time>
      </trkpt>
      <trkpt lat="47.8613" lon="7.21674">
        <ele>253.2</ele>
        <time>2019-08-09T19:59:06Z</time>
      </trkpt>
      <trkpt lat="47.86126" lon="7.21673">
        <ele>253.3</ele>
        <time>2019-08-09T19:59:07Z</time>
      </trkpt>
      <trkpt lat="47.86121" lon="7.21672">
        <ele>253.4</ele>
        <time>2019-08-09T19:59:08Z</time>
      </trkpt>
      <trkpt lat="47.86116" lon="7.21671">
        <ele>253.5</ele>
        <time>2019-08-09T19:59:09Z</time>
      </trkpt>
      <trkpt lat="47.86111" lon="7.2167">
        <ele>253.5</ele>
        <time>2019-08-09T19:59:10Z</time>
      </trkpt>
      <trkpt lat="47.86107" lon="7.21669">
        <ele>253.5</ele>
        <time>2019-08-09T19:59:11Z</time>
      </trkpt>
      <trkpt lat="47.86103" lon="7.21669">
        <ele>253.6</ele>
        <time>2019-08-09T19:59:12Z</time>
      </trkpt>
      <trkpt lat="47.86099" lon="7.21668">
        <ele>253.6</ele>
        <time>2019-08-09T19:59:13Z</time>
      </trkpt>
      <trkpt lat="47.86096" lon="7.21667">
        <ele>253.6</ele>
        <time>2019-08-09T19:59:14Z</time>
      </trkpt>
      <trkpt lat="47.86093" lon="7.21666">
        <ele>253.6</ele>
        <time>2019-08-09T19:59:15Z</time>
      </trkpt>
      <trkpt lat="47.8609" lon="7.21664">
        <ele>253.7</ele>
        <time>2019-08-09T19:59:16Z</time>
      </trkpt>
      <trkpt lat="47.86087" lon="7.21662">
        <ele>253.8</ele>
        <time>2019-08-09T19:59:17Z</time>
      </trkpt>
      <trkpt lat="47.86083" lon="7.2166">
        <ele>253.8</ele>
        <time>2019-08-09T19:59:18Z</time>
      </trkpt>
      <trkpt lat="47.8608" lon="7.2166">
        <ele>253.9</ele>
        <time>2019-08-09T19:59:19Z</time>
      </trkpt>
      <trkpt lat="47.86076" lon="7.21661">
        <ele>253.9</ele>
        <time>2019-08-09T19:59:20Z</time>
      </trkpt>
      <trkpt lat="47.86072" lon="7.2166">
        <ele>254</ele>
        <time>2019-08-09T19:59:21Z</time>
      </trkpt>
      <trkpt lat="47.86069" lon="7.2166">
        <ele>254</ele>
        <time>2019-08-09T19:59:22Z</time>
      </trkpt>
      <trkpt lat="47.86066" lon="7.2166">
        <ele>254</ele>
        <time>2019-08-09T19:59:23Z</time>
      </trkpt>
      <trkpt lat="47.86061" lon="7.2166">
        <ele>254.1</ele>
        <time>2019-08-09T19:59:25Z</time>
      </trkpt>
      <trkpt lat="47.86057" lon="7.2166">
        <ele>254.2</ele>
        <time>2019-08-09T19:59:28Z</time>
      </trkpt>
      <trkpt lat="47.86054" lon="7.21662">
        <ele>255.7</ele>
        <time>2019-08-09T19:59:30Z</time>
      </trkpt>
      <trkpt lat="47.86051" lon="7.21662">
        <ele>256.2</ele>
        <time>2019-08-09T19:59:35Z</time>
      </trkpt>
      <trkpt lat="47.86047" lon="7.2166">
        <ele>256.7</ele>
        <time>2019-08-09T19:59:52Z</time>
      </trkpt>
      <trkpt lat="47.86042" lon="7.2166">
        <ele>257.2</ele>
        <time>2019-08-09T19:59:54Z</time>
      </trkpt>
      <trkpt lat="47.8604" lon="7.21659">
        <ele>257.4</ele>
        <time>2019-08-09T19:59:55Z</time>
      </trkpt>
      <trkpt lat="47.86037" lon="7.21656">
        <ele>257.5</ele>
        <time>2019-08-09T19:59:56Z</time>
      </trkpt>
      <trkpt lat="47.86033" lon="7.21652">
        <ele>257.8</ele>
        <time>2019-08-09T19:59:58Z</time>
      </trkpt>
      <trkpt lat="47.86029" lon="7.21648">
        <ele>257.9</ele>
        <time>2019-08-09T20:00:00Z</time>
      </trkpt>
      <trkpt lat="47.86024" lon="7.21644">
        <ele>258</ele>
        <time>2019-08-09T20:00:02Z</time>
      </trkpt>
      <trkpt lat="47.86019" lon="7.21643">
        <ele>258</ele>
        <time>2019-08-09T20:00:04Z</time>
      </trkpt>
      <trkpt lat="47.86015" lon="7.21643">
        <ele>258</ele>
        <time>2019-08-09T20:00:05Z</time>
      </trkpt>
      <trkpt lat="47.86012" lon="7.21642">
        <ele>258</ele>
        <time>2019-08-09T20:00:06Z</time>
      </trkpt>
      <trkpt lat="47.8601" lon="7.21642">
        <ele>258</ele>
        <time>2019-08-09T20:00:07Z</time>
      </trkpt>
      <trkpt lat="47.86007" lon="7.21642">
        <ele>258</ele>
        <time>2019-08-09T20:00:08Z</time>
      </trkpt>
      <trkpt lat="47.86004" lon="7.2164">
        <ele>258</ele>
        <time>2019-08-09T20:00:09Z</time>
      </trkpt>
      <trkpt lat="47.85999" lon="7.21638">
        <ele>258</ele>
        <time>2019-08-09T20:00:11Z</time>
      </trkpt>
      <trkpt lat="47.85996" lon="7.21639">
        <ele>258</ele>
        <time>2019-08-09T20:00:12Z</time>
      </trkpt>
      <trkpt lat="47.85993" lon="7.21639">
        <ele>258.4</ele>
        <time>2019-08-09T20:00:13Z</time>
      </trkpt>
      <trkpt lat="47.85988" lon="7.21637">
        <ele>258.6</ele>
        <time>2019-08-09T20:00:15Z</time>
      </trkpt>
      <trkpt lat="47.85984" lon="7.21634">
        <ele>258.8</ele>
        <time>2019-08-09T20:00:17Z</time>
      </trkpt>
      <trkpt lat="47.85979" lon="7.21634">
        <ele>259</ele>
        <time>2019-08-09T20:00:19Z</time>
      </trkpt>
      <trkpt lat="47.85974" lon="7.21634">
        <ele>259.2</ele>
        <time>2019-08-09T20:00:21Z</time>
      </trkpt>
      <trkpt lat="47.85969" lon="7.21634">
        <ele>259.5</ele>
        <time>2019-08-09T20:00:23Z</time>
      </trkpt>
      <trkpt lat="47.85965" lon="7.21633">
        <ele>259.7</ele>
        <time>2019-08-09T20:00:25Z</time>
      </trkpt>
      <trkpt lat="47.85961" lon="7.21632">
        <ele>260</ele>
        <time>2019-08-09T20:00:27Z</time>
      </trkpt>
      <trkpt lat="47.85957" lon="7.21631">
        <ele>260.3</ele>
        <time>2019-08-09T20:00:29Z</time>
      </trkpt>
      <trkpt lat="47.85954" lon="7.2163">
        <ele>260.5</ele>
        <time>2019-08-09T20:00:30Z</time>
      </trkpt>
      <trkpt lat="47.85951" lon="7.2163">
        <ele>260.7</ele>
        <time>2019-08-09T20:00:31Z</time>
      </trkpt>
      <trkpt lat="47.85949" lon="7.2163">
        <ele>260.9</ele>
        <time>2019-08-09T20:00:32Z</time>
      </trkpt>
      <trkpt lat="47.85943" lon="7.2163">
        <ele>261.2</ele>
        <time>2019-08-09T20:00:34Z</time>
      </trkpt>
      <trkpt lat="47.85939" lon="7.2163">
        <ele>261.4</ele>
        <time>2019-08-09T20:00:36Z</time>
      </trkpt>
      <trkpt lat="47.85935" lon="7.21631">
        <ele>261.6</ele>
        <time>2019-08-09T20:00:38Z</time>
      </trkpt>
      <trkpt lat="47.8593" lon="7.2163">
        <ele>261.8</ele>
        <time>2019-08-09T20:00:40Z</time>
      </trkpt>
      <trkpt lat="47.85925" lon="7.2163">
        <ele>262.1</ele>
        <time>2019-08-09T20:00:42Z</time>
      </trkpt>
      <trkpt lat="47.85919" lon="7.21631">
        <ele>262.4</ele>
        <time>2019-08-09T20:00:44Z</time>
      </trkpt>
      <trkpt lat="47.85916" lon="7.21631">
        <ele>262.5</ele>
        <time>2019-08-09T20:00:45Z</time>
      </trkpt>
      <trkpt lat="47.85913" lon="7.21632">
        <ele>262.7</ele>
        <time>2019-08-09T20:00:46Z</time>
      </trkpt>
      <trkpt lat="47.85911" lon="7.21633">
        <ele>262.9</ele>
        <time>2019-08-09T20:00:47Z</time>
      </trkpt>
      <trkpt lat="47.85907" lon="7.21634">
        <ele>263.1</ele>
        <time>2019-08-09T20:00:48Z</time>
      </trkpt>
      <trkpt lat="47.85902" lon="7.21634">
        <ele>263.4</ele>
        <time>2019-08-09T20:00:50Z</time>
      </trkpt>
      <trkpt lat="47.85898" lon="7.21635">
        <ele>263.7</ele>
        <time>2019-08-09T20:00:52Z</time>
      </trkpt>
      <trkpt lat="47.85892" lon="7.21636">
        <ele>263.8</ele>
        <time>2019-08-09T20:00:54Z</time>
      </trkpt>
      <trkpt lat="47.85889" lon="7.21639">
        <ele>263.8</ele>
        <time>2019-08-09T20:00:56Z</time>
      </trkpt>
      <trkpt lat="47.85884" lon="7.21639">
        <ele>263.8</ele>
        <time>2019-08-09T20:00:58Z</time>
      </trkpt>
      <trkpt lat="47.85879" lon="7.2164">
        <ele>263.8</ele>
        <time>2019-08-09T20:01:00Z</time>
      </trkpt>
      <trkpt lat="47.85875" lon="7.21641">
        <ele>263.9</ele>
        <time>2019-08-09T20:01:02Z</time>
      </trkpt>
      <trkpt lat="47.85872" lon="7.21642">
        <ele>263.9</ele>
        <time>2019-08-09T20:01:03Z</time>
      </trkpt>
      <trkpt lat="47.85867" lon="7.21642">
        <ele>264</ele>
        <time>2019-08-09T20:01:05Z</time>
      </trkpt>
      <trkpt lat="47.85862" lon="7.21642">
        <ele>264.1</ele>
        <time>2019-08-09T20:01:07Z</time>
      </trkpt>
      <trkpt lat="47.85859" lon="7.21643">
        <ele>264.2</ele>
        <time>2019-08-09T20:01:08Z</time>
      </trkpt>
      <trkpt lat="47.85854" lon="7.21642">
        <ele>264.3</ele>
        <time>2019-08-09T20:01:10Z</time>
      </trkpt>
      <trkpt lat="47.85851" lon="7.21642">
        <ele>264.5</ele>
        <time>2019-08-09T20:01:11Z</time>
      </trkpt>
      <trkpt lat="47.85846" lon="7.21643">
        <ele>264.7</ele>
        <time>2019-08-09T20:01:13Z</time>
      </trkpt>
      <trkpt lat="47.85842" lon="7.21646">
        <ele>264.9</ele>
        <time>2019-08-09T20:01:15Z</time>
      </trkpt>
      <trkpt lat="47.85837" lon="7.21647">
        <ele>265.1</ele>
        <time>2019-08-09T20:01:17Z</time>
      </trkpt>
      <trkpt lat="47.85833" lon="7.2165">
        <ele>265.3</ele>
        <time>2019-08-09T20:01:19Z</time>
      </trkpt>
      <trkpt lat="47.8583" lon="7.2165">
        <ele>265.4</ele>
        <time>2019-08-09T20:01:20Z</time>
      </trkpt>
      <trkpt lat="47.85825" lon="7.21649">
        <ele>265.5</ele>
        <time>2019-08-09T20:01:22Z</time>
      </trkpt>
      <trkpt lat="47.85822" lon="7.2165">
        <ele>265.5</ele>
        <time>2019-08-09T20:01:23Z</time>
      </trkpt>
      <trkpt lat="47.85819" lon="7.2165">
        <ele>265.6</ele>
        <time>2019-08-09T20:01:24Z</time>
      </trkpt>
      <trkpt lat="47.85817" lon="7.2165">
        <ele>265.6</ele>
        <time>2019-08-09T20:01:25Z</time>
      </trkpt>
      <trkpt lat="47.85813" lon="7.21649">
        <ele>265.7</ele>
        <time>2019-08-09T20:01:26Z</time>
      </trkpt>
      <trkpt lat="47.85808" lon="7.21648">
        <ele>265.8</ele>
        <time>2019-08-09T20:01:28Z</time>
      </trkpt>
      <trkpt lat="47.85805" lon="7.21648">
        <ele>265.8</ele>
        <time>2019-08-09T20:01:29Z</time>
      </trkpt>
      <trkpt lat="47.85802" lon="7.21649">
        <ele>265.9</ele>
        <time>2019-08-09T20:01:30Z</time>
      </trkpt>
      <trkpt lat="47.85799" lon="7.21649">
        <ele>265.9</ele>
        <time>2019-08-09T20:01:31Z</time>
      </trkpt>
      <trkpt lat="47.85796" lon="7.2165">
        <ele>265.9</ele>
        <time>2019-08-09T20:01:32Z</time>
      </trkpt>
      <trkpt lat="47.85793" lon="7.2165">
        <ele>265.9</ele>
        <time>2019-08-09T20:01:33Z</time>
      </trkpt>
      <trkpt lat="47.85789" lon="7.21651">
        <ele>265.9</ele>
        <time>2019-08-09T20:01:34Z</time>
      </trkpt>
      <trkpt lat="47.85786" lon="7.21651">
        <ele>265.9</ele>
        <time>2019-08-09T20:01:35Z</time>
      </trkpt>
      <trkpt lat="47.85782" lon="7.21651">
        <ele>265.9</ele>
        <time>2019-08-09T20:01:36Z</time>
      </trkpt>
      <trkpt lat="47.85778" lon="7.21651">
        <ele>265.9</ele>
        <time>2019-08-09T20:01:37Z</time>
      </trkpt>
      <trkpt lat="47.85775" lon="7.21651">
        <ele>265.9</ele>
        <time>2019-08-09T20:01:38Z</time>
      </trkpt>
      <trkpt lat="47.85771" lon="7.21651">
        <ele>265.9</ele>
        <time>2019-08-09T20:01:39Z</time>
      </trkpt>
      <trkpt lat="47.85767" lon="7.2165">
        <ele>265.9</ele>
        <time>2019-08-09T20:01:40Z</time>
      </trkpt>
      <trkpt lat="47.85763" lon="7.21649">
        <ele>265.8</ele>
        <time>2019-08-09T20:01:41Z</time>
      </trkpt>
      <trkpt lat="47.85759" lon="7.21649">
        <ele>265.8</ele>
        <time>2019-08-09T20:01:42Z</time>
      </trkpt>
      <trkpt lat="47.85754" lon="7.21649">
        <ele>265.8</ele>
        <time>2019-08-09T20:01:43Z</time>
      </trkpt>
      <trkpt lat="47.8575" lon="7.21649">
        <ele>265.7</ele>
        <time>2019-08-09T20:01:44Z</time>
      </trkpt>
      <trkpt lat="47.85746" lon="7.2165">
        <ele>265.7</ele>
        <time>2019-08-09T20:01:45Z</time>
      </trkpt>
      <trkpt lat="47.85741" lon="7.2165">
        <ele>265.6</ele>
        <time>2019-08-09T20:01:46Z</time>
      </trkpt>
      <trkpt lat="47.85737" lon="7.2165">
        <ele>265.6</ele>
        <time>2019-08-09T20:01:47Z</time>
      </trkpt>
      <trkpt lat="47.85732" lon="7.21651">
        <ele>265.5</ele>
        <time>2019-08-09T20:01:48Z</time>
      </trkpt>
      <trkpt lat="47.85728" lon="7.21653">
        <ele>265.4</ele>
        <time>2019-08-09T20:01:49Z</time>
      </trkpt>
      <trkpt lat="47.85723" lon="7.21656">
        <ele>265.4</ele>
        <time>2019-08-09T20:01:50Z</time>
      </trkpt>
      <trkpt lat="47.8572" lon="7.2166">
        <ele>265.2</ele>
        <time>2019-08-09T20:01:51Z</time>
      </trkpt>
      <trkpt lat="47.85716" lon="7.21665">
        <ele>265.1</ele>
        <time>2019-08-09T20:01:52Z</time>
      </trkpt>
      <trkpt lat="47.85714" lon="7.2167">
        <ele>265.1</ele>
        <time>2019-08-09T20:01:53Z</time>
      </trkpt>
      <trkpt lat="47.85712" lon="7.21675">
        <ele>265</ele>
        <time>2019-08-09T20:01:54Z</time>
      </trkpt>
      <trkpt lat="47.85709" lon="7.21682">
        <ele>264.9</ele>
        <time>2019-08-09T20:01:55Z</time>
      </trkpt>
      <trkpt lat="47.85707" lon="7.21687">
        <ele>264.9</ele>
        <time>2019-08-09T20:01:56Z</time>
      </trkpt>
      <trkpt lat="47.85705" lon="7.21693">
        <ele>264.8</ele>
        <time>2019-08-09T20:01:57Z</time>
      </trkpt>
      <trkpt lat="47.85704" lon="7.217">
        <ele>264.7</ele>
        <time>2019-08-09T20:01:58Z</time>
      </trkpt>
      <trkpt lat="47.85703" lon="7.21707">
        <ele>264.7</ele>
        <time>2019-08-09T20:01:59Z</time>
      </trkpt>
      <trkpt lat="47.85701" lon="7.21714">
        <ele>264.6</ele>
        <time>2019-08-09T20:02:00Z</time>
      </trkpt>
      <trkpt lat="47.85699" lon="7.21722">
        <ele>264.5</ele>
        <time>2019-08-09T20:02:01Z</time>
      </trkpt>
      <trkpt lat="47.85698" lon="7.21729">
        <ele>264.4</ele>
        <time>2019-08-09T20:02:02Z</time>
      </trkpt>
      <trkpt lat="47.85696" lon="7.21736">
        <ele>264.4</ele>
        <time>2019-08-09T20:02:03Z</time>
      </trkpt>
      <trkpt lat="47.85694" lon="7.21743">
        <ele>264.3</ele>
        <time>2019-08-09T20:02:04Z</time>
      </trkpt>
      <trkpt lat="47.85693" lon="7.21751">
        <ele>264.2</ele>
        <time>2019-08-09T20:02:05Z</time>
      </trkpt>
      <trkpt lat="47.85691" lon="7.21758">
        <ele>264.1</ele>
        <time>2019-08-09T20:02:06Z</time>
      </trkpt>
      <trkpt lat="47.8569" lon="7.21764">
        <ele>264</ele>
        <time>2019-08-09T20:02:07Z</time>
      </trkpt>
      <trkpt lat="47.85688" lon="7.21771">
        <ele>263.9</ele>
        <time>2019-08-09T20:02:08Z</time>
      </trkpt>
      <trkpt lat="47.85687" lon="7.21779">
        <ele>263.8</ele>
        <time>2019-08-09T20:02:09Z</time>
      </trkpt>
      <trkpt lat="47.85685" lon="7.21786">
        <ele>263.7</ele>
        <time>2019-08-09T20:02:10Z</time>
      </trkpt>
      <trkpt lat="47.85684" lon="7.21792">
        <ele>263.6</ele>
        <time>2019-08-09T20:02:11Z</time>
      </trkpt>
      <trkpt lat="47.85682" lon="7.21799">
        <ele>263.5</ele>
        <time>2019-08-09T20:02:12Z</time>
      </trkpt>
      <trkpt lat="47.8568" lon="7.21806">
        <ele>263.4</ele>
        <time>2019-08-09T20:02:13Z</time>
      </trkpt>
      <trkpt lat="47.85678" lon="7.21813">
        <ele>263.3</ele>
        <time>2019-08-09T20:02:14Z</time>
      </trkpt>
      <trkpt lat="47.85677" lon="7.2182">
        <ele>263.2</ele>
        <time>2019-08-09T20:02:15Z</time>
      </trkpt>
      <trkpt lat="47.85676" lon="7.21827">
        <ele>263.1</ele>
        <time>2019-08-09T20:02:16Z</time>
      </trkpt>
      <trkpt lat="47.85675" lon="7.21834">
        <ele>263</ele>
        <time>2019-08-09T20:02:17Z</time>
      </trkpt>
      <trkpt lat="47.85674" lon="7.21841">
        <ele>262.9</ele>
        <time>2019-08-09T20:02:18Z</time>
      </trkpt>
      <trkpt lat="47.85672" lon="7.21848">
        <ele>262.8</ele>
        <time>2019-08-09T20:02:19Z</time>
      </trkpt>
      <trkpt lat="47.85671" lon="7.21854">
        <ele>262.7</ele>
        <time>2019-08-09T20:02:20Z</time>
      </trkpt>
      <trkpt lat="47.8567" lon="7.21861">
        <ele>262.5</ele>
        <time>2019-08-09T20:02:21Z</time>
      </trkpt>
      <trkpt lat="47.85669" lon="7.21868">
        <ele>262.4</ele>
        <time>2019-08-09T20:02:22Z</time>
      </trkpt>
      <trkpt lat="47.85668" lon="7.21874">
        <ele>262.3</ele>
        <time>2019-08-09T20:02:23Z</time>
      </trkpt>
      <trkpt lat="47.85667" lon="7.21881">
        <ele>262.2</ele>
        <time>2019-08-09T20:02:24Z</time>
      </trkpt>
      <trkpt lat="47.85666" lon="7.21887">
        <ele>262.1</ele>
        <time>2019-08-09T20:02:25Z</time>
      </trkpt>
      <trkpt lat="47.85665" lon="7.21894">
        <ele>262</ele>
        <time>2019-08-09T20:02:26Z</time>
      </trkpt>
      <trkpt lat="47.85664" lon="7.21899">
        <ele>261.9</ele>
        <time>2019-08-09T20:02:27Z</time>
      </trkpt>
      <trkpt lat="47.85664" lon="7.21905">
        <ele>261.7</ele>
        <time>2019-08-09T20:02:28Z</time>
      </trkpt>
      <trkpt lat="47.85663" lon="7.2191">
        <ele>261.7</ele>
        <time>2019-08-09T20:02:29Z</time>
      </trkpt>
      <trkpt lat="47.85662" lon="7.21916">
        <ele>261.5</ele>
        <time>2019-08-09T20:02:30Z</time>
      </trkpt>
      <trkpt lat="47.85661" lon="7.21921">
        <ele>261.4</ele>
        <time>2019-08-09T20:02:31Z</time>
      </trkpt>
      <trkpt lat="47.8566" lon="7.21927">
        <ele>261.3</ele>
        <time>2019-08-09T20:02:32Z</time>
      </trkpt>
      <trkpt lat="47.85659" lon="7.21934">
        <ele>261.2</ele>
        <time>2019-08-09T20:02:33Z</time>
      </trkpt>
      <trkpt lat="47.85659" lon="7.2194">
        <ele>261.1</ele>
        <time>2019-08-09T20:02:34Z</time>
      </trkpt>
      <trkpt lat="47.85658" lon="7.21947">
        <ele>260.9</ele>
        <time>2019-08-09T20:02:35Z</time>
      </trkpt>
      <trkpt lat="47.85656" lon="7.21953">
        <ele>260.8</ele>
        <time>2019-08-09T20:02:36Z</time>
      </trkpt>
      <trkpt lat="47.85654" lon="7.2196">
        <ele>260.7</ele>
        <time>2019-08-09T20:02:37Z</time>
      </trkpt>
      <trkpt lat="47.85651" lon="7.21965">
        <ele>260.6</ele>
        <time>2019-08-09T20:02:38Z</time>
      </trkpt>
      <trkpt lat="47.85647" lon="7.2197">
        <ele>260.4</ele>
        <time>2019-08-09T20:02:39Z</time>
      </trkpt>
      <trkpt lat="47.85643" lon="7.21974">
        <ele>260.3</ele>
        <time>2019-08-09T20:02:40Z</time>
      </trkpt>
      <trkpt lat="47.85639" lon="7.21976">
        <ele>260.2</ele>
        <time>2019-08-09T20:02:41Z</time>
      </trkpt>
      <trkpt lat="47.85634" lon="7.21976">
        <ele>260.1</ele>
        <time>2019-08-09T20:02:42Z</time>
      </trkpt>
      <trkpt lat="47.8563" lon="7.21974">
        <ele>260.1</ele>
        <time>2019-08-09T20:02:43Z</time>
      </trkpt>
      <trkpt lat="47.85625" lon="7.21971">
        <ele>260</ele>
        <time>2019-08-09T20:02:44Z</time>
      </trkpt>
      <trkpt lat="47.8562" lon="7.21967">
        <ele>259.9</ele>
        <time>2019-08-09T20:02:45Z</time>
      </trkpt>
      <trkpt lat="47.85616" lon="7.21964">
        <ele>259.8</ele>
        <time>2019-08-09T20:02:46Z</time>
      </trkpt>
      <trkpt lat="47.85611" lon="7.2196">
        <ele>259.7</ele>
        <time>2019-08-09T20:02:47Z</time>
      </trkpt>
      <trkpt lat="47.85605" lon="7.21956">
        <ele>259.6</ele>
        <time>2019-08-09T20:02:48Z</time>
      </trkpt>
      <trkpt lat="47.856" lon="7.21952">
        <ele>259.5</ele>
        <time>2019-08-09T20:02:49Z</time>
      </trkpt>
      <trkpt lat="47.85595" lon="7.21949">
        <ele>259.5</ele>
        <time>2019-08-09T20:02:50Z</time>
      </trkpt>
      <trkpt lat="47.85589" lon="7.21945">
        <ele>259.4</ele>
        <time>2019-08-09T20:02:51Z</time>
      </trkpt>
      <trkpt lat="47.85584" lon="7.21941">
        <ele>259.3</ele>
        <time>2019-08-09T20:02:52Z</time>
      </trkpt>
      <trkpt lat="47.8558" lon="7.21938">
        <ele>259.2</ele>
        <time>2019-08-09T20:02:53Z</time>
      </trkpt>
      <trkpt lat="47.85575" lon="7.21936">
        <ele>259.2</ele>
        <time>2019-08-09T20:02:54Z</time>
      </trkpt>
      <trkpt lat="47.8557" lon="7.21934">
        <ele>259.1</ele>
        <time>2019-08-09T20:02:55Z</time>
      </trkpt>
      <trkpt lat="47.85565" lon="7.21934">
        <ele>259</ele>
        <time>2019-08-09T20:02:56Z</time>
      </trkpt>
      <trkpt lat="47.8556" lon="7.21934">
        <ele>258.9</ele>
        <time>2019-08-09T20:02:57Z</time>
      </trkpt>
      <trkpt lat="47.85556" lon="7.21936">
        <ele>258.9</ele>
        <time>2019-08-09T20:02:58Z</time>
      </trkpt>
      <trkpt lat="47.85552" lon="7.2194">
        <ele>258.8</ele>
        <time>2019-08-09T20:02:59Z</time>
      </trkpt>
      <trkpt lat="47.85548" lon="7.21944">
        <ele>258.7</ele>
        <time>2019-08-09T20:03:00Z</time>
      </trkpt>
      <trkpt lat="47.85545" lon="7.2195">
        <ele>258.7</ele>
        <time>2019-08-09T20:03:01Z</time>
      </trkpt>
      <trkpt lat="47.85541" lon="7.21955">
        <ele>258.6</ele>
        <time>2019-08-09T20:03:02Z</time>
      </trkpt>
      <trkpt lat="47.85538" lon="7.2196">
        <ele>258.5</ele>
        <time>2019-08-09T20:03:03Z</time>
      </trkpt>
      <trkpt lat="47.85535" lon="7.21966">
        <ele>258.4</ele>
        <time>2019-08-09T20:03:04Z</time>
      </trkpt>
      <trkpt lat="47.85531" lon="7.21972">
        <ele>258.4</ele>
        <time>2019-08-09T20:03:05Z</time>
      </trkpt>
      <trkpt lat="47.85528" lon="7.21978">
        <ele>258.3</ele>
        <time>2019-08-09T20:03:06Z</time>
      </trkpt>
      <trkpt lat="47.85526" lon="7.21985">
        <ele>258.2</ele>
        <time>2019-08-09T20:03:07Z</time>
      </trkpt>
      <trkpt lat="47.85523" lon="7.21991">
        <ele>258.1</ele>
        <time>2019-08-09T20:03:08Z</time>
      </trkpt>
      <trkpt lat="47.8552" lon="7.21997">
        <ele>258.1</ele>
        <time>2019-08-09T20:03:09Z</time>
      </trkpt>
      <trkpt lat="47.85517" lon="7.22003">
        <ele>258</ele>
        <time>2019-08-09T20:03:10Z</time>
      </trkpt>
      <trkpt lat="47.85514" lon="7.2201">
        <ele>257.9</ele>
        <time>2019-08-09T20:03:11Z</time>
      </trkpt>
      <trkpt lat="47.85511" lon="7.22015">
        <ele>257.8</ele>
        <time>2019-08-09T20:03:12Z</time>
      </trkpt>
      <trkpt lat="47.85509" lon="7.22021">
        <ele>257.8</ele>
        <time>2019-08-09T20:03:13Z</time>
      </trkpt>
      <trkpt lat="47.85506" lon="7.22027">
        <ele>257.7</ele>
        <time>2019-08-09T20:03:14Z</time>
      </trkpt>
      <trkpt lat="47.85503" lon="7.22032">
        <ele>257.7</ele>
        <time>2019-08-09T20:03:15Z</time>
      </trkpt>
      <trkpt lat="47.855" lon="7.22038">
        <ele>257.6</ele>
        <time>2019-08-09T20:03:16Z</time>
      </trkpt>
      <trkpt lat="47.85498" lon="7.22044">
        <ele>257.5</ele>
        <time>2019-08-09T20:03:17Z</time>
      </trkpt>
      <trkpt lat="47.85494" lon="7.22051">
        <ele>257.5</ele>
        <time>2019-08-09T20:03:18Z</time>
      </trkpt>
      <trkpt lat="47.85491" lon="7.22057">
        <ele>257.4</ele>
        <time>2019-08-09T20:03:19Z</time>
      </trkpt>
      <trkpt lat="47.85489" lon="7.22063">
        <ele>257.4</ele>
        <time>2019-08-09T20:03:20Z</time>
      </trkpt>
      <trkpt lat="47.85486" lon="7.22071">
        <ele>257.3</ele>
        <time>2019-08-09T20:03:21Z</time>
      </trkpt>
      <trkpt lat="47.85483" lon="7.22078">
        <ele>257.2</ele>
        <time>2019-08-09T20:03:22Z</time>
      </trkpt>
      <trkpt lat="47.8548" lon="7.22085">
        <ele>257.2</ele>
        <time>2019-08-09T20:03:23Z</time>
      </trkpt>
      <trkpt lat="47.85477" lon="7.22093">
        <ele>257.1</ele>
        <time>2019-08-09T20:03:24Z</time>
      </trkpt>
      <trkpt lat="47.85474" lon="7.22099">
        <ele>257.1</ele>
        <time>2019-08-09T20:03:25Z</time>
      </trkpt>
      <trkpt lat="47.85471" lon="7.22106">
        <ele>257.1</ele>
        <time>2019-08-09T20:03:26Z</time>
      </trkpt>
      <trkpt lat="47.85468" lon="7.22113">
        <ele>257</ele>
        <time>2019-08-09T20:03:27Z</time>
      </trkpt>
      <trkpt lat="47.85465" lon="7.22119">
        <ele>257</ele>
        <time>2019-08-09T20:03:28Z</time>
      </trkpt>
      <trkpt lat="47.85461" lon="7.22126">
        <ele>256.9</ele>
        <time>2019-08-09T20:03:29Z</time>
      </trkpt>
      <trkpt lat="47.85458" lon="7.22133">
        <ele>256.9</ele>
        <time>2019-08-09T20:03:30Z</time>
      </trkpt>
      <trkpt lat="47.85454" lon="7.2214">
        <ele>256.8</ele>
        <time>2019-08-09T20:03:31Z</time>
      </trkpt>
      <trkpt lat="47.85451" lon="7.22147">
        <ele>256.8</ele>
        <time>2019-08-09T20:03:32Z</time>
      </trkpt>
      <trkpt lat="47.85447" lon="7.22153">
        <ele>256.7</ele>
        <time>2019-08-09T20:03:33Z</time>
      </trkpt>
      <trkpt lat="47.85443" lon="7.2216">
        <ele>256.7</ele>
        <time>2019-08-09T20:03:34Z</time>
      </trkpt>
      <trkpt lat="47.85439" lon="7.22167">
        <ele>256.5</ele>
        <time>2019-08-09T20:03:35Z</time>
      </trkpt>
      <trkpt lat="47.85434" lon="7.22171">
        <ele>256.3</ele>
        <time>2019-08-09T20:03:36Z</time>
      </trkpt>
      <trkpt lat="47.8543" lon="7.22174">
        <ele>256.2</ele>
        <time>2019-08-09T20:03:37Z</time>
      </trkpt>
      <trkpt lat="47.85425" lon="7.22179">
        <ele>256</ele>
        <time>2019-08-09T20:03:38Z</time>
      </trkpt>
      <trkpt lat="47.8542" lon="7.22181">
        <ele>255.8</ele>
        <time>2019-08-09T20:03:39Z</time>
      </trkpt>
      <trkpt lat="47.85415" lon="7.22183">
        <ele>255.7</ele>
        <time>2019-08-09T20:03:40Z</time>
      </trkpt>
      <trkpt lat="47.85409" lon="7.22182">
        <ele>255.5</ele>
        <time>2019-08-09T20:03:41Z</time>
      </trkpt>
      <trkpt lat="47.85404" lon="7.2218">
        <ele>255.4</ele>
        <time>2019-08-09T20:03:42Z</time>
      </trkpt>
      <trkpt lat="47.85397" lon="7.22178">
        <ele>255.3</ele>
        <time>2019-08-09T20:03:43Z</time>
      </trkpt>
      <trkpt lat="47.85392" lon="7.22177">
        <ele>255.3</ele>
        <time>2019-08-09T20:03:44Z</time>
      </trkpt>
      <trkpt lat="47.85386" lon="7.22174">
        <ele>255.3</ele>
        <time>2019-08-09T20:03:45Z</time>
      </trkpt>
      <trkpt lat="47.85381" lon="7.2217">
        <ele>255.3</ele>
        <time>2019-08-09T20:03:46Z</time>
      </trkpt>
      <trkpt lat="47.85375" lon="7.22166">
        <ele>255.2</ele>
        <time>2019-08-09T20:03:47Z</time>
      </trkpt>
      <trkpt lat="47.8537" lon="7.22163">
        <ele>255.2</ele>
        <time>2019-08-09T20:03:48Z</time>
      </trkpt>
      <trkpt lat="47.85364" lon="7.22159">
        <ele>255.1</ele>
        <time>2019-08-09T20:03:49Z</time>
      </trkpt>
      <trkpt lat="47.8536" lon="7.22155">
        <ele>255.1</ele>
        <time>2019-08-09T20:03:50Z</time>
      </trkpt>
      <trkpt lat="47.85355" lon="7.2215">
        <ele>255</ele>
        <time>2019-08-09T20:03:51Z</time>
      </trkpt>
      <trkpt lat="47.85351" lon="7.22146">
        <ele>254.9</ele>
        <time>2019-08-09T20:03:52Z</time>
      </trkpt>
      <trkpt lat="47.85347" lon="7.22142">
        <ele>254.7</ele>
        <time>2019-08-09T20:03:53Z</time>
      </trkpt>
      <trkpt lat="47.85342" lon="7.22138">
        <ele>254.6</ele>
        <time>2019-08-09T20:03:54Z</time>
      </trkpt>
      <trkpt lat="47.85338" lon="7.22133">
        <ele>254.4</ele>
        <time>2019-08-09T20:03:55Z</time>
      </trkpt>
      <trkpt lat="47.85333" lon="7.22129">
        <ele>254.2</ele>
        <time>2019-08-09T20:03:56Z</time>
      </trkpt>
      <trkpt lat="47.85328" lon="7.22124">
        <ele>254</ele>
        <time>2019-08-09T20:03:57Z</time>
      </trkpt>
      <trkpt lat="47.85324" lon="7.2212">
        <ele>253.8</ele>
        <time>2019-08-09T20:03:58Z</time>
      </trkpt>
      <trkpt lat="47.8532" lon="7.22115">
        <ele>253.5</ele>
        <time>2019-08-09T20:03:59Z</time>
      </trkpt>
      <trkpt lat="47.85316" lon="7.22111">
        <ele>253.3</ele>
        <time>2019-08-09T20:04:00Z</time>
      </trkpt>
      <trkpt lat="47.85313" lon="7.22106">
        <ele>253.2</ele>
        <time>2019-08-09T20:04:01Z</time>
      </trkpt>
      <trkpt lat="47.85309" lon="7.22102">
        <ele>253</ele>
        <time>2019-08-09T20:04:02Z</time>
      </trkpt>
      <trkpt lat="47.85305" lon="7.22098">
        <ele>252.8</ele>
        <time>2019-08-09T20:04:03Z</time>
      </trkpt>
      <trkpt lat="47.85302" lon="7.22094">
        <ele>252.7</ele>
        <time>2019-08-09T20:04:04Z</time>
      </trkpt>
      <trkpt lat="47.85299" lon="7.22091">
        <ele>252.6</ele>
        <time>2019-08-09T20:04:05Z</time>
      </trkpt>
      <trkpt lat="47.85295" lon="7.22087">
        <ele>252.4</ele>
        <time>2019-08-09T20:04:06Z</time>
      </trkpt>
      <trkpt lat="47.85292" lon="7.22083">
        <ele>252.3</ele>
        <time>2019-08-09T20:04:07Z</time>
      </trkpt>
      <trkpt lat="47.85289" lon="7.22078">
        <ele>252.2</ele>
        <time>2019-08-09T20:04:08Z</time>
      </trkpt>
      <trkpt lat="47.85285" lon="7.22073">
        <ele>252.1</ele>
        <time>2019-08-09T20:04:09Z</time>
      </trkpt>
      <trkpt lat="47.85282" lon="7.22068">
        <ele>252</ele>
        <time>2019-08-09T20:04:10Z</time>
      </trkpt>
      <trkpt lat="47.85278" lon="7.22063">
        <ele>252</ele>
        <time>2019-08-09T20:04:11Z</time>
      </trkpt>
      <trkpt lat="47.85275" lon="7.2206">
        <ele>251.9</ele>
        <time>2019-08-09T20:04:12Z</time>
      </trkpt>
      <trkpt lat="47.85272" lon="7.22056">
        <ele>251.9</ele>
        <time>2019-08-09T20:04:13Z</time>
      </trkpt>
      <trkpt lat="47.85269" lon="7.22054">
        <ele>251.9</ele>
        <time>2019-08-09T20:04:14Z</time>
      </trkpt>
      <trkpt lat="47.85266" lon="7.22051">
        <ele>251.9</ele>
        <time>2019-08-09T20:04:15Z</time>
      </trkpt>
      <trkpt lat="47.85263" lon="7.22048">
        <ele>251.9</ele>
        <time>2019-08-09T20:04:16Z</time>
      </trkpt>
      <trkpt lat="47.85261" lon="7.22045">
        <ele>251.9</ele>
        <time>2019-08-09T20:04:17Z</time>
      </trkpt>
      <trkpt lat="47.85257" lon="7.2204">
        <ele>251.8</ele>
        <time>2019-08-09T20:04:19Z</time>
      </trkpt>
      <trkpt lat="47.85254" lon="7.22033">
        <ele>251.8</ele>
        <time>2019-08-09T20:04:21Z</time>
      </trkpt>
      <trkpt lat="47.85252" lon="7.22029">
        <ele>251.8</ele>
        <time>2019-08-09T20:04:22Z</time>
      </trkpt>
      <trkpt lat="47.85249" lon="7.22026">
        <ele>251.9</ele>
        <time>2019-08-09T20:04:23Z</time>
      </trkpt>
      <trkpt lat="47.85246" lon="7.22021">
        <ele>252</ele>
        <time>2019-08-09T20:04:24Z</time>
      </trkpt>
      <trkpt lat="47.85244" lon="7.22016">
        <ele>252.1</ele>
        <time>2019-08-09T20:04:25Z</time>
      </trkpt>
      <trkpt lat="47.85241" lon="7.22011">
        <ele>252.2</ele>
        <time>2019-08-09T20:04:26Z</time>
      </trkpt>
      <trkpt lat="47.85239" lon="7.22006">
        <ele>252.2</ele>
        <time>2019-08-09T20:04:27Z</time>
      </trkpt>
      <trkpt lat="47.85237" lon="7.22001">
        <ele>252.2</ele>
        <time>2019-08-09T20:04:28Z</time>
      </trkpt>
      <trkpt lat="47.85235" lon="7.21997">
        <ele>252.3</ele>
        <time>2019-08-09T20:04:29Z</time>
      </trkpt>
      <trkpt lat="47.85233" lon="7.21992">
        <ele>252.3</ele>
        <time>2019-08-09T20:04:30Z</time>
      </trkpt>
      <trkpt lat="47.8523" lon="7.21987">
        <ele>252.4</ele>
        <time>2019-08-09T20:04:31Z</time>
      </trkpt>
      <trkpt lat="47.85228" lon="7.21982">
        <ele>252.4</ele>
        <time>2019-08-09T20:04:32Z</time>
      </trkpt>
      <trkpt lat="47.85225" lon="7.21977">
        <ele>252.5</ele>
        <time>2019-08-09T20:04:33Z</time>
      </trkpt>
      <trkpt lat="47.85222" lon="7.21975">
        <ele>252.6</ele>
        <time>2019-08-09T20:04:34Z</time>
      </trkpt>
      <trkpt lat="47.85219" lon="7.21971">
        <ele>252.6</ele>
        <time>2019-08-09T20:04:35Z</time>
      </trkpt>
      <trkpt lat="47.85216" lon="7.21966">
        <ele>252.7</ele>
        <time>2019-08-09T20:04:36Z</time>
      </trkpt>
      <trkpt lat="47.85214" lon="7.21962">
        <ele>252.8</ele>
        <time>2019-08-09T20:04:37Z</time>
      </trkpt>
      <trkpt lat="47.85211" lon="7.21958">
        <ele>252.9</ele>
        <time>2019-08-09T20:04:38Z</time>
      </trkpt>
      <trkpt lat="47.85208" lon="7.21954">
        <ele>252.9</ele>
        <time>2019-08-09T20:04:39Z</time>
      </trkpt>
      <trkpt lat="47.85206" lon="7.2195">
        <ele>253</ele>
        <time>2019-08-09T20:04:40Z</time>
      </trkpt>
      <trkpt lat="47.85204" lon="7.21947">
        <ele>253.1</ele>
        <time>2019-08-09T20:04:41Z</time>
      </trkpt>
      <trkpt lat="47.85199" lon="7.21943">
        <ele>253.2</ele>
        <time>2019-08-09T20:04:43Z</time>
      </trkpt>
      <trkpt lat="47.85197" lon="7.21941">
        <ele>253.2</ele>
        <time>2019-08-09T20:04:44Z</time>
      </trkpt>
      <trkpt lat="47.85193" lon="7.21942">
        <ele>253.3</ele>
        <time>2019-08-09T20:04:45Z</time>
      </trkpt>
      <trkpt lat="47.85191" lon="7.21946">
        <ele>253.4</ele>
        <time>2019-08-09T20:04:46Z</time>
      </trkpt>
      <trkpt lat="47.85189" lon="7.21949">
        <ele>253.4</ele>
        <time>2019-08-09T20:04:47Z</time>
      </trkpt>
      <trkpt lat="47.85187" lon="7.21954">
        <ele>253.4</ele>
        <time>2019-08-09T20:04:48Z</time>
      </trkpt>
      <trkpt lat="47.85185" lon="7.21959">
        <ele>253.4</ele>
        <time>2019-08-09T20:04:49Z</time>
      </trkpt>
      <trkpt lat="47.85183" lon="7.21963">
        <ele>253.4</ele>
        <time>2019-08-09T20:04:50Z</time>
      </trkpt>
      <trkpt lat="47.85182" lon="7.21968">
        <ele>253.4</ele>
        <time>2019-08-09T20:04:51Z</time>
      </trkpt>
      <trkpt lat="47.8518" lon="7.21972">
        <ele>253.5</ele>
        <time>2019-08-09T20:04:52Z</time>
      </trkpt>
      <trkpt lat="47.85178" lon="7.21975">
        <ele>253.5</ele>
        <time>2019-08-09T20:04:53Z</time>
      </trkpt>
      <trkpt lat="47.85176" lon="7.21979">
        <ele>253.5</ele>
        <time>2019-08-09T20:04:54Z</time>
      </trkpt>
      <trkpt lat="47.85174" lon="7.21985">
        <ele>253.5</ele>
        <time>2019-08-09T20:04:55Z</time>
      </trkpt>
      <trkpt lat="47.85171" lon="7.21991">
        <ele>253.5</ele>
        <time>2019-08-09T20:04:56Z</time>
      </trkpt>
      <trkpt lat="47.85168" lon="7.21996">
        <ele>253.5</ele>
        <time>2019-08-09T20:04:57Z</time>
      </trkpt>
      <trkpt lat="47.85166" lon="7.22001">
        <ele>253.5</ele>
        <time>2019-08-09T20:04:58Z</time>
      </trkpt>
      <trkpt lat="47.85164" lon="7.22007">
        <ele>253.6</ele>
        <time>2019-08-09T20:04:59Z</time>
      </trkpt>
      <trkpt lat="47.85161" lon="7.22014">
        <ele>253.6</ele>
        <time>2019-08-09T20:05:00Z</time>
      </trkpt>
      <trkpt lat="47.85159" lon="7.22019">
        <ele>253.6</ele>
        <time>2019-08-09T20:05:01Z</time>
      </trkpt>
      <trkpt lat="47.85156" lon="7.22024">
        <ele>253.7</ele>
        <time>2019-08-09T20:05:02Z</time>
      </trkpt>
      <trkpt lat="47.85153" lon="7.2203">
        <ele>253.7</ele>
        <time>2019-08-09T20:05:03Z</time>
      </trkpt>
      <trkpt lat="47.85151" lon="7.22036">
        <ele>253.7</ele>
        <time>2019-08-09T20:05:04Z</time>
      </trkpt>
      <trkpt lat="47.85148" lon="7.22045">
        <ele>253.7</ele>
        <time>2019-08-09T20:05:05Z</time>
      </trkpt>
      <trkpt lat="47.85146" lon="7.22051">
        <ele>253.7</ele>
        <time>2019-08-09T20:05:06Z</time>
      </trkpt>
      <trkpt lat="47.85144" lon="7.22058">
        <ele>253.6</ele>
        <time>2019-08-09T20:05:07Z</time>
      </trkpt>
      <trkpt lat="47.85142" lon="7.22063">
        <ele>253.6</ele>
        <time>2019-08-09T20:05:08Z</time>
      </trkpt>
      <trkpt lat="47.8514" lon="7.22071">
        <ele>253.6</ele>
        <time>2019-08-09T20:05:09Z</time>
      </trkpt>
      <trkpt lat="47.85137" lon="7.22077">
        <ele>253.5</ele>
        <time>2019-08-09T20:05:10Z</time>
      </trkpt>
      <trkpt lat="47.85134" lon="7.22083">
        <ele>253.6</ele>
        <time>2019-08-09T20:05:11Z</time>
      </trkpt>
      <trkpt lat="47.85133" lon="7.22089">
        <ele>253.6</ele>
        <time>2019-08-09T20:05:12Z</time>
      </trkpt>
      <trkpt lat="47.8513" lon="7.22097">
        <ele>253.6</ele>
        <time>2019-08-09T20:05:13Z</time>
      </trkpt>
      <trkpt lat="47.85128" lon="7.22103">
        <ele>253.7</ele>
        <time>2019-08-09T20:05:14Z</time>
      </trkpt>
      <trkpt lat="47.85126" lon="7.22111">
        <ele>253.7</ele>
        <time>2019-08-09T20:05:15Z</time>
      </trkpt>
      <trkpt lat="47.85123" lon="7.22117">
        <ele>253.6</ele>
        <time>2019-08-09T20:05:16Z</time>
      </trkpt>
      <trkpt lat="47.8512" lon="7.22124">
        <ele>253.6</ele>
        <time>2019-08-09T20:05:17Z</time>
      </trkpt>
      <trkpt lat="47.85116" lon="7.2213">
        <ele>253.7</ele>
        <time>2019-08-09T20:05:18Z</time>
      </trkpt>
      <trkpt lat="47.85114" lon="7.22136">
        <ele>253.7</ele>
        <time>2019-08-09T20:05:19Z</time>
      </trkpt>
      <trkpt lat="47.85111" lon="7.22143">
        <ele>253.7</ele>
        <time>2019-08-09T20:05:20Z</time>
      </trkpt>
      <trkpt lat="47.85109" lon="7.22149">
        <ele>253.6</ele>
        <time>2019-08-09T20:05:21Z</time>
      </trkpt>
      <trkpt lat="47.85107" lon="7.22155">
        <ele>253.6</ele>
        <time>2019-08-09T20:05:22Z</time>
      </trkpt>
      <trkpt lat="47.85104" lon="7.2216">
        <ele>253.6</ele>
        <time>2019-08-09T20:05:23Z</time>
      </trkpt>
      <trkpt lat="47.85102" lon="7.22166">
        <ele>253.5</ele>
        <time>2019-08-09T20:05:24Z</time>
      </trkpt>
      <trkpt lat="47.851" lon="7.22171">
        <ele>253.5</ele>
        <time>2019-08-09T20:05:25Z</time>
      </trkpt>
      <trkpt lat="47.85098" lon="7.22175">
        <ele>253.5</ele>
        <time>2019-08-09T20:05:26Z</time>
      </trkpt>
      <trkpt lat="47.85096" lon="7.22179">
        <ele>253.4</ele>
        <time>2019-08-09T20:05:27Z</time>
      </trkpt>
      <trkpt lat="47.85094" lon="7.22184">
        <ele>253.3</ele>
        <time>2019-08-09T20:05:28Z</time>
      </trkpt>
      <trkpt lat="47.85092" lon="7.22189">
        <ele>253.3</ele>
        <time>2019-08-09T20:05:29Z</time>
      </trkpt>
      <trkpt lat="47.85089" lon="7.22194">
        <ele>253.3</ele>
        <time>2019-08-09T20:05:30Z</time>
      </trkpt>
      <trkpt lat="47.85087" lon="7.22198">
        <ele>253.3</ele>
        <time>2019-08-09T20:05:31Z</time>
      </trkpt>
      <trkpt lat="47.85085" lon="7.22204">
        <ele>253.1</ele>
        <time>2019-08-09T20:05:32Z</time>
      </trkpt>
      <trkpt lat="47.85083" lon="7.2221">
        <ele>253</ele>
        <time>2019-08-09T20:05:33Z</time>
      </trkpt>
      <trkpt lat="47.8508" lon="7.22216">
        <ele>252.9</ele>
        <time>2019-08-09T20:05:34Z</time>
      </trkpt>
      <trkpt lat="47.85078" lon="7.22221">
        <ele>252.8</ele>
        <time>2019-08-09T20:05:35Z</time>
      </trkpt>
      <trkpt lat="47.85075" lon="7.22225">
        <ele>252.7</ele>
        <time>2019-08-09T20:05:36Z</time>
      </trkpt>
      <trkpt lat="47.85072" lon="7.2223">
        <ele>252.6</ele>
        <time>2019-08-09T20:05:37Z</time>
      </trkpt>
      <trkpt lat="47.85069" lon="7.22235">
        <ele>252.5</ele>
        <time>2019-08-09T20:05:38Z</time>
      </trkpt>
      <trkpt lat="47.85067" lon="7.2224">
        <ele>252.4</ele>
        <time>2019-08-09T20:05:39Z</time>
      </trkpt>
      <trkpt lat="47.85064" lon="7.22247">
        <ele>252.4</ele>
        <time>2019-08-09T20:05:40Z</time>
      </trkpt>
      <trkpt lat="47.85061" lon="7.22253">
        <ele>252.3</ele>
        <time>2019-08-09T20:05:41Z</time>
      </trkpt>
      <trkpt lat="47.85061" lon="7.2226">
        <ele>252.2</ele>
        <time>2019-08-09T20:05:42Z</time>
      </trkpt>
      <trkpt lat="47.85058" lon="7.22266">
        <ele>252.1</ele>
        <time>2019-08-09T20:05:43Z</time>
      </trkpt>
      <trkpt lat="47.85054" lon="7.2227">
        <ele>252</ele>
        <time>2019-08-09T20:05:45Z</time>
      </trkpt>
      <trkpt lat="47.8505" lon="7.22265">
        <ele>252.2</ele>
        <time>2019-08-09T20:05:47Z</time>
      </trkpt>
      <trkpt lat="47.85048" lon="7.22262">
        <ele>252.3</ele>
        <time>2019-08-09T20:05:48Z</time>
      </trkpt>
      <trkpt lat="47.85045" lon="7.22259">
        <ele>252.4</ele>
        <time>2019-08-09T20:05:49Z</time>
      </trkpt>
      <trkpt lat="47.85042" lon="7.22257">
        <ele>252.4</ele>
        <time>2019-08-09T20:05:50Z</time>
      </trkpt>
      <trkpt lat="47.8504" lon="7.22254">
        <ele>252.5</ele>
        <time>2019-08-09T20:05:51Z</time>
      </trkpt>
      <trkpt lat="47.85036" lon="7.22251">
        <ele>252.5</ele>
        <time>2019-08-09T20:05:52Z</time>
      </trkpt>
      <trkpt lat="47.85033" lon="7.22248">
        <ele>252.6</ele>
        <time>2019-08-09T20:05:53Z</time>
      </trkpt>
      <trkpt lat="47.8503" lon="7.22245">
        <ele>252.6</ele>
        <time>2019-08-09T20:05:54Z</time>
      </trkpt>
      <trkpt lat="47.85027" lon="7.22241">
        <ele>252.7</ele>
        <time>2019-08-09T20:05:55Z</time>
      </trkpt>
      <trkpt lat="47.85024" lon="7.22238">
        <ele>252.7</ele>
        <time>2019-08-09T20:05:56Z</time>
      </trkpt>
      <trkpt lat="47.85021" lon="7.22234">
        <ele>252.8</ele>
        <time>2019-08-09T20:05:57Z</time>
      </trkpt>
      <trkpt lat="47.85018" lon="7.22231">
        <ele>252.8</ele>
        <time>2019-08-09T20:05:58Z</time>
      </trkpt>
      <trkpt lat="47.85015" lon="7.22228">
        <ele>252.9</ele>
        <time>2019-08-09T20:05:59Z</time>
      </trkpt>
      <trkpt lat="47.85011" lon="7.22225">
        <ele>252.9</ele>
        <time>2019-08-09T20:06:00Z</time>
      </trkpt>
      <trkpt lat="47.85008" lon="7.22221">
        <ele>253</ele>
        <time>2019-08-09T20:06:01Z</time>
      </trkpt>
      <trkpt lat="47.85005" lon="7.22218">
        <ele>253</ele>
        <time>2019-08-09T20:06:02Z</time>
      </trkpt>
      <trkpt lat="47.84999" lon="7.22213">
        <ele>253.1</ele>
        <time>2019-08-09T20:06:04Z</time>
      </trkpt>
      <trkpt lat="47.84996" lon="7.2221">
        <ele>253.1</ele>
        <time>2019-08-09T20:06:05Z</time>
      </trkpt>
      <trkpt lat="47.84994" lon="7.22207">
        <ele>253.1</ele>
        <time>2019-08-09T20:06:06Z</time>
      </trkpt>
      <trkpt lat="47.84991" lon="7.22203">
        <ele>253.1</ele>
        <time>2019-08-09T20:06:07Z</time>
      </trkpt>
      <trkpt lat="47.84989" lon="7.222">
        <ele>253.2</ele>
        <time>2019-08-09T20:06:08Z</time>
      </trkpt>
      <trkpt lat="47.84985" lon="7.22197">
        <ele>253.1</ele>
        <time>2019-08-09T20:06:10Z</time>
      </trkpt>
      <trkpt lat="47.84981" lon="7.22195">
        <ele>253.1</ele>
        <time>2019-08-09T20:06:11Z</time>
      </trkpt>
      <trkpt lat="47.84977" lon="7.22195">
        <ele>253</ele>
        <time>2019-08-09T20:06:12Z</time>
      </trkpt>
      <trkpt lat="47.84974" lon="7.22194">
        <ele>253</ele>
        <time>2019-08-09T20:06:13Z</time>
      </trkpt>
      <trkpt lat="47.8497" lon="7.22191">
        <ele>253</ele>
        <time>2019-08-09T20:06:14Z</time>
      </trkpt>
      <trkpt lat="47.84967" lon="7.22189">
        <ele>253</ele>
        <time>2019-08-09T20:06:15Z</time>
      </trkpt>
      <trkpt lat="47.84962" lon="7.22188">
        <ele>253.1</ele>
        <time>2019-08-09T20:06:16Z</time>
      </trkpt>
      <trkpt lat="47.84959" lon="7.22186">
        <ele>253.1</ele>
        <time>2019-08-09T20:06:17Z</time>
      </trkpt>
      <trkpt lat="47.84955" lon="7.22184">
        <ele>253.2</ele>
        <time>2019-08-09T20:06:18Z</time>
      </trkpt>
      <trkpt lat="47.84952" lon="7.22182">
        <ele>253.4</ele>
        <time>2019-08-09T20:06:19Z</time>
      </trkpt>
      <trkpt lat="47.84948" lon="7.22179">
        <ele>253.5</ele>
        <time>2019-08-09T20:06:20Z</time>
      </trkpt>
      <trkpt lat="47.84944" lon="7.22176">
        <ele>253.6</ele>
        <time>2019-08-09T20:06:21Z</time>
      </trkpt>
      <trkpt lat="47.84941" lon="7.22173">
        <ele>253.7</ele>
        <time>2019-08-09T20:06:22Z</time>
      </trkpt>
      <trkpt lat="47.84937" lon="7.2217">
        <ele>253.7</ele>
        <time>2019-08-09T20:06:23Z</time>
      </trkpt>
      <trkpt lat="47.84933" lon="7.22167">
        <ele>253.8</ele>
        <time>2019-08-09T20:06:24Z</time>
      </trkpt>
      <trkpt lat="47.84929" lon="7.22165">
        <ele>253.8</ele>
        <time>2019-08-09T20:06:25Z</time>
      </trkpt>
      <trkpt lat="47.84925" lon="7.22163">
        <ele>253.9</ele>
        <time>2019-08-09T20:06:26Z</time>
      </trkpt>
      <trkpt lat="47.84921" lon="7.22161">
        <ele>253.9</ele>
        <time>2019-08-09T20:06:27Z</time>
      </trkpt>
      <trkpt lat="47.84918" lon="7.22158">
        <ele>253.9</ele>
        <time>2019-08-09T20:06:28Z</time>
      </trkpt>
      <trkpt lat="47.84915" lon="7.22154">
        <ele>254</ele>
        <time>2019-08-09T20:06:29Z</time>
      </trkpt>
      <trkpt lat="47.84912" lon="7.22151">
        <ele>254</ele>
        <time>2019-08-09T20:06:30Z</time>
      </trkpt>
      <trkpt lat="47.84908" lon="7.22149">
        <ele>254</ele>
        <time>2019-08-09T20:06:31Z</time>
      </trkpt>
      <trkpt lat="47.84906" lon="7.22146">
        <ele>254</ele>
        <time>2019-08-09T20:06:32Z</time>
      </trkpt>
      <trkpt lat="47.84903" lon="7.22143">
        <ele>254</ele>
        <time>2019-08-09T20:06:33Z</time>
      </trkpt>
      <trkpt lat="47.849" lon="7.2214">
        <ele>254.1</ele>
        <time>2019-08-09T20:06:34Z</time>
      </trkpt>
      <trkpt lat="47.84897" lon="7.22138">
        <ele>254.1</ele>
        <time>2019-08-09T20:06:35Z</time>
      </trkpt>
      <trkpt lat="47.84894" lon="7.22135">
        <ele>254.1</ele>
        <time>2019-08-09T20:06:36Z</time>
      </trkpt>
      <trkpt lat="47.84891" lon="7.22132">
        <ele>254.1</ele>
        <time>2019-08-09T20:06:37Z</time>
      </trkpt>
      <trkpt lat="47.84888" lon="7.22128">
        <ele>254.1</ele>
        <time>2019-08-09T20:06:38Z</time>
      </trkpt>
      <trkpt lat="47.84885" lon="7.22125">
        <ele>254.2</ele>
        <time>2019-08-09T20:06:39Z</time>
      </trkpt>
      <trkpt lat="47.84882" lon="7.22122">
        <ele>254.2</ele>
        <time>2019-08-09T20:06:40Z</time>
      </trkpt>
      <trkpt lat="47.84879" lon="7.22119">
        <ele>254.2</ele>
        <time>2019-08-09T20:06:41Z</time>
      </trkpt>
      <trkpt lat="47.84876" lon="7.22115">
        <ele>254.3</ele>
        <time>2019-08-09T20:06:42Z</time>
      </trkpt>
      <trkpt lat="47.84873" lon="7.22112">
        <ele>254.3</ele>
        <time>2019-08-09T20:06:43Z</time>
      </trkpt>
      <trkpt lat="47.84871" lon="7.22109">
        <ele>254.3</ele>
        <time>2019-08-09T20:06:44Z</time>
      </trkpt>
      <trkpt lat="47.84868" lon="7.22108">
        <ele>254.3</ele>
        <time>2019-08-09T20:06:45Z</time>
      </trkpt>
      <trkpt lat="47.84864" lon="7.22109">
        <ele>254.3</ele>
        <time>2019-08-09T20:06:46Z</time>
      </trkpt>
      <trkpt lat="47.84861" lon="7.22113">
        <ele>254.3</ele>
        <time>2019-08-09T20:06:47Z</time>
      </trkpt>
      <trkpt lat="47.84858" lon="7.22117">
        <ele>254.3</ele>
        <time>2019-08-09T20:06:48Z</time>
      </trkpt>
      <trkpt lat="47.84856" lon="7.22121">
        <ele>254.3</ele>
        <time>2019-08-09T20:06:49Z</time>
      </trkpt>
      <trkpt lat="47.84854" lon="7.22125">
        <ele>254.3</ele>
        <time>2019-08-09T20:06:50Z</time>
      </trkpt>
      <trkpt lat="47.84852" lon="7.22129">
        <ele>254.3</ele>
        <time>2019-08-09T20:06:51Z</time>
      </trkpt>
      <trkpt lat="47.8485" lon="7.22132">
        <ele>254.3</ele>
        <time>2019-08-09T20:06:52Z</time>
      </trkpt>
      <trkpt lat="47.84847" lon="7.22136">
        <ele>254.3</ele>
        <time>2019-08-09T20:06:53Z</time>
      </trkpt>
      <trkpt lat="47.84845" lon="7.22139">
        <ele>254.3</ele>
        <time>2019-08-09T20:06:54Z</time>
      </trkpt>
      <trkpt lat="47.84842" lon="7.22143">
        <ele>254.3</ele>
        <time>2019-08-09T20:06:55Z</time>
      </trkpt>
      <trkpt lat="47.84838" lon="7.22146">
        <ele>254.3</ele>
        <time>2019-08-09T20:06:56Z</time>
      </trkpt>
      <trkpt lat="47.84835" lon="7.22148">
        <ele>254.3</ele>
        <time>2019-08-09T20:06:57Z</time>
      </trkpt>
      <trkpt lat="47.84831" lon="7.22151">
        <ele>254.3</ele>
        <time>2019-08-09T20:06:58Z</time>
      </trkpt>
      <trkpt lat="47.84828" lon="7.22153">
        <ele>254.3</ele>
        <time>2019-08-09T20:06:59Z</time>
      </trkpt>
      <trkpt lat="47.84825" lon="7.22157">
        <ele>254.3</ele>
        <time>2019-08-09T20:07:00Z</time>
      </trkpt>
      <trkpt lat="47.84823" lon="7.2216">
        <ele>254.3</ele>
        <time>2019-08-09T20:07:01Z</time>
      </trkpt>
      <trkpt lat="47.8482" lon="7.22164">
        <ele>254.3</ele>
        <time>2019-08-09T20:07:02Z</time>
      </trkpt>
      <trkpt lat="47.84818" lon="7.22168">
        <ele>254.3</ele>
        <time>2019-08-09T20:07:03Z</time>
      </trkpt>
      <trkpt lat="47.84815" lon="7.22172">
        <ele>254.3</ele>
        <time>2019-08-09T20:07:04Z</time>
      </trkpt>
      <trkpt lat="47.84812" lon="7.22176">
        <ele>254.3</ele>
        <time>2019-08-09T20:07:05Z</time>
      </trkpt>
      <trkpt lat="47.84808" lon="7.2218">
        <ele>254.3</ele>
        <time>2019-08-09T20:07:07Z</time>
      </trkpt>
      <trkpt lat="47.84803" lon="7.22184">
        <ele>254.3</ele>
        <time>2019-08-09T20:07:09Z</time>
      </trkpt>
      <trkpt lat="47.84797" lon="7.22188">
        <ele>254.3</ele>
        <time>2019-08-09T20:07:11Z</time>
      </trkpt>
      <trkpt lat="47.84794" lon="7.22189">
        <ele>254.3</ele>
        <time>2019-08-09T20:07:12Z</time>
      </trkpt>
      <trkpt lat="47.84791" lon="7.2219">
        <ele>254.3</ele>
        <time>2019-08-09T20:07:13Z</time>
      </trkpt>
      <trkpt lat="47.84788" lon="7.2219">
        <ele>254.3</ele>
        <time>2019-08-09T20:07:14Z</time>
      </trkpt>
      <trkpt lat="47.84785" lon="7.2219">
        <ele>254.3</ele>
        <time>2019-08-09T20:07:15Z</time>
      </trkpt>
      <trkpt lat="47.84782" lon="7.22187">
        <ele>254.3</ele>
        <time>2019-08-09T20:07:16Z</time>
      </trkpt>
      <trkpt lat="47.84778" lon="7.22183">
        <ele>254.3</ele>
        <time>2019-08-09T20:07:18Z</time>
      </trkpt>
      <trkpt lat="47.84775" lon="7.22176">
        <ele>254.3</ele>
        <time>2019-08-09T20:07:20Z</time>
      </trkpt>
      <trkpt lat="47.84773" lon="7.22173">
        <ele>254.3</ele>
        <time>2019-08-09T20:07:21Z</time>
      </trkpt>
      <trkpt lat="47.8477" lon="7.22167">
        <ele>254.3</ele>
        <time>2019-08-09T20:07:23Z</time>
      </trkpt>
      <trkpt lat="47.84766" lon="7.22163">
        <ele>254.2</ele>
        <time>2019-08-09T20:07:25Z</time>
      </trkpt>
      <trkpt lat="47.84762" lon="7.22159">
        <ele>254.2</ele>
        <time>2019-08-09T20:07:27Z</time>
      </trkpt>
      <trkpt lat="47.84757" lon="7.22156">
        <ele>254.1</ele>
        <time>2019-08-09T20:07:29Z</time>
      </trkpt>
      <trkpt lat="47.84754" lon="7.22153">
        <ele>254</ele>
        <time>2019-08-09T20:07:31Z</time>
      </trkpt>
      <trkpt lat="47.8475" lon="7.22149">
        <ele>253.9</ele>
        <time>2019-08-09T20:07:33Z</time>
      </trkpt>
      <trkpt lat="47.84747" lon="7.22145">
        <ele>253.7</ele>
        <time>2019-08-09T20:07:35Z</time>
      </trkpt>
      <trkpt lat="47.84743" lon="7.22144">
        <ele>253.5</ele>
        <time>2019-08-09T20:07:48Z</time>
      </trkpt>
      <trkpt lat="47.8474" lon="7.22144">
        <ele>253.3</ele>
        <time>2019-08-09T20:07:49Z</time>
      </trkpt>
      <trkpt lat="47.84736" lon="7.22147">
        <ele>253</ele>
        <time>2019-08-09T20:07:50Z</time>
      </trkpt>
      <trkpt lat="47.84733" lon="7.22148">
        <ele>253</ele>
        <time>2019-08-09T20:07:51Z</time>
      </trkpt>
      <trkpt lat="47.84729" lon="7.22147">
        <ele>253</ele>
        <time>2019-08-09T20:07:52Z</time>
      </trkpt>
      <trkpt lat="47.84726" lon="7.22148">
        <ele>253.1</ele>
        <time>2019-08-09T20:07:53Z</time>
      </trkpt>
      <trkpt lat="47.84722" lon="7.22147">
        <ele>253.1</ele>
        <time>2019-08-09T20:07:54Z</time>
      </trkpt>
      <trkpt lat="47.84719" lon="7.22147">
        <ele>253.1</ele>
        <time>2019-08-09T20:07:55Z</time>
      </trkpt>
      <trkpt lat="47.84715" lon="7.22146">
        <ele>253</ele>
        <time>2019-08-09T20:07:56Z</time>
      </trkpt>
      <trkpt lat="47.84711" lon="7.22146">
        <ele>253</ele>
        <time>2019-08-09T20:07:57Z</time>
      </trkpt>
      <trkpt lat="47.84707" lon="7.22145">
        <ele>253</ele>
        <time>2019-08-09T20:07:58Z</time>
      </trkpt>
      <trkpt lat="47.84703" lon="7.22143">
        <ele>252.9</ele>
        <time>2019-08-09T20:07:59Z</time>
      </trkpt>
      <trkpt lat="47.847" lon="7.22141">
        <ele>252.8</ele>
        <time>2019-08-09T20:08:00Z</time>
      </trkpt>
      <trkpt lat="47.84696" lon="7.22139">
        <ele>252.8</ele>
        <time>2019-08-09T20:08:01Z</time>
      </trkpt>
      <trkpt lat="47.84692" lon="7.22137">
        <ele>252.7</ele>
        <time>2019-08-09T20:08:02Z</time>
      </trkpt>
      <trkpt lat="47.84688" lon="7.22135">
        <ele>252.6</ele>
        <time>2019-08-09T20:08:03Z</time>
      </trkpt>
      <trkpt lat="47.84685" lon="7.22132">
        <ele>252.5</ele>
        <time>2019-08-09T20:08:04Z</time>
      </trkpt>
      <trkpt lat="47.84681" lon="7.22131">
        <ele>252.5</ele>
        <time>2019-08-09T20:08:05Z</time>
      </trkpt>
      <trkpt lat="47.84678" lon="7.22128">
        <ele>252.5</ele>
        <time>2019-08-09T20:08:06Z</time>
      </trkpt>
      <trkpt lat="47.84674" lon="7.22127">
        <ele>252.5</ele>
        <time>2019-08-09T20:08:07Z</time>
      </trkpt>
      <trkpt lat="47.84671" lon="7.22124">
        <ele>252.5</ele>
        <time>2019-08-09T20:08:08Z</time>
      </trkpt>
      <trkpt lat="47.84667" lon="7.22122">
        <ele>252.5</ele>
        <time>2019-08-09T20:08:09Z</time>
      </trkpt>
      <trkpt lat="47.84663" lon="7.2212">
        <ele>252.5</ele>
        <time>2019-08-09T20:08:10Z</time>
      </trkpt>
      <trkpt lat="47.84659" lon="7.22117">
        <ele>252.5</ele>
        <time>2019-08-09T20:08:11Z</time>
      </trkpt>
      <trkpt lat="47.84655" lon="7.22116">
        <ele>252.5</ele>
        <time>2019-08-09T20:08:12Z</time>
      </trkpt>
      <trkpt lat="47.84652" lon="7.22112">
        <ele>252.4</ele>
        <time>2019-08-09T20:08:13Z</time>
      </trkpt>
      <trkpt lat="47.84648" lon="7.2211">
        <ele>252.4</ele>
        <time>2019-08-09T20:08:14Z</time>
      </trkpt>
      <trkpt lat="47.84645" lon="7.22108">
        <ele>252.4</ele>
        <time>2019-08-09T20:08:15Z</time>
      </trkpt>
      <trkpt lat="47.84641" lon="7.22106">
        <ele>252.3</ele>
        <time>2019-08-09T20:08:16Z</time>
      </trkpt>
      <trkpt lat="47.84637" lon="7.22104">
        <ele>252.3</ele>
        <time>2019-08-09T20:08:17Z</time>
      </trkpt>
      <trkpt lat="47.84634" lon="7.22103">
        <ele>252.3</ele>
        <time>2019-08-09T20:08:18Z</time>
      </trkpt>
      <trkpt lat="47.84631" lon="7.221">
        <ele>252.3</ele>
        <time>2019-08-09T20:08:19Z</time>
      </trkpt>
      <trkpt lat="47.84628" lon="7.22098">
        <ele>252.3</ele>
        <time>2019-08-09T20:08:20Z</time>
      </trkpt>
      <trkpt lat="47.84624" lon="7.22096">
        <ele>252.3</ele>
        <time>2019-08-09T20:08:21Z</time>
      </trkpt>
      <trkpt lat="47.8462" lon="7.22094">
        <ele>252.3</ele>
        <time>2019-08-09T20:08:22Z</time>
      </trkpt>
      <trkpt lat="47.84616" lon="7.22092">
        <ele>252.3</ele>
        <time>2019-08-09T20:08:23Z</time>
      </trkpt>
      <trkpt lat="47.84612" lon="7.2209">
        <ele>252.3</ele>
        <time>2019-08-09T20:08:24Z</time>
      </trkpt>
      <trkpt lat="47.84608" lon="7.22088">
        <ele>252.4</ele>
        <time>2019-08-09T20:08:25Z</time>
      </trkpt>
      <trkpt lat="47.84605" lon="7.22086">
        <ele>252.4</ele>
        <time>2019-08-09T20:08:26Z</time>
      </trkpt>
      <trkpt lat="47.84601" lon="7.22085">
        <ele>252.4</ele>
        <time>2019-08-09T20:08:27Z</time>
      </trkpt>
      <trkpt lat="47.84597" lon="7.22084">
        <ele>252.5</ele>
        <time>2019-08-09T20:08:28Z</time>
      </trkpt>
      <trkpt lat="47.84593" lon="7.22082">
        <ele>252.5</ele>
        <time>2019-08-09T20:08:29Z</time>
      </trkpt>
      <trkpt lat="47.84589" lon="7.2208">
        <ele>252.5</ele>
        <time>2019-08-09T20:08:30Z</time>
      </trkpt>
      <trkpt lat="47.84585" lon="7.22078">
        <ele>252.6</ele>
        <time>2019-08-09T20:08:31Z</time>
      </trkpt>
      <trkpt lat="47.84581" lon="7.22076">
        <ele>252.6</ele>
        <time>2019-08-09T20:08:32Z</time>
      </trkpt>
      <trkpt lat="47.84578" lon="7.22075">
        <ele>252.6</ele>
        <time>2019-08-09T20:08:33Z</time>
      </trkpt>
      <trkpt lat="47.84574" lon="7.22074">
        <ele>252.7</ele>
        <time>2019-08-09T20:08:34Z</time>
      </trkpt>
      <trkpt lat="47.84571" lon="7.22072">
        <ele>252.7</ele>
        <time>2019-08-09T20:08:35Z</time>
      </trkpt>
      <trkpt lat="47.84567" lon="7.2207">
        <ele>252.7</ele>
        <time>2019-08-09T20:08:36Z</time>
      </trkpt>
      <trkpt lat="47.84563" lon="7.22069">
        <ele>252.7</ele>
        <time>2019-08-09T20:08:37Z</time>
      </trkpt>
      <trkpt lat="47.8456" lon="7.22068">
        <ele>252.7</ele>
        <time>2019-08-09T20:08:38Z</time>
      </trkpt>
      <trkpt lat="47.84556" lon="7.22067">
        <ele>252.7</ele>
        <time>2019-08-09T20:08:39Z</time>
      </trkpt>
      <trkpt lat="47.84553" lon="7.22065">
        <ele>252.8</ele>
        <time>2019-08-09T20:08:40Z</time>
      </trkpt>
      <trkpt lat="47.84549" lon="7.22064">
        <ele>252.8</ele>
        <time>2019-08-09T20:08:41Z</time>
      </trkpt>
      <trkpt lat="47.84545" lon="7.22062">
        <ele>252.8</ele>
        <time>2019-08-09T20:08:42Z</time>
      </trkpt>
      <trkpt lat="47.84541" lon="7.22061">
        <ele>252.9</ele>
        <time>2019-08-09T20:08:43Z</time>
      </trkpt>
      <trkpt lat="47.84538" lon="7.22058">
        <ele>252.8</ele>
        <time>2019-08-09T20:08:44Z</time>
      </trkpt>
      <trkpt lat="47.84534" lon="7.22056">
        <ele>252.8</ele>
        <time>2019-08-09T20:08:45Z</time>
      </trkpt>
      <trkpt lat="47.84531" lon="7.22054">
        <ele>252.8</ele>
        <time>2019-08-09T20:08:46Z</time>
      </trkpt>
      <trkpt lat="47.84527" lon="7.22051">
        <ele>252.7</ele>
        <time>2019-08-09T20:08:47Z</time>
      </trkpt>
      <trkpt lat="47.84524" lon="7.2205">
        <ele>252.7</ele>
        <time>2019-08-09T20:08:48Z</time>
      </trkpt>
      <trkpt lat="47.8452" lon="7.22047">
        <ele>252.7</ele>
        <time>2019-08-09T20:08:49Z</time>
      </trkpt>
      <trkpt lat="47.84517" lon="7.22045">
        <ele>252.6</ele>
        <time>2019-08-09T20:08:50Z</time>
      </trkpt>
      <trkpt lat="47.84513" lon="7.22044">
        <ele>252.6</ele>
        <time>2019-08-09T20:08:51Z</time>
      </trkpt>
      <trkpt lat="47.8451" lon="7.22043">
        <ele>252.6</ele>
        <time>2019-08-09T20:08:52Z</time>
      </trkpt>
      <trkpt lat="47.84506" lon="7.22041">
        <ele>252.5</ele>
        <time>2019-08-09T20:08:53Z</time>
      </trkpt>
      <trkpt lat="47.84502" lon="7.2204">
        <ele>252.5</ele>
        <time>2019-08-09T20:08:54Z</time>
      </trkpt>
      <trkpt lat="47.84498" lon="7.22039">
        <ele>252.5</ele>
        <time>2019-08-09T20:08:55Z</time>
      </trkpt>
      <trkpt lat="47.84494" lon="7.22037">
        <ele>252.5</ele>
        <time>2019-08-09T20:08:56Z</time>
      </trkpt>
      <trkpt lat="47.8449" lon="7.22035">
        <ele>252.6</ele>
        <time>2019-08-09T20:08:57Z</time>
      </trkpt>
      <trkpt lat="47.84486" lon="7.22034">
        <ele>252.6</ele>
        <time>2019-08-09T20:08:58Z</time>
      </trkpt>
      <trkpt lat="47.8448" lon="7.22033">
        <ele>252.6</ele>
        <time>2019-08-09T20:08:59Z</time>
      </trkpt>
      <trkpt lat="47.84476" lon="7.22032">
        <ele>252.6</ele>
        <time>2019-08-09T20:09:00Z</time>
      </trkpt>
      <trkpt lat="47.84472" lon="7.2203">
        <ele>252.6</ele>
        <time>2019-08-09T20:09:01Z</time>
      </trkpt>
      <trkpt lat="47.84467" lon="7.2203">
        <ele>252.6</ele>
        <time>2019-08-09T20:09:02Z</time>
      </trkpt>
      <trkpt lat="47.84463" lon="7.22028">
        <ele>252.6</ele>
        <time>2019-08-09T20:09:03Z</time>
      </trkpt>
      <trkpt lat="47.84459" lon="7.22026">
        <ele>252.6</ele>
        <time>2019-08-09T20:09:04Z</time>
      </trkpt>
      <trkpt lat="47.84455" lon="7.22024">
        <ele>252.6</ele>
        <time>2019-08-09T20:09:05Z</time>
      </trkpt>
      <trkpt lat="47.84451" lon="7.22023">
        <ele>252.6</ele>
        <time>2019-08-09T20:09:06Z</time>
      </trkpt>
      <trkpt lat="47.84447" lon="7.22021">
        <ele>252.6</ele>
        <time>2019-08-09T20:09:07Z</time>
      </trkpt>
      <trkpt lat="47.84443" lon="7.2202">
        <ele>252.6</ele>
        <time>2019-08-09T20:09:08Z</time>
      </trkpt>
      <trkpt lat="47.8444" lon="7.2202">
        <ele>252.6</ele>
        <time>2019-08-09T20:09:09Z</time>
      </trkpt>
      <trkpt lat="47.84436" lon="7.2202">
        <ele>252.6</ele>
        <time>2019-08-09T20:09:10Z</time>
      </trkpt>
      <trkpt lat="47.84432" lon="7.22019">
        <ele>252.6</ele>
        <time>2019-08-09T20:09:11Z</time>
      </trkpt>
      <trkpt lat="47.84429" lon="7.22019">
        <ele>252.6</ele>
        <time>2019-08-09T20:09:12Z</time>
      </trkpt>
      <trkpt lat="47.84426" lon="7.22018">
        <ele>252.6</ele>
        <time>2019-08-09T20:09:13Z</time>
      </trkpt>
      <trkpt lat="47.84422" lon="7.22018">
        <ele>252.6</ele>
        <time>2019-08-09T20:09:14Z</time>
      </trkpt>
      <trkpt lat="47.84418" lon="7.22018">
        <ele>252.5</ele>
        <time>2019-08-09T20:09:15Z</time>
      </trkpt>
      <trkpt lat="47.84415" lon="7.22018">
        <ele>252.5</ele>
        <time>2019-08-09T20:09:16Z</time>
      </trkpt>
      <trkpt lat="47.84411" lon="7.22017">
        <ele>252.5</ele>
        <time>2019-08-09T20:09:17Z</time>
      </trkpt>
      <trkpt lat="47.84406" lon="7.22016">
        <ele>252.5</ele>
        <time>2019-08-09T20:09:18Z</time>
      </trkpt>
      <trkpt lat="47.84402" lon="7.22015">
        <ele>252.4</ele>
        <time>2019-08-09T20:09:19Z</time>
      </trkpt>
      <trkpt lat="47.84397" lon="7.22014">
        <ele>252.4</ele>
        <time>2019-08-09T20:09:20Z</time>
      </trkpt>
      <trkpt lat="47.84393" lon="7.22012">
        <ele>252.4</ele>
        <time>2019-08-09T20:09:21Z</time>
      </trkpt>
      <trkpt lat="47.84387" lon="7.22013">
        <ele>252.3</ele>
        <time>2019-08-09T20:09:22Z</time>
      </trkpt>
      <trkpt lat="47.84383" lon="7.22012">
        <ele>252.3</ele>
        <time>2019-08-09T20:09:23Z</time>
      </trkpt>
      <trkpt lat="47.84379" lon="7.22013">
        <ele>252.2</ele>
        <time>2019-08-09T20:09:24Z</time>
      </trkpt>
      <trkpt lat="47.84376" lon="7.22014">
        <ele>252.2</ele>
        <time>2019-08-09T20:09:25Z</time>
      </trkpt>
      <trkpt lat="47.84373" lon="7.22015">
        <ele>252.1</ele>
        <time>2019-08-09T20:09:26Z</time>
      </trkpt>
      <trkpt lat="47.8437" lon="7.22016">
        <ele>252.1</ele>
        <time>2019-08-09T20:09:27Z</time>
      </trkpt>
      <trkpt lat="47.84367" lon="7.22018">
        <ele>252.1</ele>
        <time>2019-08-09T20:09:28Z</time>
      </trkpt>
      <trkpt lat="47.84363" lon="7.22019">
        <ele>252</ele>
        <time>2019-08-09T20:09:29Z</time>
      </trkpt>
      <trkpt lat="47.8436" lon="7.22021">
        <ele>252</ele>
        <time>2019-08-09T20:09:30Z</time>
      </trkpt>
      <trkpt lat="47.84357" lon="7.22024">
        <ele>252</ele>
        <time>2019-08-09T20:09:31Z</time>
      </trkpt>
      <trkpt lat="47.84354" lon="7.22025">
        <ele>251.9</ele>
        <time>2019-08-09T20:09:32Z</time>
      </trkpt>
      <trkpt lat="47.84351" lon="7.22025">
        <ele>251.9</ele>
        <time>2019-08-09T20:09:33Z</time>
      </trkpt>
      <trkpt lat="47.84348" lon="7.22025">
        <ele>251.9</ele>
        <time>2019-08-09T20:09:34Z</time>
      </trkpt>
      <trkpt lat="47.84345" lon="7.22025">
        <ele>251.9</ele>
        <time>2019-08-09T20:09:35Z</time>
      </trkpt>
      <trkpt lat="47.84341" lon="7.22025">
        <ele>251.9</ele>
        <time>2019-08-09T20:09:36Z</time>
      </trkpt>
      <trkpt lat="47.84338" lon="7.22025">
        <ele>251.9</ele>
        <time>2019-08-09T20:09:37Z</time>
      </trkpt>
      <trkpt lat="47.84336" lon="7.22025">
        <ele>251.9</ele>
        <time>2019-08-09T20:09:38Z</time>
      </trkpt>
      <trkpt lat="47.84332" lon="7.22023">
        <ele>251.8</ele>
        <time>2019-08-09T20:09:39Z</time>
      </trkpt>
      <trkpt lat="47.84329" lon="7.22023">
        <ele>251.8</ele>
        <time>2019-08-09T20:09:40Z</time>
      </trkpt>
      <trkpt lat="47.84327" lon="7.22021">
        <ele>251.8</ele>
        <time>2019-08-09T20:09:41Z</time>
      </trkpt>
      <trkpt lat="47.84324" lon="7.22017">
        <ele>251.9</ele>
        <time>2019-08-09T20:09:42Z</time>
      </trkpt>
      <trkpt lat="47.84322" lon="7.22012">
        <ele>251.9</ele>
        <time>2019-08-09T20:09:43Z</time>
      </trkpt>
      <trkpt lat="47.84319" lon="7.2201">
        <ele>251.9</ele>
        <time>2019-08-09T20:09:44Z</time>
      </trkpt>
      <trkpt lat="47.84315" lon="7.22009">
        <ele>251.9</ele>
        <time>2019-08-09T20:09:45Z</time>
      </trkpt>
      <trkpt lat="47.84311" lon="7.22008">
        <ele>251.9</ele>
        <time>2019-08-09T20:09:46Z</time>
      </trkpt>
      <trkpt lat="47.84308" lon="7.22007">
        <ele>251.9</ele>
        <time>2019-08-09T20:09:47Z</time>
      </trkpt>
      <trkpt lat="47.84304" lon="7.22006">
        <ele>251.9</ele>
        <time>2019-08-09T20:09:48Z</time>
      </trkpt>
      <trkpt lat="47.843" lon="7.22007">
        <ele>252</ele>
        <time>2019-08-09T20:09:49Z</time>
      </trkpt>
      <trkpt lat="47.84296" lon="7.22007">
        <ele>252</ele>
        <time>2019-08-09T20:09:50Z</time>
      </trkpt>
      <trkpt lat="47.84293" lon="7.22005">
        <ele>252.1</ele>
        <time>2019-08-09T20:09:51Z</time>
      </trkpt>
      <trkpt lat="47.8429" lon="7.22002">
        <ele>252.1</ele>
        <time>2019-08-09T20:09:52Z</time>
      </trkpt>
      <trkpt lat="47.84286" lon="7.22001">
        <ele>252.2</ele>
        <time>2019-08-09T20:09:53Z</time>
      </trkpt>
      <trkpt lat="47.84282" lon="7.21999">
        <ele>252.2</ele>
        <time>2019-08-09T20:09:54Z</time>
      </trkpt>
      <trkpt lat="47.84278" lon="7.21998">
        <ele>252.2</ele>
        <time>2019-08-09T20:09:55Z</time>
      </trkpt>
      <trkpt lat="47.84275" lon="7.21997">
        <ele>252.3</ele>
        <time>2019-08-09T20:09:56Z</time>
      </trkpt>
      <trkpt lat="47.84272" lon="7.21996">
        <ele>252.3</ele>
        <time>2019-08-09T20:09:57Z</time>
      </trkpt>
      <trkpt lat="47.84269" lon="7.21995">
        <ele>252.3</ele>
        <time>2019-08-09T20:09:58Z</time>
      </trkpt>
      <trkpt lat="47.84266" lon="7.21994">
        <ele>252.3</ele>
        <time>2019-08-09T20:09:59Z</time>
      </trkpt>
      <trkpt lat="47.84262" lon="7.21993">
        <ele>252.4</ele>
        <time>2019-08-09T20:10:00Z</time>
      </trkpt>
      <trkpt lat="47.84258" lon="7.21991">
        <ele>252.4</ele>
        <time>2019-08-09T20:10:01Z</time>
      </trkpt>
      <trkpt lat="47.84254" lon="7.2199">
        <ele>252.4</ele>
        <time>2019-08-09T20:10:02Z</time>
      </trkpt>
      <trkpt lat="47.8425" lon="7.21988">
        <ele>252.4</ele>
        <time>2019-08-09T20:10:03Z</time>
      </trkpt>
      <trkpt lat="47.84246" lon="7.21986">
        <ele>252.5</ele>
        <time>2019-08-09T20:10:04Z</time>
      </trkpt>
      <trkpt lat="47.84243" lon="7.21984">
        <ele>252.5</ele>
        <time>2019-08-09T20:10:05Z</time>
      </trkpt>
      <trkpt lat="47.84239" lon="7.21982">
        <ele>252.5</ele>
        <time>2019-08-09T20:10:06Z</time>
      </trkpt>
      <trkpt lat="47.84235" lon="7.2198">
        <ele>252.6</ele>
        <time>2019-08-09T20:10:07Z</time>
      </trkpt>
      <trkpt lat="47.84232" lon="7.21976">
        <ele>252.6</ele>
        <time>2019-08-09T20:10:08Z</time>
      </trkpt>
      <trkpt lat="47.8423" lon="7.21973">
        <ele>252.6</ele>
        <time>2019-08-09T20:10:09Z</time>
      </trkpt>
      <trkpt lat="47.84227" lon="7.2197">
        <ele>252.6</ele>
        <time>2019-08-09T20:10:10Z</time>
      </trkpt>
      <trkpt lat="47.84224" lon="7.21966">
        <ele>252.7</ele>
        <time>2019-08-09T20:10:11Z</time>
      </trkpt>
      <trkpt lat="47.84221" lon="7.21962">
        <ele>252.7</ele>
        <time>2019-08-09T20:10:12Z</time>
      </trkpt>
      <trkpt lat="47.84218" lon="7.21959">
        <ele>252.7</ele>
        <time>2019-08-09T20:10:13Z</time>
      </trkpt>
      <trkpt lat="47.84215" lon="7.21956">
        <ele>252.8</ele>
        <time>2019-08-09T20:10:14Z</time>
      </trkpt>
      <trkpt lat="47.84212" lon="7.21952">
        <ele>252.8</ele>
        <time>2019-08-09T20:10:15Z</time>
      </trkpt>
      <trkpt lat="47.84211" lon="7.21948">
        <ele>252.8</ele>
        <time>2019-08-09T20:10:16Z</time>
      </trkpt>
      <trkpt lat="47.84208" lon="7.21943">
        <ele>252.9</ele>
        <time>2019-08-09T20:10:17Z</time>
      </trkpt>
      <trkpt lat="47.84205" lon="7.21939">
        <ele>252.9</ele>
        <time>2019-08-09T20:10:18Z</time>
      </trkpt>
      <trkpt lat="47.84203" lon="7.21935">
        <ele>252.9</ele>
        <time>2019-08-09T20:10:19Z</time>
      </trkpt>
      <trkpt lat="47.842" lon="7.21931">
        <ele>253</ele>
        <time>2019-08-09T20:10:20Z</time>
      </trkpt>
      <trkpt lat="47.84198" lon="7.21926">
        <ele>253</ele>
        <time>2019-08-09T20:10:21Z</time>
      </trkpt>
      <trkpt lat="47.84196" lon="7.21922">
        <ele>253</ele>
        <time>2019-08-09T20:10:22Z</time>
      </trkpt>
      <trkpt lat="47.84193" lon="7.2192">
        <ele>253.1</ele>
        <time>2019-08-09T20:10:23Z</time>
      </trkpt>
      <trkpt lat="47.84191" lon="7.21916">
        <ele>253.1</ele>
        <time>2019-08-09T20:10:24Z</time>
      </trkpt>
      <trkpt lat="47.84189" lon="7.21912">
        <ele>253.1</ele>
        <time>2019-08-09T20:10:25Z</time>
      </trkpt>
      <trkpt lat="47.84187" lon="7.21909">
        <ele>253.1</ele>
        <time>2019-08-09T20:10:26Z</time>
      </trkpt>
      <trkpt lat="47.84184" lon="7.21904">
        <ele>253.2</ele>
        <time>2019-08-09T20:10:27Z</time>
      </trkpt>
      <trkpt lat="47.84181" lon="7.219">
        <ele>253.2</ele>
        <time>2019-08-09T20:10:28Z</time>
      </trkpt>
      <trkpt lat="47.84179" lon="7.21896">
        <ele>253.2</ele>
        <time>2019-08-09T20:10:29Z</time>
      </trkpt>
      <trkpt lat="47.84176" lon="7.21892">
        <ele>253.3</ele>
        <time>2019-08-09T20:10:30Z</time>
      </trkpt>
      <trkpt lat="47.84173" lon="7.21888">
        <ele>253.3</ele>
        <time>2019-08-09T20:10:31Z</time>
      </trkpt>
      <trkpt lat="47.84171" lon="7.21884">
        <ele>253.4</ele>
        <time>2019-08-09T20:10:32Z</time>
      </trkpt>
      <trkpt lat="47.84168" lon="7.21879">
        <ele>253.4</ele>
        <time>2019-08-09T20:10:33Z</time>
      </trkpt>
      <trkpt lat="47.84164" lon="7.21875">
        <ele>253.4</ele>
        <time>2019-08-09T20:10:34Z</time>
      </trkpt>
      <trkpt lat="47.84161" lon="7.21871">
        <ele>253.5</ele>
        <time>2019-08-09T20:10:35Z</time>
      </trkpt>
      <trkpt lat="47.84159" lon="7.21866">
        <ele>253.5</ele>
        <time>2019-08-09T20:10:36Z</time>
      </trkpt>
      <trkpt lat="47.84155" lon="7.21862">
        <ele>253.5</ele>
        <time>2019-08-09T20:10:37Z</time>
      </trkpt>
      <trkpt lat="47.84153" lon="7.21858">
        <ele>253.6</ele>
        <time>2019-08-09T20:10:38Z</time>
      </trkpt>
      <trkpt lat="47.8415" lon="7.21854">
        <ele>253.6</ele>
        <time>2019-08-09T20:10:39Z</time>
      </trkpt>
      <trkpt lat="47.84148" lon="7.21851">
        <ele>253.6</ele>
        <time>2019-08-09T20:10:40Z</time>
      </trkpt>
      <trkpt lat="47.84145" lon="7.21848">
        <ele>253.6</ele>
        <time>2019-08-09T20:10:41Z</time>
      </trkpt>
      <trkpt lat="47.84142" lon="7.21844">
        <ele>253.7</ele>
        <time>2019-08-09T20:10:42Z</time>
      </trkpt>
      <trkpt lat="47.8414" lon="7.21841">
        <ele>253.7</ele>
        <time>2019-08-09T20:10:43Z</time>
      </trkpt>
      <trkpt lat="47.84137" lon="7.21838">
        <ele>253.7</ele>
        <time>2019-08-09T20:10:44Z</time>
      </trkpt>
      <trkpt lat="47.84134" lon="7.21834">
        <ele>253.7</ele>
        <time>2019-08-09T20:10:45Z</time>
      </trkpt>
      <trkpt lat="47.84131" lon="7.2183">
        <ele>253.8</ele>
        <time>2019-08-09T20:10:46Z</time>
      </trkpt>
      <trkpt lat="47.84128" lon="7.21827">
        <ele>253.8</ele>
        <time>2019-08-09T20:10:47Z</time>
      </trkpt>
      <trkpt lat="47.84125" lon="7.21824">
        <ele>253.8</ele>
        <time>2019-08-09T20:10:48Z</time>
      </trkpt>
      <trkpt lat="47.84122" lon="7.2182">
        <ele>253.8</ele>
        <time>2019-08-09T20:10:49Z</time>
      </trkpt>
      <trkpt lat="47.84119" lon="7.21818">
        <ele>253.9</ele>
        <time>2019-08-09T20:10:50Z</time>
      </trkpt>
      <trkpt lat="47.84116" lon="7.21815">
        <ele>253.9</ele>
        <time>2019-08-09T20:10:51Z</time>
      </trkpt>
      <trkpt lat="47.84113" lon="7.21812">
        <ele>253.9</ele>
        <time>2019-08-09T20:10:52Z</time>
      </trkpt>
      <trkpt lat="47.84109" lon="7.21808">
        <ele>253.9</ele>
        <time>2019-08-09T20:10:53Z</time>
      </trkpt>
      <trkpt lat="47.84106" lon="7.21805">
        <ele>254</ele>
        <time>2019-08-09T20:10:54Z</time>
      </trkpt>
      <trkpt lat="47.84102" lon="7.21802">
        <ele>254</ele>
        <time>2019-08-09T20:10:55Z</time>
      </trkpt>
      <trkpt lat="47.84099" lon="7.21799">
        <ele>254</ele>
        <time>2019-08-09T20:10:56Z</time>
      </trkpt>
      <trkpt lat="47.84096" lon="7.21795">
        <ele>254.1</ele>
        <time>2019-08-09T20:10:57Z</time>
      </trkpt>
      <trkpt lat="47.84093" lon="7.21791">
        <ele>254.1</ele>
        <time>2019-08-09T20:10:58Z</time>
      </trkpt>
      <trkpt lat="47.8409" lon="7.21788">
        <ele>254.1</ele>
        <time>2019-08-09T20:10:59Z</time>
      </trkpt>
      <trkpt lat="47.84087" lon="7.21785">
        <ele>254.1</ele>
        <time>2019-08-09T20:11:00Z</time>
      </trkpt>
      <trkpt lat="47.84084" lon="7.21781">
        <ele>254.2</ele>
        <time>2019-08-09T20:11:01Z</time>
      </trkpt>
      <trkpt lat="47.84081" lon="7.21777">
        <ele>254.2</ele>
        <time>2019-08-09T20:11:02Z</time>
      </trkpt>
      <trkpt lat="47.84078" lon="7.21774">
        <ele>254.2</ele>
        <time>2019-08-09T20:11:03Z</time>
      </trkpt>
      <trkpt lat="47.84075" lon="7.21769">
        <ele>254.2</ele>
        <time>2019-08-09T20:11:04Z</time>
      </trkpt>
      <trkpt lat="47.84072" lon="7.21766">
        <ele>254.3</ele>
        <time>2019-08-09T20:11:05Z</time>
      </trkpt>
      <trkpt lat="47.84069" lon="7.21762">
        <ele>254.3</ele>
        <time>2019-08-09T20:11:06Z</time>
      </trkpt>
      <trkpt lat="47.84066" lon="7.21758">
        <ele>254.4</ele>
        <time>2019-08-09T20:11:07Z</time>
      </trkpt>
      <trkpt lat="47.84064" lon="7.21756">
        <ele>254.4</ele>
        <time>2019-08-09T20:11:08Z</time>
      </trkpt>
      <trkpt lat="47.84061" lon="7.21753">
        <ele>254.4</ele>
        <time>2019-08-09T20:11:09Z</time>
      </trkpt>
      <trkpt lat="47.84058" lon="7.21749">
        <ele>254.5</ele>
        <time>2019-08-09T20:11:10Z</time>
      </trkpt>
      <trkpt lat="47.84055" lon="7.21745">
        <ele>254.5</ele>
        <time>2019-08-09T20:11:11Z</time>
      </trkpt>
      <trkpt lat="47.84052" lon="7.21741">
        <ele>254.5</ele>
        <time>2019-08-09T20:11:12Z</time>
      </trkpt>
      <trkpt lat="47.84049" lon="7.21739">
        <ele>254.5</ele>
        <time>2019-08-09T20:11:13Z</time>
      </trkpt>
      <trkpt lat="47.84046" lon="7.21736">
        <ele>254.6</ele>
        <time>2019-08-09T20:11:14Z</time>
      </trkpt>
      <trkpt lat="47.84043" lon="7.21733">
        <ele>254.6</ele>
        <time>2019-08-09T20:11:15Z</time>
      </trkpt>
      <trkpt lat="47.84041" lon="7.21731">
        <ele>254.6</ele>
        <time>2019-08-09T20:11:16Z</time>
      </trkpt>
      <trkpt lat="47.84038" lon="7.21728">
        <ele>254.6</ele>
        <time>2019-08-09T20:11:17Z</time>
      </trkpt>
      <trkpt lat="47.84035" lon="7.21724">
        <ele>254.7</ele>
        <time>2019-08-09T20:11:18Z</time>
      </trkpt>
      <trkpt lat="47.84033" lon="7.21721">
        <ele>254.7</ele>
        <time>2019-08-09T20:11:19Z</time>
      </trkpt>
      <trkpt lat="47.8403" lon="7.21717">
        <ele>254.8</ele>
        <time>2019-08-09T20:11:20Z</time>
      </trkpt>
      <trkpt lat="47.84027" lon="7.21715">
        <ele>254.8</ele>
        <time>2019-08-09T20:11:21Z</time>
      </trkpt>
      <trkpt lat="47.84024" lon="7.21711">
        <ele>254.8</ele>
        <time>2019-08-09T20:11:22Z</time>
      </trkpt>
      <trkpt lat="47.84021" lon="7.21707">
        <ele>254.9</ele>
        <time>2019-08-09T20:11:23Z</time>
      </trkpt>
      <trkpt lat="47.84018" lon="7.21703">
        <ele>254.9</ele>
        <time>2019-08-09T20:11:24Z</time>
      </trkpt>
      <trkpt lat="47.84015" lon="7.21701">
        <ele>255</ele>
        <time>2019-08-09T20:11:25Z</time>
      </trkpt>
      <trkpt lat="47.84012" lon="7.21697">
        <ele>255</ele>
        <time>2019-08-09T20:11:26Z</time>
      </trkpt>
      <trkpt lat="47.8401" lon="7.21693">
        <ele>255.1</ele>
        <time>2019-08-09T20:11:27Z</time>
      </trkpt>
      <trkpt lat="47.84007" lon="7.2169">
        <ele>255.1</ele>
        <time>2019-08-09T20:11:28Z</time>
      </trkpt>
      <trkpt lat="47.84004" lon="7.21686">
        <ele>255.1</ele>
        <time>2019-08-09T20:11:29Z</time>
      </trkpt>
      <trkpt lat="47.84002" lon="7.21683">
        <ele>255.2</ele>
        <time>2019-08-09T20:11:30Z</time>
      </trkpt>
      <trkpt lat="47.83999" lon="7.2168">
        <ele>255.2</ele>
        <time>2019-08-09T20:11:31Z</time>
      </trkpt>
      <trkpt lat="47.83997" lon="7.21676">
        <ele>255.3</ele>
        <time>2019-08-09T20:11:32Z</time>
      </trkpt>
      <trkpt lat="47.83995" lon="7.21673">
        <ele>255.3</ele>
        <time>2019-08-09T20:11:33Z</time>
      </trkpt>
      <trkpt lat="47.83993" lon="7.21669">
        <ele>255.4</ele>
        <time>2019-08-09T20:11:34Z</time>
      </trkpt>
      <trkpt lat="47.8399" lon="7.21666">
        <ele>255.4</ele>
        <time>2019-08-09T20:11:35Z</time>
      </trkpt>
      <trkpt lat="47.83988" lon="7.21662">
        <ele>255.5</ele>
        <time>2019-08-09T20:11:36Z</time>
      </trkpt>
      <trkpt lat="47.83985" lon="7.21659">
        <ele>255.5</ele>
        <time>2019-08-09T20:11:37Z</time>
      </trkpt>
      <trkpt lat="47.83983" lon="7.21655">
        <ele>255.6</ele>
        <time>2019-08-09T20:11:38Z</time>
      </trkpt>
      <trkpt lat="47.83982" lon="7.21652">
        <ele>255.7</ele>
        <time>2019-08-09T20:11:39Z</time>
      </trkpt>
      <trkpt lat="47.83979" lon="7.2165">
        <ele>255.7</ele>
        <time>2019-08-09T20:11:40Z</time>
      </trkpt>
      <trkpt lat="47.83977" lon="7.21646">
        <ele>255.8</ele>
        <time>2019-08-09T20:11:41Z</time>
      </trkpt>
      <trkpt lat="47.83973" lon="7.21642">
        <ele>255.8</ele>
        <time>2019-08-09T20:11:42Z</time>
      </trkpt>
      <trkpt lat="47.83971" lon="7.2164">
        <ele>255.9</ele>
        <time>2019-08-09T20:11:43Z</time>
      </trkpt>
      <trkpt lat="47.83968" lon="7.21637">
        <ele>255.9</ele>
        <time>2019-08-09T20:11:44Z</time>
      </trkpt>
      <trkpt lat="47.83965" lon="7.21633">
        <ele>256</ele>
        <time>2019-08-09T20:11:45Z</time>
      </trkpt>
      <trkpt lat="47.83963" lon="7.2163">
        <ele>256.1</ele>
        <time>2019-08-09T20:11:46Z</time>
      </trkpt>
      <trkpt lat="47.83961" lon="7.21626">
        <ele>256.1</ele>
        <time>2019-08-09T20:11:47Z</time>
      </trkpt>
      <trkpt lat="47.83959" lon="7.21623">
        <ele>256.1</ele>
        <time>2019-08-09T20:11:48Z</time>
      </trkpt>
      <trkpt lat="47.83954" lon="7.21619">
        <ele>256.2</ele>
        <time>2019-08-09T20:11:50Z</time>
      </trkpt>
      <trkpt lat="47.83952" lon="7.21617">
        <ele>256.2</ele>
        <time>2019-08-09T20:11:51Z</time>
      </trkpt>
      <trkpt lat="47.8395" lon="7.21614">
        <ele>256.2</ele>
        <time>2019-08-09T20:11:52Z</time>
      </trkpt>
      <trkpt lat="47.83947" lon="7.21611">
        <ele>256.3</ele>
        <time>2019-08-09T20:11:53Z</time>
      </trkpt>
      <trkpt lat="47.83945" lon="7.21608">
        <ele>256.3</ele>
        <time>2019-08-09T20:11:54Z</time>
      </trkpt>
      <trkpt lat="47.83942" lon="7.21605">
        <ele>256.3</ele>
        <time>2019-08-09T20:11:55Z</time>
      </trkpt>
      <trkpt lat="47.8394" lon="7.21601">
        <ele>256.3</ele>
        <time>2019-08-09T20:11:56Z</time>
      </trkpt>
      <trkpt lat="47.83939" lon="7.21598">
        <ele>256.3</ele>
        <time>2019-08-09T20:11:57Z</time>
      </trkpt>
      <trkpt lat="47.83936" lon="7.21594">
        <ele>256.4</ele>
        <time>2019-08-09T20:11:58Z</time>
      </trkpt>
      <trkpt lat="47.83933" lon="7.21592">
        <ele>256.4</ele>
        <time>2019-08-09T20:11:59Z</time>
      </trkpt>
      <trkpt lat="47.8393" lon="7.21589">
        <ele>256.4</ele>
        <time>2019-08-09T20:12:00Z</time>
      </trkpt>
      <trkpt lat="47.83928" lon="7.21587">
        <ele>256.5</ele>
        <time>2019-08-09T20:12:01Z</time>
      </trkpt>
      <trkpt lat="47.83926" lon="7.21584">
        <ele>256.5</ele>
        <time>2019-08-09T20:12:02Z</time>
      </trkpt>
      <trkpt lat="47.83924" lon="7.21579">
        <ele>256.5</ele>
        <time>2019-08-09T20:12:03Z</time>
      </trkpt>
      <trkpt lat="47.83921" lon="7.21575">
        <ele>256.6</ele>
        <time>2019-08-09T20:12:04Z</time>
      </trkpt>
      <trkpt lat="47.83919" lon="7.21572">
        <ele>256.7</ele>
        <time>2019-08-09T20:12:05Z</time>
      </trkpt>
      <trkpt lat="47.83916" lon="7.21569">
        <ele>256.7</ele>
        <time>2019-08-09T20:12:06Z</time>
      </trkpt>
      <trkpt lat="47.83914" lon="7.21566">
        <ele>256.8</ele>
        <time>2019-08-09T20:12:07Z</time>
      </trkpt>
      <trkpt lat="47.83911" lon="7.21563">
        <ele>256.8</ele>
        <time>2019-08-09T20:12:08Z</time>
      </trkpt>
      <trkpt lat="47.83909" lon="7.2156">
        <ele>256.9</ele>
        <time>2019-08-09T20:12:09Z</time>
      </trkpt>
      <trkpt lat="47.83907" lon="7.21556">
        <ele>256.9</ele>
        <time>2019-08-09T20:12:10Z</time>
      </trkpt>
      <trkpt lat="47.83904" lon="7.21553">
        <ele>257</ele>
        <time>2019-08-09T20:12:11Z</time>
      </trkpt>
      <trkpt lat="47.83902" lon="7.2155">
        <ele>257</ele>
        <time>2019-08-09T20:12:12Z</time>
      </trkpt>
      <trkpt lat="47.83899" lon="7.21547">
        <ele>257.1</ele>
        <time>2019-08-09T20:12:13Z</time>
      </trkpt>
      <trkpt lat="47.83897" lon="7.21543">
        <ele>257.1</ele>
        <time>2019-08-09T20:12:14Z</time>
      </trkpt>
      <trkpt lat="47.83894" lon="7.2154">
        <ele>257.2</ele>
        <time>2019-08-09T20:12:15Z</time>
      </trkpt>
      <trkpt lat="47.83891" lon="7.21537">
        <ele>257.3</ele>
        <time>2019-08-09T20:12:16Z</time>
      </trkpt>
      <trkpt lat="47.83888" lon="7.21534">
        <ele>257.3</ele>
        <time>2019-08-09T20:12:17Z</time>
      </trkpt>
      <trkpt lat="47.83886" lon="7.21531">
        <ele>257.4</ele>
        <time>2019-08-09T20:12:18Z</time>
      </trkpt>
      <trkpt lat="47.83882" lon="7.21525">
        <ele>257.5</ele>
        <time>2019-08-09T20:12:20Z</time>
      </trkpt>
      <trkpt lat="47.83878" lon="7.21518">
        <ele>257.6</ele>
        <time>2019-08-09T20:12:22Z</time>
      </trkpt>
      <trkpt lat="47.83876" lon="7.21514">
        <ele>257.6</ele>
        <time>2019-08-09T20:12:23Z</time>
      </trkpt>
      <trkpt lat="47.83874" lon="7.21511">
        <ele>257.7</ele>
        <time>2019-08-09T20:12:24Z</time>
      </trkpt>
      <trkpt lat="47.83872" lon="7.21508">
        <ele>257.8</ele>
        <time>2019-08-09T20:12:25Z</time>
      </trkpt>
      <trkpt lat="47.83869" lon="7.21504">
        <ele>257.8</ele>
        <time>2019-08-09T20:12:26Z</time>
      </trkpt>
      <trkpt lat="47.83866" lon="7.21501">
        <ele>257.9</ele>
        <time>2019-08-09T20:12:27Z</time>
      </trkpt>
      <trkpt lat="47.83863" lon="7.21498">
        <ele>258</ele>
        <time>2019-08-09T20:12:28Z</time>
      </trkpt>
      <trkpt lat="47.8386" lon="7.21494">
        <ele>258.1</ele>
        <time>2019-08-09T20:12:29Z</time>
      </trkpt>
      <trkpt lat="47.83858" lon="7.21491">
        <ele>258.2</ele>
        <time>2019-08-09T20:12:30Z</time>
      </trkpt>
      <trkpt lat="47.83855" lon="7.21489">
        <ele>258.2</ele>
        <time>2019-08-09T20:12:31Z</time>
      </trkpt>
      <trkpt lat="47.83853" lon="7.21486">
        <ele>258.3</ele>
        <time>2019-08-09T20:12:32Z</time>
      </trkpt>
      <trkpt lat="47.83851" lon="7.21482">
        <ele>258.4</ele>
        <time>2019-08-09T20:12:33Z</time>
      </trkpt>
      <trkpt lat="47.83848" lon="7.21479">
        <ele>258.5</ele>
        <time>2019-08-09T20:12:34Z</time>
      </trkpt>
      <trkpt lat="47.83845" lon="7.21476">
        <ele>258.5</ele>
        <time>2019-08-09T20:12:35Z</time>
      </trkpt>
      <trkpt lat="47.83842" lon="7.21473">
        <ele>258.6</ele>
        <time>2019-08-09T20:12:36Z</time>
      </trkpt>
      <trkpt lat="47.83839" lon="7.21472">
        <ele>258.6</ele>
        <time>2019-08-09T20:12:37Z</time>
      </trkpt>
      <trkpt lat="47.83836" lon="7.2147">
        <ele>258.6</ele>
        <time>2019-08-09T20:12:38Z</time>
      </trkpt>
      <trkpt lat="47.83834" lon="7.21468">
        <ele>258.7</ele>
        <time>2019-08-09T20:12:39Z</time>
      </trkpt>
      <trkpt lat="47.8383" lon="7.21472">
        <ele>258.7</ele>
        <time>2019-08-09T20:12:41Z</time>
      </trkpt>
      <trkpt lat="47.83829" lon="7.21476">
        <ele>258.6</ele>
        <time>2019-08-09T20:12:42Z</time>
      </trkpt>
      <trkpt lat="47.83826" lon="7.21481">
        <ele>258.6</ele>
        <time>2019-08-09T20:12:43Z</time>
      </trkpt>
      <trkpt lat="47.83823" lon="7.21484">
        <ele>258.6</ele>
        <time>2019-08-09T20:12:44Z</time>
      </trkpt>
      <trkpt lat="47.83821" lon="7.21488">
        <ele>258.6</ele>
        <time>2019-08-09T20:12:45Z</time>
      </trkpt>
      <trkpt lat="47.83817" lon="7.21495">
        <ele>258.6</ele>
        <time>2019-08-09T20:12:47Z</time>
      </trkpt>
      <trkpt lat="47.83814" lon="7.21499">
        <ele>258.5</ele>
        <time>2019-08-09T20:12:48Z</time>
      </trkpt>
      <trkpt lat="47.83812" lon="7.21503">
        <ele>258.5</ele>
        <time>2019-08-09T20:12:49Z</time>
      </trkpt>
      <trkpt lat="47.83808" lon="7.21508">
        <ele>258.5</ele>
        <time>2019-08-09T20:12:50Z</time>
      </trkpt>
      <trkpt lat="47.83805" lon="7.21512">
        <ele>258.4</ele>
        <time>2019-08-09T20:12:51Z</time>
      </trkpt>
      <trkpt lat="47.83801" lon="7.21519">
        <ele>258.4</ele>
        <time>2019-08-09T20:12:53Z</time>
      </trkpt>
      <trkpt lat="47.83798" lon="7.21522">
        <ele>258.3</ele>
        <time>2019-08-09T20:12:54Z</time>
      </trkpt>
      <trkpt lat="47.83796" lon="7.21526">
        <ele>258.3</ele>
        <time>2019-08-09T20:12:55Z</time>
      </trkpt>
      <trkpt lat="47.83794" lon="7.21531">
        <ele>258.3</ele>
        <time>2019-08-09T20:12:56Z</time>
      </trkpt>
      <trkpt lat="47.83791" lon="7.21536">
        <ele>258.3</ele>
        <time>2019-08-09T20:12:57Z</time>
      </trkpt>
      <trkpt lat="47.83789" lon="7.21541">
        <ele>258.2</ele>
        <time>2019-08-09T20:12:58Z</time>
      </trkpt>
      <trkpt lat="47.83786" lon="7.21547">
        <ele>258.2</ele>
        <time>2019-08-09T20:12:59Z</time>
      </trkpt>
      <trkpt lat="47.83784" lon="7.21553">
        <ele>258.2</ele>
        <time>2019-08-09T20:13:00Z</time>
      </trkpt>
      <trkpt lat="47.83782" lon="7.21559">
        <ele>258.2</ele>
        <time>2019-08-09T20:13:01Z</time>
      </trkpt>
      <trkpt lat="47.83779" lon="7.21562">
        <ele>258.1</ele>
        <time>2019-08-09T20:13:02Z</time>
      </trkpt>
      <trkpt lat="47.83777" lon="7.21568">
        <ele>258.1</ele>
        <time>2019-08-09T20:13:03Z</time>
      </trkpt>
      <trkpt lat="47.83774" lon="7.21573">
        <ele>258.1</ele>
        <time>2019-08-09T20:13:04Z</time>
      </trkpt>
      <trkpt lat="47.83771" lon="7.21579">
        <ele>258.1</ele>
        <time>2019-08-09T20:13:05Z</time>
      </trkpt>
      <trkpt lat="47.83768" lon="7.21585">
        <ele>258.1</ele>
        <time>2019-08-09T20:13:06Z</time>
      </trkpt>
      <trkpt lat="47.83765" lon="7.21591">
        <ele>258.1</ele>
        <time>2019-08-09T20:13:07Z</time>
      </trkpt>
      <trkpt lat="47.83763" lon="7.21596">
        <ele>258.1</ele>
        <time>2019-08-09T20:13:08Z</time>
      </trkpt>
      <trkpt lat="47.8376" lon="7.21602">
        <ele>258</ele>
        <time>2019-08-09T20:13:09Z</time>
      </trkpt>
      <trkpt lat="47.83758" lon="7.21607">
        <ele>258</ele>
        <time>2019-08-09T20:13:10Z</time>
      </trkpt>
      <trkpt lat="47.83754" lon="7.21613">
        <ele>258</ele>
        <time>2019-08-09T20:13:11Z</time>
      </trkpt>
      <trkpt lat="47.83751" lon="7.21619">
        <ele>258</ele>
        <time>2019-08-09T20:13:12Z</time>
      </trkpt>
      <trkpt lat="47.83747" lon="7.21626">
        <ele>258</ele>
        <time>2019-08-09T20:13:13Z</time>
      </trkpt>
      <trkpt lat="47.83744" lon="7.21632">
        <ele>258</ele>
        <time>2019-08-09T20:13:14Z</time>
      </trkpt>
      <trkpt lat="47.83741" lon="7.21638">
        <ele>258</ele>
        <time>2019-08-09T20:13:15Z</time>
      </trkpt>
      <trkpt lat="47.83738" lon="7.21644">
        <ele>258</ele>
        <time>2019-08-09T20:13:16Z</time>
      </trkpt>
      <trkpt lat="47.83735" lon="7.21649">
        <ele>258</ele>
        <time>2019-08-09T20:13:17Z</time>
      </trkpt>
      <trkpt lat="47.83732" lon="7.21656">
        <ele>258</ele>
        <time>2019-08-09T20:13:18Z</time>
      </trkpt>
      <trkpt lat="47.8373" lon="7.21662">
        <ele>258</ele>
        <time>2019-08-09T20:13:19Z</time>
      </trkpt>
      <trkpt lat="47.83728" lon="7.21668">
        <ele>258</ele>
        <time>2019-08-09T20:13:20Z</time>
      </trkpt>
      <trkpt lat="47.83726" lon="7.21674">
        <ele>258</ele>
        <time>2019-08-09T20:13:21Z</time>
      </trkpt>
      <trkpt lat="47.83724" lon="7.2168">
        <ele>258</ele>
        <time>2019-08-09T20:13:22Z</time>
      </trkpt>
      <trkpt lat="47.83721" lon="7.21685">
        <ele>258</ele>
        <time>2019-08-09T20:13:23Z</time>
      </trkpt>
      <trkpt lat="47.83718" lon="7.21691">
        <ele>258</ele>
        <time>2019-08-09T20:13:24Z</time>
      </trkpt>
      <trkpt lat="47.83715" lon="7.21695">
        <ele>257.9</ele>
        <time>2019-08-09T20:13:25Z</time>
      </trkpt>
      <trkpt lat="47.83713" lon="7.217">
        <ele>257.9</ele>
        <time>2019-08-09T20:13:26Z</time>
      </trkpt>
      <trkpt lat="47.8371" lon="7.21706">
        <ele>257.9</ele>
        <time>2019-08-09T20:13:27Z</time>
      </trkpt>
      <trkpt lat="47.83706" lon="7.21711">
        <ele>257.8</ele>
        <time>2019-08-09T20:13:28Z</time>
      </trkpt>
      <trkpt lat="47.83704" lon="7.21718">
        <ele>257.8</ele>
        <time>2019-08-09T20:13:29Z</time>
      </trkpt>
      <trkpt lat="47.83701" lon="7.21724">
        <ele>257.7</ele>
        <time>2019-08-09T20:13:30Z</time>
      </trkpt>
      <trkpt lat="47.83697" lon="7.2173">
        <ele>257.7</ele>
        <time>2019-08-09T20:13:31Z</time>
      </trkpt>
      <trkpt lat="47.83695" lon="7.21735">
        <ele>257.6</ele>
        <time>2019-08-09T20:13:32Z</time>
      </trkpt>
      <trkpt lat="47.83692" lon="7.21742">
        <ele>257.6</ele>
        <time>2019-08-09T20:13:33Z</time>
      </trkpt>
      <trkpt lat="47.83689" lon="7.21748">
        <ele>257.5</ele>
        <time>2019-08-09T20:13:34Z</time>
      </trkpt>
      <trkpt lat="47.83685" lon="7.21754">
        <ele>257.4</ele>
        <time>2019-08-09T20:13:35Z</time>
      </trkpt>
      <trkpt lat="47.83682" lon="7.21759">
        <ele>257.4</ele>
        <time>2019-08-09T20:13:36Z</time>
      </trkpt>
      <trkpt lat="47.83679" lon="7.21765">
        <ele>257.3</ele>
        <time>2019-08-09T20:13:37Z</time>
      </trkpt>
      <trkpt lat="47.83676" lon="7.21771">
        <ele>257.3</ele>
        <time>2019-08-09T20:13:38Z</time>
      </trkpt>
      <trkpt lat="47.83673" lon="7.21777">
        <ele>257.2</ele>
        <time>2019-08-09T20:13:39Z</time>
      </trkpt>
      <trkpt lat="47.83671" lon="7.21783">
        <ele>257.2</ele>
        <time>2019-08-09T20:13:40Z</time>
      </trkpt>
      <trkpt lat="47.83668" lon="7.21789">
        <ele>257.2</ele>
        <time>2019-08-09T20:13:41Z</time>
      </trkpt>
      <trkpt lat="47.83666" lon="7.21795">
        <ele>257.1</ele>
        <time>2019-08-09T20:13:42Z</time>
      </trkpt>
      <trkpt lat="47.83663" lon="7.21801">
        <ele>257.1</ele>
        <time>2019-08-09T20:13:43Z</time>
      </trkpt>
      <trkpt lat="47.83661" lon="7.21808">
        <ele>257.1</ele>
        <time>2019-08-09T20:13:44Z</time>
      </trkpt>
      <trkpt lat="47.83656" lon="7.21814">
        <ele>257</ele>
        <time>2019-08-09T20:13:45Z</time>
      </trkpt>
      <trkpt lat="47.83653" lon="7.21821">
        <ele>257</ele>
        <time>2019-08-09T20:13:46Z</time>
      </trkpt>
      <trkpt lat="47.83649" lon="7.21827">
        <ele>257</ele>
        <time>2019-08-09T20:13:47Z</time>
      </trkpt>
      <trkpt lat="47.83647" lon="7.21833">
        <ele>257</ele>
        <time>2019-08-09T20:13:48Z</time>
      </trkpt>
      <trkpt lat="47.83643" lon="7.21839">
        <ele>257</ele>
        <time>2019-08-09T20:13:49Z</time>
      </trkpt>
      <trkpt lat="47.83641" lon="7.21843">
        <ele>257</ele>
        <time>2019-08-09T20:13:50Z</time>
      </trkpt>
      <trkpt lat="47.83637" lon="7.21849">
        <ele>257</ele>
        <time>2019-08-09T20:13:51Z</time>
      </trkpt>
      <trkpt lat="47.83635" lon="7.21855">
        <ele>257</ele>
        <time>2019-08-09T20:13:52Z</time>
      </trkpt>
      <trkpt lat="47.83632" lon="7.21861">
        <ele>257</ele>
        <time>2019-08-09T20:13:53Z</time>
      </trkpt>
      <trkpt lat="47.83629" lon="7.21866">
        <ele>257</ele>
        <time>2019-08-09T20:13:54Z</time>
      </trkpt>
      <trkpt lat="47.83625" lon="7.21873">
        <ele>257</ele>
        <time>2019-08-09T20:13:55Z</time>
      </trkpt>
      <trkpt lat="47.83622" lon="7.21879">
        <ele>257</ele>
        <time>2019-08-09T20:13:56Z</time>
      </trkpt>
      <trkpt lat="47.83618" lon="7.21886">
        <ele>257.1</ele>
        <time>2019-08-09T20:13:57Z</time>
      </trkpt>
      <trkpt lat="47.83615" lon="7.21892">
        <ele>257.1</ele>
        <time>2019-08-09T20:13:58Z</time>
      </trkpt>
      <trkpt lat="47.83612" lon="7.21898">
        <ele>257.1</ele>
        <time>2019-08-09T20:13:59Z</time>
      </trkpt>
      <trkpt lat="47.83609" lon="7.21903">
        <ele>257.2</ele>
        <time>2019-08-09T20:14:00Z</time>
      </trkpt>
      <trkpt lat="47.83606" lon="7.21908">
        <ele>257.3</ele>
        <time>2019-08-09T20:14:01Z</time>
      </trkpt>
      <trkpt lat="47.83604" lon="7.21912">
        <ele>257.4</ele>
        <time>2019-08-09T20:14:02Z</time>
      </trkpt>
      <trkpt lat="47.83601" lon="7.21917">
        <ele>257.5</ele>
        <time>2019-08-09T20:14:03Z</time>
      </trkpt>
      <trkpt lat="47.83598" lon="7.21923">
        <ele>257.5</ele>
        <time>2019-08-09T20:14:04Z</time>
      </trkpt>
      <trkpt lat="47.83595" lon="7.21929">
        <ele>257.6</ele>
        <time>2019-08-09T20:14:05Z</time>
      </trkpt>
      <trkpt lat="47.83593" lon="7.21934">
        <ele>257.7</ele>
        <time>2019-08-09T20:14:06Z</time>
      </trkpt>
      <trkpt lat="47.8359" lon="7.21937">
        <ele>257.8</ele>
        <time>2019-08-09T20:14:07Z</time>
      </trkpt>
      <trkpt lat="47.83587" lon="7.21942">
        <ele>257.8</ele>
        <time>2019-08-09T20:14:08Z</time>
      </trkpt>
      <trkpt lat="47.83584" lon="7.21945">
        <ele>257.9</ele>
        <time>2019-08-09T20:14:09Z</time>
      </trkpt>
      <trkpt lat="47.83582" lon="7.21949">
        <ele>257.9</ele>
        <time>2019-08-09T20:14:10Z</time>
      </trkpt>
      <trkpt lat="47.83579" lon="7.21954">
        <ele>257.9</ele>
        <time>2019-08-09T20:14:11Z</time>
      </trkpt>
      <trkpt lat="47.83577" lon="7.21958">
        <ele>257.9</ele>
        <time>2019-08-09T20:14:12Z</time>
      </trkpt>
      <trkpt lat="47.83575" lon="7.21961">
        <ele>258</ele>
        <time>2019-08-09T20:14:13Z</time>
      </trkpt>
      <trkpt lat="47.83572" lon="7.21965">
        <ele>258</ele>
        <time>2019-08-09T20:14:14Z</time>
      </trkpt>
      <trkpt lat="47.8357" lon="7.21969">
        <ele>258</ele>
        <time>2019-08-09T20:14:15Z</time>
      </trkpt>
      <trkpt lat="47.83568" lon="7.21974">
        <ele>257.9</ele>
        <time>2019-08-09T20:14:16Z</time>
      </trkpt>
      <trkpt lat="47.83565" lon="7.21977">
        <ele>257.9</ele>
        <time>2019-08-09T20:14:17Z</time>
      </trkpt>
      <trkpt lat="47.83563" lon="7.21981">
        <ele>257.9</ele>
        <time>2019-08-09T20:14:18Z</time>
      </trkpt>
      <trkpt lat="47.8356" lon="7.21984">
        <ele>257.9</ele>
        <time>2019-08-09T20:14:19Z</time>
      </trkpt>
      <trkpt lat="47.83558" lon="7.21987">
        <ele>257.8</ele>
        <time>2019-08-09T20:14:20Z</time>
      </trkpt>
      <trkpt lat="47.83556" lon="7.2199">
        <ele>257.8</ele>
        <time>2019-08-09T20:14:21Z</time>
      </trkpt>
      <trkpt lat="47.83553" lon="7.21996">
        <ele>257.7</ele>
        <time>2019-08-09T20:14:23Z</time>
      </trkpt>
      <trkpt lat="47.83549" lon="7.22001">
        <ele>257.6</ele>
        <time>2019-08-09T20:14:25Z</time>
      </trkpt>
      <trkpt lat="47.83547" lon="7.22005">
        <ele>257.6</ele>
        <time>2019-08-09T20:14:27Z</time>
      </trkpt>
      <trkpt lat="47.83546" lon="7.22009">
        <ele>257.5</ele>
        <time>2019-08-09T20:14:29Z</time>
      </trkpt>
      <trkpt lat="47.83545" lon="7.22013">
        <ele>257.4</ele>
        <time>2019-08-09T20:14:31Z</time>
      </trkpt>
      <trkpt lat="47.83541" lon="7.22014">
        <ele>257.3</ele>
        <time>2019-08-09T20:14:33Z</time>
      </trkpt>
      <trkpt lat="47.83539" lon="7.22011">
        <ele>257.5</ele>
        <time>2019-08-09T20:14:34Z</time>
      </trkpt>
      <trkpt lat="47.83537" lon="7.22006">
        <ele>257.7</ele>
        <time>2019-08-09T20:14:35Z</time>
      </trkpt>
      <trkpt lat="47.83535" lon="7.22002">
        <ele>257.9</ele>
        <time>2019-08-09T20:14:36Z</time>
      </trkpt>
      <trkpt lat="47.83533" lon="7.21997">
        <ele>258</ele>
        <time>2019-08-09T20:14:37Z</time>
      </trkpt>
      <trkpt lat="47.83531" lon="7.21991">
        <ele>258.1</ele>
        <time>2019-08-09T20:14:38Z</time>
      </trkpt>
      <trkpt lat="47.83528" lon="7.21986">
        <ele>258.1</ele>
        <time>2019-08-09T20:14:39Z</time>
      </trkpt>
      <trkpt lat="47.83526" lon="7.21982">
        <ele>258.2</ele>
        <time>2019-08-09T20:14:40Z</time>
      </trkpt>
      <trkpt lat="47.83524" lon="7.21978">
        <ele>258.2</ele>
        <time>2019-08-09T20:14:41Z</time>
      </trkpt>
      <trkpt lat="47.83522" lon="7.21974">
        <ele>258.2</ele>
        <time>2019-08-09T20:14:42Z</time>
      </trkpt>
      <trkpt lat="47.8352" lon="7.2197">
        <ele>258.2</ele>
        <time>2019-08-09T20:14:43Z</time>
      </trkpt>
      <trkpt lat="47.83518" lon="7.21966">
        <ele>258.2</ele>
        <time>2019-08-09T20:14:44Z</time>
      </trkpt>
      <trkpt lat="47.83515" lon="7.21962">
        <ele>258.3</ele>
        <time>2019-08-09T20:14:45Z</time>
      </trkpt>
      <trkpt lat="47.83513" lon="7.21958">
        <ele>258.3</ele>
        <time>2019-08-09T20:14:46Z</time>
      </trkpt>
      <trkpt lat="47.8351" lon="7.21954">
        <ele>258.3</ele>
        <time>2019-08-09T20:14:47Z</time>
      </trkpt>
      <trkpt lat="47.83508" lon="7.21949">
        <ele>258.3</ele>
        <time>2019-08-09T20:14:48Z</time>
      </trkpt>
      <trkpt lat="47.83506" lon="7.21946">
        <ele>258.3</ele>
        <time>2019-08-09T20:14:49Z</time>
      </trkpt>
      <trkpt lat="47.83503" lon="7.21943">
        <ele>258.3</ele>
        <time>2019-08-09T20:14:50Z</time>
      </trkpt>
      <trkpt lat="47.83501" lon="7.21939">
        <ele>258.3</ele>
        <time>2019-08-09T20:14:51Z</time>
      </trkpt>
      <trkpt lat="47.83499" lon="7.21936">
        <ele>258.3</ele>
        <time>2019-08-09T20:14:52Z</time>
      </trkpt>
      <trkpt lat="47.83497" lon="7.21932">
        <ele>258.3</ele>
        <time>2019-08-09T20:14:53Z</time>
      </trkpt>
      <trkpt lat="47.83494" lon="7.21928">
        <ele>258.3</ele>
        <time>2019-08-09T20:14:54Z</time>
      </trkpt>
      <trkpt lat="47.83492" lon="7.21924">
        <ele>258.3</ele>
        <time>2019-08-09T20:14:55Z</time>
      </trkpt>
      <trkpt lat="47.83489" lon="7.2192">
        <ele>258.4</ele>
        <time>2019-08-09T20:14:56Z</time>
      </trkpt>
      <trkpt lat="47.83487" lon="7.21917">
        <ele>258.4</ele>
        <time>2019-08-09T20:14:57Z</time>
      </trkpt>
      <trkpt lat="47.83485" lon="7.21914">
        <ele>258.5</ele>
        <time>2019-08-09T20:14:58Z</time>
      </trkpt>
      <trkpt lat="47.83483" lon="7.21911">
        <ele>258.5</ele>
        <time>2019-08-09T20:14:59Z</time>
      </trkpt>
      <trkpt lat="47.83481" lon="7.21908">
        <ele>258.6</ele>
        <time>2019-08-09T20:15:00Z</time>
      </trkpt>
      <trkpt lat="47.83479" lon="7.21904">
        <ele>258.7</ele>
        <time>2019-08-09T20:15:01Z</time>
      </trkpt>
      <trkpt lat="47.83477" lon="7.21901">
        <ele>258.8</ele>
        <time>2019-08-09T20:15:02Z</time>
      </trkpt>
      <trkpt lat="47.83475" lon="7.21897">
        <ele>258.9</ele>
        <time>2019-08-09T20:15:03Z</time>
      </trkpt>
      <trkpt lat="47.83473" lon="7.21894">
        <ele>259.1</ele>
        <time>2019-08-09T20:15:04Z</time>
      </trkpt>
      <trkpt lat="47.83471" lon="7.21891">
        <ele>259.2</ele>
        <time>2019-08-09T20:15:05Z</time>
      </trkpt>
      <trkpt lat="47.83469" lon="7.21887">
        <ele>259.3</ele>
        <time>2019-08-09T20:15:06Z</time>
      </trkpt>
      <trkpt lat="47.83467" lon="7.21884">
        <ele>259.4</ele>
        <time>2019-08-09T20:15:07Z</time>
      </trkpt>
      <trkpt lat="47.83465" lon="7.21881">
        <ele>259.6</ele>
        <time>2019-08-09T20:15:08Z</time>
      </trkpt>
      <trkpt lat="47.83463" lon="7.21877">
        <ele>259.7</ele>
        <time>2019-08-09T20:15:09Z</time>
      </trkpt>
      <trkpt lat="47.83461" lon="7.21874">
        <ele>259.8</ele>
        <time>2019-08-09T20:15:10Z</time>
      </trkpt>
      <trkpt lat="47.83459" lon="7.2187">
        <ele>259.9</ele>
        <time>2019-08-09T20:15:11Z</time>
      </trkpt>
      <trkpt lat="47.83457" lon="7.21867">
        <ele>260</ele>
        <time>2019-08-09T20:15:12Z</time>
      </trkpt>
      <trkpt lat="47.83455" lon="7.21863">
        <ele>260.1</ele>
        <time>2019-08-09T20:15:13Z</time>
      </trkpt>
      <trkpt lat="47.83452" lon="7.2186">
        <ele>260.1</ele>
        <time>2019-08-09T20:15:14Z</time>
      </trkpt>
      <trkpt lat="47.8345" lon="7.21856">
        <ele>260.1</ele>
        <time>2019-08-09T20:15:15Z</time>
      </trkpt>
      <trkpt lat="47.83448" lon="7.21853">
        <ele>260.2</ele>
        <time>2019-08-09T20:15:16Z</time>
      </trkpt>
      <trkpt lat="47.83445" lon="7.21851">
        <ele>260.2</ele>
        <time>2019-08-09T20:15:17Z</time>
      </trkpt>
      <trkpt lat="47.83443" lon="7.21848">
        <ele>260.2</ele>
        <time>2019-08-09T20:15:18Z</time>
      </trkpt>
      <trkpt lat="47.83441" lon="7.21844">
        <ele>260.2</ele>
        <time>2019-08-09T20:15:19Z</time>
      </trkpt>
      <trkpt lat="47.83439" lon="7.21841">
        <ele>260.3</ele>
        <time>2019-08-09T20:15:20Z</time>
      </trkpt>
      <trkpt lat="47.83436" lon="7.21838">
        <ele>260.3</ele>
        <time>2019-08-09T20:15:21Z</time>
      </trkpt>
      <trkpt lat="47.83434" lon="7.21835">
        <ele>260.3</ele>
        <time>2019-08-09T20:15:22Z</time>
      </trkpt>
      <trkpt lat="47.83432" lon="7.21831">
        <ele>260.3</ele>
        <time>2019-08-09T20:15:23Z</time>
      </trkpt>
      <trkpt lat="47.8343" lon="7.21828">
        <ele>260.3</ele>
        <time>2019-08-09T20:15:24Z</time>
      </trkpt>
      <trkpt lat="47.83428" lon="7.21825">
        <ele>260.3</ele>
        <time>2019-08-09T20:15:25Z</time>
      </trkpt>
      <trkpt lat="47.83425" lon="7.21822">
        <ele>260.3</ele>
        <time>2019-08-09T20:15:26Z</time>
      </trkpt>
      <trkpt lat="47.83422" lon="7.21819">
        <ele>260.3</ele>
        <time>2019-08-09T20:15:27Z</time>
      </trkpt>
      <trkpt lat="47.83419" lon="7.21817">
        <ele>260.3</ele>
        <time>2019-08-09T20:15:28Z</time>
      </trkpt>
      <trkpt lat="47.83416" lon="7.21815">
        <ele>260.3</ele>
        <time>2019-08-09T20:15:29Z</time>
      </trkpt>
      <trkpt lat="47.83414" lon="7.21811">
        <ele>260.3</ele>
        <time>2019-08-09T20:15:30Z</time>
      </trkpt>
      <trkpt lat="47.83411" lon="7.21809">
        <ele>260.3</ele>
        <time>2019-08-09T20:15:31Z</time>
      </trkpt>
      <trkpt lat="47.8341" lon="7.21806">
        <ele>260.3</ele>
        <time>2019-08-09T20:15:32Z</time>
      </trkpt>
      <trkpt lat="47.83408" lon="7.21803">
        <ele>260.3</ele>
        <time>2019-08-09T20:15:33Z</time>
      </trkpt>
      <trkpt lat="47.83405" lon="7.218">
        <ele>260.3</ele>
        <time>2019-08-09T20:15:34Z</time>
      </trkpt>
      <trkpt lat="47.834" lon="7.21795">
        <ele>260.3</ele>
        <time>2019-08-09T20:15:36Z</time>
      </trkpt>
      <trkpt lat="47.83397" lon="7.21793">
        <ele>260.3</ele>
        <time>2019-08-09T20:15:37Z</time>
      </trkpt>
      <trkpt lat="47.83395" lon="7.21791">
        <ele>260.3</ele>
        <time>2019-08-09T20:15:38Z</time>
      </trkpt>
      <trkpt lat="47.83392" lon="7.21788">
        <ele>260.3</ele>
        <time>2019-08-09T20:15:39Z</time>
      </trkpt>
      <trkpt lat="47.83388" lon="7.21785">
        <ele>260.3</ele>
        <time>2019-08-09T20:15:40Z</time>
      </trkpt>
      <trkpt lat="47.83385" lon="7.21782">
        <ele>260.3</ele>
        <time>2019-08-09T20:15:41Z</time>
      </trkpt>
      <trkpt lat="47.83383" lon="7.21779">
        <ele>260.3</ele>
        <time>2019-08-09T20:15:42Z</time>
      </trkpt>
      <trkpt lat="47.8338" lon="7.21777">
        <ele>260.3</ele>
        <time>2019-08-09T20:15:43Z</time>
      </trkpt>
      <trkpt lat="47.83378" lon="7.21774">
        <ele>260.3</ele>
        <time>2019-08-09T20:15:44Z</time>
      </trkpt>
      <trkpt lat="47.83375" lon="7.21772">
        <ele>260.3</ele>
        <time>2019-08-09T20:15:45Z</time>
      </trkpt>
      <trkpt lat="47.83372" lon="7.21769">
        <ele>260.3</ele>
        <time>2019-08-09T20:15:46Z</time>
      </trkpt>
      <trkpt lat="47.8337" lon="7.21767">
        <ele>260.3</ele>
        <time>2019-08-09T20:15:47Z</time>
      </trkpt>
      <trkpt lat="47.83367" lon="7.21764">
        <ele>260.4</ele>
        <time>2019-08-09T20:15:48Z</time>
      </trkpt>
      <trkpt lat="47.83365" lon="7.21762">
        <ele>260.4</ele>
        <time>2019-08-09T20:15:49Z</time>
      </trkpt>
      <trkpt lat="47.83363" lon="7.21759">
        <ele>260.4</ele>
        <time>2019-08-09T20:15:50Z</time>
      </trkpt>
      <trkpt lat="47.83358" lon="7.21755">
        <ele>260.5</ele>
        <time>2019-08-09T20:15:52Z</time>
      </trkpt>
      <trkpt lat="47.83355" lon="7.21752">
        <ele>260.5</ele>
        <time>2019-08-09T20:15:53Z</time>
      </trkpt>
      <trkpt lat="47.83352" lon="7.2175">
        <ele>260.6</ele>
        <time>2019-08-09T20:15:54Z</time>
      </trkpt>
      <trkpt lat="47.83349" lon="7.21746">
        <ele>260.7</ele>
        <time>2019-08-09T20:15:55Z</time>
      </trkpt>
      <trkpt lat="47.83346" lon="7.21743">
        <ele>260.7</ele>
        <time>2019-08-09T20:15:56Z</time>
      </trkpt>
      <trkpt lat="47.83342" lon="7.21741">
        <ele>260.9</ele>
        <time>2019-08-09T20:15:57Z</time>
      </trkpt>
      <trkpt lat="47.8334" lon="7.21738">
        <ele>260.9</ele>
        <time>2019-08-09T20:15:58Z</time>
      </trkpt>
      <trkpt lat="47.83338" lon="7.21734">
        <ele>261</ele>
        <time>2019-08-09T20:15:59Z</time>
      </trkpt>
      <trkpt lat="47.83336" lon="7.21731">
        <ele>261</ele>
        <time>2019-08-09T20:16:00Z</time>
      </trkpt>
      <trkpt lat="47.83334" lon="7.21728">
        <ele>261.1</ele>
        <time>2019-08-09T20:16:01Z</time>
      </trkpt>
      <trkpt lat="47.83331" lon="7.21726">
        <ele>261.1</ele>
        <time>2019-08-09T20:16:02Z</time>
      </trkpt>
      <trkpt lat="47.83329" lon="7.21724">
        <ele>261.2</ele>
        <time>2019-08-09T20:16:03Z</time>
      </trkpt>
      <trkpt lat="47.83327" lon="7.21721">
        <ele>261.2</ele>
        <time>2019-08-09T20:16:04Z</time>
      </trkpt>
      <trkpt lat="47.83324" lon="7.21717">
        <ele>261.2</ele>
        <time>2019-08-09T20:16:05Z</time>
      </trkpt>
      <trkpt lat="47.83321" lon="7.21714">
        <ele>261.3</ele>
        <time>2019-08-09T20:16:06Z</time>
      </trkpt>
      <trkpt lat="47.83318" lon="7.21711">
        <ele>261.3</ele>
        <time>2019-08-09T20:16:07Z</time>
      </trkpt>
      <trkpt lat="47.83315" lon="7.21708">
        <ele>261.3</ele>
        <time>2019-08-09T20:16:08Z</time>
      </trkpt>
      <trkpt lat="47.83312" lon="7.21705">
        <ele>261.3</ele>
        <time>2019-08-09T20:16:09Z</time>
      </trkpt>
      <trkpt lat="47.83309" lon="7.21701">
        <ele>261.3</ele>
        <time>2019-08-09T20:16:10Z</time>
      </trkpt>
      <trkpt lat="47.83306" lon="7.21698">
        <ele>261.3</ele>
        <time>2019-08-09T20:16:11Z</time>
      </trkpt>
      <trkpt lat="47.83303" lon="7.21695">
        <ele>261.3</ele>
        <time>2019-08-09T20:16:12Z</time>
      </trkpt>
      <trkpt lat="47.83301" lon="7.21692">
        <ele>261.3</ele>
        <time>2019-08-09T20:16:13Z</time>
      </trkpt>
      <trkpt lat="47.83298" lon="7.21688">
        <ele>261.3</ele>
        <time>2019-08-09T20:16:14Z</time>
      </trkpt>
      <trkpt lat="47.83296" lon="7.21685">
        <ele>261.3</ele>
        <time>2019-08-09T20:16:15Z</time>
      </trkpt>
      <trkpt lat="47.83293" lon="7.21682">
        <ele>261.3</ele>
        <time>2019-08-09T20:16:16Z</time>
      </trkpt>
      <trkpt lat="47.83291" lon="7.21679">
        <ele>261.3</ele>
        <time>2019-08-09T20:16:17Z</time>
      </trkpt>
      <trkpt lat="47.83288" lon="7.21676">
        <ele>261.3</ele>
        <time>2019-08-09T20:16:18Z</time>
      </trkpt>
      <trkpt lat="47.83285" lon="7.21673">
        <ele>261.3</ele>
        <time>2019-08-09T20:16:19Z</time>
      </trkpt>
      <trkpt lat="47.83283" lon="7.2167">
        <ele>261.4</ele>
        <time>2019-08-09T20:16:20Z</time>
      </trkpt>
      <trkpt lat="47.8328" lon="7.21667">
        <ele>261.4</ele>
        <time>2019-08-09T20:16:21Z</time>
      </trkpt>
      <trkpt lat="47.83276" lon="7.21664">
        <ele>261.4</ele>
        <time>2019-08-09T20:16:22Z</time>
      </trkpt>
      <trkpt lat="47.83273" lon="7.21661">
        <ele>261.4</ele>
        <time>2019-08-09T20:16:23Z</time>
      </trkpt>
      <trkpt lat="47.83269" lon="7.21659">
        <ele>261.5</ele>
        <time>2019-08-09T20:16:24Z</time>
      </trkpt>
      <trkpt lat="47.83266" lon="7.21656">
        <ele>261.6</ele>
        <time>2019-08-09T20:16:25Z</time>
      </trkpt>
      <trkpt lat="47.83263" lon="7.21653">
        <ele>261.7</ele>
        <time>2019-08-09T20:16:26Z</time>
      </trkpt>
      <trkpt lat="47.8326" lon="7.2165">
        <ele>261.8</ele>
        <time>2019-08-09T20:16:27Z</time>
      </trkpt>
      <trkpt lat="47.83258" lon="7.21646">
        <ele>261.9</ele>
        <time>2019-08-09T20:16:28Z</time>
      </trkpt>
      <trkpt lat="47.83255" lon="7.21643">
        <ele>261.9</ele>
        <time>2019-08-09T20:16:29Z</time>
      </trkpt>
      <trkpt lat="47.83252" lon="7.2164">
        <ele>262</ele>
        <time>2019-08-09T20:16:30Z</time>
      </trkpt>
      <trkpt lat="47.83249" lon="7.21637">
        <ele>262.1</ele>
        <time>2019-08-09T20:16:31Z</time>
      </trkpt>
      <trkpt lat="47.83245" lon="7.21635">
        <ele>262.1</ele>
        <time>2019-08-09T20:16:32Z</time>
      </trkpt>
      <trkpt lat="47.83242" lon="7.21633">
        <ele>262.2</ele>
        <time>2019-08-09T20:16:33Z</time>
      </trkpt>
      <trkpt lat="47.83239" lon="7.2163">
        <ele>262.2</ele>
        <time>2019-08-09T20:16:34Z</time>
      </trkpt>
      <trkpt lat="47.83237" lon="7.21626">
        <ele>262.3</ele>
        <time>2019-08-09T20:16:35Z</time>
      </trkpt>
      <trkpt lat="47.83234" lon="7.21623">
        <ele>262.3</ele>
        <time>2019-08-09T20:16:36Z</time>
      </trkpt>
      <trkpt lat="47.83232" lon="7.21619">
        <ele>262.3</ele>
        <time>2019-08-09T20:16:37Z</time>
      </trkpt>
      <trkpt lat="47.83229" lon="7.21616">
        <ele>262.3</ele>
        <time>2019-08-09T20:16:38Z</time>
      </trkpt>
      <trkpt lat="47.83227" lon="7.21612">
        <ele>262.3</ele>
        <time>2019-08-09T20:16:39Z</time>
      </trkpt>
      <trkpt lat="47.83225" lon="7.21609">
        <ele>262.3</ele>
        <time>2019-08-09T20:16:40Z</time>
      </trkpt>
      <trkpt lat="47.83222" lon="7.21606">
        <ele>262.3</ele>
        <time>2019-08-09T20:16:41Z</time>
      </trkpt>
      <trkpt lat="47.8322" lon="7.21602">
        <ele>262.3</ele>
        <time>2019-08-09T20:16:42Z</time>
      </trkpt>
      <trkpt lat="47.83217" lon="7.21598">
        <ele>262.3</ele>
        <time>2019-08-09T20:16:43Z</time>
      </trkpt>
      <trkpt lat="47.83213" lon="7.21595">
        <ele>262.3</ele>
        <time>2019-08-09T20:16:44Z</time>
      </trkpt>
      <trkpt lat="47.8321" lon="7.21591">
        <ele>262.4</ele>
        <time>2019-08-09T20:16:45Z</time>
      </trkpt>
      <trkpt lat="47.83206" lon="7.21587">
        <ele>262.4</ele>
        <time>2019-08-09T20:16:46Z</time>
      </trkpt>
      <trkpt lat="47.83203" lon="7.21583">
        <ele>262.4</ele>
        <time>2019-08-09T20:16:47Z</time>
      </trkpt>
      <trkpt lat="47.83201" lon="7.2158">
        <ele>262.4</ele>
        <time>2019-08-09T20:16:48Z</time>
      </trkpt>
      <trkpt lat="47.83198" lon="7.21577">
        <ele>262.5</ele>
        <time>2019-08-09T20:16:49Z</time>
      </trkpt>
      <trkpt lat="47.83196" lon="7.21575">
        <ele>262.5</ele>
        <time>2019-08-09T20:16:50Z</time>
      </trkpt>
      <trkpt lat="47.83193" lon="7.21571">
        <ele>262.5</ele>
        <time>2019-08-09T20:16:51Z</time>
      </trkpt>
      <trkpt lat="47.83191" lon="7.21566">
        <ele>262.6</ele>
        <time>2019-08-09T20:16:52Z</time>
      </trkpt>
      <trkpt lat="47.83188" lon="7.21563">
        <ele>262.7</ele>
        <time>2019-08-09T20:16:53Z</time>
      </trkpt>
      <trkpt lat="47.83185" lon="7.2156">
        <ele>262.7</ele>
        <time>2019-08-09T20:16:54Z</time>
      </trkpt>
      <trkpt lat="47.83182" lon="7.21557">
        <ele>262.8</ele>
        <time>2019-08-09T20:16:55Z</time>
      </trkpt>
      <trkpt lat="47.8318" lon="7.21553">
        <ele>262.9</ele>
        <time>2019-08-09T20:16:56Z</time>
      </trkpt>
      <trkpt lat="47.83177" lon="7.2155">
        <ele>262.9</ele>
        <time>2019-08-09T20:16:57Z</time>
      </trkpt>
      <trkpt lat="47.83174" lon="7.21547">
        <ele>263</ele>
        <time>2019-08-09T20:16:58Z</time>
      </trkpt>
      <trkpt lat="47.83171" lon="7.21544">
        <ele>263.1</ele>
        <time>2019-08-09T20:16:59Z</time>
      </trkpt>
      <trkpt lat="47.83168" lon="7.21541">
        <ele>263.1</ele>
        <time>2019-08-09T20:17:00Z</time>
      </trkpt>
      <trkpt lat="47.83165" lon="7.21538">
        <ele>263.2</ele>
        <time>2019-08-09T20:17:01Z</time>
      </trkpt>
      <trkpt lat="47.83161" lon="7.21534">
        <ele>263.2</ele>
        <time>2019-08-09T20:17:02Z</time>
      </trkpt>
      <trkpt lat="47.83157" lon="7.21531">
        <ele>263.3</ele>
        <time>2019-08-09T20:17:03Z</time>
      </trkpt>
      <trkpt lat="47.83154" lon="7.21529">
        <ele>263.3</ele>
        <time>2019-08-09T20:17:04Z</time>
      </trkpt>
      <trkpt lat="47.83151" lon="7.21526">
        <ele>263.3</ele>
        <time>2019-08-09T20:17:05Z</time>
      </trkpt>
      <trkpt lat="47.83147" lon="7.21523">
        <ele>263.3</ele>
        <time>2019-08-09T20:17:06Z</time>
      </trkpt>
      <trkpt lat="47.83144" lon="7.2152">
        <ele>263.3</ele>
        <time>2019-08-09T20:17:07Z</time>
      </trkpt>
      <trkpt lat="47.83141" lon="7.21517">
        <ele>263.3</ele>
        <time>2019-08-09T20:17:08Z</time>
      </trkpt>
      <trkpt lat="47.83138" lon="7.21514">
        <ele>263.3</ele>
        <time>2019-08-09T20:17:09Z</time>
      </trkpt>
      <trkpt lat="47.83135" lon="7.21512">
        <ele>263.3</ele>
        <time>2019-08-09T20:17:10Z</time>
      </trkpt>
      <trkpt lat="47.83132" lon="7.21509">
        <ele>263.3</ele>
        <time>2019-08-09T20:17:11Z</time>
      </trkpt>
      <trkpt lat="47.83129" lon="7.21505">
        <ele>263.3</ele>
        <time>2019-08-09T20:17:12Z</time>
      </trkpt>
      <trkpt lat="47.83127" lon="7.21502">
        <ele>263.3</ele>
        <time>2019-08-09T20:17:13Z</time>
      </trkpt>
      <trkpt lat="47.83124" lon="7.21499">
        <ele>263.3</ele>
        <time>2019-08-09T20:17:14Z</time>
      </trkpt>
      <trkpt lat="47.83122" lon="7.21495">
        <ele>263.3</ele>
        <time>2019-08-09T20:17:15Z</time>
      </trkpt>
      <trkpt lat="47.83119" lon="7.21491">
        <ele>263.3</ele>
        <time>2019-08-09T20:17:16Z</time>
      </trkpt>
      <trkpt lat="47.83117" lon="7.21487">
        <ele>263.3</ele>
        <time>2019-08-09T20:17:17Z</time>
      </trkpt>
      <trkpt lat="47.83113" lon="7.21485">
        <ele>263.3</ele>
        <time>2019-08-09T20:17:18Z</time>
      </trkpt>
      <trkpt lat="47.83111" lon="7.21481">
        <ele>263.3</ele>
        <time>2019-08-09T20:17:19Z</time>
      </trkpt>
      <trkpt lat="47.83109" lon="7.21477">
        <ele>263.3</ele>
        <time>2019-08-09T20:17:20Z</time>
      </trkpt>
      <trkpt lat="47.83106" lon="7.21474">
        <ele>263.3</ele>
        <time>2019-08-09T20:17:21Z</time>
      </trkpt>
      <trkpt lat="47.83103" lon="7.21471">
        <ele>263.3</ele>
        <time>2019-08-09T20:17:22Z</time>
      </trkpt>
      <trkpt lat="47.83101" lon="7.21469">
        <ele>263.3</ele>
        <time>2019-08-09T20:17:23Z</time>
      </trkpt>
      <trkpt lat="47.83098" lon="7.21464">
        <ele>263.3</ele>
        <time>2019-08-09T20:17:25Z</time>
      </trkpt>
      <trkpt lat="47.83094" lon="7.2146">
        <ele>263.3</ele>
        <time>2019-08-09T20:17:27Z</time>
      </trkpt>
      <trkpt lat="47.83092" lon="7.21458">
        <ele>263.3</ele>
        <time>2019-08-09T20:17:28Z</time>
      </trkpt>
      <trkpt lat="47.83089" lon="7.21455">
        <ele>263.3</ele>
        <time>2019-08-09T20:17:29Z</time>
      </trkpt>
      <trkpt lat="47.83087" lon="7.21453">
        <ele>263.3</ele>
        <time>2019-08-09T20:17:30Z</time>
      </trkpt>
      <trkpt lat="47.83084" lon="7.2145">
        <ele>263.4</ele>
        <time>2019-08-09T20:17:31Z</time>
      </trkpt>
      <trkpt lat="47.83082" lon="7.21446">
        <ele>263.4</ele>
        <time>2019-08-09T20:17:32Z</time>
      </trkpt>
      <trkpt lat="47.83079" lon="7.21443">
        <ele>263.4</ele>
        <time>2019-08-09T20:17:33Z</time>
      </trkpt>
      <trkpt lat="47.83077" lon="7.21439">
        <ele>263.4</ele>
        <time>2019-08-09T20:17:34Z</time>
      </trkpt>
      <trkpt lat="47.83074" lon="7.21436">
        <ele>263.4</ele>
        <time>2019-08-09T20:17:35Z</time>
      </trkpt>
      <trkpt lat="47.83072" lon="7.21432">
        <ele>263.4</ele>
        <time>2019-08-09T20:17:36Z</time>
      </trkpt>
      <trkpt lat="47.83069" lon="7.21429">
        <ele>263.4</ele>
        <time>2019-08-09T20:17:37Z</time>
      </trkpt>
      <trkpt lat="47.83065" lon="7.21428">
        <ele>263.4</ele>
        <time>2019-08-09T20:17:38Z</time>
      </trkpt>
      <trkpt lat="47.83063" lon="7.21425">
        <ele>263.4</ele>
        <time>2019-08-09T20:17:39Z</time>
      </trkpt>
      <trkpt lat="47.8306" lon="7.21422">
        <ele>263.4</ele>
        <time>2019-08-09T20:17:40Z</time>
      </trkpt>
      <trkpt lat="47.83056" lon="7.21418">
        <ele>263.4</ele>
        <time>2019-08-09T20:17:41Z</time>
      </trkpt>
      <trkpt lat="47.83054" lon="7.21414">
        <ele>263.4</ele>
        <time>2019-08-09T20:17:42Z</time>
      </trkpt>
      <trkpt lat="47.83052" lon="7.21411">
        <ele>263.4</ele>
        <time>2019-08-09T20:17:43Z</time>
      </trkpt>
      <trkpt lat="47.8305" lon="7.21408">
        <ele>263.4</ele>
        <time>2019-08-09T20:17:44Z</time>
      </trkpt>
      <trkpt lat="47.83047" lon="7.21406">
        <ele>263.4</ele>
        <time>2019-08-09T20:17:45Z</time>
      </trkpt>
      <trkpt lat="47.83045" lon="7.21403">
        <ele>263.4</ele>
        <time>2019-08-09T20:17:46Z</time>
      </trkpt>
      <trkpt lat="47.83042" lon="7.214">
        <ele>263.4</ele>
        <time>2019-08-09T20:17:47Z</time>
      </trkpt>
      <trkpt lat="47.83039" lon="7.21397">
        <ele>263.4</ele>
        <time>2019-08-09T20:17:48Z</time>
      </trkpt>
      <trkpt lat="47.83037" lon="7.21394">
        <ele>263.4</ele>
        <time>2019-08-09T20:17:49Z</time>
      </trkpt>
      <trkpt lat="47.83033" lon="7.21392">
        <ele>263.4</ele>
        <time>2019-08-09T20:17:50Z</time>
      </trkpt>
      <trkpt lat="47.83031" lon="7.21387">
        <ele>263.4</ele>
        <time>2019-08-09T20:17:51Z</time>
      </trkpt>
      <trkpt lat="47.83025" lon="7.21383">
        <ele>263.4</ele>
        <time>2019-08-09T20:17:53Z</time>
      </trkpt>
      <trkpt lat="47.83023" lon="7.21381">
        <ele>263.4</ele>
        <time>2019-08-09T20:17:54Z</time>
      </trkpt>
      <trkpt lat="47.8302" lon="7.21378">
        <ele>263.4</ele>
        <time>2019-08-09T20:17:55Z</time>
      </trkpt>
      <trkpt lat="47.83017" lon="7.21375">
        <ele>263.4</ele>
        <time>2019-08-09T20:17:56Z</time>
      </trkpt>
      <trkpt lat="47.83015" lon="7.21373">
        <ele>263.4</ele>
        <time>2019-08-09T20:17:57Z</time>
      </trkpt>
      <trkpt lat="47.83012" lon="7.2137">
        <ele>263.4</ele>
        <time>2019-08-09T20:17:58Z</time>
      </trkpt>
      <trkpt lat="47.83008" lon="7.21367">
        <ele>263.4</ele>
        <time>2019-08-09T20:17:59Z</time>
      </trkpt>
      <trkpt lat="47.83005" lon="7.21364">
        <ele>263.4</ele>
        <time>2019-08-09T20:18:00Z</time>
      </trkpt>
      <trkpt lat="47.83002" lon="7.21361">
        <ele>263.4</ele>
        <time>2019-08-09T20:18:01Z</time>
      </trkpt>
      <trkpt lat="47.82999" lon="7.21358">
        <ele>263.4</ele>
        <time>2019-08-09T20:18:02Z</time>
      </trkpt>
      <trkpt lat="47.82996" lon="7.21356">
        <ele>263.4</ele>
        <time>2019-08-09T20:18:03Z</time>
      </trkpt>
      <trkpt lat="47.82993" lon="7.21354">
        <ele>263.4</ele>
        <time>2019-08-09T20:18:04Z</time>
      </trkpt>
      <trkpt lat="47.8299" lon="7.21351">
        <ele>263.4</ele>
        <time>2019-08-09T20:18:05Z</time>
      </trkpt>
      <trkpt lat="47.82986" lon="7.21345">
        <ele>263.4</ele>
        <time>2019-08-09T20:18:07Z</time>
      </trkpt>
      <trkpt lat="47.82983" lon="7.2134">
        <ele>263.4</ele>
        <time>2019-08-09T20:18:08Z</time>
      </trkpt>
      <trkpt lat="47.82982" lon="7.21336">
        <ele>263.4</ele>
        <time>2019-08-09T20:18:09Z</time>
      </trkpt>
      <trkpt lat="47.82979" lon="7.21333">
        <ele>263.4</ele>
        <time>2019-08-09T20:18:10Z</time>
      </trkpt>
      <trkpt lat="47.82976" lon="7.21331">
        <ele>263.4</ele>
        <time>2019-08-09T20:18:11Z</time>
      </trkpt>
      <trkpt lat="47.82972" lon="7.21328">
        <ele>263.4</ele>
        <time>2019-08-09T20:18:12Z</time>
      </trkpt>
      <trkpt lat="47.8297" lon="7.21325">
        <ele>263.4</ele>
        <time>2019-08-09T20:18:13Z</time>
      </trkpt>
      <trkpt lat="47.82967" lon="7.21322">
        <ele>263.4</ele>
        <time>2019-08-09T20:18:14Z</time>
      </trkpt>
      <trkpt lat="47.82964" lon="7.21319">
        <ele>263.4</ele>
        <time>2019-08-09T20:18:15Z</time>
      </trkpt>
      <trkpt lat="47.82962" lon="7.21315">
        <ele>263.4</ele>
        <time>2019-08-09T20:18:16Z</time>
      </trkpt>
      <trkpt lat="47.82959" lon="7.21312">
        <ele>263.5</ele>
        <time>2019-08-09T20:18:17Z</time>
      </trkpt>
      <trkpt lat="47.82956" lon="7.21308">
        <ele>263.5</ele>
        <time>2019-08-09T20:18:18Z</time>
      </trkpt>
      <trkpt lat="47.82953" lon="7.21305">
        <ele>263.6</ele>
        <time>2019-08-09T20:18:19Z</time>
      </trkpt>
      <trkpt lat="47.8295" lon="7.21303">
        <ele>263.6</ele>
        <time>2019-08-09T20:18:20Z</time>
      </trkpt>
      <trkpt lat="47.82947" lon="7.213">
        <ele>263.7</ele>
        <time>2019-08-09T20:18:21Z</time>
      </trkpt>
      <trkpt lat="47.82943" lon="7.21296">
        <ele>263.8</ele>
        <time>2019-08-09T20:18:23Z</time>
      </trkpt>
      <trkpt lat="47.8294" lon="7.21294">
        <ele>263.9</ele>
        <time>2019-08-09T20:18:24Z</time>
      </trkpt>
      <trkpt lat="47.82937" lon="7.2129">
        <ele>264</ele>
        <time>2019-08-09T20:18:25Z</time>
      </trkpt>
      <trkpt lat="47.82935" lon="7.21287">
        <ele>264.1</ele>
        <time>2019-08-09T20:18:26Z</time>
      </trkpt>
      <trkpt lat="47.82932" lon="7.21284">
        <ele>264.2</ele>
        <time>2019-08-09T20:18:27Z</time>
      </trkpt>
      <trkpt lat="47.8293" lon="7.21282">
        <ele>264.3</ele>
        <time>2019-08-09T20:18:28Z</time>
      </trkpt>
      <trkpt lat="47.82927" lon="7.21279">
        <ele>264.3</ele>
        <time>2019-08-09T20:18:29Z</time>
      </trkpt>
      <trkpt lat="47.82923" lon="7.21277">
        <ele>264.4</ele>
        <time>2019-08-09T20:18:30Z</time>
      </trkpt>
      <trkpt lat="47.8292" lon="7.21276">
        <ele>264.5</ele>
        <time>2019-08-09T20:18:31Z</time>
      </trkpt>
      <trkpt lat="47.82918" lon="7.21274">
        <ele>264.6</ele>
        <time>2019-08-09T20:18:32Z</time>
      </trkpt>
      <trkpt lat="47.82916" lon="7.21271">
        <ele>264.7</ele>
        <time>2019-08-09T20:18:33Z</time>
      </trkpt>
      <trkpt lat="47.82914" lon="7.21267">
        <ele>264.7</ele>
        <time>2019-08-09T20:18:34Z</time>
      </trkpt>
      <trkpt lat="47.82911" lon="7.21264">
        <ele>264.8</ele>
        <time>2019-08-09T20:18:35Z</time>
      </trkpt>
      <trkpt lat="47.82908" lon="7.2126">
        <ele>265</ele>
        <time>2019-08-09T20:18:36Z</time>
      </trkpt>
      <trkpt lat="47.82905" lon="7.21257">
        <ele>265</ele>
        <time>2019-08-09T20:18:37Z</time>
      </trkpt>
      <trkpt lat="47.82902" lon="7.21253">
        <ele>265.1</ele>
        <time>2019-08-09T20:18:38Z</time>
      </trkpt>
      <trkpt lat="47.829" lon="7.21251">
        <ele>265.2</ele>
        <time>2019-08-09T20:18:39Z</time>
      </trkpt>
      <trkpt lat="47.82897" lon="7.21247">
        <ele>265.2</ele>
        <time>2019-08-09T20:18:40Z</time>
      </trkpt>
      <trkpt lat="47.82894" lon="7.21244">
        <ele>265.3</ele>
        <time>2019-08-09T20:18:41Z</time>
      </trkpt>
      <trkpt lat="47.82892" lon="7.21242">
        <ele>265.3</ele>
        <time>2019-08-09T20:18:42Z</time>
      </trkpt>
      <trkpt lat="47.82888" lon="7.21237">
        <ele>265.3</ele>
        <time>2019-08-09T20:18:44Z</time>
      </trkpt>
      <trkpt lat="47.82886" lon="7.21234">
        <ele>265.4</ele>
        <time>2019-08-09T20:18:45Z</time>
      </trkpt>
      <trkpt lat="47.82884" lon="7.21231">
        <ele>265.4</ele>
        <time>2019-08-09T20:18:46Z</time>
      </trkpt>
      <trkpt lat="47.82881" lon="7.21228">
        <ele>265.4</ele>
        <time>2019-08-09T20:18:47Z</time>
      </trkpt>
      <trkpt lat="47.82879" lon="7.21226">
        <ele>265.4</ele>
        <time>2019-08-09T20:18:48Z</time>
      </trkpt>
      <trkpt lat="47.82877" lon="7.21223">
        <ele>265.4</ele>
        <time>2019-08-09T20:18:49Z</time>
      </trkpt>
      <trkpt lat="47.82873" lon="7.21218">
        <ele>265.5</ele>
        <time>2019-08-09T20:18:51Z</time>
      </trkpt>
      <trkpt lat="47.8287" lon="7.21215">
        <ele>265.5</ele>
        <time>2019-08-09T20:18:52Z</time>
      </trkpt>
      <trkpt lat="47.82868" lon="7.21213">
        <ele>265.6</ele>
        <time>2019-08-09T20:18:53Z</time>
      </trkpt>
      <trkpt lat="47.82866" lon="7.2121">
        <ele>265.6</ele>
        <time>2019-08-09T20:18:54Z</time>
      </trkpt>
      <trkpt lat="47.82863" lon="7.21207">
        <ele>265.7</ele>
        <time>2019-08-09T20:18:55Z</time>
      </trkpt>
      <trkpt lat="47.8286" lon="7.21204">
        <ele>265.8</ele>
        <time>2019-08-09T20:18:56Z</time>
      </trkpt>
      <trkpt lat="47.82857" lon="7.21201">
        <ele>265.9</ele>
        <time>2019-08-09T20:18:57Z</time>
      </trkpt>
      <trkpt lat="47.82855" lon="7.21198">
        <ele>265.9</ele>
        <time>2019-08-09T20:18:58Z</time>
      </trkpt>
      <trkpt lat="47.82852" lon="7.21195">
        <ele>266</ele>
        <time>2019-08-09T20:18:59Z</time>
      </trkpt>
      <trkpt lat="47.8285" lon="7.21192">
        <ele>266.1</ele>
        <time>2019-08-09T20:19:00Z</time>
      </trkpt>
      <trkpt lat="47.82847" lon="7.2119">
        <ele>266.2</ele>
        <time>2019-08-09T20:19:01Z</time>
      </trkpt>
      <trkpt lat="47.82844" lon="7.21187">
        <ele>266.2</ele>
        <time>2019-08-09T20:19:02Z</time>
      </trkpt>
      <trkpt lat="47.82842" lon="7.21184">
        <ele>266.3</ele>
        <time>2019-08-09T20:19:03Z</time>
      </trkpt>
      <trkpt lat="47.8284" lon="7.21181">
        <ele>266.3</ele>
        <time>2019-08-09T20:19:04Z</time>
      </trkpt>
      <trkpt lat="47.82837" lon="7.21177">
        <ele>266.4</ele>
        <time>2019-08-09T20:19:05Z</time>
      </trkpt>
      <trkpt lat="47.82834" lon="7.21174">
        <ele>266.4</ele>
        <time>2019-08-09T20:19:06Z</time>
      </trkpt>
      <trkpt lat="47.82831" lon="7.21171">
        <ele>266.5</ele>
        <time>2019-08-09T20:19:07Z</time>
      </trkpt>
      <trkpt lat="47.82829" lon="7.21168">
        <ele>266.5</ele>
        <time>2019-08-09T20:19:08Z</time>
      </trkpt>
      <trkpt lat="47.82826" lon="7.21166">
        <ele>266.6</ele>
        <time>2019-08-09T20:19:09Z</time>
      </trkpt>
      <trkpt lat="47.82822" lon="7.2116">
        <ele>266.7</ele>
        <time>2019-08-09T20:19:11Z</time>
      </trkpt>
      <trkpt lat="47.8282" lon="7.21157">
        <ele>266.7</ele>
        <time>2019-08-09T20:19:12Z</time>
      </trkpt>
      <trkpt lat="47.82818" lon="7.21154">
        <ele>266.8</ele>
        <time>2019-08-09T20:19:13Z</time>
      </trkpt>
      <trkpt lat="47.82816" lon="7.21151">
        <ele>266.9</ele>
        <time>2019-08-09T20:19:14Z</time>
      </trkpt>
      <trkpt lat="47.82814" lon="7.21147">
        <ele>266.9</ele>
        <time>2019-08-09T20:19:15Z</time>
      </trkpt>
      <trkpt lat="47.82812" lon="7.21142">
        <ele>267</ele>
        <time>2019-08-09T20:19:16Z</time>
      </trkpt>
      <trkpt lat="47.8281" lon="7.21138">
        <ele>267.1</ele>
        <time>2019-08-09T20:19:17Z</time>
      </trkpt>
      <trkpt lat="47.82809" lon="7.21133">
        <ele>267.2</ele>
        <time>2019-08-09T20:19:18Z</time>
      </trkpt>
      <trkpt lat="47.82807" lon="7.2113">
        <ele>267.2</ele>
        <time>2019-08-09T20:19:19Z</time>
      </trkpt>
      <trkpt lat="47.82806" lon="7.21126">
        <ele>267.3</ele>
        <time>2019-08-09T20:19:20Z</time>
      </trkpt>
      <trkpt lat="47.82803" lon="7.21122">
        <ele>267.3</ele>
        <time>2019-08-09T20:19:21Z</time>
      </trkpt>
      <trkpt lat="47.82801" lon="7.21117">
        <ele>267.4</ele>
        <time>2019-08-09T20:19:22Z</time>
      </trkpt>
      <trkpt lat="47.82799" lon="7.21113">
        <ele>267.4</ele>
        <time>2019-08-09T20:19:23Z</time>
      </trkpt>
      <trkpt lat="47.82797" lon="7.21109">
        <ele>267.4</ele>
        <time>2019-08-09T20:19:24Z</time>
      </trkpt>
      <trkpt lat="47.82795" lon="7.21106">
        <ele>267.5</ele>
        <time>2019-08-09T20:19:25Z</time>
      </trkpt>
      <trkpt lat="47.82793" lon="7.21101">
        <ele>267.5</ele>
        <time>2019-08-09T20:19:26Z</time>
      </trkpt>
      <trkpt lat="47.82791" lon="7.21098">
        <ele>267.6</ele>
        <time>2019-08-09T20:19:27Z</time>
      </trkpt>
      <trkpt lat="47.8279" lon="7.21094">
        <ele>267.6</ele>
        <time>2019-08-09T20:19:28Z</time>
      </trkpt>
      <trkpt lat="47.82788" lon="7.21089">
        <ele>267.7</ele>
        <time>2019-08-09T20:19:29Z</time>
      </trkpt>
      <trkpt lat="47.82786" lon="7.21085">
        <ele>267.7</ele>
        <time>2019-08-09T20:19:30Z</time>
      </trkpt>
      <trkpt lat="47.82784" lon="7.21081">
        <ele>267.8</ele>
        <time>2019-08-09T20:19:31Z</time>
      </trkpt>
      <trkpt lat="47.82781" lon="7.21077">
        <ele>267.9</ele>
        <time>2019-08-09T20:19:32Z</time>
      </trkpt>
      <trkpt lat="47.82779" lon="7.21073">
        <ele>268</ele>
        <time>2019-08-09T20:19:33Z</time>
      </trkpt>
      <trkpt lat="47.82777" lon="7.21069">
        <ele>268</ele>
        <time>2019-08-09T20:19:34Z</time>
      </trkpt>
      <trkpt lat="47.82775" lon="7.21066">
        <ele>268.1</ele>
        <time>2019-08-09T20:19:35Z</time>
      </trkpt>
      <trkpt lat="47.82773" lon="7.21062">
        <ele>268.1</ele>
        <time>2019-08-09T20:19:36Z</time>
      </trkpt>
      <trkpt lat="47.82772" lon="7.21057">
        <ele>268.2</ele>
        <time>2019-08-09T20:19:37Z</time>
      </trkpt>
      <trkpt lat="47.8277" lon="7.21052">
        <ele>268.3</ele>
        <time>2019-08-09T20:19:38Z</time>
      </trkpt>
      <trkpt lat="47.82768" lon="7.21047">
        <ele>268.3</ele>
        <time>2019-08-09T20:19:39Z</time>
      </trkpt>
      <trkpt lat="47.82766" lon="7.21044">
        <ele>268.3</ele>
        <time>2019-08-09T20:19:40Z</time>
      </trkpt>
      <trkpt lat="47.82764" lon="7.2104">
        <ele>268.4</ele>
        <time>2019-08-09T20:19:41Z</time>
      </trkpt>
      <trkpt lat="47.82762" lon="7.21035">
        <ele>268.4</ele>
        <time>2019-08-09T20:19:42Z</time>
      </trkpt>
      <trkpt lat="47.8276" lon="7.21031">
        <ele>268.4</ele>
        <time>2019-08-09T20:19:43Z</time>
      </trkpt>
      <trkpt lat="47.82759" lon="7.21027">
        <ele>268.4</ele>
        <time>2019-08-09T20:19:44Z</time>
      </trkpt>
      <trkpt lat="47.82757" lon="7.21023">
        <ele>268.4</ele>
        <time>2019-08-09T20:19:45Z</time>
      </trkpt>
      <trkpt lat="47.82755" lon="7.21018">
        <ele>268.4</ele>
        <time>2019-08-09T20:19:46Z</time>
      </trkpt>
      <trkpt lat="47.82753" lon="7.21014">
        <ele>268.4</ele>
        <time>2019-08-09T20:19:47Z</time>
      </trkpt>
      <trkpt lat="47.8275" lon="7.21009">
        <ele>268.4</ele>
        <time>2019-08-09T20:19:48Z</time>
      </trkpt>
      <trkpt lat="47.82748" lon="7.21005">
        <ele>268.4</ele>
        <time>2019-08-09T20:19:49Z</time>
      </trkpt>
      <trkpt lat="47.82746" lon="7.21001">
        <ele>268.4</ele>
        <time>2019-08-09T20:19:50Z</time>
      </trkpt>
      <trkpt lat="47.82745" lon="7.20997">
        <ele>268.4</ele>
        <time>2019-08-09T20:19:51Z</time>
      </trkpt>
      <trkpt lat="47.82742" lon="7.20992">
        <ele>268.4</ele>
        <time>2019-08-09T20:19:52Z</time>
      </trkpt>
      <trkpt lat="47.8274" lon="7.20988">
        <ele>268.4</ele>
        <time>2019-08-09T20:19:53Z</time>
      </trkpt>
      <trkpt lat="47.82738" lon="7.20984">
        <ele>268.4</ele>
        <time>2019-08-09T20:19:54Z</time>
      </trkpt>
      <trkpt lat="47.82735" lon="7.2098">
        <ele>268.4</ele>
        <time>2019-08-09T20:19:55Z</time>
      </trkpt>
      <trkpt lat="47.82733" lon="7.20975">
        <ele>268.4</ele>
        <time>2019-08-09T20:19:56Z</time>
      </trkpt>
      <trkpt lat="47.82731" lon="7.20971">
        <ele>268.4</ele>
        <time>2019-08-09T20:19:57Z</time>
      </trkpt>
      <trkpt lat="47.82729" lon="7.20967">
        <ele>268.4</ele>
        <time>2019-08-09T20:19:58Z</time>
      </trkpt>
      <trkpt lat="47.82727" lon="7.20962">
        <ele>268.4</ele>
        <time>2019-08-09T20:19:59Z</time>
      </trkpt>
      <trkpt lat="47.82725" lon="7.20958">
        <ele>268.4</ele>
        <time>2019-08-09T20:20:00Z</time>
      </trkpt>
      <trkpt lat="47.82723" lon="7.20953">
        <ele>268.4</ele>
        <time>2019-08-09T20:20:01Z</time>
      </trkpt>
      <trkpt lat="47.82721" lon="7.20949">
        <ele>268.4</ele>
        <time>2019-08-09T20:20:02Z</time>
      </trkpt>
      <trkpt lat="47.82719" lon="7.20945">
        <ele>268.4</ele>
        <time>2019-08-09T20:20:03Z</time>
      </trkpt>
      <trkpt lat="47.82718" lon="7.20941">
        <ele>268.4</ele>
        <time>2019-08-09T20:20:04Z</time>
      </trkpt>
      <trkpt lat="47.82715" lon="7.20938">
        <ele>268.4</ele>
        <time>2019-08-09T20:20:05Z</time>
      </trkpt>
      <trkpt lat="47.82713" lon="7.20934">
        <ele>268.4</ele>
        <time>2019-08-09T20:20:06Z</time>
      </trkpt>
      <trkpt lat="47.82711" lon="7.2093">
        <ele>268.5</ele>
        <time>2019-08-09T20:20:07Z</time>
      </trkpt>
      <trkpt lat="47.82709" lon="7.20926">
        <ele>268.5</ele>
        <time>2019-08-09T20:20:08Z</time>
      </trkpt>
      <trkpt lat="47.82708" lon="7.20921">
        <ele>268.5</ele>
        <time>2019-08-09T20:20:09Z</time>
      </trkpt>
      <trkpt lat="47.82706" lon="7.20917">
        <ele>268.5</ele>
        <time>2019-08-09T20:20:10Z</time>
      </trkpt>
      <trkpt lat="47.82704" lon="7.20913">
        <ele>268.5</ele>
        <time>2019-08-09T20:20:11Z</time>
      </trkpt>
      <trkpt lat="47.82702" lon="7.20909">
        <ele>268.5</ele>
        <time>2019-08-09T20:20:12Z</time>
      </trkpt>
      <trkpt lat="47.827" lon="7.20905">
        <ele>268.5</ele>
        <time>2019-08-09T20:20:13Z</time>
      </trkpt>
      <trkpt lat="47.82699" lon="7.20901">
        <ele>268.6</ele>
        <time>2019-08-09T20:20:14Z</time>
      </trkpt>
      <trkpt lat="47.82697" lon="7.20897">
        <ele>268.6</ele>
        <time>2019-08-09T20:20:15Z</time>
      </trkpt>
      <trkpt lat="47.82695" lon="7.20893">
        <ele>268.6</ele>
        <time>2019-08-09T20:20:16Z</time>
      </trkpt>
      <trkpt lat="47.82694" lon="7.20889">
        <ele>268.7</ele>
        <time>2019-08-09T20:20:17Z</time>
      </trkpt>
      <trkpt lat="47.82692" lon="7.20885">
        <ele>268.7</ele>
        <time>2019-08-09T20:20:18Z</time>
      </trkpt>
      <trkpt lat="47.82691" lon="7.20881">
        <ele>268.8</ele>
        <time>2019-08-09T20:20:19Z</time>
      </trkpt>
      <trkpt lat="47.8269" lon="7.20876">
        <ele>268.9</ele>
        <time>2019-08-09T20:20:20Z</time>
      </trkpt>
      <trkpt lat="47.82689" lon="7.20872">
        <ele>268.9</ele>
        <time>2019-08-09T20:20:21Z</time>
      </trkpt>
      <trkpt lat="47.82687" lon="7.20869">
        <ele>269</ele>
        <time>2019-08-09T20:20:22Z</time>
      </trkpt>
      <trkpt lat="47.82684" lon="7.20863">
        <ele>269.1</ele>
        <time>2019-08-09T20:20:24Z</time>
      </trkpt>
      <trkpt lat="47.82682" lon="7.20859">
        <ele>269.2</ele>
        <time>2019-08-09T20:20:25Z</time>
      </trkpt>
      <trkpt lat="47.82681" lon="7.20855">
        <ele>269.2</ele>
        <time>2019-08-09T20:20:26Z</time>
      </trkpt>
      <trkpt lat="47.82679" lon="7.20851">
        <ele>269.3</ele>
        <time>2019-08-09T20:20:27Z</time>
      </trkpt>
      <trkpt lat="47.82678" lon="7.20847">
        <ele>269.4</ele>
        <time>2019-08-09T20:20:28Z</time>
      </trkpt>
      <trkpt lat="47.82675" lon="7.20844">
        <ele>269.5</ele>
        <time>2019-08-09T20:20:29Z</time>
      </trkpt>
      <trkpt lat="47.82673" lon="7.2084">
        <ele>269.6</ele>
        <time>2019-08-09T20:20:30Z</time>
      </trkpt>
      <trkpt lat="47.82672" lon="7.20836">
        <ele>269.7</ele>
        <time>2019-08-09T20:20:31Z</time>
      </trkpt>
      <trkpt lat="47.82669" lon="7.20833">
        <ele>269.9</ele>
        <time>2019-08-09T20:20:32Z</time>
      </trkpt>
      <trkpt lat="47.82667" lon="7.2083">
        <ele>270</ele>
        <time>2019-08-09T20:20:33Z</time>
      </trkpt>
      <trkpt lat="47.82665" lon="7.20827">
        <ele>270.1</ele>
        <time>2019-08-09T20:20:34Z</time>
      </trkpt>
      <trkpt lat="47.82663" lon="7.20824">
        <ele>270.3</ele>
        <time>2019-08-09T20:20:35Z</time>
      </trkpt>
      <trkpt lat="47.82661" lon="7.2082">
        <ele>270.4</ele>
        <time>2019-08-09T20:20:36Z</time>
      </trkpt>
      <trkpt lat="47.82659" lon="7.20817">
        <ele>270.6</ele>
        <time>2019-08-09T20:20:37Z</time>
      </trkpt>
      <trkpt lat="47.82658" lon="7.20812">
        <ele>270.7</ele>
        <time>2019-08-09T20:20:38Z</time>
      </trkpt>
      <trkpt lat="47.82656" lon="7.20809">
        <ele>270.9</ele>
        <time>2019-08-09T20:20:39Z</time>
      </trkpt>
      <trkpt lat="47.82656" lon="7.20803">
        <ele>271.2</ele>
        <time>2019-08-09T20:20:41Z</time>
      </trkpt>
      <trkpt lat="47.82656" lon="7.20798">
        <ele>271.4</ele>
        <time>2019-08-09T20:20:43Z</time>
      </trkpt>
      <trkpt lat="47.82657" lon="7.20792">
        <ele>271.5</ele>
        <time>2019-08-09T20:20:45Z</time>
      </trkpt>
      <trkpt lat="47.82661" lon="7.20789">
        <ele>271.5</ele>
        <time>2019-08-09T20:20:47Z</time>
      </trkpt>
      <trkpt lat="47.82665" lon="7.20786">
        <ele>271.6</ele>
        <time>2019-08-09T20:20:49Z</time>
      </trkpt>
      <trkpt lat="47.82669" lon="7.20782">
        <ele>271.6</ele>
        <time>2019-08-09T20:20:51Z</time>
      </trkpt>
      <trkpt lat="47.82672" lon="7.20779">
        <ele>271.6</ele>
        <time>2019-08-09T20:20:52Z</time>
      </trkpt>
      <trkpt lat="47.82675" lon="7.20777">
        <ele>271.7</ele>
        <time>2019-08-09T20:20:53Z</time>
      </trkpt>
      <trkpt lat="47.82678" lon="7.20774">
        <ele>271.7</ele>
        <time>2019-08-09T20:20:54Z</time>
      </trkpt>
      <trkpt lat="47.82681" lon="7.20771">
        <ele>271.7</ele>
        <time>2019-08-09T20:20:55Z</time>
      </trkpt>
      <trkpt lat="47.82683" lon="7.20768">
        <ele>271.8</ele>
        <time>2019-08-09T20:20:56Z</time>
      </trkpt>
      <trkpt lat="47.82685" lon="7.20765">
        <ele>271.8</ele>
        <time>2019-08-09T20:20:57Z</time>
      </trkpt>
      <trkpt lat="47.82688" lon="7.20762">
        <ele>271.8</ele>
        <time>2019-08-09T20:20:58Z</time>
      </trkpt>
      <trkpt lat="47.82691" lon="7.2076">
        <ele>271.8</ele>
        <time>2019-08-09T20:20:59Z</time>
      </trkpt>
      <trkpt lat="47.82694" lon="7.20757">
        <ele>271.9</ele>
        <time>2019-08-09T20:21:00Z</time>
      </trkpt>
      <trkpt lat="47.82697" lon="7.20753">
        <ele>271.9</ele>
        <time>2019-08-09T20:21:01Z</time>
      </trkpt>
      <trkpt lat="47.827" lon="7.2075">
        <ele>271.9</ele>
        <time>2019-08-09T20:21:02Z</time>
      </trkpt>
      <trkpt lat="47.82702" lon="7.20748">
        <ele>272</ele>
        <time>2019-08-09T20:21:03Z</time>
      </trkpt>
      <trkpt lat="47.82705" lon="7.20745">
        <ele>272</ele>
        <time>2019-08-09T20:21:04Z</time>
      </trkpt>
      <trkpt lat="47.82707" lon="7.20743">
        <ele>272</ele>
        <time>2019-08-09T20:21:05Z</time>
      </trkpt>
      <trkpt lat="47.82709" lon="7.2074">
        <ele>272</ele>
        <time>2019-08-09T20:21:06Z</time>
      </trkpt>
      <trkpt lat="47.82712" lon="7.20737">
        <ele>272.1</ele>
        <time>2019-08-09T20:21:07Z</time>
      </trkpt>
      <trkpt lat="47.82715" lon="7.20734">
        <ele>272.1</ele>
        <time>2019-08-09T20:21:08Z</time>
      </trkpt>
      <trkpt lat="47.82718" lon="7.20731">
        <ele>272.1</ele>
        <time>2019-08-09T20:21:09Z</time>
      </trkpt>
      <trkpt lat="47.8272" lon="7.20728">
        <ele>272.1</ele>
        <time>2019-08-09T20:21:10Z</time>
      </trkpt>
      <trkpt lat="47.82723" lon="7.20725">
        <ele>272.2</ele>
        <time>2019-08-09T20:21:11Z</time>
      </trkpt>
      <trkpt lat="47.82725" lon="7.20722">
        <ele>272.2</ele>
        <time>2019-08-09T20:21:12Z</time>
      </trkpt>
      <trkpt lat="47.82728" lon="7.20719">
        <ele>272.2</ele>
        <time>2019-08-09T20:21:13Z</time>
      </trkpt>
      <trkpt lat="47.8273" lon="7.20716">
        <ele>272.2</ele>
        <time>2019-08-09T20:21:14Z</time>
      </trkpt>
      <trkpt lat="47.82732" lon="7.20713">
        <ele>272.3</ele>
        <time>2019-08-09T20:21:15Z</time>
      </trkpt>
      <trkpt lat="47.82735" lon="7.2071">
        <ele>272.3</ele>
        <time>2019-08-09T20:21:16Z</time>
      </trkpt>
      <trkpt lat="47.82737" lon="7.20707">
        <ele>272.3</ele>
        <time>2019-08-09T20:21:17Z</time>
      </trkpt>
      <trkpt lat="47.8274" lon="7.20704">
        <ele>272.3</ele>
        <time>2019-08-09T20:21:18Z</time>
      </trkpt>
      <trkpt lat="47.82742" lon="7.20701">
        <ele>272.4</ele>
        <time>2019-08-09T20:21:19Z</time>
      </trkpt>
      <trkpt lat="47.82745" lon="7.20697">
        <ele>272.4</ele>
        <time>2019-08-09T20:21:20Z</time>
      </trkpt>
      <trkpt lat="47.82748" lon="7.20694">
        <ele>272.4</ele>
        <time>2019-08-09T20:21:21Z</time>
      </trkpt>
      <trkpt lat="47.82751" lon="7.20691">
        <ele>272.5</ele>
        <time>2019-08-09T20:21:22Z</time>
      </trkpt>
      <trkpt lat="47.82753" lon="7.20688">
        <ele>272.5</ele>
        <time>2019-08-09T20:21:23Z</time>
      </trkpt>
      <trkpt lat="47.82756" lon="7.20685">
        <ele>272.5</ele>
        <time>2019-08-09T20:21:24Z</time>
      </trkpt>
      <trkpt lat="47.82759" lon="7.20681">
        <ele>272.5</ele>
        <time>2019-08-09T20:21:25Z</time>
      </trkpt>
      <trkpt lat="47.82762" lon="7.20678">
        <ele>272.6</ele>
        <time>2019-08-09T20:21:26Z</time>
      </trkpt>
      <trkpt lat="47.82764" lon="7.20675">
        <ele>272.6</ele>
        <time>2019-08-09T20:21:27Z</time>
      </trkpt>
      <trkpt lat="47.82767" lon="7.20672">
        <ele>272.6</ele>
        <time>2019-08-09T20:21:28Z</time>
      </trkpt>
      <trkpt lat="47.82769" lon="7.2067">
        <ele>272.7</ele>
        <time>2019-08-09T20:21:29Z</time>
      </trkpt>
      <trkpt lat="47.82772" lon="7.20667">
        <ele>272.7</ele>
        <time>2019-08-09T20:21:30Z</time>
      </trkpt>
      <trkpt lat="47.82775" lon="7.20664">
        <ele>272.7</ele>
        <time>2019-08-09T20:21:31Z</time>
      </trkpt>
      <trkpt lat="47.82777" lon="7.20661">
        <ele>272.7</ele>
        <time>2019-08-09T20:21:32Z</time>
      </trkpt>
      <trkpt lat="47.8278" lon="7.20659">
        <ele>272.8</ele>
        <time>2019-08-09T20:21:33Z</time>
      </trkpt>
      <trkpt lat="47.82784" lon="7.20655">
        <ele>272.8</ele>
        <time>2019-08-09T20:21:35Z</time>
      </trkpt>
      <trkpt lat="47.82786" lon="7.20652">
        <ele>272.9</ele>
        <time>2019-08-09T20:21:36Z</time>
      </trkpt>
      <trkpt lat="47.82789" lon="7.20649">
        <ele>272.9</ele>
        <time>2019-08-09T20:21:37Z</time>
      </trkpt>
      <trkpt lat="47.82792" lon="7.20646">
        <ele>272.9</ele>
        <time>2019-08-09T20:21:38Z</time>
      </trkpt>
      <trkpt lat="47.82794" lon="7.20643">
        <ele>273</ele>
        <time>2019-08-09T20:21:39Z</time>
      </trkpt>
      <trkpt lat="47.82797" lon="7.2064">
        <ele>273</ele>
        <time>2019-08-09T20:21:40Z</time>
      </trkpt>
      <trkpt lat="47.828" lon="7.20637">
        <ele>273.1</ele>
        <time>2019-08-09T20:21:41Z</time>
      </trkpt>
      <trkpt lat="47.82803" lon="7.20634">
        <ele>273.1</ele>
        <time>2019-08-09T20:21:42Z</time>
      </trkpt>
      <trkpt lat="47.82806" lon="7.2063">
        <ele>273.2</ele>
        <time>2019-08-09T20:21:43Z</time>
      </trkpt>
      <trkpt lat="47.82809" lon="7.20628">
        <ele>273.2</ele>
        <time>2019-08-09T20:21:44Z</time>
      </trkpt>
      <trkpt lat="47.82812" lon="7.20625">
        <ele>273.3</ele>
        <time>2019-08-09T20:21:45Z</time>
      </trkpt>
      <trkpt lat="47.82815" lon="7.20621">
        <ele>273.3</ele>
        <time>2019-08-09T20:21:46Z</time>
      </trkpt>
      <trkpt lat="47.82818" lon="7.20618">
        <ele>273.3</ele>
        <time>2019-08-09T20:21:47Z</time>
      </trkpt>
      <trkpt lat="47.82821" lon="7.20614">
        <ele>273.4</ele>
        <time>2019-08-09T20:21:48Z</time>
      </trkpt>
      <trkpt lat="47.82824" lon="7.20611">
        <ele>273.4</ele>
        <time>2019-08-09T20:21:49Z</time>
      </trkpt>
      <trkpt lat="47.82827" lon="7.20608">
        <ele>273.5</ele>
        <time>2019-08-09T20:21:50Z</time>
      </trkpt>
      <trkpt lat="47.8283" lon="7.20605">
        <ele>273.5</ele>
        <time>2019-08-09T20:21:51Z</time>
      </trkpt>
      <trkpt lat="47.82833" lon="7.20602">
        <ele>273.6</ele>
        <time>2019-08-09T20:21:52Z</time>
      </trkpt>
      <trkpt lat="47.82836" lon="7.20599">
        <ele>273.6</ele>
        <time>2019-08-09T20:21:53Z</time>
      </trkpt>
      <trkpt lat="47.82839" lon="7.20596">
        <ele>273.6</ele>
        <time>2019-08-09T20:21:54Z</time>
      </trkpt>
      <trkpt lat="47.82842" lon="7.20593">
        <ele>273.7</ele>
        <time>2019-08-09T20:21:55Z</time>
      </trkpt>
      <trkpt lat="47.82844" lon="7.20591">
        <ele>273.7</ele>
        <time>2019-08-09T20:21:56Z</time>
      </trkpt>
      <trkpt lat="47.82847" lon="7.20588">
        <ele>273.7</ele>
        <time>2019-08-09T20:21:57Z</time>
      </trkpt>
      <trkpt lat="47.82849" lon="7.20585">
        <ele>273.8</ele>
        <time>2019-08-09T20:21:58Z</time>
      </trkpt>
      <trkpt lat="47.82852" lon="7.20583">
        <ele>273.8</ele>
        <time>2019-08-09T20:21:59Z</time>
      </trkpt>
      <trkpt lat="47.82855" lon="7.2058">
        <ele>273.8</ele>
        <time>2019-08-09T20:22:00Z</time>
      </trkpt>
      <trkpt lat="47.82858" lon="7.20577">
        <ele>273.9</ele>
        <time>2019-08-09T20:22:01Z</time>
      </trkpt>
      <trkpt lat="47.82861" lon="7.20574">
        <ele>273.9</ele>
        <time>2019-08-09T20:22:02Z</time>
      </trkpt>
      <trkpt lat="47.82863" lon="7.20571">
        <ele>274</ele>
        <time>2019-08-09T20:22:03Z</time>
      </trkpt>
      <trkpt lat="47.82866" lon="7.20569">
        <ele>274</ele>
        <time>2019-08-09T20:22:04Z</time>
      </trkpt>
      <trkpt lat="47.82868" lon="7.20566">
        <ele>274</ele>
        <time>2019-08-09T20:22:05Z</time>
      </trkpt>
      <trkpt lat="47.82871" lon="7.20563">
        <ele>274.1</ele>
        <time>2019-08-09T20:22:06Z</time>
      </trkpt>
      <trkpt lat="47.82874" lon="7.2056">
        <ele>274.1</ele>
        <time>2019-08-09T20:22:07Z</time>
      </trkpt>
      <trkpt lat="47.82877" lon="7.20557">
        <ele>274.2</ele>
        <time>2019-08-09T20:22:08Z</time>
      </trkpt>
      <trkpt lat="47.8288" lon="7.20553">
        <ele>274.3</ele>
        <time>2019-08-09T20:22:09Z</time>
      </trkpt>
      <trkpt lat="47.82883" lon="7.2055">
        <ele>274.3</ele>
        <time>2019-08-09T20:22:10Z</time>
      </trkpt>
      <trkpt lat="47.82887" lon="7.20546">
        <ele>274.4</ele>
        <time>2019-08-09T20:22:11Z</time>
      </trkpt>
      <trkpt lat="47.82889" lon="7.20543">
        <ele>274.5</ele>
        <time>2019-08-09T20:22:12Z</time>
      </trkpt>
      <trkpt lat="47.82892" lon="7.2054">
        <ele>274.5</ele>
        <time>2019-08-09T20:22:13Z</time>
      </trkpt>
      <trkpt lat="47.82895" lon="7.20537">
        <ele>274.6</ele>
        <time>2019-08-09T20:22:14Z</time>
      </trkpt>
      <trkpt lat="47.82898" lon="7.20534">
        <ele>274.7</ele>
        <time>2019-08-09T20:22:15Z</time>
      </trkpt>
      <trkpt lat="47.82901" lon="7.20531">
        <ele>274.7</ele>
        <time>2019-08-09T20:22:16Z</time>
      </trkpt>
      <trkpt lat="47.82904" lon="7.20527">
        <ele>274.8</ele>
        <time>2019-08-09T20:22:17Z</time>
      </trkpt>
      <trkpt lat="47.82906" lon="7.20524">
        <ele>274.9</ele>
        <time>2019-08-09T20:22:18Z</time>
      </trkpt>
      <trkpt lat="47.82909" lon="7.2052">
        <ele>274.9</ele>
        <time>2019-08-09T20:22:19Z</time>
      </trkpt>
      <trkpt lat="47.82912" lon="7.20516">
        <ele>275</ele>
        <time>2019-08-09T20:22:20Z</time>
      </trkpt>
      <trkpt lat="47.82915" lon="7.20512">
        <ele>275.1</ele>
        <time>2019-08-09T20:22:21Z</time>
      </trkpt>
      <trkpt lat="47.82918" lon="7.20509">
        <ele>275.1</ele>
        <time>2019-08-09T20:22:22Z</time>
      </trkpt>
      <trkpt lat="47.82921" lon="7.20506">
        <ele>275.2</ele>
        <time>2019-08-09T20:22:23Z</time>
      </trkpt>
      <trkpt lat="47.82923" lon="7.20503">
        <ele>275.3</ele>
        <time>2019-08-09T20:22:24Z</time>
      </trkpt>
      <trkpt lat="47.82926" lon="7.205">
        <ele>275.3</ele>
        <time>2019-08-09T20:22:25Z</time>
      </trkpt>
      <trkpt lat="47.82929" lon="7.20497">
        <ele>275.4</ele>
        <time>2019-08-09T20:22:26Z</time>
      </trkpt>
      <trkpt lat="47.82932" lon="7.20493">
        <ele>275.5</ele>
        <time>2019-08-09T20:22:27Z</time>
      </trkpt>
      <trkpt lat="47.82935" lon="7.2049">
        <ele>275.6</ele>
        <time>2019-08-09T20:22:28Z</time>
      </trkpt>
      <trkpt lat="47.82937" lon="7.20487">
        <ele>275.6</ele>
        <time>2019-08-09T20:22:29Z</time>
      </trkpt>
      <trkpt lat="47.82942" lon="7.20483">
        <ele>275.7</ele>
        <time>2019-08-09T20:22:31Z</time>
      </trkpt>
      <trkpt lat="47.82944" lon="7.20479">
        <ele>275.8</ele>
        <time>2019-08-09T20:22:32Z</time>
      </trkpt>
      <trkpt lat="47.82947" lon="7.20476">
        <ele>275.9</ele>
        <time>2019-08-09T20:22:33Z</time>
      </trkpt>
      <trkpt lat="47.82949" lon="7.20473">
        <ele>276</ele>
        <time>2019-08-09T20:22:34Z</time>
      </trkpt>
      <trkpt lat="47.82951" lon="7.2047">
        <ele>276</ele>
        <time>2019-08-09T20:22:35Z</time>
      </trkpt>
      <trkpt lat="47.82954" lon="7.20467">
        <ele>276.1</ele>
        <time>2019-08-09T20:22:36Z</time>
      </trkpt>
      <trkpt lat="47.82956" lon="7.20464">
        <ele>276.2</ele>
        <time>2019-08-09T20:22:37Z</time>
      </trkpt>
      <trkpt lat="47.82959" lon="7.20461">
        <ele>276.2</ele>
        <time>2019-08-09T20:22:38Z</time>
      </trkpt>
      <trkpt lat="47.82962" lon="7.20458">
        <ele>276.3</ele>
        <time>2019-08-09T20:22:39Z</time>
      </trkpt>
      <trkpt lat="47.82965" lon="7.20454">
        <ele>276.4</ele>
        <time>2019-08-09T20:22:40Z</time>
      </trkpt>
      <trkpt lat="47.82967" lon="7.2045">
        <ele>276.5</ele>
        <time>2019-08-09T20:22:41Z</time>
      </trkpt>
      <trkpt lat="47.8297" lon="7.20447">
        <ele>276.6</ele>
        <time>2019-08-09T20:22:42Z</time>
      </trkpt>
      <trkpt lat="47.82973" lon="7.20444">
        <ele>276.7</ele>
        <time>2019-08-09T20:22:43Z</time>
      </trkpt>
      <trkpt lat="47.82976" lon="7.20441">
        <ele>276.7</ele>
        <time>2019-08-09T20:22:44Z</time>
      </trkpt>
      <trkpt lat="47.82978" lon="7.20438">
        <ele>276.8</ele>
        <time>2019-08-09T20:22:45Z</time>
      </trkpt>
      <trkpt lat="47.82981" lon="7.20435">
        <ele>276.9</ele>
        <time>2019-08-09T20:22:46Z</time>
      </trkpt>
      <trkpt lat="47.82983" lon="7.20432">
        <ele>277</ele>
        <time>2019-08-09T20:22:47Z</time>
      </trkpt>
      <trkpt lat="47.82986" lon="7.20429">
        <ele>277.1</ele>
        <time>2019-08-09T20:22:48Z</time>
      </trkpt>
      <trkpt lat="47.82988" lon="7.20425">
        <ele>277.1</ele>
        <time>2019-08-09T20:22:49Z</time>
      </trkpt>
      <trkpt lat="47.82991" lon="7.20422">
        <ele>277.2</ele>
        <time>2019-08-09T20:22:50Z</time>
      </trkpt>
      <trkpt lat="47.82994" lon="7.20418">
        <ele>277.3</ele>
        <time>2019-08-09T20:22:51Z</time>
      </trkpt>
      <trkpt lat="47.82996" lon="7.20415">
        <ele>277.4</ele>
        <time>2019-08-09T20:22:52Z</time>
      </trkpt>
      <trkpt lat="47.82999" lon="7.20412">
        <ele>277.5</ele>
        <time>2019-08-09T20:22:53Z</time>
      </trkpt>
      <trkpt lat="47.83002" lon="7.20409">
        <ele>277.6</ele>
        <time>2019-08-09T20:22:54Z</time>
      </trkpt>
      <trkpt lat="47.83004" lon="7.20406">
        <ele>277.6</ele>
        <time>2019-08-09T20:22:55Z</time>
      </trkpt>
      <trkpt lat="47.83007" lon="7.20402">
        <ele>277.7</ele>
        <time>2019-08-09T20:22:56Z</time>
      </trkpt>
      <trkpt lat="47.83009" lon="7.20399">
        <ele>277.8</ele>
        <time>2019-08-09T20:22:57Z</time>
      </trkpt>
      <trkpt lat="47.83012" lon="7.20396">
        <ele>277.9</ele>
        <time>2019-08-09T20:22:58Z</time>
      </trkpt>
      <trkpt lat="47.83014" lon="7.20392">
        <ele>278</ele>
        <time>2019-08-09T20:22:59Z</time>
      </trkpt>
      <trkpt lat="47.83017" lon="7.20389">
        <ele>278.1</ele>
        <time>2019-08-09T20:23:00Z</time>
      </trkpt>
      <trkpt lat="47.83019" lon="7.20386">
        <ele>278.1</ele>
        <time>2019-08-09T20:23:01Z</time>
      </trkpt>
      <trkpt lat="47.83022" lon="7.20383">
        <ele>278.2</ele>
        <time>2019-08-09T20:23:02Z</time>
      </trkpt>
      <trkpt lat="47.83024" lon="7.2038">
        <ele>278.3</ele>
        <time>2019-08-09T20:23:03Z</time>
      </trkpt>
      <trkpt lat="47.83027" lon="7.20376">
        <ele>278.4</ele>
        <time>2019-08-09T20:23:04Z</time>
      </trkpt>
      <trkpt lat="47.83029" lon="7.20373">
        <ele>278.5</ele>
        <time>2019-08-09T20:23:05Z</time>
      </trkpt>
      <trkpt lat="47.83032" lon="7.20369">
        <ele>278.6</ele>
        <time>2019-08-09T20:23:06Z</time>
      </trkpt>
      <trkpt lat="47.83034" lon="7.20366">
        <ele>278.6</ele>
        <time>2019-08-09T20:23:07Z</time>
      </trkpt>
      <trkpt lat="47.83037" lon="7.20363">
        <ele>278.7</ele>
        <time>2019-08-09T20:23:08Z</time>
      </trkpt>
      <trkpt lat="47.8304" lon="7.2036">
        <ele>278.8</ele>
        <time>2019-08-09T20:23:09Z</time>
      </trkpt>
      <trkpt lat="47.83042" lon="7.20356">
        <ele>278.9</ele>
        <time>2019-08-09T20:23:10Z</time>
      </trkpt>
      <trkpt lat="47.83045" lon="7.20353">
        <ele>279</ele>
        <time>2019-08-09T20:23:11Z</time>
      </trkpt>
      <trkpt lat="47.83048" lon="7.2035">
        <ele>279.1</ele>
        <time>2019-08-09T20:23:12Z</time>
      </trkpt>
      <trkpt lat="47.8305" lon="7.20346">
        <ele>279.1</ele>
        <time>2019-08-09T20:23:13Z</time>
      </trkpt>
      <trkpt lat="47.83053" lon="7.20343">
        <ele>279.2</ele>
        <time>2019-08-09T20:23:14Z</time>
      </trkpt>
      <trkpt lat="47.83056" lon="7.2034">
        <ele>279.3</ele>
        <time>2019-08-09T20:23:15Z</time>
      </trkpt>
      <trkpt lat="47.83059" lon="7.20337">
        <ele>279.4</ele>
        <time>2019-08-09T20:23:16Z</time>
      </trkpt>
      <trkpt lat="47.83062" lon="7.20333">
        <ele>279.5</ele>
        <time>2019-08-09T20:23:17Z</time>
      </trkpt>
      <trkpt lat="47.83064" lon="7.2033">
        <ele>279.6</ele>
        <time>2019-08-09T20:23:18Z</time>
      </trkpt>
      <trkpt lat="47.83067" lon="7.20327">
        <ele>279.6</ele>
        <time>2019-08-09T20:23:19Z</time>
      </trkpt>
      <trkpt lat="47.83069" lon="7.20324">
        <ele>279.7</ele>
        <time>2019-08-09T20:23:20Z</time>
      </trkpt>
      <trkpt lat="47.83072" lon="7.20321">
        <ele>279.8</ele>
        <time>2019-08-09T20:23:21Z</time>
      </trkpt>
      <trkpt lat="47.83074" lon="7.20318">
        <ele>279.8</ele>
        <time>2019-08-09T20:23:22Z</time>
      </trkpt>
      <trkpt lat="47.83076" lon="7.20315">
        <ele>279.9</ele>
        <time>2019-08-09T20:23:23Z</time>
      </trkpt>
      <trkpt lat="47.83079" lon="7.20312">
        <ele>280</ele>
        <time>2019-08-09T20:23:24Z</time>
      </trkpt>
      <trkpt lat="47.83082" lon="7.20309">
        <ele>280.1</ele>
        <time>2019-08-09T20:23:25Z</time>
      </trkpt>
      <trkpt lat="47.83085" lon="7.20305">
        <ele>280.2</ele>
        <time>2019-08-09T20:23:26Z</time>
      </trkpt>
      <trkpt lat="47.83087" lon="7.20302">
        <ele>280.3</ele>
        <time>2019-08-09T20:23:27Z</time>
      </trkpt>
      <trkpt lat="47.8309" lon="7.203">
        <ele>280.3</ele>
        <time>2019-08-09T20:23:28Z</time>
      </trkpt>
      <trkpt lat="47.83092" lon="7.20297">
        <ele>280.4</ele>
        <time>2019-08-09T20:23:29Z</time>
      </trkpt>
      <trkpt lat="47.83095" lon="7.20294">
        <ele>280.5</ele>
        <time>2019-08-09T20:23:30Z</time>
      </trkpt>
      <trkpt lat="47.83098" lon="7.2029">
        <ele>280.6</ele>
        <time>2019-08-09T20:23:31Z</time>
      </trkpt>
      <trkpt lat="47.831" lon="7.20288">
        <ele>280.6</ele>
        <time>2019-08-09T20:23:32Z</time>
      </trkpt>
      <trkpt lat="47.83103" lon="7.20285">
        <ele>280.7</ele>
        <time>2019-08-09T20:23:33Z</time>
      </trkpt>
      <trkpt lat="47.83106" lon="7.20282">
        <ele>280.8</ele>
        <time>2019-08-09T20:23:34Z</time>
      </trkpt>
      <trkpt lat="47.83109" lon="7.20279">
        <ele>280.9</ele>
        <time>2019-08-09T20:23:35Z</time>
      </trkpt>
      <trkpt lat="47.83112" lon="7.20276">
        <ele>281</ele>
        <time>2019-08-09T20:23:36Z</time>
      </trkpt>
      <trkpt lat="47.83115" lon="7.20273">
        <ele>281.1</ele>
        <time>2019-08-09T20:23:37Z</time>
      </trkpt>
      <trkpt lat="47.83117" lon="7.20271">
        <ele>281.1</ele>
        <time>2019-08-09T20:23:38Z</time>
      </trkpt>
      <trkpt lat="47.83119" lon="7.20268">
        <ele>281.2</ele>
        <time>2019-08-09T20:23:39Z</time>
      </trkpt>
      <trkpt lat="47.83122" lon="7.20266">
        <ele>281.3</ele>
        <time>2019-08-09T20:23:40Z</time>
      </trkpt>
      <trkpt lat="47.83124" lon="7.20263">
        <ele>281.4</ele>
        <time>2019-08-09T20:23:41Z</time>
      </trkpt>
      <trkpt lat="47.83127" lon="7.20261">
        <ele>281.4</ele>
        <time>2019-08-09T20:23:42Z</time>
      </trkpt>
      <trkpt lat="47.8313" lon="7.20258">
        <ele>281.5</ele>
        <time>2019-08-09T20:23:43Z</time>
      </trkpt>
      <trkpt lat="47.83132" lon="7.20255">
        <ele>281.6</ele>
        <time>2019-08-09T20:23:44Z</time>
      </trkpt>
      <trkpt lat="47.83134" lon="7.20252">
        <ele>281.7</ele>
        <time>2019-08-09T20:23:45Z</time>
      </trkpt>
      <trkpt lat="47.83136" lon="7.20249">
        <ele>281.7</ele>
        <time>2019-08-09T20:23:46Z</time>
      </trkpt>
      <trkpt lat="47.83137" lon="7.20246">
        <ele>281.8</ele>
        <time>2019-08-09T20:23:47Z</time>
      </trkpt>
      <trkpt lat="47.83139" lon="7.20242">
        <ele>281.9</ele>
        <time>2019-08-09T20:23:48Z</time>
      </trkpt>
      <trkpt lat="47.8314" lon="7.20238">
        <ele>281.9</ele>
        <time>2019-08-09T20:23:49Z</time>
      </trkpt>
      <trkpt lat="47.83142" lon="7.20231">
        <ele>282</ele>
        <time>2019-08-09T20:23:51Z</time>
      </trkpt>
      <trkpt lat="47.83143" lon="7.20223">
        <ele>282.2</ele>
        <time>2019-08-09T20:23:53Z</time>
      </trkpt>
      <trkpt lat="47.83144" lon="7.20218">
        <ele>282.2</ele>
        <time>2019-08-09T20:23:54Z</time>
      </trkpt>
      <trkpt lat="47.83145" lon="7.20214">
        <ele>282.3</ele>
        <time>2019-08-09T20:23:55Z</time>
      </trkpt>
      <trkpt lat="47.83145" lon="7.2021">
        <ele>282.4</ele>
        <time>2019-08-09T20:23:56Z</time>
      </trkpt>
      <trkpt lat="47.83145" lon="7.20206">
        <ele>282.4</ele>
        <time>2019-08-09T20:23:57Z</time>
      </trkpt>
      <trkpt lat="47.83146" lon="7.20199">
        <ele>282.5</ele>
        <time>2019-08-09T20:23:59Z</time>
      </trkpt>
      <trkpt lat="47.83146" lon="7.20191">
        <ele>282.6</ele>
        <time>2019-08-09T20:24:01Z</time>
      </trkpt>
      <trkpt lat="47.83146" lon="7.20183">
        <ele>282.7</ele>
        <time>2019-08-09T20:24:03Z</time>
      </trkpt>
      <trkpt lat="47.83146" lon="7.20179">
        <ele>282.7</ele>
        <time>2019-08-09T20:24:04Z</time>
      </trkpt>
      <trkpt lat="47.83145" lon="7.20174">
        <ele>282.7</ele>
        <time>2019-08-09T20:24:05Z</time>
      </trkpt>
      <trkpt lat="47.83144" lon="7.2017">
        <ele>282.7</ele>
        <time>2019-08-09T20:24:06Z</time>
      </trkpt>
      <trkpt lat="47.83144" lon="7.20166">
        <ele>282.8</ele>
        <time>2019-08-09T20:24:07Z</time>
      </trkpt>
      <trkpt lat="47.83143" lon="7.20162">
        <ele>282.8</ele>
        <time>2019-08-09T20:24:08Z</time>
      </trkpt>
      <trkpt lat="47.83143" lon="7.20157">
        <ele>282.8</ele>
        <time>2019-08-09T20:24:09Z</time>
      </trkpt>
      <trkpt lat="47.83142" lon="7.20153">
        <ele>282.8</ele>
        <time>2019-08-09T20:24:10Z</time>
      </trkpt>
      <trkpt lat="47.83141" lon="7.20145">
        <ele>282.8</ele>
        <time>2019-08-09T20:24:12Z</time>
      </trkpt>
      <trkpt lat="47.8314" lon="7.20141">
        <ele>282.9</ele>
        <time>2019-08-09T20:24:13Z</time>
      </trkpt>
      <trkpt lat="47.83139" lon="7.20136">
        <ele>282.9</ele>
        <time>2019-08-09T20:24:14Z</time>
      </trkpt>
      <trkpt lat="47.83138" lon="7.20132">
        <ele>282.9</ele>
        <time>2019-08-09T20:24:15Z</time>
      </trkpt>
      <trkpt lat="47.83137" lon="7.20128">
        <ele>282.9</ele>
        <time>2019-08-09T20:24:16Z</time>
      </trkpt>
      <trkpt lat="47.83136" lon="7.20124">
        <ele>282.9</ele>
        <time>2019-08-09T20:24:17Z</time>
      </trkpt>
      <trkpt lat="47.83134" lon="7.2012">
        <ele>283</ele>
        <time>2019-08-09T20:24:18Z</time>
      </trkpt>
      <trkpt lat="47.83133" lon="7.20116">
        <ele>283</ele>
        <time>2019-08-09T20:24:19Z</time>
      </trkpt>
      <trkpt lat="47.83131" lon="7.20112">
        <ele>283</ele>
        <time>2019-08-09T20:24:20Z</time>
      </trkpt>
      <trkpt lat="47.8313" lon="7.20108">
        <ele>283</ele>
        <time>2019-08-09T20:24:21Z</time>
      </trkpt>
      <trkpt lat="47.83127" lon="7.20101">
        <ele>283.1</ele>
        <time>2019-08-09T20:24:23Z</time>
      </trkpt>
      <trkpt lat="47.83126" lon="7.20097">
        <ele>283.1</ele>
        <time>2019-08-09T20:24:24Z</time>
      </trkpt>
      <trkpt lat="47.83124" lon="7.20093">
        <ele>283.1</ele>
        <time>2019-08-09T20:24:25Z</time>
      </trkpt>
      <trkpt lat="47.83123" lon="7.2009">
        <ele>283.1</ele>
        <time>2019-08-09T20:24:26Z</time>
      </trkpt>
      <trkpt lat="47.83121" lon="7.20084">
        <ele>283.2</ele>
        <time>2019-08-09T20:24:28Z</time>
      </trkpt>
      <trkpt lat="47.83119" lon="7.2008">
        <ele>283.2</ele>
        <time>2019-08-09T20:24:29Z</time>
      </trkpt>
      <trkpt lat="47.83115" lon="7.20074">
        <ele>283.2</ele>
        <time>2019-08-09T20:24:31Z</time>
      </trkpt>
      <trkpt lat="47.83112" lon="7.20068">
        <ele>283.3</ele>
        <time>2019-08-09T20:24:33Z</time>
      </trkpt>
      <trkpt lat="47.83109" lon="7.2006">
        <ele>283.3</ele>
        <time>2019-08-09T20:24:35Z</time>
      </trkpt>
      <trkpt lat="47.83107" lon="7.20056">
        <ele>283.3</ele>
        <time>2019-08-09T20:24:36Z</time>
      </trkpt>
      <trkpt lat="47.83106" lon="7.20052">
        <ele>283.3</ele>
        <time>2019-08-09T20:24:37Z</time>
      </trkpt>
      <trkpt lat="47.83105" lon="7.20048">
        <ele>283.4</ele>
        <time>2019-08-09T20:24:38Z</time>
      </trkpt>
      <trkpt lat="47.83103" lon="7.20044">
        <ele>283.4</ele>
        <time>2019-08-09T20:24:39Z</time>
      </trkpt>
      <trkpt lat="47.83101" lon="7.20041">
        <ele>283.4</ele>
        <time>2019-08-09T20:24:40Z</time>
      </trkpt>
      <trkpt lat="47.831" lon="7.20038">
        <ele>283.4</ele>
        <time>2019-08-09T20:24:41Z</time>
      </trkpt>
      <trkpt lat="47.83098" lon="7.20034">
        <ele>283.4</ele>
        <time>2019-08-09T20:24:42Z</time>
      </trkpt>
      <trkpt lat="47.83097" lon="7.2003">
        <ele>283.5</ele>
        <time>2019-08-09T20:24:43Z</time>
      </trkpt>
      <trkpt lat="47.83095" lon="7.20026">
        <ele>283.5</ele>
        <time>2019-08-09T20:24:44Z</time>
      </trkpt>
      <trkpt lat="47.83092" lon="7.20021">
        <ele>283.5</ele>
        <time>2019-08-09T20:24:46Z</time>
      </trkpt>
      <trkpt lat="47.83089" lon="7.20017">
        <ele>283.5</ele>
        <time>2019-08-09T20:24:54Z</time>
      </trkpt>
      <trkpt lat="47.83084" lon="7.20013">
        <ele>283.6</ele>
        <time>2019-08-09T20:24:56Z</time>
      </trkpt>
      <trkpt lat="47.8308" lon="7.20007">
        <ele>283.6</ele>
        <time>2019-08-09T20:24:58Z</time>
      </trkpt>
      <trkpt lat="47.83079" lon="7.20002">
        <ele>283.7</ele>
        <time>2019-08-09T20:24:59Z</time>
      </trkpt>
      <trkpt lat="47.83077" lon="7.19998">
        <ele>283.7</ele>
        <time>2019-08-09T20:25:00Z</time>
      </trkpt>
      <trkpt lat="47.83075" lon="7.19995">
        <ele>283.7</ele>
        <time>2019-08-09T20:25:01Z</time>
      </trkpt>
      <trkpt lat="47.83073" lon="7.19991">
        <ele>283.7</ele>
        <time>2019-08-09T20:25:02Z</time>
      </trkpt>
      <trkpt lat="47.83071" lon="7.19986">
        <ele>283.8</ele>
        <time>2019-08-09T20:25:03Z</time>
      </trkpt>
      <trkpt lat="47.83069" lon="7.19983">
        <ele>283.8</ele>
        <time>2019-08-09T20:25:04Z</time>
      </trkpt>
      <trkpt lat="47.83066" lon="7.19979">
        <ele>283.8</ele>
        <time>2019-08-09T20:25:05Z</time>
      </trkpt>
      <trkpt lat="47.83064" lon="7.19976">
        <ele>283.9</ele>
        <time>2019-08-09T20:25:06Z</time>
      </trkpt>
      <trkpt lat="47.83063" lon="7.19972">
        <ele>283.9</ele>
        <time>2019-08-09T20:25:07Z</time>
      </trkpt>
      <trkpt lat="47.83061" lon="7.19968">
        <ele>283.9</ele>
        <time>2019-08-09T20:25:08Z</time>
      </trkpt>
      <trkpt lat="47.83059" lon="7.19964">
        <ele>284</ele>
        <time>2019-08-09T20:25:09Z</time>
      </trkpt>
      <trkpt lat="47.83056" lon="7.1996">
        <ele>284</ele>
        <time>2019-08-09T20:25:10Z</time>
      </trkpt>
      <trkpt lat="47.83054" lon="7.19956">
        <ele>284</ele>
        <time>2019-08-09T20:25:11Z</time>
      </trkpt>
      <trkpt lat="47.83052" lon="7.19952">
        <ele>284.1</ele>
        <time>2019-08-09T20:25:12Z</time>
      </trkpt>
      <trkpt lat="47.8305" lon="7.19947">
        <ele>284.1</ele>
        <time>2019-08-09T20:25:13Z</time>
      </trkpt>
      <trkpt lat="47.83047" lon="7.19943">
        <ele>284.1</ele>
        <time>2019-08-09T20:25:14Z</time>
      </trkpt>
      <trkpt lat="47.83045" lon="7.19939">
        <ele>284.1</ele>
        <time>2019-08-09T20:25:15Z</time>
      </trkpt>
      <trkpt lat="47.83043" lon="7.19935">
        <ele>284.2</ele>
        <time>2019-08-09T20:25:16Z</time>
      </trkpt>
      <trkpt lat="47.83041" lon="7.19931">
        <ele>284.2</ele>
        <time>2019-08-09T20:25:17Z</time>
      </trkpt>
      <trkpt lat="47.83039" lon="7.19927">
        <ele>284.2</ele>
        <time>2019-08-09T20:25:18Z</time>
      </trkpt>
      <trkpt lat="47.83036" lon="7.19924">
        <ele>284.2</ele>
        <time>2019-08-09T20:25:19Z</time>
      </trkpt>
      <trkpt lat="47.83034" lon="7.1992">
        <ele>284.3</ele>
        <time>2019-08-09T20:25:20Z</time>
      </trkpt>
      <trkpt lat="47.83033" lon="7.19917">
        <ele>284.3</ele>
        <time>2019-08-09T20:25:21Z</time>
      </trkpt>
      <trkpt lat="47.83031" lon="7.19914">
        <ele>284.3</ele>
        <time>2019-08-09T20:25:22Z</time>
      </trkpt>
      <trkpt lat="47.83029" lon="7.1991">
        <ele>284.3</ele>
        <time>2019-08-09T20:25:23Z</time>
      </trkpt>
      <trkpt lat="47.83027" lon="7.19907">
        <ele>284.3</ele>
        <time>2019-08-09T20:25:24Z</time>
      </trkpt>
      <trkpt lat="47.83025" lon="7.19904">
        <ele>284.4</ele>
        <time>2019-08-09T20:25:25Z</time>
      </trkpt>
      <trkpt lat="47.83023" lon="7.19901">
        <ele>284.4</ele>
        <time>2019-08-09T20:25:26Z</time>
      </trkpt>
      <trkpt lat="47.83021" lon="7.19898">
        <ele>284.4</ele>
        <time>2019-08-09T20:25:27Z</time>
      </trkpt>
      <trkpt lat="47.8302" lon="7.19894">
        <ele>284.5</ele>
        <time>2019-08-09T20:25:28Z</time>
      </trkpt>
      <trkpt lat="47.83017" lon="7.19891">
        <ele>284.5</ele>
        <time>2019-08-09T20:25:29Z</time>
      </trkpt>
      <trkpt lat="47.83016" lon="7.19887">
        <ele>284.5</ele>
        <time>2019-08-09T20:25:30Z</time>
      </trkpt>
      <trkpt lat="47.83014" lon="7.19884">
        <ele>284.5</ele>
        <time>2019-08-09T20:25:31Z</time>
      </trkpt>
      <trkpt lat="47.83012" lon="7.19881">
        <ele>284.6</ele>
        <time>2019-08-09T20:25:32Z</time>
      </trkpt>
      <trkpt lat="47.8301" lon="7.19877">
        <ele>284.6</ele>
        <time>2019-08-09T20:25:33Z</time>
      </trkpt>
      <trkpt lat="47.83008" lon="7.19874">
        <ele>284.6</ele>
        <time>2019-08-09T20:25:34Z</time>
      </trkpt>
      <trkpt lat="47.83005" lon="7.1987">
        <ele>284.7</ele>
        <time>2019-08-09T20:25:35Z</time>
      </trkpt>
      <trkpt lat="47.83003" lon="7.19866">
        <ele>284.7</ele>
        <time>2019-08-09T20:25:36Z</time>
      </trkpt>
      <trkpt lat="47.83001" lon="7.19863">
        <ele>284.7</ele>
        <time>2019-08-09T20:25:37Z</time>
      </trkpt>
      <trkpt lat="47.82999" lon="7.19859">
        <ele>284.8</ele>
        <time>2019-08-09T20:25:38Z</time>
      </trkpt>
      <trkpt lat="47.82997" lon="7.19855">
        <ele>284.8</ele>
        <time>2019-08-09T20:25:39Z</time>
      </trkpt>
      <trkpt lat="47.82995" lon="7.19852">
        <ele>284.8</ele>
        <time>2019-08-09T20:25:40Z</time>
      </trkpt>
      <trkpt lat="47.82992" lon="7.19848">
        <ele>284.9</ele>
        <time>2019-08-09T20:25:41Z</time>
      </trkpt>
      <trkpt lat="47.8299" lon="7.19843">
        <ele>284.9</ele>
        <time>2019-08-09T20:25:42Z</time>
      </trkpt>
      <trkpt lat="47.82988" lon="7.19839">
        <ele>284.9</ele>
        <time>2019-08-09T20:25:43Z</time>
      </trkpt>
      <trkpt lat="47.82986" lon="7.19836">
        <ele>285</ele>
        <time>2019-08-09T20:25:44Z</time>
      </trkpt>
      <trkpt lat="47.82984" lon="7.19832">
        <ele>285</ele>
        <time>2019-08-09T20:25:45Z</time>
      </trkpt>
      <trkpt lat="47.82982" lon="7.19828">
        <ele>285</ele>
        <time>2019-08-09T20:25:46Z</time>
      </trkpt>
      <trkpt lat="47.8298" lon="7.19825">
        <ele>285.1</ele>
        <time>2019-08-09T20:25:47Z</time>
      </trkpt>
      <trkpt lat="47.82978" lon="7.19821">
        <ele>285.1</ele>
        <time>2019-08-09T20:25:48Z</time>
      </trkpt>
      <trkpt lat="47.82976" lon="7.19817">
        <ele>285.1</ele>
        <time>2019-08-09T20:25:49Z</time>
      </trkpt>
      <trkpt lat="47.82974" lon="7.19814">
        <ele>285.1</ele>
        <time>2019-08-09T20:25:50Z</time>
      </trkpt>
      <trkpt lat="47.82972" lon="7.1981">
        <ele>285.1</ele>
        <time>2019-08-09T20:25:51Z</time>
      </trkpt>
      <trkpt lat="47.82969" lon="7.19805">
        <ele>285.2</ele>
        <time>2019-08-09T20:25:52Z</time>
      </trkpt>
      <trkpt lat="47.82967" lon="7.19801">
        <ele>285.2</ele>
        <time>2019-08-09T20:25:53Z</time>
      </trkpt>
      <trkpt lat="47.82965" lon="7.19797">
        <ele>285.2</ele>
        <time>2019-08-09T20:25:54Z</time>
      </trkpt>
      <trkpt lat="47.82963" lon="7.19792">
        <ele>285.2</ele>
        <time>2019-08-09T20:25:55Z</time>
      </trkpt>
      <trkpt lat="47.8296" lon="7.19788">
        <ele>285.2</ele>
        <time>2019-08-09T20:25:56Z</time>
      </trkpt>
      <trkpt lat="47.82958" lon="7.19784">
        <ele>285.3</ele>
        <time>2019-08-09T20:25:57Z</time>
      </trkpt>
      <trkpt lat="47.82955" lon="7.1978">
        <ele>285.3</ele>
        <time>2019-08-09T20:25:58Z</time>
      </trkpt>
      <trkpt lat="47.82953" lon="7.19776">
        <ele>285.3</ele>
        <time>2019-08-09T20:25:59Z</time>
      </trkpt>
      <trkpt lat="47.82951" lon="7.19771">
        <ele>285.3</ele>
        <time>2019-08-09T20:26:00Z</time>
      </trkpt>
      <trkpt lat="47.82949" lon="7.19767">
        <ele>285.4</ele>
        <time>2019-08-09T20:26:01Z</time>
      </trkpt>
      <trkpt lat="47.82947" lon="7.19763">
        <ele>285.4</ele>
        <time>2019-08-09T20:26:02Z</time>
      </trkpt>
      <trkpt lat="47.82945" lon="7.19759">
        <ele>285.4</ele>
        <time>2019-08-09T20:26:03Z</time>
      </trkpt>
      <trkpt lat="47.82943" lon="7.19755">
        <ele>285.4</ele>
        <time>2019-08-09T20:26:04Z</time>
      </trkpt>
      <trkpt lat="47.82941" lon="7.19751">
        <ele>285.4</ele>
        <time>2019-08-09T20:26:05Z</time>
      </trkpt>
      <trkpt lat="47.82939" lon="7.19747">
        <ele>285.5</ele>
        <time>2019-08-09T20:26:06Z</time>
      </trkpt>
      <trkpt lat="47.82937" lon="7.19743">
        <ele>285.5</ele>
        <time>2019-08-09T20:26:07Z</time>
      </trkpt>
      <trkpt lat="47.82936" lon="7.19739">
        <ele>285.5</ele>
        <time>2019-08-09T20:26:08Z</time>
      </trkpt>
      <trkpt lat="47.82934" lon="7.19734">
        <ele>285.5</ele>
        <time>2019-08-09T20:26:09Z</time>
      </trkpt>
      <trkpt lat="47.82932" lon="7.1973">
        <ele>285.5</ele>
        <time>2019-08-09T20:26:10Z</time>
      </trkpt>
      <trkpt lat="47.8293" lon="7.19726">
        <ele>285.6</ele>
        <time>2019-08-09T20:26:11Z</time>
      </trkpt>
      <trkpt lat="47.82927" lon="7.19722">
        <ele>285.6</ele>
        <time>2019-08-09T20:26:12Z</time>
      </trkpt>
      <trkpt lat="47.82925" lon="7.19718">
        <ele>285.6</ele>
        <time>2019-08-09T20:26:13Z</time>
      </trkpt>
      <trkpt lat="47.82923" lon="7.19714">
        <ele>285.6</ele>
        <time>2019-08-09T20:26:14Z</time>
      </trkpt>
      <trkpt lat="47.82922" lon="7.19711">
        <ele>285.7</ele>
        <time>2019-08-09T20:26:15Z</time>
      </trkpt>
      <trkpt lat="47.8292" lon="7.19707">
        <ele>285.7</ele>
        <time>2019-08-09T20:26:16Z</time>
      </trkpt>
      <trkpt lat="47.82917" lon="7.19702">
        <ele>285.7</ele>
        <time>2019-08-09T20:26:17Z</time>
      </trkpt>
      <trkpt lat="47.82915" lon="7.19698">
        <ele>285.8</ele>
        <time>2019-08-09T20:26:18Z</time>
      </trkpt>
      <trkpt lat="47.82913" lon="7.19694">
        <ele>285.8</ele>
        <time>2019-08-09T20:26:19Z</time>
      </trkpt>
      <trkpt lat="47.82912" lon="7.1969">
        <ele>285.8</ele>
        <time>2019-08-09T20:26:20Z</time>
      </trkpt>
      <trkpt lat="47.8291" lon="7.19686">
        <ele>285.9</ele>
        <time>2019-08-09T20:26:21Z</time>
      </trkpt>
      <trkpt lat="47.82909" lon="7.19681">
        <ele>285.9</ele>
        <time>2019-08-09T20:26:22Z</time>
      </trkpt>
      <trkpt lat="47.82908" lon="7.19677">
        <ele>285.9</ele>
        <time>2019-08-09T20:26:23Z</time>
      </trkpt>
      <trkpt lat="47.82906" lon="7.19673">
        <ele>286</ele>
        <time>2019-08-09T20:26:24Z</time>
      </trkpt>
      <trkpt lat="47.82904" lon="7.19668">
        <ele>286</ele>
        <time>2019-08-09T20:26:25Z</time>
      </trkpt>
      <trkpt lat="47.82902" lon="7.19664">
        <ele>286.1</ele>
        <time>2019-08-09T20:26:26Z</time>
      </trkpt>
      <trkpt lat="47.829" lon="7.1966">
        <ele>286.1</ele>
        <time>2019-08-09T20:26:27Z</time>
      </trkpt>
      <trkpt lat="47.82898" lon="7.19657">
        <ele>286.2</ele>
        <time>2019-08-09T20:26:28Z</time>
      </trkpt>
      <trkpt lat="47.82896" lon="7.19653">
        <ele>286.2</ele>
        <time>2019-08-09T20:26:29Z</time>
      </trkpt>
      <trkpt lat="47.82894" lon="7.19649">
        <ele>286.2</ele>
        <time>2019-08-09T20:26:30Z</time>
      </trkpt>
      <trkpt lat="47.82893" lon="7.19645">
        <ele>286.3</ele>
        <time>2019-08-09T20:26:31Z</time>
      </trkpt>
      <trkpt lat="47.82891" lon="7.19641">
        <ele>286.3</ele>
        <time>2019-08-09T20:26:32Z</time>
      </trkpt>
      <trkpt lat="47.82889" lon="7.19638">
        <ele>286.4</ele>
        <time>2019-08-09T20:26:33Z</time>
      </trkpt>
      <trkpt lat="47.82888" lon="7.19634">
        <ele>286.4</ele>
        <time>2019-08-09T20:26:34Z</time>
      </trkpt>
      <trkpt lat="47.82887" lon="7.1963">
        <ele>286.5</ele>
        <time>2019-08-09T20:26:35Z</time>
      </trkpt>
      <trkpt lat="47.82885" lon="7.19625">
        <ele>286.5</ele>
        <time>2019-08-09T20:26:36Z</time>
      </trkpt>
      <trkpt lat="47.82883" lon="7.19622">
        <ele>286.6</ele>
        <time>2019-08-09T20:26:37Z</time>
      </trkpt>
      <trkpt lat="47.82882" lon="7.19617">
        <ele>286.6</ele>
        <time>2019-08-09T20:26:38Z</time>
      </trkpt>
      <trkpt lat="47.8288" lon="7.19613">
        <ele>286.7</ele>
        <time>2019-08-09T20:26:39Z</time>
      </trkpt>
      <trkpt lat="47.82878" lon="7.19609">
        <ele>286.8</ele>
        <time>2019-08-09T20:26:40Z</time>
      </trkpt>
      <trkpt lat="47.82875" lon="7.19602">
        <ele>286.9</ele>
        <time>2019-08-09T20:26:42Z</time>
      </trkpt>
      <trkpt lat="47.82873" lon="7.19598">
        <ele>286.9</ele>
        <time>2019-08-09T20:26:43Z</time>
      </trkpt>
      <trkpt lat="47.82871" lon="7.19594">
        <ele>287</ele>
        <time>2019-08-09T20:26:44Z</time>
      </trkpt>
      <trkpt lat="47.82869" lon="7.19591">
        <ele>287</ele>
        <time>2019-08-09T20:26:45Z</time>
      </trkpt>
      <trkpt lat="47.82868" lon="7.19587">
        <ele>287.1</ele>
        <time>2019-08-09T20:26:46Z</time>
      </trkpt>
      <trkpt lat="47.82866" lon="7.19583">
        <ele>287.1</ele>
        <time>2019-08-09T20:26:47Z</time>
      </trkpt>
      <trkpt lat="47.82864" lon="7.19579">
        <ele>287.2</ele>
        <time>2019-08-09T20:26:48Z</time>
      </trkpt>
      <trkpt lat="47.82862" lon="7.19574">
        <ele>287.2</ele>
        <time>2019-08-09T20:26:49Z</time>
      </trkpt>
      <trkpt lat="47.8286" lon="7.1957">
        <ele>287.3</ele>
        <time>2019-08-09T20:26:50Z</time>
      </trkpt>
      <trkpt lat="47.82858" lon="7.19566">
        <ele>287.3</ele>
        <time>2019-08-09T20:26:51Z</time>
      </trkpt>
      <trkpt lat="47.82856" lon="7.19562">
        <ele>287.4</ele>
        <time>2019-08-09T20:26:52Z</time>
      </trkpt>
      <trkpt lat="47.82854" lon="7.19558">
        <ele>287.4</ele>
        <time>2019-08-09T20:26:53Z</time>
      </trkpt>
      <trkpt lat="47.82852" lon="7.19555">
        <ele>287.5</ele>
        <time>2019-08-09T20:26:54Z</time>
      </trkpt>
      <trkpt lat="47.8285" lon="7.19551">
        <ele>287.5</ele>
        <time>2019-08-09T20:26:55Z</time>
      </trkpt>
      <trkpt lat="47.82849" lon="7.19547">
        <ele>287.6</ele>
        <time>2019-08-09T20:26:56Z</time>
      </trkpt>
      <trkpt lat="47.82847" lon="7.19543">
        <ele>287.6</ele>
        <time>2019-08-09T20:26:57Z</time>
      </trkpt>
      <trkpt lat="47.82844" lon="7.19539">
        <ele>287.7</ele>
        <time>2019-08-09T20:26:58Z</time>
      </trkpt>
      <trkpt lat="47.82843" lon="7.19535">
        <ele>287.7</ele>
        <time>2019-08-09T20:26:59Z</time>
      </trkpt>
      <trkpt lat="47.82841" lon="7.19531">
        <ele>287.8</ele>
        <time>2019-08-09T20:27:00Z</time>
      </trkpt>
      <trkpt lat="47.82838" lon="7.19528">
        <ele>287.9</ele>
        <time>2019-08-09T20:27:01Z</time>
      </trkpt>
      <trkpt lat="47.82836" lon="7.19525">
        <ele>287.9</ele>
        <time>2019-08-09T20:27:02Z</time>
      </trkpt>
      <trkpt lat="47.82835" lon="7.19521">
        <ele>288</ele>
        <time>2019-08-09T20:27:03Z</time>
      </trkpt>
      <trkpt lat="47.82833" lon="7.19518">
        <ele>288</ele>
        <time>2019-08-09T20:27:04Z</time>
      </trkpt>
      <trkpt lat="47.82831" lon="7.19515">
        <ele>288.1</ele>
        <time>2019-08-09T20:27:05Z</time>
      </trkpt>
      <trkpt lat="47.82828" lon="7.19509">
        <ele>288.1</ele>
        <time>2019-08-09T20:27:07Z</time>
      </trkpt>
      <trkpt lat="47.82826" lon="7.19505">
        <ele>288.2</ele>
        <time>2019-08-09T20:27:08Z</time>
      </trkpt>
      <trkpt lat="47.82824" lon="7.19502">
        <ele>288.2</ele>
        <time>2019-08-09T20:27:09Z</time>
      </trkpt>
      <trkpt lat="47.82822" lon="7.19499">
        <ele>288.3</ele>
        <time>2019-08-09T20:27:10Z</time>
      </trkpt>
      <trkpt lat="47.82819" lon="7.19497">
        <ele>288.3</ele>
        <time>2019-08-09T20:27:11Z</time>
      </trkpt>
      <trkpt lat="47.82816" lon="7.19494">
        <ele>288.4</ele>
        <time>2019-08-09T20:27:12Z</time>
      </trkpt>
      <trkpt lat="47.82813" lon="7.19491">
        <ele>288.4</ele>
        <time>2019-08-09T20:27:13Z</time>
      </trkpt>
      <trkpt lat="47.82811" lon="7.19488">
        <ele>288.4</ele>
        <time>2019-08-09T20:27:14Z</time>
      </trkpt>
      <trkpt lat="47.82808" lon="7.19485">
        <ele>288.5</ele>
        <time>2019-08-09T20:27:15Z</time>
      </trkpt>
      <trkpt lat="47.82805" lon="7.19482">
        <ele>288.5</ele>
        <time>2019-08-09T20:27:16Z</time>
      </trkpt>
      <trkpt lat="47.82802" lon="7.19478">
        <ele>288.5</ele>
        <time>2019-08-09T20:27:17Z</time>
      </trkpt>
      <trkpt lat="47.828" lon="7.19475">
        <ele>288.6</ele>
        <time>2019-08-09T20:27:18Z</time>
      </trkpt>
      <trkpt lat="47.82797" lon="7.19472">
        <ele>288.6</ele>
        <time>2019-08-09T20:27:19Z</time>
      </trkpt>
      <trkpt lat="47.82795" lon="7.19469">
        <ele>288.6</ele>
        <time>2019-08-09T20:27:20Z</time>
      </trkpt>
      <trkpt lat="47.82792" lon="7.19466">
        <ele>288.6</ele>
        <time>2019-08-09T20:27:21Z</time>
      </trkpt>
      <trkpt lat="47.8279" lon="7.19463">
        <ele>288.6</ele>
        <time>2019-08-09T20:27:22Z</time>
      </trkpt>
      <trkpt lat="47.82787" lon="7.19459">
        <ele>288.6</ele>
        <time>2019-08-09T20:27:23Z</time>
      </trkpt>
      <trkpt lat="47.82784" lon="7.19455">
        <ele>288.6</ele>
        <time>2019-08-09T20:27:24Z</time>
      </trkpt>
      <trkpt lat="47.82782" lon="7.19451">
        <ele>288.7</ele>
        <time>2019-08-09T20:27:25Z</time>
      </trkpt>
      <trkpt lat="47.82779" lon="7.19448">
        <ele>288.7</ele>
        <time>2019-08-09T20:27:26Z</time>
      </trkpt>
      <trkpt lat="47.82776" lon="7.19444">
        <ele>288.7</ele>
        <time>2019-08-09T20:27:27Z</time>
      </trkpt>
      <trkpt lat="47.82773" lon="7.19441">
        <ele>288.7</ele>
        <time>2019-08-09T20:27:28Z</time>
      </trkpt>
      <trkpt lat="47.8277" lon="7.19437">
        <ele>288.7</ele>
        <time>2019-08-09T20:27:29Z</time>
      </trkpt>
      <trkpt lat="47.82767" lon="7.19433">
        <ele>288.7</ele>
        <time>2019-08-09T20:27:30Z</time>
      </trkpt>
      <trkpt lat="47.82764" lon="7.1943">
        <ele>288.7</ele>
        <time>2019-08-09T20:27:31Z</time>
      </trkpt>
      <trkpt lat="47.82761" lon="7.19426">
        <ele>288.7</ele>
        <time>2019-08-09T20:27:32Z</time>
      </trkpt>
      <trkpt lat="47.82758" lon="7.19422">
        <ele>288.8</ele>
        <time>2019-08-09T20:27:33Z</time>
      </trkpt>
      <trkpt lat="47.82755" lon="7.19418">
        <ele>288.8</ele>
        <time>2019-08-09T20:27:34Z</time>
      </trkpt>
      <trkpt lat="47.82752" lon="7.19414">
        <ele>288.8</ele>
        <time>2019-08-09T20:27:35Z</time>
      </trkpt>
      <trkpt lat="47.82749" lon="7.19411">
        <ele>288.8</ele>
        <time>2019-08-09T20:27:36Z</time>
      </trkpt>
      <trkpt lat="47.82746" lon="7.19407">
        <ele>288.8</ele>
        <time>2019-08-09T20:27:37Z</time>
      </trkpt>
      <trkpt lat="47.82743" lon="7.19403">
        <ele>288.8</ele>
        <time>2019-08-09T20:27:38Z</time>
      </trkpt>
      <trkpt lat="47.8274" lon="7.19397">
        <ele>288.8</ele>
        <time>2019-08-09T20:27:39Z</time>
      </trkpt>
      <trkpt lat="47.82737" lon="7.19392">
        <ele>288.9</ele>
        <time>2019-08-09T20:27:40Z</time>
      </trkpt>
      <trkpt lat="47.82734" lon="7.19389">
        <ele>288.9</ele>
        <time>2019-08-09T20:27:41Z</time>
      </trkpt>
      <trkpt lat="47.82731" lon="7.19384">
        <ele>288.9</ele>
        <time>2019-08-09T20:27:42Z</time>
      </trkpt>
      <trkpt lat="47.82728" lon="7.1938">
        <ele>288.9</ele>
        <time>2019-08-09T20:27:43Z</time>
      </trkpt>
      <trkpt lat="47.82726" lon="7.19376">
        <ele>288.9</ele>
        <time>2019-08-09T20:27:44Z</time>
      </trkpt>
      <trkpt lat="47.82724" lon="7.19371">
        <ele>288.9</ele>
        <time>2019-08-09T20:27:45Z</time>
      </trkpt>
      <trkpt lat="47.82722" lon="7.19365">
        <ele>288.9</ele>
        <time>2019-08-09T20:27:46Z</time>
      </trkpt>
      <trkpt lat="47.82719" lon="7.1936">
        <ele>289</ele>
        <time>2019-08-09T20:27:47Z</time>
      </trkpt>
      <trkpt lat="47.82716" lon="7.19356">
        <ele>289</ele>
        <time>2019-08-09T20:27:48Z</time>
      </trkpt>
      <trkpt lat="47.82714" lon="7.19351">
        <ele>289</ele>
        <time>2019-08-09T20:27:49Z</time>
      </trkpt>
      <trkpt lat="47.82712" lon="7.19347">
        <ele>289</ele>
        <time>2019-08-09T20:27:50Z</time>
      </trkpt>
      <trkpt lat="47.8271" lon="7.19342">
        <ele>289</ele>
        <time>2019-08-09T20:27:51Z</time>
      </trkpt>
      <trkpt lat="47.82709" lon="7.19338">
        <ele>289</ele>
        <time>2019-08-09T20:27:52Z</time>
      </trkpt>
      <trkpt lat="47.82706" lon="7.19335">
        <ele>289.1</ele>
        <time>2019-08-09T20:27:53Z</time>
      </trkpt>
      <trkpt lat="47.82705" lon="7.19329">
        <ele>289.1</ele>
        <time>2019-08-09T20:27:54Z</time>
      </trkpt>
      <trkpt lat="47.82703" lon="7.19325">
        <ele>289.1</ele>
        <time>2019-08-09T20:27:55Z</time>
      </trkpt>
      <trkpt lat="47.827" lon="7.19321">
        <ele>289.1</ele>
        <time>2019-08-09T20:27:56Z</time>
      </trkpt>
      <trkpt lat="47.82699" lon="7.19316">
        <ele>289.1</ele>
        <time>2019-08-09T20:27:57Z</time>
      </trkpt>
      <trkpt lat="47.82696" lon="7.19312">
        <ele>289.1</ele>
        <time>2019-08-09T20:27:58Z</time>
      </trkpt>
      <trkpt lat="47.82694" lon="7.19307">
        <ele>289.1</ele>
        <time>2019-08-09T20:27:59Z</time>
      </trkpt>
      <trkpt lat="47.82692" lon="7.19302">
        <ele>289.2</ele>
        <time>2019-08-09T20:28:00Z</time>
      </trkpt>
      <trkpt lat="47.82689" lon="7.19297">
        <ele>289.2</ele>
        <time>2019-08-09T20:28:01Z</time>
      </trkpt>
      <trkpt lat="47.82687" lon="7.19292">
        <ele>289.2</ele>
        <time>2019-08-09T20:28:02Z</time>
      </trkpt>
      <trkpt lat="47.82684" lon="7.19287">
        <ele>289.2</ele>
        <time>2019-08-09T20:28:03Z</time>
      </trkpt>
      <trkpt lat="47.82682" lon="7.19282">
        <ele>289.3</ele>
        <time>2019-08-09T20:28:04Z</time>
      </trkpt>
      <trkpt lat="47.8268" lon="7.19277">
        <ele>289.3</ele>
        <time>2019-08-09T20:28:05Z</time>
      </trkpt>
      <trkpt lat="47.82677" lon="7.19273">
        <ele>289.4</ele>
        <time>2019-08-09T20:28:06Z</time>
      </trkpt>
      <trkpt lat="47.82675" lon="7.19268">
        <ele>289.5</ele>
        <time>2019-08-09T20:28:07Z</time>
      </trkpt>
      <trkpt lat="47.82673" lon="7.19264">
        <ele>289.6</ele>
        <time>2019-08-09T20:28:08Z</time>
      </trkpt>
      <trkpt lat="47.8267" lon="7.19258">
        <ele>289.7</ele>
        <time>2019-08-09T20:28:09Z</time>
      </trkpt>
      <trkpt lat="47.82668" lon="7.19253">
        <ele>289.8</ele>
        <time>2019-08-09T20:28:10Z</time>
      </trkpt>
      <trkpt lat="47.82666" lon="7.19249">
        <ele>289.9</ele>
        <time>2019-08-09T20:28:11Z</time>
      </trkpt>
      <trkpt lat="47.82664" lon="7.19245">
        <ele>290</ele>
        <time>2019-08-09T20:28:12Z</time>
      </trkpt>
      <trkpt lat="47.82663" lon="7.1924">
        <ele>290.1</ele>
        <time>2019-08-09T20:28:13Z</time>
      </trkpt>
      <trkpt lat="47.8266" lon="7.19235">
        <ele>290.2</ele>
        <time>2019-08-09T20:28:15Z</time>
      </trkpt>
      <trkpt lat="47.82658" lon="7.19229">
        <ele>290.3</ele>
        <time>2019-08-09T20:28:17Z</time>
      </trkpt>
      <trkpt lat="47.82656" lon="7.19224">
        <ele>290.3</ele>
        <time>2019-08-09T20:28:19Z</time>
      </trkpt>
      <trkpt lat="47.82652" lon="7.19222">
        <ele>290.3</ele>
        <time>2019-08-09T20:28:22Z</time>
      </trkpt>
      <trkpt lat="47.82649" lon="7.19218">
        <ele>290.3</ele>
        <time>2019-08-09T20:28:24Z</time>
      </trkpt>
      <trkpt lat="47.82645" lon="7.19214">
        <ele>290.3</ele>
        <time>2019-08-09T20:28:26Z</time>
      </trkpt>
      <trkpt lat="47.8264" lon="7.1921">
        <ele>290.3</ele>
        <time>2019-08-09T20:28:28Z</time>
      </trkpt>
      <trkpt lat="47.82638" lon="7.19208">
        <ele>290.3</ele>
        <time>2019-08-09T20:28:29Z</time>
      </trkpt>
      <trkpt lat="47.82634" lon="7.19203">
        <ele>290.3</ele>
        <time>2019-08-09T20:28:31Z</time>
      </trkpt>
      <trkpt lat="47.82631" lon="7.19202">
        <ele>290.3</ele>
        <time>2019-08-09T20:28:32Z</time>
      </trkpt>
      <trkpt lat="47.82628" lon="7.19199">
        <ele>290.3</ele>
        <time>2019-08-09T20:28:33Z</time>
      </trkpt>
      <trkpt lat="47.82624" lon="7.19197">
        <ele>290.3</ele>
        <time>2019-08-09T20:28:34Z</time>
      </trkpt>
      <trkpt lat="47.82621" lon="7.19194">
        <ele>290.3</ele>
        <time>2019-08-09T20:28:35Z</time>
      </trkpt>
      <trkpt lat="47.82618" lon="7.19189">
        <ele>290.3</ele>
        <time>2019-08-09T20:28:36Z</time>
      </trkpt>
      <trkpt lat="47.82614" lon="7.19185">
        <ele>290.3</ele>
        <time>2019-08-09T20:28:37Z</time>
      </trkpt>
      <trkpt lat="47.82611" lon="7.19182">
        <ele>290.3</ele>
        <time>2019-08-09T20:28:38Z</time>
      </trkpt>
      <trkpt lat="47.82609" lon="7.19179">
        <ele>290.3</ele>
        <time>2019-08-09T20:28:39Z</time>
      </trkpt>
      <trkpt lat="47.82605" lon="7.19176">
        <ele>290.3</ele>
        <time>2019-08-09T20:28:40Z</time>
      </trkpt>
      <trkpt lat="47.82602" lon="7.19174">
        <ele>290.3</ele>
        <time>2019-08-09T20:28:41Z</time>
      </trkpt>
      <trkpt lat="47.82598" lon="7.19172">
        <ele>290.3</ele>
        <time>2019-08-09T20:28:42Z</time>
      </trkpt>
      <trkpt lat="47.82595" lon="7.1917">
        <ele>290.3</ele>
        <time>2019-08-09T20:28:43Z</time>
      </trkpt>
      <trkpt lat="47.82592" lon="7.19168">
        <ele>290.3</ele>
        <time>2019-08-09T20:28:44Z</time>
      </trkpt>
      <trkpt lat="47.8259" lon="7.19165">
        <ele>290.3</ele>
        <time>2019-08-09T20:28:45Z</time>
      </trkpt>
      <trkpt lat="47.82586" lon="7.19163">
        <ele>290.3</ele>
        <time>2019-08-09T20:28:46Z</time>
      </trkpt>
      <trkpt lat="47.82584" lon="7.19161">
        <ele>290.3</ele>
        <time>2019-08-09T20:28:47Z</time>
      </trkpt>
      <trkpt lat="47.8258" lon="7.19159">
        <ele>290.3</ele>
        <time>2019-08-09T20:28:48Z</time>
      </trkpt>
      <trkpt lat="47.82576" lon="7.19157">
        <ele>290.3</ele>
        <time>2019-08-09T20:28:49Z</time>
      </trkpt>
      <trkpt lat="47.82572" lon="7.19154">
        <ele>290.3</ele>
        <time>2019-08-09T20:28:50Z</time>
      </trkpt>
      <trkpt lat="47.82569" lon="7.19151">
        <ele>290.3</ele>
        <time>2019-08-09T20:28:51Z</time>
      </trkpt>
      <trkpt lat="47.82566" lon="7.19148">
        <ele>290.3</ele>
        <time>2019-08-09T20:28:52Z</time>
      </trkpt>
      <trkpt lat="47.82563" lon="7.19144">
        <ele>290.3</ele>
        <time>2019-08-09T20:28:53Z</time>
      </trkpt>
      <trkpt lat="47.82559" lon="7.19141">
        <ele>290.3</ele>
        <time>2019-08-09T20:28:54Z</time>
      </trkpt>
      <trkpt lat="47.82556" lon="7.19139">
        <ele>290.3</ele>
        <time>2019-08-09T20:28:55Z</time>
      </trkpt>
      <trkpt lat="47.82553" lon="7.19136">
        <ele>290.3</ele>
        <time>2019-08-09T20:28:56Z</time>
      </trkpt>
      <trkpt lat="47.82549" lon="7.19134">
        <ele>290.3</ele>
        <time>2019-08-09T20:28:57Z</time>
      </trkpt>
      <trkpt lat="47.82546" lon="7.19132">
        <ele>290.3</ele>
        <time>2019-08-09T20:28:58Z</time>
      </trkpt>
      <trkpt lat="47.82542" lon="7.19129">
        <ele>290.3</ele>
        <time>2019-08-09T20:28:59Z</time>
      </trkpt>
      <trkpt lat="47.82539" lon="7.19128">
        <ele>290.3</ele>
        <time>2019-08-09T20:29:00Z</time>
      </trkpt>
      <trkpt lat="47.82536" lon="7.19126">
        <ele>290.3</ele>
        <time>2019-08-09T20:29:01Z</time>
      </trkpt>
      <trkpt lat="47.82533" lon="7.19124">
        <ele>290.3</ele>
        <time>2019-08-09T20:29:02Z</time>
      </trkpt>
      <trkpt lat="47.8253" lon="7.19121">
        <ele>290.3</ele>
        <time>2019-08-09T20:29:03Z</time>
      </trkpt>
      <trkpt lat="47.82526" lon="7.19118">
        <ele>290.3</ele>
        <time>2019-08-09T20:29:04Z</time>
      </trkpt>
      <trkpt lat="47.82523" lon="7.19115">
        <ele>290.3</ele>
        <time>2019-08-09T20:29:05Z</time>
      </trkpt>
      <trkpt lat="47.82519" lon="7.19113">
        <ele>290.3</ele>
        <time>2019-08-09T20:29:06Z</time>
      </trkpt>
      <trkpt lat="47.82517" lon="7.19109">
        <ele>290.3</ele>
        <time>2019-08-09T20:29:07Z</time>
      </trkpt>
      <trkpt lat="47.82514" lon="7.19106">
        <ele>290.3</ele>
        <time>2019-08-09T20:29:08Z</time>
      </trkpt>
      <trkpt lat="47.82511" lon="7.19103">
        <ele>290.3</ele>
        <time>2019-08-09T20:29:09Z</time>
      </trkpt>
      <trkpt lat="47.82508" lon="7.191">
        <ele>290.3</ele>
        <time>2019-08-09T20:29:10Z</time>
      </trkpt>
      <trkpt lat="47.82506" lon="7.19098">
        <ele>290.3</ele>
        <time>2019-08-09T20:29:11Z</time>
      </trkpt>
      <trkpt lat="47.82503" lon="7.19095">
        <ele>290.3</ele>
        <time>2019-08-09T20:29:12Z</time>
      </trkpt>
      <trkpt lat="47.825" lon="7.19093">
        <ele>290.3</ele>
        <time>2019-08-09T20:29:13Z</time>
      </trkpt>
      <trkpt lat="47.82498" lon="7.19091">
        <ele>290.3</ele>
        <time>2019-08-09T20:29:14Z</time>
      </trkpt>
      <trkpt lat="47.82495" lon="7.19088">
        <ele>290.3</ele>
        <time>2019-08-09T20:29:15Z</time>
      </trkpt>
      <trkpt lat="47.82491" lon="7.19085">
        <ele>290.3</ele>
        <time>2019-08-09T20:29:16Z</time>
      </trkpt>
      <trkpt lat="47.82487" lon="7.1908">
        <ele>290.3</ele>
        <time>2019-08-09T20:29:17Z</time>
      </trkpt>
      <trkpt lat="47.82485" lon="7.19078">
        <ele>290.3</ele>
        <time>2019-08-09T20:29:18Z</time>
      </trkpt>
      <trkpt lat="47.82482" lon="7.19073">
        <ele>290.3</ele>
        <time>2019-08-09T20:29:19Z</time>
      </trkpt>
      <trkpt lat="47.82478" lon="7.19071">
        <ele>290.3</ele>
        <time>2019-08-09T20:29:20Z</time>
      </trkpt>
      <trkpt lat="47.82474" lon="7.19068">
        <ele>290.3</ele>
        <time>2019-08-09T20:29:21Z</time>
      </trkpt>
      <trkpt lat="47.82471" lon="7.19066">
        <ele>290.3</ele>
        <time>2019-08-09T20:29:22Z</time>
      </trkpt>
      <trkpt lat="47.82468" lon="7.19063">
        <ele>290.3</ele>
        <time>2019-08-09T20:29:23Z</time>
      </trkpt>
      <trkpt lat="47.82464" lon="7.19059">
        <ele>290.3</ele>
        <time>2019-08-09T20:29:24Z</time>
      </trkpt>
      <trkpt lat="47.82461" lon="7.19056">
        <ele>290.3</ele>
        <time>2019-08-09T20:29:25Z</time>
      </trkpt>
      <trkpt lat="47.82458" lon="7.19053">
        <ele>290.3</ele>
        <time>2019-08-09T20:29:26Z</time>
      </trkpt>
      <trkpt lat="47.82455" lon="7.19049">
        <ele>290.3</ele>
        <time>2019-08-09T20:29:27Z</time>
      </trkpt>
      <trkpt lat="47.82451" lon="7.19046">
        <ele>290.3</ele>
        <time>2019-08-09T20:29:28Z</time>
      </trkpt>
      <trkpt lat="47.82448" lon="7.19041">
        <ele>290.3</ele>
        <time>2019-08-09T20:29:29Z</time>
      </trkpt>
      <trkpt lat="47.82445" lon="7.19035">
        <ele>290.3</ele>
        <time>2019-08-09T20:29:30Z</time>
      </trkpt>
      <trkpt lat="47.82442" lon="7.19031">
        <ele>290.3</ele>
        <time>2019-08-09T20:29:31Z</time>
      </trkpt>
      <trkpt lat="47.82437" lon="7.19028">
        <ele>290.3</ele>
        <time>2019-08-09T20:29:32Z</time>
      </trkpt>
      <trkpt lat="47.82433" lon="7.19026">
        <ele>290.3</ele>
        <time>2019-08-09T20:29:33Z</time>
      </trkpt>
      <trkpt lat="47.8243" lon="7.19022">
        <ele>290.3</ele>
        <time>2019-08-09T20:29:34Z</time>
      </trkpt>
      <trkpt lat="47.82427" lon="7.19019">
        <ele>290.3</ele>
        <time>2019-08-09T20:29:35Z</time>
      </trkpt>
      <trkpt lat="47.82425" lon="7.19017">
        <ele>290.3</ele>
        <time>2019-08-09T20:29:36Z</time>
      </trkpt>
      <trkpt lat="47.82422" lon="7.19014">
        <ele>290.3</ele>
        <time>2019-08-09T20:29:37Z</time>
      </trkpt>
      <trkpt lat="47.82419" lon="7.19011">
        <ele>290.3</ele>
        <time>2019-08-09T20:29:38Z</time>
      </trkpt>
      <trkpt lat="47.82415" lon="7.19008">
        <ele>290.3</ele>
        <time>2019-08-09T20:29:39Z</time>
      </trkpt>
      <trkpt lat="47.82412" lon="7.19006">
        <ele>290.3</ele>
        <time>2019-08-09T20:29:40Z</time>
      </trkpt>
      <trkpt lat="47.82409" lon="7.19004">
        <ele>290.3</ele>
        <time>2019-08-09T20:29:41Z</time>
      </trkpt>
      <trkpt lat="47.82406" lon="7.19002">
        <ele>290.3</ele>
        <time>2019-08-09T20:29:42Z</time>
      </trkpt>
      <trkpt lat="47.82402" lon="7.19001">
        <ele>290.3</ele>
        <time>2019-08-09T20:29:43Z</time>
      </trkpt>
      <trkpt lat="47.82398" lon="7.18999">
        <ele>290.3</ele>
        <time>2019-08-09T20:29:44Z</time>
      </trkpt>
      <trkpt lat="47.82394" lon="7.18997">
        <ele>290.2</ele>
        <time>2019-08-09T20:29:45Z</time>
      </trkpt>
      <trkpt lat="47.8239" lon="7.18995">
        <ele>290.2</ele>
        <time>2019-08-09T20:29:46Z</time>
      </trkpt>
      <trkpt lat="47.82386" lon="7.18993">
        <ele>290.2</ele>
        <time>2019-08-09T20:29:47Z</time>
      </trkpt>
      <trkpt lat="47.82382" lon="7.1899">
        <ele>290.2</ele>
        <time>2019-08-09T20:29:48Z</time>
      </trkpt>
      <trkpt lat="47.82378" lon="7.18986">
        <ele>290.2</ele>
        <time>2019-08-09T20:29:49Z</time>
      </trkpt>
      <trkpt lat="47.82374" lon="7.18983">
        <ele>290.2</ele>
        <time>2019-08-09T20:29:50Z</time>
      </trkpt>
      <trkpt lat="47.82371" lon="7.18979">
        <ele>290.1</ele>
        <time>2019-08-09T20:29:51Z</time>
      </trkpt>
      <trkpt lat="47.82367" lon="7.18976">
        <ele>290.1</ele>
        <time>2019-08-09T20:29:52Z</time>
      </trkpt>
      <trkpt lat="47.82363" lon="7.18974">
        <ele>290.1</ele>
        <time>2019-08-09T20:29:53Z</time>
      </trkpt>
      <trkpt lat="47.82359" lon="7.18971">
        <ele>290.1</ele>
        <time>2019-08-09T20:29:54Z</time>
      </trkpt>
      <trkpt lat="47.82355" lon="7.18967">
        <ele>290.1</ele>
        <time>2019-08-09T20:29:55Z</time>
      </trkpt>
      <trkpt lat="47.82351" lon="7.18964">
        <ele>290.1</ele>
        <time>2019-08-09T20:29:56Z</time>
      </trkpt>
      <trkpt lat="47.82348" lon="7.18959">
        <ele>290.1</ele>
        <time>2019-08-09T20:29:57Z</time>
      </trkpt>
      <trkpt lat="47.82343" lon="7.18954">
        <ele>290.1</ele>
        <time>2019-08-09T20:29:58Z</time>
      </trkpt>
      <trkpt lat="47.82339" lon="7.18952">
        <ele>290.1</ele>
        <time>2019-08-09T20:29:59Z</time>
      </trkpt>
      <trkpt lat="47.82335" lon="7.18948">
        <ele>290</ele>
        <time>2019-08-09T20:30:00Z</time>
      </trkpt>
      <trkpt lat="47.82332" lon="7.18944">
        <ele>290</ele>
        <time>2019-08-09T20:30:01Z</time>
      </trkpt>
      <trkpt lat="47.82328" lon="7.18941">
        <ele>290</ele>
        <time>2019-08-09T20:30:02Z</time>
      </trkpt>
      <trkpt lat="47.82325" lon="7.18937">
        <ele>290</ele>
        <time>2019-08-09T20:30:03Z</time>
      </trkpt>
      <trkpt lat="47.82321" lon="7.18933">
        <ele>290</ele>
        <time>2019-08-09T20:30:04Z</time>
      </trkpt>
      <trkpt lat="47.82318" lon="7.18929">
        <ele>290</ele>
        <time>2019-08-09T20:30:05Z</time>
      </trkpt>
      <trkpt lat="47.82314" lon="7.18924">
        <ele>290</ele>
        <time>2019-08-09T20:30:06Z</time>
      </trkpt>
      <trkpt lat="47.82311" lon="7.1892">
        <ele>290</ele>
        <time>2019-08-09T20:30:07Z</time>
      </trkpt>
      <trkpt lat="47.82308" lon="7.18916">
        <ele>290</ele>
        <time>2019-08-09T20:30:08Z</time>
      </trkpt>
      <trkpt lat="47.82303" lon="7.18914">
        <ele>289.9</ele>
        <time>2019-08-09T20:30:09Z</time>
      </trkpt>
      <trkpt lat="47.823" lon="7.18908">
        <ele>289.9</ele>
        <time>2019-08-09T20:30:10Z</time>
      </trkpt>
      <trkpt lat="47.82296" lon="7.18903">
        <ele>289.9</ele>
        <time>2019-08-09T20:30:11Z</time>
      </trkpt>
      <trkpt lat="47.82292" lon="7.18898">
        <ele>289.9</ele>
        <time>2019-08-09T20:30:12Z</time>
      </trkpt>
      <trkpt lat="47.82288" lon="7.18894">
        <ele>289.9</ele>
        <time>2019-08-09T20:30:13Z</time>
      </trkpt>
      <trkpt lat="47.82284" lon="7.18888">
        <ele>289.8</ele>
        <time>2019-08-09T20:30:14Z</time>
      </trkpt>
      <trkpt lat="47.82281" lon="7.18882">
        <ele>289.8</ele>
        <time>2019-08-09T20:30:15Z</time>
      </trkpt>
      <trkpt lat="47.82277" lon="7.18879">
        <ele>289.8</ele>
        <time>2019-08-09T20:30:16Z</time>
      </trkpt>
      <trkpt lat="47.82274" lon="7.18875">
        <ele>289.8</ele>
        <time>2019-08-09T20:30:17Z</time>
      </trkpt>
      <trkpt lat="47.82271" lon="7.1887">
        <ele>289.8</ele>
        <time>2019-08-09T20:30:18Z</time>
      </trkpt>
      <trkpt lat="47.82269" lon="7.18867">
        <ele>289.8</ele>
        <time>2019-08-09T20:30:19Z</time>
      </trkpt>
      <trkpt lat="47.82266" lon="7.18864">
        <ele>289.8</ele>
        <time>2019-08-09T20:30:20Z</time>
      </trkpt>
      <trkpt lat="47.82263" lon="7.1886">
        <ele>289.7</ele>
        <time>2019-08-09T20:30:21Z</time>
      </trkpt>
      <trkpt lat="47.8226" lon="7.18856">
        <ele>289.7</ele>
        <time>2019-08-09T20:30:22Z</time>
      </trkpt>
      <trkpt lat="47.82257" lon="7.18853">
        <ele>289.7</ele>
        <time>2019-08-09T20:30:23Z</time>
      </trkpt>
      <trkpt lat="47.82254" lon="7.1885">
        <ele>289.6</ele>
        <time>2019-08-09T20:30:24Z</time>
      </trkpt>
      <trkpt lat="47.82252" lon="7.18847">
        <ele>289.6</ele>
        <time>2019-08-09T20:30:25Z</time>
      </trkpt>
      <trkpt lat="47.8225" lon="7.18841">
        <ele>289.6</ele>
        <time>2019-08-09T20:30:26Z</time>
      </trkpt>
      <trkpt lat="47.82247" lon="7.18838">
        <ele>289.6</ele>
        <time>2019-08-09T20:30:27Z</time>
      </trkpt>
      <trkpt lat="47.82244" lon="7.18833">
        <ele>289.6</ele>
        <time>2019-08-09T20:30:28Z</time>
      </trkpt>
      <trkpt lat="47.82241" lon="7.18828">
        <ele>289.6</ele>
        <time>2019-08-09T20:30:29Z</time>
      </trkpt>
      <trkpt lat="47.82238" lon="7.18823">
        <ele>289.6</ele>
        <time>2019-08-09T20:30:30Z</time>
      </trkpt>
      <trkpt lat="47.82235" lon="7.18818">
        <ele>289.6</ele>
        <time>2019-08-09T20:30:31Z</time>
      </trkpt>
      <trkpt lat="47.82232" lon="7.18815">
        <ele>289.6</ele>
        <time>2019-08-09T20:30:32Z</time>
      </trkpt>
      <trkpt lat="47.8223" lon="7.18811">
        <ele>289.7</ele>
        <time>2019-08-09T20:30:33Z</time>
      </trkpt>
      <trkpt lat="47.82227" lon="7.18807">
        <ele>289.7</ele>
        <time>2019-08-09T20:30:34Z</time>
      </trkpt>
      <trkpt lat="47.82224" lon="7.18803">
        <ele>289.8</ele>
        <time>2019-08-09T20:30:35Z</time>
      </trkpt>
      <trkpt lat="47.82221" lon="7.188">
        <ele>289.8</ele>
        <time>2019-08-09T20:30:36Z</time>
      </trkpt>
      <trkpt lat="47.82219" lon="7.18795">
        <ele>289.8</ele>
        <time>2019-08-09T20:30:37Z</time>
      </trkpt>
      <trkpt lat="47.82216" lon="7.18791">
        <ele>289.9</ele>
        <time>2019-08-09T20:30:38Z</time>
      </trkpt>
      <trkpt lat="47.82213" lon="7.18786">
        <ele>289.9</ele>
        <time>2019-08-09T20:30:39Z</time>
      </trkpt>
      <trkpt lat="47.8221" lon="7.18782">
        <ele>290</ele>
        <time>2019-08-09T20:30:40Z</time>
      </trkpt>
      <trkpt lat="47.82206" lon="7.18779">
        <ele>290</ele>
        <time>2019-08-09T20:30:41Z</time>
      </trkpt>
      <trkpt lat="47.82204" lon="7.18774">
        <ele>290.1</ele>
        <time>2019-08-09T20:30:42Z</time>
      </trkpt>
      <trkpt lat="47.82201" lon="7.18769">
        <ele>290.2</ele>
        <time>2019-08-09T20:30:43Z</time>
      </trkpt>
      <trkpt lat="47.82199" lon="7.18765">
        <ele>290.3</ele>
        <time>2019-08-09T20:30:44Z</time>
      </trkpt>
      <trkpt lat="47.82197" lon="7.1876">
        <ele>290.3</ele>
        <time>2019-08-09T20:30:45Z</time>
      </trkpt>
      <trkpt lat="47.82195" lon="7.18756">
        <ele>290.4</ele>
        <time>2019-08-09T20:30:46Z</time>
      </trkpt>
      <trkpt lat="47.82193" lon="7.18752">
        <ele>290.4</ele>
        <time>2019-08-09T20:30:47Z</time>
      </trkpt>
      <trkpt lat="47.82191" lon="7.18747">
        <ele>290.5</ele>
        <time>2019-08-09T20:30:48Z</time>
      </trkpt>
      <trkpt lat="47.8219" lon="7.18742">
        <ele>290.6</ele>
        <time>2019-08-09T20:30:49Z</time>
      </trkpt>
      <trkpt lat="47.82188" lon="7.18738">
        <ele>290.6</ele>
        <time>2019-08-09T20:30:50Z</time>
      </trkpt>
      <trkpt lat="47.82186" lon="7.18736">
        <ele>290.7</ele>
        <time>2019-08-09T20:30:51Z</time>
      </trkpt>
      <trkpt lat="47.82182" lon="7.1873">
        <ele>290.9</ele>
        <time>2019-08-09T20:30:53Z</time>
      </trkpt>
      <trkpt lat="47.8218" lon="7.18727">
        <ele>291</ele>
        <time>2019-08-09T20:30:54Z</time>
      </trkpt>
      <trkpt lat="47.82177" lon="7.18724">
        <ele>291</ele>
        <time>2019-08-09T20:30:55Z</time>
      </trkpt>
      <trkpt lat="47.82174" lon="7.18722">
        <ele>291</ele>
        <time>2019-08-09T20:30:56Z</time>
      </trkpt>
      <trkpt lat="47.82171" lon="7.18719">
        <ele>291</ele>
        <time>2019-08-09T20:30:57Z</time>
      </trkpt>
      <trkpt lat="47.82168" lon="7.18714">
        <ele>291</ele>
        <time>2019-08-09T20:30:59Z</time>
      </trkpt>
      <trkpt lat="47.82164" lon="7.18711">
        <ele>291.1</ele>
        <time>2019-08-09T20:31:01Z</time>
      </trkpt>
      <trkpt lat="47.8216" lon="7.18708">
        <ele>291.1</ele>
        <time>2019-08-09T20:31:03Z</time>
      </trkpt>
      <trkpt lat="47.82157" lon="7.18707">
        <ele>291.1</ele>
        <time>2019-08-09T20:31:04Z</time>
      </trkpt>
      <trkpt lat="47.82154" lon="7.18705">
        <ele>291.1</ele>
        <time>2019-08-09T20:31:05Z</time>
      </trkpt>
      <trkpt lat="47.82152" lon="7.18704">
        <ele>291.1</ele>
        <time>2019-08-09T20:31:06Z</time>
      </trkpt>
      <trkpt lat="47.82147" lon="7.187">
        <ele>291.1</ele>
        <time>2019-08-09T20:31:08Z</time>
      </trkpt>
      <trkpt lat="47.82144" lon="7.18697">
        <ele>291.1</ele>
        <time>2019-08-09T20:31:09Z</time>
      </trkpt>
      <trkpt lat="47.82141" lon="7.18696">
        <ele>291.1</ele>
        <time>2019-08-09T20:31:10Z</time>
      </trkpt>
      <trkpt lat="47.82138" lon="7.18693">
        <ele>291</ele>
        <time>2019-08-09T20:31:11Z</time>
      </trkpt>
      <trkpt lat="47.82135" lon="7.1869">
        <ele>291</ele>
        <time>2019-08-09T20:31:12Z</time>
      </trkpt>
      <trkpt lat="47.82132" lon="7.18686">
        <ele>291</ele>
        <time>2019-08-09T20:31:13Z</time>
      </trkpt>
      <trkpt lat="47.82128" lon="7.18684">
        <ele>291</ele>
        <time>2019-08-09T20:31:14Z</time>
      </trkpt>
      <trkpt lat="47.82125" lon="7.18682">
        <ele>291</ele>
        <time>2019-08-09T20:31:15Z</time>
      </trkpt>
      <trkpt lat="47.82121" lon="7.18679">
        <ele>291</ele>
        <time>2019-08-09T20:31:16Z</time>
      </trkpt>
      <trkpt lat="47.82118" lon="7.18676">
        <ele>291</ele>
        <time>2019-08-09T20:31:17Z</time>
      </trkpt>
      <trkpt lat="47.82114" lon="7.18674">
        <ele>291</ele>
        <time>2019-08-09T20:31:18Z</time>
      </trkpt>
      <trkpt lat="47.82112" lon="7.18671">
        <ele>291</ele>
        <time>2019-08-09T20:31:19Z</time>
      </trkpt>
      <trkpt lat="47.82108" lon="7.1867">
        <ele>291</ele>
        <time>2019-08-09T20:31:20Z</time>
      </trkpt>
      <trkpt lat="47.82106" lon="7.18668">
        <ele>291.1</ele>
        <time>2019-08-09T20:31:21Z</time>
      </trkpt>
      <trkpt lat="47.82103" lon="7.18666">
        <ele>291.1</ele>
        <time>2019-08-09T20:31:22Z</time>
      </trkpt>
      <trkpt lat="47.821" lon="7.18665">
        <ele>291.1</ele>
        <time>2019-08-09T20:31:23Z</time>
      </trkpt>
      <trkpt lat="47.82095" lon="7.18661">
        <ele>291.1</ele>
        <time>2019-08-09T20:31:24Z</time>
      </trkpt>
      <trkpt lat="47.82093" lon="7.18659">
        <ele>291.2</ele>
        <time>2019-08-09T20:31:25Z</time>
      </trkpt>
      <trkpt lat="47.8209" lon="7.18658">
        <ele>291.2</ele>
        <time>2019-08-09T20:31:26Z</time>
      </trkpt>
      <trkpt lat="47.82087" lon="7.18656">
        <ele>291.2</ele>
        <time>2019-08-09T20:31:27Z</time>
      </trkpt>
      <trkpt lat="47.82084" lon="7.18653">
        <ele>291.2</ele>
        <time>2019-08-09T20:31:28Z</time>
      </trkpt>
      <trkpt lat="47.82082" lon="7.18651">
        <ele>291.2</ele>
        <time>2019-08-09T20:31:29Z</time>
      </trkpt>
      <trkpt lat="47.82079" lon="7.18649">
        <ele>291.3</ele>
        <time>2019-08-09T20:31:30Z</time>
      </trkpt>
      <trkpt lat="47.82076" lon="7.18645">
        <ele>291.3</ele>
        <time>2019-08-09T20:31:31Z</time>
      </trkpt>
      <trkpt lat="47.82073" lon="7.18642">
        <ele>291.3</ele>
        <time>2019-08-09T20:31:32Z</time>
      </trkpt>
      <trkpt lat="47.82069" lon="7.18639">
        <ele>291.4</ele>
        <time>2019-08-09T20:31:33Z</time>
      </trkpt>
      <trkpt lat="47.82066" lon="7.18636">
        <ele>291.4</ele>
        <time>2019-08-09T20:31:34Z</time>
      </trkpt>
      <trkpt lat="47.82063" lon="7.18632">
        <ele>291.5</ele>
        <time>2019-08-09T20:31:35Z</time>
      </trkpt>
      <trkpt lat="47.8206" lon="7.1863">
        <ele>291.5</ele>
        <time>2019-08-09T20:31:36Z</time>
      </trkpt>
      <trkpt lat="47.82057" lon="7.18627">
        <ele>291.5</ele>
        <time>2019-08-09T20:31:37Z</time>
      </trkpt>
      <trkpt lat="47.82054" lon="7.18625">
        <ele>291.6</ele>
        <time>2019-08-09T20:31:38Z</time>
      </trkpt>
      <trkpt lat="47.8205" lon="7.18622">
        <ele>291.6</ele>
        <time>2019-08-09T20:31:39Z</time>
      </trkpt>
      <trkpt lat="47.82046" lon="7.18621">
        <ele>291.6</ele>
        <time>2019-08-09T20:31:40Z</time>
      </trkpt>
      <trkpt lat="47.82043" lon="7.18617">
        <ele>291.7</ele>
        <time>2019-08-09T20:31:41Z</time>
      </trkpt>
      <trkpt lat="47.8204" lon="7.18615">
        <ele>291.7</ele>
        <time>2019-08-09T20:31:42Z</time>
      </trkpt>
      <trkpt lat="47.82037" lon="7.18612">
        <ele>291.7</ele>
        <time>2019-08-09T20:31:43Z</time>
      </trkpt>
      <trkpt lat="47.82033" lon="7.18609">
        <ele>291.8</ele>
        <time>2019-08-09T20:31:44Z</time>
      </trkpt>
      <trkpt lat="47.8203" lon="7.18606">
        <ele>291.8</ele>
        <time>2019-08-09T20:31:45Z</time>
      </trkpt>
      <trkpt lat="47.82026" lon="7.18603">
        <ele>291.8</ele>
        <time>2019-08-09T20:31:46Z</time>
      </trkpt>
      <trkpt lat="47.82021" lon="7.186">
        <ele>291.8</ele>
        <time>2019-08-09T20:31:47Z</time>
      </trkpt>
      <trkpt lat="47.82017" lon="7.18596">
        <ele>291.8</ele>
        <time>2019-08-09T20:31:48Z</time>
      </trkpt>
      <trkpt lat="47.82014" lon="7.18592">
        <ele>291.8</ele>
        <time>2019-08-09T20:31:49Z</time>
      </trkpt>
      <trkpt lat="47.82011" lon="7.18589">
        <ele>291.9</ele>
        <time>2019-08-09T20:31:50Z</time>
      </trkpt>
      <trkpt lat="47.82007" lon="7.18587">
        <ele>291.9</ele>
        <time>2019-08-09T20:31:51Z</time>
      </trkpt>
      <trkpt lat="47.82004" lon="7.18584">
        <ele>292</ele>
        <time>2019-08-09T20:31:52Z</time>
      </trkpt>
      <trkpt lat="47.82" lon="7.18583">
        <ele>292</ele>
        <time>2019-08-09T20:31:53Z</time>
      </trkpt>
      <trkpt lat="47.81996" lon="7.1858">
        <ele>292.1</ele>
        <time>2019-08-09T20:31:54Z</time>
      </trkpt>
      <trkpt lat="47.81992" lon="7.18576">
        <ele>292.2</ele>
        <time>2019-08-09T20:31:55Z</time>
      </trkpt>
      <trkpt lat="47.81988" lon="7.18573">
        <ele>292.2</ele>
        <time>2019-08-09T20:31:56Z</time>
      </trkpt>
      <trkpt lat="47.81985" lon="7.1857">
        <ele>292.3</ele>
        <time>2019-08-09T20:31:57Z</time>
      </trkpt>
      <trkpt lat="47.81981" lon="7.18567">
        <ele>292.3</ele>
        <time>2019-08-09T20:31:58Z</time>
      </trkpt>
      <trkpt lat="47.81978" lon="7.18565">
        <ele>292.4</ele>
        <time>2019-08-09T20:31:59Z</time>
      </trkpt>
      <trkpt lat="47.81974" lon="7.18562">
        <ele>292.5</ele>
        <time>2019-08-09T20:32:00Z</time>
      </trkpt>
      <trkpt lat="47.8197" lon="7.1856">
        <ele>292.5</ele>
        <time>2019-08-09T20:32:01Z</time>
      </trkpt>
      <trkpt lat="47.81967" lon="7.18558">
        <ele>292.5</ele>
        <time>2019-08-09T20:32:02Z</time>
      </trkpt>
      <trkpt lat="47.81963" lon="7.18555">
        <ele>292.6</ele>
        <time>2019-08-09T20:32:03Z</time>
      </trkpt>
      <trkpt lat="47.81959" lon="7.18553">
        <ele>292.6</ele>
        <time>2019-08-09T20:32:04Z</time>
      </trkpt>
      <trkpt lat="47.81955" lon="7.1855">
        <ele>292.7</ele>
        <time>2019-08-09T20:32:05Z</time>
      </trkpt>
      <trkpt lat="47.81952" lon="7.18548">
        <ele>292.7</ele>
        <time>2019-08-09T20:32:06Z</time>
      </trkpt>
      <trkpt lat="47.81949" lon="7.18544">
        <ele>292.7</ele>
        <time>2019-08-09T20:32:07Z</time>
      </trkpt>
      <trkpt lat="47.81946" lon="7.18541">
        <ele>292.8</ele>
        <time>2019-08-09T20:32:08Z</time>
      </trkpt>
      <trkpt lat="47.81942" lon="7.18538">
        <ele>292.8</ele>
        <time>2019-08-09T20:32:09Z</time>
      </trkpt>
      <trkpt lat="47.81939" lon="7.18534">
        <ele>292.9</ele>
        <time>2019-08-09T20:32:10Z</time>
      </trkpt>
      <trkpt lat="47.81935" lon="7.18531">
        <ele>292.9</ele>
        <time>2019-08-09T20:32:11Z</time>
      </trkpt>
      <trkpt lat="47.81932" lon="7.18529">
        <ele>292.9</ele>
        <time>2019-08-09T20:32:12Z</time>
      </trkpt>
      <trkpt lat="47.81928" lon="7.18527">
        <ele>292.9</ele>
        <time>2019-08-09T20:32:13Z</time>
      </trkpt>
      <trkpt lat="47.81925" lon="7.18523">
        <ele>293</ele>
        <time>2019-08-09T20:32:14Z</time>
      </trkpt>
      <trkpt lat="47.81921" lon="7.1852">
        <ele>293</ele>
        <time>2019-08-09T20:32:15Z</time>
      </trkpt>
      <trkpt lat="47.81919" lon="7.18516">
        <ele>293</ele>
        <time>2019-08-09T20:32:16Z</time>
      </trkpt>
      <trkpt lat="47.81917" lon="7.18512">
        <ele>293</ele>
        <time>2019-08-09T20:32:17Z</time>
      </trkpt>
      <trkpt lat="47.81914" lon="7.18508">
        <ele>293.1</ele>
        <time>2019-08-09T20:32:18Z</time>
      </trkpt>
      <trkpt lat="47.81911" lon="7.18505">
        <ele>293.1</ele>
        <time>2019-08-09T20:32:19Z</time>
      </trkpt>
      <trkpt lat="47.81909" lon="7.18502">
        <ele>293.1</ele>
        <time>2019-08-09T20:32:20Z</time>
      </trkpt>
      <trkpt lat="47.81907" lon="7.18498">
        <ele>293.1</ele>
        <time>2019-08-09T20:32:21Z</time>
      </trkpt>
      <trkpt lat="47.81906" lon="7.18494">
        <ele>293.1</ele>
        <time>2019-08-09T20:32:22Z</time>
      </trkpt>
      <trkpt lat="47.81904" lon="7.18489">
        <ele>293.2</ele>
        <time>2019-08-09T20:32:24Z</time>
      </trkpt>
      <trkpt lat="47.81901" lon="7.18485">
        <ele>293.2</ele>
        <time>2019-08-09T20:32:26Z</time>
      </trkpt>
      <trkpt lat="47.81898" lon="7.18482">
        <ele>293.2</ele>
        <time>2019-08-09T20:32:28Z</time>
      </trkpt>
      <trkpt lat="47.81895" lon="7.18481">
        <ele>293.2</ele>
        <time>2019-08-09T20:32:30Z</time>
      </trkpt>
      <trkpt lat="47.81892" lon="7.18477">
        <ele>293.2</ele>
        <time>2019-08-09T20:32:32Z</time>
      </trkpt>
      <trkpt lat="47.81887" lon="7.18478">
        <ele>293.3</ele>
        <time>2019-08-09T20:32:57Z</time>
      </trkpt>
      <trkpt lat="47.81882" lon="7.18478">
        <ele>293.2</ele>
        <time>2019-08-09T20:32:59Z</time>
      </trkpt>
      <trkpt lat="47.81877" lon="7.18479">
        <ele>293.2</ele>
        <time>2019-08-09T20:33:01Z</time>
      </trkpt>
      <trkpt lat="47.81872" lon="7.18479">
        <ele>293.1</ele>
        <time>2019-08-09T20:33:03Z</time>
      </trkpt>
      <trkpt lat="47.81869" lon="7.1848">
        <ele>293.1</ele>
        <time>2019-08-09T20:33:04Z</time>
      </trkpt>
      <trkpt lat="47.81864" lon="7.18477">
        <ele>293.1</ele>
        <time>2019-08-09T20:33:06Z</time>
      </trkpt>
      <trkpt lat="47.81861" lon="7.18477">
        <ele>293</ele>
        <time>2019-08-09T20:33:07Z</time>
      </trkpt>
      <trkpt lat="47.81858" lon="7.18476">
        <ele>293</ele>
        <time>2019-08-09T20:33:08Z</time>
      </trkpt>
      <trkpt lat="47.81854" lon="7.18475">
        <ele>293</ele>
        <time>2019-08-09T20:33:09Z</time>
      </trkpt>
      <trkpt lat="47.8185" lon="7.18473">
        <ele>292.9</ele>
        <time>2019-08-09T20:33:10Z</time>
      </trkpt>
      <trkpt lat="47.81846" lon="7.18471">
        <ele>292.9</ele>
        <time>2019-08-09T20:33:11Z</time>
      </trkpt>
      <trkpt lat="47.81842" lon="7.1847">
        <ele>292.9</ele>
        <time>2019-08-09T20:33:12Z</time>
      </trkpt>
      <trkpt lat="47.81838" lon="7.18467">
        <ele>292.8</ele>
        <time>2019-08-09T20:33:13Z</time>
      </trkpt>
      <trkpt lat="47.81834" lon="7.18466">
        <ele>292.8</ele>
        <time>2019-08-09T20:33:14Z</time>
      </trkpt>
      <trkpt lat="47.81831" lon="7.18465">
        <ele>292.7</ele>
        <time>2019-08-09T20:33:15Z</time>
      </trkpt>
      <trkpt lat="47.81826" lon="7.18464">
        <ele>292.7</ele>
        <time>2019-08-09T20:33:16Z</time>
      </trkpt>
      <trkpt lat="47.81824" lon="7.18462">
        <ele>292.6</ele>
        <time>2019-08-09T20:33:17Z</time>
      </trkpt>
      <trkpt lat="47.81819" lon="7.18461">
        <ele>292.6</ele>
        <time>2019-08-09T20:33:18Z</time>
      </trkpt>
      <trkpt lat="47.81815" lon="7.1846">
        <ele>292.5</ele>
        <time>2019-08-09T20:33:19Z</time>
      </trkpt>
      <trkpt lat="47.81811" lon="7.18459">
        <ele>292.5</ele>
        <time>2019-08-09T20:33:20Z</time>
      </trkpt>
      <trkpt lat="47.81807" lon="7.18458">
        <ele>292.4</ele>
        <time>2019-08-09T20:33:21Z</time>
      </trkpt>
      <trkpt lat="47.81802" lon="7.18456">
        <ele>292.4</ele>
        <time>2019-08-09T20:33:22Z</time>
      </trkpt>
      <trkpt lat="47.81798" lon="7.18455">
        <ele>292.3</ele>
        <time>2019-08-09T20:33:23Z</time>
      </trkpt>
      <trkpt lat="47.81794" lon="7.18454">
        <ele>292.3</ele>
        <time>2019-08-09T20:33:24Z</time>
      </trkpt>
      <trkpt lat="47.81791" lon="7.18455">
        <ele>292.2</ele>
        <time>2019-08-09T20:33:25Z</time>
      </trkpt>
      <trkpt lat="47.81786" lon="7.18452">
        <ele>292.2</ele>
        <time>2019-08-09T20:33:26Z</time>
      </trkpt>
      <trkpt lat="47.81783" lon="7.1845">
        <ele>292.1</ele>
        <time>2019-08-09T20:33:27Z</time>
      </trkpt>
      <trkpt lat="47.8178" lon="7.18449">
        <ele>292.1</ele>
        <time>2019-08-09T20:33:28Z</time>
      </trkpt>
      <trkpt lat="47.81777" lon="7.18447">
        <ele>292</ele>
        <time>2019-08-09T20:33:29Z</time>
      </trkpt>
      <trkpt lat="47.81773" lon="7.18447">
        <ele>291.9</ele>
        <time>2019-08-09T20:33:30Z</time>
      </trkpt>
      <trkpt lat="47.81769" lon="7.18446">
        <ele>291.8</ele>
        <time>2019-08-09T20:33:31Z</time>
      </trkpt>
      <trkpt lat="47.81766" lon="7.18445">
        <ele>291.8</ele>
        <time>2019-08-09T20:33:32Z</time>
      </trkpt>
      <trkpt lat="47.81762" lon="7.18444">
        <ele>291.7</ele>
        <time>2019-08-09T20:33:33Z</time>
      </trkpt>
      <trkpt lat="47.81759" lon="7.18443">
        <ele>291.6</ele>
        <time>2019-08-09T20:33:34Z</time>
      </trkpt>
      <trkpt lat="47.81755" lon="7.18441">
        <ele>291.6</ele>
        <time>2019-08-09T20:33:35Z</time>
      </trkpt>
      <trkpt lat="47.81752" lon="7.1844">
        <ele>291.5</ele>
        <time>2019-08-09T20:33:36Z</time>
      </trkpt>
      <trkpt lat="47.81749" lon="7.1844">
        <ele>291.4</ele>
        <time>2019-08-09T20:33:37Z</time>
      </trkpt>
      <trkpt lat="47.81745" lon="7.18439">
        <ele>291.4</ele>
        <time>2019-08-09T20:33:38Z</time>
      </trkpt>
      <trkpt lat="47.81742" lon="7.18438">
        <ele>291.3</ele>
        <time>2019-08-09T20:33:39Z</time>
      </trkpt>
      <trkpt lat="47.81737" lon="7.18437">
        <ele>291.2</ele>
        <time>2019-08-09T20:33:40Z</time>
      </trkpt>
      <trkpt lat="47.81733" lon="7.18437">
        <ele>291</ele>
        <time>2019-08-09T20:33:41Z</time>
      </trkpt>
      <trkpt lat="47.81728" lon="7.18436">
        <ele>290.9</ele>
        <time>2019-08-09T20:33:42Z</time>
      </trkpt>
      <trkpt lat="47.81722" lon="7.18436">
        <ele>290.7</ele>
        <time>2019-08-09T20:33:43Z</time>
      </trkpt>
      <trkpt lat="47.81716" lon="7.18436">
        <ele>290.5</ele>
        <time>2019-08-09T20:33:44Z</time>
      </trkpt>
      <trkpt lat="47.8171" lon="7.18435">
        <ele>290.3</ele>
        <time>2019-08-09T20:33:45Z</time>
      </trkpt>
      <trkpt lat="47.81705" lon="7.18435">
        <ele>290.1</ele>
        <time>2019-08-09T20:33:46Z</time>
      </trkpt>
      <trkpt lat="47.817" lon="7.18436">
        <ele>289.9</ele>
        <time>2019-08-09T20:33:47Z</time>
      </trkpt>
      <trkpt lat="47.81696" lon="7.18438">
        <ele>289.7</ele>
        <time>2019-08-09T20:33:48Z</time>
      </trkpt>
      <trkpt lat="47.81691" lon="7.1844">
        <ele>289.5</ele>
        <time>2019-08-09T20:33:49Z</time>
      </trkpt>
      <trkpt lat="47.81686" lon="7.1844">
        <ele>289.3</ele>
        <time>2019-08-09T20:33:50Z</time>
      </trkpt>
      <trkpt lat="47.81681" lon="7.18441">
        <ele>289.2</ele>
        <time>2019-08-09T20:33:51Z</time>
      </trkpt>
      <trkpt lat="47.81676" lon="7.18441">
        <ele>289</ele>
        <time>2019-08-09T20:33:52Z</time>
      </trkpt>
      <trkpt lat="47.81673" lon="7.18443">
        <ele>288.9</ele>
        <time>2019-08-09T20:33:53Z</time>
      </trkpt>
      <trkpt lat="47.81668" lon="7.18445">
        <ele>288.8</ele>
        <time>2019-08-09T20:33:54Z</time>
      </trkpt>
      <trkpt lat="47.81664" lon="7.18448">
        <ele>288.6</ele>
        <time>2019-08-09T20:33:55Z</time>
      </trkpt>
      <trkpt lat="47.81661" lon="7.1845">
        <ele>288.5</ele>
        <time>2019-08-09T20:33:56Z</time>
      </trkpt>
      <trkpt lat="47.81656" lon="7.18451">
        <ele>288.4</ele>
        <time>2019-08-09T20:33:57Z</time>
      </trkpt>
      <trkpt lat="47.81652" lon="7.1845">
        <ele>288.3</ele>
        <time>2019-08-09T20:33:59Z</time>
      </trkpt>
      <trkpt lat="47.81653" lon="7.18446">
        <ele>288.2</ele>
        <time>2019-08-09T20:34:05Z</time>
      </trkpt>
      <trkpt lat="47.81656" lon="7.18443">
        <ele>288.6</ele>
        <time>2019-08-09T20:34:09Z</time>
      </trkpt>
      <trkpt lat="47.81656" lon="7.18433">
        <ele>288.9</ele>
        <time>2019-08-09T20:34:32Z</time>
      </trkpt>
      <trkpt lat="47.81655" lon="7.18426">
        <ele>289.2</ele>
        <time>2019-08-09T20:34:34Z</time>
      </trkpt>
      <trkpt lat="47.81655" lon="7.18419">
        <ele>289.4</ele>
        <time>2019-08-09T20:34:36Z</time>
      </trkpt>
      <trkpt lat="47.81655" lon="7.18414">
        <ele>289.6</ele>
        <time>2019-08-09T20:34:37Z</time>
      </trkpt>
      <trkpt lat="47.81655" lon="7.18408">
        <ele>289.8</ele>
        <time>2019-08-09T20:34:38Z</time>
      </trkpt>
      <trkpt lat="47.81654" lon="7.18401">
        <ele>290</ele>
        <time>2019-08-09T20:34:39Z</time>
      </trkpt>
      <trkpt lat="47.81652" lon="7.18396">
        <ele>290.1</ele>
        <time>2019-08-09T20:34:40Z</time>
      </trkpt>
      <trkpt lat="47.81652" lon="7.1839">
        <ele>290.2</ele>
        <time>2019-08-09T20:34:41Z</time>
      </trkpt>
      <trkpt lat="47.81651" lon="7.18385">
        <ele>290.3</ele>
        <time>2019-08-09T20:34:42Z</time>
      </trkpt>
      <trkpt lat="47.81651" lon="7.1838">
        <ele>290.3</ele>
        <time>2019-08-09T20:34:43Z</time>
      </trkpt>
      <trkpt lat="47.81651" lon="7.18375">
        <ele>290.4</ele>
        <time>2019-08-09T20:34:44Z</time>
      </trkpt>
      <trkpt lat="47.81651" lon="7.1837">
        <ele>290.4</ele>
        <time>2019-08-09T20:34:45Z</time>
      </trkpt>
      <trkpt lat="47.81651" lon="7.18361">
        <ele>290.5</ele>
        <time>2019-08-09T20:34:47Z</time>
      </trkpt>
      <trkpt lat="47.81652" lon="7.18355">
        <ele>290.6</ele>
        <time>2019-08-09T20:34:49Z</time>
      </trkpt>
      <trkpt lat="47.81653" lon="7.1835">
        <ele>290.7</ele>
        <time>2019-08-09T20:34:50Z</time>
      </trkpt>
      <trkpt lat="47.81654" lon="7.18345">
        <ele>290.8</ele>
        <time>2019-08-09T20:34:51Z</time>
      </trkpt>
      <trkpt lat="47.81655" lon="7.18341">
        <ele>290.9</ele>
        <time>2019-08-09T20:34:52Z</time>
      </trkpt>
      <trkpt lat="47.81656" lon="7.18336">
        <ele>291</ele>
        <time>2019-08-09T20:34:53Z</time>
      </trkpt>
      <trkpt lat="47.81656" lon="7.1833">
        <ele>291.1</ele>
        <time>2019-08-09T20:34:54Z</time>
      </trkpt>
      <trkpt lat="47.81658" lon="7.18326">
        <ele>291.2</ele>
        <time>2019-08-09T20:34:55Z</time>
      </trkpt>
      <trkpt lat="47.81659" lon="7.18321">
        <ele>291.4</ele>
        <time>2019-08-09T20:34:56Z</time>
      </trkpt>
      <trkpt lat="47.8166" lon="7.18316">
        <ele>291.5</ele>
        <time>2019-08-09T20:34:57Z</time>
      </trkpt>
      <trkpt lat="47.81661" lon="7.18311">
        <ele>291.6</ele>
        <time>2019-08-09T20:34:58Z</time>
      </trkpt>
      <trkpt lat="47.81662" lon="7.18307">
        <ele>291.7</ele>
        <time>2019-08-09T20:34:59Z</time>
      </trkpt>
      <trkpt lat="47.81663" lon="7.18303">
        <ele>291.8</ele>
        <time>2019-08-09T20:35:00Z</time>
      </trkpt>
      <trkpt lat="47.81664" lon="7.18299">
        <ele>292</ele>
        <time>2019-08-09T20:35:01Z</time>
      </trkpt>
      <trkpt lat="47.81665" lon="7.18294">
        <ele>292.1</ele>
        <time>2019-08-09T20:35:02Z</time>
      </trkpt>
      <trkpt lat="47.81665" lon="7.1829">
        <ele>292.2</ele>
        <time>2019-08-09T20:35:03Z</time>
      </trkpt>
      <trkpt lat="47.81666" lon="7.18287">
        <ele>292.3</ele>
        <time>2019-08-09T20:35:04Z</time>
      </trkpt>
      <trkpt lat="47.81668" lon="7.1828">
        <ele>292.5</ele>
        <time>2019-08-09T20:35:06Z</time>
      </trkpt>
      <trkpt lat="47.81668" lon="7.18276">
        <ele>292.6</ele>
        <time>2019-08-09T20:35:07Z</time>
      </trkpt>
      <trkpt lat="47.81669" lon="7.18271">
        <ele>292.7</ele>
        <time>2019-08-09T20:35:08Z</time>
      </trkpt>
      <trkpt lat="47.8167" lon="7.18267">
        <ele>292.8</ele>
        <time>2019-08-09T20:35:09Z</time>
      </trkpt>
      <trkpt lat="47.8167" lon="7.18263">
        <ele>292.9</ele>
        <time>2019-08-09T20:35:10Z</time>
      </trkpt>
      <trkpt lat="47.81671" lon="7.18258">
        <ele>293.1</ele>
        <time>2019-08-09T20:35:11Z</time>
      </trkpt>
      <trkpt lat="47.81671" lon="7.18253">
        <ele>293.2</ele>
        <time>2019-08-09T20:35:12Z</time>
      </trkpt>
      <trkpt lat="47.81673" lon="7.18247">
        <ele>293.4</ele>
        <time>2019-08-09T20:35:14Z</time>
      </trkpt>
      <trkpt lat="47.81673" lon="7.1824">
        <ele>293.6</ele>
        <time>2019-08-09T20:35:16Z</time>
      </trkpt>
      <trkpt lat="47.81675" lon="7.18233">
        <ele>293.8</ele>
        <time>2019-08-09T20:35:18Z</time>
      </trkpt>
      <trkpt lat="47.81676" lon="7.18227">
        <ele>294.1</ele>
        <time>2019-08-09T20:35:20Z</time>
      </trkpt>
      <trkpt lat="47.81676" lon="7.18221">
        <ele>294.3</ele>
        <time>2019-08-09T20:35:22Z</time>
      </trkpt>
      <trkpt lat="47.81678" lon="7.18216">
        <ele>294.5</ele>
        <time>2019-08-09T20:35:26Z</time>
      </trkpt>
      <trkpt lat="47.81679" lon="7.18211">
        <ele>294.7</ele>
        <time>2019-08-09T20:35:29Z</time>
      </trkpt>
      <trkpt lat="47.81678" lon="7.18205">
        <ele>294.9</ele>
        <time>2019-08-09T20:35:31Z</time>
      </trkpt>
      <trkpt lat="47.8168" lon="7.18202">
        <ele>295</ele>
        <time>2019-08-09T20:35:32Z</time>
      </trkpt>
      <trkpt lat="47.8168" lon="7.18198">
        <ele>295.2</ele>
        <time>2019-08-09T20:35:33Z</time>
      </trkpt>
      <trkpt lat="47.81682" lon="7.1819">
        <ele>295.5</ele>
        <time>2019-08-09T20:35:35Z</time>
      </trkpt>
      <trkpt lat="47.81683" lon="7.18186">
        <ele>295.6</ele>
        <time>2019-08-09T20:35:36Z</time>
      </trkpt>
      <trkpt lat="47.81684" lon="7.18181">
        <ele>295.8</ele>
        <time>2019-08-09T20:35:37Z</time>
      </trkpt>
      <trkpt lat="47.81685" lon="7.18174">
        <ele>296</ele>
        <time>2019-08-09T20:35:39Z</time>
      </trkpt>
      <trkpt lat="47.81686" lon="7.18168">
        <ele>296.2</ele>
        <time>2019-08-09T20:35:41Z</time>
      </trkpt>
      <trkpt lat="47.81687" lon="7.18164">
        <ele>296.3</ele>
        <time>2019-08-09T20:35:43Z</time>
      </trkpt>
      <trkpt lat="47.81687" lon="7.18157">
        <ele>296.5</ele>
        <time>2019-08-09T20:35:46Z</time>
      </trkpt>
      <trkpt lat="47.81688" lon="7.1815">
        <ele>296.6</ele>
        <time>2019-08-09T20:35:48Z</time>
      </trkpt>
      <trkpt lat="47.81689" lon="7.18147">
        <ele>296.7</ele>
        <time>2019-08-09T20:35:49Z</time>
      </trkpt>
      <trkpt lat="47.8169" lon="7.18138">
        <ele>296.9</ele>
        <time>2019-08-09T20:35:51Z</time>
      </trkpt>
      <trkpt lat="47.81691" lon="7.18134">
        <ele>297</ele>
        <time>2019-08-09T20:35:52Z</time>
      </trkpt>
      <trkpt lat="47.81693" lon="7.18128">
        <ele>297.2</ele>
        <time>2019-08-09T20:35:54Z</time>
      </trkpt>
      <trkpt lat="47.81694" lon="7.18124">
        <ele>297.3</ele>
        <time>2019-08-09T20:35:55Z</time>
      </trkpt>
      <trkpt lat="47.81697" lon="7.18118">
        <ele>297.5</ele>
        <time>2019-08-09T20:35:57Z</time>
      </trkpt>
      <trkpt lat="47.81698" lon="7.18115">
        <ele>297.6</ele>
        <time>2019-08-09T20:35:58Z</time>
      </trkpt>
      <trkpt lat="47.81701" lon="7.1811">
        <ele>297.9</ele>
        <time>2019-08-09T20:36:00Z</time>
      </trkpt>
      <trkpt lat="47.81702" lon="7.18106">
        <ele>298</ele>
        <time>2019-08-09T20:36:02Z</time>
      </trkpt>
      <trkpt lat="47.81704" lon="7.18102">
        <ele>298.2</ele>
        <time>2019-08-09T20:36:04Z</time>
      </trkpt>
      <trkpt lat="47.81705" lon="7.18098">
        <ele>298.5</ele>
        <time>2019-08-09T20:36:06Z</time>
      </trkpt>
      <trkpt lat="47.81708" lon="7.18094">
        <ele>298.6</ele>
        <time>2019-08-09T20:36:08Z</time>
      </trkpt>
      <trkpt lat="47.81711" lon="7.18089">
        <ele>298.7</ele>
        <time>2019-08-09T20:36:10Z</time>
      </trkpt>
      <trkpt lat="47.81714" lon="7.18084">
        <ele>298.9</ele>
        <time>2019-08-09T20:36:12Z</time>
      </trkpt>
      <trkpt lat="47.81716" lon="7.18082">
        <ele>298.9</ele>
        <time>2019-08-09T20:36:13Z</time>
      </trkpt>
      <trkpt lat="47.81719" lon="7.18078">
        <ele>299</ele>
        <time>2019-08-09T20:36:15Z</time>
      </trkpt>
      <trkpt lat="47.81723" lon="7.18074">
        <ele>299.1</ele>
        <time>2019-08-09T20:36:17Z</time>
      </trkpt>
      <trkpt lat="47.81725" lon="7.18071">
        <ele>299.1</ele>
        <time>2019-08-09T20:36:18Z</time>
      </trkpt>
      <trkpt lat="47.81728" lon="7.18068">
        <ele>299.2</ele>
        <time>2019-08-09T20:36:19Z</time>
      </trkpt>
      <trkpt lat="47.8173" lon="7.18066">
        <ele>299.2</ele>
        <time>2019-08-09T20:36:20Z</time>
      </trkpt>
      <trkpt lat="47.81734" lon="7.18063">
        <ele>299.3</ele>
        <time>2019-08-09T20:36:22Z</time>
      </trkpt>
      <trkpt lat="47.81738" lon="7.18059">
        <ele>299.4</ele>
        <time>2019-08-09T20:36:24Z</time>
      </trkpt>
      <trkpt lat="47.81743" lon="7.18056">
        <ele>299.6</ele>
        <time>2019-08-09T20:36:26Z</time>
      </trkpt>
      <trkpt lat="47.81747" lon="7.18051">
        <ele>299.7</ele>
        <time>2019-08-09T20:36:28Z</time>
      </trkpt>
      <trkpt lat="47.8175" lon="7.18049">
        <ele>299.8</ele>
        <time>2019-08-09T20:36:29Z</time>
      </trkpt>
      <trkpt lat="47.81752" lon="7.18046">
        <ele>299.8</ele>
        <time>2019-08-09T20:36:30Z</time>
      </trkpt>
      <trkpt lat="47.81755" lon="7.18043">
        <ele>299.9</ele>
        <time>2019-08-09T20:36:31Z</time>
      </trkpt>
      <trkpt lat="47.81759" lon="7.18037">
        <ele>300.2</ele>
        <time>2019-08-09T20:36:33Z</time>
      </trkpt>
      <trkpt lat="47.81762" lon="7.18033">
        <ele>300.4</ele>
        <time>2019-08-09T20:36:35Z</time>
      </trkpt>
      <trkpt lat="47.81766" lon="7.18029">
        <ele>300.6</ele>
        <time>2019-08-09T20:36:37Z</time>
      </trkpt>
      <trkpt lat="47.81769" lon="7.18025">
        <ele>300.7</ele>
        <time>2019-08-09T20:36:39Z</time>
      </trkpt>
      <trkpt lat="47.81772" lon="7.18022">
        <ele>300.9</ele>
        <time>2019-08-09T20:36:41Z</time>
      </trkpt>
      <trkpt lat="47.81775" lon="7.18019">
        <ele>301.1</ele>
        <time>2019-08-09T20:36:44Z</time>
      </trkpt>
      <trkpt lat="47.81778" lon="7.18015">
        <ele>301.3</ele>
        <time>2019-08-09T20:36:46Z</time>
      </trkpt>
      <trkpt lat="47.8178" lon="7.18011">
        <ele>301.5</ele>
        <time>2019-08-09T20:36:49Z</time>
      </trkpt>
      <trkpt lat="47.81783" lon="7.18007">
        <ele>301.8</ele>
        <time>2019-08-09T20:36:55Z</time>
      </trkpt>
      <trkpt lat="47.81786" lon="7.18004">
        <ele>302.1</ele>
        <time>2019-08-09T20:37:03Z</time>
      </trkpt>
      <trkpt lat="47.81787" lon="7.17998">
        <ele>302.1</ele>
        <time>2019-08-09T20:37:05Z</time>
      </trkpt>
      <trkpt lat="47.81786" lon="7.17993">
        <ele>302.1</ele>
        <time>2019-08-09T20:37:06Z</time>
      </trkpt>
      <trkpt lat="47.81783" lon="7.17989">
        <ele>302</ele>
        <time>2019-08-09T20:37:07Z</time>
      </trkpt>
      <trkpt lat="47.81781" lon="7.17984">
        <ele>302</ele>
        <time>2019-08-09T20:37:08Z</time>
      </trkpt>
      <trkpt lat="47.81779" lon="7.17979">
        <ele>301.9</ele>
        <time>2019-08-09T20:37:09Z</time>
      </trkpt>
      <trkpt lat="47.81776" lon="7.17973">
        <ele>301.9</ele>
        <time>2019-08-09T20:37:10Z</time>
      </trkpt>
      <trkpt lat="47.81773" lon="7.17968">
        <ele>301.9</ele>
        <time>2019-08-09T20:37:11Z</time>
      </trkpt>
      <trkpt lat="47.8177" lon="7.17962">
        <ele>301.8</ele>
        <time>2019-08-09T20:37:12Z</time>
      </trkpt>
      <trkpt lat="47.81768" lon="7.17956">
        <ele>301.7</ele>
        <time>2019-08-09T20:37:13Z</time>
      </trkpt>
      <trkpt lat="47.81765" lon="7.17951">
        <ele>301.6</ele>
        <time>2019-08-09T20:37:14Z</time>
      </trkpt>
      <trkpt lat="47.81763" lon="7.17945">
        <ele>301.6</ele>
        <time>2019-08-09T20:37:15Z</time>
      </trkpt>
      <trkpt lat="47.81761" lon="7.17939">
        <ele>301.5</ele>
        <time>2019-08-09T20:37:16Z</time>
      </trkpt>
      <trkpt lat="47.81758" lon="7.17932">
        <ele>301.4</ele>
        <time>2019-08-09T20:37:17Z</time>
      </trkpt>
      <trkpt lat="47.81755" lon="7.17927">
        <ele>301.2</ele>
        <time>2019-08-09T20:37:18Z</time>
      </trkpt>
      <trkpt lat="47.81751" lon="7.17921">
        <ele>301.1</ele>
        <time>2019-08-09T20:37:19Z</time>
      </trkpt>
      <trkpt lat="47.81746" lon="7.17915">
        <ele>300.9</ele>
        <time>2019-08-09T20:37:20Z</time>
      </trkpt>
      <trkpt lat="47.81742" lon="7.17909">
        <ele>300.6</ele>
        <time>2019-08-09T20:37:21Z</time>
      </trkpt>
      <trkpt lat="47.81738" lon="7.17903">
        <ele>300.4</ele>
        <time>2019-08-09T20:37:22Z</time>
      </trkpt>
      <trkpt lat="47.81734" lon="7.17896">
        <ele>300.1</ele>
        <time>2019-08-09T20:37:23Z</time>
      </trkpt>
      <trkpt lat="47.8173" lon="7.17889">
        <ele>299.9</ele>
        <time>2019-08-09T20:37:24Z</time>
      </trkpt>
      <trkpt lat="47.81726" lon="7.17883">
        <ele>299.7</ele>
        <time>2019-08-09T20:37:25Z</time>
      </trkpt>
      <trkpt lat="47.81722" lon="7.17877">
        <ele>299.5</ele>
        <time>2019-08-09T20:37:26Z</time>
      </trkpt>
      <trkpt lat="47.81718" lon="7.17871">
        <ele>299.3</ele>
        <time>2019-08-09T20:37:27Z</time>
      </trkpt>
      <trkpt lat="47.81714" lon="7.17865">
        <ele>299.2</ele>
        <time>2019-08-09T20:37:28Z</time>
      </trkpt>
      <trkpt lat="47.81711" lon="7.17859">
        <ele>299</ele>
        <time>2019-08-09T20:37:29Z</time>
      </trkpt>
      <trkpt lat="47.81708" lon="7.17853">
        <ele>298.9</ele>
        <time>2019-08-09T20:37:30Z</time>
      </trkpt>
      <trkpt lat="47.81704" lon="7.17848">
        <ele>298.7</ele>
        <time>2019-08-09T20:37:31Z</time>
      </trkpt>
      <trkpt lat="47.81701" lon="7.17842">
        <ele>298.6</ele>
        <time>2019-08-09T20:37:32Z</time>
      </trkpt>
      <trkpt lat="47.81698" lon="7.17837">
        <ele>298.5</ele>
        <time>2019-08-09T20:37:33Z</time>
      </trkpt>
      <trkpt lat="47.81695" lon="7.17833">
        <ele>298.4</ele>
        <time>2019-08-09T20:37:34Z</time>
      </trkpt>
      <trkpt lat="47.81692" lon="7.17828">
        <ele>298.3</ele>
        <time>2019-08-09T20:37:35Z</time>
      </trkpt>
      <trkpt lat="47.81689" lon="7.17825">
        <ele>298.2</ele>
        <time>2019-08-09T20:37:36Z</time>
      </trkpt>
      <trkpt lat="47.81687" lon="7.17822">
        <ele>298.1</ele>
        <time>2019-08-09T20:37:37Z</time>
      </trkpt>
      <trkpt lat="47.81684" lon="7.17819">
        <ele>298</ele>
        <time>2019-08-09T20:37:38Z</time>
      </trkpt>
      <trkpt lat="47.8168" lon="7.17817">
        <ele>297.8</ele>
        <time>2019-08-09T20:37:39Z</time>
      </trkpt>
      <trkpt lat="47.81677" lon="7.17814">
        <ele>297.7</ele>
        <time>2019-08-09T20:37:40Z</time>
      </trkpt>
      <trkpt lat="47.81673" lon="7.17812">
        <ele>297.6</ele>
        <time>2019-08-09T20:37:41Z</time>
      </trkpt>
      <trkpt lat="47.81669" lon="7.1781">
        <ele>297.4</ele>
        <time>2019-08-09T20:37:42Z</time>
      </trkpt>
      <trkpt lat="47.81664" lon="7.17807">
        <ele>297.2</ele>
        <time>2019-08-09T20:37:43Z</time>
      </trkpt>
      <trkpt lat="47.81659" lon="7.17805">
        <ele>296.9</ele>
        <time>2019-08-09T20:37:44Z</time>
      </trkpt>
      <trkpt lat="47.81654" lon="7.17804">
        <ele>296.8</ele>
        <time>2019-08-09T20:37:45Z</time>
      </trkpt>
      <trkpt lat="47.81649" lon="7.17802">
        <ele>296.6</ele>
        <time>2019-08-09T20:37:46Z</time>
      </trkpt>
      <trkpt lat="47.81644" lon="7.17801">
        <ele>296.4</ele>
        <time>2019-08-09T20:37:47Z</time>
      </trkpt>
      <trkpt lat="47.81639" lon="7.17801">
        <ele>296.3</ele>
        <time>2019-08-09T20:37:48Z</time>
      </trkpt>
      <trkpt lat="47.81635" lon="7.178">
        <ele>296.1</ele>
        <time>2019-08-09T20:37:49Z</time>
      </trkpt>
      <trkpt lat="47.8163" lon="7.17799">
        <ele>295.9</ele>
        <time>2019-08-09T20:37:50Z</time>
      </trkpt>
      <trkpt lat="47.81625" lon="7.178">
        <ele>295.7</ele>
        <time>2019-08-09T20:37:51Z</time>
      </trkpt>
      <trkpt lat="47.81621" lon="7.178">
        <ele>295.5</ele>
        <time>2019-08-09T20:37:52Z</time>
      </trkpt>
      <trkpt lat="47.81616" lon="7.17801">
        <ele>295.3</ele>
        <time>2019-08-09T20:37:53Z</time>
      </trkpt>
      <trkpt lat="47.81612" lon="7.17801">
        <ele>295.2</ele>
        <time>2019-08-09T20:37:54Z</time>
      </trkpt>
      <trkpt lat="47.81607" lon="7.17802">
        <ele>295.1</ele>
        <time>2019-08-09T20:37:55Z</time>
      </trkpt>
      <trkpt lat="47.81602" lon="7.17803">
        <ele>295</ele>
        <time>2019-08-09T20:37:56Z</time>
      </trkpt>
      <trkpt lat="47.81597" lon="7.17803">
        <ele>294.9</ele>
        <time>2019-08-09T20:37:57Z</time>
      </trkpt>
      <trkpt lat="47.81593" lon="7.17803">
        <ele>294.8</ele>
        <time>2019-08-09T20:37:58Z</time>
      </trkpt>
      <trkpt lat="47.81588" lon="7.17803">
        <ele>294.6</ele>
        <time>2019-08-09T20:37:59Z</time>
      </trkpt>
      <trkpt lat="47.81584" lon="7.17804">
        <ele>294.6</ele>
        <time>2019-08-09T20:38:00Z</time>
      </trkpt>
      <trkpt lat="47.81579" lon="7.17805">
        <ele>294.5</ele>
        <time>2019-08-09T20:38:01Z</time>
      </trkpt>
      <trkpt lat="47.81575" lon="7.17805">
        <ele>294.4</ele>
        <time>2019-08-09T20:38:02Z</time>
      </trkpt>
      <trkpt lat="47.8157" lon="7.17805">
        <ele>294.4</ele>
        <time>2019-08-09T20:38:03Z</time>
      </trkpt>
      <trkpt lat="47.81566" lon="7.17806">
        <ele>294.4</ele>
        <time>2019-08-09T20:38:04Z</time>
      </trkpt>
      <trkpt lat="47.81561" lon="7.17806">
        <ele>294.3</ele>
        <time>2019-08-09T20:38:05Z</time>
      </trkpt>
      <trkpt lat="47.81557" lon="7.17807">
        <ele>294.3</ele>
        <time>2019-08-09T20:38:06Z</time>
      </trkpt>
      <trkpt lat="47.81552" lon="7.17808">
        <ele>294.3</ele>
        <time>2019-08-09T20:38:07Z</time>
      </trkpt>
      <trkpt lat="47.81548" lon="7.17808">
        <ele>294.3</ele>
        <time>2019-08-09T20:38:08Z</time>
      </trkpt>
      <trkpt lat="47.81543" lon="7.17809">
        <ele>294.3</ele>
        <time>2019-08-09T20:38:09Z</time>
      </trkpt>
      <trkpt lat="47.81538" lon="7.1781">
        <ele>294.4</ele>
        <time>2019-08-09T20:38:10Z</time>
      </trkpt>
      <trkpt lat="47.81534" lon="7.17811">
        <ele>294.4</ele>
        <time>2019-08-09T20:38:11Z</time>
      </trkpt>
      <trkpt lat="47.81529" lon="7.17811">
        <ele>294.5</ele>
        <time>2019-08-09T20:38:12Z</time>
      </trkpt>
      <trkpt lat="47.81525" lon="7.17812">
        <ele>294.5</ele>
        <time>2019-08-09T20:38:13Z</time>
      </trkpt>
      <trkpt lat="47.81521" lon="7.17813">
        <ele>294.5</ele>
        <time>2019-08-09T20:38:14Z</time>
      </trkpt>
      <trkpt lat="47.81517" lon="7.17814">
        <ele>294.6</ele>
        <time>2019-08-09T20:38:15Z</time>
      </trkpt>
      <trkpt lat="47.81513" lon="7.17815">
        <ele>294.6</ele>
        <time>2019-08-09T20:38:16Z</time>
      </trkpt>
      <trkpt lat="47.81509" lon="7.17816">
        <ele>294.7</ele>
        <time>2019-08-09T20:38:17Z</time>
      </trkpt>
      <trkpt lat="47.81505" lon="7.17818">
        <ele>294.7</ele>
        <time>2019-08-09T20:38:18Z</time>
      </trkpt>
      <trkpt lat="47.81501" lon="7.17819">
        <ele>294.7</ele>
        <time>2019-08-09T20:38:19Z</time>
      </trkpt>
      <trkpt lat="47.81497" lon="7.1782">
        <ele>294.7</ele>
        <time>2019-08-09T20:38:20Z</time>
      </trkpt>
      <trkpt lat="47.81493" lon="7.17821">
        <ele>294.7</ele>
        <time>2019-08-09T20:38:21Z</time>
      </trkpt>
      <trkpt lat="47.8149" lon="7.17821">
        <ele>294.7</ele>
        <time>2019-08-09T20:38:22Z</time>
      </trkpt>
      <trkpt lat="47.81486" lon="7.1782">
        <ele>294.6</ele>
        <time>2019-08-09T20:38:23Z</time>
      </trkpt>
      <trkpt lat="47.81483" lon="7.17819">
        <ele>294.6</ele>
        <time>2019-08-09T20:38:24Z</time>
      </trkpt>
      <trkpt lat="47.8148" lon="7.17819">
        <ele>294.6</ele>
        <time>2019-08-09T20:38:25Z</time>
      </trkpt>
      <trkpt lat="47.81476" lon="7.17817">
        <ele>294.5</ele>
        <time>2019-08-09T20:38:26Z</time>
      </trkpt>
      <trkpt lat="47.81473" lon="7.17815">
        <ele>294.5</ele>
        <time>2019-08-09T20:38:27Z</time>
      </trkpt>
      <trkpt lat="47.8147" lon="7.17813">
        <ele>294.4</ele>
        <time>2019-08-09T20:38:28Z</time>
      </trkpt>
      <trkpt lat="47.81467" lon="7.1781">
        <ele>294.4</ele>
        <time>2019-08-09T20:38:29Z</time>
      </trkpt>
      <trkpt lat="47.81464" lon="7.17807">
        <ele>294.4</ele>
        <time>2019-08-09T20:38:30Z</time>
      </trkpt>
      <trkpt lat="47.8146" lon="7.17805">
        <ele>294.3</ele>
        <time>2019-08-09T20:38:31Z</time>
      </trkpt>
      <trkpt lat="47.81456" lon="7.17803">
        <ele>294.3</ele>
        <time>2019-08-09T20:38:32Z</time>
      </trkpt>
      <trkpt lat="47.81453" lon="7.17801">
        <ele>294.3</ele>
        <time>2019-08-09T20:38:33Z</time>
      </trkpt>
      <trkpt lat="47.81449" lon="7.178">
        <ele>294.2</ele>
        <time>2019-08-09T20:38:34Z</time>
      </trkpt>
      <trkpt lat="47.81446" lon="7.17798">
        <ele>294.2</ele>
        <time>2019-08-09T20:38:35Z</time>
      </trkpt>
      <trkpt lat="47.81443" lon="7.17797">
        <ele>294.2</ele>
        <time>2019-08-09T20:38:36Z</time>
      </trkpt>
      <trkpt lat="47.81439" lon="7.17795">
        <ele>294.2</ele>
        <time>2019-08-09T20:38:37Z</time>
      </trkpt>
      <trkpt lat="47.81436" lon="7.17793">
        <ele>294.1</ele>
        <time>2019-08-09T20:38:38Z</time>
      </trkpt>
      <trkpt lat="47.81432" lon="7.17791">
        <ele>294.1</ele>
        <time>2019-08-09T20:38:39Z</time>
      </trkpt>
      <trkpt lat="47.81429" lon="7.17788">
        <ele>294.1</ele>
        <time>2019-08-09T20:38:40Z</time>
      </trkpt>
      <trkpt lat="47.81426" lon="7.17785">
        <ele>294</ele>
        <time>2019-08-09T20:38:41Z</time>
      </trkpt>
      <trkpt lat="47.81422" lon="7.17781">
        <ele>294</ele>
        <time>2019-08-09T20:38:42Z</time>
      </trkpt>
      <trkpt lat="47.8142" lon="7.17777">
        <ele>294</ele>
        <time>2019-08-09T20:38:43Z</time>
      </trkpt>
      <trkpt lat="47.81417" lon="7.17774">
        <ele>293.9</ele>
        <time>2019-08-09T20:38:44Z</time>
      </trkpt>
      <trkpt lat="47.81414" lon="7.1777">
        <ele>293.9</ele>
        <time>2019-08-09T20:38:45Z</time>
      </trkpt>
      <trkpt lat="47.81412" lon="7.17766">
        <ele>293.9</ele>
        <time>2019-08-09T20:38:46Z</time>
      </trkpt>
      <trkpt lat="47.81409" lon="7.17762">
        <ele>293.9</ele>
        <time>2019-08-09T20:38:47Z</time>
      </trkpt>
      <trkpt lat="47.81407" lon="7.17759">
        <ele>293.9</ele>
        <time>2019-08-09T20:38:48Z</time>
      </trkpt>
      <trkpt lat="47.81404" lon="7.17755">
        <ele>293.8</ele>
        <time>2019-08-09T20:38:49Z</time>
      </trkpt>
      <trkpt lat="47.81401" lon="7.17751">
        <ele>293.8</ele>
        <time>2019-08-09T20:38:50Z</time>
      </trkpt>
      <trkpt lat="47.81398" lon="7.17747">
        <ele>293.8</ele>
        <time>2019-08-09T20:38:51Z</time>
      </trkpt>
      <trkpt lat="47.81395" lon="7.17743">
        <ele>293.8</ele>
        <time>2019-08-09T20:38:52Z</time>
      </trkpt>
      <trkpt lat="47.81392" lon="7.17739">
        <ele>293.8</ele>
        <time>2019-08-09T20:38:53Z</time>
      </trkpt>
      <trkpt lat="47.8139" lon="7.17735">
        <ele>293.8</ele>
        <time>2019-08-09T20:38:54Z</time>
      </trkpt>
      <trkpt lat="47.81387" lon="7.17731">
        <ele>293.7</ele>
        <time>2019-08-09T20:38:55Z</time>
      </trkpt>
      <trkpt lat="47.81384" lon="7.17728">
        <ele>293.7</ele>
        <time>2019-08-09T20:38:56Z</time>
      </trkpt>
      <trkpt lat="47.81381" lon="7.17724">
        <ele>293.7</ele>
        <time>2019-08-09T20:38:57Z</time>
      </trkpt>
      <trkpt lat="47.81379" lon="7.17721">
        <ele>293.7</ele>
        <time>2019-08-09T20:38:58Z</time>
      </trkpt>
      <trkpt lat="47.81376" lon="7.17717">
        <ele>293.7</ele>
        <time>2019-08-09T20:38:59Z</time>
      </trkpt>
      <trkpt lat="47.81373" lon="7.17713">
        <ele>293.6</ele>
        <time>2019-08-09T20:39:00Z</time>
      </trkpt>
      <trkpt lat="47.81371" lon="7.17709">
        <ele>293.6</ele>
        <time>2019-08-09T20:39:01Z</time>
      </trkpt>
      <trkpt lat="47.81368" lon="7.17706">
        <ele>293.6</ele>
        <time>2019-08-09T20:39:02Z</time>
      </trkpt>
      <trkpt lat="47.81365" lon="7.17702">
        <ele>293.6</ele>
        <time>2019-08-09T20:39:03Z</time>
      </trkpt>
      <trkpt lat="47.81362" lon="7.17699">
        <ele>293.6</ele>
        <time>2019-08-09T20:39:04Z</time>
      </trkpt>
      <trkpt lat="47.81359" lon="7.17695">
        <ele>293.6</ele>
        <time>2019-08-09T20:39:05Z</time>
      </trkpt>
      <trkpt lat="47.81357" lon="7.17691">
        <ele>293.6</ele>
        <time>2019-08-09T20:39:06Z</time>
      </trkpt>
      <trkpt lat="47.81354" lon="7.17687">
        <ele>293.6</ele>
        <time>2019-08-09T20:39:07Z</time>
      </trkpt>
      <trkpt lat="47.81352" lon="7.17683">
        <ele>293.6</ele>
        <time>2019-08-09T20:39:08Z</time>
      </trkpt>
      <trkpt lat="47.81349" lon="7.17678">
        <ele>293.7</ele>
        <time>2019-08-09T20:39:09Z</time>
      </trkpt>
      <trkpt lat="47.81346" lon="7.17674">
        <ele>293.7</ele>
        <time>2019-08-09T20:39:10Z</time>
      </trkpt>
      <trkpt lat="47.81344" lon="7.1767">
        <ele>293.8</ele>
        <time>2019-08-09T20:39:11Z</time>
      </trkpt>
      <trkpt lat="47.81342" lon="7.17665">
        <ele>293.9</ele>
        <time>2019-08-09T20:39:12Z</time>
      </trkpt>
      <trkpt lat="47.8134" lon="7.17661">
        <ele>294</ele>
        <time>2019-08-09T20:39:13Z</time>
      </trkpt>
      <trkpt lat="47.81338" lon="7.17657">
        <ele>294.1</ele>
        <time>2019-08-09T20:39:14Z</time>
      </trkpt>
      <trkpt lat="47.81335" lon="7.17653">
        <ele>294.1</ele>
        <time>2019-08-09T20:39:15Z</time>
      </trkpt>
      <trkpt lat="47.81333" lon="7.17649">
        <ele>294.2</ele>
        <time>2019-08-09T20:39:16Z</time>
      </trkpt>
      <trkpt lat="47.81331" lon="7.17645">
        <ele>294.2</ele>
        <time>2019-08-09T20:39:17Z</time>
      </trkpt>
      <trkpt lat="47.81329" lon="7.17641">
        <ele>294.2</ele>
        <time>2019-08-09T20:39:18Z</time>
      </trkpt>
      <trkpt lat="47.81327" lon="7.17637">
        <ele>294.2</ele>
        <time>2019-08-09T20:39:19Z</time>
      </trkpt>
      <trkpt lat="47.81325" lon="7.17633">
        <ele>294.3</ele>
        <time>2019-08-09T20:39:20Z</time>
      </trkpt>
      <trkpt lat="47.81322" lon="7.17629">
        <ele>294.3</ele>
        <time>2019-08-09T20:39:21Z</time>
      </trkpt>
      <trkpt lat="47.8132" lon="7.17626">
        <ele>294.3</ele>
        <time>2019-08-09T20:39:22Z</time>
      </trkpt>
      <trkpt lat="47.81318" lon="7.17622">
        <ele>294.4</ele>
        <time>2019-08-09T20:39:23Z</time>
      </trkpt>
      <trkpt lat="47.81316" lon="7.17618">
        <ele>294.4</ele>
        <time>2019-08-09T20:39:24Z</time>
      </trkpt>
      <trkpt lat="47.81313" lon="7.17614">
        <ele>294.5</ele>
        <time>2019-08-09T20:39:25Z</time>
      </trkpt>
      <trkpt lat="47.81311" lon="7.1761">
        <ele>294.5</ele>
        <time>2019-08-09T20:39:26Z</time>
      </trkpt>
      <trkpt lat="47.81308" lon="7.17606">
        <ele>294.6</ele>
        <time>2019-08-09T20:39:27Z</time>
      </trkpt>
      <trkpt lat="47.81306" lon="7.17602">
        <ele>294.6</ele>
        <time>2019-08-09T20:39:28Z</time>
      </trkpt>
      <trkpt lat="47.81303" lon="7.17598">
        <ele>294.7</ele>
        <time>2019-08-09T20:39:29Z</time>
      </trkpt>
      <trkpt lat="47.81301" lon="7.17594">
        <ele>294.8</ele>
        <time>2019-08-09T20:39:30Z</time>
      </trkpt>
      <trkpt lat="47.81298" lon="7.1759">
        <ele>294.9</ele>
        <time>2019-08-09T20:39:31Z</time>
      </trkpt>
      <trkpt lat="47.81296" lon="7.17586">
        <ele>295</ele>
        <time>2019-08-09T20:39:32Z</time>
      </trkpt>
      <trkpt lat="47.81294" lon="7.17582">
        <ele>295.1</ele>
        <time>2019-08-09T20:39:33Z</time>
      </trkpt>
      <trkpt lat="47.81291" lon="7.17578">
        <ele>295.2</ele>
        <time>2019-08-09T20:39:34Z</time>
      </trkpt>
      <trkpt lat="47.81289" lon="7.17574">
        <ele>295.3</ele>
        <time>2019-08-09T20:39:35Z</time>
      </trkpt>
      <trkpt lat="47.81286" lon="7.1757">
        <ele>295.4</ele>
        <time>2019-08-09T20:39:36Z</time>
      </trkpt>
      <trkpt lat="47.81284" lon="7.17566">
        <ele>295.5</ele>
        <time>2019-08-09T20:39:37Z</time>
      </trkpt>
      <trkpt lat="47.81281" lon="7.17563">
        <ele>295.6</ele>
        <time>2019-08-09T20:39:38Z</time>
      </trkpt>
      <trkpt lat="47.81278" lon="7.17559">
        <ele>295.6</ele>
        <time>2019-08-09T20:39:39Z</time>
      </trkpt>
      <trkpt lat="47.81276" lon="7.17556">
        <ele>295.7</ele>
        <time>2019-08-09T20:39:40Z</time>
      </trkpt>
      <trkpt lat="47.81274" lon="7.17552">
        <ele>295.7</ele>
        <time>2019-08-09T20:39:41Z</time>
      </trkpt>
      <trkpt lat="47.81272" lon="7.17548">
        <ele>295.7</ele>
        <time>2019-08-09T20:39:42Z</time>
      </trkpt>
      <trkpt lat="47.8127" lon="7.17544">
        <ele>295.8</ele>
        <time>2019-08-09T20:39:43Z</time>
      </trkpt>
      <trkpt lat="47.81268" lon="7.1754">
        <ele>295.8</ele>
        <time>2019-08-09T20:39:44Z</time>
      </trkpt>
      <trkpt lat="47.81265" lon="7.17536">
        <ele>295.8</ele>
        <time>2019-08-09T20:39:45Z</time>
      </trkpt>
      <trkpt lat="47.81262" lon="7.17531">
        <ele>295.8</ele>
        <time>2019-08-09T20:39:46Z</time>
      </trkpt>
      <trkpt lat="47.81259" lon="7.17527">
        <ele>295.7</ele>
        <time>2019-08-09T20:39:47Z</time>
      </trkpt>
      <trkpt lat="47.81257" lon="7.17523">
        <ele>295.7</ele>
        <time>2019-08-09T20:39:48Z</time>
      </trkpt>
      <trkpt lat="47.81254" lon="7.17518">
        <ele>295.7</ele>
        <time>2019-08-09T20:39:49Z</time>
      </trkpt>
      <trkpt lat="47.81252" lon="7.17514">
        <ele>295.7</ele>
        <time>2019-08-09T20:39:50Z</time>
      </trkpt>
      <trkpt lat="47.8125" lon="7.17511">
        <ele>295.7</ele>
        <time>2019-08-09T20:39:51Z</time>
      </trkpt>
      <trkpt lat="47.81247" lon="7.17508">
        <ele>295.7</ele>
        <time>2019-08-09T20:39:52Z</time>
      </trkpt>
      <trkpt lat="47.81245" lon="7.17505">
        <ele>295.7</ele>
        <time>2019-08-09T20:39:53Z</time>
      </trkpt>
      <trkpt lat="47.81243" lon="7.17501">
        <ele>295.7</ele>
        <time>2019-08-09T20:39:54Z</time>
      </trkpt>
      <trkpt lat="47.8124" lon="7.17498">
        <ele>295.7</ele>
        <time>2019-08-09T20:39:55Z</time>
      </trkpt>
      <trkpt lat="47.81238" lon="7.17494">
        <ele>295.7</ele>
        <time>2019-08-09T20:39:56Z</time>
      </trkpt>
      <trkpt lat="47.81236" lon="7.1749">
        <ele>295.7</ele>
        <time>2019-08-09T20:39:57Z</time>
      </trkpt>
      <trkpt lat="47.81233" lon="7.17486">
        <ele>295.7</ele>
        <time>2019-08-09T20:39:58Z</time>
      </trkpt>
      <trkpt lat="47.81231" lon="7.17483">
        <ele>295.7</ele>
        <time>2019-08-09T20:39:59Z</time>
      </trkpt>
      <trkpt lat="47.81229" lon="7.17479">
        <ele>295.7</ele>
        <time>2019-08-09T20:40:00Z</time>
      </trkpt>
      <trkpt lat="47.81227" lon="7.17476">
        <ele>295.6</ele>
        <time>2019-08-09T20:40:01Z</time>
      </trkpt>
      <trkpt lat="47.81224" lon="7.1747">
        <ele>295.6</ele>
        <time>2019-08-09T20:40:03Z</time>
      </trkpt>
      <trkpt lat="47.81221" lon="7.17464">
        <ele>295.6</ele>
        <time>2019-08-09T20:40:05Z</time>
      </trkpt>
      <trkpt lat="47.8122" lon="7.1746">
        <ele>295.6</ele>
        <time>2019-08-09T20:40:06Z</time>
      </trkpt>
      <trkpt lat="47.8122" lon="7.17456">
        <ele>295.5</ele>
        <time>2019-08-09T20:40:07Z</time>
      </trkpt>
      <trkpt lat="47.8122" lon="7.17452">
        <ele>295.5</ele>
        <time>2019-08-09T20:40:08Z</time>
      </trkpt>
      <trkpt lat="47.81219" lon="7.17447">
        <ele>295.4</ele>
        <time>2019-08-09T20:40:09Z</time>
      </trkpt>
      <trkpt lat="47.81218" lon="7.17443">
        <ele>295.4</ele>
        <time>2019-08-09T20:40:10Z</time>
      </trkpt>
      <trkpt lat="47.81216" lon="7.17438">
        <ele>295.5</ele>
        <time>2019-08-09T20:40:11Z</time>
      </trkpt>
      <trkpt lat="47.81215" lon="7.17435">
        <ele>295.5</ele>
        <time>2019-08-09T20:40:12Z</time>
      </trkpt>
      <trkpt lat="47.81212" lon="7.17433">
        <ele>295.5</ele>
        <time>2019-08-09T20:40:13Z</time>
      </trkpt>
      <trkpt lat="47.81209" lon="7.17433">
        <ele>295.5</ele>
        <time>2019-08-09T20:40:14Z</time>
      </trkpt>
      <trkpt lat="47.81205" lon="7.17433">
        <ele>295.5</ele>
        <time>2019-08-09T20:40:15Z</time>
      </trkpt>
      <trkpt lat="47.81202" lon="7.17433">
        <ele>295.5</ele>
        <time>2019-08-09T20:40:16Z</time>
      </trkpt>
      <trkpt lat="47.81198" lon="7.17433">
        <ele>295.6</ele>
        <time>2019-08-09T20:40:17Z</time>
      </trkpt>
      <trkpt lat="47.81195" lon="7.17434">
        <ele>295.6</ele>
        <time>2019-08-09T20:40:18Z</time>
      </trkpt>
      <trkpt lat="47.81192" lon="7.17434">
        <ele>295.7</ele>
        <time>2019-08-09T20:40:19Z</time>
      </trkpt>
      <trkpt lat="47.81188" lon="7.17434">
        <ele>295.7</ele>
        <time>2019-08-09T20:40:20Z</time>
      </trkpt>
      <trkpt lat="47.81185" lon="7.17433">
        <ele>295.7</ele>
        <time>2019-08-09T20:40:21Z</time>
      </trkpt>
      <trkpt lat="47.81182" lon="7.17431">
        <ele>295.8</ele>
        <time>2019-08-09T20:40:22Z</time>
      </trkpt>
      <trkpt lat="47.81179" lon="7.17429">
        <ele>295.8</ele>
        <time>2019-08-09T20:40:23Z</time>
      </trkpt>
      <trkpt lat="47.81176" lon="7.17426">
        <ele>295.9</ele>
        <time>2019-08-09T20:40:24Z</time>
      </trkpt>
      <trkpt lat="47.81174" lon="7.17423">
        <ele>296</ele>
        <time>2019-08-09T20:40:25Z</time>
      </trkpt>
      <trkpt lat="47.81171" lon="7.1742">
        <ele>296</ele>
        <time>2019-08-09T20:40:26Z</time>
      </trkpt>
      <trkpt lat="47.81169" lon="7.17418">
        <ele>296.1</ele>
        <time>2019-08-09T20:40:27Z</time>
      </trkpt>
      <trkpt lat="47.81167" lon="7.17415">
        <ele>296.1</ele>
        <time>2019-08-09T20:40:28Z</time>
      </trkpt>
      <trkpt lat="47.81164" lon="7.17412">
        <ele>296.2</ele>
        <time>2019-08-09T20:40:29Z</time>
      </trkpt>
      <trkpt lat="47.81161" lon="7.17409">
        <ele>296.2</ele>
        <time>2019-08-09T20:40:30Z</time>
      </trkpt>
      <trkpt lat="47.81158" lon="7.17406">
        <ele>296.3</ele>
        <time>2019-08-09T20:40:31Z</time>
      </trkpt>
      <trkpt lat="47.81156" lon="7.17404">
        <ele>296.3</ele>
        <time>2019-08-09T20:40:32Z</time>
      </trkpt>
      <trkpt lat="47.81153" lon="7.174">
        <ele>296.5</ele>
        <time>2019-08-09T20:40:33Z</time>
      </trkpt>
      <trkpt lat="47.81151" lon="7.17397">
        <ele>296.6</ele>
        <time>2019-08-09T20:40:34Z</time>
      </trkpt>
      <trkpt lat="47.81149" lon="7.17393">
        <ele>296.7</ele>
        <time>2019-08-09T20:40:35Z</time>
      </trkpt>
      <trkpt lat="47.81146" lon="7.1739">
        <ele>296.9</ele>
        <time>2019-08-09T20:40:36Z</time>
      </trkpt>
      <trkpt lat="47.81143" lon="7.17387">
        <ele>297</ele>
        <time>2019-08-09T20:40:37Z</time>
      </trkpt>
      <trkpt lat="47.8114" lon="7.17384">
        <ele>297.4</ele>
        <time>2019-08-09T20:40:38Z</time>
      </trkpt>
      <trkpt lat="47.81138" lon="7.1738">
        <ele>297.5</ele>
        <time>2019-08-09T20:40:39Z</time>
      </trkpt>
      <trkpt lat="47.81135" lon="7.17376">
        <ele>297.6</ele>
        <time>2019-08-09T20:40:40Z</time>
      </trkpt>
      <trkpt lat="47.81133" lon="7.17371">
        <ele>297.7</ele>
        <time>2019-08-09T20:40:41Z</time>
      </trkpt>
      <trkpt lat="47.8113" lon="7.17367">
        <ele>297.8</ele>
        <time>2019-08-09T20:40:42Z</time>
      </trkpt>
      <trkpt lat="47.81128" lon="7.17363">
        <ele>297.8</ele>
        <time>2019-08-09T20:40:43Z</time>
      </trkpt>
      <trkpt lat="47.81126" lon="7.1736">
        <ele>297.9</ele>
        <time>2019-08-09T20:40:44Z</time>
      </trkpt>
      <trkpt lat="47.81124" lon="7.17356">
        <ele>298</ele>
        <time>2019-08-09T20:40:45Z</time>
      </trkpt>
      <trkpt lat="47.81122" lon="7.17352">
        <ele>298</ele>
        <time>2019-08-09T20:40:46Z</time>
      </trkpt>
      <trkpt lat="47.81119" lon="7.17349">
        <ele>298.1</ele>
        <time>2019-08-09T20:40:47Z</time>
      </trkpt>
      <trkpt lat="47.81117" lon="7.17346">
        <ele>298.1</ele>
        <time>2019-08-09T20:40:48Z</time>
      </trkpt>
      <trkpt lat="47.81115" lon="7.17342">
        <ele>298.1</ele>
        <time>2019-08-09T20:40:49Z</time>
      </trkpt>
      <trkpt lat="47.81113" lon="7.17338">
        <ele>298.2</ele>
        <time>2019-08-09T20:40:50Z</time>
      </trkpt>
      <trkpt lat="47.8111" lon="7.17334">
        <ele>298.2</ele>
        <time>2019-08-09T20:40:51Z</time>
      </trkpt>
      <trkpt lat="47.81108" lon="7.1733">
        <ele>298.2</ele>
        <time>2019-08-09T20:40:52Z</time>
      </trkpt>
      <trkpt lat="47.81106" lon="7.17327">
        <ele>298.3</ele>
        <time>2019-08-09T20:40:53Z</time>
      </trkpt>
      <trkpt lat="47.81103" lon="7.17323">
        <ele>298.3</ele>
        <time>2019-08-09T20:40:54Z</time>
      </trkpt>
      <trkpt lat="47.81101" lon="7.17319">
        <ele>298.4</ele>
        <time>2019-08-09T20:40:55Z</time>
      </trkpt>
      <trkpt lat="47.81099" lon="7.17316">
        <ele>298.4</ele>
        <time>2019-08-09T20:40:56Z</time>
      </trkpt>
      <trkpt lat="47.81096" lon="7.17312">
        <ele>298.5</ele>
        <time>2019-08-09T20:40:57Z</time>
      </trkpt>
      <trkpt lat="47.81093" lon="7.17309">
        <ele>298.6</ele>
        <time>2019-08-09T20:40:58Z</time>
      </trkpt>
      <trkpt lat="47.81091" lon="7.17306">
        <ele>298.6</ele>
        <time>2019-08-09T20:40:59Z</time>
      </trkpt>
      <trkpt lat="47.81088" lon="7.17303">
        <ele>298.7</ele>
        <time>2019-08-09T20:41:00Z</time>
      </trkpt>
      <trkpt lat="47.81085" lon="7.17299">
        <ele>298.8</ele>
        <time>2019-08-09T20:41:01Z</time>
      </trkpt>
      <trkpt lat="47.81082" lon="7.17296">
        <ele>298.9</ele>
        <time>2019-08-09T20:41:02Z</time>
      </trkpt>
      <trkpt lat="47.81079" lon="7.17293">
        <ele>298.9</ele>
        <time>2019-08-09T20:41:03Z</time>
      </trkpt>
      <trkpt lat="47.81076" lon="7.1729">
        <ele>298.9</ele>
        <time>2019-08-09T20:41:04Z</time>
      </trkpt>
      <trkpt lat="47.81073" lon="7.17287">
        <ele>299</ele>
        <time>2019-08-09T20:41:05Z</time>
      </trkpt>
      <trkpt lat="47.8107" lon="7.17284">
        <ele>299</ele>
        <time>2019-08-09T20:41:06Z</time>
      </trkpt>
      <trkpt lat="47.81066" lon="7.17282">
        <ele>299</ele>
        <time>2019-08-09T20:41:07Z</time>
      </trkpt>
      <trkpt lat="47.81063" lon="7.17279">
        <ele>299.1</ele>
        <time>2019-08-09T20:41:08Z</time>
      </trkpt>
      <trkpt lat="47.8106" lon="7.17276">
        <ele>299.1</ele>
        <time>2019-08-09T20:41:09Z</time>
      </trkpt>
      <trkpt lat="47.81057" lon="7.17273">
        <ele>299.1</ele>
        <time>2019-08-09T20:41:10Z</time>
      </trkpt>
      <trkpt lat="47.81054" lon="7.1727">
        <ele>299.2</ele>
        <time>2019-08-09T20:41:11Z</time>
      </trkpt>
      <trkpt lat="47.81051" lon="7.17268">
        <ele>299.2</ele>
        <time>2019-08-09T20:41:12Z</time>
      </trkpt>
      <trkpt lat="47.81048" lon="7.17266">
        <ele>299.2</ele>
        <time>2019-08-09T20:41:13Z</time>
      </trkpt>
      <trkpt lat="47.81045" lon="7.17264">
        <ele>299.3</ele>
        <time>2019-08-09T20:41:14Z</time>
      </trkpt>
      <trkpt lat="47.81042" lon="7.17262">
        <ele>299.3</ele>
        <time>2019-08-09T20:41:15Z</time>
      </trkpt>
      <trkpt lat="47.81038" lon="7.1726">
        <ele>299.3</ele>
        <time>2019-08-09T20:41:16Z</time>
      </trkpt>
      <trkpt lat="47.81035" lon="7.17259">
        <ele>299.3</ele>
        <time>2019-08-09T20:41:17Z</time>
      </trkpt>
      <trkpt lat="47.81032" lon="7.17257">
        <ele>299.4</ele>
        <time>2019-08-09T20:41:18Z</time>
      </trkpt>
      <trkpt lat="47.81029" lon="7.17255">
        <ele>299.4</ele>
        <time>2019-08-09T20:41:19Z</time>
      </trkpt>
      <trkpt lat="47.81026" lon="7.17255">
        <ele>299.5</ele>
        <time>2019-08-09T20:41:20Z</time>
      </trkpt>
      <trkpt lat="47.8102" lon="7.17254">
        <ele>299.5</ele>
        <time>2019-08-09T20:41:22Z</time>
      </trkpt>
      <trkpt lat="47.81016" lon="7.17253">
        <ele>299.6</ele>
        <time>2019-08-09T20:41:24Z</time>
      </trkpt>
      <trkpt lat="47.81012" lon="7.17251">
        <ele>299.6</ele>
        <time>2019-08-09T20:41:26Z</time>
      </trkpt>
      <trkpt lat="47.81006" lon="7.17246">
        <ele>299.7</ele>
        <time>2019-08-09T20:43:16Z</time>
      </trkpt>
      <trkpt lat="47.81004" lon="7.17241">
        <ele>299.7</ele>
        <time>2019-08-09T20:43:19Z</time>
      </trkpt>
      <trkpt lat="47.81005" lon="7.17236">
        <ele>299.7</ele>
        <time>2019-08-09T20:43:21Z</time>
      </trkpt>
      <trkpt lat="47.81007" lon="7.17231">
        <ele>299.7</ele>
        <time>2019-08-09T20:43:24Z</time>
      </trkpt>
      <trkpt lat="47.81009" lon="7.17227">
        <ele>299.7</ele>
        <time>2019-08-09T20:43:26Z</time>
      </trkpt>
      <trkpt lat="47.81011" lon="7.17224">
        <ele>299.7</ele>
        <time>2019-08-09T20:43:31Z</time>
      </trkpt>
      <trkpt lat="47.81009" lon="7.17221">
        <ele>299.7</ele>
        <time>2019-08-09T20:43:43Z</time>
      </trkpt>
      <trkpt lat="47.81006" lon="7.17222">
        <ele>299.7</ele>
        <time>2019-08-09T20:44:01Z</time>
      </trkpt>
      <trkpt lat="47.81003" lon="7.17225">
        <ele>299.8</ele>
        <time>2019-08-09T20:44:04Z</time>
      </trkpt>
      <trkpt lat="47.81001" lon="7.17229">
        <ele>299.8</ele>
        <time>2019-08-09T20:44:08Z</time>
      </trkpt>
      <trkpt lat="47.80999" lon="7.17232">
        <ele>299.9</ele>
        <time>2019-08-09T20:44:10Z</time>
      </trkpt>
      <trkpt lat="47.80997" lon="7.17238">
        <ele>299.9</ele>
        <time>2019-08-09T20:44:12Z</time>
      </trkpt>
      <trkpt lat="47.80993" lon="7.17241">
        <ele>300</ele>
        <time>2019-08-09T20:44:14Z</time>
      </trkpt>
      <trkpt lat="47.80991" lon="7.1725">
        <ele>300</ele>
        <time>2019-08-09T20:44:59Z</time>
      </trkpt>
      <trkpt lat="47.80988" lon="7.1725">
        <ele>300.1</ele>
        <time>2019-08-09T20:45:02Z</time>
      </trkpt>
      <trkpt lat="47.80982" lon="7.17249">
        <ele>300.1</ele>
        <time>2019-08-09T20:45:04Z</time>
      </trkpt>
      <trkpt lat="47.8098" lon="7.17249">
        <ele>300.1</ele>
        <time>2019-08-09T20:45:05Z</time>
      </trkpt>
      <trkpt lat="47.80977" lon="7.17248">
        <ele>300.1</ele>
        <time>2019-08-09T20:45:06Z</time>
      </trkpt>
      <trkpt lat="47.80973" lon="7.17247">
        <ele>300.1</ele>
        <time>2019-08-09T20:45:07Z</time>
      </trkpt>
      <trkpt lat="47.8097" lon="7.17245">
        <ele>300.1</ele>
        <time>2019-08-09T20:45:08Z</time>
      </trkpt>
      <trkpt lat="47.80966" lon="7.17243">
        <ele>300.1</ele>
        <time>2019-08-09T20:45:09Z</time>
      </trkpt>
      <trkpt lat="47.80961" lon="7.17241">
        <ele>300.1</ele>
        <time>2019-08-09T20:45:10Z</time>
      </trkpt>
      <trkpt lat="47.80956" lon="7.1724">
        <ele>300</ele>
        <time>2019-08-09T20:45:11Z</time>
      </trkpt>
      <trkpt lat="47.80952" lon="7.17238">
        <ele>300</ele>
        <time>2019-08-09T20:45:12Z</time>
      </trkpt>
      <trkpt lat="47.80948" lon="7.17237">
        <ele>300</ele>
        <time>2019-08-09T20:45:13Z</time>
      </trkpt>
      <trkpt lat="47.80944" lon="7.17237">
        <ele>300</ele>
        <time>2019-08-09T20:45:14Z</time>
      </trkpt>
      <trkpt lat="47.8094" lon="7.17236">
        <ele>299.9</ele>
        <time>2019-08-09T20:45:15Z</time>
      </trkpt>
      <trkpt lat="47.80936" lon="7.17235">
        <ele>299.9</ele>
        <time>2019-08-09T20:45:16Z</time>
      </trkpt>
      <trkpt lat="47.80933" lon="7.17234">
        <ele>299.9</ele>
        <time>2019-08-09T20:45:17Z</time>
      </trkpt>
      <trkpt lat="47.80929" lon="7.17233">
        <ele>299.8</ele>
        <time>2019-08-09T20:45:18Z</time>
      </trkpt>
      <trkpt lat="47.80926" lon="7.17232">
        <ele>299.8</ele>
        <time>2019-08-09T20:45:19Z</time>
      </trkpt>
      <trkpt lat="47.80922" lon="7.1723">
        <ele>299.8</ele>
        <time>2019-08-09T20:45:20Z</time>
      </trkpt>
      <trkpt lat="47.80919" lon="7.17229">
        <ele>299.7</ele>
        <time>2019-08-09T20:45:21Z</time>
      </trkpt>
      <trkpt lat="47.80915" lon="7.17228">
        <ele>299.7</ele>
        <time>2019-08-09T20:45:22Z</time>
      </trkpt>
      <trkpt lat="47.80912" lon="7.17228">
        <ele>299.6</ele>
        <time>2019-08-09T20:45:23Z</time>
      </trkpt>
      <trkpt lat="47.80908" lon="7.17227">
        <ele>299.5</ele>
        <time>2019-08-09T20:45:24Z</time>
      </trkpt>
      <trkpt lat="47.80904" lon="7.17226">
        <ele>299.5</ele>
        <time>2019-08-09T20:45:25Z</time>
      </trkpt>
      <trkpt lat="47.80901" lon="7.17225">
        <ele>299.4</ele>
        <time>2019-08-09T20:45:26Z</time>
      </trkpt>
      <trkpt lat="47.80895" lon="7.17224">
        <ele>299.3</ele>
        <time>2019-08-09T20:45:27Z</time>
      </trkpt>
      <trkpt lat="47.80891" lon="7.17223">
        <ele>299.3</ele>
        <time>2019-08-09T20:45:28Z</time>
      </trkpt>
      <trkpt lat="47.80887" lon="7.17222">
        <ele>299.2</ele>
        <time>2019-08-09T20:45:29Z</time>
      </trkpt>
      <trkpt lat="47.80881" lon="7.1722">
        <ele>299.1</ele>
        <time>2019-08-09T20:45:30Z</time>
      </trkpt>
      <trkpt lat="47.80876" lon="7.17218">
        <ele>299.1</ele>
        <time>2019-08-09T20:45:31Z</time>
      </trkpt>
      <trkpt lat="47.8087" lon="7.17216">
        <ele>299.1</ele>
        <time>2019-08-09T20:45:32Z</time>
      </trkpt>
      <trkpt lat="47.80866" lon="7.17215">
        <ele>299</ele>
        <time>2019-08-09T20:45:33Z</time>
      </trkpt>
      <trkpt lat="47.80861" lon="7.17214">
        <ele>299</ele>
        <time>2019-08-09T20:45:34Z</time>
      </trkpt>
      <trkpt lat="47.80856" lon="7.17212">
        <ele>298.9</ele>
        <time>2019-08-09T20:45:35Z</time>
      </trkpt>
      <trkpt lat="47.80851" lon="7.17211">
        <ele>298.9</ele>
        <time>2019-08-09T20:45:36Z</time>
      </trkpt>
      <trkpt lat="47.80847" lon="7.17209">
        <ele>298.9</ele>
        <time>2019-08-09T20:45:37Z</time>
      </trkpt>
      <trkpt lat="47.80842" lon="7.17208">
        <ele>298.8</ele>
        <time>2019-08-09T20:45:38Z</time>
      </trkpt>
      <trkpt lat="47.80837" lon="7.17206">
        <ele>298.8</ele>
        <time>2019-08-09T20:45:39Z</time>
      </trkpt>
      <trkpt lat="47.80833" lon="7.17205">
        <ele>298.7</ele>
        <time>2019-08-09T20:45:40Z</time>
      </trkpt>
      <trkpt lat="47.80828" lon="7.17204">
        <ele>298.7</ele>
        <time>2019-08-09T20:45:41Z</time>
      </trkpt>
      <trkpt lat="47.80824" lon="7.17203">
        <ele>298.7</ele>
        <time>2019-08-09T20:45:42Z</time>
      </trkpt>
      <trkpt lat="47.80821" lon="7.17202">
        <ele>298.6</ele>
        <time>2019-08-09T20:45:43Z</time>
      </trkpt>
      <trkpt lat="47.80817" lon="7.17201">
        <ele>298.6</ele>
        <time>2019-08-09T20:45:44Z</time>
      </trkpt>
      <trkpt lat="47.80814" lon="7.172">
        <ele>298.6</ele>
        <time>2019-08-09T20:45:45Z</time>
      </trkpt>
      <trkpt lat="47.8081" lon="7.17199">
        <ele>298.6</ele>
        <time>2019-08-09T20:45:46Z</time>
      </trkpt>
      <trkpt lat="47.80805" lon="7.17199">
        <ele>298.5</ele>
        <time>2019-08-09T20:45:47Z</time>
      </trkpt>
      <trkpt lat="47.80803" lon="7.17197">
        <ele>298.5</ele>
        <time>2019-08-09T20:45:48Z</time>
      </trkpt>
      <trkpt lat="47.80798" lon="7.17197">
        <ele>298.5</ele>
        <time>2019-08-09T20:45:49Z</time>
      </trkpt>
      <trkpt lat="47.80794" lon="7.17196">
        <ele>298.4</ele>
        <time>2019-08-09T20:45:50Z</time>
      </trkpt>
      <trkpt lat="47.80789" lon="7.17196">
        <ele>298.4</ele>
        <time>2019-08-09T20:45:51Z</time>
      </trkpt>
      <trkpt lat="47.80785" lon="7.17197">
        <ele>298.4</ele>
        <time>2019-08-09T20:45:52Z</time>
      </trkpt>
      <trkpt lat="47.80782" lon="7.17198">
        <ele>298.4</ele>
        <time>2019-08-09T20:45:53Z</time>
      </trkpt>
      <trkpt lat="47.80778" lon="7.17199">
        <ele>298.3</ele>
        <time>2019-08-09T20:45:54Z</time>
      </trkpt>
      <trkpt lat="47.80775" lon="7.172">
        <ele>298.3</ele>
        <time>2019-08-09T20:45:55Z</time>
      </trkpt>
      <trkpt lat="47.80771" lon="7.17201">
        <ele>298.2</ele>
        <time>2019-08-09T20:45:56Z</time>
      </trkpt>
      <trkpt lat="47.80768" lon="7.17201">
        <ele>298.2</ele>
        <time>2019-08-09T20:45:57Z</time>
      </trkpt>
      <trkpt lat="47.80764" lon="7.17202">
        <ele>298.2</ele>
        <time>2019-08-09T20:45:58Z</time>
      </trkpt>
      <trkpt lat="47.80761" lon="7.17203">
        <ele>298.1</ele>
        <time>2019-08-09T20:46:00Z</time>
      </trkpt>
      <trkpt lat="47.80758" lon="7.17204">
        <ele>298.1</ele>
        <time>2019-08-09T20:46:03Z</time>
      </trkpt>
      <trkpt lat="47.80754" lon="7.17204">
        <ele>298.1</ele>
        <time>2019-08-09T20:46:07Z</time>
      </trkpt>
      <trkpt lat="47.80751" lon="7.17205">
        <ele>298.1</ele>
        <time>2019-08-09T20:46:10Z</time>
      </trkpt>
      <trkpt lat="47.80746" lon="7.17208">
        <ele>298</ele>
        <time>2019-08-09T20:46:28Z</time>
      </trkpt>
      <trkpt lat="47.80742" lon="7.17208">
        <ele>298</ele>
        <time>2019-08-09T20:46:30Z</time>
      </trkpt>
      <trkpt lat="47.80739" lon="7.17209">
        <ele>298</ele>
        <time>2019-08-09T20:46:31Z</time>
      </trkpt>
      <trkpt lat="47.80735" lon="7.17211">
        <ele>298</ele>
        <time>2019-08-09T20:46:33Z</time>
      </trkpt>
      <trkpt lat="47.80729" lon="7.17212">
        <ele>297.9</ele>
        <time>2019-08-09T20:46:35Z</time>
      </trkpt>
      <trkpt lat="47.80726" lon="7.17212">
        <ele>297.9</ele>
        <time>2019-08-09T20:46:36Z</time>
      </trkpt>
      <trkpt lat="47.80723" lon="7.17213">
        <ele>297.9</ele>
        <time>2019-08-09T20:46:37Z</time>
      </trkpt>
      <trkpt lat="47.80719" lon="7.17213">
        <ele>297.9</ele>
        <time>2019-08-09T20:46:38Z</time>
      </trkpt>
      <trkpt lat="47.80716" lon="7.17214">
        <ele>297.9</ele>
        <time>2019-08-09T20:46:39Z</time>
      </trkpt>
      <trkpt lat="47.80712" lon="7.17215">
        <ele>297.8</ele>
        <time>2019-08-09T20:46:40Z</time>
      </trkpt>
      <trkpt lat="47.80709" lon="7.17216">
        <ele>297.8</ele>
        <time>2019-08-09T20:46:41Z</time>
      </trkpt>
      <trkpt lat="47.80705" lon="7.17216">
        <ele>297.8</ele>
        <time>2019-08-09T20:46:42Z</time>
      </trkpt>
      <trkpt lat="47.80701" lon="7.17217">
        <ele>297.8</ele>
        <time>2019-08-09T20:46:43Z</time>
      </trkpt>
      <trkpt lat="47.80698" lon="7.17218">
        <ele>297.8</ele>
        <time>2019-08-09T20:46:44Z</time>
      </trkpt>
      <trkpt lat="47.80695" lon="7.17219">
        <ele>297.8</ele>
        <time>2019-08-09T20:46:45Z</time>
      </trkpt>
      <trkpt lat="47.80691" lon="7.1722">
        <ele>297.7</ele>
        <time>2019-08-09T20:46:46Z</time>
      </trkpt>
      <trkpt lat="47.80688" lon="7.1722">
        <ele>297.7</ele>
        <time>2019-08-09T20:46:47Z</time>
      </trkpt>
      <trkpt lat="47.80685" lon="7.17221">
        <ele>297.7</ele>
        <time>2019-08-09T20:46:48Z</time>
      </trkpt>
      <trkpt lat="47.80682" lon="7.17222">
        <ele>297.7</ele>
        <time>2019-08-09T20:46:49Z</time>
      </trkpt>
      <trkpt lat="47.80678" lon="7.17223">
        <ele>297.7</ele>
        <time>2019-08-09T20:46:50Z</time>
      </trkpt>
      <trkpt lat="47.80674" lon="7.17224">
        <ele>297.6</ele>
        <time>2019-08-09T20:46:51Z</time>
      </trkpt>
      <trkpt lat="47.80671" lon="7.17226">
        <ele>297.6</ele>
        <time>2019-08-09T20:46:52Z</time>
      </trkpt>
      <trkpt lat="47.80667" lon="7.17227">
        <ele>297.6</ele>
        <time>2019-08-09T20:46:53Z</time>
      </trkpt>
      <trkpt lat="47.80664" lon="7.17229">
        <ele>297.6</ele>
        <time>2019-08-09T20:46:54Z</time>
      </trkpt>
      <trkpt lat="47.8066" lon="7.1723">
        <ele>297.6</ele>
        <time>2019-08-09T20:46:55Z</time>
      </trkpt>
      <trkpt lat="47.80657" lon="7.17231">
        <ele>297.6</ele>
        <time>2019-08-09T20:46:56Z</time>
      </trkpt>
      <trkpt lat="47.80653" lon="7.17233">
        <ele>297.6</ele>
        <time>2019-08-09T20:46:57Z</time>
      </trkpt>
      <trkpt lat="47.8065" lon="7.17235">
        <ele>297.6</ele>
        <time>2019-08-09T20:46:58Z</time>
      </trkpt>
      <trkpt lat="47.80647" lon="7.17237">
        <ele>297.6</ele>
        <time>2019-08-09T20:46:59Z</time>
      </trkpt>
      <trkpt lat="47.80645" lon="7.17241">
        <ele>297.6</ele>
        <time>2019-08-09T20:47:00Z</time>
      </trkpt>
      <trkpt lat="47.80643" lon="7.17246">
        <ele>297.7</ele>
        <time>2019-08-09T20:47:01Z</time>
      </trkpt>
      <trkpt lat="47.80642" lon="7.17251">
        <ele>297.7</ele>
        <time>2019-08-09T20:47:02Z</time>
      </trkpt>
      <trkpt lat="47.80642" lon="7.17258">
        <ele>297.8</ele>
        <time>2019-08-09T20:47:03Z</time>
      </trkpt>
      <trkpt lat="47.80642" lon="7.17264">
        <ele>297.9</ele>
        <time>2019-08-09T20:47:04Z</time>
      </trkpt>
      <trkpt lat="47.80643" lon="7.1727">
        <ele>297.9</ele>
        <time>2019-08-09T20:47:05Z</time>
      </trkpt>
      <trkpt lat="47.80643" lon="7.17277">
        <ele>298</ele>
        <time>2019-08-09T20:47:06Z</time>
      </trkpt>
      <trkpt lat="47.80644" lon="7.17284">
        <ele>298.1</ele>
        <time>2019-08-09T20:47:07Z</time>
      </trkpt>
      <trkpt lat="47.80645" lon="7.17291">
        <ele>298.1</ele>
        <time>2019-08-09T20:47:08Z</time>
      </trkpt>
      <trkpt lat="47.80646" lon="7.17298">
        <ele>298.2</ele>
        <time>2019-08-09T20:47:09Z</time>
      </trkpt>
      <trkpt lat="47.80647" lon="7.17305">
        <ele>298.3</ele>
        <time>2019-08-09T20:47:10Z</time>
      </trkpt>
      <trkpt lat="47.80647" lon="7.17312">
        <ele>298.4</ele>
        <time>2019-08-09T20:47:11Z</time>
      </trkpt>
      <trkpt lat="47.80648" lon="7.17319">
        <ele>298.5</ele>
        <time>2019-08-09T20:47:12Z</time>
      </trkpt>
      <trkpt lat="47.80648" lon="7.17326">
        <ele>298.5</ele>
        <time>2019-08-09T20:47:13Z</time>
      </trkpt>
      <trkpt lat="47.80649" lon="7.17333">
        <ele>298.6</ele>
        <time>2019-08-09T20:47:14Z</time>
      </trkpt>
      <trkpt lat="47.80649" lon="7.17339">
        <ele>298.7</ele>
        <time>2019-08-09T20:47:15Z</time>
      </trkpt>
      <trkpt lat="47.8065" lon="7.17346">
        <ele>298.9</ele>
        <time>2019-08-09T20:47:16Z</time>
      </trkpt>
      <trkpt lat="47.8065" lon="7.17353">
        <ele>299</ele>
        <time>2019-08-09T20:47:17Z</time>
      </trkpt>
      <trkpt lat="47.8065" lon="7.17361">
        <ele>299.2</ele>
        <time>2019-08-09T20:47:18Z</time>
      </trkpt>
      <trkpt lat="47.8065" lon="7.17368">
        <ele>299.3</ele>
        <time>2019-08-09T20:47:19Z</time>
      </trkpt>
      <trkpt lat="47.8065" lon="7.17375">
        <ele>299.5</ele>
        <time>2019-08-09T20:47:20Z</time>
      </trkpt>
      <trkpt lat="47.8065" lon="7.17382">
        <ele>299.7</ele>
        <time>2019-08-09T20:47:21Z</time>
      </trkpt>
      <trkpt lat="47.8065" lon="7.17388">
        <ele>299.9</ele>
        <time>2019-08-09T20:47:22Z</time>
      </trkpt>
      <trkpt lat="47.8065" lon="7.17396">
        <ele>300.1</ele>
        <time>2019-08-09T20:47:23Z</time>
      </trkpt>
      <trkpt lat="47.8065" lon="7.17403">
        <ele>300.2</ele>
        <time>2019-08-09T20:47:24Z</time>
      </trkpt>
      <trkpt lat="47.80651" lon="7.1741">
        <ele>300.3</ele>
        <time>2019-08-09T20:47:25Z</time>
      </trkpt>
      <trkpt lat="47.80651" lon="7.17416">
        <ele>300.4</ele>
        <time>2019-08-09T20:47:26Z</time>
      </trkpt>
      <trkpt lat="47.80651" lon="7.17422">
        <ele>300.5</ele>
        <time>2019-08-09T20:47:27Z</time>
      </trkpt>
      <trkpt lat="47.80652" lon="7.17427">
        <ele>300.5</ele>
        <time>2019-08-09T20:47:28Z</time>
      </trkpt>
      <trkpt lat="47.80652" lon="7.17432">
        <ele>300.5</ele>
        <time>2019-08-09T20:47:29Z</time>
      </trkpt>
      <trkpt lat="47.80653" lon="7.17437">
        <ele>300.5</ele>
        <time>2019-08-09T20:47:30Z</time>
      </trkpt>
      <trkpt lat="47.80653" lon="7.17442">
        <ele>300.5</ele>
        <time>2019-08-09T20:47:31Z</time>
      </trkpt>
      <trkpt lat="47.80654" lon="7.17446">
        <ele>300.4</ele>
        <time>2019-08-09T20:47:32Z</time>
      </trkpt>
      <trkpt lat="47.80654" lon="7.17451">
        <ele>300.4</ele>
        <time>2019-08-09T20:47:33Z</time>
      </trkpt>
      <trkpt lat="47.80655" lon="7.17455">
        <ele>300.4</ele>
        <time>2019-08-09T20:47:34Z</time>
      </trkpt>
      <trkpt lat="47.80655" lon="7.1746">
        <ele>300.3</ele>
        <time>2019-08-09T20:47:35Z</time>
      </trkpt>
      <trkpt lat="47.80656" lon="7.17464">
        <ele>300.3</ele>
        <time>2019-08-09T20:47:36Z</time>
      </trkpt>
      <trkpt lat="47.80656" lon="7.17468">
        <ele>300.3</ele>
        <time>2019-08-09T20:47:37Z</time>
      </trkpt>
      <trkpt lat="47.80656" lon="7.17473">
        <ele>300.3</ele>
        <time>2019-08-09T20:47:38Z</time>
      </trkpt>
      <trkpt lat="47.80657" lon="7.17477">
        <ele>300.2</ele>
        <time>2019-08-09T20:47:39Z</time>
      </trkpt>
      <trkpt lat="47.80657" lon="7.17481">
        <ele>300.2</ele>
        <time>2019-08-09T20:47:40Z</time>
      </trkpt>
      <trkpt lat="47.80657" lon="7.17486">
        <ele>300.2</ele>
        <time>2019-08-09T20:47:41Z</time>
      </trkpt>
      <trkpt lat="47.80657" lon="7.1749">
        <ele>300.1</ele>
        <time>2019-08-09T20:47:42Z</time>
      </trkpt>
      <trkpt lat="47.80657" lon="7.17494">
        <ele>300.1</ele>
        <time>2019-08-09T20:47:43Z</time>
      </trkpt>
      <trkpt lat="47.80658" lon="7.17501">
        <ele>300</ele>
        <time>2019-08-09T20:47:45Z</time>
      </trkpt>
      <trkpt lat="47.80658" lon="7.17509">
        <ele>300</ele>
        <time>2019-08-09T20:47:47Z</time>
      </trkpt>
      <trkpt lat="47.80658" lon="7.17514">
        <ele>299.9</ele>
        <time>2019-08-09T20:47:49Z</time>
      </trkpt>
      <trkpt lat="47.80658" lon="7.17519">
        <ele>299.9</ele>
        <time>2019-08-09T20:47:51Z</time>
      </trkpt>
      <trkpt lat="47.80656" lon="7.17523">
        <ele>299.8</ele>
        <time>2019-08-09T20:47:53Z</time>
      </trkpt>
      <trkpt lat="47.80653" lon="7.17525">
        <ele>299.7</ele>
        <time>2019-08-09T20:47:57Z</time>
      </trkpt>
      <trkpt lat="47.8065" lon="7.17533">
        <ele>299.6</ele>
        <time>2019-08-09T20:49:23Z</time>
      </trkpt>
      <trkpt lat="47.80649" lon="7.17539">
        <ele>299.4</ele>
        <time>2019-08-09T20:49:26Z</time>
      </trkpt>
      <trkpt lat="47.80649" lon="7.17544">
        <ele>299.4</ele>
        <time>2019-08-09T20:49:28Z</time>
      </trkpt>
      <trkpt lat="47.80652" lon="7.17546">
        <ele>299.3</ele>
        <time>2019-08-09T20:49:30Z</time>
      </trkpt>
      <trkpt lat="47.80656" lon="7.17546">
        <ele>299.2</ele>
        <time>2019-08-09T20:49:32Z</time>
      </trkpt>
      <trkpt lat="47.80658" lon="7.17549">
        <ele>299.1</ele>
        <time>2019-08-09T20:49:34Z</time>
      </trkpt>
      <trkpt lat="47.80658" lon="7.17555">
        <ele>298.8</ele>
        <time>2019-08-09T20:49:36Z</time>
      </trkpt>
      <trkpt lat="47.80658" lon="7.17563">
        <ele>298.5</ele>
        <time>2019-08-09T20:49:38Z</time>
      </trkpt>
      <trkpt lat="47.80658" lon="7.17568">
        <ele>298.4</ele>
        <time>2019-08-09T20:49:39Z</time>
      </trkpt>
      <trkpt lat="47.80658" lon="7.17573">
        <ele>298.3</ele>
        <time>2019-08-09T20:49:40Z</time>
      </trkpt>
      <trkpt lat="47.80657" lon="7.17578">
        <ele>298.2</ele>
        <time>2019-08-09T20:49:41Z</time>
      </trkpt>
      <trkpt lat="47.80658" lon="7.17584">
        <ele>298</ele>
        <time>2019-08-09T20:49:42Z</time>
      </trkpt>
      <trkpt lat="47.80659" lon="7.1759">
        <ele>297.9</ele>
        <time>2019-08-09T20:49:43Z</time>
      </trkpt>
      <trkpt lat="47.8066" lon="7.17596">
        <ele>297.7</ele>
        <time>2019-08-09T20:49:44Z</time>
      </trkpt>
      <trkpt lat="47.8066" lon="7.17602">
        <ele>297.5</ele>
        <time>2019-08-09T20:49:45Z</time>
      </trkpt>
      <trkpt lat="47.80659" lon="7.17609">
        <ele>297.2</ele>
        <time>2019-08-09T20:49:46Z</time>
      </trkpt>
      <trkpt lat="47.80658" lon="7.17615">
        <ele>297.1</ele>
        <time>2019-08-09T20:49:47Z</time>
      </trkpt>
      <trkpt lat="47.80657" lon="7.17621">
        <ele>297</ele>
        <time>2019-08-09T20:49:48Z</time>
      </trkpt>
      <trkpt lat="47.80656" lon="7.17628">
        <ele>296.8</ele>
        <time>2019-08-09T20:49:49Z</time>
      </trkpt>
      <trkpt lat="47.80655" lon="7.17635">
        <ele>296.7</ele>
        <time>2019-08-09T20:49:50Z</time>
      </trkpt>
      <trkpt lat="47.80654" lon="7.17642">
        <ele>296.6</ele>
        <time>2019-08-09T20:49:51Z</time>
      </trkpt>
      <trkpt lat="47.80653" lon="7.1765">
        <ele>296.4</ele>
        <time>2019-08-09T20:49:52Z</time>
      </trkpt>
      <trkpt lat="47.80652" lon="7.17657">
        <ele>296.3</ele>
        <time>2019-08-09T20:49:53Z</time>
      </trkpt>
      <trkpt lat="47.80651" lon="7.17665">
        <ele>296.1</ele>
        <time>2019-08-09T20:49:54Z</time>
      </trkpt>
      <trkpt lat="47.80651" lon="7.17673">
        <ele>296</ele>
        <time>2019-08-09T20:49:55Z</time>
      </trkpt>
      <trkpt lat="47.80651" lon="7.1768">
        <ele>295.8</ele>
        <time>2019-08-09T20:49:56Z</time>
      </trkpt>
      <trkpt lat="47.8065" lon="7.17688">
        <ele>295.7</ele>
        <time>2019-08-09T20:49:57Z</time>
      </trkpt>
      <trkpt lat="47.8065" lon="7.17696">
        <ele>295.6</ele>
        <time>2019-08-09T20:49:58Z</time>
      </trkpt>
      <trkpt lat="47.80649" lon="7.17703">
        <ele>295.6</ele>
        <time>2019-08-09T20:49:59Z</time>
      </trkpt>
      <trkpt lat="47.80649" lon="7.17711">
        <ele>295.5</ele>
        <time>2019-08-09T20:50:00Z</time>
      </trkpt>
      <trkpt lat="47.80649" lon="7.17718">
        <ele>295.4</ele>
        <time>2019-08-09T20:50:01Z</time>
      </trkpt>
      <trkpt lat="47.80648" lon="7.17725">
        <ele>295.4</ele>
        <time>2019-08-09T20:50:02Z</time>
      </trkpt>
      <trkpt lat="47.80648" lon="7.17732">
        <ele>295.4</ele>
        <time>2019-08-09T20:50:03Z</time>
      </trkpt>
      <trkpt lat="47.80648" lon="7.17739">
        <ele>295.4</ele>
        <time>2019-08-09T20:50:04Z</time>
      </trkpt>
      <trkpt lat="47.80648" lon="7.17746">
        <ele>295.4</ele>
        <time>2019-08-09T20:50:05Z</time>
      </trkpt>
      <trkpt lat="47.80648" lon="7.17753">
        <ele>295.4</ele>
        <time>2019-08-09T20:50:06Z</time>
      </trkpt>
      <trkpt lat="47.80647" lon="7.17759">
        <ele>295.4</ele>
        <time>2019-08-09T20:50:07Z</time>
      </trkpt>
      <trkpt lat="47.80647" lon="7.17766">
        <ele>295.2</ele>
        <time>2019-08-09T20:50:08Z</time>
      </trkpt>
      <trkpt lat="47.80647" lon="7.17773">
        <ele>295.1</ele>
        <time>2019-08-09T20:50:09Z</time>
      </trkpt>
      <trkpt lat="47.80647" lon="7.1778">
        <ele>294.9</ele>
        <time>2019-08-09T20:50:10Z</time>
      </trkpt>
      <trkpt lat="47.80646" lon="7.17787">
        <ele>294.8</ele>
        <time>2019-08-09T20:50:11Z</time>
      </trkpt>
      <trkpt lat="47.80646" lon="7.17795">
        <ele>294.7</ele>
        <time>2019-08-09T20:50:12Z</time>
      </trkpt>
      <trkpt lat="47.80646" lon="7.17803">
        <ele>294.6</ele>
        <time>2019-08-09T20:50:13Z</time>
      </trkpt>
      <trkpt lat="47.80646" lon="7.17811">
        <ele>294.5</ele>
        <time>2019-08-09T20:50:14Z</time>
      </trkpt>
      <trkpt lat="47.80646" lon="7.17818">
        <ele>294.5</ele>
        <time>2019-08-09T20:50:15Z</time>
      </trkpt>
      <trkpt lat="47.80645" lon="7.17826">
        <ele>294.5</ele>
        <time>2019-08-09T20:50:16Z</time>
      </trkpt>
      <trkpt lat="47.80645" lon="7.17834">
        <ele>294.5</ele>
        <time>2019-08-09T20:50:17Z</time>
      </trkpt>
      <trkpt lat="47.80645" lon="7.17843">
        <ele>294.5</ele>
        <time>2019-08-09T20:50:18Z</time>
      </trkpt>
      <trkpt lat="47.80645" lon="7.17851">
        <ele>294.4</ele>
        <time>2019-08-09T20:50:19Z</time>
      </trkpt>
      <trkpt lat="47.80644" lon="7.17859">
        <ele>294.4</ele>
        <time>2019-08-09T20:50:20Z</time>
      </trkpt>
      <trkpt lat="47.80644" lon="7.17866">
        <ele>294.4</ele>
        <time>2019-08-09T20:50:21Z</time>
      </trkpt>
      <trkpt lat="47.80644" lon="7.17874">
        <ele>294.3</ele>
        <time>2019-08-09T20:50:22Z</time>
      </trkpt>
      <trkpt lat="47.80644" lon="7.17881">
        <ele>294.3</ele>
        <time>2019-08-09T20:50:23Z</time>
      </trkpt>
      <trkpt lat="47.80644" lon="7.17889">
        <ele>294.2</ele>
        <time>2019-08-09T20:50:24Z</time>
      </trkpt>
      <trkpt lat="47.80644" lon="7.17896">
        <ele>294.2</ele>
        <time>2019-08-09T20:50:25Z</time>
      </trkpt>
      <trkpt lat="47.80643" lon="7.17904">
        <ele>294.1</ele>
        <time>2019-08-09T20:50:26Z</time>
      </trkpt>
      <trkpt lat="47.80643" lon="7.17911">
        <ele>294.1</ele>
        <time>2019-08-09T20:50:27Z</time>
      </trkpt>
      <trkpt lat="47.80643" lon="7.17918">
        <ele>294</ele>
        <time>2019-08-09T20:50:28Z</time>
      </trkpt>
      <trkpt lat="47.80643" lon="7.17925">
        <ele>294</ele>
        <time>2019-08-09T20:50:29Z</time>
      </trkpt>
      <trkpt lat="47.80642" lon="7.17932">
        <ele>293.9</ele>
        <time>2019-08-09T20:50:30Z</time>
      </trkpt>
      <trkpt lat="47.80642" lon="7.17939">
        <ele>293.9</ele>
        <time>2019-08-09T20:50:31Z</time>
      </trkpt>
      <trkpt lat="47.80642" lon="7.17946">
        <ele>293.9</ele>
        <time>2019-08-09T20:50:32Z</time>
      </trkpt>
      <trkpt lat="47.80642" lon="7.17953">
        <ele>293.9</ele>
        <time>2019-08-09T20:50:33Z</time>
      </trkpt>
      <trkpt lat="47.80641" lon="7.1796">
        <ele>293.9</ele>
        <time>2019-08-09T20:50:34Z</time>
      </trkpt>
      <trkpt lat="47.80641" lon="7.17967">
        <ele>293.9</ele>
        <time>2019-08-09T20:50:35Z</time>
      </trkpt>
      <trkpt lat="47.80641" lon="7.17974">
        <ele>293.8</ele>
        <time>2019-08-09T20:50:36Z</time>
      </trkpt>
      <trkpt lat="47.80641" lon="7.17981">
        <ele>293.8</ele>
        <time>2019-08-09T20:50:37Z</time>
      </trkpt>
      <trkpt lat="47.80641" lon="7.17988">
        <ele>293.7</ele>
        <time>2019-08-09T20:50:38Z</time>
      </trkpt>
      <trkpt lat="47.80641" lon="7.17995">
        <ele>293.6</ele>
        <time>2019-08-09T20:50:39Z</time>
      </trkpt>
      <trkpt lat="47.80641" lon="7.18003">
        <ele>293.5</ele>
        <time>2019-08-09T20:50:40Z</time>
      </trkpt>
      <trkpt lat="47.80641" lon="7.1801">
        <ele>293.4</ele>
        <time>2019-08-09T20:50:41Z</time>
      </trkpt>
      <trkpt lat="47.8064" lon="7.18017">
        <ele>293.3</ele>
        <time>2019-08-09T20:50:42Z</time>
      </trkpt>
      <trkpt lat="47.8064" lon="7.18024">
        <ele>293.1</ele>
        <time>2019-08-09T20:50:43Z</time>
      </trkpt>
      <trkpt lat="47.8064" lon="7.18031">
        <ele>292.9</ele>
        <time>2019-08-09T20:50:44Z</time>
      </trkpt>
      <trkpt lat="47.8064" lon="7.18037">
        <ele>292.8</ele>
        <time>2019-08-09T20:50:45Z</time>
      </trkpt>
      <trkpt lat="47.8064" lon="7.18043">
        <ele>292.6</ele>
        <time>2019-08-09T20:50:46Z</time>
      </trkpt>
      <trkpt lat="47.80639" lon="7.1805">
        <ele>292.5</ele>
        <time>2019-08-09T20:50:47Z</time>
      </trkpt>
      <trkpt lat="47.80639" lon="7.18056">
        <ele>292.3</ele>
        <time>2019-08-09T20:50:48Z</time>
      </trkpt>
      <trkpt lat="47.80639" lon="7.18061">
        <ele>292.2</ele>
        <time>2019-08-09T20:50:49Z</time>
      </trkpt>
      <trkpt lat="47.80639" lon="7.18067">
        <ele>292</ele>
        <time>2019-08-09T20:50:50Z</time>
      </trkpt>
      <trkpt lat="47.80638" lon="7.18073">
        <ele>291.8</ele>
        <time>2019-08-09T20:50:51Z</time>
      </trkpt>
      <trkpt lat="47.80638" lon="7.18081">
        <ele>291.6</ele>
        <time>2019-08-09T20:50:52Z</time>
      </trkpt>
      <trkpt lat="47.80638" lon="7.18087">
        <ele>291.4</ele>
        <time>2019-08-09T20:50:53Z</time>
      </trkpt>
      <trkpt lat="47.80639" lon="7.18093">
        <ele>291.2</ele>
        <time>2019-08-09T20:50:54Z</time>
      </trkpt>
      <trkpt lat="47.8064" lon="7.18099">
        <ele>290.9</ele>
        <time>2019-08-09T20:50:55Z</time>
      </trkpt>
      <trkpt lat="47.8064" lon="7.18104">
        <ele>290.8</ele>
        <time>2019-08-09T20:50:56Z</time>
      </trkpt>
      <trkpt lat="47.80641" lon="7.18109">
        <ele>290.7</ele>
        <time>2019-08-09T20:50:57Z</time>
      </trkpt>
      <trkpt lat="47.80642" lon="7.18113">
        <ele>290.7</ele>
        <time>2019-08-09T20:50:58Z</time>
      </trkpt>
      <trkpt lat="47.80642" lon="7.18118">
        <ele>290.6</ele>
        <time>2019-08-09T20:50:59Z</time>
      </trkpt>
      <trkpt lat="47.80644" lon="7.18121">
        <ele>290.5</ele>
        <time>2019-08-09T20:51:00Z</time>
      </trkpt>
      <trkpt lat="47.80645" lon="7.18125">
        <ele>290.4</ele>
        <time>2019-08-09T20:51:01Z</time>
      </trkpt>
      <trkpt lat="47.80645" lon="7.1813">
        <ele>290.3</ele>
        <time>2019-08-09T20:51:02Z</time>
      </trkpt>
      <trkpt lat="47.80646" lon="7.18135">
        <ele>290.2</ele>
        <time>2019-08-09T20:51:03Z</time>
      </trkpt>
      <trkpt lat="47.80647" lon="7.1814">
        <ele>290.2</ele>
        <time>2019-08-09T20:51:04Z</time>
      </trkpt>
      <trkpt lat="47.80648" lon="7.18145">
        <ele>290</ele>
        <time>2019-08-09T20:51:05Z</time>
      </trkpt>
      <trkpt lat="47.80649" lon="7.18151">
        <ele>289.9</ele>
        <time>2019-08-09T20:51:06Z</time>
      </trkpt>
      <trkpt lat="47.8065" lon="7.18156">
        <ele>289.8</ele>
        <time>2019-08-09T20:51:07Z</time>
      </trkpt>
      <trkpt lat="47.80651" lon="7.18161">
        <ele>289.7</ele>
        <time>2019-08-09T20:51:08Z</time>
      </trkpt>
      <trkpt lat="47.80652" lon="7.18166">
        <ele>289.7</ele>
        <time>2019-08-09T20:51:09Z</time>
      </trkpt>
      <trkpt lat="47.80653" lon="7.1817">
        <ele>289.6</ele>
        <time>2019-08-09T20:51:10Z</time>
      </trkpt>
      <trkpt lat="47.80654" lon="7.18174">
        <ele>289.5</ele>
        <time>2019-08-09T20:51:11Z</time>
      </trkpt>
      <trkpt lat="47.80655" lon="7.1818">
        <ele>289.4</ele>
        <time>2019-08-09T20:51:13Z</time>
      </trkpt>
      <trkpt lat="47.80655" lon="7.18184">
        <ele>289.3</ele>
        <time>2019-08-09T20:51:16Z</time>
      </trkpt>
      <trkpt lat="47.80653" lon="7.18187">
        <ele>289.3</ele>
        <time>2019-08-09T20:51:22Z</time>
      </trkpt>
      <trkpt lat="47.80654" lon="7.18191">
        <ele>289.2</ele>
        <time>2019-08-09T20:51:26Z</time>
      </trkpt>
      <trkpt lat="47.80654" lon="7.18195">
        <ele>289.1</ele>
        <time>2019-08-09T20:51:28Z</time>
      </trkpt>
      <trkpt lat="47.80656" lon="7.182">
        <ele>289</ele>
        <time>2019-08-09T20:51:31Z</time>
      </trkpt>
      <trkpt lat="47.80658" lon="7.18203">
        <ele>288.9</ele>
        <time>2019-08-09T20:51:34Z</time>
      </trkpt>
      <trkpt lat="47.80661" lon="7.18201">
        <ele>288.9</ele>
        <time>2019-08-09T20:51:36Z</time>
      </trkpt>
      <trkpt lat="47.80664" lon="7.18195">
        <ele>288.9</ele>
        <time>2019-08-09T20:51:38Z</time>
      </trkpt>
      <trkpt lat="47.80667" lon="7.18193">
        <ele>288.9</ele>
        <time>2019-08-09T20:51:39Z</time>
      </trkpt>
      <trkpt lat="47.8067" lon="7.18191">
        <ele>288.9</ele>
        <time>2019-08-09T20:51:40Z</time>
      </trkpt>
      <trkpt lat="47.80673" lon="7.1819">
        <ele>289</ele>
        <time>2019-08-09T20:51:41Z</time>
      </trkpt>
      <trkpt lat="47.80677" lon="7.18189">
        <ele>289</ele>
        <time>2019-08-09T20:51:42Z</time>
      </trkpt>
      <trkpt lat="47.80681" lon="7.18187">
        <ele>289</ele>
        <time>2019-08-09T20:51:43Z</time>
      </trkpt>
      <trkpt lat="47.80686" lon="7.18185">
        <ele>289</ele>
        <time>2019-08-09T20:51:44Z</time>
      </trkpt>
      <trkpt lat="47.8069" lon="7.18183">
        <ele>289</ele>
        <time>2019-08-09T20:51:45Z</time>
      </trkpt>
      <trkpt lat="47.80695" lon="7.18182">
        <ele>289</ele>
        <time>2019-08-09T20:51:46Z</time>
      </trkpt>
      <trkpt lat="47.80699" lon="7.1818">
        <ele>289.1</ele>
        <time>2019-08-09T20:51:47Z</time>
      </trkpt>
      <trkpt lat="47.80703" lon="7.18178">
        <ele>289.1</ele>
        <time>2019-08-09T20:51:48Z</time>
      </trkpt>
      <trkpt lat="47.80707" lon="7.18177">
        <ele>289.1</ele>
        <time>2019-08-09T20:51:49Z</time>
      </trkpt>
      <trkpt lat="47.80711" lon="7.18175">
        <ele>289.2</ele>
        <time>2019-08-09T20:51:50Z</time>
      </trkpt>
      <trkpt lat="47.80715" lon="7.18174">
        <ele>289.2</ele>
        <time>2019-08-09T20:51:51Z</time>
      </trkpt>
      <trkpt lat="47.80719" lon="7.18173">
        <ele>289.3</ele>
        <time>2019-08-09T20:51:52Z</time>
      </trkpt>
      <trkpt lat="47.80723" lon="7.18173">
        <ele>289.3</ele>
        <time>2019-08-09T20:51:53Z</time>
      </trkpt>
      <trkpt lat="47.80727" lon="7.18173">
        <ele>289.4</ele>
        <time>2019-08-09T20:51:54Z</time>
      </trkpt>
      <trkpt lat="47.80731" lon="7.18174">
        <ele>289.4</ele>
        <time>2019-08-09T20:51:55Z</time>
      </trkpt>
      <trkpt lat="47.80735" lon="7.18176">
        <ele>289.5</ele>
        <time>2019-08-09T20:51:56Z</time>
      </trkpt>
      <trkpt lat="47.80738" lon="7.1818">
        <ele>289.5</ele>
        <time>2019-08-09T20:51:57Z</time>
      </trkpt>
      <trkpt lat="47.80741" lon="7.18184">
        <ele>289.5</ele>
        <time>2019-08-09T20:51:58Z</time>
      </trkpt>
      <trkpt lat="47.80743" lon="7.1819">
        <ele>289.6</ele>
        <time>2019-08-09T20:51:59Z</time>
      </trkpt>
      <trkpt lat="47.80744" lon="7.18194">
        <ele>289.6</ele>
        <time>2019-08-09T20:52:00Z</time>
      </trkpt>
      <trkpt lat="47.80744" lon="7.18199">
        <ele>289.6</ele>
        <time>2019-08-09T20:52:01Z</time>
      </trkpt>
      <trkpt lat="47.80744" lon="7.18204">
        <ele>289.7</ele>
        <time>2019-08-09T20:52:03Z</time>
      </trkpt>
      <trkpt lat="47.80743" lon="7.18208">
        <ele>289.7</ele>
        <time>2019-08-09T20:52:11Z</time>
      </trkpt>
      <trkpt lat="47.80746" lon="7.18209">
        <ele>289.7</ele>
        <time>2019-08-09T20:52:17Z</time>
      </trkpt>
      <trkpt lat="47.80749" lon="7.18208">
        <ele>289.7</ele>
        <time>2019-08-09T20:52:22Z</time>
      </trkpt>
      <trkpt lat="47.8075" lon="7.18199">
        <ele>289.8</ele>
        <time>2019-08-09T20:52:53Z</time>
      </trkpt>
      <trkpt lat="47.80749" lon="7.18193">
        <ele>289.8</ele>
        <time>2019-08-09T20:52:56Z</time>
      </trkpt>
      <trkpt lat="47.80747" lon="7.18189">
        <ele>289.8</ele>
        <time>2019-08-09T20:52:58Z</time>
      </trkpt>
      <trkpt lat="47.80743" lon="7.18183">
        <ele>289.7</ele>
        <time>2019-08-09T20:53:00Z</time>
      </trkpt>
      <trkpt lat="47.80741" lon="7.1818">
        <ele>289.7</ele>
        <time>2019-08-09T20:53:01Z</time>
      </trkpt>
      <trkpt lat="47.80738" lon="7.18177">
        <ele>289.6</ele>
        <time>2019-08-09T20:53:02Z</time>
      </trkpt>
      <trkpt lat="47.80735" lon="7.18175">
        <ele>289.6</ele>
        <time>2019-08-09T20:53:03Z</time>
      </trkpt>
      <trkpt lat="47.80733" lon="7.18172">
        <ele>289.5</ele>
        <time>2019-08-09T20:53:04Z</time>
      </trkpt>
      <trkpt lat="47.80729" lon="7.1817">
        <ele>289.4</ele>
        <time>2019-08-09T20:53:05Z</time>
      </trkpt>
      <trkpt lat="47.80725" lon="7.18169">
        <ele>289.4</ele>
        <time>2019-08-09T20:53:06Z</time>
      </trkpt>
      <trkpt lat="47.80722" lon="7.18169">
        <ele>289.3</ele>
        <time>2019-08-09T20:53:07Z</time>
      </trkpt>
      <trkpt lat="47.80718" lon="7.18171">
        <ele>289.3</ele>
        <time>2019-08-09T20:53:08Z</time>
      </trkpt>
      <trkpt lat="47.80715" lon="7.18172">
        <ele>289.2</ele>
        <time>2019-08-09T20:53:09Z</time>
      </trkpt>
      <trkpt lat="47.80711" lon="7.18172">
        <ele>289.2</ele>
        <time>2019-08-09T20:53:10Z</time>
      </trkpt>
      <trkpt lat="47.80707" lon="7.18174">
        <ele>289.2</ele>
        <time>2019-08-09T20:53:11Z</time>
      </trkpt>
      <trkpt lat="47.80703" lon="7.18176">
        <ele>289.1</ele>
        <time>2019-08-09T20:53:12Z</time>
      </trkpt>
      <trkpt lat="47.80699" lon="7.18178">
        <ele>289.1</ele>
        <time>2019-08-09T20:53:13Z</time>
      </trkpt>
      <trkpt lat="47.80695" lon="7.1818">
        <ele>289.1</ele>
        <time>2019-08-09T20:53:14Z</time>
      </trkpt>
      <trkpt lat="47.80692" lon="7.18181">
        <ele>289</ele>
        <time>2019-08-09T20:53:15Z</time>
      </trkpt>
      <trkpt lat="47.80688" lon="7.18182">
        <ele>289</ele>
        <time>2019-08-09T20:53:16Z</time>
      </trkpt>
      <trkpt lat="47.80684" lon="7.18183">
        <ele>289</ele>
        <time>2019-08-09T20:53:17Z</time>
      </trkpt>
      <trkpt lat="47.80681" lon="7.18185">
        <ele>289</ele>
        <time>2019-08-09T20:53:18Z</time>
      </trkpt>
      <trkpt lat="47.80678" lon="7.18185">
        <ele>289</ele>
        <time>2019-08-09T20:53:19Z</time>
      </trkpt>
      <trkpt lat="47.80674" lon="7.18186">
        <ele>289</ele>
        <time>2019-08-09T20:53:20Z</time>
      </trkpt>
      <trkpt lat="47.80671" lon="7.18188">
        <ele>289</ele>
        <time>2019-08-09T20:53:21Z</time>
      </trkpt>
      <trkpt lat="47.80667" lon="7.1819">
        <ele>288.9</ele>
        <time>2019-08-09T20:53:22Z</time>
      </trkpt>
      <trkpt lat="47.80665" lon="7.18193">
        <ele>288.9</ele>
        <time>2019-08-09T20:53:23Z</time>
      </trkpt>
      <trkpt lat="47.80662" lon="7.18196">
        <ele>288.9</ele>
        <time>2019-08-09T20:53:24Z</time>
      </trkpt>
      <trkpt lat="47.80662" lon="7.18201">
        <ele>288.9</ele>
        <time>2019-08-09T20:53:25Z</time>
      </trkpt>
      <trkpt lat="47.80662" lon="7.18205">
        <ele>289</ele>
        <time>2019-08-09T20:53:26Z</time>
      </trkpt>
      <trkpt lat="47.80662" lon="7.1821">
        <ele>289</ele>
        <time>2019-08-09T20:53:27Z</time>
      </trkpt>
      <trkpt lat="47.80662" lon="7.18216">
        <ele>289</ele>
        <time>2019-08-09T20:53:28Z</time>
      </trkpt>
      <trkpt lat="47.80663" lon="7.18221">
        <ele>289</ele>
        <time>2019-08-09T20:53:29Z</time>
      </trkpt>
      <trkpt lat="47.80664" lon="7.18227">
        <ele>289</ele>
        <time>2019-08-09T20:53:30Z</time>
      </trkpt>
      <trkpt lat="47.80665" lon="7.18233">
        <ele>289</ele>
        <time>2019-08-09T20:53:31Z</time>
      </trkpt>
      <trkpt lat="47.80665" lon="7.18239">
        <ele>289</ele>
        <time>2019-08-09T20:53:32Z</time>
      </trkpt>
      <trkpt lat="47.80667" lon="7.18245">
        <ele>288.9</ele>
        <time>2019-08-09T20:53:33Z</time>
      </trkpt>
      <trkpt lat="47.80668" lon="7.18251">
        <ele>288.9</ele>
        <time>2019-08-09T20:53:34Z</time>
      </trkpt>
      <trkpt lat="47.80669" lon="7.18257">
        <ele>288.9</ele>
        <time>2019-08-09T20:53:35Z</time>
      </trkpt>
      <trkpt lat="47.8067" lon="7.18263">
        <ele>288.8</ele>
        <time>2019-08-09T20:53:36Z</time>
      </trkpt>
      <trkpt lat="47.80671" lon="7.18269">
        <ele>288.8</ele>
        <time>2019-08-09T20:53:37Z</time>
      </trkpt>
      <trkpt lat="47.80672" lon="7.18275">
        <ele>288.8</ele>
        <time>2019-08-09T20:53:38Z</time>
      </trkpt>
      <trkpt lat="47.80673" lon="7.18281">
        <ele>288.7</ele>
        <time>2019-08-09T20:53:39Z</time>
      </trkpt>
      <trkpt lat="47.80674" lon="7.18286">
        <ele>288.7</ele>
        <time>2019-08-09T20:53:40Z</time>
      </trkpt>
      <trkpt lat="47.80675" lon="7.18292">
        <ele>288.8</ele>
        <time>2019-08-09T20:53:41Z</time>
      </trkpt>
      <trkpt lat="47.80676" lon="7.18298">
        <ele>288.8</ele>
        <time>2019-08-09T20:53:42Z</time>
      </trkpt>
      <trkpt lat="47.80677" lon="7.18303">
        <ele>288.9</ele>
        <time>2019-08-09T20:53:43Z</time>
      </trkpt>
      <trkpt lat="47.80678" lon="7.18307">
        <ele>288.9</ele>
        <time>2019-08-09T20:53:44Z</time>
      </trkpt>
      <trkpt lat="47.80679" lon="7.18313">
        <ele>289</ele>
        <time>2019-08-09T20:53:45Z</time>
      </trkpt>
      <trkpt lat="47.80681" lon="7.18319">
        <ele>289.1</ele>
        <time>2019-08-09T20:53:46Z</time>
      </trkpt>
      <trkpt lat="47.80682" lon="7.18324">
        <ele>289.2</ele>
        <time>2019-08-09T20:53:47Z</time>
      </trkpt>
      <trkpt lat="47.80683" lon="7.1833">
        <ele>289.3</ele>
        <time>2019-08-09T20:53:48Z</time>
      </trkpt>
      <trkpt lat="47.80684" lon="7.18336">
        <ele>289.4</ele>
        <time>2019-08-09T20:53:49Z</time>
      </trkpt>
      <trkpt lat="47.80685" lon="7.18342">
        <ele>289.5</ele>
        <time>2019-08-09T20:53:50Z</time>
      </trkpt>
      <trkpt lat="47.80686" lon="7.18348">
        <ele>289.7</ele>
        <time>2019-08-09T20:53:51Z</time>
      </trkpt>
      <trkpt lat="47.80687" lon="7.18354">
        <ele>289.7</ele>
        <time>2019-08-09T20:53:52Z</time>
      </trkpt>
      <trkpt lat="47.80688" lon="7.18361">
        <ele>289.8</ele>
        <time>2019-08-09T20:53:53Z</time>
      </trkpt>
      <trkpt lat="47.8069" lon="7.18368">
        <ele>289.8</ele>
        <time>2019-08-09T20:53:54Z</time>
      </trkpt>
      <trkpt lat="47.80691" lon="7.18375">
        <ele>289.8</ele>
        <time>2019-08-09T20:53:55Z</time>
      </trkpt>
      <trkpt lat="47.80692" lon="7.18382">
        <ele>289.8</ele>
        <time>2019-08-09T20:53:56Z</time>
      </trkpt>
      <trkpt lat="47.80694" lon="7.18389">
        <ele>289.7</ele>
        <time>2019-08-09T20:53:57Z</time>
      </trkpt>
      <trkpt lat="47.80695" lon="7.18396">
        <ele>289.6</ele>
        <time>2019-08-09T20:53:58Z</time>
      </trkpt>
      <trkpt lat="47.80697" lon="7.18403">
        <ele>289.5</ele>
        <time>2019-08-09T20:53:59Z</time>
      </trkpt>
      <trkpt lat="47.80698" lon="7.1841">
        <ele>289.3</ele>
        <time>2019-08-09T20:54:00Z</time>
      </trkpt>
      <trkpt lat="47.80699" lon="7.18417">
        <ele>289.1</ele>
        <time>2019-08-09T20:54:01Z</time>
      </trkpt>
      <trkpt lat="47.80701" lon="7.18425">
        <ele>288.7</ele>
        <time>2019-08-09T20:54:02Z</time>
      </trkpt>
      <trkpt lat="47.80702" lon="7.18431">
        <ele>288.7</ele>
        <time>2019-08-09T20:54:03Z</time>
      </trkpt>
      <trkpt lat="47.80703" lon="7.18438">
        <ele>288.6</ele>
        <time>2019-08-09T20:54:04Z</time>
      </trkpt>
      <trkpt lat="47.80704" lon="7.18445">
        <ele>288.6</ele>
        <time>2019-08-09T20:54:05Z</time>
      </trkpt>
      <trkpt lat="47.80706" lon="7.18452">
        <ele>288.6</ele>
        <time>2019-08-09T20:54:06Z</time>
      </trkpt>
      <trkpt lat="47.80707" lon="7.18459">
        <ele>288.6</ele>
        <time>2019-08-09T20:54:07Z</time>
      </trkpt>
      <trkpt lat="47.80708" lon="7.18466">
        <ele>288.6</ele>
        <time>2019-08-09T20:54:08Z</time>
      </trkpt>
      <trkpt lat="47.80709" lon="7.18472">
        <ele>288.6</ele>
        <time>2019-08-09T20:54:09Z</time>
      </trkpt>
      <trkpt lat="47.8071" lon="7.18479">
        <ele>288.6</ele>
        <time>2019-08-09T20:54:10Z</time>
      </trkpt>
      <trkpt lat="47.80711" lon="7.18486">
        <ele>288.5</ele>
        <time>2019-08-09T20:54:11Z</time>
      </trkpt>
      <trkpt lat="47.80712" lon="7.18493">
        <ele>288.5</ele>
        <time>2019-08-09T20:54:12Z</time>
      </trkpt>
      <trkpt lat="47.80714" lon="7.18499">
        <ele>288.5</ele>
        <time>2019-08-09T20:54:13Z</time>
      </trkpt>
      <trkpt lat="47.80715" lon="7.18505">
        <ele>288.4</ele>
        <time>2019-08-09T20:54:14Z</time>
      </trkpt>
      <trkpt lat="47.80716" lon="7.18511">
        <ele>288.4</ele>
        <time>2019-08-09T20:54:15Z</time>
      </trkpt>
      <trkpt lat="47.80717" lon="7.18517">
        <ele>288.3</ele>
        <time>2019-08-09T20:54:16Z</time>
      </trkpt>
      <trkpt lat="47.80718" lon="7.18522">
        <ele>288.3</ele>
        <time>2019-08-09T20:54:17Z</time>
      </trkpt>
      <trkpt lat="47.80719" lon="7.18527">
        <ele>288.2</ele>
        <time>2019-08-09T20:54:18Z</time>
      </trkpt>
      <trkpt lat="47.80718" lon="7.18531">
        <ele>288.2</ele>
        <time>2019-08-09T20:54:19Z</time>
      </trkpt>
      <trkpt lat="47.80715" lon="7.18535">
        <ele>288.1</ele>
        <time>2019-08-09T20:54:21Z</time>
      </trkpt>
      <trkpt lat="47.80712" lon="7.18537">
        <ele>288.1</ele>
        <time>2019-08-09T20:54:22Z</time>
      </trkpt>
      <trkpt lat="47.80707" lon="7.18539">
        <ele>288</ele>
        <time>2019-08-09T20:54:24Z</time>
      </trkpt>
      <trkpt lat="47.80704" lon="7.18541">
        <ele>288</ele>
        <time>2019-08-09T20:54:25Z</time>
      </trkpt>
      <trkpt lat="47.80701" lon="7.18542">
        <ele>287.9</ele>
        <time>2019-08-09T20:54:26Z</time>
      </trkpt>
      <trkpt lat="47.80698" lon="7.18544">
        <ele>287.9</ele>
        <time>2019-08-09T20:54:27Z</time>
      </trkpt>
      <trkpt lat="47.80695" lon="7.18545">
        <ele>287.9</ele>
        <time>2019-08-09T20:54:28Z</time>
      </trkpt>
      <trkpt lat="47.8069" lon="7.18547">
        <ele>287.9</ele>
        <time>2019-08-09T20:54:30Z</time>
      </trkpt>
      <trkpt lat="47.80686" lon="7.18549">
        <ele>287.8</ele>
        <time>2019-08-09T20:54:32Z</time>
      </trkpt>
      <trkpt lat="47.80683" lon="7.18551">
        <ele>287.8</ele>
        <time>2019-08-09T20:54:34Z</time>
      </trkpt>
      <trkpt lat="47.8068" lon="7.18554">
        <ele>287.8</ele>
        <time>2019-08-09T20:54:36Z</time>
      </trkpt>
      <trkpt lat="47.80677" lon="7.18554">
        <ele>287.8</ele>
        <time>2019-08-09T20:54:38Z</time>
      </trkpt>
      <trkpt lat="47.80672" lon="7.18555">
        <ele>287.8</ele>
        <time>2019-08-09T20:54:40Z</time>
      </trkpt>
      <trkpt lat="47.80676" lon="7.18557">
        <ele>287.8</ele>
        <time>2019-08-09T20:54:46Z</time>
      </trkpt>
      <trkpt lat="47.80681" lon="7.18556">
        <ele>287.8</ele>
        <time>2019-08-09T20:54:48Z</time>
      </trkpt>
      <trkpt lat="47.80684" lon="7.18559">
        <ele>287.8</ele>
        <time>2019-08-09T20:54:50Z</time>
      </trkpt>
      <trkpt lat="47.80685" lon="7.18563">
        <ele>287.8</ele>
        <time>2019-08-09T20:54:51Z</time>
      </trkpt>
      <trkpt lat="47.80686" lon="7.18567">
        <ele>287.8</ele>
        <time>2019-08-09T20:54:52Z</time>
      </trkpt>
      <trkpt lat="47.80686" lon="7.18572">
        <ele>287.8</ele>
        <time>2019-08-09T20:54:53Z</time>
      </trkpt>
      <trkpt lat="47.80687" lon="7.18577">
        <ele>287.8</ele>
        <time>2019-08-09T20:54:54Z</time>
      </trkpt>
      <trkpt lat="47.80688" lon="7.18581">
        <ele>287.8</ele>
        <time>2019-08-09T20:54:55Z</time>
      </trkpt>
      <trkpt lat="47.80689" lon="7.18585">
        <ele>287.8</ele>
        <time>2019-08-09T20:54:56Z</time>
      </trkpt>
      <trkpt lat="47.8069" lon="7.1859">
        <ele>287.8</ele>
        <time>2019-08-09T20:54:57Z</time>
      </trkpt>
      <trkpt lat="47.8069" lon="7.18594">
        <ele>287.8</ele>
        <time>2019-08-09T20:54:58Z</time>
      </trkpt>
      <trkpt lat="47.80691" lon="7.18598">
        <ele>287.8</ele>
        <time>2019-08-09T20:54:59Z</time>
      </trkpt>
      <trkpt lat="47.80687" lon="7.18602">
        <ele>287.8</ele>
        <time>2019-08-09T20:55:00Z</time>
      </trkpt>
      <trkpt lat="47.80687" lon="7.1861">
        <ele>287.8</ele>
        <time>2019-08-09T20:55:02Z</time>
      </trkpt>
      <trkpt lat="47.80688" lon="7.18614">
        <ele>287.8</ele>
        <time>2019-08-09T20:55:04Z</time>
      </trkpt>
      <trkpt lat="47.80694" lon="7.18605">
        <ele>287.7</ele>
        <time>2019-08-09T20:56:16Z</time>
      </trkpt>
      <trkpt lat="47.80695" lon="7.186">
        <ele>287.7</ele>
        <time>2019-08-09T20:56:18Z</time>
      </trkpt>
      <trkpt lat="47.80696" lon="7.18596">
        <ele>287.7</ele>
        <time>2019-08-09T20:56:20Z</time>
      </trkpt>
      <trkpt lat="47.80699" lon="7.18597">
        <ele>287.7</ele>
        <time>2019-08-09T20:56:25Z</time>
      </trkpt>
      <trkpt lat="47.80712" lon="7.18595">
        <ele>287.7</ele>
        <time>2019-08-09T20:58:52Z</time>
      </trkpt>
    </trkseg>
  </trk>
</gpx>